<?xml version="1.0" encoding="UTF-8" standalone="no" ?>
<gpx xmlns="http://www.topografix.com/GPX/1/1" xmlns:xsi="http://www.w3.org/2001/XMLSchema-instance" xsi:schemaLocation="http://www.topografix.com/GPX/1/1 http://www.topografix.com/GPX/1/1/gpx.xsd" version="1.1" creator="VisuGPX - https://www.visugpx.com">
  <metadata>
    <name>Col du Bonhomme via col de l'Enclave</name>
    <desc><![CDATA[Au départ du parking de Notre Dame des Gorges aucmx Contaminés-Montjoie, boucle qui vous amènera d'abord aux superbes lacs Jovets (photo 1). S'ensuit une montée technique et un peu aérienne au col de l'Enclave (photo 2). Vous accederz ensuite au col des Fours (photo 3) via un terrain rocailleux mais très agréable. Enfin, les cols de la Sauce et du Bonhomme (photo 4) ponctuent ce très beau parcours. 
Belle balade.]]></desc>
  </metadata>
  <trk>
    <name><![CDATA[nicolas_malabre_2026-07-29_06-35-24]]></name>
    <extensions>
      <line xmlns="http://www.topografix.com/GPX/gpx_style/0/2">
        <color>0000FF</color>
        <width>4</width>
      </line>
    </extensions>
    <trkseg>
      <trkpt lat="45.79457" lon="6.71784">
        <ele>1204</ele>
        <time>2026-07-29T04:35:25.125Z</time>
      </trkpt>
      <trkpt lat="45.79457" lon="6.71784">
        <ele>1204</ele>
        <time>2026-07-29T04:35:26.125Z</time>
      </trkpt>
      <trkpt lat="45.79457" lon="6.71784">
        <ele>1204</ele>
        <time>2026-07-29T04:35:27.125Z</time>
      </trkpt>
      <trkpt lat="45.79457" lon="6.71784">
        <ele>1204</ele>
        <time>2026-07-29T04:35:28.125Z</time>
      </trkpt>
      <trkpt lat="45.79457" lon="6.71783">
        <ele>1204</ele>
        <time>2026-07-29T04:35:29.125Z</time>
      </trkpt>
      <trkpt lat="45.79456" lon="6.71781">
        <ele>1204</ele>
        <time>2026-07-29T04:35:30.125Z</time>
      </trkpt>
      <trkpt lat="45.79455" lon="6.71779">
        <ele>1204</ele>
        <time>2026-07-29T04:35:31.125Z</time>
      </trkpt>
      <trkpt lat="45.79454" lon="6.71778">
        <ele>1205</ele>
        <time>2026-07-29T04:35:32.125Z</time>
      </trkpt>
      <trkpt lat="45.79452" lon="6.71776">
        <ele>1205</ele>
        <time>2026-07-29T04:35:33.125Z</time>
      </trkpt>
      <trkpt lat="45.79451" lon="6.71774">
        <ele>1205</ele>
        <time>2026-07-29T04:35:34.125Z</time>
      </trkpt>
      <trkpt lat="45.79449" lon="6.71773">
        <ele>1206</ele>
        <time>2026-07-29T04:35:35.125Z</time>
      </trkpt>
      <trkpt lat="45.79448" lon="6.71771">
        <ele>1206</ele>
        <time>2026-07-29T04:35:36.125Z</time>
      </trkpt>
      <trkpt lat="45.79446" lon="6.71769">
        <ele>1207</ele>
        <time>2026-07-29T04:35:37.125Z</time>
      </trkpt>
      <trkpt lat="45.79442" lon="6.71765">
        <ele>1207</ele>
        <time>2026-07-29T04:36:22.716Z</time>
      </trkpt>
      <trkpt lat="45.79442" lon="6.71765">
        <ele>1207</ele>
        <time>2026-07-29T04:36:23.716Z</time>
      </trkpt>
      <trkpt lat="45.79441" lon="6.71765">
        <ele>1207</ele>
        <time>2026-07-29T04:36:24.716Z</time>
      </trkpt>
      <trkpt lat="45.7944" lon="6.71765">
        <ele>1207</ele>
        <time>2026-07-29T04:36:25.716Z</time>
      </trkpt>
      <trkpt lat="45.79438" lon="6.71765">
        <ele>1207</ele>
        <time>2026-07-29T04:36:26.716Z</time>
      </trkpt>
      <trkpt lat="45.79437" lon="6.71765">
        <ele>1207</ele>
        <time>2026-07-29T04:36:27.716Z</time>
      </trkpt>
      <trkpt lat="45.79435" lon="6.71766">
        <ele>1207</ele>
        <time>2026-07-29T04:36:28.716Z</time>
      </trkpt>
      <trkpt lat="45.79434" lon="6.71767">
        <ele>1207</ele>
        <time>2026-07-29T04:36:29.716Z</time>
      </trkpt>
      <trkpt lat="45.79433" lon="6.71768">
        <ele>1207</ele>
        <time>2026-07-29T04:36:30.716Z</time>
      </trkpt>
      <trkpt lat="45.79432" lon="6.7177">
        <ele>1206</ele>
        <time>2026-07-29T04:36:31.716Z</time>
      </trkpt>
      <trkpt lat="45.79431" lon="6.71771">
        <ele>1206</ele>
        <time>2026-07-29T04:36:32.716Z</time>
      </trkpt>
      <trkpt lat="45.7943" lon="6.71773">
        <ele>1206</ele>
        <time>2026-07-29T04:36:33.716Z</time>
      </trkpt>
      <trkpt lat="45.79429" lon="6.71775">
        <ele>1206</ele>
        <time>2026-07-29T04:36:34.716Z</time>
      </trkpt>
      <trkpt lat="45.79429" lon="6.71777">
        <ele>1207</ele>
        <time>2026-07-29T04:36:35.716Z</time>
      </trkpt>
      <trkpt lat="45.79429" lon="6.7178">
        <ele>1207</ele>
        <time>2026-07-29T04:36:36.716Z</time>
      </trkpt>
      <trkpt lat="45.79429" lon="6.71782">
        <ele>1207</ele>
        <time>2026-07-29T04:36:37.716Z</time>
      </trkpt>
      <trkpt lat="45.79428" lon="6.71784">
        <ele>1207</ele>
        <time>2026-07-29T04:36:38.716Z</time>
      </trkpt>
      <trkpt lat="45.79428" lon="6.71786">
        <ele>1207</ele>
        <time>2026-07-29T04:36:39.716Z</time>
      </trkpt>
      <trkpt lat="45.79428" lon="6.71789">
        <ele>1207</ele>
        <time>2026-07-29T04:36:40.716Z</time>
      </trkpt>
      <trkpt lat="45.79427" lon="6.71791">
        <ele>1207</ele>
        <time>2026-07-29T04:36:41.716Z</time>
      </trkpt>
      <trkpt lat="45.79427" lon="6.71793">
        <ele>1207</ele>
        <time>2026-07-29T04:36:42.716Z</time>
      </trkpt>
      <trkpt lat="45.79427" lon="6.71796">
        <ele>1206</ele>
        <time>2026-07-29T04:36:43.716Z</time>
      </trkpt>
      <trkpt lat="45.79427" lon="6.71798">
        <ele>1206</ele>
        <time>2026-07-29T04:36:44.716Z</time>
      </trkpt>
      <trkpt lat="45.79427" lon="6.718">
        <ele>1207</ele>
        <time>2026-07-29T04:36:45.716Z</time>
      </trkpt>
      <trkpt lat="45.79426" lon="6.71802">
        <ele>1207</ele>
        <time>2026-07-29T04:36:46.716Z</time>
      </trkpt>
      <trkpt lat="45.79426" lon="6.71805">
        <ele>1207</ele>
        <time>2026-07-29T04:36:47.716Z</time>
      </trkpt>
      <trkpt lat="45.79426" lon="6.71807">
        <ele>1208</ele>
        <time>2026-07-29T04:36:48.716Z</time>
      </trkpt>
      <trkpt lat="45.79426" lon="6.71809">
        <ele>1208</ele>
        <time>2026-07-29T04:36:49.716Z</time>
      </trkpt>
      <trkpt lat="45.79424" lon="6.71812">
        <ele>1208</ele>
        <time>2026-07-29T04:36:50.716Z</time>
      </trkpt>
      <trkpt lat="45.79422" lon="6.71816">
        <ele>1209</ele>
        <time>2026-07-29T04:36:51.716Z</time>
      </trkpt>
      <trkpt lat="45.7942" lon="6.71819">
        <ele>1209</ele>
        <time>2026-07-29T04:36:52.716Z</time>
      </trkpt>
      <trkpt lat="45.79418" lon="6.71822">
        <ele>1209</ele>
        <time>2026-07-29T04:36:53.716Z</time>
      </trkpt>
      <trkpt lat="45.79417" lon="6.71823">
        <ele>1209</ele>
        <time>2026-07-29T04:36:54.716Z</time>
      </trkpt>
      <trkpt lat="45.79416" lon="6.71823">
        <ele>1209</ele>
        <time>2026-07-29T04:36:55.716Z</time>
      </trkpt>
      <trkpt lat="45.79415" lon="6.71824">
        <ele>1209</ele>
        <time>2026-07-29T04:36:56.716Z</time>
      </trkpt>
      <trkpt lat="45.79414" lon="6.71825">
        <ele>1209</ele>
        <time>2026-07-29T04:36:57.716Z</time>
      </trkpt>
      <trkpt lat="45.79413" lon="6.71826">
        <ele>1209</ele>
        <time>2026-07-29T04:36:58.716Z</time>
      </trkpt>
      <trkpt lat="45.79412" lon="6.71827">
        <ele>1210</ele>
        <time>2026-07-29T04:36:59.716Z</time>
      </trkpt>
      <trkpt lat="45.7941" lon="6.71829">
        <ele>1210</ele>
        <time>2026-07-29T04:37:00.716Z</time>
      </trkpt>
      <trkpt lat="45.79409" lon="6.7183">
        <ele>1210</ele>
        <time>2026-07-29T04:37:01.716Z</time>
      </trkpt>
      <trkpt lat="45.79408" lon="6.71832">
        <ele>1210</ele>
        <time>2026-07-29T04:37:02.716Z</time>
      </trkpt>
      <trkpt lat="45.79407" lon="6.71833">
        <ele>1211</ele>
        <time>2026-07-29T04:37:03.716Z</time>
      </trkpt>
      <trkpt lat="45.79405" lon="6.71834">
        <ele>1211</ele>
        <time>2026-07-29T04:37:04.716Z</time>
      </trkpt>
      <trkpt lat="45.79404" lon="6.71836">
        <ele>1211</ele>
        <time>2026-07-29T04:37:05.716Z</time>
      </trkpt>
      <trkpt lat="45.79401" lon="6.71838">
        <ele>1211</ele>
        <time>2026-07-29T04:37:06.716Z</time>
      </trkpt>
      <trkpt lat="45.794" lon="6.71839">
        <ele>1211</ele>
        <time>2026-07-29T04:37:07.716Z</time>
      </trkpt>
      <trkpt lat="45.79399" lon="6.71838">
        <ele>1212</ele>
        <time>2026-07-29T04:37:08.716Z</time>
      </trkpt>
      <trkpt lat="45.79398" lon="6.71838">
        <ele>1213</ele>
        <time>2026-07-29T04:37:09.716Z</time>
      </trkpt>
      <trkpt lat="45.79397" lon="6.7184">
        <ele>1213</ele>
        <time>2026-07-29T04:37:10.716Z</time>
      </trkpt>
      <trkpt lat="45.79397" lon="6.71842">
        <ele>1214</ele>
        <time>2026-07-29T04:37:11.716Z</time>
      </trkpt>
      <trkpt lat="45.79397" lon="6.71843">
        <ele>1215</ele>
        <time>2026-07-29T04:37:12.716Z</time>
      </trkpt>
      <trkpt lat="45.79397" lon="6.71844">
        <ele>1215</ele>
        <time>2026-07-29T04:37:13.716Z</time>
      </trkpt>
      <trkpt lat="45.79397" lon="6.71845">
        <ele>1216</ele>
        <time>2026-07-29T04:37:14.716Z</time>
      </trkpt>
      <trkpt lat="45.79397" lon="6.71846">
        <ele>1216</ele>
        <time>2026-07-29T04:37:15.716Z</time>
      </trkpt>
      <trkpt lat="45.79395" lon="6.71846">
        <ele>1217</ele>
        <time>2026-07-29T04:37:16.716Z</time>
      </trkpt>
      <trkpt lat="45.79394" lon="6.71846">
        <ele>1217</ele>
        <time>2026-07-29T04:37:17.716Z</time>
      </trkpt>
      <trkpt lat="45.79394" lon="6.71847">
        <ele>1218</ele>
        <time>2026-07-29T04:37:18.716Z</time>
      </trkpt>
      <trkpt lat="45.79393" lon="6.71847">
        <ele>1218</ele>
        <time>2026-07-29T04:37:19.716Z</time>
      </trkpt>
      <trkpt lat="45.79393" lon="6.71847">
        <ele>1219</ele>
        <time>2026-07-29T04:37:20.716Z</time>
      </trkpt>
      <trkpt lat="45.79392" lon="6.71848">
        <ele>1219</ele>
        <time>2026-07-29T04:37:21.716Z</time>
      </trkpt>
      <trkpt lat="45.79392" lon="6.71849">
        <ele>1220</ele>
        <time>2026-07-29T04:37:22.716Z</time>
      </trkpt>
      <trkpt lat="45.79391" lon="6.7185">
        <ele>1220</ele>
        <time>2026-07-29T04:37:23.716Z</time>
      </trkpt>
      <trkpt lat="45.79389" lon="6.71851">
        <ele>1221</ele>
        <time>2026-07-29T04:37:24.716Z</time>
      </trkpt>
      <trkpt lat="45.79388" lon="6.71852">
        <ele>1221</ele>
        <time>2026-07-29T04:37:25.716Z</time>
      </trkpt>
      <trkpt lat="45.79387" lon="6.71852">
        <ele>1221</ele>
        <time>2026-07-29T04:37:26.716Z</time>
      </trkpt>
      <trkpt lat="45.79386" lon="6.71853">
        <ele>1221</ele>
        <time>2026-07-29T04:37:27.716Z</time>
      </trkpt>
      <trkpt lat="45.79385" lon="6.71854">
        <ele>1222</ele>
        <time>2026-07-29T04:37:28.716Z</time>
      </trkpt>
      <trkpt lat="45.79384" lon="6.71854">
        <ele>1222</ele>
        <time>2026-07-29T04:37:29.716Z</time>
      </trkpt>
      <trkpt lat="45.79384" lon="6.71853">
        <ele>1222</ele>
        <time>2026-07-29T04:37:30.716Z</time>
      </trkpt>
      <trkpt lat="45.79382" lon="6.71853">
        <ele>1222</ele>
        <time>2026-07-29T04:37:31.716Z</time>
      </trkpt>
      <trkpt lat="45.79381" lon="6.71852">
        <ele>1223</ele>
        <time>2026-07-29T04:37:32.716Z</time>
      </trkpt>
      <trkpt lat="45.7938" lon="6.71853">
        <ele>1223</ele>
        <time>2026-07-29T04:37:33.716Z</time>
      </trkpt>
      <trkpt lat="45.79378" lon="6.71853">
        <ele>1223</ele>
        <time>2026-07-29T04:37:34.716Z</time>
      </trkpt>
      <trkpt lat="45.79377" lon="6.71853">
        <ele>1223</ele>
        <time>2026-07-29T04:37:35.716Z</time>
      </trkpt>
      <trkpt lat="45.79375" lon="6.71852">
        <ele>1223</ele>
        <time>2026-07-29T04:37:36.716Z</time>
      </trkpt>
      <trkpt lat="45.79373" lon="6.71851">
        <ele>1223</ele>
        <time>2026-07-29T04:37:37.716Z</time>
      </trkpt>
      <trkpt lat="45.79372" lon="6.71851">
        <ele>1224</ele>
        <time>2026-07-29T04:37:38.716Z</time>
      </trkpt>
      <trkpt lat="45.79371" lon="6.71851">
        <ele>1224</ele>
        <time>2026-07-29T04:37:39.716Z</time>
      </trkpt>
      <trkpt lat="45.79369" lon="6.7185">
        <ele>1224</ele>
        <time>2026-07-29T04:37:40.716Z</time>
      </trkpt>
      <trkpt lat="45.79368" lon="6.7185">
        <ele>1224</ele>
        <time>2026-07-29T04:37:41.716Z</time>
      </trkpt>
      <trkpt lat="45.79366" lon="6.71851">
        <ele>1224</ele>
        <time>2026-07-29T04:37:42.716Z</time>
      </trkpt>
      <trkpt lat="45.79365" lon="6.71852">
        <ele>1225</ele>
        <time>2026-07-29T04:37:43.716Z</time>
      </trkpt>
      <trkpt lat="45.79363" lon="6.71852">
        <ele>1225</ele>
        <time>2026-07-29T04:37:44.716Z</time>
      </trkpt>
      <trkpt lat="45.79362" lon="6.71852">
        <ele>1225</ele>
        <time>2026-07-29T04:37:45.716Z</time>
      </trkpt>
      <trkpt lat="45.7936" lon="6.71852">
        <ele>1224</ele>
        <time>2026-07-29T04:37:46.716Z</time>
      </trkpt>
      <trkpt lat="45.79358" lon="6.7185">
        <ele>1224</ele>
        <time>2026-07-29T04:37:47.716Z</time>
      </trkpt>
      <trkpt lat="45.79355" lon="6.71848">
        <ele>1223</ele>
        <time>2026-07-29T04:37:48.716Z</time>
      </trkpt>
      <trkpt lat="45.79353" lon="6.71846">
        <ele>1223</ele>
        <time>2026-07-29T04:37:49.716Z</time>
      </trkpt>
      <trkpt lat="45.79351" lon="6.71844">
        <ele>1222</ele>
        <time>2026-07-29T04:37:50.716Z</time>
      </trkpt>
      <trkpt lat="45.79349" lon="6.71842">
        <ele>1222</ele>
        <time>2026-07-29T04:37:51.716Z</time>
      </trkpt>
      <trkpt lat="45.79347" lon="6.7184">
        <ele>1222</ele>
        <time>2026-07-29T04:37:52.716Z</time>
      </trkpt>
      <trkpt lat="45.79344" lon="6.71839">
        <ele>1221</ele>
        <time>2026-07-29T04:37:53.716Z</time>
      </trkpt>
      <trkpt lat="45.79342" lon="6.71838">
        <ele>1221</ele>
        <time>2026-07-29T04:37:54.716Z</time>
      </trkpt>
      <trkpt lat="45.79341" lon="6.71836">
        <ele>1221</ele>
        <time>2026-07-29T04:37:55.716Z</time>
      </trkpt>
      <trkpt lat="45.79339" lon="6.71834">
        <ele>1221</ele>
        <time>2026-07-29T04:37:56.716Z</time>
      </trkpt>
      <trkpt lat="45.79337" lon="6.71832">
        <ele>1221</ele>
        <time>2026-07-29T04:37:57.716Z</time>
      </trkpt>
      <trkpt lat="45.79335" lon="6.71831">
        <ele>1221</ele>
        <time>2026-07-29T04:37:58.716Z</time>
      </trkpt>
      <trkpt lat="45.79333" lon="6.7183">
        <ele>1221</ele>
        <time>2026-07-29T04:37:59.716Z</time>
      </trkpt>
      <trkpt lat="45.79332" lon="6.71827">
        <ele>1221</ele>
        <time>2026-07-29T04:38:00.716Z</time>
      </trkpt>
      <trkpt lat="45.79331" lon="6.71826">
        <ele>1220</ele>
        <time>2026-07-29T04:38:01.716Z</time>
      </trkpt>
      <trkpt lat="45.7933" lon="6.71824">
        <ele>1220</ele>
        <time>2026-07-29T04:38:02.716Z</time>
      </trkpt>
      <trkpt lat="45.79328" lon="6.71822">
        <ele>1219</ele>
        <time>2026-07-29T04:38:03.716Z</time>
      </trkpt>
      <trkpt lat="45.79326" lon="6.7182">
        <ele>1219</ele>
        <time>2026-07-29T04:38:04.716Z</time>
      </trkpt>
      <trkpt lat="45.79324" lon="6.71819">
        <ele>1219</ele>
        <time>2026-07-29T04:38:05.716Z</time>
      </trkpt>
      <trkpt lat="45.79323" lon="6.71818">
        <ele>1219</ele>
        <time>2026-07-29T04:38:06.716Z</time>
      </trkpt>
      <trkpt lat="45.79321" lon="6.71817">
        <ele>1218</ele>
        <time>2026-07-29T04:38:07.716Z</time>
      </trkpt>
      <trkpt lat="45.7932" lon="6.71816">
        <ele>1218</ele>
        <time>2026-07-29T04:38:08.716Z</time>
      </trkpt>
      <trkpt lat="45.79318" lon="6.71815">
        <ele>1218</ele>
        <time>2026-07-29T04:38:09.716Z</time>
      </trkpt>
      <trkpt lat="45.79316" lon="6.71814">
        <ele>1218</ele>
        <time>2026-07-29T04:38:10.716Z</time>
      </trkpt>
      <trkpt lat="45.79314" lon="6.71814">
        <ele>1217</ele>
        <time>2026-07-29T04:38:11.716Z</time>
      </trkpt>
      <trkpt lat="45.79311" lon="6.71813">
        <ele>1217</ele>
        <time>2026-07-29T04:38:12.716Z</time>
      </trkpt>
      <trkpt lat="45.7931" lon="6.71811">
        <ele>1217</ele>
        <time>2026-07-29T04:38:13.716Z</time>
      </trkpt>
      <trkpt lat="45.79309" lon="6.7181">
        <ele>1217</ele>
        <time>2026-07-29T04:38:14.716Z</time>
      </trkpt>
      <trkpt lat="45.79307" lon="6.71809">
        <ele>1218</ele>
        <time>2026-07-29T04:38:15.716Z</time>
      </trkpt>
      <trkpt lat="45.79306" lon="6.71807">
        <ele>1218</ele>
        <time>2026-07-29T04:38:16.716Z</time>
      </trkpt>
      <trkpt lat="45.79305" lon="6.71805">
        <ele>1218</ele>
        <time>2026-07-29T04:38:17.716Z</time>
      </trkpt>
      <trkpt lat="45.79303" lon="6.71804">
        <ele>1219</ele>
        <time>2026-07-29T04:38:18.716Z</time>
      </trkpt>
      <trkpt lat="45.79302" lon="6.71802">
        <ele>1219</ele>
        <time>2026-07-29T04:38:19.716Z</time>
      </trkpt>
      <trkpt lat="45.79301" lon="6.71801">
        <ele>1220</ele>
        <time>2026-07-29T04:38:20.716Z</time>
      </trkpt>
      <trkpt lat="45.79299" lon="6.718">
        <ele>1220</ele>
        <time>2026-07-29T04:38:21.716Z</time>
      </trkpt>
      <trkpt lat="45.79298" lon="6.71799">
        <ele>1221</ele>
        <time>2026-07-29T04:38:22.716Z</time>
      </trkpt>
      <trkpt lat="45.79296" lon="6.71797">
        <ele>1221</ele>
        <time>2026-07-29T04:38:23.716Z</time>
      </trkpt>
      <trkpt lat="45.79294" lon="6.71796">
        <ele>1222</ele>
        <time>2026-07-29T04:38:24.716Z</time>
      </trkpt>
      <trkpt lat="45.79293" lon="6.71795">
        <ele>1222</ele>
        <time>2026-07-29T04:38:25.716Z</time>
      </trkpt>
      <trkpt lat="45.79291" lon="6.71793">
        <ele>1223</ele>
        <time>2026-07-29T04:38:26.716Z</time>
      </trkpt>
      <trkpt lat="45.7929" lon="6.71792">
        <ele>1223</ele>
        <time>2026-07-29T04:38:27.716Z</time>
      </trkpt>
      <trkpt lat="45.79288" lon="6.71791">
        <ele>1223</ele>
        <time>2026-07-29T04:38:28.716Z</time>
      </trkpt>
      <trkpt lat="45.79287" lon="6.71789">
        <ele>1223</ele>
        <time>2026-07-29T04:38:29.716Z</time>
      </trkpt>
      <trkpt lat="45.79285" lon="6.71788">
        <ele>1223</ele>
        <time>2026-07-29T04:38:30.716Z</time>
      </trkpt>
      <trkpt lat="45.79284" lon="6.71786">
        <ele>1223</ele>
        <time>2026-07-29T04:38:31.716Z</time>
      </trkpt>
      <trkpt lat="45.79283" lon="6.71784">
        <ele>1223</ele>
        <time>2026-07-29T04:38:32.716Z</time>
      </trkpt>
      <trkpt lat="45.79282" lon="6.71782">
        <ele>1222</ele>
        <time>2026-07-29T04:38:33.716Z</time>
      </trkpt>
      <trkpt lat="45.79281" lon="6.71781">
        <ele>1222</ele>
        <time>2026-07-29T04:38:34.716Z</time>
      </trkpt>
      <trkpt lat="45.7928" lon="6.71779">
        <ele>1222</ele>
        <time>2026-07-29T04:38:35.716Z</time>
      </trkpt>
      <trkpt lat="45.79279" lon="6.71777">
        <ele>1221</ele>
        <time>2026-07-29T04:38:36.716Z</time>
      </trkpt>
      <trkpt lat="45.79278" lon="6.71775">
        <ele>1221</ele>
        <time>2026-07-29T04:38:37.716Z</time>
      </trkpt>
      <trkpt lat="45.79277" lon="6.71773">
        <ele>1220</ele>
        <time>2026-07-29T04:38:38.716Z</time>
      </trkpt>
      <trkpt lat="45.79276" lon="6.71771">
        <ele>1220</ele>
        <time>2026-07-29T04:38:39.716Z</time>
      </trkpt>
      <trkpt lat="45.79275" lon="6.71769">
        <ele>1220</ele>
        <time>2026-07-29T04:38:40.716Z</time>
      </trkpt>
      <trkpt lat="45.79275" lon="6.71767">
        <ele>1220</ele>
        <time>2026-07-29T04:38:41.716Z</time>
      </trkpt>
      <trkpt lat="45.79274" lon="6.71765">
        <ele>1220</ele>
        <time>2026-07-29T04:38:42.716Z</time>
      </trkpt>
      <trkpt lat="45.79273" lon="6.71762">
        <ele>1220</ele>
        <time>2026-07-29T04:38:43.716Z</time>
      </trkpt>
      <trkpt lat="45.79273" lon="6.7176">
        <ele>1220</ele>
        <time>2026-07-29T04:38:44.716Z</time>
      </trkpt>
      <trkpt lat="45.79272" lon="6.71758">
        <ele>1220</ele>
        <time>2026-07-29T04:38:45.716Z</time>
      </trkpt>
      <trkpt lat="45.79271" lon="6.71756">
        <ele>1220</ele>
        <time>2026-07-29T04:38:46.716Z</time>
      </trkpt>
      <trkpt lat="45.79271" lon="6.71754">
        <ele>1221</ele>
        <time>2026-07-29T04:38:47.716Z</time>
      </trkpt>
      <trkpt lat="45.7927" lon="6.71751">
        <ele>1221</ele>
        <time>2026-07-29T04:38:48.716Z</time>
      </trkpt>
      <trkpt lat="45.79269" lon="6.71749">
        <ele>1221</ele>
        <time>2026-07-29T04:38:49.716Z</time>
      </trkpt>
      <trkpt lat="45.79268" lon="6.71747">
        <ele>1221</ele>
        <time>2026-07-29T04:38:50.716Z</time>
      </trkpt>
      <trkpt lat="45.79267" lon="6.71745">
        <ele>1220</ele>
        <time>2026-07-29T04:38:51.716Z</time>
      </trkpt>
      <trkpt lat="45.79266" lon="6.71743">
        <ele>1220</ele>
        <time>2026-07-29T04:38:52.716Z</time>
      </trkpt>
      <trkpt lat="45.79265" lon="6.71741">
        <ele>1220</ele>
        <time>2026-07-29T04:38:53.716Z</time>
      </trkpt>
      <trkpt lat="45.79263" lon="6.71739">
        <ele>1220</ele>
        <time>2026-07-29T04:38:54.716Z</time>
      </trkpt>
      <trkpt lat="45.79262" lon="6.71738">
        <ele>1220</ele>
        <time>2026-07-29T04:38:55.716Z</time>
      </trkpt>
      <trkpt lat="45.79261" lon="6.71736">
        <ele>1220</ele>
        <time>2026-07-29T04:38:56.716Z</time>
      </trkpt>
      <trkpt lat="45.79259" lon="6.71735">
        <ele>1220</ele>
        <time>2026-07-29T04:38:57.716Z</time>
      </trkpt>
      <trkpt lat="45.79258" lon="6.71734">
        <ele>1220</ele>
        <time>2026-07-29T04:38:58.716Z</time>
      </trkpt>
      <trkpt lat="45.79256" lon="6.71732">
        <ele>1219</ele>
        <time>2026-07-29T04:38:59.716Z</time>
      </trkpt>
      <trkpt lat="45.79255" lon="6.71732">
        <ele>1219</ele>
        <time>2026-07-29T04:39:00.716Z</time>
      </trkpt>
      <trkpt lat="45.79253" lon="6.7173">
        <ele>1218</ele>
        <time>2026-07-29T04:39:01.716Z</time>
      </trkpt>
      <trkpt lat="45.79252" lon="6.71728">
        <ele>1218</ele>
        <time>2026-07-29T04:39:02.716Z</time>
      </trkpt>
      <trkpt lat="45.79251" lon="6.71727">
        <ele>1218</ele>
        <time>2026-07-29T04:39:03.716Z</time>
      </trkpt>
      <trkpt lat="45.7925" lon="6.71725">
        <ele>1218</ele>
        <time>2026-07-29T04:39:04.716Z</time>
      </trkpt>
      <trkpt lat="45.79249" lon="6.71723">
        <ele>1219</ele>
        <time>2026-07-29T04:39:05.716Z</time>
      </trkpt>
      <trkpt lat="45.79247" lon="6.71722">
        <ele>1219</ele>
        <time>2026-07-29T04:39:06.716Z</time>
      </trkpt>
      <trkpt lat="45.79246" lon="6.71721">
        <ele>1220</ele>
        <time>2026-07-29T04:39:07.716Z</time>
      </trkpt>
      <trkpt lat="45.79244" lon="6.7172">
        <ele>1220</ele>
        <time>2026-07-29T04:39:08.716Z</time>
      </trkpt>
      <trkpt lat="45.79244" lon="6.71719">
        <ele>1221</ele>
        <time>2026-07-29T04:39:09.716Z</time>
      </trkpt>
      <trkpt lat="45.79243" lon="6.71717">
        <ele>1221</ele>
        <time>2026-07-29T04:39:10.716Z</time>
      </trkpt>
      <trkpt lat="45.79242" lon="6.71716">
        <ele>1221</ele>
        <time>2026-07-29T04:39:11.716Z</time>
      </trkpt>
      <trkpt lat="45.79241" lon="6.71714">
        <ele>1221</ele>
        <time>2026-07-29T04:39:12.716Z</time>
      </trkpt>
      <trkpt lat="45.7924" lon="6.71712">
        <ele>1221</ele>
        <time>2026-07-29T04:39:13.716Z</time>
      </trkpt>
      <trkpt lat="45.79239" lon="6.7171">
        <ele>1222</ele>
        <time>2026-07-29T04:39:14.716Z</time>
      </trkpt>
      <trkpt lat="45.79238" lon="6.71709">
        <ele>1222</ele>
        <time>2026-07-29T04:39:15.716Z</time>
      </trkpt>
      <trkpt lat="45.79237" lon="6.71708">
        <ele>1222</ele>
        <time>2026-07-29T04:39:16.716Z</time>
      </trkpt>
      <trkpt lat="45.79236" lon="6.71707">
        <ele>1222</ele>
        <time>2026-07-29T04:39:17.716Z</time>
      </trkpt>
      <trkpt lat="45.79236" lon="6.71706">
        <ele>1222</ele>
        <time>2026-07-29T04:39:18.716Z</time>
      </trkpt>
      <trkpt lat="45.79235" lon="6.71705">
        <ele>1222</ele>
        <time>2026-07-29T04:39:19.716Z</time>
      </trkpt>
      <trkpt lat="45.79234" lon="6.71704">
        <ele>1222</ele>
        <time>2026-07-29T04:39:20.716Z</time>
      </trkpt>
      <trkpt lat="45.79232" lon="6.71703">
        <ele>1222</ele>
        <time>2026-07-29T04:39:21.716Z</time>
      </trkpt>
      <trkpt lat="45.7923" lon="6.71701">
        <ele>1222</ele>
        <time>2026-07-29T04:39:22.716Z</time>
      </trkpt>
      <trkpt lat="45.79229" lon="6.717">
        <ele>1222</ele>
        <time>2026-07-29T04:39:23.716Z</time>
      </trkpt>
      <trkpt lat="45.79228" lon="6.71698">
        <ele>1223</ele>
        <time>2026-07-29T04:39:24.716Z</time>
      </trkpt>
      <trkpt lat="45.79226" lon="6.71697">
        <ele>1223</ele>
        <time>2026-07-29T04:39:25.716Z</time>
      </trkpt>
      <trkpt lat="45.79225" lon="6.71696">
        <ele>1224</ele>
        <time>2026-07-29T04:39:26.716Z</time>
      </trkpt>
      <trkpt lat="45.79223" lon="6.71695">
        <ele>1224</ele>
        <time>2026-07-29T04:39:27.716Z</time>
      </trkpt>
      <trkpt lat="45.79221" lon="6.71693">
        <ele>1225</ele>
        <time>2026-07-29T04:39:28.716Z</time>
      </trkpt>
      <trkpt lat="45.79219" lon="6.71692">
        <ele>1225</ele>
        <time>2026-07-29T04:39:29.716Z</time>
      </trkpt>
      <trkpt lat="45.79217" lon="6.71689">
        <ele>1226</ele>
        <time>2026-07-29T04:39:30.716Z</time>
      </trkpt>
      <trkpt lat="45.79215" lon="6.71687">
        <ele>1226</ele>
        <time>2026-07-29T04:39:31.716Z</time>
      </trkpt>
      <trkpt lat="45.79213" lon="6.71684">
        <ele>1226</ele>
        <time>2026-07-29T04:39:32.716Z</time>
      </trkpt>
      <trkpt lat="45.79211" lon="6.71682">
        <ele>1227</ele>
        <time>2026-07-29T04:39:33.716Z</time>
      </trkpt>
      <trkpt lat="45.79209" lon="6.7168">
        <ele>1227</ele>
        <time>2026-07-29T04:39:34.716Z</time>
      </trkpt>
      <trkpt lat="45.79208" lon="6.71679">
        <ele>1227</ele>
        <time>2026-07-29T04:39:35.716Z</time>
      </trkpt>
      <trkpt lat="45.79206" lon="6.71678">
        <ele>1227</ele>
        <time>2026-07-29T04:39:36.716Z</time>
      </trkpt>
      <trkpt lat="45.79204" lon="6.71677">
        <ele>1227</ele>
        <time>2026-07-29T04:39:37.716Z</time>
      </trkpt>
      <trkpt lat="45.79202" lon="6.71675">
        <ele>1227</ele>
        <time>2026-07-29T04:39:38.716Z</time>
      </trkpt>
      <trkpt lat="45.792" lon="6.71673">
        <ele>1228</ele>
        <time>2026-07-29T04:39:39.716Z</time>
      </trkpt>
      <trkpt lat="45.79198" lon="6.71672">
        <ele>1228</ele>
        <time>2026-07-29T04:39:40.716Z</time>
      </trkpt>
      <trkpt lat="45.79196" lon="6.7167">
        <ele>1228</ele>
        <time>2026-07-29T04:39:41.716Z</time>
      </trkpt>
      <trkpt lat="45.79194" lon="6.71669">
        <ele>1228</ele>
        <time>2026-07-29T04:39:42.716Z</time>
      </trkpt>
      <trkpt lat="45.79192" lon="6.71667">
        <ele>1228</ele>
        <time>2026-07-29T04:39:43.716Z</time>
      </trkpt>
      <trkpt lat="45.7919" lon="6.71666">
        <ele>1228</ele>
        <time>2026-07-29T04:39:44.716Z</time>
      </trkpt>
      <trkpt lat="45.79188" lon="6.71664">
        <ele>1228</ele>
        <time>2026-07-29T04:39:45.716Z</time>
      </trkpt>
      <trkpt lat="45.79187" lon="6.71663">
        <ele>1228</ele>
        <time>2026-07-29T04:39:46.716Z</time>
      </trkpt>
      <trkpt lat="45.79186" lon="6.71661">
        <ele>1227</ele>
        <time>2026-07-29T04:39:47.716Z</time>
      </trkpt>
      <trkpt lat="45.79185" lon="6.7166">
        <ele>1227</ele>
        <time>2026-07-29T04:39:48.716Z</time>
      </trkpt>
      <trkpt lat="45.79184" lon="6.71658">
        <ele>1227</ele>
        <time>2026-07-29T04:39:49.716Z</time>
      </trkpt>
      <trkpt lat="45.79183" lon="6.71656">
        <ele>1228</ele>
        <time>2026-07-29T04:39:50.716Z</time>
      </trkpt>
      <trkpt lat="45.79182" lon="6.71655">
        <ele>1228</ele>
        <time>2026-07-29T04:39:51.716Z</time>
      </trkpt>
      <trkpt lat="45.79181" lon="6.71653">
        <ele>1228</ele>
        <time>2026-07-29T04:39:52.716Z</time>
      </trkpt>
      <trkpt lat="45.7918" lon="6.71651">
        <ele>1227</ele>
        <time>2026-07-29T04:39:53.716Z</time>
      </trkpt>
      <trkpt lat="45.79178" lon="6.71648">
        <ele>1227</ele>
        <time>2026-07-29T04:39:54.716Z</time>
      </trkpt>
      <trkpt lat="45.79177" lon="6.71645">
        <ele>1227</ele>
        <time>2026-07-29T04:39:55.716Z</time>
      </trkpt>
      <trkpt lat="45.79175" lon="6.71643">
        <ele>1227</ele>
        <time>2026-07-29T04:39:56.716Z</time>
      </trkpt>
      <trkpt lat="45.79174" lon="6.71642">
        <ele>1226</ele>
        <time>2026-07-29T04:39:57.716Z</time>
      </trkpt>
      <trkpt lat="45.79172" lon="6.7164">
        <ele>1226</ele>
        <time>2026-07-29T04:39:58.716Z</time>
      </trkpt>
      <trkpt lat="45.79171" lon="6.71637">
        <ele>1225</ele>
        <time>2026-07-29T04:39:59.716Z</time>
      </trkpt>
      <trkpt lat="45.7917" lon="6.71634">
        <ele>1225</ele>
        <time>2026-07-29T04:40:00.716Z</time>
      </trkpt>
      <trkpt lat="45.79169" lon="6.71633">
        <ele>1225</ele>
        <time>2026-07-29T04:40:01.716Z</time>
      </trkpt>
      <trkpt lat="45.79168" lon="6.71631">
        <ele>1225</ele>
        <time>2026-07-29T04:40:02.716Z</time>
      </trkpt>
      <trkpt lat="45.79167" lon="6.71629">
        <ele>1226</ele>
        <time>2026-07-29T04:40:03.716Z</time>
      </trkpt>
      <trkpt lat="45.79165" lon="6.71627">
        <ele>1226</ele>
        <time>2026-07-29T04:40:04.716Z</time>
      </trkpt>
      <trkpt lat="45.79164" lon="6.71625">
        <ele>1226</ele>
        <time>2026-07-29T04:40:05.716Z</time>
      </trkpt>
      <trkpt lat="45.79163" lon="6.71623">
        <ele>1226</ele>
        <time>2026-07-29T04:40:06.716Z</time>
      </trkpt>
      <trkpt lat="45.79162" lon="6.71621">
        <ele>1226</ele>
        <time>2026-07-29T04:40:07.716Z</time>
      </trkpt>
      <trkpt lat="45.79162" lon="6.71619">
        <ele>1227</ele>
        <time>2026-07-29T04:40:08.716Z</time>
      </trkpt>
      <trkpt lat="45.79163" lon="6.71617">
        <ele>1226</ele>
        <time>2026-07-29T04:40:09.716Z</time>
      </trkpt>
      <trkpt lat="45.79163" lon="6.71615">
        <ele>1226</ele>
        <time>2026-07-29T04:40:10.716Z</time>
      </trkpt>
      <trkpt lat="45.79165" lon="6.71613">
        <ele>1225</ele>
        <time>2026-07-29T04:40:11.716Z</time>
      </trkpt>
      <trkpt lat="45.79166" lon="6.71611">
        <ele>1224</ele>
        <time>2026-07-29T04:40:12.716Z</time>
      </trkpt>
      <trkpt lat="45.79168" lon="6.71609">
        <ele>1223</ele>
        <time>2026-07-29T04:40:13.716Z</time>
      </trkpt>
      <trkpt lat="45.79169" lon="6.71606">
        <ele>1222</ele>
        <time>2026-07-29T04:40:14.716Z</time>
      </trkpt>
      <trkpt lat="45.79171" lon="6.71604">
        <ele>1222</ele>
        <time>2026-07-29T04:40:15.716Z</time>
      </trkpt>
      <trkpt lat="45.79173" lon="6.71602">
        <ele>1221</ele>
        <time>2026-07-29T04:40:16.716Z</time>
      </trkpt>
      <trkpt lat="45.79175" lon="6.716">
        <ele>1220</ele>
        <time>2026-07-29T04:40:17.716Z</time>
      </trkpt>
      <trkpt lat="45.79176" lon="6.71597">
        <ele>1219</ele>
        <time>2026-07-29T04:40:18.716Z</time>
      </trkpt>
      <trkpt lat="45.79177" lon="6.71595">
        <ele>1219</ele>
        <time>2026-07-29T04:40:19.716Z</time>
      </trkpt>
      <trkpt lat="45.79177" lon="6.71593">
        <ele>1218</ele>
        <time>2026-07-29T04:40:20.716Z</time>
      </trkpt>
      <trkpt lat="45.79178" lon="6.7159">
        <ele>1217</ele>
        <time>2026-07-29T04:40:21.716Z</time>
      </trkpt>
      <trkpt lat="45.79178" lon="6.71587">
        <ele>1217</ele>
        <time>2026-07-29T04:40:22.716Z</time>
      </trkpt>
      <trkpt lat="45.79178" lon="6.71584">
        <ele>1216</ele>
        <time>2026-07-29T04:40:23.716Z</time>
      </trkpt>
      <trkpt lat="45.79178" lon="6.71581">
        <ele>1216</ele>
        <time>2026-07-29T04:40:24.716Z</time>
      </trkpt>
      <trkpt lat="45.79179" lon="6.71579">
        <ele>1216</ele>
        <time>2026-07-29T04:40:25.716Z</time>
      </trkpt>
      <trkpt lat="45.79179" lon="6.71576">
        <ele>1216</ele>
        <time>2026-07-29T04:40:26.716Z</time>
      </trkpt>
      <trkpt lat="45.7918" lon="6.71573">
        <ele>1216</ele>
        <time>2026-07-29T04:40:27.716Z</time>
      </trkpt>
      <trkpt lat="45.79181" lon="6.71571">
        <ele>1216</ele>
        <time>2026-07-29T04:40:28.716Z</time>
      </trkpt>
      <trkpt lat="45.79182" lon="6.71568">
        <ele>1216</ele>
        <time>2026-07-29T04:40:29.716Z</time>
      </trkpt>
      <trkpt lat="45.79183" lon="6.71566">
        <ele>1216</ele>
        <time>2026-07-29T04:40:30.716Z</time>
      </trkpt>
      <trkpt lat="45.79184" lon="6.71563">
        <ele>1216</ele>
        <time>2026-07-29T04:40:31.716Z</time>
      </trkpt>
      <trkpt lat="45.79185" lon="6.71561">
        <ele>1216</ele>
        <time>2026-07-29T04:40:32.716Z</time>
      </trkpt>
      <trkpt lat="45.79186" lon="6.71559">
        <ele>1215</ele>
        <time>2026-07-29T04:40:33.716Z</time>
      </trkpt>
      <trkpt lat="45.79186" lon="6.71557">
        <ele>1216</ele>
        <time>2026-07-29T04:40:34.716Z</time>
      </trkpt>
      <trkpt lat="45.79185" lon="6.71555">
        <ele>1216</ele>
        <time>2026-07-29T04:40:35.716Z</time>
      </trkpt>
      <trkpt lat="45.79184" lon="6.71553">
        <ele>1216</ele>
        <time>2026-07-29T04:40:36.716Z</time>
      </trkpt>
      <trkpt lat="45.79183" lon="6.71551">
        <ele>1216</ele>
        <time>2026-07-29T04:40:37.716Z</time>
      </trkpt>
      <trkpt lat="45.79182" lon="6.71549">
        <ele>1216</ele>
        <time>2026-07-29T04:40:38.716Z</time>
      </trkpt>
      <trkpt lat="45.79181" lon="6.71547">
        <ele>1216</ele>
        <time>2026-07-29T04:40:39.716Z</time>
      </trkpt>
      <trkpt lat="45.7918" lon="6.71545">
        <ele>1216</ele>
        <time>2026-07-29T04:40:40.716Z</time>
      </trkpt>
      <trkpt lat="45.7918" lon="6.71543">
        <ele>1216</ele>
        <time>2026-07-29T04:40:41.716Z</time>
      </trkpt>
      <trkpt lat="45.79179" lon="6.71541">
        <ele>1216</ele>
        <time>2026-07-29T04:40:42.716Z</time>
      </trkpt>
      <trkpt lat="45.79179" lon="6.71541">
        <ele>1216</ele>
        <time>2026-07-29T04:40:43.716Z</time>
      </trkpt>
      <trkpt lat="45.79179" lon="6.7154">
        <ele>1216</ele>
        <time>2026-07-29T04:40:44.716Z</time>
      </trkpt>
      <trkpt lat="45.79179" lon="6.7154">
        <ele>1216</ele>
        <time>2026-07-29T04:40:45.716Z</time>
      </trkpt>
      <trkpt lat="45.79179" lon="6.71539">
        <ele>1215</ele>
        <time>2026-07-29T04:40:46.716Z</time>
      </trkpt>
      <trkpt lat="45.79179" lon="6.71539">
        <ele>1215</ele>
        <time>2026-07-29T04:40:47.716Z</time>
      </trkpt>
      <trkpt lat="45.79179" lon="6.71539">
        <ele>1216</ele>
        <time>2026-07-29T04:40:48.716Z</time>
      </trkpt>
      <trkpt lat="45.79178" lon="6.7154">
        <ele>1216</ele>
        <time>2026-07-29T04:40:49.716Z</time>
      </trkpt>
      <trkpt lat="45.79179" lon="6.7154">
        <ele>1216</ele>
        <time>2026-07-29T04:40:50.716Z</time>
      </trkpt>
      <trkpt lat="45.79179" lon="6.71541">
        <ele>1216</ele>
        <time>2026-07-29T04:40:51.716Z</time>
      </trkpt>
      <trkpt lat="45.7918" lon="6.71542">
        <ele>1216</ele>
        <time>2026-07-29T04:40:52.716Z</time>
      </trkpt>
      <trkpt lat="45.79181" lon="6.71543">
        <ele>1217</ele>
        <time>2026-07-29T04:40:53.716Z</time>
      </trkpt>
      <trkpt lat="45.79182" lon="6.71544">
        <ele>1217</ele>
        <time>2026-07-29T04:40:54.716Z</time>
      </trkpt>
      <trkpt lat="45.79183" lon="6.71545">
        <ele>1218</ele>
        <time>2026-07-29T04:40:55.716Z</time>
      </trkpt>
      <trkpt lat="45.79185" lon="6.71545">
        <ele>1218</ele>
        <time>2026-07-29T04:40:56.716Z</time>
      </trkpt>
      <trkpt lat="45.79187" lon="6.71546">
        <ele>1218</ele>
        <time>2026-07-29T04:40:57.716Z</time>
      </trkpt>
      <trkpt lat="45.79188" lon="6.71546">
        <ele>1218</ele>
        <time>2026-07-29T04:40:58.716Z</time>
      </trkpt>
      <trkpt lat="45.7919" lon="6.71547">
        <ele>1218</ele>
        <time>2026-07-29T04:40:59.716Z</time>
      </trkpt>
      <trkpt lat="45.79192" lon="6.71547">
        <ele>1217</ele>
        <time>2026-07-29T04:41:00.716Z</time>
      </trkpt>
      <trkpt lat="45.79193" lon="6.71548">
        <ele>1217</ele>
        <time>2026-07-29T04:41:01.716Z</time>
      </trkpt>
      <trkpt lat="45.79194" lon="6.71549">
        <ele>1217</ele>
        <time>2026-07-29T04:41:02.716Z</time>
      </trkpt>
      <trkpt lat="45.79195" lon="6.71551">
        <ele>1218</ele>
        <time>2026-07-29T04:41:03.716Z</time>
      </trkpt>
      <trkpt lat="45.79196" lon="6.71553">
        <ele>1217</ele>
        <time>2026-07-29T04:41:04.716Z</time>
      </trkpt>
      <trkpt lat="45.79196" lon="6.71556">
        <ele>1217</ele>
        <time>2026-07-29T04:41:05.716Z</time>
      </trkpt>
      <trkpt lat="45.79195" lon="6.71558">
        <ele>1217</ele>
        <time>2026-07-29T04:41:06.716Z</time>
      </trkpt>
      <trkpt lat="45.79193" lon="6.7156">
        <ele>1217</ele>
        <time>2026-07-29T04:41:07.716Z</time>
      </trkpt>
      <trkpt lat="45.79192" lon="6.71561">
        <ele>1217</ele>
        <time>2026-07-29T04:41:08.716Z</time>
      </trkpt>
      <trkpt lat="45.79191" lon="6.71563">
        <ele>1218</ele>
        <time>2026-07-29T04:41:09.716Z</time>
      </trkpt>
      <trkpt lat="45.79189" lon="6.71565">
        <ele>1218</ele>
        <time>2026-07-29T04:41:10.716Z</time>
      </trkpt>
      <trkpt lat="45.79188" lon="6.71567">
        <ele>1218</ele>
        <time>2026-07-29T04:41:11.716Z</time>
      </trkpt>
      <trkpt lat="45.79187" lon="6.71569">
        <ele>1219</ele>
        <time>2026-07-29T04:41:12.716Z</time>
      </trkpt>
      <trkpt lat="45.79186" lon="6.7157">
        <ele>1219</ele>
        <time>2026-07-29T04:41:13.716Z</time>
      </trkpt>
      <trkpt lat="45.79185" lon="6.71573">
        <ele>1219</ele>
        <time>2026-07-29T04:41:14.716Z</time>
      </trkpt>
      <trkpt lat="45.79184" lon="6.71575">
        <ele>1219</ele>
        <time>2026-07-29T04:41:15.716Z</time>
      </trkpt>
      <trkpt lat="45.79183" lon="6.71577">
        <ele>1218</ele>
        <time>2026-07-29T04:41:16.716Z</time>
      </trkpt>
      <trkpt lat="45.79183" lon="6.7158">
        <ele>1218</ele>
        <time>2026-07-29T04:41:17.716Z</time>
      </trkpt>
      <trkpt lat="45.79182" lon="6.71582">
        <ele>1218</ele>
        <time>2026-07-29T04:41:18.716Z</time>
      </trkpt>
      <trkpt lat="45.79182" lon="6.71585">
        <ele>1217</ele>
        <time>2026-07-29T04:41:19.716Z</time>
      </trkpt>
      <trkpt lat="45.79182" lon="6.71588">
        <ele>1217</ele>
        <time>2026-07-29T04:41:20.716Z</time>
      </trkpt>
      <trkpt lat="45.79182" lon="6.71591">
        <ele>1217</ele>
        <time>2026-07-29T04:41:21.716Z</time>
      </trkpt>
      <trkpt lat="45.79182" lon="6.71593">
        <ele>1217</ele>
        <time>2026-07-29T04:41:22.716Z</time>
      </trkpt>
      <trkpt lat="45.79181" lon="6.71596">
        <ele>1217</ele>
        <time>2026-07-29T04:41:23.716Z</time>
      </trkpt>
      <trkpt lat="45.79181" lon="6.71599">
        <ele>1217</ele>
        <time>2026-07-29T04:41:24.716Z</time>
      </trkpt>
      <trkpt lat="45.79179" lon="6.71601">
        <ele>1217</ele>
        <time>2026-07-29T04:41:25.716Z</time>
      </trkpt>
      <trkpt lat="45.79178" lon="6.71603">
        <ele>1217</ele>
        <time>2026-07-29T04:41:26.716Z</time>
      </trkpt>
      <trkpt lat="45.79177" lon="6.71605">
        <ele>1218</ele>
        <time>2026-07-29T04:41:27.716Z</time>
      </trkpt>
      <trkpt lat="45.79176" lon="6.71607">
        <ele>1218</ele>
        <time>2026-07-29T04:41:28.716Z</time>
      </trkpt>
      <trkpt lat="45.79174" lon="6.71609">
        <ele>1218</ele>
        <time>2026-07-29T04:41:29.716Z</time>
      </trkpt>
      <trkpt lat="45.79172" lon="6.71611">
        <ele>1218</ele>
        <time>2026-07-29T04:41:30.716Z</time>
      </trkpt>
      <trkpt lat="45.79171" lon="6.71612">
        <ele>1218</ele>
        <time>2026-07-29T04:41:31.716Z</time>
      </trkpt>
      <trkpt lat="45.79169" lon="6.71614">
        <ele>1218</ele>
        <time>2026-07-29T04:41:32.716Z</time>
      </trkpt>
      <trkpt lat="45.79168" lon="6.71615">
        <ele>1218</ele>
        <time>2026-07-29T04:41:33.716Z</time>
      </trkpt>
      <trkpt lat="45.79166" lon="6.71616">
        <ele>1219</ele>
        <time>2026-07-29T04:41:34.716Z</time>
      </trkpt>
      <trkpt lat="45.79165" lon="6.71617">
        <ele>1219</ele>
        <time>2026-07-29T04:41:35.716Z</time>
      </trkpt>
      <trkpt lat="45.79163" lon="6.71617">
        <ele>1219</ele>
        <time>2026-07-29T04:41:36.716Z</time>
      </trkpt>
      <trkpt lat="45.79161" lon="6.71616">
        <ele>1220</ele>
        <time>2026-07-29T04:41:37.716Z</time>
      </trkpt>
      <trkpt lat="45.7916" lon="6.71615">
        <ele>1220</ele>
        <time>2026-07-29T04:41:38.716Z</time>
      </trkpt>
      <trkpt lat="45.79159" lon="6.71614">
        <ele>1221</ele>
        <time>2026-07-29T04:41:39.716Z</time>
      </trkpt>
      <trkpt lat="45.79157" lon="6.71613">
        <ele>1221</ele>
        <time>2026-07-29T04:41:40.716Z</time>
      </trkpt>
      <trkpt lat="45.79155" lon="6.71612">
        <ele>1222</ele>
        <time>2026-07-29T04:41:41.716Z</time>
      </trkpt>
      <trkpt lat="45.79154" lon="6.71611">
        <ele>1222</ele>
        <time>2026-07-29T04:41:42.716Z</time>
      </trkpt>
      <trkpt lat="45.79152" lon="6.7161">
        <ele>1222</ele>
        <time>2026-07-29T04:41:43.716Z</time>
      </trkpt>
      <trkpt lat="45.79152" lon="6.71609">
        <ele>1223</ele>
        <time>2026-07-29T04:41:44.716Z</time>
      </trkpt>
      <trkpt lat="45.7915" lon="6.71608">
        <ele>1223</ele>
        <time>2026-07-29T04:41:45.716Z</time>
      </trkpt>
      <trkpt lat="45.79149" lon="6.71607">
        <ele>1223</ele>
        <time>2026-07-29T04:41:46.716Z</time>
      </trkpt>
      <trkpt lat="45.79148" lon="6.71606">
        <ele>1223</ele>
        <time>2026-07-29T04:41:47.716Z</time>
      </trkpt>
      <trkpt lat="45.79148" lon="6.71605">
        <ele>1223</ele>
        <time>2026-07-29T04:41:48.716Z</time>
      </trkpt>
      <trkpt lat="45.79147" lon="6.71604">
        <ele>1223</ele>
        <time>2026-07-29T04:41:49.716Z</time>
      </trkpt>
      <trkpt lat="45.79146" lon="6.71604">
        <ele>1223</ele>
        <time>2026-07-29T04:41:50.716Z</time>
      </trkpt>
      <trkpt lat="45.79146" lon="6.71604">
        <ele>1224</ele>
        <time>2026-07-29T04:41:51.716Z</time>
      </trkpt>
      <trkpt lat="45.79146" lon="6.71604">
        <ele>1224</ele>
        <time>2026-07-29T04:41:52.716Z</time>
      </trkpt>
      <trkpt lat="45.79145" lon="6.71603">
        <ele>1224</ele>
        <time>2026-07-29T04:41:53.716Z</time>
      </trkpt>
      <trkpt lat="45.79145" lon="6.71601">
        <ele>1223</ele>
        <time>2026-07-29T04:41:54.716Z</time>
      </trkpt>
      <trkpt lat="45.79145" lon="6.716">
        <ele>1223</ele>
        <time>2026-07-29T04:41:55.716Z</time>
      </trkpt>
      <trkpt lat="45.79145" lon="6.71599">
        <ele>1223</ele>
        <time>2026-07-29T04:41:56.716Z</time>
      </trkpt>
      <trkpt lat="45.79145" lon="6.71597">
        <ele>1224</ele>
        <time>2026-07-29T04:41:57.716Z</time>
      </trkpt>
      <trkpt lat="45.79144" lon="6.71596">
        <ele>1224</ele>
        <time>2026-07-29T04:41:58.716Z</time>
      </trkpt>
      <trkpt lat="45.79144" lon="6.71595">
        <ele>1224</ele>
        <time>2026-07-29T04:41:59.716Z</time>
      </trkpt>
      <trkpt lat="45.79143" lon="6.71593">
        <ele>1224</ele>
        <time>2026-07-29T04:42:00.716Z</time>
      </trkpt>
      <trkpt lat="45.79143" lon="6.71592">
        <ele>1224</ele>
        <time>2026-07-29T04:42:01.716Z</time>
      </trkpt>
      <trkpt lat="45.79142" lon="6.71592">
        <ele>1224</ele>
        <time>2026-07-29T04:42:02.716Z</time>
      </trkpt>
      <trkpt lat="45.79142" lon="6.71591">
        <ele>1224</ele>
        <time>2026-07-29T04:42:03.716Z</time>
      </trkpt>
      <trkpt lat="45.79141" lon="6.7159">
        <ele>1224</ele>
        <time>2026-07-29T04:42:04.716Z</time>
      </trkpt>
      <trkpt lat="45.79141" lon="6.71589">
        <ele>1224</ele>
        <time>2026-07-29T04:42:05.716Z</time>
      </trkpt>
      <trkpt lat="45.7914" lon="6.71589">
        <ele>1225</ele>
        <time>2026-07-29T04:42:06.716Z</time>
      </trkpt>
      <trkpt lat="45.79139" lon="6.71587">
        <ele>1225</ele>
        <time>2026-07-29T04:42:07.716Z</time>
      </trkpt>
      <trkpt lat="45.79138" lon="6.71586">
        <ele>1225</ele>
        <time>2026-07-29T04:42:08.716Z</time>
      </trkpt>
      <trkpt lat="45.79137" lon="6.71584">
        <ele>1225</ele>
        <time>2026-07-29T04:42:09.716Z</time>
      </trkpt>
      <trkpt lat="45.79136" lon="6.71583">
        <ele>1226</ele>
        <time>2026-07-29T04:42:10.717Z</time>
      </trkpt>
      <trkpt lat="45.79135" lon="6.71582">
        <ele>1226</ele>
        <time>2026-07-29T04:42:11.716Z</time>
      </trkpt>
      <trkpt lat="45.79135" lon="6.71581">
        <ele>1226</ele>
        <time>2026-07-29T04:42:12.716Z</time>
      </trkpt>
      <trkpt lat="45.79134" lon="6.7158">
        <ele>1227</ele>
        <time>2026-07-29T04:42:13.716Z</time>
      </trkpt>
      <trkpt lat="45.79133" lon="6.7158">
        <ele>1227</ele>
        <time>2026-07-29T04:42:14.716Z</time>
      </trkpt>
      <trkpt lat="45.79133" lon="6.71579">
        <ele>1228</ele>
        <time>2026-07-29T04:42:15.716Z</time>
      </trkpt>
      <trkpt lat="45.79132" lon="6.71579">
        <ele>1228</ele>
        <time>2026-07-29T04:42:16.716Z</time>
      </trkpt>
      <trkpt lat="45.79131" lon="6.71579">
        <ele>1228</ele>
        <time>2026-07-29T04:42:17.716Z</time>
      </trkpt>
      <trkpt lat="45.7913" lon="6.71579">
        <ele>1229</ele>
        <time>2026-07-29T04:42:18.716Z</time>
      </trkpt>
      <trkpt lat="45.7913" lon="6.71579">
        <ele>1229</ele>
        <time>2026-07-29T04:42:19.716Z</time>
      </trkpt>
      <trkpt lat="45.7913" lon="6.71579">
        <ele>1228</ele>
        <time>2026-07-29T04:42:20.716Z</time>
      </trkpt>
      <trkpt lat="45.79129" lon="6.71578">
        <ele>1228</ele>
        <time>2026-07-29T04:42:21.716Z</time>
      </trkpt>
      <trkpt lat="45.79129" lon="6.71577">
        <ele>1228</ele>
        <time>2026-07-29T04:42:22.716Z</time>
      </trkpt>
      <trkpt lat="45.79128" lon="6.71576">
        <ele>1227</ele>
        <time>2026-07-29T04:42:23.716Z</time>
      </trkpt>
      <trkpt lat="45.79128" lon="6.71576">
        <ele>1227</ele>
        <time>2026-07-29T04:42:24.716Z</time>
      </trkpt>
      <trkpt lat="45.79128" lon="6.71576">
        <ele>1227</ele>
        <time>2026-07-29T04:42:25.716Z</time>
      </trkpt>
      <trkpt lat="45.79127" lon="6.71574">
        <ele>1228</ele>
        <time>2026-07-29T04:42:26.716Z</time>
      </trkpt>
      <trkpt lat="45.79127" lon="6.71574">
        <ele>1228</ele>
        <time>2026-07-29T04:42:27.716Z</time>
      </trkpt>
      <trkpt lat="45.79126" lon="6.71574">
        <ele>1229</ele>
        <time>2026-07-29T04:42:28.716Z</time>
      </trkpt>
      <trkpt lat="45.79125" lon="6.71574">
        <ele>1230</ele>
        <time>2026-07-29T04:42:29.716Z</time>
      </trkpt>
      <trkpt lat="45.79124" lon="6.71573">
        <ele>1231</ele>
        <time>2026-07-29T04:42:30.716Z</time>
      </trkpt>
      <trkpt lat="45.79123" lon="6.71573">
        <ele>1232</ele>
        <time>2026-07-29T04:42:31.716Z</time>
      </trkpt>
      <trkpt lat="45.79123" lon="6.71572">
        <ele>1232</ele>
        <time>2026-07-29T04:42:32.716Z</time>
      </trkpt>
      <trkpt lat="45.79123" lon="6.71571">
        <ele>1232</ele>
        <time>2026-07-29T04:42:33.716Z</time>
      </trkpt>
      <trkpt lat="45.79122" lon="6.7157">
        <ele>1231</ele>
        <time>2026-07-29T04:42:34.716Z</time>
      </trkpt>
      <trkpt lat="45.79121" lon="6.71569">
        <ele>1231</ele>
        <time>2026-07-29T04:42:35.716Z</time>
      </trkpt>
      <trkpt lat="45.7912" lon="6.71568">
        <ele>1230</ele>
        <time>2026-07-29T04:42:36.716Z</time>
      </trkpt>
      <trkpt lat="45.79119" lon="6.71567">
        <ele>1230</ele>
        <time>2026-07-29T04:42:37.716Z</time>
      </trkpt>
      <trkpt lat="45.79118" lon="6.71566">
        <ele>1230</ele>
        <time>2026-07-29T04:42:38.716Z</time>
      </trkpt>
      <trkpt lat="45.79117" lon="6.71566">
        <ele>1230</ele>
        <time>2026-07-29T04:42:39.716Z</time>
      </trkpt>
      <trkpt lat="45.79116" lon="6.71565">
        <ele>1231</ele>
        <time>2026-07-29T04:42:40.716Z</time>
      </trkpt>
      <trkpt lat="45.79116" lon="6.71565">
        <ele>1231</ele>
        <time>2026-07-29T04:42:41.716Z</time>
      </trkpt>
      <trkpt lat="45.79115" lon="6.71565">
        <ele>1231</ele>
        <time>2026-07-29T04:42:42.716Z</time>
      </trkpt>
      <trkpt lat="45.79113" lon="6.71564">
        <ele>1232</ele>
        <time>2026-07-29T04:42:43.716Z</time>
      </trkpt>
      <trkpt lat="45.79113" lon="6.71563">
        <ele>1232</ele>
        <time>2026-07-29T04:42:44.716Z</time>
      </trkpt>
      <trkpt lat="45.79112" lon="6.71563">
        <ele>1232</ele>
        <time>2026-07-29T04:42:45.716Z</time>
      </trkpt>
      <trkpt lat="45.79111" lon="6.71562">
        <ele>1233</ele>
        <time>2026-07-29T04:42:46.716Z</time>
      </trkpt>
      <trkpt lat="45.79109" lon="6.71561">
        <ele>1233</ele>
        <time>2026-07-29T04:42:47.716Z</time>
      </trkpt>
      <trkpt lat="45.79108" lon="6.7156">
        <ele>1234</ele>
        <time>2026-07-29T04:42:48.716Z</time>
      </trkpt>
      <trkpt lat="45.79107" lon="6.7156">
        <ele>1235</ele>
        <time>2026-07-29T04:42:49.716Z</time>
      </trkpt>
      <trkpt lat="45.79107" lon="6.7156">
        <ele>1236</ele>
        <time>2026-07-29T04:42:50.716Z</time>
      </trkpt>
      <trkpt lat="45.79106" lon="6.71559">
        <ele>1236</ele>
        <time>2026-07-29T04:42:51.716Z</time>
      </trkpt>
      <trkpt lat="45.79105" lon="6.71559">
        <ele>1237</ele>
        <time>2026-07-29T04:42:52.716Z</time>
      </trkpt>
      <trkpt lat="45.79104" lon="6.71559">
        <ele>1238</ele>
        <time>2026-07-29T04:42:53.716Z</time>
      </trkpt>
      <trkpt lat="45.79104" lon="6.7156">
        <ele>1238</ele>
        <time>2026-07-29T04:42:54.716Z</time>
      </trkpt>
      <trkpt lat="45.79103" lon="6.7156">
        <ele>1238</ele>
        <time>2026-07-29T04:42:55.716Z</time>
      </trkpt>
      <trkpt lat="45.79102" lon="6.71559">
        <ele>1239</ele>
        <time>2026-07-29T04:42:56.716Z</time>
      </trkpt>
      <trkpt lat="45.79102" lon="6.71559">
        <ele>1239</ele>
        <time>2026-07-29T04:42:57.716Z</time>
      </trkpt>
      <trkpt lat="45.791" lon="6.71558">
        <ele>1240</ele>
        <time>2026-07-29T04:42:58.716Z</time>
      </trkpt>
      <trkpt lat="45.79099" lon="6.71558">
        <ele>1240</ele>
        <time>2026-07-29T04:42:59.716Z</time>
      </trkpt>
      <trkpt lat="45.79098" lon="6.71557">
        <ele>1240</ele>
        <time>2026-07-29T04:43:00.716Z</time>
      </trkpt>
      <trkpt lat="45.79098" lon="6.71557">
        <ele>1241</ele>
        <time>2026-07-29T04:43:01.716Z</time>
      </trkpt>
      <trkpt lat="45.79097" lon="6.71557">
        <ele>1241</ele>
        <time>2026-07-29T04:43:02.716Z</time>
      </trkpt>
      <trkpt lat="45.79097" lon="6.71555">
        <ele>1241</ele>
        <time>2026-07-29T04:43:03.716Z</time>
      </trkpt>
      <trkpt lat="45.79096" lon="6.71555">
        <ele>1241</ele>
        <time>2026-07-29T04:43:04.716Z</time>
      </trkpt>
      <trkpt lat="45.79096" lon="6.71554">
        <ele>1241</ele>
        <time>2026-07-29T04:43:05.716Z</time>
      </trkpt>
      <trkpt lat="45.79095" lon="6.71553">
        <ele>1242</ele>
        <time>2026-07-29T04:43:06.716Z</time>
      </trkpt>
      <trkpt lat="45.79094" lon="6.71553">
        <ele>1242</ele>
        <time>2026-07-29T04:43:07.716Z</time>
      </trkpt>
      <trkpt lat="45.79094" lon="6.71552">
        <ele>1243</ele>
        <time>2026-07-29T04:43:08.716Z</time>
      </trkpt>
      <trkpt lat="45.79094" lon="6.71551">
        <ele>1243</ele>
        <time>2026-07-29T04:43:09.716Z</time>
      </trkpt>
      <trkpt lat="45.79093" lon="6.71551">
        <ele>1243</ele>
        <time>2026-07-29T04:43:10.716Z</time>
      </trkpt>
      <trkpt lat="45.79092" lon="6.71551">
        <ele>1243</ele>
        <time>2026-07-29T04:43:11.716Z</time>
      </trkpt>
      <trkpt lat="45.79092" lon="6.71551">
        <ele>1243</ele>
        <time>2026-07-29T04:43:12.716Z</time>
      </trkpt>
      <trkpt lat="45.79091" lon="6.71551">
        <ele>1243</ele>
        <time>2026-07-29T04:43:13.716Z</time>
      </trkpt>
      <trkpt lat="45.79091" lon="6.71551">
        <ele>1244</ele>
        <time>2026-07-29T04:43:14.716Z</time>
      </trkpt>
      <trkpt lat="45.7909" lon="6.71551">
        <ele>1244</ele>
        <time>2026-07-29T04:43:15.716Z</time>
      </trkpt>
      <trkpt lat="45.79089" lon="6.71551">
        <ele>1245</ele>
        <time>2026-07-29T04:43:16.716Z</time>
      </trkpt>
      <trkpt lat="45.79088" lon="6.71551">
        <ele>1245</ele>
        <time>2026-07-29T04:43:17.716Z</time>
      </trkpt>
      <trkpt lat="45.79088" lon="6.7155">
        <ele>1246</ele>
        <time>2026-07-29T04:43:18.716Z</time>
      </trkpt>
      <trkpt lat="45.79087" lon="6.7155">
        <ele>1246</ele>
        <time>2026-07-29T04:43:19.716Z</time>
      </trkpt>
      <trkpt lat="45.79086" lon="6.7155">
        <ele>1247</ele>
        <time>2026-07-29T04:43:20.716Z</time>
      </trkpt>
      <trkpt lat="45.79085" lon="6.7155">
        <ele>1248</ele>
        <time>2026-07-29T04:43:21.716Z</time>
      </trkpt>
      <trkpt lat="45.79084" lon="6.71549">
        <ele>1248</ele>
        <time>2026-07-29T04:43:22.716Z</time>
      </trkpt>
      <trkpt lat="45.79084" lon="6.71549">
        <ele>1249</ele>
        <time>2026-07-29T04:43:23.716Z</time>
      </trkpt>
      <trkpt lat="45.79083" lon="6.71549">
        <ele>1250</ele>
        <time>2026-07-29T04:43:24.716Z</time>
      </trkpt>
      <trkpt lat="45.79082" lon="6.71549">
        <ele>1250</ele>
        <time>2026-07-29T04:43:25.716Z</time>
      </trkpt>
      <trkpt lat="45.79081" lon="6.71548">
        <ele>1251</ele>
        <time>2026-07-29T04:43:26.716Z</time>
      </trkpt>
      <trkpt lat="45.7908" lon="6.71547">
        <ele>1252</ele>
        <time>2026-07-29T04:43:27.716Z</time>
      </trkpt>
      <trkpt lat="45.7908" lon="6.71547">
        <ele>1252</ele>
        <time>2026-07-29T04:43:28.716Z</time>
      </trkpt>
      <trkpt lat="45.79079" lon="6.71546">
        <ele>1253</ele>
        <time>2026-07-29T04:43:29.716Z</time>
      </trkpt>
      <trkpt lat="45.79079" lon="6.71546">
        <ele>1253</ele>
        <time>2026-07-29T04:43:30.716Z</time>
      </trkpt>
      <trkpt lat="45.79078" lon="6.71545">
        <ele>1253</ele>
        <time>2026-07-29T04:43:31.716Z</time>
      </trkpt>
      <trkpt lat="45.79078" lon="6.71544">
        <ele>1254</ele>
        <time>2026-07-29T04:43:32.716Z</time>
      </trkpt>
      <trkpt lat="45.79077" lon="6.71544">
        <ele>1254</ele>
        <time>2026-07-29T04:43:33.716Z</time>
      </trkpt>
      <trkpt lat="45.79076" lon="6.71544">
        <ele>1254</ele>
        <time>2026-07-29T04:43:34.716Z</time>
      </trkpt>
      <trkpt lat="45.79076" lon="6.71544">
        <ele>1254</ele>
        <time>2026-07-29T04:43:35.716Z</time>
      </trkpt>
      <trkpt lat="45.79075" lon="6.71543">
        <ele>1255</ele>
        <time>2026-07-29T04:43:36.716Z</time>
      </trkpt>
      <trkpt lat="45.79074" lon="6.71543">
        <ele>1256</ele>
        <time>2026-07-29T04:43:37.716Z</time>
      </trkpt>
      <trkpt lat="45.79073" lon="6.71542">
        <ele>1256</ele>
        <time>2026-07-29T04:43:38.716Z</time>
      </trkpt>
      <trkpt lat="45.79072" lon="6.71541">
        <ele>1257</ele>
        <time>2026-07-29T04:43:39.716Z</time>
      </trkpt>
      <trkpt lat="45.79072" lon="6.71541">
        <ele>1257</ele>
        <time>2026-07-29T04:43:40.716Z</time>
      </trkpt>
      <trkpt lat="45.79071" lon="6.7154">
        <ele>1258</ele>
        <time>2026-07-29T04:43:41.716Z</time>
      </trkpt>
      <trkpt lat="45.7907" lon="6.71539">
        <ele>1258</ele>
        <time>2026-07-29T04:43:42.716Z</time>
      </trkpt>
      <trkpt lat="45.79069" lon="6.71539">
        <ele>1259</ele>
        <time>2026-07-29T04:43:43.716Z</time>
      </trkpt>
      <trkpt lat="45.79068" lon="6.71538">
        <ele>1259</ele>
        <time>2026-07-29T04:43:44.716Z</time>
      </trkpt>
      <trkpt lat="45.79067" lon="6.71538">
        <ele>1259</ele>
        <time>2026-07-29T04:43:45.716Z</time>
      </trkpt>
      <trkpt lat="45.79067" lon="6.71537">
        <ele>1259</ele>
        <time>2026-07-29T04:43:46.716Z</time>
      </trkpt>
      <trkpt lat="45.79066" lon="6.71536">
        <ele>1259</ele>
        <time>2026-07-29T04:43:47.716Z</time>
      </trkpt>
      <trkpt lat="45.79065" lon="6.71535">
        <ele>1259</ele>
        <time>2026-07-29T04:43:48.716Z</time>
      </trkpt>
      <trkpt lat="45.79065" lon="6.71534">
        <ele>1259</ele>
        <time>2026-07-29T04:43:49.716Z</time>
      </trkpt>
      <trkpt lat="45.79064" lon="6.71534">
        <ele>1259</ele>
        <time>2026-07-29T04:43:50.716Z</time>
      </trkpt>
      <trkpt lat="45.79063" lon="6.71534">
        <ele>1259</ele>
        <time>2026-07-29T04:43:51.716Z</time>
      </trkpt>
      <trkpt lat="45.79062" lon="6.71534">
        <ele>1259</ele>
        <time>2026-07-29T04:43:52.716Z</time>
      </trkpt>
      <trkpt lat="45.79061" lon="6.71534">
        <ele>1259</ele>
        <time>2026-07-29T04:43:53.717Z</time>
      </trkpt>
      <trkpt lat="45.7906" lon="6.71534">
        <ele>1259</ele>
        <time>2026-07-29T04:43:54.716Z</time>
      </trkpt>
      <trkpt lat="45.79059" lon="6.71534">
        <ele>1259</ele>
        <time>2026-07-29T04:43:55.716Z</time>
      </trkpt>
      <trkpt lat="45.79058" lon="6.71533">
        <ele>1259</ele>
        <time>2026-07-29T04:43:56.716Z</time>
      </trkpt>
      <trkpt lat="45.79058" lon="6.71533">
        <ele>1258</ele>
        <time>2026-07-29T04:43:57.716Z</time>
      </trkpt>
      <trkpt lat="45.79057" lon="6.71533">
        <ele>1258</ele>
        <time>2026-07-29T04:43:58.716Z</time>
      </trkpt>
      <trkpt lat="45.79056" lon="6.71532">
        <ele>1257</ele>
        <time>2026-07-29T04:43:59.716Z</time>
      </trkpt>
      <trkpt lat="45.79056" lon="6.71532">
        <ele>1257</ele>
        <time>2026-07-29T04:44:00.716Z</time>
      </trkpt>
      <trkpt lat="45.79056" lon="6.71532">
        <ele>1257</ele>
        <time>2026-07-29T04:44:01.716Z</time>
      </trkpt>
      <trkpt lat="45.79055" lon="6.71531">
        <ele>1256</ele>
        <time>2026-07-29T04:44:02.716Z</time>
      </trkpt>
      <trkpt lat="45.79055" lon="6.71531">
        <ele>1256</ele>
        <time>2026-07-29T04:44:03.716Z</time>
      </trkpt>
      <trkpt lat="45.79055" lon="6.71531">
        <ele>1256</ele>
        <time>2026-07-29T04:44:04.716Z</time>
      </trkpt>
      <trkpt lat="45.79054" lon="6.7153">
        <ele>1256</ele>
        <time>2026-07-29T04:44:05.716Z</time>
      </trkpt>
      <trkpt lat="45.79054" lon="6.7153">
        <ele>1256</ele>
        <time>2026-07-29T04:44:06.716Z</time>
      </trkpt>
      <trkpt lat="45.79053" lon="6.7153">
        <ele>1256</ele>
        <time>2026-07-29T04:44:07.716Z</time>
      </trkpt>
      <trkpt lat="45.79053" lon="6.71529">
        <ele>1257</ele>
        <time>2026-07-29T04:44:08.716Z</time>
      </trkpt>
      <trkpt lat="45.79052" lon="6.71528">
        <ele>1257</ele>
        <time>2026-07-29T04:44:09.716Z</time>
      </trkpt>
      <trkpt lat="45.79051" lon="6.71527">
        <ele>1257</ele>
        <time>2026-07-29T04:44:10.716Z</time>
      </trkpt>
      <trkpt lat="45.79051" lon="6.71524">
        <ele>1257</ele>
        <time>2026-07-29T04:44:11.716Z</time>
      </trkpt>
      <trkpt lat="45.7905" lon="6.71523">
        <ele>1257</ele>
        <time>2026-07-29T04:44:12.716Z</time>
      </trkpt>
      <trkpt lat="45.7905" lon="6.71523">
        <ele>1258</ele>
        <time>2026-07-29T04:44:13.716Z</time>
      </trkpt>
      <trkpt lat="45.79049" lon="6.71522">
        <ele>1258</ele>
        <time>2026-07-29T04:44:14.716Z</time>
      </trkpt>
      <trkpt lat="45.79048" lon="6.71522">
        <ele>1259</ele>
        <time>2026-07-29T04:44:15.716Z</time>
      </trkpt>
      <trkpt lat="45.79047" lon="6.71522">
        <ele>1259</ele>
        <time>2026-07-29T04:44:16.716Z</time>
      </trkpt>
      <trkpt lat="45.79047" lon="6.71521">
        <ele>1258</ele>
        <time>2026-07-29T04:44:17.716Z</time>
      </trkpt>
      <trkpt lat="45.79046" lon="6.71521">
        <ele>1258</ele>
        <time>2026-07-29T04:44:18.717Z</time>
      </trkpt>
      <trkpt lat="45.79045" lon="6.71521">
        <ele>1258</ele>
        <time>2026-07-29T04:44:19.716Z</time>
      </trkpt>
      <trkpt lat="45.79045" lon="6.71521">
        <ele>1258</ele>
        <time>2026-07-29T04:44:20.716Z</time>
      </trkpt>
      <trkpt lat="45.79044" lon="6.71521">
        <ele>1258</ele>
        <time>2026-07-29T04:44:21.716Z</time>
      </trkpt>
      <trkpt lat="45.79043" lon="6.7152">
        <ele>1258</ele>
        <time>2026-07-29T04:44:22.716Z</time>
      </trkpt>
      <trkpt lat="45.79042" lon="6.7152">
        <ele>1259</ele>
        <time>2026-07-29T04:44:23.716Z</time>
      </trkpt>
      <trkpt lat="45.79042" lon="6.71519">
        <ele>1259</ele>
        <time>2026-07-29T04:44:24.716Z</time>
      </trkpt>
      <trkpt lat="45.7904" lon="6.71519">
        <ele>1259</ele>
        <time>2026-07-29T04:44:25.716Z</time>
      </trkpt>
      <trkpt lat="45.79039" lon="6.71519">
        <ele>1259</ele>
        <time>2026-07-29T04:44:26.716Z</time>
      </trkpt>
      <trkpt lat="45.79039" lon="6.71518">
        <ele>1260</ele>
        <time>2026-07-29T04:44:27.716Z</time>
      </trkpt>
      <trkpt lat="45.79038" lon="6.71518">
        <ele>1260</ele>
        <time>2026-07-29T04:44:28.716Z</time>
      </trkpt>
      <trkpt lat="45.79037" lon="6.71518">
        <ele>1260</ele>
        <time>2026-07-29T04:44:29.716Z</time>
      </trkpt>
      <trkpt lat="45.79036" lon="6.71517">
        <ele>1261</ele>
        <time>2026-07-29T04:44:30.716Z</time>
      </trkpt>
      <trkpt lat="45.79035" lon="6.71517">
        <ele>1261</ele>
        <time>2026-07-29T04:44:31.716Z</time>
      </trkpt>
      <trkpt lat="45.79034" lon="6.71516">
        <ele>1262</ele>
        <time>2026-07-29T04:44:32.716Z</time>
      </trkpt>
      <trkpt lat="45.79033" lon="6.71516">
        <ele>1262</ele>
        <time>2026-07-29T04:44:33.716Z</time>
      </trkpt>
      <trkpt lat="45.79032" lon="6.71515">
        <ele>1262</ele>
        <time>2026-07-29T04:44:34.716Z</time>
      </trkpt>
      <trkpt lat="45.79031" lon="6.71515">
        <ele>1262</ele>
        <time>2026-07-29T04:44:35.716Z</time>
      </trkpt>
      <trkpt lat="45.7903" lon="6.71515">
        <ele>1262</ele>
        <time>2026-07-29T04:44:36.716Z</time>
      </trkpt>
      <trkpt lat="45.7903" lon="6.71514">
        <ele>1262</ele>
        <time>2026-07-29T04:44:37.716Z</time>
      </trkpt>
      <trkpt lat="45.7903" lon="6.71514">
        <ele>1262</ele>
        <time>2026-07-29T04:44:38.716Z</time>
      </trkpt>
      <trkpt lat="45.79029" lon="6.71513">
        <ele>1262</ele>
        <time>2026-07-29T04:44:39.716Z</time>
      </trkpt>
      <trkpt lat="45.79029" lon="6.71513">
        <ele>1262</ele>
        <time>2026-07-29T04:44:40.716Z</time>
      </trkpt>
      <trkpt lat="45.79028" lon="6.71511">
        <ele>1262</ele>
        <time>2026-07-29T04:44:41.716Z</time>
      </trkpt>
      <trkpt lat="45.79027" lon="6.71511">
        <ele>1262</ele>
        <time>2026-07-29T04:44:42.716Z</time>
      </trkpt>
      <trkpt lat="45.79026" lon="6.7151">
        <ele>1262</ele>
        <time>2026-07-29T04:44:43.716Z</time>
      </trkpt>
      <trkpt lat="45.79025" lon="6.7151">
        <ele>1262</ele>
        <time>2026-07-29T04:44:44.716Z</time>
      </trkpt>
      <trkpt lat="45.79024" lon="6.71509">
        <ele>1262</ele>
        <time>2026-07-29T04:44:45.716Z</time>
      </trkpt>
      <trkpt lat="45.79023" lon="6.71508">
        <ele>1262</ele>
        <time>2026-07-29T04:44:46.716Z</time>
      </trkpt>
      <trkpt lat="45.79022" lon="6.71507">
        <ele>1262</ele>
        <time>2026-07-29T04:44:47.716Z</time>
      </trkpt>
      <trkpt lat="45.79021" lon="6.71506">
        <ele>1262</ele>
        <time>2026-07-29T04:44:48.716Z</time>
      </trkpt>
      <trkpt lat="45.7902" lon="6.71504">
        <ele>1262</ele>
        <time>2026-07-29T04:44:49.716Z</time>
      </trkpt>
      <trkpt lat="45.79019" lon="6.71503">
        <ele>1262</ele>
        <time>2026-07-29T04:44:50.716Z</time>
      </trkpt>
      <trkpt lat="45.79018" lon="6.71502">
        <ele>1262</ele>
        <time>2026-07-29T04:44:51.716Z</time>
      </trkpt>
      <trkpt lat="45.79017" lon="6.71501">
        <ele>1262</ele>
        <time>2026-07-29T04:44:52.716Z</time>
      </trkpt>
      <trkpt lat="45.79016" lon="6.715">
        <ele>1263</ele>
        <time>2026-07-29T04:44:53.716Z</time>
      </trkpt>
      <trkpt lat="45.79015" lon="6.715">
        <ele>1263</ele>
        <time>2026-07-29T04:44:54.716Z</time>
      </trkpt>
      <trkpt lat="45.79014" lon="6.71499">
        <ele>1263</ele>
        <time>2026-07-29T04:44:55.716Z</time>
      </trkpt>
      <trkpt lat="45.79013" lon="6.71499">
        <ele>1263</ele>
        <time>2026-07-29T04:44:56.716Z</time>
      </trkpt>
      <trkpt lat="45.79013" lon="6.71498">
        <ele>1264</ele>
        <time>2026-07-29T04:44:57.716Z</time>
      </trkpt>
      <trkpt lat="45.79012" lon="6.71498">
        <ele>1264</ele>
        <time>2026-07-29T04:44:58.716Z</time>
      </trkpt>
      <trkpt lat="45.79011" lon="6.71498">
        <ele>1265</ele>
        <time>2026-07-29T04:44:59.716Z</time>
      </trkpt>
      <trkpt lat="45.7901" lon="6.71497">
        <ele>1266</ele>
        <time>2026-07-29T04:45:00.716Z</time>
      </trkpt>
      <trkpt lat="45.79009" lon="6.71496">
        <ele>1266</ele>
        <time>2026-07-29T04:45:01.716Z</time>
      </trkpt>
      <trkpt lat="45.79009" lon="6.71495">
        <ele>1267</ele>
        <time>2026-07-29T04:45:02.716Z</time>
      </trkpt>
      <trkpt lat="45.79008" lon="6.71495">
        <ele>1267</ele>
        <time>2026-07-29T04:45:03.716Z</time>
      </trkpt>
      <trkpt lat="45.79007" lon="6.71495">
        <ele>1268</ele>
        <time>2026-07-29T04:45:04.716Z</time>
      </trkpt>
      <trkpt lat="45.79007" lon="6.71495">
        <ele>1268</ele>
        <time>2026-07-29T04:45:05.716Z</time>
      </trkpt>
      <trkpt lat="45.79006" lon="6.71495">
        <ele>1269</ele>
        <time>2026-07-29T04:45:06.716Z</time>
      </trkpt>
      <trkpt lat="45.79005" lon="6.71494">
        <ele>1269</ele>
        <time>2026-07-29T04:45:07.716Z</time>
      </trkpt>
      <trkpt lat="45.79004" lon="6.71494">
        <ele>1269</ele>
        <time>2026-07-29T04:45:08.716Z</time>
      </trkpt>
      <trkpt lat="45.79004" lon="6.71493">
        <ele>1269</ele>
        <time>2026-07-29T04:45:09.716Z</time>
      </trkpt>
      <trkpt lat="45.79003" lon="6.71493">
        <ele>1269</ele>
        <time>2026-07-29T04:45:10.716Z</time>
      </trkpt>
      <trkpt lat="45.79003" lon="6.71492">
        <ele>1270</ele>
        <time>2026-07-29T04:45:11.716Z</time>
      </trkpt>
      <trkpt lat="45.79002" lon="6.71491">
        <ele>1270</ele>
        <time>2026-07-29T04:45:12.716Z</time>
      </trkpt>
      <trkpt lat="45.79001" lon="6.7149">
        <ele>1270</ele>
        <time>2026-07-29T04:45:13.716Z</time>
      </trkpt>
      <trkpt lat="45.79001" lon="6.71489">
        <ele>1271</ele>
        <time>2026-07-29T04:45:14.716Z</time>
      </trkpt>
      <trkpt lat="45.79" lon="6.71489">
        <ele>1271</ele>
        <time>2026-07-29T04:45:15.716Z</time>
      </trkpt>
      <trkpt lat="45.78999" lon="6.71488">
        <ele>1272</ele>
        <time>2026-07-29T04:45:16.716Z</time>
      </trkpt>
      <trkpt lat="45.78998" lon="6.71488">
        <ele>1272</ele>
        <time>2026-07-29T04:45:17.716Z</time>
      </trkpt>
      <trkpt lat="45.78998" lon="6.71487">
        <ele>1273</ele>
        <time>2026-07-29T04:45:18.716Z</time>
      </trkpt>
      <trkpt lat="45.78997" lon="6.71487">
        <ele>1273</ele>
        <time>2026-07-29T04:45:19.716Z</time>
      </trkpt>
      <trkpt lat="45.78996" lon="6.71487">
        <ele>1273</ele>
        <time>2026-07-29T04:45:20.716Z</time>
      </trkpt>
      <trkpt lat="45.78996" lon="6.71486">
        <ele>1274</ele>
        <time>2026-07-29T04:45:21.716Z</time>
      </trkpt>
      <trkpt lat="45.78995" lon="6.71486">
        <ele>1275</ele>
        <time>2026-07-29T04:45:22.716Z</time>
      </trkpt>
      <trkpt lat="45.78994" lon="6.71486">
        <ele>1275</ele>
        <time>2026-07-29T04:45:23.716Z</time>
      </trkpt>
      <trkpt lat="45.78994" lon="6.71485">
        <ele>1275</ele>
        <time>2026-07-29T04:45:24.716Z</time>
      </trkpt>
      <trkpt lat="45.78993" lon="6.71484">
        <ele>1276</ele>
        <time>2026-07-29T04:45:25.716Z</time>
      </trkpt>
      <trkpt lat="45.78992" lon="6.71483">
        <ele>1276</ele>
        <time>2026-07-29T04:45:26.716Z</time>
      </trkpt>
      <trkpt lat="45.78992" lon="6.71483">
        <ele>1276</ele>
        <time>2026-07-29T04:45:27.716Z</time>
      </trkpt>
      <trkpt lat="45.78991" lon="6.71482">
        <ele>1276</ele>
        <time>2026-07-29T04:45:28.716Z</time>
      </trkpt>
      <trkpt lat="45.7899" lon="6.71481">
        <ele>1276</ele>
        <time>2026-07-29T04:45:29.716Z</time>
      </trkpt>
      <trkpt lat="45.7899" lon="6.7148">
        <ele>1276</ele>
        <time>2026-07-29T04:45:30.716Z</time>
      </trkpt>
      <trkpt lat="45.78989" lon="6.7148">
        <ele>1276</ele>
        <time>2026-07-29T04:45:31.716Z</time>
      </trkpt>
      <trkpt lat="45.78989" lon="6.71479">
        <ele>1275</ele>
        <time>2026-07-29T04:45:32.716Z</time>
      </trkpt>
      <trkpt lat="45.78988" lon="6.71479">
        <ele>1275</ele>
        <time>2026-07-29T04:45:33.716Z</time>
      </trkpt>
      <trkpt lat="45.78988" lon="6.71479">
        <ele>1275</ele>
        <time>2026-07-29T04:45:34.716Z</time>
      </trkpt>
      <trkpt lat="45.78987" lon="6.71478">
        <ele>1275</ele>
        <time>2026-07-29T04:45:35.716Z</time>
      </trkpt>
      <trkpt lat="45.78987" lon="6.71478">
        <ele>1275</ele>
        <time>2026-07-29T04:45:36.716Z</time>
      </trkpt>
      <trkpt lat="45.78986" lon="6.71477">
        <ele>1275</ele>
        <time>2026-07-29T04:45:37.716Z</time>
      </trkpt>
      <trkpt lat="45.78985" lon="6.71477">
        <ele>1275</ele>
        <time>2026-07-29T04:45:38.716Z</time>
      </trkpt>
      <trkpt lat="45.78984" lon="6.71475">
        <ele>1276</ele>
        <time>2026-07-29T04:45:39.716Z</time>
      </trkpt>
      <trkpt lat="45.78983" lon="6.71475">
        <ele>1276</ele>
        <time>2026-07-29T04:45:40.716Z</time>
      </trkpt>
      <trkpt lat="45.78982" lon="6.71474">
        <ele>1276</ele>
        <time>2026-07-29T04:45:41.716Z</time>
      </trkpt>
      <trkpt lat="45.78982" lon="6.71473">
        <ele>1276</ele>
        <time>2026-07-29T04:45:42.716Z</time>
      </trkpt>
      <trkpt lat="45.78981" lon="6.71472">
        <ele>1277</ele>
        <time>2026-07-29T04:45:43.716Z</time>
      </trkpt>
      <trkpt lat="45.7898" lon="6.71472">
        <ele>1277</ele>
        <time>2026-07-29T04:45:44.716Z</time>
      </trkpt>
      <trkpt lat="45.78979" lon="6.71472">
        <ele>1278</ele>
        <time>2026-07-29T04:45:45.716Z</time>
      </trkpt>
      <trkpt lat="45.78979" lon="6.71472">
        <ele>1278</ele>
        <time>2026-07-29T04:45:46.716Z</time>
      </trkpt>
      <trkpt lat="45.78978" lon="6.71472">
        <ele>1278</ele>
        <time>2026-07-29T04:45:47.716Z</time>
      </trkpt>
      <trkpt lat="45.78978" lon="6.71472">
        <ele>1279</ele>
        <time>2026-07-29T04:45:48.716Z</time>
      </trkpt>
      <trkpt lat="45.78977" lon="6.71472">
        <ele>1279</ele>
        <time>2026-07-29T04:45:49.716Z</time>
      </trkpt>
      <trkpt lat="45.78977" lon="6.71471">
        <ele>1279</ele>
        <time>2026-07-29T04:45:50.716Z</time>
      </trkpt>
      <trkpt lat="45.78976" lon="6.71471">
        <ele>1279</ele>
        <time>2026-07-29T04:45:51.716Z</time>
      </trkpt>
      <trkpt lat="45.78975" lon="6.71469">
        <ele>1279</ele>
        <time>2026-07-29T04:45:52.716Z</time>
      </trkpt>
      <trkpt lat="45.78974" lon="6.71468">
        <ele>1279</ele>
        <time>2026-07-29T04:45:53.716Z</time>
      </trkpt>
      <trkpt lat="45.78973" lon="6.71468">
        <ele>1279</ele>
        <time>2026-07-29T04:45:54.716Z</time>
      </trkpt>
      <trkpt lat="45.78972" lon="6.71467">
        <ele>1280</ele>
        <time>2026-07-29T04:45:55.716Z</time>
      </trkpt>
      <trkpt lat="45.78971" lon="6.71467">
        <ele>1280</ele>
        <time>2026-07-29T04:45:56.716Z</time>
      </trkpt>
      <trkpt lat="45.7897" lon="6.71466">
        <ele>1280</ele>
        <time>2026-07-29T04:45:57.716Z</time>
      </trkpt>
      <trkpt lat="45.78969" lon="6.71466">
        <ele>1280</ele>
        <time>2026-07-29T04:45:58.716Z</time>
      </trkpt>
      <trkpt lat="45.78968" lon="6.71466">
        <ele>1279</ele>
        <time>2026-07-29T04:45:59.716Z</time>
      </trkpt>
      <trkpt lat="45.78968" lon="6.71465">
        <ele>1280</ele>
        <time>2026-07-29T04:46:00.716Z</time>
      </trkpt>
      <trkpt lat="45.78967" lon="6.71465">
        <ele>1280</ele>
        <time>2026-07-29T04:46:01.716Z</time>
      </trkpt>
      <trkpt lat="45.78966" lon="6.71464">
        <ele>1281</ele>
        <time>2026-07-29T04:46:02.716Z</time>
      </trkpt>
      <trkpt lat="45.78965" lon="6.71464">
        <ele>1281</ele>
        <time>2026-07-29T04:46:03.716Z</time>
      </trkpt>
      <trkpt lat="45.78964" lon="6.71464">
        <ele>1282</ele>
        <time>2026-07-29T04:46:04.716Z</time>
      </trkpt>
      <trkpt lat="45.78963" lon="6.71465">
        <ele>1283</ele>
        <time>2026-07-29T04:46:05.716Z</time>
      </trkpt>
      <trkpt lat="45.78962" lon="6.71465">
        <ele>1284</ele>
        <time>2026-07-29T04:46:06.716Z</time>
      </trkpt>
      <trkpt lat="45.78961" lon="6.71465">
        <ele>1285</ele>
        <time>2026-07-29T04:46:07.716Z</time>
      </trkpt>
      <trkpt lat="45.7896" lon="6.71465">
        <ele>1285</ele>
        <time>2026-07-29T04:46:08.716Z</time>
      </trkpt>
      <trkpt lat="45.7896" lon="6.71466">
        <ele>1286</ele>
        <time>2026-07-29T04:46:09.716Z</time>
      </trkpt>
      <trkpt lat="45.78959" lon="6.71466">
        <ele>1286</ele>
        <time>2026-07-29T04:46:10.716Z</time>
      </trkpt>
      <trkpt lat="45.78958" lon="6.71466">
        <ele>1287</ele>
        <time>2026-07-29T04:46:11.716Z</time>
      </trkpt>
      <trkpt lat="45.78957" lon="6.71466">
        <ele>1287</ele>
        <time>2026-07-29T04:46:12.716Z</time>
      </trkpt>
      <trkpt lat="45.78957" lon="6.71465">
        <ele>1288</ele>
        <time>2026-07-29T04:46:13.716Z</time>
      </trkpt>
      <trkpt lat="45.78956" lon="6.71465">
        <ele>1288</ele>
        <time>2026-07-29T04:46:14.716Z</time>
      </trkpt>
      <trkpt lat="45.78956" lon="6.71465">
        <ele>1289</ele>
        <time>2026-07-29T04:46:15.716Z</time>
      </trkpt>
      <trkpt lat="45.78955" lon="6.71465">
        <ele>1290</ele>
        <time>2026-07-29T04:46:16.716Z</time>
      </trkpt>
      <trkpt lat="45.78954" lon="6.71464">
        <ele>1290</ele>
        <time>2026-07-29T04:46:17.716Z</time>
      </trkpt>
      <trkpt lat="45.78954" lon="6.71464">
        <ele>1291</ele>
        <time>2026-07-29T04:46:18.716Z</time>
      </trkpt>
      <trkpt lat="45.78953" lon="6.71463">
        <ele>1292</ele>
        <time>2026-07-29T04:46:19.716Z</time>
      </trkpt>
      <trkpt lat="45.78953" lon="6.71462">
        <ele>1292</ele>
        <time>2026-07-29T04:46:20.716Z</time>
      </trkpt>
      <trkpt lat="45.78951" lon="6.71462">
        <ele>1292</ele>
        <time>2026-07-29T04:46:21.716Z</time>
      </trkpt>
      <trkpt lat="45.7895" lon="6.71461">
        <ele>1293</ele>
        <time>2026-07-29T04:46:22.716Z</time>
      </trkpt>
      <trkpt lat="45.7895" lon="6.7146">
        <ele>1293</ele>
        <time>2026-07-29T04:46:23.716Z</time>
      </trkpt>
      <trkpt lat="45.78949" lon="6.7146">
        <ele>1293</ele>
        <time>2026-07-29T04:46:24.716Z</time>
      </trkpt>
      <trkpt lat="45.78948" lon="6.71459">
        <ele>1293</ele>
        <time>2026-07-29T04:46:25.716Z</time>
      </trkpt>
      <trkpt lat="45.78946" lon="6.71459">
        <ele>1293</ele>
        <time>2026-07-29T04:46:26.716Z</time>
      </trkpt>
      <trkpt lat="45.78945" lon="6.71458">
        <ele>1293</ele>
        <time>2026-07-29T04:46:27.716Z</time>
      </trkpt>
      <trkpt lat="45.78944" lon="6.71457">
        <ele>1293</ele>
        <time>2026-07-29T04:46:28.716Z</time>
      </trkpt>
      <trkpt lat="45.78943" lon="6.71456">
        <ele>1293</ele>
        <time>2026-07-29T04:46:29.716Z</time>
      </trkpt>
      <trkpt lat="45.78942" lon="6.71456">
        <ele>1293</ele>
        <time>2026-07-29T04:46:30.716Z</time>
      </trkpt>
      <trkpt lat="45.78942" lon="6.71455">
        <ele>1292</ele>
        <time>2026-07-29T04:46:31.716Z</time>
      </trkpt>
      <trkpt lat="45.78941" lon="6.71455">
        <ele>1292</ele>
        <time>2026-07-29T04:46:32.716Z</time>
      </trkpt>
      <trkpt lat="45.7894" lon="6.71454">
        <ele>1292</ele>
        <time>2026-07-29T04:46:33.716Z</time>
      </trkpt>
      <trkpt lat="45.78939" lon="6.71454">
        <ele>1291</ele>
        <time>2026-07-29T04:46:34.716Z</time>
      </trkpt>
      <trkpt lat="45.78938" lon="6.71453">
        <ele>1291</ele>
        <time>2026-07-29T04:46:35.716Z</time>
      </trkpt>
      <trkpt lat="45.78937" lon="6.71452">
        <ele>1291</ele>
        <time>2026-07-29T04:46:36.716Z</time>
      </trkpt>
      <trkpt lat="45.78936" lon="6.71451">
        <ele>1290</ele>
        <time>2026-07-29T04:46:37.716Z</time>
      </trkpt>
      <trkpt lat="45.78935" lon="6.7145">
        <ele>1290</ele>
        <time>2026-07-29T04:46:38.716Z</time>
      </trkpt>
      <trkpt lat="45.78934" lon="6.71448">
        <ele>1290</ele>
        <time>2026-07-29T04:46:39.716Z</time>
      </trkpt>
      <trkpt lat="45.78932" lon="6.71447">
        <ele>1290</ele>
        <time>2026-07-29T04:46:40.716Z</time>
      </trkpt>
      <trkpt lat="45.78931" lon="6.71446">
        <ele>1290</ele>
        <time>2026-07-29T04:46:41.716Z</time>
      </trkpt>
      <trkpt lat="45.78929" lon="6.71445">
        <ele>1290</ele>
        <time>2026-07-29T04:46:42.716Z</time>
      </trkpt>
      <trkpt lat="45.78928" lon="6.71444">
        <ele>1290</ele>
        <time>2026-07-29T04:46:43.716Z</time>
      </trkpt>
      <trkpt lat="45.78926" lon="6.71443">
        <ele>1290</ele>
        <time>2026-07-29T04:46:44.716Z</time>
      </trkpt>
      <trkpt lat="45.78924" lon="6.71442">
        <ele>1290</ele>
        <time>2026-07-29T04:46:45.716Z</time>
      </trkpt>
      <trkpt lat="45.78922" lon="6.71441">
        <ele>1290</ele>
        <time>2026-07-29T04:46:46.716Z</time>
      </trkpt>
      <trkpt lat="45.78921" lon="6.7144">
        <ele>1290</ele>
        <time>2026-07-29T04:46:47.716Z</time>
      </trkpt>
      <trkpt lat="45.78919" lon="6.71439">
        <ele>1291</ele>
        <time>2026-07-29T04:46:48.716Z</time>
      </trkpt>
      <trkpt lat="45.78917" lon="6.71437">
        <ele>1291</ele>
        <time>2026-07-29T04:46:49.716Z</time>
      </trkpt>
      <trkpt lat="45.78916" lon="6.71436">
        <ele>1291</ele>
        <time>2026-07-29T04:46:50.716Z</time>
      </trkpt>
      <trkpt lat="45.78914" lon="6.71435">
        <ele>1292</ele>
        <time>2026-07-29T04:46:51.716Z</time>
      </trkpt>
      <trkpt lat="45.78912" lon="6.71435">
        <ele>1292</ele>
        <time>2026-07-29T04:46:52.716Z</time>
      </trkpt>
      <trkpt lat="45.7891" lon="6.71434">
        <ele>1292</ele>
        <time>2026-07-29T04:46:53.716Z</time>
      </trkpt>
      <trkpt lat="45.78909" lon="6.71433">
        <ele>1292</ele>
        <time>2026-07-29T04:46:54.716Z</time>
      </trkpt>
      <trkpt lat="45.78908" lon="6.71432">
        <ele>1293</ele>
        <time>2026-07-29T04:46:55.716Z</time>
      </trkpt>
      <trkpt lat="45.78906" lon="6.71432">
        <ele>1293</ele>
        <time>2026-07-29T04:46:56.716Z</time>
      </trkpt>
      <trkpt lat="45.78905" lon="6.71431">
        <ele>1293</ele>
        <time>2026-07-29T04:46:57.716Z</time>
      </trkpt>
      <trkpt lat="45.78904" lon="6.71431">
        <ele>1293</ele>
        <time>2026-07-29T04:46:58.716Z</time>
      </trkpt>
      <trkpt lat="45.78902" lon="6.7143">
        <ele>1293</ele>
        <time>2026-07-29T04:46:59.716Z</time>
      </trkpt>
      <trkpt lat="45.78901" lon="6.71431">
        <ele>1293</ele>
        <time>2026-07-29T04:47:00.716Z</time>
      </trkpt>
      <trkpt lat="45.789" lon="6.7143">
        <ele>1293</ele>
        <time>2026-07-29T04:47:01.716Z</time>
      </trkpt>
      <trkpt lat="45.78898" lon="6.71429">
        <ele>1293</ele>
        <time>2026-07-29T04:47:02.716Z</time>
      </trkpt>
      <trkpt lat="45.78896" lon="6.71429">
        <ele>1294</ele>
        <time>2026-07-29T04:47:03.716Z</time>
      </trkpt>
      <trkpt lat="45.78895" lon="6.71428">
        <ele>1295</ele>
        <time>2026-07-29T04:47:04.716Z</time>
      </trkpt>
      <trkpt lat="45.78893" lon="6.71428">
        <ele>1295</ele>
        <time>2026-07-29T04:47:05.716Z</time>
      </trkpt>
      <trkpt lat="45.78892" lon="6.71428">
        <ele>1295</ele>
        <time>2026-07-29T04:47:06.716Z</time>
      </trkpt>
      <trkpt lat="45.7889" lon="6.71427">
        <ele>1295</ele>
        <time>2026-07-29T04:47:07.716Z</time>
      </trkpt>
      <trkpt lat="45.78889" lon="6.71426">
        <ele>1295</ele>
        <time>2026-07-29T04:47:08.716Z</time>
      </trkpt>
      <trkpt lat="45.78888" lon="6.71426">
        <ele>1295</ele>
        <time>2026-07-29T04:47:09.716Z</time>
      </trkpt>
      <trkpt lat="45.78886" lon="6.71425">
        <ele>1295</ele>
        <time>2026-07-29T04:47:10.716Z</time>
      </trkpt>
      <trkpt lat="45.78885" lon="6.71425">
        <ele>1295</ele>
        <time>2026-07-29T04:47:11.716Z</time>
      </trkpt>
      <trkpt lat="45.78883" lon="6.71425">
        <ele>1295</ele>
        <time>2026-07-29T04:47:12.716Z</time>
      </trkpt>
      <trkpt lat="45.78881" lon="6.71425">
        <ele>1295</ele>
        <time>2026-07-29T04:47:13.716Z</time>
      </trkpt>
      <trkpt lat="45.7888" lon="6.71424">
        <ele>1296</ele>
        <time>2026-07-29T04:47:14.716Z</time>
      </trkpt>
      <trkpt lat="45.78878" lon="6.71423">
        <ele>1296</ele>
        <time>2026-07-29T04:47:15.716Z</time>
      </trkpt>
      <trkpt lat="45.78877" lon="6.71422">
        <ele>1296</ele>
        <time>2026-07-29T04:47:16.716Z</time>
      </trkpt>
      <trkpt lat="45.78875" lon="6.71421">
        <ele>1297</ele>
        <time>2026-07-29T04:47:17.716Z</time>
      </trkpt>
      <trkpt lat="45.78874" lon="6.7142">
        <ele>1297</ele>
        <time>2026-07-29T04:47:18.716Z</time>
      </trkpt>
      <trkpt lat="45.78872" lon="6.71419">
        <ele>1298</ele>
        <time>2026-07-29T04:47:19.716Z</time>
      </trkpt>
      <trkpt lat="45.78871" lon="6.71418">
        <ele>1298</ele>
        <time>2026-07-29T04:47:20.716Z</time>
      </trkpt>
      <trkpt lat="45.78869" lon="6.71418">
        <ele>1299</ele>
        <time>2026-07-29T04:47:21.716Z</time>
      </trkpt>
      <trkpt lat="45.78868" lon="6.71417">
        <ele>1299</ele>
        <time>2026-07-29T04:47:22.716Z</time>
      </trkpt>
      <trkpt lat="45.78866" lon="6.71417">
        <ele>1299</ele>
        <time>2026-07-29T04:47:23.716Z</time>
      </trkpt>
      <trkpt lat="45.78865" lon="6.71417">
        <ele>1299</ele>
        <time>2026-07-29T04:47:24.716Z</time>
      </trkpt>
      <trkpt lat="45.78863" lon="6.71416">
        <ele>1299</ele>
        <time>2026-07-29T04:47:25.716Z</time>
      </trkpt>
      <trkpt lat="45.78862" lon="6.71414">
        <ele>1299</ele>
        <time>2026-07-29T04:47:26.716Z</time>
      </trkpt>
      <trkpt lat="45.78861" lon="6.71414">
        <ele>1299</ele>
        <time>2026-07-29T04:47:27.716Z</time>
      </trkpt>
      <trkpt lat="45.78859" lon="6.71413">
        <ele>1299</ele>
        <time>2026-07-29T04:47:28.716Z</time>
      </trkpt>
      <trkpt lat="45.78857" lon="6.71412">
        <ele>1299</ele>
        <time>2026-07-29T04:47:29.716Z</time>
      </trkpt>
      <trkpt lat="45.78856" lon="6.71412">
        <ele>1299</ele>
        <time>2026-07-29T04:47:30.716Z</time>
      </trkpt>
      <trkpt lat="45.78854" lon="6.71411">
        <ele>1299</ele>
        <time>2026-07-29T04:47:31.716Z</time>
      </trkpt>
      <trkpt lat="45.78852" lon="6.7141">
        <ele>1298</ele>
        <time>2026-07-29T04:47:32.716Z</time>
      </trkpt>
      <trkpt lat="45.78851" lon="6.7141">
        <ele>1298</ele>
        <time>2026-07-29T04:47:33.716Z</time>
      </trkpt>
      <trkpt lat="45.7885" lon="6.71409">
        <ele>1298</ele>
        <time>2026-07-29T04:47:34.716Z</time>
      </trkpt>
      <trkpt lat="45.78849" lon="6.71409">
        <ele>1298</ele>
        <time>2026-07-29T04:47:35.716Z</time>
      </trkpt>
      <trkpt lat="45.78848" lon="6.71409">
        <ele>1297</ele>
        <time>2026-07-29T04:47:36.716Z</time>
      </trkpt>
      <trkpt lat="45.78847" lon="6.71408">
        <ele>1297</ele>
        <time>2026-07-29T04:47:37.716Z</time>
      </trkpt>
      <trkpt lat="45.78846" lon="6.71408">
        <ele>1297</ele>
        <time>2026-07-29T04:47:38.716Z</time>
      </trkpt>
      <trkpt lat="45.78845" lon="6.71407">
        <ele>1297</ele>
        <time>2026-07-29T04:47:39.716Z</time>
      </trkpt>
      <trkpt lat="45.78844" lon="6.71406">
        <ele>1297</ele>
        <time>2026-07-29T04:47:40.716Z</time>
      </trkpt>
      <trkpt lat="45.78843" lon="6.71405">
        <ele>1298</ele>
        <time>2026-07-29T04:47:41.716Z</time>
      </trkpt>
      <trkpt lat="45.78842" lon="6.71404">
        <ele>1299</ele>
        <time>2026-07-29T04:47:42.716Z</time>
      </trkpt>
      <trkpt lat="45.78841" lon="6.71403">
        <ele>1299</ele>
        <time>2026-07-29T04:47:43.716Z</time>
      </trkpt>
      <trkpt lat="45.7884" lon="6.71402">
        <ele>1300</ele>
        <time>2026-07-29T04:47:44.716Z</time>
      </trkpt>
      <trkpt lat="45.78839" lon="6.71401">
        <ele>1301</ele>
        <time>2026-07-29T04:47:45.716Z</time>
      </trkpt>
      <trkpt lat="45.78838" lon="6.714">
        <ele>1301</ele>
        <time>2026-07-29T04:47:46.716Z</time>
      </trkpt>
      <trkpt lat="45.78837" lon="6.714">
        <ele>1301</ele>
        <time>2026-07-29T04:47:47.716Z</time>
      </trkpt>
      <trkpt lat="45.78836" lon="6.71399">
        <ele>1301</ele>
        <time>2026-07-29T04:47:48.716Z</time>
      </trkpt>
      <trkpt lat="45.78834" lon="6.71398">
        <ele>1301</ele>
        <time>2026-07-29T04:47:49.716Z</time>
      </trkpt>
      <trkpt lat="45.78833" lon="6.71397">
        <ele>1301</ele>
        <time>2026-07-29T04:47:50.716Z</time>
      </trkpt>
      <trkpt lat="45.78832" lon="6.71396">
        <ele>1302</ele>
        <time>2026-07-29T04:47:51.716Z</time>
      </trkpt>
      <trkpt lat="45.7883" lon="6.71395">
        <ele>1302</ele>
        <time>2026-07-29T04:47:52.716Z</time>
      </trkpt>
      <trkpt lat="45.78829" lon="6.71394">
        <ele>1302</ele>
        <time>2026-07-29T04:47:53.716Z</time>
      </trkpt>
      <trkpt lat="45.78828" lon="6.71393">
        <ele>1302</ele>
        <time>2026-07-29T04:47:54.716Z</time>
      </trkpt>
      <trkpt lat="45.78827" lon="6.71392">
        <ele>1302</ele>
        <time>2026-07-29T04:47:55.716Z</time>
      </trkpt>
      <trkpt lat="45.78825" lon="6.71392">
        <ele>1303</ele>
        <time>2026-07-29T04:47:56.716Z</time>
      </trkpt>
      <trkpt lat="45.78824" lon="6.71392">
        <ele>1303</ele>
        <time>2026-07-29T04:47:57.716Z</time>
      </trkpt>
      <trkpt lat="45.78823" lon="6.71391">
        <ele>1304</ele>
        <time>2026-07-29T04:47:58.716Z</time>
      </trkpt>
      <trkpt lat="45.78822" lon="6.71391">
        <ele>1304</ele>
        <time>2026-07-29T04:47:59.716Z</time>
      </trkpt>
      <trkpt lat="45.78821" lon="6.7139">
        <ele>1305</ele>
        <time>2026-07-29T04:48:00.716Z</time>
      </trkpt>
      <trkpt lat="45.7882" lon="6.71389">
        <ele>1305</ele>
        <time>2026-07-29T04:48:01.716Z</time>
      </trkpt>
      <trkpt lat="45.78819" lon="6.71388">
        <ele>1306</ele>
        <time>2026-07-29T04:48:02.716Z</time>
      </trkpt>
      <trkpt lat="45.78818" lon="6.71387">
        <ele>1306</ele>
        <time>2026-07-29T04:48:03.716Z</time>
      </trkpt>
      <trkpt lat="45.78817" lon="6.71386">
        <ele>1307</ele>
        <time>2026-07-29T04:48:04.716Z</time>
      </trkpt>
      <trkpt lat="45.78816" lon="6.71385">
        <ele>1308</ele>
        <time>2026-07-29T04:48:05.716Z</time>
      </trkpt>
      <trkpt lat="45.78815" lon="6.71384">
        <ele>1308</ele>
        <time>2026-07-29T04:48:06.716Z</time>
      </trkpt>
      <trkpt lat="45.78813" lon="6.71383">
        <ele>1309</ele>
        <time>2026-07-29T04:48:07.716Z</time>
      </trkpt>
      <trkpt lat="45.78812" lon="6.71381">
        <ele>1309</ele>
        <time>2026-07-29T04:48:08.716Z</time>
      </trkpt>
      <trkpt lat="45.78811" lon="6.7138">
        <ele>1309</ele>
        <time>2026-07-29T04:48:09.716Z</time>
      </trkpt>
      <trkpt lat="45.7881" lon="6.71379">
        <ele>1310</ele>
        <time>2026-07-29T04:48:10.716Z</time>
      </trkpt>
      <trkpt lat="45.78809" lon="6.71378">
        <ele>1310</ele>
        <time>2026-07-29T04:48:11.716Z</time>
      </trkpt>
      <trkpt lat="45.78808" lon="6.71377">
        <ele>1310</ele>
        <time>2026-07-29T04:48:12.716Z</time>
      </trkpt>
      <trkpt lat="45.78806" lon="6.71376">
        <ele>1311</ele>
        <time>2026-07-29T04:48:13.716Z</time>
      </trkpt>
      <trkpt lat="45.78805" lon="6.71376">
        <ele>1311</ele>
        <time>2026-07-29T04:48:14.716Z</time>
      </trkpt>
      <trkpt lat="45.78803" lon="6.71375">
        <ele>1311</ele>
        <time>2026-07-29T04:48:15.716Z</time>
      </trkpt>
      <trkpt lat="45.78802" lon="6.71373">
        <ele>1311</ele>
        <time>2026-07-29T04:48:16.716Z</time>
      </trkpt>
      <trkpt lat="45.788" lon="6.71372">
        <ele>1311</ele>
        <time>2026-07-29T04:48:17.717Z</time>
      </trkpt>
      <trkpt lat="45.78799" lon="6.71371">
        <ele>1312</ele>
        <time>2026-07-29T04:48:18.716Z</time>
      </trkpt>
      <trkpt lat="45.78798" lon="6.7137">
        <ele>1312</ele>
        <time>2026-07-29T04:48:19.716Z</time>
      </trkpt>
      <trkpt lat="45.78796" lon="6.71369">
        <ele>1312</ele>
        <time>2026-07-29T04:48:20.716Z</time>
      </trkpt>
      <trkpt lat="45.78794" lon="6.71368">
        <ele>1312</ele>
        <time>2026-07-29T04:48:21.716Z</time>
      </trkpt>
      <trkpt lat="45.78793" lon="6.71368">
        <ele>1311</ele>
        <time>2026-07-29T04:48:22.716Z</time>
      </trkpt>
      <trkpt lat="45.78791" lon="6.71367">
        <ele>1311</ele>
        <time>2026-07-29T04:48:23.716Z</time>
      </trkpt>
      <trkpt lat="45.7879" lon="6.71366">
        <ele>1311</ele>
        <time>2026-07-29T04:48:24.716Z</time>
      </trkpt>
      <trkpt lat="45.78789" lon="6.71366">
        <ele>1310</ele>
        <time>2026-07-29T04:48:25.716Z</time>
      </trkpt>
      <trkpt lat="45.78787" lon="6.71365">
        <ele>1310</ele>
        <time>2026-07-29T04:48:26.716Z</time>
      </trkpt>
      <trkpt lat="45.78786" lon="6.71365">
        <ele>1310</ele>
        <time>2026-07-29T04:48:27.716Z</time>
      </trkpt>
      <trkpt lat="45.78784" lon="6.71365">
        <ele>1310</ele>
        <time>2026-07-29T04:48:28.716Z</time>
      </trkpt>
      <trkpt lat="45.78783" lon="6.71364">
        <ele>1310</ele>
        <time>2026-07-29T04:48:29.716Z</time>
      </trkpt>
      <trkpt lat="45.78781" lon="6.71364">
        <ele>1310</ele>
        <time>2026-07-29T04:48:30.716Z</time>
      </trkpt>
      <trkpt lat="45.78779" lon="6.71364">
        <ele>1309</ele>
        <time>2026-07-29T04:48:31.716Z</time>
      </trkpt>
      <trkpt lat="45.78778" lon="6.71364">
        <ele>1309</ele>
        <time>2026-07-29T04:48:32.716Z</time>
      </trkpt>
      <trkpt lat="45.78776" lon="6.71364">
        <ele>1309</ele>
        <time>2026-07-29T04:48:33.716Z</time>
      </trkpt>
      <trkpt lat="45.78774" lon="6.71363">
        <ele>1309</ele>
        <time>2026-07-29T04:48:34.716Z</time>
      </trkpt>
      <trkpt lat="45.78773" lon="6.71362">
        <ele>1308</ele>
        <time>2026-07-29T04:48:35.716Z</time>
      </trkpt>
      <trkpt lat="45.78771" lon="6.71362">
        <ele>1308</ele>
        <time>2026-07-29T04:48:36.716Z</time>
      </trkpt>
      <trkpt lat="45.7877" lon="6.7136">
        <ele>1308</ele>
        <time>2026-07-29T04:48:37.716Z</time>
      </trkpt>
      <trkpt lat="45.78768" lon="6.7136">
        <ele>1307</ele>
        <time>2026-07-29T04:48:38.716Z</time>
      </trkpt>
      <trkpt lat="45.78767" lon="6.71359">
        <ele>1306</ele>
        <time>2026-07-29T04:48:39.716Z</time>
      </trkpt>
      <trkpt lat="45.78765" lon="6.71358">
        <ele>1306</ele>
        <time>2026-07-29T04:48:40.716Z</time>
      </trkpt>
      <trkpt lat="45.78764" lon="6.71357">
        <ele>1306</ele>
        <time>2026-07-29T04:48:41.716Z</time>
      </trkpt>
      <trkpt lat="45.78762" lon="6.71356">
        <ele>1306</ele>
        <time>2026-07-29T04:48:42.716Z</time>
      </trkpt>
      <trkpt lat="45.78761" lon="6.71355">
        <ele>1306</ele>
        <time>2026-07-29T04:48:43.716Z</time>
      </trkpt>
      <trkpt lat="45.7876" lon="6.71354">
        <ele>1306</ele>
        <time>2026-07-29T04:48:44.716Z</time>
      </trkpt>
      <trkpt lat="45.78758" lon="6.71352">
        <ele>1305</ele>
        <time>2026-07-29T04:48:45.716Z</time>
      </trkpt>
      <trkpt lat="45.78757" lon="6.71351">
        <ele>1305</ele>
        <time>2026-07-29T04:48:46.716Z</time>
      </trkpt>
      <trkpt lat="45.78756" lon="6.7135">
        <ele>1305</ele>
        <time>2026-07-29T04:48:47.716Z</time>
      </trkpt>
      <trkpt lat="45.78754" lon="6.71349">
        <ele>1305</ele>
        <time>2026-07-29T04:48:48.716Z</time>
      </trkpt>
      <trkpt lat="45.78753" lon="6.71347">
        <ele>1305</ele>
        <time>2026-07-29T04:48:49.716Z</time>
      </trkpt>
      <trkpt lat="45.78751" lon="6.71346">
        <ele>1306</ele>
        <time>2026-07-29T04:48:50.716Z</time>
      </trkpt>
      <trkpt lat="45.7875" lon="6.71345">
        <ele>1306</ele>
        <time>2026-07-29T04:48:51.716Z</time>
      </trkpt>
      <trkpt lat="45.78748" lon="6.71345">
        <ele>1307</ele>
        <time>2026-07-29T04:48:52.716Z</time>
      </trkpt>
      <trkpt lat="45.78747" lon="6.71344">
        <ele>1307</ele>
        <time>2026-07-29T04:48:53.716Z</time>
      </trkpt>
      <trkpt lat="45.78746" lon="6.71343">
        <ele>1307</ele>
        <time>2026-07-29T04:48:54.716Z</time>
      </trkpt>
      <trkpt lat="45.78744" lon="6.71342">
        <ele>1308</ele>
        <time>2026-07-29T04:48:55.716Z</time>
      </trkpt>
      <trkpt lat="45.78742" lon="6.71341">
        <ele>1308</ele>
        <time>2026-07-29T04:48:56.716Z</time>
      </trkpt>
      <trkpt lat="45.78741" lon="6.7134">
        <ele>1309</ele>
        <time>2026-07-29T04:48:57.716Z</time>
      </trkpt>
      <trkpt lat="45.78739" lon="6.7134">
        <ele>1310</ele>
        <time>2026-07-29T04:48:58.716Z</time>
      </trkpt>
      <trkpt lat="45.78738" lon="6.71339">
        <ele>1310</ele>
        <time>2026-07-29T04:48:59.716Z</time>
      </trkpt>
      <trkpt lat="45.78736" lon="6.71338">
        <ele>1311</ele>
        <time>2026-07-29T04:49:00.716Z</time>
      </trkpt>
      <trkpt lat="45.78735" lon="6.71337">
        <ele>1312</ele>
        <time>2026-07-29T04:49:01.716Z</time>
      </trkpt>
      <trkpt lat="45.78733" lon="6.71336">
        <ele>1312</ele>
        <time>2026-07-29T04:49:02.716Z</time>
      </trkpt>
      <trkpt lat="45.78732" lon="6.71335">
        <ele>1313</ele>
        <time>2026-07-29T04:49:03.716Z</time>
      </trkpt>
      <trkpt lat="45.78731" lon="6.71334">
        <ele>1313</ele>
        <time>2026-07-29T04:49:04.716Z</time>
      </trkpt>
      <trkpt lat="45.78729" lon="6.71334">
        <ele>1313</ele>
        <time>2026-07-29T04:49:05.716Z</time>
      </trkpt>
      <trkpt lat="45.78728" lon="6.71334">
        <ele>1313</ele>
        <time>2026-07-29T04:49:06.716Z</time>
      </trkpt>
      <trkpt lat="45.78726" lon="6.71334">
        <ele>1313</ele>
        <time>2026-07-29T04:49:07.716Z</time>
      </trkpt>
      <trkpt lat="45.78725" lon="6.71333">
        <ele>1313</ele>
        <time>2026-07-29T04:49:08.716Z</time>
      </trkpt>
      <trkpt lat="45.78724" lon="6.71332">
        <ele>1313</ele>
        <time>2026-07-29T04:49:09.716Z</time>
      </trkpt>
      <trkpt lat="45.78723" lon="6.71331">
        <ele>1313</ele>
        <time>2026-07-29T04:49:10.716Z</time>
      </trkpt>
      <trkpt lat="45.78722" lon="6.71331">
        <ele>1313</ele>
        <time>2026-07-29T04:49:11.716Z</time>
      </trkpt>
      <trkpt lat="45.7872" lon="6.7133">
        <ele>1313</ele>
        <time>2026-07-29T04:49:12.716Z</time>
      </trkpt>
      <trkpt lat="45.78719" lon="6.71328">
        <ele>1313</ele>
        <time>2026-07-29T04:49:13.716Z</time>
      </trkpt>
      <trkpt lat="45.78718" lon="6.71328">
        <ele>1312</ele>
        <time>2026-07-29T04:49:14.716Z</time>
      </trkpt>
      <trkpt lat="45.78716" lon="6.71327">
        <ele>1312</ele>
        <time>2026-07-29T04:49:15.716Z</time>
      </trkpt>
      <trkpt lat="45.78714" lon="6.71326">
        <ele>1312</ele>
        <time>2026-07-29T04:49:16.716Z</time>
      </trkpt>
      <trkpt lat="45.78713" lon="6.71325">
        <ele>1313</ele>
        <time>2026-07-29T04:49:17.716Z</time>
      </trkpt>
      <trkpt lat="45.78711" lon="6.71325">
        <ele>1313</ele>
        <time>2026-07-29T04:49:18.716Z</time>
      </trkpt>
      <trkpt lat="45.78709" lon="6.71324">
        <ele>1313</ele>
        <time>2026-07-29T04:49:19.716Z</time>
      </trkpt>
      <trkpt lat="45.78707" lon="6.71324">
        <ele>1314</ele>
        <time>2026-07-29T04:49:20.716Z</time>
      </trkpt>
      <trkpt lat="45.78706" lon="6.71324">
        <ele>1315</ele>
        <time>2026-07-29T04:49:21.716Z</time>
      </trkpt>
      <trkpt lat="45.78704" lon="6.71323">
        <ele>1315</ele>
        <time>2026-07-29T04:49:22.716Z</time>
      </trkpt>
      <trkpt lat="45.78702" lon="6.71323">
        <ele>1316</ele>
        <time>2026-07-29T04:49:23.716Z</time>
      </trkpt>
      <trkpt lat="45.78701" lon="6.71322">
        <ele>1317</ele>
        <time>2026-07-29T04:49:24.716Z</time>
      </trkpt>
      <trkpt lat="45.78699" lon="6.71322">
        <ele>1318</ele>
        <time>2026-07-29T04:49:25.716Z</time>
      </trkpt>
      <trkpt lat="45.78698" lon="6.71321">
        <ele>1319</ele>
        <time>2026-07-29T04:49:26.716Z</time>
      </trkpt>
      <trkpt lat="45.78697" lon="6.71321">
        <ele>1319</ele>
        <time>2026-07-29T04:49:27.716Z</time>
      </trkpt>
      <trkpt lat="45.78695" lon="6.71321">
        <ele>1320</ele>
        <time>2026-07-29T04:49:28.716Z</time>
      </trkpt>
      <trkpt lat="45.78694" lon="6.71321">
        <ele>1320</ele>
        <time>2026-07-29T04:49:29.716Z</time>
      </trkpt>
      <trkpt lat="45.78693" lon="6.71321">
        <ele>1321</ele>
        <time>2026-07-29T04:49:30.716Z</time>
      </trkpt>
      <trkpt lat="45.78692" lon="6.71321">
        <ele>1321</ele>
        <time>2026-07-29T04:49:31.716Z</time>
      </trkpt>
      <trkpt lat="45.78691" lon="6.71321">
        <ele>1322</ele>
        <time>2026-07-29T04:49:32.716Z</time>
      </trkpt>
      <trkpt lat="45.78689" lon="6.7132">
        <ele>1322</ele>
        <time>2026-07-29T04:49:33.716Z</time>
      </trkpt>
      <trkpt lat="45.78688" lon="6.7132">
        <ele>1323</ele>
        <time>2026-07-29T04:49:34.716Z</time>
      </trkpt>
      <trkpt lat="45.78687" lon="6.71319">
        <ele>1323</ele>
        <time>2026-07-29T04:49:35.716Z</time>
      </trkpt>
      <trkpt lat="45.78686" lon="6.71318">
        <ele>1324</ele>
        <time>2026-07-29T04:49:36.716Z</time>
      </trkpt>
      <trkpt lat="45.78684" lon="6.71317">
        <ele>1324</ele>
        <time>2026-07-29T04:49:37.716Z</time>
      </trkpt>
      <trkpt lat="45.78683" lon="6.71316">
        <ele>1324</ele>
        <time>2026-07-29T04:49:38.716Z</time>
      </trkpt>
      <trkpt lat="45.78682" lon="6.71315">
        <ele>1324</ele>
        <time>2026-07-29T04:49:39.716Z</time>
      </trkpt>
      <trkpt lat="45.78681" lon="6.71315">
        <ele>1325</ele>
        <time>2026-07-29T04:49:40.716Z</time>
      </trkpt>
      <trkpt lat="45.7868" lon="6.71314">
        <ele>1325</ele>
        <time>2026-07-29T04:49:41.716Z</time>
      </trkpt>
      <trkpt lat="45.78679" lon="6.71313">
        <ele>1326</ele>
        <time>2026-07-29T04:49:42.716Z</time>
      </trkpt>
      <trkpt lat="45.78679" lon="6.71313">
        <ele>1327</ele>
        <time>2026-07-29T04:49:43.716Z</time>
      </trkpt>
      <trkpt lat="45.78678" lon="6.71312">
        <ele>1327</ele>
        <time>2026-07-29T04:49:44.716Z</time>
      </trkpt>
      <trkpt lat="45.78678" lon="6.71311">
        <ele>1328</ele>
        <time>2026-07-29T04:49:45.716Z</time>
      </trkpt>
      <trkpt lat="45.78677" lon="6.7131">
        <ele>1329</ele>
        <time>2026-07-29T04:49:46.716Z</time>
      </trkpt>
      <trkpt lat="45.78675" lon="6.71309">
        <ele>1329</ele>
        <time>2026-07-29T04:49:47.716Z</time>
      </trkpt>
      <trkpt lat="45.78675" lon="6.71308">
        <ele>1329</ele>
        <time>2026-07-29T04:49:48.716Z</time>
      </trkpt>
      <trkpt lat="45.78674" lon="6.71307">
        <ele>1330</ele>
        <time>2026-07-29T04:49:49.716Z</time>
      </trkpt>
      <trkpt lat="45.78673" lon="6.71306">
        <ele>1329</ele>
        <time>2026-07-29T04:49:50.716Z</time>
      </trkpt>
      <trkpt lat="45.78672" lon="6.71306">
        <ele>1329</ele>
        <time>2026-07-29T04:49:51.716Z</time>
      </trkpt>
      <trkpt lat="45.78671" lon="6.71305">
        <ele>1329</ele>
        <time>2026-07-29T04:49:52.716Z</time>
      </trkpt>
      <trkpt lat="45.7867" lon="6.71304">
        <ele>1329</ele>
        <time>2026-07-29T04:49:53.716Z</time>
      </trkpt>
      <trkpt lat="45.7867" lon="6.71303">
        <ele>1329</ele>
        <time>2026-07-29T04:49:54.716Z</time>
      </trkpt>
      <trkpt lat="45.78669" lon="6.71302">
        <ele>1329</ele>
        <time>2026-07-29T04:49:55.716Z</time>
      </trkpt>
      <trkpt lat="45.78668" lon="6.71302">
        <ele>1329</ele>
        <time>2026-07-29T04:49:56.716Z</time>
      </trkpt>
      <trkpt lat="45.78667" lon="6.71301">
        <ele>1329</ele>
        <time>2026-07-29T04:49:57.716Z</time>
      </trkpt>
      <trkpt lat="45.78667" lon="6.71301">
        <ele>1329</ele>
        <time>2026-07-29T04:49:58.716Z</time>
      </trkpt>
      <trkpt lat="45.78665" lon="6.713">
        <ele>1330</ele>
        <time>2026-07-29T04:49:59.716Z</time>
      </trkpt>
      <trkpt lat="45.78664" lon="6.71299">
        <ele>1330</ele>
        <time>2026-07-29T04:50:00.716Z</time>
      </trkpt>
      <trkpt lat="45.78664" lon="6.71299">
        <ele>1331</ele>
        <time>2026-07-29T04:50:01.716Z</time>
      </trkpt>
      <trkpt lat="45.78663" lon="6.71298">
        <ele>1331</ele>
        <time>2026-07-29T04:50:02.716Z</time>
      </trkpt>
      <trkpt lat="45.78662" lon="6.71298">
        <ele>1332</ele>
        <time>2026-07-29T04:50:03.716Z</time>
      </trkpt>
      <trkpt lat="45.78661" lon="6.71298">
        <ele>1332</ele>
        <time>2026-07-29T04:50:04.716Z</time>
      </trkpt>
      <trkpt lat="45.7866" lon="6.71298">
        <ele>1333</ele>
        <time>2026-07-29T04:50:05.716Z</time>
      </trkpt>
      <trkpt lat="45.78659" lon="6.71298">
        <ele>1333</ele>
        <time>2026-07-29T04:50:06.716Z</time>
      </trkpt>
      <trkpt lat="45.78658" lon="6.71297">
        <ele>1334</ele>
        <time>2026-07-29T04:50:07.716Z</time>
      </trkpt>
      <trkpt lat="45.78656" lon="6.71297">
        <ele>1334</ele>
        <time>2026-07-29T04:50:08.716Z</time>
      </trkpt>
      <trkpt lat="45.78655" lon="6.71297">
        <ele>1335</ele>
        <time>2026-07-29T04:50:09.716Z</time>
      </trkpt>
      <trkpt lat="45.78654" lon="6.71296">
        <ele>1335</ele>
        <time>2026-07-29T04:50:10.716Z</time>
      </trkpt>
      <trkpt lat="45.78653" lon="6.71296">
        <ele>1336</ele>
        <time>2026-07-29T04:50:11.716Z</time>
      </trkpt>
      <trkpt lat="45.78651" lon="6.71295">
        <ele>1336</ele>
        <time>2026-07-29T04:50:12.716Z</time>
      </trkpt>
      <trkpt lat="45.7865" lon="6.71293">
        <ele>1336</ele>
        <time>2026-07-29T04:50:13.716Z</time>
      </trkpt>
      <trkpt lat="45.78649" lon="6.71292">
        <ele>1337</ele>
        <time>2026-07-29T04:50:14.716Z</time>
      </trkpt>
      <trkpt lat="45.78648" lon="6.71292">
        <ele>1338</ele>
        <time>2026-07-29T04:50:15.716Z</time>
      </trkpt>
      <trkpt lat="45.78648" lon="6.71291">
        <ele>1338</ele>
        <time>2026-07-29T04:50:16.716Z</time>
      </trkpt>
      <trkpt lat="45.78647" lon="6.71291">
        <ele>1339</ele>
        <time>2026-07-29T04:50:17.716Z</time>
      </trkpt>
      <trkpt lat="45.78645" lon="6.7129">
        <ele>1339</ele>
        <time>2026-07-29T04:50:18.716Z</time>
      </trkpt>
      <trkpt lat="45.78644" lon="6.7129">
        <ele>1339</ele>
        <time>2026-07-29T04:50:19.716Z</time>
      </trkpt>
      <trkpt lat="45.78642" lon="6.7129">
        <ele>1340</ele>
        <time>2026-07-29T04:50:20.716Z</time>
      </trkpt>
      <trkpt lat="45.78641" lon="6.7129">
        <ele>1340</ele>
        <time>2026-07-29T04:50:21.716Z</time>
      </trkpt>
      <trkpt lat="45.7864" lon="6.7129">
        <ele>1341</ele>
        <time>2026-07-29T04:50:22.716Z</time>
      </trkpt>
      <trkpt lat="45.78639" lon="6.7129">
        <ele>1341</ele>
        <time>2026-07-29T04:50:23.716Z</time>
      </trkpt>
      <trkpt lat="45.78638" lon="6.7129">
        <ele>1341</ele>
        <time>2026-07-29T04:50:24.716Z</time>
      </trkpt>
      <trkpt lat="45.78637" lon="6.71289">
        <ele>1341</ele>
        <time>2026-07-29T04:50:25.716Z</time>
      </trkpt>
      <trkpt lat="45.78636" lon="6.71288">
        <ele>1340</ele>
        <time>2026-07-29T04:50:26.716Z</time>
      </trkpt>
      <trkpt lat="45.78635" lon="6.71287">
        <ele>1339</ele>
        <time>2026-07-29T04:50:27.716Z</time>
      </trkpt>
      <trkpt lat="45.78633" lon="6.71287">
        <ele>1339</ele>
        <time>2026-07-29T04:50:28.716Z</time>
      </trkpt>
      <trkpt lat="45.78632" lon="6.71286">
        <ele>1338</ele>
        <time>2026-07-29T04:50:29.716Z</time>
      </trkpt>
      <trkpt lat="45.78631" lon="6.71286">
        <ele>1337</ele>
        <time>2026-07-29T04:50:30.716Z</time>
      </trkpt>
      <trkpt lat="45.7863" lon="6.71285">
        <ele>1336</ele>
        <time>2026-07-29T04:50:31.716Z</time>
      </trkpt>
      <trkpt lat="45.78629" lon="6.71285">
        <ele>1336</ele>
        <time>2026-07-29T04:50:32.716Z</time>
      </trkpt>
      <trkpt lat="45.78627" lon="6.71285">
        <ele>1335</ele>
        <time>2026-07-29T04:50:33.716Z</time>
      </trkpt>
      <trkpt lat="45.78627" lon="6.71285">
        <ele>1335</ele>
        <time>2026-07-29T04:50:34.716Z</time>
      </trkpt>
      <trkpt lat="45.78626" lon="6.71285">
        <ele>1336</ele>
        <time>2026-07-29T04:50:35.716Z</time>
      </trkpt>
      <trkpt lat="45.78624" lon="6.71284">
        <ele>1336</ele>
        <time>2026-07-29T04:50:36.716Z</time>
      </trkpt>
      <trkpt lat="45.78623" lon="6.71284">
        <ele>1336</ele>
        <time>2026-07-29T04:50:37.716Z</time>
      </trkpt>
      <trkpt lat="45.78622" lon="6.71284">
        <ele>1336</ele>
        <time>2026-07-29T04:50:38.716Z</time>
      </trkpt>
      <trkpt lat="45.78621" lon="6.71284">
        <ele>1337</ele>
        <time>2026-07-29T04:50:39.716Z</time>
      </trkpt>
      <trkpt lat="45.7862" lon="6.71285">
        <ele>1337</ele>
        <time>2026-07-29T04:50:40.716Z</time>
      </trkpt>
      <trkpt lat="45.78619" lon="6.71285">
        <ele>1337</ele>
        <time>2026-07-29T04:50:41.716Z</time>
      </trkpt>
      <trkpt lat="45.78618" lon="6.71285">
        <ele>1338</ele>
        <time>2026-07-29T04:50:42.716Z</time>
      </trkpt>
      <trkpt lat="45.78617" lon="6.71286">
        <ele>1338</ele>
        <time>2026-07-29T04:50:43.716Z</time>
      </trkpt>
      <trkpt lat="45.78616" lon="6.71286">
        <ele>1339</ele>
        <time>2026-07-29T04:50:44.716Z</time>
      </trkpt>
      <trkpt lat="45.78615" lon="6.71286">
        <ele>1339</ele>
        <time>2026-07-29T04:50:45.716Z</time>
      </trkpt>
      <trkpt lat="45.78614" lon="6.71287">
        <ele>1340</ele>
        <time>2026-07-29T04:50:46.716Z</time>
      </trkpt>
      <trkpt lat="45.78613" lon="6.71287">
        <ele>1341</ele>
        <time>2026-07-29T04:50:47.716Z</time>
      </trkpt>
      <trkpt lat="45.78612" lon="6.71287">
        <ele>1342</ele>
        <time>2026-07-29T04:50:48.716Z</time>
      </trkpt>
      <trkpt lat="45.78611" lon="6.71287">
        <ele>1343</ele>
        <time>2026-07-29T04:50:49.716Z</time>
      </trkpt>
      <trkpt lat="45.78611" lon="6.71287">
        <ele>1344</ele>
        <time>2026-07-29T04:50:50.716Z</time>
      </trkpt>
      <trkpt lat="45.78609" lon="6.71287">
        <ele>1345</ele>
        <time>2026-07-29T04:50:51.716Z</time>
      </trkpt>
      <trkpt lat="45.78608" lon="6.71288">
        <ele>1346</ele>
        <time>2026-07-29T04:50:52.716Z</time>
      </trkpt>
      <trkpt lat="45.78607" lon="6.71288">
        <ele>1346</ele>
        <time>2026-07-29T04:50:53.716Z</time>
      </trkpt>
      <trkpt lat="45.78606" lon="6.71289">
        <ele>1347</ele>
        <time>2026-07-29T04:50:54.716Z</time>
      </trkpt>
      <trkpt lat="45.78605" lon="6.71289">
        <ele>1347</ele>
        <time>2026-07-29T04:50:55.716Z</time>
      </trkpt>
      <trkpt lat="45.78604" lon="6.71289">
        <ele>1348</ele>
        <time>2026-07-29T04:50:56.716Z</time>
      </trkpt>
      <trkpt lat="45.78603" lon="6.7129">
        <ele>1348</ele>
        <time>2026-07-29T04:50:57.716Z</time>
      </trkpt>
      <trkpt lat="45.78602" lon="6.7129">
        <ele>1349</ele>
        <time>2026-07-29T04:50:58.716Z</time>
      </trkpt>
      <trkpt lat="45.786" lon="6.7129">
        <ele>1349</ele>
        <time>2026-07-29T04:50:59.716Z</time>
      </trkpt>
      <trkpt lat="45.78599" lon="6.71291">
        <ele>1350</ele>
        <time>2026-07-29T04:51:00.716Z</time>
      </trkpt>
      <trkpt lat="45.78598" lon="6.71291">
        <ele>1351</ele>
        <time>2026-07-29T04:51:01.716Z</time>
      </trkpt>
      <trkpt lat="45.78596" lon="6.7129">
        <ele>1351</ele>
        <time>2026-07-29T04:51:02.716Z</time>
      </trkpt>
      <trkpt lat="45.78595" lon="6.7129">
        <ele>1352</ele>
        <time>2026-07-29T04:51:03.716Z</time>
      </trkpt>
      <trkpt lat="45.78594" lon="6.7129">
        <ele>1352</ele>
        <time>2026-07-29T04:51:04.716Z</time>
      </trkpt>
      <trkpt lat="45.78593" lon="6.71289">
        <ele>1352</ele>
        <time>2026-07-29T04:51:05.716Z</time>
      </trkpt>
      <trkpt lat="45.78591" lon="6.71288">
        <ele>1352</ele>
        <time>2026-07-29T04:51:06.716Z</time>
      </trkpt>
      <trkpt lat="45.7859" lon="6.71287">
        <ele>1352</ele>
        <time>2026-07-29T04:51:07.716Z</time>
      </trkpt>
      <trkpt lat="45.78589" lon="6.71286">
        <ele>1352</ele>
        <time>2026-07-29T04:51:08.716Z</time>
      </trkpt>
      <trkpt lat="45.78587" lon="6.71285">
        <ele>1352</ele>
        <time>2026-07-29T04:51:09.716Z</time>
      </trkpt>
      <trkpt lat="45.78586" lon="6.71285">
        <ele>1352</ele>
        <time>2026-07-29T04:51:10.716Z</time>
      </trkpt>
      <trkpt lat="45.78585" lon="6.71284">
        <ele>1351</ele>
        <time>2026-07-29T04:51:11.716Z</time>
      </trkpt>
      <trkpt lat="45.78584" lon="6.71283">
        <ele>1351</ele>
        <time>2026-07-29T04:51:12.716Z</time>
      </trkpt>
      <trkpt lat="45.78582" lon="6.71282">
        <ele>1351</ele>
        <time>2026-07-29T04:51:13.716Z</time>
      </trkpt>
      <trkpt lat="45.78581" lon="6.71282">
        <ele>1351</ele>
        <time>2026-07-29T04:51:14.716Z</time>
      </trkpt>
      <trkpt lat="45.78579" lon="6.71281">
        <ele>1351</ele>
        <time>2026-07-29T04:51:15.716Z</time>
      </trkpt>
      <trkpt lat="45.78578" lon="6.71281">
        <ele>1351</ele>
        <time>2026-07-29T04:51:16.716Z</time>
      </trkpt>
      <trkpt lat="45.78576" lon="6.7128">
        <ele>1351</ele>
        <time>2026-07-29T04:51:17.716Z</time>
      </trkpt>
      <trkpt lat="45.78575" lon="6.7128">
        <ele>1351</ele>
        <time>2026-07-29T04:51:18.716Z</time>
      </trkpt>
      <trkpt lat="45.78573" lon="6.7128">
        <ele>1350</ele>
        <time>2026-07-29T04:51:19.716Z</time>
      </trkpt>
      <trkpt lat="45.78572" lon="6.7128">
        <ele>1350</ele>
        <time>2026-07-29T04:51:20.716Z</time>
      </trkpt>
      <trkpt lat="45.7857" lon="6.71279">
        <ele>1350</ele>
        <time>2026-07-29T04:51:21.716Z</time>
      </trkpt>
      <trkpt lat="45.78569" lon="6.71279">
        <ele>1350</ele>
        <time>2026-07-29T04:51:22.716Z</time>
      </trkpt>
      <trkpt lat="45.78567" lon="6.71279">
        <ele>1350</ele>
        <time>2026-07-29T04:51:23.716Z</time>
      </trkpt>
      <trkpt lat="45.78565" lon="6.71279">
        <ele>1350</ele>
        <time>2026-07-29T04:51:24.716Z</time>
      </trkpt>
      <trkpt lat="45.78564" lon="6.71279">
        <ele>1350</ele>
        <time>2026-07-29T04:51:25.716Z</time>
      </trkpt>
      <trkpt lat="45.78562" lon="6.7128">
        <ele>1350</ele>
        <time>2026-07-29T04:51:26.716Z</time>
      </trkpt>
      <trkpt lat="45.78561" lon="6.7128">
        <ele>1350</ele>
        <time>2026-07-29T04:51:27.716Z</time>
      </trkpt>
      <trkpt lat="45.78559" lon="6.7128">
        <ele>1350</ele>
        <time>2026-07-29T04:51:28.716Z</time>
      </trkpt>
      <trkpt lat="45.78558" lon="6.71279">
        <ele>1350</ele>
        <time>2026-07-29T04:51:29.716Z</time>
      </trkpt>
      <trkpt lat="45.78556" lon="6.71279">
        <ele>1350</ele>
        <time>2026-07-29T04:51:30.716Z</time>
      </trkpt>
      <trkpt lat="45.78554" lon="6.71278">
        <ele>1350</ele>
        <time>2026-07-29T04:51:31.716Z</time>
      </trkpt>
      <trkpt lat="45.78553" lon="6.71277">
        <ele>1350</ele>
        <time>2026-07-29T04:51:32.716Z</time>
      </trkpt>
      <trkpt lat="45.78551" lon="6.71277">
        <ele>1350</ele>
        <time>2026-07-29T04:51:33.716Z</time>
      </trkpt>
      <trkpt lat="45.78549" lon="6.71277">
        <ele>1350</ele>
        <time>2026-07-29T04:51:34.716Z</time>
      </trkpt>
      <trkpt lat="45.78548" lon="6.71277">
        <ele>1350</ele>
        <time>2026-07-29T04:51:35.716Z</time>
      </trkpt>
      <trkpt lat="45.78547" lon="6.71276">
        <ele>1350</ele>
        <time>2026-07-29T04:51:36.716Z</time>
      </trkpt>
      <trkpt lat="45.78545" lon="6.71276">
        <ele>1350</ele>
        <time>2026-07-29T04:51:37.716Z</time>
      </trkpt>
      <trkpt lat="45.78544" lon="6.71275">
        <ele>1350</ele>
        <time>2026-07-29T04:51:38.716Z</time>
      </trkpt>
      <trkpt lat="45.78542" lon="6.71275">
        <ele>1349</ele>
        <time>2026-07-29T04:51:39.716Z</time>
      </trkpt>
      <trkpt lat="45.78541" lon="6.71274">
        <ele>1349</ele>
        <time>2026-07-29T04:51:40.716Z</time>
      </trkpt>
      <trkpt lat="45.7854" lon="6.71274">
        <ele>1349</ele>
        <time>2026-07-29T04:51:41.716Z</time>
      </trkpt>
      <trkpt lat="45.78538" lon="6.71274">
        <ele>1348</ele>
        <time>2026-07-29T04:51:42.716Z</time>
      </trkpt>
      <trkpt lat="45.78537" lon="6.71274">
        <ele>1348</ele>
        <time>2026-07-29T04:51:43.716Z</time>
      </trkpt>
      <trkpt lat="45.78536" lon="6.71274">
        <ele>1348</ele>
        <time>2026-07-29T04:51:44.716Z</time>
      </trkpt>
      <trkpt lat="45.78534" lon="6.71273">
        <ele>1348</ele>
        <time>2026-07-29T04:51:45.716Z</time>
      </trkpt>
      <trkpt lat="45.78533" lon="6.71273">
        <ele>1348</ele>
        <time>2026-07-29T04:51:46.716Z</time>
      </trkpt>
      <trkpt lat="45.78531" lon="6.71273">
        <ele>1348</ele>
        <time>2026-07-29T04:51:47.716Z</time>
      </trkpt>
      <trkpt lat="45.78529" lon="6.71273">
        <ele>1348</ele>
        <time>2026-07-29T04:51:48.716Z</time>
      </trkpt>
      <trkpt lat="45.78528" lon="6.71272">
        <ele>1349</ele>
        <time>2026-07-29T04:51:49.716Z</time>
      </trkpt>
      <trkpt lat="45.78526" lon="6.71271">
        <ele>1349</ele>
        <time>2026-07-29T04:51:50.716Z</time>
      </trkpt>
      <trkpt lat="45.78525" lon="6.71271">
        <ele>1350</ele>
        <time>2026-07-29T04:51:51.717Z</time>
      </trkpt>
      <trkpt lat="45.78523" lon="6.7127">
        <ele>1350</ele>
        <time>2026-07-29T04:51:52.716Z</time>
      </trkpt>
      <trkpt lat="45.78522" lon="6.7127">
        <ele>1350</ele>
        <time>2026-07-29T04:51:53.716Z</time>
      </trkpt>
      <trkpt lat="45.78521" lon="6.71269">
        <ele>1351</ele>
        <time>2026-07-29T04:51:54.716Z</time>
      </trkpt>
      <trkpt lat="45.78519" lon="6.71268">
        <ele>1351</ele>
        <time>2026-07-29T04:51:55.716Z</time>
      </trkpt>
      <trkpt lat="45.78518" lon="6.71268">
        <ele>1351</ele>
        <time>2026-07-29T04:51:56.716Z</time>
      </trkpt>
      <trkpt lat="45.78516" lon="6.71267">
        <ele>1352</ele>
        <time>2026-07-29T04:51:57.716Z</time>
      </trkpt>
      <trkpt lat="45.78515" lon="6.71266">
        <ele>1352</ele>
        <time>2026-07-29T04:51:58.716Z</time>
      </trkpt>
      <trkpt lat="45.78513" lon="6.71266">
        <ele>1352</ele>
        <time>2026-07-29T04:51:59.716Z</time>
      </trkpt>
      <trkpt lat="45.78511" lon="6.71266">
        <ele>1352</ele>
        <time>2026-07-29T04:52:00.716Z</time>
      </trkpt>
      <trkpt lat="45.7851" lon="6.71266">
        <ele>1352</ele>
        <time>2026-07-29T04:52:01.716Z</time>
      </trkpt>
      <trkpt lat="45.78509" lon="6.71265">
        <ele>1352</ele>
        <time>2026-07-29T04:52:02.716Z</time>
      </trkpt>
      <trkpt lat="45.78507" lon="6.71265">
        <ele>1352</ele>
        <time>2026-07-29T04:52:03.716Z</time>
      </trkpt>
      <trkpt lat="45.78506" lon="6.71264">
        <ele>1352</ele>
        <time>2026-07-29T04:52:04.716Z</time>
      </trkpt>
      <trkpt lat="45.78505" lon="6.71263">
        <ele>1352</ele>
        <time>2026-07-29T04:52:05.716Z</time>
      </trkpt>
      <trkpt lat="45.78503" lon="6.71262">
        <ele>1352</ele>
        <time>2026-07-29T04:52:06.716Z</time>
      </trkpt>
      <trkpt lat="45.78502" lon="6.71262">
        <ele>1352</ele>
        <time>2026-07-29T04:52:07.716Z</time>
      </trkpt>
      <trkpt lat="45.78501" lon="6.71261">
        <ele>1352</ele>
        <time>2026-07-29T04:52:08.716Z</time>
      </trkpt>
      <trkpt lat="45.785" lon="6.71261">
        <ele>1352</ele>
        <time>2026-07-29T04:52:09.716Z</time>
      </trkpt>
      <trkpt lat="45.78498" lon="6.7126">
        <ele>1353</ele>
        <time>2026-07-29T04:52:10.716Z</time>
      </trkpt>
      <trkpt lat="45.78497" lon="6.7126">
        <ele>1353</ele>
        <time>2026-07-29T04:52:11.716Z</time>
      </trkpt>
      <trkpt lat="45.78496" lon="6.7126">
        <ele>1354</ele>
        <time>2026-07-29T04:52:12.716Z</time>
      </trkpt>
      <trkpt lat="45.78495" lon="6.7126">
        <ele>1354</ele>
        <time>2026-07-29T04:52:13.716Z</time>
      </trkpt>
      <trkpt lat="45.78494" lon="6.7126">
        <ele>1354</ele>
        <time>2026-07-29T04:52:14.716Z</time>
      </trkpt>
      <trkpt lat="45.78492" lon="6.7126">
        <ele>1355</ele>
        <time>2026-07-29T04:52:15.716Z</time>
      </trkpt>
      <trkpt lat="45.78491" lon="6.7126">
        <ele>1355</ele>
        <time>2026-07-29T04:52:16.716Z</time>
      </trkpt>
      <trkpt lat="45.7849" lon="6.71261">
        <ele>1355</ele>
        <time>2026-07-29T04:52:17.716Z</time>
      </trkpt>
      <trkpt lat="45.78488" lon="6.71261">
        <ele>1355</ele>
        <time>2026-07-29T04:52:18.716Z</time>
      </trkpt>
      <trkpt lat="45.78487" lon="6.71262">
        <ele>1355</ele>
        <time>2026-07-29T04:52:19.716Z</time>
      </trkpt>
      <trkpt lat="45.78486" lon="6.71262">
        <ele>1355</ele>
        <time>2026-07-29T04:52:20.716Z</time>
      </trkpt>
      <trkpt lat="45.78485" lon="6.71262">
        <ele>1355</ele>
        <time>2026-07-29T04:52:21.716Z</time>
      </trkpt>
      <trkpt lat="45.78484" lon="6.71262">
        <ele>1355</ele>
        <time>2026-07-29T04:52:22.716Z</time>
      </trkpt>
      <trkpt lat="45.78484" lon="6.71263">
        <ele>1355</ele>
        <time>2026-07-29T04:52:23.716Z</time>
      </trkpt>
      <trkpt lat="45.78483" lon="6.71264">
        <ele>1356</ele>
        <time>2026-07-29T04:52:24.716Z</time>
      </trkpt>
      <trkpt lat="45.78482" lon="6.71265">
        <ele>1356</ele>
        <time>2026-07-29T04:52:25.716Z</time>
      </trkpt>
      <trkpt lat="45.78481" lon="6.71265">
        <ele>1357</ele>
        <time>2026-07-29T04:52:26.716Z</time>
      </trkpt>
      <trkpt lat="45.7848" lon="6.71266">
        <ele>1358</ele>
        <time>2026-07-29T04:52:27.716Z</time>
      </trkpt>
      <trkpt lat="45.78479" lon="6.71267">
        <ele>1358</ele>
        <time>2026-07-29T04:52:28.716Z</time>
      </trkpt>
      <trkpt lat="45.78479" lon="6.71267">
        <ele>1358</ele>
        <time>2026-07-29T04:52:29.716Z</time>
      </trkpt>
      <trkpt lat="45.78478" lon="6.71268">
        <ele>1358</ele>
        <time>2026-07-29T04:52:30.716Z</time>
      </trkpt>
      <trkpt lat="45.78477" lon="6.71268">
        <ele>1358</ele>
        <time>2026-07-29T04:52:31.716Z</time>
      </trkpt>
      <trkpt lat="45.78476" lon="6.71268">
        <ele>1358</ele>
        <time>2026-07-29T04:52:32.716Z</time>
      </trkpt>
      <trkpt lat="45.78475" lon="6.71269">
        <ele>1359</ele>
        <time>2026-07-29T04:52:33.716Z</time>
      </trkpt>
      <trkpt lat="45.78475" lon="6.71269">
        <ele>1359</ele>
        <time>2026-07-29T04:52:34.716Z</time>
      </trkpt>
      <trkpt lat="45.78474" lon="6.7127">
        <ele>1359</ele>
        <time>2026-07-29T04:52:35.716Z</time>
      </trkpt>
      <trkpt lat="45.78473" lon="6.7127">
        <ele>1359</ele>
        <time>2026-07-29T04:52:36.716Z</time>
      </trkpt>
      <trkpt lat="45.78472" lon="6.71271">
        <ele>1359</ele>
        <time>2026-07-29T04:52:37.716Z</time>
      </trkpt>
      <trkpt lat="45.78471" lon="6.71271">
        <ele>1359</ele>
        <time>2026-07-29T04:52:38.716Z</time>
      </trkpt>
      <trkpt lat="45.7847" lon="6.71273">
        <ele>1359</ele>
        <time>2026-07-29T04:52:39.716Z</time>
      </trkpt>
      <trkpt lat="45.78469" lon="6.71274">
        <ele>1360</ele>
        <time>2026-07-29T04:52:40.716Z</time>
      </trkpt>
      <trkpt lat="45.78468" lon="6.71274">
        <ele>1360</ele>
        <time>2026-07-29T04:52:41.716Z</time>
      </trkpt>
      <trkpt lat="45.78467" lon="6.71275">
        <ele>1360</ele>
        <time>2026-07-29T04:52:42.716Z</time>
      </trkpt>
      <trkpt lat="45.78466" lon="6.71275">
        <ele>1361</ele>
        <time>2026-07-29T04:52:43.716Z</time>
      </trkpt>
      <trkpt lat="45.78466" lon="6.71276">
        <ele>1361</ele>
        <time>2026-07-29T04:52:44.716Z</time>
      </trkpt>
      <trkpt lat="45.78465" lon="6.71277">
        <ele>1362</ele>
        <time>2026-07-29T04:52:45.716Z</time>
      </trkpt>
      <trkpt lat="45.78465" lon="6.71278">
        <ele>1362</ele>
        <time>2026-07-29T04:52:46.716Z</time>
      </trkpt>
      <trkpt lat="45.78464" lon="6.71279">
        <ele>1362</ele>
        <time>2026-07-29T04:52:47.716Z</time>
      </trkpt>
      <trkpt lat="45.78463" lon="6.71279">
        <ele>1362</ele>
        <time>2026-07-29T04:52:48.716Z</time>
      </trkpt>
      <trkpt lat="45.78462" lon="6.71279">
        <ele>1363</ele>
        <time>2026-07-29T04:52:49.716Z</time>
      </trkpt>
      <trkpt lat="45.78461" lon="6.7128">
        <ele>1363</ele>
        <time>2026-07-29T04:52:50.716Z</time>
      </trkpt>
      <trkpt lat="45.7846" lon="6.7128">
        <ele>1363</ele>
        <time>2026-07-29T04:52:51.716Z</time>
      </trkpt>
      <trkpt lat="45.78459" lon="6.71279">
        <ele>1363</ele>
        <time>2026-07-29T04:52:52.716Z</time>
      </trkpt>
      <trkpt lat="45.78458" lon="6.7128">
        <ele>1363</ele>
        <time>2026-07-29T04:52:53.716Z</time>
      </trkpt>
      <trkpt lat="45.78458" lon="6.7128">
        <ele>1363</ele>
        <time>2026-07-29T04:52:54.716Z</time>
      </trkpt>
      <trkpt lat="45.78457" lon="6.7128">
        <ele>1363</ele>
        <time>2026-07-29T04:52:55.716Z</time>
      </trkpt>
      <trkpt lat="45.78456" lon="6.7128">
        <ele>1364</ele>
        <time>2026-07-29T04:52:56.716Z</time>
      </trkpt>
      <trkpt lat="45.78455" lon="6.71281">
        <ele>1364</ele>
        <time>2026-07-29T04:52:57.716Z</time>
      </trkpt>
      <trkpt lat="45.78454" lon="6.71281">
        <ele>1365</ele>
        <time>2026-07-29T04:52:58.716Z</time>
      </trkpt>
      <trkpt lat="45.78453" lon="6.71281">
        <ele>1365</ele>
        <time>2026-07-29T04:52:59.716Z</time>
      </trkpt>
      <trkpt lat="45.78452" lon="6.71281">
        <ele>1366</ele>
        <time>2026-07-29T04:53:00.716Z</time>
      </trkpt>
      <trkpt lat="45.78451" lon="6.71281">
        <ele>1366</ele>
        <time>2026-07-29T04:53:01.716Z</time>
      </trkpt>
      <trkpt lat="45.7845" lon="6.71281">
        <ele>1367</ele>
        <time>2026-07-29T04:53:02.716Z</time>
      </trkpt>
      <trkpt lat="45.78449" lon="6.71281">
        <ele>1367</ele>
        <time>2026-07-29T04:53:03.716Z</time>
      </trkpt>
      <trkpt lat="45.78448" lon="6.71282">
        <ele>1367</ele>
        <time>2026-07-29T04:53:04.716Z</time>
      </trkpt>
      <trkpt lat="45.78447" lon="6.71283">
        <ele>1368</ele>
        <time>2026-07-29T04:53:05.716Z</time>
      </trkpt>
      <trkpt lat="45.78447" lon="6.71285">
        <ele>1368</ele>
        <time>2026-07-29T04:53:06.716Z</time>
      </trkpt>
      <trkpt lat="45.78447" lon="6.71286">
        <ele>1368</ele>
        <time>2026-07-29T04:53:07.716Z</time>
      </trkpt>
      <trkpt lat="45.78446" lon="6.71288">
        <ele>1369</ele>
        <time>2026-07-29T04:53:08.716Z</time>
      </trkpt>
      <trkpt lat="45.78445" lon="6.71289">
        <ele>1370</ele>
        <time>2026-07-29T04:53:09.716Z</time>
      </trkpt>
      <trkpt lat="45.78444" lon="6.7129">
        <ele>1371</ele>
        <time>2026-07-29T04:53:10.716Z</time>
      </trkpt>
      <trkpt lat="45.78444" lon="6.71292">
        <ele>1371</ele>
        <time>2026-07-29T04:53:11.716Z</time>
      </trkpt>
      <trkpt lat="45.78443" lon="6.71293">
        <ele>1372</ele>
        <time>2026-07-29T04:53:12.716Z</time>
      </trkpt>
      <trkpt lat="45.78443" lon="6.71294">
        <ele>1372</ele>
        <time>2026-07-29T04:53:13.716Z</time>
      </trkpt>
      <trkpt lat="45.78443" lon="6.71296">
        <ele>1373</ele>
        <time>2026-07-29T04:53:14.716Z</time>
      </trkpt>
      <trkpt lat="45.78443" lon="6.71297">
        <ele>1373</ele>
        <time>2026-07-29T04:53:15.716Z</time>
      </trkpt>
      <trkpt lat="45.78442" lon="6.71299">
        <ele>1374</ele>
        <time>2026-07-29T04:53:16.716Z</time>
      </trkpt>
      <trkpt lat="45.78441" lon="6.71299">
        <ele>1374</ele>
        <time>2026-07-29T04:53:17.716Z</time>
      </trkpt>
      <trkpt lat="45.7844" lon="6.713">
        <ele>1374</ele>
        <time>2026-07-29T04:53:18.716Z</time>
      </trkpt>
      <trkpt lat="45.78438" lon="6.71301">
        <ele>1373</ele>
        <time>2026-07-29T04:53:19.716Z</time>
      </trkpt>
      <trkpt lat="45.78437" lon="6.71301">
        <ele>1373</ele>
        <time>2026-07-29T04:53:20.716Z</time>
      </trkpt>
      <trkpt lat="45.78436" lon="6.71302">
        <ele>1373</ele>
        <time>2026-07-29T04:53:21.716Z</time>
      </trkpt>
      <trkpt lat="45.78435" lon="6.71302">
        <ele>1373</ele>
        <time>2026-07-29T04:53:22.716Z</time>
      </trkpt>
      <trkpt lat="45.78434" lon="6.71303">
        <ele>1373</ele>
        <time>2026-07-29T04:53:23.716Z</time>
      </trkpt>
      <trkpt lat="45.78433" lon="6.71304">
        <ele>1373</ele>
        <time>2026-07-29T04:53:24.716Z</time>
      </trkpt>
      <trkpt lat="45.78432" lon="6.71305">
        <ele>1373</ele>
        <time>2026-07-29T04:53:25.716Z</time>
      </trkpt>
      <trkpt lat="45.7843" lon="6.71307">
        <ele>1372</ele>
        <time>2026-07-29T04:53:26.716Z</time>
      </trkpt>
      <trkpt lat="45.78429" lon="6.71308">
        <ele>1372</ele>
        <time>2026-07-29T04:53:27.716Z</time>
      </trkpt>
      <trkpt lat="45.78428" lon="6.7131">
        <ele>1373</ele>
        <time>2026-07-29T04:53:28.716Z</time>
      </trkpt>
      <trkpt lat="45.78427" lon="6.71311">
        <ele>1373</ele>
        <time>2026-07-29T04:53:29.716Z</time>
      </trkpt>
      <trkpt lat="45.78426" lon="6.71312">
        <ele>1373</ele>
        <time>2026-07-29T04:53:30.716Z</time>
      </trkpt>
      <trkpt lat="45.78424" lon="6.71314">
        <ele>1373</ele>
        <time>2026-07-29T04:53:31.716Z</time>
      </trkpt>
      <trkpt lat="45.78423" lon="6.71315">
        <ele>1373</ele>
        <time>2026-07-29T04:53:32.716Z</time>
      </trkpt>
      <trkpt lat="45.78422" lon="6.71315">
        <ele>1373</ele>
        <time>2026-07-29T04:53:33.716Z</time>
      </trkpt>
      <trkpt lat="45.7842" lon="6.71316">
        <ele>1373</ele>
        <time>2026-07-29T04:53:34.716Z</time>
      </trkpt>
      <trkpt lat="45.78419" lon="6.71316">
        <ele>1372</ele>
        <time>2026-07-29T04:53:35.716Z</time>
      </trkpt>
      <trkpt lat="45.78417" lon="6.71316">
        <ele>1372</ele>
        <time>2026-07-29T04:53:36.716Z</time>
      </trkpt>
      <trkpt lat="45.78414" lon="6.71316">
        <ele>1372</ele>
        <time>2026-07-29T04:53:37.716Z</time>
      </trkpt>
      <trkpt lat="45.78413" lon="6.71316">
        <ele>1372</ele>
        <time>2026-07-29T04:53:38.716Z</time>
      </trkpt>
      <trkpt lat="45.78411" lon="6.71316">
        <ele>1372</ele>
        <time>2026-07-29T04:53:39.716Z</time>
      </trkpt>
      <trkpt lat="45.78409" lon="6.71315">
        <ele>1372</ele>
        <time>2026-07-29T04:53:40.716Z</time>
      </trkpt>
      <trkpt lat="45.78407" lon="6.71315">
        <ele>1372</ele>
        <time>2026-07-29T04:53:41.716Z</time>
      </trkpt>
      <trkpt lat="45.78406" lon="6.71315">
        <ele>1372</ele>
        <time>2026-07-29T04:53:42.716Z</time>
      </trkpt>
      <trkpt lat="45.78404" lon="6.71316">
        <ele>1372</ele>
        <time>2026-07-29T04:53:43.716Z</time>
      </trkpt>
      <trkpt lat="45.78403" lon="6.71317">
        <ele>1372</ele>
        <time>2026-07-29T04:53:44.716Z</time>
      </trkpt>
      <trkpt lat="45.78402" lon="6.71318">
        <ele>1372</ele>
        <time>2026-07-29T04:53:45.716Z</time>
      </trkpt>
      <trkpt lat="45.78401" lon="6.71319">
        <ele>1372</ele>
        <time>2026-07-29T04:53:46.716Z</time>
      </trkpt>
      <trkpt lat="45.78399" lon="6.7132">
        <ele>1372</ele>
        <time>2026-07-29T04:53:47.716Z</time>
      </trkpt>
      <trkpt lat="45.78397" lon="6.7132">
        <ele>1372</ele>
        <time>2026-07-29T04:53:48.716Z</time>
      </trkpt>
      <trkpt lat="45.78396" lon="6.71321">
        <ele>1373</ele>
        <time>2026-07-29T04:53:49.716Z</time>
      </trkpt>
      <trkpt lat="45.78394" lon="6.71322">
        <ele>1373</ele>
        <time>2026-07-29T04:53:50.716Z</time>
      </trkpt>
      <trkpt lat="45.78392" lon="6.71323">
        <ele>1374</ele>
        <time>2026-07-29T04:53:51.716Z</time>
      </trkpt>
      <trkpt lat="45.78391" lon="6.71324">
        <ele>1374</ele>
        <time>2026-07-29T04:53:52.716Z</time>
      </trkpt>
      <trkpt lat="45.78389" lon="6.71325">
        <ele>1374</ele>
        <time>2026-07-29T04:53:53.716Z</time>
      </trkpt>
      <trkpt lat="45.78388" lon="6.71326">
        <ele>1374</ele>
        <time>2026-07-29T04:53:54.716Z</time>
      </trkpt>
      <trkpt lat="45.78386" lon="6.71327">
        <ele>1374</ele>
        <time>2026-07-29T04:53:55.716Z</time>
      </trkpt>
      <trkpt lat="45.78385" lon="6.71328">
        <ele>1374</ele>
        <time>2026-07-29T04:53:56.716Z</time>
      </trkpt>
      <trkpt lat="45.78383" lon="6.71329">
        <ele>1374</ele>
        <time>2026-07-29T04:53:57.716Z</time>
      </trkpt>
      <trkpt lat="45.78382" lon="6.71331">
        <ele>1375</ele>
        <time>2026-07-29T04:53:58.716Z</time>
      </trkpt>
      <trkpt lat="45.78381" lon="6.71333">
        <ele>1375</ele>
        <time>2026-07-29T04:53:59.716Z</time>
      </trkpt>
      <trkpt lat="45.78379" lon="6.71335">
        <ele>1376</ele>
        <time>2026-07-29T04:54:00.716Z</time>
      </trkpt>
      <trkpt lat="45.78378" lon="6.71336">
        <ele>1376</ele>
        <time>2026-07-29T04:54:01.716Z</time>
      </trkpt>
      <trkpt lat="45.78376" lon="6.71338">
        <ele>1377</ele>
        <time>2026-07-29T04:54:02.716Z</time>
      </trkpt>
      <trkpt lat="45.78375" lon="6.7134">
        <ele>1378</ele>
        <time>2026-07-29T04:54:03.716Z</time>
      </trkpt>
      <trkpt lat="45.78374" lon="6.71341">
        <ele>1379</ele>
        <time>2026-07-29T04:54:04.716Z</time>
      </trkpt>
      <trkpt lat="45.78374" lon="6.71344">
        <ele>1380</ele>
        <time>2026-07-29T04:54:05.716Z</time>
      </trkpt>
      <trkpt lat="45.78373" lon="6.71346">
        <ele>1381</ele>
        <time>2026-07-29T04:54:06.716Z</time>
      </trkpt>
      <trkpt lat="45.78372" lon="6.71348">
        <ele>1382</ele>
        <time>2026-07-29T04:54:07.716Z</time>
      </trkpt>
      <trkpt lat="45.78371" lon="6.7135">
        <ele>1383</ele>
        <time>2026-07-29T04:54:08.716Z</time>
      </trkpt>
      <trkpt lat="45.7837" lon="6.71351">
        <ele>1384</ele>
        <time>2026-07-29T04:54:09.716Z</time>
      </trkpt>
      <trkpt lat="45.78369" lon="6.71353">
        <ele>1385</ele>
        <time>2026-07-29T04:54:10.716Z</time>
      </trkpt>
      <trkpt lat="45.78368" lon="6.71354">
        <ele>1386</ele>
        <time>2026-07-29T04:54:11.716Z</time>
      </trkpt>
      <trkpt lat="45.78367" lon="6.71355">
        <ele>1386</ele>
        <time>2026-07-29T04:54:12.716Z</time>
      </trkpt>
      <trkpt lat="45.78366" lon="6.71357">
        <ele>1387</ele>
        <time>2026-07-29T04:54:13.716Z</time>
      </trkpt>
      <trkpt lat="45.78365" lon="6.71359">
        <ele>1387</ele>
        <time>2026-07-29T04:54:14.716Z</time>
      </trkpt>
      <trkpt lat="45.78364" lon="6.7136">
        <ele>1388</ele>
        <time>2026-07-29T04:54:15.716Z</time>
      </trkpt>
      <trkpt lat="45.78363" lon="6.71362">
        <ele>1388</ele>
        <time>2026-07-29T04:54:16.716Z</time>
      </trkpt>
      <trkpt lat="45.78362" lon="6.71364">
        <ele>1388</ele>
        <time>2026-07-29T04:54:17.716Z</time>
      </trkpt>
      <trkpt lat="45.78361" lon="6.71365">
        <ele>1388</ele>
        <time>2026-07-29T04:54:18.716Z</time>
      </trkpt>
      <trkpt lat="45.7836" lon="6.71367">
        <ele>1388</ele>
        <time>2026-07-29T04:54:19.716Z</time>
      </trkpt>
      <trkpt lat="45.78358" lon="6.71368">
        <ele>1387</ele>
        <time>2026-07-29T04:54:20.716Z</time>
      </trkpt>
      <trkpt lat="45.78357" lon="6.7137">
        <ele>1387</ele>
        <time>2026-07-29T04:54:21.716Z</time>
      </trkpt>
      <trkpt lat="45.78356" lon="6.7137">
        <ele>1387</ele>
        <time>2026-07-29T04:54:22.716Z</time>
      </trkpt>
      <trkpt lat="45.78355" lon="6.71369">
        <ele>1387</ele>
        <time>2026-07-29T04:54:23.716Z</time>
      </trkpt>
      <trkpt lat="45.78354" lon="6.71367">
        <ele>1387</ele>
        <time>2026-07-29T04:54:24.716Z</time>
      </trkpt>
      <trkpt lat="45.78353" lon="6.71365">
        <ele>1386</ele>
        <time>2026-07-29T04:54:25.716Z</time>
      </trkpt>
      <trkpt lat="45.78352" lon="6.71363">
        <ele>1386</ele>
        <time>2026-07-29T04:54:26.716Z</time>
      </trkpt>
      <trkpt lat="45.78351" lon="6.71361">
        <ele>1385</ele>
        <time>2026-07-29T04:54:27.716Z</time>
      </trkpt>
      <trkpt lat="45.7835" lon="6.71359">
        <ele>1385</ele>
        <time>2026-07-29T04:54:28.716Z</time>
      </trkpt>
      <trkpt lat="45.78348" lon="6.71357">
        <ele>1384</ele>
        <time>2026-07-29T04:54:29.716Z</time>
      </trkpt>
      <trkpt lat="45.78348" lon="6.71356">
        <ele>1384</ele>
        <time>2026-07-29T04:54:30.716Z</time>
      </trkpt>
      <trkpt lat="45.78348" lon="6.71355">
        <ele>1384</ele>
        <time>2026-07-29T04:54:31.716Z</time>
      </trkpt>
      <trkpt lat="45.78348" lon="6.71354">
        <ele>1384</ele>
        <time>2026-07-29T04:54:32.716Z</time>
      </trkpt>
      <trkpt lat="45.78349" lon="6.71354">
        <ele>1384</ele>
        <time>2026-07-29T04:54:33.716Z</time>
      </trkpt>
      <trkpt lat="45.7835" lon="6.71355">
        <ele>1383</ele>
        <time>2026-07-29T04:54:34.716Z</time>
      </trkpt>
      <trkpt lat="45.78351" lon="6.71356">
        <ele>1383</ele>
        <time>2026-07-29T04:54:35.716Z</time>
      </trkpt>
      <trkpt lat="45.78352" lon="6.71358">
        <ele>1382</ele>
        <time>2026-07-29T04:54:36.716Z</time>
      </trkpt>
      <trkpt lat="45.78354" lon="6.7136">
        <ele>1382</ele>
        <time>2026-07-29T04:54:37.716Z</time>
      </trkpt>
      <trkpt lat="45.78356" lon="6.71361">
        <ele>1381</ele>
        <time>2026-07-29T04:54:38.716Z</time>
      </trkpt>
      <trkpt lat="45.78357" lon="6.71364">
        <ele>1381</ele>
        <time>2026-07-29T04:54:39.716Z</time>
      </trkpt>
      <trkpt lat="45.78356" lon="6.71366">
        <ele>1381</ele>
        <time>2026-07-29T04:54:40.716Z</time>
      </trkpt>
      <trkpt lat="45.78355" lon="6.71369">
        <ele>1381</ele>
        <time>2026-07-29T04:54:41.716Z</time>
      </trkpt>
      <trkpt lat="45.78355" lon="6.71371">
        <ele>1381</ele>
        <time>2026-07-29T04:54:42.716Z</time>
      </trkpt>
      <trkpt lat="45.78354" lon="6.71373">
        <ele>1380</ele>
        <time>2026-07-29T04:54:43.716Z</time>
      </trkpt>
      <trkpt lat="45.78353" lon="6.71375">
        <ele>1380</ele>
        <time>2026-07-29T04:54:44.716Z</time>
      </trkpt>
      <trkpt lat="45.78353" lon="6.71377">
        <ele>1379</ele>
        <time>2026-07-29T04:54:45.716Z</time>
      </trkpt>
      <trkpt lat="45.78351" lon="6.71379">
        <ele>1379</ele>
        <time>2026-07-29T04:54:46.716Z</time>
      </trkpt>
      <trkpt lat="45.7835" lon="6.71381">
        <ele>1379</ele>
        <time>2026-07-29T04:54:47.716Z</time>
      </trkpt>
      <trkpt lat="45.78349" lon="6.71383">
        <ele>1378</ele>
        <time>2026-07-29T04:54:48.716Z</time>
      </trkpt>
      <trkpt lat="45.78349" lon="6.71385">
        <ele>1379</ele>
        <time>2026-07-29T04:54:49.716Z</time>
      </trkpt>
      <trkpt lat="45.78348" lon="6.71387">
        <ele>1379</ele>
        <time>2026-07-29T04:54:50.716Z</time>
      </trkpt>
      <trkpt lat="45.78347" lon="6.71389">
        <ele>1379</ele>
        <time>2026-07-29T04:54:51.716Z</time>
      </trkpt>
      <trkpt lat="45.78346" lon="6.71391">
        <ele>1379</ele>
        <time>2026-07-29T04:54:52.716Z</time>
      </trkpt>
      <trkpt lat="45.78345" lon="6.71393">
        <ele>1379</ele>
        <time>2026-07-29T04:54:53.716Z</time>
      </trkpt>
      <trkpt lat="45.78345" lon="6.71395">
        <ele>1379</ele>
        <time>2026-07-29T04:54:54.716Z</time>
      </trkpt>
      <trkpt lat="45.78344" lon="6.71397">
        <ele>1379</ele>
        <time>2026-07-29T04:54:55.716Z</time>
      </trkpt>
      <trkpt lat="45.78343" lon="6.71399">
        <ele>1379</ele>
        <time>2026-07-29T04:54:56.716Z</time>
      </trkpt>
      <trkpt lat="45.78342" lon="6.71401">
        <ele>1379</ele>
        <time>2026-07-29T04:54:57.716Z</time>
      </trkpt>
      <trkpt lat="45.78341" lon="6.71403">
        <ele>1379</ele>
        <time>2026-07-29T04:54:58.716Z</time>
      </trkpt>
      <trkpt lat="45.7834" lon="6.71405">
        <ele>1380</ele>
        <time>2026-07-29T04:54:59.716Z</time>
      </trkpt>
      <trkpt lat="45.78339" lon="6.71406">
        <ele>1380</ele>
        <time>2026-07-29T04:55:00.716Z</time>
      </trkpt>
      <trkpt lat="45.78337" lon="6.71407">
        <ele>1380</ele>
        <time>2026-07-29T04:55:01.716Z</time>
      </trkpt>
      <trkpt lat="45.78336" lon="6.71408">
        <ele>1380</ele>
        <time>2026-07-29T04:55:02.716Z</time>
      </trkpt>
      <trkpt lat="45.78334" lon="6.71409">
        <ele>1380</ele>
        <time>2026-07-29T04:55:03.716Z</time>
      </trkpt>
      <trkpt lat="45.78333" lon="6.7141">
        <ele>1380</ele>
        <time>2026-07-29T04:55:04.716Z</time>
      </trkpt>
      <trkpt lat="45.78331" lon="6.71411">
        <ele>1381</ele>
        <time>2026-07-29T04:55:05.716Z</time>
      </trkpt>
      <trkpt lat="45.7833" lon="6.71413">
        <ele>1381</ele>
        <time>2026-07-29T04:55:06.716Z</time>
      </trkpt>
      <trkpt lat="45.7833" lon="6.71415">
        <ele>1381</ele>
        <time>2026-07-29T04:55:07.716Z</time>
      </trkpt>
      <trkpt lat="45.78329" lon="6.71416">
        <ele>1382</ele>
        <time>2026-07-29T04:55:08.716Z</time>
      </trkpt>
      <trkpt lat="45.78328" lon="6.71419">
        <ele>1382</ele>
        <time>2026-07-29T04:55:09.716Z</time>
      </trkpt>
      <trkpt lat="45.78327" lon="6.7142">
        <ele>1382</ele>
        <time>2026-07-29T04:55:10.716Z</time>
      </trkpt>
      <trkpt lat="45.78326" lon="6.71422">
        <ele>1381</ele>
        <time>2026-07-29T04:55:11.716Z</time>
      </trkpt>
      <trkpt lat="45.78325" lon="6.71425">
        <ele>1381</ele>
        <time>2026-07-29T04:55:12.716Z</time>
      </trkpt>
      <trkpt lat="45.78324" lon="6.71426">
        <ele>1381</ele>
        <time>2026-07-29T04:55:13.716Z</time>
      </trkpt>
      <trkpt lat="45.78324" lon="6.71428">
        <ele>1380</ele>
        <time>2026-07-29T04:55:14.716Z</time>
      </trkpt>
      <trkpt lat="45.78324" lon="6.7143">
        <ele>1380</ele>
        <time>2026-07-29T04:55:15.716Z</time>
      </trkpt>
      <trkpt lat="45.78323" lon="6.71431">
        <ele>1380</ele>
        <time>2026-07-29T04:55:16.716Z</time>
      </trkpt>
      <trkpt lat="45.78323" lon="6.71432">
        <ele>1380</ele>
        <time>2026-07-29T04:55:17.716Z</time>
      </trkpt>
      <trkpt lat="45.78323" lon="6.71433">
        <ele>1380</ele>
        <time>2026-07-29T04:55:18.716Z</time>
      </trkpt>
      <trkpt lat="45.78323" lon="6.71433">
        <ele>1380</ele>
        <time>2026-07-29T04:55:19.716Z</time>
      </trkpt>
      <trkpt lat="45.78323" lon="6.71434">
        <ele>1380</ele>
        <time>2026-07-29T04:55:20.716Z</time>
      </trkpt>
      <trkpt lat="45.78323" lon="6.71434">
        <ele>1380</ele>
        <time>2026-07-29T04:55:21.716Z</time>
      </trkpt>
      <trkpt lat="45.78322" lon="6.71435">
        <ele>1380</ele>
        <time>2026-07-29T04:55:22.716Z</time>
      </trkpt>
      <trkpt lat="45.78321" lon="6.71436">
        <ele>1380</ele>
        <time>2026-07-29T04:55:23.716Z</time>
      </trkpt>
      <trkpt lat="45.78321" lon="6.71436">
        <ele>1380</ele>
        <time>2026-07-29T04:55:24.716Z</time>
      </trkpt>
      <trkpt lat="45.78321" lon="6.71438">
        <ele>1380</ele>
        <time>2026-07-29T04:55:25.716Z</time>
      </trkpt>
      <trkpt lat="45.78321" lon="6.71439">
        <ele>1380</ele>
        <time>2026-07-29T04:55:26.716Z</time>
      </trkpt>
      <trkpt lat="45.7832" lon="6.71441">
        <ele>1381</ele>
        <time>2026-07-29T04:55:27.716Z</time>
      </trkpt>
      <trkpt lat="45.7832" lon="6.71444">
        <ele>1381</ele>
        <time>2026-07-29T04:55:28.716Z</time>
      </trkpt>
      <trkpt lat="45.78318" lon="6.71446">
        <ele>1382</ele>
        <time>2026-07-29T04:55:29.716Z</time>
      </trkpt>
      <trkpt lat="45.78317" lon="6.71449">
        <ele>1382</ele>
        <time>2026-07-29T04:55:30.716Z</time>
      </trkpt>
      <trkpt lat="45.78316" lon="6.71451">
        <ele>1382</ele>
        <time>2026-07-29T04:55:31.716Z</time>
      </trkpt>
      <trkpt lat="45.78314" lon="6.71453">
        <ele>1382</ele>
        <time>2026-07-29T04:55:32.716Z</time>
      </trkpt>
      <trkpt lat="45.78313" lon="6.71456">
        <ele>1382</ele>
        <time>2026-07-29T04:55:33.716Z</time>
      </trkpt>
      <trkpt lat="45.78311" lon="6.71459">
        <ele>1382</ele>
        <time>2026-07-29T04:55:34.716Z</time>
      </trkpt>
      <trkpt lat="45.7831" lon="6.71461">
        <ele>1383</ele>
        <time>2026-07-29T04:55:35.716Z</time>
      </trkpt>
      <trkpt lat="45.78308" lon="6.71463">
        <ele>1383</ele>
        <time>2026-07-29T04:55:36.716Z</time>
      </trkpt>
      <trkpt lat="45.78307" lon="6.71465">
        <ele>1383</ele>
        <time>2026-07-29T04:55:37.716Z</time>
      </trkpt>
      <trkpt lat="45.78305" lon="6.71467">
        <ele>1383</ele>
        <time>2026-07-29T04:55:38.716Z</time>
      </trkpt>
      <trkpt lat="45.78303" lon="6.71469">
        <ele>1383</ele>
        <time>2026-07-29T04:55:39.716Z</time>
      </trkpt>
      <trkpt lat="45.78302" lon="6.71471">
        <ele>1383</ele>
        <time>2026-07-29T04:55:40.716Z</time>
      </trkpt>
      <trkpt lat="45.783" lon="6.71473">
        <ele>1383</ele>
        <time>2026-07-29T04:55:41.716Z</time>
      </trkpt>
      <trkpt lat="45.78299" lon="6.71474">
        <ele>1382</ele>
        <time>2026-07-29T04:55:42.716Z</time>
      </trkpt>
      <trkpt lat="45.78297" lon="6.71476">
        <ele>1382</ele>
        <time>2026-07-29T04:55:43.716Z</time>
      </trkpt>
      <trkpt lat="45.78296" lon="6.71477">
        <ele>1382</ele>
        <time>2026-07-29T04:55:44.716Z</time>
      </trkpt>
      <trkpt lat="45.78295" lon="6.71479">
        <ele>1382</ele>
        <time>2026-07-29T04:55:45.716Z</time>
      </trkpt>
      <trkpt lat="45.78293" lon="6.71481">
        <ele>1382</ele>
        <time>2026-07-29T04:55:46.716Z</time>
      </trkpt>
      <trkpt lat="45.78291" lon="6.71482">
        <ele>1382</ele>
        <time>2026-07-29T04:55:47.716Z</time>
      </trkpt>
      <trkpt lat="45.78289" lon="6.71484">
        <ele>1382</ele>
        <time>2026-07-29T04:55:48.716Z</time>
      </trkpt>
      <trkpt lat="45.78288" lon="6.71485">
        <ele>1382</ele>
        <time>2026-07-29T04:55:49.716Z</time>
      </trkpt>
      <trkpt lat="45.78287" lon="6.71487">
        <ele>1382</ele>
        <time>2026-07-29T04:55:50.716Z</time>
      </trkpt>
      <trkpt lat="45.78287" lon="6.71489">
        <ele>1383</ele>
        <time>2026-07-29T04:55:51.716Z</time>
      </trkpt>
      <trkpt lat="45.78286" lon="6.71491">
        <ele>1383</ele>
        <time>2026-07-29T04:55:52.716Z</time>
      </trkpt>
      <trkpt lat="45.78286" lon="6.71494">
        <ele>1384</ele>
        <time>2026-07-29T04:55:53.716Z</time>
      </trkpt>
      <trkpt lat="45.78285" lon="6.71496">
        <ele>1384</ele>
        <time>2026-07-29T04:55:54.716Z</time>
      </trkpt>
      <trkpt lat="45.78284" lon="6.71498">
        <ele>1384</ele>
        <time>2026-07-29T04:55:55.716Z</time>
      </trkpt>
      <trkpt lat="45.78283" lon="6.715">
        <ele>1384</ele>
        <time>2026-07-29T04:55:56.716Z</time>
      </trkpt>
      <trkpt lat="45.78282" lon="6.71502">
        <ele>1385</ele>
        <time>2026-07-29T04:55:57.716Z</time>
      </trkpt>
      <trkpt lat="45.78281" lon="6.71503">
        <ele>1385</ele>
        <time>2026-07-29T04:55:58.716Z</time>
      </trkpt>
      <trkpt lat="45.78282" lon="6.71505">
        <ele>1385</ele>
        <time>2026-07-29T04:55:59.716Z</time>
      </trkpt>
      <trkpt lat="45.78281" lon="6.71507">
        <ele>1385</ele>
        <time>2026-07-29T04:56:00.716Z</time>
      </trkpt>
      <trkpt lat="45.78281" lon="6.71508">
        <ele>1385</ele>
        <time>2026-07-29T04:56:01.716Z</time>
      </trkpt>
      <trkpt lat="45.7828" lon="6.71509">
        <ele>1386</ele>
        <time>2026-07-29T04:56:02.716Z</time>
      </trkpt>
      <trkpt lat="45.7828" lon="6.7151">
        <ele>1386</ele>
        <time>2026-07-29T04:56:03.716Z</time>
      </trkpt>
      <trkpt lat="45.78279" lon="6.71511">
        <ele>1387</ele>
        <time>2026-07-29T04:56:04.716Z</time>
      </trkpt>
      <trkpt lat="45.78278" lon="6.71513">
        <ele>1387</ele>
        <time>2026-07-29T04:56:05.716Z</time>
      </trkpt>
      <trkpt lat="45.78276" lon="6.71514">
        <ele>1388</ele>
        <time>2026-07-29T04:56:06.716Z</time>
      </trkpt>
      <trkpt lat="45.78275" lon="6.71514">
        <ele>1388</ele>
        <time>2026-07-29T04:56:07.716Z</time>
      </trkpt>
      <trkpt lat="45.78273" lon="6.71514">
        <ele>1388</ele>
        <time>2026-07-29T04:56:08.716Z</time>
      </trkpt>
      <trkpt lat="45.7827" lon="6.71514">
        <ele>1388</ele>
        <time>2026-07-29T04:56:09.716Z</time>
      </trkpt>
      <trkpt lat="45.78268" lon="6.71514">
        <ele>1388</ele>
        <time>2026-07-29T04:56:10.716Z</time>
      </trkpt>
      <trkpt lat="45.78266" lon="6.71514">
        <ele>1388</ele>
        <time>2026-07-29T04:56:11.716Z</time>
      </trkpt>
      <trkpt lat="45.78264" lon="6.71514">
        <ele>1389</ele>
        <time>2026-07-29T04:56:12.716Z</time>
      </trkpt>
      <trkpt lat="45.78262" lon="6.71514">
        <ele>1390</ele>
        <time>2026-07-29T04:56:13.716Z</time>
      </trkpt>
      <trkpt lat="45.7826" lon="6.71513">
        <ele>1390</ele>
        <time>2026-07-29T04:56:14.716Z</time>
      </trkpt>
      <trkpt lat="45.78258" lon="6.71512">
        <ele>1391</ele>
        <time>2026-07-29T04:56:15.716Z</time>
      </trkpt>
      <trkpt lat="45.78256" lon="6.71512">
        <ele>1391</ele>
        <time>2026-07-29T04:56:16.716Z</time>
      </trkpt>
      <trkpt lat="45.78254" lon="6.71513">
        <ele>1392</ele>
        <time>2026-07-29T04:56:17.716Z</time>
      </trkpt>
      <trkpt lat="45.78252" lon="6.71513">
        <ele>1392</ele>
        <time>2026-07-29T04:56:18.716Z</time>
      </trkpt>
      <trkpt lat="45.7825" lon="6.71514">
        <ele>1392</ele>
        <time>2026-07-29T04:56:19.716Z</time>
      </trkpt>
      <trkpt lat="45.78248" lon="6.71514">
        <ele>1393</ele>
        <time>2026-07-29T04:56:20.716Z</time>
      </trkpt>
      <trkpt lat="45.78246" lon="6.71515">
        <ele>1394</ele>
        <time>2026-07-29T04:56:21.716Z</time>
      </trkpt>
      <trkpt lat="45.78244" lon="6.71515">
        <ele>1394</ele>
        <time>2026-07-29T04:56:22.716Z</time>
      </trkpt>
      <trkpt lat="45.78243" lon="6.71516">
        <ele>1395</ele>
        <time>2026-07-29T04:56:23.716Z</time>
      </trkpt>
      <trkpt lat="45.78241" lon="6.71516">
        <ele>1395</ele>
        <time>2026-07-29T04:56:24.716Z</time>
      </trkpt>
      <trkpt lat="45.7824" lon="6.71516">
        <ele>1395</ele>
        <time>2026-07-29T04:56:25.716Z</time>
      </trkpt>
      <trkpt lat="45.78238" lon="6.71516">
        <ele>1395</ele>
        <time>2026-07-29T04:56:26.716Z</time>
      </trkpt>
      <trkpt lat="45.78236" lon="6.71515">
        <ele>1396</ele>
        <time>2026-07-29T04:56:27.716Z</time>
      </trkpt>
      <trkpt lat="45.78235" lon="6.71515">
        <ele>1396</ele>
        <time>2026-07-29T04:56:28.716Z</time>
      </trkpt>
      <trkpt lat="45.78233" lon="6.71515">
        <ele>1396</ele>
        <time>2026-07-29T04:56:29.716Z</time>
      </trkpt>
      <trkpt lat="45.78232" lon="6.71516">
        <ele>1397</ele>
        <time>2026-07-29T04:56:30.716Z</time>
      </trkpt>
      <trkpt lat="45.78231" lon="6.71516">
        <ele>1398</ele>
        <time>2026-07-29T04:56:31.716Z</time>
      </trkpt>
      <trkpt lat="45.7823" lon="6.71517">
        <ele>1398</ele>
        <time>2026-07-29T04:56:32.716Z</time>
      </trkpt>
      <trkpt lat="45.78229" lon="6.71518">
        <ele>1399</ele>
        <time>2026-07-29T04:56:33.716Z</time>
      </trkpt>
      <trkpt lat="45.78227" lon="6.71518">
        <ele>1399</ele>
        <time>2026-07-29T04:56:34.716Z</time>
      </trkpt>
      <trkpt lat="45.78225" lon="6.71519">
        <ele>1399</ele>
        <time>2026-07-29T04:56:35.716Z</time>
      </trkpt>
      <trkpt lat="45.78224" lon="6.71519">
        <ele>1399</ele>
        <time>2026-07-29T04:56:36.716Z</time>
      </trkpt>
      <trkpt lat="45.78223" lon="6.71519">
        <ele>1399</ele>
        <time>2026-07-29T04:56:37.716Z</time>
      </trkpt>
      <trkpt lat="45.78221" lon="6.7152">
        <ele>1399</ele>
        <time>2026-07-29T04:56:38.716Z</time>
      </trkpt>
      <trkpt lat="45.7822" lon="6.7152">
        <ele>1399</ele>
        <time>2026-07-29T04:56:39.716Z</time>
      </trkpt>
      <trkpt lat="45.78218" lon="6.71521">
        <ele>1398</ele>
        <time>2026-07-29T04:56:40.716Z</time>
      </trkpt>
      <trkpt lat="45.78216" lon="6.7152">
        <ele>1398</ele>
        <time>2026-07-29T04:56:41.716Z</time>
      </trkpt>
      <trkpt lat="45.78215" lon="6.7152">
        <ele>1398</ele>
        <time>2026-07-29T04:56:42.716Z</time>
      </trkpt>
      <trkpt lat="45.78213" lon="6.7152">
        <ele>1397</ele>
        <time>2026-07-29T04:56:43.716Z</time>
      </trkpt>
      <trkpt lat="45.78212" lon="6.7152">
        <ele>1397</ele>
        <time>2026-07-29T04:56:44.716Z</time>
      </trkpt>
      <trkpt lat="45.78211" lon="6.71521">
        <ele>1396</ele>
        <time>2026-07-29T04:56:45.716Z</time>
      </trkpt>
      <trkpt lat="45.7821" lon="6.71522">
        <ele>1396</ele>
        <time>2026-07-29T04:56:46.716Z</time>
      </trkpt>
      <trkpt lat="45.78209" lon="6.71523">
        <ele>1396</ele>
        <time>2026-07-29T04:56:47.716Z</time>
      </trkpt>
      <trkpt lat="45.78208" lon="6.71523">
        <ele>1396</ele>
        <time>2026-07-29T04:56:48.716Z</time>
      </trkpt>
      <trkpt lat="45.78207" lon="6.71524">
        <ele>1397</ele>
        <time>2026-07-29T04:56:49.716Z</time>
      </trkpt>
      <trkpt lat="45.78206" lon="6.71525">
        <ele>1397</ele>
        <time>2026-07-29T04:56:50.716Z</time>
      </trkpt>
      <trkpt lat="45.78205" lon="6.71525">
        <ele>1398</ele>
        <time>2026-07-29T04:56:51.716Z</time>
      </trkpt>
      <trkpt lat="45.78204" lon="6.71526">
        <ele>1398</ele>
        <time>2026-07-29T04:56:52.716Z</time>
      </trkpt>
      <trkpt lat="45.78203" lon="6.71526">
        <ele>1399</ele>
        <time>2026-07-29T04:56:53.716Z</time>
      </trkpt>
      <trkpt lat="45.78202" lon="6.71527">
        <ele>1399</ele>
        <time>2026-07-29T04:56:54.716Z</time>
      </trkpt>
      <trkpt lat="45.78201" lon="6.71527">
        <ele>1400</ele>
        <time>2026-07-29T04:56:55.716Z</time>
      </trkpt>
      <trkpt lat="45.782" lon="6.71527">
        <ele>1401</ele>
        <time>2026-07-29T04:56:56.716Z</time>
      </trkpt>
      <trkpt lat="45.78198" lon="6.71528">
        <ele>1402</ele>
        <time>2026-07-29T04:56:57.716Z</time>
      </trkpt>
      <trkpt lat="45.78197" lon="6.71529">
        <ele>1403</ele>
        <time>2026-07-29T04:56:58.716Z</time>
      </trkpt>
      <trkpt lat="45.78196" lon="6.71529">
        <ele>1403</ele>
        <time>2026-07-29T04:56:59.716Z</time>
      </trkpt>
      <trkpt lat="45.78195" lon="6.7153">
        <ele>1403</ele>
        <time>2026-07-29T04:57:00.716Z</time>
      </trkpt>
      <trkpt lat="45.78194" lon="6.7153">
        <ele>1404</ele>
        <time>2026-07-29T04:57:01.716Z</time>
      </trkpt>
      <trkpt lat="45.78193" lon="6.71531">
        <ele>1404</ele>
        <time>2026-07-29T04:57:02.716Z</time>
      </trkpt>
      <trkpt lat="45.78192" lon="6.71532">
        <ele>1404</ele>
        <time>2026-07-29T04:57:03.716Z</time>
      </trkpt>
      <trkpt lat="45.78191" lon="6.71533">
        <ele>1405</ele>
        <time>2026-07-29T04:57:04.716Z</time>
      </trkpt>
      <trkpt lat="45.78191" lon="6.71533">
        <ele>1405</ele>
        <time>2026-07-29T04:57:05.716Z</time>
      </trkpt>
      <trkpt lat="45.78189" lon="6.71533">
        <ele>1406</ele>
        <time>2026-07-29T04:57:06.716Z</time>
      </trkpt>
      <trkpt lat="45.78188" lon="6.71534">
        <ele>1406</ele>
        <time>2026-07-29T04:57:07.716Z</time>
      </trkpt>
      <trkpt lat="45.78188" lon="6.71535">
        <ele>1407</ele>
        <time>2026-07-29T04:57:08.716Z</time>
      </trkpt>
      <trkpt lat="45.78187" lon="6.71536">
        <ele>1407</ele>
        <time>2026-07-29T04:57:09.716Z</time>
      </trkpt>
      <trkpt lat="45.78186" lon="6.71537">
        <ele>1407</ele>
        <time>2026-07-29T04:57:10.716Z</time>
      </trkpt>
      <trkpt lat="45.78185" lon="6.71538">
        <ele>1407</ele>
        <time>2026-07-29T04:57:11.716Z</time>
      </trkpt>
      <trkpt lat="45.78185" lon="6.71539">
        <ele>1407</ele>
        <time>2026-07-29T04:57:12.716Z</time>
      </trkpt>
      <trkpt lat="45.78183" lon="6.71539">
        <ele>1407</ele>
        <time>2026-07-29T04:57:13.716Z</time>
      </trkpt>
      <trkpt lat="45.78182" lon="6.7154">
        <ele>1407</ele>
        <time>2026-07-29T04:57:14.716Z</time>
      </trkpt>
      <trkpt lat="45.78181" lon="6.71542">
        <ele>1408</ele>
        <time>2026-07-29T04:57:15.716Z</time>
      </trkpt>
      <trkpt lat="45.7818" lon="6.71543">
        <ele>1408</ele>
        <time>2026-07-29T04:57:16.716Z</time>
      </trkpt>
      <trkpt lat="45.7818" lon="6.71544">
        <ele>1408</ele>
        <time>2026-07-29T04:57:17.716Z</time>
      </trkpt>
      <trkpt lat="45.78179" lon="6.71545">
        <ele>1408</ele>
        <time>2026-07-29T04:57:18.716Z</time>
      </trkpt>
      <trkpt lat="45.78179" lon="6.71546">
        <ele>1408</ele>
        <time>2026-07-29T04:57:19.716Z</time>
      </trkpt>
      <trkpt lat="45.78179" lon="6.71548">
        <ele>1408</ele>
        <time>2026-07-29T04:57:20.716Z</time>
      </trkpt>
      <trkpt lat="45.78179" lon="6.7155">
        <ele>1408</ele>
        <time>2026-07-29T04:57:21.716Z</time>
      </trkpt>
      <trkpt lat="45.78179" lon="6.71552">
        <ele>1408</ele>
        <time>2026-07-29T04:57:22.716Z</time>
      </trkpt>
      <trkpt lat="45.78179" lon="6.71553">
        <ele>1408</ele>
        <time>2026-07-29T04:57:23.716Z</time>
      </trkpt>
      <trkpt lat="45.7818" lon="6.71554">
        <ele>1407</ele>
        <time>2026-07-29T04:57:24.716Z</time>
      </trkpt>
      <trkpt lat="45.7818" lon="6.71555">
        <ele>1407</ele>
        <time>2026-07-29T04:57:25.716Z</time>
      </trkpt>
      <trkpt lat="45.7818" lon="6.71555">
        <ele>1407</ele>
        <time>2026-07-29T04:57:26.716Z</time>
      </trkpt>
      <trkpt lat="45.7818" lon="6.71556">
        <ele>1408</ele>
        <time>2026-07-29T04:57:27.716Z</time>
      </trkpt>
      <trkpt lat="45.7818" lon="6.71556">
        <ele>1408</ele>
        <time>2026-07-29T04:57:28.716Z</time>
      </trkpt>
      <trkpt lat="45.7818" lon="6.71556">
        <ele>1408</ele>
        <time>2026-07-29T04:57:29.716Z</time>
      </trkpt>
      <trkpt lat="45.78179" lon="6.71555">
        <ele>1408</ele>
        <time>2026-07-29T04:57:30.716Z</time>
      </trkpt>
      <trkpt lat="45.78178" lon="6.71554">
        <ele>1408</ele>
        <time>2026-07-29T04:57:31.716Z</time>
      </trkpt>
      <trkpt lat="45.78177" lon="6.71553">
        <ele>1408</ele>
        <time>2026-07-29T04:57:32.716Z</time>
      </trkpt>
      <trkpt lat="45.78176" lon="6.71552">
        <ele>1408</ele>
        <time>2026-07-29T04:57:33.716Z</time>
      </trkpt>
      <trkpt lat="45.78174" lon="6.71552">
        <ele>1408</ele>
        <time>2026-07-29T04:57:34.716Z</time>
      </trkpt>
      <trkpt lat="45.78172" lon="6.71552">
        <ele>1408</ele>
        <time>2026-07-29T04:57:35.716Z</time>
      </trkpt>
      <trkpt lat="45.78171" lon="6.71553">
        <ele>1409</ele>
        <time>2026-07-29T04:57:36.716Z</time>
      </trkpt>
      <trkpt lat="45.78169" lon="6.71554">
        <ele>1409</ele>
        <time>2026-07-29T04:57:37.716Z</time>
      </trkpt>
      <trkpt lat="45.78168" lon="6.71554">
        <ele>1410</ele>
        <time>2026-07-29T04:57:38.716Z</time>
      </trkpt>
      <trkpt lat="45.78168" lon="6.71555">
        <ele>1410</ele>
        <time>2026-07-29T04:57:39.716Z</time>
      </trkpt>
      <trkpt lat="45.78168" lon="6.71555">
        <ele>1410</ele>
        <time>2026-07-29T04:57:40.716Z</time>
      </trkpt>
      <trkpt lat="45.78167" lon="6.71555">
        <ele>1410</ele>
        <time>2026-07-29T04:57:41.716Z</time>
      </trkpt>
      <trkpt lat="45.78167" lon="6.71555">
        <ele>1410</ele>
        <time>2026-07-29T04:57:42.716Z</time>
      </trkpt>
      <trkpt lat="45.78165" lon="6.71554">
        <ele>1410</ele>
        <time>2026-07-29T04:57:43.716Z</time>
      </trkpt>
      <trkpt lat="45.78164" lon="6.71555">
        <ele>1409</ele>
        <time>2026-07-29T04:57:44.716Z</time>
      </trkpt>
      <trkpt lat="45.78162" lon="6.71555">
        <ele>1409</ele>
        <time>2026-07-29T04:57:45.716Z</time>
      </trkpt>
      <trkpt lat="45.78161" lon="6.71556">
        <ele>1409</ele>
        <time>2026-07-29T04:57:46.716Z</time>
      </trkpt>
      <trkpt lat="45.78159" lon="6.71556">
        <ele>1409</ele>
        <time>2026-07-29T04:57:47.716Z</time>
      </trkpt>
      <trkpt lat="45.78157" lon="6.71556">
        <ele>1409</ele>
        <time>2026-07-29T04:57:48.716Z</time>
      </trkpt>
      <trkpt lat="45.78156" lon="6.71556">
        <ele>1409</ele>
        <time>2026-07-29T04:57:49.716Z</time>
      </trkpt>
      <trkpt lat="45.78154" lon="6.71555">
        <ele>1410</ele>
        <time>2026-07-29T04:57:50.716Z</time>
      </trkpt>
      <trkpt lat="45.78153" lon="6.71555">
        <ele>1410</ele>
        <time>2026-07-29T04:57:51.716Z</time>
      </trkpt>
      <trkpt lat="45.78151" lon="6.71555">
        <ele>1411</ele>
        <time>2026-07-29T04:57:52.716Z</time>
      </trkpt>
      <trkpt lat="45.78149" lon="6.71554">
        <ele>1411</ele>
        <time>2026-07-29T04:57:53.716Z</time>
      </trkpt>
      <trkpt lat="45.78147" lon="6.71554">
        <ele>1412</ele>
        <time>2026-07-29T04:57:54.716Z</time>
      </trkpt>
      <trkpt lat="45.78146" lon="6.71554">
        <ele>1413</ele>
        <time>2026-07-29T04:57:55.716Z</time>
      </trkpt>
      <trkpt lat="45.78144" lon="6.71554">
        <ele>1414</ele>
        <time>2026-07-29T04:57:56.716Z</time>
      </trkpt>
      <trkpt lat="45.78143" lon="6.71554">
        <ele>1415</ele>
        <time>2026-07-29T04:57:57.716Z</time>
      </trkpt>
      <trkpt lat="45.78142" lon="6.71555">
        <ele>1415</ele>
        <time>2026-07-29T04:57:58.716Z</time>
      </trkpt>
      <trkpt lat="45.78142" lon="6.71555">
        <ele>1416</ele>
        <time>2026-07-29T04:57:59.716Z</time>
      </trkpt>
      <trkpt lat="45.78142" lon="6.71555">
        <ele>1416</ele>
        <time>2026-07-29T04:58:00.716Z</time>
      </trkpt>
      <trkpt lat="45.78142" lon="6.71556">
        <ele>1417</ele>
        <time>2026-07-29T04:58:01.716Z</time>
      </trkpt>
      <trkpt lat="45.78141" lon="6.71553">
        <ele>1417</ele>
        <time>2026-07-29T04:58:02.716Z</time>
      </trkpt>
      <trkpt lat="45.7814" lon="6.71551">
        <ele>1418</ele>
        <time>2026-07-29T04:58:03.716Z</time>
      </trkpt>
      <trkpt lat="45.78139" lon="6.71549">
        <ele>1418</ele>
        <time>2026-07-29T04:58:04.716Z</time>
      </trkpt>
      <trkpt lat="45.78138" lon="6.71548">
        <ele>1419</ele>
        <time>2026-07-29T04:58:05.716Z</time>
      </trkpt>
      <trkpt lat="45.78138" lon="6.71547">
        <ele>1419</ele>
        <time>2026-07-29T04:58:06.716Z</time>
      </trkpt>
      <trkpt lat="45.78137" lon="6.71546">
        <ele>1420</ele>
        <time>2026-07-29T04:58:07.716Z</time>
      </trkpt>
      <trkpt lat="45.78136" lon="6.71545">
        <ele>1420</ele>
        <time>2026-07-29T04:58:08.716Z</time>
      </trkpt>
      <trkpt lat="45.78136" lon="6.71545">
        <ele>1420</ele>
        <time>2026-07-29T04:58:09.716Z</time>
      </trkpt>
      <trkpt lat="45.78135" lon="6.71543">
        <ele>1420</ele>
        <time>2026-07-29T04:58:10.716Z</time>
      </trkpt>
      <trkpt lat="45.78134" lon="6.71542">
        <ele>1419</ele>
        <time>2026-07-29T04:58:11.716Z</time>
      </trkpt>
      <trkpt lat="45.78133" lon="6.71541">
        <ele>1418</ele>
        <time>2026-07-29T04:58:12.716Z</time>
      </trkpt>
      <trkpt lat="45.78131" lon="6.71539">
        <ele>1417</ele>
        <time>2026-07-29T04:58:13.716Z</time>
      </trkpt>
      <trkpt lat="45.7813" lon="6.71539">
        <ele>1416</ele>
        <time>2026-07-29T04:58:14.716Z</time>
      </trkpt>
      <trkpt lat="45.78129" lon="6.71537">
        <ele>1416</ele>
        <time>2026-07-29T04:58:15.716Z</time>
      </trkpt>
      <trkpt lat="45.78127" lon="6.71536">
        <ele>1415</ele>
        <time>2026-07-29T04:58:16.716Z</time>
      </trkpt>
      <trkpt lat="45.78126" lon="6.71535">
        <ele>1414</ele>
        <time>2026-07-29T04:58:17.716Z</time>
      </trkpt>
      <trkpt lat="45.78125" lon="6.71534">
        <ele>1413</ele>
        <time>2026-07-29T04:58:18.716Z</time>
      </trkpt>
      <trkpt lat="45.78124" lon="6.71534">
        <ele>1413</ele>
        <time>2026-07-29T04:58:19.716Z</time>
      </trkpt>
      <trkpt lat="45.78123" lon="6.71533">
        <ele>1412</ele>
        <time>2026-07-29T04:58:20.716Z</time>
      </trkpt>
      <trkpt lat="45.78121" lon="6.71531">
        <ele>1412</ele>
        <time>2026-07-29T04:58:21.716Z</time>
      </trkpt>
      <trkpt lat="45.7812" lon="6.7153">
        <ele>1411</ele>
        <time>2026-07-29T04:58:22.716Z</time>
      </trkpt>
      <trkpt lat="45.78119" lon="6.7153">
        <ele>1411</ele>
        <time>2026-07-29T04:58:23.716Z</time>
      </trkpt>
      <trkpt lat="45.78118" lon="6.71529">
        <ele>1411</ele>
        <time>2026-07-29T04:58:24.716Z</time>
      </trkpt>
      <trkpt lat="45.78117" lon="6.71529">
        <ele>1411</ele>
        <time>2026-07-29T04:58:25.716Z</time>
      </trkpt>
      <trkpt lat="45.78116" lon="6.71528">
        <ele>1411</ele>
        <time>2026-07-29T04:58:26.716Z</time>
      </trkpt>
      <trkpt lat="45.78114" lon="6.71528">
        <ele>1411</ele>
        <time>2026-07-29T04:58:27.716Z</time>
      </trkpt>
      <trkpt lat="45.78113" lon="6.71527">
        <ele>1411</ele>
        <time>2026-07-29T04:58:28.716Z</time>
      </trkpt>
      <trkpt lat="45.78112" lon="6.71527">
        <ele>1410</ele>
        <time>2026-07-29T04:58:29.716Z</time>
      </trkpt>
      <trkpt lat="45.78111" lon="6.71526">
        <ele>1410</ele>
        <time>2026-07-29T04:58:30.716Z</time>
      </trkpt>
      <trkpt lat="45.7811" lon="6.71526">
        <ele>1410</ele>
        <time>2026-07-29T04:58:31.716Z</time>
      </trkpt>
      <trkpt lat="45.78108" lon="6.71525">
        <ele>1409</ele>
        <time>2026-07-29T04:58:32.716Z</time>
      </trkpt>
      <trkpt lat="45.78107" lon="6.71523">
        <ele>1409</ele>
        <time>2026-07-29T04:58:33.716Z</time>
      </trkpt>
      <trkpt lat="45.78106" lon="6.71522">
        <ele>1408</ele>
        <time>2026-07-29T04:58:34.716Z</time>
      </trkpt>
      <trkpt lat="45.78105" lon="6.71521">
        <ele>1408</ele>
        <time>2026-07-29T04:58:35.716Z</time>
      </trkpt>
      <trkpt lat="45.78104" lon="6.7152">
        <ele>1408</ele>
        <time>2026-07-29T04:58:36.716Z</time>
      </trkpt>
      <trkpt lat="45.78104" lon="6.71519">
        <ele>1407</ele>
        <time>2026-07-29T04:58:37.716Z</time>
      </trkpt>
      <trkpt lat="45.78103" lon="6.71519">
        <ele>1407</ele>
        <time>2026-07-29T04:58:38.716Z</time>
      </trkpt>
      <trkpt lat="45.78102" lon="6.71518">
        <ele>1407</ele>
        <time>2026-07-29T04:58:39.716Z</time>
      </trkpt>
      <trkpt lat="45.78101" lon="6.71518">
        <ele>1407</ele>
        <time>2026-07-29T04:58:40.716Z</time>
      </trkpt>
      <trkpt lat="45.78101" lon="6.71518">
        <ele>1406</ele>
        <time>2026-07-29T04:58:41.716Z</time>
      </trkpt>
      <trkpt lat="45.781" lon="6.71518">
        <ele>1407</ele>
        <time>2026-07-29T04:58:42.716Z</time>
      </trkpt>
      <trkpt lat="45.78099" lon="6.71519">
        <ele>1407</ele>
        <time>2026-07-29T04:58:43.716Z</time>
      </trkpt>
      <trkpt lat="45.78098" lon="6.7152">
        <ele>1408</ele>
        <time>2026-07-29T04:58:44.716Z</time>
      </trkpt>
      <trkpt lat="45.78097" lon="6.71523">
        <ele>1409</ele>
        <time>2026-07-29T04:58:45.716Z</time>
      </trkpt>
      <trkpt lat="45.78096" lon="6.71522">
        <ele>1409</ele>
        <time>2026-07-29T04:58:46.716Z</time>
      </trkpt>
      <trkpt lat="45.78095" lon="6.7152">
        <ele>1410</ele>
        <time>2026-07-29T04:58:47.716Z</time>
      </trkpt>
      <trkpt lat="45.78093" lon="6.7152">
        <ele>1410</ele>
        <time>2026-07-29T04:58:48.716Z</time>
      </trkpt>
      <trkpt lat="45.78092" lon="6.7152">
        <ele>1410</ele>
        <time>2026-07-29T04:58:49.716Z</time>
      </trkpt>
      <trkpt lat="45.78091" lon="6.7152">
        <ele>1410</ele>
        <time>2026-07-29T04:58:50.716Z</time>
      </trkpt>
      <trkpt lat="45.78089" lon="6.7152">
        <ele>1410</ele>
        <time>2026-07-29T04:58:51.716Z</time>
      </trkpt>
      <trkpt lat="45.78088" lon="6.71521">
        <ele>1410</ele>
        <time>2026-07-29T04:58:52.716Z</time>
      </trkpt>
      <trkpt lat="45.78086" lon="6.7152">
        <ele>1410</ele>
        <time>2026-07-29T04:58:53.716Z</time>
      </trkpt>
      <trkpt lat="45.78084" lon="6.7152">
        <ele>1410</ele>
        <time>2026-07-29T04:58:54.716Z</time>
      </trkpt>
      <trkpt lat="45.78083" lon="6.7152">
        <ele>1410</ele>
        <time>2026-07-29T04:58:55.716Z</time>
      </trkpt>
      <trkpt lat="45.78082" lon="6.71519">
        <ele>1410</ele>
        <time>2026-07-29T04:58:56.716Z</time>
      </trkpt>
      <trkpt lat="45.78081" lon="6.71518">
        <ele>1410</ele>
        <time>2026-07-29T04:58:57.716Z</time>
      </trkpt>
      <trkpt lat="45.7808" lon="6.71517">
        <ele>1410</ele>
        <time>2026-07-29T04:58:58.716Z</time>
      </trkpt>
      <trkpt lat="45.78078" lon="6.71518">
        <ele>1411</ele>
        <time>2026-07-29T04:58:59.716Z</time>
      </trkpt>
      <trkpt lat="45.78077" lon="6.71518">
        <ele>1411</ele>
        <time>2026-07-29T04:59:00.716Z</time>
      </trkpt>
      <trkpt lat="45.78075" lon="6.71519">
        <ele>1412</ele>
        <time>2026-07-29T04:59:01.716Z</time>
      </trkpt>
      <trkpt lat="45.78075" lon="6.7152">
        <ele>1412</ele>
        <time>2026-07-29T04:59:02.716Z</time>
      </trkpt>
      <trkpt lat="45.78074" lon="6.7152">
        <ele>1412</ele>
        <time>2026-07-29T04:59:03.716Z</time>
      </trkpt>
      <trkpt lat="45.78072" lon="6.7152">
        <ele>1412</ele>
        <time>2026-07-29T04:59:04.716Z</time>
      </trkpt>
      <trkpt lat="45.78071" lon="6.71519">
        <ele>1412</ele>
        <time>2026-07-29T04:59:05.716Z</time>
      </trkpt>
      <trkpt lat="45.7807" lon="6.71519">
        <ele>1412</ele>
        <time>2026-07-29T04:59:06.716Z</time>
      </trkpt>
      <trkpt lat="45.78069" lon="6.71518">
        <ele>1413</ele>
        <time>2026-07-29T04:59:07.716Z</time>
      </trkpt>
      <trkpt lat="45.78068" lon="6.71518">
        <ele>1413</ele>
        <time>2026-07-29T04:59:08.716Z</time>
      </trkpt>
      <trkpt lat="45.78066" lon="6.71517">
        <ele>1413</ele>
        <time>2026-07-29T04:59:09.716Z</time>
      </trkpt>
      <trkpt lat="45.78065" lon="6.71516">
        <ele>1413</ele>
        <time>2026-07-29T04:59:10.716Z</time>
      </trkpt>
      <trkpt lat="45.78064" lon="6.71515">
        <ele>1413</ele>
        <time>2026-07-29T04:59:11.716Z</time>
      </trkpt>
      <trkpt lat="45.78063" lon="6.71514">
        <ele>1413</ele>
        <time>2026-07-29T04:59:12.716Z</time>
      </trkpt>
      <trkpt lat="45.78062" lon="6.71514">
        <ele>1413</ele>
        <time>2026-07-29T04:59:13.716Z</time>
      </trkpt>
      <trkpt lat="45.7806" lon="6.71513">
        <ele>1413</ele>
        <time>2026-07-29T04:59:14.716Z</time>
      </trkpt>
      <trkpt lat="45.78059" lon="6.71513">
        <ele>1413</ele>
        <time>2026-07-29T04:59:15.716Z</time>
      </trkpt>
      <trkpt lat="45.78057" lon="6.71512">
        <ele>1412</ele>
        <time>2026-07-29T04:59:16.716Z</time>
      </trkpt>
      <trkpt lat="45.78056" lon="6.71512">
        <ele>1412</ele>
        <time>2026-07-29T04:59:17.716Z</time>
      </trkpt>
      <trkpt lat="45.78056" lon="6.71511">
        <ele>1412</ele>
        <time>2026-07-29T04:59:18.716Z</time>
      </trkpt>
      <trkpt lat="45.78055" lon="6.71511">
        <ele>1412</ele>
        <time>2026-07-29T04:59:19.716Z</time>
      </trkpt>
      <trkpt lat="45.78054" lon="6.71511">
        <ele>1413</ele>
        <time>2026-07-29T04:59:20.716Z</time>
      </trkpt>
      <trkpt lat="45.78053" lon="6.71511">
        <ele>1413</ele>
        <time>2026-07-29T04:59:21.716Z</time>
      </trkpt>
      <trkpt lat="45.78052" lon="6.71511">
        <ele>1413</ele>
        <time>2026-07-29T04:59:22.716Z</time>
      </trkpt>
      <trkpt lat="45.78051" lon="6.71511">
        <ele>1413</ele>
        <time>2026-07-29T04:59:23.716Z</time>
      </trkpt>
      <trkpt lat="45.7805" lon="6.71511">
        <ele>1413</ele>
        <time>2026-07-29T04:59:24.716Z</time>
      </trkpt>
      <trkpt lat="45.7805" lon="6.71512">
        <ele>1413</ele>
        <time>2026-07-29T04:59:25.716Z</time>
      </trkpt>
      <trkpt lat="45.7805" lon="6.71512">
        <ele>1414</ele>
        <time>2026-07-29T04:59:26.716Z</time>
      </trkpt>
      <trkpt lat="45.78049" lon="6.71512">
        <ele>1414</ele>
        <time>2026-07-29T04:59:27.716Z</time>
      </trkpt>
      <trkpt lat="45.78049" lon="6.71512">
        <ele>1414</ele>
        <time>2026-07-29T04:59:28.716Z</time>
      </trkpt>
      <trkpt lat="45.78049" lon="6.71512">
        <ele>1414</ele>
        <time>2026-07-29T04:59:29.716Z</time>
      </trkpt>
      <trkpt lat="45.78049" lon="6.71512">
        <ele>1415</ele>
        <time>2026-07-29T04:59:30.716Z</time>
      </trkpt>
      <trkpt lat="45.78049" lon="6.71511">
        <ele>1415</ele>
        <time>2026-07-29T04:59:31.716Z</time>
      </trkpt>
      <trkpt lat="45.78049" lon="6.71511">
        <ele>1415</ele>
        <time>2026-07-29T04:59:32.716Z</time>
      </trkpt>
      <trkpt lat="45.78048" lon="6.71511">
        <ele>1415</ele>
        <time>2026-07-29T04:59:33.716Z</time>
      </trkpt>
      <trkpt lat="45.78048" lon="6.7151">
        <ele>1415</ele>
        <time>2026-07-29T04:59:34.716Z</time>
      </trkpt>
      <trkpt lat="45.78047" lon="6.7151">
        <ele>1415</ele>
        <time>2026-07-29T04:59:35.716Z</time>
      </trkpt>
      <trkpt lat="45.78047" lon="6.71509">
        <ele>1415</ele>
        <time>2026-07-29T04:59:36.716Z</time>
      </trkpt>
      <trkpt lat="45.78046" lon="6.71508">
        <ele>1416</ele>
        <time>2026-07-29T04:59:37.716Z</time>
      </trkpt>
      <trkpt lat="45.78045" lon="6.71507">
        <ele>1416</ele>
        <time>2026-07-29T04:59:38.716Z</time>
      </trkpt>
      <trkpt lat="45.78044" lon="6.71507">
        <ele>1416</ele>
        <time>2026-07-29T04:59:39.716Z</time>
      </trkpt>
      <trkpt lat="45.78043" lon="6.71506">
        <ele>1416</ele>
        <time>2026-07-29T04:59:40.717Z</time>
      </trkpt>
      <trkpt lat="45.78042" lon="6.71506">
        <ele>1416</ele>
        <time>2026-07-29T04:59:41.716Z</time>
      </trkpt>
      <trkpt lat="45.7804" lon="6.71506">
        <ele>1416</ele>
        <time>2026-07-29T04:59:42.716Z</time>
      </trkpt>
      <trkpt lat="45.78039" lon="6.71505">
        <ele>1416</ele>
        <time>2026-07-29T04:59:43.716Z</time>
      </trkpt>
      <trkpt lat="45.78038" lon="6.71505">
        <ele>1416</ele>
        <time>2026-07-29T04:59:44.716Z</time>
      </trkpt>
      <trkpt lat="45.78037" lon="6.71505">
        <ele>1416</ele>
        <time>2026-07-29T04:59:45.716Z</time>
      </trkpt>
      <trkpt lat="45.78036" lon="6.71505">
        <ele>1416</ele>
        <time>2026-07-29T04:59:46.716Z</time>
      </trkpt>
      <trkpt lat="45.78035" lon="6.71504">
        <ele>1416</ele>
        <time>2026-07-29T04:59:47.716Z</time>
      </trkpt>
      <trkpt lat="45.78033" lon="6.71504">
        <ele>1416</ele>
        <time>2026-07-29T04:59:48.716Z</time>
      </trkpt>
      <trkpt lat="45.78032" lon="6.71504">
        <ele>1416</ele>
        <time>2026-07-29T04:59:49.716Z</time>
      </trkpt>
      <trkpt lat="45.78031" lon="6.71503">
        <ele>1416</ele>
        <time>2026-07-29T04:59:50.716Z</time>
      </trkpt>
      <trkpt lat="45.7803" lon="6.71503">
        <ele>1416</ele>
        <time>2026-07-29T04:59:51.716Z</time>
      </trkpt>
      <trkpt lat="45.78029" lon="6.71503">
        <ele>1417</ele>
        <time>2026-07-29T04:59:52.716Z</time>
      </trkpt>
      <trkpt lat="45.78028" lon="6.71502">
        <ele>1417</ele>
        <time>2026-07-29T04:59:53.716Z</time>
      </trkpt>
      <trkpt lat="45.78026" lon="6.71502">
        <ele>1417</ele>
        <time>2026-07-29T04:59:54.716Z</time>
      </trkpt>
      <trkpt lat="45.78025" lon="6.71502">
        <ele>1417</ele>
        <time>2026-07-29T04:59:55.716Z</time>
      </trkpt>
      <trkpt lat="45.78025" lon="6.71502">
        <ele>1417</ele>
        <time>2026-07-29T04:59:56.716Z</time>
      </trkpt>
      <trkpt lat="45.78024" lon="6.71501">
        <ele>1417</ele>
        <time>2026-07-29T04:59:57.716Z</time>
      </trkpt>
      <trkpt lat="45.78023" lon="6.71501">
        <ele>1418</ele>
        <time>2026-07-29T04:59:58.716Z</time>
      </trkpt>
      <trkpt lat="45.78022" lon="6.71501">
        <ele>1418</ele>
        <time>2026-07-29T04:59:59.716Z</time>
      </trkpt>
      <trkpt lat="45.7802" lon="6.71501">
        <ele>1419</ele>
        <time>2026-07-29T05:00:00.716Z</time>
      </trkpt>
      <trkpt lat="45.78019" lon="6.715">
        <ele>1420</ele>
        <time>2026-07-29T05:00:01.716Z</time>
      </trkpt>
      <trkpt lat="45.78018" lon="6.715">
        <ele>1421</ele>
        <time>2026-07-29T05:00:02.716Z</time>
      </trkpt>
      <trkpt lat="45.78017" lon="6.715">
        <ele>1421</ele>
        <time>2026-07-29T05:00:03.716Z</time>
      </trkpt>
      <trkpt lat="45.78016" lon="6.715">
        <ele>1422</ele>
        <time>2026-07-29T05:00:04.716Z</time>
      </trkpt>
      <trkpt lat="45.78014" lon="6.71499">
        <ele>1422</ele>
        <time>2026-07-29T05:00:05.716Z</time>
      </trkpt>
      <trkpt lat="45.78013" lon="6.71499">
        <ele>1422</ele>
        <time>2026-07-29T05:00:06.716Z</time>
      </trkpt>
      <trkpt lat="45.78012" lon="6.71498">
        <ele>1423</ele>
        <time>2026-07-29T05:00:07.716Z</time>
      </trkpt>
      <trkpt lat="45.78011" lon="6.71498">
        <ele>1423</ele>
        <time>2026-07-29T05:00:08.716Z</time>
      </trkpt>
      <trkpt lat="45.78009" lon="6.71497">
        <ele>1422</ele>
        <time>2026-07-29T05:00:09.716Z</time>
      </trkpt>
      <trkpt lat="45.78008" lon="6.71497">
        <ele>1422</ele>
        <time>2026-07-29T05:00:10.716Z</time>
      </trkpt>
      <trkpt lat="45.78006" lon="6.71497">
        <ele>1423</ele>
        <time>2026-07-29T05:00:11.716Z</time>
      </trkpt>
      <trkpt lat="45.78005" lon="6.71496">
        <ele>1423</ele>
        <time>2026-07-29T05:00:12.716Z</time>
      </trkpt>
      <trkpt lat="45.78004" lon="6.71496">
        <ele>1423</ele>
        <time>2026-07-29T05:00:13.716Z</time>
      </trkpt>
      <trkpt lat="45.78002" lon="6.71496">
        <ele>1423</ele>
        <time>2026-07-29T05:00:14.716Z</time>
      </trkpt>
      <trkpt lat="45.78001" lon="6.71495">
        <ele>1423</ele>
        <time>2026-07-29T05:00:15.716Z</time>
      </trkpt>
      <trkpt lat="45.78" lon="6.71495">
        <ele>1424</ele>
        <time>2026-07-29T05:00:16.716Z</time>
      </trkpt>
      <trkpt lat="45.77999" lon="6.71494">
        <ele>1424</ele>
        <time>2026-07-29T05:00:17.716Z</time>
      </trkpt>
      <trkpt lat="45.77998" lon="6.71494">
        <ele>1424</ele>
        <time>2026-07-29T05:00:18.716Z</time>
      </trkpt>
      <trkpt lat="45.77997" lon="6.71493">
        <ele>1425</ele>
        <time>2026-07-29T05:00:19.716Z</time>
      </trkpt>
      <trkpt lat="45.77996" lon="6.71493">
        <ele>1425</ele>
        <time>2026-07-29T05:00:20.716Z</time>
      </trkpt>
      <trkpt lat="45.77995" lon="6.71492">
        <ele>1425</ele>
        <time>2026-07-29T05:00:21.716Z</time>
      </trkpt>
      <trkpt lat="45.77994" lon="6.71492">
        <ele>1425</ele>
        <time>2026-07-29T05:00:22.716Z</time>
      </trkpt>
      <trkpt lat="45.77992" lon="6.71491">
        <ele>1425</ele>
        <time>2026-07-29T05:00:23.716Z</time>
      </trkpt>
      <trkpt lat="45.77991" lon="6.7149">
        <ele>1425</ele>
        <time>2026-07-29T05:00:24.716Z</time>
      </trkpt>
      <trkpt lat="45.7799" lon="6.7149">
        <ele>1425</ele>
        <time>2026-07-29T05:00:25.716Z</time>
      </trkpt>
      <trkpt lat="45.77989" lon="6.71489">
        <ele>1425</ele>
        <time>2026-07-29T05:00:26.716Z</time>
      </trkpt>
      <trkpt lat="45.77988" lon="6.71489">
        <ele>1425</ele>
        <time>2026-07-29T05:00:27.716Z</time>
      </trkpt>
      <trkpt lat="45.77987" lon="6.71488">
        <ele>1426</ele>
        <time>2026-07-29T05:00:28.716Z</time>
      </trkpt>
      <trkpt lat="45.77986" lon="6.71487">
        <ele>1426</ele>
        <time>2026-07-29T05:00:29.716Z</time>
      </trkpt>
      <trkpt lat="45.77985" lon="6.71486">
        <ele>1426</ele>
        <time>2026-07-29T05:00:30.716Z</time>
      </trkpt>
      <trkpt lat="45.77984" lon="6.71485">
        <ele>1426</ele>
        <time>2026-07-29T05:00:31.716Z</time>
      </trkpt>
      <trkpt lat="45.77983" lon="6.71484">
        <ele>1427</ele>
        <time>2026-07-29T05:00:32.716Z</time>
      </trkpt>
      <trkpt lat="45.77982" lon="6.71483">
        <ele>1427</ele>
        <time>2026-07-29T05:00:33.716Z</time>
      </trkpt>
      <trkpt lat="45.77981" lon="6.71482">
        <ele>1428</ele>
        <time>2026-07-29T05:00:34.716Z</time>
      </trkpt>
      <trkpt lat="45.7798" lon="6.71481">
        <ele>1429</ele>
        <time>2026-07-29T05:00:35.716Z</time>
      </trkpt>
      <trkpt lat="45.77979" lon="6.7148">
        <ele>1429</ele>
        <time>2026-07-29T05:00:36.716Z</time>
      </trkpt>
      <trkpt lat="45.77978" lon="6.71479">
        <ele>1430</ele>
        <time>2026-07-29T05:00:37.716Z</time>
      </trkpt>
      <trkpt lat="45.77977" lon="6.71478">
        <ele>1430</ele>
        <time>2026-07-29T05:00:38.716Z</time>
      </trkpt>
      <trkpt lat="45.77977" lon="6.71477">
        <ele>1431</ele>
        <time>2026-07-29T05:00:39.716Z</time>
      </trkpt>
      <trkpt lat="45.77976" lon="6.71476">
        <ele>1431</ele>
        <time>2026-07-29T05:00:40.716Z</time>
      </trkpt>
      <trkpt lat="45.77976" lon="6.71475">
        <ele>1431</ele>
        <time>2026-07-29T05:00:41.716Z</time>
      </trkpt>
      <trkpt lat="45.77975" lon="6.71474">
        <ele>1431</ele>
        <time>2026-07-29T05:00:42.716Z</time>
      </trkpt>
      <trkpt lat="45.77975" lon="6.71473">
        <ele>1431</ele>
        <time>2026-07-29T05:00:43.716Z</time>
      </trkpt>
      <trkpt lat="45.77974" lon="6.71472">
        <ele>1432</ele>
        <time>2026-07-29T05:00:44.716Z</time>
      </trkpt>
      <trkpt lat="45.77974" lon="6.71471">
        <ele>1432</ele>
        <time>2026-07-29T05:00:45.716Z</time>
      </trkpt>
      <trkpt lat="45.77974" lon="6.7147">
        <ele>1432</ele>
        <time>2026-07-29T05:00:46.716Z</time>
      </trkpt>
      <trkpt lat="45.77973" lon="6.71469">
        <ele>1432</ele>
        <time>2026-07-29T05:00:47.716Z</time>
      </trkpt>
      <trkpt lat="45.77973" lon="6.71469">
        <ele>1433</ele>
        <time>2026-07-29T05:00:48.716Z</time>
      </trkpt>
      <trkpt lat="45.77972" lon="6.71469">
        <ele>1433</ele>
        <time>2026-07-29T05:00:49.716Z</time>
      </trkpt>
      <trkpt lat="45.77972" lon="6.71468">
        <ele>1433</ele>
        <time>2026-07-29T05:00:50.716Z</time>
      </trkpt>
      <trkpt lat="45.77971" lon="6.71468">
        <ele>1433</ele>
        <time>2026-07-29T05:00:51.716Z</time>
      </trkpt>
      <trkpt lat="45.77969" lon="6.71467">
        <ele>1433</ele>
        <time>2026-07-29T05:00:52.716Z</time>
      </trkpt>
      <trkpt lat="45.77968" lon="6.71467">
        <ele>1434</ele>
        <time>2026-07-29T05:00:53.716Z</time>
      </trkpt>
      <trkpt lat="45.77967" lon="6.71467">
        <ele>1434</ele>
        <time>2026-07-29T05:00:54.716Z</time>
      </trkpt>
      <trkpt lat="45.77965" lon="6.71467">
        <ele>1435</ele>
        <time>2026-07-29T05:00:55.716Z</time>
      </trkpt>
      <trkpt lat="45.77964" lon="6.71468">
        <ele>1435</ele>
        <time>2026-07-29T05:00:56.716Z</time>
      </trkpt>
      <trkpt lat="45.77963" lon="6.71468">
        <ele>1435</ele>
        <time>2026-07-29T05:00:57.716Z</time>
      </trkpt>
      <trkpt lat="45.77962" lon="6.71468">
        <ele>1435</ele>
        <time>2026-07-29T05:00:58.716Z</time>
      </trkpt>
      <trkpt lat="45.77961" lon="6.71468">
        <ele>1434</ele>
        <time>2026-07-29T05:00:59.716Z</time>
      </trkpt>
      <trkpt lat="45.7796" lon="6.71468">
        <ele>1434</ele>
        <time>2026-07-29T05:01:00.716Z</time>
      </trkpt>
      <trkpt lat="45.77959" lon="6.71469">
        <ele>1433</ele>
        <time>2026-07-29T05:01:01.716Z</time>
      </trkpt>
      <trkpt lat="45.77958" lon="6.7147">
        <ele>1433</ele>
        <time>2026-07-29T05:01:02.716Z</time>
      </trkpt>
      <trkpt lat="45.77957" lon="6.7147">
        <ele>1434</ele>
        <time>2026-07-29T05:01:03.716Z</time>
      </trkpt>
      <trkpt lat="45.77956" lon="6.71471">
        <ele>1434</ele>
        <time>2026-07-29T05:01:04.716Z</time>
      </trkpt>
      <trkpt lat="45.77954" lon="6.71472">
        <ele>1434</ele>
        <time>2026-07-29T05:01:05.716Z</time>
      </trkpt>
      <trkpt lat="45.77953" lon="6.71473">
        <ele>1435</ele>
        <time>2026-07-29T05:01:06.716Z</time>
      </trkpt>
      <trkpt lat="45.77952" lon="6.71474">
        <ele>1435</ele>
        <time>2026-07-29T05:01:07.716Z</time>
      </trkpt>
      <trkpt lat="45.77951" lon="6.71475">
        <ele>1435</ele>
        <time>2026-07-29T05:01:08.716Z</time>
      </trkpt>
      <trkpt lat="45.7795" lon="6.71475">
        <ele>1435</ele>
        <time>2026-07-29T05:01:09.716Z</time>
      </trkpt>
      <trkpt lat="45.77949" lon="6.71476">
        <ele>1435</ele>
        <time>2026-07-29T05:01:10.716Z</time>
      </trkpt>
      <trkpt lat="45.77948" lon="6.71477">
        <ele>1435</ele>
        <time>2026-07-29T05:01:11.716Z</time>
      </trkpt>
      <trkpt lat="45.77948" lon="6.71479">
        <ele>1436</ele>
        <time>2026-07-29T05:01:12.716Z</time>
      </trkpt>
      <trkpt lat="45.77947" lon="6.7148">
        <ele>1436</ele>
        <time>2026-07-29T05:01:13.716Z</time>
      </trkpt>
      <trkpt lat="45.77946" lon="6.71481">
        <ele>1436</ele>
        <time>2026-07-29T05:01:14.716Z</time>
      </trkpt>
      <trkpt lat="45.77945" lon="6.71482">
        <ele>1437</ele>
        <time>2026-07-29T05:01:15.716Z</time>
      </trkpt>
      <trkpt lat="45.77943" lon="6.71482">
        <ele>1437</ele>
        <time>2026-07-29T05:01:16.716Z</time>
      </trkpt>
      <trkpt lat="45.77942" lon="6.71483">
        <ele>1438</ele>
        <time>2026-07-29T05:01:17.716Z</time>
      </trkpt>
      <trkpt lat="45.7794" lon="6.71484">
        <ele>1438</ele>
        <time>2026-07-29T05:01:18.716Z</time>
      </trkpt>
      <trkpt lat="45.77939" lon="6.71485">
        <ele>1439</ele>
        <time>2026-07-29T05:01:19.716Z</time>
      </trkpt>
      <trkpt lat="45.77938" lon="6.71486">
        <ele>1439</ele>
        <time>2026-07-29T05:01:20.716Z</time>
      </trkpt>
      <trkpt lat="45.77937" lon="6.71487">
        <ele>1439</ele>
        <time>2026-07-29T05:01:21.716Z</time>
      </trkpt>
      <trkpt lat="45.77935" lon="6.71488">
        <ele>1439</ele>
        <time>2026-07-29T05:01:22.716Z</time>
      </trkpt>
      <trkpt lat="45.77934" lon="6.71488">
        <ele>1439</ele>
        <time>2026-07-29T05:01:23.716Z</time>
      </trkpt>
      <trkpt lat="45.77933" lon="6.71489">
        <ele>1439</ele>
        <time>2026-07-29T05:01:24.716Z</time>
      </trkpt>
      <trkpt lat="45.77932" lon="6.7149">
        <ele>1439</ele>
        <time>2026-07-29T05:01:25.716Z</time>
      </trkpt>
      <trkpt lat="45.77931" lon="6.71491">
        <ele>1439</ele>
        <time>2026-07-29T05:01:26.716Z</time>
      </trkpt>
      <trkpt lat="45.77929" lon="6.71492">
        <ele>1439</ele>
        <time>2026-07-29T05:01:27.716Z</time>
      </trkpt>
      <trkpt lat="45.77928" lon="6.71493">
        <ele>1439</ele>
        <time>2026-07-29T05:01:28.716Z</time>
      </trkpt>
      <trkpt lat="45.77927" lon="6.71494">
        <ele>1440</ele>
        <time>2026-07-29T05:01:29.716Z</time>
      </trkpt>
      <trkpt lat="45.77926" lon="6.71495">
        <ele>1440</ele>
        <time>2026-07-29T05:01:30.716Z</time>
      </trkpt>
      <trkpt lat="45.77924" lon="6.71495">
        <ele>1440</ele>
        <time>2026-07-29T05:01:31.716Z</time>
      </trkpt>
      <trkpt lat="45.77923" lon="6.71495">
        <ele>1440</ele>
        <time>2026-07-29T05:01:32.716Z</time>
      </trkpt>
      <trkpt lat="45.77922" lon="6.71496">
        <ele>1440</ele>
        <time>2026-07-29T05:01:33.716Z</time>
      </trkpt>
      <trkpt lat="45.77921" lon="6.71497">
        <ele>1440</ele>
        <time>2026-07-29T05:01:34.716Z</time>
      </trkpt>
      <trkpt lat="45.7792" lon="6.71497">
        <ele>1440</ele>
        <time>2026-07-29T05:01:35.716Z</time>
      </trkpt>
      <trkpt lat="45.77918" lon="6.71498">
        <ele>1440</ele>
        <time>2026-07-29T05:01:36.716Z</time>
      </trkpt>
      <trkpt lat="45.77917" lon="6.71498">
        <ele>1441</ele>
        <time>2026-07-29T05:01:37.716Z</time>
      </trkpt>
      <trkpt lat="45.77916" lon="6.71498">
        <ele>1441</ele>
        <time>2026-07-29T05:01:38.716Z</time>
      </trkpt>
      <trkpt lat="45.77915" lon="6.71497">
        <ele>1442</ele>
        <time>2026-07-29T05:01:39.716Z</time>
      </trkpt>
      <trkpt lat="45.77914" lon="6.71497">
        <ele>1443</ele>
        <time>2026-07-29T05:01:40.716Z</time>
      </trkpt>
      <trkpt lat="45.77913" lon="6.71496">
        <ele>1443</ele>
        <time>2026-07-29T05:01:41.716Z</time>
      </trkpt>
      <trkpt lat="45.77912" lon="6.71496">
        <ele>1444</ele>
        <time>2026-07-29T05:01:42.716Z</time>
      </trkpt>
      <trkpt lat="45.77911" lon="6.71495">
        <ele>1444</ele>
        <time>2026-07-29T05:01:43.716Z</time>
      </trkpt>
      <trkpt lat="45.7791" lon="6.71495">
        <ele>1445</ele>
        <time>2026-07-29T05:01:44.716Z</time>
      </trkpt>
      <trkpt lat="45.77909" lon="6.71495">
        <ele>1445</ele>
        <time>2026-07-29T05:01:45.716Z</time>
      </trkpt>
      <trkpt lat="45.77907" lon="6.71494">
        <ele>1446</ele>
        <time>2026-07-29T05:01:46.716Z</time>
      </trkpt>
      <trkpt lat="45.77906" lon="6.71494">
        <ele>1446</ele>
        <time>2026-07-29T05:01:47.716Z</time>
      </trkpt>
      <trkpt lat="45.77906" lon="6.71494">
        <ele>1446</ele>
        <time>2026-07-29T05:01:48.716Z</time>
      </trkpt>
      <trkpt lat="45.77905" lon="6.71494">
        <ele>1446</ele>
        <time>2026-07-29T05:01:49.716Z</time>
      </trkpt>
      <trkpt lat="45.77904" lon="6.71494">
        <ele>1446</ele>
        <time>2026-07-29T05:01:50.716Z</time>
      </trkpt>
      <trkpt lat="45.77903" lon="6.71493">
        <ele>1446</ele>
        <time>2026-07-29T05:01:51.716Z</time>
      </trkpt>
      <trkpt lat="45.77902" lon="6.71493">
        <ele>1446</ele>
        <time>2026-07-29T05:01:52.716Z</time>
      </trkpt>
      <trkpt lat="45.77901" lon="6.71492">
        <ele>1446</ele>
        <time>2026-07-29T05:01:53.716Z</time>
      </trkpt>
      <trkpt lat="45.77899" lon="6.71492">
        <ele>1447</ele>
        <time>2026-07-29T05:01:54.716Z</time>
      </trkpt>
      <trkpt lat="45.77898" lon="6.71492">
        <ele>1447</ele>
        <time>2026-07-29T05:01:55.716Z</time>
      </trkpt>
      <trkpt lat="45.77897" lon="6.71492">
        <ele>1448</ele>
        <time>2026-07-29T05:01:56.716Z</time>
      </trkpt>
      <trkpt lat="45.77896" lon="6.71492">
        <ele>1448</ele>
        <time>2026-07-29T05:01:57.716Z</time>
      </trkpt>
      <trkpt lat="45.77895" lon="6.71492">
        <ele>1448</ele>
        <time>2026-07-29T05:01:58.716Z</time>
      </trkpt>
      <trkpt lat="45.77894" lon="6.71492">
        <ele>1448</ele>
        <time>2026-07-29T05:01:59.716Z</time>
      </trkpt>
      <trkpt lat="45.77893" lon="6.71491">
        <ele>1448</ele>
        <time>2026-07-29T05:02:00.716Z</time>
      </trkpt>
      <trkpt lat="45.77892" lon="6.71491">
        <ele>1448</ele>
        <time>2026-07-29T05:02:01.716Z</time>
      </trkpt>
      <trkpt lat="45.77891" lon="6.71491">
        <ele>1449</ele>
        <time>2026-07-29T05:02:02.716Z</time>
      </trkpt>
      <trkpt lat="45.7789" lon="6.71491">
        <ele>1449</ele>
        <time>2026-07-29T05:02:03.716Z</time>
      </trkpt>
      <trkpt lat="45.77888" lon="6.71491">
        <ele>1450</ele>
        <time>2026-07-29T05:02:04.716Z</time>
      </trkpt>
      <trkpt lat="45.77887" lon="6.71492">
        <ele>1450</ele>
        <time>2026-07-29T05:02:05.716Z</time>
      </trkpt>
      <trkpt lat="45.77886" lon="6.71492">
        <ele>1450</ele>
        <time>2026-07-29T05:02:06.716Z</time>
      </trkpt>
      <trkpt lat="45.77885" lon="6.71492">
        <ele>1450</ele>
        <time>2026-07-29T05:02:07.716Z</time>
      </trkpt>
      <trkpt lat="45.77884" lon="6.71492">
        <ele>1451</ele>
        <time>2026-07-29T05:02:08.716Z</time>
      </trkpt>
      <trkpt lat="45.77883" lon="6.71491">
        <ele>1451</ele>
        <time>2026-07-29T05:02:09.716Z</time>
      </trkpt>
      <trkpt lat="45.77881" lon="6.71491">
        <ele>1452</ele>
        <time>2026-07-29T05:02:10.716Z</time>
      </trkpt>
      <trkpt lat="45.7788" lon="6.71491">
        <ele>1452</ele>
        <time>2026-07-29T05:02:11.716Z</time>
      </trkpt>
      <trkpt lat="45.77879" lon="6.71491">
        <ele>1452</ele>
        <time>2026-07-29T05:02:12.716Z</time>
      </trkpt>
      <trkpt lat="45.77877" lon="6.7149">
        <ele>1452</ele>
        <time>2026-07-29T05:02:13.716Z</time>
      </trkpt>
      <trkpt lat="45.77876" lon="6.7149">
        <ele>1452</ele>
        <time>2026-07-29T05:02:14.716Z</time>
      </trkpt>
      <trkpt lat="45.77875" lon="6.71488">
        <ele>1451</ele>
        <time>2026-07-29T05:02:15.716Z</time>
      </trkpt>
      <trkpt lat="45.77874" lon="6.71488">
        <ele>1451</ele>
        <time>2026-07-29T05:02:16.716Z</time>
      </trkpt>
      <trkpt lat="45.77873" lon="6.71488">
        <ele>1450</ele>
        <time>2026-07-29T05:02:17.716Z</time>
      </trkpt>
      <trkpt lat="45.77872" lon="6.71488">
        <ele>1450</ele>
        <time>2026-07-29T05:02:18.716Z</time>
      </trkpt>
      <trkpt lat="45.77871" lon="6.71488">
        <ele>1450</ele>
        <time>2026-07-29T05:02:19.716Z</time>
      </trkpt>
      <trkpt lat="45.77869" lon="6.71487">
        <ele>1449</ele>
        <time>2026-07-29T05:02:20.716Z</time>
      </trkpt>
      <trkpt lat="45.77868" lon="6.71487">
        <ele>1449</ele>
        <time>2026-07-29T05:02:21.716Z</time>
      </trkpt>
      <trkpt lat="45.77867" lon="6.71487">
        <ele>1449</ele>
        <time>2026-07-29T05:02:22.716Z</time>
      </trkpt>
      <trkpt lat="45.77866" lon="6.71487">
        <ele>1449</ele>
        <time>2026-07-29T05:02:23.716Z</time>
      </trkpt>
      <trkpt lat="45.77865" lon="6.71487">
        <ele>1449</ele>
        <time>2026-07-29T05:02:24.716Z</time>
      </trkpt>
      <trkpt lat="45.77864" lon="6.71487">
        <ele>1450</ele>
        <time>2026-07-29T05:02:25.716Z</time>
      </trkpt>
      <trkpt lat="45.77863" lon="6.71487">
        <ele>1450</ele>
        <time>2026-07-29T05:02:26.716Z</time>
      </trkpt>
      <trkpt lat="45.77861" lon="6.71487">
        <ele>1451</ele>
        <time>2026-07-29T05:02:27.716Z</time>
      </trkpt>
      <trkpt lat="45.7786" lon="6.71487">
        <ele>1451</ele>
        <time>2026-07-29T05:02:28.716Z</time>
      </trkpt>
      <trkpt lat="45.77858" lon="6.71487">
        <ele>1452</ele>
        <time>2026-07-29T05:02:29.716Z</time>
      </trkpt>
      <trkpt lat="45.77857" lon="6.71486">
        <ele>1452</ele>
        <time>2026-07-29T05:02:30.716Z</time>
      </trkpt>
      <trkpt lat="45.77856" lon="6.71486">
        <ele>1453</ele>
        <time>2026-07-29T05:02:31.716Z</time>
      </trkpt>
      <trkpt lat="45.77855" lon="6.71486">
        <ele>1453</ele>
        <time>2026-07-29T05:02:32.716Z</time>
      </trkpt>
      <trkpt lat="45.77854" lon="6.71487">
        <ele>1454</ele>
        <time>2026-07-29T05:02:33.716Z</time>
      </trkpt>
      <trkpt lat="45.77853" lon="6.71487">
        <ele>1454</ele>
        <time>2026-07-29T05:02:34.716Z</time>
      </trkpt>
      <trkpt lat="45.77852" lon="6.71488">
        <ele>1455</ele>
        <time>2026-07-29T05:02:35.716Z</time>
      </trkpt>
      <trkpt lat="45.77851" lon="6.71488">
        <ele>1455</ele>
        <time>2026-07-29T05:02:36.716Z</time>
      </trkpt>
      <trkpt lat="45.7785" lon="6.71488">
        <ele>1455</ele>
        <time>2026-07-29T05:02:37.716Z</time>
      </trkpt>
      <trkpt lat="45.77849" lon="6.71488">
        <ele>1456</ele>
        <time>2026-07-29T05:02:38.716Z</time>
      </trkpt>
      <trkpt lat="45.77847" lon="6.71487">
        <ele>1456</ele>
        <time>2026-07-29T05:02:39.716Z</time>
      </trkpt>
      <trkpt lat="45.77846" lon="6.71486">
        <ele>1456</ele>
        <time>2026-07-29T05:02:40.716Z</time>
      </trkpt>
      <trkpt lat="45.77845" lon="6.71486">
        <ele>1457</ele>
        <time>2026-07-29T05:02:41.716Z</time>
      </trkpt>
      <trkpt lat="45.77844" lon="6.71485">
        <ele>1457</ele>
        <time>2026-07-29T05:02:42.716Z</time>
      </trkpt>
      <trkpt lat="45.77844" lon="6.71484">
        <ele>1458</ele>
        <time>2026-07-29T05:02:43.716Z</time>
      </trkpt>
      <trkpt lat="45.77843" lon="6.71483">
        <ele>1459</ele>
        <time>2026-07-29T05:02:44.716Z</time>
      </trkpt>
      <trkpt lat="45.77842" lon="6.71483">
        <ele>1459</ele>
        <time>2026-07-29T05:02:45.716Z</time>
      </trkpt>
      <trkpt lat="45.77841" lon="6.71482">
        <ele>1459</ele>
        <time>2026-07-29T05:02:46.716Z</time>
      </trkpt>
      <trkpt lat="45.7784" lon="6.71482">
        <ele>1459</ele>
        <time>2026-07-29T05:02:47.716Z</time>
      </trkpt>
      <trkpt lat="45.77839" lon="6.71481">
        <ele>1459</ele>
        <time>2026-07-29T05:02:48.716Z</time>
      </trkpt>
      <trkpt lat="45.77838" lon="6.71481">
        <ele>1459</ele>
        <time>2026-07-29T05:02:49.716Z</time>
      </trkpt>
      <trkpt lat="45.77837" lon="6.7148">
        <ele>1459</ele>
        <time>2026-07-29T05:02:50.716Z</time>
      </trkpt>
      <trkpt lat="45.77837" lon="6.71479">
        <ele>1459</ele>
        <time>2026-07-29T05:02:51.716Z</time>
      </trkpt>
      <trkpt lat="45.77836" lon="6.71479">
        <ele>1459</ele>
        <time>2026-07-29T05:02:52.716Z</time>
      </trkpt>
      <trkpt lat="45.77835" lon="6.71478">
        <ele>1459</ele>
        <time>2026-07-29T05:02:53.716Z</time>
      </trkpt>
      <trkpt lat="45.77834" lon="6.71478">
        <ele>1459</ele>
        <time>2026-07-29T05:02:54.716Z</time>
      </trkpt>
      <trkpt lat="45.77832" lon="6.71478">
        <ele>1459</ele>
        <time>2026-07-29T05:02:55.716Z</time>
      </trkpt>
      <trkpt lat="45.77831" lon="6.71476">
        <ele>1459</ele>
        <time>2026-07-29T05:02:56.716Z</time>
      </trkpt>
      <trkpt lat="45.7783" lon="6.71475">
        <ele>1460</ele>
        <time>2026-07-29T05:02:57.716Z</time>
      </trkpt>
      <trkpt lat="45.77829" lon="6.71474">
        <ele>1461</ele>
        <time>2026-07-29T05:02:58.716Z</time>
      </trkpt>
      <trkpt lat="45.77828" lon="6.71473">
        <ele>1461</ele>
        <time>2026-07-29T05:02:59.716Z</time>
      </trkpt>
      <trkpt lat="45.77828" lon="6.71471">
        <ele>1462</ele>
        <time>2026-07-29T05:03:00.716Z</time>
      </trkpt>
      <trkpt lat="45.77827" lon="6.71469">
        <ele>1463</ele>
        <time>2026-07-29T05:03:01.716Z</time>
      </trkpt>
      <trkpt lat="45.77827" lon="6.71467">
        <ele>1463</ele>
        <time>2026-07-29T05:03:02.716Z</time>
      </trkpt>
      <trkpt lat="45.77826" lon="6.71466">
        <ele>1463</ele>
        <time>2026-07-29T05:03:03.716Z</time>
      </trkpt>
      <trkpt lat="45.77825" lon="6.71464">
        <ele>1463</ele>
        <time>2026-07-29T05:03:04.716Z</time>
      </trkpt>
      <trkpt lat="45.77825" lon="6.71463">
        <ele>1463</ele>
        <time>2026-07-29T05:03:05.716Z</time>
      </trkpt>
      <trkpt lat="45.77824" lon="6.71462">
        <ele>1463</ele>
        <time>2026-07-29T05:03:06.716Z</time>
      </trkpt>
      <trkpt lat="45.77823" lon="6.71461">
        <ele>1463</ele>
        <time>2026-07-29T05:03:07.716Z</time>
      </trkpt>
      <trkpt lat="45.77823" lon="6.71459">
        <ele>1463</ele>
        <time>2026-07-29T05:03:08.716Z</time>
      </trkpt>
      <trkpt lat="45.77822" lon="6.71458">
        <ele>1463</ele>
        <time>2026-07-29T05:03:09.716Z</time>
      </trkpt>
      <trkpt lat="45.77821" lon="6.71457">
        <ele>1463</ele>
        <time>2026-07-29T05:03:10.716Z</time>
      </trkpt>
      <trkpt lat="45.77821" lon="6.71456">
        <ele>1463</ele>
        <time>2026-07-29T05:03:11.716Z</time>
      </trkpt>
      <trkpt lat="45.7782" lon="6.71454">
        <ele>1463</ele>
        <time>2026-07-29T05:03:12.716Z</time>
      </trkpt>
      <trkpt lat="45.7782" lon="6.71453">
        <ele>1464</ele>
        <time>2026-07-29T05:03:13.716Z</time>
      </trkpt>
      <trkpt lat="45.77819" lon="6.71451">
        <ele>1464</ele>
        <time>2026-07-29T05:03:14.716Z</time>
      </trkpt>
      <trkpt lat="45.77819" lon="6.7145">
        <ele>1464</ele>
        <time>2026-07-29T05:03:15.716Z</time>
      </trkpt>
      <trkpt lat="45.77819" lon="6.71448">
        <ele>1465</ele>
        <time>2026-07-29T05:03:16.716Z</time>
      </trkpt>
      <trkpt lat="45.77818" lon="6.71446">
        <ele>1465</ele>
        <time>2026-07-29T05:03:17.716Z</time>
      </trkpt>
      <trkpt lat="45.77818" lon="6.71445">
        <ele>1466</ele>
        <time>2026-07-29T05:03:18.716Z</time>
      </trkpt>
      <trkpt lat="45.77817" lon="6.71444">
        <ele>1466</ele>
        <time>2026-07-29T05:03:19.716Z</time>
      </trkpt>
      <trkpt lat="45.77817" lon="6.71442">
        <ele>1466</ele>
        <time>2026-07-29T05:03:20.716Z</time>
      </trkpt>
      <trkpt lat="45.77816" lon="6.71441">
        <ele>1466</ele>
        <time>2026-07-29T05:03:21.716Z</time>
      </trkpt>
      <trkpt lat="45.77816" lon="6.71439">
        <ele>1466</ele>
        <time>2026-07-29T05:03:22.716Z</time>
      </trkpt>
      <trkpt lat="45.77815" lon="6.71437">
        <ele>1466</ele>
        <time>2026-07-29T05:03:23.716Z</time>
      </trkpt>
      <trkpt lat="45.77815" lon="6.71436">
        <ele>1466</ele>
        <time>2026-07-29T05:03:24.716Z</time>
      </trkpt>
      <trkpt lat="45.77815" lon="6.71434">
        <ele>1466</ele>
        <time>2026-07-29T05:03:25.716Z</time>
      </trkpt>
      <trkpt lat="45.77815" lon="6.71433">
        <ele>1465</ele>
        <time>2026-07-29T05:03:26.716Z</time>
      </trkpt>
      <trkpt lat="45.77814" lon="6.71432">
        <ele>1465</ele>
        <time>2026-07-29T05:03:27.716Z</time>
      </trkpt>
      <trkpt lat="45.77814" lon="6.71431">
        <ele>1466</ele>
        <time>2026-07-29T05:03:28.716Z</time>
      </trkpt>
      <trkpt lat="45.77814" lon="6.71431">
        <ele>1466</ele>
        <time>2026-07-29T05:03:29.716Z</time>
      </trkpt>
      <trkpt lat="45.77814" lon="6.71431">
        <ele>1466</ele>
        <time>2026-07-29T05:03:30.716Z</time>
      </trkpt>
      <trkpt lat="45.77813" lon="6.71431">
        <ele>1467</ele>
        <time>2026-07-29T05:03:31.716Z</time>
      </trkpt>
      <trkpt lat="45.77812" lon="6.71432">
        <ele>1468</ele>
        <time>2026-07-29T05:03:32.716Z</time>
      </trkpt>
      <trkpt lat="45.77811" lon="6.71432">
        <ele>1468</ele>
        <time>2026-07-29T05:03:33.716Z</time>
      </trkpt>
      <trkpt lat="45.7781" lon="6.71433">
        <ele>1468</ele>
        <time>2026-07-29T05:03:34.716Z</time>
      </trkpt>
      <trkpt lat="45.77808" lon="6.71433">
        <ele>1468</ele>
        <time>2026-07-29T05:03:35.716Z</time>
      </trkpt>
      <trkpt lat="45.77807" lon="6.71434">
        <ele>1468</ele>
        <time>2026-07-29T05:03:36.716Z</time>
      </trkpt>
      <trkpt lat="45.77806" lon="6.71434">
        <ele>1469</ele>
        <time>2026-07-29T05:03:37.716Z</time>
      </trkpt>
      <trkpt lat="45.77804" lon="6.71434">
        <ele>1469</ele>
        <time>2026-07-29T05:03:38.716Z</time>
      </trkpt>
      <trkpt lat="45.77802" lon="6.71435">
        <ele>1469</ele>
        <time>2026-07-29T05:03:39.716Z</time>
      </trkpt>
      <trkpt lat="45.77801" lon="6.71435">
        <ele>1469</ele>
        <time>2026-07-29T05:03:40.716Z</time>
      </trkpt>
      <trkpt lat="45.77799" lon="6.71435">
        <ele>1469</ele>
        <time>2026-07-29T05:03:41.716Z</time>
      </trkpt>
      <trkpt lat="45.77798" lon="6.71434">
        <ele>1469</ele>
        <time>2026-07-29T05:03:42.716Z</time>
      </trkpt>
      <trkpt lat="45.77797" lon="6.71434">
        <ele>1469</ele>
        <time>2026-07-29T05:03:43.716Z</time>
      </trkpt>
      <trkpt lat="45.77796" lon="6.71433">
        <ele>1470</ele>
        <time>2026-07-29T05:03:44.716Z</time>
      </trkpt>
      <trkpt lat="45.77795" lon="6.71433">
        <ele>1470</ele>
        <time>2026-07-29T05:03:45.716Z</time>
      </trkpt>
      <trkpt lat="45.77794" lon="6.71433">
        <ele>1471</ele>
        <time>2026-07-29T05:03:46.716Z</time>
      </trkpt>
      <trkpt lat="45.77793" lon="6.71433">
        <ele>1472</ele>
        <time>2026-07-29T05:03:47.716Z</time>
      </trkpt>
      <trkpt lat="45.77792" lon="6.71433">
        <ele>1472</ele>
        <time>2026-07-29T05:03:48.716Z</time>
      </trkpt>
      <trkpt lat="45.77791" lon="6.71433">
        <ele>1473</ele>
        <time>2026-07-29T05:03:49.716Z</time>
      </trkpt>
      <trkpt lat="45.77789" lon="6.71433">
        <ele>1473</ele>
        <time>2026-07-29T05:03:50.716Z</time>
      </trkpt>
      <trkpt lat="45.77787" lon="6.71433">
        <ele>1474</ele>
        <time>2026-07-29T05:03:51.716Z</time>
      </trkpt>
      <trkpt lat="45.77785" lon="6.71433">
        <ele>1474</ele>
        <time>2026-07-29T05:03:52.716Z</time>
      </trkpt>
      <trkpt lat="45.77784" lon="6.71432">
        <ele>1474</ele>
        <time>2026-07-29T05:03:53.716Z</time>
      </trkpt>
      <trkpt lat="45.77782" lon="6.71431">
        <ele>1474</ele>
        <time>2026-07-29T05:03:54.716Z</time>
      </trkpt>
      <trkpt lat="45.7778" lon="6.71431">
        <ele>1474</ele>
        <time>2026-07-29T05:03:55.716Z</time>
      </trkpt>
      <trkpt lat="45.77778" lon="6.71431">
        <ele>1474</ele>
        <time>2026-07-29T05:03:56.716Z</time>
      </trkpt>
      <trkpt lat="45.77776" lon="6.71431">
        <ele>1475</ele>
        <time>2026-07-29T05:03:57.716Z</time>
      </trkpt>
      <trkpt lat="45.77775" lon="6.71431">
        <ele>1475</ele>
        <time>2026-07-29T05:03:58.716Z</time>
      </trkpt>
      <trkpt lat="45.77774" lon="6.71431">
        <ele>1475</ele>
        <time>2026-07-29T05:03:59.716Z</time>
      </trkpt>
      <trkpt lat="45.77773" lon="6.71431">
        <ele>1475</ele>
        <time>2026-07-29T05:04:00.716Z</time>
      </trkpt>
      <trkpt lat="45.77772" lon="6.71431">
        <ele>1475</ele>
        <time>2026-07-29T05:04:01.716Z</time>
      </trkpt>
      <trkpt lat="45.77771" lon="6.71431">
        <ele>1476</ele>
        <time>2026-07-29T05:04:02.716Z</time>
      </trkpt>
      <trkpt lat="45.7777" lon="6.71432">
        <ele>1476</ele>
        <time>2026-07-29T05:04:03.716Z</time>
      </trkpt>
      <trkpt lat="45.77769" lon="6.71433">
        <ele>1477</ele>
        <time>2026-07-29T05:04:04.716Z</time>
      </trkpt>
      <trkpt lat="45.77768" lon="6.71433">
        <ele>1477</ele>
        <time>2026-07-29T05:04:05.716Z</time>
      </trkpt>
      <trkpt lat="45.77768" lon="6.71433">
        <ele>1478</ele>
        <time>2026-07-29T05:04:06.716Z</time>
      </trkpt>
      <trkpt lat="45.77767" lon="6.71433">
        <ele>1479</ele>
        <time>2026-07-29T05:04:07.716Z</time>
      </trkpt>
      <trkpt lat="45.77766" lon="6.71434">
        <ele>1479</ele>
        <time>2026-07-29T05:04:08.716Z</time>
      </trkpt>
      <trkpt lat="45.77765" lon="6.71435">
        <ele>1480</ele>
        <time>2026-07-29T05:04:09.716Z</time>
      </trkpt>
      <trkpt lat="45.77764" lon="6.71436">
        <ele>1481</ele>
        <time>2026-07-29T05:04:10.716Z</time>
      </trkpt>
      <trkpt lat="45.77763" lon="6.71437">
        <ele>1482</ele>
        <time>2026-07-29T05:04:11.716Z</time>
      </trkpt>
      <trkpt lat="45.77762" lon="6.71438">
        <ele>1482</ele>
        <time>2026-07-29T05:04:12.716Z</time>
      </trkpt>
      <trkpt lat="45.77761" lon="6.71439">
        <ele>1483</ele>
        <time>2026-07-29T05:04:13.716Z</time>
      </trkpt>
      <trkpt lat="45.7776" lon="6.7144">
        <ele>1484</ele>
        <time>2026-07-29T05:04:14.716Z</time>
      </trkpt>
      <trkpt lat="45.7776" lon="6.71441">
        <ele>1485</ele>
        <time>2026-07-29T05:04:15.716Z</time>
      </trkpt>
      <trkpt lat="45.77759" lon="6.71442">
        <ele>1486</ele>
        <time>2026-07-29T05:04:16.716Z</time>
      </trkpt>
      <trkpt lat="45.77758" lon="6.71443">
        <ele>1486</ele>
        <time>2026-07-29T05:04:17.716Z</time>
      </trkpt>
      <trkpt lat="45.77757" lon="6.71444">
        <ele>1487</ele>
        <time>2026-07-29T05:04:18.716Z</time>
      </trkpt>
      <trkpt lat="45.77755" lon="6.71446">
        <ele>1488</ele>
        <time>2026-07-29T05:04:19.716Z</time>
      </trkpt>
      <trkpt lat="45.77753" lon="6.71446">
        <ele>1488</ele>
        <time>2026-07-29T05:04:20.716Z</time>
      </trkpt>
      <trkpt lat="45.77752" lon="6.71446">
        <ele>1489</ele>
        <time>2026-07-29T05:04:21.716Z</time>
      </trkpt>
      <trkpt lat="45.77751" lon="6.71446">
        <ele>1490</ele>
        <time>2026-07-29T05:04:22.716Z</time>
      </trkpt>
      <trkpt lat="45.7775" lon="6.71446">
        <ele>1490</ele>
        <time>2026-07-29T05:04:23.716Z</time>
      </trkpt>
      <trkpt lat="45.77749" lon="6.71446">
        <ele>1490</ele>
        <time>2026-07-29T05:04:24.716Z</time>
      </trkpt>
      <trkpt lat="45.77748" lon="6.71446">
        <ele>1491</ele>
        <time>2026-07-29T05:04:25.716Z</time>
      </trkpt>
      <trkpt lat="45.77747" lon="6.71446">
        <ele>1491</ele>
        <time>2026-07-29T05:04:26.716Z</time>
      </trkpt>
      <trkpt lat="45.77746" lon="6.71445">
        <ele>1491</ele>
        <time>2026-07-29T05:04:27.716Z</time>
      </trkpt>
      <trkpt lat="45.77745" lon="6.71445">
        <ele>1490</ele>
        <time>2026-07-29T05:04:28.716Z</time>
      </trkpt>
      <trkpt lat="45.77744" lon="6.71445">
        <ele>1490</ele>
        <time>2026-07-29T05:04:29.716Z</time>
      </trkpt>
      <trkpt lat="45.77743" lon="6.71445">
        <ele>1490</ele>
        <time>2026-07-29T05:04:30.716Z</time>
      </trkpt>
      <trkpt lat="45.77742" lon="6.71445">
        <ele>1490</ele>
        <time>2026-07-29T05:04:31.716Z</time>
      </trkpt>
      <trkpt lat="45.77741" lon="6.71445">
        <ele>1490</ele>
        <time>2026-07-29T05:04:32.716Z</time>
      </trkpt>
      <trkpt lat="45.7774" lon="6.71445">
        <ele>1490</ele>
        <time>2026-07-29T05:04:33.716Z</time>
      </trkpt>
      <trkpt lat="45.77739" lon="6.71446">
        <ele>1490</ele>
        <time>2026-07-29T05:04:34.716Z</time>
      </trkpt>
      <trkpt lat="45.77738" lon="6.71447">
        <ele>1491</ele>
        <time>2026-07-29T05:04:35.716Z</time>
      </trkpt>
      <trkpt lat="45.77736" lon="6.71448">
        <ele>1491</ele>
        <time>2026-07-29T05:04:36.716Z</time>
      </trkpt>
      <trkpt lat="45.77735" lon="6.71449">
        <ele>1491</ele>
        <time>2026-07-29T05:04:37.716Z</time>
      </trkpt>
      <trkpt lat="45.77734" lon="6.71451">
        <ele>1492</ele>
        <time>2026-07-29T05:04:38.716Z</time>
      </trkpt>
      <trkpt lat="45.77733" lon="6.71452">
        <ele>1493</ele>
        <time>2026-07-29T05:04:39.716Z</time>
      </trkpt>
      <trkpt lat="45.77733" lon="6.71453">
        <ele>1493</ele>
        <time>2026-07-29T05:04:40.716Z</time>
      </trkpt>
      <trkpt lat="45.77732" lon="6.71454">
        <ele>1494</ele>
        <time>2026-07-29T05:04:41.716Z</time>
      </trkpt>
      <trkpt lat="45.77731" lon="6.71455">
        <ele>1495</ele>
        <time>2026-07-29T05:04:42.716Z</time>
      </trkpt>
      <trkpt lat="45.7773" lon="6.71455">
        <ele>1496</ele>
        <time>2026-07-29T05:04:43.716Z</time>
      </trkpt>
      <trkpt lat="45.77729" lon="6.71456">
        <ele>1496</ele>
        <time>2026-07-29T05:04:44.716Z</time>
      </trkpt>
      <trkpt lat="45.77728" lon="6.71456">
        <ele>1497</ele>
        <time>2026-07-29T05:04:45.716Z</time>
      </trkpt>
      <trkpt lat="45.77727" lon="6.71456">
        <ele>1497</ele>
        <time>2026-07-29T05:04:46.716Z</time>
      </trkpt>
      <trkpt lat="45.77726" lon="6.71457">
        <ele>1498</ele>
        <time>2026-07-29T05:04:47.716Z</time>
      </trkpt>
      <trkpt lat="45.77724" lon="6.71458">
        <ele>1498</ele>
        <time>2026-07-29T05:04:48.716Z</time>
      </trkpt>
      <trkpt lat="45.77722" lon="6.7146">
        <ele>1499</ele>
        <time>2026-07-29T05:04:49.716Z</time>
      </trkpt>
      <trkpt lat="45.77721" lon="6.71461">
        <ele>1499</ele>
        <time>2026-07-29T05:04:50.716Z</time>
      </trkpt>
      <trkpt lat="45.77719" lon="6.71463">
        <ele>1499</ele>
        <time>2026-07-29T05:04:51.716Z</time>
      </trkpt>
      <trkpt lat="45.77717" lon="6.71464">
        <ele>1499</ele>
        <time>2026-07-29T05:04:52.716Z</time>
      </trkpt>
      <trkpt lat="45.77716" lon="6.71466">
        <ele>1499</ele>
        <time>2026-07-29T05:04:53.716Z</time>
      </trkpt>
      <trkpt lat="45.77715" lon="6.71466">
        <ele>1499</ele>
        <time>2026-07-29T05:04:54.716Z</time>
      </trkpt>
      <trkpt lat="45.77714" lon="6.71467">
        <ele>1499</ele>
        <time>2026-07-29T05:04:55.716Z</time>
      </trkpt>
      <trkpt lat="45.77712" lon="6.71467">
        <ele>1499</ele>
        <time>2026-07-29T05:04:56.716Z</time>
      </trkpt>
      <trkpt lat="45.77711" lon="6.71467">
        <ele>1499</ele>
        <time>2026-07-29T05:04:57.716Z</time>
      </trkpt>
      <trkpt lat="45.7771" lon="6.71468">
        <ele>1498</ele>
        <time>2026-07-29T05:04:58.716Z</time>
      </trkpt>
      <trkpt lat="45.77709" lon="6.71469">
        <ele>1498</ele>
        <time>2026-07-29T05:04:59.716Z</time>
      </trkpt>
      <trkpt lat="45.77708" lon="6.7147">
        <ele>1498</ele>
        <time>2026-07-29T05:05:00.716Z</time>
      </trkpt>
      <trkpt lat="45.77708" lon="6.71471">
        <ele>1498</ele>
        <time>2026-07-29T05:05:01.716Z</time>
      </trkpt>
      <trkpt lat="45.77707" lon="6.71472">
        <ele>1498</ele>
        <time>2026-07-29T05:05:02.716Z</time>
      </trkpt>
      <trkpt lat="45.77706" lon="6.71472">
        <ele>1498</ele>
        <time>2026-07-29T05:05:03.716Z</time>
      </trkpt>
      <trkpt lat="45.77705" lon="6.71473">
        <ele>1499</ele>
        <time>2026-07-29T05:05:04.716Z</time>
      </trkpt>
      <trkpt lat="45.77704" lon="6.71474">
        <ele>1498</ele>
        <time>2026-07-29T05:05:05.716Z</time>
      </trkpt>
      <trkpt lat="45.77703" lon="6.71475">
        <ele>1498</ele>
        <time>2026-07-29T05:05:06.716Z</time>
      </trkpt>
      <trkpt lat="45.77702" lon="6.71476">
        <ele>1498</ele>
        <time>2026-07-29T05:05:07.716Z</time>
      </trkpt>
      <trkpt lat="45.77702" lon="6.71478">
        <ele>1498</ele>
        <time>2026-07-29T05:05:08.716Z</time>
      </trkpt>
      <trkpt lat="45.77701" lon="6.71479">
        <ele>1498</ele>
        <time>2026-07-29T05:05:09.716Z</time>
      </trkpt>
      <trkpt lat="45.77701" lon="6.7148">
        <ele>1498</ele>
        <time>2026-07-29T05:05:10.716Z</time>
      </trkpt>
      <trkpt lat="45.777" lon="6.71481">
        <ele>1498</ele>
        <time>2026-07-29T05:05:11.716Z</time>
      </trkpt>
      <trkpt lat="45.77699" lon="6.71482">
        <ele>1499</ele>
        <time>2026-07-29T05:05:12.716Z</time>
      </trkpt>
      <trkpt lat="45.77698" lon="6.71483">
        <ele>1499</ele>
        <time>2026-07-29T05:05:13.716Z</time>
      </trkpt>
      <trkpt lat="45.77697" lon="6.71484">
        <ele>1499</ele>
        <time>2026-07-29T05:05:14.716Z</time>
      </trkpt>
      <trkpt lat="45.77696" lon="6.71484">
        <ele>1499</ele>
        <time>2026-07-29T05:05:15.716Z</time>
      </trkpt>
      <trkpt lat="45.77694" lon="6.71485">
        <ele>1499</ele>
        <time>2026-07-29T05:05:16.716Z</time>
      </trkpt>
      <trkpt lat="45.77694" lon="6.71486">
        <ele>1499</ele>
        <time>2026-07-29T05:05:17.716Z</time>
      </trkpt>
      <trkpt lat="45.77693" lon="6.71487">
        <ele>1499</ele>
        <time>2026-07-29T05:05:18.716Z</time>
      </trkpt>
      <trkpt lat="45.77693" lon="6.71489">
        <ele>1500</ele>
        <time>2026-07-29T05:05:19.716Z</time>
      </trkpt>
      <trkpt lat="45.77692" lon="6.7149">
        <ele>1500</ele>
        <time>2026-07-29T05:05:20.716Z</time>
      </trkpt>
      <trkpt lat="45.77692" lon="6.71491">
        <ele>1500</ele>
        <time>2026-07-29T05:05:21.716Z</time>
      </trkpt>
      <trkpt lat="45.77691" lon="6.71492">
        <ele>1500</ele>
        <time>2026-07-29T05:05:22.716Z</time>
      </trkpt>
      <trkpt lat="45.77691" lon="6.71493">
        <ele>1500</ele>
        <time>2026-07-29T05:05:23.716Z</time>
      </trkpt>
      <trkpt lat="45.7769" lon="6.71494">
        <ele>1499</ele>
        <time>2026-07-29T05:05:24.716Z</time>
      </trkpt>
      <trkpt lat="45.77689" lon="6.71495">
        <ele>1499</ele>
        <time>2026-07-29T05:05:25.716Z</time>
      </trkpt>
      <trkpt lat="45.77688" lon="6.71495">
        <ele>1499</ele>
        <time>2026-07-29T05:05:26.716Z</time>
      </trkpt>
      <trkpt lat="45.77687" lon="6.71496">
        <ele>1499</ele>
        <time>2026-07-29T05:05:27.716Z</time>
      </trkpt>
      <trkpt lat="45.77685" lon="6.71496">
        <ele>1499</ele>
        <time>2026-07-29T05:05:28.716Z</time>
      </trkpt>
      <trkpt lat="45.77684" lon="6.71495">
        <ele>1499</ele>
        <time>2026-07-29T05:05:29.716Z</time>
      </trkpt>
      <trkpt lat="45.77682" lon="6.71495">
        <ele>1499</ele>
        <time>2026-07-29T05:05:30.716Z</time>
      </trkpt>
      <trkpt lat="45.77681" lon="6.71494">
        <ele>1499</ele>
        <time>2026-07-29T05:05:31.716Z</time>
      </trkpt>
      <trkpt lat="45.7768" lon="6.71493">
        <ele>1499</ele>
        <time>2026-07-29T05:05:32.716Z</time>
      </trkpt>
      <trkpt lat="45.77678" lon="6.71493">
        <ele>1500</ele>
        <time>2026-07-29T05:05:33.716Z</time>
      </trkpt>
      <trkpt lat="45.77677" lon="6.71493">
        <ele>1501</ele>
        <time>2026-07-29T05:05:34.716Z</time>
      </trkpt>
      <trkpt lat="45.77676" lon="6.71492">
        <ele>1501</ele>
        <time>2026-07-29T05:05:35.716Z</time>
      </trkpt>
      <trkpt lat="45.77676" lon="6.71493">
        <ele>1501</ele>
        <time>2026-07-29T05:05:36.716Z</time>
      </trkpt>
      <trkpt lat="45.77675" lon="6.71493">
        <ele>1501</ele>
        <time>2026-07-29T05:05:37.716Z</time>
      </trkpt>
      <trkpt lat="45.77673" lon="6.71493">
        <ele>1501</ele>
        <time>2026-07-29T05:05:38.716Z</time>
      </trkpt>
      <trkpt lat="45.77672" lon="6.71493">
        <ele>1501</ele>
        <time>2026-07-29T05:05:39.716Z</time>
      </trkpt>
      <trkpt lat="45.77671" lon="6.71493">
        <ele>1500</ele>
        <time>2026-07-29T05:05:40.716Z</time>
      </trkpt>
      <trkpt lat="45.7767" lon="6.71494">
        <ele>1500</ele>
        <time>2026-07-29T05:05:41.716Z</time>
      </trkpt>
      <trkpt lat="45.77669" lon="6.71494">
        <ele>1500</ele>
        <time>2026-07-29T05:05:42.716Z</time>
      </trkpt>
      <trkpt lat="45.77668" lon="6.71493">
        <ele>1500</ele>
        <time>2026-07-29T05:05:43.716Z</time>
      </trkpt>
      <trkpt lat="45.77668" lon="6.71493">
        <ele>1500</ele>
        <time>2026-07-29T05:05:44.716Z</time>
      </trkpt>
      <trkpt lat="45.77667" lon="6.71493">
        <ele>1500</ele>
        <time>2026-07-29T05:05:45.716Z</time>
      </trkpt>
      <trkpt lat="45.77666" lon="6.71493">
        <ele>1499</ele>
        <time>2026-07-29T05:05:46.716Z</time>
      </trkpt>
      <trkpt lat="45.77665" lon="6.71492">
        <ele>1499</ele>
        <time>2026-07-29T05:05:47.716Z</time>
      </trkpt>
      <trkpt lat="45.77664" lon="6.71492">
        <ele>1499</ele>
        <time>2026-07-29T05:05:48.716Z</time>
      </trkpt>
      <trkpt lat="45.77663" lon="6.71492">
        <ele>1499</ele>
        <time>2026-07-29T05:05:49.716Z</time>
      </trkpt>
      <trkpt lat="45.77662" lon="6.71492">
        <ele>1499</ele>
        <time>2026-07-29T05:05:50.716Z</time>
      </trkpt>
      <trkpt lat="45.77661" lon="6.71492">
        <ele>1499</ele>
        <time>2026-07-29T05:05:51.716Z</time>
      </trkpt>
      <trkpt lat="45.7766" lon="6.71493">
        <ele>1499</ele>
        <time>2026-07-29T05:05:52.716Z</time>
      </trkpt>
      <trkpt lat="45.77659" lon="6.71493">
        <ele>1499</ele>
        <time>2026-07-29T05:05:53.716Z</time>
      </trkpt>
      <trkpt lat="45.77658" lon="6.71493">
        <ele>1499</ele>
        <time>2026-07-29T05:05:54.716Z</time>
      </trkpt>
      <trkpt lat="45.77657" lon="6.71492">
        <ele>1499</ele>
        <time>2026-07-29T05:05:55.716Z</time>
      </trkpt>
      <trkpt lat="45.77656" lon="6.71492">
        <ele>1499</ele>
        <time>2026-07-29T05:05:56.716Z</time>
      </trkpt>
      <trkpt lat="45.77655" lon="6.71492">
        <ele>1499</ele>
        <time>2026-07-29T05:05:57.716Z</time>
      </trkpt>
      <trkpt lat="45.77654" lon="6.71491">
        <ele>1499</ele>
        <time>2026-07-29T05:05:58.716Z</time>
      </trkpt>
      <trkpt lat="45.77652" lon="6.71491">
        <ele>1500</ele>
        <time>2026-07-29T05:05:59.716Z</time>
      </trkpt>
      <trkpt lat="45.77651" lon="6.71491">
        <ele>1500</ele>
        <time>2026-07-29T05:06:00.716Z</time>
      </trkpt>
      <trkpt lat="45.77649" lon="6.71491">
        <ele>1500</ele>
        <time>2026-07-29T05:06:01.716Z</time>
      </trkpt>
      <trkpt lat="45.77648" lon="6.71491">
        <ele>1499</ele>
        <time>2026-07-29T05:06:02.716Z</time>
      </trkpt>
      <trkpt lat="45.77646" lon="6.71491">
        <ele>1499</ele>
        <time>2026-07-29T05:06:03.716Z</time>
      </trkpt>
      <trkpt lat="45.77645" lon="6.71492">
        <ele>1500</ele>
        <time>2026-07-29T05:06:04.716Z</time>
      </trkpt>
      <trkpt lat="45.77643" lon="6.71492">
        <ele>1501</ele>
        <time>2026-07-29T05:06:05.716Z</time>
      </trkpt>
      <trkpt lat="45.77641" lon="6.71493">
        <ele>1501</ele>
        <time>2026-07-29T05:06:06.716Z</time>
      </trkpt>
      <trkpt lat="45.77639" lon="6.71493">
        <ele>1502</ele>
        <time>2026-07-29T05:06:07.716Z</time>
      </trkpt>
      <trkpt lat="45.77638" lon="6.71494">
        <ele>1502</ele>
        <time>2026-07-29T05:06:08.716Z</time>
      </trkpt>
      <trkpt lat="45.77636" lon="6.71495">
        <ele>1503</ele>
        <time>2026-07-29T05:06:09.716Z</time>
      </trkpt>
      <trkpt lat="45.77634" lon="6.71495">
        <ele>1504</ele>
        <time>2026-07-29T05:06:10.716Z</time>
      </trkpt>
      <trkpt lat="45.77633" lon="6.71496">
        <ele>1505</ele>
        <time>2026-07-29T05:06:11.716Z</time>
      </trkpt>
      <trkpt lat="45.77631" lon="6.71497">
        <ele>1505</ele>
        <time>2026-07-29T05:06:12.716Z</time>
      </trkpt>
      <trkpt lat="45.7763" lon="6.71498">
        <ele>1507</ele>
        <time>2026-07-29T05:06:13.716Z</time>
      </trkpt>
      <trkpt lat="45.77628" lon="6.71498">
        <ele>1507</ele>
        <time>2026-07-29T05:06:14.716Z</time>
      </trkpt>
      <trkpt lat="45.77627" lon="6.71498">
        <ele>1508</ele>
        <time>2026-07-29T05:06:15.716Z</time>
      </trkpt>
      <trkpt lat="45.77625" lon="6.71498">
        <ele>1509</ele>
        <time>2026-07-29T05:06:16.716Z</time>
      </trkpt>
      <trkpt lat="45.77623" lon="6.71499">
        <ele>1509</ele>
        <time>2026-07-29T05:06:17.716Z</time>
      </trkpt>
      <trkpt lat="45.77621" lon="6.71499">
        <ele>1509</ele>
        <time>2026-07-29T05:06:18.716Z</time>
      </trkpt>
      <trkpt lat="45.7762" lon="6.715">
        <ele>1509</ele>
        <time>2026-07-29T05:06:19.716Z</time>
      </trkpt>
      <trkpt lat="45.77618" lon="6.71501">
        <ele>1509</ele>
        <time>2026-07-29T05:06:20.716Z</time>
      </trkpt>
      <trkpt lat="45.77616" lon="6.71501">
        <ele>1509</ele>
        <time>2026-07-29T05:06:21.716Z</time>
      </trkpt>
      <trkpt lat="45.77615" lon="6.71502">
        <ele>1509</ele>
        <time>2026-07-29T05:06:22.716Z</time>
      </trkpt>
      <trkpt lat="45.77614" lon="6.71503">
        <ele>1510</ele>
        <time>2026-07-29T05:06:23.716Z</time>
      </trkpt>
      <trkpt lat="45.77613" lon="6.71504">
        <ele>1511</ele>
        <time>2026-07-29T05:06:24.716Z</time>
      </trkpt>
      <trkpt lat="45.77612" lon="6.71505">
        <ele>1512</ele>
        <time>2026-07-29T05:06:25.716Z</time>
      </trkpt>
      <trkpt lat="45.77611" lon="6.71506">
        <ele>1512</ele>
        <time>2026-07-29T05:06:26.716Z</time>
      </trkpt>
      <trkpt lat="45.77609" lon="6.71507">
        <ele>1512</ele>
        <time>2026-07-29T05:06:27.716Z</time>
      </trkpt>
      <trkpt lat="45.77608" lon="6.71507">
        <ele>1512</ele>
        <time>2026-07-29T05:06:28.716Z</time>
      </trkpt>
      <trkpt lat="45.77606" lon="6.71508">
        <ele>1512</ele>
        <time>2026-07-29T05:06:29.716Z</time>
      </trkpt>
      <trkpt lat="45.77604" lon="6.71508">
        <ele>1512</ele>
        <time>2026-07-29T05:06:30.716Z</time>
      </trkpt>
      <trkpt lat="45.77603" lon="6.71509">
        <ele>1512</ele>
        <time>2026-07-29T05:06:31.716Z</time>
      </trkpt>
      <trkpt lat="45.77602" lon="6.71509">
        <ele>1512</ele>
        <time>2026-07-29T05:06:32.716Z</time>
      </trkpt>
      <trkpt lat="45.77601" lon="6.7151">
        <ele>1513</ele>
        <time>2026-07-29T05:06:33.716Z</time>
      </trkpt>
      <trkpt lat="45.776" lon="6.7151">
        <ele>1513</ele>
        <time>2026-07-29T05:06:34.716Z</time>
      </trkpt>
      <trkpt lat="45.77598" lon="6.71511">
        <ele>1513</ele>
        <time>2026-07-29T05:06:35.716Z</time>
      </trkpt>
      <trkpt lat="45.77597" lon="6.71512">
        <ele>1514</ele>
        <time>2026-07-29T05:06:36.716Z</time>
      </trkpt>
      <trkpt lat="45.77595" lon="6.71512">
        <ele>1514</ele>
        <time>2026-07-29T05:06:37.716Z</time>
      </trkpt>
      <trkpt lat="45.77594" lon="6.71512">
        <ele>1514</ele>
        <time>2026-07-29T05:06:38.716Z</time>
      </trkpt>
      <trkpt lat="45.77592" lon="6.71513">
        <ele>1514</ele>
        <time>2026-07-29T05:06:39.716Z</time>
      </trkpt>
      <trkpt lat="45.77591" lon="6.71513">
        <ele>1514</ele>
        <time>2026-07-29T05:06:40.716Z</time>
      </trkpt>
      <trkpt lat="45.77589" lon="6.71514">
        <ele>1515</ele>
        <time>2026-07-29T05:06:41.716Z</time>
      </trkpt>
      <trkpt lat="45.77588" lon="6.71515">
        <ele>1515</ele>
        <time>2026-07-29T05:06:42.716Z</time>
      </trkpt>
      <trkpt lat="45.77586" lon="6.71516">
        <ele>1516</ele>
        <time>2026-07-29T05:06:43.716Z</time>
      </trkpt>
      <trkpt lat="45.77585" lon="6.71517">
        <ele>1517</ele>
        <time>2026-07-29T05:06:44.716Z</time>
      </trkpt>
      <trkpt lat="45.77584" lon="6.71518">
        <ele>1517</ele>
        <time>2026-07-29T05:06:45.716Z</time>
      </trkpt>
      <trkpt lat="45.77582" lon="6.71519">
        <ele>1517</ele>
        <time>2026-07-29T05:06:46.716Z</time>
      </trkpt>
      <trkpt lat="45.77581" lon="6.71519">
        <ele>1517</ele>
        <time>2026-07-29T05:06:47.716Z</time>
      </trkpt>
      <trkpt lat="45.77579" lon="6.7152">
        <ele>1517</ele>
        <time>2026-07-29T05:06:48.716Z</time>
      </trkpt>
      <trkpt lat="45.77578" lon="6.71521">
        <ele>1517</ele>
        <time>2026-07-29T05:06:49.716Z</time>
      </trkpt>
      <trkpt lat="45.77577" lon="6.71523">
        <ele>1517</ele>
        <time>2026-07-29T05:06:50.716Z</time>
      </trkpt>
      <trkpt lat="45.77576" lon="6.71524">
        <ele>1516</ele>
        <time>2026-07-29T05:06:51.716Z</time>
      </trkpt>
      <trkpt lat="45.77575" lon="6.71525">
        <ele>1516</ele>
        <time>2026-07-29T05:06:52.716Z</time>
      </trkpt>
      <trkpt lat="45.77574" lon="6.71527">
        <ele>1516</ele>
        <time>2026-07-29T05:06:53.716Z</time>
      </trkpt>
      <trkpt lat="45.77573" lon="6.71528">
        <ele>1516</ele>
        <time>2026-07-29T05:06:54.716Z</time>
      </trkpt>
      <trkpt lat="45.77572" lon="6.7153">
        <ele>1516</ele>
        <time>2026-07-29T05:06:55.716Z</time>
      </trkpt>
      <trkpt lat="45.77571" lon="6.71532">
        <ele>1516</ele>
        <time>2026-07-29T05:06:56.716Z</time>
      </trkpt>
      <trkpt lat="45.7757" lon="6.71534">
        <ele>1515</ele>
        <time>2026-07-29T05:06:57.716Z</time>
      </trkpt>
      <trkpt lat="45.77569" lon="6.71536">
        <ele>1515</ele>
        <time>2026-07-29T05:06:58.716Z</time>
      </trkpt>
      <trkpt lat="45.77568" lon="6.71537">
        <ele>1515</ele>
        <time>2026-07-29T05:06:59.716Z</time>
      </trkpt>
      <trkpt lat="45.77568" lon="6.71539">
        <ele>1514</ele>
        <time>2026-07-29T05:07:00.716Z</time>
      </trkpt>
      <trkpt lat="45.77567" lon="6.7154">
        <ele>1514</ele>
        <time>2026-07-29T05:07:01.716Z</time>
      </trkpt>
      <trkpt lat="45.77567" lon="6.71542">
        <ele>1514</ele>
        <time>2026-07-29T05:07:02.716Z</time>
      </trkpt>
      <trkpt lat="45.77566" lon="6.71543">
        <ele>1514</ele>
        <time>2026-07-29T05:07:03.716Z</time>
      </trkpt>
      <trkpt lat="45.77565" lon="6.71545">
        <ele>1515</ele>
        <time>2026-07-29T05:07:04.716Z</time>
      </trkpt>
      <trkpt lat="45.77564" lon="6.71546">
        <ele>1515</ele>
        <time>2026-07-29T05:07:05.716Z</time>
      </trkpt>
      <trkpt lat="45.77563" lon="6.71547">
        <ele>1515</ele>
        <time>2026-07-29T05:07:06.716Z</time>
      </trkpt>
      <trkpt lat="45.77562" lon="6.71549">
        <ele>1515</ele>
        <time>2026-07-29T05:07:07.716Z</time>
      </trkpt>
      <trkpt lat="45.77562" lon="6.7155">
        <ele>1515</ele>
        <time>2026-07-29T05:07:08.716Z</time>
      </trkpt>
      <trkpt lat="45.7756" lon="6.71552">
        <ele>1516</ele>
        <time>2026-07-29T05:07:09.716Z</time>
      </trkpt>
      <trkpt lat="45.7756" lon="6.71553">
        <ele>1516</ele>
        <time>2026-07-29T05:07:10.716Z</time>
      </trkpt>
      <trkpt lat="45.7756" lon="6.71554">
        <ele>1517</ele>
        <time>2026-07-29T05:07:11.716Z</time>
      </trkpt>
      <trkpt lat="45.77559" lon="6.71556">
        <ele>1518</ele>
        <time>2026-07-29T05:07:12.716Z</time>
      </trkpt>
      <trkpt lat="45.77558" lon="6.71557">
        <ele>1518</ele>
        <time>2026-07-29T05:07:13.716Z</time>
      </trkpt>
      <trkpt lat="45.77557" lon="6.71558">
        <ele>1518</ele>
        <time>2026-07-29T05:07:14.716Z</time>
      </trkpt>
      <trkpt lat="45.77556" lon="6.71559">
        <ele>1518</ele>
        <time>2026-07-29T05:07:15.716Z</time>
      </trkpt>
      <trkpt lat="45.77555" lon="6.7156">
        <ele>1519</ele>
        <time>2026-07-29T05:07:16.716Z</time>
      </trkpt>
      <trkpt lat="45.77554" lon="6.71561">
        <ele>1519</ele>
        <time>2026-07-29T05:07:17.716Z</time>
      </trkpt>
      <trkpt lat="45.77553" lon="6.71562">
        <ele>1520</ele>
        <time>2026-07-29T05:07:18.716Z</time>
      </trkpt>
      <trkpt lat="45.77553" lon="6.71562">
        <ele>1521</ele>
        <time>2026-07-29T05:07:19.716Z</time>
      </trkpt>
      <trkpt lat="45.77552" lon="6.71563">
        <ele>1521</ele>
        <time>2026-07-29T05:07:20.716Z</time>
      </trkpt>
      <trkpt lat="45.77551" lon="6.71564">
        <ele>1522</ele>
        <time>2026-07-29T05:07:21.716Z</time>
      </trkpt>
      <trkpt lat="45.7755" lon="6.71565">
        <ele>1523</ele>
        <time>2026-07-29T05:07:22.716Z</time>
      </trkpt>
      <trkpt lat="45.77549" lon="6.71566">
        <ele>1524</ele>
        <time>2026-07-29T05:07:23.716Z</time>
      </trkpt>
      <trkpt lat="45.77548" lon="6.71567">
        <ele>1525</ele>
        <time>2026-07-29T05:07:24.716Z</time>
      </trkpt>
      <trkpt lat="45.77547" lon="6.71568">
        <ele>1526</ele>
        <time>2026-07-29T05:07:25.716Z</time>
      </trkpt>
      <trkpt lat="45.77546" lon="6.7157">
        <ele>1527</ele>
        <time>2026-07-29T05:07:26.716Z</time>
      </trkpt>
      <trkpt lat="45.77544" lon="6.71571">
        <ele>1528</ele>
        <time>2026-07-29T05:07:27.716Z</time>
      </trkpt>
      <trkpt lat="45.77544" lon="6.71572">
        <ele>1530</ele>
        <time>2026-07-29T05:07:28.716Z</time>
      </trkpt>
      <trkpt lat="45.77543" lon="6.71574">
        <ele>1531</ele>
        <time>2026-07-29T05:07:29.716Z</time>
      </trkpt>
      <trkpt lat="45.77542" lon="6.71575">
        <ele>1532</ele>
        <time>2026-07-29T05:07:30.716Z</time>
      </trkpt>
      <trkpt lat="45.77541" lon="6.71577">
        <ele>1534</ele>
        <time>2026-07-29T05:07:31.716Z</time>
      </trkpt>
      <trkpt lat="45.7754" lon="6.71578">
        <ele>1535</ele>
        <time>2026-07-29T05:07:32.716Z</time>
      </trkpt>
      <trkpt lat="45.77539" lon="6.71579">
        <ele>1536</ele>
        <time>2026-07-29T05:07:33.716Z</time>
      </trkpt>
      <trkpt lat="45.77539" lon="6.7158">
        <ele>1537</ele>
        <time>2026-07-29T05:07:34.716Z</time>
      </trkpt>
      <trkpt lat="45.77539" lon="6.71581">
        <ele>1537</ele>
        <time>2026-07-29T05:07:35.716Z</time>
      </trkpt>
      <trkpt lat="45.77538" lon="6.71582">
        <ele>1538</ele>
        <time>2026-07-29T05:07:36.716Z</time>
      </trkpt>
      <trkpt lat="45.77537" lon="6.71583">
        <ele>1538</ele>
        <time>2026-07-29T05:07:37.716Z</time>
      </trkpt>
      <trkpt lat="45.77537" lon="6.71584">
        <ele>1537</ele>
        <time>2026-07-29T05:07:38.716Z</time>
      </trkpt>
      <trkpt lat="45.77536" lon="6.71584">
        <ele>1537</ele>
        <time>2026-07-29T05:07:39.716Z</time>
      </trkpt>
      <trkpt lat="45.77535" lon="6.71585">
        <ele>1537</ele>
        <time>2026-07-29T05:07:40.716Z</time>
      </trkpt>
      <trkpt lat="45.77534" lon="6.71586">
        <ele>1537</ele>
        <time>2026-07-29T05:07:41.716Z</time>
      </trkpt>
      <trkpt lat="45.77534" lon="6.71587">
        <ele>1537</ele>
        <time>2026-07-29T05:07:42.716Z</time>
      </trkpt>
      <trkpt lat="45.77532" lon="6.71589">
        <ele>1538</ele>
        <time>2026-07-29T05:07:43.716Z</time>
      </trkpt>
      <trkpt lat="45.77531" lon="6.71589">
        <ele>1538</ele>
        <time>2026-07-29T05:07:44.716Z</time>
      </trkpt>
      <trkpt lat="45.7753" lon="6.7159">
        <ele>1539</ele>
        <time>2026-07-29T05:07:45.716Z</time>
      </trkpt>
      <trkpt lat="45.77529" lon="6.71591">
        <ele>1539</ele>
        <time>2026-07-29T05:07:46.716Z</time>
      </trkpt>
      <trkpt lat="45.77528" lon="6.71592">
        <ele>1540</ele>
        <time>2026-07-29T05:07:47.716Z</time>
      </trkpt>
      <trkpt lat="45.77527" lon="6.71592">
        <ele>1540</ele>
        <time>2026-07-29T05:07:48.716Z</time>
      </trkpt>
      <trkpt lat="45.77526" lon="6.71592">
        <ele>1540</ele>
        <time>2026-07-29T05:07:49.716Z</time>
      </trkpt>
      <trkpt lat="45.77525" lon="6.71592">
        <ele>1540</ele>
        <time>2026-07-29T05:07:50.716Z</time>
      </trkpt>
      <trkpt lat="45.77524" lon="6.71593">
        <ele>1540</ele>
        <time>2026-07-29T05:07:51.716Z</time>
      </trkpt>
      <trkpt lat="45.77523" lon="6.71592">
        <ele>1540</ele>
        <time>2026-07-29T05:07:52.716Z</time>
      </trkpt>
      <trkpt lat="45.77522" lon="6.71592">
        <ele>1539</ele>
        <time>2026-07-29T05:07:53.716Z</time>
      </trkpt>
      <trkpt lat="45.77521" lon="6.71592">
        <ele>1539</ele>
        <time>2026-07-29T05:07:54.716Z</time>
      </trkpt>
      <trkpt lat="45.7752" lon="6.71592">
        <ele>1538</ele>
        <time>2026-07-29T05:07:55.716Z</time>
      </trkpt>
      <trkpt lat="45.77518" lon="6.71591">
        <ele>1537</ele>
        <time>2026-07-29T05:07:56.716Z</time>
      </trkpt>
      <trkpt lat="45.77517" lon="6.71591">
        <ele>1537</ele>
        <time>2026-07-29T05:07:57.716Z</time>
      </trkpt>
      <trkpt lat="45.77516" lon="6.71591">
        <ele>1536</ele>
        <time>2026-07-29T05:07:58.716Z</time>
      </trkpt>
      <trkpt lat="45.77515" lon="6.71591">
        <ele>1536</ele>
        <time>2026-07-29T05:07:59.716Z</time>
      </trkpt>
      <trkpt lat="45.77514" lon="6.7159">
        <ele>1535</ele>
        <time>2026-07-29T05:08:00.716Z</time>
      </trkpt>
      <trkpt lat="45.77513" lon="6.7159">
        <ele>1535</ele>
        <time>2026-07-29T05:08:01.716Z</time>
      </trkpt>
      <trkpt lat="45.77512" lon="6.7159">
        <ele>1534</ele>
        <time>2026-07-29T05:08:02.716Z</time>
      </trkpt>
      <trkpt lat="45.77511" lon="6.7159">
        <ele>1534</ele>
        <time>2026-07-29T05:08:03.716Z</time>
      </trkpt>
      <trkpt lat="45.7751" lon="6.71589">
        <ele>1534</ele>
        <time>2026-07-29T05:08:04.716Z</time>
      </trkpt>
      <trkpt lat="45.77509" lon="6.71589">
        <ele>1533</ele>
        <time>2026-07-29T05:08:05.716Z</time>
      </trkpt>
      <trkpt lat="45.77508" lon="6.71588">
        <ele>1533</ele>
        <time>2026-07-29T05:08:06.716Z</time>
      </trkpt>
      <trkpt lat="45.77507" lon="6.71588">
        <ele>1533</ele>
        <time>2026-07-29T05:08:07.716Z</time>
      </trkpt>
      <trkpt lat="45.77505" lon="6.71588">
        <ele>1533</ele>
        <time>2026-07-29T05:08:08.716Z</time>
      </trkpt>
      <trkpt lat="45.77504" lon="6.71587">
        <ele>1533</ele>
        <time>2026-07-29T05:08:09.716Z</time>
      </trkpt>
      <trkpt lat="45.77503" lon="6.71587">
        <ele>1533</ele>
        <time>2026-07-29T05:08:10.716Z</time>
      </trkpt>
      <trkpt lat="45.77502" lon="6.71587">
        <ele>1533</ele>
        <time>2026-07-29T05:08:11.716Z</time>
      </trkpt>
      <trkpt lat="45.77501" lon="6.71586">
        <ele>1534</ele>
        <time>2026-07-29T05:08:12.716Z</time>
      </trkpt>
      <trkpt lat="45.775" lon="6.71586">
        <ele>1534</ele>
        <time>2026-07-29T05:08:13.716Z</time>
      </trkpt>
      <trkpt lat="45.77499" lon="6.71586">
        <ele>1534</ele>
        <time>2026-07-29T05:08:14.716Z</time>
      </trkpt>
      <trkpt lat="45.77498" lon="6.71586">
        <ele>1534</ele>
        <time>2026-07-29T05:08:15.716Z</time>
      </trkpt>
      <trkpt lat="45.77497" lon="6.71586">
        <ele>1534</ele>
        <time>2026-07-29T05:08:16.716Z</time>
      </trkpt>
      <trkpt lat="45.77496" lon="6.71586">
        <ele>1534</ele>
        <time>2026-07-29T05:08:17.716Z</time>
      </trkpt>
      <trkpt lat="45.77495" lon="6.71585">
        <ele>1534</ele>
        <time>2026-07-29T05:08:18.716Z</time>
      </trkpt>
      <trkpt lat="45.77494" lon="6.71585">
        <ele>1535</ele>
        <time>2026-07-29T05:08:19.716Z</time>
      </trkpt>
      <trkpt lat="45.77493" lon="6.71585">
        <ele>1535</ele>
        <time>2026-07-29T05:08:20.716Z</time>
      </trkpt>
      <trkpt lat="45.77492" lon="6.71585">
        <ele>1535</ele>
        <time>2026-07-29T05:08:21.716Z</time>
      </trkpt>
      <trkpt lat="45.77491" lon="6.71584">
        <ele>1535</ele>
        <time>2026-07-29T05:08:22.716Z</time>
      </trkpt>
      <trkpt lat="45.7749" lon="6.71584">
        <ele>1536</ele>
        <time>2026-07-29T05:08:23.716Z</time>
      </trkpt>
      <trkpt lat="45.77488" lon="6.71584">
        <ele>1536</ele>
        <time>2026-07-29T05:08:24.716Z</time>
      </trkpt>
      <trkpt lat="45.77487" lon="6.71584">
        <ele>1536</ele>
        <time>2026-07-29T05:08:25.716Z</time>
      </trkpt>
      <trkpt lat="45.77486" lon="6.71584">
        <ele>1537</ele>
        <time>2026-07-29T05:08:26.716Z</time>
      </trkpt>
      <trkpt lat="45.77484" lon="6.71584">
        <ele>1537</ele>
        <time>2026-07-29T05:08:27.716Z</time>
      </trkpt>
      <trkpt lat="45.77483" lon="6.71584">
        <ele>1537</ele>
        <time>2026-07-29T05:08:28.716Z</time>
      </trkpt>
      <trkpt lat="45.77481" lon="6.71584">
        <ele>1537</ele>
        <time>2026-07-29T05:08:29.716Z</time>
      </trkpt>
      <trkpt lat="45.7748" lon="6.71584">
        <ele>1538</ele>
        <time>2026-07-29T05:08:30.716Z</time>
      </trkpt>
      <trkpt lat="45.77478" lon="6.71584">
        <ele>1538</ele>
        <time>2026-07-29T05:08:31.716Z</time>
      </trkpt>
      <trkpt lat="45.77477" lon="6.71584">
        <ele>1538</ele>
        <time>2026-07-29T05:08:32.716Z</time>
      </trkpt>
      <trkpt lat="45.77475" lon="6.71584">
        <ele>1538</ele>
        <time>2026-07-29T05:08:33.716Z</time>
      </trkpt>
      <trkpt lat="45.77473" lon="6.71584">
        <ele>1538</ele>
        <time>2026-07-29T05:08:34.716Z</time>
      </trkpt>
      <trkpt lat="45.77472" lon="6.71584">
        <ele>1539</ele>
        <time>2026-07-29T05:08:35.716Z</time>
      </trkpt>
      <trkpt lat="45.7747" lon="6.71584">
        <ele>1539</ele>
        <time>2026-07-29T05:08:36.716Z</time>
      </trkpt>
      <trkpt lat="45.77469" lon="6.71584">
        <ele>1539</ele>
        <time>2026-07-29T05:08:37.716Z</time>
      </trkpt>
      <trkpt lat="45.77467" lon="6.71584">
        <ele>1539</ele>
        <time>2026-07-29T05:08:38.716Z</time>
      </trkpt>
      <trkpt lat="45.77465" lon="6.71583">
        <ele>1539</ele>
        <time>2026-07-29T05:08:39.716Z</time>
      </trkpt>
      <trkpt lat="45.77464" lon="6.71583">
        <ele>1539</ele>
        <time>2026-07-29T05:08:40.716Z</time>
      </trkpt>
      <trkpt lat="45.77463" lon="6.71583">
        <ele>1539</ele>
        <time>2026-07-29T05:08:41.716Z</time>
      </trkpt>
      <trkpt lat="45.77461" lon="6.71583">
        <ele>1539</ele>
        <time>2026-07-29T05:08:42.716Z</time>
      </trkpt>
      <trkpt lat="45.77459" lon="6.71583">
        <ele>1539</ele>
        <time>2026-07-29T05:08:43.716Z</time>
      </trkpt>
      <trkpt lat="45.77458" lon="6.71583">
        <ele>1540</ele>
        <time>2026-07-29T05:08:44.716Z</time>
      </trkpt>
      <trkpt lat="45.77457" lon="6.71583">
        <ele>1540</ele>
        <time>2026-07-29T05:08:45.716Z</time>
      </trkpt>
      <trkpt lat="45.77455" lon="6.71583">
        <ele>1540</ele>
        <time>2026-07-29T05:08:46.716Z</time>
      </trkpt>
      <trkpt lat="45.77454" lon="6.71583">
        <ele>1541</ele>
        <time>2026-07-29T05:08:47.716Z</time>
      </trkpt>
      <trkpt lat="45.77452" lon="6.71583">
        <ele>1542</ele>
        <time>2026-07-29T05:08:48.716Z</time>
      </trkpt>
      <trkpt lat="45.77451" lon="6.71583">
        <ele>1542</ele>
        <time>2026-07-29T05:08:49.716Z</time>
      </trkpt>
      <trkpt lat="45.77449" lon="6.71584">
        <ele>1543</ele>
        <time>2026-07-29T05:08:50.716Z</time>
      </trkpt>
      <trkpt lat="45.77448" lon="6.71584">
        <ele>1543</ele>
        <time>2026-07-29T05:08:51.716Z</time>
      </trkpt>
      <trkpt lat="45.77446" lon="6.71584">
        <ele>1544</ele>
        <time>2026-07-29T05:08:52.716Z</time>
      </trkpt>
      <trkpt lat="45.77445" lon="6.71585">
        <ele>1544</ele>
        <time>2026-07-29T05:08:53.716Z</time>
      </trkpt>
      <trkpt lat="45.77443" lon="6.71586">
        <ele>1544</ele>
        <time>2026-07-29T05:08:54.716Z</time>
      </trkpt>
      <trkpt lat="45.77442" lon="6.71587">
        <ele>1545</ele>
        <time>2026-07-29T05:08:55.716Z</time>
      </trkpt>
      <trkpt lat="45.77441" lon="6.71588">
        <ele>1546</ele>
        <time>2026-07-29T05:08:56.716Z</time>
      </trkpt>
      <trkpt lat="45.7744" lon="6.71589">
        <ele>1546</ele>
        <time>2026-07-29T05:08:57.716Z</time>
      </trkpt>
      <trkpt lat="45.77438" lon="6.7159">
        <ele>1547</ele>
        <time>2026-07-29T05:08:58.716Z</time>
      </trkpt>
      <trkpt lat="45.77437" lon="6.71592">
        <ele>1547</ele>
        <time>2026-07-29T05:08:59.716Z</time>
      </trkpt>
      <trkpt lat="45.77435" lon="6.71593">
        <ele>1548</ele>
        <time>2026-07-29T05:09:00.716Z</time>
      </trkpt>
      <trkpt lat="45.77434" lon="6.71593">
        <ele>1548</ele>
        <time>2026-07-29T05:09:01.716Z</time>
      </trkpt>
      <trkpt lat="45.77432" lon="6.71595">
        <ele>1549</ele>
        <time>2026-07-29T05:09:02.716Z</time>
      </trkpt>
      <trkpt lat="45.77431" lon="6.71596">
        <ele>1549</ele>
        <time>2026-07-29T05:09:03.716Z</time>
      </trkpt>
      <trkpt lat="45.77429" lon="6.71597">
        <ele>1550</ele>
        <time>2026-07-29T05:09:04.716Z</time>
      </trkpt>
      <trkpt lat="45.77427" lon="6.71598">
        <ele>1550</ele>
        <time>2026-07-29T05:09:05.716Z</time>
      </trkpt>
      <trkpt lat="45.77426" lon="6.716">
        <ele>1551</ele>
        <time>2026-07-29T05:09:06.716Z</time>
      </trkpt>
      <trkpt lat="45.77424" lon="6.71601">
        <ele>1551</ele>
        <time>2026-07-29T05:09:07.716Z</time>
      </trkpt>
      <trkpt lat="45.77423" lon="6.71602">
        <ele>1551</ele>
        <time>2026-07-29T05:09:08.716Z</time>
      </trkpt>
      <trkpt lat="45.77421" lon="6.71603">
        <ele>1551</ele>
        <time>2026-07-29T05:09:09.716Z</time>
      </trkpt>
      <trkpt lat="45.7742" lon="6.71604">
        <ele>1551</ele>
        <time>2026-07-29T05:09:10.716Z</time>
      </trkpt>
      <trkpt lat="45.77418" lon="6.71605">
        <ele>1551</ele>
        <time>2026-07-29T05:09:11.716Z</time>
      </trkpt>
      <trkpt lat="45.77416" lon="6.71606">
        <ele>1550</ele>
        <time>2026-07-29T05:09:12.716Z</time>
      </trkpt>
      <trkpt lat="45.77415" lon="6.71606">
        <ele>1550</ele>
        <time>2026-07-29T05:09:13.716Z</time>
      </trkpt>
      <trkpt lat="45.77413" lon="6.71605">
        <ele>1550</ele>
        <time>2026-07-29T05:09:14.716Z</time>
      </trkpt>
      <trkpt lat="45.77412" lon="6.71605">
        <ele>1549</ele>
        <time>2026-07-29T05:09:15.716Z</time>
      </trkpt>
      <trkpt lat="45.7741" lon="6.71605">
        <ele>1549</ele>
        <time>2026-07-29T05:09:16.716Z</time>
      </trkpt>
      <trkpt lat="45.77408" lon="6.71604">
        <ele>1549</ele>
        <time>2026-07-29T05:09:17.716Z</time>
      </trkpt>
      <trkpt lat="45.77406" lon="6.71604">
        <ele>1549</ele>
        <time>2026-07-29T05:09:18.716Z</time>
      </trkpt>
      <trkpt lat="45.77404" lon="6.71604">
        <ele>1549</ele>
        <time>2026-07-29T05:09:19.716Z</time>
      </trkpt>
      <trkpt lat="45.77402" lon="6.71604">
        <ele>1548</ele>
        <time>2026-07-29T05:09:20.716Z</time>
      </trkpt>
      <trkpt lat="45.77401" lon="6.71604">
        <ele>1549</ele>
        <time>2026-07-29T05:09:21.716Z</time>
      </trkpt>
      <trkpt lat="45.77399" lon="6.71603">
        <ele>1549</ele>
        <time>2026-07-29T05:09:22.716Z</time>
      </trkpt>
      <trkpt lat="45.77398" lon="6.71603">
        <ele>1549</ele>
        <time>2026-07-29T05:09:23.716Z</time>
      </trkpt>
      <trkpt lat="45.77396" lon="6.71603">
        <ele>1549</ele>
        <time>2026-07-29T05:09:24.716Z</time>
      </trkpt>
      <trkpt lat="45.77394" lon="6.71602">
        <ele>1548</ele>
        <time>2026-07-29T05:09:25.716Z</time>
      </trkpt>
      <trkpt lat="45.77392" lon="6.71601">
        <ele>1548</ele>
        <time>2026-07-29T05:09:26.716Z</time>
      </trkpt>
      <trkpt lat="45.7739" lon="6.716">
        <ele>1547</ele>
        <time>2026-07-29T05:09:27.716Z</time>
      </trkpt>
      <trkpt lat="45.77389" lon="6.716">
        <ele>1547</ele>
        <time>2026-07-29T05:09:28.716Z</time>
      </trkpt>
      <trkpt lat="45.77387" lon="6.716">
        <ele>1547</ele>
        <time>2026-07-29T05:09:29.716Z</time>
      </trkpt>
      <trkpt lat="45.77386" lon="6.716">
        <ele>1547</ele>
        <time>2026-07-29T05:09:30.716Z</time>
      </trkpt>
      <trkpt lat="45.77384" lon="6.71599">
        <ele>1546</ele>
        <time>2026-07-29T05:09:31.716Z</time>
      </trkpt>
      <trkpt lat="45.77382" lon="6.71599">
        <ele>1546</ele>
        <time>2026-07-29T05:09:32.716Z</time>
      </trkpt>
      <trkpt lat="45.7738" lon="6.71599">
        <ele>1545</ele>
        <time>2026-07-29T05:09:33.716Z</time>
      </trkpt>
      <trkpt lat="45.77378" lon="6.71599">
        <ele>1545</ele>
        <time>2026-07-29T05:09:34.716Z</time>
      </trkpt>
      <trkpt lat="45.77377" lon="6.71599">
        <ele>1545</ele>
        <time>2026-07-29T05:09:35.716Z</time>
      </trkpt>
      <trkpt lat="45.77375" lon="6.71599">
        <ele>1545</ele>
        <time>2026-07-29T05:09:36.716Z</time>
      </trkpt>
      <trkpt lat="45.77373" lon="6.71599">
        <ele>1545</ele>
        <time>2026-07-29T05:09:37.716Z</time>
      </trkpt>
      <trkpt lat="45.77372" lon="6.71599">
        <ele>1545</ele>
        <time>2026-07-29T05:09:38.716Z</time>
      </trkpt>
      <trkpt lat="45.7737" lon="6.71599">
        <ele>1546</ele>
        <time>2026-07-29T05:09:39.716Z</time>
      </trkpt>
      <trkpt lat="45.77368" lon="6.716">
        <ele>1546</ele>
        <time>2026-07-29T05:09:40.716Z</time>
      </trkpt>
      <trkpt lat="45.77367" lon="6.71601">
        <ele>1546</ele>
        <time>2026-07-29T05:09:41.716Z</time>
      </trkpt>
      <trkpt lat="45.77365" lon="6.71602">
        <ele>1546</ele>
        <time>2026-07-29T05:09:42.716Z</time>
      </trkpt>
      <trkpt lat="45.77363" lon="6.71603">
        <ele>1546</ele>
        <time>2026-07-29T05:09:43.716Z</time>
      </trkpt>
      <trkpt lat="45.77362" lon="6.71603">
        <ele>1546</ele>
        <time>2026-07-29T05:09:44.716Z</time>
      </trkpt>
      <trkpt lat="45.7736" lon="6.71603">
        <ele>1546</ele>
        <time>2026-07-29T05:09:45.716Z</time>
      </trkpt>
      <trkpt lat="45.77359" lon="6.71604">
        <ele>1547</ele>
        <time>2026-07-29T05:09:46.716Z</time>
      </trkpt>
      <trkpt lat="45.77357" lon="6.71603">
        <ele>1547</ele>
        <time>2026-07-29T05:09:47.716Z</time>
      </trkpt>
      <trkpt lat="45.77355" lon="6.71603">
        <ele>1547</ele>
        <time>2026-07-29T05:09:48.716Z</time>
      </trkpt>
      <trkpt lat="45.77354" lon="6.71602">
        <ele>1547</ele>
        <time>2026-07-29T05:09:49.716Z</time>
      </trkpt>
      <trkpt lat="45.77352" lon="6.71601">
        <ele>1547</ele>
        <time>2026-07-29T05:09:50.716Z</time>
      </trkpt>
      <trkpt lat="45.77351" lon="6.71601">
        <ele>1547</ele>
        <time>2026-07-29T05:09:51.716Z</time>
      </trkpt>
      <trkpt lat="45.77349" lon="6.716">
        <ele>1547</ele>
        <time>2026-07-29T05:09:52.716Z</time>
      </trkpt>
      <trkpt lat="45.77347" lon="6.716">
        <ele>1548</ele>
        <time>2026-07-29T05:09:53.716Z</time>
      </trkpt>
      <trkpt lat="45.77346" lon="6.71599">
        <ele>1548</ele>
        <time>2026-07-29T05:09:54.716Z</time>
      </trkpt>
      <trkpt lat="45.77344" lon="6.71599">
        <ele>1549</ele>
        <time>2026-07-29T05:09:55.716Z</time>
      </trkpt>
      <trkpt lat="45.77343" lon="6.71598">
        <ele>1549</ele>
        <time>2026-07-29T05:09:56.716Z</time>
      </trkpt>
      <trkpt lat="45.77342" lon="6.71597">
        <ele>1550</ele>
        <time>2026-07-29T05:09:57.716Z</time>
      </trkpt>
      <trkpt lat="45.77341" lon="6.71596">
        <ele>1550</ele>
        <time>2026-07-29T05:09:58.716Z</time>
      </trkpt>
      <trkpt lat="45.7734" lon="6.71595">
        <ele>1550</ele>
        <time>2026-07-29T05:09:59.716Z</time>
      </trkpt>
      <trkpt lat="45.7734" lon="6.71595">
        <ele>1551</ele>
        <time>2026-07-29T05:10:00.716Z</time>
      </trkpt>
      <trkpt lat="45.77339" lon="6.71595">
        <ele>1551</ele>
        <time>2026-07-29T05:10:01.716Z</time>
      </trkpt>
      <trkpt lat="45.77338" lon="6.71595">
        <ele>1551</ele>
        <time>2026-07-29T05:10:02.716Z</time>
      </trkpt>
      <trkpt lat="45.77337" lon="6.71595">
        <ele>1551</ele>
        <time>2026-07-29T05:10:03.716Z</time>
      </trkpt>
      <trkpt lat="45.77336" lon="6.71594">
        <ele>1551</ele>
        <time>2026-07-29T05:10:04.716Z</time>
      </trkpt>
      <trkpt lat="45.77334" lon="6.71594">
        <ele>1551</ele>
        <time>2026-07-29T05:10:05.716Z</time>
      </trkpt>
      <trkpt lat="45.77332" lon="6.71593">
        <ele>1551</ele>
        <time>2026-07-29T05:10:06.716Z</time>
      </trkpt>
      <trkpt lat="45.77331" lon="6.71593">
        <ele>1551</ele>
        <time>2026-07-29T05:10:07.716Z</time>
      </trkpt>
      <trkpt lat="45.77329" lon="6.71593">
        <ele>1551</ele>
        <time>2026-07-29T05:10:08.716Z</time>
      </trkpt>
      <trkpt lat="45.77327" lon="6.71592">
        <ele>1551</ele>
        <time>2026-07-29T05:10:09.716Z</time>
      </trkpt>
      <trkpt lat="45.77325" lon="6.71592">
        <ele>1551</ele>
        <time>2026-07-29T05:10:10.716Z</time>
      </trkpt>
      <trkpt lat="45.77324" lon="6.71591">
        <ele>1551</ele>
        <time>2026-07-29T05:10:11.716Z</time>
      </trkpt>
      <trkpt lat="45.77322" lon="6.7159">
        <ele>1552</ele>
        <time>2026-07-29T05:10:12.716Z</time>
      </trkpt>
      <trkpt lat="45.77321" lon="6.71589">
        <ele>1552</ele>
        <time>2026-07-29T05:10:13.716Z</time>
      </trkpt>
      <trkpt lat="45.7732" lon="6.71588">
        <ele>1552</ele>
        <time>2026-07-29T05:10:14.716Z</time>
      </trkpt>
      <trkpt lat="45.77318" lon="6.71587">
        <ele>1551</ele>
        <time>2026-07-29T05:10:15.716Z</time>
      </trkpt>
      <trkpt lat="45.77316" lon="6.71587">
        <ele>1551</ele>
        <time>2026-07-29T05:10:16.716Z</time>
      </trkpt>
      <trkpt lat="45.77315" lon="6.71586">
        <ele>1551</ele>
        <time>2026-07-29T05:10:17.716Z</time>
      </trkpt>
      <trkpt lat="45.77313" lon="6.71585">
        <ele>1551</ele>
        <time>2026-07-29T05:10:18.716Z</time>
      </trkpt>
      <trkpt lat="45.77312" lon="6.71585">
        <ele>1552</ele>
        <time>2026-07-29T05:10:19.716Z</time>
      </trkpt>
      <trkpt lat="45.7731" lon="6.71584">
        <ele>1552</ele>
        <time>2026-07-29T05:10:20.716Z</time>
      </trkpt>
      <trkpt lat="45.77309" lon="6.71584">
        <ele>1552</ele>
        <time>2026-07-29T05:10:21.716Z</time>
      </trkpt>
      <trkpt lat="45.77307" lon="6.71583">
        <ele>1552</ele>
        <time>2026-07-29T05:10:22.716Z</time>
      </trkpt>
      <trkpt lat="45.77305" lon="6.71583">
        <ele>1552</ele>
        <time>2026-07-29T05:10:23.716Z</time>
      </trkpt>
      <trkpt lat="45.77304" lon="6.71582">
        <ele>1553</ele>
        <time>2026-07-29T05:10:24.716Z</time>
      </trkpt>
      <trkpt lat="45.77302" lon="6.71581">
        <ele>1552</ele>
        <time>2026-07-29T05:10:25.716Z</time>
      </trkpt>
      <trkpt lat="45.773" lon="6.71581">
        <ele>1552</ele>
        <time>2026-07-29T05:10:26.716Z</time>
      </trkpt>
      <trkpt lat="45.77299" lon="6.7158">
        <ele>1552</ele>
        <time>2026-07-29T05:10:27.716Z</time>
      </trkpt>
      <trkpt lat="45.77297" lon="6.7158">
        <ele>1552</ele>
        <time>2026-07-29T05:10:28.716Z</time>
      </trkpt>
      <trkpt lat="45.77296" lon="6.7158">
        <ele>1552</ele>
        <time>2026-07-29T05:10:29.716Z</time>
      </trkpt>
      <trkpt lat="45.77294" lon="6.71579">
        <ele>1552</ele>
        <time>2026-07-29T05:10:30.716Z</time>
      </trkpt>
      <trkpt lat="45.77293" lon="6.71578">
        <ele>1552</ele>
        <time>2026-07-29T05:10:31.716Z</time>
      </trkpt>
      <trkpt lat="45.77291" lon="6.71578">
        <ele>1552</ele>
        <time>2026-07-29T05:10:32.716Z</time>
      </trkpt>
      <trkpt lat="45.77289" lon="6.71577">
        <ele>1552</ele>
        <time>2026-07-29T05:10:33.716Z</time>
      </trkpt>
      <trkpt lat="45.77288" lon="6.71577">
        <ele>1551</ele>
        <time>2026-07-29T05:10:34.716Z</time>
      </trkpt>
      <trkpt lat="45.77286" lon="6.71576">
        <ele>1551</ele>
        <time>2026-07-29T05:10:35.716Z</time>
      </trkpt>
      <trkpt lat="45.77284" lon="6.71576">
        <ele>1551</ele>
        <time>2026-07-29T05:10:36.716Z</time>
      </trkpt>
      <trkpt lat="45.77283" lon="6.71575">
        <ele>1551</ele>
        <time>2026-07-29T05:10:37.716Z</time>
      </trkpt>
      <trkpt lat="45.77281" lon="6.71575">
        <ele>1551</ele>
        <time>2026-07-29T05:10:38.716Z</time>
      </trkpt>
      <trkpt lat="45.77279" lon="6.71575">
        <ele>1551</ele>
        <time>2026-07-29T05:10:39.716Z</time>
      </trkpt>
      <trkpt lat="45.77278" lon="6.71574">
        <ele>1551</ele>
        <time>2026-07-29T05:10:40.716Z</time>
      </trkpt>
      <trkpt lat="45.77276" lon="6.71573">
        <ele>1552</ele>
        <time>2026-07-29T05:10:41.716Z</time>
      </trkpt>
      <trkpt lat="45.77274" lon="6.71573">
        <ele>1552</ele>
        <time>2026-07-29T05:10:42.716Z</time>
      </trkpt>
      <trkpt lat="45.77272" lon="6.71573">
        <ele>1552</ele>
        <time>2026-07-29T05:10:43.716Z</time>
      </trkpt>
      <trkpt lat="45.7727" lon="6.71572">
        <ele>1552</ele>
        <time>2026-07-29T05:10:44.716Z</time>
      </trkpt>
      <trkpt lat="45.77269" lon="6.71572">
        <ele>1552</ele>
        <time>2026-07-29T05:10:45.716Z</time>
      </trkpt>
      <trkpt lat="45.77267" lon="6.71572">
        <ele>1552</ele>
        <time>2026-07-29T05:10:46.716Z</time>
      </trkpt>
      <trkpt lat="45.77265" lon="6.71573">
        <ele>1552</ele>
        <time>2026-07-29T05:10:47.716Z</time>
      </trkpt>
      <trkpt lat="45.77263" lon="6.71574">
        <ele>1552</ele>
        <time>2026-07-29T05:10:48.716Z</time>
      </trkpt>
      <trkpt lat="45.77262" lon="6.71574">
        <ele>1552</ele>
        <time>2026-07-29T05:10:49.716Z</time>
      </trkpt>
      <trkpt lat="45.7726" lon="6.71574">
        <ele>1552</ele>
        <time>2026-07-29T05:10:50.716Z</time>
      </trkpt>
      <trkpt lat="45.77258" lon="6.71575">
        <ele>1552</ele>
        <time>2026-07-29T05:10:51.716Z</time>
      </trkpt>
      <trkpt lat="45.77255" lon="6.71575">
        <ele>1553</ele>
        <time>2026-07-29T05:10:52.716Z</time>
      </trkpt>
      <trkpt lat="45.77254" lon="6.71575">
        <ele>1553</ele>
        <time>2026-07-29T05:10:53.716Z</time>
      </trkpt>
      <trkpt lat="45.77252" lon="6.71575">
        <ele>1553</ele>
        <time>2026-07-29T05:10:54.716Z</time>
      </trkpt>
      <trkpt lat="45.7725" lon="6.71575">
        <ele>1554</ele>
        <time>2026-07-29T05:10:55.716Z</time>
      </trkpt>
      <trkpt lat="45.77248" lon="6.71576">
        <ele>1554</ele>
        <time>2026-07-29T05:10:56.716Z</time>
      </trkpt>
      <trkpt lat="45.77246" lon="6.71576">
        <ele>1554</ele>
        <time>2026-07-29T05:10:57.716Z</time>
      </trkpt>
      <trkpt lat="45.77243" lon="6.71576">
        <ele>1554</ele>
        <time>2026-07-29T05:10:58.716Z</time>
      </trkpt>
      <trkpt lat="45.77241" lon="6.71577">
        <ele>1554</ele>
        <time>2026-07-29T05:10:59.716Z</time>
      </trkpt>
      <trkpt lat="45.77239" lon="6.71576">
        <ele>1554</ele>
        <time>2026-07-29T05:11:00.716Z</time>
      </trkpt>
      <trkpt lat="45.77238" lon="6.71576">
        <ele>1554</ele>
        <time>2026-07-29T05:11:01.716Z</time>
      </trkpt>
      <trkpt lat="45.77236" lon="6.71576">
        <ele>1554</ele>
        <time>2026-07-29T05:11:02.716Z</time>
      </trkpt>
      <trkpt lat="45.77234" lon="6.71577">
        <ele>1554</ele>
        <time>2026-07-29T05:11:03.716Z</time>
      </trkpt>
      <trkpt lat="45.77232" lon="6.71576">
        <ele>1554</ele>
        <time>2026-07-29T05:11:04.716Z</time>
      </trkpt>
      <trkpt lat="45.7723" lon="6.71576">
        <ele>1554</ele>
        <time>2026-07-29T05:11:05.716Z</time>
      </trkpt>
      <trkpt lat="45.77228" lon="6.71576">
        <ele>1553</ele>
        <time>2026-07-29T05:11:06.716Z</time>
      </trkpt>
      <trkpt lat="45.77226" lon="6.71576">
        <ele>1553</ele>
        <time>2026-07-29T05:11:07.716Z</time>
      </trkpt>
      <trkpt lat="45.77225" lon="6.71576">
        <ele>1553</ele>
        <time>2026-07-29T05:11:08.716Z</time>
      </trkpt>
      <trkpt lat="45.77222" lon="6.71576">
        <ele>1553</ele>
        <time>2026-07-29T05:11:09.716Z</time>
      </trkpt>
      <trkpt lat="45.7722" lon="6.71577">
        <ele>1552</ele>
        <time>2026-07-29T05:11:10.716Z</time>
      </trkpt>
      <trkpt lat="45.77219" lon="6.71577">
        <ele>1552</ele>
        <time>2026-07-29T05:11:11.716Z</time>
      </trkpt>
      <trkpt lat="45.77217" lon="6.71577">
        <ele>1553</ele>
        <time>2026-07-29T05:11:12.716Z</time>
      </trkpt>
      <trkpt lat="45.77216" lon="6.71579">
        <ele>1553</ele>
        <time>2026-07-29T05:11:13.716Z</time>
      </trkpt>
      <trkpt lat="45.77214" lon="6.71579">
        <ele>1554</ele>
        <time>2026-07-29T05:11:14.716Z</time>
      </trkpt>
      <trkpt lat="45.77212" lon="6.7158">
        <ele>1554</ele>
        <time>2026-07-29T05:11:15.716Z</time>
      </trkpt>
      <trkpt lat="45.7721" lon="6.71581">
        <ele>1554</ele>
        <time>2026-07-29T05:11:16.716Z</time>
      </trkpt>
      <trkpt lat="45.77209" lon="6.71581">
        <ele>1555</ele>
        <time>2026-07-29T05:11:17.716Z</time>
      </trkpt>
      <trkpt lat="45.77207" lon="6.71582">
        <ele>1555</ele>
        <time>2026-07-29T05:11:18.716Z</time>
      </trkpt>
      <trkpt lat="45.77205" lon="6.71582">
        <ele>1555</ele>
        <time>2026-07-29T05:11:19.716Z</time>
      </trkpt>
      <trkpt lat="45.77203" lon="6.71582">
        <ele>1555</ele>
        <time>2026-07-29T05:11:20.716Z</time>
      </trkpt>
      <trkpt lat="45.77201" lon="6.71582">
        <ele>1555</ele>
        <time>2026-07-29T05:11:21.716Z</time>
      </trkpt>
      <trkpt lat="45.77199" lon="6.71582">
        <ele>1555</ele>
        <time>2026-07-29T05:11:22.716Z</time>
      </trkpt>
      <trkpt lat="45.77198" lon="6.71582">
        <ele>1556</ele>
        <time>2026-07-29T05:11:23.716Z</time>
      </trkpt>
      <trkpt lat="45.77196" lon="6.71582">
        <ele>1556</ele>
        <time>2026-07-29T05:11:24.716Z</time>
      </trkpt>
      <trkpt lat="45.77194" lon="6.71582">
        <ele>1557</ele>
        <time>2026-07-29T05:11:25.716Z</time>
      </trkpt>
      <trkpt lat="45.77192" lon="6.71582">
        <ele>1557</ele>
        <time>2026-07-29T05:11:26.716Z</time>
      </trkpt>
      <trkpt lat="45.77191" lon="6.71581">
        <ele>1557</ele>
        <time>2026-07-29T05:11:27.716Z</time>
      </trkpt>
      <trkpt lat="45.77189" lon="6.71581">
        <ele>1557</ele>
        <time>2026-07-29T05:11:28.716Z</time>
      </trkpt>
      <trkpt lat="45.77187" lon="6.71581">
        <ele>1557</ele>
        <time>2026-07-29T05:11:29.716Z</time>
      </trkpt>
      <trkpt lat="45.77186" lon="6.71581">
        <ele>1558</ele>
        <time>2026-07-29T05:11:30.716Z</time>
      </trkpt>
      <trkpt lat="45.77184" lon="6.71581">
        <ele>1558</ele>
        <time>2026-07-29T05:11:31.716Z</time>
      </trkpt>
      <trkpt lat="45.77182" lon="6.71581">
        <ele>1559</ele>
        <time>2026-07-29T05:11:32.716Z</time>
      </trkpt>
      <trkpt lat="45.7718" lon="6.71581">
        <ele>1559</ele>
        <time>2026-07-29T05:11:33.716Z</time>
      </trkpt>
      <trkpt lat="45.77179" lon="6.71581">
        <ele>1559</ele>
        <time>2026-07-29T05:11:34.716Z</time>
      </trkpt>
      <trkpt lat="45.77177" lon="6.71581">
        <ele>1560</ele>
        <time>2026-07-29T05:11:35.716Z</time>
      </trkpt>
      <trkpt lat="45.77175" lon="6.7158">
        <ele>1560</ele>
        <time>2026-07-29T05:11:36.716Z</time>
      </trkpt>
      <trkpt lat="45.77174" lon="6.7158">
        <ele>1560</ele>
        <time>2026-07-29T05:11:37.716Z</time>
      </trkpt>
      <trkpt lat="45.77172" lon="6.71579">
        <ele>1560</ele>
        <time>2026-07-29T05:11:38.716Z</time>
      </trkpt>
      <trkpt lat="45.7717" lon="6.71579">
        <ele>1561</ele>
        <time>2026-07-29T05:11:39.716Z</time>
      </trkpt>
      <trkpt lat="45.77169" lon="6.71578">
        <ele>1561</ele>
        <time>2026-07-29T05:11:40.716Z</time>
      </trkpt>
      <trkpt lat="45.77167" lon="6.71577">
        <ele>1560</ele>
        <time>2026-07-29T05:11:41.716Z</time>
      </trkpt>
      <trkpt lat="45.77165" lon="6.71577">
        <ele>1560</ele>
        <time>2026-07-29T05:11:42.716Z</time>
      </trkpt>
      <trkpt lat="45.77163" lon="6.71576">
        <ele>1560</ele>
        <time>2026-07-29T05:11:43.716Z</time>
      </trkpt>
      <trkpt lat="45.77162" lon="6.71575">
        <ele>1560</ele>
        <time>2026-07-29T05:11:44.716Z</time>
      </trkpt>
      <trkpt lat="45.7716" lon="6.71574">
        <ele>1559</ele>
        <time>2026-07-29T05:11:45.716Z</time>
      </trkpt>
      <trkpt lat="45.77159" lon="6.71572">
        <ele>1560</ele>
        <time>2026-07-29T05:11:46.716Z</time>
      </trkpt>
      <trkpt lat="45.77157" lon="6.71571">
        <ele>1559</ele>
        <time>2026-07-29T05:11:47.716Z</time>
      </trkpt>
      <trkpt lat="45.77155" lon="6.71569">
        <ele>1559</ele>
        <time>2026-07-29T05:11:48.716Z</time>
      </trkpt>
      <trkpt lat="45.77154" lon="6.71568">
        <ele>1559</ele>
        <time>2026-07-29T05:11:49.716Z</time>
      </trkpt>
      <trkpt lat="45.77152" lon="6.71567">
        <ele>1558</ele>
        <time>2026-07-29T05:11:50.716Z</time>
      </trkpt>
      <trkpt lat="45.77151" lon="6.71565">
        <ele>1558</ele>
        <time>2026-07-29T05:11:51.716Z</time>
      </trkpt>
      <trkpt lat="45.7715" lon="6.71563">
        <ele>1557</ele>
        <time>2026-07-29T05:11:52.716Z</time>
      </trkpt>
      <trkpt lat="45.77148" lon="6.71561">
        <ele>1557</ele>
        <time>2026-07-29T05:11:53.716Z</time>
      </trkpt>
      <trkpt lat="45.77147" lon="6.7156">
        <ele>1557</ele>
        <time>2026-07-29T05:11:54.716Z</time>
      </trkpt>
      <trkpt lat="45.77146" lon="6.71558">
        <ele>1558</ele>
        <time>2026-07-29T05:11:55.716Z</time>
      </trkpt>
      <trkpt lat="45.77145" lon="6.71556">
        <ele>1558</ele>
        <time>2026-07-29T05:11:56.716Z</time>
      </trkpt>
      <trkpt lat="45.77144" lon="6.71554">
        <ele>1558</ele>
        <time>2026-07-29T05:11:57.716Z</time>
      </trkpt>
      <trkpt lat="45.77143" lon="6.71552">
        <ele>1558</ele>
        <time>2026-07-29T05:11:58.716Z</time>
      </trkpt>
      <trkpt lat="45.77142" lon="6.71551">
        <ele>1558</ele>
        <time>2026-07-29T05:11:59.716Z</time>
      </trkpt>
      <trkpt lat="45.7714" lon="6.7155">
        <ele>1558</ele>
        <time>2026-07-29T05:12:00.716Z</time>
      </trkpt>
      <trkpt lat="45.77139" lon="6.71549">
        <ele>1558</ele>
        <time>2026-07-29T05:12:01.716Z</time>
      </trkpt>
      <trkpt lat="45.77138" lon="6.71547">
        <ele>1558</ele>
        <time>2026-07-29T05:12:02.716Z</time>
      </trkpt>
      <trkpt lat="45.77136" lon="6.71546">
        <ele>1558</ele>
        <time>2026-07-29T05:12:03.716Z</time>
      </trkpt>
      <trkpt lat="45.77135" lon="6.71546">
        <ele>1558</ele>
        <time>2026-07-29T05:12:04.716Z</time>
      </trkpt>
      <trkpt lat="45.77133" lon="6.71545">
        <ele>1558</ele>
        <time>2026-07-29T05:12:05.716Z</time>
      </trkpt>
      <trkpt lat="45.77131" lon="6.71545">
        <ele>1558</ele>
        <time>2026-07-29T05:12:06.716Z</time>
      </trkpt>
      <trkpt lat="45.77129" lon="6.71545">
        <ele>1558</ele>
        <time>2026-07-29T05:12:07.716Z</time>
      </trkpt>
      <trkpt lat="45.77127" lon="6.71545">
        <ele>1558</ele>
        <time>2026-07-29T05:12:08.716Z</time>
      </trkpt>
      <trkpt lat="45.77125" lon="6.71544">
        <ele>1558</ele>
        <time>2026-07-29T05:12:09.716Z</time>
      </trkpt>
      <trkpt lat="45.77123" lon="6.71544">
        <ele>1558</ele>
        <time>2026-07-29T05:12:10.716Z</time>
      </trkpt>
      <trkpt lat="45.77121" lon="6.71544">
        <ele>1558</ele>
        <time>2026-07-29T05:12:11.716Z</time>
      </trkpt>
      <trkpt lat="45.77119" lon="6.71544">
        <ele>1558</ele>
        <time>2026-07-29T05:12:12.716Z</time>
      </trkpt>
      <trkpt lat="45.77117" lon="6.71544">
        <ele>1558</ele>
        <time>2026-07-29T05:12:13.716Z</time>
      </trkpt>
      <trkpt lat="45.77115" lon="6.71544">
        <ele>1559</ele>
        <time>2026-07-29T05:12:14.716Z</time>
      </trkpt>
      <trkpt lat="45.77113" lon="6.71543">
        <ele>1559</ele>
        <time>2026-07-29T05:12:15.716Z</time>
      </trkpt>
      <trkpt lat="45.77111" lon="6.71543">
        <ele>1559</ele>
        <time>2026-07-29T05:12:16.716Z</time>
      </trkpt>
      <trkpt lat="45.77109" lon="6.71543">
        <ele>1560</ele>
        <time>2026-07-29T05:12:17.716Z</time>
      </trkpt>
      <trkpt lat="45.77107" lon="6.71543">
        <ele>1560</ele>
        <time>2026-07-29T05:12:18.716Z</time>
      </trkpt>
      <trkpt lat="45.77105" lon="6.71543">
        <ele>1559</ele>
        <time>2026-07-29T05:12:19.716Z</time>
      </trkpt>
      <trkpt lat="45.77104" lon="6.71542">
        <ele>1559</ele>
        <time>2026-07-29T05:12:20.716Z</time>
      </trkpt>
      <trkpt lat="45.77102" lon="6.71542">
        <ele>1559</ele>
        <time>2026-07-29T05:12:21.717Z</time>
      </trkpt>
      <trkpt lat="45.77099" lon="6.71542">
        <ele>1559</ele>
        <time>2026-07-29T05:12:22.716Z</time>
      </trkpt>
      <trkpt lat="45.77097" lon="6.71542">
        <ele>1559</ele>
        <time>2026-07-29T05:12:23.716Z</time>
      </trkpt>
      <trkpt lat="45.77095" lon="6.71541">
        <ele>1559</ele>
        <time>2026-07-29T05:12:24.716Z</time>
      </trkpt>
      <trkpt lat="45.77093" lon="6.71541">
        <ele>1560</ele>
        <time>2026-07-29T05:12:25.716Z</time>
      </trkpt>
      <trkpt lat="45.77091" lon="6.71541">
        <ele>1560</ele>
        <time>2026-07-29T05:12:26.716Z</time>
      </trkpt>
      <trkpt lat="45.77089" lon="6.7154">
        <ele>1560</ele>
        <time>2026-07-29T05:12:27.716Z</time>
      </trkpt>
      <trkpt lat="45.77087" lon="6.7154">
        <ele>1560</ele>
        <time>2026-07-29T05:12:28.716Z</time>
      </trkpt>
      <trkpt lat="45.77085" lon="6.71539">
        <ele>1560</ele>
        <time>2026-07-29T05:12:29.716Z</time>
      </trkpt>
      <trkpt lat="45.77083" lon="6.71538">
        <ele>1560</ele>
        <time>2026-07-29T05:12:30.716Z</time>
      </trkpt>
      <trkpt lat="45.77081" lon="6.71537">
        <ele>1560</ele>
        <time>2026-07-29T05:12:31.716Z</time>
      </trkpt>
      <trkpt lat="45.77079" lon="6.71537">
        <ele>1559</ele>
        <time>2026-07-29T05:12:32.716Z</time>
      </trkpt>
      <trkpt lat="45.77077" lon="6.71535">
        <ele>1560</ele>
        <time>2026-07-29T05:12:33.716Z</time>
      </trkpt>
      <trkpt lat="45.77075" lon="6.71534">
        <ele>1560</ele>
        <time>2026-07-29T05:12:34.716Z</time>
      </trkpt>
      <trkpt lat="45.77073" lon="6.71533">
        <ele>1559</ele>
        <time>2026-07-29T05:12:35.716Z</time>
      </trkpt>
      <trkpt lat="45.77071" lon="6.71531">
        <ele>1559</ele>
        <time>2026-07-29T05:12:36.716Z</time>
      </trkpt>
      <trkpt lat="45.77069" lon="6.7153">
        <ele>1559</ele>
        <time>2026-07-29T05:12:37.716Z</time>
      </trkpt>
      <trkpt lat="45.77068" lon="6.71528">
        <ele>1559</ele>
        <time>2026-07-29T05:12:38.716Z</time>
      </trkpt>
      <trkpt lat="45.77066" lon="6.71527">
        <ele>1560</ele>
        <time>2026-07-29T05:12:39.716Z</time>
      </trkpt>
      <trkpt lat="45.77064" lon="6.71525">
        <ele>1560</ele>
        <time>2026-07-29T05:12:40.716Z</time>
      </trkpt>
      <trkpt lat="45.77063" lon="6.71524">
        <ele>1560</ele>
        <time>2026-07-29T05:12:41.716Z</time>
      </trkpt>
      <trkpt lat="45.77061" lon="6.71523">
        <ele>1560</ele>
        <time>2026-07-29T05:12:42.716Z</time>
      </trkpt>
      <trkpt lat="45.77059" lon="6.71523">
        <ele>1559</ele>
        <time>2026-07-29T05:12:43.716Z</time>
      </trkpt>
      <trkpt lat="45.77057" lon="6.71522">
        <ele>1559</ele>
        <time>2026-07-29T05:12:44.716Z</time>
      </trkpt>
      <trkpt lat="45.77055" lon="6.71521">
        <ele>1559</ele>
        <time>2026-07-29T05:12:45.716Z</time>
      </trkpt>
      <trkpt lat="45.77053" lon="6.7152">
        <ele>1559</ele>
        <time>2026-07-29T05:12:46.716Z</time>
      </trkpt>
      <trkpt lat="45.77051" lon="6.71519">
        <ele>1559</ele>
        <time>2026-07-29T05:12:47.716Z</time>
      </trkpt>
      <trkpt lat="45.7705" lon="6.71518">
        <ele>1560</ele>
        <time>2026-07-29T05:12:48.716Z</time>
      </trkpt>
      <trkpt lat="45.77047" lon="6.71516">
        <ele>1560</ele>
        <time>2026-07-29T05:12:49.716Z</time>
      </trkpt>
      <trkpt lat="45.77046" lon="6.71515">
        <ele>1560</ele>
        <time>2026-07-29T05:12:50.716Z</time>
      </trkpt>
      <trkpt lat="45.77044" lon="6.71514">
        <ele>1560</ele>
        <time>2026-07-29T05:12:51.716Z</time>
      </trkpt>
      <trkpt lat="45.77042" lon="6.71513">
        <ele>1560</ele>
        <time>2026-07-29T05:12:52.716Z</time>
      </trkpt>
      <trkpt lat="45.7704" lon="6.71511">
        <ele>1561</ele>
        <time>2026-07-29T05:12:53.716Z</time>
      </trkpt>
      <trkpt lat="45.77038" lon="6.7151">
        <ele>1561</ele>
        <time>2026-07-29T05:12:54.716Z</time>
      </trkpt>
      <trkpt lat="45.77036" lon="6.71509">
        <ele>1561</ele>
        <time>2026-07-29T05:12:55.716Z</time>
      </trkpt>
      <trkpt lat="45.77035" lon="6.71508">
        <ele>1561</ele>
        <time>2026-07-29T05:12:56.716Z</time>
      </trkpt>
      <trkpt lat="45.77032" lon="6.71506">
        <ele>1561</ele>
        <time>2026-07-29T05:12:57.716Z</time>
      </trkpt>
      <trkpt lat="45.77031" lon="6.71504">
        <ele>1560</ele>
        <time>2026-07-29T05:12:58.716Z</time>
      </trkpt>
      <trkpt lat="45.77029" lon="6.71502">
        <ele>1560</ele>
        <time>2026-07-29T05:12:59.716Z</time>
      </trkpt>
      <trkpt lat="45.77027" lon="6.715">
        <ele>1560</ele>
        <time>2026-07-29T05:13:00.716Z</time>
      </trkpt>
      <trkpt lat="45.77025" lon="6.71498">
        <ele>1560</ele>
        <time>2026-07-29T05:13:01.716Z</time>
      </trkpt>
      <trkpt lat="45.77023" lon="6.71496">
        <ele>1560</ele>
        <time>2026-07-29T05:13:02.716Z</time>
      </trkpt>
      <trkpt lat="45.77021" lon="6.71495">
        <ele>1559</ele>
        <time>2026-07-29T05:13:03.716Z</time>
      </trkpt>
      <trkpt lat="45.77019" lon="6.71493">
        <ele>1559</ele>
        <time>2026-07-29T05:13:04.716Z</time>
      </trkpt>
      <trkpt lat="45.77017" lon="6.71492">
        <ele>1558</ele>
        <time>2026-07-29T05:13:05.716Z</time>
      </trkpt>
      <trkpt lat="45.77016" lon="6.7149">
        <ele>1558</ele>
        <time>2026-07-29T05:13:06.716Z</time>
      </trkpt>
      <trkpt lat="45.77014" lon="6.71489">
        <ele>1558</ele>
        <time>2026-07-29T05:13:07.716Z</time>
      </trkpt>
      <trkpt lat="45.77012" lon="6.71487">
        <ele>1557</ele>
        <time>2026-07-29T05:13:08.716Z</time>
      </trkpt>
      <trkpt lat="45.7701" lon="6.71486">
        <ele>1557</ele>
        <time>2026-07-29T05:13:09.716Z</time>
      </trkpt>
      <trkpt lat="45.77008" lon="6.71485">
        <ele>1557</ele>
        <time>2026-07-29T05:13:10.716Z</time>
      </trkpt>
      <trkpt lat="45.77006" lon="6.71484">
        <ele>1557</ele>
        <time>2026-07-29T05:13:11.716Z</time>
      </trkpt>
      <trkpt lat="45.77004" lon="6.71483">
        <ele>1557</ele>
        <time>2026-07-29T05:13:12.716Z</time>
      </trkpt>
      <trkpt lat="45.77002" lon="6.71482">
        <ele>1557</ele>
        <time>2026-07-29T05:13:13.716Z</time>
      </trkpt>
      <trkpt lat="45.77" lon="6.71482">
        <ele>1557</ele>
        <time>2026-07-29T05:13:14.716Z</time>
      </trkpt>
      <trkpt lat="45.76999" lon="6.71481">
        <ele>1557</ele>
        <time>2026-07-29T05:13:15.716Z</time>
      </trkpt>
      <trkpt lat="45.76997" lon="6.7148">
        <ele>1557</ele>
        <time>2026-07-29T05:13:16.716Z</time>
      </trkpt>
      <trkpt lat="45.76995" lon="6.7148">
        <ele>1556</ele>
        <time>2026-07-29T05:13:17.716Z</time>
      </trkpt>
      <trkpt lat="45.76993" lon="6.71479">
        <ele>1556</ele>
        <time>2026-07-29T05:13:18.716Z</time>
      </trkpt>
      <trkpt lat="45.7699" lon="6.71479">
        <ele>1556</ele>
        <time>2026-07-29T05:13:19.716Z</time>
      </trkpt>
      <trkpt lat="45.76988" lon="6.71479">
        <ele>1556</ele>
        <time>2026-07-29T05:13:20.716Z</time>
      </trkpt>
      <trkpt lat="45.76986" lon="6.71479">
        <ele>1556</ele>
        <time>2026-07-29T05:13:21.716Z</time>
      </trkpt>
      <trkpt lat="45.76984" lon="6.71478">
        <ele>1556</ele>
        <time>2026-07-29T05:13:22.716Z</time>
      </trkpt>
      <trkpt lat="45.76982" lon="6.71478">
        <ele>1556</ele>
        <time>2026-07-29T05:13:23.716Z</time>
      </trkpt>
      <trkpt lat="45.7698" lon="6.71478">
        <ele>1556</ele>
        <time>2026-07-29T05:13:24.716Z</time>
      </trkpt>
      <trkpt lat="45.76978" lon="6.71478">
        <ele>1556</ele>
        <time>2026-07-29T05:13:25.716Z</time>
      </trkpt>
      <trkpt lat="45.76976" lon="6.71478">
        <ele>1557</ele>
        <time>2026-07-29T05:13:26.716Z</time>
      </trkpt>
      <trkpt lat="45.76974" lon="6.71478">
        <ele>1557</ele>
        <time>2026-07-29T05:13:27.716Z</time>
      </trkpt>
      <trkpt lat="45.76972" lon="6.71478">
        <ele>1557</ele>
        <time>2026-07-29T05:13:28.716Z</time>
      </trkpt>
      <trkpt lat="45.7697" lon="6.71478">
        <ele>1557</ele>
        <time>2026-07-29T05:13:29.716Z</time>
      </trkpt>
      <trkpt lat="45.76969" lon="6.71478">
        <ele>1557</ele>
        <time>2026-07-29T05:13:30.716Z</time>
      </trkpt>
      <trkpt lat="45.76967" lon="6.71478">
        <ele>1557</ele>
        <time>2026-07-29T05:13:31.716Z</time>
      </trkpt>
      <trkpt lat="45.76965" lon="6.71478">
        <ele>1557</ele>
        <time>2026-07-29T05:13:32.716Z</time>
      </trkpt>
      <trkpt lat="45.76963" lon="6.71479">
        <ele>1558</ele>
        <time>2026-07-29T05:13:33.716Z</time>
      </trkpt>
      <trkpt lat="45.76961" lon="6.7148">
        <ele>1558</ele>
        <time>2026-07-29T05:13:34.716Z</time>
      </trkpt>
      <trkpt lat="45.76959" lon="6.7148">
        <ele>1558</ele>
        <time>2026-07-29T05:13:35.716Z</time>
      </trkpt>
      <trkpt lat="45.76957" lon="6.71479">
        <ele>1558</ele>
        <time>2026-07-29T05:13:36.716Z</time>
      </trkpt>
      <trkpt lat="45.76955" lon="6.71479">
        <ele>1558</ele>
        <time>2026-07-29T05:13:37.716Z</time>
      </trkpt>
      <trkpt lat="45.76953" lon="6.71479">
        <ele>1558</ele>
        <time>2026-07-29T05:13:38.716Z</time>
      </trkpt>
      <trkpt lat="45.76952" lon="6.71478">
        <ele>1558</ele>
        <time>2026-07-29T05:13:39.716Z</time>
      </trkpt>
      <trkpt lat="45.7695" lon="6.71478">
        <ele>1558</ele>
        <time>2026-07-29T05:13:40.716Z</time>
      </trkpt>
      <trkpt lat="45.76948" lon="6.71477">
        <ele>1558</ele>
        <time>2026-07-29T05:13:41.716Z</time>
      </trkpt>
      <trkpt lat="45.76946" lon="6.71477">
        <ele>1558</ele>
        <time>2026-07-29T05:13:42.716Z</time>
      </trkpt>
      <trkpt lat="45.76944" lon="6.71477">
        <ele>1559</ele>
        <time>2026-07-29T05:13:43.716Z</time>
      </trkpt>
      <trkpt lat="45.76942" lon="6.71477">
        <ele>1559</ele>
        <time>2026-07-29T05:13:44.716Z</time>
      </trkpt>
      <trkpt lat="45.7694" lon="6.71477">
        <ele>1559</ele>
        <time>2026-07-29T05:13:45.716Z</time>
      </trkpt>
      <trkpt lat="45.76938" lon="6.71476">
        <ele>1559</ele>
        <time>2026-07-29T05:13:46.716Z</time>
      </trkpt>
      <trkpt lat="45.76936" lon="6.71476">
        <ele>1559</ele>
        <time>2026-07-29T05:13:47.716Z</time>
      </trkpt>
      <trkpt lat="45.76934" lon="6.71476">
        <ele>1559</ele>
        <time>2026-07-29T05:13:48.716Z</time>
      </trkpt>
      <trkpt lat="45.76933" lon="6.71476">
        <ele>1560</ele>
        <time>2026-07-29T05:13:49.716Z</time>
      </trkpt>
      <trkpt lat="45.76932" lon="6.71476">
        <ele>1561</ele>
        <time>2026-07-29T05:13:50.716Z</time>
      </trkpt>
      <trkpt lat="45.7693" lon="6.71476">
        <ele>1561</ele>
        <time>2026-07-29T05:13:51.716Z</time>
      </trkpt>
      <trkpt lat="45.76929" lon="6.71475">
        <ele>1562</ele>
        <time>2026-07-29T05:13:52.716Z</time>
      </trkpt>
      <trkpt lat="45.76927" lon="6.71475">
        <ele>1562</ele>
        <time>2026-07-29T05:13:53.716Z</time>
      </trkpt>
      <trkpt lat="45.76925" lon="6.71475">
        <ele>1563</ele>
        <time>2026-07-29T05:13:54.716Z</time>
      </trkpt>
      <trkpt lat="45.76924" lon="6.71474">
        <ele>1563</ele>
        <time>2026-07-29T05:13:55.716Z</time>
      </trkpt>
      <trkpt lat="45.76922" lon="6.71474">
        <ele>1563</ele>
        <time>2026-07-29T05:13:56.716Z</time>
      </trkpt>
      <trkpt lat="45.76921" lon="6.71473">
        <ele>1563</ele>
        <time>2026-07-29T05:13:57.716Z</time>
      </trkpt>
      <trkpt lat="45.76919" lon="6.71472">
        <ele>1563</ele>
        <time>2026-07-29T05:13:58.716Z</time>
      </trkpt>
      <trkpt lat="45.76918" lon="6.71471">
        <ele>1563</ele>
        <time>2026-07-29T05:13:59.716Z</time>
      </trkpt>
      <trkpt lat="45.76916" lon="6.71471">
        <ele>1563</ele>
        <time>2026-07-29T05:14:00.716Z</time>
      </trkpt>
      <trkpt lat="45.76915" lon="6.7147">
        <ele>1562</ele>
        <time>2026-07-29T05:14:01.716Z</time>
      </trkpt>
      <trkpt lat="45.76913" lon="6.71469">
        <ele>1562</ele>
        <time>2026-07-29T05:14:02.716Z</time>
      </trkpt>
      <trkpt lat="45.76911" lon="6.71469">
        <ele>1562</ele>
        <time>2026-07-29T05:14:03.716Z</time>
      </trkpt>
      <trkpt lat="45.7691" lon="6.71468">
        <ele>1562</ele>
        <time>2026-07-29T05:14:04.716Z</time>
      </trkpt>
      <trkpt lat="45.76908" lon="6.71468">
        <ele>1562</ele>
        <time>2026-07-29T05:14:05.716Z</time>
      </trkpt>
      <trkpt lat="45.76907" lon="6.71468">
        <ele>1562</ele>
        <time>2026-07-29T05:14:06.716Z</time>
      </trkpt>
      <trkpt lat="45.76905" lon="6.71467">
        <ele>1562</ele>
        <time>2026-07-29T05:14:07.716Z</time>
      </trkpt>
      <trkpt lat="45.76904" lon="6.71466">
        <ele>1562</ele>
        <time>2026-07-29T05:14:08.716Z</time>
      </trkpt>
      <trkpt lat="45.76902" lon="6.71466">
        <ele>1563</ele>
        <time>2026-07-29T05:14:09.716Z</time>
      </trkpt>
      <trkpt lat="45.76901" lon="6.71465">
        <ele>1563</ele>
        <time>2026-07-29T05:14:10.716Z</time>
      </trkpt>
      <trkpt lat="45.76899" lon="6.71464">
        <ele>1563</ele>
        <time>2026-07-29T05:14:11.716Z</time>
      </trkpt>
      <trkpt lat="45.76898" lon="6.71464">
        <ele>1563</ele>
        <time>2026-07-29T05:14:12.716Z</time>
      </trkpt>
      <trkpt lat="45.76896" lon="6.71464">
        <ele>1563</ele>
        <time>2026-07-29T05:14:13.716Z</time>
      </trkpt>
      <trkpt lat="45.76895" lon="6.71463">
        <ele>1564</ele>
        <time>2026-07-29T05:14:14.716Z</time>
      </trkpt>
      <trkpt lat="45.76893" lon="6.71463">
        <ele>1564</ele>
        <time>2026-07-29T05:14:15.716Z</time>
      </trkpt>
      <trkpt lat="45.76891" lon="6.71463">
        <ele>1564</ele>
        <time>2026-07-29T05:14:16.716Z</time>
      </trkpt>
      <trkpt lat="45.76889" lon="6.71462">
        <ele>1564</ele>
        <time>2026-07-29T05:14:17.716Z</time>
      </trkpt>
      <trkpt lat="45.76888" lon="6.71462">
        <ele>1564</ele>
        <time>2026-07-29T05:14:18.716Z</time>
      </trkpt>
      <trkpt lat="45.76887" lon="6.71462">
        <ele>1564</ele>
        <time>2026-07-29T05:14:19.716Z</time>
      </trkpt>
      <trkpt lat="45.76886" lon="6.71461">
        <ele>1564</ele>
        <time>2026-07-29T05:14:20.716Z</time>
      </trkpt>
      <trkpt lat="45.76885" lon="6.7146">
        <ele>1564</ele>
        <time>2026-07-29T05:14:21.716Z</time>
      </trkpt>
      <trkpt lat="45.76885" lon="6.7146">
        <ele>1564</ele>
        <time>2026-07-29T05:14:22.716Z</time>
      </trkpt>
      <trkpt lat="45.76885" lon="6.7146">
        <ele>1564</ele>
        <time>2026-07-29T05:14:23.716Z</time>
      </trkpt>
      <trkpt lat="45.76884" lon="6.7146">
        <ele>1564</ele>
        <time>2026-07-29T05:14:24.716Z</time>
      </trkpt>
      <trkpt lat="45.76884" lon="6.7146">
        <ele>1564</ele>
        <time>2026-07-29T05:14:25.716Z</time>
      </trkpt>
      <trkpt lat="45.76884" lon="6.71459">
        <ele>1564</ele>
        <time>2026-07-29T05:14:26.716Z</time>
      </trkpt>
      <trkpt lat="45.76883" lon="6.71459">
        <ele>1563</ele>
        <time>2026-07-29T05:14:27.716Z</time>
      </trkpt>
      <trkpt lat="45.76882" lon="6.71458">
        <ele>1563</ele>
        <time>2026-07-29T05:14:28.716Z</time>
      </trkpt>
      <trkpt lat="45.76881" lon="6.71457">
        <ele>1563</ele>
        <time>2026-07-29T05:14:29.716Z</time>
      </trkpt>
      <trkpt lat="45.76879" lon="6.71456">
        <ele>1563</ele>
        <time>2026-07-29T05:14:30.716Z</time>
      </trkpt>
      <trkpt lat="45.76878" lon="6.71456">
        <ele>1563</ele>
        <time>2026-07-29T05:14:31.716Z</time>
      </trkpt>
      <trkpt lat="45.76876" lon="6.71455">
        <ele>1563</ele>
        <time>2026-07-29T05:14:32.716Z</time>
      </trkpt>
      <trkpt lat="45.76874" lon="6.71455">
        <ele>1563</ele>
        <time>2026-07-29T05:14:33.716Z</time>
      </trkpt>
      <trkpt lat="45.76873" lon="6.71455">
        <ele>1563</ele>
        <time>2026-07-29T05:14:34.716Z</time>
      </trkpt>
      <trkpt lat="45.76871" lon="6.71455">
        <ele>1563</ele>
        <time>2026-07-29T05:14:35.716Z</time>
      </trkpt>
      <trkpt lat="45.76869" lon="6.71454">
        <ele>1563</ele>
        <time>2026-07-29T05:14:36.716Z</time>
      </trkpt>
      <trkpt lat="45.76867" lon="6.71454">
        <ele>1563</ele>
        <time>2026-07-29T05:14:37.716Z</time>
      </trkpt>
      <trkpt lat="45.76865" lon="6.71453">
        <ele>1563</ele>
        <time>2026-07-29T05:14:38.716Z</time>
      </trkpt>
      <trkpt lat="45.76864" lon="6.71452">
        <ele>1563</ele>
        <time>2026-07-29T05:14:39.716Z</time>
      </trkpt>
      <trkpt lat="45.76862" lon="6.71451">
        <ele>1563</ele>
        <time>2026-07-29T05:14:40.716Z</time>
      </trkpt>
      <trkpt lat="45.76861" lon="6.71451">
        <ele>1563</ele>
        <time>2026-07-29T05:14:41.716Z</time>
      </trkpt>
      <trkpt lat="45.76859" lon="6.7145">
        <ele>1564</ele>
        <time>2026-07-29T05:14:42.716Z</time>
      </trkpt>
      <trkpt lat="45.76857" lon="6.71449">
        <ele>1564</ele>
        <time>2026-07-29T05:14:43.716Z</time>
      </trkpt>
      <trkpt lat="45.76856" lon="6.71448">
        <ele>1564</ele>
        <time>2026-07-29T05:14:44.716Z</time>
      </trkpt>
      <trkpt lat="45.76854" lon="6.71446">
        <ele>1564</ele>
        <time>2026-07-29T05:14:45.716Z</time>
      </trkpt>
      <trkpt lat="45.76853" lon="6.71445">
        <ele>1564</ele>
        <time>2026-07-29T05:14:46.716Z</time>
      </trkpt>
      <trkpt lat="45.76851" lon="6.71444">
        <ele>1564</ele>
        <time>2026-07-29T05:14:47.716Z</time>
      </trkpt>
      <trkpt lat="45.76849" lon="6.71443">
        <ele>1564</ele>
        <time>2026-07-29T05:14:48.716Z</time>
      </trkpt>
      <trkpt lat="45.76847" lon="6.71442">
        <ele>1564</ele>
        <time>2026-07-29T05:14:49.716Z</time>
      </trkpt>
      <trkpt lat="45.76845" lon="6.71441">
        <ele>1564</ele>
        <time>2026-07-29T05:14:50.716Z</time>
      </trkpt>
      <trkpt lat="45.76843" lon="6.7144">
        <ele>1565</ele>
        <time>2026-07-29T05:14:51.716Z</time>
      </trkpt>
      <trkpt lat="45.76842" lon="6.71439">
        <ele>1565</ele>
        <time>2026-07-29T05:14:52.716Z</time>
      </trkpt>
      <trkpt lat="45.7684" lon="6.71437">
        <ele>1565</ele>
        <time>2026-07-29T05:14:53.716Z</time>
      </trkpt>
      <trkpt lat="45.76838" lon="6.71436">
        <ele>1566</ele>
        <time>2026-07-29T05:14:54.716Z</time>
      </trkpt>
      <trkpt lat="45.76836" lon="6.71436">
        <ele>1566</ele>
        <time>2026-07-29T05:14:55.716Z</time>
      </trkpt>
      <trkpt lat="45.76834" lon="6.71434">
        <ele>1566</ele>
        <time>2026-07-29T05:14:56.716Z</time>
      </trkpt>
      <trkpt lat="45.76833" lon="6.71433">
        <ele>1566</ele>
        <time>2026-07-29T05:14:57.716Z</time>
      </trkpt>
      <trkpt lat="45.76831" lon="6.71432">
        <ele>1567</ele>
        <time>2026-07-29T05:14:58.716Z</time>
      </trkpt>
      <trkpt lat="45.76829" lon="6.71431">
        <ele>1567</ele>
        <time>2026-07-29T05:14:59.716Z</time>
      </trkpt>
      <trkpt lat="45.76827" lon="6.7143">
        <ele>1567</ele>
        <time>2026-07-29T05:15:00.716Z</time>
      </trkpt>
      <trkpt lat="45.76825" lon="6.71429">
        <ele>1567</ele>
        <time>2026-07-29T05:15:01.716Z</time>
      </trkpt>
      <trkpt lat="45.76824" lon="6.71428">
        <ele>1567</ele>
        <time>2026-07-29T05:15:02.716Z</time>
      </trkpt>
      <trkpt lat="45.76822" lon="6.71427">
        <ele>1567</ele>
        <time>2026-07-29T05:15:03.716Z</time>
      </trkpt>
      <trkpt lat="45.7682" lon="6.71426">
        <ele>1567</ele>
        <time>2026-07-29T05:15:04.716Z</time>
      </trkpt>
      <trkpt lat="45.76818" lon="6.71425">
        <ele>1567</ele>
        <time>2026-07-29T05:15:05.716Z</time>
      </trkpt>
      <trkpt lat="45.76816" lon="6.71424">
        <ele>1567</ele>
        <time>2026-07-29T05:15:06.716Z</time>
      </trkpt>
      <trkpt lat="45.76815" lon="6.71423">
        <ele>1567</ele>
        <time>2026-07-29T05:15:07.716Z</time>
      </trkpt>
      <trkpt lat="45.76813" lon="6.71422">
        <ele>1567</ele>
        <time>2026-07-29T05:15:08.716Z</time>
      </trkpt>
      <trkpt lat="45.76811" lon="6.71421">
        <ele>1568</ele>
        <time>2026-07-29T05:15:09.716Z</time>
      </trkpt>
      <trkpt lat="45.7681" lon="6.7142">
        <ele>1568</ele>
        <time>2026-07-29T05:15:10.716Z</time>
      </trkpt>
      <trkpt lat="45.76808" lon="6.7142">
        <ele>1568</ele>
        <time>2026-07-29T05:15:11.716Z</time>
      </trkpt>
      <trkpt lat="45.76806" lon="6.71419">
        <ele>1569</ele>
        <time>2026-07-29T05:15:12.716Z</time>
      </trkpt>
      <trkpt lat="45.76804" lon="6.71418">
        <ele>1569</ele>
        <time>2026-07-29T05:15:13.716Z</time>
      </trkpt>
      <trkpt lat="45.76802" lon="6.71417">
        <ele>1569</ele>
        <time>2026-07-29T05:15:14.716Z</time>
      </trkpt>
      <trkpt lat="45.76801" lon="6.71416">
        <ele>1569</ele>
        <time>2026-07-29T05:15:15.716Z</time>
      </trkpt>
      <trkpt lat="45.76799" lon="6.71415">
        <ele>1569</ele>
        <time>2026-07-29T05:15:16.716Z</time>
      </trkpt>
      <trkpt lat="45.76797" lon="6.71414">
        <ele>1569</ele>
        <time>2026-07-29T05:15:17.716Z</time>
      </trkpt>
      <trkpt lat="45.76795" lon="6.71413">
        <ele>1569</ele>
        <time>2026-07-29T05:15:18.716Z</time>
      </trkpt>
      <trkpt lat="45.76793" lon="6.71412">
        <ele>1569</ele>
        <time>2026-07-29T05:15:19.716Z</time>
      </trkpt>
      <trkpt lat="45.76792" lon="6.71412">
        <ele>1569</ele>
        <time>2026-07-29T05:15:20.716Z</time>
      </trkpt>
      <trkpt lat="45.7679" lon="6.71411">
        <ele>1568</ele>
        <time>2026-07-29T05:15:21.716Z</time>
      </trkpt>
      <trkpt lat="45.76788" lon="6.7141">
        <ele>1568</ele>
        <time>2026-07-29T05:15:22.716Z</time>
      </trkpt>
      <trkpt lat="45.76786" lon="6.71409">
        <ele>1568</ele>
        <time>2026-07-29T05:15:23.716Z</time>
      </trkpt>
      <trkpt lat="45.76785" lon="6.71408">
        <ele>1568</ele>
        <time>2026-07-29T05:15:24.716Z</time>
      </trkpt>
      <trkpt lat="45.76783" lon="6.71408">
        <ele>1568</ele>
        <time>2026-07-29T05:15:25.716Z</time>
      </trkpt>
      <trkpt lat="45.76781" lon="6.71407">
        <ele>1569</ele>
        <time>2026-07-29T05:15:26.716Z</time>
      </trkpt>
      <trkpt lat="45.76779" lon="6.71406">
        <ele>1569</ele>
        <time>2026-07-29T05:15:27.716Z</time>
      </trkpt>
      <trkpt lat="45.76778" lon="6.71405">
        <ele>1569</ele>
        <time>2026-07-29T05:15:28.716Z</time>
      </trkpt>
      <trkpt lat="45.76776" lon="6.71404">
        <ele>1569</ele>
        <time>2026-07-29T05:15:29.716Z</time>
      </trkpt>
      <trkpt lat="45.76774" lon="6.71403">
        <ele>1569</ele>
        <time>2026-07-29T05:15:30.716Z</time>
      </trkpt>
      <trkpt lat="45.76773" lon="6.71401">
        <ele>1569</ele>
        <time>2026-07-29T05:15:31.716Z</time>
      </trkpt>
      <trkpt lat="45.76771" lon="6.714">
        <ele>1569</ele>
        <time>2026-07-29T05:15:32.716Z</time>
      </trkpt>
      <trkpt lat="45.76769" lon="6.71398">
        <ele>1569</ele>
        <time>2026-07-29T05:15:33.716Z</time>
      </trkpt>
      <trkpt lat="45.76768" lon="6.71397">
        <ele>1569</ele>
        <time>2026-07-29T05:15:34.716Z</time>
      </trkpt>
      <trkpt lat="45.76767" lon="6.71395">
        <ele>1568</ele>
        <time>2026-07-29T05:15:35.716Z</time>
      </trkpt>
      <trkpt lat="45.76765" lon="6.71394">
        <ele>1568</ele>
        <time>2026-07-29T05:15:36.716Z</time>
      </trkpt>
      <trkpt lat="45.76763" lon="6.71392">
        <ele>1568</ele>
        <time>2026-07-29T05:15:37.716Z</time>
      </trkpt>
      <trkpt lat="45.76762" lon="6.7139">
        <ele>1568</ele>
        <time>2026-07-29T05:15:38.716Z</time>
      </trkpt>
      <trkpt lat="45.7676" lon="6.71389">
        <ele>1568</ele>
        <time>2026-07-29T05:15:39.716Z</time>
      </trkpt>
      <trkpt lat="45.76759" lon="6.71387">
        <ele>1567</ele>
        <time>2026-07-29T05:15:40.716Z</time>
      </trkpt>
      <trkpt lat="45.76757" lon="6.71385">
        <ele>1567</ele>
        <time>2026-07-29T05:15:41.716Z</time>
      </trkpt>
      <trkpt lat="45.76755" lon="6.71383">
        <ele>1567</ele>
        <time>2026-07-29T05:15:42.716Z</time>
      </trkpt>
      <trkpt lat="45.76753" lon="6.71382">
        <ele>1568</ele>
        <time>2026-07-29T05:15:43.716Z</time>
      </trkpt>
      <trkpt lat="45.76752" lon="6.7138">
        <ele>1568</ele>
        <time>2026-07-29T05:15:44.716Z</time>
      </trkpt>
      <trkpt lat="45.7675" lon="6.71379">
        <ele>1569</ele>
        <time>2026-07-29T05:15:45.716Z</time>
      </trkpt>
      <trkpt lat="45.76748" lon="6.71377">
        <ele>1569</ele>
        <time>2026-07-29T05:15:46.716Z</time>
      </trkpt>
      <trkpt lat="45.76746" lon="6.71376">
        <ele>1569</ele>
        <time>2026-07-29T05:15:47.716Z</time>
      </trkpt>
      <trkpt lat="45.76744" lon="6.71374">
        <ele>1569</ele>
        <time>2026-07-29T05:15:48.716Z</time>
      </trkpt>
      <trkpt lat="45.76742" lon="6.71373">
        <ele>1569</ele>
        <time>2026-07-29T05:15:49.716Z</time>
      </trkpt>
      <trkpt lat="45.76741" lon="6.71372">
        <ele>1570</ele>
        <time>2026-07-29T05:15:50.716Z</time>
      </trkpt>
      <trkpt lat="45.76739" lon="6.7137">
        <ele>1570</ele>
        <time>2026-07-29T05:15:51.716Z</time>
      </trkpt>
      <trkpt lat="45.76738" lon="6.71369">
        <ele>1570</ele>
        <time>2026-07-29T05:15:52.716Z</time>
      </trkpt>
      <trkpt lat="45.76736" lon="6.71368">
        <ele>1570</ele>
        <time>2026-07-29T05:15:53.716Z</time>
      </trkpt>
      <trkpt lat="45.76734" lon="6.71366">
        <ele>1570</ele>
        <time>2026-07-29T05:15:54.716Z</time>
      </trkpt>
      <trkpt lat="45.76733" lon="6.71365">
        <ele>1570</ele>
        <time>2026-07-29T05:15:55.716Z</time>
      </trkpt>
      <trkpt lat="45.76731" lon="6.71364">
        <ele>1570</ele>
        <time>2026-07-29T05:15:56.716Z</time>
      </trkpt>
      <trkpt lat="45.7673" lon="6.71362">
        <ele>1570</ele>
        <time>2026-07-29T05:15:57.716Z</time>
      </trkpt>
      <trkpt lat="45.76728" lon="6.71361">
        <ele>1571</ele>
        <time>2026-07-29T05:15:58.716Z</time>
      </trkpt>
      <trkpt lat="45.76726" lon="6.71359">
        <ele>1571</ele>
        <time>2026-07-29T05:15:59.716Z</time>
      </trkpt>
      <trkpt lat="45.76724" lon="6.71357">
        <ele>1571</ele>
        <time>2026-07-29T05:16:00.716Z</time>
      </trkpt>
      <trkpt lat="45.76723" lon="6.71355">
        <ele>1571</ele>
        <time>2026-07-29T05:16:01.716Z</time>
      </trkpt>
      <trkpt lat="45.76721" lon="6.71353">
        <ele>1571</ele>
        <time>2026-07-29T05:16:02.716Z</time>
      </trkpt>
      <trkpt lat="45.7672" lon="6.71352">
        <ele>1570</ele>
        <time>2026-07-29T05:16:03.716Z</time>
      </trkpt>
      <trkpt lat="45.76718" lon="6.7135">
        <ele>1571</ele>
        <time>2026-07-29T05:16:04.716Z</time>
      </trkpt>
      <trkpt lat="45.76716" lon="6.71349">
        <ele>1571</ele>
        <time>2026-07-29T05:16:05.716Z</time>
      </trkpt>
      <trkpt lat="45.76715" lon="6.71348">
        <ele>1571</ele>
        <time>2026-07-29T05:16:06.716Z</time>
      </trkpt>
      <trkpt lat="45.76714" lon="6.71346">
        <ele>1571</ele>
        <time>2026-07-29T05:16:07.716Z</time>
      </trkpt>
      <trkpt lat="45.76712" lon="6.71345">
        <ele>1571</ele>
        <time>2026-07-29T05:16:08.716Z</time>
      </trkpt>
      <trkpt lat="45.76711" lon="6.71345">
        <ele>1571</ele>
        <time>2026-07-29T05:16:09.716Z</time>
      </trkpt>
      <trkpt lat="45.76709" lon="6.71344">
        <ele>1571</ele>
        <time>2026-07-29T05:16:10.716Z</time>
      </trkpt>
      <trkpt lat="45.76708" lon="6.71342">
        <ele>1571</ele>
        <time>2026-07-29T05:16:11.716Z</time>
      </trkpt>
      <trkpt lat="45.76706" lon="6.71341">
        <ele>1570</ele>
        <time>2026-07-29T05:16:12.716Z</time>
      </trkpt>
      <trkpt lat="45.76705" lon="6.7134">
        <ele>1570</ele>
        <time>2026-07-29T05:16:13.716Z</time>
      </trkpt>
      <trkpt lat="45.76704" lon="6.71339">
        <ele>1570</ele>
        <time>2026-07-29T05:16:14.716Z</time>
      </trkpt>
      <trkpt lat="45.76702" lon="6.71337">
        <ele>1569</ele>
        <time>2026-07-29T05:16:15.716Z</time>
      </trkpt>
      <trkpt lat="45.76701" lon="6.71336">
        <ele>1569</ele>
        <time>2026-07-29T05:16:16.716Z</time>
      </trkpt>
      <trkpt lat="45.767" lon="6.71335">
        <ele>1568</ele>
        <time>2026-07-29T05:16:17.716Z</time>
      </trkpt>
      <trkpt lat="45.76699" lon="6.71334">
        <ele>1568</ele>
        <time>2026-07-29T05:16:18.716Z</time>
      </trkpt>
      <trkpt lat="45.76698" lon="6.71333">
        <ele>1568</ele>
        <time>2026-07-29T05:16:19.716Z</time>
      </trkpt>
      <trkpt lat="45.76698" lon="6.71332">
        <ele>1568</ele>
        <time>2026-07-29T05:16:20.716Z</time>
      </trkpt>
      <trkpt lat="45.76698" lon="6.71332">
        <ele>1568</ele>
        <time>2026-07-29T05:16:21.716Z</time>
      </trkpt>
      <trkpt lat="45.76698" lon="6.71332">
        <ele>1568</ele>
        <time>2026-07-29T05:16:22.716Z</time>
      </trkpt>
      <trkpt lat="45.76698" lon="6.71332">
        <ele>1567</ele>
        <time>2026-07-29T05:16:23.716Z</time>
      </trkpt>
      <trkpt lat="45.76698" lon="6.71331">
        <ele>1567</ele>
        <time>2026-07-29T05:16:24.716Z</time>
      </trkpt>
      <trkpt lat="45.76698" lon="6.71331">
        <ele>1567</ele>
        <time>2026-07-29T05:16:25.716Z</time>
      </trkpt>
      <trkpt lat="45.76698" lon="6.71331">
        <ele>1567</ele>
        <time>2026-07-29T05:16:26.716Z</time>
      </trkpt>
      <trkpt lat="45.76698" lon="6.71331">
        <ele>1567</ele>
        <time>2026-07-29T05:16:27.716Z</time>
      </trkpt>
      <trkpt lat="45.76698" lon="6.71331">
        <ele>1567</ele>
        <time>2026-07-29T05:16:28.716Z</time>
      </trkpt>
      <trkpt lat="45.76697" lon="6.71331">
        <ele>1567</ele>
        <time>2026-07-29T05:16:29.716Z</time>
      </trkpt>
      <trkpt lat="45.76697" lon="6.71331">
        <ele>1567</ele>
        <time>2026-07-29T05:16:30.716Z</time>
      </trkpt>
      <trkpt lat="45.76697" lon="6.71331">
        <ele>1567</ele>
        <time>2026-07-29T05:16:31.716Z</time>
      </trkpt>
      <trkpt lat="45.76697" lon="6.71331">
        <ele>1567</ele>
        <time>2026-07-29T05:16:32.716Z</time>
      </trkpt>
      <trkpt lat="45.76697" lon="6.71331">
        <ele>1566</ele>
        <time>2026-07-29T05:16:33.716Z</time>
      </trkpt>
      <trkpt lat="45.76697" lon="6.7133">
        <ele>1566</ele>
        <time>2026-07-29T05:16:34.716Z</time>
      </trkpt>
      <trkpt lat="45.76697" lon="6.7133">
        <ele>1566</ele>
        <time>2026-07-29T05:16:35.716Z</time>
      </trkpt>
      <trkpt lat="45.76697" lon="6.7133">
        <ele>1566</ele>
        <time>2026-07-29T05:16:36.716Z</time>
      </trkpt>
      <trkpt lat="45.76696" lon="6.71329">
        <ele>1566</ele>
        <time>2026-07-29T05:16:37.716Z</time>
      </trkpt>
      <trkpt lat="45.76695" lon="6.71328">
        <ele>1566</ele>
        <time>2026-07-29T05:16:38.716Z</time>
      </trkpt>
      <trkpt lat="45.76693" lon="6.71328">
        <ele>1566</ele>
        <time>2026-07-29T05:16:39.716Z</time>
      </trkpt>
      <trkpt lat="45.76691" lon="6.71327">
        <ele>1567</ele>
        <time>2026-07-29T05:16:40.716Z</time>
      </trkpt>
      <trkpt lat="45.7669" lon="6.71326">
        <ele>1567</ele>
        <time>2026-07-29T05:16:41.716Z</time>
      </trkpt>
      <trkpt lat="45.76688" lon="6.71325">
        <ele>1567</ele>
        <time>2026-07-29T05:16:42.716Z</time>
      </trkpt>
      <trkpt lat="45.76686" lon="6.71324">
        <ele>1568</ele>
        <time>2026-07-29T05:16:43.716Z</time>
      </trkpt>
      <trkpt lat="45.76685" lon="6.71323">
        <ele>1568</ele>
        <time>2026-07-29T05:16:44.716Z</time>
      </trkpt>
      <trkpt lat="45.76683" lon="6.71322">
        <ele>1568</ele>
        <time>2026-07-29T05:16:45.716Z</time>
      </trkpt>
      <trkpt lat="45.76681" lon="6.7132">
        <ele>1568</ele>
        <time>2026-07-29T05:16:46.716Z</time>
      </trkpt>
      <trkpt lat="45.7668" lon="6.71319">
        <ele>1568</ele>
        <time>2026-07-29T05:16:47.716Z</time>
      </trkpt>
      <trkpt lat="45.76678" lon="6.71317">
        <ele>1568</ele>
        <time>2026-07-29T05:16:48.716Z</time>
      </trkpt>
      <trkpt lat="45.76677" lon="6.71317">
        <ele>1568</ele>
        <time>2026-07-29T05:16:49.716Z</time>
      </trkpt>
      <trkpt lat="45.76675" lon="6.71316">
        <ele>1568</ele>
        <time>2026-07-29T05:16:50.716Z</time>
      </trkpt>
      <trkpt lat="45.76674" lon="6.71315">
        <ele>1569</ele>
        <time>2026-07-29T05:16:51.716Z</time>
      </trkpt>
      <trkpt lat="45.76672" lon="6.71315">
        <ele>1568</ele>
        <time>2026-07-29T05:16:52.716Z</time>
      </trkpt>
      <trkpt lat="45.7667" lon="6.71315">
        <ele>1568</ele>
        <time>2026-07-29T05:16:53.716Z</time>
      </trkpt>
      <trkpt lat="45.76668" lon="6.71314">
        <ele>1568</ele>
        <time>2026-07-29T05:16:54.716Z</time>
      </trkpt>
      <trkpt lat="45.76666" lon="6.71313">
        <ele>1569</ele>
        <time>2026-07-29T05:16:55.716Z</time>
      </trkpt>
      <trkpt lat="45.76664" lon="6.71313">
        <ele>1569</ele>
        <time>2026-07-29T05:16:56.716Z</time>
      </trkpt>
      <trkpt lat="45.76663" lon="6.71312">
        <ele>1569</ele>
        <time>2026-07-29T05:16:57.716Z</time>
      </trkpt>
      <trkpt lat="45.76661" lon="6.71312">
        <ele>1569</ele>
        <time>2026-07-29T05:16:58.716Z</time>
      </trkpt>
      <trkpt lat="45.76659" lon="6.71312">
        <ele>1570</ele>
        <time>2026-07-29T05:16:59.716Z</time>
      </trkpt>
      <trkpt lat="45.76658" lon="6.71312">
        <ele>1570</ele>
        <time>2026-07-29T05:17:00.716Z</time>
      </trkpt>
      <trkpt lat="45.76656" lon="6.71311">
        <ele>1570</ele>
        <time>2026-07-29T05:17:01.716Z</time>
      </trkpt>
      <trkpt lat="45.76654" lon="6.71311">
        <ele>1570</ele>
        <time>2026-07-29T05:17:02.716Z</time>
      </trkpt>
      <trkpt lat="45.76653" lon="6.7131">
        <ele>1570</ele>
        <time>2026-07-29T05:17:03.716Z</time>
      </trkpt>
      <trkpt lat="45.76651" lon="6.7131">
        <ele>1570</ele>
        <time>2026-07-29T05:17:04.716Z</time>
      </trkpt>
      <trkpt lat="45.76649" lon="6.71309">
        <ele>1570</ele>
        <time>2026-07-29T05:17:05.716Z</time>
      </trkpt>
      <trkpt lat="45.76647" lon="6.71309">
        <ele>1570</ele>
        <time>2026-07-29T05:17:06.716Z</time>
      </trkpt>
      <trkpt lat="45.76646" lon="6.71308">
        <ele>1571</ele>
        <time>2026-07-29T05:17:07.716Z</time>
      </trkpt>
      <trkpt lat="45.76644" lon="6.71307">
        <ele>1571</ele>
        <time>2026-07-29T05:17:08.716Z</time>
      </trkpt>
      <trkpt lat="45.76642" lon="6.71308">
        <ele>1572</ele>
        <time>2026-07-29T05:17:09.716Z</time>
      </trkpt>
      <trkpt lat="45.7664" lon="6.71307">
        <ele>1572</ele>
        <time>2026-07-29T05:17:10.716Z</time>
      </trkpt>
      <trkpt lat="45.76638" lon="6.71307">
        <ele>1572</ele>
        <time>2026-07-29T05:17:11.716Z</time>
      </trkpt>
      <trkpt lat="45.76637" lon="6.71306">
        <ele>1572</ele>
        <time>2026-07-29T05:17:12.716Z</time>
      </trkpt>
      <trkpt lat="45.76635" lon="6.71305">
        <ele>1572</ele>
        <time>2026-07-29T05:17:13.716Z</time>
      </trkpt>
      <trkpt lat="45.76633" lon="6.71304">
        <ele>1572</ele>
        <time>2026-07-29T05:17:14.716Z</time>
      </trkpt>
      <trkpt lat="45.76632" lon="6.71304">
        <ele>1573</ele>
        <time>2026-07-29T05:17:15.716Z</time>
      </trkpt>
      <trkpt lat="45.7663" lon="6.71303">
        <ele>1573</ele>
        <time>2026-07-29T05:17:16.716Z</time>
      </trkpt>
      <trkpt lat="45.76628" lon="6.71302">
        <ele>1573</ele>
        <time>2026-07-29T05:17:17.716Z</time>
      </trkpt>
      <trkpt lat="45.76627" lon="6.71302">
        <ele>1574</ele>
        <time>2026-07-29T05:17:18.716Z</time>
      </trkpt>
      <trkpt lat="45.76625" lon="6.71301">
        <ele>1575</ele>
        <time>2026-07-29T05:17:19.716Z</time>
      </trkpt>
      <trkpt lat="45.76623" lon="6.71301">
        <ele>1575</ele>
        <time>2026-07-29T05:17:20.716Z</time>
      </trkpt>
      <trkpt lat="45.76621" lon="6.713">
        <ele>1576</ele>
        <time>2026-07-29T05:17:21.716Z</time>
      </trkpt>
      <trkpt lat="45.76619" lon="6.713">
        <ele>1576</ele>
        <time>2026-07-29T05:17:22.716Z</time>
      </trkpt>
      <trkpt lat="45.76617" lon="6.713">
        <ele>1576</ele>
        <time>2026-07-29T05:17:23.716Z</time>
      </trkpt>
      <trkpt lat="45.76616" lon="6.71299">
        <ele>1576</ele>
        <time>2026-07-29T05:17:24.716Z</time>
      </trkpt>
      <trkpt lat="45.76614" lon="6.71299">
        <ele>1576</ele>
        <time>2026-07-29T05:17:25.716Z</time>
      </trkpt>
      <trkpt lat="45.76612" lon="6.71299">
        <ele>1576</ele>
        <time>2026-07-29T05:17:26.716Z</time>
      </trkpt>
      <trkpt lat="45.7661" lon="6.71298">
        <ele>1576</ele>
        <time>2026-07-29T05:17:27.716Z</time>
      </trkpt>
      <trkpt lat="45.76608" lon="6.71298">
        <ele>1576</ele>
        <time>2026-07-29T05:17:28.716Z</time>
      </trkpt>
      <trkpt lat="45.76607" lon="6.71297">
        <ele>1576</ele>
        <time>2026-07-29T05:17:29.716Z</time>
      </trkpt>
      <trkpt lat="45.76605" lon="6.71297">
        <ele>1576</ele>
        <time>2026-07-29T05:17:30.716Z</time>
      </trkpt>
      <trkpt lat="45.76603" lon="6.71296">
        <ele>1576</ele>
        <time>2026-07-29T05:17:31.716Z</time>
      </trkpt>
      <trkpt lat="45.76602" lon="6.71296">
        <ele>1576</ele>
        <time>2026-07-29T05:17:32.716Z</time>
      </trkpt>
      <trkpt lat="45.766" lon="6.71295">
        <ele>1576</ele>
        <time>2026-07-29T05:17:33.716Z</time>
      </trkpt>
      <trkpt lat="45.76598" lon="6.71294">
        <ele>1577</ele>
        <time>2026-07-29T05:17:34.716Z</time>
      </trkpt>
      <trkpt lat="45.76597" lon="6.71293">
        <ele>1577</ele>
        <time>2026-07-29T05:17:35.716Z</time>
      </trkpt>
      <trkpt lat="45.76595" lon="6.71292">
        <ele>1577</ele>
        <time>2026-07-29T05:17:36.716Z</time>
      </trkpt>
      <trkpt lat="45.76594" lon="6.71292">
        <ele>1578</ele>
        <time>2026-07-29T05:17:37.716Z</time>
      </trkpt>
      <trkpt lat="45.76592" lon="6.71292">
        <ele>1578</ele>
        <time>2026-07-29T05:17:38.716Z</time>
      </trkpt>
      <trkpt lat="45.76591" lon="6.71292">
        <ele>1579</ele>
        <time>2026-07-29T05:17:39.716Z</time>
      </trkpt>
      <trkpt lat="45.76589" lon="6.71291">
        <ele>1579</ele>
        <time>2026-07-29T05:17:40.716Z</time>
      </trkpt>
      <trkpt lat="45.76587" lon="6.71291">
        <ele>1579</ele>
        <time>2026-07-29T05:17:41.716Z</time>
      </trkpt>
      <trkpt lat="45.76585" lon="6.71291">
        <ele>1580</ele>
        <time>2026-07-29T05:17:42.716Z</time>
      </trkpt>
      <trkpt lat="45.76584" lon="6.7129">
        <ele>1580</ele>
        <time>2026-07-29T05:17:43.716Z</time>
      </trkpt>
      <trkpt lat="45.76582" lon="6.7129">
        <ele>1580</ele>
        <time>2026-07-29T05:17:44.716Z</time>
      </trkpt>
      <trkpt lat="45.7658" lon="6.7129">
        <ele>1580</ele>
        <time>2026-07-29T05:17:45.716Z</time>
      </trkpt>
      <trkpt lat="45.76579" lon="6.71289">
        <ele>1580</ele>
        <time>2026-07-29T05:17:46.716Z</time>
      </trkpt>
      <trkpt lat="45.76577" lon="6.71289">
        <ele>1580</ele>
        <time>2026-07-29T05:17:47.716Z</time>
      </trkpt>
      <trkpt lat="45.76575" lon="6.71289">
        <ele>1580</ele>
        <time>2026-07-29T05:17:48.716Z</time>
      </trkpt>
      <trkpt lat="45.76574" lon="6.71289">
        <ele>1581</ele>
        <time>2026-07-29T05:17:49.716Z</time>
      </trkpt>
      <trkpt lat="45.76572" lon="6.71289">
        <ele>1581</ele>
        <time>2026-07-29T05:17:50.716Z</time>
      </trkpt>
      <trkpt lat="45.76571" lon="6.71288">
        <ele>1581</ele>
        <time>2026-07-29T05:17:51.716Z</time>
      </trkpt>
      <trkpt lat="45.76569" lon="6.71288">
        <ele>1581</ele>
        <time>2026-07-29T05:17:52.716Z</time>
      </trkpt>
      <trkpt lat="45.76567" lon="6.71287">
        <ele>1582</ele>
        <time>2026-07-29T05:17:53.716Z</time>
      </trkpt>
      <trkpt lat="45.76565" lon="6.71287">
        <ele>1582</ele>
        <time>2026-07-29T05:17:54.716Z</time>
      </trkpt>
      <trkpt lat="45.76563" lon="6.71287">
        <ele>1582</ele>
        <time>2026-07-29T05:17:55.716Z</time>
      </trkpt>
      <trkpt lat="45.76561" lon="6.71286">
        <ele>1582</ele>
        <time>2026-07-29T05:17:56.716Z</time>
      </trkpt>
      <trkpt lat="45.7656" lon="6.71285">
        <ele>1582</ele>
        <time>2026-07-29T05:17:57.716Z</time>
      </trkpt>
      <trkpt lat="45.76558" lon="6.71284">
        <ele>1582</ele>
        <time>2026-07-29T05:17:58.716Z</time>
      </trkpt>
      <trkpt lat="45.76556" lon="6.71283">
        <ele>1582</ele>
        <time>2026-07-29T05:17:59.716Z</time>
      </trkpt>
      <trkpt lat="45.76554" lon="6.71283">
        <ele>1582</ele>
        <time>2026-07-29T05:18:00.716Z</time>
      </trkpt>
      <trkpt lat="45.76553" lon="6.71282">
        <ele>1582</ele>
        <time>2026-07-29T05:18:01.716Z</time>
      </trkpt>
      <trkpt lat="45.76551" lon="6.71282">
        <ele>1583</ele>
        <time>2026-07-29T05:18:02.716Z</time>
      </trkpt>
      <trkpt lat="45.76549" lon="6.71281">
        <ele>1583</ele>
        <time>2026-07-29T05:18:03.716Z</time>
      </trkpt>
      <trkpt lat="45.76547" lon="6.7128">
        <ele>1583</ele>
        <time>2026-07-29T05:18:04.716Z</time>
      </trkpt>
      <trkpt lat="45.76546" lon="6.71278">
        <ele>1584</ele>
        <time>2026-07-29T05:18:05.716Z</time>
      </trkpt>
      <trkpt lat="45.76544" lon="6.71278">
        <ele>1584</ele>
        <time>2026-07-29T05:18:06.716Z</time>
      </trkpt>
      <trkpt lat="45.76542" lon="6.71277">
        <ele>1584</ele>
        <time>2026-07-29T05:18:07.716Z</time>
      </trkpt>
      <trkpt lat="45.76541" lon="6.71277">
        <ele>1584</ele>
        <time>2026-07-29T05:18:08.716Z</time>
      </trkpt>
      <trkpt lat="45.76539" lon="6.71276">
        <ele>1584</ele>
        <time>2026-07-29T05:18:09.716Z</time>
      </trkpt>
      <trkpt lat="45.76538" lon="6.71274">
        <ele>1584</ele>
        <time>2026-07-29T05:18:10.716Z</time>
      </trkpt>
      <trkpt lat="45.76537" lon="6.71274">
        <ele>1585</ele>
        <time>2026-07-29T05:18:11.716Z</time>
      </trkpt>
      <trkpt lat="45.76535" lon="6.71273">
        <ele>1585</ele>
        <time>2026-07-29T05:18:12.716Z</time>
      </trkpt>
      <trkpt lat="45.76533" lon="6.71273">
        <ele>1585</ele>
        <time>2026-07-29T05:18:13.716Z</time>
      </trkpt>
      <trkpt lat="45.76531" lon="6.71272">
        <ele>1585</ele>
        <time>2026-07-29T05:18:14.716Z</time>
      </trkpt>
      <trkpt lat="45.7653" lon="6.71272">
        <ele>1585</ele>
        <time>2026-07-29T05:18:15.716Z</time>
      </trkpt>
      <trkpt lat="45.76529" lon="6.71271">
        <ele>1585</ele>
        <time>2026-07-29T05:18:16.716Z</time>
      </trkpt>
      <trkpt lat="45.76527" lon="6.71271">
        <ele>1585</ele>
        <time>2026-07-29T05:18:17.716Z</time>
      </trkpt>
      <trkpt lat="45.76525" lon="6.71271">
        <ele>1585</ele>
        <time>2026-07-29T05:18:18.716Z</time>
      </trkpt>
      <trkpt lat="45.76524" lon="6.7127">
        <ele>1585</ele>
        <time>2026-07-29T05:18:19.716Z</time>
      </trkpt>
      <trkpt lat="45.76522" lon="6.7127">
        <ele>1585</ele>
        <time>2026-07-29T05:18:20.716Z</time>
      </trkpt>
      <trkpt lat="45.7652" lon="6.71269">
        <ele>1585</ele>
        <time>2026-07-29T05:18:21.716Z</time>
      </trkpt>
      <trkpt lat="45.76518" lon="6.71269">
        <ele>1585</ele>
        <time>2026-07-29T05:18:22.716Z</time>
      </trkpt>
      <trkpt lat="45.76516" lon="6.71269">
        <ele>1585</ele>
        <time>2026-07-29T05:18:23.716Z</time>
      </trkpt>
      <trkpt lat="45.76515" lon="6.71269">
        <ele>1586</ele>
        <time>2026-07-29T05:18:24.716Z</time>
      </trkpt>
      <trkpt lat="45.76513" lon="6.71268">
        <ele>1586</ele>
        <time>2026-07-29T05:18:25.716Z</time>
      </trkpt>
      <trkpt lat="45.76512" lon="6.71268">
        <ele>1586</ele>
        <time>2026-07-29T05:18:26.716Z</time>
      </trkpt>
      <trkpt lat="45.7651" lon="6.71267">
        <ele>1587</ele>
        <time>2026-07-29T05:18:27.716Z</time>
      </trkpt>
      <trkpt lat="45.76508" lon="6.71267">
        <ele>1587</ele>
        <time>2026-07-29T05:18:28.716Z</time>
      </trkpt>
      <trkpt lat="45.76507" lon="6.71266">
        <ele>1587</ele>
        <time>2026-07-29T05:18:29.716Z</time>
      </trkpt>
      <trkpt lat="45.76505" lon="6.71266">
        <ele>1588</ele>
        <time>2026-07-29T05:18:30.716Z</time>
      </trkpt>
      <trkpt lat="45.76503" lon="6.71266">
        <ele>1588</ele>
        <time>2026-07-29T05:18:31.716Z</time>
      </trkpt>
      <trkpt lat="45.76501" lon="6.71265">
        <ele>1588</ele>
        <time>2026-07-29T05:18:32.716Z</time>
      </trkpt>
      <trkpt lat="45.765" lon="6.71265">
        <ele>1588</ele>
        <time>2026-07-29T05:18:33.716Z</time>
      </trkpt>
      <trkpt lat="45.76498" lon="6.71265">
        <ele>1588</ele>
        <time>2026-07-29T05:18:34.716Z</time>
      </trkpt>
      <trkpt lat="45.76496" lon="6.71265">
        <ele>1588</ele>
        <time>2026-07-29T05:18:35.716Z</time>
      </trkpt>
      <trkpt lat="45.76495" lon="6.71264">
        <ele>1588</ele>
        <time>2026-07-29T05:18:36.716Z</time>
      </trkpt>
      <trkpt lat="45.76493" lon="6.71264">
        <ele>1588</ele>
        <time>2026-07-29T05:18:37.716Z</time>
      </trkpt>
      <trkpt lat="45.76492" lon="6.71263">
        <ele>1588</ele>
        <time>2026-07-29T05:18:38.716Z</time>
      </trkpt>
      <trkpt lat="45.7649" lon="6.71262">
        <ele>1588</ele>
        <time>2026-07-29T05:18:39.716Z</time>
      </trkpt>
      <trkpt lat="45.76488" lon="6.71261">
        <ele>1588</ele>
        <time>2026-07-29T05:18:40.716Z</time>
      </trkpt>
      <trkpt lat="45.76486" lon="6.7126">
        <ele>1588</ele>
        <time>2026-07-29T05:18:41.716Z</time>
      </trkpt>
      <trkpt lat="45.76485" lon="6.71259">
        <ele>1588</ele>
        <time>2026-07-29T05:18:42.716Z</time>
      </trkpt>
      <trkpt lat="45.76483" lon="6.71258">
        <ele>1588</ele>
        <time>2026-07-29T05:18:43.716Z</time>
      </trkpt>
      <trkpt lat="45.76482" lon="6.71257">
        <ele>1588</ele>
        <time>2026-07-29T05:18:44.716Z</time>
      </trkpt>
      <trkpt lat="45.76481" lon="6.71256">
        <ele>1588</ele>
        <time>2026-07-29T05:18:45.716Z</time>
      </trkpt>
      <trkpt lat="45.76479" lon="6.71255">
        <ele>1588</ele>
        <time>2026-07-29T05:18:46.716Z</time>
      </trkpt>
      <trkpt lat="45.76477" lon="6.71253">
        <ele>1588</ele>
        <time>2026-07-29T05:18:47.716Z</time>
      </trkpt>
      <trkpt lat="45.76476" lon="6.71252">
        <ele>1588</ele>
        <time>2026-07-29T05:18:48.716Z</time>
      </trkpt>
      <trkpt lat="45.76474" lon="6.71251">
        <ele>1589</ele>
        <time>2026-07-29T05:18:49.716Z</time>
      </trkpt>
      <trkpt lat="45.76472" lon="6.7125">
        <ele>1589</ele>
        <time>2026-07-29T05:18:50.716Z</time>
      </trkpt>
      <trkpt lat="45.76471" lon="6.71248">
        <ele>1589</ele>
        <time>2026-07-29T05:18:51.716Z</time>
      </trkpt>
      <trkpt lat="45.76469" lon="6.71247">
        <ele>1589</ele>
        <time>2026-07-29T05:18:52.716Z</time>
      </trkpt>
      <trkpt lat="45.76468" lon="6.71246">
        <ele>1589</ele>
        <time>2026-07-29T05:18:53.716Z</time>
      </trkpt>
      <trkpt lat="45.76466" lon="6.71245">
        <ele>1589</ele>
        <time>2026-07-29T05:18:54.716Z</time>
      </trkpt>
      <trkpt lat="45.76464" lon="6.71244">
        <ele>1589</ele>
        <time>2026-07-29T05:18:55.716Z</time>
      </trkpt>
      <trkpt lat="45.76463" lon="6.71243">
        <ele>1590</ele>
        <time>2026-07-29T05:18:56.716Z</time>
      </trkpt>
      <trkpt lat="45.76461" lon="6.71242">
        <ele>1590</ele>
        <time>2026-07-29T05:18:57.716Z</time>
      </trkpt>
      <trkpt lat="45.7646" lon="6.71241">
        <ele>1590</ele>
        <time>2026-07-29T05:18:58.716Z</time>
      </trkpt>
      <trkpt lat="45.76458" lon="6.7124">
        <ele>1590</ele>
        <time>2026-07-29T05:18:59.716Z</time>
      </trkpt>
      <trkpt lat="45.76456" lon="6.7124">
        <ele>1590</ele>
        <time>2026-07-29T05:19:00.716Z</time>
      </trkpt>
      <trkpt lat="45.76454" lon="6.7124">
        <ele>1591</ele>
        <time>2026-07-29T05:19:01.716Z</time>
      </trkpt>
      <trkpt lat="45.76453" lon="6.7124">
        <ele>1591</ele>
        <time>2026-07-29T05:19:02.716Z</time>
      </trkpt>
      <trkpt lat="45.76451" lon="6.7124">
        <ele>1592</ele>
        <time>2026-07-29T05:19:03.716Z</time>
      </trkpt>
      <trkpt lat="45.76449" lon="6.7124">
        <ele>1592</ele>
        <time>2026-07-29T05:19:04.716Z</time>
      </trkpt>
      <trkpt lat="45.76448" lon="6.71239">
        <ele>1592</ele>
        <time>2026-07-29T05:19:05.716Z</time>
      </trkpt>
      <trkpt lat="45.76446" lon="6.71239">
        <ele>1592</ele>
        <time>2026-07-29T05:19:06.716Z</time>
      </trkpt>
      <trkpt lat="45.76444" lon="6.71239">
        <ele>1592</ele>
        <time>2026-07-29T05:19:07.716Z</time>
      </trkpt>
      <trkpt lat="45.76442" lon="6.7124">
        <ele>1593</ele>
        <time>2026-07-29T05:19:08.716Z</time>
      </trkpt>
      <trkpt lat="45.76441" lon="6.7124">
        <ele>1593</ele>
        <time>2026-07-29T05:19:09.716Z</time>
      </trkpt>
      <trkpt lat="45.76439" lon="6.7124">
        <ele>1593</ele>
        <time>2026-07-29T05:19:10.716Z</time>
      </trkpt>
      <trkpt lat="45.76437" lon="6.71239">
        <ele>1593</ele>
        <time>2026-07-29T05:19:11.716Z</time>
      </trkpt>
      <trkpt lat="45.76435" lon="6.71239">
        <ele>1593</ele>
        <time>2026-07-29T05:19:12.716Z</time>
      </trkpt>
      <trkpt lat="45.76434" lon="6.71239">
        <ele>1593</ele>
        <time>2026-07-29T05:19:13.716Z</time>
      </trkpt>
      <trkpt lat="45.76432" lon="6.71238">
        <ele>1592</ele>
        <time>2026-07-29T05:19:14.716Z</time>
      </trkpt>
      <trkpt lat="45.7643" lon="6.71237">
        <ele>1592</ele>
        <time>2026-07-29T05:19:15.716Z</time>
      </trkpt>
      <trkpt lat="45.76428" lon="6.71237">
        <ele>1593</ele>
        <time>2026-07-29T05:19:16.716Z</time>
      </trkpt>
      <trkpt lat="45.76427" lon="6.71237">
        <ele>1593</ele>
        <time>2026-07-29T05:19:17.716Z</time>
      </trkpt>
      <trkpt lat="45.76425" lon="6.71236">
        <ele>1593</ele>
        <time>2026-07-29T05:19:18.716Z</time>
      </trkpt>
      <trkpt lat="45.76423" lon="6.71235">
        <ele>1593</ele>
        <time>2026-07-29T05:19:19.716Z</time>
      </trkpt>
      <trkpt lat="45.76422" lon="6.71234">
        <ele>1593</ele>
        <time>2026-07-29T05:19:20.716Z</time>
      </trkpt>
      <trkpt lat="45.7642" lon="6.71234">
        <ele>1593</ele>
        <time>2026-07-29T05:19:21.716Z</time>
      </trkpt>
      <trkpt lat="45.76418" lon="6.71233">
        <ele>1593</ele>
        <time>2026-07-29T05:19:22.716Z</time>
      </trkpt>
      <trkpt lat="45.76416" lon="6.71232">
        <ele>1593</ele>
        <time>2026-07-29T05:19:23.716Z</time>
      </trkpt>
      <trkpt lat="45.76414" lon="6.71231">
        <ele>1593</ele>
        <time>2026-07-29T05:19:24.716Z</time>
      </trkpt>
      <trkpt lat="45.76412" lon="6.71229">
        <ele>1592</ele>
        <time>2026-07-29T05:19:25.716Z</time>
      </trkpt>
      <trkpt lat="45.7641" lon="6.71228">
        <ele>1592</ele>
        <time>2026-07-29T05:19:26.716Z</time>
      </trkpt>
      <trkpt lat="45.76408" lon="6.71227">
        <ele>1592</ele>
        <time>2026-07-29T05:19:27.716Z</time>
      </trkpt>
      <trkpt lat="45.76407" lon="6.71227">
        <ele>1592</ele>
        <time>2026-07-29T05:19:28.716Z</time>
      </trkpt>
      <trkpt lat="45.76405" lon="6.71226">
        <ele>1592</ele>
        <time>2026-07-29T05:19:29.716Z</time>
      </trkpt>
      <trkpt lat="45.76404" lon="6.71225">
        <ele>1592</ele>
        <time>2026-07-29T05:19:30.716Z</time>
      </trkpt>
      <trkpt lat="45.76402" lon="6.71224">
        <ele>1592</ele>
        <time>2026-07-29T05:19:31.716Z</time>
      </trkpt>
      <trkpt lat="45.76401" lon="6.71223">
        <ele>1592</ele>
        <time>2026-07-29T05:19:32.716Z</time>
      </trkpt>
      <trkpt lat="45.76399" lon="6.71223">
        <ele>1592</ele>
        <time>2026-07-29T05:19:33.716Z</time>
      </trkpt>
      <trkpt lat="45.76397" lon="6.71222">
        <ele>1592</ele>
        <time>2026-07-29T05:19:34.716Z</time>
      </trkpt>
      <trkpt lat="45.76396" lon="6.71221">
        <ele>1592</ele>
        <time>2026-07-29T05:19:35.716Z</time>
      </trkpt>
      <trkpt lat="45.76394" lon="6.7122">
        <ele>1592</ele>
        <time>2026-07-29T05:19:36.716Z</time>
      </trkpt>
      <trkpt lat="45.76392" lon="6.7122">
        <ele>1592</ele>
        <time>2026-07-29T05:19:37.716Z</time>
      </trkpt>
      <trkpt lat="45.76391" lon="6.71219">
        <ele>1592</ele>
        <time>2026-07-29T05:19:38.716Z</time>
      </trkpt>
      <trkpt lat="45.76389" lon="6.71218">
        <ele>1592</ele>
        <time>2026-07-29T05:19:39.716Z</time>
      </trkpt>
      <trkpt lat="45.76387" lon="6.71217">
        <ele>1592</ele>
        <time>2026-07-29T05:19:40.716Z</time>
      </trkpt>
      <trkpt lat="45.76386" lon="6.71216">
        <ele>1592</ele>
        <time>2026-07-29T05:19:41.716Z</time>
      </trkpt>
      <trkpt lat="45.76384" lon="6.71216">
        <ele>1592</ele>
        <time>2026-07-29T05:19:42.716Z</time>
      </trkpt>
      <trkpt lat="45.76383" lon="6.71215">
        <ele>1592</ele>
        <time>2026-07-29T05:19:43.716Z</time>
      </trkpt>
      <trkpt lat="45.76381" lon="6.71214">
        <ele>1592</ele>
        <time>2026-07-29T05:19:44.716Z</time>
      </trkpt>
      <trkpt lat="45.76379" lon="6.71213">
        <ele>1592</ele>
        <time>2026-07-29T05:19:45.716Z</time>
      </trkpt>
      <trkpt lat="45.76378" lon="6.71213">
        <ele>1592</ele>
        <time>2026-07-29T05:19:46.716Z</time>
      </trkpt>
      <trkpt lat="45.76376" lon="6.71212">
        <ele>1592</ele>
        <time>2026-07-29T05:19:47.716Z</time>
      </trkpt>
      <trkpt lat="45.76375" lon="6.71211">
        <ele>1592</ele>
        <time>2026-07-29T05:19:48.716Z</time>
      </trkpt>
      <trkpt lat="45.76373" lon="6.71209">
        <ele>1593</ele>
        <time>2026-07-29T05:19:49.716Z</time>
      </trkpt>
      <trkpt lat="45.76372" lon="6.71208">
        <ele>1593</ele>
        <time>2026-07-29T05:19:50.716Z</time>
      </trkpt>
      <trkpt lat="45.7637" lon="6.71207">
        <ele>1593</ele>
        <time>2026-07-29T05:19:51.716Z</time>
      </trkpt>
      <trkpt lat="45.76369" lon="6.71206">
        <ele>1593</ele>
        <time>2026-07-29T05:19:52.716Z</time>
      </trkpt>
      <trkpt lat="45.76368" lon="6.71204">
        <ele>1594</ele>
        <time>2026-07-29T05:19:53.716Z</time>
      </trkpt>
      <trkpt lat="45.76366" lon="6.71203">
        <ele>1594</ele>
        <time>2026-07-29T05:19:54.716Z</time>
      </trkpt>
      <trkpt lat="45.76365" lon="6.71202">
        <ele>1594</ele>
        <time>2026-07-29T05:19:55.716Z</time>
      </trkpt>
      <trkpt lat="45.76363" lon="6.71201">
        <ele>1594</ele>
        <time>2026-07-29T05:19:56.716Z</time>
      </trkpt>
      <trkpt lat="45.76362" lon="6.71199">
        <ele>1594</ele>
        <time>2026-07-29T05:19:57.716Z</time>
      </trkpt>
      <trkpt lat="45.76361" lon="6.71198">
        <ele>1594</ele>
        <time>2026-07-29T05:19:58.716Z</time>
      </trkpt>
      <trkpt lat="45.76359" lon="6.71197">
        <ele>1595</ele>
        <time>2026-07-29T05:19:59.716Z</time>
      </trkpt>
      <trkpt lat="45.76357" lon="6.71196">
        <ele>1595</ele>
        <time>2026-07-29T05:20:00.716Z</time>
      </trkpt>
      <trkpt lat="45.76356" lon="6.71196">
        <ele>1596</ele>
        <time>2026-07-29T05:20:01.716Z</time>
      </trkpt>
      <trkpt lat="45.76354" lon="6.71195">
        <ele>1596</ele>
        <time>2026-07-29T05:20:02.716Z</time>
      </trkpt>
      <trkpt lat="45.76352" lon="6.71195">
        <ele>1597</ele>
        <time>2026-07-29T05:20:03.716Z</time>
      </trkpt>
      <trkpt lat="45.76351" lon="6.71194">
        <ele>1597</ele>
        <time>2026-07-29T05:20:04.716Z</time>
      </trkpt>
      <trkpt lat="45.76349" lon="6.71194">
        <ele>1597</ele>
        <time>2026-07-29T05:20:05.716Z</time>
      </trkpt>
      <trkpt lat="45.76348" lon="6.71193">
        <ele>1597</ele>
        <time>2026-07-29T05:20:06.716Z</time>
      </trkpt>
      <trkpt lat="45.76346" lon="6.71193">
        <ele>1598</ele>
        <time>2026-07-29T05:20:07.716Z</time>
      </trkpt>
      <trkpt lat="45.76344" lon="6.71192">
        <ele>1598</ele>
        <time>2026-07-29T05:20:08.716Z</time>
      </trkpt>
      <trkpt lat="45.76343" lon="6.71192">
        <ele>1598</ele>
        <time>2026-07-29T05:20:09.716Z</time>
      </trkpt>
      <trkpt lat="45.76341" lon="6.71192">
        <ele>1597</ele>
        <time>2026-07-29T05:20:10.716Z</time>
      </trkpt>
      <trkpt lat="45.76339" lon="6.71192">
        <ele>1597</ele>
        <time>2026-07-29T05:20:11.716Z</time>
      </trkpt>
      <trkpt lat="45.76337" lon="6.71192">
        <ele>1597</ele>
        <time>2026-07-29T05:20:12.716Z</time>
      </trkpt>
      <trkpt lat="45.76336" lon="6.71192">
        <ele>1597</ele>
        <time>2026-07-29T05:20:13.716Z</time>
      </trkpt>
      <trkpt lat="45.76334" lon="6.71192">
        <ele>1598</ele>
        <time>2026-07-29T05:20:14.716Z</time>
      </trkpt>
      <trkpt lat="45.76333" lon="6.71192">
        <ele>1598</ele>
        <time>2026-07-29T05:20:15.716Z</time>
      </trkpt>
      <trkpt lat="45.76332" lon="6.71192">
        <ele>1599</ele>
        <time>2026-07-29T05:20:16.716Z</time>
      </trkpt>
      <trkpt lat="45.7633" lon="6.71192">
        <ele>1599</ele>
        <time>2026-07-29T05:20:17.716Z</time>
      </trkpt>
      <trkpt lat="45.76329" lon="6.71191">
        <ele>1599</ele>
        <time>2026-07-29T05:20:18.716Z</time>
      </trkpt>
      <trkpt lat="45.76327" lon="6.71191">
        <ele>1599</ele>
        <time>2026-07-29T05:20:19.716Z</time>
      </trkpt>
      <trkpt lat="45.76326" lon="6.7119">
        <ele>1599</ele>
        <time>2026-07-29T05:20:20.716Z</time>
      </trkpt>
      <trkpt lat="45.76324" lon="6.7119">
        <ele>1600</ele>
        <time>2026-07-29T05:20:21.716Z</time>
      </trkpt>
      <trkpt lat="45.76323" lon="6.71189">
        <ele>1600</ele>
        <time>2026-07-29T05:20:22.716Z</time>
      </trkpt>
      <trkpt lat="45.76321" lon="6.71189">
        <ele>1600</ele>
        <time>2026-07-29T05:20:23.716Z</time>
      </trkpt>
      <trkpt lat="45.7632" lon="6.71189">
        <ele>1601</ele>
        <time>2026-07-29T05:20:24.716Z</time>
      </trkpt>
      <trkpt lat="45.76318" lon="6.71188">
        <ele>1601</ele>
        <time>2026-07-29T05:20:25.716Z</time>
      </trkpt>
      <trkpt lat="45.76317" lon="6.71187">
        <ele>1601</ele>
        <time>2026-07-29T05:20:26.716Z</time>
      </trkpt>
      <trkpt lat="45.76315" lon="6.71187">
        <ele>1601</ele>
        <time>2026-07-29T05:20:27.716Z</time>
      </trkpt>
      <trkpt lat="45.76313" lon="6.71186">
        <ele>1601</ele>
        <time>2026-07-29T05:20:28.716Z</time>
      </trkpt>
      <trkpt lat="45.76312" lon="6.71186">
        <ele>1602</ele>
        <time>2026-07-29T05:20:29.716Z</time>
      </trkpt>
      <trkpt lat="45.7631" lon="6.71185">
        <ele>1602</ele>
        <time>2026-07-29T05:20:30.716Z</time>
      </trkpt>
      <trkpt lat="45.76308" lon="6.71185">
        <ele>1602</ele>
        <time>2026-07-29T05:20:31.716Z</time>
      </trkpt>
      <trkpt lat="45.76307" lon="6.71184">
        <ele>1603</ele>
        <time>2026-07-29T05:20:32.716Z</time>
      </trkpt>
      <trkpt lat="45.76306" lon="6.71184">
        <ele>1603</ele>
        <time>2026-07-29T05:20:33.716Z</time>
      </trkpt>
      <trkpt lat="45.76304" lon="6.71183">
        <ele>1603</ele>
        <time>2026-07-29T05:20:34.716Z</time>
      </trkpt>
      <trkpt lat="45.76303" lon="6.71183">
        <ele>1603</ele>
        <time>2026-07-29T05:20:35.716Z</time>
      </trkpt>
      <trkpt lat="45.76301" lon="6.71182">
        <ele>1603</ele>
        <time>2026-07-29T05:20:36.716Z</time>
      </trkpt>
      <trkpt lat="45.76299" lon="6.71181">
        <ele>1603</ele>
        <time>2026-07-29T05:20:37.716Z</time>
      </trkpt>
      <trkpt lat="45.76298" lon="6.71181">
        <ele>1603</ele>
        <time>2026-07-29T05:20:38.716Z</time>
      </trkpt>
      <trkpt lat="45.76296" lon="6.7118">
        <ele>1604</ele>
        <time>2026-07-29T05:20:39.716Z</time>
      </trkpt>
      <trkpt lat="45.76295" lon="6.7118">
        <ele>1604</ele>
        <time>2026-07-29T05:20:40.716Z</time>
      </trkpt>
      <trkpt lat="45.76293" lon="6.7118">
        <ele>1604</ele>
        <time>2026-07-29T05:20:41.716Z</time>
      </trkpt>
      <trkpt lat="45.76292" lon="6.71179">
        <ele>1605</ele>
        <time>2026-07-29T05:20:42.716Z</time>
      </trkpt>
      <trkpt lat="45.76291" lon="6.71178">
        <ele>1604</ele>
        <time>2026-07-29T05:20:43.716Z</time>
      </trkpt>
      <trkpt lat="45.7629" lon="6.71177">
        <ele>1604</ele>
        <time>2026-07-29T05:20:44.716Z</time>
      </trkpt>
      <trkpt lat="45.76289" lon="6.71176">
        <ele>1605</ele>
        <time>2026-07-29T05:20:45.716Z</time>
      </trkpt>
      <trkpt lat="45.76288" lon="6.71176">
        <ele>1605</ele>
        <time>2026-07-29T05:20:46.716Z</time>
      </trkpt>
      <trkpt lat="45.76286" lon="6.71175">
        <ele>1605</ele>
        <time>2026-07-29T05:20:47.716Z</time>
      </trkpt>
      <trkpt lat="45.76285" lon="6.71175">
        <ele>1605</ele>
        <time>2026-07-29T05:20:48.716Z</time>
      </trkpt>
      <trkpt lat="45.76284" lon="6.71174">
        <ele>1605</ele>
        <time>2026-07-29T05:20:49.716Z</time>
      </trkpt>
      <trkpt lat="45.76283" lon="6.71173">
        <ele>1605</ele>
        <time>2026-07-29T05:20:50.716Z</time>
      </trkpt>
      <trkpt lat="45.76282" lon="6.71172">
        <ele>1604</ele>
        <time>2026-07-29T05:20:51.716Z</time>
      </trkpt>
      <trkpt lat="45.76281" lon="6.71171">
        <ele>1604</ele>
        <time>2026-07-29T05:20:52.716Z</time>
      </trkpt>
      <trkpt lat="45.76279" lon="6.7117">
        <ele>1605</ele>
        <time>2026-07-29T05:20:53.716Z</time>
      </trkpt>
      <trkpt lat="45.76278" lon="6.71169">
        <ele>1605</ele>
        <time>2026-07-29T05:20:54.716Z</time>
      </trkpt>
      <trkpt lat="45.76277" lon="6.71168">
        <ele>1605</ele>
        <time>2026-07-29T05:20:55.716Z</time>
      </trkpt>
      <trkpt lat="45.76276" lon="6.71168">
        <ele>1604</ele>
        <time>2026-07-29T05:20:56.716Z</time>
      </trkpt>
      <trkpt lat="45.76274" lon="6.71167">
        <ele>1604</ele>
        <time>2026-07-29T05:20:57.716Z</time>
      </trkpt>
      <trkpt lat="45.76273" lon="6.71167">
        <ele>1604</ele>
        <time>2026-07-29T05:20:58.716Z</time>
      </trkpt>
      <trkpt lat="45.76272" lon="6.71166">
        <ele>1604</ele>
        <time>2026-07-29T05:20:59.716Z</time>
      </trkpt>
      <trkpt lat="45.76271" lon="6.71165">
        <ele>1605</ele>
        <time>2026-07-29T05:21:00.716Z</time>
      </trkpt>
      <trkpt lat="45.7627" lon="6.71165">
        <ele>1605</ele>
        <time>2026-07-29T05:21:01.716Z</time>
      </trkpt>
      <trkpt lat="45.76269" lon="6.71164">
        <ele>1606</ele>
        <time>2026-07-29T05:21:02.716Z</time>
      </trkpt>
      <trkpt lat="45.76268" lon="6.71163">
        <ele>1606</ele>
        <time>2026-07-29T05:21:03.716Z</time>
      </trkpt>
      <trkpt lat="45.76267" lon="6.71162">
        <ele>1606</ele>
        <time>2026-07-29T05:21:04.716Z</time>
      </trkpt>
      <trkpt lat="45.76266" lon="6.71161">
        <ele>1606</ele>
        <time>2026-07-29T05:21:05.716Z</time>
      </trkpt>
      <trkpt lat="45.76264" lon="6.7116">
        <ele>1606</ele>
        <time>2026-07-29T05:21:06.716Z</time>
      </trkpt>
      <trkpt lat="45.76263" lon="6.71159">
        <ele>1606</ele>
        <time>2026-07-29T05:21:07.716Z</time>
      </trkpt>
      <trkpt lat="45.76262" lon="6.71159">
        <ele>1607</ele>
        <time>2026-07-29T05:21:08.716Z</time>
      </trkpt>
      <trkpt lat="45.76261" lon="6.71158">
        <ele>1607</ele>
        <time>2026-07-29T05:21:09.716Z</time>
      </trkpt>
      <trkpt lat="45.76259" lon="6.71157">
        <ele>1607</ele>
        <time>2026-07-29T05:21:10.716Z</time>
      </trkpt>
      <trkpt lat="45.76258" lon="6.71157">
        <ele>1607</ele>
        <time>2026-07-29T05:21:11.716Z</time>
      </trkpt>
      <trkpt lat="45.76257" lon="6.71156">
        <ele>1607</ele>
        <time>2026-07-29T05:21:12.716Z</time>
      </trkpt>
      <trkpt lat="45.76255" lon="6.71155">
        <ele>1607</ele>
        <time>2026-07-29T05:21:13.716Z</time>
      </trkpt>
      <trkpt lat="45.76254" lon="6.71155">
        <ele>1607</ele>
        <time>2026-07-29T05:21:14.716Z</time>
      </trkpt>
      <trkpt lat="45.76253" lon="6.71154">
        <ele>1607</ele>
        <time>2026-07-29T05:21:15.716Z</time>
      </trkpt>
      <trkpt lat="45.76252" lon="6.71154">
        <ele>1607</ele>
        <time>2026-07-29T05:21:16.716Z</time>
      </trkpt>
      <trkpt lat="45.7625" lon="6.71153">
        <ele>1608</ele>
        <time>2026-07-29T05:21:17.716Z</time>
      </trkpt>
      <trkpt lat="45.76249" lon="6.71153">
        <ele>1608</ele>
        <time>2026-07-29T05:21:18.716Z</time>
      </trkpt>
      <trkpt lat="45.76247" lon="6.71152">
        <ele>1608</ele>
        <time>2026-07-29T05:21:19.716Z</time>
      </trkpt>
      <trkpt lat="45.76246" lon="6.71152">
        <ele>1609</ele>
        <time>2026-07-29T05:21:20.716Z</time>
      </trkpt>
      <trkpt lat="45.76245" lon="6.71151">
        <ele>1610</ele>
        <time>2026-07-29T05:21:21.716Z</time>
      </trkpt>
      <trkpt lat="45.76244" lon="6.71151">
        <ele>1610</ele>
        <time>2026-07-29T05:21:22.716Z</time>
      </trkpt>
      <trkpt lat="45.76242" lon="6.7115">
        <ele>1610</ele>
        <time>2026-07-29T05:21:23.716Z</time>
      </trkpt>
      <trkpt lat="45.76241" lon="6.7115">
        <ele>1610</ele>
        <time>2026-07-29T05:21:24.716Z</time>
      </trkpt>
      <trkpt lat="45.7624" lon="6.71149">
        <ele>1610</ele>
        <time>2026-07-29T05:21:25.716Z</time>
      </trkpt>
      <trkpt lat="45.76238" lon="6.71149">
        <ele>1611</ele>
        <time>2026-07-29T05:21:26.716Z</time>
      </trkpt>
      <trkpt lat="45.76237" lon="6.71148">
        <ele>1611</ele>
        <time>2026-07-29T05:21:27.716Z</time>
      </trkpt>
      <trkpt lat="45.76236" lon="6.71148">
        <ele>1611</ele>
        <time>2026-07-29T05:21:28.716Z</time>
      </trkpt>
      <trkpt lat="45.76234" lon="6.71147">
        <ele>1610</ele>
        <time>2026-07-29T05:21:29.716Z</time>
      </trkpt>
      <trkpt lat="45.76233" lon="6.71147">
        <ele>1610</ele>
        <time>2026-07-29T05:21:30.716Z</time>
      </trkpt>
      <trkpt lat="45.76232" lon="6.71147">
        <ele>1610</ele>
        <time>2026-07-29T05:21:31.716Z</time>
      </trkpt>
      <trkpt lat="45.76231" lon="6.71146">
        <ele>1610</ele>
        <time>2026-07-29T05:21:32.716Z</time>
      </trkpt>
      <trkpt lat="45.7623" lon="6.71145">
        <ele>1610</ele>
        <time>2026-07-29T05:21:33.716Z</time>
      </trkpt>
      <trkpt lat="45.76229" lon="6.71144">
        <ele>1610</ele>
        <time>2026-07-29T05:21:34.716Z</time>
      </trkpt>
      <trkpt lat="45.76227" lon="6.71144">
        <ele>1610</ele>
        <time>2026-07-29T05:21:35.716Z</time>
      </trkpt>
      <trkpt lat="45.76226" lon="6.71143">
        <ele>1610</ele>
        <time>2026-07-29T05:21:36.716Z</time>
      </trkpt>
      <trkpt lat="45.76225" lon="6.71142">
        <ele>1611</ele>
        <time>2026-07-29T05:21:37.716Z</time>
      </trkpt>
      <trkpt lat="45.76224" lon="6.71141">
        <ele>1611</ele>
        <time>2026-07-29T05:21:38.716Z</time>
      </trkpt>
      <trkpt lat="45.76222" lon="6.7114">
        <ele>1611</ele>
        <time>2026-07-29T05:21:39.716Z</time>
      </trkpt>
      <trkpt lat="45.76221" lon="6.7114">
        <ele>1612</ele>
        <time>2026-07-29T05:21:40.716Z</time>
      </trkpt>
      <trkpt lat="45.7622" lon="6.7114">
        <ele>1612</ele>
        <time>2026-07-29T05:21:41.716Z</time>
      </trkpt>
      <trkpt lat="45.76218" lon="6.7114">
        <ele>1613</ele>
        <time>2026-07-29T05:21:42.716Z</time>
      </trkpt>
      <trkpt lat="45.76217" lon="6.71139">
        <ele>1613</ele>
        <time>2026-07-29T05:21:43.716Z</time>
      </trkpt>
      <trkpt lat="45.76216" lon="6.71139">
        <ele>1613</ele>
        <time>2026-07-29T05:21:44.716Z</time>
      </trkpt>
      <trkpt lat="45.76214" lon="6.71138">
        <ele>1614</ele>
        <time>2026-07-29T05:21:45.716Z</time>
      </trkpt>
      <trkpt lat="45.76213" lon="6.71138">
        <ele>1614</ele>
        <time>2026-07-29T05:21:46.716Z</time>
      </trkpt>
      <trkpt lat="45.76212" lon="6.71137">
        <ele>1614</ele>
        <time>2026-07-29T05:21:47.716Z</time>
      </trkpt>
      <trkpt lat="45.7621" lon="6.71136">
        <ele>1614</ele>
        <time>2026-07-29T05:21:48.716Z</time>
      </trkpt>
      <trkpt lat="45.76209" lon="6.71136">
        <ele>1615</ele>
        <time>2026-07-29T05:21:49.716Z</time>
      </trkpt>
      <trkpt lat="45.76208" lon="6.71136">
        <ele>1615</ele>
        <time>2026-07-29T05:21:50.716Z</time>
      </trkpt>
      <trkpt lat="45.76206" lon="6.71136">
        <ele>1615</ele>
        <time>2026-07-29T05:21:51.716Z</time>
      </trkpt>
      <trkpt lat="45.76205" lon="6.71136">
        <ele>1615</ele>
        <time>2026-07-29T05:21:52.716Z</time>
      </trkpt>
      <trkpt lat="45.76203" lon="6.71136">
        <ele>1615</ele>
        <time>2026-07-29T05:21:53.716Z</time>
      </trkpt>
      <trkpt lat="45.76202" lon="6.71136">
        <ele>1615</ele>
        <time>2026-07-29T05:21:54.716Z</time>
      </trkpt>
      <trkpt lat="45.762" lon="6.71136">
        <ele>1615</ele>
        <time>2026-07-29T05:21:55.716Z</time>
      </trkpt>
      <trkpt lat="45.76199" lon="6.71136">
        <ele>1615</ele>
        <time>2026-07-29T05:21:56.716Z</time>
      </trkpt>
      <trkpt lat="45.76198" lon="6.71136">
        <ele>1616</ele>
        <time>2026-07-29T05:21:57.716Z</time>
      </trkpt>
      <trkpt lat="45.76197" lon="6.71136">
        <ele>1616</ele>
        <time>2026-07-29T05:21:58.716Z</time>
      </trkpt>
      <trkpt lat="45.76196" lon="6.71136">
        <ele>1617</ele>
        <time>2026-07-29T05:21:59.716Z</time>
      </trkpt>
      <trkpt lat="45.76195" lon="6.71136">
        <ele>1618</ele>
        <time>2026-07-29T05:22:00.716Z</time>
      </trkpt>
      <trkpt lat="45.76194" lon="6.71136">
        <ele>1618</ele>
        <time>2026-07-29T05:22:01.716Z</time>
      </trkpt>
      <trkpt lat="45.76192" lon="6.71136">
        <ele>1619</ele>
        <time>2026-07-29T05:22:02.716Z</time>
      </trkpt>
      <trkpt lat="45.76191" lon="6.71136">
        <ele>1620</ele>
        <time>2026-07-29T05:22:03.716Z</time>
      </trkpt>
      <trkpt lat="45.76189" lon="6.71136">
        <ele>1620</ele>
        <time>2026-07-29T05:22:04.716Z</time>
      </trkpt>
      <trkpt lat="45.76188" lon="6.71136">
        <ele>1621</ele>
        <time>2026-07-29T05:22:05.716Z</time>
      </trkpt>
      <trkpt lat="45.76187" lon="6.71136">
        <ele>1621</ele>
        <time>2026-07-29T05:22:06.716Z</time>
      </trkpt>
      <trkpt lat="45.76185" lon="6.71136">
        <ele>1621</ele>
        <time>2026-07-29T05:22:07.716Z</time>
      </trkpt>
      <trkpt lat="45.76184" lon="6.71136">
        <ele>1621</ele>
        <time>2026-07-29T05:22:08.716Z</time>
      </trkpt>
      <trkpt lat="45.76183" lon="6.71136">
        <ele>1621</ele>
        <time>2026-07-29T05:22:09.716Z</time>
      </trkpt>
      <trkpt lat="45.76181" lon="6.71136">
        <ele>1621</ele>
        <time>2026-07-29T05:22:10.716Z</time>
      </trkpt>
      <trkpt lat="45.7618" lon="6.71136">
        <ele>1621</ele>
        <time>2026-07-29T05:22:11.716Z</time>
      </trkpt>
      <trkpt lat="45.76179" lon="6.71137">
        <ele>1621</ele>
        <time>2026-07-29T05:22:12.716Z</time>
      </trkpt>
      <trkpt lat="45.76178" lon="6.71137">
        <ele>1621</ele>
        <time>2026-07-29T05:22:13.716Z</time>
      </trkpt>
      <trkpt lat="45.76176" lon="6.71137">
        <ele>1621</ele>
        <time>2026-07-29T05:22:14.716Z</time>
      </trkpt>
      <trkpt lat="45.76175" lon="6.71137">
        <ele>1621</ele>
        <time>2026-07-29T05:22:15.716Z</time>
      </trkpt>
      <trkpt lat="45.76173" lon="6.71138">
        <ele>1621</ele>
        <time>2026-07-29T05:22:16.716Z</time>
      </trkpt>
      <trkpt lat="45.76172" lon="6.71138">
        <ele>1621</ele>
        <time>2026-07-29T05:22:17.716Z</time>
      </trkpt>
      <trkpt lat="45.7617" lon="6.71137">
        <ele>1621</ele>
        <time>2026-07-29T05:22:18.716Z</time>
      </trkpt>
      <trkpt lat="45.76169" lon="6.71136">
        <ele>1621</ele>
        <time>2026-07-29T05:22:19.716Z</time>
      </trkpt>
      <trkpt lat="45.76169" lon="6.71135">
        <ele>1621</ele>
        <time>2026-07-29T05:22:20.716Z</time>
      </trkpt>
      <trkpt lat="45.76168" lon="6.71134">
        <ele>1621</ele>
        <time>2026-07-29T05:22:21.716Z</time>
      </trkpt>
      <trkpt lat="45.76167" lon="6.71134">
        <ele>1621</ele>
        <time>2026-07-29T05:22:22.716Z</time>
      </trkpt>
      <trkpt lat="45.76166" lon="6.71134">
        <ele>1621</ele>
        <time>2026-07-29T05:22:23.716Z</time>
      </trkpt>
      <trkpt lat="45.76164" lon="6.71133">
        <ele>1621</ele>
        <time>2026-07-29T05:22:24.716Z</time>
      </trkpt>
      <trkpt lat="45.76163" lon="6.71133">
        <ele>1621</ele>
        <time>2026-07-29T05:22:25.716Z</time>
      </trkpt>
      <trkpt lat="45.76162" lon="6.71133">
        <ele>1621</ele>
        <time>2026-07-29T05:22:26.716Z</time>
      </trkpt>
      <trkpt lat="45.76161" lon="6.71132">
        <ele>1622</ele>
        <time>2026-07-29T05:22:27.716Z</time>
      </trkpt>
      <trkpt lat="45.7616" lon="6.71132">
        <ele>1622</ele>
        <time>2026-07-29T05:22:28.716Z</time>
      </trkpt>
      <trkpt lat="45.76159" lon="6.71132">
        <ele>1622</ele>
        <time>2026-07-29T05:22:29.716Z</time>
      </trkpt>
      <trkpt lat="45.76157" lon="6.71132">
        <ele>1623</ele>
        <time>2026-07-29T05:22:30.716Z</time>
      </trkpt>
      <trkpt lat="45.76156" lon="6.71132">
        <ele>1623</ele>
        <time>2026-07-29T05:22:31.716Z</time>
      </trkpt>
      <trkpt lat="45.76155" lon="6.71131">
        <ele>1623</ele>
        <time>2026-07-29T05:22:32.716Z</time>
      </trkpt>
      <trkpt lat="45.76153" lon="6.71131">
        <ele>1624</ele>
        <time>2026-07-29T05:22:33.716Z</time>
      </trkpt>
      <trkpt lat="45.76152" lon="6.7113">
        <ele>1624</ele>
        <time>2026-07-29T05:22:34.716Z</time>
      </trkpt>
      <trkpt lat="45.76151" lon="6.7113">
        <ele>1625</ele>
        <time>2026-07-29T05:22:35.716Z</time>
      </trkpt>
      <trkpt lat="45.7615" lon="6.7113">
        <ele>1625</ele>
        <time>2026-07-29T05:22:36.716Z</time>
      </trkpt>
      <trkpt lat="45.76149" lon="6.71129">
        <ele>1626</ele>
        <time>2026-07-29T05:22:37.716Z</time>
      </trkpt>
      <trkpt lat="45.76148" lon="6.71129">
        <ele>1626</ele>
        <time>2026-07-29T05:22:38.716Z</time>
      </trkpt>
      <trkpt lat="45.76146" lon="6.71128">
        <ele>1626</ele>
        <time>2026-07-29T05:22:39.716Z</time>
      </trkpt>
      <trkpt lat="45.76146" lon="6.71128">
        <ele>1626</ele>
        <time>2026-07-29T05:22:40.716Z</time>
      </trkpt>
      <trkpt lat="45.76144" lon="6.71128">
        <ele>1626</ele>
        <time>2026-07-29T05:22:41.716Z</time>
      </trkpt>
      <trkpt lat="45.76143" lon="6.71127">
        <ele>1626</ele>
        <time>2026-07-29T05:22:42.716Z</time>
      </trkpt>
      <trkpt lat="45.76142" lon="6.71126">
        <ele>1627</ele>
        <time>2026-07-29T05:22:43.716Z</time>
      </trkpt>
      <trkpt lat="45.76141" lon="6.71126">
        <ele>1627</ele>
        <time>2026-07-29T05:22:44.716Z</time>
      </trkpt>
      <trkpt lat="45.7614" lon="6.71125">
        <ele>1627</ele>
        <time>2026-07-29T05:22:45.716Z</time>
      </trkpt>
      <trkpt lat="45.76139" lon="6.71124">
        <ele>1627</ele>
        <time>2026-07-29T05:22:46.716Z</time>
      </trkpt>
      <trkpt lat="45.76138" lon="6.71124">
        <ele>1627</ele>
        <time>2026-07-29T05:22:47.716Z</time>
      </trkpt>
      <trkpt lat="45.76136" lon="6.71123">
        <ele>1627</ele>
        <time>2026-07-29T05:22:48.716Z</time>
      </trkpt>
      <trkpt lat="45.76135" lon="6.71123">
        <ele>1627</ele>
        <time>2026-07-29T05:22:49.716Z</time>
      </trkpt>
      <trkpt lat="45.76134" lon="6.71122">
        <ele>1628</ele>
        <time>2026-07-29T05:22:50.716Z</time>
      </trkpt>
      <trkpt lat="45.76133" lon="6.71121">
        <ele>1628</ele>
        <time>2026-07-29T05:22:51.716Z</time>
      </trkpt>
      <trkpt lat="45.76132" lon="6.71119">
        <ele>1628</ele>
        <time>2026-07-29T05:22:52.716Z</time>
      </trkpt>
      <trkpt lat="45.76131" lon="6.71118">
        <ele>1628</ele>
        <time>2026-07-29T05:22:53.716Z</time>
      </trkpt>
      <trkpt lat="45.7613" lon="6.71117">
        <ele>1628</ele>
        <time>2026-07-29T05:22:54.716Z</time>
      </trkpt>
      <trkpt lat="45.76128" lon="6.71116">
        <ele>1628</ele>
        <time>2026-07-29T05:22:55.716Z</time>
      </trkpt>
      <trkpt lat="45.76127" lon="6.71114">
        <ele>1629</ele>
        <time>2026-07-29T05:22:56.716Z</time>
      </trkpt>
      <trkpt lat="45.76126" lon="6.71112">
        <ele>1629</ele>
        <time>2026-07-29T05:22:57.716Z</time>
      </trkpt>
      <trkpt lat="45.76126" lon="6.7111">
        <ele>1630</ele>
        <time>2026-07-29T05:22:58.716Z</time>
      </trkpt>
      <trkpt lat="45.76125" lon="6.71109">
        <ele>1630</ele>
        <time>2026-07-29T05:22:59.716Z</time>
      </trkpt>
      <trkpt lat="45.76123" lon="6.71108">
        <ele>1630</ele>
        <time>2026-07-29T05:23:00.716Z</time>
      </trkpt>
      <trkpt lat="45.76122" lon="6.71107">
        <ele>1631</ele>
        <time>2026-07-29T05:23:01.716Z</time>
      </trkpt>
      <trkpt lat="45.76121" lon="6.71106">
        <ele>1631</ele>
        <time>2026-07-29T05:23:02.716Z</time>
      </trkpt>
      <trkpt lat="45.7612" lon="6.71105">
        <ele>1631</ele>
        <time>2026-07-29T05:23:03.716Z</time>
      </trkpt>
      <trkpt lat="45.7612" lon="6.71104">
        <ele>1631</ele>
        <time>2026-07-29T05:23:04.716Z</time>
      </trkpt>
      <trkpt lat="45.76119" lon="6.71103">
        <ele>1631</ele>
        <time>2026-07-29T05:23:05.716Z</time>
      </trkpt>
      <trkpt lat="45.76118" lon="6.71102">
        <ele>1631</ele>
        <time>2026-07-29T05:23:06.716Z</time>
      </trkpt>
      <trkpt lat="45.76116" lon="6.71101">
        <ele>1632</ele>
        <time>2026-07-29T05:23:07.716Z</time>
      </trkpt>
      <trkpt lat="45.76115" lon="6.711">
        <ele>1632</ele>
        <time>2026-07-29T05:23:08.716Z</time>
      </trkpt>
      <trkpt lat="45.76114" lon="6.71099">
        <ele>1633</ele>
        <time>2026-07-29T05:23:09.716Z</time>
      </trkpt>
      <trkpt lat="45.76113" lon="6.71099">
        <ele>1633</ele>
        <time>2026-07-29T05:23:10.716Z</time>
      </trkpt>
      <trkpt lat="45.76112" lon="6.71098">
        <ele>1633</ele>
        <time>2026-07-29T05:23:11.716Z</time>
      </trkpt>
      <trkpt lat="45.76111" lon="6.71098">
        <ele>1634</ele>
        <time>2026-07-29T05:23:12.716Z</time>
      </trkpt>
      <trkpt lat="45.76109" lon="6.71098">
        <ele>1634</ele>
        <time>2026-07-29T05:23:13.716Z</time>
      </trkpt>
      <trkpt lat="45.76108" lon="6.71097">
        <ele>1634</ele>
        <time>2026-07-29T05:23:14.716Z</time>
      </trkpt>
      <trkpt lat="45.76107" lon="6.71097">
        <ele>1634</ele>
        <time>2026-07-29T05:23:15.716Z</time>
      </trkpt>
      <trkpt lat="45.76106" lon="6.71097">
        <ele>1634</ele>
        <time>2026-07-29T05:23:16.716Z</time>
      </trkpt>
      <trkpt lat="45.76104" lon="6.71097">
        <ele>1634</ele>
        <time>2026-07-29T05:23:17.716Z</time>
      </trkpt>
      <trkpt lat="45.76103" lon="6.71097">
        <ele>1634</ele>
        <time>2026-07-29T05:23:18.716Z</time>
      </trkpt>
      <trkpt lat="45.76102" lon="6.71098">
        <ele>1635</ele>
        <time>2026-07-29T05:23:19.716Z</time>
      </trkpt>
      <trkpt lat="45.76101" lon="6.71098">
        <ele>1635</ele>
        <time>2026-07-29T05:23:20.716Z</time>
      </trkpt>
      <trkpt lat="45.761" lon="6.71098">
        <ele>1636</ele>
        <time>2026-07-29T05:23:21.716Z</time>
      </trkpt>
      <trkpt lat="45.76099" lon="6.71098">
        <ele>1636</ele>
        <time>2026-07-29T05:23:22.716Z</time>
      </trkpt>
      <trkpt lat="45.76098" lon="6.71098">
        <ele>1637</ele>
        <time>2026-07-29T05:23:23.716Z</time>
      </trkpt>
      <trkpt lat="45.76097" lon="6.71098">
        <ele>1637</ele>
        <time>2026-07-29T05:23:24.716Z</time>
      </trkpt>
      <trkpt lat="45.76095" lon="6.71098">
        <ele>1638</ele>
        <time>2026-07-29T05:23:25.716Z</time>
      </trkpt>
      <trkpt lat="45.76094" lon="6.71098">
        <ele>1638</ele>
        <time>2026-07-29T05:23:26.716Z</time>
      </trkpt>
      <trkpt lat="45.76093" lon="6.71098">
        <ele>1639</ele>
        <time>2026-07-29T05:23:27.716Z</time>
      </trkpt>
      <trkpt lat="45.76092" lon="6.71098">
        <ele>1639</ele>
        <time>2026-07-29T05:23:28.716Z</time>
      </trkpt>
      <trkpt lat="45.7609" lon="6.71098">
        <ele>1639</ele>
        <time>2026-07-29T05:23:29.716Z</time>
      </trkpt>
      <trkpt lat="45.76089" lon="6.71099">
        <ele>1640</ele>
        <time>2026-07-29T05:23:30.716Z</time>
      </trkpt>
      <trkpt lat="45.76088" lon="6.71099">
        <ele>1640</ele>
        <time>2026-07-29T05:23:31.716Z</time>
      </trkpt>
      <trkpt lat="45.76086" lon="6.71099">
        <ele>1641</ele>
        <time>2026-07-29T05:23:32.716Z</time>
      </trkpt>
      <trkpt lat="45.76085" lon="6.711">
        <ele>1641</ele>
        <time>2026-07-29T05:23:33.716Z</time>
      </trkpt>
      <trkpt lat="45.76084" lon="6.71101">
        <ele>1642</ele>
        <time>2026-07-29T05:23:34.716Z</time>
      </trkpt>
      <trkpt lat="45.76083" lon="6.71101">
        <ele>1642</ele>
        <time>2026-07-29T05:23:35.716Z</time>
      </trkpt>
      <trkpt lat="45.76081" lon="6.71102">
        <ele>1643</ele>
        <time>2026-07-29T05:23:36.716Z</time>
      </trkpt>
      <trkpt lat="45.7608" lon="6.71102">
        <ele>1643</ele>
        <time>2026-07-29T05:23:37.716Z</time>
      </trkpt>
      <trkpt lat="45.76079" lon="6.71103">
        <ele>1643</ele>
        <time>2026-07-29T05:23:38.716Z</time>
      </trkpt>
      <trkpt lat="45.76078" lon="6.71103">
        <ele>1644</ele>
        <time>2026-07-29T05:23:39.716Z</time>
      </trkpt>
      <trkpt lat="45.76076" lon="6.71103">
        <ele>1644</ele>
        <time>2026-07-29T05:23:40.716Z</time>
      </trkpt>
      <trkpt lat="45.76075" lon="6.71103">
        <ele>1644</ele>
        <time>2026-07-29T05:23:41.716Z</time>
      </trkpt>
      <trkpt lat="45.76074" lon="6.71102">
        <ele>1645</ele>
        <time>2026-07-29T05:23:42.716Z</time>
      </trkpt>
      <trkpt lat="45.76073" lon="6.71102">
        <ele>1645</ele>
        <time>2026-07-29T05:23:43.716Z</time>
      </trkpt>
      <trkpt lat="45.76072" lon="6.71102">
        <ele>1645</ele>
        <time>2026-07-29T05:23:44.716Z</time>
      </trkpt>
      <trkpt lat="45.76071" lon="6.71102">
        <ele>1645</ele>
        <time>2026-07-29T05:23:45.716Z</time>
      </trkpt>
      <trkpt lat="45.7607" lon="6.71102">
        <ele>1646</ele>
        <time>2026-07-29T05:23:46.716Z</time>
      </trkpt>
      <trkpt lat="45.76068" lon="6.71103">
        <ele>1646</ele>
        <time>2026-07-29T05:23:47.716Z</time>
      </trkpt>
      <trkpt lat="45.76067" lon="6.71104">
        <ele>1647</ele>
        <time>2026-07-29T05:23:48.716Z</time>
      </trkpt>
      <trkpt lat="45.76066" lon="6.71104">
        <ele>1647</ele>
        <time>2026-07-29T05:23:49.716Z</time>
      </trkpt>
      <trkpt lat="45.76064" lon="6.71105">
        <ele>1647</ele>
        <time>2026-07-29T05:23:50.716Z</time>
      </trkpt>
      <trkpt lat="45.76063" lon="6.71106">
        <ele>1647</ele>
        <time>2026-07-29T05:23:51.716Z</time>
      </trkpt>
      <trkpt lat="45.76062" lon="6.71107">
        <ele>1647</ele>
        <time>2026-07-29T05:23:52.716Z</time>
      </trkpt>
      <trkpt lat="45.7606" lon="6.71108">
        <ele>1647</ele>
        <time>2026-07-29T05:23:53.716Z</time>
      </trkpt>
      <trkpt lat="45.76058" lon="6.7111">
        <ele>1647</ele>
        <time>2026-07-29T05:23:54.716Z</time>
      </trkpt>
      <trkpt lat="45.76057" lon="6.7111">
        <ele>1647</ele>
        <time>2026-07-29T05:23:55.716Z</time>
      </trkpt>
      <trkpt lat="45.76055" lon="6.7111">
        <ele>1647</ele>
        <time>2026-07-29T05:23:56.716Z</time>
      </trkpt>
      <trkpt lat="45.76054" lon="6.71111">
        <ele>1646</ele>
        <time>2026-07-29T05:23:57.716Z</time>
      </trkpt>
      <trkpt lat="45.76052" lon="6.71111">
        <ele>1646</ele>
        <time>2026-07-29T05:23:58.716Z</time>
      </trkpt>
      <trkpt lat="45.76051" lon="6.71111">
        <ele>1646</ele>
        <time>2026-07-29T05:23:59.716Z</time>
      </trkpt>
      <trkpt lat="45.7605" lon="6.71111">
        <ele>1646</ele>
        <time>2026-07-29T05:24:00.716Z</time>
      </trkpt>
      <trkpt lat="45.76048" lon="6.71112">
        <ele>1646</ele>
        <time>2026-07-29T05:24:01.716Z</time>
      </trkpt>
      <trkpt lat="45.76047" lon="6.71113">
        <ele>1647</ele>
        <time>2026-07-29T05:24:02.716Z</time>
      </trkpt>
      <trkpt lat="45.76046" lon="6.71113">
        <ele>1647</ele>
        <time>2026-07-29T05:24:03.716Z</time>
      </trkpt>
      <trkpt lat="45.76045" lon="6.71114">
        <ele>1647</ele>
        <time>2026-07-29T05:24:04.716Z</time>
      </trkpt>
      <trkpt lat="45.76044" lon="6.71114">
        <ele>1648</ele>
        <time>2026-07-29T05:24:05.716Z</time>
      </trkpt>
      <trkpt lat="45.76043" lon="6.71115">
        <ele>1648</ele>
        <time>2026-07-29T05:24:06.716Z</time>
      </trkpt>
      <trkpt lat="45.76042" lon="6.71116">
        <ele>1649</ele>
        <time>2026-07-29T05:24:07.716Z</time>
      </trkpt>
      <trkpt lat="45.76041" lon="6.71117">
        <ele>1650</ele>
        <time>2026-07-29T05:24:08.716Z</time>
      </trkpt>
      <trkpt lat="45.7604" lon="6.71117">
        <ele>1651</ele>
        <time>2026-07-29T05:24:09.716Z</time>
      </trkpt>
      <trkpt lat="45.76039" lon="6.71118">
        <ele>1651</ele>
        <time>2026-07-29T05:24:10.716Z</time>
      </trkpt>
      <trkpt lat="45.76038" lon="6.71118">
        <ele>1652</ele>
        <time>2026-07-29T05:24:11.716Z</time>
      </trkpt>
      <trkpt lat="45.76037" lon="6.71119">
        <ele>1652</ele>
        <time>2026-07-29T05:24:12.716Z</time>
      </trkpt>
      <trkpt lat="45.76036" lon="6.71119">
        <ele>1653</ele>
        <time>2026-07-29T05:24:13.716Z</time>
      </trkpt>
      <trkpt lat="45.76034" lon="6.71119">
        <ele>1653</ele>
        <time>2026-07-29T05:24:14.716Z</time>
      </trkpt>
      <trkpt lat="45.76033" lon="6.7112">
        <ele>1653</ele>
        <time>2026-07-29T05:24:15.716Z</time>
      </trkpt>
      <trkpt lat="45.76032" lon="6.71121">
        <ele>1653</ele>
        <time>2026-07-29T05:24:16.716Z</time>
      </trkpt>
      <trkpt lat="45.76031" lon="6.71121">
        <ele>1653</ele>
        <time>2026-07-29T05:24:17.716Z</time>
      </trkpt>
      <trkpt lat="45.76029" lon="6.71121">
        <ele>1653</ele>
        <time>2026-07-29T05:24:18.716Z</time>
      </trkpt>
      <trkpt lat="45.76027" lon="6.71122">
        <ele>1653</ele>
        <time>2026-07-29T05:24:19.716Z</time>
      </trkpt>
      <trkpt lat="45.76026" lon="6.71122">
        <ele>1653</ele>
        <time>2026-07-29T05:24:20.716Z</time>
      </trkpt>
      <trkpt lat="45.76025" lon="6.71123">
        <ele>1653</ele>
        <time>2026-07-29T05:24:21.716Z</time>
      </trkpt>
      <trkpt lat="45.76024" lon="6.71123">
        <ele>1653</ele>
        <time>2026-07-29T05:24:22.716Z</time>
      </trkpt>
      <trkpt lat="45.76023" lon="6.71124">
        <ele>1653</ele>
        <time>2026-07-29T05:24:23.716Z</time>
      </trkpt>
      <trkpt lat="45.76022" lon="6.71125">
        <ele>1654</ele>
        <time>2026-07-29T05:24:24.716Z</time>
      </trkpt>
      <trkpt lat="45.76021" lon="6.71126">
        <ele>1654</ele>
        <time>2026-07-29T05:24:25.716Z</time>
      </trkpt>
      <trkpt lat="45.7602" lon="6.71127">
        <ele>1654</ele>
        <time>2026-07-29T05:24:26.716Z</time>
      </trkpt>
      <trkpt lat="45.7602" lon="6.71128">
        <ele>1654</ele>
        <time>2026-07-29T05:24:27.716Z</time>
      </trkpt>
      <trkpt lat="45.76019" lon="6.71129">
        <ele>1654</ele>
        <time>2026-07-29T05:24:28.716Z</time>
      </trkpt>
      <trkpt lat="45.76018" lon="6.71129">
        <ele>1654</ele>
        <time>2026-07-29T05:24:29.716Z</time>
      </trkpt>
      <trkpt lat="45.76017" lon="6.71129">
        <ele>1654</ele>
        <time>2026-07-29T05:24:30.716Z</time>
      </trkpt>
      <trkpt lat="45.76016" lon="6.71129">
        <ele>1654</ele>
        <time>2026-07-29T05:24:31.716Z</time>
      </trkpt>
      <trkpt lat="45.76015" lon="6.71128">
        <ele>1654</ele>
        <time>2026-07-29T05:24:32.716Z</time>
      </trkpt>
      <trkpt lat="45.76015" lon="6.71128">
        <ele>1654</ele>
        <time>2026-07-29T05:24:33.716Z</time>
      </trkpt>
      <trkpt lat="45.76013" lon="6.71128">
        <ele>1654</ele>
        <time>2026-07-29T05:24:34.716Z</time>
      </trkpt>
      <trkpt lat="45.76012" lon="6.71129">
        <ele>1655</ele>
        <time>2026-07-29T05:24:35.716Z</time>
      </trkpt>
      <trkpt lat="45.76011" lon="6.71129">
        <ele>1655</ele>
        <time>2026-07-29T05:24:36.716Z</time>
      </trkpt>
      <trkpt lat="45.76011" lon="6.71129">
        <ele>1655</ele>
        <time>2026-07-29T05:24:37.716Z</time>
      </trkpt>
      <trkpt lat="45.7601" lon="6.71128">
        <ele>1655</ele>
        <time>2026-07-29T05:24:38.716Z</time>
      </trkpt>
      <trkpt lat="45.76009" lon="6.71127">
        <ele>1655</ele>
        <time>2026-07-29T05:24:39.716Z</time>
      </trkpt>
      <trkpt lat="45.76008" lon="6.71127">
        <ele>1655</ele>
        <time>2026-07-29T05:24:40.716Z</time>
      </trkpt>
      <trkpt lat="45.76006" lon="6.71127">
        <ele>1655</ele>
        <time>2026-07-29T05:24:41.716Z</time>
      </trkpt>
      <trkpt lat="45.76005" lon="6.71126">
        <ele>1655</ele>
        <time>2026-07-29T05:24:42.716Z</time>
      </trkpt>
      <trkpt lat="45.76004" lon="6.71126">
        <ele>1656</ele>
        <time>2026-07-29T05:24:43.716Z</time>
      </trkpt>
      <trkpt lat="45.76003" lon="6.71125">
        <ele>1656</ele>
        <time>2026-07-29T05:24:44.716Z</time>
      </trkpt>
      <trkpt lat="45.76003" lon="6.71125">
        <ele>1656</ele>
        <time>2026-07-29T05:24:45.716Z</time>
      </trkpt>
      <trkpt lat="45.76001" lon="6.71124">
        <ele>1656</ele>
        <time>2026-07-29T05:24:46.716Z</time>
      </trkpt>
      <trkpt lat="45.76" lon="6.71123">
        <ele>1657</ele>
        <time>2026-07-29T05:24:47.716Z</time>
      </trkpt>
      <trkpt lat="45.75998" lon="6.71123">
        <ele>1657</ele>
        <time>2026-07-29T05:24:48.716Z</time>
      </trkpt>
      <trkpt lat="45.75997" lon="6.71122">
        <ele>1658</ele>
        <time>2026-07-29T05:24:49.716Z</time>
      </trkpt>
      <trkpt lat="45.75996" lon="6.71122">
        <ele>1659</ele>
        <time>2026-07-29T05:24:50.716Z</time>
      </trkpt>
      <trkpt lat="45.75996" lon="6.71122">
        <ele>1659</ele>
        <time>2026-07-29T05:24:51.716Z</time>
      </trkpt>
      <trkpt lat="45.75995" lon="6.71121">
        <ele>1660</ele>
        <time>2026-07-29T05:24:52.716Z</time>
      </trkpt>
      <trkpt lat="45.75994" lon="6.71121">
        <ele>1660</ele>
        <time>2026-07-29T05:24:53.716Z</time>
      </trkpt>
      <trkpt lat="45.75992" lon="6.71121">
        <ele>1661</ele>
        <time>2026-07-29T05:24:54.716Z</time>
      </trkpt>
      <trkpt lat="45.75991" lon="6.71121">
        <ele>1661</ele>
        <time>2026-07-29T05:24:55.716Z</time>
      </trkpt>
      <trkpt lat="45.7599" lon="6.7112">
        <ele>1662</ele>
        <time>2026-07-29T05:24:56.716Z</time>
      </trkpt>
      <trkpt lat="45.7599" lon="6.71118">
        <ele>1662</ele>
        <time>2026-07-29T05:24:57.716Z</time>
      </trkpt>
      <trkpt lat="45.75989" lon="6.71117">
        <ele>1662</ele>
        <time>2026-07-29T05:24:58.716Z</time>
      </trkpt>
      <trkpt lat="45.75988" lon="6.71117">
        <ele>1662</ele>
        <time>2026-07-29T05:24:59.716Z</time>
      </trkpt>
      <trkpt lat="45.75988" lon="6.71116">
        <ele>1662</ele>
        <time>2026-07-29T05:25:00.716Z</time>
      </trkpt>
      <trkpt lat="45.75987" lon="6.71115">
        <ele>1662</ele>
        <time>2026-07-29T05:25:01.716Z</time>
      </trkpt>
      <trkpt lat="45.75986" lon="6.71114">
        <ele>1663</ele>
        <time>2026-07-29T05:25:02.716Z</time>
      </trkpt>
      <trkpt lat="45.75985" lon="6.71113">
        <ele>1663</ele>
        <time>2026-07-29T05:25:03.716Z</time>
      </trkpt>
      <trkpt lat="45.75984" lon="6.71112">
        <ele>1663</ele>
        <time>2026-07-29T05:25:04.716Z</time>
      </trkpt>
      <trkpt lat="45.75984" lon="6.71111">
        <ele>1663</ele>
        <time>2026-07-29T05:25:05.716Z</time>
      </trkpt>
      <trkpt lat="45.75983" lon="6.71109">
        <ele>1664</ele>
        <time>2026-07-29T05:25:06.716Z</time>
      </trkpt>
      <trkpt lat="45.75981" lon="6.71108">
        <ele>1664</ele>
        <time>2026-07-29T05:25:07.716Z</time>
      </trkpt>
      <trkpt lat="45.75981" lon="6.71107">
        <ele>1664</ele>
        <time>2026-07-29T05:25:08.716Z</time>
      </trkpt>
      <trkpt lat="45.7598" lon="6.71107">
        <ele>1665</ele>
        <time>2026-07-29T05:25:09.716Z</time>
      </trkpt>
      <trkpt lat="45.75979" lon="6.71108">
        <ele>1665</ele>
        <time>2026-07-29T05:25:10.716Z</time>
      </trkpt>
      <trkpt lat="45.75978" lon="6.71109">
        <ele>1666</ele>
        <time>2026-07-29T05:25:11.716Z</time>
      </trkpt>
      <trkpt lat="45.75976" lon="6.71109">
        <ele>1667</ele>
        <time>2026-07-29T05:25:12.716Z</time>
      </trkpt>
      <trkpt lat="45.75975" lon="6.71109">
        <ele>1668</ele>
        <time>2026-07-29T05:25:13.716Z</time>
      </trkpt>
      <trkpt lat="45.75975" lon="6.71108">
        <ele>1668</ele>
        <time>2026-07-29T05:25:14.716Z</time>
      </trkpt>
      <trkpt lat="45.75974" lon="6.71107">
        <ele>1669</ele>
        <time>2026-07-29T05:25:15.716Z</time>
      </trkpt>
      <trkpt lat="45.75973" lon="6.71107">
        <ele>1669</ele>
        <time>2026-07-29T05:25:16.716Z</time>
      </trkpt>
      <trkpt lat="45.75971" lon="6.71106">
        <ele>1669</ele>
        <time>2026-07-29T05:25:17.716Z</time>
      </trkpt>
      <trkpt lat="45.7597" lon="6.71105">
        <ele>1669</ele>
        <time>2026-07-29T05:25:18.716Z</time>
      </trkpt>
      <trkpt lat="45.75969" lon="6.71104">
        <ele>1669</ele>
        <time>2026-07-29T05:25:19.716Z</time>
      </trkpt>
      <trkpt lat="45.75969" lon="6.71104">
        <ele>1670</ele>
        <time>2026-07-29T05:25:20.716Z</time>
      </trkpt>
      <trkpt lat="45.75968" lon="6.71103">
        <ele>1670</ele>
        <time>2026-07-29T05:25:21.716Z</time>
      </trkpt>
      <trkpt lat="45.75967" lon="6.71103">
        <ele>1670</ele>
        <time>2026-07-29T05:25:22.716Z</time>
      </trkpt>
      <trkpt lat="45.75966" lon="6.71103">
        <ele>1670</ele>
        <time>2026-07-29T05:25:23.716Z</time>
      </trkpt>
      <trkpt lat="45.75965" lon="6.71102">
        <ele>1671</ele>
        <time>2026-07-29T05:25:24.716Z</time>
      </trkpt>
      <trkpt lat="45.75964" lon="6.71101">
        <ele>1671</ele>
        <time>2026-07-29T05:25:25.716Z</time>
      </trkpt>
      <trkpt lat="45.75963" lon="6.711">
        <ele>1671</ele>
        <time>2026-07-29T05:25:26.716Z</time>
      </trkpt>
      <trkpt lat="45.75962" lon="6.71099">
        <ele>1672</ele>
        <time>2026-07-29T05:25:27.716Z</time>
      </trkpt>
      <trkpt lat="45.75961" lon="6.71099">
        <ele>1672</ele>
        <time>2026-07-29T05:25:28.716Z</time>
      </trkpt>
      <trkpt lat="45.75961" lon="6.71097">
        <ele>1673</ele>
        <time>2026-07-29T05:25:29.716Z</time>
      </trkpt>
      <trkpt lat="45.7596" lon="6.71097">
        <ele>1673</ele>
        <time>2026-07-29T05:25:30.716Z</time>
      </trkpt>
      <trkpt lat="45.75958" lon="6.71097">
        <ele>1673</ele>
        <time>2026-07-29T05:25:31.716Z</time>
      </trkpt>
      <trkpt lat="45.75957" lon="6.71097">
        <ele>1672</ele>
        <time>2026-07-29T05:25:32.716Z</time>
      </trkpt>
      <trkpt lat="45.75956" lon="6.71096">
        <ele>1672</ele>
        <time>2026-07-29T05:25:33.716Z</time>
      </trkpt>
      <trkpt lat="45.75955" lon="6.71095">
        <ele>1672</ele>
        <time>2026-07-29T05:25:34.716Z</time>
      </trkpt>
      <trkpt lat="45.75954" lon="6.71094">
        <ele>1672</ele>
        <time>2026-07-29T05:25:35.716Z</time>
      </trkpt>
      <trkpt lat="45.75953" lon="6.71094">
        <ele>1672</ele>
        <time>2026-07-29T05:25:36.716Z</time>
      </trkpt>
      <trkpt lat="45.75952" lon="6.71094">
        <ele>1672</ele>
        <time>2026-07-29T05:25:37.716Z</time>
      </trkpt>
      <trkpt lat="45.75951" lon="6.71093">
        <ele>1672</ele>
        <time>2026-07-29T05:25:38.716Z</time>
      </trkpt>
      <trkpt lat="45.7595" lon="6.71092">
        <ele>1672</ele>
        <time>2026-07-29T05:25:39.716Z</time>
      </trkpt>
      <trkpt lat="45.7595" lon="6.71091">
        <ele>1673</ele>
        <time>2026-07-29T05:25:40.716Z</time>
      </trkpt>
      <trkpt lat="45.75949" lon="6.7109">
        <ele>1673</ele>
        <time>2026-07-29T05:25:41.716Z</time>
      </trkpt>
      <trkpt lat="45.75948" lon="6.71089">
        <ele>1674</ele>
        <time>2026-07-29T05:25:42.716Z</time>
      </trkpt>
      <trkpt lat="45.75947" lon="6.71088">
        <ele>1674</ele>
        <time>2026-07-29T05:25:43.716Z</time>
      </trkpt>
      <trkpt lat="45.75946" lon="6.71086">
        <ele>1674</ele>
        <time>2026-07-29T05:25:44.716Z</time>
      </trkpt>
      <trkpt lat="45.75945" lon="6.71086">
        <ele>1674</ele>
        <time>2026-07-29T05:25:45.716Z</time>
      </trkpt>
      <trkpt lat="45.75944" lon="6.71085">
        <ele>1675</ele>
        <time>2026-07-29T05:25:46.716Z</time>
      </trkpt>
      <trkpt lat="45.75943" lon="6.71084">
        <ele>1675</ele>
        <time>2026-07-29T05:25:47.716Z</time>
      </trkpt>
      <trkpt lat="45.75941" lon="6.71084">
        <ele>1676</ele>
        <time>2026-07-29T05:25:48.716Z</time>
      </trkpt>
      <trkpt lat="45.7594" lon="6.71083">
        <ele>1676</ele>
        <time>2026-07-29T05:25:49.716Z</time>
      </trkpt>
      <trkpt lat="45.75939" lon="6.71083">
        <ele>1676</ele>
        <time>2026-07-29T05:25:50.716Z</time>
      </trkpt>
      <trkpt lat="45.75938" lon="6.71082">
        <ele>1677</ele>
        <time>2026-07-29T05:25:51.716Z</time>
      </trkpt>
      <trkpt lat="45.75937" lon="6.71081">
        <ele>1677</ele>
        <time>2026-07-29T05:25:52.716Z</time>
      </trkpt>
      <trkpt lat="45.75936" lon="6.71081">
        <ele>1677</ele>
        <time>2026-07-29T05:25:53.716Z</time>
      </trkpt>
      <trkpt lat="45.75936" lon="6.7108">
        <ele>1678</ele>
        <time>2026-07-29T05:25:54.716Z</time>
      </trkpt>
      <trkpt lat="45.75935" lon="6.71079">
        <ele>1678</ele>
        <time>2026-07-29T05:25:55.716Z</time>
      </trkpt>
      <trkpt lat="45.75934" lon="6.71078">
        <ele>1678</ele>
        <time>2026-07-29T05:25:56.716Z</time>
      </trkpt>
      <trkpt lat="45.75933" lon="6.71077">
        <ele>1678</ele>
        <time>2026-07-29T05:25:57.716Z</time>
      </trkpt>
      <trkpt lat="45.75932" lon="6.71076">
        <ele>1678</ele>
        <time>2026-07-29T05:25:58.716Z</time>
      </trkpt>
      <trkpt lat="45.75931" lon="6.71076">
        <ele>1677</ele>
        <time>2026-07-29T05:25:59.716Z</time>
      </trkpt>
      <trkpt lat="45.7593" lon="6.71074">
        <ele>1677</ele>
        <time>2026-07-29T05:26:00.716Z</time>
      </trkpt>
      <trkpt lat="45.7593" lon="6.71073">
        <ele>1677</ele>
        <time>2026-07-29T05:26:01.716Z</time>
      </trkpt>
      <trkpt lat="45.75929" lon="6.71071">
        <ele>1676</ele>
        <time>2026-07-29T05:26:02.716Z</time>
      </trkpt>
      <trkpt lat="45.75928" lon="6.7107">
        <ele>1676</ele>
        <time>2026-07-29T05:26:03.716Z</time>
      </trkpt>
      <trkpt lat="45.75927" lon="6.71068">
        <ele>1676</ele>
        <time>2026-07-29T05:26:04.716Z</time>
      </trkpt>
      <trkpt lat="45.75927" lon="6.71067">
        <ele>1676</ele>
        <time>2026-07-29T05:26:05.716Z</time>
      </trkpt>
      <trkpt lat="45.75926" lon="6.71065">
        <ele>1677</ele>
        <time>2026-07-29T05:26:06.716Z</time>
      </trkpt>
      <trkpt lat="45.75925" lon="6.71064">
        <ele>1677</ele>
        <time>2026-07-29T05:26:07.716Z</time>
      </trkpt>
      <trkpt lat="45.75924" lon="6.71063">
        <ele>1677</ele>
        <time>2026-07-29T05:26:08.716Z</time>
      </trkpt>
      <trkpt lat="45.75923" lon="6.71063">
        <ele>1677</ele>
        <time>2026-07-29T05:26:09.716Z</time>
      </trkpt>
      <trkpt lat="45.75922" lon="6.71062">
        <ele>1677</ele>
        <time>2026-07-29T05:26:10.716Z</time>
      </trkpt>
      <trkpt lat="45.75921" lon="6.71061">
        <ele>1677</ele>
        <time>2026-07-29T05:26:11.716Z</time>
      </trkpt>
      <trkpt lat="45.7592" lon="6.7106">
        <ele>1677</ele>
        <time>2026-07-29T05:26:12.716Z</time>
      </trkpt>
      <trkpt lat="45.75919" lon="6.71059">
        <ele>1678</ele>
        <time>2026-07-29T05:26:13.717Z</time>
      </trkpt>
      <trkpt lat="45.75918" lon="6.71059">
        <ele>1678</ele>
        <time>2026-07-29T05:26:14.716Z</time>
      </trkpt>
      <trkpt lat="45.75917" lon="6.71058">
        <ele>1679</ele>
        <time>2026-07-29T05:26:15.716Z</time>
      </trkpt>
      <trkpt lat="45.75916" lon="6.71057">
        <ele>1679</ele>
        <time>2026-07-29T05:26:16.716Z</time>
      </trkpt>
      <trkpt lat="45.75915" lon="6.71057">
        <ele>1679</ele>
        <time>2026-07-29T05:26:17.716Z</time>
      </trkpt>
      <trkpt lat="45.75914" lon="6.71056">
        <ele>1679</ele>
        <time>2026-07-29T05:26:18.716Z</time>
      </trkpt>
      <trkpt lat="45.75914" lon="6.71055">
        <ele>1679</ele>
        <time>2026-07-29T05:26:19.716Z</time>
      </trkpt>
      <trkpt lat="45.75912" lon="6.71055">
        <ele>1679</ele>
        <time>2026-07-29T05:26:20.716Z</time>
      </trkpt>
      <trkpt lat="45.75911" lon="6.71054">
        <ele>1679</ele>
        <time>2026-07-29T05:26:21.716Z</time>
      </trkpt>
      <trkpt lat="45.7591" lon="6.71054">
        <ele>1679</ele>
        <time>2026-07-29T05:26:22.716Z</time>
      </trkpt>
      <trkpt lat="45.75909" lon="6.71053">
        <ele>1679</ele>
        <time>2026-07-29T05:26:23.716Z</time>
      </trkpt>
      <trkpt lat="45.75908" lon="6.71053">
        <ele>1678</ele>
        <time>2026-07-29T05:26:24.716Z</time>
      </trkpt>
      <trkpt lat="45.75907" lon="6.71052">
        <ele>1678</ele>
        <time>2026-07-29T05:26:25.716Z</time>
      </trkpt>
      <trkpt lat="45.75906" lon="6.71052">
        <ele>1678</ele>
        <time>2026-07-29T05:26:26.716Z</time>
      </trkpt>
      <trkpt lat="45.75905" lon="6.71052">
        <ele>1678</ele>
        <time>2026-07-29T05:26:27.716Z</time>
      </trkpt>
      <trkpt lat="45.75904" lon="6.71052">
        <ele>1678</ele>
        <time>2026-07-29T05:26:28.716Z</time>
      </trkpt>
      <trkpt lat="45.75903" lon="6.71051">
        <ele>1678</ele>
        <time>2026-07-29T05:26:29.716Z</time>
      </trkpt>
      <trkpt lat="45.75902" lon="6.71051">
        <ele>1679</ele>
        <time>2026-07-29T05:26:30.716Z</time>
      </trkpt>
      <trkpt lat="45.75901" lon="6.71051">
        <ele>1679</ele>
        <time>2026-07-29T05:26:31.716Z</time>
      </trkpt>
      <trkpt lat="45.759" lon="6.7105">
        <ele>1679</ele>
        <time>2026-07-29T05:26:32.716Z</time>
      </trkpt>
      <trkpt lat="45.75899" lon="6.71049">
        <ele>1680</ele>
        <time>2026-07-29T05:26:33.716Z</time>
      </trkpt>
      <trkpt lat="45.75898" lon="6.71048">
        <ele>1681</ele>
        <time>2026-07-29T05:26:34.716Z</time>
      </trkpt>
      <trkpt lat="45.75897" lon="6.71048">
        <ele>1682</ele>
        <time>2026-07-29T05:26:35.716Z</time>
      </trkpt>
      <trkpt lat="45.75896" lon="6.71047">
        <ele>1683</ele>
        <time>2026-07-29T05:26:36.716Z</time>
      </trkpt>
      <trkpt lat="45.75896" lon="6.71046">
        <ele>1683</ele>
        <time>2026-07-29T05:26:37.716Z</time>
      </trkpt>
      <trkpt lat="45.75895" lon="6.71046">
        <ele>1684</ele>
        <time>2026-07-29T05:26:38.716Z</time>
      </trkpt>
      <trkpt lat="45.75894" lon="6.71046">
        <ele>1685</ele>
        <time>2026-07-29T05:26:39.716Z</time>
      </trkpt>
      <trkpt lat="45.75893" lon="6.71046">
        <ele>1685</ele>
        <time>2026-07-29T05:26:40.716Z</time>
      </trkpt>
      <trkpt lat="45.75892" lon="6.71046">
        <ele>1685</ele>
        <time>2026-07-29T05:26:41.716Z</time>
      </trkpt>
      <trkpt lat="45.75891" lon="6.71046">
        <ele>1686</ele>
        <time>2026-07-29T05:26:42.716Z</time>
      </trkpt>
      <trkpt lat="45.7589" lon="6.71047">
        <ele>1686</ele>
        <time>2026-07-29T05:26:43.716Z</time>
      </trkpt>
      <trkpt lat="45.75889" lon="6.71048">
        <ele>1687</ele>
        <time>2026-07-29T05:26:44.716Z</time>
      </trkpt>
      <trkpt lat="45.75888" lon="6.71049">
        <ele>1688</ele>
        <time>2026-07-29T05:26:45.716Z</time>
      </trkpt>
      <trkpt lat="45.75887" lon="6.7105">
        <ele>1688</ele>
        <time>2026-07-29T05:26:46.716Z</time>
      </trkpt>
      <trkpt lat="45.75887" lon="6.71051">
        <ele>1689</ele>
        <time>2026-07-29T05:26:47.716Z</time>
      </trkpt>
      <trkpt lat="45.75886" lon="6.71053">
        <ele>1689</ele>
        <time>2026-07-29T05:26:48.716Z</time>
      </trkpt>
      <trkpt lat="45.75885" lon="6.71054">
        <ele>1689</ele>
        <time>2026-07-29T05:26:49.716Z</time>
      </trkpt>
      <trkpt lat="45.75885" lon="6.71056">
        <ele>1689</ele>
        <time>2026-07-29T05:26:50.716Z</time>
      </trkpt>
      <trkpt lat="45.75884" lon="6.71057">
        <ele>1689</ele>
        <time>2026-07-29T05:26:51.716Z</time>
      </trkpt>
      <trkpt lat="45.75883" lon="6.71059">
        <ele>1689</ele>
        <time>2026-07-29T05:26:52.716Z</time>
      </trkpt>
      <trkpt lat="45.75882" lon="6.71061">
        <ele>1689</ele>
        <time>2026-07-29T05:26:53.716Z</time>
      </trkpt>
      <trkpt lat="45.75881" lon="6.71063">
        <ele>1689</ele>
        <time>2026-07-29T05:26:54.716Z</time>
      </trkpt>
      <trkpt lat="45.7588" lon="6.71064">
        <ele>1689</ele>
        <time>2026-07-29T05:26:55.716Z</time>
      </trkpt>
      <trkpt lat="45.75879" lon="6.71065">
        <ele>1689</ele>
        <time>2026-07-29T05:26:56.716Z</time>
      </trkpt>
      <trkpt lat="45.75878" lon="6.71066">
        <ele>1689</ele>
        <time>2026-07-29T05:26:57.716Z</time>
      </trkpt>
      <trkpt lat="45.75876" lon="6.71068">
        <ele>1689</ele>
        <time>2026-07-29T05:26:58.716Z</time>
      </trkpt>
      <trkpt lat="45.75875" lon="6.71069">
        <ele>1689</ele>
        <time>2026-07-29T05:26:59.716Z</time>
      </trkpt>
      <trkpt lat="45.75874" lon="6.71069">
        <ele>1689</ele>
        <time>2026-07-29T05:27:00.716Z</time>
      </trkpt>
      <trkpt lat="45.75872" lon="6.7107">
        <ele>1689</ele>
        <time>2026-07-29T05:27:01.716Z</time>
      </trkpt>
      <trkpt lat="45.75871" lon="6.7107">
        <ele>1689</ele>
        <time>2026-07-29T05:27:02.716Z</time>
      </trkpt>
      <trkpt lat="45.75869" lon="6.71071">
        <ele>1690</ele>
        <time>2026-07-29T05:27:03.716Z</time>
      </trkpt>
      <trkpt lat="45.75867" lon="6.71072">
        <ele>1690</ele>
        <time>2026-07-29T05:27:04.716Z</time>
      </trkpt>
      <trkpt lat="45.75866" lon="6.71072">
        <ele>1690</ele>
        <time>2026-07-29T05:27:05.716Z</time>
      </trkpt>
      <trkpt lat="45.75865" lon="6.71073">
        <ele>1690</ele>
        <time>2026-07-29T05:27:06.716Z</time>
      </trkpt>
      <trkpt lat="45.75863" lon="6.71073">
        <ele>1690</ele>
        <time>2026-07-29T05:27:07.716Z</time>
      </trkpt>
      <trkpt lat="45.75862" lon="6.71073">
        <ele>1690</ele>
        <time>2026-07-29T05:27:08.716Z</time>
      </trkpt>
      <trkpt lat="45.75861" lon="6.71074">
        <ele>1690</ele>
        <time>2026-07-29T05:27:09.716Z</time>
      </trkpt>
      <trkpt lat="45.7586" lon="6.71075">
        <ele>1691</ele>
        <time>2026-07-29T05:27:10.716Z</time>
      </trkpt>
      <trkpt lat="45.75859" lon="6.71075">
        <ele>1691</ele>
        <time>2026-07-29T05:27:11.716Z</time>
      </trkpt>
      <trkpt lat="45.75858" lon="6.71076">
        <ele>1691</ele>
        <time>2026-07-29T05:27:12.716Z</time>
      </trkpt>
      <trkpt lat="45.75857" lon="6.71077">
        <ele>1691</ele>
        <time>2026-07-29T05:27:13.716Z</time>
      </trkpt>
      <trkpt lat="45.75856" lon="6.71078">
        <ele>1692</ele>
        <time>2026-07-29T05:27:14.716Z</time>
      </trkpt>
      <trkpt lat="45.75855" lon="6.71079">
        <ele>1692</ele>
        <time>2026-07-29T05:27:15.716Z</time>
      </trkpt>
      <trkpt lat="45.75854" lon="6.7108">
        <ele>1692</ele>
        <time>2026-07-29T05:27:16.716Z</time>
      </trkpt>
      <trkpt lat="45.75853" lon="6.7108">
        <ele>1692</ele>
        <time>2026-07-29T05:27:17.716Z</time>
      </trkpt>
      <trkpt lat="45.75852" lon="6.7108">
        <ele>1692</ele>
        <time>2026-07-29T05:27:18.716Z</time>
      </trkpt>
      <trkpt lat="45.75851" lon="6.71081">
        <ele>1692</ele>
        <time>2026-07-29T05:27:19.716Z</time>
      </trkpt>
      <trkpt lat="45.75849" lon="6.71081">
        <ele>1692</ele>
        <time>2026-07-29T05:27:20.716Z</time>
      </trkpt>
      <trkpt lat="45.75848" lon="6.71081">
        <ele>1692</ele>
        <time>2026-07-29T05:27:21.716Z</time>
      </trkpt>
      <trkpt lat="45.75847" lon="6.7108">
        <ele>1692</ele>
        <time>2026-07-29T05:27:22.716Z</time>
      </trkpt>
      <trkpt lat="45.75846" lon="6.71079">
        <ele>1692</ele>
        <time>2026-07-29T05:27:23.716Z</time>
      </trkpt>
      <trkpt lat="45.75845" lon="6.71079">
        <ele>1692</ele>
        <time>2026-07-29T05:27:24.716Z</time>
      </trkpt>
      <trkpt lat="45.75844" lon="6.71079">
        <ele>1692</ele>
        <time>2026-07-29T05:27:25.716Z</time>
      </trkpt>
      <trkpt lat="45.75843" lon="6.71078">
        <ele>1692</ele>
        <time>2026-07-29T05:27:26.716Z</time>
      </trkpt>
      <trkpt lat="45.75842" lon="6.71078">
        <ele>1692</ele>
        <time>2026-07-29T05:27:27.716Z</time>
      </trkpt>
      <trkpt lat="45.75841" lon="6.71078">
        <ele>1692</ele>
        <time>2026-07-29T05:27:28.716Z</time>
      </trkpt>
      <trkpt lat="45.7584" lon="6.71077">
        <ele>1692</ele>
        <time>2026-07-29T05:27:29.716Z</time>
      </trkpt>
      <trkpt lat="45.75839" lon="6.71077">
        <ele>1692</ele>
        <time>2026-07-29T05:27:30.716Z</time>
      </trkpt>
      <trkpt lat="45.75838" lon="6.71077">
        <ele>1692</ele>
        <time>2026-07-29T05:27:31.716Z</time>
      </trkpt>
      <trkpt lat="45.75837" lon="6.71076">
        <ele>1692</ele>
        <time>2026-07-29T05:27:32.716Z</time>
      </trkpt>
      <trkpt lat="45.75836" lon="6.71076">
        <ele>1693</ele>
        <time>2026-07-29T05:27:33.716Z</time>
      </trkpt>
      <trkpt lat="45.75835" lon="6.71076">
        <ele>1693</ele>
        <time>2026-07-29T05:27:34.716Z</time>
      </trkpt>
      <trkpt lat="45.75834" lon="6.71075">
        <ele>1693</ele>
        <time>2026-07-29T05:27:35.716Z</time>
      </trkpt>
      <trkpt lat="45.75833" lon="6.71075">
        <ele>1694</ele>
        <time>2026-07-29T05:27:36.716Z</time>
      </trkpt>
      <trkpt lat="45.75832" lon="6.71074">
        <ele>1694</ele>
        <time>2026-07-29T05:27:37.716Z</time>
      </trkpt>
      <trkpt lat="45.75831" lon="6.71074">
        <ele>1694</ele>
        <time>2026-07-29T05:27:38.716Z</time>
      </trkpt>
      <trkpt lat="45.7583" lon="6.71073">
        <ele>1694</ele>
        <time>2026-07-29T05:27:39.716Z</time>
      </trkpt>
      <trkpt lat="45.75829" lon="6.71073">
        <ele>1694</ele>
        <time>2026-07-29T05:27:40.716Z</time>
      </trkpt>
      <trkpt lat="45.75829" lon="6.71073">
        <ele>1694</ele>
        <time>2026-07-29T05:27:41.716Z</time>
      </trkpt>
      <trkpt lat="45.75828" lon="6.71072">
        <ele>1694</ele>
        <time>2026-07-29T05:27:42.716Z</time>
      </trkpt>
      <trkpt lat="45.75827" lon="6.71072">
        <ele>1695</ele>
        <time>2026-07-29T05:27:43.716Z</time>
      </trkpt>
      <trkpt lat="45.75826" lon="6.71072">
        <ele>1695</ele>
        <time>2026-07-29T05:27:44.716Z</time>
      </trkpt>
      <trkpt lat="45.75825" lon="6.71072">
        <ele>1695</ele>
        <time>2026-07-29T05:27:45.716Z</time>
      </trkpt>
      <trkpt lat="45.75824" lon="6.71073">
        <ele>1695</ele>
        <time>2026-07-29T05:27:46.716Z</time>
      </trkpt>
      <trkpt lat="45.75823" lon="6.71073">
        <ele>1695</ele>
        <time>2026-07-29T05:27:47.716Z</time>
      </trkpt>
      <trkpt lat="45.75822" lon="6.71073">
        <ele>1696</ele>
        <time>2026-07-29T05:27:48.716Z</time>
      </trkpt>
      <trkpt lat="45.75822" lon="6.71073">
        <ele>1696</ele>
        <time>2026-07-29T05:27:49.716Z</time>
      </trkpt>
      <trkpt lat="45.75821" lon="6.71073">
        <ele>1696</ele>
        <time>2026-07-29T05:27:50.716Z</time>
      </trkpt>
      <trkpt lat="45.7582" lon="6.71074">
        <ele>1697</ele>
        <time>2026-07-29T05:27:51.716Z</time>
      </trkpt>
      <trkpt lat="45.75819" lon="6.71074">
        <ele>1698</ele>
        <time>2026-07-29T05:27:52.716Z</time>
      </trkpt>
      <trkpt lat="45.75818" lon="6.71073">
        <ele>1698</ele>
        <time>2026-07-29T05:27:53.716Z</time>
      </trkpt>
      <trkpt lat="45.75817" lon="6.71073">
        <ele>1698</ele>
        <time>2026-07-29T05:27:54.716Z</time>
      </trkpt>
      <trkpt lat="45.75815" lon="6.71073">
        <ele>1698</ele>
        <time>2026-07-29T05:27:55.716Z</time>
      </trkpt>
      <trkpt lat="45.75814" lon="6.71074">
        <ele>1699</ele>
        <time>2026-07-29T05:27:56.716Z</time>
      </trkpt>
      <trkpt lat="45.75813" lon="6.71075">
        <ele>1699</ele>
        <time>2026-07-29T05:27:57.716Z</time>
      </trkpt>
      <trkpt lat="45.75812" lon="6.71075">
        <ele>1699</ele>
        <time>2026-07-29T05:27:58.716Z</time>
      </trkpt>
      <trkpt lat="45.75811" lon="6.71076">
        <ele>1699</ele>
        <time>2026-07-29T05:27:59.716Z</time>
      </trkpt>
      <trkpt lat="45.7581" lon="6.71076">
        <ele>1699</ele>
        <time>2026-07-29T05:28:00.716Z</time>
      </trkpt>
      <trkpt lat="45.75809" lon="6.71076">
        <ele>1700</ele>
        <time>2026-07-29T05:28:01.716Z</time>
      </trkpt>
      <trkpt lat="45.75808" lon="6.71076">
        <ele>1700</ele>
        <time>2026-07-29T05:28:02.716Z</time>
      </trkpt>
      <trkpt lat="45.75807" lon="6.71076">
        <ele>1700</ele>
        <time>2026-07-29T05:28:03.716Z</time>
      </trkpt>
      <trkpt lat="45.75806" lon="6.71076">
        <ele>1701</ele>
        <time>2026-07-29T05:28:04.716Z</time>
      </trkpt>
      <trkpt lat="45.75805" lon="6.71076">
        <ele>1701</ele>
        <time>2026-07-29T05:28:05.716Z</time>
      </trkpt>
      <trkpt lat="45.75804" lon="6.71076">
        <ele>1701</ele>
        <time>2026-07-29T05:28:06.716Z</time>
      </trkpt>
      <trkpt lat="45.75804" lon="6.71076">
        <ele>1701</ele>
        <time>2026-07-29T05:28:07.716Z</time>
      </trkpt>
      <trkpt lat="45.75804" lon="6.71076">
        <ele>1702</ele>
        <time>2026-07-29T05:28:08.716Z</time>
      </trkpt>
      <trkpt lat="45.75804" lon="6.71076">
        <ele>1702</ele>
        <time>2026-07-29T05:28:09.716Z</time>
      </trkpt>
      <trkpt lat="45.75804" lon="6.71077">
        <ele>1702</ele>
        <time>2026-07-29T05:28:10.716Z</time>
      </trkpt>
      <trkpt lat="45.75804" lon="6.71079">
        <ele>1702</ele>
        <time>2026-07-29T05:28:11.716Z</time>
      </trkpt>
      <trkpt lat="45.75804" lon="6.71081">
        <ele>1702</ele>
        <time>2026-07-29T05:28:12.716Z</time>
      </trkpt>
      <trkpt lat="45.75804" lon="6.71083">
        <ele>1702</ele>
        <time>2026-07-29T05:28:13.716Z</time>
      </trkpt>
      <trkpt lat="45.75804" lon="6.71086">
        <ele>1702</ele>
        <time>2026-07-29T05:28:14.716Z</time>
      </trkpt>
      <trkpt lat="45.75804" lon="6.71088">
        <ele>1702</ele>
        <time>2026-07-29T05:28:15.716Z</time>
      </trkpt>
      <trkpt lat="45.75804" lon="6.7109">
        <ele>1702</ele>
        <time>2026-07-29T05:28:16.716Z</time>
      </trkpt>
      <trkpt lat="45.75805" lon="6.71091">
        <ele>1702</ele>
        <time>2026-07-29T05:28:17.716Z</time>
      </trkpt>
      <trkpt lat="45.75806" lon="6.71093">
        <ele>1702</ele>
        <time>2026-07-29T05:28:18.716Z</time>
      </trkpt>
      <trkpt lat="45.75806" lon="6.71093">
        <ele>1701</ele>
        <time>2026-07-29T05:28:19.716Z</time>
      </trkpt>
      <trkpt lat="45.75807" lon="6.71094">
        <ele>1701</ele>
        <time>2026-07-29T05:28:20.716Z</time>
      </trkpt>
      <trkpt lat="45.75806" lon="6.71095">
        <ele>1700</ele>
        <time>2026-07-29T05:28:21.716Z</time>
      </trkpt>
      <trkpt lat="45.75805" lon="6.71096">
        <ele>1700</ele>
        <time>2026-07-29T05:28:22.716Z</time>
      </trkpt>
      <trkpt lat="45.75805" lon="6.71097">
        <ele>1700</ele>
        <time>2026-07-29T05:28:23.716Z</time>
      </trkpt>
      <trkpt lat="45.75805" lon="6.71099">
        <ele>1699</ele>
        <time>2026-07-29T05:28:24.716Z</time>
      </trkpt>
      <trkpt lat="45.75805" lon="6.71101">
        <ele>1700</ele>
        <time>2026-07-29T05:28:25.716Z</time>
      </trkpt>
      <trkpt lat="45.75804" lon="6.71104">
        <ele>1700</ele>
        <time>2026-07-29T05:28:26.716Z</time>
      </trkpt>
      <trkpt lat="45.75804" lon="6.71106">
        <ele>1700</ele>
        <time>2026-07-29T05:28:27.716Z</time>
      </trkpt>
      <trkpt lat="45.75803" lon="6.71107">
        <ele>1700</ele>
        <time>2026-07-29T05:28:28.716Z</time>
      </trkpt>
      <trkpt lat="45.75801" lon="6.71109">
        <ele>1700</ele>
        <time>2026-07-29T05:28:29.716Z</time>
      </trkpt>
      <trkpt lat="45.75799" lon="6.7111">
        <ele>1700</ele>
        <time>2026-07-29T05:28:30.716Z</time>
      </trkpt>
      <trkpt lat="45.75798" lon="6.71111">
        <ele>1700</ele>
        <time>2026-07-29T05:28:31.716Z</time>
      </trkpt>
      <trkpt lat="45.75796" lon="6.71112">
        <ele>1701</ele>
        <time>2026-07-29T05:28:32.716Z</time>
      </trkpt>
      <trkpt lat="45.75794" lon="6.71112">
        <ele>1701</ele>
        <time>2026-07-29T05:28:33.716Z</time>
      </trkpt>
      <trkpt lat="45.75792" lon="6.71113">
        <ele>1702</ele>
        <time>2026-07-29T05:28:34.716Z</time>
      </trkpt>
      <trkpt lat="45.75791" lon="6.71113">
        <ele>1702</ele>
        <time>2026-07-29T05:28:35.716Z</time>
      </trkpt>
      <trkpt lat="45.75789" lon="6.71112">
        <ele>1702</ele>
        <time>2026-07-29T05:28:36.716Z</time>
      </trkpt>
      <trkpt lat="45.75787" lon="6.71112">
        <ele>1703</ele>
        <time>2026-07-29T05:28:37.716Z</time>
      </trkpt>
      <trkpt lat="45.75786" lon="6.71111">
        <ele>1703</ele>
        <time>2026-07-29T05:28:38.716Z</time>
      </trkpt>
      <trkpt lat="45.75784" lon="6.7111">
        <ele>1704</ele>
        <time>2026-07-29T05:28:39.716Z</time>
      </trkpt>
      <trkpt lat="45.75782" lon="6.71109">
        <ele>1704</ele>
        <time>2026-07-29T05:28:40.716Z</time>
      </trkpt>
      <trkpt lat="45.75781" lon="6.71109">
        <ele>1705</ele>
        <time>2026-07-29T05:28:41.716Z</time>
      </trkpt>
      <trkpt lat="45.75779" lon="6.71108">
        <ele>1705</ele>
        <time>2026-07-29T05:28:42.716Z</time>
      </trkpt>
      <trkpt lat="45.75778" lon="6.71107">
        <ele>1706</ele>
        <time>2026-07-29T05:28:43.716Z</time>
      </trkpt>
      <trkpt lat="45.75776" lon="6.71106">
        <ele>1706</ele>
        <time>2026-07-29T05:28:44.716Z</time>
      </trkpt>
      <trkpt lat="45.75775" lon="6.71104">
        <ele>1707</ele>
        <time>2026-07-29T05:28:45.716Z</time>
      </trkpt>
      <trkpt lat="45.75773" lon="6.71103">
        <ele>1707</ele>
        <time>2026-07-29T05:28:46.716Z</time>
      </trkpt>
      <trkpt lat="45.75772" lon="6.71102">
        <ele>1707</ele>
        <time>2026-07-29T05:28:47.716Z</time>
      </trkpt>
      <trkpt lat="45.7577" lon="6.711">
        <ele>1707</ele>
        <time>2026-07-29T05:28:48.716Z</time>
      </trkpt>
      <trkpt lat="45.75768" lon="6.71099">
        <ele>1708</ele>
        <time>2026-07-29T05:28:49.716Z</time>
      </trkpt>
      <trkpt lat="45.75767" lon="6.71098">
        <ele>1708</ele>
        <time>2026-07-29T05:28:50.716Z</time>
      </trkpt>
      <trkpt lat="45.75765" lon="6.71097">
        <ele>1708</ele>
        <time>2026-07-29T05:28:51.716Z</time>
      </trkpt>
      <trkpt lat="45.75764" lon="6.71095">
        <ele>1708</ele>
        <time>2026-07-29T05:28:52.716Z</time>
      </trkpt>
      <trkpt lat="45.75763" lon="6.71093">
        <ele>1709</ele>
        <time>2026-07-29T05:28:53.716Z</time>
      </trkpt>
      <trkpt lat="45.75762" lon="6.71092">
        <ele>1709</ele>
        <time>2026-07-29T05:28:54.716Z</time>
      </trkpt>
      <trkpt lat="45.7576" lon="6.71092">
        <ele>1709</ele>
        <time>2026-07-29T05:28:55.716Z</time>
      </trkpt>
      <trkpt lat="45.75759" lon="6.71091">
        <ele>1709</ele>
        <time>2026-07-29T05:28:56.716Z</time>
      </trkpt>
      <trkpt lat="45.75758" lon="6.71089">
        <ele>1710</ele>
        <time>2026-07-29T05:28:57.716Z</time>
      </trkpt>
      <trkpt lat="45.75757" lon="6.71088">
        <ele>1710</ele>
        <time>2026-07-29T05:28:58.716Z</time>
      </trkpt>
      <trkpt lat="45.75756" lon="6.71087">
        <ele>1711</ele>
        <time>2026-07-29T05:28:59.716Z</time>
      </trkpt>
      <trkpt lat="45.75755" lon="6.71085">
        <ele>1711</ele>
        <time>2026-07-29T05:29:00.716Z</time>
      </trkpt>
      <trkpt lat="45.75754" lon="6.71084">
        <ele>1711</ele>
        <time>2026-07-29T05:29:01.716Z</time>
      </trkpt>
      <trkpt lat="45.75753" lon="6.71082">
        <ele>1711</ele>
        <time>2026-07-29T05:29:02.716Z</time>
      </trkpt>
      <trkpt lat="45.75752" lon="6.71081">
        <ele>1712</ele>
        <time>2026-07-29T05:29:03.716Z</time>
      </trkpt>
      <trkpt lat="45.75751" lon="6.7108">
        <ele>1713</ele>
        <time>2026-07-29T05:29:04.716Z</time>
      </trkpt>
      <trkpt lat="45.7575" lon="6.71079">
        <ele>1713</ele>
        <time>2026-07-29T05:29:05.716Z</time>
      </trkpt>
      <trkpt lat="45.75749" lon="6.71079">
        <ele>1714</ele>
        <time>2026-07-29T05:29:06.716Z</time>
      </trkpt>
      <trkpt lat="45.75749" lon="6.71079">
        <ele>1714</ele>
        <time>2026-07-29T05:29:07.716Z</time>
      </trkpt>
      <trkpt lat="45.75749" lon="6.71079">
        <ele>1715</ele>
        <time>2026-07-29T05:29:08.716Z</time>
      </trkpt>
      <trkpt lat="45.75749" lon="6.71078">
        <ele>1715</ele>
        <time>2026-07-29T05:29:09.716Z</time>
      </trkpt>
      <trkpt lat="45.75749" lon="6.71078">
        <ele>1715</ele>
        <time>2026-07-29T05:29:10.716Z</time>
      </trkpt>
      <trkpt lat="45.75749" lon="6.71077">
        <ele>1716</ele>
        <time>2026-07-29T05:29:11.716Z</time>
      </trkpt>
      <trkpt lat="45.75749" lon="6.71076">
        <ele>1716</ele>
        <time>2026-07-29T05:29:12.716Z</time>
      </trkpt>
      <trkpt lat="45.75748" lon="6.71075">
        <ele>1716</ele>
        <time>2026-07-29T05:29:13.716Z</time>
      </trkpt>
      <trkpt lat="45.75748" lon="6.71073">
        <ele>1716</ele>
        <time>2026-07-29T05:29:14.716Z</time>
      </trkpt>
      <trkpt lat="45.75747" lon="6.71071">
        <ele>1715</ele>
        <time>2026-07-29T05:29:15.716Z</time>
      </trkpt>
      <trkpt lat="45.75746" lon="6.7107">
        <ele>1715</ele>
        <time>2026-07-29T05:29:16.716Z</time>
      </trkpt>
      <trkpt lat="45.75745" lon="6.71069">
        <ele>1714</ele>
        <time>2026-07-29T05:29:17.716Z</time>
      </trkpt>
      <trkpt lat="45.75744" lon="6.71068">
        <ele>1714</ele>
        <time>2026-07-29T05:29:18.716Z</time>
      </trkpt>
      <trkpt lat="45.75743" lon="6.71067">
        <ele>1715</ele>
        <time>2026-07-29T05:29:19.716Z</time>
      </trkpt>
      <trkpt lat="45.75742" lon="6.71066">
        <ele>1715</ele>
        <time>2026-07-29T05:29:20.716Z</time>
      </trkpt>
      <trkpt lat="45.75741" lon="6.71065">
        <ele>1715</ele>
        <time>2026-07-29T05:29:21.716Z</time>
      </trkpt>
      <trkpt lat="45.7574" lon="6.71065">
        <ele>1715</ele>
        <time>2026-07-29T05:29:22.716Z</time>
      </trkpt>
      <trkpt lat="45.75739" lon="6.71065">
        <ele>1715</ele>
        <time>2026-07-29T05:29:23.716Z</time>
      </trkpt>
      <trkpt lat="45.75738" lon="6.71065">
        <ele>1715</ele>
        <time>2026-07-29T05:29:24.716Z</time>
      </trkpt>
      <trkpt lat="45.75737" lon="6.71065">
        <ele>1715</ele>
        <time>2026-07-29T05:29:25.716Z</time>
      </trkpt>
      <trkpt lat="45.75735" lon="6.71065">
        <ele>1715</ele>
        <time>2026-07-29T05:29:26.716Z</time>
      </trkpt>
      <trkpt lat="45.75734" lon="6.71064">
        <ele>1716</ele>
        <time>2026-07-29T05:29:27.716Z</time>
      </trkpt>
      <trkpt lat="45.75733" lon="6.71063">
        <ele>1716</ele>
        <time>2026-07-29T05:29:28.716Z</time>
      </trkpt>
      <trkpt lat="45.75732" lon="6.71063">
        <ele>1716</ele>
        <time>2026-07-29T05:29:29.716Z</time>
      </trkpt>
      <trkpt lat="45.75731" lon="6.71063">
        <ele>1716</ele>
        <time>2026-07-29T05:29:30.716Z</time>
      </trkpt>
      <trkpt lat="45.7573" lon="6.71063">
        <ele>1716</ele>
        <time>2026-07-29T05:29:31.716Z</time>
      </trkpt>
      <trkpt lat="45.75729" lon="6.71062">
        <ele>1716</ele>
        <time>2026-07-29T05:29:32.716Z</time>
      </trkpt>
      <trkpt lat="45.75728" lon="6.71062">
        <ele>1716</ele>
        <time>2026-07-29T05:29:33.716Z</time>
      </trkpt>
      <trkpt lat="45.75727" lon="6.71061">
        <ele>1716</ele>
        <time>2026-07-29T05:29:34.716Z</time>
      </trkpt>
      <trkpt lat="45.75726" lon="6.7106">
        <ele>1716</ele>
        <time>2026-07-29T05:29:35.716Z</time>
      </trkpt>
      <trkpt lat="45.75725" lon="6.71059">
        <ele>1716</ele>
        <time>2026-07-29T05:29:36.716Z</time>
      </trkpt>
      <trkpt lat="45.75724" lon="6.71058">
        <ele>1716</ele>
        <time>2026-07-29T05:29:37.716Z</time>
      </trkpt>
      <trkpt lat="45.75723" lon="6.71057">
        <ele>1716</ele>
        <time>2026-07-29T05:29:38.716Z</time>
      </trkpt>
      <trkpt lat="45.75722" lon="6.71056">
        <ele>1717</ele>
        <time>2026-07-29T05:29:39.716Z</time>
      </trkpt>
      <trkpt lat="45.75721" lon="6.71054">
        <ele>1717</ele>
        <time>2026-07-29T05:29:40.716Z</time>
      </trkpt>
      <trkpt lat="45.7572" lon="6.71053">
        <ele>1717</ele>
        <time>2026-07-29T05:29:41.716Z</time>
      </trkpt>
      <trkpt lat="45.75719" lon="6.71051">
        <ele>1717</ele>
        <time>2026-07-29T05:29:42.716Z</time>
      </trkpt>
      <trkpt lat="45.75718" lon="6.7105">
        <ele>1716</ele>
        <time>2026-07-29T05:29:43.716Z</time>
      </trkpt>
      <trkpt lat="45.75717" lon="6.71049">
        <ele>1716</ele>
        <time>2026-07-29T05:29:44.716Z</time>
      </trkpt>
      <trkpt lat="45.75716" lon="6.71048">
        <ele>1716</ele>
        <time>2026-07-29T05:29:45.716Z</time>
      </trkpt>
      <trkpt lat="45.75715" lon="6.71046">
        <ele>1716</ele>
        <time>2026-07-29T05:29:46.716Z</time>
      </trkpt>
      <trkpt lat="45.75714" lon="6.71045">
        <ele>1716</ele>
        <time>2026-07-29T05:29:47.716Z</time>
      </trkpt>
      <trkpt lat="45.75713" lon="6.71044">
        <ele>1717</ele>
        <time>2026-07-29T05:29:48.716Z</time>
      </trkpt>
      <trkpt lat="45.75712" lon="6.71043">
        <ele>1717</ele>
        <time>2026-07-29T05:29:49.716Z</time>
      </trkpt>
      <trkpt lat="45.75711" lon="6.71042">
        <ele>1717</ele>
        <time>2026-07-29T05:29:50.716Z</time>
      </trkpt>
      <trkpt lat="45.7571" lon="6.71042">
        <ele>1717</ele>
        <time>2026-07-29T05:29:51.716Z</time>
      </trkpt>
      <trkpt lat="45.75709" lon="6.71041">
        <ele>1718</ele>
        <time>2026-07-29T05:29:52.716Z</time>
      </trkpt>
      <trkpt lat="45.75708" lon="6.71041">
        <ele>1718</ele>
        <time>2026-07-29T05:29:53.716Z</time>
      </trkpt>
      <trkpt lat="45.75707" lon="6.7104">
        <ele>1718</ele>
        <time>2026-07-29T05:29:54.716Z</time>
      </trkpt>
      <trkpt lat="45.75706" lon="6.71039">
        <ele>1718</ele>
        <time>2026-07-29T05:29:55.716Z</time>
      </trkpt>
      <trkpt lat="45.75705" lon="6.71038">
        <ele>1718</ele>
        <time>2026-07-29T05:29:56.716Z</time>
      </trkpt>
      <trkpt lat="45.75704" lon="6.71037">
        <ele>1719</ele>
        <time>2026-07-29T05:29:57.716Z</time>
      </trkpt>
      <trkpt lat="45.75704" lon="6.71036">
        <ele>1719</ele>
        <time>2026-07-29T05:29:58.716Z</time>
      </trkpt>
      <trkpt lat="45.75703" lon="6.71035">
        <ele>1719</ele>
        <time>2026-07-29T05:29:59.716Z</time>
      </trkpt>
      <trkpt lat="45.75702" lon="6.71034">
        <ele>1719</ele>
        <time>2026-07-29T05:30:00.716Z</time>
      </trkpt>
      <trkpt lat="45.75702" lon="6.71033">
        <ele>1719</ele>
        <time>2026-07-29T05:30:01.716Z</time>
      </trkpt>
      <trkpt lat="45.75702" lon="6.71032">
        <ele>1719</ele>
        <time>2026-07-29T05:30:02.716Z</time>
      </trkpt>
      <trkpt lat="45.75701" lon="6.7103">
        <ele>1719</ele>
        <time>2026-07-29T05:30:03.716Z</time>
      </trkpt>
      <trkpt lat="45.75701" lon="6.7103">
        <ele>1719</ele>
        <time>2026-07-29T05:30:04.716Z</time>
      </trkpt>
      <trkpt lat="45.757" lon="6.71029">
        <ele>1720</ele>
        <time>2026-07-29T05:30:05.716Z</time>
      </trkpt>
      <trkpt lat="45.757" lon="6.71028">
        <ele>1720</ele>
        <time>2026-07-29T05:30:06.716Z</time>
      </trkpt>
      <trkpt lat="45.757" lon="6.71026">
        <ele>1720</ele>
        <time>2026-07-29T05:30:07.716Z</time>
      </trkpt>
      <trkpt lat="45.75699" lon="6.71025">
        <ele>1720</ele>
        <time>2026-07-29T05:30:08.716Z</time>
      </trkpt>
      <trkpt lat="45.75699" lon="6.71024">
        <ele>1720</ele>
        <time>2026-07-29T05:30:09.716Z</time>
      </trkpt>
      <trkpt lat="45.75698" lon="6.71023">
        <ele>1720</ele>
        <time>2026-07-29T05:30:10.716Z</time>
      </trkpt>
      <trkpt lat="45.75698" lon="6.71022">
        <ele>1721</ele>
        <time>2026-07-29T05:30:11.716Z</time>
      </trkpt>
      <trkpt lat="45.75697" lon="6.7102">
        <ele>1721</ele>
        <time>2026-07-29T05:30:12.716Z</time>
      </trkpt>
      <trkpt lat="45.75697" lon="6.71019">
        <ele>1721</ele>
        <time>2026-07-29T05:30:13.716Z</time>
      </trkpt>
      <trkpt lat="45.75697" lon="6.71018">
        <ele>1722</ele>
        <time>2026-07-29T05:30:14.716Z</time>
      </trkpt>
      <trkpt lat="45.75696" lon="6.71018">
        <ele>1722</ele>
        <time>2026-07-29T05:30:15.716Z</time>
      </trkpt>
      <trkpt lat="45.75696" lon="6.71017">
        <ele>1723</ele>
        <time>2026-07-29T05:30:16.716Z</time>
      </trkpt>
      <trkpt lat="45.75696" lon="6.71017">
        <ele>1723</ele>
        <time>2026-07-29T05:30:17.716Z</time>
      </trkpt>
      <trkpt lat="45.75696" lon="6.71016">
        <ele>1723</ele>
        <time>2026-07-29T05:30:18.716Z</time>
      </trkpt>
      <trkpt lat="45.75696" lon="6.71016">
        <ele>1724</ele>
        <time>2026-07-29T05:30:19.716Z</time>
      </trkpt>
      <trkpt lat="45.75696" lon="6.71016">
        <ele>1723</ele>
        <time>2026-07-29T05:30:20.716Z</time>
      </trkpt>
      <trkpt lat="45.75696" lon="6.71016">
        <ele>1723</ele>
        <time>2026-07-29T05:30:21.716Z</time>
      </trkpt>
      <trkpt lat="45.75696" lon="6.71016">
        <ele>1723</ele>
        <time>2026-07-29T05:30:22.716Z</time>
      </trkpt>
      <trkpt lat="45.75696" lon="6.71016">
        <ele>1723</ele>
        <time>2026-07-29T05:30:23.716Z</time>
      </trkpt>
      <trkpt lat="45.75696" lon="6.71016">
        <ele>1724</ele>
        <time>2026-07-29T05:30:24.716Z</time>
      </trkpt>
      <trkpt lat="45.75696" lon="6.71015">
        <ele>1724</ele>
        <time>2026-07-29T05:30:25.716Z</time>
      </trkpt>
      <trkpt lat="45.75696" lon="6.71015">
        <ele>1724</ele>
        <time>2026-07-29T05:30:26.716Z</time>
      </trkpt>
      <trkpt lat="45.75696" lon="6.71015">
        <ele>1724</ele>
        <time>2026-07-29T05:30:27.716Z</time>
      </trkpt>
      <trkpt lat="45.75696" lon="6.71015">
        <ele>1725</ele>
        <time>2026-07-29T05:30:28.716Z</time>
      </trkpt>
      <trkpt lat="45.75696" lon="6.71015">
        <ele>1726</ele>
        <time>2026-07-29T05:30:29.716Z</time>
      </trkpt>
      <trkpt lat="45.75696" lon="6.71015">
        <ele>1726</ele>
        <time>2026-07-29T05:30:30.716Z</time>
      </trkpt>
      <trkpt lat="45.75696" lon="6.71015">
        <ele>1726</ele>
        <time>2026-07-29T05:30:31.716Z</time>
      </trkpt>
      <trkpt lat="45.75696" lon="6.71015">
        <ele>1726</ele>
        <time>2026-07-29T05:30:32.716Z</time>
      </trkpt>
      <trkpt lat="45.75696" lon="6.71015">
        <ele>1726</ele>
        <time>2026-07-29T05:30:33.716Z</time>
      </trkpt>
      <trkpt lat="45.75696" lon="6.71015">
        <ele>1726</ele>
        <time>2026-07-29T05:30:34.716Z</time>
      </trkpt>
      <trkpt lat="45.75696" lon="6.71015">
        <ele>1726</ele>
        <time>2026-07-29T05:30:35.716Z</time>
      </trkpt>
      <trkpt lat="45.75696" lon="6.71015">
        <ele>1726</ele>
        <time>2026-07-29T05:30:36.716Z</time>
      </trkpt>
      <trkpt lat="45.75696" lon="6.71015">
        <ele>1726</ele>
        <time>2026-07-29T05:30:37.716Z</time>
      </trkpt>
      <trkpt lat="45.75696" lon="6.71015">
        <ele>1726</ele>
        <time>2026-07-29T05:30:38.716Z</time>
      </trkpt>
      <trkpt lat="45.75696" lon="6.71016">
        <ele>1726</ele>
        <time>2026-07-29T05:30:39.716Z</time>
      </trkpt>
      <trkpt lat="45.75696" lon="6.71016">
        <ele>1726</ele>
        <time>2026-07-29T05:30:40.716Z</time>
      </trkpt>
      <trkpt lat="45.75696" lon="6.71016">
        <ele>1726</ele>
        <time>2026-07-29T05:30:41.716Z</time>
      </trkpt>
      <trkpt lat="45.75696" lon="6.71016">
        <ele>1726</ele>
        <time>2026-07-29T05:30:42.716Z</time>
      </trkpt>
      <trkpt lat="45.75696" lon="6.71016">
        <ele>1726</ele>
        <time>2026-07-29T05:30:43.716Z</time>
      </trkpt>
      <trkpt lat="45.75696" lon="6.71016">
        <ele>1726</ele>
        <time>2026-07-29T05:30:44.716Z</time>
      </trkpt>
      <trkpt lat="45.75695" lon="6.71016">
        <ele>1726</ele>
        <time>2026-07-29T05:30:45.716Z</time>
      </trkpt>
      <trkpt lat="45.75695" lon="6.71016">
        <ele>1726</ele>
        <time>2026-07-29T05:30:46.716Z</time>
      </trkpt>
      <trkpt lat="45.75695" lon="6.71017">
        <ele>1726</ele>
        <time>2026-07-29T05:30:47.716Z</time>
      </trkpt>
      <trkpt lat="45.75694" lon="6.71017">
        <ele>1726</ele>
        <time>2026-07-29T05:30:48.716Z</time>
      </trkpt>
      <trkpt lat="45.75694" lon="6.71017">
        <ele>1726</ele>
        <time>2026-07-29T05:30:49.716Z</time>
      </trkpt>
      <trkpt lat="45.75693" lon="6.71017">
        <ele>1726</ele>
        <time>2026-07-29T05:30:50.716Z</time>
      </trkpt>
      <trkpt lat="45.75692" lon="6.71017">
        <ele>1726</ele>
        <time>2026-07-29T05:30:51.716Z</time>
      </trkpt>
      <trkpt lat="45.75691" lon="6.71015">
        <ele>1726</ele>
        <time>2026-07-29T05:30:52.716Z</time>
      </trkpt>
      <trkpt lat="45.75691" lon="6.71014">
        <ele>1726</ele>
        <time>2026-07-29T05:30:53.716Z</time>
      </trkpt>
      <trkpt lat="45.7569" lon="6.71013">
        <ele>1726</ele>
        <time>2026-07-29T05:30:54.716Z</time>
      </trkpt>
      <trkpt lat="45.75689" lon="6.71012">
        <ele>1727</ele>
        <time>2026-07-29T05:30:55.716Z</time>
      </trkpt>
      <trkpt lat="45.75689" lon="6.71011">
        <ele>1727</ele>
        <time>2026-07-29T05:30:56.716Z</time>
      </trkpt>
      <trkpt lat="45.75688" lon="6.7101">
        <ele>1727</ele>
        <time>2026-07-29T05:30:57.716Z</time>
      </trkpt>
      <trkpt lat="45.75687" lon="6.71009">
        <ele>1727</ele>
        <time>2026-07-29T05:30:58.716Z</time>
      </trkpt>
      <trkpt lat="45.75687" lon="6.71008">
        <ele>1728</ele>
        <time>2026-07-29T05:30:59.716Z</time>
      </trkpt>
      <trkpt lat="45.75687" lon="6.71007">
        <ele>1728</ele>
        <time>2026-07-29T05:31:00.716Z</time>
      </trkpt>
      <trkpt lat="45.75686" lon="6.71005">
        <ele>1729</ele>
        <time>2026-07-29T05:31:01.716Z</time>
      </trkpt>
      <trkpt lat="45.75686" lon="6.71004">
        <ele>1729</ele>
        <time>2026-07-29T05:31:02.716Z</time>
      </trkpt>
      <trkpt lat="45.75686" lon="6.71003">
        <ele>1729</ele>
        <time>2026-07-29T05:31:03.716Z</time>
      </trkpt>
      <trkpt lat="45.75686" lon="6.71002">
        <ele>1730</ele>
        <time>2026-07-29T05:31:04.716Z</time>
      </trkpt>
      <trkpt lat="45.75687" lon="6.71001">
        <ele>1730</ele>
        <time>2026-07-29T05:31:05.716Z</time>
      </trkpt>
      <trkpt lat="45.75687" lon="6.71">
        <ele>1731</ele>
        <time>2026-07-29T05:31:06.716Z</time>
      </trkpt>
      <trkpt lat="45.75687" lon="6.70999">
        <ele>1731</ele>
        <time>2026-07-29T05:31:07.716Z</time>
      </trkpt>
      <trkpt lat="45.75687" lon="6.70997">
        <ele>1731</ele>
        <time>2026-07-29T05:31:08.716Z</time>
      </trkpt>
      <trkpt lat="45.75687" lon="6.70997">
        <ele>1731</ele>
        <time>2026-07-29T05:31:09.716Z</time>
      </trkpt>
      <trkpt lat="45.75687" lon="6.70996">
        <ele>1731</ele>
        <time>2026-07-29T05:31:10.716Z</time>
      </trkpt>
      <trkpt lat="45.75686" lon="6.70996">
        <ele>1731</ele>
        <time>2026-07-29T05:31:11.716Z</time>
      </trkpt>
      <trkpt lat="45.75685" lon="6.70996">
        <ele>1731</ele>
        <time>2026-07-29T05:31:12.716Z</time>
      </trkpt>
      <trkpt lat="45.75684" lon="6.70995">
        <ele>1732</ele>
        <time>2026-07-29T05:31:13.716Z</time>
      </trkpt>
      <trkpt lat="45.75684" lon="6.70995">
        <ele>1732</ele>
        <time>2026-07-29T05:31:14.716Z</time>
      </trkpt>
      <trkpt lat="45.75683" lon="6.70994">
        <ele>1733</ele>
        <time>2026-07-29T05:31:15.716Z</time>
      </trkpt>
      <trkpt lat="45.75682" lon="6.70994">
        <ele>1734</ele>
        <time>2026-07-29T05:31:16.716Z</time>
      </trkpt>
      <trkpt lat="45.75682" lon="6.70993">
        <ele>1734</ele>
        <time>2026-07-29T05:31:17.716Z</time>
      </trkpt>
      <trkpt lat="45.75681" lon="6.70992">
        <ele>1734</ele>
        <time>2026-07-29T05:31:18.716Z</time>
      </trkpt>
      <trkpt lat="45.7568" lon="6.70991">
        <ele>1735</ele>
        <time>2026-07-29T05:31:19.716Z</time>
      </trkpt>
      <trkpt lat="45.75679" lon="6.70991">
        <ele>1735</ele>
        <time>2026-07-29T05:31:20.716Z</time>
      </trkpt>
      <trkpt lat="45.75678" lon="6.7099">
        <ele>1735</ele>
        <time>2026-07-29T05:31:21.716Z</time>
      </trkpt>
      <trkpt lat="45.75678" lon="6.70989">
        <ele>1736</ele>
        <time>2026-07-29T05:31:22.716Z</time>
      </trkpt>
      <trkpt lat="45.75677" lon="6.70988">
        <ele>1736</ele>
        <time>2026-07-29T05:31:23.716Z</time>
      </trkpt>
      <trkpt lat="45.75677" lon="6.70987">
        <ele>1737</ele>
        <time>2026-07-29T05:31:24.716Z</time>
      </trkpt>
      <trkpt lat="45.75677" lon="6.70986">
        <ele>1737</ele>
        <time>2026-07-29T05:31:25.716Z</time>
      </trkpt>
      <trkpt lat="45.75676" lon="6.70985">
        <ele>1737</ele>
        <time>2026-07-29T05:31:26.716Z</time>
      </trkpt>
      <trkpt lat="45.75676" lon="6.70984">
        <ele>1737</ele>
        <time>2026-07-29T05:31:27.716Z</time>
      </trkpt>
      <trkpt lat="45.75675" lon="6.70983">
        <ele>1737</ele>
        <time>2026-07-29T05:31:28.716Z</time>
      </trkpt>
      <trkpt lat="45.75674" lon="6.70982">
        <ele>1737</ele>
        <time>2026-07-29T05:31:29.716Z</time>
      </trkpt>
      <trkpt lat="45.75674" lon="6.70981">
        <ele>1737</ele>
        <time>2026-07-29T05:31:30.716Z</time>
      </trkpt>
      <trkpt lat="45.75673" lon="6.70981">
        <ele>1738</ele>
        <time>2026-07-29T05:31:31.716Z</time>
      </trkpt>
      <trkpt lat="45.75672" lon="6.7098">
        <ele>1738</ele>
        <time>2026-07-29T05:31:32.716Z</time>
      </trkpt>
      <trkpt lat="45.75672" lon="6.70979">
        <ele>1738</ele>
        <time>2026-07-29T05:31:33.716Z</time>
      </trkpt>
      <trkpt lat="45.75671" lon="6.70978">
        <ele>1738</ele>
        <time>2026-07-29T05:31:34.716Z</time>
      </trkpt>
      <trkpt lat="45.75671" lon="6.70976">
        <ele>1738</ele>
        <time>2026-07-29T05:31:35.716Z</time>
      </trkpt>
      <trkpt lat="45.7567" lon="6.70975">
        <ele>1738</ele>
        <time>2026-07-29T05:31:36.716Z</time>
      </trkpt>
      <trkpt lat="45.7567" lon="6.70974">
        <ele>1738</ele>
        <time>2026-07-29T05:31:37.716Z</time>
      </trkpt>
      <trkpt lat="45.75669" lon="6.70973">
        <ele>1738</ele>
        <time>2026-07-29T05:31:38.716Z</time>
      </trkpt>
      <trkpt lat="45.75668" lon="6.70972">
        <ele>1738</ele>
        <time>2026-07-29T05:31:39.716Z</time>
      </trkpt>
      <trkpt lat="45.75668" lon="6.70971">
        <ele>1738</ele>
        <time>2026-07-29T05:31:40.716Z</time>
      </trkpt>
      <trkpt lat="45.75668" lon="6.7097">
        <ele>1738</ele>
        <time>2026-07-29T05:31:41.716Z</time>
      </trkpt>
      <trkpt lat="45.75667" lon="6.70969">
        <ele>1739</ele>
        <time>2026-07-29T05:31:42.716Z</time>
      </trkpt>
      <trkpt lat="45.75667" lon="6.70968">
        <ele>1739</ele>
        <time>2026-07-29T05:31:43.716Z</time>
      </trkpt>
      <trkpt lat="45.75667" lon="6.70967">
        <ele>1739</ele>
        <time>2026-07-29T05:31:44.716Z</time>
      </trkpt>
      <trkpt lat="45.75666" lon="6.70966">
        <ele>1738</ele>
        <time>2026-07-29T05:31:45.716Z</time>
      </trkpt>
      <trkpt lat="45.75665" lon="6.70965">
        <ele>1739</ele>
        <time>2026-07-29T05:31:46.716Z</time>
      </trkpt>
      <trkpt lat="45.75665" lon="6.70964">
        <ele>1739</ele>
        <time>2026-07-29T05:31:47.716Z</time>
      </trkpt>
      <trkpt lat="45.75665" lon="6.70963">
        <ele>1739</ele>
        <time>2026-07-29T05:31:48.716Z</time>
      </trkpt>
      <trkpt lat="45.75664" lon="6.70962">
        <ele>1739</ele>
        <time>2026-07-29T05:31:49.716Z</time>
      </trkpt>
      <trkpt lat="45.75664" lon="6.7096">
        <ele>1740</ele>
        <time>2026-07-29T05:31:50.716Z</time>
      </trkpt>
      <trkpt lat="45.75664" lon="6.70959">
        <ele>1740</ele>
        <time>2026-07-29T05:31:51.716Z</time>
      </trkpt>
      <trkpt lat="45.75664" lon="6.70958">
        <ele>1740</ele>
        <time>2026-07-29T05:31:52.716Z</time>
      </trkpt>
      <trkpt lat="45.75664" lon="6.70957">
        <ele>1741</ele>
        <time>2026-07-29T05:31:53.716Z</time>
      </trkpt>
      <trkpt lat="45.75664" lon="6.70956">
        <ele>1741</ele>
        <time>2026-07-29T05:31:54.716Z</time>
      </trkpt>
      <trkpt lat="45.75664" lon="6.70956">
        <ele>1742</ele>
        <time>2026-07-29T05:31:55.716Z</time>
      </trkpt>
      <trkpt lat="45.75664" lon="6.70955">
        <ele>1742</ele>
        <time>2026-07-29T05:31:56.716Z</time>
      </trkpt>
      <trkpt lat="45.75663" lon="6.70954">
        <ele>1742</ele>
        <time>2026-07-29T05:31:57.716Z</time>
      </trkpt>
      <trkpt lat="45.75663" lon="6.70954">
        <ele>1742</ele>
        <time>2026-07-29T05:31:58.716Z</time>
      </trkpt>
      <trkpt lat="45.75663" lon="6.70953">
        <ele>1742</ele>
        <time>2026-07-29T05:31:59.716Z</time>
      </trkpt>
      <trkpt lat="45.75662" lon="6.70953">
        <ele>1742</ele>
        <time>2026-07-29T05:32:00.716Z</time>
      </trkpt>
      <trkpt lat="45.75662" lon="6.70952">
        <ele>1743</ele>
        <time>2026-07-29T05:32:01.716Z</time>
      </trkpt>
      <trkpt lat="45.75661" lon="6.70951">
        <ele>1743</ele>
        <time>2026-07-29T05:32:02.716Z</time>
      </trkpt>
      <trkpt lat="45.75661" lon="6.7095">
        <ele>1743</ele>
        <time>2026-07-29T05:32:03.716Z</time>
      </trkpt>
      <trkpt lat="45.7566" lon="6.70949">
        <ele>1743</ele>
        <time>2026-07-29T05:32:04.716Z</time>
      </trkpt>
      <trkpt lat="45.7566" lon="6.70948">
        <ele>1743</ele>
        <time>2026-07-29T05:32:05.716Z</time>
      </trkpt>
      <trkpt lat="45.7566" lon="6.70947">
        <ele>1743</ele>
        <time>2026-07-29T05:32:06.716Z</time>
      </trkpt>
      <trkpt lat="45.7566" lon="6.70946">
        <ele>1744</ele>
        <time>2026-07-29T05:32:07.716Z</time>
      </trkpt>
      <trkpt lat="45.7566" lon="6.70945">
        <ele>1744</ele>
        <time>2026-07-29T05:32:08.716Z</time>
      </trkpt>
      <trkpt lat="45.7566" lon="6.70944">
        <ele>1744</ele>
        <time>2026-07-29T05:32:09.716Z</time>
      </trkpt>
      <trkpt lat="45.75659" lon="6.70943">
        <ele>1745</ele>
        <time>2026-07-29T05:32:10.716Z</time>
      </trkpt>
      <trkpt lat="45.75659" lon="6.70943">
        <ele>1745</ele>
        <time>2026-07-29T05:32:11.716Z</time>
      </trkpt>
      <trkpt lat="45.75659" lon="6.70942">
        <ele>1745</ele>
        <time>2026-07-29T05:32:12.716Z</time>
      </trkpt>
      <trkpt lat="45.75658" lon="6.70941">
        <ele>1745</ele>
        <time>2026-07-29T05:32:13.716Z</time>
      </trkpt>
      <trkpt lat="45.75658" lon="6.70941">
        <ele>1745</ele>
        <time>2026-07-29T05:32:14.716Z</time>
      </trkpt>
      <trkpt lat="45.75657" lon="6.7094">
        <ele>1746</ele>
        <time>2026-07-29T05:32:15.716Z</time>
      </trkpt>
      <trkpt lat="45.75657" lon="6.70939">
        <ele>1746</ele>
        <time>2026-07-29T05:32:16.716Z</time>
      </trkpt>
      <trkpt lat="45.75658" lon="6.70938">
        <ele>1746</ele>
        <time>2026-07-29T05:32:17.716Z</time>
      </trkpt>
      <trkpt lat="45.75658" lon="6.70938">
        <ele>1747</ele>
        <time>2026-07-29T05:32:18.716Z</time>
      </trkpt>
      <trkpt lat="45.75658" lon="6.70937">
        <ele>1747</ele>
        <time>2026-07-29T05:32:19.716Z</time>
      </trkpt>
      <trkpt lat="45.75658" lon="6.70936">
        <ele>1748</ele>
        <time>2026-07-29T05:32:20.716Z</time>
      </trkpt>
      <trkpt lat="45.75658" lon="6.70936">
        <ele>1748</ele>
        <time>2026-07-29T05:32:21.716Z</time>
      </trkpt>
      <trkpt lat="45.75658" lon="6.70935">
        <ele>1749</ele>
        <time>2026-07-29T05:32:22.716Z</time>
      </trkpt>
      <trkpt lat="45.75657" lon="6.70934">
        <ele>1749</ele>
        <time>2026-07-29T05:32:23.716Z</time>
      </trkpt>
      <trkpt lat="45.75657" lon="6.70934">
        <ele>1749</ele>
        <time>2026-07-29T05:32:24.716Z</time>
      </trkpt>
      <trkpt lat="45.75656" lon="6.70933">
        <ele>1750</ele>
        <time>2026-07-29T05:32:25.716Z</time>
      </trkpt>
      <trkpt lat="45.75655" lon="6.70932">
        <ele>1750</ele>
        <time>2026-07-29T05:32:26.716Z</time>
      </trkpt>
      <trkpt lat="45.75655" lon="6.70932">
        <ele>1751</ele>
        <time>2026-07-29T05:32:27.716Z</time>
      </trkpt>
      <trkpt lat="45.75654" lon="6.70931">
        <ele>1751</ele>
        <time>2026-07-29T05:32:28.716Z</time>
      </trkpt>
      <trkpt lat="45.75653" lon="6.7093">
        <ele>1752</ele>
        <time>2026-07-29T05:32:29.716Z</time>
      </trkpt>
      <trkpt lat="45.75653" lon="6.70929">
        <ele>1753</ele>
        <time>2026-07-29T05:32:30.716Z</time>
      </trkpt>
      <trkpt lat="45.75652" lon="6.70928">
        <ele>1753</ele>
        <time>2026-07-29T05:32:31.716Z</time>
      </trkpt>
      <trkpt lat="45.75651" lon="6.70927">
        <ele>1754</ele>
        <time>2026-07-29T05:32:32.716Z</time>
      </trkpt>
      <trkpt lat="45.75651" lon="6.70926">
        <ele>1754</ele>
        <time>2026-07-29T05:32:33.716Z</time>
      </trkpt>
      <trkpt lat="45.7565" lon="6.70925">
        <ele>1755</ele>
        <time>2026-07-29T05:32:34.716Z</time>
      </trkpt>
      <trkpt lat="45.7565" lon="6.70924">
        <ele>1755</ele>
        <time>2026-07-29T05:32:35.716Z</time>
      </trkpt>
      <trkpt lat="45.75649" lon="6.70923">
        <ele>1755</ele>
        <time>2026-07-29T05:32:36.716Z</time>
      </trkpt>
      <trkpt lat="45.75648" lon="6.70922">
        <ele>1755</ele>
        <time>2026-07-29T05:32:37.716Z</time>
      </trkpt>
      <trkpt lat="45.75648" lon="6.70921">
        <ele>1755</ele>
        <time>2026-07-29T05:32:38.716Z</time>
      </trkpt>
      <trkpt lat="45.75647" lon="6.7092">
        <ele>1756</ele>
        <time>2026-07-29T05:32:39.716Z</time>
      </trkpt>
      <trkpt lat="45.75647" lon="6.70919">
        <ele>1756</ele>
        <time>2026-07-29T05:32:40.716Z</time>
      </trkpt>
      <trkpt lat="45.75646" lon="6.70918">
        <ele>1756</ele>
        <time>2026-07-29T05:32:41.716Z</time>
      </trkpt>
      <trkpt lat="45.75646" lon="6.70917">
        <ele>1756</ele>
        <time>2026-07-29T05:32:42.716Z</time>
      </trkpt>
      <trkpt lat="45.75645" lon="6.70917">
        <ele>1756</ele>
        <time>2026-07-29T05:32:43.716Z</time>
      </trkpt>
      <trkpt lat="45.75645" lon="6.70917">
        <ele>1757</ele>
        <time>2026-07-29T05:32:44.716Z</time>
      </trkpt>
      <trkpt lat="45.75645" lon="6.70917">
        <ele>1756</ele>
        <time>2026-07-29T05:32:45.716Z</time>
      </trkpt>
      <trkpt lat="45.75645" lon="6.70916">
        <ele>1756</ele>
        <time>2026-07-29T05:32:46.716Z</time>
      </trkpt>
      <trkpt lat="45.75645" lon="6.70917">
        <ele>1756</ele>
        <time>2026-07-29T05:32:47.716Z</time>
      </trkpt>
      <trkpt lat="45.75645" lon="6.70917">
        <ele>1756</ele>
        <time>2026-07-29T05:32:48.716Z</time>
      </trkpt>
      <trkpt lat="45.75645" lon="6.70917">
        <ele>1755</ele>
        <time>2026-07-29T05:32:49.716Z</time>
      </trkpt>
      <trkpt lat="45.75645" lon="6.70917">
        <ele>1755</ele>
        <time>2026-07-29T05:32:50.716Z</time>
      </trkpt>
      <trkpt lat="45.75645" lon="6.70917">
        <ele>1756</ele>
        <time>2026-07-29T05:32:51.716Z</time>
      </trkpt>
      <trkpt lat="45.75645" lon="6.70917">
        <ele>1756</ele>
        <time>2026-07-29T05:32:52.716Z</time>
      </trkpt>
      <trkpt lat="45.75644" lon="6.70916">
        <ele>1756</ele>
        <time>2026-07-29T05:32:53.716Z</time>
      </trkpt>
      <trkpt lat="45.75644" lon="6.70916">
        <ele>1756</ele>
        <time>2026-07-29T05:32:54.716Z</time>
      </trkpt>
      <trkpt lat="45.75644" lon="6.70915">
        <ele>1756</ele>
        <time>2026-07-29T05:32:55.716Z</time>
      </trkpt>
      <trkpt lat="45.75644" lon="6.70914">
        <ele>1756</ele>
        <time>2026-07-29T05:32:56.716Z</time>
      </trkpt>
      <trkpt lat="45.75644" lon="6.70913">
        <ele>1756</ele>
        <time>2026-07-29T05:32:57.716Z</time>
      </trkpt>
      <trkpt lat="45.75643" lon="6.70912">
        <ele>1757</ele>
        <time>2026-07-29T05:32:58.716Z</time>
      </trkpt>
      <trkpt lat="45.75643" lon="6.70911">
        <ele>1757</ele>
        <time>2026-07-29T05:32:59.716Z</time>
      </trkpt>
      <trkpt lat="45.75643" lon="6.7091">
        <ele>1757</ele>
        <time>2026-07-29T05:33:00.716Z</time>
      </trkpt>
      <trkpt lat="45.75642" lon="6.70909">
        <ele>1757</ele>
        <time>2026-07-29T05:33:01.716Z</time>
      </trkpt>
      <trkpt lat="45.75642" lon="6.70908">
        <ele>1757</ele>
        <time>2026-07-29T05:33:02.716Z</time>
      </trkpt>
      <trkpt lat="45.75642" lon="6.70907">
        <ele>1757</ele>
        <time>2026-07-29T05:33:03.716Z</time>
      </trkpt>
      <trkpt lat="45.75642" lon="6.70906">
        <ele>1757</ele>
        <time>2026-07-29T05:33:04.716Z</time>
      </trkpt>
      <trkpt lat="45.75642" lon="6.70904">
        <ele>1758</ele>
        <time>2026-07-29T05:33:05.716Z</time>
      </trkpt>
      <trkpt lat="45.75642" lon="6.70903">
        <ele>1758</ele>
        <time>2026-07-29T05:33:06.716Z</time>
      </trkpt>
      <trkpt lat="45.75642" lon="6.70902">
        <ele>1759</ele>
        <time>2026-07-29T05:33:07.716Z</time>
      </trkpt>
      <trkpt lat="45.75642" lon="6.70901">
        <ele>1760</ele>
        <time>2026-07-29T05:33:08.716Z</time>
      </trkpt>
      <trkpt lat="45.75641" lon="6.70899">
        <ele>1761</ele>
        <time>2026-07-29T05:33:09.716Z</time>
      </trkpt>
      <trkpt lat="45.75641" lon="6.70899">
        <ele>1761</ele>
        <time>2026-07-29T05:33:10.716Z</time>
      </trkpt>
      <trkpt lat="45.7564" lon="6.70898">
        <ele>1762</ele>
        <time>2026-07-29T05:33:11.716Z</time>
      </trkpt>
      <trkpt lat="45.75639" lon="6.70898">
        <ele>1762</ele>
        <time>2026-07-29T05:33:12.716Z</time>
      </trkpt>
      <trkpt lat="45.75638" lon="6.70897">
        <ele>1762</ele>
        <time>2026-07-29T05:33:13.716Z</time>
      </trkpt>
      <trkpt lat="45.75637" lon="6.70896">
        <ele>1761</ele>
        <time>2026-07-29T05:33:14.716Z</time>
      </trkpt>
      <trkpt lat="45.75637" lon="6.70895">
        <ele>1761</ele>
        <time>2026-07-29T05:33:15.716Z</time>
      </trkpt>
      <trkpt lat="45.75636" lon="6.70894">
        <ele>1761</ele>
        <time>2026-07-29T05:33:16.716Z</time>
      </trkpt>
      <trkpt lat="45.75636" lon="6.70893">
        <ele>1761</ele>
        <time>2026-07-29T05:33:17.716Z</time>
      </trkpt>
      <trkpt lat="45.75636" lon="6.70892">
        <ele>1762</ele>
        <time>2026-07-29T05:33:18.716Z</time>
      </trkpt>
      <trkpt lat="45.75635" lon="6.70892">
        <ele>1762</ele>
        <time>2026-07-29T05:33:19.716Z</time>
      </trkpt>
      <trkpt lat="45.75635" lon="6.70892">
        <ele>1762</ele>
        <time>2026-07-29T05:33:20.716Z</time>
      </trkpt>
      <trkpt lat="45.75634" lon="6.70892">
        <ele>1763</ele>
        <time>2026-07-29T05:33:21.716Z</time>
      </trkpt>
      <trkpt lat="45.75634" lon="6.70892">
        <ele>1763</ele>
        <time>2026-07-29T05:33:22.716Z</time>
      </trkpt>
      <trkpt lat="45.75633" lon="6.70891">
        <ele>1763</ele>
        <time>2026-07-29T05:33:23.716Z</time>
      </trkpt>
      <trkpt lat="45.75633" lon="6.70891">
        <ele>1763</ele>
        <time>2026-07-29T05:33:24.716Z</time>
      </trkpt>
      <trkpt lat="45.75632" lon="6.7089">
        <ele>1763</ele>
        <time>2026-07-29T05:33:25.716Z</time>
      </trkpt>
      <trkpt lat="45.75632" lon="6.7089">
        <ele>1763</ele>
        <time>2026-07-29T05:33:26.716Z</time>
      </trkpt>
      <trkpt lat="45.75631" lon="6.70889">
        <ele>1763</ele>
        <time>2026-07-29T05:33:27.716Z</time>
      </trkpt>
      <trkpt lat="45.7563" lon="6.70887">
        <ele>1763</ele>
        <time>2026-07-29T05:33:28.716Z</time>
      </trkpt>
      <trkpt lat="45.7563" lon="6.70885">
        <ele>1763</ele>
        <time>2026-07-29T05:33:29.716Z</time>
      </trkpt>
      <trkpt lat="45.75629" lon="6.70884">
        <ele>1763</ele>
        <time>2026-07-29T05:33:30.716Z</time>
      </trkpt>
      <trkpt lat="45.75629" lon="6.70882">
        <ele>1763</ele>
        <time>2026-07-29T05:33:31.716Z</time>
      </trkpt>
      <trkpt lat="45.75628" lon="6.70881">
        <ele>1763</ele>
        <time>2026-07-29T05:33:32.716Z</time>
      </trkpt>
      <trkpt lat="45.75627" lon="6.7088">
        <ele>1764</ele>
        <time>2026-07-29T05:33:33.716Z</time>
      </trkpt>
      <trkpt lat="45.75626" lon="6.70878">
        <ele>1764</ele>
        <time>2026-07-29T05:33:34.716Z</time>
      </trkpt>
      <trkpt lat="45.75626" lon="6.70877">
        <ele>1764</ele>
        <time>2026-07-29T05:33:35.716Z</time>
      </trkpt>
      <trkpt lat="45.75625" lon="6.70875">
        <ele>1764</ele>
        <time>2026-07-29T05:33:36.716Z</time>
      </trkpt>
      <trkpt lat="45.75625" lon="6.70872">
        <ele>1764</ele>
        <time>2026-07-29T05:33:37.716Z</time>
      </trkpt>
      <trkpt lat="45.75624" lon="6.70871">
        <ele>1764</ele>
        <time>2026-07-29T05:33:38.716Z</time>
      </trkpt>
      <trkpt lat="45.75623" lon="6.7087">
        <ele>1764</ele>
        <time>2026-07-29T05:33:39.716Z</time>
      </trkpt>
      <trkpt lat="45.75621" lon="6.70869">
        <ele>1764</ele>
        <time>2026-07-29T05:33:40.716Z</time>
      </trkpt>
      <trkpt lat="45.7562" lon="6.70868">
        <ele>1764</ele>
        <time>2026-07-29T05:33:41.716Z</time>
      </trkpt>
      <trkpt lat="45.75619" lon="6.70867">
        <ele>1765</ele>
        <time>2026-07-29T05:33:42.716Z</time>
      </trkpt>
      <trkpt lat="45.75619" lon="6.70865">
        <ele>1765</ele>
        <time>2026-07-29T05:33:43.716Z</time>
      </trkpt>
      <trkpt lat="45.75618" lon="6.70864">
        <ele>1765</ele>
        <time>2026-07-29T05:33:44.716Z</time>
      </trkpt>
      <trkpt lat="45.75617" lon="6.70863">
        <ele>1765</ele>
        <time>2026-07-29T05:33:45.716Z</time>
      </trkpt>
      <trkpt lat="45.75616" lon="6.70862">
        <ele>1765</ele>
        <time>2026-07-29T05:33:46.716Z</time>
      </trkpt>
      <trkpt lat="45.75615" lon="6.70861">
        <ele>1766</ele>
        <time>2026-07-29T05:33:47.716Z</time>
      </trkpt>
      <trkpt lat="45.75614" lon="6.70859">
        <ele>1766</ele>
        <time>2026-07-29T05:33:48.716Z</time>
      </trkpt>
      <trkpt lat="45.75612" lon="6.70858">
        <ele>1767</ele>
        <time>2026-07-29T05:33:49.716Z</time>
      </trkpt>
      <trkpt lat="45.75611" lon="6.70857">
        <ele>1767</ele>
        <time>2026-07-29T05:33:50.716Z</time>
      </trkpt>
      <trkpt lat="45.7561" lon="6.70856">
        <ele>1767</ele>
        <time>2026-07-29T05:33:51.716Z</time>
      </trkpt>
      <trkpt lat="45.75609" lon="6.70855">
        <ele>1767</ele>
        <time>2026-07-29T05:33:52.716Z</time>
      </trkpt>
      <trkpt lat="45.75608" lon="6.70853">
        <ele>1768</ele>
        <time>2026-07-29T05:33:53.716Z</time>
      </trkpt>
      <trkpt lat="45.75606" lon="6.70852">
        <ele>1768</ele>
        <time>2026-07-29T05:33:54.716Z</time>
      </trkpt>
      <trkpt lat="45.75605" lon="6.70851">
        <ele>1768</ele>
        <time>2026-07-29T05:33:55.716Z</time>
      </trkpt>
      <trkpt lat="45.75604" lon="6.7085">
        <ele>1768</ele>
        <time>2026-07-29T05:33:56.716Z</time>
      </trkpt>
      <trkpt lat="45.75603" lon="6.70849">
        <ele>1768</ele>
        <time>2026-07-29T05:33:57.716Z</time>
      </trkpt>
      <trkpt lat="45.75602" lon="6.70847">
        <ele>1768</ele>
        <time>2026-07-29T05:33:58.716Z</time>
      </trkpt>
      <trkpt lat="45.75601" lon="6.70846">
        <ele>1768</ele>
        <time>2026-07-29T05:33:59.716Z</time>
      </trkpt>
      <trkpt lat="45.756" lon="6.70845">
        <ele>1768</ele>
        <time>2026-07-29T05:34:00.716Z</time>
      </trkpt>
      <trkpt lat="45.75599" lon="6.70843">
        <ele>1768</ele>
        <time>2026-07-29T05:34:01.716Z</time>
      </trkpt>
      <trkpt lat="45.75598" lon="6.70842">
        <ele>1768</ele>
        <time>2026-07-29T05:34:02.716Z</time>
      </trkpt>
      <trkpt lat="45.75597" lon="6.70841">
        <ele>1768</ele>
        <time>2026-07-29T05:34:03.716Z</time>
      </trkpt>
      <trkpt lat="45.75596" lon="6.70839">
        <ele>1768</ele>
        <time>2026-07-29T05:34:04.716Z</time>
      </trkpt>
      <trkpt lat="45.75595" lon="6.70838">
        <ele>1768</ele>
        <time>2026-07-29T05:34:05.716Z</time>
      </trkpt>
      <trkpt lat="45.75594" lon="6.70836">
        <ele>1768</ele>
        <time>2026-07-29T05:34:06.716Z</time>
      </trkpt>
      <trkpt lat="45.75592" lon="6.70835">
        <ele>1769</ele>
        <time>2026-07-29T05:34:07.716Z</time>
      </trkpt>
      <trkpt lat="45.75591" lon="6.70833">
        <ele>1769</ele>
        <time>2026-07-29T05:34:08.716Z</time>
      </trkpt>
      <trkpt lat="45.75589" lon="6.70832">
        <ele>1769</ele>
        <time>2026-07-29T05:34:09.716Z</time>
      </trkpt>
      <trkpt lat="45.75588" lon="6.70831">
        <ele>1770</ele>
        <time>2026-07-29T05:34:10.716Z</time>
      </trkpt>
      <trkpt lat="45.75587" lon="6.7083">
        <ele>1769</ele>
        <time>2026-07-29T05:34:11.716Z</time>
      </trkpt>
      <trkpt lat="45.75585" lon="6.70828">
        <ele>1769</ele>
        <time>2026-07-29T05:34:12.716Z</time>
      </trkpt>
      <trkpt lat="45.75584" lon="6.70827">
        <ele>1769</ele>
        <time>2026-07-29T05:34:13.716Z</time>
      </trkpt>
      <trkpt lat="45.75582" lon="6.70826">
        <ele>1769</ele>
        <time>2026-07-29T05:34:14.716Z</time>
      </trkpt>
      <trkpt lat="45.75581" lon="6.70825">
        <ele>1770</ele>
        <time>2026-07-29T05:34:15.716Z</time>
      </trkpt>
      <trkpt lat="45.75579" lon="6.70823">
        <ele>1770</ele>
        <time>2026-07-29T05:34:16.716Z</time>
      </trkpt>
      <trkpt lat="45.75578" lon="6.70822">
        <ele>1770</ele>
        <time>2026-07-29T05:34:17.716Z</time>
      </trkpt>
      <trkpt lat="45.75576" lon="6.70821">
        <ele>1770</ele>
        <time>2026-07-29T05:34:18.716Z</time>
      </trkpt>
      <trkpt lat="45.75575" lon="6.7082">
        <ele>1770</ele>
        <time>2026-07-29T05:34:19.716Z</time>
      </trkpt>
      <trkpt lat="45.75573" lon="6.70819">
        <ele>1771</ele>
        <time>2026-07-29T05:34:20.716Z</time>
      </trkpt>
      <trkpt lat="45.75572" lon="6.70818">
        <ele>1771</ele>
        <time>2026-07-29T05:34:21.716Z</time>
      </trkpt>
      <trkpt lat="45.75571" lon="6.70816">
        <ele>1770</ele>
        <time>2026-07-29T05:34:22.716Z</time>
      </trkpt>
      <trkpt lat="45.75569" lon="6.70815">
        <ele>1770</ele>
        <time>2026-07-29T05:34:23.716Z</time>
      </trkpt>
      <trkpt lat="45.75568" lon="6.70814">
        <ele>1770</ele>
        <time>2026-07-29T05:34:24.716Z</time>
      </trkpt>
      <trkpt lat="45.75567" lon="6.70813">
        <ele>1770</ele>
        <time>2026-07-29T05:34:25.716Z</time>
      </trkpt>
      <trkpt lat="45.75565" lon="6.70811">
        <ele>1770</ele>
        <time>2026-07-29T05:34:26.716Z</time>
      </trkpt>
      <trkpt lat="45.75564" lon="6.7081">
        <ele>1770</ele>
        <time>2026-07-29T05:34:27.716Z</time>
      </trkpt>
      <trkpt lat="45.75562" lon="6.70809">
        <ele>1770</ele>
        <time>2026-07-29T05:34:28.716Z</time>
      </trkpt>
      <trkpt lat="45.75561" lon="6.70808">
        <ele>1770</ele>
        <time>2026-07-29T05:34:29.716Z</time>
      </trkpt>
      <trkpt lat="45.7556" lon="6.70807">
        <ele>1771</ele>
        <time>2026-07-29T05:34:30.716Z</time>
      </trkpt>
      <trkpt lat="45.75559" lon="6.70806">
        <ele>1771</ele>
        <time>2026-07-29T05:34:31.716Z</time>
      </trkpt>
      <trkpt lat="45.75558" lon="6.70806">
        <ele>1771</ele>
        <time>2026-07-29T05:34:32.716Z</time>
      </trkpt>
      <trkpt lat="45.75557" lon="6.70806">
        <ele>1772</ele>
        <time>2026-07-29T05:34:33.716Z</time>
      </trkpt>
      <trkpt lat="45.75556" lon="6.70806">
        <ele>1772</ele>
        <time>2026-07-29T05:34:34.716Z</time>
      </trkpt>
      <trkpt lat="45.75556" lon="6.70807">
        <ele>1772</ele>
        <time>2026-07-29T05:34:35.716Z</time>
      </trkpt>
      <trkpt lat="45.75555" lon="6.70808">
        <ele>1772</ele>
        <time>2026-07-29T05:34:36.716Z</time>
      </trkpt>
      <trkpt lat="45.75554" lon="6.70809">
        <ele>1772</ele>
        <time>2026-07-29T05:34:37.716Z</time>
      </trkpt>
      <trkpt lat="45.75553" lon="6.7081">
        <ele>1772</ele>
        <time>2026-07-29T05:34:38.716Z</time>
      </trkpt>
      <trkpt lat="45.75552" lon="6.70811">
        <ele>1772</ele>
        <time>2026-07-29T05:34:39.716Z</time>
      </trkpt>
      <trkpt lat="45.75552" lon="6.70812">
        <ele>1772</ele>
        <time>2026-07-29T05:34:40.716Z</time>
      </trkpt>
      <trkpt lat="45.75551" lon="6.70812">
        <ele>1772</ele>
        <time>2026-07-29T05:34:41.716Z</time>
      </trkpt>
      <trkpt lat="45.7555" lon="6.70813">
        <ele>1772</ele>
        <time>2026-07-29T05:34:42.716Z</time>
      </trkpt>
      <trkpt lat="45.7555" lon="6.70814">
        <ele>1772</ele>
        <time>2026-07-29T05:34:43.716Z</time>
      </trkpt>
      <trkpt lat="45.75549" lon="6.70814">
        <ele>1773</ele>
        <time>2026-07-29T05:34:44.716Z</time>
      </trkpt>
      <trkpt lat="45.75549" lon="6.70814">
        <ele>1773</ele>
        <time>2026-07-29T05:34:45.716Z</time>
      </trkpt>
      <trkpt lat="45.75549" lon="6.70814">
        <ele>1773</ele>
        <time>2026-07-29T05:34:46.716Z</time>
      </trkpt>
      <trkpt lat="45.75549" lon="6.70814">
        <ele>1773</ele>
        <time>2026-07-29T05:34:47.716Z</time>
      </trkpt>
      <trkpt lat="45.75549" lon="6.70813">
        <ele>1772</ele>
        <time>2026-07-29T05:34:48.716Z</time>
      </trkpt>
      <trkpt lat="45.75549" lon="6.70813">
        <ele>1772</ele>
        <time>2026-07-29T05:34:49.716Z</time>
      </trkpt>
      <trkpt lat="45.75549" lon="6.70813">
        <ele>1772</ele>
        <time>2026-07-29T05:34:50.716Z</time>
      </trkpt>
      <trkpt lat="45.75549" lon="6.70813">
        <ele>1772</ele>
        <time>2026-07-29T05:34:51.716Z</time>
      </trkpt>
      <trkpt lat="45.7555" lon="6.70813">
        <ele>1773</ele>
        <time>2026-07-29T05:34:52.716Z</time>
      </trkpt>
      <trkpt lat="45.7555" lon="6.70813">
        <ele>1773</ele>
        <time>2026-07-29T05:34:53.716Z</time>
      </trkpt>
      <trkpt lat="45.75551" lon="6.70813">
        <ele>1773</ele>
        <time>2026-07-29T05:34:54.716Z</time>
      </trkpt>
      <trkpt lat="45.75551" lon="6.70813">
        <ele>1773</ele>
        <time>2026-07-29T05:34:55.716Z</time>
      </trkpt>
      <trkpt lat="45.75551" lon="6.70813">
        <ele>1773</ele>
        <time>2026-07-29T05:34:56.716Z</time>
      </trkpt>
      <trkpt lat="45.75551" lon="6.70813">
        <ele>1773</ele>
        <time>2026-07-29T05:34:57.716Z</time>
      </trkpt>
      <trkpt lat="45.75551" lon="6.70813">
        <ele>1773</ele>
        <time>2026-07-29T05:34:58.716Z</time>
      </trkpt>
      <trkpt lat="45.75551" lon="6.70813">
        <ele>1773</ele>
        <time>2026-07-29T05:34:59.716Z</time>
      </trkpt>
      <trkpt lat="45.75551" lon="6.70813">
        <ele>1774</ele>
        <time>2026-07-29T05:35:00.716Z</time>
      </trkpt>
      <trkpt lat="45.75551" lon="6.70813">
        <ele>1774</ele>
        <time>2026-07-29T05:35:01.716Z</time>
      </trkpt>
      <trkpt lat="45.75551" lon="6.70813">
        <ele>1774</ele>
        <time>2026-07-29T05:35:02.716Z</time>
      </trkpt>
      <trkpt lat="45.75551" lon="6.70813">
        <ele>1774</ele>
        <time>2026-07-29T05:35:03.716Z</time>
      </trkpt>
      <trkpt lat="45.75551" lon="6.70813">
        <ele>1774</ele>
        <time>2026-07-29T05:35:04.716Z</time>
      </trkpt>
      <trkpt lat="45.75551" lon="6.70813">
        <ele>1774</ele>
        <time>2026-07-29T05:35:05.716Z</time>
      </trkpt>
      <trkpt lat="45.75551" lon="6.70813">
        <ele>1774</ele>
        <time>2026-07-29T05:35:06.716Z</time>
      </trkpt>
      <trkpt lat="45.7555" lon="6.70813">
        <ele>1774</ele>
        <time>2026-07-29T05:35:07.716Z</time>
      </trkpt>
      <trkpt lat="45.75549" lon="6.70815">
        <ele>1774</ele>
        <time>2026-07-29T05:35:08.716Z</time>
      </trkpt>
      <trkpt lat="45.75548" lon="6.70816">
        <ele>1775</ele>
        <time>2026-07-29T05:35:09.716Z</time>
      </trkpt>
      <trkpt lat="45.75547" lon="6.70816">
        <ele>1775</ele>
        <time>2026-07-29T05:35:10.716Z</time>
      </trkpt>
      <trkpt lat="45.75546" lon="6.70818">
        <ele>1775</ele>
        <time>2026-07-29T05:35:11.716Z</time>
      </trkpt>
      <trkpt lat="45.75545" lon="6.70819">
        <ele>1776</ele>
        <time>2026-07-29T05:35:12.716Z</time>
      </trkpt>
      <trkpt lat="45.75544" lon="6.7082">
        <ele>1776</ele>
        <time>2026-07-29T05:35:13.716Z</time>
      </trkpt>
      <trkpt lat="45.75542" lon="6.70821">
        <ele>1776</ele>
        <time>2026-07-29T05:35:14.716Z</time>
      </trkpt>
      <trkpt lat="45.75541" lon="6.70822">
        <ele>1776</ele>
        <time>2026-07-29T05:35:15.716Z</time>
      </trkpt>
      <trkpt lat="45.75539" lon="6.70823">
        <ele>1776</ele>
        <time>2026-07-29T05:35:16.716Z</time>
      </trkpt>
      <trkpt lat="45.75538" lon="6.70822">
        <ele>1776</ele>
        <time>2026-07-29T05:35:17.716Z</time>
      </trkpt>
      <trkpt lat="45.75537" lon="6.70822">
        <ele>1776</ele>
        <time>2026-07-29T05:35:18.716Z</time>
      </trkpt>
      <trkpt lat="45.75537" lon="6.70821">
        <ele>1776</ele>
        <time>2026-07-29T05:35:19.716Z</time>
      </trkpt>
      <trkpt lat="45.75536" lon="6.70821">
        <ele>1776</ele>
        <time>2026-07-29T05:35:20.716Z</time>
      </trkpt>
      <trkpt lat="45.75536" lon="6.7082">
        <ele>1776</ele>
        <time>2026-07-29T05:35:21.716Z</time>
      </trkpt>
      <trkpt lat="45.75535" lon="6.70819">
        <ele>1777</ele>
        <time>2026-07-29T05:35:22.716Z</time>
      </trkpt>
      <trkpt lat="45.75534" lon="6.70819">
        <ele>1777</ele>
        <time>2026-07-29T05:35:23.716Z</time>
      </trkpt>
      <trkpt lat="45.75533" lon="6.70818">
        <ele>1777</ele>
        <time>2026-07-29T05:35:24.716Z</time>
      </trkpt>
      <trkpt lat="45.75532" lon="6.70818">
        <ele>1777</ele>
        <time>2026-07-29T05:35:25.716Z</time>
      </trkpt>
      <trkpt lat="45.75531" lon="6.70817">
        <ele>1778</ele>
        <time>2026-07-29T05:35:26.716Z</time>
      </trkpt>
      <trkpt lat="45.7553" lon="6.70817">
        <ele>1778</ele>
        <time>2026-07-29T05:35:27.716Z</time>
      </trkpt>
      <trkpt lat="45.75529" lon="6.70817">
        <ele>1778</ele>
        <time>2026-07-29T05:35:28.716Z</time>
      </trkpt>
      <trkpt lat="45.75528" lon="6.70816">
        <ele>1778</ele>
        <time>2026-07-29T05:35:29.716Z</time>
      </trkpt>
      <trkpt lat="45.75528" lon="6.70816">
        <ele>1778</ele>
        <time>2026-07-29T05:35:30.716Z</time>
      </trkpt>
      <trkpt lat="45.75527" lon="6.70816">
        <ele>1778</ele>
        <time>2026-07-29T05:35:31.716Z</time>
      </trkpt>
      <trkpt lat="45.75526" lon="6.70816">
        <ele>1779</ele>
        <time>2026-07-29T05:35:32.716Z</time>
      </trkpt>
      <trkpt lat="45.75525" lon="6.70816">
        <ele>1779</ele>
        <time>2026-07-29T05:35:33.716Z</time>
      </trkpt>
      <trkpt lat="45.75524" lon="6.70816">
        <ele>1780</ele>
        <time>2026-07-29T05:35:34.716Z</time>
      </trkpt>
      <trkpt lat="45.75523" lon="6.70816">
        <ele>1780</ele>
        <time>2026-07-29T05:35:35.716Z</time>
      </trkpt>
      <trkpt lat="45.75522" lon="6.70816">
        <ele>1780</ele>
        <time>2026-07-29T05:35:36.716Z</time>
      </trkpt>
      <trkpt lat="45.75521" lon="6.70816">
        <ele>1781</ele>
        <time>2026-07-29T05:35:37.716Z</time>
      </trkpt>
      <trkpt lat="45.7552" lon="6.70815">
        <ele>1781</ele>
        <time>2026-07-29T05:35:38.716Z</time>
      </trkpt>
      <trkpt lat="45.75519" lon="6.70815">
        <ele>1781</ele>
        <time>2026-07-29T05:35:39.716Z</time>
      </trkpt>
      <trkpt lat="45.75518" lon="6.70814">
        <ele>1781</ele>
        <time>2026-07-29T05:35:40.716Z</time>
      </trkpt>
      <trkpt lat="45.75517" lon="6.70813">
        <ele>1782</ele>
        <time>2026-07-29T05:35:41.716Z</time>
      </trkpt>
      <trkpt lat="45.75516" lon="6.70812">
        <ele>1782</ele>
        <time>2026-07-29T05:35:42.716Z</time>
      </trkpt>
      <trkpt lat="45.75515" lon="6.7081">
        <ele>1782</ele>
        <time>2026-07-29T05:35:43.716Z</time>
      </trkpt>
      <trkpt lat="45.75514" lon="6.70809">
        <ele>1783</ele>
        <time>2026-07-29T05:35:44.716Z</time>
      </trkpt>
      <trkpt lat="45.75513" lon="6.70808">
        <ele>1783</ele>
        <time>2026-07-29T05:35:45.716Z</time>
      </trkpt>
      <trkpt lat="45.75512" lon="6.70807">
        <ele>1783</ele>
        <time>2026-07-29T05:35:46.716Z</time>
      </trkpt>
      <trkpt lat="45.75511" lon="6.70806">
        <ele>1784</ele>
        <time>2026-07-29T05:35:47.716Z</time>
      </trkpt>
      <trkpt lat="45.7551" lon="6.70806">
        <ele>1784</ele>
        <time>2026-07-29T05:35:48.716Z</time>
      </trkpt>
      <trkpt lat="45.75509" lon="6.70805">
        <ele>1784</ele>
        <time>2026-07-29T05:35:49.716Z</time>
      </trkpt>
      <trkpt lat="45.75509" lon="6.70805">
        <ele>1784</ele>
        <time>2026-07-29T05:35:50.716Z</time>
      </trkpt>
      <trkpt lat="45.75508" lon="6.70805">
        <ele>1784</ele>
        <time>2026-07-29T05:35:51.716Z</time>
      </trkpt>
      <trkpt lat="45.75506" lon="6.70804">
        <ele>1784</ele>
        <time>2026-07-29T05:35:52.716Z</time>
      </trkpt>
      <trkpt lat="45.75505" lon="6.70803">
        <ele>1784</ele>
        <time>2026-07-29T05:35:53.716Z</time>
      </trkpt>
      <trkpt lat="45.75504" lon="6.70802">
        <ele>1785</ele>
        <time>2026-07-29T05:35:54.716Z</time>
      </trkpt>
      <trkpt lat="45.75503" lon="6.70802">
        <ele>1785</ele>
        <time>2026-07-29T05:35:55.716Z</time>
      </trkpt>
      <trkpt lat="45.75502" lon="6.70802">
        <ele>1785</ele>
        <time>2026-07-29T05:35:56.716Z</time>
      </trkpt>
      <trkpt lat="45.75501" lon="6.70802">
        <ele>1785</ele>
        <time>2026-07-29T05:35:57.716Z</time>
      </trkpt>
      <trkpt lat="45.755" lon="6.70803">
        <ele>1785</ele>
        <time>2026-07-29T05:35:58.716Z</time>
      </trkpt>
      <trkpt lat="45.75499" lon="6.70804">
        <ele>1785</ele>
        <time>2026-07-29T05:35:59.716Z</time>
      </trkpt>
      <trkpt lat="45.75498" lon="6.70804">
        <ele>1785</ele>
        <time>2026-07-29T05:36:00.716Z</time>
      </trkpt>
      <trkpt lat="45.75497" lon="6.70805">
        <ele>1785</ele>
        <time>2026-07-29T05:36:01.716Z</time>
      </trkpt>
      <trkpt lat="45.75495" lon="6.70806">
        <ele>1785</ele>
        <time>2026-07-29T05:36:02.716Z</time>
      </trkpt>
      <trkpt lat="45.75494" lon="6.70807">
        <ele>1785</ele>
        <time>2026-07-29T05:36:03.716Z</time>
      </trkpt>
      <trkpt lat="45.75492" lon="6.70807">
        <ele>1785</ele>
        <time>2026-07-29T05:36:04.716Z</time>
      </trkpt>
      <trkpt lat="45.75491" lon="6.70808">
        <ele>1786</ele>
        <time>2026-07-29T05:36:05.716Z</time>
      </trkpt>
      <trkpt lat="45.75489" lon="6.7081">
        <ele>1786</ele>
        <time>2026-07-29T05:36:06.716Z</time>
      </trkpt>
      <trkpt lat="45.75488" lon="6.70812">
        <ele>1786</ele>
        <time>2026-07-29T05:36:07.716Z</time>
      </trkpt>
      <trkpt lat="45.75487" lon="6.70814">
        <ele>1786</ele>
        <time>2026-07-29T05:36:08.716Z</time>
      </trkpt>
      <trkpt lat="45.75485" lon="6.70815">
        <ele>1786</ele>
        <time>2026-07-29T05:36:09.716Z</time>
      </trkpt>
      <trkpt lat="45.75485" lon="6.70815">
        <ele>1786</ele>
        <time>2026-07-29T05:36:10.716Z</time>
      </trkpt>
      <trkpt lat="45.75484" lon="6.70816">
        <ele>1787</ele>
        <time>2026-07-29T05:36:11.716Z</time>
      </trkpt>
      <trkpt lat="45.75483" lon="6.70816">
        <ele>1787</ele>
        <time>2026-07-29T05:36:12.716Z</time>
      </trkpt>
      <trkpt lat="45.75483" lon="6.70816">
        <ele>1787</ele>
        <time>2026-07-29T05:36:13.716Z</time>
      </trkpt>
      <trkpt lat="45.75482" lon="6.70817">
        <ele>1787</ele>
        <time>2026-07-29T05:36:14.716Z</time>
      </trkpt>
      <trkpt lat="45.75482" lon="6.70817">
        <ele>1787</ele>
        <time>2026-07-29T05:36:15.716Z</time>
      </trkpt>
      <trkpt lat="45.75481" lon="6.70818">
        <ele>1787</ele>
        <time>2026-07-29T05:36:16.716Z</time>
      </trkpt>
      <trkpt lat="45.7548" lon="6.70818">
        <ele>1787</ele>
        <time>2026-07-29T05:36:17.716Z</time>
      </trkpt>
      <trkpt lat="45.75479" lon="6.70819">
        <ele>1787</ele>
        <time>2026-07-29T05:36:18.716Z</time>
      </trkpt>
      <trkpt lat="45.75478" lon="6.7082">
        <ele>1788</ele>
        <time>2026-07-29T05:36:19.716Z</time>
      </trkpt>
      <trkpt lat="45.75477" lon="6.70822">
        <ele>1788</ele>
        <time>2026-07-29T05:36:20.716Z</time>
      </trkpt>
      <trkpt lat="45.75475" lon="6.70823">
        <ele>1788</ele>
        <time>2026-07-29T05:36:21.716Z</time>
      </trkpt>
      <trkpt lat="45.75474" lon="6.70824">
        <ele>1788</ele>
        <time>2026-07-29T05:36:22.716Z</time>
      </trkpt>
      <trkpt lat="45.75472" lon="6.70825">
        <ele>1788</ele>
        <time>2026-07-29T05:36:23.716Z</time>
      </trkpt>
      <trkpt lat="45.7547" lon="6.70827">
        <ele>1788</ele>
        <time>2026-07-29T05:36:24.716Z</time>
      </trkpt>
      <trkpt lat="45.75467" lon="6.70828">
        <ele>1788</ele>
        <time>2026-07-29T05:36:25.716Z</time>
      </trkpt>
      <trkpt lat="45.75465" lon="6.70829">
        <ele>1788</ele>
        <time>2026-07-29T05:36:26.716Z</time>
      </trkpt>
      <trkpt lat="45.75463" lon="6.70831">
        <ele>1788</ele>
        <time>2026-07-29T05:36:27.716Z</time>
      </trkpt>
      <trkpt lat="45.75461" lon="6.70833">
        <ele>1788</ele>
        <time>2026-07-29T05:36:28.716Z</time>
      </trkpt>
      <trkpt lat="45.7546" lon="6.70835">
        <ele>1787</ele>
        <time>2026-07-29T05:36:29.716Z</time>
      </trkpt>
      <trkpt lat="45.75458" lon="6.70837">
        <ele>1787</ele>
        <time>2026-07-29T05:36:30.716Z</time>
      </trkpt>
      <trkpt lat="45.75457" lon="6.70839">
        <ele>1787</ele>
        <time>2026-07-29T05:36:31.716Z</time>
      </trkpt>
      <trkpt lat="45.75456" lon="6.70841">
        <ele>1787</ele>
        <time>2026-07-29T05:36:32.716Z</time>
      </trkpt>
      <trkpt lat="45.75455" lon="6.70844">
        <ele>1787</ele>
        <time>2026-07-29T05:36:33.716Z</time>
      </trkpt>
      <trkpt lat="45.75453" lon="6.70846">
        <ele>1787</ele>
        <time>2026-07-29T05:36:34.716Z</time>
      </trkpt>
      <trkpt lat="45.75452" lon="6.70849">
        <ele>1787</ele>
        <time>2026-07-29T05:36:35.716Z</time>
      </trkpt>
      <trkpt lat="45.75451" lon="6.70851">
        <ele>1788</ele>
        <time>2026-07-29T05:36:36.716Z</time>
      </trkpt>
      <trkpt lat="45.7545" lon="6.70854">
        <ele>1788</ele>
        <time>2026-07-29T05:36:37.716Z</time>
      </trkpt>
      <trkpt lat="45.75448" lon="6.70856">
        <ele>1787</ele>
        <time>2026-07-29T05:36:38.716Z</time>
      </trkpt>
      <trkpt lat="45.75447" lon="6.70857">
        <ele>1787</ele>
        <time>2026-07-29T05:36:39.716Z</time>
      </trkpt>
      <trkpt lat="45.75445" lon="6.70859">
        <ele>1786</ele>
        <time>2026-07-29T05:36:40.716Z</time>
      </trkpt>
      <trkpt lat="45.75445" lon="6.7086">
        <ele>1786</ele>
        <time>2026-07-29T05:36:41.716Z</time>
      </trkpt>
      <trkpt lat="45.75444" lon="6.70861">
        <ele>1786</ele>
        <time>2026-07-29T05:36:42.716Z</time>
      </trkpt>
      <trkpt lat="45.75443" lon="6.70862">
        <ele>1786</ele>
        <time>2026-07-29T05:36:43.716Z</time>
      </trkpt>
      <trkpt lat="45.75443" lon="6.70862">
        <ele>1786</ele>
        <time>2026-07-29T05:36:44.716Z</time>
      </trkpt>
      <trkpt lat="45.75442" lon="6.70864">
        <ele>1787</ele>
        <time>2026-07-29T05:36:45.716Z</time>
      </trkpt>
      <trkpt lat="45.75441" lon="6.70864">
        <ele>1787</ele>
        <time>2026-07-29T05:36:46.717Z</time>
      </trkpt>
      <trkpt lat="45.7544" lon="6.70865">
        <ele>1787</ele>
        <time>2026-07-29T05:36:47.716Z</time>
      </trkpt>
      <trkpt lat="45.7544" lon="6.70866">
        <ele>1787</ele>
        <time>2026-07-29T05:36:48.716Z</time>
      </trkpt>
      <trkpt lat="45.7544" lon="6.70867">
        <ele>1788</ele>
        <time>2026-07-29T05:36:49.716Z</time>
      </trkpt>
      <trkpt lat="45.75439" lon="6.70868">
        <ele>1788</ele>
        <time>2026-07-29T05:36:50.716Z</time>
      </trkpt>
      <trkpt lat="45.75439" lon="6.70868">
        <ele>1788</ele>
        <time>2026-07-29T05:36:51.716Z</time>
      </trkpt>
      <trkpt lat="45.75438" lon="6.70869">
        <ele>1789</ele>
        <time>2026-07-29T05:36:52.716Z</time>
      </trkpt>
      <trkpt lat="45.75437" lon="6.70869">
        <ele>1789</ele>
        <time>2026-07-29T05:36:53.716Z</time>
      </trkpt>
      <trkpt lat="45.75437" lon="6.70869">
        <ele>1790</ele>
        <time>2026-07-29T05:36:54.716Z</time>
      </trkpt>
      <trkpt lat="45.75436" lon="6.70869">
        <ele>1790</ele>
        <time>2026-07-29T05:36:55.716Z</time>
      </trkpt>
      <trkpt lat="45.75435" lon="6.70869">
        <ele>1790</ele>
        <time>2026-07-29T05:36:56.716Z</time>
      </trkpt>
      <trkpt lat="45.75435" lon="6.7087">
        <ele>1790</ele>
        <time>2026-07-29T05:36:57.716Z</time>
      </trkpt>
      <trkpt lat="45.75434" lon="6.7087">
        <ele>1791</ele>
        <time>2026-07-29T05:36:58.716Z</time>
      </trkpt>
      <trkpt lat="45.75433" lon="6.70871">
        <ele>1791</ele>
        <time>2026-07-29T05:36:59.716Z</time>
      </trkpt>
      <trkpt lat="45.75432" lon="6.70871">
        <ele>1792</ele>
        <time>2026-07-29T05:37:00.716Z</time>
      </trkpt>
      <trkpt lat="45.75432" lon="6.70872">
        <ele>1792</ele>
        <time>2026-07-29T05:37:01.716Z</time>
      </trkpt>
      <trkpt lat="45.75431" lon="6.70872">
        <ele>1792</ele>
        <time>2026-07-29T05:37:02.716Z</time>
      </trkpt>
      <trkpt lat="45.7543" lon="6.70872">
        <ele>1792</ele>
        <time>2026-07-29T05:37:03.716Z</time>
      </trkpt>
      <trkpt lat="45.75429" lon="6.70872">
        <ele>1792</ele>
        <time>2026-07-29T05:37:04.716Z</time>
      </trkpt>
      <trkpt lat="45.75429" lon="6.70872">
        <ele>1792</ele>
        <time>2026-07-29T05:37:05.716Z</time>
      </trkpt>
      <trkpt lat="45.75428" lon="6.70872">
        <ele>1792</ele>
        <time>2026-07-29T05:37:06.716Z</time>
      </trkpt>
      <trkpt lat="45.75428" lon="6.70873">
        <ele>1792</ele>
        <time>2026-07-29T05:37:07.716Z</time>
      </trkpt>
      <trkpt lat="45.75427" lon="6.70873">
        <ele>1792</ele>
        <time>2026-07-29T05:37:08.716Z</time>
      </trkpt>
      <trkpt lat="45.75427" lon="6.70874">
        <ele>1793</ele>
        <time>2026-07-29T05:37:09.716Z</time>
      </trkpt>
      <trkpt lat="45.75426" lon="6.70875">
        <ele>1793</ele>
        <time>2026-07-29T05:37:10.716Z</time>
      </trkpt>
      <trkpt lat="45.75426" lon="6.70875">
        <ele>1793</ele>
        <time>2026-07-29T05:37:11.716Z</time>
      </trkpt>
      <trkpt lat="45.75425" lon="6.70875">
        <ele>1794</ele>
        <time>2026-07-29T05:37:12.716Z</time>
      </trkpt>
      <trkpt lat="45.75424" lon="6.70875">
        <ele>1794</ele>
        <time>2026-07-29T05:37:13.716Z</time>
      </trkpt>
      <trkpt lat="45.75424" lon="6.70874">
        <ele>1794</ele>
        <time>2026-07-29T05:37:14.716Z</time>
      </trkpt>
      <trkpt lat="45.75423" lon="6.70874">
        <ele>1794</ele>
        <time>2026-07-29T05:37:15.716Z</time>
      </trkpt>
      <trkpt lat="45.75422" lon="6.70873">
        <ele>1794</ele>
        <time>2026-07-29T05:37:16.716Z</time>
      </trkpt>
      <trkpt lat="45.75421" lon="6.70873">
        <ele>1794</ele>
        <time>2026-07-29T05:37:17.716Z</time>
      </trkpt>
      <trkpt lat="45.75421" lon="6.70872">
        <ele>1794</ele>
        <time>2026-07-29T05:37:18.716Z</time>
      </trkpt>
      <trkpt lat="45.7542" lon="6.70871">
        <ele>1794</ele>
        <time>2026-07-29T05:37:19.716Z</time>
      </trkpt>
      <trkpt lat="45.75421" lon="6.70869">
        <ele>1794</ele>
        <time>2026-07-29T05:37:20.716Z</time>
      </trkpt>
      <trkpt lat="45.75421" lon="6.70868">
        <ele>1795</ele>
        <time>2026-07-29T05:37:21.716Z</time>
      </trkpt>
      <trkpt lat="45.75421" lon="6.70867">
        <ele>1795</ele>
        <time>2026-07-29T05:37:22.716Z</time>
      </trkpt>
      <trkpt lat="45.7542" lon="6.70865">
        <ele>1796</ele>
        <time>2026-07-29T05:37:23.716Z</time>
      </trkpt>
      <trkpt lat="45.7542" lon="6.70865">
        <ele>1796</ele>
        <time>2026-07-29T05:37:24.716Z</time>
      </trkpt>
      <trkpt lat="45.75419" lon="6.70865">
        <ele>1797</ele>
        <time>2026-07-29T05:37:25.716Z</time>
      </trkpt>
      <trkpt lat="45.75418" lon="6.70865">
        <ele>1797</ele>
        <time>2026-07-29T05:37:26.716Z</time>
      </trkpt>
      <trkpt lat="45.75418" lon="6.70866">
        <ele>1797</ele>
        <time>2026-07-29T05:37:27.716Z</time>
      </trkpt>
      <trkpt lat="45.75417" lon="6.70867">
        <ele>1797</ele>
        <time>2026-07-29T05:37:28.716Z</time>
      </trkpt>
      <trkpt lat="45.75416" lon="6.70868">
        <ele>1797</ele>
        <time>2026-07-29T05:37:29.716Z</time>
      </trkpt>
      <trkpt lat="45.75416" lon="6.70869">
        <ele>1798</ele>
        <time>2026-07-29T05:37:30.716Z</time>
      </trkpt>
      <trkpt lat="45.75416" lon="6.7087">
        <ele>1798</ele>
        <time>2026-07-29T05:37:31.716Z</time>
      </trkpt>
      <trkpt lat="45.75416" lon="6.70871">
        <ele>1798</ele>
        <time>2026-07-29T05:37:32.716Z</time>
      </trkpt>
      <trkpt lat="45.75416" lon="6.70872">
        <ele>1798</ele>
        <time>2026-07-29T05:37:33.716Z</time>
      </trkpt>
      <trkpt lat="45.75415" lon="6.70873">
        <ele>1798</ele>
        <time>2026-07-29T05:37:34.716Z</time>
      </trkpt>
      <trkpt lat="45.75415" lon="6.70874">
        <ele>1798</ele>
        <time>2026-07-29T05:37:35.716Z</time>
      </trkpt>
      <trkpt lat="45.75415" lon="6.70876">
        <ele>1798</ele>
        <time>2026-07-29T05:37:36.716Z</time>
      </trkpt>
      <trkpt lat="45.75415" lon="6.70877">
        <ele>1798</ele>
        <time>2026-07-29T05:37:37.716Z</time>
      </trkpt>
      <trkpt lat="45.75415" lon="6.70878">
        <ele>1798</ele>
        <time>2026-07-29T05:37:38.716Z</time>
      </trkpt>
      <trkpt lat="45.75415" lon="6.70879">
        <ele>1798</ele>
        <time>2026-07-29T05:37:39.716Z</time>
      </trkpt>
      <trkpt lat="45.75414" lon="6.7088">
        <ele>1799</ele>
        <time>2026-07-29T05:37:40.716Z</time>
      </trkpt>
      <trkpt lat="45.75414" lon="6.70882">
        <ele>1799</ele>
        <time>2026-07-29T05:37:41.716Z</time>
      </trkpt>
      <trkpt lat="45.75414" lon="6.70883">
        <ele>1799</ele>
        <time>2026-07-29T05:37:42.716Z</time>
      </trkpt>
      <trkpt lat="45.75413" lon="6.70884">
        <ele>1799</ele>
        <time>2026-07-29T05:37:43.716Z</time>
      </trkpt>
      <trkpt lat="45.75412" lon="6.70884">
        <ele>1799</ele>
        <time>2026-07-29T05:37:44.716Z</time>
      </trkpt>
      <trkpt lat="45.75411" lon="6.70885">
        <ele>1799</ele>
        <time>2026-07-29T05:37:45.716Z</time>
      </trkpt>
      <trkpt lat="45.7541" lon="6.70886">
        <ele>1799</ele>
        <time>2026-07-29T05:37:46.716Z</time>
      </trkpt>
      <trkpt lat="45.7541" lon="6.70887">
        <ele>1799</ele>
        <time>2026-07-29T05:37:47.716Z</time>
      </trkpt>
      <trkpt lat="45.75409" lon="6.70888">
        <ele>1799</ele>
        <time>2026-07-29T05:37:48.716Z</time>
      </trkpt>
      <trkpt lat="45.75409" lon="6.70889">
        <ele>1799</ele>
        <time>2026-07-29T05:37:49.716Z</time>
      </trkpt>
      <trkpt lat="45.75408" lon="6.7089">
        <ele>1800</ele>
        <time>2026-07-29T05:37:50.716Z</time>
      </trkpt>
      <trkpt lat="45.75407" lon="6.70891">
        <ele>1800</ele>
        <time>2026-07-29T05:37:51.716Z</time>
      </trkpt>
      <trkpt lat="45.75406" lon="6.70892">
        <ele>1800</ele>
        <time>2026-07-29T05:37:52.716Z</time>
      </trkpt>
      <trkpt lat="45.75405" lon="6.70894">
        <ele>1800</ele>
        <time>2026-07-29T05:37:53.716Z</time>
      </trkpt>
      <trkpt lat="45.75405" lon="6.70895">
        <ele>1801</ele>
        <time>2026-07-29T05:37:54.716Z</time>
      </trkpt>
      <trkpt lat="45.75404" lon="6.70896">
        <ele>1801</ele>
        <time>2026-07-29T05:37:55.716Z</time>
      </trkpt>
      <trkpt lat="45.75403" lon="6.70896">
        <ele>1801</ele>
        <time>2026-07-29T05:37:56.716Z</time>
      </trkpt>
      <trkpt lat="45.75402" lon="6.70897">
        <ele>1802</ele>
        <time>2026-07-29T05:37:57.716Z</time>
      </trkpt>
      <trkpt lat="45.75402" lon="6.70897">
        <ele>1802</ele>
        <time>2026-07-29T05:37:58.716Z</time>
      </trkpt>
      <trkpt lat="45.75401" lon="6.70898">
        <ele>1802</ele>
        <time>2026-07-29T05:37:59.716Z</time>
      </trkpt>
      <trkpt lat="45.754" lon="6.70899">
        <ele>1802</ele>
        <time>2026-07-29T05:38:00.716Z</time>
      </trkpt>
      <trkpt lat="45.754" lon="6.709">
        <ele>1803</ele>
        <time>2026-07-29T05:38:01.716Z</time>
      </trkpt>
      <trkpt lat="45.75399" lon="6.70901">
        <ele>1803</ele>
        <time>2026-07-29T05:38:02.716Z</time>
      </trkpt>
      <trkpt lat="45.75398" lon="6.70902">
        <ele>1804</ele>
        <time>2026-07-29T05:38:03.716Z</time>
      </trkpt>
      <trkpt lat="45.75397" lon="6.70903">
        <ele>1804</ele>
        <time>2026-07-29T05:38:04.716Z</time>
      </trkpt>
      <trkpt lat="45.75396" lon="6.70903">
        <ele>1805</ele>
        <time>2026-07-29T05:38:05.716Z</time>
      </trkpt>
      <trkpt lat="45.75395" lon="6.70902">
        <ele>1805</ele>
        <time>2026-07-29T05:38:06.716Z</time>
      </trkpt>
      <trkpt lat="45.75394" lon="6.70902">
        <ele>1806</ele>
        <time>2026-07-29T05:38:07.716Z</time>
      </trkpt>
      <trkpt lat="45.75394" lon="6.70902">
        <ele>1807</ele>
        <time>2026-07-29T05:38:08.716Z</time>
      </trkpt>
      <trkpt lat="45.75393" lon="6.70903">
        <ele>1807</ele>
        <time>2026-07-29T05:38:09.716Z</time>
      </trkpt>
      <trkpt lat="45.75393" lon="6.70904">
        <ele>1807</ele>
        <time>2026-07-29T05:38:10.716Z</time>
      </trkpt>
      <trkpt lat="45.75392" lon="6.70904">
        <ele>1808</ele>
        <time>2026-07-29T05:38:11.716Z</time>
      </trkpt>
      <trkpt lat="45.75392" lon="6.70905">
        <ele>1808</ele>
        <time>2026-07-29T05:38:12.716Z</time>
      </trkpt>
      <trkpt lat="45.7539" lon="6.70906">
        <ele>1808</ele>
        <time>2026-07-29T05:38:13.716Z</time>
      </trkpt>
      <trkpt lat="45.75389" lon="6.70907">
        <ele>1809</ele>
        <time>2026-07-29T05:38:14.716Z</time>
      </trkpt>
      <trkpt lat="45.75388" lon="6.70907">
        <ele>1809</ele>
        <time>2026-07-29T05:38:15.716Z</time>
      </trkpt>
      <trkpt lat="45.75387" lon="6.70908">
        <ele>1809</ele>
        <time>2026-07-29T05:38:16.716Z</time>
      </trkpt>
      <trkpt lat="45.75386" lon="6.70908">
        <ele>1809</ele>
        <time>2026-07-29T05:38:17.716Z</time>
      </trkpt>
      <trkpt lat="45.75386" lon="6.70908">
        <ele>1810</ele>
        <time>2026-07-29T05:38:18.716Z</time>
      </trkpt>
      <trkpt lat="45.75386" lon="6.70909">
        <ele>1810</ele>
        <time>2026-07-29T05:38:19.716Z</time>
      </trkpt>
      <trkpt lat="45.75386" lon="6.70908">
        <ele>1810</ele>
        <time>2026-07-29T05:38:20.716Z</time>
      </trkpt>
      <trkpt lat="45.75386" lon="6.70909">
        <ele>1810</ele>
        <time>2026-07-29T05:38:21.716Z</time>
      </trkpt>
      <trkpt lat="45.75386" lon="6.70909">
        <ele>1810</ele>
        <time>2026-07-29T05:38:22.716Z</time>
      </trkpt>
      <trkpt lat="45.75385" lon="6.7091">
        <ele>1810</ele>
        <time>2026-07-29T05:38:23.716Z</time>
      </trkpt>
      <trkpt lat="45.75385" lon="6.70911">
        <ele>1810</ele>
        <time>2026-07-29T05:38:24.716Z</time>
      </trkpt>
      <trkpt lat="45.75384" lon="6.70911">
        <ele>1810</ele>
        <time>2026-07-29T05:38:25.716Z</time>
      </trkpt>
      <trkpt lat="45.75384" lon="6.70912">
        <ele>1810</ele>
        <time>2026-07-29T05:38:26.716Z</time>
      </trkpt>
      <trkpt lat="45.75383" lon="6.70913">
        <ele>1810</ele>
        <time>2026-07-29T05:38:27.716Z</time>
      </trkpt>
      <trkpt lat="45.75383" lon="6.70914">
        <ele>1810</ele>
        <time>2026-07-29T05:38:28.716Z</time>
      </trkpt>
      <trkpt lat="45.75382" lon="6.70914">
        <ele>1810</ele>
        <time>2026-07-29T05:38:29.716Z</time>
      </trkpt>
      <trkpt lat="45.75382" lon="6.70915">
        <ele>1810</ele>
        <time>2026-07-29T05:38:30.716Z</time>
      </trkpt>
      <trkpt lat="45.75382" lon="6.70915">
        <ele>1810</ele>
        <time>2026-07-29T05:38:31.716Z</time>
      </trkpt>
      <trkpt lat="45.75382" lon="6.70915">
        <ele>1810</ele>
        <time>2026-07-29T05:38:32.716Z</time>
      </trkpt>
      <trkpt lat="45.75382" lon="6.70916">
        <ele>1810</ele>
        <time>2026-07-29T05:38:33.716Z</time>
      </trkpt>
      <trkpt lat="45.75381" lon="6.70917">
        <ele>1810</ele>
        <time>2026-07-29T05:38:34.716Z</time>
      </trkpt>
      <trkpt lat="45.75381" lon="6.70917">
        <ele>1810</ele>
        <time>2026-07-29T05:38:35.716Z</time>
      </trkpt>
      <trkpt lat="45.75381" lon="6.70918">
        <ele>1810</ele>
        <time>2026-07-29T05:38:36.716Z</time>
      </trkpt>
      <trkpt lat="45.7538" lon="6.70919">
        <ele>1810</ele>
        <time>2026-07-29T05:38:37.716Z</time>
      </trkpt>
      <trkpt lat="45.75379" lon="6.70919">
        <ele>1810</ele>
        <time>2026-07-29T05:38:38.716Z</time>
      </trkpt>
      <trkpt lat="45.75378" lon="6.7092">
        <ele>1810</ele>
        <time>2026-07-29T05:38:39.716Z</time>
      </trkpt>
      <trkpt lat="45.75377" lon="6.7092">
        <ele>1810</ele>
        <time>2026-07-29T05:38:40.716Z</time>
      </trkpt>
      <trkpt lat="45.75377" lon="6.70921">
        <ele>1810</ele>
        <time>2026-07-29T05:38:41.716Z</time>
      </trkpt>
      <trkpt lat="45.75376" lon="6.70922">
        <ele>1810</ele>
        <time>2026-07-29T05:38:42.716Z</time>
      </trkpt>
      <trkpt lat="45.75375" lon="6.70922">
        <ele>1810</ele>
        <time>2026-07-29T05:38:43.716Z</time>
      </trkpt>
      <trkpt lat="45.75374" lon="6.70923">
        <ele>1811</ele>
        <time>2026-07-29T05:38:44.716Z</time>
      </trkpt>
      <trkpt lat="45.75373" lon="6.70924">
        <ele>1811</ele>
        <time>2026-07-29T05:38:45.716Z</time>
      </trkpt>
      <trkpt lat="45.75372" lon="6.70925">
        <ele>1811</ele>
        <time>2026-07-29T05:38:46.716Z</time>
      </trkpt>
      <trkpt lat="45.75371" lon="6.70925">
        <ele>1812</ele>
        <time>2026-07-29T05:38:47.716Z</time>
      </trkpt>
      <trkpt lat="45.7537" lon="6.70925">
        <ele>1812</ele>
        <time>2026-07-29T05:38:48.716Z</time>
      </trkpt>
      <trkpt lat="45.75369" lon="6.70925">
        <ele>1813</ele>
        <time>2026-07-29T05:38:49.716Z</time>
      </trkpt>
      <trkpt lat="45.75368" lon="6.70924">
        <ele>1813</ele>
        <time>2026-07-29T05:38:50.716Z</time>
      </trkpt>
      <trkpt lat="45.75368" lon="6.70923">
        <ele>1814</ele>
        <time>2026-07-29T05:38:51.716Z</time>
      </trkpt>
      <trkpt lat="45.75368" lon="6.70921">
        <ele>1814</ele>
        <time>2026-07-29T05:38:52.716Z</time>
      </trkpt>
      <trkpt lat="45.75367" lon="6.7092">
        <ele>1814</ele>
        <time>2026-07-29T05:38:53.716Z</time>
      </trkpt>
      <trkpt lat="45.75367" lon="6.70919">
        <ele>1815</ele>
        <time>2026-07-29T05:38:54.716Z</time>
      </trkpt>
      <trkpt lat="45.75366" lon="6.70919">
        <ele>1815</ele>
        <time>2026-07-29T05:38:55.716Z</time>
      </trkpt>
      <trkpt lat="45.75365" lon="6.70919">
        <ele>1815</ele>
        <time>2026-07-29T05:38:56.716Z</time>
      </trkpt>
      <trkpt lat="45.75365" lon="6.70919">
        <ele>1815</ele>
        <time>2026-07-29T05:38:57.716Z</time>
      </trkpt>
      <trkpt lat="45.75365" lon="6.70919">
        <ele>1815</ele>
        <time>2026-07-29T05:38:58.716Z</time>
      </trkpt>
      <trkpt lat="45.75365" lon="6.7092">
        <ele>1815</ele>
        <time>2026-07-29T05:38:59.716Z</time>
      </trkpt>
      <trkpt lat="45.75365" lon="6.7092">
        <ele>1815</ele>
        <time>2026-07-29T05:39:00.716Z</time>
      </trkpt>
      <trkpt lat="45.75364" lon="6.70921">
        <ele>1816</ele>
        <time>2026-07-29T05:39:01.716Z</time>
      </trkpt>
      <trkpt lat="45.75364" lon="6.70922">
        <ele>1816</ele>
        <time>2026-07-29T05:39:02.716Z</time>
      </trkpt>
      <trkpt lat="45.75364" lon="6.70923">
        <ele>1816</ele>
        <time>2026-07-29T05:39:03.716Z</time>
      </trkpt>
      <trkpt lat="45.75363" lon="6.70924">
        <ele>1817</ele>
        <time>2026-07-29T05:39:04.716Z</time>
      </trkpt>
      <trkpt lat="45.75363" lon="6.70924">
        <ele>1817</ele>
        <time>2026-07-29T05:39:05.716Z</time>
      </trkpt>
      <trkpt lat="45.75362" lon="6.70925">
        <ele>1817</ele>
        <time>2026-07-29T05:39:06.716Z</time>
      </trkpt>
      <trkpt lat="45.75361" lon="6.70926">
        <ele>1818</ele>
        <time>2026-07-29T05:39:07.716Z</time>
      </trkpt>
      <trkpt lat="45.75361" lon="6.70928">
        <ele>1818</ele>
        <time>2026-07-29T05:39:08.716Z</time>
      </trkpt>
      <trkpt lat="45.7536" lon="6.70928">
        <ele>1818</ele>
        <time>2026-07-29T05:39:09.716Z</time>
      </trkpt>
      <trkpt lat="45.75359" lon="6.70929">
        <ele>1818</ele>
        <time>2026-07-29T05:39:10.716Z</time>
      </trkpt>
      <trkpt lat="45.75359" lon="6.7093">
        <ele>1818</ele>
        <time>2026-07-29T05:39:11.716Z</time>
      </trkpt>
      <trkpt lat="45.75358" lon="6.70931">
        <ele>1819</ele>
        <time>2026-07-29T05:39:12.716Z</time>
      </trkpt>
      <trkpt lat="45.75358" lon="6.70931">
        <ele>1819</ele>
        <time>2026-07-29T05:39:13.716Z</time>
      </trkpt>
      <trkpt lat="45.75357" lon="6.70932">
        <ele>1819</ele>
        <time>2026-07-29T05:39:14.716Z</time>
      </trkpt>
      <trkpt lat="45.75356" lon="6.70933">
        <ele>1819</ele>
        <time>2026-07-29T05:39:15.716Z</time>
      </trkpt>
      <trkpt lat="45.75356" lon="6.70934">
        <ele>1819</ele>
        <time>2026-07-29T05:39:16.716Z</time>
      </trkpt>
      <trkpt lat="45.75356" lon="6.70935">
        <ele>1819</ele>
        <time>2026-07-29T05:39:17.716Z</time>
      </trkpt>
      <trkpt lat="45.75355" lon="6.70936">
        <ele>1820</ele>
        <time>2026-07-29T05:39:18.716Z</time>
      </trkpt>
      <trkpt lat="45.75355" lon="6.70937">
        <ele>1820</ele>
        <time>2026-07-29T05:39:19.716Z</time>
      </trkpt>
      <trkpt lat="45.75355" lon="6.70937">
        <ele>1820</ele>
        <time>2026-07-29T05:39:20.716Z</time>
      </trkpt>
      <trkpt lat="45.75354" lon="6.70938">
        <ele>1820</ele>
        <time>2026-07-29T05:39:21.716Z</time>
      </trkpt>
      <trkpt lat="45.75354" lon="6.70939">
        <ele>1821</ele>
        <time>2026-07-29T05:39:22.716Z</time>
      </trkpt>
      <trkpt lat="45.75353" lon="6.70939">
        <ele>1821</ele>
        <time>2026-07-29T05:39:23.716Z</time>
      </trkpt>
      <trkpt lat="45.75352" lon="6.70939">
        <ele>1822</ele>
        <time>2026-07-29T05:39:24.716Z</time>
      </trkpt>
      <trkpt lat="45.75351" lon="6.70939">
        <ele>1822</ele>
        <time>2026-07-29T05:39:25.716Z</time>
      </trkpt>
      <trkpt lat="45.75351" lon="6.70939">
        <ele>1822</ele>
        <time>2026-07-29T05:39:26.716Z</time>
      </trkpt>
      <trkpt lat="45.7535" lon="6.7094">
        <ele>1822</ele>
        <time>2026-07-29T05:39:27.716Z</time>
      </trkpt>
      <trkpt lat="45.7535" lon="6.7094">
        <ele>1823</ele>
        <time>2026-07-29T05:39:28.716Z</time>
      </trkpt>
      <trkpt lat="45.75349" lon="6.7094">
        <ele>1823</ele>
        <time>2026-07-29T05:39:29.716Z</time>
      </trkpt>
      <trkpt lat="45.75348" lon="6.70941">
        <ele>1823</ele>
        <time>2026-07-29T05:39:30.716Z</time>
      </trkpt>
      <trkpt lat="45.75347" lon="6.70941">
        <ele>1823</ele>
        <time>2026-07-29T05:39:31.716Z</time>
      </trkpt>
      <trkpt lat="45.75347" lon="6.70941">
        <ele>1823</ele>
        <time>2026-07-29T05:39:32.716Z</time>
      </trkpt>
      <trkpt lat="45.75346" lon="6.70942">
        <ele>1823</ele>
        <time>2026-07-29T05:39:33.716Z</time>
      </trkpt>
      <trkpt lat="45.75345" lon="6.70942">
        <ele>1823</ele>
        <time>2026-07-29T05:39:34.716Z</time>
      </trkpt>
      <trkpt lat="45.75344" lon="6.70943">
        <ele>1823</ele>
        <time>2026-07-29T05:39:35.716Z</time>
      </trkpt>
      <trkpt lat="45.75344" lon="6.70944">
        <ele>1823</ele>
        <time>2026-07-29T05:39:36.716Z</time>
      </trkpt>
      <trkpt lat="45.75343" lon="6.70944">
        <ele>1824</ele>
        <time>2026-07-29T05:39:37.716Z</time>
      </trkpt>
      <trkpt lat="45.75342" lon="6.70944">
        <ele>1824</ele>
        <time>2026-07-29T05:39:38.716Z</time>
      </trkpt>
      <trkpt lat="45.75341" lon="6.70944">
        <ele>1824</ele>
        <time>2026-07-29T05:39:39.716Z</time>
      </trkpt>
      <trkpt lat="45.7534" lon="6.70944">
        <ele>1825</ele>
        <time>2026-07-29T05:39:40.716Z</time>
      </trkpt>
      <trkpt lat="45.75339" lon="6.70943">
        <ele>1825</ele>
        <time>2026-07-29T05:39:41.716Z</time>
      </trkpt>
      <trkpt lat="45.75339" lon="6.70943">
        <ele>1826</ele>
        <time>2026-07-29T05:39:42.716Z</time>
      </trkpt>
      <trkpt lat="45.75338" lon="6.70942">
        <ele>1826</ele>
        <time>2026-07-29T05:39:43.716Z</time>
      </trkpt>
      <trkpt lat="45.75337" lon="6.70941">
        <ele>1826</ele>
        <time>2026-07-29T05:39:44.716Z</time>
      </trkpt>
      <trkpt lat="45.75337" lon="6.7094">
        <ele>1826</ele>
        <time>2026-07-29T05:39:45.716Z</time>
      </trkpt>
      <trkpt lat="45.75336" lon="6.70939">
        <ele>1826</ele>
        <time>2026-07-29T05:39:46.716Z</time>
      </trkpt>
      <trkpt lat="45.75336" lon="6.70938">
        <ele>1826</ele>
        <time>2026-07-29T05:39:47.716Z</time>
      </trkpt>
      <trkpt lat="45.75336" lon="6.70937">
        <ele>1826</ele>
        <time>2026-07-29T05:39:48.716Z</time>
      </trkpt>
      <trkpt lat="45.75336" lon="6.70935">
        <ele>1826</ele>
        <time>2026-07-29T05:39:49.716Z</time>
      </trkpt>
      <trkpt lat="45.75336" lon="6.70934">
        <ele>1827</ele>
        <time>2026-07-29T05:39:50.716Z</time>
      </trkpt>
      <trkpt lat="45.75336" lon="6.70933">
        <ele>1827</ele>
        <time>2026-07-29T05:39:51.716Z</time>
      </trkpt>
      <trkpt lat="45.75336" lon="6.70932">
        <ele>1827</ele>
        <time>2026-07-29T05:39:52.716Z</time>
      </trkpt>
      <trkpt lat="45.75335" lon="6.70931">
        <ele>1828</ele>
        <time>2026-07-29T05:39:53.716Z</time>
      </trkpt>
      <trkpt lat="45.75335" lon="6.70929">
        <ele>1828</ele>
        <time>2026-07-29T05:39:54.716Z</time>
      </trkpt>
      <trkpt lat="45.75334" lon="6.70929">
        <ele>1829</ele>
        <time>2026-07-29T05:39:55.716Z</time>
      </trkpt>
      <trkpt lat="45.75334" lon="6.70928">
        <ele>1829</ele>
        <time>2026-07-29T05:39:56.716Z</time>
      </trkpt>
      <trkpt lat="45.75333" lon="6.70927">
        <ele>1829</ele>
        <time>2026-07-29T05:39:57.716Z</time>
      </trkpt>
      <trkpt lat="45.75332" lon="6.70927">
        <ele>1830</ele>
        <time>2026-07-29T05:39:58.716Z</time>
      </trkpt>
      <trkpt lat="45.75331" lon="6.70926">
        <ele>1830</ele>
        <time>2026-07-29T05:39:59.716Z</time>
      </trkpt>
      <trkpt lat="45.75331" lon="6.70926">
        <ele>1831</ele>
        <time>2026-07-29T05:40:00.716Z</time>
      </trkpt>
      <trkpt lat="45.7533" lon="6.70925">
        <ele>1831</ele>
        <time>2026-07-29T05:40:01.716Z</time>
      </trkpt>
      <trkpt lat="45.7533" lon="6.70924">
        <ele>1832</ele>
        <time>2026-07-29T05:40:02.716Z</time>
      </trkpt>
      <trkpt lat="45.75329" lon="6.70924">
        <ele>1832</ele>
        <time>2026-07-29T05:40:03.716Z</time>
      </trkpt>
      <trkpt lat="45.75329" lon="6.70923">
        <ele>1832</ele>
        <time>2026-07-29T05:40:04.716Z</time>
      </trkpt>
      <trkpt lat="45.75328" lon="6.70922">
        <ele>1833</ele>
        <time>2026-07-29T05:40:05.716Z</time>
      </trkpt>
      <trkpt lat="45.75328" lon="6.70921">
        <ele>1833</ele>
        <time>2026-07-29T05:40:06.716Z</time>
      </trkpt>
      <trkpt lat="45.75327" lon="6.7092">
        <ele>1833</ele>
        <time>2026-07-29T05:40:07.716Z</time>
      </trkpt>
      <trkpt lat="45.75327" lon="6.70919">
        <ele>1834</ele>
        <time>2026-07-29T05:40:08.716Z</time>
      </trkpt>
      <trkpt lat="45.75327" lon="6.70918">
        <ele>1834</ele>
        <time>2026-07-29T05:40:09.716Z</time>
      </trkpt>
      <trkpt lat="45.75326" lon="6.70918">
        <ele>1834</ele>
        <time>2026-07-29T05:40:10.716Z</time>
      </trkpt>
      <trkpt lat="45.75326" lon="6.70919">
        <ele>1834</ele>
        <time>2026-07-29T05:40:11.716Z</time>
      </trkpt>
      <trkpt lat="45.75325" lon="6.70919">
        <ele>1834</ele>
        <time>2026-07-29T05:40:12.716Z</time>
      </trkpt>
      <trkpt lat="45.75325" lon="6.7092">
        <ele>1834</ele>
        <time>2026-07-29T05:40:13.716Z</time>
      </trkpt>
      <trkpt lat="45.75324" lon="6.70921">
        <ele>1834</ele>
        <time>2026-07-29T05:40:14.716Z</time>
      </trkpt>
      <trkpt lat="45.75324" lon="6.70922">
        <ele>1834</ele>
        <time>2026-07-29T05:40:15.716Z</time>
      </trkpt>
      <trkpt lat="45.75324" lon="6.70923">
        <ele>1834</ele>
        <time>2026-07-29T05:40:16.716Z</time>
      </trkpt>
      <trkpt lat="45.75324" lon="6.70925">
        <ele>1834</ele>
        <time>2026-07-29T05:40:17.716Z</time>
      </trkpt>
      <trkpt lat="45.75323" lon="6.70926">
        <ele>1835</ele>
        <time>2026-07-29T05:40:18.716Z</time>
      </trkpt>
      <trkpt lat="45.75322" lon="6.70927">
        <ele>1835</ele>
        <time>2026-07-29T05:40:19.716Z</time>
      </trkpt>
      <trkpt lat="45.75321" lon="6.70928">
        <ele>1835</ele>
        <time>2026-07-29T05:40:20.716Z</time>
      </trkpt>
      <trkpt lat="45.7532" lon="6.70928">
        <ele>1835</ele>
        <time>2026-07-29T05:40:21.716Z</time>
      </trkpt>
      <trkpt lat="45.7532" lon="6.70928">
        <ele>1836</ele>
        <time>2026-07-29T05:40:22.716Z</time>
      </trkpt>
      <trkpt lat="45.75319" lon="6.70929">
        <ele>1836</ele>
        <time>2026-07-29T05:40:23.716Z</time>
      </trkpt>
      <trkpt lat="45.75318" lon="6.70929">
        <ele>1836</ele>
        <time>2026-07-29T05:40:24.716Z</time>
      </trkpt>
      <trkpt lat="45.75317" lon="6.7093">
        <ele>1837</ele>
        <time>2026-07-29T05:40:25.716Z</time>
      </trkpt>
      <trkpt lat="45.75316" lon="6.70931">
        <ele>1837</ele>
        <time>2026-07-29T05:40:26.716Z</time>
      </trkpt>
      <trkpt lat="45.75315" lon="6.70931">
        <ele>1837</ele>
        <time>2026-07-29T05:40:27.716Z</time>
      </trkpt>
      <trkpt lat="45.75315" lon="6.70932">
        <ele>1838</ele>
        <time>2026-07-29T05:40:28.716Z</time>
      </trkpt>
      <trkpt lat="45.75314" lon="6.70933">
        <ele>1838</ele>
        <time>2026-07-29T05:40:29.716Z</time>
      </trkpt>
      <trkpt lat="45.75313" lon="6.70934">
        <ele>1838</ele>
        <time>2026-07-29T05:40:30.716Z</time>
      </trkpt>
      <trkpt lat="45.75313" lon="6.70934">
        <ele>1839</ele>
        <time>2026-07-29T05:40:31.716Z</time>
      </trkpt>
      <trkpt lat="45.75312" lon="6.70934">
        <ele>1839</ele>
        <time>2026-07-29T05:40:32.716Z</time>
      </trkpt>
      <trkpt lat="45.75311" lon="6.70935">
        <ele>1839</ele>
        <time>2026-07-29T05:40:33.716Z</time>
      </trkpt>
      <trkpt lat="45.7531" lon="6.70935">
        <ele>1839</ele>
        <time>2026-07-29T05:40:34.716Z</time>
      </trkpt>
      <trkpt lat="45.75309" lon="6.70935">
        <ele>1839</ele>
        <time>2026-07-29T05:40:35.716Z</time>
      </trkpt>
      <trkpt lat="45.75308" lon="6.70935">
        <ele>1839</ele>
        <time>2026-07-29T05:40:36.716Z</time>
      </trkpt>
      <trkpt lat="45.75307" lon="6.70935">
        <ele>1840</ele>
        <time>2026-07-29T05:40:37.716Z</time>
      </trkpt>
      <trkpt lat="45.75306" lon="6.70935">
        <ele>1840</ele>
        <time>2026-07-29T05:40:38.716Z</time>
      </trkpt>
      <trkpt lat="45.75306" lon="6.70936">
        <ele>1840</ele>
        <time>2026-07-29T05:40:39.716Z</time>
      </trkpt>
      <trkpt lat="45.75305" lon="6.70936">
        <ele>1840</ele>
        <time>2026-07-29T05:40:40.716Z</time>
      </trkpt>
      <trkpt lat="45.75305" lon="6.70937">
        <ele>1841</ele>
        <time>2026-07-29T05:40:41.716Z</time>
      </trkpt>
      <trkpt lat="45.75304" lon="6.70937">
        <ele>1841</ele>
        <time>2026-07-29T05:40:42.716Z</time>
      </trkpt>
      <trkpt lat="45.75302" lon="6.70937">
        <ele>1841</ele>
        <time>2026-07-29T05:40:43.716Z</time>
      </trkpt>
      <trkpt lat="45.75302" lon="6.70937">
        <ele>1841</ele>
        <time>2026-07-29T05:40:44.716Z</time>
      </trkpt>
      <trkpt lat="45.75301" lon="6.70937">
        <ele>1842</ele>
        <time>2026-07-29T05:40:45.716Z</time>
      </trkpt>
      <trkpt lat="45.75301" lon="6.70938">
        <ele>1842</ele>
        <time>2026-07-29T05:40:46.716Z</time>
      </trkpt>
      <trkpt lat="45.753" lon="6.70939">
        <ele>1842</ele>
        <time>2026-07-29T05:40:47.716Z</time>
      </trkpt>
      <trkpt lat="45.753" lon="6.7094">
        <ele>1842</ele>
        <time>2026-07-29T05:40:48.716Z</time>
      </trkpt>
      <trkpt lat="45.753" lon="6.70941">
        <ele>1843</ele>
        <time>2026-07-29T05:40:49.716Z</time>
      </trkpt>
      <trkpt lat="45.75299" lon="6.70942">
        <ele>1843</ele>
        <time>2026-07-29T05:40:50.716Z</time>
      </trkpt>
      <trkpt lat="45.75299" lon="6.70942">
        <ele>1843</ele>
        <time>2026-07-29T05:40:51.716Z</time>
      </trkpt>
      <trkpt lat="45.75299" lon="6.70943">
        <ele>1843</ele>
        <time>2026-07-29T05:40:52.716Z</time>
      </trkpt>
      <trkpt lat="45.75298" lon="6.70943">
        <ele>1844</ele>
        <time>2026-07-29T05:40:53.716Z</time>
      </trkpt>
      <trkpt lat="45.75298" lon="6.70944">
        <ele>1844</ele>
        <time>2026-07-29T05:40:54.716Z</time>
      </trkpt>
      <trkpt lat="45.75298" lon="6.70945">
        <ele>1844</ele>
        <time>2026-07-29T05:40:55.716Z</time>
      </trkpt>
      <trkpt lat="45.75299" lon="6.70946">
        <ele>1845</ele>
        <time>2026-07-29T05:40:56.716Z</time>
      </trkpt>
      <trkpt lat="45.75299" lon="6.70948">
        <ele>1845</ele>
        <time>2026-07-29T05:40:57.716Z</time>
      </trkpt>
      <trkpt lat="45.75299" lon="6.70949">
        <ele>1845</ele>
        <time>2026-07-29T05:40:58.716Z</time>
      </trkpt>
      <trkpt lat="45.75299" lon="6.7095">
        <ele>1846</ele>
        <time>2026-07-29T05:40:59.716Z</time>
      </trkpt>
      <trkpt lat="45.75299" lon="6.70951">
        <ele>1846</ele>
        <time>2026-07-29T05:41:00.716Z</time>
      </trkpt>
      <trkpt lat="45.75299" lon="6.70952">
        <ele>1846</ele>
        <time>2026-07-29T05:41:01.716Z</time>
      </trkpt>
      <trkpt lat="45.75298" lon="6.70953">
        <ele>1846</ele>
        <time>2026-07-29T05:41:02.716Z</time>
      </trkpt>
      <trkpt lat="45.75298" lon="6.70953">
        <ele>1846</ele>
        <time>2026-07-29T05:41:03.716Z</time>
      </trkpt>
      <trkpt lat="45.75297" lon="6.70952">
        <ele>1846</ele>
        <time>2026-07-29T05:41:04.716Z</time>
      </trkpt>
      <trkpt lat="45.75297" lon="6.70952">
        <ele>1846</ele>
        <time>2026-07-29T05:41:05.716Z</time>
      </trkpt>
      <trkpt lat="45.75296" lon="6.70952">
        <ele>1846</ele>
        <time>2026-07-29T05:41:06.716Z</time>
      </trkpt>
      <trkpt lat="45.75295" lon="6.70952">
        <ele>1846</ele>
        <time>2026-07-29T05:41:07.716Z</time>
      </trkpt>
      <trkpt lat="45.75294" lon="6.70951">
        <ele>1847</ele>
        <time>2026-07-29T05:41:08.716Z</time>
      </trkpt>
      <trkpt lat="45.75293" lon="6.7095">
        <ele>1847</ele>
        <time>2026-07-29T05:41:09.716Z</time>
      </trkpt>
      <trkpt lat="45.75292" lon="6.7095">
        <ele>1847</ele>
        <time>2026-07-29T05:41:10.716Z</time>
      </trkpt>
      <trkpt lat="45.75292" lon="6.70949">
        <ele>1847</ele>
        <time>2026-07-29T05:41:11.716Z</time>
      </trkpt>
      <trkpt lat="45.75291" lon="6.70948">
        <ele>1847</ele>
        <time>2026-07-29T05:41:12.716Z</time>
      </trkpt>
      <trkpt lat="45.75291" lon="6.70947">
        <ele>1847</ele>
        <time>2026-07-29T05:41:13.716Z</time>
      </trkpt>
      <trkpt lat="45.7529" lon="6.70946">
        <ele>1847</ele>
        <time>2026-07-29T05:41:14.716Z</time>
      </trkpt>
      <trkpt lat="45.7529" lon="6.70945">
        <ele>1848</ele>
        <time>2026-07-29T05:41:15.716Z</time>
      </trkpt>
      <trkpt lat="45.75289" lon="6.70944">
        <ele>1848</ele>
        <time>2026-07-29T05:41:16.716Z</time>
      </trkpt>
      <trkpt lat="45.75289" lon="6.70944">
        <ele>1849</ele>
        <time>2026-07-29T05:41:17.716Z</time>
      </trkpt>
      <trkpt lat="45.75288" lon="6.70944">
        <ele>1849</ele>
        <time>2026-07-29T05:41:18.716Z</time>
      </trkpt>
      <trkpt lat="45.75287" lon="6.70944">
        <ele>1849</ele>
        <time>2026-07-29T05:41:19.716Z</time>
      </trkpt>
      <trkpt lat="45.75287" lon="6.70944">
        <ele>1850</ele>
        <time>2026-07-29T05:41:20.716Z</time>
      </trkpt>
      <trkpt lat="45.75286" lon="6.70944">
        <ele>1850</ele>
        <time>2026-07-29T05:41:21.716Z</time>
      </trkpt>
      <trkpt lat="45.75286" lon="6.70945">
        <ele>1850</ele>
        <time>2026-07-29T05:41:22.716Z</time>
      </trkpt>
      <trkpt lat="45.75286" lon="6.70946">
        <ele>1851</ele>
        <time>2026-07-29T05:41:23.716Z</time>
      </trkpt>
      <trkpt lat="45.75285" lon="6.70946">
        <ele>1851</ele>
        <time>2026-07-29T05:41:24.716Z</time>
      </trkpt>
      <trkpt lat="45.75284" lon="6.70946">
        <ele>1851</ele>
        <time>2026-07-29T05:41:25.716Z</time>
      </trkpt>
      <trkpt lat="45.75283" lon="6.70946">
        <ele>1851</ele>
        <time>2026-07-29T05:41:26.716Z</time>
      </trkpt>
      <trkpt lat="45.75283" lon="6.70945">
        <ele>1851</ele>
        <time>2026-07-29T05:41:27.716Z</time>
      </trkpt>
      <trkpt lat="45.75283" lon="6.70944">
        <ele>1851</ele>
        <time>2026-07-29T05:41:28.716Z</time>
      </trkpt>
      <trkpt lat="45.75282" lon="6.70944">
        <ele>1851</ele>
        <time>2026-07-29T05:41:29.716Z</time>
      </trkpt>
      <trkpt lat="45.75282" lon="6.70943">
        <ele>1852</ele>
        <time>2026-07-29T05:41:30.716Z</time>
      </trkpt>
      <trkpt lat="45.75281" lon="6.70944">
        <ele>1852</ele>
        <time>2026-07-29T05:41:31.716Z</time>
      </trkpt>
      <trkpt lat="45.75281" lon="6.70944">
        <ele>1852</ele>
        <time>2026-07-29T05:41:32.716Z</time>
      </trkpt>
      <trkpt lat="45.75281" lon="6.70945">
        <ele>1853</ele>
        <time>2026-07-29T05:41:33.716Z</time>
      </trkpt>
      <trkpt lat="45.7528" lon="6.70945">
        <ele>1853</ele>
        <time>2026-07-29T05:41:34.716Z</time>
      </trkpt>
      <trkpt lat="45.7528" lon="6.70945">
        <ele>1853</ele>
        <time>2026-07-29T05:41:35.716Z</time>
      </trkpt>
      <trkpt lat="45.75279" lon="6.70944">
        <ele>1854</ele>
        <time>2026-07-29T05:41:36.716Z</time>
      </trkpt>
      <trkpt lat="45.75278" lon="6.70944">
        <ele>1854</ele>
        <time>2026-07-29T05:41:37.716Z</time>
      </trkpt>
      <trkpt lat="45.75278" lon="6.70943">
        <ele>1854</ele>
        <time>2026-07-29T05:41:38.716Z</time>
      </trkpt>
      <trkpt lat="45.75278" lon="6.70942">
        <ele>1854</ele>
        <time>2026-07-29T05:41:39.716Z</time>
      </trkpt>
      <trkpt lat="45.75278" lon="6.70942">
        <ele>1855</ele>
        <time>2026-07-29T05:41:40.716Z</time>
      </trkpt>
      <trkpt lat="45.75277" lon="6.70942">
        <ele>1855</ele>
        <time>2026-07-29T05:41:41.716Z</time>
      </trkpt>
      <trkpt lat="45.75276" lon="6.70943">
        <ele>1855</ele>
        <time>2026-07-29T05:41:42.716Z</time>
      </trkpt>
      <trkpt lat="45.75275" lon="6.70943">
        <ele>1855</ele>
        <time>2026-07-29T05:41:43.716Z</time>
      </trkpt>
      <trkpt lat="45.75274" lon="6.70943">
        <ele>1855</ele>
        <time>2026-07-29T05:41:44.716Z</time>
      </trkpt>
      <trkpt lat="45.75274" lon="6.70943">
        <ele>1855</ele>
        <time>2026-07-29T05:41:45.716Z</time>
      </trkpt>
      <trkpt lat="45.75273" lon="6.70942">
        <ele>1855</ele>
        <time>2026-07-29T05:41:46.716Z</time>
      </trkpt>
      <trkpt lat="45.75273" lon="6.70941">
        <ele>1855</ele>
        <time>2026-07-29T05:41:47.716Z</time>
      </trkpt>
      <trkpt lat="45.75272" lon="6.7094">
        <ele>1855</ele>
        <time>2026-07-29T05:41:48.716Z</time>
      </trkpt>
      <trkpt lat="45.75272" lon="6.7094">
        <ele>1855</ele>
        <time>2026-07-29T05:41:49.716Z</time>
      </trkpt>
      <trkpt lat="45.75271" lon="6.70939">
        <ele>1856</ele>
        <time>2026-07-29T05:41:50.716Z</time>
      </trkpt>
      <trkpt lat="45.75271" lon="6.70939">
        <ele>1856</ele>
        <time>2026-07-29T05:41:51.716Z</time>
      </trkpt>
      <trkpt lat="45.7527" lon="6.70939">
        <ele>1856</ele>
        <time>2026-07-29T05:41:52.716Z</time>
      </trkpt>
      <trkpt lat="45.75269" lon="6.70939">
        <ele>1856</ele>
        <time>2026-07-29T05:41:53.716Z</time>
      </trkpt>
      <trkpt lat="45.75269" lon="6.70939">
        <ele>1856</ele>
        <time>2026-07-29T05:41:54.716Z</time>
      </trkpt>
      <trkpt lat="45.75268" lon="6.70939">
        <ele>1856</ele>
        <time>2026-07-29T05:41:55.716Z</time>
      </trkpt>
      <trkpt lat="45.75267" lon="6.70938">
        <ele>1856</ele>
        <time>2026-07-29T05:41:56.716Z</time>
      </trkpt>
      <trkpt lat="45.75267" lon="6.70937">
        <ele>1857</ele>
        <time>2026-07-29T05:41:57.716Z</time>
      </trkpt>
      <trkpt lat="45.75267" lon="6.70936">
        <ele>1857</ele>
        <time>2026-07-29T05:41:58.716Z</time>
      </trkpt>
      <trkpt lat="45.75266" lon="6.70935">
        <ele>1858</ele>
        <time>2026-07-29T05:41:59.716Z</time>
      </trkpt>
      <trkpt lat="45.75266" lon="6.70935">
        <ele>1858</ele>
        <time>2026-07-29T05:42:00.716Z</time>
      </trkpt>
      <trkpt lat="45.75265" lon="6.70935">
        <ele>1859</ele>
        <time>2026-07-29T05:42:01.716Z</time>
      </trkpt>
      <trkpt lat="45.75264" lon="6.70936">
        <ele>1859</ele>
        <time>2026-07-29T05:42:02.716Z</time>
      </trkpt>
      <trkpt lat="45.75263" lon="6.70937">
        <ele>1860</ele>
        <time>2026-07-29T05:42:03.716Z</time>
      </trkpt>
      <trkpt lat="45.75263" lon="6.70937">
        <ele>1860</ele>
        <time>2026-07-29T05:42:04.716Z</time>
      </trkpt>
      <trkpt lat="45.75263" lon="6.70938">
        <ele>1861</ele>
        <time>2026-07-29T05:42:05.716Z</time>
      </trkpt>
      <trkpt lat="45.75262" lon="6.70939">
        <ele>1861</ele>
        <time>2026-07-29T05:42:06.716Z</time>
      </trkpt>
      <trkpt lat="45.75261" lon="6.7094">
        <ele>1861</ele>
        <time>2026-07-29T05:42:07.716Z</time>
      </trkpt>
      <trkpt lat="45.75261" lon="6.7094">
        <ele>1862</ele>
        <time>2026-07-29T05:42:08.716Z</time>
      </trkpt>
      <trkpt lat="45.7526" lon="6.7094">
        <ele>1862</ele>
        <time>2026-07-29T05:42:09.716Z</time>
      </trkpt>
      <trkpt lat="45.75259" lon="6.70939">
        <ele>1862</ele>
        <time>2026-07-29T05:42:10.716Z</time>
      </trkpt>
      <trkpt lat="45.75259" lon="6.70938">
        <ele>1862</ele>
        <time>2026-07-29T05:42:11.716Z</time>
      </trkpt>
      <trkpt lat="45.75258" lon="6.70938">
        <ele>1862</ele>
        <time>2026-07-29T05:42:12.716Z</time>
      </trkpt>
      <trkpt lat="45.75257" lon="6.70939">
        <ele>1862</ele>
        <time>2026-07-29T05:42:13.716Z</time>
      </trkpt>
      <trkpt lat="45.75256" lon="6.70939">
        <ele>1862</ele>
        <time>2026-07-29T05:42:14.716Z</time>
      </trkpt>
      <trkpt lat="45.75256" lon="6.70939">
        <ele>1862</ele>
        <time>2026-07-29T05:42:15.716Z</time>
      </trkpt>
      <trkpt lat="45.75255" lon="6.70939">
        <ele>1862</ele>
        <time>2026-07-29T05:42:16.716Z</time>
      </trkpt>
      <trkpt lat="45.75254" lon="6.70938">
        <ele>1862</ele>
        <time>2026-07-29T05:42:17.716Z</time>
      </trkpt>
      <trkpt lat="45.75253" lon="6.70938">
        <ele>1862</ele>
        <time>2026-07-29T05:42:18.716Z</time>
      </trkpt>
      <trkpt lat="45.75253" lon="6.70938">
        <ele>1862</ele>
        <time>2026-07-29T05:42:19.716Z</time>
      </trkpt>
      <trkpt lat="45.75252" lon="6.70937">
        <ele>1862</ele>
        <time>2026-07-29T05:42:20.716Z</time>
      </trkpt>
      <trkpt lat="45.75252" lon="6.70936">
        <ele>1863</ele>
        <time>2026-07-29T05:42:21.716Z</time>
      </trkpt>
      <trkpt lat="45.75251" lon="6.70935">
        <ele>1863</ele>
        <time>2026-07-29T05:42:22.716Z</time>
      </trkpt>
      <trkpt lat="45.75251" lon="6.70934">
        <ele>1863</ele>
        <time>2026-07-29T05:42:23.716Z</time>
      </trkpt>
      <trkpt lat="45.75251" lon="6.70932">
        <ele>1864</ele>
        <time>2026-07-29T05:42:24.716Z</time>
      </trkpt>
      <trkpt lat="45.7525" lon="6.70932">
        <ele>1864</ele>
        <time>2026-07-29T05:42:25.716Z</time>
      </trkpt>
      <trkpt lat="45.7525" lon="6.70931">
        <ele>1864</ele>
        <time>2026-07-29T05:42:26.716Z</time>
      </trkpt>
      <trkpt lat="45.7525" lon="6.7093">
        <ele>1865</ele>
        <time>2026-07-29T05:42:27.716Z</time>
      </trkpt>
      <trkpt lat="45.75249" lon="6.70929">
        <ele>1865</ele>
        <time>2026-07-29T05:42:28.716Z</time>
      </trkpt>
      <trkpt lat="45.75248" lon="6.70928">
        <ele>1865</ele>
        <time>2026-07-29T05:42:29.716Z</time>
      </trkpt>
      <trkpt lat="45.75248" lon="6.70926">
        <ele>1866</ele>
        <time>2026-07-29T05:42:30.716Z</time>
      </trkpt>
      <trkpt lat="45.75248" lon="6.70925">
        <ele>1866</ele>
        <time>2026-07-29T05:42:31.716Z</time>
      </trkpt>
      <trkpt lat="45.75248" lon="6.70924">
        <ele>1866</ele>
        <time>2026-07-29T05:42:32.716Z</time>
      </trkpt>
      <trkpt lat="45.75248" lon="6.70924">
        <ele>1867</ele>
        <time>2026-07-29T05:42:33.716Z</time>
      </trkpt>
      <trkpt lat="45.75247" lon="6.70923">
        <ele>1867</ele>
        <time>2026-07-29T05:42:34.716Z</time>
      </trkpt>
      <trkpt lat="45.75246" lon="6.70923">
        <ele>1867</ele>
        <time>2026-07-29T05:42:35.716Z</time>
      </trkpt>
      <trkpt lat="45.75246" lon="6.70923">
        <ele>1868</ele>
        <time>2026-07-29T05:42:36.716Z</time>
      </trkpt>
      <trkpt lat="45.75246" lon="6.70924">
        <ele>1868</ele>
        <time>2026-07-29T05:42:37.716Z</time>
      </trkpt>
      <trkpt lat="45.75245" lon="6.70925">
        <ele>1868</ele>
        <time>2026-07-29T05:42:38.716Z</time>
      </trkpt>
      <trkpt lat="45.75245" lon="6.70926">
        <ele>1869</ele>
        <time>2026-07-29T05:42:39.716Z</time>
      </trkpt>
      <trkpt lat="45.75244" lon="6.70926">
        <ele>1869</ele>
        <time>2026-07-29T05:42:40.716Z</time>
      </trkpt>
      <trkpt lat="45.75244" lon="6.70927">
        <ele>1869</ele>
        <time>2026-07-29T05:42:41.716Z</time>
      </trkpt>
      <trkpt lat="45.75244" lon="6.70928">
        <ele>1870</ele>
        <time>2026-07-29T05:42:42.716Z</time>
      </trkpt>
      <trkpt lat="45.75243" lon="6.7093">
        <ele>1870</ele>
        <time>2026-07-29T05:42:43.716Z</time>
      </trkpt>
      <trkpt lat="45.75243" lon="6.7093">
        <ele>1871</ele>
        <time>2026-07-29T05:42:44.716Z</time>
      </trkpt>
      <trkpt lat="45.75242" lon="6.70931">
        <ele>1871</ele>
        <time>2026-07-29T05:42:45.716Z</time>
      </trkpt>
      <trkpt lat="45.75242" lon="6.70932">
        <ele>1872</ele>
        <time>2026-07-29T05:42:46.716Z</time>
      </trkpt>
      <trkpt lat="45.75242" lon="6.70932">
        <ele>1872</ele>
        <time>2026-07-29T05:42:47.716Z</time>
      </trkpt>
      <trkpt lat="45.75242" lon="6.70932">
        <ele>1872</ele>
        <time>2026-07-29T05:42:48.716Z</time>
      </trkpt>
      <trkpt lat="45.75241" lon="6.70932">
        <ele>1873</ele>
        <time>2026-07-29T05:42:49.716Z</time>
      </trkpt>
      <trkpt lat="45.7524" lon="6.70932">
        <ele>1873</ele>
        <time>2026-07-29T05:42:50.716Z</time>
      </trkpt>
      <trkpt lat="45.7524" lon="6.70931">
        <ele>1873</ele>
        <time>2026-07-29T05:42:51.716Z</time>
      </trkpt>
      <trkpt lat="45.7524" lon="6.70931">
        <ele>1873</ele>
        <time>2026-07-29T05:42:52.716Z</time>
      </trkpt>
      <trkpt lat="45.75239" lon="6.70931">
        <ele>1873</ele>
        <time>2026-07-29T05:42:53.716Z</time>
      </trkpt>
      <trkpt lat="45.75239" lon="6.70932">
        <ele>1873</ele>
        <time>2026-07-29T05:42:54.716Z</time>
      </trkpt>
      <trkpt lat="45.75238" lon="6.70932">
        <ele>1873</ele>
        <time>2026-07-29T05:42:55.716Z</time>
      </trkpt>
      <trkpt lat="45.75237" lon="6.70931">
        <ele>1874</ele>
        <time>2026-07-29T05:42:56.716Z</time>
      </trkpt>
      <trkpt lat="45.75236" lon="6.70931">
        <ele>1874</ele>
        <time>2026-07-29T05:42:57.716Z</time>
      </trkpt>
      <trkpt lat="45.75236" lon="6.70931">
        <ele>1874</ele>
        <time>2026-07-29T05:42:58.716Z</time>
      </trkpt>
      <trkpt lat="45.75235" lon="6.70931">
        <ele>1874</ele>
        <time>2026-07-29T05:42:59.716Z</time>
      </trkpt>
      <trkpt lat="45.75235" lon="6.70931">
        <ele>1874</ele>
        <time>2026-07-29T05:43:00.716Z</time>
      </trkpt>
      <trkpt lat="45.75236" lon="6.70931">
        <ele>1874</ele>
        <time>2026-07-29T05:43:01.716Z</time>
      </trkpt>
      <trkpt lat="45.75236" lon="6.70931">
        <ele>1874</ele>
        <time>2026-07-29T05:43:02.716Z</time>
      </trkpt>
      <trkpt lat="45.75236" lon="6.70931">
        <ele>1874</ele>
        <time>2026-07-29T05:43:03.716Z</time>
      </trkpt>
      <trkpt lat="45.75235" lon="6.70931">
        <ele>1874</ele>
        <time>2026-07-29T05:43:04.716Z</time>
      </trkpt>
      <trkpt lat="45.75235" lon="6.70932">
        <ele>1874</ele>
        <time>2026-07-29T05:43:05.716Z</time>
      </trkpt>
      <trkpt lat="45.75235" lon="6.70933">
        <ele>1874</ele>
        <time>2026-07-29T05:43:06.716Z</time>
      </trkpt>
      <trkpt lat="45.75235" lon="6.70933">
        <ele>1874</ele>
        <time>2026-07-29T05:43:07.716Z</time>
      </trkpt>
      <trkpt lat="45.75235" lon="6.70934">
        <ele>1874</ele>
        <time>2026-07-29T05:43:08.716Z</time>
      </trkpt>
      <trkpt lat="45.75234" lon="6.70935">
        <ele>1874</ele>
        <time>2026-07-29T05:43:09.716Z</time>
      </trkpt>
      <trkpt lat="45.75234" lon="6.70936">
        <ele>1874</ele>
        <time>2026-07-29T05:43:10.716Z</time>
      </trkpt>
      <trkpt lat="45.75233" lon="6.70937">
        <ele>1874</ele>
        <time>2026-07-29T05:43:11.716Z</time>
      </trkpt>
      <trkpt lat="45.75233" lon="6.70937">
        <ele>1874</ele>
        <time>2026-07-29T05:43:12.716Z</time>
      </trkpt>
      <trkpt lat="45.75232" lon="6.70938">
        <ele>1875</ele>
        <time>2026-07-29T05:43:13.716Z</time>
      </trkpt>
      <trkpt lat="45.75232" lon="6.70938">
        <ele>1875</ele>
        <time>2026-07-29T05:43:14.716Z</time>
      </trkpt>
      <trkpt lat="45.75231" lon="6.70938">
        <ele>1875</ele>
        <time>2026-07-29T05:43:15.716Z</time>
      </trkpt>
      <trkpt lat="45.7523" lon="6.70939">
        <ele>1875</ele>
        <time>2026-07-29T05:43:16.716Z</time>
      </trkpt>
      <trkpt lat="45.75229" lon="6.70939">
        <ele>1875</ele>
        <time>2026-07-29T05:43:17.716Z</time>
      </trkpt>
      <trkpt lat="45.75229" lon="6.70938">
        <ele>1876</ele>
        <time>2026-07-29T05:43:18.716Z</time>
      </trkpt>
      <trkpt lat="45.75228" lon="6.70938">
        <ele>1876</ele>
        <time>2026-07-29T05:43:19.716Z</time>
      </trkpt>
      <trkpt lat="45.75228" lon="6.70938">
        <ele>1876</ele>
        <time>2026-07-29T05:43:20.716Z</time>
      </trkpt>
      <trkpt lat="45.75227" lon="6.70939">
        <ele>1876</ele>
        <time>2026-07-29T05:43:21.716Z</time>
      </trkpt>
      <trkpt lat="45.75225" lon="6.7094">
        <ele>1877</ele>
        <time>2026-07-29T05:43:22.716Z</time>
      </trkpt>
      <trkpt lat="45.75225" lon="6.7094">
        <ele>1877</ele>
        <time>2026-07-29T05:43:23.716Z</time>
      </trkpt>
      <trkpt lat="45.75224" lon="6.70941">
        <ele>1877</ele>
        <time>2026-07-29T05:43:24.716Z</time>
      </trkpt>
      <trkpt lat="45.75224" lon="6.70941">
        <ele>1877</ele>
        <time>2026-07-29T05:43:25.716Z</time>
      </trkpt>
      <trkpt lat="45.75224" lon="6.70942">
        <ele>1878</ele>
        <time>2026-07-29T05:43:26.716Z</time>
      </trkpt>
      <trkpt lat="45.75223" lon="6.70943">
        <ele>1878</ele>
        <time>2026-07-29T05:43:27.716Z</time>
      </trkpt>
      <trkpt lat="45.75223" lon="6.70944">
        <ele>1879</ele>
        <time>2026-07-29T05:43:28.716Z</time>
      </trkpt>
      <trkpt lat="45.75223" lon="6.70945">
        <ele>1880</ele>
        <time>2026-07-29T05:43:29.716Z</time>
      </trkpt>
      <trkpt lat="45.75222" lon="6.70945">
        <ele>1880</ele>
        <time>2026-07-29T05:43:30.716Z</time>
      </trkpt>
      <trkpt lat="45.75222" lon="6.70946">
        <ele>1880</ele>
        <time>2026-07-29T05:43:31.716Z</time>
      </trkpt>
      <trkpt lat="45.75221" lon="6.70946">
        <ele>1881</ele>
        <time>2026-07-29T05:43:32.716Z</time>
      </trkpt>
      <trkpt lat="45.75221" lon="6.70945">
        <ele>1881</ele>
        <time>2026-07-29T05:43:33.716Z</time>
      </trkpt>
      <trkpt lat="45.7522" lon="6.70945">
        <ele>1882</ele>
        <time>2026-07-29T05:43:34.716Z</time>
      </trkpt>
      <trkpt lat="45.7522" lon="6.70945">
        <ele>1882</ele>
        <time>2026-07-29T05:43:35.716Z</time>
      </trkpt>
      <trkpt lat="45.7522" lon="6.70946">
        <ele>1882</ele>
        <time>2026-07-29T05:43:36.716Z</time>
      </trkpt>
      <trkpt lat="45.7522" lon="6.70946">
        <ele>1883</ele>
        <time>2026-07-29T05:43:37.716Z</time>
      </trkpt>
      <trkpt lat="45.75219" lon="6.70947">
        <ele>1883</ele>
        <time>2026-07-29T05:43:38.716Z</time>
      </trkpt>
      <trkpt lat="45.75219" lon="6.70948">
        <ele>1884</ele>
        <time>2026-07-29T05:43:39.716Z</time>
      </trkpt>
      <trkpt lat="45.75219" lon="6.70948">
        <ele>1884</ele>
        <time>2026-07-29T05:43:40.716Z</time>
      </trkpt>
      <trkpt lat="45.75218" lon="6.70949">
        <ele>1884</ele>
        <time>2026-07-29T05:43:41.716Z</time>
      </trkpt>
      <trkpt lat="45.75218" lon="6.7095">
        <ele>1884</ele>
        <time>2026-07-29T05:43:42.716Z</time>
      </trkpt>
      <trkpt lat="45.75216" lon="6.70951">
        <ele>1884</ele>
        <time>2026-07-29T05:43:43.716Z</time>
      </trkpt>
      <trkpt lat="45.75215" lon="6.70951">
        <ele>1884</ele>
        <time>2026-07-29T05:43:44.716Z</time>
      </trkpt>
      <trkpt lat="45.75215" lon="6.70952">
        <ele>1885</ele>
        <time>2026-07-29T05:43:45.716Z</time>
      </trkpt>
      <trkpt lat="45.75215" lon="6.70953">
        <ele>1885</ele>
        <time>2026-07-29T05:43:46.716Z</time>
      </trkpt>
      <trkpt lat="45.75215" lon="6.70953">
        <ele>1885</ele>
        <time>2026-07-29T05:43:47.716Z</time>
      </trkpt>
      <trkpt lat="45.75215" lon="6.70953">
        <ele>1885</ele>
        <time>2026-07-29T05:43:48.716Z</time>
      </trkpt>
      <trkpt lat="45.75215" lon="6.70953">
        <ele>1886</ele>
        <time>2026-07-29T05:43:49.716Z</time>
      </trkpt>
      <trkpt lat="45.75215" lon="6.70953">
        <ele>1886</ele>
        <time>2026-07-29T05:43:50.716Z</time>
      </trkpt>
      <trkpt lat="45.75215" lon="6.70953">
        <ele>1886</ele>
        <time>2026-07-29T05:43:51.716Z</time>
      </trkpt>
      <trkpt lat="45.75215" lon="6.70953">
        <ele>1887</ele>
        <time>2026-07-29T05:43:52.716Z</time>
      </trkpt>
      <trkpt lat="45.75215" lon="6.70953">
        <ele>1887</ele>
        <time>2026-07-29T05:43:53.716Z</time>
      </trkpt>
      <trkpt lat="45.75214" lon="6.70953">
        <ele>1887</ele>
        <time>2026-07-29T05:43:54.716Z</time>
      </trkpt>
      <trkpt lat="45.75214" lon="6.70953">
        <ele>1887</ele>
        <time>2026-07-29T05:43:55.716Z</time>
      </trkpt>
      <trkpt lat="45.75214" lon="6.70953">
        <ele>1887</ele>
        <time>2026-07-29T05:43:56.716Z</time>
      </trkpt>
      <trkpt lat="45.75214" lon="6.70953">
        <ele>1888</ele>
        <time>2026-07-29T05:43:57.716Z</time>
      </trkpt>
      <trkpt lat="45.75214" lon="6.70953">
        <ele>1888</ele>
        <time>2026-07-29T05:43:58.716Z</time>
      </trkpt>
      <trkpt lat="45.75214" lon="6.70953">
        <ele>1888</ele>
        <time>2026-07-29T05:43:59.716Z</time>
      </trkpt>
      <trkpt lat="45.75214" lon="6.70953">
        <ele>1888</ele>
        <time>2026-07-29T05:44:00.716Z</time>
      </trkpt>
      <trkpt lat="45.75214" lon="6.70953">
        <ele>1888</ele>
        <time>2026-07-29T05:44:01.716Z</time>
      </trkpt>
      <trkpt lat="45.75214" lon="6.70953">
        <ele>1889</ele>
        <time>2026-07-29T05:44:02.716Z</time>
      </trkpt>
      <trkpt lat="45.75214" lon="6.70954">
        <ele>1889</ele>
        <time>2026-07-29T05:44:03.716Z</time>
      </trkpt>
      <trkpt lat="45.75214" lon="6.70954">
        <ele>1889</ele>
        <time>2026-07-29T05:44:04.716Z</time>
      </trkpt>
      <trkpt lat="45.75214" lon="6.70955">
        <ele>1889</ele>
        <time>2026-07-29T05:44:05.716Z</time>
      </trkpt>
      <trkpt lat="45.75213" lon="6.70956">
        <ele>1889</ele>
        <time>2026-07-29T05:44:06.716Z</time>
      </trkpt>
      <trkpt lat="45.75213" lon="6.70957">
        <ele>1889</ele>
        <time>2026-07-29T05:44:07.716Z</time>
      </trkpt>
      <trkpt lat="45.75213" lon="6.70958">
        <ele>1889</ele>
        <time>2026-07-29T05:44:08.716Z</time>
      </trkpt>
      <trkpt lat="45.75212" lon="6.70959">
        <ele>1889</ele>
        <time>2026-07-29T05:44:09.716Z</time>
      </trkpt>
      <trkpt lat="45.75211" lon="6.70961">
        <ele>1888</ele>
        <time>2026-07-29T05:44:10.716Z</time>
      </trkpt>
      <trkpt lat="45.75211" lon="6.70962">
        <ele>1888</ele>
        <time>2026-07-29T05:44:11.716Z</time>
      </trkpt>
      <trkpt lat="45.75209" lon="6.70964">
        <ele>1888</ele>
        <time>2026-07-29T05:44:12.716Z</time>
      </trkpt>
      <trkpt lat="45.75208" lon="6.70966">
        <ele>1888</ele>
        <time>2026-07-29T05:44:13.716Z</time>
      </trkpt>
      <trkpt lat="45.75208" lon="6.70969">
        <ele>1887</ele>
        <time>2026-07-29T05:44:14.716Z</time>
      </trkpt>
      <trkpt lat="45.75207" lon="6.70972">
        <ele>1887</ele>
        <time>2026-07-29T05:44:15.716Z</time>
      </trkpt>
      <trkpt lat="45.75207" lon="6.70974">
        <ele>1887</ele>
        <time>2026-07-29T05:44:16.716Z</time>
      </trkpt>
      <trkpt lat="45.75206" lon="6.70977">
        <ele>1887</ele>
        <time>2026-07-29T05:44:17.716Z</time>
      </trkpt>
      <trkpt lat="45.75205" lon="6.7098">
        <ele>1887</ele>
        <time>2026-07-29T05:44:18.716Z</time>
      </trkpt>
      <trkpt lat="45.75205" lon="6.70982">
        <ele>1887</ele>
        <time>2026-07-29T05:44:19.716Z</time>
      </trkpt>
      <trkpt lat="45.75204" lon="6.70985">
        <ele>1887</ele>
        <time>2026-07-29T05:44:20.716Z</time>
      </trkpt>
      <trkpt lat="45.75204" lon="6.70986">
        <ele>1887</ele>
        <time>2026-07-29T05:44:21.716Z</time>
      </trkpt>
      <trkpt lat="45.75204" lon="6.70988">
        <ele>1887</ele>
        <time>2026-07-29T05:44:22.716Z</time>
      </trkpt>
      <trkpt lat="45.75204" lon="6.7099">
        <ele>1887</ele>
        <time>2026-07-29T05:44:23.716Z</time>
      </trkpt>
      <trkpt lat="45.75205" lon="6.70991">
        <ele>1887</ele>
        <time>2026-07-29T05:44:24.716Z</time>
      </trkpt>
      <trkpt lat="45.75205" lon="6.70993">
        <ele>1887</ele>
        <time>2026-07-29T05:44:25.716Z</time>
      </trkpt>
      <trkpt lat="45.75206" lon="6.70995">
        <ele>1887</ele>
        <time>2026-07-29T05:44:26.716Z</time>
      </trkpt>
      <trkpt lat="45.75206" lon="6.70998">
        <ele>1887</ele>
        <time>2026-07-29T05:44:27.716Z</time>
      </trkpt>
      <trkpt lat="45.75207" lon="6.71001">
        <ele>1887</ele>
        <time>2026-07-29T05:44:28.716Z</time>
      </trkpt>
      <trkpt lat="45.75208" lon="6.71003">
        <ele>1887</ele>
        <time>2026-07-29T05:44:29.716Z</time>
      </trkpt>
      <trkpt lat="45.75208" lon="6.71005">
        <ele>1887</ele>
        <time>2026-07-29T05:44:30.716Z</time>
      </trkpt>
      <trkpt lat="45.75209" lon="6.71008">
        <ele>1887</ele>
        <time>2026-07-29T05:44:31.716Z</time>
      </trkpt>
      <trkpt lat="45.75209" lon="6.7101">
        <ele>1887</ele>
        <time>2026-07-29T05:44:32.716Z</time>
      </trkpt>
      <trkpt lat="45.75208" lon="6.71011">
        <ele>1887</ele>
        <time>2026-07-29T05:44:33.716Z</time>
      </trkpt>
      <trkpt lat="45.75208" lon="6.71012">
        <ele>1887</ele>
        <time>2026-07-29T05:44:34.716Z</time>
      </trkpt>
      <trkpt lat="45.75206" lon="6.71014">
        <ele>1887</ele>
        <time>2026-07-29T05:44:35.716Z</time>
      </trkpt>
      <trkpt lat="45.75205" lon="6.71015">
        <ele>1887</ele>
        <time>2026-07-29T05:44:36.716Z</time>
      </trkpt>
      <trkpt lat="45.75204" lon="6.71016">
        <ele>1886</ele>
        <time>2026-07-29T05:44:37.716Z</time>
      </trkpt>
      <trkpt lat="45.75203" lon="6.71017">
        <ele>1886</ele>
        <time>2026-07-29T05:44:38.716Z</time>
      </trkpt>
      <trkpt lat="45.75202" lon="6.71018">
        <ele>1886</ele>
        <time>2026-07-29T05:44:39.716Z</time>
      </trkpt>
      <trkpt lat="45.75201" lon="6.71019">
        <ele>1886</ele>
        <time>2026-07-29T05:44:40.716Z</time>
      </trkpt>
      <trkpt lat="45.752" lon="6.7102">
        <ele>1885</ele>
        <time>2026-07-29T05:44:41.716Z</time>
      </trkpt>
      <trkpt lat="45.75199" lon="6.71021">
        <ele>1885</ele>
        <time>2026-07-29T05:44:42.716Z</time>
      </trkpt>
      <trkpt lat="45.75198" lon="6.71023">
        <ele>1885</ele>
        <time>2026-07-29T05:44:43.716Z</time>
      </trkpt>
      <trkpt lat="45.75197" lon="6.71024">
        <ele>1884</ele>
        <time>2026-07-29T05:44:44.716Z</time>
      </trkpt>
      <trkpt lat="45.75197" lon="6.71025">
        <ele>1884</ele>
        <time>2026-07-29T05:44:45.716Z</time>
      </trkpt>
      <trkpt lat="45.75196" lon="6.71026">
        <ele>1883</ele>
        <time>2026-07-29T05:44:46.716Z</time>
      </trkpt>
      <trkpt lat="45.75195" lon="6.71027">
        <ele>1883</ele>
        <time>2026-07-29T05:44:47.716Z</time>
      </trkpt>
      <trkpt lat="45.75194" lon="6.71029">
        <ele>1882</ele>
        <time>2026-07-29T05:44:48.716Z</time>
      </trkpt>
      <trkpt lat="45.75193" lon="6.7103">
        <ele>1881</ele>
        <time>2026-07-29T05:44:49.716Z</time>
      </trkpt>
      <trkpt lat="45.75192" lon="6.71031">
        <ele>1881</ele>
        <time>2026-07-29T05:44:50.716Z</time>
      </trkpt>
      <trkpt lat="45.75192" lon="6.71031">
        <ele>1880</ele>
        <time>2026-07-29T05:44:51.716Z</time>
      </trkpt>
      <trkpt lat="45.75192" lon="6.71031">
        <ele>1880</ele>
        <time>2026-07-29T05:44:52.716Z</time>
      </trkpt>
      <trkpt lat="45.75191" lon="6.71032">
        <ele>1880</ele>
        <time>2026-07-29T05:44:53.716Z</time>
      </trkpt>
      <trkpt lat="45.75191" lon="6.71032">
        <ele>1880</ele>
        <time>2026-07-29T05:44:54.716Z</time>
      </trkpt>
      <trkpt lat="45.75191" lon="6.71032">
        <ele>1880</ele>
        <time>2026-07-29T05:44:55.716Z</time>
      </trkpt>
      <trkpt lat="45.75191" lon="6.71032">
        <ele>1880</ele>
        <time>2026-07-29T05:44:56.716Z</time>
      </trkpt>
      <trkpt lat="45.75191" lon="6.71032">
        <ele>1880</ele>
        <time>2026-07-29T05:44:57.716Z</time>
      </trkpt>
      <trkpt lat="45.75191" lon="6.71032">
        <ele>1880</ele>
        <time>2026-07-29T05:44:58.716Z</time>
      </trkpt>
      <trkpt lat="45.7519" lon="6.71032">
        <ele>1880</ele>
        <time>2026-07-29T05:44:59.716Z</time>
      </trkpt>
      <trkpt lat="45.7519" lon="6.71032">
        <ele>1880</ele>
        <time>2026-07-29T05:45:00.716Z</time>
      </trkpt>
      <trkpt lat="45.7519" lon="6.71032">
        <ele>1880</ele>
        <time>2026-07-29T05:45:01.716Z</time>
      </trkpt>
      <trkpt lat="45.7519" lon="6.71033">
        <ele>1879</ele>
        <time>2026-07-29T05:45:02.716Z</time>
      </trkpt>
      <trkpt lat="45.7519" lon="6.71032">
        <ele>1880</ele>
        <time>2026-07-29T05:45:03.716Z</time>
      </trkpt>
      <trkpt lat="45.75191" lon="6.71033">
        <ele>1880</ele>
        <time>2026-07-29T05:45:04.716Z</time>
      </trkpt>
      <trkpt lat="45.7519" lon="6.71033">
        <ele>1880</ele>
        <time>2026-07-29T05:45:05.716Z</time>
      </trkpt>
      <trkpt lat="45.7519" lon="6.71033">
        <ele>1880</ele>
        <time>2026-07-29T05:45:06.716Z</time>
      </trkpt>
      <trkpt lat="45.7519" lon="6.71033">
        <ele>1881</ele>
        <time>2026-07-29T05:45:07.716Z</time>
      </trkpt>
      <trkpt lat="45.7519" lon="6.71033">
        <ele>1881</ele>
        <time>2026-07-29T05:45:08.716Z</time>
      </trkpt>
      <trkpt lat="45.7519" lon="6.71033">
        <ele>1881</ele>
        <time>2026-07-29T05:45:09.716Z</time>
      </trkpt>
      <trkpt lat="45.7519" lon="6.71033">
        <ele>1881</ele>
        <time>2026-07-29T05:45:10.716Z</time>
      </trkpt>
      <trkpt lat="45.7519" lon="6.71033">
        <ele>1881</ele>
        <time>2026-07-29T05:45:11.716Z</time>
      </trkpt>
      <trkpt lat="45.7519" lon="6.71033">
        <ele>1881</ele>
        <time>2026-07-29T05:45:12.716Z</time>
      </trkpt>
      <trkpt lat="45.7519" lon="6.71033">
        <ele>1881</ele>
        <time>2026-07-29T05:45:13.716Z</time>
      </trkpt>
      <trkpt lat="45.7519" lon="6.71033">
        <ele>1881</ele>
        <time>2026-07-29T05:45:14.716Z</time>
      </trkpt>
      <trkpt lat="45.7519" lon="6.71033">
        <ele>1881</ele>
        <time>2026-07-29T05:45:15.716Z</time>
      </trkpt>
      <trkpt lat="45.7519" lon="6.71033">
        <ele>1880</ele>
        <time>2026-07-29T05:45:16.716Z</time>
      </trkpt>
      <trkpt lat="45.7519" lon="6.71033">
        <ele>1880</ele>
        <time>2026-07-29T05:45:17.716Z</time>
      </trkpt>
      <trkpt lat="45.7519" lon="6.71033">
        <ele>1880</ele>
        <time>2026-07-29T05:45:18.716Z</time>
      </trkpt>
      <trkpt lat="45.7519" lon="6.71033">
        <ele>1880</ele>
        <time>2026-07-29T05:45:19.716Z</time>
      </trkpt>
      <trkpt lat="45.7519" lon="6.71033">
        <ele>1881</ele>
        <time>2026-07-29T05:45:20.716Z</time>
      </trkpt>
      <trkpt lat="45.7519" lon="6.71033">
        <ele>1881</ele>
        <time>2026-07-29T05:45:21.716Z</time>
      </trkpt>
      <trkpt lat="45.7519" lon="6.71033">
        <ele>1881</ele>
        <time>2026-07-29T05:45:22.716Z</time>
      </trkpt>
      <trkpt lat="45.7519" lon="6.71033">
        <ele>1881</ele>
        <time>2026-07-29T05:45:23.716Z</time>
      </trkpt>
      <trkpt lat="45.7519" lon="6.71033">
        <ele>1881</ele>
        <time>2026-07-29T05:45:24.716Z</time>
      </trkpt>
      <trkpt lat="45.7519" lon="6.71033">
        <ele>1881</ele>
        <time>2026-07-29T05:45:25.716Z</time>
      </trkpt>
      <trkpt lat="45.7519" lon="6.71033">
        <ele>1881</ele>
        <time>2026-07-29T05:45:26.716Z</time>
      </trkpt>
      <trkpt lat="45.7519" lon="6.71033">
        <ele>1881</ele>
        <time>2026-07-29T05:45:27.716Z</time>
      </trkpt>
      <trkpt lat="45.7519" lon="6.71033">
        <ele>1881</ele>
        <time>2026-07-29T05:45:28.716Z</time>
      </trkpt>
      <trkpt lat="45.7519" lon="6.71033">
        <ele>1881</ele>
        <time>2026-07-29T05:45:29.716Z</time>
      </trkpt>
      <trkpt lat="45.75189" lon="6.71033">
        <ele>1881</ele>
        <time>2026-07-29T05:45:30.716Z</time>
      </trkpt>
      <trkpt lat="45.75189" lon="6.71033">
        <ele>1881</ele>
        <time>2026-07-29T05:45:31.716Z</time>
      </trkpt>
      <trkpt lat="45.75189" lon="6.71033">
        <ele>1881</ele>
        <time>2026-07-29T05:45:32.716Z</time>
      </trkpt>
      <trkpt lat="45.75189" lon="6.71033">
        <ele>1881</ele>
        <time>2026-07-29T05:45:33.716Z</time>
      </trkpt>
      <trkpt lat="45.75189" lon="6.71033">
        <ele>1881</ele>
        <time>2026-07-29T05:45:34.716Z</time>
      </trkpt>
      <trkpt lat="45.75189" lon="6.71033">
        <ele>1881</ele>
        <time>2026-07-29T05:45:35.716Z</time>
      </trkpt>
      <trkpt lat="45.75189" lon="6.71033">
        <ele>1880</ele>
        <time>2026-07-29T05:45:36.716Z</time>
      </trkpt>
      <trkpt lat="45.75189" lon="6.71033">
        <ele>1880</ele>
        <time>2026-07-29T05:45:37.716Z</time>
      </trkpt>
      <trkpt lat="45.75189" lon="6.71033">
        <ele>1880</ele>
        <time>2026-07-29T05:45:38.716Z</time>
      </trkpt>
      <trkpt lat="45.75189" lon="6.71033">
        <ele>1880</ele>
        <time>2026-07-29T05:45:39.716Z</time>
      </trkpt>
      <trkpt lat="45.75189" lon="6.71033">
        <ele>1880</ele>
        <time>2026-07-29T05:45:40.716Z</time>
      </trkpt>
      <trkpt lat="45.75189" lon="6.71033">
        <ele>1880</ele>
        <time>2026-07-29T05:45:41.716Z</time>
      </trkpt>
      <trkpt lat="45.75189" lon="6.71033">
        <ele>1880</ele>
        <time>2026-07-29T05:45:42.716Z</time>
      </trkpt>
      <trkpt lat="45.75189" lon="6.71033">
        <ele>1880</ele>
        <time>2026-07-29T05:45:43.716Z</time>
      </trkpt>
      <trkpt lat="45.75189" lon="6.71033">
        <ele>1880</ele>
        <time>2026-07-29T05:45:44.716Z</time>
      </trkpt>
      <trkpt lat="45.75189" lon="6.71033">
        <ele>1880</ele>
        <time>2026-07-29T05:45:45.716Z</time>
      </trkpt>
      <trkpt lat="45.75189" lon="6.71033">
        <ele>1880</ele>
        <time>2026-07-29T05:45:46.716Z</time>
      </trkpt>
      <trkpt lat="45.75189" lon="6.71033">
        <ele>1880</ele>
        <time>2026-07-29T05:45:47.716Z</time>
      </trkpt>
      <trkpt lat="45.75189" lon="6.71033">
        <ele>1880</ele>
        <time>2026-07-29T05:45:48.716Z</time>
      </trkpt>
      <trkpt lat="45.75189" lon="6.71033">
        <ele>1881</ele>
        <time>2026-07-29T05:45:49.716Z</time>
      </trkpt>
      <trkpt lat="45.75189" lon="6.71033">
        <ele>1881</ele>
        <time>2026-07-29T05:45:50.716Z</time>
      </trkpt>
      <trkpt lat="45.75189" lon="6.71033">
        <ele>1881</ele>
        <time>2026-07-29T05:45:51.716Z</time>
      </trkpt>
      <trkpt lat="45.75189" lon="6.71033">
        <ele>1881</ele>
        <time>2026-07-29T05:45:52.716Z</time>
      </trkpt>
      <trkpt lat="45.75189" lon="6.71033">
        <ele>1881</ele>
        <time>2026-07-29T05:45:53.716Z</time>
      </trkpt>
      <trkpt lat="45.75189" lon="6.71033">
        <ele>1881</ele>
        <time>2026-07-29T05:45:54.716Z</time>
      </trkpt>
      <trkpt lat="45.7519" lon="6.71033">
        <ele>1881</ele>
        <time>2026-07-29T05:45:55.716Z</time>
      </trkpt>
      <trkpt lat="45.7519" lon="6.71034">
        <ele>1881</ele>
        <time>2026-07-29T05:45:56.716Z</time>
      </trkpt>
      <trkpt lat="45.7519" lon="6.71034">
        <ele>1881</ele>
        <time>2026-07-29T05:45:57.716Z</time>
      </trkpt>
      <trkpt lat="45.7519" lon="6.71034">
        <ele>1881</ele>
        <time>2026-07-29T05:45:58.716Z</time>
      </trkpt>
      <trkpt lat="45.7519" lon="6.71034">
        <ele>1881</ele>
        <time>2026-07-29T05:45:59.716Z</time>
      </trkpt>
      <trkpt lat="45.7519" lon="6.71034">
        <ele>1881</ele>
        <time>2026-07-29T05:46:00.716Z</time>
      </trkpt>
      <trkpt lat="45.7519" lon="6.71034">
        <ele>1881</ele>
        <time>2026-07-29T05:46:01.716Z</time>
      </trkpt>
      <trkpt lat="45.7519" lon="6.71034">
        <ele>1881</ele>
        <time>2026-07-29T05:46:02.716Z</time>
      </trkpt>
      <trkpt lat="45.7519" lon="6.71034">
        <ele>1881</ele>
        <time>2026-07-29T05:46:03.716Z</time>
      </trkpt>
      <trkpt lat="45.7519" lon="6.71034">
        <ele>1881</ele>
        <time>2026-07-29T05:46:04.716Z</time>
      </trkpt>
      <trkpt lat="45.7519" lon="6.71034">
        <ele>1881</ele>
        <time>2026-07-29T05:46:05.716Z</time>
      </trkpt>
      <trkpt lat="45.7519" lon="6.71034">
        <ele>1881</ele>
        <time>2026-07-29T05:46:06.716Z</time>
      </trkpt>
      <trkpt lat="45.7519" lon="6.71034">
        <ele>1881</ele>
        <time>2026-07-29T05:46:07.716Z</time>
      </trkpt>
      <trkpt lat="45.7519" lon="6.71034">
        <ele>1881</ele>
        <time>2026-07-29T05:46:08.716Z</time>
      </trkpt>
      <trkpt lat="45.7519" lon="6.71034">
        <ele>1881</ele>
        <time>2026-07-29T05:46:09.716Z</time>
      </trkpt>
      <trkpt lat="45.7519" lon="6.71034">
        <ele>1881</ele>
        <time>2026-07-29T05:46:10.716Z</time>
      </trkpt>
      <trkpt lat="45.7519" lon="6.71034">
        <ele>1881</ele>
        <time>2026-07-29T05:46:11.716Z</time>
      </trkpt>
      <trkpt lat="45.7519" lon="6.71034">
        <ele>1881</ele>
        <time>2026-07-29T05:46:12.716Z</time>
      </trkpt>
      <trkpt lat="45.7519" lon="6.71034">
        <ele>1881</ele>
        <time>2026-07-29T05:46:13.716Z</time>
      </trkpt>
      <trkpt lat="45.75189" lon="6.71034">
        <ele>1881</ele>
        <time>2026-07-29T05:46:14.716Z</time>
      </trkpt>
      <trkpt lat="45.75189" lon="6.71034">
        <ele>1881</ele>
        <time>2026-07-29T05:46:15.716Z</time>
      </trkpt>
      <trkpt lat="45.75189" lon="6.71034">
        <ele>1881</ele>
        <time>2026-07-29T05:46:16.716Z</time>
      </trkpt>
      <trkpt lat="45.75189" lon="6.71034">
        <ele>1881</ele>
        <time>2026-07-29T05:46:17.716Z</time>
      </trkpt>
      <trkpt lat="45.75189" lon="6.71034">
        <ele>1881</ele>
        <time>2026-07-29T05:46:18.716Z</time>
      </trkpt>
      <trkpt lat="45.75189" lon="6.71034">
        <ele>1881</ele>
        <time>2026-07-29T05:46:19.716Z</time>
      </trkpt>
      <trkpt lat="45.75189" lon="6.71034">
        <ele>1881</ele>
        <time>2026-07-29T05:46:20.716Z</time>
      </trkpt>
      <trkpt lat="45.75189" lon="6.71034">
        <ele>1881</ele>
        <time>2026-07-29T05:46:21.716Z</time>
      </trkpt>
      <trkpt lat="45.75189" lon="6.71034">
        <ele>1881</ele>
        <time>2026-07-29T05:46:22.716Z</time>
      </trkpt>
      <trkpt lat="45.75189" lon="6.71034">
        <ele>1881</ele>
        <time>2026-07-29T05:46:23.716Z</time>
      </trkpt>
      <trkpt lat="45.75189" lon="6.71034">
        <ele>1881</ele>
        <time>2026-07-29T05:46:24.716Z</time>
      </trkpt>
      <trkpt lat="45.75189" lon="6.71034">
        <ele>1881</ele>
        <time>2026-07-29T05:46:25.716Z</time>
      </trkpt>
      <trkpt lat="45.75189" lon="6.71034">
        <ele>1881</ele>
        <time>2026-07-29T05:46:26.716Z</time>
      </trkpt>
      <trkpt lat="45.75189" lon="6.71034">
        <ele>1881</ele>
        <time>2026-07-29T05:46:27.716Z</time>
      </trkpt>
      <trkpt lat="45.75189" lon="6.71034">
        <ele>1881</ele>
        <time>2026-07-29T05:46:28.716Z</time>
      </trkpt>
      <trkpt lat="45.75189" lon="6.71034">
        <ele>1881</ele>
        <time>2026-07-29T05:46:29.716Z</time>
      </trkpt>
      <trkpt lat="45.75189" lon="6.71034">
        <ele>1881</ele>
        <time>2026-07-29T05:46:30.716Z</time>
      </trkpt>
      <trkpt lat="45.75189" lon="6.71034">
        <ele>1881</ele>
        <time>2026-07-29T05:46:31.716Z</time>
      </trkpt>
      <trkpt lat="45.75189" lon="6.71034">
        <ele>1881</ele>
        <time>2026-07-29T05:46:32.716Z</time>
      </trkpt>
      <trkpt lat="45.75189" lon="6.71034">
        <ele>1881</ele>
        <time>2026-07-29T05:46:33.716Z</time>
      </trkpt>
      <trkpt lat="45.75189" lon="6.71034">
        <ele>1881</ele>
        <time>2026-07-29T05:46:34.716Z</time>
      </trkpt>
      <trkpt lat="45.75189" lon="6.71034">
        <ele>1881</ele>
        <time>2026-07-29T05:46:35.716Z</time>
      </trkpt>
      <trkpt lat="45.75189" lon="6.71034">
        <ele>1881</ele>
        <time>2026-07-29T05:46:36.716Z</time>
      </trkpt>
      <trkpt lat="45.75189" lon="6.71034">
        <ele>1881</ele>
        <time>2026-07-29T05:46:37.716Z</time>
      </trkpt>
      <trkpt lat="45.75189" lon="6.71034">
        <ele>1881</ele>
        <time>2026-07-29T05:46:38.716Z</time>
      </trkpt>
      <trkpt lat="45.75189" lon="6.71034">
        <ele>1881</ele>
        <time>2026-07-29T05:46:39.716Z</time>
      </trkpt>
      <trkpt lat="45.75189" lon="6.71034">
        <ele>1881</ele>
        <time>2026-07-29T05:46:40.716Z</time>
      </trkpt>
      <trkpt lat="45.75189" lon="6.71034">
        <ele>1881</ele>
        <time>2026-07-29T05:46:41.716Z</time>
      </trkpt>
      <trkpt lat="45.75189" lon="6.71034">
        <ele>1881</ele>
        <time>2026-07-29T05:46:42.717Z</time>
      </trkpt>
      <trkpt lat="45.75189" lon="6.71034">
        <ele>1881</ele>
        <time>2026-07-29T05:46:43.716Z</time>
      </trkpt>
      <trkpt lat="45.75189" lon="6.71034">
        <ele>1881</ele>
        <time>2026-07-29T05:46:44.716Z</time>
      </trkpt>
      <trkpt lat="45.75189" lon="6.71034">
        <ele>1881</ele>
        <time>2026-07-29T05:46:45.716Z</time>
      </trkpt>
      <trkpt lat="45.75189" lon="6.71034">
        <ele>1881</ele>
        <time>2026-07-29T05:46:46.716Z</time>
      </trkpt>
      <trkpt lat="45.75189" lon="6.71033">
        <ele>1881</ele>
        <time>2026-07-29T05:46:47.716Z</time>
      </trkpt>
      <trkpt lat="45.7519" lon="6.71032">
        <ele>1881</ele>
        <time>2026-07-29T05:46:48.716Z</time>
      </trkpt>
      <trkpt lat="45.75191" lon="6.7103">
        <ele>1881</ele>
        <time>2026-07-29T05:46:49.716Z</time>
      </trkpt>
      <trkpt lat="45.75192" lon="6.71027">
        <ele>1881</ele>
        <time>2026-07-29T05:46:50.716Z</time>
      </trkpt>
      <trkpt lat="45.75194" lon="6.71026">
        <ele>1881</ele>
        <time>2026-07-29T05:46:51.716Z</time>
      </trkpt>
      <trkpt lat="45.75195" lon="6.71024">
        <ele>1881</ele>
        <time>2026-07-29T05:46:52.716Z</time>
      </trkpt>
      <trkpt lat="45.75196" lon="6.71022">
        <ele>1881</ele>
        <time>2026-07-29T05:46:53.716Z</time>
      </trkpt>
      <trkpt lat="45.75197" lon="6.7102">
        <ele>1881</ele>
        <time>2026-07-29T05:46:54.716Z</time>
      </trkpt>
      <trkpt lat="45.75198" lon="6.71019">
        <ele>1881</ele>
        <time>2026-07-29T05:46:55.716Z</time>
      </trkpt>
      <trkpt lat="45.752" lon="6.71018">
        <ele>1881</ele>
        <time>2026-07-29T05:46:56.716Z</time>
      </trkpt>
      <trkpt lat="45.75201" lon="6.71017">
        <ele>1882</ele>
        <time>2026-07-29T05:46:57.716Z</time>
      </trkpt>
      <trkpt lat="45.75202" lon="6.71016">
        <ele>1882</ele>
        <time>2026-07-29T05:46:58.716Z</time>
      </trkpt>
      <trkpt lat="45.75203" lon="6.71016">
        <ele>1882</ele>
        <time>2026-07-29T05:46:59.716Z</time>
      </trkpt>
      <trkpt lat="45.75204" lon="6.71015">
        <ele>1882</ele>
        <time>2026-07-29T05:47:00.716Z</time>
      </trkpt>
      <trkpt lat="45.75205" lon="6.71015">
        <ele>1882</ele>
        <time>2026-07-29T05:47:01.716Z</time>
      </trkpt>
      <trkpt lat="45.75205" lon="6.71014">
        <ele>1882</ele>
        <time>2026-07-29T05:47:02.716Z</time>
      </trkpt>
      <trkpt lat="45.75205" lon="6.71012">
        <ele>1882</ele>
        <time>2026-07-29T05:47:03.716Z</time>
      </trkpt>
      <trkpt lat="45.75206" lon="6.71011">
        <ele>1882</ele>
        <time>2026-07-29T05:47:04.716Z</time>
      </trkpt>
      <trkpt lat="45.75206" lon="6.71009">
        <ele>1883</ele>
        <time>2026-07-29T05:47:05.716Z</time>
      </trkpt>
      <trkpt lat="45.75206" lon="6.71007">
        <ele>1883</ele>
        <time>2026-07-29T05:47:06.716Z</time>
      </trkpt>
      <trkpt lat="45.75207" lon="6.71006">
        <ele>1883</ele>
        <time>2026-07-29T05:47:07.716Z</time>
      </trkpt>
      <trkpt lat="45.75208" lon="6.71004">
        <ele>1883</ele>
        <time>2026-07-29T05:47:08.716Z</time>
      </trkpt>
      <trkpt lat="45.75207" lon="6.71001">
        <ele>1884</ele>
        <time>2026-07-29T05:47:09.716Z</time>
      </trkpt>
      <trkpt lat="45.75206" lon="6.70999">
        <ele>1884</ele>
        <time>2026-07-29T05:47:10.716Z</time>
      </trkpt>
      <trkpt lat="45.75206" lon="6.70996">
        <ele>1884</ele>
        <time>2026-07-29T05:47:11.716Z</time>
      </trkpt>
      <trkpt lat="45.75205" lon="6.70994">
        <ele>1884</ele>
        <time>2026-07-29T05:47:12.716Z</time>
      </trkpt>
      <trkpt lat="45.75205" lon="6.70992">
        <ele>1885</ele>
        <time>2026-07-29T05:47:13.716Z</time>
      </trkpt>
      <trkpt lat="45.75205" lon="6.70991">
        <ele>1885</ele>
        <time>2026-07-29T05:47:14.716Z</time>
      </trkpt>
      <trkpt lat="45.75204" lon="6.7099">
        <ele>1885</ele>
        <time>2026-07-29T05:47:15.716Z</time>
      </trkpt>
      <trkpt lat="45.75204" lon="6.70988">
        <ele>1885</ele>
        <time>2026-07-29T05:47:16.716Z</time>
      </trkpt>
      <trkpt lat="45.75204" lon="6.70986">
        <ele>1886</ele>
        <time>2026-07-29T05:47:17.716Z</time>
      </trkpt>
      <trkpt lat="45.75204" lon="6.70984">
        <ele>1886</ele>
        <time>2026-07-29T05:47:18.716Z</time>
      </trkpt>
      <trkpt lat="45.75204" lon="6.70982">
        <ele>1886</ele>
        <time>2026-07-29T05:47:19.716Z</time>
      </trkpt>
      <trkpt lat="45.75205" lon="6.70979">
        <ele>1886</ele>
        <time>2026-07-29T05:47:20.716Z</time>
      </trkpt>
      <trkpt lat="45.75206" lon="6.70977">
        <ele>1886</ele>
        <time>2026-07-29T05:47:21.716Z</time>
      </trkpt>
      <trkpt lat="45.75206" lon="6.70974">
        <ele>1887</ele>
        <time>2026-07-29T05:47:22.716Z</time>
      </trkpt>
      <trkpt lat="45.75206" lon="6.70971">
        <ele>1888</ele>
        <time>2026-07-29T05:47:23.716Z</time>
      </trkpt>
      <trkpt lat="45.75207" lon="6.70968">
        <ele>1888</ele>
        <time>2026-07-29T05:47:24.716Z</time>
      </trkpt>
      <trkpt lat="45.75208" lon="6.70966">
        <ele>1889</ele>
        <time>2026-07-29T05:47:25.716Z</time>
      </trkpt>
      <trkpt lat="45.75208" lon="6.70964">
        <ele>1889</ele>
        <time>2026-07-29T05:47:26.716Z</time>
      </trkpt>
      <trkpt lat="45.75209" lon="6.70963">
        <ele>1889</ele>
        <time>2026-07-29T05:47:27.716Z</time>
      </trkpt>
      <trkpt lat="45.7521" lon="6.70961">
        <ele>1890</ele>
        <time>2026-07-29T05:47:28.716Z</time>
      </trkpt>
      <trkpt lat="45.75211" lon="6.7096">
        <ele>1890</ele>
        <time>2026-07-29T05:47:29.716Z</time>
      </trkpt>
      <trkpt lat="45.75212" lon="6.70959">
        <ele>1890</ele>
        <time>2026-07-29T05:47:30.716Z</time>
      </trkpt>
      <trkpt lat="45.75213" lon="6.70958">
        <ele>1890</ele>
        <time>2026-07-29T05:47:31.716Z</time>
      </trkpt>
      <trkpt lat="45.75213" lon="6.70957">
        <ele>1889</ele>
        <time>2026-07-29T05:47:32.716Z</time>
      </trkpt>
      <trkpt lat="45.75213" lon="6.70957">
        <ele>1889</ele>
        <time>2026-07-29T05:47:33.716Z</time>
      </trkpt>
      <trkpt lat="45.75213" lon="6.70956">
        <ele>1889</ele>
        <time>2026-07-29T05:47:34.716Z</time>
      </trkpt>
      <trkpt lat="45.75213" lon="6.70956">
        <ele>1889</ele>
        <time>2026-07-29T05:47:35.716Z</time>
      </trkpt>
      <trkpt lat="45.75212" lon="6.70955">
        <ele>1889</ele>
        <time>2026-07-29T05:47:36.716Z</time>
      </trkpt>
      <trkpt lat="45.75212" lon="6.70955">
        <ele>1889</ele>
        <time>2026-07-29T05:47:37.716Z</time>
      </trkpt>
      <trkpt lat="45.75211" lon="6.70955">
        <ele>1889</ele>
        <time>2026-07-29T05:47:38.716Z</time>
      </trkpt>
      <trkpt lat="45.75211" lon="6.70954">
        <ele>1889</ele>
        <time>2026-07-29T05:47:39.716Z</time>
      </trkpt>
      <trkpt lat="45.75211" lon="6.70954">
        <ele>1889</ele>
        <time>2026-07-29T05:47:40.716Z</time>
      </trkpt>
      <trkpt lat="45.7521" lon="6.70954">
        <ele>1890</ele>
        <time>2026-07-29T05:47:41.716Z</time>
      </trkpt>
      <trkpt lat="45.7521" lon="6.70953">
        <ele>1890</ele>
        <time>2026-07-29T05:47:42.716Z</time>
      </trkpt>
      <trkpt lat="45.75209" lon="6.70952">
        <ele>1890</ele>
        <time>2026-07-29T05:47:43.716Z</time>
      </trkpt>
      <trkpt lat="45.75208" lon="6.70952">
        <ele>1891</ele>
        <time>2026-07-29T05:47:44.716Z</time>
      </trkpt>
      <trkpt lat="45.75207" lon="6.70952">
        <ele>1891</ele>
        <time>2026-07-29T05:47:45.716Z</time>
      </trkpt>
      <trkpt lat="45.75207" lon="6.70953">
        <ele>1891</ele>
        <time>2026-07-29T05:47:46.716Z</time>
      </trkpt>
      <trkpt lat="45.75206" lon="6.70953">
        <ele>1891</ele>
        <time>2026-07-29T05:47:47.716Z</time>
      </trkpt>
      <trkpt lat="45.75205" lon="6.70953">
        <ele>1891</ele>
        <time>2026-07-29T05:47:48.716Z</time>
      </trkpt>
      <trkpt lat="45.75204" lon="6.70953">
        <ele>1891</ele>
        <time>2026-07-29T05:47:49.716Z</time>
      </trkpt>
      <trkpt lat="45.75203" lon="6.70954">
        <ele>1891</ele>
        <time>2026-07-29T05:47:50.716Z</time>
      </trkpt>
      <trkpt lat="45.75202" lon="6.70954">
        <ele>1892</ele>
        <time>2026-07-29T05:47:51.716Z</time>
      </trkpt>
      <trkpt lat="45.75201" lon="6.70955">
        <ele>1892</ele>
        <time>2026-07-29T05:47:52.716Z</time>
      </trkpt>
      <trkpt lat="45.75201" lon="6.70956">
        <ele>1892</ele>
        <time>2026-07-29T05:47:53.716Z</time>
      </trkpt>
      <trkpt lat="45.752" lon="6.70956">
        <ele>1892</ele>
        <time>2026-07-29T05:47:54.716Z</time>
      </trkpt>
      <trkpt lat="45.75199" lon="6.70956">
        <ele>1893</ele>
        <time>2026-07-29T05:47:55.716Z</time>
      </trkpt>
      <trkpt lat="45.75199" lon="6.70956">
        <ele>1893</ele>
        <time>2026-07-29T05:47:56.716Z</time>
      </trkpt>
      <trkpt lat="45.75198" lon="6.70955">
        <ele>1893</ele>
        <time>2026-07-29T05:47:57.716Z</time>
      </trkpt>
      <trkpt lat="45.75198" lon="6.70955">
        <ele>1894</ele>
        <time>2026-07-29T05:47:58.716Z</time>
      </trkpt>
      <trkpt lat="45.75197" lon="6.70954">
        <ele>1894</ele>
        <time>2026-07-29T05:47:59.716Z</time>
      </trkpt>
      <trkpt lat="45.75196" lon="6.70954">
        <ele>1894</ele>
        <time>2026-07-29T05:48:00.716Z</time>
      </trkpt>
      <trkpt lat="45.75196" lon="6.70953">
        <ele>1894</ele>
        <time>2026-07-29T05:48:01.716Z</time>
      </trkpt>
      <trkpt lat="45.75195" lon="6.70952">
        <ele>1894</ele>
        <time>2026-07-29T05:48:02.716Z</time>
      </trkpt>
      <trkpt lat="45.75194" lon="6.70952">
        <ele>1894</ele>
        <time>2026-07-29T05:48:03.716Z</time>
      </trkpt>
      <trkpt lat="45.75194" lon="6.70952">
        <ele>1893</ele>
        <time>2026-07-29T05:48:04.716Z</time>
      </trkpt>
      <trkpt lat="45.75193" lon="6.70952">
        <ele>1893</ele>
        <time>2026-07-29T05:48:05.716Z</time>
      </trkpt>
      <trkpt lat="45.75193" lon="6.70953">
        <ele>1893</ele>
        <time>2026-07-29T05:48:06.716Z</time>
      </trkpt>
      <trkpt lat="45.75192" lon="6.70955">
        <ele>1893</ele>
        <time>2026-07-29T05:48:07.716Z</time>
      </trkpt>
      <trkpt lat="45.75192" lon="6.70955">
        <ele>1893</ele>
        <time>2026-07-29T05:48:08.716Z</time>
      </trkpt>
      <trkpt lat="45.75191" lon="6.70956">
        <ele>1893</ele>
        <time>2026-07-29T05:48:09.716Z</time>
      </trkpt>
      <trkpt lat="45.7519" lon="6.70957">
        <ele>1893</ele>
        <time>2026-07-29T05:48:10.716Z</time>
      </trkpt>
      <trkpt lat="45.7519" lon="6.70957">
        <ele>1893</ele>
        <time>2026-07-29T05:48:11.716Z</time>
      </trkpt>
      <trkpt lat="45.7519" lon="6.70957">
        <ele>1893</ele>
        <time>2026-07-29T05:48:12.716Z</time>
      </trkpt>
      <trkpt lat="45.75189" lon="6.70957">
        <ele>1893</ele>
        <time>2026-07-29T05:48:13.716Z</time>
      </trkpt>
      <trkpt lat="45.75188" lon="6.70957">
        <ele>1893</ele>
        <time>2026-07-29T05:48:14.716Z</time>
      </trkpt>
      <trkpt lat="45.75188" lon="6.70957">
        <ele>1893</ele>
        <time>2026-07-29T05:48:15.716Z</time>
      </trkpt>
      <trkpt lat="45.75187" lon="6.70957">
        <ele>1893</ele>
        <time>2026-07-29T05:48:16.716Z</time>
      </trkpt>
      <trkpt lat="45.75187" lon="6.70956">
        <ele>1894</ele>
        <time>2026-07-29T05:48:17.716Z</time>
      </trkpt>
      <trkpt lat="45.75186" lon="6.70955">
        <ele>1894</ele>
        <time>2026-07-29T05:48:18.716Z</time>
      </trkpt>
      <trkpt lat="45.75185" lon="6.70955">
        <ele>1894</ele>
        <time>2026-07-29T05:48:19.716Z</time>
      </trkpt>
      <trkpt lat="45.75185" lon="6.70955">
        <ele>1894</ele>
        <time>2026-07-29T05:48:20.716Z</time>
      </trkpt>
      <trkpt lat="45.75184" lon="6.70954">
        <ele>1895</ele>
        <time>2026-07-29T05:48:21.716Z</time>
      </trkpt>
      <trkpt lat="45.75184" lon="6.70954">
        <ele>1895</ele>
        <time>2026-07-29T05:48:22.716Z</time>
      </trkpt>
      <trkpt lat="45.75183" lon="6.70954">
        <ele>1895</ele>
        <time>2026-07-29T05:48:23.716Z</time>
      </trkpt>
      <trkpt lat="45.75182" lon="6.70954">
        <ele>1895</ele>
        <time>2026-07-29T05:48:24.716Z</time>
      </trkpt>
      <trkpt lat="45.75182" lon="6.70954">
        <ele>1895</ele>
        <time>2026-07-29T05:48:25.716Z</time>
      </trkpt>
      <trkpt lat="45.75181" lon="6.70955">
        <ele>1895</ele>
        <time>2026-07-29T05:48:26.716Z</time>
      </trkpt>
      <trkpt lat="45.7518" lon="6.70955">
        <ele>1896</ele>
        <time>2026-07-29T05:48:27.716Z</time>
      </trkpt>
      <trkpt lat="45.75179" lon="6.70956">
        <ele>1896</ele>
        <time>2026-07-29T05:48:28.716Z</time>
      </trkpt>
      <trkpt lat="45.75178" lon="6.70956">
        <ele>1896</ele>
        <time>2026-07-29T05:48:29.716Z</time>
      </trkpt>
      <trkpt lat="45.75178" lon="6.70955">
        <ele>1896</ele>
        <time>2026-07-29T05:48:30.716Z</time>
      </trkpt>
      <trkpt lat="45.75177" lon="6.70955">
        <ele>1896</ele>
        <time>2026-07-29T05:48:31.716Z</time>
      </trkpt>
      <trkpt lat="45.75176" lon="6.70954">
        <ele>1896</ele>
        <time>2026-07-29T05:48:32.716Z</time>
      </trkpt>
      <trkpt lat="45.75175" lon="6.70954">
        <ele>1896</ele>
        <time>2026-07-29T05:48:33.716Z</time>
      </trkpt>
      <trkpt lat="45.75174" lon="6.70955">
        <ele>1897</ele>
        <time>2026-07-29T05:48:34.716Z</time>
      </trkpt>
      <trkpt lat="45.75174" lon="6.70955">
        <ele>1897</ele>
        <time>2026-07-29T05:48:35.716Z</time>
      </trkpt>
      <trkpt lat="45.75173" lon="6.70956">
        <ele>1898</ele>
        <time>2026-07-29T05:48:36.716Z</time>
      </trkpt>
      <trkpt lat="45.75173" lon="6.70957">
        <ele>1898</ele>
        <time>2026-07-29T05:48:37.716Z</time>
      </trkpt>
      <trkpt lat="45.75172" lon="6.70957">
        <ele>1899</ele>
        <time>2026-07-29T05:48:38.716Z</time>
      </trkpt>
      <trkpt lat="45.75172" lon="6.70957">
        <ele>1899</ele>
        <time>2026-07-29T05:48:39.716Z</time>
      </trkpt>
      <trkpt lat="45.75171" lon="6.70957">
        <ele>1899</ele>
        <time>2026-07-29T05:48:40.716Z</time>
      </trkpt>
      <trkpt lat="45.75171" lon="6.70958">
        <ele>1899</ele>
        <time>2026-07-29T05:48:41.716Z</time>
      </trkpt>
      <trkpt lat="45.7517" lon="6.70959">
        <ele>1900</ele>
        <time>2026-07-29T05:48:42.716Z</time>
      </trkpt>
      <trkpt lat="45.75168" lon="6.70961">
        <ele>1900</ele>
        <time>2026-07-29T05:48:43.716Z</time>
      </trkpt>
      <trkpt lat="45.75166" lon="6.70961">
        <ele>1900</ele>
        <time>2026-07-29T05:48:44.716Z</time>
      </trkpt>
      <trkpt lat="45.75165" lon="6.70962">
        <ele>1900</ele>
        <time>2026-07-29T05:48:45.716Z</time>
      </trkpt>
      <trkpt lat="45.75164" lon="6.70963">
        <ele>1900</ele>
        <time>2026-07-29T05:48:46.716Z</time>
      </trkpt>
      <trkpt lat="45.75163" lon="6.70963">
        <ele>1900</ele>
        <time>2026-07-29T05:48:47.716Z</time>
      </trkpt>
      <trkpt lat="45.75162" lon="6.70963">
        <ele>1900</ele>
        <time>2026-07-29T05:48:48.716Z</time>
      </trkpt>
      <trkpt lat="45.75161" lon="6.70964">
        <ele>1900</ele>
        <time>2026-07-29T05:48:49.716Z</time>
      </trkpt>
      <trkpt lat="45.7516" lon="6.70964">
        <ele>1900</ele>
        <time>2026-07-29T05:48:50.716Z</time>
      </trkpt>
      <trkpt lat="45.7516" lon="6.70966">
        <ele>1901</ele>
        <time>2026-07-29T05:48:51.716Z</time>
      </trkpt>
      <trkpt lat="45.7516" lon="6.70966">
        <ele>1902</ele>
        <time>2026-07-29T05:48:52.716Z</time>
      </trkpt>
      <trkpt lat="45.7516" lon="6.70966">
        <ele>1903</ele>
        <time>2026-07-29T05:48:53.716Z</time>
      </trkpt>
      <trkpt lat="45.7516" lon="6.70967">
        <ele>1904</ele>
        <time>2026-07-29T05:48:54.716Z</time>
      </trkpt>
      <trkpt lat="45.75159" lon="6.70967">
        <ele>1905</ele>
        <time>2026-07-29T05:48:55.716Z</time>
      </trkpt>
      <trkpt lat="45.75158" lon="6.70968">
        <ele>1906</ele>
        <time>2026-07-29T05:48:56.716Z</time>
      </trkpt>
      <trkpt lat="45.75158" lon="6.70968">
        <ele>1906</ele>
        <time>2026-07-29T05:48:57.716Z</time>
      </trkpt>
      <trkpt lat="45.75157" lon="6.70969">
        <ele>1907</ele>
        <time>2026-07-29T05:48:58.716Z</time>
      </trkpt>
      <trkpt lat="45.75157" lon="6.7097">
        <ele>1908</ele>
        <time>2026-07-29T05:48:59.716Z</time>
      </trkpt>
      <trkpt lat="45.75157" lon="6.7097">
        <ele>1908</ele>
        <time>2026-07-29T05:49:00.716Z</time>
      </trkpt>
      <trkpt lat="45.75156" lon="6.70971">
        <ele>1908</ele>
        <time>2026-07-29T05:49:01.716Z</time>
      </trkpt>
      <trkpt lat="45.75156" lon="6.70972">
        <ele>1909</ele>
        <time>2026-07-29T05:49:02.716Z</time>
      </trkpt>
      <trkpt lat="45.75156" lon="6.70973">
        <ele>1909</ele>
        <time>2026-07-29T05:49:03.716Z</time>
      </trkpt>
      <trkpt lat="45.75155" lon="6.70973">
        <ele>1909</ele>
        <time>2026-07-29T05:49:04.716Z</time>
      </trkpt>
      <trkpt lat="45.75155" lon="6.70974">
        <ele>1910</ele>
        <time>2026-07-29T05:49:05.716Z</time>
      </trkpt>
      <trkpt lat="45.75154" lon="6.70974">
        <ele>1910</ele>
        <time>2026-07-29T05:49:06.716Z</time>
      </trkpt>
      <trkpt lat="45.75153" lon="6.70976">
        <ele>1911</ele>
        <time>2026-07-29T05:49:07.716Z</time>
      </trkpt>
      <trkpt lat="45.75153" lon="6.70976">
        <ele>1911</ele>
        <time>2026-07-29T05:49:08.716Z</time>
      </trkpt>
      <trkpt lat="45.75153" lon="6.70976">
        <ele>1911</ele>
        <time>2026-07-29T05:49:09.716Z</time>
      </trkpt>
      <trkpt lat="45.75154" lon="6.70976">
        <ele>1911</ele>
        <time>2026-07-29T05:49:10.716Z</time>
      </trkpt>
      <trkpt lat="45.75153" lon="6.70976">
        <ele>1911</ele>
        <time>2026-07-29T05:49:11.716Z</time>
      </trkpt>
      <trkpt lat="45.75152" lon="6.70977">
        <ele>1911</ele>
        <time>2026-07-29T05:49:12.716Z</time>
      </trkpt>
      <trkpt lat="45.75151" lon="6.70977">
        <ele>1911</ele>
        <time>2026-07-29T05:49:13.716Z</time>
      </trkpt>
      <trkpt lat="45.7515" lon="6.70978">
        <ele>1912</ele>
        <time>2026-07-29T05:49:14.716Z</time>
      </trkpt>
      <trkpt lat="45.75149" lon="6.70978">
        <ele>1912</ele>
        <time>2026-07-29T05:49:15.716Z</time>
      </trkpt>
      <trkpt lat="45.75147" lon="6.70978">
        <ele>1913</ele>
        <time>2026-07-29T05:49:16.716Z</time>
      </trkpt>
      <trkpt lat="45.75146" lon="6.70977">
        <ele>1913</ele>
        <time>2026-07-29T05:49:17.716Z</time>
      </trkpt>
      <trkpt lat="45.75145" lon="6.70977">
        <ele>1913</ele>
        <time>2026-07-29T05:49:18.716Z</time>
      </trkpt>
      <trkpt lat="45.75144" lon="6.70976">
        <ele>1914</ele>
        <time>2026-07-29T05:49:19.716Z</time>
      </trkpt>
      <trkpt lat="45.75144" lon="6.70976">
        <ele>1914</ele>
        <time>2026-07-29T05:49:20.716Z</time>
      </trkpt>
      <trkpt lat="45.75143" lon="6.70977">
        <ele>1914</ele>
        <time>2026-07-29T05:49:21.716Z</time>
      </trkpt>
      <trkpt lat="45.75143" lon="6.70977">
        <ele>1914</ele>
        <time>2026-07-29T05:49:22.716Z</time>
      </trkpt>
      <trkpt lat="45.75142" lon="6.70978">
        <ele>1915</ele>
        <time>2026-07-29T05:49:23.716Z</time>
      </trkpt>
      <trkpt lat="45.75141" lon="6.70978">
        <ele>1915</ele>
        <time>2026-07-29T05:49:24.716Z</time>
      </trkpt>
      <trkpt lat="45.7514" lon="6.70978">
        <ele>1915</ele>
        <time>2026-07-29T05:49:25.716Z</time>
      </trkpt>
      <trkpt lat="45.75139" lon="6.70978">
        <ele>1915</ele>
        <time>2026-07-29T05:49:26.716Z</time>
      </trkpt>
      <trkpt lat="45.75137" lon="6.70979">
        <ele>1915</ele>
        <time>2026-07-29T05:49:27.716Z</time>
      </trkpt>
      <trkpt lat="45.75136" lon="6.70979">
        <ele>1915</ele>
        <time>2026-07-29T05:49:28.716Z</time>
      </trkpt>
      <trkpt lat="45.75135" lon="6.70979">
        <ele>1914</ele>
        <time>2026-07-29T05:49:29.716Z</time>
      </trkpt>
      <trkpt lat="45.75134" lon="6.70979">
        <ele>1914</ele>
        <time>2026-07-29T05:49:30.716Z</time>
      </trkpt>
      <trkpt lat="45.75132" lon="6.70979">
        <ele>1915</ele>
        <time>2026-07-29T05:49:31.716Z</time>
      </trkpt>
      <trkpt lat="45.75132" lon="6.7098">
        <ele>1915</ele>
        <time>2026-07-29T05:49:32.716Z</time>
      </trkpt>
      <trkpt lat="45.75132" lon="6.7098">
        <ele>1915</ele>
        <time>2026-07-29T05:49:33.716Z</time>
      </trkpt>
      <trkpt lat="45.75131" lon="6.7098">
        <ele>1915</ele>
        <time>2026-07-29T05:49:34.716Z</time>
      </trkpt>
      <trkpt lat="45.7513" lon="6.7098">
        <ele>1915</ele>
        <time>2026-07-29T05:49:35.716Z</time>
      </trkpt>
      <trkpt lat="45.75129" lon="6.70981">
        <ele>1915</ele>
        <time>2026-07-29T05:49:36.716Z</time>
      </trkpt>
      <trkpt lat="45.75128" lon="6.70982">
        <ele>1916</ele>
        <time>2026-07-29T05:49:37.716Z</time>
      </trkpt>
      <trkpt lat="45.75127" lon="6.70983">
        <ele>1915</ele>
        <time>2026-07-29T05:49:38.716Z</time>
      </trkpt>
      <trkpt lat="45.75126" lon="6.70983">
        <ele>1915</ele>
        <time>2026-07-29T05:49:39.716Z</time>
      </trkpt>
      <trkpt lat="45.75126" lon="6.70983">
        <ele>1915</ele>
        <time>2026-07-29T05:49:40.716Z</time>
      </trkpt>
      <trkpt lat="45.75125" lon="6.70983">
        <ele>1915</ele>
        <time>2026-07-29T05:49:41.716Z</time>
      </trkpt>
      <trkpt lat="45.75125" lon="6.70983">
        <ele>1915</ele>
        <time>2026-07-29T05:49:42.716Z</time>
      </trkpt>
      <trkpt lat="45.75125" lon="6.70984">
        <ele>1915</ele>
        <time>2026-07-29T05:49:43.716Z</time>
      </trkpt>
      <trkpt lat="45.75125" lon="6.70984">
        <ele>1915</ele>
        <time>2026-07-29T05:49:44.716Z</time>
      </trkpt>
      <trkpt lat="45.75125" lon="6.70985">
        <ele>1915</ele>
        <time>2026-07-29T05:49:45.716Z</time>
      </trkpt>
      <trkpt lat="45.75124" lon="6.70986">
        <ele>1915</ele>
        <time>2026-07-29T05:49:46.716Z</time>
      </trkpt>
      <trkpt lat="45.75124" lon="6.70987">
        <ele>1915</ele>
        <time>2026-07-29T05:49:47.716Z</time>
      </trkpt>
      <trkpt lat="45.75123" lon="6.70988">
        <ele>1915</ele>
        <time>2026-07-29T05:49:48.716Z</time>
      </trkpt>
      <trkpt lat="45.75122" lon="6.70989">
        <ele>1915</ele>
        <time>2026-07-29T05:49:49.716Z</time>
      </trkpt>
      <trkpt lat="45.75121" lon="6.70989">
        <ele>1916</ele>
        <time>2026-07-29T05:49:50.716Z</time>
      </trkpt>
      <trkpt lat="45.7512" lon="6.7099">
        <ele>1916</ele>
        <time>2026-07-29T05:49:51.716Z</time>
      </trkpt>
      <trkpt lat="45.75119" lon="6.70991">
        <ele>1916</ele>
        <time>2026-07-29T05:49:52.716Z</time>
      </trkpt>
      <trkpt lat="45.75118" lon="6.70992">
        <ele>1916</ele>
        <time>2026-07-29T05:49:53.716Z</time>
      </trkpt>
      <trkpt lat="45.75117" lon="6.70993">
        <ele>1916</ele>
        <time>2026-07-29T05:49:54.716Z</time>
      </trkpt>
      <trkpt lat="45.75116" lon="6.70994">
        <ele>1916</ele>
        <time>2026-07-29T05:49:55.716Z</time>
      </trkpt>
      <trkpt lat="45.75114" lon="6.70996">
        <ele>1916</ele>
        <time>2026-07-29T05:49:56.716Z</time>
      </trkpt>
      <trkpt lat="45.75113" lon="6.70997">
        <ele>1917</ele>
        <time>2026-07-29T05:49:57.716Z</time>
      </trkpt>
      <trkpt lat="45.75112" lon="6.70999">
        <ele>1917</ele>
        <time>2026-07-29T05:49:58.716Z</time>
      </trkpt>
      <trkpt lat="45.75111" lon="6.71">
        <ele>1917</ele>
        <time>2026-07-29T05:49:59.716Z</time>
      </trkpt>
      <trkpt lat="45.75109" lon="6.71002">
        <ele>1917</ele>
        <time>2026-07-29T05:50:00.716Z</time>
      </trkpt>
      <trkpt lat="45.75107" lon="6.71003">
        <ele>1917</ele>
        <time>2026-07-29T05:50:01.716Z</time>
      </trkpt>
      <trkpt lat="45.75106" lon="6.71005">
        <ele>1917</ele>
        <time>2026-07-29T05:50:02.716Z</time>
      </trkpt>
      <trkpt lat="45.75105" lon="6.71006">
        <ele>1917</ele>
        <time>2026-07-29T05:50:03.716Z</time>
      </trkpt>
      <trkpt lat="45.75104" lon="6.71007">
        <ele>1917</ele>
        <time>2026-07-29T05:50:04.716Z</time>
      </trkpt>
      <trkpt lat="45.75103" lon="6.71009">
        <ele>1917</ele>
        <time>2026-07-29T05:50:05.716Z</time>
      </trkpt>
      <trkpt lat="45.75101" lon="6.7101">
        <ele>1918</ele>
        <time>2026-07-29T05:50:06.716Z</time>
      </trkpt>
      <trkpt lat="45.751" lon="6.71013">
        <ele>1918</ele>
        <time>2026-07-29T05:50:07.716Z</time>
      </trkpt>
      <trkpt lat="45.75098" lon="6.71014">
        <ele>1918</ele>
        <time>2026-07-29T05:50:08.716Z</time>
      </trkpt>
      <trkpt lat="45.75098" lon="6.71016">
        <ele>1919</ele>
        <time>2026-07-29T05:50:09.716Z</time>
      </trkpt>
      <trkpt lat="45.75096" lon="6.71018">
        <ele>1919</ele>
        <time>2026-07-29T05:50:10.716Z</time>
      </trkpt>
      <trkpt lat="45.75094" lon="6.71019">
        <ele>1919</ele>
        <time>2026-07-29T05:50:11.716Z</time>
      </trkpt>
      <trkpt lat="45.75093" lon="6.71021">
        <ele>1919</ele>
        <time>2026-07-29T05:50:12.716Z</time>
      </trkpt>
      <trkpt lat="45.75091" lon="6.71022">
        <ele>1919</ele>
        <time>2026-07-29T05:50:13.716Z</time>
      </trkpt>
      <trkpt lat="45.75091" lon="6.71023">
        <ele>1919</ele>
        <time>2026-07-29T05:50:14.716Z</time>
      </trkpt>
      <trkpt lat="45.75089" lon="6.71024">
        <ele>1919</ele>
        <time>2026-07-29T05:50:15.716Z</time>
      </trkpt>
      <trkpt lat="45.75087" lon="6.71025">
        <ele>1919</ele>
        <time>2026-07-29T05:50:16.716Z</time>
      </trkpt>
      <trkpt lat="45.75085" lon="6.71026">
        <ele>1919</ele>
        <time>2026-07-29T05:50:17.716Z</time>
      </trkpt>
      <trkpt lat="45.75083" lon="6.71027">
        <ele>1919</ele>
        <time>2026-07-29T05:50:18.716Z</time>
      </trkpt>
      <trkpt lat="45.75082" lon="6.71028">
        <ele>1919</ele>
        <time>2026-07-29T05:50:19.716Z</time>
      </trkpt>
      <trkpt lat="45.7508" lon="6.71028">
        <ele>1919</ele>
        <time>2026-07-29T05:50:20.716Z</time>
      </trkpt>
      <trkpt lat="45.75078" lon="6.71029">
        <ele>1919</ele>
        <time>2026-07-29T05:50:21.716Z</time>
      </trkpt>
      <trkpt lat="45.75076" lon="6.7103">
        <ele>1919</ele>
        <time>2026-07-29T05:50:22.716Z</time>
      </trkpt>
      <trkpt lat="45.75074" lon="6.7103">
        <ele>1919</ele>
        <time>2026-07-29T05:50:23.716Z</time>
      </trkpt>
      <trkpt lat="45.75072" lon="6.71031">
        <ele>1919</ele>
        <time>2026-07-29T05:50:24.716Z</time>
      </trkpt>
      <trkpt lat="45.7507" lon="6.71032">
        <ele>1919</ele>
        <time>2026-07-29T05:50:25.716Z</time>
      </trkpt>
      <trkpt lat="45.75069" lon="6.71032">
        <ele>1919</ele>
        <time>2026-07-29T05:50:26.716Z</time>
      </trkpt>
      <trkpt lat="45.75067" lon="6.71033">
        <ele>1919</ele>
        <time>2026-07-29T05:50:27.716Z</time>
      </trkpt>
      <trkpt lat="45.75066" lon="6.71033">
        <ele>1919</ele>
        <time>2026-07-29T05:50:28.716Z</time>
      </trkpt>
      <trkpt lat="45.75064" lon="6.71034">
        <ele>1919</ele>
        <time>2026-07-29T05:50:29.716Z</time>
      </trkpt>
      <trkpt lat="45.75062" lon="6.71035">
        <ele>1919</ele>
        <time>2026-07-29T05:50:30.716Z</time>
      </trkpt>
      <trkpt lat="45.75061" lon="6.71035">
        <ele>1919</ele>
        <time>2026-07-29T05:50:31.716Z</time>
      </trkpt>
      <trkpt lat="45.75059" lon="6.71036">
        <ele>1919</ele>
        <time>2026-07-29T05:50:32.716Z</time>
      </trkpt>
      <trkpt lat="45.75058" lon="6.71037">
        <ele>1919</ele>
        <time>2026-07-29T05:50:33.716Z</time>
      </trkpt>
      <trkpt lat="45.75056" lon="6.71038">
        <ele>1919</ele>
        <time>2026-07-29T05:50:34.716Z</time>
      </trkpt>
      <trkpt lat="45.75055" lon="6.7104">
        <ele>1919</ele>
        <time>2026-07-29T05:50:35.716Z</time>
      </trkpt>
      <trkpt lat="45.75053" lon="6.71042">
        <ele>1919</ele>
        <time>2026-07-29T05:50:36.716Z</time>
      </trkpt>
      <trkpt lat="45.75052" lon="6.71043">
        <ele>1919</ele>
        <time>2026-07-29T05:50:37.716Z</time>
      </trkpt>
      <trkpt lat="45.75049" lon="6.71046">
        <ele>1918</ele>
        <time>2026-07-29T05:50:38.716Z</time>
      </trkpt>
      <trkpt lat="45.75048" lon="6.71048">
        <ele>1918</ele>
        <time>2026-07-29T05:50:39.716Z</time>
      </trkpt>
      <trkpt lat="45.75047" lon="6.7105">
        <ele>1918</ele>
        <time>2026-07-29T05:50:40.716Z</time>
      </trkpt>
      <trkpt lat="45.75045" lon="6.71052">
        <ele>1917</ele>
        <time>2026-07-29T05:50:41.716Z</time>
      </trkpt>
      <trkpt lat="45.75044" lon="6.71054">
        <ele>1917</ele>
        <time>2026-07-29T05:50:42.716Z</time>
      </trkpt>
      <trkpt lat="45.75043" lon="6.71057">
        <ele>1917</ele>
        <time>2026-07-29T05:50:43.716Z</time>
      </trkpt>
      <trkpt lat="45.75043" lon="6.71059">
        <ele>1917</ele>
        <time>2026-07-29T05:50:44.716Z</time>
      </trkpt>
      <trkpt lat="45.75042" lon="6.71061">
        <ele>1917</ele>
        <time>2026-07-29T05:50:45.716Z</time>
      </trkpt>
      <trkpt lat="45.75041" lon="6.71064">
        <ele>1917</ele>
        <time>2026-07-29T05:50:46.716Z</time>
      </trkpt>
      <trkpt lat="45.7504" lon="6.71066">
        <ele>1917</ele>
        <time>2026-07-29T05:50:47.716Z</time>
      </trkpt>
      <trkpt lat="45.7504" lon="6.71068">
        <ele>1917</ele>
        <time>2026-07-29T05:50:48.716Z</time>
      </trkpt>
      <trkpt lat="45.75039" lon="6.71071">
        <ele>1917</ele>
        <time>2026-07-29T05:50:49.716Z</time>
      </trkpt>
      <trkpt lat="45.75038" lon="6.71073">
        <ele>1917</ele>
        <time>2026-07-29T05:50:50.716Z</time>
      </trkpt>
      <trkpt lat="45.75036" lon="6.71075">
        <ele>1916</ele>
        <time>2026-07-29T05:50:51.716Z</time>
      </trkpt>
      <trkpt lat="45.75035" lon="6.71077">
        <ele>1916</ele>
        <time>2026-07-29T05:50:52.716Z</time>
      </trkpt>
      <trkpt lat="45.75034" lon="6.71079">
        <ele>1915</ele>
        <time>2026-07-29T05:50:53.716Z</time>
      </trkpt>
      <trkpt lat="45.75033" lon="6.71081">
        <ele>1915</ele>
        <time>2026-07-29T05:50:54.716Z</time>
      </trkpt>
      <trkpt lat="45.75031" lon="6.71083">
        <ele>1915</ele>
        <time>2026-07-29T05:50:55.716Z</time>
      </trkpt>
      <trkpt lat="45.7503" lon="6.71085">
        <ele>1914</ele>
        <time>2026-07-29T05:50:56.716Z</time>
      </trkpt>
      <trkpt lat="45.75028" lon="6.71086">
        <ele>1914</ele>
        <time>2026-07-29T05:50:57.716Z</time>
      </trkpt>
      <trkpt lat="45.75027" lon="6.71087">
        <ele>1913</ele>
        <time>2026-07-29T05:50:58.716Z</time>
      </trkpt>
      <trkpt lat="45.75025" lon="6.71089">
        <ele>1913</ele>
        <time>2026-07-29T05:50:59.716Z</time>
      </trkpt>
      <trkpt lat="45.75023" lon="6.71091">
        <ele>1913</ele>
        <time>2026-07-29T05:51:00.716Z</time>
      </trkpt>
      <trkpt lat="45.75022" lon="6.71091">
        <ele>1913</ele>
        <time>2026-07-29T05:51:01.716Z</time>
      </trkpt>
      <trkpt lat="45.75022" lon="6.71092">
        <ele>1913</ele>
        <time>2026-07-29T05:51:02.716Z</time>
      </trkpt>
      <trkpt lat="45.75021" lon="6.71094">
        <ele>1913</ele>
        <time>2026-07-29T05:51:03.716Z</time>
      </trkpt>
      <trkpt lat="45.7502" lon="6.71096">
        <ele>1914</ele>
        <time>2026-07-29T05:51:04.716Z</time>
      </trkpt>
      <trkpt lat="45.7502" lon="6.71098">
        <ele>1914</ele>
        <time>2026-07-29T05:51:05.716Z</time>
      </trkpt>
      <trkpt lat="45.7502" lon="6.711">
        <ele>1914</ele>
        <time>2026-07-29T05:51:06.716Z</time>
      </trkpt>
      <trkpt lat="45.7502" lon="6.71102">
        <ele>1915</ele>
        <time>2026-07-29T05:51:07.716Z</time>
      </trkpt>
      <trkpt lat="45.7502" lon="6.71104">
        <ele>1916</ele>
        <time>2026-07-29T05:51:08.716Z</time>
      </trkpt>
      <trkpt lat="45.75019" lon="6.71107">
        <ele>1916</ele>
        <time>2026-07-29T05:51:09.716Z</time>
      </trkpt>
      <trkpt lat="45.75019" lon="6.71109">
        <ele>1916</ele>
        <time>2026-07-29T05:51:10.716Z</time>
      </trkpt>
      <trkpt lat="45.75018" lon="6.71112">
        <ele>1917</ele>
        <time>2026-07-29T05:51:11.716Z</time>
      </trkpt>
      <trkpt lat="45.75018" lon="6.71114">
        <ele>1917</ele>
        <time>2026-07-29T05:51:12.716Z</time>
      </trkpt>
      <trkpt lat="45.75018" lon="6.71116">
        <ele>1918</ele>
        <time>2026-07-29T05:51:13.716Z</time>
      </trkpt>
      <trkpt lat="45.75017" lon="6.71119">
        <ele>1918</ele>
        <time>2026-07-29T05:51:14.716Z</time>
      </trkpt>
      <trkpt lat="45.75017" lon="6.71121">
        <ele>1918</ele>
        <time>2026-07-29T05:51:15.716Z</time>
      </trkpt>
      <trkpt lat="45.75017" lon="6.71124">
        <ele>1918</ele>
        <time>2026-07-29T05:51:16.716Z</time>
      </trkpt>
      <trkpt lat="45.75016" lon="6.71127">
        <ele>1918</ele>
        <time>2026-07-29T05:51:17.716Z</time>
      </trkpt>
      <trkpt lat="45.75016" lon="6.71129">
        <ele>1918</ele>
        <time>2026-07-29T05:51:18.716Z</time>
      </trkpt>
      <trkpt lat="45.75015" lon="6.71131">
        <ele>1919</ele>
        <time>2026-07-29T05:51:19.716Z</time>
      </trkpt>
      <trkpt lat="45.75015" lon="6.71134">
        <ele>1919</ele>
        <time>2026-07-29T05:51:20.716Z</time>
      </trkpt>
      <trkpt lat="45.75014" lon="6.71136">
        <ele>1919</ele>
        <time>2026-07-29T05:51:21.716Z</time>
      </trkpt>
      <trkpt lat="45.75013" lon="6.71138">
        <ele>1918</ele>
        <time>2026-07-29T05:51:22.716Z</time>
      </trkpt>
      <trkpt lat="45.75012" lon="6.7114">
        <ele>1918</ele>
        <time>2026-07-29T05:51:23.716Z</time>
      </trkpt>
      <trkpt lat="45.75012" lon="6.71142">
        <ele>1918</ele>
        <time>2026-07-29T05:51:24.716Z</time>
      </trkpt>
      <trkpt lat="45.7501" lon="6.71144">
        <ele>1917</ele>
        <time>2026-07-29T05:51:25.716Z</time>
      </trkpt>
      <trkpt lat="45.75009" lon="6.71146">
        <ele>1917</ele>
        <time>2026-07-29T05:51:26.716Z</time>
      </trkpt>
      <trkpt lat="45.75007" lon="6.71149">
        <ele>1917</ele>
        <time>2026-07-29T05:51:27.716Z</time>
      </trkpt>
      <trkpt lat="45.75006" lon="6.71151">
        <ele>1916</ele>
        <time>2026-07-29T05:51:28.716Z</time>
      </trkpt>
      <trkpt lat="45.75006" lon="6.71153">
        <ele>1916</ele>
        <time>2026-07-29T05:51:29.716Z</time>
      </trkpt>
      <trkpt lat="45.75005" lon="6.71154">
        <ele>1916</ele>
        <time>2026-07-29T05:51:30.716Z</time>
      </trkpt>
      <trkpt lat="45.75004" lon="6.71156">
        <ele>1916</ele>
        <time>2026-07-29T05:51:31.716Z</time>
      </trkpt>
      <trkpt lat="45.75004" lon="6.71158">
        <ele>1916</ele>
        <time>2026-07-29T05:51:32.716Z</time>
      </trkpt>
      <trkpt lat="45.75004" lon="6.7116">
        <ele>1916</ele>
        <time>2026-07-29T05:51:33.716Z</time>
      </trkpt>
      <trkpt lat="45.75004" lon="6.71163">
        <ele>1916</ele>
        <time>2026-07-29T05:51:34.716Z</time>
      </trkpt>
      <trkpt lat="45.75003" lon="6.71164">
        <ele>1915</ele>
        <time>2026-07-29T05:51:35.716Z</time>
      </trkpt>
      <trkpt lat="45.75003" lon="6.71167">
        <ele>1915</ele>
        <time>2026-07-29T05:51:36.716Z</time>
      </trkpt>
      <trkpt lat="45.75002" lon="6.71169">
        <ele>1915</ele>
        <time>2026-07-29T05:51:37.716Z</time>
      </trkpt>
      <trkpt lat="45.75002" lon="6.71171">
        <ele>1914</ele>
        <time>2026-07-29T05:51:38.716Z</time>
      </trkpt>
      <trkpt lat="45.75002" lon="6.71172">
        <ele>1914</ele>
        <time>2026-07-29T05:51:39.716Z</time>
      </trkpt>
      <trkpt lat="45.75003" lon="6.71173">
        <ele>1914</ele>
        <time>2026-07-29T05:51:40.716Z</time>
      </trkpt>
      <trkpt lat="45.75003" lon="6.71173">
        <ele>1914</ele>
        <time>2026-07-29T05:51:41.716Z</time>
      </trkpt>
      <trkpt lat="45.75003" lon="6.71173">
        <ele>1914</ele>
        <time>2026-07-29T05:51:42.716Z</time>
      </trkpt>
      <trkpt lat="45.75004" lon="6.71174">
        <ele>1914</ele>
        <time>2026-07-29T05:51:43.716Z</time>
      </trkpt>
      <trkpt lat="45.75005" lon="6.71174">
        <ele>1914</ele>
        <time>2026-07-29T05:51:44.716Z</time>
      </trkpt>
      <trkpt lat="45.75006" lon="6.71174">
        <ele>1913</ele>
        <time>2026-07-29T05:51:45.716Z</time>
      </trkpt>
      <trkpt lat="45.75007" lon="6.71175">
        <ele>1913</ele>
        <time>2026-07-29T05:51:46.716Z</time>
      </trkpt>
      <trkpt lat="45.75008" lon="6.71175">
        <ele>1913</ele>
        <time>2026-07-29T05:51:47.716Z</time>
      </trkpt>
      <trkpt lat="45.7501" lon="6.71176">
        <ele>1913</ele>
        <time>2026-07-29T05:51:48.716Z</time>
      </trkpt>
      <trkpt lat="45.75011" lon="6.71178">
        <ele>1913</ele>
        <time>2026-07-29T05:51:49.716Z</time>
      </trkpt>
      <trkpt lat="45.75013" lon="6.71179">
        <ele>1913</ele>
        <time>2026-07-29T05:51:50.716Z</time>
      </trkpt>
      <trkpt lat="45.75014" lon="6.7118">
        <ele>1912</ele>
        <time>2026-07-29T05:51:51.716Z</time>
      </trkpt>
      <trkpt lat="45.75016" lon="6.71182">
        <ele>1912</ele>
        <time>2026-07-29T05:51:52.716Z</time>
      </trkpt>
      <trkpt lat="45.75017" lon="6.71183">
        <ele>1912</ele>
        <time>2026-07-29T05:51:53.716Z</time>
      </trkpt>
      <trkpt lat="45.75019" lon="6.71183">
        <ele>1912</ele>
        <time>2026-07-29T05:51:54.716Z</time>
      </trkpt>
      <trkpt lat="45.75021" lon="6.71184">
        <ele>1912</ele>
        <time>2026-07-29T05:51:55.716Z</time>
      </trkpt>
      <trkpt lat="45.75023" lon="6.71185">
        <ele>1913</ele>
        <time>2026-07-29T05:51:56.716Z</time>
      </trkpt>
      <trkpt lat="45.75025" lon="6.71187">
        <ele>1913</ele>
        <time>2026-07-29T05:51:57.716Z</time>
      </trkpt>
      <trkpt lat="45.75026" lon="6.71189">
        <ele>1913</ele>
        <time>2026-07-29T05:51:58.716Z</time>
      </trkpt>
      <trkpt lat="45.75027" lon="6.71192">
        <ele>1913</ele>
        <time>2026-07-29T05:51:59.716Z</time>
      </trkpt>
      <trkpt lat="45.75028" lon="6.71194">
        <ele>1914</ele>
        <time>2026-07-29T05:52:00.716Z</time>
      </trkpt>
      <trkpt lat="45.75028" lon="6.71197">
        <ele>1914</ele>
        <time>2026-07-29T05:52:01.716Z</time>
      </trkpt>
      <trkpt lat="45.75029" lon="6.712">
        <ele>1914</ele>
        <time>2026-07-29T05:52:02.716Z</time>
      </trkpt>
      <trkpt lat="45.75029" lon="6.71203">
        <ele>1914</ele>
        <time>2026-07-29T05:52:03.716Z</time>
      </trkpt>
      <trkpt lat="45.75029" lon="6.71206">
        <ele>1915</ele>
        <time>2026-07-29T05:52:04.716Z</time>
      </trkpt>
      <trkpt lat="45.7503" lon="6.71208">
        <ele>1915</ele>
        <time>2026-07-29T05:52:05.716Z</time>
      </trkpt>
      <trkpt lat="45.7503" lon="6.71212">
        <ele>1916</ele>
        <time>2026-07-29T05:52:06.716Z</time>
      </trkpt>
      <trkpt lat="45.75031" lon="6.71215">
        <ele>1916</ele>
        <time>2026-07-29T05:52:07.716Z</time>
      </trkpt>
      <trkpt lat="45.75031" lon="6.71217">
        <ele>1917</ele>
        <time>2026-07-29T05:52:08.716Z</time>
      </trkpt>
      <trkpt lat="45.75032" lon="6.7122">
        <ele>1917</ele>
        <time>2026-07-29T05:52:09.716Z</time>
      </trkpt>
      <trkpt lat="45.75032" lon="6.71223">
        <ele>1918</ele>
        <time>2026-07-29T05:52:10.716Z</time>
      </trkpt>
      <trkpt lat="45.75033" lon="6.71226">
        <ele>1918</ele>
        <time>2026-07-29T05:52:11.716Z</time>
      </trkpt>
      <trkpt lat="45.75033" lon="6.71229">
        <ele>1918</ele>
        <time>2026-07-29T05:52:12.716Z</time>
      </trkpt>
      <trkpt lat="45.75033" lon="6.71231">
        <ele>1918</ele>
        <time>2026-07-29T05:52:13.716Z</time>
      </trkpt>
      <trkpt lat="45.75034" lon="6.71234">
        <ele>1918</ele>
        <time>2026-07-29T05:52:14.716Z</time>
      </trkpt>
      <trkpt lat="45.75034" lon="6.71237">
        <ele>1917</ele>
        <time>2026-07-29T05:52:15.716Z</time>
      </trkpt>
      <trkpt lat="45.75034" lon="6.71239">
        <ele>1917</ele>
        <time>2026-07-29T05:52:16.716Z</time>
      </trkpt>
      <trkpt lat="45.75035" lon="6.71242">
        <ele>1917</ele>
        <time>2026-07-29T05:52:17.716Z</time>
      </trkpt>
      <trkpt lat="45.75035" lon="6.71244">
        <ele>1917</ele>
        <time>2026-07-29T05:52:18.716Z</time>
      </trkpt>
      <trkpt lat="45.75036" lon="6.71247">
        <ele>1917</ele>
        <time>2026-07-29T05:52:19.716Z</time>
      </trkpt>
      <trkpt lat="45.75037" lon="6.71249">
        <ele>1917</ele>
        <time>2026-07-29T05:52:20.716Z</time>
      </trkpt>
      <trkpt lat="45.75038" lon="6.71251">
        <ele>1917</ele>
        <time>2026-07-29T05:52:21.716Z</time>
      </trkpt>
      <trkpt lat="45.75038" lon="6.71254">
        <ele>1918</ele>
        <time>2026-07-29T05:52:22.716Z</time>
      </trkpt>
      <trkpt lat="45.75038" lon="6.71256">
        <ele>1917</ele>
        <time>2026-07-29T05:52:23.716Z</time>
      </trkpt>
      <trkpt lat="45.75039" lon="6.71258">
        <ele>1918</ele>
        <time>2026-07-29T05:52:24.716Z</time>
      </trkpt>
      <trkpt lat="45.7504" lon="6.7126">
        <ele>1918</ele>
        <time>2026-07-29T05:52:25.716Z</time>
      </trkpt>
      <trkpt lat="45.75041" lon="6.71263">
        <ele>1918</ele>
        <time>2026-07-29T05:52:26.716Z</time>
      </trkpt>
      <trkpt lat="45.75041" lon="6.71265">
        <ele>1918</ele>
        <time>2026-07-29T05:52:27.716Z</time>
      </trkpt>
      <trkpt lat="45.75041" lon="6.71267">
        <ele>1918</ele>
        <time>2026-07-29T05:52:28.716Z</time>
      </trkpt>
      <trkpt lat="45.75041" lon="6.71268">
        <ele>1918</ele>
        <time>2026-07-29T05:52:29.716Z</time>
      </trkpt>
      <trkpt lat="45.75041" lon="6.7127">
        <ele>1917</ele>
        <time>2026-07-29T05:52:30.716Z</time>
      </trkpt>
      <trkpt lat="45.75041" lon="6.71271">
        <ele>1917</ele>
        <time>2026-07-29T05:52:31.716Z</time>
      </trkpt>
      <trkpt lat="45.75041" lon="6.71273">
        <ele>1916</ele>
        <time>2026-07-29T05:52:32.716Z</time>
      </trkpt>
      <trkpt lat="45.75041" lon="6.71275">
        <ele>1916</ele>
        <time>2026-07-29T05:52:33.716Z</time>
      </trkpt>
      <trkpt lat="45.75041" lon="6.71276">
        <ele>1916</ele>
        <time>2026-07-29T05:52:34.716Z</time>
      </trkpt>
      <trkpt lat="45.75042" lon="6.71278">
        <ele>1915</ele>
        <time>2026-07-29T05:52:35.716Z</time>
      </trkpt>
      <trkpt lat="45.75043" lon="6.71281">
        <ele>1915</ele>
        <time>2026-07-29T05:52:36.716Z</time>
      </trkpt>
      <trkpt lat="45.75044" lon="6.71283">
        <ele>1915</ele>
        <time>2026-07-29T05:52:37.716Z</time>
      </trkpt>
      <trkpt lat="45.75044" lon="6.71286">
        <ele>1916</ele>
        <time>2026-07-29T05:52:38.716Z</time>
      </trkpt>
      <trkpt lat="45.75044" lon="6.71289">
        <ele>1916</ele>
        <time>2026-07-29T05:52:39.716Z</time>
      </trkpt>
      <trkpt lat="45.75045" lon="6.71292">
        <ele>1917</ele>
        <time>2026-07-29T05:52:40.716Z</time>
      </trkpt>
      <trkpt lat="45.75045" lon="6.71294">
        <ele>1917</ele>
        <time>2026-07-29T05:52:41.716Z</time>
      </trkpt>
      <trkpt lat="45.75046" lon="6.71297">
        <ele>1917</ele>
        <time>2026-07-29T05:52:42.716Z</time>
      </trkpt>
      <trkpt lat="45.75046" lon="6.71299">
        <ele>1918</ele>
        <time>2026-07-29T05:52:43.716Z</time>
      </trkpt>
      <trkpt lat="45.75047" lon="6.71302">
        <ele>1919</ele>
        <time>2026-07-29T05:52:44.716Z</time>
      </trkpt>
      <trkpt lat="45.75047" lon="6.71305">
        <ele>1919</ele>
        <time>2026-07-29T05:52:45.716Z</time>
      </trkpt>
      <trkpt lat="45.75046" lon="6.71307">
        <ele>1920</ele>
        <time>2026-07-29T05:52:46.716Z</time>
      </trkpt>
      <trkpt lat="45.75046" lon="6.71309">
        <ele>1920</ele>
        <time>2026-07-29T05:52:47.716Z</time>
      </trkpt>
      <trkpt lat="45.75046" lon="6.71312">
        <ele>1920</ele>
        <time>2026-07-29T05:52:48.716Z</time>
      </trkpt>
      <trkpt lat="45.75046" lon="6.71314">
        <ele>1920</ele>
        <time>2026-07-29T05:52:49.716Z</time>
      </trkpt>
      <trkpt lat="45.75045" lon="6.71317">
        <ele>1920</ele>
        <time>2026-07-29T05:52:50.716Z</time>
      </trkpt>
      <trkpt lat="45.75046" lon="6.71319">
        <ele>1920</ele>
        <time>2026-07-29T05:52:51.716Z</time>
      </trkpt>
      <trkpt lat="45.75046" lon="6.71321">
        <ele>1920</ele>
        <time>2026-07-29T05:52:52.716Z</time>
      </trkpt>
      <trkpt lat="45.75046" lon="6.71324">
        <ele>1920</ele>
        <time>2026-07-29T05:52:53.716Z</time>
      </trkpt>
      <trkpt lat="45.75045" lon="6.71326">
        <ele>1920</ele>
        <time>2026-07-29T05:52:54.716Z</time>
      </trkpt>
      <trkpt lat="45.75045" lon="6.71328">
        <ele>1921</ele>
        <time>2026-07-29T05:52:55.716Z</time>
      </trkpt>
      <trkpt lat="45.75045" lon="6.7133">
        <ele>1921</ele>
        <time>2026-07-29T05:52:56.716Z</time>
      </trkpt>
      <trkpt lat="45.75045" lon="6.71333">
        <ele>1921</ele>
        <time>2026-07-29T05:52:57.716Z</time>
      </trkpt>
      <trkpt lat="45.75045" lon="6.71335">
        <ele>1921</ele>
        <time>2026-07-29T05:52:58.716Z</time>
      </trkpt>
      <trkpt lat="45.75044" lon="6.71337">
        <ele>1921</ele>
        <time>2026-07-29T05:52:59.716Z</time>
      </trkpt>
      <trkpt lat="45.75043" lon="6.71339">
        <ele>1921</ele>
        <time>2026-07-29T05:53:00.716Z</time>
      </trkpt>
      <trkpt lat="45.75043" lon="6.71341">
        <ele>1921</ele>
        <time>2026-07-29T05:53:01.716Z</time>
      </trkpt>
      <trkpt lat="45.75043" lon="6.71343">
        <ele>1921</ele>
        <time>2026-07-29T05:53:02.716Z</time>
      </trkpt>
      <trkpt lat="45.75043" lon="6.71345">
        <ele>1921</ele>
        <time>2026-07-29T05:53:03.716Z</time>
      </trkpt>
      <trkpt lat="45.75043" lon="6.71348">
        <ele>1922</ele>
        <time>2026-07-29T05:53:04.716Z</time>
      </trkpt>
      <trkpt lat="45.75044" lon="6.7135">
        <ele>1922</ele>
        <time>2026-07-29T05:53:05.716Z</time>
      </trkpt>
      <trkpt lat="45.75044" lon="6.71352">
        <ele>1922</ele>
        <time>2026-07-29T05:53:06.716Z</time>
      </trkpt>
      <trkpt lat="45.75045" lon="6.71354">
        <ele>1922</ele>
        <time>2026-07-29T05:53:07.716Z</time>
      </trkpt>
      <trkpt lat="45.75046" lon="6.71356">
        <ele>1923</ele>
        <time>2026-07-29T05:53:08.716Z</time>
      </trkpt>
      <trkpt lat="45.75046" lon="6.71358">
        <ele>1923</ele>
        <time>2026-07-29T05:53:09.716Z</time>
      </trkpt>
      <trkpt lat="45.75046" lon="6.7136">
        <ele>1924</ele>
        <time>2026-07-29T05:53:10.716Z</time>
      </trkpt>
      <trkpt lat="45.75046" lon="6.71363">
        <ele>1924</ele>
        <time>2026-07-29T05:53:11.716Z</time>
      </trkpt>
      <trkpt lat="45.75046" lon="6.71365">
        <ele>1924</ele>
        <time>2026-07-29T05:53:12.716Z</time>
      </trkpt>
      <trkpt lat="45.75046" lon="6.71367">
        <ele>1925</ele>
        <time>2026-07-29T05:53:13.716Z</time>
      </trkpt>
      <trkpt lat="45.75046" lon="6.71369">
        <ele>1925</ele>
        <time>2026-07-29T05:53:14.716Z</time>
      </trkpt>
      <trkpt lat="45.75046" lon="6.71372">
        <ele>1925</ele>
        <time>2026-07-29T05:53:15.716Z</time>
      </trkpt>
      <trkpt lat="45.75045" lon="6.71374">
        <ele>1925</ele>
        <time>2026-07-29T05:53:16.716Z</time>
      </trkpt>
      <trkpt lat="45.75045" lon="6.71377">
        <ele>1925</ele>
        <time>2026-07-29T05:53:17.716Z</time>
      </trkpt>
      <trkpt lat="45.75044" lon="6.71379">
        <ele>1925</ele>
        <time>2026-07-29T05:53:18.716Z</time>
      </trkpt>
      <trkpt lat="45.75044" lon="6.71381">
        <ele>1925</ele>
        <time>2026-07-29T05:53:19.716Z</time>
      </trkpt>
      <trkpt lat="45.75044" lon="6.71383">
        <ele>1926</ele>
        <time>2026-07-29T05:53:20.716Z</time>
      </trkpt>
      <trkpt lat="45.75044" lon="6.71386">
        <ele>1926</ele>
        <time>2026-07-29T05:53:21.716Z</time>
      </trkpt>
      <trkpt lat="45.75044" lon="6.71388">
        <ele>1927</ele>
        <time>2026-07-29T05:53:22.716Z</time>
      </trkpt>
      <trkpt lat="45.75044" lon="6.7139">
        <ele>1927</ele>
        <time>2026-07-29T05:53:23.716Z</time>
      </trkpt>
      <trkpt lat="45.75043" lon="6.71392">
        <ele>1927</ele>
        <time>2026-07-29T05:53:24.716Z</time>
      </trkpt>
      <trkpt lat="45.75043" lon="6.71395">
        <ele>1927</ele>
        <time>2026-07-29T05:53:25.716Z</time>
      </trkpt>
      <trkpt lat="45.75043" lon="6.71397">
        <ele>1927</ele>
        <time>2026-07-29T05:53:26.716Z</time>
      </trkpt>
      <trkpt lat="45.75043" lon="6.714">
        <ele>1926</ele>
        <time>2026-07-29T05:53:27.716Z</time>
      </trkpt>
      <trkpt lat="45.75043" lon="6.71402">
        <ele>1927</ele>
        <time>2026-07-29T05:53:28.716Z</time>
      </trkpt>
      <trkpt lat="45.75043" lon="6.71404">
        <ele>1927</ele>
        <time>2026-07-29T05:53:29.716Z</time>
      </trkpt>
      <trkpt lat="45.75043" lon="6.71406">
        <ele>1927</ele>
        <time>2026-07-29T05:53:30.716Z</time>
      </trkpt>
      <trkpt lat="45.75043" lon="6.71408">
        <ele>1927</ele>
        <time>2026-07-29T05:53:31.716Z</time>
      </trkpt>
      <trkpt lat="45.75042" lon="6.7141">
        <ele>1928</ele>
        <time>2026-07-29T05:53:32.716Z</time>
      </trkpt>
      <trkpt lat="45.75042" lon="6.71412">
        <ele>1928</ele>
        <time>2026-07-29T05:53:33.716Z</time>
      </trkpt>
      <trkpt lat="45.75042" lon="6.71415">
        <ele>1928</ele>
        <time>2026-07-29T05:53:34.716Z</time>
      </trkpt>
      <trkpt lat="45.75041" lon="6.71417">
        <ele>1928</ele>
        <time>2026-07-29T05:53:35.716Z</time>
      </trkpt>
      <trkpt lat="45.75041" lon="6.71419">
        <ele>1927</ele>
        <time>2026-07-29T05:53:36.716Z</time>
      </trkpt>
      <trkpt lat="45.75041" lon="6.71421">
        <ele>1927</ele>
        <time>2026-07-29T05:53:37.716Z</time>
      </trkpt>
      <trkpt lat="45.75041" lon="6.71423">
        <ele>1927</ele>
        <time>2026-07-29T05:53:38.716Z</time>
      </trkpt>
      <trkpt lat="45.7504" lon="6.71425">
        <ele>1927</ele>
        <time>2026-07-29T05:53:39.716Z</time>
      </trkpt>
      <trkpt lat="45.7504" lon="6.71427">
        <ele>1927</ele>
        <time>2026-07-29T05:53:40.716Z</time>
      </trkpt>
      <trkpt lat="45.75039" lon="6.71429">
        <ele>1927</ele>
        <time>2026-07-29T05:53:41.716Z</time>
      </trkpt>
      <trkpt lat="45.75039" lon="6.71431">
        <ele>1927</ele>
        <time>2026-07-29T05:53:42.716Z</time>
      </trkpt>
      <trkpt lat="45.75039" lon="6.71432">
        <ele>1927</ele>
        <time>2026-07-29T05:53:43.716Z</time>
      </trkpt>
      <trkpt lat="45.75039" lon="6.71434">
        <ele>1927</ele>
        <time>2026-07-29T05:53:44.716Z</time>
      </trkpt>
      <trkpt lat="45.75039" lon="6.71436">
        <ele>1928</ele>
        <time>2026-07-29T05:53:45.716Z</time>
      </trkpt>
      <trkpt lat="45.75039" lon="6.71437">
        <ele>1928</ele>
        <time>2026-07-29T05:53:46.716Z</time>
      </trkpt>
      <trkpt lat="45.75038" lon="6.71439">
        <ele>1929</ele>
        <time>2026-07-29T05:53:47.716Z</time>
      </trkpt>
      <trkpt lat="45.75038" lon="6.71441">
        <ele>1929</ele>
        <time>2026-07-29T05:53:48.716Z</time>
      </trkpt>
      <trkpt lat="45.75037" lon="6.71443">
        <ele>1930</ele>
        <time>2026-07-29T05:53:49.716Z</time>
      </trkpt>
      <trkpt lat="45.75036" lon="6.71444">
        <ele>1930</ele>
        <time>2026-07-29T05:53:50.716Z</time>
      </trkpt>
      <trkpt lat="45.75036" lon="6.71446">
        <ele>1931</ele>
        <time>2026-07-29T05:53:51.716Z</time>
      </trkpt>
      <trkpt lat="45.75036" lon="6.71447">
        <ele>1930</ele>
        <time>2026-07-29T05:53:52.716Z</time>
      </trkpt>
      <trkpt lat="45.75036" lon="6.71449">
        <ele>1930</ele>
        <time>2026-07-29T05:53:53.716Z</time>
      </trkpt>
      <trkpt lat="45.75036" lon="6.71451">
        <ele>1930</ele>
        <time>2026-07-29T05:53:54.716Z</time>
      </trkpt>
      <trkpt lat="45.75036" lon="6.71452">
        <ele>1929</ele>
        <time>2026-07-29T05:53:55.716Z</time>
      </trkpt>
      <trkpt lat="45.75037" lon="6.71454">
        <ele>1929</ele>
        <time>2026-07-29T05:53:56.716Z</time>
      </trkpt>
      <trkpt lat="45.75037" lon="6.71456">
        <ele>1929</ele>
        <time>2026-07-29T05:53:57.716Z</time>
      </trkpt>
      <trkpt lat="45.75037" lon="6.71458">
        <ele>1929</ele>
        <time>2026-07-29T05:53:58.716Z</time>
      </trkpt>
      <trkpt lat="45.75036" lon="6.7146">
        <ele>1929</ele>
        <time>2026-07-29T05:53:59.716Z</time>
      </trkpt>
      <trkpt lat="45.75036" lon="6.71462">
        <ele>1930</ele>
        <time>2026-07-29T05:54:00.716Z</time>
      </trkpt>
      <trkpt lat="45.75036" lon="6.71465">
        <ele>1930</ele>
        <time>2026-07-29T05:54:01.716Z</time>
      </trkpt>
      <trkpt lat="45.75036" lon="6.71467">
        <ele>1930</ele>
        <time>2026-07-29T05:54:02.716Z</time>
      </trkpt>
      <trkpt lat="45.75036" lon="6.71469">
        <ele>1931</ele>
        <time>2026-07-29T05:54:03.716Z</time>
      </trkpt>
      <trkpt lat="45.75036" lon="6.71471">
        <ele>1931</ele>
        <time>2026-07-29T05:54:04.716Z</time>
      </trkpt>
      <trkpt lat="45.75036" lon="6.71473">
        <ele>1932</ele>
        <time>2026-07-29T05:54:05.716Z</time>
      </trkpt>
      <trkpt lat="45.75036" lon="6.71475">
        <ele>1932</ele>
        <time>2026-07-29T05:54:06.716Z</time>
      </trkpt>
      <trkpt lat="45.75035" lon="6.71477">
        <ele>1933</ele>
        <time>2026-07-29T05:54:07.716Z</time>
      </trkpt>
      <trkpt lat="45.75035" lon="6.71479">
        <ele>1933</ele>
        <time>2026-07-29T05:54:08.716Z</time>
      </trkpt>
      <trkpt lat="45.75035" lon="6.71481">
        <ele>1933</ele>
        <time>2026-07-29T05:54:09.716Z</time>
      </trkpt>
      <trkpt lat="45.75035" lon="6.71483">
        <ele>1934</ele>
        <time>2026-07-29T05:54:10.716Z</time>
      </trkpt>
      <trkpt lat="45.75034" lon="6.71484">
        <ele>1934</ele>
        <time>2026-07-29T05:54:11.716Z</time>
      </trkpt>
      <trkpt lat="45.75034" lon="6.71486">
        <ele>1934</ele>
        <time>2026-07-29T05:54:12.716Z</time>
      </trkpt>
      <trkpt lat="45.75034" lon="6.71488">
        <ele>1934</ele>
        <time>2026-07-29T05:54:13.716Z</time>
      </trkpt>
      <trkpt lat="45.75034" lon="6.7149">
        <ele>1934</ele>
        <time>2026-07-29T05:54:14.716Z</time>
      </trkpt>
      <trkpt lat="45.75034" lon="6.71491">
        <ele>1934</ele>
        <time>2026-07-29T05:54:15.716Z</time>
      </trkpt>
      <trkpt lat="45.75034" lon="6.71493">
        <ele>1934</ele>
        <time>2026-07-29T05:54:16.716Z</time>
      </trkpt>
      <trkpt lat="45.75034" lon="6.71495">
        <ele>1934</ele>
        <time>2026-07-29T05:54:17.716Z</time>
      </trkpt>
      <trkpt lat="45.75033" lon="6.71496">
        <ele>1934</ele>
        <time>2026-07-29T05:54:18.716Z</time>
      </trkpt>
      <trkpt lat="45.75033" lon="6.71498">
        <ele>1934</ele>
        <time>2026-07-29T05:54:19.716Z</time>
      </trkpt>
      <trkpt lat="45.75032" lon="6.715">
        <ele>1934</ele>
        <time>2026-07-29T05:54:20.716Z</time>
      </trkpt>
      <trkpt lat="45.75032" lon="6.71501">
        <ele>1934</ele>
        <time>2026-07-29T05:54:21.716Z</time>
      </trkpt>
      <trkpt lat="45.75031" lon="6.71503">
        <ele>1934</ele>
        <time>2026-07-29T05:54:22.716Z</time>
      </trkpt>
      <trkpt lat="45.7503" lon="6.71504">
        <ele>1934</ele>
        <time>2026-07-29T05:54:23.716Z</time>
      </trkpt>
      <trkpt lat="45.7503" lon="6.71505">
        <ele>1934</ele>
        <time>2026-07-29T05:54:24.716Z</time>
      </trkpt>
      <trkpt lat="45.75029" lon="6.71506">
        <ele>1934</ele>
        <time>2026-07-29T05:54:25.716Z</time>
      </trkpt>
      <trkpt lat="45.75029" lon="6.71507">
        <ele>1934</ele>
        <time>2026-07-29T05:54:26.716Z</time>
      </trkpt>
      <trkpt lat="45.75028" lon="6.71509">
        <ele>1934</ele>
        <time>2026-07-29T05:54:27.716Z</time>
      </trkpt>
      <trkpt lat="45.75028" lon="6.7151">
        <ele>1934</ele>
        <time>2026-07-29T05:54:28.716Z</time>
      </trkpt>
      <trkpt lat="45.75027" lon="6.71512">
        <ele>1934</ele>
        <time>2026-07-29T05:54:29.716Z</time>
      </trkpt>
      <trkpt lat="45.75025" lon="6.71513">
        <ele>1934</ele>
        <time>2026-07-29T05:54:30.716Z</time>
      </trkpt>
      <trkpt lat="45.75023" lon="6.71514">
        <ele>1933</ele>
        <time>2026-07-29T05:54:31.716Z</time>
      </trkpt>
      <trkpt lat="45.75022" lon="6.71515">
        <ele>1933</ele>
        <time>2026-07-29T05:54:32.716Z</time>
      </trkpt>
      <trkpt lat="45.75021" lon="6.71517">
        <ele>1932</ele>
        <time>2026-07-29T05:54:33.716Z</time>
      </trkpt>
      <trkpt lat="45.7502" lon="6.71518">
        <ele>1932</ele>
        <time>2026-07-29T05:54:34.716Z</time>
      </trkpt>
      <trkpt lat="45.75019" lon="6.7152">
        <ele>1932</ele>
        <time>2026-07-29T05:54:35.716Z</time>
      </trkpt>
      <trkpt lat="45.75019" lon="6.71523">
        <ele>1932</ele>
        <time>2026-07-29T05:54:36.716Z</time>
      </trkpt>
      <trkpt lat="45.75019" lon="6.71525">
        <ele>1932</ele>
        <time>2026-07-29T05:54:37.716Z</time>
      </trkpt>
      <trkpt lat="45.75019" lon="6.71527">
        <ele>1932</ele>
        <time>2026-07-29T05:54:38.716Z</time>
      </trkpt>
      <trkpt lat="45.75019" lon="6.71529">
        <ele>1932</ele>
        <time>2026-07-29T05:54:39.716Z</time>
      </trkpt>
      <trkpt lat="45.75019" lon="6.71531">
        <ele>1932</ele>
        <time>2026-07-29T05:54:40.716Z</time>
      </trkpt>
      <trkpt lat="45.7502" lon="6.71532">
        <ele>1932</ele>
        <time>2026-07-29T05:54:41.716Z</time>
      </trkpt>
      <trkpt lat="45.75021" lon="6.71534">
        <ele>1932</ele>
        <time>2026-07-29T05:54:42.716Z</time>
      </trkpt>
      <trkpt lat="45.75022" lon="6.71535">
        <ele>1933</ele>
        <time>2026-07-29T05:54:43.716Z</time>
      </trkpt>
      <trkpt lat="45.75024" lon="6.71536">
        <ele>1933</ele>
        <time>2026-07-29T05:54:44.716Z</time>
      </trkpt>
      <trkpt lat="45.75025" lon="6.71538">
        <ele>1934</ele>
        <time>2026-07-29T05:54:45.716Z</time>
      </trkpt>
      <trkpt lat="45.75025" lon="6.71541">
        <ele>1934</ele>
        <time>2026-07-29T05:54:46.716Z</time>
      </trkpt>
      <trkpt lat="45.75026" lon="6.71543">
        <ele>1935</ele>
        <time>2026-07-29T05:54:47.716Z</time>
      </trkpt>
      <trkpt lat="45.75026" lon="6.71545">
        <ele>1935</ele>
        <time>2026-07-29T05:54:48.716Z</time>
      </trkpt>
      <trkpt lat="45.75025" lon="6.71548">
        <ele>1935</ele>
        <time>2026-07-29T05:54:49.716Z</time>
      </trkpt>
      <trkpt lat="45.75025" lon="6.7155">
        <ele>1936</ele>
        <time>2026-07-29T05:54:50.716Z</time>
      </trkpt>
      <trkpt lat="45.75026" lon="6.71552">
        <ele>1936</ele>
        <time>2026-07-29T05:54:51.716Z</time>
      </trkpt>
      <trkpt lat="45.75026" lon="6.71554">
        <ele>1936</ele>
        <time>2026-07-29T05:54:52.716Z</time>
      </trkpt>
      <trkpt lat="45.75026" lon="6.71555">
        <ele>1936</ele>
        <time>2026-07-29T05:54:53.716Z</time>
      </trkpt>
      <trkpt lat="45.75026" lon="6.71557">
        <ele>1936</ele>
        <time>2026-07-29T05:54:54.716Z</time>
      </trkpt>
      <trkpt lat="45.75026" lon="6.71559">
        <ele>1937</ele>
        <time>2026-07-29T05:54:55.716Z</time>
      </trkpt>
      <trkpt lat="45.75026" lon="6.7156">
        <ele>1937</ele>
        <time>2026-07-29T05:54:56.716Z</time>
      </trkpt>
      <trkpt lat="45.75026" lon="6.71562">
        <ele>1937</ele>
        <time>2026-07-29T05:54:57.716Z</time>
      </trkpt>
      <trkpt lat="45.75026" lon="6.71563">
        <ele>1937</ele>
        <time>2026-07-29T05:54:58.716Z</time>
      </trkpt>
      <trkpt lat="45.75026" lon="6.71565">
        <ele>1937</ele>
        <time>2026-07-29T05:54:59.716Z</time>
      </trkpt>
      <trkpt lat="45.75026" lon="6.71566">
        <ele>1937</ele>
        <time>2026-07-29T05:55:00.716Z</time>
      </trkpt>
      <trkpt lat="45.75026" lon="6.71568">
        <ele>1937</ele>
        <time>2026-07-29T05:55:01.716Z</time>
      </trkpt>
      <trkpt lat="45.75026" lon="6.71569">
        <ele>1937</ele>
        <time>2026-07-29T05:55:02.716Z</time>
      </trkpt>
      <trkpt lat="45.75025" lon="6.7157">
        <ele>1938</ele>
        <time>2026-07-29T05:55:03.716Z</time>
      </trkpt>
      <trkpt lat="45.75025" lon="6.71571">
        <ele>1938</ele>
        <time>2026-07-29T05:55:04.716Z</time>
      </trkpt>
      <trkpt lat="45.75025" lon="6.71572">
        <ele>1938</ele>
        <time>2026-07-29T05:55:05.716Z</time>
      </trkpt>
      <trkpt lat="45.75025" lon="6.71573">
        <ele>1939</ele>
        <time>2026-07-29T05:55:06.716Z</time>
      </trkpt>
      <trkpt lat="45.75025" lon="6.71574">
        <ele>1939</ele>
        <time>2026-07-29T05:55:07.716Z</time>
      </trkpt>
      <trkpt lat="45.75026" lon="6.71576">
        <ele>1940</ele>
        <time>2026-07-29T05:55:08.716Z</time>
      </trkpt>
      <trkpt lat="45.75026" lon="6.71577">
        <ele>1940</ele>
        <time>2026-07-29T05:55:09.716Z</time>
      </trkpt>
      <trkpt lat="45.75027" lon="6.71578">
        <ele>1941</ele>
        <time>2026-07-29T05:55:10.716Z</time>
      </trkpt>
      <trkpt lat="45.75027" lon="6.71579">
        <ele>1941</ele>
        <time>2026-07-29T05:55:11.716Z</time>
      </trkpt>
      <trkpt lat="45.75027" lon="6.7158">
        <ele>1941</ele>
        <time>2026-07-29T05:55:12.716Z</time>
      </trkpt>
      <trkpt lat="45.75026" lon="6.7158">
        <ele>1941</ele>
        <time>2026-07-29T05:55:13.716Z</time>
      </trkpt>
      <trkpt lat="45.75026" lon="6.71581">
        <ele>1941</ele>
        <time>2026-07-29T05:55:14.716Z</time>
      </trkpt>
      <trkpt lat="45.75026" lon="6.71581">
        <ele>1941</ele>
        <time>2026-07-29T05:55:15.716Z</time>
      </trkpt>
      <trkpt lat="45.75026" lon="6.7158">
        <ele>1942</ele>
        <time>2026-07-29T05:55:16.716Z</time>
      </trkpt>
      <trkpt lat="45.75026" lon="6.7158">
        <ele>1942</ele>
        <time>2026-07-29T05:55:17.716Z</time>
      </trkpt>
      <trkpt lat="45.75026" lon="6.7158">
        <ele>1942</ele>
        <time>2026-07-29T05:55:18.716Z</time>
      </trkpt>
      <trkpt lat="45.75026" lon="6.7158">
        <ele>1942</ele>
        <time>2026-07-29T05:55:19.716Z</time>
      </trkpt>
      <trkpt lat="45.75026" lon="6.7158">
        <ele>1943</ele>
        <time>2026-07-29T05:55:20.716Z</time>
      </trkpt>
      <trkpt lat="45.75026" lon="6.7158">
        <ele>1943</ele>
        <time>2026-07-29T05:55:21.716Z</time>
      </trkpt>
      <trkpt lat="45.75026" lon="6.71581">
        <ele>1943</ele>
        <time>2026-07-29T05:55:22.716Z</time>
      </trkpt>
      <trkpt lat="45.75025" lon="6.71582">
        <ele>1943</ele>
        <time>2026-07-29T05:55:23.716Z</time>
      </trkpt>
      <trkpt lat="45.75025" lon="6.71583">
        <ele>1942</ele>
        <time>2026-07-29T05:55:24.716Z</time>
      </trkpt>
      <trkpt lat="45.75025" lon="6.71585">
        <ele>1942</ele>
        <time>2026-07-29T05:55:25.716Z</time>
      </trkpt>
      <trkpt lat="45.75025" lon="6.71586">
        <ele>1942</ele>
        <time>2026-07-29T05:55:26.716Z</time>
      </trkpt>
      <trkpt lat="45.75025" lon="6.71588">
        <ele>1942</ele>
        <time>2026-07-29T05:55:27.716Z</time>
      </trkpt>
      <trkpt lat="45.75024" lon="6.71589">
        <ele>1942</ele>
        <time>2026-07-29T05:55:28.716Z</time>
      </trkpt>
      <trkpt lat="45.75024" lon="6.71591">
        <ele>1942</ele>
        <time>2026-07-29T05:55:29.716Z</time>
      </trkpt>
      <trkpt lat="45.75024" lon="6.71592">
        <ele>1942</ele>
        <time>2026-07-29T05:55:30.716Z</time>
      </trkpt>
      <trkpt lat="45.75024" lon="6.71594">
        <ele>1942</ele>
        <time>2026-07-29T05:55:31.716Z</time>
      </trkpt>
      <trkpt lat="45.75024" lon="6.71596">
        <ele>1942</ele>
        <time>2026-07-29T05:55:32.716Z</time>
      </trkpt>
      <trkpt lat="45.75024" lon="6.71597">
        <ele>1942</ele>
        <time>2026-07-29T05:55:33.716Z</time>
      </trkpt>
      <trkpt lat="45.75024" lon="6.71599">
        <ele>1942</ele>
        <time>2026-07-29T05:55:34.716Z</time>
      </trkpt>
      <trkpt lat="45.75025" lon="6.71601">
        <ele>1943</ele>
        <time>2026-07-29T05:55:35.716Z</time>
      </trkpt>
      <trkpt lat="45.75025" lon="6.71602">
        <ele>1943</ele>
        <time>2026-07-29T05:55:36.716Z</time>
      </trkpt>
      <trkpt lat="45.75027" lon="6.71603">
        <ele>1943</ele>
        <time>2026-07-29T05:55:37.716Z</time>
      </trkpt>
      <trkpt lat="45.75028" lon="6.71605">
        <ele>1944</ele>
        <time>2026-07-29T05:55:38.716Z</time>
      </trkpt>
      <trkpt lat="45.75029" lon="6.71606">
        <ele>1944</ele>
        <time>2026-07-29T05:55:39.716Z</time>
      </trkpt>
      <trkpt lat="45.7503" lon="6.71608">
        <ele>1944</ele>
        <time>2026-07-29T05:55:40.716Z</time>
      </trkpt>
      <trkpt lat="45.75031" lon="6.71609">
        <ele>1944</ele>
        <time>2026-07-29T05:55:41.716Z</time>
      </trkpt>
      <trkpt lat="45.75031" lon="6.71611">
        <ele>1944</ele>
        <time>2026-07-29T05:55:42.716Z</time>
      </trkpt>
      <trkpt lat="45.75032" lon="6.71613">
        <ele>1944</ele>
        <time>2026-07-29T05:55:43.716Z</time>
      </trkpt>
      <trkpt lat="45.75032" lon="6.71614">
        <ele>1945</ele>
        <time>2026-07-29T05:55:44.716Z</time>
      </trkpt>
      <trkpt lat="45.75032" lon="6.71615">
        <ele>1945</ele>
        <time>2026-07-29T05:55:45.716Z</time>
      </trkpt>
      <trkpt lat="45.75032" lon="6.71617">
        <ele>1945</ele>
        <time>2026-07-29T05:55:46.716Z</time>
      </trkpt>
      <trkpt lat="45.75032" lon="6.71618">
        <ele>1945</ele>
        <time>2026-07-29T05:55:47.716Z</time>
      </trkpt>
      <trkpt lat="45.75032" lon="6.71619">
        <ele>1945</ele>
        <time>2026-07-29T05:55:48.716Z</time>
      </trkpt>
      <trkpt lat="45.75031" lon="6.7162">
        <ele>1946</ele>
        <time>2026-07-29T05:55:49.716Z</time>
      </trkpt>
      <trkpt lat="45.75031" lon="6.71622">
        <ele>1946</ele>
        <time>2026-07-29T05:55:50.716Z</time>
      </trkpt>
      <trkpt lat="45.7503" lon="6.71623">
        <ele>1946</ele>
        <time>2026-07-29T05:55:51.716Z</time>
      </trkpt>
      <trkpt lat="45.75029" lon="6.71624">
        <ele>1946</ele>
        <time>2026-07-29T05:55:52.716Z</time>
      </trkpt>
      <trkpt lat="45.75029" lon="6.71626">
        <ele>1946</ele>
        <time>2026-07-29T05:55:53.716Z</time>
      </trkpt>
      <trkpt lat="45.75029" lon="6.71627">
        <ele>1946</ele>
        <time>2026-07-29T05:55:54.716Z</time>
      </trkpt>
      <trkpt lat="45.75029" lon="6.71629">
        <ele>1945</ele>
        <time>2026-07-29T05:55:55.716Z</time>
      </trkpt>
      <trkpt lat="45.75029" lon="6.7163">
        <ele>1945</ele>
        <time>2026-07-29T05:55:56.716Z</time>
      </trkpt>
      <trkpt lat="45.75029" lon="6.71632">
        <ele>1945</ele>
        <time>2026-07-29T05:55:57.716Z</time>
      </trkpt>
      <trkpt lat="45.75029" lon="6.71633">
        <ele>1945</ele>
        <time>2026-07-29T05:55:58.716Z</time>
      </trkpt>
      <trkpt lat="45.75029" lon="6.71635">
        <ele>1945</ele>
        <time>2026-07-29T05:55:59.716Z</time>
      </trkpt>
      <trkpt lat="45.7503" lon="6.71636">
        <ele>1945</ele>
        <time>2026-07-29T05:56:00.716Z</time>
      </trkpt>
      <trkpt lat="45.7503" lon="6.71638">
        <ele>1945</ele>
        <time>2026-07-29T05:56:01.716Z</time>
      </trkpt>
      <trkpt lat="45.75031" lon="6.71639">
        <ele>1945</ele>
        <time>2026-07-29T05:56:02.716Z</time>
      </trkpt>
      <trkpt lat="45.75032" lon="6.71641">
        <ele>1945</ele>
        <time>2026-07-29T05:56:03.716Z</time>
      </trkpt>
      <trkpt lat="45.75034" lon="6.71642">
        <ele>1945</ele>
        <time>2026-07-29T05:56:04.716Z</time>
      </trkpt>
      <trkpt lat="45.75035" lon="6.71643">
        <ele>1946</ele>
        <time>2026-07-29T05:56:05.716Z</time>
      </trkpt>
      <trkpt lat="45.75035" lon="6.71644">
        <ele>1946</ele>
        <time>2026-07-29T05:56:06.716Z</time>
      </trkpt>
      <trkpt lat="45.75036" lon="6.71645">
        <ele>1946</ele>
        <time>2026-07-29T05:56:07.716Z</time>
      </trkpt>
      <trkpt lat="45.75037" lon="6.71646">
        <ele>1946</ele>
        <time>2026-07-29T05:56:08.716Z</time>
      </trkpt>
      <trkpt lat="45.75037" lon="6.71647">
        <ele>1946</ele>
        <time>2026-07-29T05:56:09.716Z</time>
      </trkpt>
      <trkpt lat="45.75037" lon="6.71648">
        <ele>1946</ele>
        <time>2026-07-29T05:56:10.716Z</time>
      </trkpt>
      <trkpt lat="45.75038" lon="6.7165">
        <ele>1946</ele>
        <time>2026-07-29T05:56:11.716Z</time>
      </trkpt>
      <trkpt lat="45.75038" lon="6.71651">
        <ele>1947</ele>
        <time>2026-07-29T05:56:12.716Z</time>
      </trkpt>
      <trkpt lat="45.75039" lon="6.71653">
        <ele>1947</ele>
        <time>2026-07-29T05:56:13.716Z</time>
      </trkpt>
      <trkpt lat="45.7504" lon="6.71654">
        <ele>1947</ele>
        <time>2026-07-29T05:56:14.716Z</time>
      </trkpt>
      <trkpt lat="45.7504" lon="6.71655">
        <ele>1948</ele>
        <time>2026-07-29T05:56:15.716Z</time>
      </trkpt>
      <trkpt lat="45.75041" lon="6.71656">
        <ele>1948</ele>
        <time>2026-07-29T05:56:16.716Z</time>
      </trkpt>
      <trkpt lat="45.75042" lon="6.71657">
        <ele>1948</ele>
        <time>2026-07-29T05:56:17.716Z</time>
      </trkpt>
      <trkpt lat="45.75042" lon="6.71657">
        <ele>1948</ele>
        <time>2026-07-29T05:56:18.716Z</time>
      </trkpt>
      <trkpt lat="45.75044" lon="6.71658">
        <ele>1948</ele>
        <time>2026-07-29T05:56:19.716Z</time>
      </trkpt>
      <trkpt lat="45.75044" lon="6.71659">
        <ele>1948</ele>
        <time>2026-07-29T05:56:20.716Z</time>
      </trkpt>
      <trkpt lat="45.75045" lon="6.7166">
        <ele>1949</ele>
        <time>2026-07-29T05:56:21.716Z</time>
      </trkpt>
      <trkpt lat="45.75045" lon="6.71661">
        <ele>1949</ele>
        <time>2026-07-29T05:56:22.716Z</time>
      </trkpt>
      <trkpt lat="45.75046" lon="6.71662">
        <ele>1949</ele>
        <time>2026-07-29T05:56:23.716Z</time>
      </trkpt>
      <trkpt lat="45.75047" lon="6.71663">
        <ele>1949</ele>
        <time>2026-07-29T05:56:24.716Z</time>
      </trkpt>
      <trkpt lat="45.75047" lon="6.71663">
        <ele>1949</ele>
        <time>2026-07-29T05:56:25.716Z</time>
      </trkpt>
      <trkpt lat="45.75047" lon="6.71664">
        <ele>1950</ele>
        <time>2026-07-29T05:56:26.716Z</time>
      </trkpt>
      <trkpt lat="45.75047" lon="6.71664">
        <ele>1950</ele>
        <time>2026-07-29T05:56:27.716Z</time>
      </trkpt>
      <trkpt lat="45.75047" lon="6.71665">
        <ele>1951</ele>
        <time>2026-07-29T05:56:28.716Z</time>
      </trkpt>
      <trkpt lat="45.75048" lon="6.71666">
        <ele>1951</ele>
        <time>2026-07-29T05:56:29.716Z</time>
      </trkpt>
      <trkpt lat="45.75048" lon="6.71668">
        <ele>1952</ele>
        <time>2026-07-29T05:56:30.716Z</time>
      </trkpt>
      <trkpt lat="45.75048" lon="6.71669">
        <ele>1952</ele>
        <time>2026-07-29T05:56:31.716Z</time>
      </trkpt>
      <trkpt lat="45.75048" lon="6.7167">
        <ele>1953</ele>
        <time>2026-07-29T05:56:32.716Z</time>
      </trkpt>
      <trkpt lat="45.75048" lon="6.71671">
        <ele>1953</ele>
        <time>2026-07-29T05:56:33.716Z</time>
      </trkpt>
      <trkpt lat="45.75049" lon="6.71672">
        <ele>1953</ele>
        <time>2026-07-29T05:56:34.716Z</time>
      </trkpt>
      <trkpt lat="45.7505" lon="6.71674">
        <ele>1953</ele>
        <time>2026-07-29T05:56:35.716Z</time>
      </trkpt>
      <trkpt lat="45.75051" lon="6.71675">
        <ele>1954</ele>
        <time>2026-07-29T05:56:36.716Z</time>
      </trkpt>
      <trkpt lat="45.75051" lon="6.71676">
        <ele>1954</ele>
        <time>2026-07-29T05:56:37.716Z</time>
      </trkpt>
      <trkpt lat="45.75051" lon="6.71677">
        <ele>1953</ele>
        <time>2026-07-29T05:56:38.716Z</time>
      </trkpt>
      <trkpt lat="45.75051" lon="6.71678">
        <ele>1953</ele>
        <time>2026-07-29T05:56:39.716Z</time>
      </trkpt>
      <trkpt lat="45.75051" lon="6.71679">
        <ele>1953</ele>
        <time>2026-07-29T05:56:40.716Z</time>
      </trkpt>
      <trkpt lat="45.75051" lon="6.7168">
        <ele>1953</ele>
        <time>2026-07-29T05:56:41.716Z</time>
      </trkpt>
      <trkpt lat="45.75052" lon="6.71681">
        <ele>1953</ele>
        <time>2026-07-29T05:56:42.716Z</time>
      </trkpt>
      <trkpt lat="45.75052" lon="6.71682">
        <ele>1953</ele>
        <time>2026-07-29T05:56:43.716Z</time>
      </trkpt>
      <trkpt lat="45.75052" lon="6.71684">
        <ele>1953</ele>
        <time>2026-07-29T05:56:44.716Z</time>
      </trkpt>
      <trkpt lat="45.75052" lon="6.71685">
        <ele>1953</ele>
        <time>2026-07-29T05:56:45.716Z</time>
      </trkpt>
      <trkpt lat="45.75053" lon="6.71686">
        <ele>1952</ele>
        <time>2026-07-29T05:56:46.716Z</time>
      </trkpt>
      <trkpt lat="45.75053" lon="6.71687">
        <ele>1952</ele>
        <time>2026-07-29T05:56:47.716Z</time>
      </trkpt>
      <trkpt lat="45.75053" lon="6.71689">
        <ele>1952</ele>
        <time>2026-07-29T05:56:48.716Z</time>
      </trkpt>
      <trkpt lat="45.75053" lon="6.7169">
        <ele>1952</ele>
        <time>2026-07-29T05:56:49.716Z</time>
      </trkpt>
      <trkpt lat="45.75053" lon="6.71692">
        <ele>1952</ele>
        <time>2026-07-29T05:56:50.716Z</time>
      </trkpt>
      <trkpt lat="45.75053" lon="6.71693">
        <ele>1952</ele>
        <time>2026-07-29T05:56:51.716Z</time>
      </trkpt>
      <trkpt lat="45.75053" lon="6.71694">
        <ele>1952</ele>
        <time>2026-07-29T05:56:52.716Z</time>
      </trkpt>
      <trkpt lat="45.75053" lon="6.71695">
        <ele>1952</ele>
        <time>2026-07-29T05:56:53.716Z</time>
      </trkpt>
      <trkpt lat="45.75054" lon="6.71696">
        <ele>1952</ele>
        <time>2026-07-29T05:56:54.716Z</time>
      </trkpt>
      <trkpt lat="45.75054" lon="6.71697">
        <ele>1951</ele>
        <time>2026-07-29T05:56:55.716Z</time>
      </trkpt>
      <trkpt lat="45.75054" lon="6.71698">
        <ele>1951</ele>
        <time>2026-07-29T05:56:56.716Z</time>
      </trkpt>
      <trkpt lat="45.75055" lon="6.71698">
        <ele>1951</ele>
        <time>2026-07-29T05:56:57.716Z</time>
      </trkpt>
      <trkpt lat="45.75055" lon="6.71699">
        <ele>1951</ele>
        <time>2026-07-29T05:56:58.716Z</time>
      </trkpt>
      <trkpt lat="45.75055" lon="6.71701">
        <ele>1951</ele>
        <time>2026-07-29T05:56:59.716Z</time>
      </trkpt>
      <trkpt lat="45.75055" lon="6.71702">
        <ele>1951</ele>
        <time>2026-07-29T05:57:00.716Z</time>
      </trkpt>
      <trkpt lat="45.75056" lon="6.71703">
        <ele>1952</ele>
        <time>2026-07-29T05:57:01.716Z</time>
      </trkpt>
      <trkpt lat="45.75056" lon="6.71704">
        <ele>1952</ele>
        <time>2026-07-29T05:57:02.716Z</time>
      </trkpt>
      <trkpt lat="45.75056" lon="6.71706">
        <ele>1952</ele>
        <time>2026-07-29T05:57:03.716Z</time>
      </trkpt>
      <trkpt lat="45.75057" lon="6.71708">
        <ele>1952</ele>
        <time>2026-07-29T05:57:04.716Z</time>
      </trkpt>
      <trkpt lat="45.75057" lon="6.71709">
        <ele>1953</ele>
        <time>2026-07-29T05:57:05.716Z</time>
      </trkpt>
      <trkpt lat="45.75058" lon="6.7171">
        <ele>1953</ele>
        <time>2026-07-29T05:57:06.716Z</time>
      </trkpt>
      <trkpt lat="45.75058" lon="6.71712">
        <ele>1953</ele>
        <time>2026-07-29T05:57:07.716Z</time>
      </trkpt>
      <trkpt lat="45.75058" lon="6.71713">
        <ele>1953</ele>
        <time>2026-07-29T05:57:08.716Z</time>
      </trkpt>
      <trkpt lat="45.75057" lon="6.71715">
        <ele>1954</ele>
        <time>2026-07-29T05:57:09.716Z</time>
      </trkpt>
      <trkpt lat="45.75058" lon="6.71716">
        <ele>1954</ele>
        <time>2026-07-29T05:57:10.716Z</time>
      </trkpt>
      <trkpt lat="45.75058" lon="6.71718">
        <ele>1954</ele>
        <time>2026-07-29T05:57:11.716Z</time>
      </trkpt>
      <trkpt lat="45.75058" lon="6.71718">
        <ele>1955</ele>
        <time>2026-07-29T05:57:12.716Z</time>
      </trkpt>
      <trkpt lat="45.75058" lon="6.7172">
        <ele>1955</ele>
        <time>2026-07-29T05:57:13.716Z</time>
      </trkpt>
      <trkpt lat="45.75058" lon="6.71721">
        <ele>1955</ele>
        <time>2026-07-29T05:57:14.716Z</time>
      </trkpt>
      <trkpt lat="45.75059" lon="6.71722">
        <ele>1955</ele>
        <time>2026-07-29T05:57:15.716Z</time>
      </trkpt>
      <trkpt lat="45.75059" lon="6.71723">
        <ele>1956</ele>
        <time>2026-07-29T05:57:16.716Z</time>
      </trkpt>
      <trkpt lat="45.75059" lon="6.71724">
        <ele>1956</ele>
        <time>2026-07-29T05:57:17.716Z</time>
      </trkpt>
      <trkpt lat="45.7506" lon="6.71724">
        <ele>1956</ele>
        <time>2026-07-29T05:57:18.716Z</time>
      </trkpt>
      <trkpt lat="45.7506" lon="6.71725">
        <ele>1956</ele>
        <time>2026-07-29T05:57:19.716Z</time>
      </trkpt>
      <trkpt lat="45.75061" lon="6.71725">
        <ele>1957</ele>
        <time>2026-07-29T05:57:20.716Z</time>
      </trkpt>
      <trkpt lat="45.75061" lon="6.71726">
        <ele>1957</ele>
        <time>2026-07-29T05:57:21.716Z</time>
      </trkpt>
      <trkpt lat="45.75061" lon="6.71726">
        <ele>1957</ele>
        <time>2026-07-29T05:57:22.716Z</time>
      </trkpt>
      <trkpt lat="45.7506" lon="6.71726">
        <ele>1957</ele>
        <time>2026-07-29T05:57:23.716Z</time>
      </trkpt>
      <trkpt lat="45.75061" lon="6.71726">
        <ele>1957</ele>
        <time>2026-07-29T05:57:24.716Z</time>
      </trkpt>
      <trkpt lat="45.75062" lon="6.71726">
        <ele>1956</ele>
        <time>2026-07-29T05:57:25.716Z</time>
      </trkpt>
      <trkpt lat="45.75062" lon="6.71727">
        <ele>1956</ele>
        <time>2026-07-29T05:57:26.716Z</time>
      </trkpt>
      <trkpt lat="45.75062" lon="6.71727">
        <ele>1956</ele>
        <time>2026-07-29T05:57:27.716Z</time>
      </trkpt>
      <trkpt lat="45.75063" lon="6.71728">
        <ele>1956</ele>
        <time>2026-07-29T05:57:28.716Z</time>
      </trkpt>
      <trkpt lat="45.75064" lon="6.71729">
        <ele>1956</ele>
        <time>2026-07-29T05:57:29.716Z</time>
      </trkpt>
      <trkpt lat="45.75065" lon="6.7173">
        <ele>1957</ele>
        <time>2026-07-29T05:57:30.716Z</time>
      </trkpt>
      <trkpt lat="45.75066" lon="6.71731">
        <ele>1957</ele>
        <time>2026-07-29T05:57:31.716Z</time>
      </trkpt>
      <trkpt lat="45.75067" lon="6.71733">
        <ele>1957</ele>
        <time>2026-07-29T05:57:32.716Z</time>
      </trkpt>
      <trkpt lat="45.75068" lon="6.71734">
        <ele>1958</ele>
        <time>2026-07-29T05:57:33.716Z</time>
      </trkpt>
      <trkpt lat="45.75068" lon="6.71735">
        <ele>1958</ele>
        <time>2026-07-29T05:57:34.716Z</time>
      </trkpt>
      <trkpt lat="45.75069" lon="6.71737">
        <ele>1958</ele>
        <time>2026-07-29T05:57:35.716Z</time>
      </trkpt>
      <trkpt lat="45.75069" lon="6.71738">
        <ele>1959</ele>
        <time>2026-07-29T05:57:36.716Z</time>
      </trkpt>
      <trkpt lat="45.75069" lon="6.7174">
        <ele>1959</ele>
        <time>2026-07-29T05:57:37.716Z</time>
      </trkpt>
      <trkpt lat="45.7507" lon="6.71742">
        <ele>1959</ele>
        <time>2026-07-29T05:57:38.716Z</time>
      </trkpt>
      <trkpt lat="45.7507" lon="6.71743">
        <ele>1960</ele>
        <time>2026-07-29T05:57:39.716Z</time>
      </trkpt>
      <trkpt lat="45.7507" lon="6.71744">
        <ele>1960</ele>
        <time>2026-07-29T05:57:40.716Z</time>
      </trkpt>
      <trkpt lat="45.7507" lon="6.71745">
        <ele>1961</ele>
        <time>2026-07-29T05:57:41.716Z</time>
      </trkpt>
      <trkpt lat="45.7507" lon="6.71746">
        <ele>1961</ele>
        <time>2026-07-29T05:57:42.716Z</time>
      </trkpt>
      <trkpt lat="45.75071" lon="6.71746">
        <ele>1961</ele>
        <time>2026-07-29T05:57:43.716Z</time>
      </trkpt>
      <trkpt lat="45.75071" lon="6.71746">
        <ele>1962</ele>
        <time>2026-07-29T05:57:44.716Z</time>
      </trkpt>
      <trkpt lat="45.75071" lon="6.71746">
        <ele>1962</ele>
        <time>2026-07-29T05:57:45.716Z</time>
      </trkpt>
      <trkpt lat="45.75071" lon="6.71747">
        <ele>1962</ele>
        <time>2026-07-29T05:57:46.716Z</time>
      </trkpt>
      <trkpt lat="45.75072" lon="6.71748">
        <ele>1962</ele>
        <time>2026-07-29T05:57:47.716Z</time>
      </trkpt>
      <trkpt lat="45.75072" lon="6.71749">
        <ele>1962</ele>
        <time>2026-07-29T05:57:48.716Z</time>
      </trkpt>
      <trkpt lat="45.75073" lon="6.71751">
        <ele>1962</ele>
        <time>2026-07-29T05:57:49.716Z</time>
      </trkpt>
      <trkpt lat="45.75073" lon="6.71752">
        <ele>1962</ele>
        <time>2026-07-29T05:57:50.716Z</time>
      </trkpt>
      <trkpt lat="45.75073" lon="6.71753">
        <ele>1962</ele>
        <time>2026-07-29T05:57:51.716Z</time>
      </trkpt>
      <trkpt lat="45.75073" lon="6.71754">
        <ele>1962</ele>
        <time>2026-07-29T05:57:52.716Z</time>
      </trkpt>
      <trkpt lat="45.75073" lon="6.71754">
        <ele>1961</ele>
        <time>2026-07-29T05:57:53.716Z</time>
      </trkpt>
      <trkpt lat="45.75073" lon="6.71755">
        <ele>1962</ele>
        <time>2026-07-29T05:57:54.716Z</time>
      </trkpt>
      <trkpt lat="45.75073" lon="6.71755">
        <ele>1962</ele>
        <time>2026-07-29T05:57:55.716Z</time>
      </trkpt>
      <trkpt lat="45.75073" lon="6.71755">
        <ele>1962</ele>
        <time>2026-07-29T05:57:56.716Z</time>
      </trkpt>
      <trkpt lat="45.75073" lon="6.71755">
        <ele>1962</ele>
        <time>2026-07-29T05:57:57.716Z</time>
      </trkpt>
      <trkpt lat="45.75073" lon="6.71755">
        <ele>1962</ele>
        <time>2026-07-29T05:57:58.716Z</time>
      </trkpt>
      <trkpt lat="45.75073" lon="6.71754">
        <ele>1962</ele>
        <time>2026-07-29T05:57:59.716Z</time>
      </trkpt>
      <trkpt lat="45.75073" lon="6.71754">
        <ele>1962</ele>
        <time>2026-07-29T05:58:00.716Z</time>
      </trkpt>
      <trkpt lat="45.75073" lon="6.71754">
        <ele>1963</ele>
        <time>2026-07-29T05:58:01.716Z</time>
      </trkpt>
      <trkpt lat="45.75074" lon="6.71754">
        <ele>1963</ele>
        <time>2026-07-29T05:58:02.716Z</time>
      </trkpt>
      <trkpt lat="45.75075" lon="6.71755">
        <ele>1963</ele>
        <time>2026-07-29T05:58:03.716Z</time>
      </trkpt>
      <trkpt lat="45.75076" lon="6.71756">
        <ele>1963</ele>
        <time>2026-07-29T05:58:04.716Z</time>
      </trkpt>
      <trkpt lat="45.75077" lon="6.71757">
        <ele>1963</ele>
        <time>2026-07-29T05:58:05.716Z</time>
      </trkpt>
      <trkpt lat="45.75078" lon="6.71757">
        <ele>1963</ele>
        <time>2026-07-29T05:58:06.716Z</time>
      </trkpt>
      <trkpt lat="45.75079" lon="6.71758">
        <ele>1963</ele>
        <time>2026-07-29T05:58:07.716Z</time>
      </trkpt>
      <trkpt lat="45.7508" lon="6.71759">
        <ele>1963</ele>
        <time>2026-07-29T05:58:08.716Z</time>
      </trkpt>
      <trkpt lat="45.7508" lon="6.71761">
        <ele>1963</ele>
        <time>2026-07-29T05:58:09.716Z</time>
      </trkpt>
      <trkpt lat="45.75081" lon="6.71762">
        <ele>1963</ele>
        <time>2026-07-29T05:58:10.716Z</time>
      </trkpt>
      <trkpt lat="45.75081" lon="6.71763">
        <ele>1963</ele>
        <time>2026-07-29T05:58:11.716Z</time>
      </trkpt>
      <trkpt lat="45.75081" lon="6.71765">
        <ele>1963</ele>
        <time>2026-07-29T05:58:12.716Z</time>
      </trkpt>
      <trkpt lat="45.75081" lon="6.71766">
        <ele>1963</ele>
        <time>2026-07-29T05:58:13.716Z</time>
      </trkpt>
      <trkpt lat="45.75082" lon="6.71768">
        <ele>1963</ele>
        <time>2026-07-29T05:58:14.716Z</time>
      </trkpt>
      <trkpt lat="45.75082" lon="6.71769">
        <ele>1963</ele>
        <time>2026-07-29T05:58:15.716Z</time>
      </trkpt>
      <trkpt lat="45.75082" lon="6.71771">
        <ele>1964</ele>
        <time>2026-07-29T05:58:16.716Z</time>
      </trkpt>
      <trkpt lat="45.75083" lon="6.71772">
        <ele>1964</ele>
        <time>2026-07-29T05:58:17.716Z</time>
      </trkpt>
      <trkpt lat="45.75083" lon="6.71774">
        <ele>1964</ele>
        <time>2026-07-29T05:58:18.716Z</time>
      </trkpt>
      <trkpt lat="45.75083" lon="6.71776">
        <ele>1964</ele>
        <time>2026-07-29T05:58:19.716Z</time>
      </trkpt>
      <trkpt lat="45.75084" lon="6.71777">
        <ele>1964</ele>
        <time>2026-07-29T05:58:20.716Z</time>
      </trkpt>
      <trkpt lat="45.75084" lon="6.71778">
        <ele>1964</ele>
        <time>2026-07-29T05:58:21.716Z</time>
      </trkpt>
      <trkpt lat="45.75084" lon="6.71778">
        <ele>1963</ele>
        <time>2026-07-29T05:58:22.716Z</time>
      </trkpt>
      <trkpt lat="45.75084" lon="6.71778">
        <ele>1963</ele>
        <time>2026-07-29T05:58:23.716Z</time>
      </trkpt>
      <trkpt lat="45.75084" lon="6.71778">
        <ele>1962</ele>
        <time>2026-07-29T05:58:24.716Z</time>
      </trkpt>
      <trkpt lat="45.75084" lon="6.71778">
        <ele>1962</ele>
        <time>2026-07-29T05:58:25.716Z</time>
      </trkpt>
      <trkpt lat="45.75084" lon="6.71778">
        <ele>1961</ele>
        <time>2026-07-29T05:58:26.716Z</time>
      </trkpt>
      <trkpt lat="45.75084" lon="6.71778">
        <ele>1961</ele>
        <time>2026-07-29T05:58:27.716Z</time>
      </trkpt>
      <trkpt lat="45.75084" lon="6.71777">
        <ele>1961</ele>
        <time>2026-07-29T05:58:28.716Z</time>
      </trkpt>
      <trkpt lat="45.75084" lon="6.71777">
        <ele>1962</ele>
        <time>2026-07-29T05:58:29.716Z</time>
      </trkpt>
      <trkpt lat="45.75085" lon="6.71778">
        <ele>1962</ele>
        <time>2026-07-29T05:58:30.716Z</time>
      </trkpt>
      <trkpt lat="45.75085" lon="6.71779">
        <ele>1962</ele>
        <time>2026-07-29T05:58:31.716Z</time>
      </trkpt>
      <trkpt lat="45.75085" lon="6.71779">
        <ele>1962</ele>
        <time>2026-07-29T05:58:32.716Z</time>
      </trkpt>
      <trkpt lat="45.75086" lon="6.71781">
        <ele>1963</ele>
        <time>2026-07-29T05:58:33.716Z</time>
      </trkpt>
      <trkpt lat="45.75086" lon="6.71782">
        <ele>1963</ele>
        <time>2026-07-29T05:58:34.716Z</time>
      </trkpt>
      <trkpt lat="45.75087" lon="6.71783">
        <ele>1963</ele>
        <time>2026-07-29T05:58:35.716Z</time>
      </trkpt>
      <trkpt lat="45.75087" lon="6.71785">
        <ele>1963</ele>
        <time>2026-07-29T05:58:36.716Z</time>
      </trkpt>
      <trkpt lat="45.75088" lon="6.71786">
        <ele>1963</ele>
        <time>2026-07-29T05:58:37.716Z</time>
      </trkpt>
      <trkpt lat="45.75088" lon="6.71788">
        <ele>1964</ele>
        <time>2026-07-29T05:58:38.716Z</time>
      </trkpt>
      <trkpt lat="45.75089" lon="6.7179">
        <ele>1964</ele>
        <time>2026-07-29T05:58:39.716Z</time>
      </trkpt>
      <trkpt lat="45.7509" lon="6.71793">
        <ele>1965</ele>
        <time>2026-07-29T05:58:40.716Z</time>
      </trkpt>
      <trkpt lat="45.7509" lon="6.71795">
        <ele>1965</ele>
        <time>2026-07-29T05:58:41.716Z</time>
      </trkpt>
      <trkpt lat="45.75091" lon="6.71798">
        <ele>1965</ele>
        <time>2026-07-29T05:58:42.716Z</time>
      </trkpt>
      <trkpt lat="45.75091" lon="6.71801">
        <ele>1965</ele>
        <time>2026-07-29T05:58:43.716Z</time>
      </trkpt>
      <trkpt lat="45.75091" lon="6.71803">
        <ele>1966</ele>
        <time>2026-07-29T05:58:44.716Z</time>
      </trkpt>
      <trkpt lat="45.75091" lon="6.71806">
        <ele>1965</ele>
        <time>2026-07-29T05:58:45.716Z</time>
      </trkpt>
      <trkpt lat="45.7509" lon="6.71809">
        <ele>1965</ele>
        <time>2026-07-29T05:58:46.716Z</time>
      </trkpt>
      <trkpt lat="45.7509" lon="6.71812">
        <ele>1965</ele>
        <time>2026-07-29T05:58:47.716Z</time>
      </trkpt>
      <trkpt lat="45.7509" lon="6.71815">
        <ele>1965</ele>
        <time>2026-07-29T05:58:48.716Z</time>
      </trkpt>
      <trkpt lat="45.7509" lon="6.71817">
        <ele>1965</ele>
        <time>2026-07-29T05:58:49.716Z</time>
      </trkpt>
      <trkpt lat="45.7509" lon="6.71819">
        <ele>1965</ele>
        <time>2026-07-29T05:58:50.716Z</time>
      </trkpt>
      <trkpt lat="45.7509" lon="6.71821">
        <ele>1965</ele>
        <time>2026-07-29T05:58:51.716Z</time>
      </trkpt>
      <trkpt lat="45.7509" lon="6.71823">
        <ele>1966</ele>
        <time>2026-07-29T05:58:52.716Z</time>
      </trkpt>
      <trkpt lat="45.7509" lon="6.71825">
        <ele>1966</ele>
        <time>2026-07-29T05:58:53.716Z</time>
      </trkpt>
      <trkpt lat="45.75091" lon="6.71826">
        <ele>1966</ele>
        <time>2026-07-29T05:58:54.716Z</time>
      </trkpt>
      <trkpt lat="45.75092" lon="6.71828">
        <ele>1965</ele>
        <time>2026-07-29T05:58:55.716Z</time>
      </trkpt>
      <trkpt lat="45.75093" lon="6.71829">
        <ele>1965</ele>
        <time>2026-07-29T05:58:56.716Z</time>
      </trkpt>
      <trkpt lat="45.75094" lon="6.7183">
        <ele>1966</ele>
        <time>2026-07-29T05:58:57.716Z</time>
      </trkpt>
      <trkpt lat="45.75095" lon="6.71832">
        <ele>1966</ele>
        <time>2026-07-29T05:58:58.716Z</time>
      </trkpt>
      <trkpt lat="45.75096" lon="6.71834">
        <ele>1966</ele>
        <time>2026-07-29T05:58:59.716Z</time>
      </trkpt>
      <trkpt lat="45.75095" lon="6.71836">
        <ele>1966</ele>
        <time>2026-07-29T05:59:00.716Z</time>
      </trkpt>
      <trkpt lat="45.75096" lon="6.71837">
        <ele>1965</ele>
        <time>2026-07-29T05:59:01.716Z</time>
      </trkpt>
      <trkpt lat="45.75096" lon="6.71839">
        <ele>1965</ele>
        <time>2026-07-29T05:59:02.716Z</time>
      </trkpt>
      <trkpt lat="45.75097" lon="6.7184">
        <ele>1965</ele>
        <time>2026-07-29T05:59:03.716Z</time>
      </trkpt>
      <trkpt lat="45.75097" lon="6.71842">
        <ele>1965</ele>
        <time>2026-07-29T05:59:04.716Z</time>
      </trkpt>
      <trkpt lat="45.75098" lon="6.71843">
        <ele>1966</ele>
        <time>2026-07-29T05:59:05.716Z</time>
      </trkpt>
      <trkpt lat="45.75098" lon="6.71845">
        <ele>1966</ele>
        <time>2026-07-29T05:59:06.716Z</time>
      </trkpt>
      <trkpt lat="45.75099" lon="6.71847">
        <ele>1966</ele>
        <time>2026-07-29T05:59:07.716Z</time>
      </trkpt>
      <trkpt lat="45.751" lon="6.71848">
        <ele>1966</ele>
        <time>2026-07-29T05:59:08.716Z</time>
      </trkpt>
      <trkpt lat="45.751" lon="6.71849">
        <ele>1967</ele>
        <time>2026-07-29T05:59:09.716Z</time>
      </trkpt>
      <trkpt lat="45.751" lon="6.7185">
        <ele>1967</ele>
        <time>2026-07-29T05:59:10.716Z</time>
      </trkpt>
      <trkpt lat="45.751" lon="6.71852">
        <ele>1967</ele>
        <time>2026-07-29T05:59:11.716Z</time>
      </trkpt>
      <trkpt lat="45.751" lon="6.71853">
        <ele>1968</ele>
        <time>2026-07-29T05:59:12.716Z</time>
      </trkpt>
      <trkpt lat="45.751" lon="6.71854">
        <ele>1968</ele>
        <time>2026-07-29T05:59:13.716Z</time>
      </trkpt>
      <trkpt lat="45.751" lon="6.71856">
        <ele>1968</ele>
        <time>2026-07-29T05:59:14.716Z</time>
      </trkpt>
      <trkpt lat="45.751" lon="6.71857">
        <ele>1968</ele>
        <time>2026-07-29T05:59:15.716Z</time>
      </trkpt>
      <trkpt lat="45.75101" lon="6.71858">
        <ele>1969</ele>
        <time>2026-07-29T05:59:16.716Z</time>
      </trkpt>
      <trkpt lat="45.75101" lon="6.71859">
        <ele>1969</ele>
        <time>2026-07-29T05:59:17.716Z</time>
      </trkpt>
      <trkpt lat="45.75101" lon="6.71861">
        <ele>1970</ele>
        <time>2026-07-29T05:59:18.716Z</time>
      </trkpt>
      <trkpt lat="45.75101" lon="6.71862">
        <ele>1970</ele>
        <time>2026-07-29T05:59:19.716Z</time>
      </trkpt>
      <trkpt lat="45.75101" lon="6.71863">
        <ele>1970</ele>
        <time>2026-07-29T05:59:20.716Z</time>
      </trkpt>
      <trkpt lat="45.75101" lon="6.71865">
        <ele>1969</ele>
        <time>2026-07-29T05:59:21.716Z</time>
      </trkpt>
      <trkpt lat="45.75102" lon="6.71865">
        <ele>1969</ele>
        <time>2026-07-29T05:59:22.716Z</time>
      </trkpt>
      <trkpt lat="45.75102" lon="6.71866">
        <ele>1969</ele>
        <time>2026-07-29T05:59:23.716Z</time>
      </trkpt>
      <trkpt lat="45.75102" lon="6.71866">
        <ele>1969</ele>
        <time>2026-07-29T05:59:24.716Z</time>
      </trkpt>
      <trkpt lat="45.75102" lon="6.71866">
        <ele>1969</ele>
        <time>2026-07-29T05:59:25.716Z</time>
      </trkpt>
      <trkpt lat="45.75102" lon="6.71866">
        <ele>1969</ele>
        <time>2026-07-29T05:59:26.716Z</time>
      </trkpt>
      <trkpt lat="45.75102" lon="6.71867">
        <ele>1969</ele>
        <time>2026-07-29T05:59:27.716Z</time>
      </trkpt>
      <trkpt lat="45.75103" lon="6.71869">
        <ele>1970</ele>
        <time>2026-07-29T05:59:28.716Z</time>
      </trkpt>
      <trkpt lat="45.75103" lon="6.71871">
        <ele>1970</ele>
        <time>2026-07-29T05:59:29.716Z</time>
      </trkpt>
      <trkpt lat="45.75103" lon="6.71872">
        <ele>1970</ele>
        <time>2026-07-29T05:59:30.716Z</time>
      </trkpt>
      <trkpt lat="45.75104" lon="6.71874">
        <ele>1970</ele>
        <time>2026-07-29T05:59:31.716Z</time>
      </trkpt>
      <trkpt lat="45.75104" lon="6.71876">
        <ele>1970</ele>
        <time>2026-07-29T05:59:32.716Z</time>
      </trkpt>
      <trkpt lat="45.75105" lon="6.71877">
        <ele>1970</ele>
        <time>2026-07-29T05:59:33.716Z</time>
      </trkpt>
      <trkpt lat="45.75106" lon="6.71879">
        <ele>1970</ele>
        <time>2026-07-29T05:59:34.716Z</time>
      </trkpt>
      <trkpt lat="45.75106" lon="6.71881">
        <ele>1970</ele>
        <time>2026-07-29T05:59:35.716Z</time>
      </trkpt>
      <trkpt lat="45.75107" lon="6.71882">
        <ele>1970</ele>
        <time>2026-07-29T05:59:36.716Z</time>
      </trkpt>
      <trkpt lat="45.75107" lon="6.71884">
        <ele>1971</ele>
        <time>2026-07-29T05:59:37.716Z</time>
      </trkpt>
      <trkpt lat="45.75107" lon="6.71886">
        <ele>1971</ele>
        <time>2026-07-29T05:59:38.716Z</time>
      </trkpt>
      <trkpt lat="45.75108" lon="6.71888">
        <ele>1971</ele>
        <time>2026-07-29T05:59:39.716Z</time>
      </trkpt>
      <trkpt lat="45.75108" lon="6.71889">
        <ele>1972</ele>
        <time>2026-07-29T05:59:40.716Z</time>
      </trkpt>
      <trkpt lat="45.75109" lon="6.71891">
        <ele>1972</ele>
        <time>2026-07-29T05:59:41.716Z</time>
      </trkpt>
      <trkpt lat="45.75109" lon="6.71893">
        <ele>1973</ele>
        <time>2026-07-29T05:59:42.716Z</time>
      </trkpt>
      <trkpt lat="45.7511" lon="6.71894">
        <ele>1973</ele>
        <time>2026-07-29T05:59:43.716Z</time>
      </trkpt>
      <trkpt lat="45.7511" lon="6.71896">
        <ele>1974</ele>
        <time>2026-07-29T05:59:44.716Z</time>
      </trkpt>
      <trkpt lat="45.75111" lon="6.71897">
        <ele>1974</ele>
        <time>2026-07-29T05:59:45.716Z</time>
      </trkpt>
      <trkpt lat="45.75111" lon="6.71899">
        <ele>1975</ele>
        <time>2026-07-29T05:59:46.716Z</time>
      </trkpt>
      <trkpt lat="45.75112" lon="6.719">
        <ele>1975</ele>
        <time>2026-07-29T05:59:47.716Z</time>
      </trkpt>
      <trkpt lat="45.75112" lon="6.71902">
        <ele>1975</ele>
        <time>2026-07-29T05:59:48.716Z</time>
      </trkpt>
      <trkpt lat="45.75113" lon="6.71904">
        <ele>1976</ele>
        <time>2026-07-29T05:59:49.716Z</time>
      </trkpt>
      <trkpt lat="45.75114" lon="6.71905">
        <ele>1976</ele>
        <time>2026-07-29T05:59:50.716Z</time>
      </trkpt>
      <trkpt lat="45.75114" lon="6.71907">
        <ele>1976</ele>
        <time>2026-07-29T05:59:51.716Z</time>
      </trkpt>
      <trkpt lat="45.75114" lon="6.71909">
        <ele>1976</ele>
        <time>2026-07-29T05:59:52.716Z</time>
      </trkpt>
      <trkpt lat="45.75114" lon="6.7191">
        <ele>1976</ele>
        <time>2026-07-29T05:59:53.716Z</time>
      </trkpt>
      <trkpt lat="45.75114" lon="6.71912">
        <ele>1976</ele>
        <time>2026-07-29T05:59:54.716Z</time>
      </trkpt>
      <trkpt lat="45.75115" lon="6.71913">
        <ele>1976</ele>
        <time>2026-07-29T05:59:55.716Z</time>
      </trkpt>
      <trkpt lat="45.75116" lon="6.71914">
        <ele>1976</ele>
        <time>2026-07-29T05:59:56.716Z</time>
      </trkpt>
      <trkpt lat="45.75116" lon="6.71915">
        <ele>1976</ele>
        <time>2026-07-29T05:59:57.716Z</time>
      </trkpt>
      <trkpt lat="45.75116" lon="6.71917">
        <ele>1976</ele>
        <time>2026-07-29T05:59:58.716Z</time>
      </trkpt>
      <trkpt lat="45.75116" lon="6.71919">
        <ele>1976</ele>
        <time>2026-07-29T05:59:59.716Z</time>
      </trkpt>
      <trkpt lat="45.75117" lon="6.7192">
        <ele>1976</ele>
        <time>2026-07-29T06:00:00.716Z</time>
      </trkpt>
      <trkpt lat="45.75117" lon="6.71922">
        <ele>1977</ele>
        <time>2026-07-29T06:00:01.716Z</time>
      </trkpt>
      <trkpt lat="45.75117" lon="6.71923">
        <ele>1977</ele>
        <time>2026-07-29T06:00:02.716Z</time>
      </trkpt>
      <trkpt lat="45.75118" lon="6.71925">
        <ele>1977</ele>
        <time>2026-07-29T06:00:03.716Z</time>
      </trkpt>
      <trkpt lat="45.75118" lon="6.71926">
        <ele>1977</ele>
        <time>2026-07-29T06:00:04.716Z</time>
      </trkpt>
      <trkpt lat="45.75118" lon="6.71928">
        <ele>1977</ele>
        <time>2026-07-29T06:00:05.716Z</time>
      </trkpt>
      <trkpt lat="45.75118" lon="6.7193">
        <ele>1977</ele>
        <time>2026-07-29T06:00:06.716Z</time>
      </trkpt>
      <trkpt lat="45.75118" lon="6.71932">
        <ele>1977</ele>
        <time>2026-07-29T06:00:07.716Z</time>
      </trkpt>
      <trkpt lat="45.75119" lon="6.71934">
        <ele>1977</ele>
        <time>2026-07-29T06:00:08.716Z</time>
      </trkpt>
      <trkpt lat="45.75119" lon="6.71935">
        <ele>1977</ele>
        <time>2026-07-29T06:00:09.716Z</time>
      </trkpt>
      <trkpt lat="45.7512" lon="6.71937">
        <ele>1977</ele>
        <time>2026-07-29T06:00:10.716Z</time>
      </trkpt>
      <trkpt lat="45.75121" lon="6.71938">
        <ele>1978</ele>
        <time>2026-07-29T06:00:11.716Z</time>
      </trkpt>
      <trkpt lat="45.75122" lon="6.71939">
        <ele>1978</ele>
        <time>2026-07-29T06:00:12.716Z</time>
      </trkpt>
      <trkpt lat="45.75122" lon="6.7194">
        <ele>1978</ele>
        <time>2026-07-29T06:00:13.716Z</time>
      </trkpt>
      <trkpt lat="45.75122" lon="6.71941">
        <ele>1979</ele>
        <time>2026-07-29T06:00:14.716Z</time>
      </trkpt>
      <trkpt lat="45.75122" lon="6.71943">
        <ele>1979</ele>
        <time>2026-07-29T06:00:15.716Z</time>
      </trkpt>
      <trkpt lat="45.75122" lon="6.71944">
        <ele>1979</ele>
        <time>2026-07-29T06:00:16.716Z</time>
      </trkpt>
      <trkpt lat="45.75123" lon="6.71945">
        <ele>1979</ele>
        <time>2026-07-29T06:00:17.716Z</time>
      </trkpt>
      <trkpt lat="45.75123" lon="6.71946">
        <ele>1979</ele>
        <time>2026-07-29T06:00:18.716Z</time>
      </trkpt>
      <trkpt lat="45.75123" lon="6.71947">
        <ele>1980</ele>
        <time>2026-07-29T06:00:19.716Z</time>
      </trkpt>
      <trkpt lat="45.75123" lon="6.71948">
        <ele>1980</ele>
        <time>2026-07-29T06:00:20.716Z</time>
      </trkpt>
      <trkpt lat="45.75123" lon="6.7195">
        <ele>1980</ele>
        <time>2026-07-29T06:00:21.716Z</time>
      </trkpt>
      <trkpt lat="45.75123" lon="6.71951">
        <ele>1980</ele>
        <time>2026-07-29T06:00:22.716Z</time>
      </trkpt>
      <trkpt lat="45.75123" lon="6.71953">
        <ele>1980</ele>
        <time>2026-07-29T06:00:23.716Z</time>
      </trkpt>
      <trkpt lat="45.75123" lon="6.71954">
        <ele>1981</ele>
        <time>2026-07-29T06:00:24.716Z</time>
      </trkpt>
      <trkpt lat="45.75124" lon="6.71955">
        <ele>1981</ele>
        <time>2026-07-29T06:00:25.716Z</time>
      </trkpt>
      <trkpt lat="45.75124" lon="6.71957">
        <ele>1982</ele>
        <time>2026-07-29T06:00:26.716Z</time>
      </trkpt>
      <trkpt lat="45.75124" lon="6.71959">
        <ele>1982</ele>
        <time>2026-07-29T06:00:27.716Z</time>
      </trkpt>
      <trkpt lat="45.75124" lon="6.7196">
        <ele>1982</ele>
        <time>2026-07-29T06:00:28.716Z</time>
      </trkpt>
      <trkpt lat="45.75124" lon="6.71962">
        <ele>1982</ele>
        <time>2026-07-29T06:00:29.716Z</time>
      </trkpt>
      <trkpt lat="45.75124" lon="6.71964">
        <ele>1982</ele>
        <time>2026-07-29T06:00:30.716Z</time>
      </trkpt>
      <trkpt lat="45.75124" lon="6.71966">
        <ele>1982</ele>
        <time>2026-07-29T06:00:31.716Z</time>
      </trkpt>
      <trkpt lat="45.75124" lon="6.71968">
        <ele>1982</ele>
        <time>2026-07-29T06:00:32.716Z</time>
      </trkpt>
      <trkpt lat="45.75124" lon="6.71969">
        <ele>1982</ele>
        <time>2026-07-29T06:00:33.716Z</time>
      </trkpt>
      <trkpt lat="45.75124" lon="6.71971">
        <ele>1982</ele>
        <time>2026-07-29T06:00:34.716Z</time>
      </trkpt>
      <trkpt lat="45.75124" lon="6.71972">
        <ele>1982</ele>
        <time>2026-07-29T06:00:35.716Z</time>
      </trkpt>
      <trkpt lat="45.75124" lon="6.71973">
        <ele>1982</ele>
        <time>2026-07-29T06:00:36.716Z</time>
      </trkpt>
      <trkpt lat="45.75124" lon="6.71975">
        <ele>1983</ele>
        <time>2026-07-29T06:00:37.716Z</time>
      </trkpt>
      <trkpt lat="45.75124" lon="6.71976">
        <ele>1983</ele>
        <time>2026-07-29T06:00:38.716Z</time>
      </trkpt>
      <trkpt lat="45.75124" lon="6.71978">
        <ele>1984</ele>
        <time>2026-07-29T06:00:39.716Z</time>
      </trkpt>
      <trkpt lat="45.75124" lon="6.7198">
        <ele>1984</ele>
        <time>2026-07-29T06:00:40.716Z</time>
      </trkpt>
      <trkpt lat="45.75123" lon="6.71982">
        <ele>1984</ele>
        <time>2026-07-29T06:00:41.716Z</time>
      </trkpt>
      <trkpt lat="45.75122" lon="6.71983">
        <ele>1984</ele>
        <time>2026-07-29T06:00:42.716Z</time>
      </trkpt>
      <trkpt lat="45.75122" lon="6.71984">
        <ele>1984</ele>
        <time>2026-07-29T06:00:43.716Z</time>
      </trkpt>
      <trkpt lat="45.75122" lon="6.71985">
        <ele>1984</ele>
        <time>2026-07-29T06:00:44.716Z</time>
      </trkpt>
      <trkpt lat="45.75122" lon="6.71986">
        <ele>1984</ele>
        <time>2026-07-29T06:00:45.716Z</time>
      </trkpt>
      <trkpt lat="45.75122" lon="6.71988">
        <ele>1984</ele>
        <time>2026-07-29T06:00:46.716Z</time>
      </trkpt>
      <trkpt lat="45.75122" lon="6.71989">
        <ele>1985</ele>
        <time>2026-07-29T06:00:47.716Z</time>
      </trkpt>
      <trkpt lat="45.75122" lon="6.7199">
        <ele>1985</ele>
        <time>2026-07-29T06:00:48.716Z</time>
      </trkpt>
      <trkpt lat="45.75122" lon="6.71991">
        <ele>1986</ele>
        <time>2026-07-29T06:00:49.716Z</time>
      </trkpt>
      <trkpt lat="45.75122" lon="6.71992">
        <ele>1986</ele>
        <time>2026-07-29T06:00:50.716Z</time>
      </trkpt>
      <trkpt lat="45.75122" lon="6.71993">
        <ele>1987</ele>
        <time>2026-07-29T06:00:51.716Z</time>
      </trkpt>
      <trkpt lat="45.75122" lon="6.71995">
        <ele>1987</ele>
        <time>2026-07-29T06:00:52.716Z</time>
      </trkpt>
      <trkpt lat="45.75121" lon="6.71996">
        <ele>1987</ele>
        <time>2026-07-29T06:00:53.716Z</time>
      </trkpt>
      <trkpt lat="45.75121" lon="6.71997">
        <ele>1988</ele>
        <time>2026-07-29T06:00:54.716Z</time>
      </trkpt>
      <trkpt lat="45.75122" lon="6.71998">
        <ele>1988</ele>
        <time>2026-07-29T06:00:55.716Z</time>
      </trkpt>
      <trkpt lat="45.75122" lon="6.71999">
        <ele>1988</ele>
        <time>2026-07-29T06:00:56.716Z</time>
      </trkpt>
      <trkpt lat="45.75122" lon="6.71999">
        <ele>1988</ele>
        <time>2026-07-29T06:00:57.716Z</time>
      </trkpt>
      <trkpt lat="45.75123" lon="6.72">
        <ele>1988</ele>
        <time>2026-07-29T06:00:58.716Z</time>
      </trkpt>
      <trkpt lat="45.75123" lon="6.72002">
        <ele>1988</ele>
        <time>2026-07-29T06:00:59.716Z</time>
      </trkpt>
      <trkpt lat="45.75123" lon="6.72003">
        <ele>1988</ele>
        <time>2026-07-29T06:01:00.716Z</time>
      </trkpt>
      <trkpt lat="45.75123" lon="6.72003">
        <ele>1988</ele>
        <time>2026-07-29T06:01:01.716Z</time>
      </trkpt>
      <trkpt lat="45.75123" lon="6.72004">
        <ele>1988</ele>
        <time>2026-07-29T06:01:02.716Z</time>
      </trkpt>
      <trkpt lat="45.75124" lon="6.72005">
        <ele>1988</ele>
        <time>2026-07-29T06:01:03.716Z</time>
      </trkpt>
      <trkpt lat="45.75124" lon="6.72005">
        <ele>1988</ele>
        <time>2026-07-29T06:01:04.716Z</time>
      </trkpt>
      <trkpt lat="45.75124" lon="6.72005">
        <ele>1987</ele>
        <time>2026-07-29T06:01:05.716Z</time>
      </trkpt>
      <trkpt lat="45.75124" lon="6.72006">
        <ele>1987</ele>
        <time>2026-07-29T06:01:06.716Z</time>
      </trkpt>
      <trkpt lat="45.75124" lon="6.72007">
        <ele>1987</ele>
        <time>2026-07-29T06:01:07.716Z</time>
      </trkpt>
      <trkpt lat="45.75124" lon="6.72008">
        <ele>1987</ele>
        <time>2026-07-29T06:01:08.716Z</time>
      </trkpt>
      <trkpt lat="45.75124" lon="6.7201">
        <ele>1988</ele>
        <time>2026-07-29T06:01:09.716Z</time>
      </trkpt>
      <trkpt lat="45.75124" lon="6.72011">
        <ele>1988</ele>
        <time>2026-07-29T06:01:10.716Z</time>
      </trkpt>
      <trkpt lat="45.75124" lon="6.72013">
        <ele>1988</ele>
        <time>2026-07-29T06:01:11.716Z</time>
      </trkpt>
      <trkpt lat="45.75123" lon="6.72014">
        <ele>1988</ele>
        <time>2026-07-29T06:01:12.716Z</time>
      </trkpt>
      <trkpt lat="45.75124" lon="6.72016">
        <ele>1988</ele>
        <time>2026-07-29T06:01:13.716Z</time>
      </trkpt>
      <trkpt lat="45.75124" lon="6.72017">
        <ele>1988</ele>
        <time>2026-07-29T06:01:14.716Z</time>
      </trkpt>
      <trkpt lat="45.75125" lon="6.72018">
        <ele>1989</ele>
        <time>2026-07-29T06:01:15.716Z</time>
      </trkpt>
      <trkpt lat="45.75126" lon="6.72019">
        <ele>1989</ele>
        <time>2026-07-29T06:01:16.716Z</time>
      </trkpt>
      <trkpt lat="45.75126" lon="6.7202">
        <ele>1989</ele>
        <time>2026-07-29T06:01:17.716Z</time>
      </trkpt>
      <trkpt lat="45.75127" lon="6.72021">
        <ele>1989</ele>
        <time>2026-07-29T06:01:18.716Z</time>
      </trkpt>
      <trkpt lat="45.75128" lon="6.72022">
        <ele>1989</ele>
        <time>2026-07-29T06:01:19.716Z</time>
      </trkpt>
      <trkpt lat="45.75128" lon="6.72022">
        <ele>1990</ele>
        <time>2026-07-29T06:01:20.716Z</time>
      </trkpt>
      <trkpt lat="45.75129" lon="6.72023">
        <ele>1990</ele>
        <time>2026-07-29T06:01:21.716Z</time>
      </trkpt>
      <trkpt lat="45.75129" lon="6.72023">
        <ele>1990</ele>
        <time>2026-07-29T06:01:22.716Z</time>
      </trkpt>
      <trkpt lat="45.7513" lon="6.72024">
        <ele>1991</ele>
        <time>2026-07-29T06:01:23.716Z</time>
      </trkpt>
      <trkpt lat="45.7513" lon="6.72025">
        <ele>1991</ele>
        <time>2026-07-29T06:01:24.716Z</time>
      </trkpt>
      <trkpt lat="45.7513" lon="6.72026">
        <ele>1991</ele>
        <time>2026-07-29T06:01:25.716Z</time>
      </trkpt>
      <trkpt lat="45.75131" lon="6.72027">
        <ele>1991</ele>
        <time>2026-07-29T06:01:26.716Z</time>
      </trkpt>
      <trkpt lat="45.75132" lon="6.72028">
        <ele>1991</ele>
        <time>2026-07-29T06:01:27.716Z</time>
      </trkpt>
      <trkpt lat="45.75132" lon="6.7203">
        <ele>1991</ele>
        <time>2026-07-29T06:01:28.716Z</time>
      </trkpt>
      <trkpt lat="45.75132" lon="6.72031">
        <ele>1992</ele>
        <time>2026-07-29T06:01:29.716Z</time>
      </trkpt>
      <trkpt lat="45.75133" lon="6.72032">
        <ele>1992</ele>
        <time>2026-07-29T06:01:30.716Z</time>
      </trkpt>
      <trkpt lat="45.75134" lon="6.72033">
        <ele>1992</ele>
        <time>2026-07-29T06:01:31.716Z</time>
      </trkpt>
      <trkpt lat="45.75135" lon="6.72034">
        <ele>1992</ele>
        <time>2026-07-29T06:01:32.716Z</time>
      </trkpt>
      <trkpt lat="45.75135" lon="6.72035">
        <ele>1993</ele>
        <time>2026-07-29T06:01:33.716Z</time>
      </trkpt>
      <trkpt lat="45.75136" lon="6.72036">
        <ele>1993</ele>
        <time>2026-07-29T06:01:34.716Z</time>
      </trkpt>
      <trkpt lat="45.75136" lon="6.72037">
        <ele>1994</ele>
        <time>2026-07-29T06:01:35.716Z</time>
      </trkpt>
      <trkpt lat="45.75136" lon="6.72037">
        <ele>1994</ele>
        <time>2026-07-29T06:01:36.716Z</time>
      </trkpt>
      <trkpt lat="45.75137" lon="6.72037">
        <ele>1994</ele>
        <time>2026-07-29T06:01:37.716Z</time>
      </trkpt>
      <trkpt lat="45.75138" lon="6.72037">
        <ele>1994</ele>
        <time>2026-07-29T06:01:38.716Z</time>
      </trkpt>
      <trkpt lat="45.75138" lon="6.72038">
        <ele>1994</ele>
        <time>2026-07-29T06:01:39.716Z</time>
      </trkpt>
      <trkpt lat="45.75138" lon="6.72038">
        <ele>1994</ele>
        <time>2026-07-29T06:01:40.716Z</time>
      </trkpt>
      <trkpt lat="45.75139" lon="6.72039">
        <ele>1994</ele>
        <time>2026-07-29T06:01:41.716Z</time>
      </trkpt>
      <trkpt lat="45.75139" lon="6.7204">
        <ele>1994</ele>
        <time>2026-07-29T06:01:42.716Z</time>
      </trkpt>
      <trkpt lat="45.75139" lon="6.72042">
        <ele>1994</ele>
        <time>2026-07-29T06:01:43.716Z</time>
      </trkpt>
      <trkpt lat="45.7514" lon="6.72044">
        <ele>1995</ele>
        <time>2026-07-29T06:01:44.716Z</time>
      </trkpt>
      <trkpt lat="45.7514" lon="6.72045">
        <ele>1995</ele>
        <time>2026-07-29T06:01:45.716Z</time>
      </trkpt>
      <trkpt lat="45.7514" lon="6.72047">
        <ele>1995</ele>
        <time>2026-07-29T06:01:46.716Z</time>
      </trkpt>
      <trkpt lat="45.75139" lon="6.72049">
        <ele>1995</ele>
        <time>2026-07-29T06:01:47.716Z</time>
      </trkpt>
      <trkpt lat="45.75139" lon="6.7205">
        <ele>1995</ele>
        <time>2026-07-29T06:01:48.716Z</time>
      </trkpt>
      <trkpt lat="45.75139" lon="6.72052">
        <ele>1995</ele>
        <time>2026-07-29T06:01:49.716Z</time>
      </trkpt>
      <trkpt lat="45.75139" lon="6.72053">
        <ele>1995</ele>
        <time>2026-07-29T06:01:50.716Z</time>
      </trkpt>
      <trkpt lat="45.75138" lon="6.72054">
        <ele>1996</ele>
        <time>2026-07-29T06:01:51.716Z</time>
      </trkpt>
      <trkpt lat="45.75139" lon="6.72056">
        <ele>1996</ele>
        <time>2026-07-29T06:01:52.716Z</time>
      </trkpt>
      <trkpt lat="45.75139" lon="6.72057">
        <ele>1996</ele>
        <time>2026-07-29T06:01:53.716Z</time>
      </trkpt>
      <trkpt lat="45.75139" lon="6.72058">
        <ele>1997</ele>
        <time>2026-07-29T06:01:54.716Z</time>
      </trkpt>
      <trkpt lat="45.75138" lon="6.7206">
        <ele>1997</ele>
        <time>2026-07-29T06:01:55.716Z</time>
      </trkpt>
      <trkpt lat="45.75138" lon="6.72061">
        <ele>1997</ele>
        <time>2026-07-29T06:01:56.716Z</time>
      </trkpt>
      <trkpt lat="45.75139" lon="6.72062">
        <ele>1997</ele>
        <time>2026-07-29T06:01:57.716Z</time>
      </trkpt>
      <trkpt lat="45.75139" lon="6.72063">
        <ele>1998</ele>
        <time>2026-07-29T06:01:58.716Z</time>
      </trkpt>
      <trkpt lat="45.75138" lon="6.72064">
        <ele>1998</ele>
        <time>2026-07-29T06:01:59.716Z</time>
      </trkpt>
      <trkpt lat="45.75138" lon="6.72066">
        <ele>1999</ele>
        <time>2026-07-29T06:02:00.716Z</time>
      </trkpt>
      <trkpt lat="45.75138" lon="6.72068">
        <ele>1999</ele>
        <time>2026-07-29T06:02:01.716Z</time>
      </trkpt>
      <trkpt lat="45.75139" lon="6.72069">
        <ele>2000</ele>
        <time>2026-07-29T06:02:02.716Z</time>
      </trkpt>
      <trkpt lat="45.75139" lon="6.7207">
        <ele>2000</ele>
        <time>2026-07-29T06:02:03.716Z</time>
      </trkpt>
      <trkpt lat="45.75139" lon="6.7207">
        <ele>2000</ele>
        <time>2026-07-29T06:02:04.716Z</time>
      </trkpt>
      <trkpt lat="45.75139" lon="6.72071">
        <ele>2000</ele>
        <time>2026-07-29T06:02:05.716Z</time>
      </trkpt>
      <trkpt lat="45.7514" lon="6.72072">
        <ele>2000</ele>
        <time>2026-07-29T06:02:06.716Z</time>
      </trkpt>
      <trkpt lat="45.7514" lon="6.72072">
        <ele>2000</ele>
        <time>2026-07-29T06:02:07.716Z</time>
      </trkpt>
      <trkpt lat="45.75141" lon="6.72073">
        <ele>2000</ele>
        <time>2026-07-29T06:02:08.716Z</time>
      </trkpt>
      <trkpt lat="45.75141" lon="6.72074">
        <ele>2000</ele>
        <time>2026-07-29T06:02:09.716Z</time>
      </trkpt>
      <trkpt lat="45.75141" lon="6.72076">
        <ele>2000</ele>
        <time>2026-07-29T06:02:10.716Z</time>
      </trkpt>
      <trkpt lat="45.75141" lon="6.72077">
        <ele>2000</ele>
        <time>2026-07-29T06:02:11.716Z</time>
      </trkpt>
      <trkpt lat="45.75141" lon="6.72079">
        <ele>2000</ele>
        <time>2026-07-29T06:02:12.716Z</time>
      </trkpt>
      <trkpt lat="45.75141" lon="6.7208">
        <ele>2000</ele>
        <time>2026-07-29T06:02:13.716Z</time>
      </trkpt>
      <trkpt lat="45.75141" lon="6.72081">
        <ele>2000</ele>
        <time>2026-07-29T06:02:14.716Z</time>
      </trkpt>
      <trkpt lat="45.75141" lon="6.72083">
        <ele>2000</ele>
        <time>2026-07-29T06:02:15.716Z</time>
      </trkpt>
      <trkpt lat="45.75141" lon="6.72084">
        <ele>2000</ele>
        <time>2026-07-29T06:02:16.716Z</time>
      </trkpt>
      <trkpt lat="45.75141" lon="6.72085">
        <ele>2000</ele>
        <time>2026-07-29T06:02:17.716Z</time>
      </trkpt>
      <trkpt lat="45.75142" lon="6.72087">
        <ele>2001</ele>
        <time>2026-07-29T06:02:18.716Z</time>
      </trkpt>
      <trkpt lat="45.75142" lon="6.72088">
        <ele>2001</ele>
        <time>2026-07-29T06:02:19.716Z</time>
      </trkpt>
      <trkpt lat="45.75143" lon="6.7209">
        <ele>2001</ele>
        <time>2026-07-29T06:02:20.716Z</time>
      </trkpt>
      <trkpt lat="45.75143" lon="6.72091">
        <ele>2002</ele>
        <time>2026-07-29T06:02:21.716Z</time>
      </trkpt>
      <trkpt lat="45.75143" lon="6.72092">
        <ele>2002</ele>
        <time>2026-07-29T06:02:22.716Z</time>
      </trkpt>
      <trkpt lat="45.75143" lon="6.72093">
        <ele>2003</ele>
        <time>2026-07-29T06:02:23.716Z</time>
      </trkpt>
      <trkpt lat="45.75143" lon="6.72094">
        <ele>2003</ele>
        <time>2026-07-29T06:02:24.716Z</time>
      </trkpt>
      <trkpt lat="45.75144" lon="6.72095">
        <ele>2004</ele>
        <time>2026-07-29T06:02:25.716Z</time>
      </trkpt>
      <trkpt lat="45.75144" lon="6.72097">
        <ele>2004</ele>
        <time>2026-07-29T06:02:26.716Z</time>
      </trkpt>
      <trkpt lat="45.75143" lon="6.72098">
        <ele>2004</ele>
        <time>2026-07-29T06:02:27.716Z</time>
      </trkpt>
      <trkpt lat="45.75144" lon="6.72099">
        <ele>2004</ele>
        <time>2026-07-29T06:02:28.716Z</time>
      </trkpt>
      <trkpt lat="45.75144" lon="6.721">
        <ele>2005</ele>
        <time>2026-07-29T06:02:29.716Z</time>
      </trkpt>
      <trkpt lat="45.75145" lon="6.72102">
        <ele>2005</ele>
        <time>2026-07-29T06:02:30.716Z</time>
      </trkpt>
      <trkpt lat="45.75145" lon="6.72103">
        <ele>2005</ele>
        <time>2026-07-29T06:02:31.716Z</time>
      </trkpt>
      <trkpt lat="45.75146" lon="6.72104">
        <ele>2005</ele>
        <time>2026-07-29T06:02:32.716Z</time>
      </trkpt>
      <trkpt lat="45.75146" lon="6.72105">
        <ele>2005</ele>
        <time>2026-07-29T06:02:33.716Z</time>
      </trkpt>
      <trkpt lat="45.75147" lon="6.72107">
        <ele>2006</ele>
        <time>2026-07-29T06:02:34.716Z</time>
      </trkpt>
      <trkpt lat="45.75147" lon="6.72108">
        <ele>2006</ele>
        <time>2026-07-29T06:02:35.716Z</time>
      </trkpt>
      <trkpt lat="45.75147" lon="6.72109">
        <ele>2006</ele>
        <time>2026-07-29T06:02:36.716Z</time>
      </trkpt>
      <trkpt lat="45.75146" lon="6.72111">
        <ele>2006</ele>
        <time>2026-07-29T06:02:37.716Z</time>
      </trkpt>
      <trkpt lat="45.75146" lon="6.72112">
        <ele>2006</ele>
        <time>2026-07-29T06:02:38.716Z</time>
      </trkpt>
      <trkpt lat="45.75146" lon="6.72113">
        <ele>2006</ele>
        <time>2026-07-29T06:02:39.716Z</time>
      </trkpt>
      <trkpt lat="45.75145" lon="6.72115">
        <ele>2006</ele>
        <time>2026-07-29T06:02:40.716Z</time>
      </trkpt>
      <trkpt lat="45.75145" lon="6.72115">
        <ele>2007</ele>
        <time>2026-07-29T06:02:41.716Z</time>
      </trkpt>
      <trkpt lat="45.75145" lon="6.72116">
        <ele>2007</ele>
        <time>2026-07-29T06:02:42.716Z</time>
      </trkpt>
      <trkpt lat="45.75145" lon="6.72117">
        <ele>2007</ele>
        <time>2026-07-29T06:02:43.716Z</time>
      </trkpt>
      <trkpt lat="45.75145" lon="6.72118">
        <ele>2007</ele>
        <time>2026-07-29T06:02:44.716Z</time>
      </trkpt>
      <trkpt lat="45.75145" lon="6.72119">
        <ele>2007</ele>
        <time>2026-07-29T06:02:45.716Z</time>
      </trkpt>
      <trkpt lat="45.75145" lon="6.72121">
        <ele>2007</ele>
        <time>2026-07-29T06:02:46.716Z</time>
      </trkpt>
      <trkpt lat="45.75145" lon="6.72122">
        <ele>2007</ele>
        <time>2026-07-29T06:02:47.716Z</time>
      </trkpt>
      <trkpt lat="45.75146" lon="6.72124">
        <ele>2008</ele>
        <time>2026-07-29T06:02:48.716Z</time>
      </trkpt>
      <trkpt lat="45.75146" lon="6.72125">
        <ele>2008</ele>
        <time>2026-07-29T06:02:49.716Z</time>
      </trkpt>
      <trkpt lat="45.75146" lon="6.72127">
        <ele>2008</ele>
        <time>2026-07-29T06:02:50.716Z</time>
      </trkpt>
      <trkpt lat="45.75146" lon="6.72129">
        <ele>2009</ele>
        <time>2026-07-29T06:02:51.717Z</time>
      </trkpt>
      <trkpt lat="45.75146" lon="6.7213">
        <ele>2009</ele>
        <time>2026-07-29T06:02:52.716Z</time>
      </trkpt>
      <trkpt lat="45.75145" lon="6.72132">
        <ele>2010</ele>
        <time>2026-07-29T06:02:53.716Z</time>
      </trkpt>
      <trkpt lat="45.75145" lon="6.72133">
        <ele>2010</ele>
        <time>2026-07-29T06:02:54.716Z</time>
      </trkpt>
      <trkpt lat="45.75145" lon="6.72134">
        <ele>2010</ele>
        <time>2026-07-29T06:02:55.716Z</time>
      </trkpt>
      <trkpt lat="45.75145" lon="6.72134">
        <ele>2010</ele>
        <time>2026-07-29T06:02:56.716Z</time>
      </trkpt>
      <trkpt lat="45.75145" lon="6.72134">
        <ele>2010</ele>
        <time>2026-07-29T06:02:57.716Z</time>
      </trkpt>
      <trkpt lat="45.75145" lon="6.72134">
        <ele>2010</ele>
        <time>2026-07-29T06:02:58.716Z</time>
      </trkpt>
      <trkpt lat="45.75145" lon="6.72134">
        <ele>2009</ele>
        <time>2026-07-29T06:02:59.716Z</time>
      </trkpt>
      <trkpt lat="45.75145" lon="6.72135">
        <ele>2009</ele>
        <time>2026-07-29T06:03:00.716Z</time>
      </trkpt>
      <trkpt lat="45.75145" lon="6.72135">
        <ele>2009</ele>
        <time>2026-07-29T06:03:01.716Z</time>
      </trkpt>
      <trkpt lat="45.75145" lon="6.72135">
        <ele>2009</ele>
        <time>2026-07-29T06:03:02.716Z</time>
      </trkpt>
      <trkpt lat="45.75145" lon="6.72135">
        <ele>2009</ele>
        <time>2026-07-29T06:03:03.716Z</time>
      </trkpt>
      <trkpt lat="45.75145" lon="6.72135">
        <ele>2010</ele>
        <time>2026-07-29T06:03:04.716Z</time>
      </trkpt>
      <trkpt lat="45.75145" lon="6.72136">
        <ele>2010</ele>
        <time>2026-07-29T06:03:05.716Z</time>
      </trkpt>
      <trkpt lat="45.75145" lon="6.72137">
        <ele>2011</ele>
        <time>2026-07-29T06:03:06.716Z</time>
      </trkpt>
      <trkpt lat="45.75146" lon="6.72139">
        <ele>2011</ele>
        <time>2026-07-29T06:03:07.716Z</time>
      </trkpt>
      <trkpt lat="45.75146" lon="6.7214">
        <ele>2012</ele>
        <time>2026-07-29T06:03:08.716Z</time>
      </trkpt>
      <trkpt lat="45.75146" lon="6.72141">
        <ele>2012</ele>
        <time>2026-07-29T06:03:09.716Z</time>
      </trkpt>
      <trkpt lat="45.75146" lon="6.72143">
        <ele>2013</ele>
        <time>2026-07-29T06:03:10.716Z</time>
      </trkpt>
      <trkpt lat="45.75146" lon="6.72144">
        <ele>2013</ele>
        <time>2026-07-29T06:03:11.716Z</time>
      </trkpt>
      <trkpt lat="45.75146" lon="6.72145">
        <ele>2014</ele>
        <time>2026-07-29T06:03:12.716Z</time>
      </trkpt>
      <trkpt lat="45.75145" lon="6.72146">
        <ele>2014</ele>
        <time>2026-07-29T06:03:13.716Z</time>
      </trkpt>
      <trkpt lat="45.75145" lon="6.72147">
        <ele>2014</ele>
        <time>2026-07-29T06:03:14.716Z</time>
      </trkpt>
      <trkpt lat="45.75144" lon="6.72149">
        <ele>2015</ele>
        <time>2026-07-29T06:03:15.716Z</time>
      </trkpt>
      <trkpt lat="45.75144" lon="6.7215">
        <ele>2015</ele>
        <time>2026-07-29T06:03:16.716Z</time>
      </trkpt>
      <trkpt lat="45.75144" lon="6.72152">
        <ele>2015</ele>
        <time>2026-07-29T06:03:17.716Z</time>
      </trkpt>
      <trkpt lat="45.75145" lon="6.72153">
        <ele>2015</ele>
        <time>2026-07-29T06:03:18.716Z</time>
      </trkpt>
      <trkpt lat="45.75144" lon="6.72155">
        <ele>2015</ele>
        <time>2026-07-29T06:03:19.716Z</time>
      </trkpt>
      <trkpt lat="45.75144" lon="6.72156">
        <ele>2015</ele>
        <time>2026-07-29T06:03:20.716Z</time>
      </trkpt>
      <trkpt lat="45.75144" lon="6.72157">
        <ele>2015</ele>
        <time>2026-07-29T06:03:21.716Z</time>
      </trkpt>
      <trkpt lat="45.75143" lon="6.72158">
        <ele>2015</ele>
        <time>2026-07-29T06:03:22.716Z</time>
      </trkpt>
      <trkpt lat="45.75143" lon="6.72159">
        <ele>2015</ele>
        <time>2026-07-29T06:03:23.716Z</time>
      </trkpt>
      <trkpt lat="45.75143" lon="6.7216">
        <ele>2016</ele>
        <time>2026-07-29T06:03:24.716Z</time>
      </trkpt>
      <trkpt lat="45.75143" lon="6.72162">
        <ele>2016</ele>
        <time>2026-07-29T06:03:25.716Z</time>
      </trkpt>
      <trkpt lat="45.75143" lon="6.72163">
        <ele>2017</ele>
        <time>2026-07-29T06:03:26.716Z</time>
      </trkpt>
      <trkpt lat="45.75142" lon="6.72165">
        <ele>2017</ele>
        <time>2026-07-29T06:03:27.716Z</time>
      </trkpt>
      <trkpt lat="45.75142" lon="6.72167">
        <ele>2017</ele>
        <time>2026-07-29T06:03:28.716Z</time>
      </trkpt>
      <trkpt lat="45.75142" lon="6.72168">
        <ele>2017</ele>
        <time>2026-07-29T06:03:29.716Z</time>
      </trkpt>
      <trkpt lat="45.75142" lon="6.7217">
        <ele>2018</ele>
        <time>2026-07-29T06:03:30.716Z</time>
      </trkpt>
      <trkpt lat="45.75142" lon="6.72171">
        <ele>2018</ele>
        <time>2026-07-29T06:03:31.716Z</time>
      </trkpt>
      <trkpt lat="45.75143" lon="6.72172">
        <ele>2018</ele>
        <time>2026-07-29T06:03:32.716Z</time>
      </trkpt>
      <trkpt lat="45.75143" lon="6.72173">
        <ele>2018</ele>
        <time>2026-07-29T06:03:33.716Z</time>
      </trkpt>
      <trkpt lat="45.75144" lon="6.72174">
        <ele>2018</ele>
        <time>2026-07-29T06:03:34.716Z</time>
      </trkpt>
      <trkpt lat="45.75145" lon="6.72175">
        <ele>2018</ele>
        <time>2026-07-29T06:03:35.716Z</time>
      </trkpt>
      <trkpt lat="45.75145" lon="6.72177">
        <ele>2018</ele>
        <time>2026-07-29T06:03:36.716Z</time>
      </trkpt>
      <trkpt lat="45.75146" lon="6.72178">
        <ele>2019</ele>
        <time>2026-07-29T06:03:37.716Z</time>
      </trkpt>
      <trkpt lat="45.75146" lon="6.72179">
        <ele>2019</ele>
        <time>2026-07-29T06:03:38.716Z</time>
      </trkpt>
      <trkpt lat="45.75146" lon="6.7218">
        <ele>2019</ele>
        <time>2026-07-29T06:03:39.716Z</time>
      </trkpt>
      <trkpt lat="45.75147" lon="6.72182">
        <ele>2019</ele>
        <time>2026-07-29T06:03:40.716Z</time>
      </trkpt>
      <trkpt lat="45.75147" lon="6.72183">
        <ele>2019</ele>
        <time>2026-07-29T06:03:41.716Z</time>
      </trkpt>
      <trkpt lat="45.75147" lon="6.72185">
        <ele>2019</ele>
        <time>2026-07-29T06:03:42.716Z</time>
      </trkpt>
      <trkpt lat="45.75147" lon="6.72186">
        <ele>2019</ele>
        <time>2026-07-29T06:03:43.716Z</time>
      </trkpt>
      <trkpt lat="45.75147" lon="6.72188">
        <ele>2019</ele>
        <time>2026-07-29T06:03:44.716Z</time>
      </trkpt>
      <trkpt lat="45.75147" lon="6.72189">
        <ele>2019</ele>
        <time>2026-07-29T06:03:45.716Z</time>
      </trkpt>
      <trkpt lat="45.75148" lon="6.7219">
        <ele>2019</ele>
        <time>2026-07-29T06:03:46.716Z</time>
      </trkpt>
      <trkpt lat="45.75148" lon="6.72192">
        <ele>2020</ele>
        <time>2026-07-29T06:03:47.716Z</time>
      </trkpt>
      <trkpt lat="45.75149" lon="6.72193">
        <ele>2020</ele>
        <time>2026-07-29T06:03:48.716Z</time>
      </trkpt>
      <trkpt lat="45.75149" lon="6.72194">
        <ele>2021</ele>
        <time>2026-07-29T06:03:49.716Z</time>
      </trkpt>
      <trkpt lat="45.75149" lon="6.72196">
        <ele>2021</ele>
        <time>2026-07-29T06:03:50.716Z</time>
      </trkpt>
      <trkpt lat="45.75149" lon="6.72197">
        <ele>2022</ele>
        <time>2026-07-29T06:03:51.716Z</time>
      </trkpt>
      <trkpt lat="45.75149" lon="6.72199">
        <ele>2022</ele>
        <time>2026-07-29T06:03:52.716Z</time>
      </trkpt>
      <trkpt lat="45.75149" lon="6.722">
        <ele>2022</ele>
        <time>2026-07-29T06:03:53.716Z</time>
      </trkpt>
      <trkpt lat="45.75149" lon="6.72201">
        <ele>2023</ele>
        <time>2026-07-29T06:03:54.716Z</time>
      </trkpt>
      <trkpt lat="45.75149" lon="6.72203">
        <ele>2022</ele>
        <time>2026-07-29T06:03:55.716Z</time>
      </trkpt>
      <trkpt lat="45.75149" lon="6.72204">
        <ele>2023</ele>
        <time>2026-07-29T06:03:56.716Z</time>
      </trkpt>
      <trkpt lat="45.75149" lon="6.72206">
        <ele>2023</ele>
        <time>2026-07-29T06:03:57.716Z</time>
      </trkpt>
      <trkpt lat="45.75149" lon="6.72207">
        <ele>2023</ele>
        <time>2026-07-29T06:03:58.716Z</time>
      </trkpt>
      <trkpt lat="45.7515" lon="6.72209">
        <ele>2023</ele>
        <time>2026-07-29T06:03:59.716Z</time>
      </trkpt>
      <trkpt lat="45.7515" lon="6.7221">
        <ele>2023</ele>
        <time>2026-07-29T06:04:00.716Z</time>
      </trkpt>
      <trkpt lat="45.7515" lon="6.72212">
        <ele>2024</ele>
        <time>2026-07-29T06:04:01.716Z</time>
      </trkpt>
      <trkpt lat="45.75151" lon="6.72213">
        <ele>2024</ele>
        <time>2026-07-29T06:04:02.716Z</time>
      </trkpt>
      <trkpt lat="45.75151" lon="6.72214">
        <ele>2025</ele>
        <time>2026-07-29T06:04:03.716Z</time>
      </trkpt>
      <trkpt lat="45.75152" lon="6.72216">
        <ele>2025</ele>
        <time>2026-07-29T06:04:04.716Z</time>
      </trkpt>
      <trkpt lat="45.75152" lon="6.72217">
        <ele>2025</ele>
        <time>2026-07-29T06:04:05.716Z</time>
      </trkpt>
      <trkpt lat="45.75152" lon="6.72219">
        <ele>2025</ele>
        <time>2026-07-29T06:04:06.716Z</time>
      </trkpt>
      <trkpt lat="45.75152" lon="6.7222">
        <ele>2025</ele>
        <time>2026-07-29T06:04:07.716Z</time>
      </trkpt>
      <trkpt lat="45.75153" lon="6.72222">
        <ele>2026</ele>
        <time>2026-07-29T06:04:08.716Z</time>
      </trkpt>
      <trkpt lat="45.75153" lon="6.72224">
        <ele>2026</ele>
        <time>2026-07-29T06:04:09.716Z</time>
      </trkpt>
      <trkpt lat="45.75153" lon="6.72225">
        <ele>2026</ele>
        <time>2026-07-29T06:04:10.716Z</time>
      </trkpt>
      <trkpt lat="45.75154" lon="6.72227">
        <ele>2026</ele>
        <time>2026-07-29T06:04:11.716Z</time>
      </trkpt>
      <trkpt lat="45.75154" lon="6.72228">
        <ele>2026</ele>
        <time>2026-07-29T06:04:12.716Z</time>
      </trkpt>
      <trkpt lat="45.75154" lon="6.72229">
        <ele>2026</ele>
        <time>2026-07-29T06:04:13.716Z</time>
      </trkpt>
      <trkpt lat="45.75154" lon="6.7223">
        <ele>2026</ele>
        <time>2026-07-29T06:04:14.716Z</time>
      </trkpt>
      <trkpt lat="45.75154" lon="6.72231">
        <ele>2026</ele>
        <time>2026-07-29T06:04:15.716Z</time>
      </trkpt>
      <trkpt lat="45.75154" lon="6.72232">
        <ele>2027</ele>
        <time>2026-07-29T06:04:16.716Z</time>
      </trkpt>
      <trkpt lat="45.75153" lon="6.72234">
        <ele>2027</ele>
        <time>2026-07-29T06:04:17.716Z</time>
      </trkpt>
      <trkpt lat="45.75152" lon="6.72234">
        <ele>2027</ele>
        <time>2026-07-29T06:04:18.716Z</time>
      </trkpt>
      <trkpt lat="45.75152" lon="6.72235">
        <ele>2027</ele>
        <time>2026-07-29T06:04:19.716Z</time>
      </trkpt>
      <trkpt lat="45.75151" lon="6.72236">
        <ele>2028</ele>
        <time>2026-07-29T06:04:20.716Z</time>
      </trkpt>
      <trkpt lat="45.7515" lon="6.72237">
        <ele>2028</ele>
        <time>2026-07-29T06:04:21.716Z</time>
      </trkpt>
      <trkpt lat="45.7515" lon="6.72239">
        <ele>2028</ele>
        <time>2026-07-29T06:04:22.716Z</time>
      </trkpt>
      <trkpt lat="45.75149" lon="6.7224">
        <ele>2028</ele>
        <time>2026-07-29T06:04:23.716Z</time>
      </trkpt>
      <trkpt lat="45.75149" lon="6.7224">
        <ele>2028</ele>
        <time>2026-07-29T06:04:24.716Z</time>
      </trkpt>
      <trkpt lat="45.75148" lon="6.72241">
        <ele>2028</ele>
        <time>2026-07-29T06:04:25.716Z</time>
      </trkpt>
      <trkpt lat="45.75148" lon="6.72242">
        <ele>2028</ele>
        <time>2026-07-29T06:04:26.716Z</time>
      </trkpt>
      <trkpt lat="45.75148" lon="6.72243">
        <ele>2028</ele>
        <time>2026-07-29T06:04:27.716Z</time>
      </trkpt>
      <trkpt lat="45.75148" lon="6.72244">
        <ele>2028</ele>
        <time>2026-07-29T06:04:28.716Z</time>
      </trkpt>
      <trkpt lat="45.75148" lon="6.72246">
        <ele>2028</ele>
        <time>2026-07-29T06:04:29.716Z</time>
      </trkpt>
      <trkpt lat="45.75148" lon="6.72247">
        <ele>2028</ele>
        <time>2026-07-29T06:04:30.716Z</time>
      </trkpt>
      <trkpt lat="45.75148" lon="6.72248">
        <ele>2028</ele>
        <time>2026-07-29T06:04:31.716Z</time>
      </trkpt>
      <trkpt lat="45.75149" lon="6.72249">
        <ele>2028</ele>
        <time>2026-07-29T06:04:32.716Z</time>
      </trkpt>
      <trkpt lat="45.7515" lon="6.7225">
        <ele>2029</ele>
        <time>2026-07-29T06:04:33.716Z</time>
      </trkpt>
      <trkpt lat="45.7515" lon="6.72251">
        <ele>2029</ele>
        <time>2026-07-29T06:04:34.716Z</time>
      </trkpt>
      <trkpt lat="45.75151" lon="6.72253">
        <ele>2030</ele>
        <time>2026-07-29T06:04:35.716Z</time>
      </trkpt>
      <trkpt lat="45.75151" lon="6.72254">
        <ele>2030</ele>
        <time>2026-07-29T06:04:36.716Z</time>
      </trkpt>
      <trkpt lat="45.75152" lon="6.72256">
        <ele>2030</ele>
        <time>2026-07-29T06:04:37.716Z</time>
      </trkpt>
      <trkpt lat="45.75152" lon="6.72257">
        <ele>2031</ele>
        <time>2026-07-29T06:04:38.716Z</time>
      </trkpt>
      <trkpt lat="45.75152" lon="6.72259">
        <ele>2031</ele>
        <time>2026-07-29T06:04:39.716Z</time>
      </trkpt>
      <trkpt lat="45.75151" lon="6.7226">
        <ele>2031</ele>
        <time>2026-07-29T06:04:40.716Z</time>
      </trkpt>
      <trkpt lat="45.75151" lon="6.72262">
        <ele>2031</ele>
        <time>2026-07-29T06:04:41.716Z</time>
      </trkpt>
      <trkpt lat="45.75151" lon="6.72263">
        <ele>2032</ele>
        <time>2026-07-29T06:04:42.716Z</time>
      </trkpt>
      <trkpt lat="45.75152" lon="6.72265">
        <ele>2032</ele>
        <time>2026-07-29T06:04:43.716Z</time>
      </trkpt>
      <trkpt lat="45.75152" lon="6.72266">
        <ele>2032</ele>
        <time>2026-07-29T06:04:44.716Z</time>
      </trkpt>
      <trkpt lat="45.75152" lon="6.72268">
        <ele>2032</ele>
        <time>2026-07-29T06:04:45.716Z</time>
      </trkpt>
      <trkpt lat="45.75152" lon="6.72269">
        <ele>2033</ele>
        <time>2026-07-29T06:04:46.716Z</time>
      </trkpt>
      <trkpt lat="45.75152" lon="6.72271">
        <ele>2033</ele>
        <time>2026-07-29T06:04:47.716Z</time>
      </trkpt>
      <trkpt lat="45.75152" lon="6.72272">
        <ele>2033</ele>
        <time>2026-07-29T06:04:48.716Z</time>
      </trkpt>
      <trkpt lat="45.75152" lon="6.72274">
        <ele>2033</ele>
        <time>2026-07-29T06:04:49.716Z</time>
      </trkpt>
      <trkpt lat="45.75152" lon="6.72275">
        <ele>2033</ele>
        <time>2026-07-29T06:04:50.716Z</time>
      </trkpt>
      <trkpt lat="45.75152" lon="6.72276">
        <ele>2034</ele>
        <time>2026-07-29T06:04:51.716Z</time>
      </trkpt>
      <trkpt lat="45.75152" lon="6.72277">
        <ele>2034</ele>
        <time>2026-07-29T06:04:52.716Z</time>
      </trkpt>
      <trkpt lat="45.75152" lon="6.72279">
        <ele>2035</ele>
        <time>2026-07-29T06:04:53.716Z</time>
      </trkpt>
      <trkpt lat="45.75152" lon="6.7228">
        <ele>2035</ele>
        <time>2026-07-29T06:04:54.716Z</time>
      </trkpt>
      <trkpt lat="45.75152" lon="6.72281">
        <ele>2035</ele>
        <time>2026-07-29T06:04:55.716Z</time>
      </trkpt>
      <trkpt lat="45.75152" lon="6.72283">
        <ele>2035</ele>
        <time>2026-07-29T06:04:56.716Z</time>
      </trkpt>
      <trkpt lat="45.75152" lon="6.72284">
        <ele>2036</ele>
        <time>2026-07-29T06:04:57.716Z</time>
      </trkpt>
      <trkpt lat="45.75152" lon="6.72285">
        <ele>2036</ele>
        <time>2026-07-29T06:04:58.716Z</time>
      </trkpt>
      <trkpt lat="45.75151" lon="6.72287">
        <ele>2036</ele>
        <time>2026-07-29T06:04:59.716Z</time>
      </trkpt>
      <trkpt lat="45.75151" lon="6.72288">
        <ele>2036</ele>
        <time>2026-07-29T06:05:00.716Z</time>
      </trkpt>
      <trkpt lat="45.75151" lon="6.7229">
        <ele>2036</ele>
        <time>2026-07-29T06:05:01.716Z</time>
      </trkpt>
      <trkpt lat="45.75151" lon="6.72291">
        <ele>2036</ele>
        <time>2026-07-29T06:05:02.716Z</time>
      </trkpt>
      <trkpt lat="45.75152" lon="6.72292">
        <ele>2036</ele>
        <time>2026-07-29T06:05:03.716Z</time>
      </trkpt>
      <trkpt lat="45.75152" lon="6.72293">
        <ele>2036</ele>
        <time>2026-07-29T06:05:04.716Z</time>
      </trkpt>
      <trkpt lat="45.75152" lon="6.72295">
        <ele>2037</ele>
        <time>2026-07-29T06:05:05.716Z</time>
      </trkpt>
      <trkpt lat="45.75152" lon="6.72296">
        <ele>2037</ele>
        <time>2026-07-29T06:05:06.716Z</time>
      </trkpt>
      <trkpt lat="45.75152" lon="6.72297">
        <ele>2037</ele>
        <time>2026-07-29T06:05:07.716Z</time>
      </trkpt>
      <trkpt lat="45.75152" lon="6.72298">
        <ele>2037</ele>
        <time>2026-07-29T06:05:08.716Z</time>
      </trkpt>
      <trkpt lat="45.75153" lon="6.72299">
        <ele>2037</ele>
        <time>2026-07-29T06:05:09.716Z</time>
      </trkpt>
      <trkpt lat="45.75153" lon="6.72301">
        <ele>2037</ele>
        <time>2026-07-29T06:05:10.716Z</time>
      </trkpt>
      <trkpt lat="45.75153" lon="6.72302">
        <ele>2037</ele>
        <time>2026-07-29T06:05:11.716Z</time>
      </trkpt>
      <trkpt lat="45.75153" lon="6.72303">
        <ele>2037</ele>
        <time>2026-07-29T06:05:12.716Z</time>
      </trkpt>
      <trkpt lat="45.75152" lon="6.72305">
        <ele>2038</ele>
        <time>2026-07-29T06:05:13.716Z</time>
      </trkpt>
      <trkpt lat="45.75152" lon="6.72306">
        <ele>2038</ele>
        <time>2026-07-29T06:05:14.716Z</time>
      </trkpt>
      <trkpt lat="45.75151" lon="6.72307">
        <ele>2039</ele>
        <time>2026-07-29T06:05:15.716Z</time>
      </trkpt>
      <trkpt lat="45.75151" lon="6.72308">
        <ele>2039</ele>
        <time>2026-07-29T06:05:16.716Z</time>
      </trkpt>
      <trkpt lat="45.7515" lon="6.72309">
        <ele>2039</ele>
        <time>2026-07-29T06:05:17.716Z</time>
      </trkpt>
      <trkpt lat="45.75149" lon="6.7231">
        <ele>2040</ele>
        <time>2026-07-29T06:05:18.716Z</time>
      </trkpt>
      <trkpt lat="45.75149" lon="6.7231">
        <ele>2040</ele>
        <time>2026-07-29T06:05:19.716Z</time>
      </trkpt>
      <trkpt lat="45.75148" lon="6.72311">
        <ele>2040</ele>
        <time>2026-07-29T06:05:20.716Z</time>
      </trkpt>
      <trkpt lat="45.75148" lon="6.72312">
        <ele>2041</ele>
        <time>2026-07-29T06:05:21.716Z</time>
      </trkpt>
      <trkpt lat="45.75148" lon="6.72313">
        <ele>2041</ele>
        <time>2026-07-29T06:05:22.716Z</time>
      </trkpt>
      <trkpt lat="45.75147" lon="6.72315">
        <ele>2042</ele>
        <time>2026-07-29T06:05:23.716Z</time>
      </trkpt>
      <trkpt lat="45.75147" lon="6.72316">
        <ele>2042</ele>
        <time>2026-07-29T06:05:24.716Z</time>
      </trkpt>
      <trkpt lat="45.75147" lon="6.72318">
        <ele>2043</ele>
        <time>2026-07-29T06:05:25.716Z</time>
      </trkpt>
      <trkpt lat="45.75147" lon="6.72318">
        <ele>2043</ele>
        <time>2026-07-29T06:05:26.716Z</time>
      </trkpt>
      <trkpt lat="45.75146" lon="6.72319">
        <ele>2044</ele>
        <time>2026-07-29T06:05:27.716Z</time>
      </trkpt>
      <trkpt lat="45.75147" lon="6.7232">
        <ele>2044</ele>
        <time>2026-07-29T06:05:28.716Z</time>
      </trkpt>
      <trkpt lat="45.75147" lon="6.72321">
        <ele>2045</ele>
        <time>2026-07-29T06:05:29.716Z</time>
      </trkpt>
      <trkpt lat="45.75147" lon="6.72322">
        <ele>2045</ele>
        <time>2026-07-29T06:05:30.716Z</time>
      </trkpt>
      <trkpt lat="45.75147" lon="6.72324">
        <ele>2045</ele>
        <time>2026-07-29T06:05:31.716Z</time>
      </trkpt>
      <trkpt lat="45.75147" lon="6.72325">
        <ele>2046</ele>
        <time>2026-07-29T06:05:32.716Z</time>
      </trkpt>
      <trkpt lat="45.75148" lon="6.72326">
        <ele>2046</ele>
        <time>2026-07-29T06:05:33.716Z</time>
      </trkpt>
      <trkpt lat="45.75148" lon="6.72328">
        <ele>2046</ele>
        <time>2026-07-29T06:05:34.716Z</time>
      </trkpt>
      <trkpt lat="45.75149" lon="6.72329">
        <ele>2046</ele>
        <time>2026-07-29T06:05:35.716Z</time>
      </trkpt>
      <trkpt lat="45.75149" lon="6.7233">
        <ele>2046</ele>
        <time>2026-07-29T06:05:36.716Z</time>
      </trkpt>
      <trkpt lat="45.75149" lon="6.72331">
        <ele>2047</ele>
        <time>2026-07-29T06:05:37.716Z</time>
      </trkpt>
      <trkpt lat="45.75149" lon="6.72332">
        <ele>2047</ele>
        <time>2026-07-29T06:05:38.716Z</time>
      </trkpt>
      <trkpt lat="45.75149" lon="6.72333">
        <ele>2047</ele>
        <time>2026-07-29T06:05:39.716Z</time>
      </trkpt>
      <trkpt lat="45.75149" lon="6.72335">
        <ele>2047</ele>
        <time>2026-07-29T06:05:40.716Z</time>
      </trkpt>
      <trkpt lat="45.75148" lon="6.72335">
        <ele>2046</ele>
        <time>2026-07-29T06:05:41.716Z</time>
      </trkpt>
      <trkpt lat="45.75147" lon="6.72336">
        <ele>2047</ele>
        <time>2026-07-29T06:05:42.716Z</time>
      </trkpt>
      <trkpt lat="45.75147" lon="6.72337">
        <ele>2047</ele>
        <time>2026-07-29T06:05:43.716Z</time>
      </trkpt>
      <trkpt lat="45.75146" lon="6.72338">
        <ele>2047</ele>
        <time>2026-07-29T06:05:44.716Z</time>
      </trkpt>
      <trkpt lat="45.75145" lon="6.72339">
        <ele>2047</ele>
        <time>2026-07-29T06:05:45.716Z</time>
      </trkpt>
      <trkpt lat="45.75144" lon="6.7234">
        <ele>2047</ele>
        <time>2026-07-29T06:05:46.716Z</time>
      </trkpt>
      <trkpt lat="45.75143" lon="6.7234">
        <ele>2047</ele>
        <time>2026-07-29T06:05:47.716Z</time>
      </trkpt>
      <trkpt lat="45.75142" lon="6.7234">
        <ele>2047</ele>
        <time>2026-07-29T06:05:48.716Z</time>
      </trkpt>
      <trkpt lat="45.75141" lon="6.7234">
        <ele>2048</ele>
        <time>2026-07-29T06:05:49.716Z</time>
      </trkpt>
      <trkpt lat="45.7514" lon="6.7234">
        <ele>2048</ele>
        <time>2026-07-29T06:05:50.716Z</time>
      </trkpt>
      <trkpt lat="45.75139" lon="6.72339">
        <ele>2048</ele>
        <time>2026-07-29T06:05:51.716Z</time>
      </trkpt>
      <trkpt lat="45.75138" lon="6.72339">
        <ele>2049</ele>
        <time>2026-07-29T06:05:52.716Z</time>
      </trkpt>
      <trkpt lat="45.75137" lon="6.72338">
        <ele>2049</ele>
        <time>2026-07-29T06:05:53.716Z</time>
      </trkpt>
      <trkpt lat="45.75137" lon="6.72338">
        <ele>2049</ele>
        <time>2026-07-29T06:05:54.716Z</time>
      </trkpt>
      <trkpt lat="45.75136" lon="6.72337">
        <ele>2049</ele>
        <time>2026-07-29T06:05:55.716Z</time>
      </trkpt>
      <trkpt lat="45.75135" lon="6.72336">
        <ele>2049</ele>
        <time>2026-07-29T06:05:56.716Z</time>
      </trkpt>
      <trkpt lat="45.75135" lon="6.72336">
        <ele>2049</ele>
        <time>2026-07-29T06:05:57.716Z</time>
      </trkpt>
      <trkpt lat="45.75134" lon="6.72335">
        <ele>2049</ele>
        <time>2026-07-29T06:05:58.716Z</time>
      </trkpt>
      <trkpt lat="45.75134" lon="6.72335">
        <ele>2050</ele>
        <time>2026-07-29T06:05:59.716Z</time>
      </trkpt>
      <trkpt lat="45.75133" lon="6.72335">
        <ele>2050</ele>
        <time>2026-07-29T06:06:00.716Z</time>
      </trkpt>
      <trkpt lat="45.75132" lon="6.72334">
        <ele>2050</ele>
        <time>2026-07-29T06:06:01.716Z</time>
      </trkpt>
      <trkpt lat="45.75132" lon="6.72334">
        <ele>2050</ele>
        <time>2026-07-29T06:06:02.716Z</time>
      </trkpt>
      <trkpt lat="45.75132" lon="6.72333">
        <ele>2050</ele>
        <time>2026-07-29T06:06:03.716Z</time>
      </trkpt>
      <trkpt lat="45.75131" lon="6.72333">
        <ele>2050</ele>
        <time>2026-07-29T06:06:04.716Z</time>
      </trkpt>
      <trkpt lat="45.7513" lon="6.72333">
        <ele>2051</ele>
        <time>2026-07-29T06:06:05.716Z</time>
      </trkpt>
      <trkpt lat="45.75129" lon="6.72332">
        <ele>2051</ele>
        <time>2026-07-29T06:06:06.716Z</time>
      </trkpt>
      <trkpt lat="45.75128" lon="6.72332">
        <ele>2052</ele>
        <time>2026-07-29T06:06:07.716Z</time>
      </trkpt>
      <trkpt lat="45.75127" lon="6.72332">
        <ele>2052</ele>
        <time>2026-07-29T06:06:08.716Z</time>
      </trkpt>
      <trkpt lat="45.75126" lon="6.72332">
        <ele>2052</ele>
        <time>2026-07-29T06:06:09.716Z</time>
      </trkpt>
      <trkpt lat="45.75126" lon="6.72333">
        <ele>2053</ele>
        <time>2026-07-29T06:06:10.716Z</time>
      </trkpt>
      <trkpt lat="45.75125" lon="6.72333">
        <ele>2053</ele>
        <time>2026-07-29T06:06:11.716Z</time>
      </trkpt>
      <trkpt lat="45.75125" lon="6.72334">
        <ele>2054</ele>
        <time>2026-07-29T06:06:12.716Z</time>
      </trkpt>
      <trkpt lat="45.75124" lon="6.72334">
        <ele>2054</ele>
        <time>2026-07-29T06:06:13.716Z</time>
      </trkpt>
      <trkpt lat="45.75123" lon="6.72335">
        <ele>2054</ele>
        <time>2026-07-29T06:06:14.716Z</time>
      </trkpt>
      <trkpt lat="45.75123" lon="6.72335">
        <ele>2054</ele>
        <time>2026-07-29T06:06:15.716Z</time>
      </trkpt>
      <trkpt lat="45.75123" lon="6.72336">
        <ele>2054</ele>
        <time>2026-07-29T06:06:16.716Z</time>
      </trkpt>
      <trkpt lat="45.75122" lon="6.72337">
        <ele>2055</ele>
        <time>2026-07-29T06:06:17.716Z</time>
      </trkpt>
      <trkpt lat="45.75122" lon="6.72338">
        <ele>2055</ele>
        <time>2026-07-29T06:06:18.716Z</time>
      </trkpt>
      <trkpt lat="45.75121" lon="6.72338">
        <ele>2055</ele>
        <time>2026-07-29T06:06:19.716Z</time>
      </trkpt>
      <trkpt lat="45.75121" lon="6.72339">
        <ele>2056</ele>
        <time>2026-07-29T06:06:20.716Z</time>
      </trkpt>
      <trkpt lat="45.7512" lon="6.72339">
        <ele>2056</ele>
        <time>2026-07-29T06:06:21.716Z</time>
      </trkpt>
      <trkpt lat="45.75119" lon="6.72339">
        <ele>2056</ele>
        <time>2026-07-29T06:06:22.716Z</time>
      </trkpt>
      <trkpt lat="45.75119" lon="6.7234">
        <ele>2056</ele>
        <time>2026-07-29T06:06:23.716Z</time>
      </trkpt>
      <trkpt lat="45.75118" lon="6.7234">
        <ele>2056</ele>
        <time>2026-07-29T06:06:24.716Z</time>
      </trkpt>
      <trkpt lat="45.75118" lon="6.72341">
        <ele>2056</ele>
        <time>2026-07-29T06:06:25.716Z</time>
      </trkpt>
      <trkpt lat="45.75117" lon="6.72342">
        <ele>2056</ele>
        <time>2026-07-29T06:06:26.716Z</time>
      </trkpt>
      <trkpt lat="45.75117" lon="6.72343">
        <ele>2056</ele>
        <time>2026-07-29T06:06:27.716Z</time>
      </trkpt>
      <trkpt lat="45.75117" lon="6.72343">
        <ele>2056</ele>
        <time>2026-07-29T06:06:28.716Z</time>
      </trkpt>
      <trkpt lat="45.75117" lon="6.72344">
        <ele>2056</ele>
        <time>2026-07-29T06:06:29.716Z</time>
      </trkpt>
      <trkpt lat="45.75117" lon="6.72345">
        <ele>2057</ele>
        <time>2026-07-29T06:06:30.716Z</time>
      </trkpt>
      <trkpt lat="45.75116" lon="6.72346">
        <ele>2057</ele>
        <time>2026-07-29T06:06:31.716Z</time>
      </trkpt>
      <trkpt lat="45.75116" lon="6.72347">
        <ele>2058</ele>
        <time>2026-07-29T06:06:32.716Z</time>
      </trkpt>
      <trkpt lat="45.75116" lon="6.72348">
        <ele>2058</ele>
        <time>2026-07-29T06:06:33.716Z</time>
      </trkpt>
      <trkpt lat="45.75116" lon="6.72348">
        <ele>2059</ele>
        <time>2026-07-29T06:06:34.716Z</time>
      </trkpt>
      <trkpt lat="45.75116" lon="6.72348">
        <ele>2059</ele>
        <time>2026-07-29T06:06:35.716Z</time>
      </trkpt>
      <trkpt lat="45.75116" lon="6.72348">
        <ele>2059</ele>
        <time>2026-07-29T06:06:36.716Z</time>
      </trkpt>
      <trkpt lat="45.75116" lon="6.72348">
        <ele>2059</ele>
        <time>2026-07-29T06:06:37.716Z</time>
      </trkpt>
      <trkpt lat="45.75116" lon="6.72348">
        <ele>2059</ele>
        <time>2026-07-29T06:06:38.716Z</time>
      </trkpt>
      <trkpt lat="45.75116" lon="6.72348">
        <ele>2059</ele>
        <time>2026-07-29T06:06:39.716Z</time>
      </trkpt>
      <trkpt lat="45.75115" lon="6.72347">
        <ele>2059</ele>
        <time>2026-07-29T06:06:40.716Z</time>
      </trkpt>
      <trkpt lat="45.75115" lon="6.72347">
        <ele>2059</ele>
        <time>2026-07-29T06:06:41.716Z</time>
      </trkpt>
      <trkpt lat="45.75115" lon="6.72347">
        <ele>2059</ele>
        <time>2026-07-29T06:06:42.716Z</time>
      </trkpt>
      <trkpt lat="45.75115" lon="6.72347">
        <ele>2058</ele>
        <time>2026-07-29T06:06:43.716Z</time>
      </trkpt>
      <trkpt lat="45.75115" lon="6.72347">
        <ele>2058</ele>
        <time>2026-07-29T06:06:44.716Z</time>
      </trkpt>
      <trkpt lat="45.75115" lon="6.72347">
        <ele>2058</ele>
        <time>2026-07-29T06:06:45.716Z</time>
      </trkpt>
      <trkpt lat="45.75115" lon="6.72347">
        <ele>2058</ele>
        <time>2026-07-29T06:06:46.716Z</time>
      </trkpt>
      <trkpt lat="45.75115" lon="6.72347">
        <ele>2057</ele>
        <time>2026-07-29T06:06:47.716Z</time>
      </trkpt>
      <trkpt lat="45.75115" lon="6.72347">
        <ele>2057</ele>
        <time>2026-07-29T06:06:48.716Z</time>
      </trkpt>
      <trkpt lat="45.75115" lon="6.72347">
        <ele>2057</ele>
        <time>2026-07-29T06:06:49.716Z</time>
      </trkpt>
      <trkpt lat="45.75115" lon="6.72347">
        <ele>2057</ele>
        <time>2026-07-29T06:06:50.716Z</time>
      </trkpt>
      <trkpt lat="45.75115" lon="6.72348">
        <ele>2057</ele>
        <time>2026-07-29T06:06:51.716Z</time>
      </trkpt>
      <trkpt lat="45.75115" lon="6.7235">
        <ele>2057</ele>
        <time>2026-07-29T06:06:52.716Z</time>
      </trkpt>
      <trkpt lat="45.75115" lon="6.72352">
        <ele>2057</ele>
        <time>2026-07-29T06:06:53.716Z</time>
      </trkpt>
      <trkpt lat="45.75115" lon="6.72354">
        <ele>2057</ele>
        <time>2026-07-29T06:06:54.716Z</time>
      </trkpt>
      <trkpt lat="45.75115" lon="6.72356">
        <ele>2057</ele>
        <time>2026-07-29T06:06:55.716Z</time>
      </trkpt>
      <trkpt lat="45.75115" lon="6.72358">
        <ele>2058</ele>
        <time>2026-07-29T06:06:56.716Z</time>
      </trkpt>
      <trkpt lat="45.75115" lon="6.7236">
        <ele>2058</ele>
        <time>2026-07-29T06:06:57.716Z</time>
      </trkpt>
      <trkpt lat="45.75115" lon="6.72362">
        <ele>2059</ele>
        <time>2026-07-29T06:06:58.716Z</time>
      </trkpt>
      <trkpt lat="45.75115" lon="6.72364">
        <ele>2059</ele>
        <time>2026-07-29T06:06:59.716Z</time>
      </trkpt>
      <trkpt lat="45.75114" lon="6.72366">
        <ele>2060</ele>
        <time>2026-07-29T06:07:00.716Z</time>
      </trkpt>
      <trkpt lat="45.75114" lon="6.72367">
        <ele>2060</ele>
        <time>2026-07-29T06:07:01.716Z</time>
      </trkpt>
      <trkpt lat="45.75114" lon="6.72369">
        <ele>2060</ele>
        <time>2026-07-29T06:07:02.716Z</time>
      </trkpt>
      <trkpt lat="45.75114" lon="6.7237">
        <ele>2060</ele>
        <time>2026-07-29T06:07:03.716Z</time>
      </trkpt>
      <trkpt lat="45.75115" lon="6.72371">
        <ele>2061</ele>
        <time>2026-07-29T06:07:04.716Z</time>
      </trkpt>
      <trkpt lat="45.75115" lon="6.72372">
        <ele>2061</ele>
        <time>2026-07-29T06:07:05.716Z</time>
      </trkpt>
      <trkpt lat="45.75114" lon="6.72373">
        <ele>2062</ele>
        <time>2026-07-29T06:07:06.716Z</time>
      </trkpt>
      <trkpt lat="45.75114" lon="6.72375">
        <ele>2062</ele>
        <time>2026-07-29T06:07:07.716Z</time>
      </trkpt>
      <trkpt lat="45.75114" lon="6.72376">
        <ele>2062</ele>
        <time>2026-07-29T06:07:08.716Z</time>
      </trkpt>
      <trkpt lat="45.75113" lon="6.72377">
        <ele>2063</ele>
        <time>2026-07-29T06:07:09.716Z</time>
      </trkpt>
      <trkpt lat="45.75112" lon="6.72378">
        <ele>2063</ele>
        <time>2026-07-29T06:07:10.716Z</time>
      </trkpt>
      <trkpt lat="45.75112" lon="6.72379">
        <ele>2063</ele>
        <time>2026-07-29T06:07:11.716Z</time>
      </trkpt>
      <trkpt lat="45.75111" lon="6.7238">
        <ele>2064</ele>
        <time>2026-07-29T06:07:12.716Z</time>
      </trkpt>
      <trkpt lat="45.7511" lon="6.72381">
        <ele>2064</ele>
        <time>2026-07-29T06:07:13.716Z</time>
      </trkpt>
      <trkpt lat="45.7511" lon="6.72383">
        <ele>2064</ele>
        <time>2026-07-29T06:07:14.716Z</time>
      </trkpt>
      <trkpt lat="45.75109" lon="6.72384">
        <ele>2064</ele>
        <time>2026-07-29T06:07:15.716Z</time>
      </trkpt>
      <trkpt lat="45.75109" lon="6.72385">
        <ele>2064</ele>
        <time>2026-07-29T06:07:16.716Z</time>
      </trkpt>
      <trkpt lat="45.75109" lon="6.72386">
        <ele>2064</ele>
        <time>2026-07-29T06:07:17.716Z</time>
      </trkpt>
      <trkpt lat="45.75109" lon="6.72387">
        <ele>2064</ele>
        <time>2026-07-29T06:07:18.716Z</time>
      </trkpt>
      <trkpt lat="45.75109" lon="6.72388">
        <ele>2065</ele>
        <time>2026-07-29T06:07:19.716Z</time>
      </trkpt>
      <trkpt lat="45.75109" lon="6.72389">
        <ele>2065</ele>
        <time>2026-07-29T06:07:20.716Z</time>
      </trkpt>
      <trkpt lat="45.7511" lon="6.7239">
        <ele>2065</ele>
        <time>2026-07-29T06:07:21.716Z</time>
      </trkpt>
      <trkpt lat="45.75111" lon="6.7239">
        <ele>2065</ele>
        <time>2026-07-29T06:07:22.716Z</time>
      </trkpt>
      <trkpt lat="45.75111" lon="6.72391">
        <ele>2066</ele>
        <time>2026-07-29T06:07:23.716Z</time>
      </trkpt>
      <trkpt lat="45.75111" lon="6.72391">
        <ele>2066</ele>
        <time>2026-07-29T06:07:24.716Z</time>
      </trkpt>
      <trkpt lat="45.75112" lon="6.72392">
        <ele>2066</ele>
        <time>2026-07-29T06:07:25.716Z</time>
      </trkpt>
      <trkpt lat="45.75113" lon="6.72393">
        <ele>2067</ele>
        <time>2026-07-29T06:07:26.716Z</time>
      </trkpt>
      <trkpt lat="45.75113" lon="6.72394">
        <ele>2067</ele>
        <time>2026-07-29T06:07:27.716Z</time>
      </trkpt>
      <trkpt lat="45.75113" lon="6.72395">
        <ele>2068</ele>
        <time>2026-07-29T06:07:28.716Z</time>
      </trkpt>
      <trkpt lat="45.75112" lon="6.72395">
        <ele>2068</ele>
        <time>2026-07-29T06:07:29.716Z</time>
      </trkpt>
      <trkpt lat="45.75112" lon="6.72396">
        <ele>2068</ele>
        <time>2026-07-29T06:07:30.716Z</time>
      </trkpt>
      <trkpt lat="45.75111" lon="6.72397">
        <ele>2068</ele>
        <time>2026-07-29T06:07:31.716Z</time>
      </trkpt>
      <trkpt lat="45.7511" lon="6.72397">
        <ele>2068</ele>
        <time>2026-07-29T06:07:32.716Z</time>
      </trkpt>
      <trkpt lat="45.7511" lon="6.72398">
        <ele>2068</ele>
        <time>2026-07-29T06:07:33.716Z</time>
      </trkpt>
      <trkpt lat="45.7511" lon="6.724">
        <ele>2068</ele>
        <time>2026-07-29T06:07:34.716Z</time>
      </trkpt>
      <trkpt lat="45.7511" lon="6.72401">
        <ele>2068</ele>
        <time>2026-07-29T06:07:35.716Z</time>
      </trkpt>
      <trkpt lat="45.75109" lon="6.72401">
        <ele>2069</ele>
        <time>2026-07-29T06:07:36.716Z</time>
      </trkpt>
      <trkpt lat="45.75109" lon="6.72402">
        <ele>2069</ele>
        <time>2026-07-29T06:07:37.716Z</time>
      </trkpt>
      <trkpt lat="45.75109" lon="6.72403">
        <ele>2069</ele>
        <time>2026-07-29T06:07:38.716Z</time>
      </trkpt>
      <trkpt lat="45.75108" lon="6.72404">
        <ele>2070</ele>
        <time>2026-07-29T06:07:39.716Z</time>
      </trkpt>
      <trkpt lat="45.75108" lon="6.72405">
        <ele>2070</ele>
        <time>2026-07-29T06:07:40.716Z</time>
      </trkpt>
      <trkpt lat="45.75107" lon="6.72406">
        <ele>2070</ele>
        <time>2026-07-29T06:07:41.716Z</time>
      </trkpt>
      <trkpt lat="45.75107" lon="6.72407">
        <ele>2070</ele>
        <time>2026-07-29T06:07:42.716Z</time>
      </trkpt>
      <trkpt lat="45.75108" lon="6.72408">
        <ele>2071</ele>
        <time>2026-07-29T06:07:43.716Z</time>
      </trkpt>
      <trkpt lat="45.75108" lon="6.72409">
        <ele>2071</ele>
        <time>2026-07-29T06:07:44.716Z</time>
      </trkpt>
      <trkpt lat="45.75108" lon="6.72409">
        <ele>2071</ele>
        <time>2026-07-29T06:07:45.716Z</time>
      </trkpt>
      <trkpt lat="45.75109" lon="6.72409">
        <ele>2071</ele>
        <time>2026-07-29T06:07:46.716Z</time>
      </trkpt>
      <trkpt lat="45.7511" lon="6.72409">
        <ele>2071</ele>
        <time>2026-07-29T06:07:47.716Z</time>
      </trkpt>
      <trkpt lat="45.75111" lon="6.7241">
        <ele>2072</ele>
        <time>2026-07-29T06:07:48.716Z</time>
      </trkpt>
      <trkpt lat="45.75111" lon="6.7241">
        <ele>2072</ele>
        <time>2026-07-29T06:07:49.716Z</time>
      </trkpt>
      <trkpt lat="45.75112" lon="6.7241">
        <ele>2072</ele>
        <time>2026-07-29T06:07:50.716Z</time>
      </trkpt>
      <trkpt lat="45.75113" lon="6.72411">
        <ele>2073</ele>
        <time>2026-07-29T06:07:51.716Z</time>
      </trkpt>
      <trkpt lat="45.75114" lon="6.72411">
        <ele>2073</ele>
        <time>2026-07-29T06:07:52.716Z</time>
      </trkpt>
      <trkpt lat="45.75114" lon="6.72411">
        <ele>2073</ele>
        <time>2026-07-29T06:07:53.716Z</time>
      </trkpt>
      <trkpt lat="45.75115" lon="6.72411">
        <ele>2074</ele>
        <time>2026-07-29T06:07:54.716Z</time>
      </trkpt>
      <trkpt lat="45.75115" lon="6.72411">
        <ele>2074</ele>
        <time>2026-07-29T06:07:55.716Z</time>
      </trkpt>
      <trkpt lat="45.75116" lon="6.72412">
        <ele>2074</ele>
        <time>2026-07-29T06:07:56.716Z</time>
      </trkpt>
      <trkpt lat="45.75116" lon="6.72412">
        <ele>2075</ele>
        <time>2026-07-29T06:07:57.716Z</time>
      </trkpt>
      <trkpt lat="45.75117" lon="6.72413">
        <ele>2075</ele>
        <time>2026-07-29T06:07:58.716Z</time>
      </trkpt>
      <trkpt lat="45.75118" lon="6.72414">
        <ele>2075</ele>
        <time>2026-07-29T06:07:59.716Z</time>
      </trkpt>
      <trkpt lat="45.75118" lon="6.72415">
        <ele>2075</ele>
        <time>2026-07-29T06:08:00.716Z</time>
      </trkpt>
      <trkpt lat="45.75118" lon="6.72417">
        <ele>2075</ele>
        <time>2026-07-29T06:08:01.716Z</time>
      </trkpt>
      <trkpt lat="45.75117" lon="6.72418">
        <ele>2075</ele>
        <time>2026-07-29T06:08:02.716Z</time>
      </trkpt>
      <trkpt lat="45.75116" lon="6.72418">
        <ele>2075</ele>
        <time>2026-07-29T06:08:03.716Z</time>
      </trkpt>
      <trkpt lat="45.75116" lon="6.72418">
        <ele>2075</ele>
        <time>2026-07-29T06:08:04.716Z</time>
      </trkpt>
      <trkpt lat="45.75115" lon="6.72418">
        <ele>2075</ele>
        <time>2026-07-29T06:08:05.716Z</time>
      </trkpt>
      <trkpt lat="45.75115" lon="6.72418">
        <ele>2075</ele>
        <time>2026-07-29T06:08:06.716Z</time>
      </trkpt>
      <trkpt lat="45.75114" lon="6.72419">
        <ele>2075</ele>
        <time>2026-07-29T06:08:07.716Z</time>
      </trkpt>
      <trkpt lat="45.75114" lon="6.72419">
        <ele>2075</ele>
        <time>2026-07-29T06:08:08.716Z</time>
      </trkpt>
      <trkpt lat="45.75114" lon="6.7242">
        <ele>2075</ele>
        <time>2026-07-29T06:08:09.716Z</time>
      </trkpt>
      <trkpt lat="45.75114" lon="6.72421">
        <ele>2076</ele>
        <time>2026-07-29T06:08:10.716Z</time>
      </trkpt>
      <trkpt lat="45.75114" lon="6.72421">
        <ele>2076</ele>
        <time>2026-07-29T06:08:11.716Z</time>
      </trkpt>
      <trkpt lat="45.75114" lon="6.72422">
        <ele>2077</ele>
        <time>2026-07-29T06:08:12.716Z</time>
      </trkpt>
      <trkpt lat="45.75115" lon="6.72422">
        <ele>2077</ele>
        <time>2026-07-29T06:08:13.716Z</time>
      </trkpt>
      <trkpt lat="45.75116" lon="6.72422">
        <ele>2078</ele>
        <time>2026-07-29T06:08:14.716Z</time>
      </trkpt>
      <trkpt lat="45.75116" lon="6.72423">
        <ele>2078</ele>
        <time>2026-07-29T06:08:15.716Z</time>
      </trkpt>
      <trkpt lat="45.75117" lon="6.72423">
        <ele>2078</ele>
        <time>2026-07-29T06:08:16.716Z</time>
      </trkpt>
      <trkpt lat="45.75117" lon="6.72423">
        <ele>2079</ele>
        <time>2026-07-29T06:08:17.716Z</time>
      </trkpt>
      <trkpt lat="45.75118" lon="6.72423">
        <ele>2079</ele>
        <time>2026-07-29T06:08:18.716Z</time>
      </trkpt>
      <trkpt lat="45.75119" lon="6.72423">
        <ele>2080</ele>
        <time>2026-07-29T06:08:19.716Z</time>
      </trkpt>
      <trkpt lat="45.7512" lon="6.72423">
        <ele>2080</ele>
        <time>2026-07-29T06:08:20.716Z</time>
      </trkpt>
      <trkpt lat="45.7512" lon="6.72424">
        <ele>2080</ele>
        <time>2026-07-29T06:08:21.716Z</time>
      </trkpt>
      <trkpt lat="45.75121" lon="6.72424">
        <ele>2080</ele>
        <time>2026-07-29T06:08:22.716Z</time>
      </trkpt>
      <trkpt lat="45.75121" lon="6.72425">
        <ele>2081</ele>
        <time>2026-07-29T06:08:23.716Z</time>
      </trkpt>
      <trkpt lat="45.75122" lon="6.72425">
        <ele>2081</ele>
        <time>2026-07-29T06:08:24.716Z</time>
      </trkpt>
      <trkpt lat="45.75123" lon="6.72426">
        <ele>2081</ele>
        <time>2026-07-29T06:08:25.716Z</time>
      </trkpt>
      <trkpt lat="45.75124" lon="6.72427">
        <ele>2081</ele>
        <time>2026-07-29T06:08:26.716Z</time>
      </trkpt>
      <trkpt lat="45.75124" lon="6.72427">
        <ele>2082</ele>
        <time>2026-07-29T06:08:27.716Z</time>
      </trkpt>
      <trkpt lat="45.75125" lon="6.72428">
        <ele>2082</ele>
        <time>2026-07-29T06:08:28.716Z</time>
      </trkpt>
      <trkpt lat="45.75126" lon="6.72428">
        <ele>2082</ele>
        <time>2026-07-29T06:08:29.716Z</time>
      </trkpt>
      <trkpt lat="45.75126" lon="6.72428">
        <ele>2082</ele>
        <time>2026-07-29T06:08:30.716Z</time>
      </trkpt>
      <trkpt lat="45.75126" lon="6.72428">
        <ele>2082</ele>
        <time>2026-07-29T06:08:31.716Z</time>
      </trkpt>
      <trkpt lat="45.75127" lon="6.72428">
        <ele>2082</ele>
        <time>2026-07-29T06:08:32.716Z</time>
      </trkpt>
      <trkpt lat="45.75127" lon="6.72429">
        <ele>2081</ele>
        <time>2026-07-29T06:08:33.716Z</time>
      </trkpt>
      <trkpt lat="45.75129" lon="6.7243">
        <ele>2081</ele>
        <time>2026-07-29T06:08:34.716Z</time>
      </trkpt>
      <trkpt lat="45.75129" lon="6.7243">
        <ele>2080</ele>
        <time>2026-07-29T06:08:35.716Z</time>
      </trkpt>
      <trkpt lat="45.7513" lon="6.72431">
        <ele>2080</ele>
        <time>2026-07-29T06:08:36.716Z</time>
      </trkpt>
      <trkpt lat="45.7513" lon="6.72431">
        <ele>2079</ele>
        <time>2026-07-29T06:08:37.716Z</time>
      </trkpt>
      <trkpt lat="45.75131" lon="6.72431">
        <ele>2080</ele>
        <time>2026-07-29T06:08:38.716Z</time>
      </trkpt>
      <trkpt lat="45.75131" lon="6.72431">
        <ele>2080</ele>
        <time>2026-07-29T06:08:39.716Z</time>
      </trkpt>
      <trkpt lat="45.75132" lon="6.72432">
        <ele>2079</ele>
        <time>2026-07-29T06:08:40.716Z</time>
      </trkpt>
      <trkpt lat="45.75133" lon="6.72433">
        <ele>2079</ele>
        <time>2026-07-29T06:08:41.716Z</time>
      </trkpt>
      <trkpt lat="45.75134" lon="6.72434">
        <ele>2080</ele>
        <time>2026-07-29T06:08:42.716Z</time>
      </trkpt>
      <trkpt lat="45.75134" lon="6.72436">
        <ele>2079</ele>
        <time>2026-07-29T06:08:43.716Z</time>
      </trkpt>
      <trkpt lat="45.75134" lon="6.72436">
        <ele>2079</ele>
        <time>2026-07-29T06:08:44.716Z</time>
      </trkpt>
      <trkpt lat="45.75135" lon="6.72436">
        <ele>2079</ele>
        <time>2026-07-29T06:08:45.716Z</time>
      </trkpt>
      <trkpt lat="45.75136" lon="6.72436">
        <ele>2080</ele>
        <time>2026-07-29T06:08:46.716Z</time>
      </trkpt>
      <trkpt lat="45.75136" lon="6.72436">
        <ele>2080</ele>
        <time>2026-07-29T06:08:47.716Z</time>
      </trkpt>
      <trkpt lat="45.75137" lon="6.72437">
        <ele>2080</ele>
        <time>2026-07-29T06:08:48.716Z</time>
      </trkpt>
      <trkpt lat="45.75138" lon="6.72437">
        <ele>2081</ele>
        <time>2026-07-29T06:08:49.716Z</time>
      </trkpt>
      <trkpt lat="45.75139" lon="6.72437">
        <ele>2082</ele>
        <time>2026-07-29T06:08:50.716Z</time>
      </trkpt>
      <trkpt lat="45.7514" lon="6.72437">
        <ele>2082</ele>
        <time>2026-07-29T06:08:51.716Z</time>
      </trkpt>
      <trkpt lat="45.75141" lon="6.72438">
        <ele>2083</ele>
        <time>2026-07-29T06:08:52.716Z</time>
      </trkpt>
      <trkpt lat="45.75141" lon="6.72439">
        <ele>2083</ele>
        <time>2026-07-29T06:08:53.716Z</time>
      </trkpt>
      <trkpt lat="45.75142" lon="6.72439">
        <ele>2083</ele>
        <time>2026-07-29T06:08:54.716Z</time>
      </trkpt>
      <trkpt lat="45.75142" lon="6.7244">
        <ele>2083</ele>
        <time>2026-07-29T06:08:55.716Z</time>
      </trkpt>
      <trkpt lat="45.75143" lon="6.7244">
        <ele>2084</ele>
        <time>2026-07-29T06:08:56.716Z</time>
      </trkpt>
      <trkpt lat="45.75144" lon="6.7244">
        <ele>2084</ele>
        <time>2026-07-29T06:08:57.716Z</time>
      </trkpt>
      <trkpt lat="45.75144" lon="6.7244">
        <ele>2084</ele>
        <time>2026-07-29T06:08:58.716Z</time>
      </trkpt>
      <trkpt lat="45.75145" lon="6.72441">
        <ele>2085</ele>
        <time>2026-07-29T06:08:59.716Z</time>
      </trkpt>
      <trkpt lat="45.75146" lon="6.72441">
        <ele>2085</ele>
        <time>2026-07-29T06:09:00.716Z</time>
      </trkpt>
      <trkpt lat="45.75147" lon="6.72442">
        <ele>2085</ele>
        <time>2026-07-29T06:09:01.716Z</time>
      </trkpt>
      <trkpt lat="45.75148" lon="6.72442">
        <ele>2086</ele>
        <time>2026-07-29T06:09:02.716Z</time>
      </trkpt>
      <trkpt lat="45.75149" lon="6.72443">
        <ele>2086</ele>
        <time>2026-07-29T06:09:03.716Z</time>
      </trkpt>
      <trkpt lat="45.7515" lon="6.72443">
        <ele>2087</ele>
        <time>2026-07-29T06:09:04.716Z</time>
      </trkpt>
      <trkpt lat="45.75151" lon="6.72443">
        <ele>2087</ele>
        <time>2026-07-29T06:09:05.716Z</time>
      </trkpt>
      <trkpt lat="45.75152" lon="6.72444">
        <ele>2087</ele>
        <time>2026-07-29T06:09:06.716Z</time>
      </trkpt>
      <trkpt lat="45.75152" lon="6.72444">
        <ele>2087</ele>
        <time>2026-07-29T06:09:07.716Z</time>
      </trkpt>
      <trkpt lat="45.75153" lon="6.72445">
        <ele>2088</ele>
        <time>2026-07-29T06:09:08.716Z</time>
      </trkpt>
      <trkpt lat="45.75153" lon="6.72445">
        <ele>2088</ele>
        <time>2026-07-29T06:09:09.716Z</time>
      </trkpt>
      <trkpt lat="45.75153" lon="6.72445">
        <ele>2088</ele>
        <time>2026-07-29T06:09:10.716Z</time>
      </trkpt>
      <trkpt lat="45.75153" lon="6.72445">
        <ele>2088</ele>
        <time>2026-07-29T06:09:11.716Z</time>
      </trkpt>
      <trkpt lat="45.75153" lon="6.72445">
        <ele>2088</ele>
        <time>2026-07-29T06:09:12.716Z</time>
      </trkpt>
      <trkpt lat="45.75153" lon="6.72445">
        <ele>2089</ele>
        <time>2026-07-29T06:09:13.716Z</time>
      </trkpt>
      <trkpt lat="45.75152" lon="6.72444">
        <ele>2089</ele>
        <time>2026-07-29T06:09:14.716Z</time>
      </trkpt>
      <trkpt lat="45.75152" lon="6.72444">
        <ele>2089</ele>
        <time>2026-07-29T06:09:15.716Z</time>
      </trkpt>
      <trkpt lat="45.75152" lon="6.72444">
        <ele>2089</ele>
        <time>2026-07-29T06:09:16.716Z</time>
      </trkpt>
      <trkpt lat="45.75152" lon="6.72444">
        <ele>2089</ele>
        <time>2026-07-29T06:09:17.716Z</time>
      </trkpt>
      <trkpt lat="45.75152" lon="6.72444">
        <ele>2089</ele>
        <time>2026-07-29T06:09:18.716Z</time>
      </trkpt>
      <trkpt lat="45.75152" lon="6.72444">
        <ele>2089</ele>
        <time>2026-07-29T06:09:19.716Z</time>
      </trkpt>
      <trkpt lat="45.75152" lon="6.72444">
        <ele>2089</ele>
        <time>2026-07-29T06:09:20.716Z</time>
      </trkpt>
      <trkpt lat="45.75152" lon="6.72444">
        <ele>2089</ele>
        <time>2026-07-29T06:09:21.716Z</time>
      </trkpt>
      <trkpt lat="45.75152" lon="6.72444">
        <ele>2089</ele>
        <time>2026-07-29T06:09:22.716Z</time>
      </trkpt>
      <trkpt lat="45.75152" lon="6.72444">
        <ele>2089</ele>
        <time>2026-07-29T06:09:23.716Z</time>
      </trkpt>
      <trkpt lat="45.75152" lon="6.72444">
        <ele>2089</ele>
        <time>2026-07-29T06:09:24.716Z</time>
      </trkpt>
      <trkpt lat="45.75152" lon="6.72444">
        <ele>2089</ele>
        <time>2026-07-29T06:09:25.716Z</time>
      </trkpt>
      <trkpt lat="45.75152" lon="6.72444">
        <ele>2089</ele>
        <time>2026-07-29T06:09:26.716Z</time>
      </trkpt>
      <trkpt lat="45.75152" lon="6.72444">
        <ele>2089</ele>
        <time>2026-07-29T06:09:27.716Z</time>
      </trkpt>
      <trkpt lat="45.75152" lon="6.72444">
        <ele>2089</ele>
        <time>2026-07-29T06:09:28.716Z</time>
      </trkpt>
      <trkpt lat="45.75152" lon="6.72444">
        <ele>2089</ele>
        <time>2026-07-29T06:09:29.716Z</time>
      </trkpt>
      <trkpt lat="45.75152" lon="6.72444">
        <ele>2089</ele>
        <time>2026-07-29T06:09:30.716Z</time>
      </trkpt>
      <trkpt lat="45.75153" lon="6.72446">
        <ele>2089</ele>
        <time>2026-07-29T06:09:31.716Z</time>
      </trkpt>
      <trkpt lat="45.75154" lon="6.72448">
        <ele>2089</ele>
        <time>2026-07-29T06:09:32.716Z</time>
      </trkpt>
      <trkpt lat="45.75155" lon="6.72449">
        <ele>2089</ele>
        <time>2026-07-29T06:09:33.716Z</time>
      </trkpt>
      <trkpt lat="45.75156" lon="6.7245">
        <ele>2090</ele>
        <time>2026-07-29T06:09:34.716Z</time>
      </trkpt>
      <trkpt lat="45.75156" lon="6.72451">
        <ele>2090</ele>
        <time>2026-07-29T06:09:35.716Z</time>
      </trkpt>
      <trkpt lat="45.75157" lon="6.72453">
        <ele>2090</ele>
        <time>2026-07-29T06:09:36.716Z</time>
      </trkpt>
      <trkpt lat="45.75158" lon="6.72454">
        <ele>2090</ele>
        <time>2026-07-29T06:09:37.716Z</time>
      </trkpt>
      <trkpt lat="45.75159" lon="6.72455">
        <ele>2090</ele>
        <time>2026-07-29T06:09:38.716Z</time>
      </trkpt>
      <trkpt lat="45.75159" lon="6.72457">
        <ele>2090</ele>
        <time>2026-07-29T06:09:39.716Z</time>
      </trkpt>
      <trkpt lat="45.75159" lon="6.72458">
        <ele>2090</ele>
        <time>2026-07-29T06:09:40.716Z</time>
      </trkpt>
      <trkpt lat="45.75159" lon="6.72459">
        <ele>2091</ele>
        <time>2026-07-29T06:09:41.716Z</time>
      </trkpt>
      <trkpt lat="45.75159" lon="6.7246">
        <ele>2091</ele>
        <time>2026-07-29T06:09:42.716Z</time>
      </trkpt>
      <trkpt lat="45.75159" lon="6.72461">
        <ele>2091</ele>
        <time>2026-07-29T06:09:43.716Z</time>
      </trkpt>
      <trkpt lat="45.75159" lon="6.72462">
        <ele>2091</ele>
        <time>2026-07-29T06:09:44.716Z</time>
      </trkpt>
      <trkpt lat="45.7516" lon="6.72462">
        <ele>2092</ele>
        <time>2026-07-29T06:09:45.716Z</time>
      </trkpt>
      <trkpt lat="45.7516" lon="6.72463">
        <ele>2092</ele>
        <time>2026-07-29T06:09:46.716Z</time>
      </trkpt>
      <trkpt lat="45.75161" lon="6.72464">
        <ele>2092</ele>
        <time>2026-07-29T06:09:47.716Z</time>
      </trkpt>
      <trkpt lat="45.7516" lon="6.72465">
        <ele>2092</ele>
        <time>2026-07-29T06:09:48.716Z</time>
      </trkpt>
      <trkpt lat="45.7516" lon="6.72466">
        <ele>2093</ele>
        <time>2026-07-29T06:09:49.716Z</time>
      </trkpt>
      <trkpt lat="45.7516" lon="6.72467">
        <ele>2093</ele>
        <time>2026-07-29T06:09:50.716Z</time>
      </trkpt>
      <trkpt lat="45.75161" lon="6.72468">
        <ele>2093</ele>
        <time>2026-07-29T06:09:51.716Z</time>
      </trkpt>
      <trkpt lat="45.75161" lon="6.72469">
        <ele>2094</ele>
        <time>2026-07-29T06:09:52.716Z</time>
      </trkpt>
      <trkpt lat="45.75161" lon="6.72469">
        <ele>2094</ele>
        <time>2026-07-29T06:09:53.716Z</time>
      </trkpt>
      <trkpt lat="45.75161" lon="6.7247">
        <ele>2094</ele>
        <time>2026-07-29T06:09:54.716Z</time>
      </trkpt>
      <trkpt lat="45.75162" lon="6.7247">
        <ele>2095</ele>
        <time>2026-07-29T06:09:55.716Z</time>
      </trkpt>
      <trkpt lat="45.75163" lon="6.72471">
        <ele>2095</ele>
        <time>2026-07-29T06:09:56.716Z</time>
      </trkpt>
      <trkpt lat="45.75164" lon="6.72471">
        <ele>2096</ele>
        <time>2026-07-29T06:09:57.716Z</time>
      </trkpt>
      <trkpt lat="45.75164" lon="6.72472">
        <ele>2096</ele>
        <time>2026-07-29T06:09:58.716Z</time>
      </trkpt>
      <trkpt lat="45.75164" lon="6.72473">
        <ele>2096</ele>
        <time>2026-07-29T06:09:59.716Z</time>
      </trkpt>
      <trkpt lat="45.75164" lon="6.72474">
        <ele>2096</ele>
        <time>2026-07-29T06:10:00.716Z</time>
      </trkpt>
      <trkpt lat="45.75165" lon="6.72475">
        <ele>2096</ele>
        <time>2026-07-29T06:10:01.716Z</time>
      </trkpt>
      <trkpt lat="45.75165" lon="6.72477">
        <ele>2097</ele>
        <time>2026-07-29T06:10:02.716Z</time>
      </trkpt>
      <trkpt lat="45.75165" lon="6.72478">
        <ele>2097</ele>
        <time>2026-07-29T06:10:03.716Z</time>
      </trkpt>
      <trkpt lat="45.75165" lon="6.72479">
        <ele>2097</ele>
        <time>2026-07-29T06:10:04.716Z</time>
      </trkpt>
      <trkpt lat="45.75166" lon="6.7248">
        <ele>2098</ele>
        <time>2026-07-29T06:10:05.716Z</time>
      </trkpt>
      <trkpt lat="45.75166" lon="6.72481">
        <ele>2098</ele>
        <time>2026-07-29T06:10:06.716Z</time>
      </trkpt>
      <trkpt lat="45.75166" lon="6.72482">
        <ele>2099</ele>
        <time>2026-07-29T06:10:07.716Z</time>
      </trkpt>
      <trkpt lat="45.75167" lon="6.72483">
        <ele>2099</ele>
        <time>2026-07-29T06:10:08.716Z</time>
      </trkpt>
      <trkpt lat="45.75167" lon="6.72484">
        <ele>2100</ele>
        <time>2026-07-29T06:10:09.716Z</time>
      </trkpt>
      <trkpt lat="45.75168" lon="6.72485">
        <ele>2100</ele>
        <time>2026-07-29T06:10:10.716Z</time>
      </trkpt>
      <trkpt lat="45.75169" lon="6.72485">
        <ele>2100</ele>
        <time>2026-07-29T06:10:11.716Z</time>
      </trkpt>
      <trkpt lat="45.7517" lon="6.72486">
        <ele>2101</ele>
        <time>2026-07-29T06:10:12.716Z</time>
      </trkpt>
      <trkpt lat="45.7517" lon="6.72486">
        <ele>2101</ele>
        <time>2026-07-29T06:10:13.716Z</time>
      </trkpt>
      <trkpt lat="45.75171" lon="6.72487">
        <ele>2101</ele>
        <time>2026-07-29T06:10:14.716Z</time>
      </trkpt>
      <trkpt lat="45.75171" lon="6.72488">
        <ele>2102</ele>
        <time>2026-07-29T06:10:15.716Z</time>
      </trkpt>
      <trkpt lat="45.75172" lon="6.72489">
        <ele>2102</ele>
        <time>2026-07-29T06:10:16.716Z</time>
      </trkpt>
      <trkpt lat="45.75172" lon="6.7249">
        <ele>2102</ele>
        <time>2026-07-29T06:10:17.716Z</time>
      </trkpt>
      <trkpt lat="45.75174" lon="6.72491">
        <ele>2102</ele>
        <time>2026-07-29T06:10:18.716Z</time>
      </trkpt>
      <trkpt lat="45.75175" lon="6.72492">
        <ele>2103</ele>
        <time>2026-07-29T06:10:19.716Z</time>
      </trkpt>
      <trkpt lat="45.75175" lon="6.72493">
        <ele>2103</ele>
        <time>2026-07-29T06:10:20.716Z</time>
      </trkpt>
      <trkpt lat="45.75176" lon="6.72494">
        <ele>2104</ele>
        <time>2026-07-29T06:10:21.716Z</time>
      </trkpt>
      <trkpt lat="45.75177" lon="6.72496">
        <ele>2104</ele>
        <time>2026-07-29T06:10:22.716Z</time>
      </trkpt>
      <trkpt lat="45.75177" lon="6.72497">
        <ele>2104</ele>
        <time>2026-07-29T06:10:23.716Z</time>
      </trkpt>
      <trkpt lat="45.75178" lon="6.72498">
        <ele>2105</ele>
        <time>2026-07-29T06:10:24.716Z</time>
      </trkpt>
      <trkpt lat="45.75179" lon="6.72498">
        <ele>2105</ele>
        <time>2026-07-29T06:10:25.716Z</time>
      </trkpt>
      <trkpt lat="45.75179" lon="6.72498">
        <ele>2105</ele>
        <time>2026-07-29T06:10:26.716Z</time>
      </trkpt>
      <trkpt lat="45.75179" lon="6.72498">
        <ele>2105</ele>
        <time>2026-07-29T06:10:27.716Z</time>
      </trkpt>
      <trkpt lat="45.75179" lon="6.72498">
        <ele>2105</ele>
        <time>2026-07-29T06:10:28.716Z</time>
      </trkpt>
      <trkpt lat="45.75179" lon="6.72498">
        <ele>2105</ele>
        <time>2026-07-29T06:10:29.716Z</time>
      </trkpt>
      <trkpt lat="45.7518" lon="6.72497">
        <ele>2105</ele>
        <time>2026-07-29T06:10:30.716Z</time>
      </trkpt>
      <trkpt lat="45.7518" lon="6.72497">
        <ele>2105</ele>
        <time>2026-07-29T06:10:31.716Z</time>
      </trkpt>
      <trkpt lat="45.7518" lon="6.72497">
        <ele>2105</ele>
        <time>2026-07-29T06:10:32.716Z</time>
      </trkpt>
      <trkpt lat="45.7518" lon="6.72497">
        <ele>2105</ele>
        <time>2026-07-29T06:10:33.716Z</time>
      </trkpt>
      <trkpt lat="45.7518" lon="6.72497">
        <ele>2105</ele>
        <time>2026-07-29T06:10:34.716Z</time>
      </trkpt>
      <trkpt lat="45.7518" lon="6.72497">
        <ele>2105</ele>
        <time>2026-07-29T06:10:35.716Z</time>
      </trkpt>
      <trkpt lat="45.7518" lon="6.72497">
        <ele>2105</ele>
        <time>2026-07-29T06:10:36.716Z</time>
      </trkpt>
      <trkpt lat="45.7518" lon="6.72497">
        <ele>2105</ele>
        <time>2026-07-29T06:10:37.716Z</time>
      </trkpt>
      <trkpt lat="45.7518" lon="6.72497">
        <ele>2105</ele>
        <time>2026-07-29T06:10:38.716Z</time>
      </trkpt>
      <trkpt lat="45.7518" lon="6.72497">
        <ele>2105</ele>
        <time>2026-07-29T06:10:39.716Z</time>
      </trkpt>
      <trkpt lat="45.7518" lon="6.72497">
        <ele>2105</ele>
        <time>2026-07-29T06:10:40.716Z</time>
      </trkpt>
      <trkpt lat="45.7518" lon="6.72497">
        <ele>2106</ele>
        <time>2026-07-29T06:10:41.716Z</time>
      </trkpt>
      <trkpt lat="45.7518" lon="6.72497">
        <ele>2106</ele>
        <time>2026-07-29T06:10:42.716Z</time>
      </trkpt>
      <trkpt lat="45.7518" lon="6.72497">
        <ele>2106</ele>
        <time>2026-07-29T06:10:43.716Z</time>
      </trkpt>
      <trkpt lat="45.7518" lon="6.72497">
        <ele>2106</ele>
        <time>2026-07-29T06:10:44.716Z</time>
      </trkpt>
      <trkpt lat="45.7518" lon="6.72497">
        <ele>2106</ele>
        <time>2026-07-29T06:10:45.716Z</time>
      </trkpt>
      <trkpt lat="45.7518" lon="6.72497">
        <ele>2106</ele>
        <time>2026-07-29T06:10:46.716Z</time>
      </trkpt>
      <trkpt lat="45.7518" lon="6.72497">
        <ele>2106</ele>
        <time>2026-07-29T06:10:47.716Z</time>
      </trkpt>
      <trkpt lat="45.75181" lon="6.72499">
        <ele>2106</ele>
        <time>2026-07-29T06:10:48.716Z</time>
      </trkpt>
      <trkpt lat="45.75181" lon="6.72501">
        <ele>2106</ele>
        <time>2026-07-29T06:10:49.716Z</time>
      </trkpt>
      <trkpt lat="45.75182" lon="6.72503">
        <ele>2106</ele>
        <time>2026-07-29T06:10:50.716Z</time>
      </trkpt>
      <trkpt lat="45.75183" lon="6.72504">
        <ele>2106</ele>
        <time>2026-07-29T06:10:51.716Z</time>
      </trkpt>
      <trkpt lat="45.75183" lon="6.72506">
        <ele>2106</ele>
        <time>2026-07-29T06:10:52.716Z</time>
      </trkpt>
      <trkpt lat="45.75184" lon="6.72507">
        <ele>2106</ele>
        <time>2026-07-29T06:10:53.716Z</time>
      </trkpt>
      <trkpt lat="45.75184" lon="6.72509">
        <ele>2106</ele>
        <time>2026-07-29T06:10:54.716Z</time>
      </trkpt>
      <trkpt lat="45.75185" lon="6.7251">
        <ele>2106</ele>
        <time>2026-07-29T06:10:55.716Z</time>
      </trkpt>
      <trkpt lat="45.75187" lon="6.72512">
        <ele>2107</ele>
        <time>2026-07-29T06:10:56.716Z</time>
      </trkpt>
      <trkpt lat="45.75187" lon="6.72513">
        <ele>2107</ele>
        <time>2026-07-29T06:10:57.716Z</time>
      </trkpt>
      <trkpt lat="45.75188" lon="6.72514">
        <ele>2108</ele>
        <time>2026-07-29T06:10:58.716Z</time>
      </trkpt>
      <trkpt lat="45.75188" lon="6.72515">
        <ele>2108</ele>
        <time>2026-07-29T06:10:59.716Z</time>
      </trkpt>
      <trkpt lat="45.75189" lon="6.72516">
        <ele>2108</ele>
        <time>2026-07-29T06:11:00.716Z</time>
      </trkpt>
      <trkpt lat="45.7519" lon="6.72517">
        <ele>2108</ele>
        <time>2026-07-29T06:11:01.716Z</time>
      </trkpt>
      <trkpt lat="45.75191" lon="6.72517">
        <ele>2108</ele>
        <time>2026-07-29T06:11:02.716Z</time>
      </trkpt>
      <trkpt lat="45.75192" lon="6.72518">
        <ele>2109</ele>
        <time>2026-07-29T06:11:03.716Z</time>
      </trkpt>
      <trkpt lat="45.75193" lon="6.72518">
        <ele>2109</ele>
        <time>2026-07-29T06:11:04.716Z</time>
      </trkpt>
      <trkpt lat="45.75194" lon="6.72519">
        <ele>2109</ele>
        <time>2026-07-29T06:11:05.716Z</time>
      </trkpt>
      <trkpt lat="45.75195" lon="6.7252">
        <ele>2109</ele>
        <time>2026-07-29T06:11:06.716Z</time>
      </trkpt>
      <trkpt lat="45.75196" lon="6.72521">
        <ele>2109</ele>
        <time>2026-07-29T06:11:07.716Z</time>
      </trkpt>
      <trkpt lat="45.75197" lon="6.72522">
        <ele>2110</ele>
        <time>2026-07-29T06:11:08.716Z</time>
      </trkpt>
      <trkpt lat="45.75199" lon="6.72523">
        <ele>2110</ele>
        <time>2026-07-29T06:11:09.716Z</time>
      </trkpt>
      <trkpt lat="45.752" lon="6.72524">
        <ele>2110</ele>
        <time>2026-07-29T06:11:10.716Z</time>
      </trkpt>
      <trkpt lat="45.75202" lon="6.72525">
        <ele>2110</ele>
        <time>2026-07-29T06:11:11.716Z</time>
      </trkpt>
      <trkpt lat="45.75203" lon="6.72526">
        <ele>2111</ele>
        <time>2026-07-29T06:11:12.716Z</time>
      </trkpt>
      <trkpt lat="45.75204" lon="6.72526">
        <ele>2111</ele>
        <time>2026-07-29T06:11:13.716Z</time>
      </trkpt>
      <trkpt lat="45.75205" lon="6.72527">
        <ele>2111</ele>
        <time>2026-07-29T06:11:14.716Z</time>
      </trkpt>
      <trkpt lat="45.75207" lon="6.72528">
        <ele>2111</ele>
        <time>2026-07-29T06:11:15.716Z</time>
      </trkpt>
      <trkpt lat="45.75208" lon="6.72528">
        <ele>2111</ele>
        <time>2026-07-29T06:11:16.716Z</time>
      </trkpt>
      <trkpt lat="45.75209" lon="6.72529">
        <ele>2111</ele>
        <time>2026-07-29T06:11:17.716Z</time>
      </trkpt>
      <trkpt lat="45.75211" lon="6.7253">
        <ele>2112</ele>
        <time>2026-07-29T06:11:18.716Z</time>
      </trkpt>
      <trkpt lat="45.75212" lon="6.72531">
        <ele>2112</ele>
        <time>2026-07-29T06:11:19.716Z</time>
      </trkpt>
      <trkpt lat="45.75213" lon="6.72533">
        <ele>2112</ele>
        <time>2026-07-29T06:11:20.716Z</time>
      </trkpt>
      <trkpt lat="45.75215" lon="6.72534">
        <ele>2112</ele>
        <time>2026-07-29T06:11:21.716Z</time>
      </trkpt>
      <trkpt lat="45.75216" lon="6.72535">
        <ele>2112</ele>
        <time>2026-07-29T06:11:22.716Z</time>
      </trkpt>
      <trkpt lat="45.75217" lon="6.72536">
        <ele>2112</ele>
        <time>2026-07-29T06:11:23.716Z</time>
      </trkpt>
      <trkpt lat="45.75218" lon="6.72537">
        <ele>2112</ele>
        <time>2026-07-29T06:11:24.716Z</time>
      </trkpt>
      <trkpt lat="45.75219" lon="6.72538">
        <ele>2112</ele>
        <time>2026-07-29T06:11:25.716Z</time>
      </trkpt>
      <trkpt lat="45.75221" lon="6.72539">
        <ele>2112</ele>
        <time>2026-07-29T06:11:26.716Z</time>
      </trkpt>
      <trkpt lat="45.75222" lon="6.7254">
        <ele>2113</ele>
        <time>2026-07-29T06:11:27.716Z</time>
      </trkpt>
      <trkpt lat="45.75223" lon="6.72541">
        <ele>2113</ele>
        <time>2026-07-29T06:11:28.716Z</time>
      </trkpt>
      <trkpt lat="45.75224" lon="6.72541">
        <ele>2113</ele>
        <time>2026-07-29T06:11:29.716Z</time>
      </trkpt>
      <trkpt lat="45.75225" lon="6.72542">
        <ele>2113</ele>
        <time>2026-07-29T06:11:30.716Z</time>
      </trkpt>
      <trkpt lat="45.75226" lon="6.72543">
        <ele>2113</ele>
        <time>2026-07-29T06:11:31.716Z</time>
      </trkpt>
      <trkpt lat="45.75227" lon="6.72544">
        <ele>2114</ele>
        <time>2026-07-29T06:11:32.716Z</time>
      </trkpt>
      <trkpt lat="45.75228" lon="6.72544">
        <ele>2114</ele>
        <time>2026-07-29T06:11:33.716Z</time>
      </trkpt>
      <trkpt lat="45.75229" lon="6.72545">
        <ele>2114</ele>
        <time>2026-07-29T06:11:34.716Z</time>
      </trkpt>
      <trkpt lat="45.7523" lon="6.72546">
        <ele>2114</ele>
        <time>2026-07-29T06:11:35.716Z</time>
      </trkpt>
      <trkpt lat="45.75231" lon="6.72546">
        <ele>2115</ele>
        <time>2026-07-29T06:11:36.716Z</time>
      </trkpt>
      <trkpt lat="45.75232" lon="6.72547">
        <ele>2115</ele>
        <time>2026-07-29T06:11:37.716Z</time>
      </trkpt>
      <trkpt lat="45.75233" lon="6.72548">
        <ele>2115</ele>
        <time>2026-07-29T06:11:38.716Z</time>
      </trkpt>
      <trkpt lat="45.75233" lon="6.72549">
        <ele>2115</ele>
        <time>2026-07-29T06:11:39.716Z</time>
      </trkpt>
      <trkpt lat="45.75235" lon="6.72549">
        <ele>2115</ele>
        <time>2026-07-29T06:11:40.716Z</time>
      </trkpt>
      <trkpt lat="45.75236" lon="6.7255">
        <ele>2115</ele>
        <time>2026-07-29T06:11:41.716Z</time>
      </trkpt>
      <trkpt lat="45.75236" lon="6.72551">
        <ele>2115</ele>
        <time>2026-07-29T06:11:42.716Z</time>
      </trkpt>
      <trkpt lat="45.75237" lon="6.72552">
        <ele>2115</ele>
        <time>2026-07-29T06:11:43.716Z</time>
      </trkpt>
      <trkpt lat="45.75237" lon="6.72553">
        <ele>2115</ele>
        <time>2026-07-29T06:11:44.716Z</time>
      </trkpt>
      <trkpt lat="45.75238" lon="6.72553">
        <ele>2115</ele>
        <time>2026-07-29T06:11:45.716Z</time>
      </trkpt>
      <trkpt lat="45.75239" lon="6.72554">
        <ele>2115</ele>
        <time>2026-07-29T06:11:46.716Z</time>
      </trkpt>
      <trkpt lat="45.75239" lon="6.72554">
        <ele>2115</ele>
        <time>2026-07-29T06:11:47.716Z</time>
      </trkpt>
      <trkpt lat="45.75241" lon="6.72554">
        <ele>2115</ele>
        <time>2026-07-29T06:11:48.716Z</time>
      </trkpt>
      <trkpt lat="45.75241" lon="6.72555">
        <ele>2116</ele>
        <time>2026-07-29T06:11:49.716Z</time>
      </trkpt>
      <trkpt lat="45.75242" lon="6.72556">
        <ele>2116</ele>
        <time>2026-07-29T06:11:50.716Z</time>
      </trkpt>
      <trkpt lat="45.75243" lon="6.72556">
        <ele>2116</ele>
        <time>2026-07-29T06:11:51.716Z</time>
      </trkpt>
      <trkpt lat="45.75243" lon="6.72557">
        <ele>2116</ele>
        <time>2026-07-29T06:11:52.716Z</time>
      </trkpt>
      <trkpt lat="45.75244" lon="6.72558">
        <ele>2116</ele>
        <time>2026-07-29T06:11:53.716Z</time>
      </trkpt>
      <trkpt lat="45.75245" lon="6.72559">
        <ele>2116</ele>
        <time>2026-07-29T06:11:54.716Z</time>
      </trkpt>
      <trkpt lat="45.75245" lon="6.72559">
        <ele>2117</ele>
        <time>2026-07-29T06:11:55.716Z</time>
      </trkpt>
      <trkpt lat="45.75246" lon="6.72559">
        <ele>2118</ele>
        <time>2026-07-29T06:11:56.716Z</time>
      </trkpt>
      <trkpt lat="45.75247" lon="6.7256">
        <ele>2118</ele>
        <time>2026-07-29T06:11:57.716Z</time>
      </trkpt>
      <trkpt lat="45.75248" lon="6.7256">
        <ele>2119</ele>
        <time>2026-07-29T06:11:58.716Z</time>
      </trkpt>
      <trkpt lat="45.75249" lon="6.7256">
        <ele>2119</ele>
        <time>2026-07-29T06:11:59.716Z</time>
      </trkpt>
      <trkpt lat="45.75249" lon="6.72561">
        <ele>2119</ele>
        <time>2026-07-29T06:12:00.716Z</time>
      </trkpt>
      <trkpt lat="45.7525" lon="6.72562">
        <ele>2120</ele>
        <time>2026-07-29T06:12:01.716Z</time>
      </trkpt>
      <trkpt lat="45.75251" lon="6.72562">
        <ele>2120</ele>
        <time>2026-07-29T06:12:02.716Z</time>
      </trkpt>
      <trkpt lat="45.75252" lon="6.72563">
        <ele>2120</ele>
        <time>2026-07-29T06:12:03.716Z</time>
      </trkpt>
      <trkpt lat="45.75253" lon="6.72563">
        <ele>2121</ele>
        <time>2026-07-29T06:12:04.716Z</time>
      </trkpt>
      <trkpt lat="45.75254" lon="6.72564">
        <ele>2121</ele>
        <time>2026-07-29T06:12:05.716Z</time>
      </trkpt>
      <trkpt lat="45.75255" lon="6.72564">
        <ele>2121</ele>
        <time>2026-07-29T06:12:06.716Z</time>
      </trkpt>
      <trkpt lat="45.75256" lon="6.72565">
        <ele>2121</ele>
        <time>2026-07-29T06:12:07.716Z</time>
      </trkpt>
      <trkpt lat="45.75257" lon="6.72567">
        <ele>2121</ele>
        <time>2026-07-29T06:12:08.716Z</time>
      </trkpt>
      <trkpt lat="45.75257" lon="6.72568">
        <ele>2121</ele>
        <time>2026-07-29T06:12:09.716Z</time>
      </trkpt>
      <trkpt lat="45.75258" lon="6.72569">
        <ele>2121</ele>
        <time>2026-07-29T06:12:10.716Z</time>
      </trkpt>
      <trkpt lat="45.75259" lon="6.7257">
        <ele>2122</ele>
        <time>2026-07-29T06:12:11.716Z</time>
      </trkpt>
      <trkpt lat="45.7526" lon="6.72571">
        <ele>2122</ele>
        <time>2026-07-29T06:12:12.716Z</time>
      </trkpt>
      <trkpt lat="45.7526" lon="6.72572">
        <ele>2123</ele>
        <time>2026-07-29T06:12:13.716Z</time>
      </trkpt>
      <trkpt lat="45.75261" lon="6.72573">
        <ele>2124</ele>
        <time>2026-07-29T06:12:14.716Z</time>
      </trkpt>
      <trkpt lat="45.75262" lon="6.72574">
        <ele>2124</ele>
        <time>2026-07-29T06:12:15.716Z</time>
      </trkpt>
      <trkpt lat="45.75262" lon="6.72575">
        <ele>2125</ele>
        <time>2026-07-29T06:12:16.716Z</time>
      </trkpt>
      <trkpt lat="45.75263" lon="6.72576">
        <ele>2125</ele>
        <time>2026-07-29T06:12:17.716Z</time>
      </trkpt>
      <trkpt lat="45.75264" lon="6.72577">
        <ele>2125</ele>
        <time>2026-07-29T06:12:18.716Z</time>
      </trkpt>
      <trkpt lat="45.75265" lon="6.72578">
        <ele>2126</ele>
        <time>2026-07-29T06:12:19.716Z</time>
      </trkpt>
      <trkpt lat="45.75265" lon="6.72579">
        <ele>2126</ele>
        <time>2026-07-29T06:12:20.716Z</time>
      </trkpt>
      <trkpt lat="45.75266" lon="6.7258">
        <ele>2126</ele>
        <time>2026-07-29T06:12:21.716Z</time>
      </trkpt>
      <trkpt lat="45.75267" lon="6.72581">
        <ele>2126</ele>
        <time>2026-07-29T06:12:22.716Z</time>
      </trkpt>
      <trkpt lat="45.75267" lon="6.72582">
        <ele>2126</ele>
        <time>2026-07-29T06:12:23.716Z</time>
      </trkpt>
      <trkpt lat="45.75267" lon="6.72583">
        <ele>2126</ele>
        <time>2026-07-29T06:12:24.716Z</time>
      </trkpt>
      <trkpt lat="45.75268" lon="6.72584">
        <ele>2126</ele>
        <time>2026-07-29T06:12:25.716Z</time>
      </trkpt>
      <trkpt lat="45.75269" lon="6.72585">
        <ele>2126</ele>
        <time>2026-07-29T06:12:26.716Z</time>
      </trkpt>
      <trkpt lat="45.7527" lon="6.72586">
        <ele>2126</ele>
        <time>2026-07-29T06:12:27.716Z</time>
      </trkpt>
      <trkpt lat="45.75271" lon="6.72587">
        <ele>2126</ele>
        <time>2026-07-29T06:12:28.716Z</time>
      </trkpt>
      <trkpt lat="45.75271" lon="6.72588">
        <ele>2126</ele>
        <time>2026-07-29T06:12:29.716Z</time>
      </trkpt>
      <trkpt lat="45.75272" lon="6.72589">
        <ele>2126</ele>
        <time>2026-07-29T06:12:30.716Z</time>
      </trkpt>
      <trkpt lat="45.75272" lon="6.7259">
        <ele>2126</ele>
        <time>2026-07-29T06:12:31.716Z</time>
      </trkpt>
      <trkpt lat="45.75273" lon="6.7259">
        <ele>2127</ele>
        <time>2026-07-29T06:12:32.716Z</time>
      </trkpt>
      <trkpt lat="45.75274" lon="6.72591">
        <ele>2127</ele>
        <time>2026-07-29T06:12:33.716Z</time>
      </trkpt>
      <trkpt lat="45.75275" lon="6.72591">
        <ele>2128</ele>
        <time>2026-07-29T06:12:34.716Z</time>
      </trkpt>
      <trkpt lat="45.75275" lon="6.72591">
        <ele>2128</ele>
        <time>2026-07-29T06:12:35.716Z</time>
      </trkpt>
      <trkpt lat="45.75276" lon="6.72592">
        <ele>2129</ele>
        <time>2026-07-29T06:12:36.716Z</time>
      </trkpt>
      <trkpt lat="45.75277" lon="6.72592">
        <ele>2129</ele>
        <time>2026-07-29T06:12:37.716Z</time>
      </trkpt>
      <trkpt lat="45.75277" lon="6.72593">
        <ele>2129</ele>
        <time>2026-07-29T06:12:38.716Z</time>
      </trkpt>
      <trkpt lat="45.75278" lon="6.72593">
        <ele>2129</ele>
        <time>2026-07-29T06:12:39.716Z</time>
      </trkpt>
      <trkpt lat="45.75278" lon="6.72593">
        <ele>2129</ele>
        <time>2026-07-29T06:12:40.716Z</time>
      </trkpt>
      <trkpt lat="45.75279" lon="6.72594">
        <ele>2130</ele>
        <time>2026-07-29T06:12:41.716Z</time>
      </trkpt>
      <trkpt lat="45.7528" lon="6.72594">
        <ele>2130</ele>
        <time>2026-07-29T06:12:42.716Z</time>
      </trkpt>
      <trkpt lat="45.75281" lon="6.72594">
        <ele>2130</ele>
        <time>2026-07-29T06:12:43.716Z</time>
      </trkpt>
      <trkpt lat="45.75282" lon="6.72595">
        <ele>2130</ele>
        <time>2026-07-29T06:12:44.716Z</time>
      </trkpt>
      <trkpt lat="45.75282" lon="6.72595">
        <ele>2130</ele>
        <time>2026-07-29T06:12:45.716Z</time>
      </trkpt>
      <trkpt lat="45.75283" lon="6.72595">
        <ele>2130</ele>
        <time>2026-07-29T06:12:46.716Z</time>
      </trkpt>
      <trkpt lat="45.75284" lon="6.72595">
        <ele>2130</ele>
        <time>2026-07-29T06:12:47.716Z</time>
      </trkpt>
      <trkpt lat="45.75284" lon="6.72595">
        <ele>2130</ele>
        <time>2026-07-29T06:12:48.716Z</time>
      </trkpt>
      <trkpt lat="45.75285" lon="6.72596">
        <ele>2131</ele>
        <time>2026-07-29T06:12:49.716Z</time>
      </trkpt>
      <trkpt lat="45.75285" lon="6.72596">
        <ele>2131</ele>
        <time>2026-07-29T06:12:50.716Z</time>
      </trkpt>
      <trkpt lat="45.75286" lon="6.72596">
        <ele>2132</ele>
        <time>2026-07-29T06:12:51.716Z</time>
      </trkpt>
      <trkpt lat="45.75287" lon="6.72597">
        <ele>2132</ele>
        <time>2026-07-29T06:12:52.716Z</time>
      </trkpt>
      <trkpt lat="45.75287" lon="6.72598">
        <ele>2133</ele>
        <time>2026-07-29T06:12:53.716Z</time>
      </trkpt>
      <trkpt lat="45.75288" lon="6.72598">
        <ele>2133</ele>
        <time>2026-07-29T06:12:54.716Z</time>
      </trkpt>
      <trkpt lat="45.75288" lon="6.72599">
        <ele>2133</ele>
        <time>2026-07-29T06:12:55.716Z</time>
      </trkpt>
      <trkpt lat="45.75289" lon="6.72599">
        <ele>2133</ele>
        <time>2026-07-29T06:12:56.716Z</time>
      </trkpt>
      <trkpt lat="45.75289" lon="6.726">
        <ele>2133</ele>
        <time>2026-07-29T06:12:57.716Z</time>
      </trkpt>
      <trkpt lat="45.75289" lon="6.72601">
        <ele>2134</ele>
        <time>2026-07-29T06:12:58.716Z</time>
      </trkpt>
      <trkpt lat="45.75289" lon="6.72601">
        <ele>2134</ele>
        <time>2026-07-29T06:12:59.716Z</time>
      </trkpt>
      <trkpt lat="45.75289" lon="6.72602">
        <ele>2134</ele>
        <time>2026-07-29T06:13:00.716Z</time>
      </trkpt>
      <trkpt lat="45.7529" lon="6.72603">
        <ele>2134</ele>
        <time>2026-07-29T06:13:01.716Z</time>
      </trkpt>
      <trkpt lat="45.7529" lon="6.72603">
        <ele>2134</ele>
        <time>2026-07-29T06:13:02.716Z</time>
      </trkpt>
      <trkpt lat="45.75291" lon="6.72604">
        <ele>2135</ele>
        <time>2026-07-29T06:13:03.716Z</time>
      </trkpt>
      <trkpt lat="45.75292" lon="6.72604">
        <ele>2135</ele>
        <time>2026-07-29T06:13:04.716Z</time>
      </trkpt>
      <trkpt lat="45.75293" lon="6.72605">
        <ele>2135</ele>
        <time>2026-07-29T06:13:05.716Z</time>
      </trkpt>
      <trkpt lat="45.75294" lon="6.72606">
        <ele>2136</ele>
        <time>2026-07-29T06:13:06.716Z</time>
      </trkpt>
      <trkpt lat="45.75295" lon="6.72607">
        <ele>2136</ele>
        <time>2026-07-29T06:13:07.716Z</time>
      </trkpt>
      <trkpt lat="45.75295" lon="6.72608">
        <ele>2136</ele>
        <time>2026-07-29T06:13:08.716Z</time>
      </trkpt>
      <trkpt lat="45.75294" lon="6.72609">
        <ele>2136</ele>
        <time>2026-07-29T06:13:09.716Z</time>
      </trkpt>
      <trkpt lat="45.75294" lon="6.7261">
        <ele>2136</ele>
        <time>2026-07-29T06:13:10.716Z</time>
      </trkpt>
      <trkpt lat="45.75294" lon="6.72611">
        <ele>2136</ele>
        <time>2026-07-29T06:13:11.716Z</time>
      </trkpt>
      <trkpt lat="45.75295" lon="6.72613">
        <ele>2136</ele>
        <time>2026-07-29T06:13:12.716Z</time>
      </trkpt>
      <trkpt lat="45.75295" lon="6.72614">
        <ele>2136</ele>
        <time>2026-07-29T06:13:13.716Z</time>
      </trkpt>
      <trkpt lat="45.75296" lon="6.72615">
        <ele>2137</ele>
        <time>2026-07-29T06:13:14.716Z</time>
      </trkpt>
      <trkpt lat="45.75296" lon="6.72616">
        <ele>2137</ele>
        <time>2026-07-29T06:13:15.716Z</time>
      </trkpt>
      <trkpt lat="45.75297" lon="6.72617">
        <ele>2137</ele>
        <time>2026-07-29T06:13:16.716Z</time>
      </trkpt>
      <trkpt lat="45.75298" lon="6.72617">
        <ele>2137</ele>
        <time>2026-07-29T06:13:17.716Z</time>
      </trkpt>
      <trkpt lat="45.75299" lon="6.72619">
        <ele>2137</ele>
        <time>2026-07-29T06:13:18.716Z</time>
      </trkpt>
      <trkpt lat="45.753" lon="6.72619">
        <ele>2137</ele>
        <time>2026-07-29T06:13:19.716Z</time>
      </trkpt>
      <trkpt lat="45.75301" lon="6.7262">
        <ele>2137</ele>
        <time>2026-07-29T06:13:20.716Z</time>
      </trkpt>
      <trkpt lat="45.75302" lon="6.72621">
        <ele>2137</ele>
        <time>2026-07-29T06:13:21.716Z</time>
      </trkpt>
      <trkpt lat="45.75303" lon="6.72622">
        <ele>2137</ele>
        <time>2026-07-29T06:13:22.716Z</time>
      </trkpt>
      <trkpt lat="45.75304" lon="6.72622">
        <ele>2138</ele>
        <time>2026-07-29T06:13:23.716Z</time>
      </trkpt>
      <trkpt lat="45.75305" lon="6.72622">
        <ele>2138</ele>
        <time>2026-07-29T06:13:24.716Z</time>
      </trkpt>
      <trkpt lat="45.75306" lon="6.72623">
        <ele>2138</ele>
        <time>2026-07-29T06:13:25.716Z</time>
      </trkpt>
      <trkpt lat="45.75307" lon="6.72624">
        <ele>2138</ele>
        <time>2026-07-29T06:13:26.716Z</time>
      </trkpt>
      <trkpt lat="45.75308" lon="6.72624">
        <ele>2138</ele>
        <time>2026-07-29T06:13:27.716Z</time>
      </trkpt>
      <trkpt lat="45.75309" lon="6.72625">
        <ele>2138</ele>
        <time>2026-07-29T06:13:28.716Z</time>
      </trkpt>
      <trkpt lat="45.7531" lon="6.72627">
        <ele>2138</ele>
        <time>2026-07-29T06:13:29.716Z</time>
      </trkpt>
      <trkpt lat="45.7531" lon="6.72628">
        <ele>2139</ele>
        <time>2026-07-29T06:13:30.716Z</time>
      </trkpt>
      <trkpt lat="45.75311" lon="6.72628">
        <ele>2139</ele>
        <time>2026-07-29T06:13:31.716Z</time>
      </trkpt>
      <trkpt lat="45.75312" lon="6.72629">
        <ele>2140</ele>
        <time>2026-07-29T06:13:32.716Z</time>
      </trkpt>
      <trkpt lat="45.75313" lon="6.7263">
        <ele>2140</ele>
        <time>2026-07-29T06:13:33.716Z</time>
      </trkpt>
      <trkpt lat="45.75314" lon="6.72632">
        <ele>2140</ele>
        <time>2026-07-29T06:13:34.716Z</time>
      </trkpt>
      <trkpt lat="45.75315" lon="6.72633">
        <ele>2140</ele>
        <time>2026-07-29T06:13:35.716Z</time>
      </trkpt>
      <trkpt lat="45.75316" lon="6.72634">
        <ele>2140</ele>
        <time>2026-07-29T06:13:36.716Z</time>
      </trkpt>
      <trkpt lat="45.75317" lon="6.72634">
        <ele>2141</ele>
        <time>2026-07-29T06:13:37.716Z</time>
      </trkpt>
      <trkpt lat="45.75318" lon="6.72635">
        <ele>2141</ele>
        <time>2026-07-29T06:13:38.716Z</time>
      </trkpt>
      <trkpt lat="45.75319" lon="6.72635">
        <ele>2141</ele>
        <time>2026-07-29T06:13:39.716Z</time>
      </trkpt>
      <trkpt lat="45.75321" lon="6.72636">
        <ele>2141</ele>
        <time>2026-07-29T06:13:40.716Z</time>
      </trkpt>
      <trkpt lat="45.75322" lon="6.72637">
        <ele>2141</ele>
        <time>2026-07-29T06:13:41.716Z</time>
      </trkpt>
      <trkpt lat="45.75323" lon="6.72638">
        <ele>2141</ele>
        <time>2026-07-29T06:13:42.716Z</time>
      </trkpt>
      <trkpt lat="45.75323" lon="6.72639">
        <ele>2141</ele>
        <time>2026-07-29T06:13:43.716Z</time>
      </trkpt>
      <trkpt lat="45.75324" lon="6.7264">
        <ele>2142</ele>
        <time>2026-07-29T06:13:44.716Z</time>
      </trkpt>
      <trkpt lat="45.75326" lon="6.72641">
        <ele>2142</ele>
        <time>2026-07-29T06:13:45.716Z</time>
      </trkpt>
      <trkpt lat="45.75327" lon="6.72641">
        <ele>2142</ele>
        <time>2026-07-29T06:13:46.716Z</time>
      </trkpt>
      <trkpt lat="45.75328" lon="6.72642">
        <ele>2143</ele>
        <time>2026-07-29T06:13:47.716Z</time>
      </trkpt>
      <trkpt lat="45.75329" lon="6.72642">
        <ele>2143</ele>
        <time>2026-07-29T06:13:48.716Z</time>
      </trkpt>
      <trkpt lat="45.7533" lon="6.72643">
        <ele>2143</ele>
        <time>2026-07-29T06:13:49.716Z</time>
      </trkpt>
      <trkpt lat="45.75331" lon="6.72644">
        <ele>2143</ele>
        <time>2026-07-29T06:13:50.716Z</time>
      </trkpt>
      <trkpt lat="45.75332" lon="6.72645">
        <ele>2143</ele>
        <time>2026-07-29T06:13:51.716Z</time>
      </trkpt>
      <trkpt lat="45.75334" lon="6.72645">
        <ele>2143</ele>
        <time>2026-07-29T06:13:52.716Z</time>
      </trkpt>
      <trkpt lat="45.75335" lon="6.72645">
        <ele>2143</ele>
        <time>2026-07-29T06:13:53.716Z</time>
      </trkpt>
      <trkpt lat="45.75337" lon="6.72646">
        <ele>2143</ele>
        <time>2026-07-29T06:13:54.716Z</time>
      </trkpt>
      <trkpt lat="45.75339" lon="6.72647">
        <ele>2143</ele>
        <time>2026-07-29T06:13:55.716Z</time>
      </trkpt>
      <trkpt lat="45.7534" lon="6.72648">
        <ele>2144</ele>
        <time>2026-07-29T06:13:56.716Z</time>
      </trkpt>
      <trkpt lat="45.75342" lon="6.7265">
        <ele>2144</ele>
        <time>2026-07-29T06:13:57.716Z</time>
      </trkpt>
      <trkpt lat="45.75343" lon="6.72651">
        <ele>2145</ele>
        <time>2026-07-29T06:13:58.716Z</time>
      </trkpt>
      <trkpt lat="45.75345" lon="6.72653">
        <ele>2145</ele>
        <time>2026-07-29T06:13:59.716Z</time>
      </trkpt>
      <trkpt lat="45.75346" lon="6.72655">
        <ele>2145</ele>
        <time>2026-07-29T06:14:00.716Z</time>
      </trkpt>
      <trkpt lat="45.75347" lon="6.72656">
        <ele>2145</ele>
        <time>2026-07-29T06:14:01.716Z</time>
      </trkpt>
      <trkpt lat="45.75349" lon="6.72658">
        <ele>2146</ele>
        <time>2026-07-29T06:14:02.716Z</time>
      </trkpt>
      <trkpt lat="45.7535" lon="6.72659">
        <ele>2146</ele>
        <time>2026-07-29T06:14:03.716Z</time>
      </trkpt>
      <trkpt lat="45.75352" lon="6.7266">
        <ele>2146</ele>
        <time>2026-07-29T06:14:04.716Z</time>
      </trkpt>
      <trkpt lat="45.75353" lon="6.72661">
        <ele>2146</ele>
        <time>2026-07-29T06:14:05.716Z</time>
      </trkpt>
      <trkpt lat="45.75355" lon="6.72662">
        <ele>2146</ele>
        <time>2026-07-29T06:14:06.716Z</time>
      </trkpt>
      <trkpt lat="45.75357" lon="6.72662">
        <ele>2147</ele>
        <time>2026-07-29T06:14:07.716Z</time>
      </trkpt>
      <trkpt lat="45.75358" lon="6.72663">
        <ele>2147</ele>
        <time>2026-07-29T06:14:08.716Z</time>
      </trkpt>
      <trkpt lat="45.7536" lon="6.72664">
        <ele>2147</ele>
        <time>2026-07-29T06:14:09.716Z</time>
      </trkpt>
      <trkpt lat="45.75361" lon="6.72665">
        <ele>2148</ele>
        <time>2026-07-29T06:14:10.716Z</time>
      </trkpt>
      <trkpt lat="45.75363" lon="6.72665">
        <ele>2148</ele>
        <time>2026-07-29T06:14:11.716Z</time>
      </trkpt>
      <trkpt lat="45.75365" lon="6.72666">
        <ele>2149</ele>
        <time>2026-07-29T06:14:12.716Z</time>
      </trkpt>
      <trkpt lat="45.75366" lon="6.72667">
        <ele>2149</ele>
        <time>2026-07-29T06:14:13.716Z</time>
      </trkpt>
      <trkpt lat="45.75368" lon="6.72668">
        <ele>2150</ele>
        <time>2026-07-29T06:14:14.716Z</time>
      </trkpt>
      <trkpt lat="45.75369" lon="6.72669">
        <ele>2150</ele>
        <time>2026-07-29T06:14:15.716Z</time>
      </trkpt>
      <trkpt lat="45.75371" lon="6.7267">
        <ele>2150</ele>
        <time>2026-07-29T06:14:16.716Z</time>
      </trkpt>
      <trkpt lat="45.75372" lon="6.72671">
        <ele>2150</ele>
        <time>2026-07-29T06:14:17.716Z</time>
      </trkpt>
      <trkpt lat="45.75374" lon="6.72672">
        <ele>2150</ele>
        <time>2026-07-29T06:14:18.716Z</time>
      </trkpt>
      <trkpt lat="45.75375" lon="6.72673">
        <ele>2150</ele>
        <time>2026-07-29T06:14:19.716Z</time>
      </trkpt>
      <trkpt lat="45.75377" lon="6.72674">
        <ele>2150</ele>
        <time>2026-07-29T06:14:20.716Z</time>
      </trkpt>
      <trkpt lat="45.75378" lon="6.72675">
        <ele>2150</ele>
        <time>2026-07-29T06:14:21.716Z</time>
      </trkpt>
      <trkpt lat="45.7538" lon="6.72676">
        <ele>2150</ele>
        <time>2026-07-29T06:14:22.716Z</time>
      </trkpt>
      <trkpt lat="45.75381" lon="6.72677">
        <ele>2150</ele>
        <time>2026-07-29T06:14:23.716Z</time>
      </trkpt>
      <trkpt lat="45.75383" lon="6.72678">
        <ele>2150</ele>
        <time>2026-07-29T06:14:24.716Z</time>
      </trkpt>
      <trkpt lat="45.75385" lon="6.72679">
        <ele>2150</ele>
        <time>2026-07-29T06:14:25.716Z</time>
      </trkpt>
      <trkpt lat="45.75386" lon="6.72679">
        <ele>2150</ele>
        <time>2026-07-29T06:14:26.716Z</time>
      </trkpt>
      <trkpt lat="45.75387" lon="6.7268">
        <ele>2150</ele>
        <time>2026-07-29T06:14:27.716Z</time>
      </trkpt>
      <trkpt lat="45.75389" lon="6.72681">
        <ele>2151</ele>
        <time>2026-07-29T06:14:28.716Z</time>
      </trkpt>
      <trkpt lat="45.7539" lon="6.72683">
        <ele>2151</ele>
        <time>2026-07-29T06:14:29.716Z</time>
      </trkpt>
      <trkpt lat="45.7539" lon="6.72684">
        <ele>2151</ele>
        <time>2026-07-29T06:14:30.716Z</time>
      </trkpt>
      <trkpt lat="45.75391" lon="6.72686">
        <ele>2151</ele>
        <time>2026-07-29T06:14:31.716Z</time>
      </trkpt>
      <trkpt lat="45.75392" lon="6.72687">
        <ele>2151</ele>
        <time>2026-07-29T06:14:32.716Z</time>
      </trkpt>
      <trkpt lat="45.75392" lon="6.72687">
        <ele>2151</ele>
        <time>2026-07-29T06:14:33.716Z</time>
      </trkpt>
      <trkpt lat="45.75393" lon="6.72688">
        <ele>2151</ele>
        <time>2026-07-29T06:14:34.716Z</time>
      </trkpt>
      <trkpt lat="45.75393" lon="6.72689">
        <ele>2151</ele>
        <time>2026-07-29T06:14:35.716Z</time>
      </trkpt>
      <trkpt lat="45.75394" lon="6.7269">
        <ele>2151</ele>
        <time>2026-07-29T06:14:36.716Z</time>
      </trkpt>
      <trkpt lat="45.75394" lon="6.7269">
        <ele>2151</ele>
        <time>2026-07-29T06:14:37.716Z</time>
      </trkpt>
      <trkpt lat="45.75394" lon="6.7269">
        <ele>2151</ele>
        <time>2026-07-29T06:14:38.716Z</time>
      </trkpt>
      <trkpt lat="45.75394" lon="6.72691">
        <ele>2151</ele>
        <time>2026-07-29T06:14:39.716Z</time>
      </trkpt>
      <trkpt lat="45.75394" lon="6.72691">
        <ele>2151</ele>
        <time>2026-07-29T06:14:40.716Z</time>
      </trkpt>
      <trkpt lat="45.75394" lon="6.72691">
        <ele>2151</ele>
        <time>2026-07-29T06:14:41.716Z</time>
      </trkpt>
      <trkpt lat="45.75394" lon="6.72691">
        <ele>2152</ele>
        <time>2026-07-29T06:14:42.716Z</time>
      </trkpt>
      <trkpt lat="45.75394" lon="6.72691">
        <ele>2152</ele>
        <time>2026-07-29T06:14:43.716Z</time>
      </trkpt>
      <trkpt lat="45.75394" lon="6.72691">
        <ele>2152</ele>
        <time>2026-07-29T06:14:44.716Z</time>
      </trkpt>
      <trkpt lat="45.75395" lon="6.72692">
        <ele>2152</ele>
        <time>2026-07-29T06:14:45.716Z</time>
      </trkpt>
      <trkpt lat="45.75395" lon="6.72693">
        <ele>2153</ele>
        <time>2026-07-29T06:14:46.716Z</time>
      </trkpt>
      <trkpt lat="45.75396" lon="6.72694">
        <ele>2153</ele>
        <time>2026-07-29T06:14:47.716Z</time>
      </trkpt>
      <trkpt lat="45.75396" lon="6.72696">
        <ele>2154</ele>
        <time>2026-07-29T06:14:48.716Z</time>
      </trkpt>
      <trkpt lat="45.75397" lon="6.72697">
        <ele>2154</ele>
        <time>2026-07-29T06:14:49.716Z</time>
      </trkpt>
      <trkpt lat="45.75397" lon="6.72699">
        <ele>2154</ele>
        <time>2026-07-29T06:14:50.716Z</time>
      </trkpt>
      <trkpt lat="45.75397" lon="6.727">
        <ele>2154</ele>
        <time>2026-07-29T06:14:51.716Z</time>
      </trkpt>
      <trkpt lat="45.75398" lon="6.72702">
        <ele>2154</ele>
        <time>2026-07-29T06:14:52.716Z</time>
      </trkpt>
      <trkpt lat="45.75398" lon="6.72703">
        <ele>2154</ele>
        <time>2026-07-29T06:14:53.716Z</time>
      </trkpt>
      <trkpt lat="45.75399" lon="6.72705">
        <ele>2154</ele>
        <time>2026-07-29T06:14:54.716Z</time>
      </trkpt>
      <trkpt lat="45.754" lon="6.72706">
        <ele>2154</ele>
        <time>2026-07-29T06:14:55.716Z</time>
      </trkpt>
      <trkpt lat="45.754" lon="6.72708">
        <ele>2154</ele>
        <time>2026-07-29T06:14:56.716Z</time>
      </trkpt>
      <trkpt lat="45.75401" lon="6.72709">
        <ele>2154</ele>
        <time>2026-07-29T06:14:57.716Z</time>
      </trkpt>
      <trkpt lat="45.75402" lon="6.7271">
        <ele>2155</ele>
        <time>2026-07-29T06:14:58.716Z</time>
      </trkpt>
      <trkpt lat="45.75403" lon="6.72711">
        <ele>2155</ele>
        <time>2026-07-29T06:14:59.716Z</time>
      </trkpt>
      <trkpt lat="45.75404" lon="6.72712">
        <ele>2155</ele>
        <time>2026-07-29T06:15:00.716Z</time>
      </trkpt>
      <trkpt lat="45.75405" lon="6.72714">
        <ele>2156</ele>
        <time>2026-07-29T06:15:01.716Z</time>
      </trkpt>
      <trkpt lat="45.75406" lon="6.72715">
        <ele>2156</ele>
        <time>2026-07-29T06:15:02.716Z</time>
      </trkpt>
      <trkpt lat="45.75407" lon="6.72717">
        <ele>2156</ele>
        <time>2026-07-29T06:15:03.716Z</time>
      </trkpt>
      <trkpt lat="45.75408" lon="6.72718">
        <ele>2156</ele>
        <time>2026-07-29T06:15:04.716Z</time>
      </trkpt>
      <trkpt lat="45.75409" lon="6.72719">
        <ele>2156</ele>
        <time>2026-07-29T06:15:05.716Z</time>
      </trkpt>
      <trkpt lat="45.7541" lon="6.7272">
        <ele>2156</ele>
        <time>2026-07-29T06:15:06.716Z</time>
      </trkpt>
      <trkpt lat="45.75411" lon="6.72721">
        <ele>2157</ele>
        <time>2026-07-29T06:15:07.716Z</time>
      </trkpt>
      <trkpt lat="45.75412" lon="6.72722">
        <ele>2157</ele>
        <time>2026-07-29T06:15:08.716Z</time>
      </trkpt>
      <trkpt lat="45.75413" lon="6.72723">
        <ele>2157</ele>
        <time>2026-07-29T06:15:09.716Z</time>
      </trkpt>
      <trkpt lat="45.75414" lon="6.72724">
        <ele>2158</ele>
        <time>2026-07-29T06:15:10.716Z</time>
      </trkpt>
      <trkpt lat="45.75415" lon="6.72724">
        <ele>2158</ele>
        <time>2026-07-29T06:15:11.716Z</time>
      </trkpt>
      <trkpt lat="45.75416" lon="6.72725">
        <ele>2158</ele>
        <time>2026-07-29T06:15:12.716Z</time>
      </trkpt>
      <trkpt lat="45.75417" lon="6.72726">
        <ele>2158</ele>
        <time>2026-07-29T06:15:13.716Z</time>
      </trkpt>
      <trkpt lat="45.75418" lon="6.72726">
        <ele>2158</ele>
        <time>2026-07-29T06:15:14.716Z</time>
      </trkpt>
      <trkpt lat="45.75419" lon="6.72727">
        <ele>2158</ele>
        <time>2026-07-29T06:15:15.716Z</time>
      </trkpt>
      <trkpt lat="45.7542" lon="6.72727">
        <ele>2158</ele>
        <time>2026-07-29T06:15:16.716Z</time>
      </trkpt>
      <trkpt lat="45.75421" lon="6.72729">
        <ele>2159</ele>
        <time>2026-07-29T06:15:17.716Z</time>
      </trkpt>
      <trkpt lat="45.75422" lon="6.7273">
        <ele>2159</ele>
        <time>2026-07-29T06:15:18.716Z</time>
      </trkpt>
      <trkpt lat="45.75423" lon="6.72731">
        <ele>2159</ele>
        <time>2026-07-29T06:15:19.716Z</time>
      </trkpt>
      <trkpt lat="45.75423" lon="6.72733">
        <ele>2160</ele>
        <time>2026-07-29T06:15:20.716Z</time>
      </trkpt>
      <trkpt lat="45.75424" lon="6.72734">
        <ele>2159</ele>
        <time>2026-07-29T06:15:21.716Z</time>
      </trkpt>
      <trkpt lat="45.75424" lon="6.72735">
        <ele>2160</ele>
        <time>2026-07-29T06:15:22.716Z</time>
      </trkpt>
      <trkpt lat="45.75425" lon="6.72736">
        <ele>2160</ele>
        <time>2026-07-29T06:15:23.716Z</time>
      </trkpt>
      <trkpt lat="45.75425" lon="6.72736">
        <ele>2160</ele>
        <time>2026-07-29T06:15:24.716Z</time>
      </trkpt>
      <trkpt lat="45.75426" lon="6.72737">
        <ele>2160</ele>
        <time>2026-07-29T06:15:25.716Z</time>
      </trkpt>
      <trkpt lat="45.75426" lon="6.72738">
        <ele>2161</ele>
        <time>2026-07-29T06:15:26.716Z</time>
      </trkpt>
      <trkpt lat="45.75427" lon="6.72738">
        <ele>2161</ele>
        <time>2026-07-29T06:15:27.716Z</time>
      </trkpt>
      <trkpt lat="45.75428" lon="6.72739">
        <ele>2161</ele>
        <time>2026-07-29T06:15:28.716Z</time>
      </trkpt>
      <trkpt lat="45.75429" lon="6.72739">
        <ele>2162</ele>
        <time>2026-07-29T06:15:29.716Z</time>
      </trkpt>
      <trkpt lat="45.7543" lon="6.72739">
        <ele>2162</ele>
        <time>2026-07-29T06:15:30.716Z</time>
      </trkpt>
      <trkpt lat="45.75431" lon="6.7274">
        <ele>2162</ele>
        <time>2026-07-29T06:15:31.716Z</time>
      </trkpt>
      <trkpt lat="45.75432" lon="6.7274">
        <ele>2163</ele>
        <time>2026-07-29T06:15:32.716Z</time>
      </trkpt>
      <trkpt lat="45.75432" lon="6.7274">
        <ele>2163</ele>
        <time>2026-07-29T06:15:33.716Z</time>
      </trkpt>
      <trkpt lat="45.75433" lon="6.7274">
        <ele>2163</ele>
        <time>2026-07-29T06:15:34.716Z</time>
      </trkpt>
      <trkpt lat="45.75434" lon="6.72741">
        <ele>2164</ele>
        <time>2026-07-29T06:15:35.716Z</time>
      </trkpt>
      <trkpt lat="45.75435" lon="6.72741">
        <ele>2164</ele>
        <time>2026-07-29T06:15:36.716Z</time>
      </trkpt>
      <trkpt lat="45.75436" lon="6.72742">
        <ele>2164</ele>
        <time>2026-07-29T06:15:37.716Z</time>
      </trkpt>
      <trkpt lat="45.75437" lon="6.72743">
        <ele>2164</ele>
        <time>2026-07-29T06:15:38.716Z</time>
      </trkpt>
      <trkpt lat="45.75437" lon="6.72745">
        <ele>2164</ele>
        <time>2026-07-29T06:15:39.716Z</time>
      </trkpt>
      <trkpt lat="45.75438" lon="6.72746">
        <ele>2164</ele>
        <time>2026-07-29T06:15:40.716Z</time>
      </trkpt>
      <trkpt lat="45.75439" lon="6.72747">
        <ele>2164</ele>
        <time>2026-07-29T06:15:41.716Z</time>
      </trkpt>
      <trkpt lat="45.75439" lon="6.72749">
        <ele>2164</ele>
        <time>2026-07-29T06:15:42.716Z</time>
      </trkpt>
      <trkpt lat="45.7544" lon="6.72751">
        <ele>2164</ele>
        <time>2026-07-29T06:15:43.716Z</time>
      </trkpt>
      <trkpt lat="45.75441" lon="6.72752">
        <ele>2164</ele>
        <time>2026-07-29T06:15:44.716Z</time>
      </trkpt>
      <trkpt lat="45.75441" lon="6.72754">
        <ele>2165</ele>
        <time>2026-07-29T06:15:45.716Z</time>
      </trkpt>
      <trkpt lat="45.75442" lon="6.72756">
        <ele>2165</ele>
        <time>2026-07-29T06:15:46.716Z</time>
      </trkpt>
      <trkpt lat="45.75442" lon="6.72758">
        <ele>2165</ele>
        <time>2026-07-29T06:15:47.716Z</time>
      </trkpt>
      <trkpt lat="45.75443" lon="6.7276">
        <ele>2165</ele>
        <time>2026-07-29T06:15:48.716Z</time>
      </trkpt>
      <trkpt lat="45.75443" lon="6.72761">
        <ele>2165</ele>
        <time>2026-07-29T06:15:49.716Z</time>
      </trkpt>
      <trkpt lat="45.75444" lon="6.72763">
        <ele>2165</ele>
        <time>2026-07-29T06:15:50.716Z</time>
      </trkpt>
      <trkpt lat="45.75445" lon="6.72765">
        <ele>2164</ele>
        <time>2026-07-29T06:15:51.716Z</time>
      </trkpt>
      <trkpt lat="45.75445" lon="6.72767">
        <ele>2164</ele>
        <time>2026-07-29T06:15:52.716Z</time>
      </trkpt>
      <trkpt lat="45.75445" lon="6.72769">
        <ele>2164</ele>
        <time>2026-07-29T06:15:53.716Z</time>
      </trkpt>
      <trkpt lat="45.75445" lon="6.72771">
        <ele>2164</ele>
        <time>2026-07-29T06:15:54.716Z</time>
      </trkpt>
      <trkpt lat="45.75445" lon="6.72773">
        <ele>2164</ele>
        <time>2026-07-29T06:15:55.716Z</time>
      </trkpt>
      <trkpt lat="45.75446" lon="6.72775">
        <ele>2163</ele>
        <time>2026-07-29T06:15:56.716Z</time>
      </trkpt>
      <trkpt lat="45.75446" lon="6.72776">
        <ele>2163</ele>
        <time>2026-07-29T06:15:57.716Z</time>
      </trkpt>
      <trkpt lat="45.75446" lon="6.72778">
        <ele>2163</ele>
        <time>2026-07-29T06:15:58.716Z</time>
      </trkpt>
      <trkpt lat="45.75446" lon="6.7278">
        <ele>2164</ele>
        <time>2026-07-29T06:15:59.716Z</time>
      </trkpt>
      <trkpt lat="45.75447" lon="6.72781">
        <ele>2164</ele>
        <time>2026-07-29T06:16:00.716Z</time>
      </trkpt>
      <trkpt lat="45.75447" lon="6.72782">
        <ele>2164</ele>
        <time>2026-07-29T06:16:01.716Z</time>
      </trkpt>
      <trkpt lat="45.75448" lon="6.72783">
        <ele>2165</ele>
        <time>2026-07-29T06:16:02.716Z</time>
      </trkpt>
      <trkpt lat="45.75448" lon="6.72785">
        <ele>2165</ele>
        <time>2026-07-29T06:16:03.716Z</time>
      </trkpt>
      <trkpt lat="45.75449" lon="6.72786">
        <ele>2165</ele>
        <time>2026-07-29T06:16:04.716Z</time>
      </trkpt>
      <trkpt lat="45.75449" lon="6.72788">
        <ele>2165</ele>
        <time>2026-07-29T06:16:05.716Z</time>
      </trkpt>
      <trkpt lat="45.7545" lon="6.72789">
        <ele>2165</ele>
        <time>2026-07-29T06:16:06.716Z</time>
      </trkpt>
      <trkpt lat="45.75451" lon="6.7279">
        <ele>2166</ele>
        <time>2026-07-29T06:16:07.716Z</time>
      </trkpt>
      <trkpt lat="45.75452" lon="6.72792">
        <ele>2166</ele>
        <time>2026-07-29T06:16:08.716Z</time>
      </trkpt>
      <trkpt lat="45.75453" lon="6.72793">
        <ele>2166</ele>
        <time>2026-07-29T06:16:09.716Z</time>
      </trkpt>
      <trkpt lat="45.75454" lon="6.72795">
        <ele>2166</ele>
        <time>2026-07-29T06:16:10.716Z</time>
      </trkpt>
      <trkpt lat="45.75455" lon="6.72796">
        <ele>2166</ele>
        <time>2026-07-29T06:16:11.716Z</time>
      </trkpt>
      <trkpt lat="45.75456" lon="6.72798">
        <ele>2167</ele>
        <time>2026-07-29T06:16:12.716Z</time>
      </trkpt>
      <trkpt lat="45.75456" lon="6.72799">
        <ele>2167</ele>
        <time>2026-07-29T06:16:13.716Z</time>
      </trkpt>
      <trkpt lat="45.75457" lon="6.72801">
        <ele>2167</ele>
        <time>2026-07-29T06:16:14.716Z</time>
      </trkpt>
      <trkpt lat="45.75458" lon="6.72802">
        <ele>2167</ele>
        <time>2026-07-29T06:16:15.716Z</time>
      </trkpt>
      <trkpt lat="45.75459" lon="6.72804">
        <ele>2167</ele>
        <time>2026-07-29T06:16:16.716Z</time>
      </trkpt>
      <trkpt lat="45.7546" lon="6.72805">
        <ele>2168</ele>
        <time>2026-07-29T06:16:17.716Z</time>
      </trkpt>
      <trkpt lat="45.75461" lon="6.72807">
        <ele>2168</ele>
        <time>2026-07-29T06:16:18.716Z</time>
      </trkpt>
      <trkpt lat="45.75462" lon="6.72808">
        <ele>2168</ele>
        <time>2026-07-29T06:16:19.716Z</time>
      </trkpt>
      <trkpt lat="45.75463" lon="6.72809">
        <ele>2168</ele>
        <time>2026-07-29T06:16:20.716Z</time>
      </trkpt>
      <trkpt lat="45.75464" lon="6.72811">
        <ele>2169</ele>
        <time>2026-07-29T06:16:21.716Z</time>
      </trkpt>
      <trkpt lat="45.75465" lon="6.72812">
        <ele>2169</ele>
        <time>2026-07-29T06:16:22.716Z</time>
      </trkpt>
      <trkpt lat="45.75465" lon="6.72813">
        <ele>2169</ele>
        <time>2026-07-29T06:16:23.716Z</time>
      </trkpt>
      <trkpt lat="45.75466" lon="6.72814">
        <ele>2170</ele>
        <time>2026-07-29T06:16:24.716Z</time>
      </trkpt>
      <trkpt lat="45.75467" lon="6.72815">
        <ele>2170</ele>
        <time>2026-07-29T06:16:25.716Z</time>
      </trkpt>
      <trkpt lat="45.75468" lon="6.72816">
        <ele>2170</ele>
        <time>2026-07-29T06:16:26.716Z</time>
      </trkpt>
      <trkpt lat="45.75469" lon="6.72817">
        <ele>2171</ele>
        <time>2026-07-29T06:16:27.716Z</time>
      </trkpt>
      <trkpt lat="45.7547" lon="6.72817">
        <ele>2171</ele>
        <time>2026-07-29T06:16:28.716Z</time>
      </trkpt>
      <trkpt lat="45.75471" lon="6.72819">
        <ele>2172</ele>
        <time>2026-07-29T06:16:29.716Z</time>
      </trkpt>
      <trkpt lat="45.75472" lon="6.7282">
        <ele>2172</ele>
        <time>2026-07-29T06:16:30.716Z</time>
      </trkpt>
      <trkpt lat="45.75472" lon="6.72821">
        <ele>2172</ele>
        <time>2026-07-29T06:16:31.716Z</time>
      </trkpt>
      <trkpt lat="45.75473" lon="6.72823">
        <ele>2172</ele>
        <time>2026-07-29T06:16:32.716Z</time>
      </trkpt>
      <trkpt lat="45.75474" lon="6.72824">
        <ele>2172</ele>
        <time>2026-07-29T06:16:33.716Z</time>
      </trkpt>
      <trkpt lat="45.75474" lon="6.72825">
        <ele>2172</ele>
        <time>2026-07-29T06:16:34.716Z</time>
      </trkpt>
      <trkpt lat="45.75475" lon="6.72826">
        <ele>2172</ele>
        <time>2026-07-29T06:16:35.716Z</time>
      </trkpt>
      <trkpt lat="45.75476" lon="6.72827">
        <ele>2172</ele>
        <time>2026-07-29T06:16:36.716Z</time>
      </trkpt>
      <trkpt lat="45.75477" lon="6.72828">
        <ele>2172</ele>
        <time>2026-07-29T06:16:37.716Z</time>
      </trkpt>
      <trkpt lat="45.75477" lon="6.7283">
        <ele>2172</ele>
        <time>2026-07-29T06:16:38.716Z</time>
      </trkpt>
      <trkpt lat="45.75477" lon="6.72831">
        <ele>2172</ele>
        <time>2026-07-29T06:16:39.716Z</time>
      </trkpt>
      <trkpt lat="45.75478" lon="6.72832">
        <ele>2172</ele>
        <time>2026-07-29T06:16:40.716Z</time>
      </trkpt>
      <trkpt lat="45.75479" lon="6.72833">
        <ele>2172</ele>
        <time>2026-07-29T06:16:41.716Z</time>
      </trkpt>
      <trkpt lat="45.75479" lon="6.72835">
        <ele>2172</ele>
        <time>2026-07-29T06:16:42.716Z</time>
      </trkpt>
      <trkpt lat="45.7548" lon="6.72836">
        <ele>2173</ele>
        <time>2026-07-29T06:16:43.716Z</time>
      </trkpt>
      <trkpt lat="45.75481" lon="6.72837">
        <ele>2173</ele>
        <time>2026-07-29T06:16:44.716Z</time>
      </trkpt>
      <trkpt lat="45.75481" lon="6.72838">
        <ele>2173</ele>
        <time>2026-07-29T06:16:45.716Z</time>
      </trkpt>
      <trkpt lat="45.75482" lon="6.72838">
        <ele>2174</ele>
        <time>2026-07-29T06:16:46.716Z</time>
      </trkpt>
      <trkpt lat="45.75483" lon="6.72839">
        <ele>2174</ele>
        <time>2026-07-29T06:16:47.716Z</time>
      </trkpt>
      <trkpt lat="45.75484" lon="6.7284">
        <ele>2174</ele>
        <time>2026-07-29T06:16:48.716Z</time>
      </trkpt>
      <trkpt lat="45.75486" lon="6.72841">
        <ele>2174</ele>
        <time>2026-07-29T06:16:49.716Z</time>
      </trkpt>
      <trkpt lat="45.75487" lon="6.72842">
        <ele>2174</ele>
        <time>2026-07-29T06:16:50.716Z</time>
      </trkpt>
      <trkpt lat="45.75488" lon="6.72843">
        <ele>2175</ele>
        <time>2026-07-29T06:16:51.716Z</time>
      </trkpt>
      <trkpt lat="45.75489" lon="6.72843">
        <ele>2175</ele>
        <time>2026-07-29T06:16:52.716Z</time>
      </trkpt>
      <trkpt lat="45.7549" lon="6.72844">
        <ele>2175</ele>
        <time>2026-07-29T06:16:53.716Z</time>
      </trkpt>
      <trkpt lat="45.75491" lon="6.72845">
        <ele>2175</ele>
        <time>2026-07-29T06:16:54.716Z</time>
      </trkpt>
      <trkpt lat="45.75492" lon="6.72846">
        <ele>2176</ele>
        <time>2026-07-29T06:16:55.716Z</time>
      </trkpt>
      <trkpt lat="45.75493" lon="6.72847">
        <ele>2176</ele>
        <time>2026-07-29T06:16:56.716Z</time>
      </trkpt>
      <trkpt lat="45.75494" lon="6.72848">
        <ele>2176</ele>
        <time>2026-07-29T06:16:57.716Z</time>
      </trkpt>
      <trkpt lat="45.75495" lon="6.72849">
        <ele>2177</ele>
        <time>2026-07-29T06:16:58.716Z</time>
      </trkpt>
      <trkpt lat="45.75496" lon="6.7285">
        <ele>2177</ele>
        <time>2026-07-29T06:16:59.716Z</time>
      </trkpt>
      <trkpt lat="45.75497" lon="6.72851">
        <ele>2177</ele>
        <time>2026-07-29T06:17:00.716Z</time>
      </trkpt>
      <trkpt lat="45.75498" lon="6.72851">
        <ele>2178</ele>
        <time>2026-07-29T06:17:01.716Z</time>
      </trkpt>
      <trkpt lat="45.75499" lon="6.72852">
        <ele>2178</ele>
        <time>2026-07-29T06:17:02.716Z</time>
      </trkpt>
      <trkpt lat="45.75499" lon="6.72853">
        <ele>2179</ele>
        <time>2026-07-29T06:17:03.716Z</time>
      </trkpt>
      <trkpt lat="45.755" lon="6.72854">
        <ele>2179</ele>
        <time>2026-07-29T06:17:04.716Z</time>
      </trkpt>
      <trkpt lat="45.75501" lon="6.72855">
        <ele>2179</ele>
        <time>2026-07-29T06:17:05.716Z</time>
      </trkpt>
      <trkpt lat="45.75502" lon="6.72856">
        <ele>2179</ele>
        <time>2026-07-29T06:17:06.716Z</time>
      </trkpt>
      <trkpt lat="45.75502" lon="6.72857">
        <ele>2179</ele>
        <time>2026-07-29T06:17:07.716Z</time>
      </trkpt>
      <trkpt lat="45.75503" lon="6.72857">
        <ele>2179</ele>
        <time>2026-07-29T06:17:08.716Z</time>
      </trkpt>
      <trkpt lat="45.75504" lon="6.72858">
        <ele>2179</ele>
        <time>2026-07-29T06:17:09.716Z</time>
      </trkpt>
      <trkpt lat="45.75505" lon="6.72859">
        <ele>2179</ele>
        <time>2026-07-29T06:17:10.716Z</time>
      </trkpt>
      <trkpt lat="45.75505" lon="6.7286">
        <ele>2180</ele>
        <time>2026-07-29T06:17:11.716Z</time>
      </trkpt>
      <trkpt lat="45.75506" lon="6.7286">
        <ele>2180</ele>
        <time>2026-07-29T06:17:12.716Z</time>
      </trkpt>
      <trkpt lat="45.75507" lon="6.72861">
        <ele>2180</ele>
        <time>2026-07-29T06:17:13.716Z</time>
      </trkpt>
      <trkpt lat="45.75508" lon="6.72862">
        <ele>2181</ele>
        <time>2026-07-29T06:17:14.716Z</time>
      </trkpt>
      <trkpt lat="45.75509" lon="6.72862">
        <ele>2181</ele>
        <time>2026-07-29T06:17:15.716Z</time>
      </trkpt>
      <trkpt lat="45.7551" lon="6.72863">
        <ele>2182</ele>
        <time>2026-07-29T06:17:16.716Z</time>
      </trkpt>
      <trkpt lat="45.75511" lon="6.72863">
        <ele>2182</ele>
        <time>2026-07-29T06:17:17.716Z</time>
      </trkpt>
      <trkpt lat="45.75511" lon="6.72864">
        <ele>2182</ele>
        <time>2026-07-29T06:17:18.716Z</time>
      </trkpt>
      <trkpt lat="45.75512" lon="6.72865">
        <ele>2181</ele>
        <time>2026-07-29T06:17:19.716Z</time>
      </trkpt>
      <trkpt lat="45.75512" lon="6.72867">
        <ele>2181</ele>
        <time>2026-07-29T06:17:20.716Z</time>
      </trkpt>
      <trkpt lat="45.75512" lon="6.72868">
        <ele>2181</ele>
        <time>2026-07-29T06:17:21.716Z</time>
      </trkpt>
      <trkpt lat="45.75513" lon="6.72869">
        <ele>2181</ele>
        <time>2026-07-29T06:17:22.716Z</time>
      </trkpt>
      <trkpt lat="45.75513" lon="6.7287">
        <ele>2181</ele>
        <time>2026-07-29T06:17:23.716Z</time>
      </trkpt>
      <trkpt lat="45.75514" lon="6.72872">
        <ele>2181</ele>
        <time>2026-07-29T06:17:24.716Z</time>
      </trkpt>
      <trkpt lat="45.75515" lon="6.72873">
        <ele>2182</ele>
        <time>2026-07-29T06:17:25.716Z</time>
      </trkpt>
      <trkpt lat="45.75516" lon="6.72875">
        <ele>2182</ele>
        <time>2026-07-29T06:17:26.716Z</time>
      </trkpt>
      <trkpt lat="45.75516" lon="6.72876">
        <ele>2182</ele>
        <time>2026-07-29T06:17:27.716Z</time>
      </trkpt>
      <trkpt lat="45.75517" lon="6.72878">
        <ele>2182</ele>
        <time>2026-07-29T06:17:28.716Z</time>
      </trkpt>
      <trkpt lat="45.75518" lon="6.72879">
        <ele>2183</ele>
        <time>2026-07-29T06:17:29.716Z</time>
      </trkpt>
      <trkpt lat="45.75519" lon="6.72881">
        <ele>2183</ele>
        <time>2026-07-29T06:17:30.716Z</time>
      </trkpt>
      <trkpt lat="45.7552" lon="6.72882">
        <ele>2183</ele>
        <time>2026-07-29T06:17:31.716Z</time>
      </trkpt>
      <trkpt lat="45.75521" lon="6.72883">
        <ele>2183</ele>
        <time>2026-07-29T06:17:32.716Z</time>
      </trkpt>
      <trkpt lat="45.75522" lon="6.72884">
        <ele>2183</ele>
        <time>2026-07-29T06:17:33.716Z</time>
      </trkpt>
      <trkpt lat="45.75523" lon="6.72885">
        <ele>2183</ele>
        <time>2026-07-29T06:17:34.716Z</time>
      </trkpt>
      <trkpt lat="45.75523" lon="6.72886">
        <ele>2183</ele>
        <time>2026-07-29T06:17:35.716Z</time>
      </trkpt>
      <trkpt lat="45.75523" lon="6.72886">
        <ele>2183</ele>
        <time>2026-07-29T06:17:36.716Z</time>
      </trkpt>
      <trkpt lat="45.75523" lon="6.72887">
        <ele>2183</ele>
        <time>2026-07-29T06:17:37.716Z</time>
      </trkpt>
      <trkpt lat="45.75523" lon="6.72887">
        <ele>2183</ele>
        <time>2026-07-29T06:17:38.716Z</time>
      </trkpt>
      <trkpt lat="45.75523" lon="6.72887">
        <ele>2183</ele>
        <time>2026-07-29T06:17:39.716Z</time>
      </trkpt>
      <trkpt lat="45.75523" lon="6.72887">
        <ele>2183</ele>
        <time>2026-07-29T06:17:40.716Z</time>
      </trkpt>
      <trkpt lat="45.75523" lon="6.72887">
        <ele>2183</ele>
        <time>2026-07-29T06:17:41.716Z</time>
      </trkpt>
      <trkpt lat="45.75523" lon="6.72887">
        <ele>2183</ele>
        <time>2026-07-29T06:17:42.716Z</time>
      </trkpt>
      <trkpt lat="45.75523" lon="6.72887">
        <ele>2183</ele>
        <time>2026-07-29T06:17:43.716Z</time>
      </trkpt>
      <trkpt lat="45.75522" lon="6.72886">
        <ele>2183</ele>
        <time>2026-07-29T06:17:44.716Z</time>
      </trkpt>
      <trkpt lat="45.75522" lon="6.72886">
        <ele>2183</ele>
        <time>2026-07-29T06:17:45.716Z</time>
      </trkpt>
      <trkpt lat="45.75522" lon="6.72886">
        <ele>2183</ele>
        <time>2026-07-29T06:17:46.716Z</time>
      </trkpt>
      <trkpt lat="45.75522" lon="6.72885">
        <ele>2183</ele>
        <time>2026-07-29T06:17:47.716Z</time>
      </trkpt>
      <trkpt lat="45.75522" lon="6.72885">
        <ele>2184</ele>
        <time>2026-07-29T06:17:48.716Z</time>
      </trkpt>
      <trkpt lat="45.75523" lon="6.72885">
        <ele>2183</ele>
        <time>2026-07-29T06:17:49.716Z</time>
      </trkpt>
      <trkpt lat="45.75523" lon="6.72886">
        <ele>2183</ele>
        <time>2026-07-29T06:17:50.716Z</time>
      </trkpt>
      <trkpt lat="45.75525" lon="6.72887">
        <ele>2183</ele>
        <time>2026-07-29T06:17:51.716Z</time>
      </trkpt>
      <trkpt lat="45.75526" lon="6.72889">
        <ele>2182</ele>
        <time>2026-07-29T06:17:52.716Z</time>
      </trkpt>
      <trkpt lat="45.75527" lon="6.72891">
        <ele>2182</ele>
        <time>2026-07-29T06:17:53.716Z</time>
      </trkpt>
      <trkpt lat="45.75528" lon="6.72892">
        <ele>2182</ele>
        <time>2026-07-29T06:17:54.716Z</time>
      </trkpt>
      <trkpt lat="45.75529" lon="6.72894">
        <ele>2182</ele>
        <time>2026-07-29T06:17:55.716Z</time>
      </trkpt>
      <trkpt lat="45.7553" lon="6.72896">
        <ele>2182</ele>
        <time>2026-07-29T06:17:56.716Z</time>
      </trkpt>
      <trkpt lat="45.75531" lon="6.72897">
        <ele>2182</ele>
        <time>2026-07-29T06:17:57.716Z</time>
      </trkpt>
      <trkpt lat="45.75532" lon="6.72898">
        <ele>2182</ele>
        <time>2026-07-29T06:17:58.716Z</time>
      </trkpt>
      <trkpt lat="45.75533" lon="6.729">
        <ele>2182</ele>
        <time>2026-07-29T06:17:59.716Z</time>
      </trkpt>
      <trkpt lat="45.75534" lon="6.72901">
        <ele>2182</ele>
        <time>2026-07-29T06:18:00.716Z</time>
      </trkpt>
      <trkpt lat="45.75534" lon="6.72902">
        <ele>2182</ele>
        <time>2026-07-29T06:18:01.716Z</time>
      </trkpt>
      <trkpt lat="45.75535" lon="6.72903">
        <ele>2182</ele>
        <time>2026-07-29T06:18:02.716Z</time>
      </trkpt>
      <trkpt lat="45.75536" lon="6.72904">
        <ele>2182</ele>
        <time>2026-07-29T06:18:03.716Z</time>
      </trkpt>
      <trkpt lat="45.75537" lon="6.72906">
        <ele>2182</ele>
        <time>2026-07-29T06:18:04.716Z</time>
      </trkpt>
      <trkpt lat="45.75538" lon="6.72906">
        <ele>2182</ele>
        <time>2026-07-29T06:18:05.716Z</time>
      </trkpt>
      <trkpt lat="45.75539" lon="6.72907">
        <ele>2182</ele>
        <time>2026-07-29T06:18:06.716Z</time>
      </trkpt>
      <trkpt lat="45.7554" lon="6.72908">
        <ele>2182</ele>
        <time>2026-07-29T06:18:07.716Z</time>
      </trkpt>
      <trkpt lat="45.75541" lon="6.72908">
        <ele>2182</ele>
        <time>2026-07-29T06:18:08.716Z</time>
      </trkpt>
      <trkpt lat="45.75542" lon="6.72908">
        <ele>2182</ele>
        <time>2026-07-29T06:18:09.716Z</time>
      </trkpt>
      <trkpt lat="45.75542" lon="6.72909">
        <ele>2183</ele>
        <time>2026-07-29T06:18:10.716Z</time>
      </trkpt>
      <trkpt lat="45.75542" lon="6.72909">
        <ele>2182</ele>
        <time>2026-07-29T06:18:11.716Z</time>
      </trkpt>
      <trkpt lat="45.75542" lon="6.72909">
        <ele>2182</ele>
        <time>2026-07-29T06:18:12.716Z</time>
      </trkpt>
      <trkpt lat="45.75542" lon="6.72909">
        <ele>2183</ele>
        <time>2026-07-29T06:18:13.716Z</time>
      </trkpt>
      <trkpt lat="45.75542" lon="6.72909">
        <ele>2183</ele>
        <time>2026-07-29T06:18:14.716Z</time>
      </trkpt>
      <trkpt lat="45.75543" lon="6.72909">
        <ele>2183</ele>
        <time>2026-07-29T06:18:15.716Z</time>
      </trkpt>
      <trkpt lat="45.75543" lon="6.72909">
        <ele>2183</ele>
        <time>2026-07-29T06:18:16.716Z</time>
      </trkpt>
      <trkpt lat="45.75543" lon="6.72909">
        <ele>2183</ele>
        <time>2026-07-29T06:18:17.716Z</time>
      </trkpt>
      <trkpt lat="45.75543" lon="6.72909">
        <ele>2184</ele>
        <time>2026-07-29T06:18:18.716Z</time>
      </trkpt>
      <trkpt lat="45.75543" lon="6.7291">
        <ele>2184</ele>
        <time>2026-07-29T06:18:19.716Z</time>
      </trkpt>
      <trkpt lat="45.75543" lon="6.7291">
        <ele>2184</ele>
        <time>2026-07-29T06:18:20.716Z</time>
      </trkpt>
      <trkpt lat="45.75543" lon="6.7291">
        <ele>2184</ele>
        <time>2026-07-29T06:18:21.716Z</time>
      </trkpt>
      <trkpt lat="45.75543" lon="6.7291">
        <ele>2183</ele>
        <time>2026-07-29T06:18:22.716Z</time>
      </trkpt>
      <trkpt lat="45.75543" lon="6.7291">
        <ele>2183</ele>
        <time>2026-07-29T06:18:23.716Z</time>
      </trkpt>
      <trkpt lat="45.75543" lon="6.7291">
        <ele>2183</ele>
        <time>2026-07-29T06:18:24.716Z</time>
      </trkpt>
      <trkpt lat="45.75543" lon="6.7291">
        <ele>2183</ele>
        <time>2026-07-29T06:18:25.716Z</time>
      </trkpt>
      <trkpt lat="45.75543" lon="6.7291">
        <ele>2183</ele>
        <time>2026-07-29T06:18:26.716Z</time>
      </trkpt>
      <trkpt lat="45.75543" lon="6.7291">
        <ele>2183</ele>
        <time>2026-07-29T06:18:27.716Z</time>
      </trkpt>
      <trkpt lat="45.75543" lon="6.7291">
        <ele>2182</ele>
        <time>2026-07-29T06:18:28.716Z</time>
      </trkpt>
      <trkpt lat="45.75544" lon="6.72912">
        <ele>2182</ele>
        <time>2026-07-29T06:18:29.716Z</time>
      </trkpt>
      <trkpt lat="45.75544" lon="6.72913">
        <ele>2182</ele>
        <time>2026-07-29T06:18:30.716Z</time>
      </trkpt>
      <trkpt lat="45.75545" lon="6.72915">
        <ele>2182</ele>
        <time>2026-07-29T06:18:31.716Z</time>
      </trkpt>
      <trkpt lat="45.75546" lon="6.72916">
        <ele>2183</ele>
        <time>2026-07-29T06:18:32.716Z</time>
      </trkpt>
      <trkpt lat="45.75547" lon="6.72917">
        <ele>2183</ele>
        <time>2026-07-29T06:18:33.716Z</time>
      </trkpt>
      <trkpt lat="45.75548" lon="6.72918">
        <ele>2183</ele>
        <time>2026-07-29T06:18:34.716Z</time>
      </trkpt>
      <trkpt lat="45.75549" lon="6.72919">
        <ele>2183</ele>
        <time>2026-07-29T06:18:35.716Z</time>
      </trkpt>
      <trkpt lat="45.7555" lon="6.7292">
        <ele>2183</ele>
        <time>2026-07-29T06:18:36.716Z</time>
      </trkpt>
      <trkpt lat="45.75552" lon="6.72921">
        <ele>2183</ele>
        <time>2026-07-29T06:18:37.716Z</time>
      </trkpt>
      <trkpt lat="45.75553" lon="6.72921">
        <ele>2183</ele>
        <time>2026-07-29T06:18:38.716Z</time>
      </trkpt>
      <trkpt lat="45.75554" lon="6.72921">
        <ele>2183</ele>
        <time>2026-07-29T06:18:39.716Z</time>
      </trkpt>
      <trkpt lat="45.75555" lon="6.72921">
        <ele>2183</ele>
        <time>2026-07-29T06:18:40.716Z</time>
      </trkpt>
      <trkpt lat="45.75555" lon="6.72922">
        <ele>2184</ele>
        <time>2026-07-29T06:18:41.716Z</time>
      </trkpt>
      <trkpt lat="45.75556" lon="6.72922">
        <ele>2184</ele>
        <time>2026-07-29T06:18:42.716Z</time>
      </trkpt>
      <trkpt lat="45.75556" lon="6.72922">
        <ele>2183</ele>
        <time>2026-07-29T06:18:43.716Z</time>
      </trkpt>
      <trkpt lat="45.75557" lon="6.72923">
        <ele>2182</ele>
        <time>2026-07-29T06:18:44.716Z</time>
      </trkpt>
      <trkpt lat="45.75557" lon="6.72923">
        <ele>2182</ele>
        <time>2026-07-29T06:18:45.716Z</time>
      </trkpt>
      <trkpt lat="45.75558" lon="6.72924">
        <ele>2181</ele>
        <time>2026-07-29T06:18:46.716Z</time>
      </trkpt>
      <trkpt lat="45.75559" lon="6.72925">
        <ele>2181</ele>
        <time>2026-07-29T06:18:47.716Z</time>
      </trkpt>
      <trkpt lat="45.75561" lon="6.72925">
        <ele>2181</ele>
        <time>2026-07-29T06:18:48.716Z</time>
      </trkpt>
      <trkpt lat="45.75563" lon="6.72925">
        <ele>2181</ele>
        <time>2026-07-29T06:18:49.716Z</time>
      </trkpt>
      <trkpt lat="45.75565" lon="6.72924">
        <ele>2180</ele>
        <time>2026-07-29T06:18:50.716Z</time>
      </trkpt>
      <trkpt lat="45.75566" lon="6.72923">
        <ele>2180</ele>
        <time>2026-07-29T06:18:51.716Z</time>
      </trkpt>
      <trkpt lat="45.75567" lon="6.72922">
        <ele>2180</ele>
        <time>2026-07-29T06:18:52.716Z</time>
      </trkpt>
      <trkpt lat="45.75569" lon="6.72921">
        <ele>2181</ele>
        <time>2026-07-29T06:18:53.716Z</time>
      </trkpt>
      <trkpt lat="45.75571" lon="6.7292">
        <ele>2181</ele>
        <time>2026-07-29T06:18:54.716Z</time>
      </trkpt>
      <trkpt lat="45.75573" lon="6.72919">
        <ele>2181</ele>
        <time>2026-07-29T06:18:55.716Z</time>
      </trkpt>
      <trkpt lat="45.75575" lon="6.72917">
        <ele>2181</ele>
        <time>2026-07-29T06:18:56.716Z</time>
      </trkpt>
      <trkpt lat="45.75577" lon="6.72916">
        <ele>2181</ele>
        <time>2026-07-29T06:18:57.716Z</time>
      </trkpt>
      <trkpt lat="45.75579" lon="6.72916">
        <ele>2181</ele>
        <time>2026-07-29T06:18:58.716Z</time>
      </trkpt>
      <trkpt lat="45.75581" lon="6.72915">
        <ele>2181</ele>
        <time>2026-07-29T06:18:59.716Z</time>
      </trkpt>
      <trkpt lat="45.75584" lon="6.72915">
        <ele>2181</ele>
        <time>2026-07-29T06:19:00.716Z</time>
      </trkpt>
      <trkpt lat="45.75586" lon="6.72915">
        <ele>2181</ele>
        <time>2026-07-29T06:19:01.716Z</time>
      </trkpt>
      <trkpt lat="45.75588" lon="6.72915">
        <ele>2181</ele>
        <time>2026-07-29T06:19:02.716Z</time>
      </trkpt>
      <trkpt lat="45.7559" lon="6.72915">
        <ele>2181</ele>
        <time>2026-07-29T06:19:03.716Z</time>
      </trkpt>
      <trkpt lat="45.75592" lon="6.72914">
        <ele>2181</ele>
        <time>2026-07-29T06:19:04.716Z</time>
      </trkpt>
      <trkpt lat="45.75594" lon="6.72913">
        <ele>2181</ele>
        <time>2026-07-29T06:19:05.716Z</time>
      </trkpt>
      <trkpt lat="45.75596" lon="6.72912">
        <ele>2181</ele>
        <time>2026-07-29T06:19:06.716Z</time>
      </trkpt>
      <trkpt lat="45.75598" lon="6.72912">
        <ele>2181</ele>
        <time>2026-07-29T06:19:07.716Z</time>
      </trkpt>
      <trkpt lat="45.756" lon="6.72911">
        <ele>2181</ele>
        <time>2026-07-29T06:19:08.716Z</time>
      </trkpt>
      <trkpt lat="45.75601" lon="6.7291">
        <ele>2181</ele>
        <time>2026-07-29T06:19:09.716Z</time>
      </trkpt>
      <trkpt lat="45.75603" lon="6.72909">
        <ele>2181</ele>
        <time>2026-07-29T06:19:10.716Z</time>
      </trkpt>
      <trkpt lat="45.75605" lon="6.72908">
        <ele>2181</ele>
        <time>2026-07-29T06:19:11.716Z</time>
      </trkpt>
      <trkpt lat="45.75606" lon="6.72907">
        <ele>2181</ele>
        <time>2026-07-29T06:19:12.716Z</time>
      </trkpt>
      <trkpt lat="45.75608" lon="6.72906">
        <ele>2180</ele>
        <time>2026-07-29T06:19:13.716Z</time>
      </trkpt>
      <trkpt lat="45.75609" lon="6.72905">
        <ele>2180</ele>
        <time>2026-07-29T06:19:14.716Z</time>
      </trkpt>
      <trkpt lat="45.7561" lon="6.72904">
        <ele>2180</ele>
        <time>2026-07-29T06:19:15.716Z</time>
      </trkpt>
      <trkpt lat="45.75611" lon="6.72902">
        <ele>2180</ele>
        <time>2026-07-29T06:19:16.716Z</time>
      </trkpt>
      <trkpt lat="45.75612" lon="6.72901">
        <ele>2180</ele>
        <time>2026-07-29T06:19:17.716Z</time>
      </trkpt>
      <trkpt lat="45.75614" lon="6.729">
        <ele>2180</ele>
        <time>2026-07-29T06:19:18.716Z</time>
      </trkpt>
      <trkpt lat="45.75615" lon="6.72898">
        <ele>2180</ele>
        <time>2026-07-29T06:19:19.716Z</time>
      </trkpt>
      <trkpt lat="45.75616" lon="6.72896">
        <ele>2180</ele>
        <time>2026-07-29T06:19:20.716Z</time>
      </trkpt>
      <trkpt lat="45.75616" lon="6.72895">
        <ele>2180</ele>
        <time>2026-07-29T06:19:21.716Z</time>
      </trkpt>
      <trkpt lat="45.75617" lon="6.72893">
        <ele>2179</ele>
        <time>2026-07-29T06:19:22.716Z</time>
      </trkpt>
      <trkpt lat="45.75618" lon="6.72892">
        <ele>2179</ele>
        <time>2026-07-29T06:19:23.716Z</time>
      </trkpt>
      <trkpt lat="45.75619" lon="6.72891">
        <ele>2179</ele>
        <time>2026-07-29T06:19:24.716Z</time>
      </trkpt>
      <trkpt lat="45.75621" lon="6.7289">
        <ele>2179</ele>
        <time>2026-07-29T06:19:25.716Z</time>
      </trkpt>
      <trkpt lat="45.75622" lon="6.7289">
        <ele>2178</ele>
        <time>2026-07-29T06:19:26.716Z</time>
      </trkpt>
      <trkpt lat="45.75623" lon="6.7289">
        <ele>2178</ele>
        <time>2026-07-29T06:19:27.716Z</time>
      </trkpt>
      <trkpt lat="45.75625" lon="6.72889">
        <ele>2178</ele>
        <time>2026-07-29T06:19:28.716Z</time>
      </trkpt>
      <trkpt lat="45.75626" lon="6.72888">
        <ele>2178</ele>
        <time>2026-07-29T06:19:29.716Z</time>
      </trkpt>
      <trkpt lat="45.75628" lon="6.72888">
        <ele>2179</ele>
        <time>2026-07-29T06:19:30.716Z</time>
      </trkpt>
      <trkpt lat="45.75629" lon="6.72888">
        <ele>2179</ele>
        <time>2026-07-29T06:19:31.716Z</time>
      </trkpt>
      <trkpt lat="45.7563" lon="6.72889">
        <ele>2179</ele>
        <time>2026-07-29T06:19:32.716Z</time>
      </trkpt>
      <trkpt lat="45.75632" lon="6.7289">
        <ele>2179</ele>
        <time>2026-07-29T06:19:33.716Z</time>
      </trkpt>
      <trkpt lat="45.75633" lon="6.72891">
        <ele>2179</ele>
        <time>2026-07-29T06:19:34.716Z</time>
      </trkpt>
      <trkpt lat="45.75634" lon="6.72892">
        <ele>2179</ele>
        <time>2026-07-29T06:19:35.716Z</time>
      </trkpt>
      <trkpt lat="45.75636" lon="6.72892">
        <ele>2179</ele>
        <time>2026-07-29T06:19:36.716Z</time>
      </trkpt>
      <trkpt lat="45.75637" lon="6.72893">
        <ele>2179</ele>
        <time>2026-07-29T06:19:37.716Z</time>
      </trkpt>
      <trkpt lat="45.75638" lon="6.72894">
        <ele>2179</ele>
        <time>2026-07-29T06:19:38.716Z</time>
      </trkpt>
      <trkpt lat="45.75639" lon="6.72894">
        <ele>2179</ele>
        <time>2026-07-29T06:19:39.716Z</time>
      </trkpt>
      <trkpt lat="45.75641" lon="6.72895">
        <ele>2178</ele>
        <time>2026-07-29T06:19:40.716Z</time>
      </trkpt>
      <trkpt lat="45.75642" lon="6.72896">
        <ele>2178</ele>
        <time>2026-07-29T06:19:41.716Z</time>
      </trkpt>
      <trkpt lat="45.75643" lon="6.72896">
        <ele>2179</ele>
        <time>2026-07-29T06:19:42.716Z</time>
      </trkpt>
      <trkpt lat="45.75644" lon="6.72896">
        <ele>2179</ele>
        <time>2026-07-29T06:19:43.716Z</time>
      </trkpt>
      <trkpt lat="45.75645" lon="6.72895">
        <ele>2179</ele>
        <time>2026-07-29T06:19:44.716Z</time>
      </trkpt>
      <trkpt lat="45.75646" lon="6.72893">
        <ele>2179</ele>
        <time>2026-07-29T06:19:45.716Z</time>
      </trkpt>
      <trkpt lat="45.75646" lon="6.72891">
        <ele>2179</ele>
        <time>2026-07-29T06:19:46.716Z</time>
      </trkpt>
      <trkpt lat="45.75646" lon="6.72889">
        <ele>2179</ele>
        <time>2026-07-29T06:19:47.716Z</time>
      </trkpt>
      <trkpt lat="45.75646" lon="6.72887">
        <ele>2180</ele>
        <time>2026-07-29T06:19:48.716Z</time>
      </trkpt>
      <trkpt lat="45.75646" lon="6.72886">
        <ele>2180</ele>
        <time>2026-07-29T06:19:49.716Z</time>
      </trkpt>
      <trkpt lat="45.75646" lon="6.72884">
        <ele>2180</ele>
        <time>2026-07-29T06:19:50.716Z</time>
      </trkpt>
      <trkpt lat="45.75645" lon="6.72882">
        <ele>2180</ele>
        <time>2026-07-29T06:19:51.717Z</time>
      </trkpt>
      <trkpt lat="45.75644" lon="6.7288">
        <ele>2179</ele>
        <time>2026-07-29T06:19:52.716Z</time>
      </trkpt>
      <trkpt lat="45.75643" lon="6.72879">
        <ele>2179</ele>
        <time>2026-07-29T06:19:53.716Z</time>
      </trkpt>
      <trkpt lat="45.75642" lon="6.72877">
        <ele>2179</ele>
        <time>2026-07-29T06:19:54.716Z</time>
      </trkpt>
      <trkpt lat="45.75642" lon="6.72875">
        <ele>2179</ele>
        <time>2026-07-29T06:19:55.716Z</time>
      </trkpt>
      <trkpt lat="45.75642" lon="6.72874">
        <ele>2179</ele>
        <time>2026-07-29T06:19:56.716Z</time>
      </trkpt>
      <trkpt lat="45.75642" lon="6.72873">
        <ele>2179</ele>
        <time>2026-07-29T06:19:57.716Z</time>
      </trkpt>
      <trkpt lat="45.75643" lon="6.72872">
        <ele>2178</ele>
        <time>2026-07-29T06:19:58.716Z</time>
      </trkpt>
      <trkpt lat="45.75643" lon="6.72871">
        <ele>2178</ele>
        <time>2026-07-29T06:19:59.716Z</time>
      </trkpt>
      <trkpt lat="45.75644" lon="6.72871">
        <ele>2178</ele>
        <time>2026-07-29T06:20:00.716Z</time>
      </trkpt>
      <trkpt lat="45.75645" lon="6.7287">
        <ele>2178</ele>
        <time>2026-07-29T06:20:01.716Z</time>
      </trkpt>
      <trkpt lat="45.75645" lon="6.7287">
        <ele>2178</ele>
        <time>2026-07-29T06:20:02.716Z</time>
      </trkpt>
      <trkpt lat="45.75646" lon="6.7287">
        <ele>2178</ele>
        <time>2026-07-29T06:20:03.716Z</time>
      </trkpt>
      <trkpt lat="45.75646" lon="6.72869">
        <ele>2178</ele>
        <time>2026-07-29T06:20:04.716Z</time>
      </trkpt>
      <trkpt lat="45.75646" lon="6.72868">
        <ele>2178</ele>
        <time>2026-07-29T06:20:05.716Z</time>
      </trkpt>
      <trkpt lat="45.75646" lon="6.72867">
        <ele>2178</ele>
        <time>2026-07-29T06:20:06.716Z</time>
      </trkpt>
      <trkpt lat="45.75646" lon="6.72866">
        <ele>2178</ele>
        <time>2026-07-29T06:20:07.716Z</time>
      </trkpt>
      <trkpt lat="45.75647" lon="6.72865">
        <ele>2178</ele>
        <time>2026-07-29T06:20:08.716Z</time>
      </trkpt>
      <trkpt lat="45.75647" lon="6.72864">
        <ele>2178</ele>
        <time>2026-07-29T06:20:09.716Z</time>
      </trkpt>
      <trkpt lat="45.75648" lon="6.72863">
        <ele>2178</ele>
        <time>2026-07-29T06:20:10.716Z</time>
      </trkpt>
      <trkpt lat="45.75649" lon="6.72863">
        <ele>2178</ele>
        <time>2026-07-29T06:20:11.716Z</time>
      </trkpt>
      <trkpt lat="45.75651" lon="6.72863">
        <ele>2178</ele>
        <time>2026-07-29T06:20:12.716Z</time>
      </trkpt>
      <trkpt lat="45.75652" lon="6.72862">
        <ele>2178</ele>
        <time>2026-07-29T06:20:13.716Z</time>
      </trkpt>
      <trkpt lat="45.75654" lon="6.72862">
        <ele>2178</ele>
        <time>2026-07-29T06:20:14.716Z</time>
      </trkpt>
      <trkpt lat="45.75655" lon="6.72862">
        <ele>2179</ele>
        <time>2026-07-29T06:20:15.716Z</time>
      </trkpt>
      <trkpt lat="45.75657" lon="6.72861">
        <ele>2179</ele>
        <time>2026-07-29T06:20:16.716Z</time>
      </trkpt>
      <trkpt lat="45.75659" lon="6.7286">
        <ele>2179</ele>
        <time>2026-07-29T06:20:17.716Z</time>
      </trkpt>
      <trkpt lat="45.7566" lon="6.7286">
        <ele>2179</ele>
        <time>2026-07-29T06:20:18.716Z</time>
      </trkpt>
      <trkpt lat="45.75662" lon="6.7286">
        <ele>2179</ele>
        <time>2026-07-29T06:20:19.716Z</time>
      </trkpt>
      <trkpt lat="45.75663" lon="6.72859">
        <ele>2180</ele>
        <time>2026-07-29T06:20:20.716Z</time>
      </trkpt>
      <trkpt lat="45.75664" lon="6.72859">
        <ele>2180</ele>
        <time>2026-07-29T06:20:21.716Z</time>
      </trkpt>
      <trkpt lat="45.75666" lon="6.72859">
        <ele>2180</ele>
        <time>2026-07-29T06:20:22.716Z</time>
      </trkpt>
      <trkpt lat="45.75667" lon="6.72858">
        <ele>2179</ele>
        <time>2026-07-29T06:20:23.716Z</time>
      </trkpt>
      <trkpt lat="45.75668" lon="6.72859">
        <ele>2179</ele>
        <time>2026-07-29T06:20:24.716Z</time>
      </trkpt>
      <trkpt lat="45.7567" lon="6.72859">
        <ele>2179</ele>
        <time>2026-07-29T06:20:25.716Z</time>
      </trkpt>
      <trkpt lat="45.75672" lon="6.7286">
        <ele>2179</ele>
        <time>2026-07-29T06:20:26.716Z</time>
      </trkpt>
      <trkpt lat="45.75673" lon="6.72861">
        <ele>2179</ele>
        <time>2026-07-29T06:20:27.716Z</time>
      </trkpt>
      <trkpt lat="45.75675" lon="6.72862">
        <ele>2179</ele>
        <time>2026-07-29T06:20:28.716Z</time>
      </trkpt>
      <trkpt lat="45.75677" lon="6.72863">
        <ele>2178</ele>
        <time>2026-07-29T06:20:29.716Z</time>
      </trkpt>
      <trkpt lat="45.75679" lon="6.72864">
        <ele>2178</ele>
        <time>2026-07-29T06:20:30.716Z</time>
      </trkpt>
      <trkpt lat="45.7568" lon="6.72865">
        <ele>2178</ele>
        <time>2026-07-29T06:20:31.716Z</time>
      </trkpt>
      <trkpt lat="45.75682" lon="6.72866">
        <ele>2178</ele>
        <time>2026-07-29T06:20:32.716Z</time>
      </trkpt>
      <trkpt lat="45.75683" lon="6.72867">
        <ele>2178</ele>
        <time>2026-07-29T06:20:33.716Z</time>
      </trkpt>
      <trkpt lat="45.75685" lon="6.72868">
        <ele>2178</ele>
        <time>2026-07-29T06:20:34.716Z</time>
      </trkpt>
      <trkpt lat="45.75685" lon="6.72869">
        <ele>2178</ele>
        <time>2026-07-29T06:20:35.716Z</time>
      </trkpt>
      <trkpt lat="45.75686" lon="6.72869">
        <ele>2178</ele>
        <time>2026-07-29T06:20:36.716Z</time>
      </trkpt>
      <trkpt lat="45.75686" lon="6.72869">
        <ele>2177</ele>
        <time>2026-07-29T06:20:37.716Z</time>
      </trkpt>
      <trkpt lat="45.75687" lon="6.72869">
        <ele>2177</ele>
        <time>2026-07-29T06:20:38.716Z</time>
      </trkpt>
      <trkpt lat="45.75687" lon="6.72869">
        <ele>2177</ele>
        <time>2026-07-29T06:20:39.716Z</time>
      </trkpt>
      <trkpt lat="45.75687" lon="6.72869">
        <ele>2177</ele>
        <time>2026-07-29T06:20:40.716Z</time>
      </trkpt>
      <trkpt lat="45.75687" lon="6.72869">
        <ele>2177</ele>
        <time>2026-07-29T06:20:41.716Z</time>
      </trkpt>
      <trkpt lat="45.75686" lon="6.72869">
        <ele>2177</ele>
        <time>2026-07-29T06:20:42.716Z</time>
      </trkpt>
      <trkpt lat="45.75687" lon="6.72869">
        <ele>2177</ele>
        <time>2026-07-29T06:20:43.716Z</time>
      </trkpt>
      <trkpt lat="45.75687" lon="6.72869">
        <ele>2177</ele>
        <time>2026-07-29T06:20:44.716Z</time>
      </trkpt>
      <trkpt lat="45.75688" lon="6.7287">
        <ele>2177</ele>
        <time>2026-07-29T06:20:45.716Z</time>
      </trkpt>
      <trkpt lat="45.75689" lon="6.7287">
        <ele>2177</ele>
        <time>2026-07-29T06:20:46.716Z</time>
      </trkpt>
      <trkpt lat="45.75691" lon="6.72871">
        <ele>2177</ele>
        <time>2026-07-29T06:20:47.716Z</time>
      </trkpt>
      <trkpt lat="45.75692" lon="6.72872">
        <ele>2177</ele>
        <time>2026-07-29T06:20:48.716Z</time>
      </trkpt>
      <trkpt lat="45.75694" lon="6.72873">
        <ele>2177</ele>
        <time>2026-07-29T06:20:49.716Z</time>
      </trkpt>
      <trkpt lat="45.75696" lon="6.72875">
        <ele>2177</ele>
        <time>2026-07-29T06:20:50.716Z</time>
      </trkpt>
      <trkpt lat="45.75698" lon="6.72876">
        <ele>2177</ele>
        <time>2026-07-29T06:20:51.716Z</time>
      </trkpt>
      <trkpt lat="45.757" lon="6.72877">
        <ele>2177</ele>
        <time>2026-07-29T06:20:52.716Z</time>
      </trkpt>
      <trkpt lat="45.75701" lon="6.72878">
        <ele>2177</ele>
        <time>2026-07-29T06:20:53.716Z</time>
      </trkpt>
      <trkpt lat="45.75703" lon="6.7288">
        <ele>2177</ele>
        <time>2026-07-29T06:20:54.716Z</time>
      </trkpt>
      <trkpt lat="45.75704" lon="6.72881">
        <ele>2177</ele>
        <time>2026-07-29T06:20:55.716Z</time>
      </trkpt>
      <trkpt lat="45.75706" lon="6.72882">
        <ele>2177</ele>
        <time>2026-07-29T06:20:56.716Z</time>
      </trkpt>
      <trkpt lat="45.75707" lon="6.72883">
        <ele>2177</ele>
        <time>2026-07-29T06:20:57.716Z</time>
      </trkpt>
      <trkpt lat="45.75708" lon="6.72885">
        <ele>2178</ele>
        <time>2026-07-29T06:20:58.716Z</time>
      </trkpt>
      <trkpt lat="45.7571" lon="6.72886">
        <ele>2178</ele>
        <time>2026-07-29T06:20:59.716Z</time>
      </trkpt>
      <trkpt lat="45.75711" lon="6.72887">
        <ele>2178</ele>
        <time>2026-07-29T06:21:00.716Z</time>
      </trkpt>
      <trkpt lat="45.75713" lon="6.72888">
        <ele>2178</ele>
        <time>2026-07-29T06:21:01.716Z</time>
      </trkpt>
      <trkpt lat="45.75715" lon="6.72889">
        <ele>2177</ele>
        <time>2026-07-29T06:21:02.716Z</time>
      </trkpt>
      <trkpt lat="45.75717" lon="6.72889">
        <ele>2178</ele>
        <time>2026-07-29T06:21:03.716Z</time>
      </trkpt>
      <trkpt lat="45.75719" lon="6.7289">
        <ele>2178</ele>
        <time>2026-07-29T06:21:04.716Z</time>
      </trkpt>
      <trkpt lat="45.75721" lon="6.7289">
        <ele>2178</ele>
        <time>2026-07-29T06:21:05.716Z</time>
      </trkpt>
      <trkpt lat="45.75722" lon="6.72891">
        <ele>2178</ele>
        <time>2026-07-29T06:21:06.716Z</time>
      </trkpt>
      <trkpt lat="45.75723" lon="6.72892">
        <ele>2177</ele>
        <time>2026-07-29T06:21:07.716Z</time>
      </trkpt>
      <trkpt lat="45.75724" lon="6.72892">
        <ele>2177</ele>
        <time>2026-07-29T06:21:08.716Z</time>
      </trkpt>
      <trkpt lat="45.75726" lon="6.72892">
        <ele>2177</ele>
        <time>2026-07-29T06:21:09.716Z</time>
      </trkpt>
      <trkpt lat="45.75727" lon="6.72893">
        <ele>2177</ele>
        <time>2026-07-29T06:21:10.716Z</time>
      </trkpt>
      <trkpt lat="45.75728" lon="6.72894">
        <ele>2177</ele>
        <time>2026-07-29T06:21:11.716Z</time>
      </trkpt>
      <trkpt lat="45.75728" lon="6.72895">
        <ele>2177</ele>
        <time>2026-07-29T06:21:12.716Z</time>
      </trkpt>
      <trkpt lat="45.75729" lon="6.72896">
        <ele>2177</ele>
        <time>2026-07-29T06:21:13.716Z</time>
      </trkpt>
      <trkpt lat="45.7573" lon="6.72897">
        <ele>2177</ele>
        <time>2026-07-29T06:21:14.716Z</time>
      </trkpt>
      <trkpt lat="45.75731" lon="6.72898">
        <ele>2177</ele>
        <time>2026-07-29T06:21:15.716Z</time>
      </trkpt>
      <trkpt lat="45.75732" lon="6.72899">
        <ele>2178</ele>
        <time>2026-07-29T06:21:16.716Z</time>
      </trkpt>
      <trkpt lat="45.75733" lon="6.72899">
        <ele>2178</ele>
        <time>2026-07-29T06:21:17.716Z</time>
      </trkpt>
      <trkpt lat="45.75734" lon="6.729">
        <ele>2178</ele>
        <time>2026-07-29T06:21:18.716Z</time>
      </trkpt>
      <trkpt lat="45.75735" lon="6.729">
        <ele>2178</ele>
        <time>2026-07-29T06:21:19.716Z</time>
      </trkpt>
      <trkpt lat="45.75736" lon="6.72901">
        <ele>2179</ele>
        <time>2026-07-29T06:21:20.716Z</time>
      </trkpt>
      <trkpt lat="45.75737" lon="6.72902">
        <ele>2179</ele>
        <time>2026-07-29T06:21:21.716Z</time>
      </trkpt>
      <trkpt lat="45.75737" lon="6.72902">
        <ele>2179</ele>
        <time>2026-07-29T06:21:22.716Z</time>
      </trkpt>
      <trkpt lat="45.75738" lon="6.72902">
        <ele>2179</ele>
        <time>2026-07-29T06:21:23.716Z</time>
      </trkpt>
      <trkpt lat="45.75738" lon="6.72903">
        <ele>2179</ele>
        <time>2026-07-29T06:21:24.716Z</time>
      </trkpt>
      <trkpt lat="45.75739" lon="6.72903">
        <ele>2180</ele>
        <time>2026-07-29T06:21:25.716Z</time>
      </trkpt>
      <trkpt lat="45.75739" lon="6.72903">
        <ele>2180</ele>
        <time>2026-07-29T06:21:26.716Z</time>
      </trkpt>
      <trkpt lat="45.7574" lon="6.72903">
        <ele>2180</ele>
        <time>2026-07-29T06:21:27.716Z</time>
      </trkpt>
      <trkpt lat="45.7574" lon="6.72904">
        <ele>2180</ele>
        <time>2026-07-29T06:21:28.716Z</time>
      </trkpt>
      <trkpt lat="45.75741" lon="6.72905">
        <ele>2181</ele>
        <time>2026-07-29T06:21:29.716Z</time>
      </trkpt>
      <trkpt lat="45.75742" lon="6.72905">
        <ele>2181</ele>
        <time>2026-07-29T06:21:30.716Z</time>
      </trkpt>
      <trkpt lat="45.75743" lon="6.72906">
        <ele>2181</ele>
        <time>2026-07-29T06:21:31.716Z</time>
      </trkpt>
      <trkpt lat="45.75744" lon="6.72907">
        <ele>2181</ele>
        <time>2026-07-29T06:21:32.716Z</time>
      </trkpt>
      <trkpt lat="45.75745" lon="6.72908">
        <ele>2181</ele>
        <time>2026-07-29T06:21:33.716Z</time>
      </trkpt>
      <trkpt lat="45.75746" lon="6.72909">
        <ele>2181</ele>
        <time>2026-07-29T06:21:34.716Z</time>
      </trkpt>
      <trkpt lat="45.75747" lon="6.72909">
        <ele>2181</ele>
        <time>2026-07-29T06:21:35.716Z</time>
      </trkpt>
      <trkpt lat="45.75748" lon="6.72909">
        <ele>2181</ele>
        <time>2026-07-29T06:21:36.716Z</time>
      </trkpt>
      <trkpt lat="45.75749" lon="6.72909">
        <ele>2181</ele>
        <time>2026-07-29T06:21:37.716Z</time>
      </trkpt>
      <trkpt lat="45.7575" lon="6.7291">
        <ele>2181</ele>
        <time>2026-07-29T06:21:38.716Z</time>
      </trkpt>
      <trkpt lat="45.7575" lon="6.7291">
        <ele>2181</ele>
        <time>2026-07-29T06:21:39.716Z</time>
      </trkpt>
      <trkpt lat="45.75751" lon="6.7291">
        <ele>2180</ele>
        <time>2026-07-29T06:21:40.716Z</time>
      </trkpt>
      <trkpt lat="45.75752" lon="6.7291">
        <ele>2180</ele>
        <time>2026-07-29T06:21:41.716Z</time>
      </trkpt>
      <trkpt lat="45.75752" lon="6.7291">
        <ele>2180</ele>
        <time>2026-07-29T06:21:42.716Z</time>
      </trkpt>
      <trkpt lat="45.75752" lon="6.7291">
        <ele>2179</ele>
        <time>2026-07-29T06:21:43.716Z</time>
      </trkpt>
      <trkpt lat="45.75752" lon="6.7291">
        <ele>2179</ele>
        <time>2026-07-29T06:21:44.716Z</time>
      </trkpt>
      <trkpt lat="45.75752" lon="6.7291">
        <ele>2179</ele>
        <time>2026-07-29T06:21:45.716Z</time>
      </trkpt>
      <trkpt lat="45.75752" lon="6.7291">
        <ele>2179</ele>
        <time>2026-07-29T06:21:46.716Z</time>
      </trkpt>
      <trkpt lat="45.75753" lon="6.7291">
        <ele>2179</ele>
        <time>2026-07-29T06:21:47.716Z</time>
      </trkpt>
      <trkpt lat="45.75753" lon="6.7291">
        <ele>2179</ele>
        <time>2026-07-29T06:21:48.716Z</time>
      </trkpt>
      <trkpt lat="45.75753" lon="6.7291">
        <ele>2178</ele>
        <time>2026-07-29T06:21:49.716Z</time>
      </trkpt>
      <trkpt lat="45.75752" lon="6.7291">
        <ele>2178</ele>
        <time>2026-07-29T06:21:50.716Z</time>
      </trkpt>
      <trkpt lat="45.75752" lon="6.7291">
        <ele>2178</ele>
        <time>2026-07-29T06:21:51.716Z</time>
      </trkpt>
      <trkpt lat="45.75752" lon="6.7291">
        <ele>2177</ele>
        <time>2026-07-29T06:21:52.716Z</time>
      </trkpt>
      <trkpt lat="45.75752" lon="6.7291">
        <ele>2177</ele>
        <time>2026-07-29T06:21:53.716Z</time>
      </trkpt>
      <trkpt lat="45.75752" lon="6.7291">
        <ele>2177</ele>
        <time>2026-07-29T06:21:54.716Z</time>
      </trkpt>
      <trkpt lat="45.75752" lon="6.7291">
        <ele>2177</ele>
        <time>2026-07-29T06:21:55.716Z</time>
      </trkpt>
      <trkpt lat="45.75752" lon="6.7291">
        <ele>2177</ele>
        <time>2026-07-29T06:21:56.716Z</time>
      </trkpt>
      <trkpt lat="45.75752" lon="6.7291">
        <ele>2176</ele>
        <time>2026-07-29T06:21:57.716Z</time>
      </trkpt>
      <trkpt lat="45.75752" lon="6.7291">
        <ele>2176</ele>
        <time>2026-07-29T06:21:58.716Z</time>
      </trkpt>
      <trkpt lat="45.75752" lon="6.7291">
        <ele>2176</ele>
        <time>2026-07-29T06:21:59.716Z</time>
      </trkpt>
      <trkpt lat="45.75752" lon="6.7291">
        <ele>2176</ele>
        <time>2026-07-29T06:22:00.716Z</time>
      </trkpt>
      <trkpt lat="45.75752" lon="6.7291">
        <ele>2176</ele>
        <time>2026-07-29T06:22:01.716Z</time>
      </trkpt>
      <trkpt lat="45.75752" lon="6.7291">
        <ele>2176</ele>
        <time>2026-07-29T06:22:02.716Z</time>
      </trkpt>
      <trkpt lat="45.75752" lon="6.7291">
        <ele>2176</ele>
        <time>2026-07-29T06:22:03.716Z</time>
      </trkpt>
      <trkpt lat="45.75752" lon="6.7291">
        <ele>2176</ele>
        <time>2026-07-29T06:22:04.716Z</time>
      </trkpt>
      <trkpt lat="45.75752" lon="6.7291">
        <ele>2176</ele>
        <time>2026-07-29T06:22:05.716Z</time>
      </trkpt>
      <trkpt lat="45.75752" lon="6.7291">
        <ele>2176</ele>
        <time>2026-07-29T06:22:06.716Z</time>
      </trkpt>
      <trkpt lat="45.75752" lon="6.7291">
        <ele>2177</ele>
        <time>2026-07-29T06:22:07.716Z</time>
      </trkpt>
      <trkpt lat="45.75752" lon="6.7291">
        <ele>2177</ele>
        <time>2026-07-29T06:22:08.716Z</time>
      </trkpt>
      <trkpt lat="45.75752" lon="6.7291">
        <ele>2177</ele>
        <time>2026-07-29T06:22:09.716Z</time>
      </trkpt>
      <trkpt lat="45.75752" lon="6.72911">
        <ele>2177</ele>
        <time>2026-07-29T06:22:10.716Z</time>
      </trkpt>
      <trkpt lat="45.75752" lon="6.72911">
        <ele>2177</ele>
        <time>2026-07-29T06:22:11.716Z</time>
      </trkpt>
      <trkpt lat="45.75752" lon="6.72911">
        <ele>2177</ele>
        <time>2026-07-29T06:22:12.716Z</time>
      </trkpt>
      <trkpt lat="45.75751" lon="6.72911">
        <ele>2177</ele>
        <time>2026-07-29T06:22:13.716Z</time>
      </trkpt>
      <trkpt lat="45.75751" lon="6.72911">
        <ele>2177</ele>
        <time>2026-07-29T06:22:14.716Z</time>
      </trkpt>
      <trkpt lat="45.75751" lon="6.72912">
        <ele>2177</ele>
        <time>2026-07-29T06:22:15.716Z</time>
      </trkpt>
      <trkpt lat="45.75751" lon="6.72912">
        <ele>2177</ele>
        <time>2026-07-29T06:22:16.716Z</time>
      </trkpt>
      <trkpt lat="45.75751" lon="6.72912">
        <ele>2177</ele>
        <time>2026-07-29T06:22:17.716Z</time>
      </trkpt>
      <trkpt lat="45.75751" lon="6.72912">
        <ele>2177</ele>
        <time>2026-07-29T06:22:18.716Z</time>
      </trkpt>
      <trkpt lat="45.7575" lon="6.72913">
        <ele>2177</ele>
        <time>2026-07-29T06:22:19.716Z</time>
      </trkpt>
      <trkpt lat="45.7575" lon="6.72913">
        <ele>2177</ele>
        <time>2026-07-29T06:22:20.716Z</time>
      </trkpt>
      <trkpt lat="45.7575" lon="6.72913">
        <ele>2177</ele>
        <time>2026-07-29T06:22:21.716Z</time>
      </trkpt>
      <trkpt lat="45.7575" lon="6.72913">
        <ele>2177</ele>
        <time>2026-07-29T06:22:22.716Z</time>
      </trkpt>
      <trkpt lat="45.7575" lon="6.72913">
        <ele>2177</ele>
        <time>2026-07-29T06:22:23.716Z</time>
      </trkpt>
      <trkpt lat="45.7575" lon="6.72913">
        <ele>2177</ele>
        <time>2026-07-29T06:22:24.716Z</time>
      </trkpt>
      <trkpt lat="45.7575" lon="6.72913">
        <ele>2177</ele>
        <time>2026-07-29T06:22:25.716Z</time>
      </trkpt>
      <trkpt lat="45.7575" lon="6.72913">
        <ele>2177</ele>
        <time>2026-07-29T06:22:26.716Z</time>
      </trkpt>
      <trkpt lat="45.75749" lon="6.72913">
        <ele>2177</ele>
        <time>2026-07-29T06:22:27.716Z</time>
      </trkpt>
      <trkpt lat="45.75749" lon="6.72913">
        <ele>2177</ele>
        <time>2026-07-29T06:22:28.716Z</time>
      </trkpt>
      <trkpt lat="45.75749" lon="6.72913">
        <ele>2177</ele>
        <time>2026-07-29T06:22:29.716Z</time>
      </trkpt>
      <trkpt lat="45.75749" lon="6.72913">
        <ele>2177</ele>
        <time>2026-07-29T06:22:30.716Z</time>
      </trkpt>
      <trkpt lat="45.75748" lon="6.72913">
        <ele>2177</ele>
        <time>2026-07-29T06:22:31.716Z</time>
      </trkpt>
      <trkpt lat="45.75748" lon="6.72913">
        <ele>2177</ele>
        <time>2026-07-29T06:22:32.716Z</time>
      </trkpt>
      <trkpt lat="45.75748" lon="6.72914">
        <ele>2177</ele>
        <time>2026-07-29T06:22:33.716Z</time>
      </trkpt>
      <trkpt lat="45.75748" lon="6.72914">
        <ele>2177</ele>
        <time>2026-07-29T06:22:34.716Z</time>
      </trkpt>
      <trkpt lat="45.75748" lon="6.72914">
        <ele>2177</ele>
        <time>2026-07-29T06:22:35.716Z</time>
      </trkpt>
      <trkpt lat="45.75748" lon="6.72914">
        <ele>2177</ele>
        <time>2026-07-29T06:22:36.716Z</time>
      </trkpt>
      <trkpt lat="45.75748" lon="6.72914">
        <ele>2177</ele>
        <time>2026-07-29T06:22:37.716Z</time>
      </trkpt>
      <trkpt lat="45.75748" lon="6.72914">
        <ele>2177</ele>
        <time>2026-07-29T06:22:38.716Z</time>
      </trkpt>
      <trkpt lat="45.75748" lon="6.72914">
        <ele>2177</ele>
        <time>2026-07-29T06:22:39.716Z</time>
      </trkpt>
      <trkpt lat="45.75748" lon="6.72914">
        <ele>2177</ele>
        <time>2026-07-29T06:22:40.716Z</time>
      </trkpt>
      <trkpt lat="45.75748" lon="6.72914">
        <ele>2177</ele>
        <time>2026-07-29T06:22:41.716Z</time>
      </trkpt>
      <trkpt lat="45.75748" lon="6.72914">
        <ele>2177</ele>
        <time>2026-07-29T06:22:42.716Z</time>
      </trkpt>
      <trkpt lat="45.75748" lon="6.72914">
        <ele>2177</ele>
        <time>2026-07-29T06:22:43.716Z</time>
      </trkpt>
      <trkpt lat="45.75748" lon="6.72914">
        <ele>2177</ele>
        <time>2026-07-29T06:22:44.716Z</time>
      </trkpt>
      <trkpt lat="45.75748" lon="6.72914">
        <ele>2177</ele>
        <time>2026-07-29T06:22:45.716Z</time>
      </trkpt>
      <trkpt lat="45.75748" lon="6.72914">
        <ele>2177</ele>
        <time>2026-07-29T06:22:46.716Z</time>
      </trkpt>
      <trkpt lat="45.75748" lon="6.72914">
        <ele>2177</ele>
        <time>2026-07-29T06:22:47.716Z</time>
      </trkpt>
      <trkpt lat="45.75748" lon="6.72914">
        <ele>2177</ele>
        <time>2026-07-29T06:22:48.716Z</time>
      </trkpt>
      <trkpt lat="45.75748" lon="6.72914">
        <ele>2177</ele>
        <time>2026-07-29T06:22:49.716Z</time>
      </trkpt>
      <trkpt lat="45.75748" lon="6.72914">
        <ele>2177</ele>
        <time>2026-07-29T06:22:50.716Z</time>
      </trkpt>
      <trkpt lat="45.75748" lon="6.72913">
        <ele>2177</ele>
        <time>2026-07-29T06:22:51.716Z</time>
      </trkpt>
      <trkpt lat="45.75749" lon="6.72913">
        <ele>2177</ele>
        <time>2026-07-29T06:22:52.716Z</time>
      </trkpt>
      <trkpt lat="45.7575" lon="6.72913">
        <ele>2177</ele>
        <time>2026-07-29T06:22:53.716Z</time>
      </trkpt>
      <trkpt lat="45.7575" lon="6.72913">
        <ele>2177</ele>
        <time>2026-07-29T06:22:54.716Z</time>
      </trkpt>
      <trkpt lat="45.7575" lon="6.72913">
        <ele>2177</ele>
        <time>2026-07-29T06:22:55.716Z</time>
      </trkpt>
      <trkpt lat="45.7575" lon="6.72913">
        <ele>2177</ele>
        <time>2026-07-29T06:22:56.716Z</time>
      </trkpt>
      <trkpt lat="45.7575" lon="6.72913">
        <ele>2177</ele>
        <time>2026-07-29T06:22:57.716Z</time>
      </trkpt>
      <trkpt lat="45.7575" lon="6.72913">
        <ele>2177</ele>
        <time>2026-07-29T06:22:58.716Z</time>
      </trkpt>
      <trkpt lat="45.7575" lon="6.72913">
        <ele>2177</ele>
        <time>2026-07-29T06:22:59.716Z</time>
      </trkpt>
      <trkpt lat="45.7575" lon="6.72913">
        <ele>2177</ele>
        <time>2026-07-29T06:23:00.716Z</time>
      </trkpt>
      <trkpt lat="45.7575" lon="6.72913">
        <ele>2177</ele>
        <time>2026-07-29T06:23:01.716Z</time>
      </trkpt>
      <trkpt lat="45.7575" lon="6.72913">
        <ele>2177</ele>
        <time>2026-07-29T06:23:02.716Z</time>
      </trkpt>
      <trkpt lat="45.7575" lon="6.72913">
        <ele>2177</ele>
        <time>2026-07-29T06:23:03.716Z</time>
      </trkpt>
      <trkpt lat="45.7575" lon="6.72913">
        <ele>2177</ele>
        <time>2026-07-29T06:23:04.716Z</time>
      </trkpt>
      <trkpt lat="45.7575" lon="6.72913">
        <ele>2177</ele>
        <time>2026-07-29T06:23:05.716Z</time>
      </trkpt>
      <trkpt lat="45.7575" lon="6.72913">
        <ele>2177</ele>
        <time>2026-07-29T06:23:06.716Z</time>
      </trkpt>
      <trkpt lat="45.7575" lon="6.72913">
        <ele>2177</ele>
        <time>2026-07-29T06:23:07.716Z</time>
      </trkpt>
      <trkpt lat="45.7575" lon="6.72913">
        <ele>2177</ele>
        <time>2026-07-29T06:23:08.716Z</time>
      </trkpt>
      <trkpt lat="45.7575" lon="6.72913">
        <ele>2177</ele>
        <time>2026-07-29T06:23:09.716Z</time>
      </trkpt>
      <trkpt lat="45.7575" lon="6.72913">
        <ele>2177</ele>
        <time>2026-07-29T06:23:10.716Z</time>
      </trkpt>
      <trkpt lat="45.7575" lon="6.72913">
        <ele>2177</ele>
        <time>2026-07-29T06:23:11.716Z</time>
      </trkpt>
      <trkpt lat="45.7575" lon="6.72913">
        <ele>2177</ele>
        <time>2026-07-29T06:23:12.716Z</time>
      </trkpt>
      <trkpt lat="45.7575" lon="6.72913">
        <ele>2177</ele>
        <time>2026-07-29T06:23:13.716Z</time>
      </trkpt>
      <trkpt lat="45.7575" lon="6.72913">
        <ele>2177</ele>
        <time>2026-07-29T06:23:14.716Z</time>
      </trkpt>
      <trkpt lat="45.7575" lon="6.72913">
        <ele>2177</ele>
        <time>2026-07-29T06:23:15.716Z</time>
      </trkpt>
      <trkpt lat="45.7575" lon="6.72913">
        <ele>2177</ele>
        <time>2026-07-29T06:23:16.716Z</time>
      </trkpt>
      <trkpt lat="45.7575" lon="6.72913">
        <ele>2177</ele>
        <time>2026-07-29T06:23:17.716Z</time>
      </trkpt>
      <trkpt lat="45.7575" lon="6.72913">
        <ele>2177</ele>
        <time>2026-07-29T06:23:18.716Z</time>
      </trkpt>
      <trkpt lat="45.7575" lon="6.72913">
        <ele>2177</ele>
        <time>2026-07-29T06:23:19.716Z</time>
      </trkpt>
      <trkpt lat="45.7575" lon="6.72913">
        <ele>2177</ele>
        <time>2026-07-29T06:23:20.716Z</time>
      </trkpt>
      <trkpt lat="45.7575" lon="6.72913">
        <ele>2177</ele>
        <time>2026-07-29T06:23:21.716Z</time>
      </trkpt>
      <trkpt lat="45.7575" lon="6.72913">
        <ele>2177</ele>
        <time>2026-07-29T06:23:22.716Z</time>
      </trkpt>
      <trkpt lat="45.7575" lon="6.72913">
        <ele>2177</ele>
        <time>2026-07-29T06:23:23.716Z</time>
      </trkpt>
      <trkpt lat="45.7575" lon="6.72913">
        <ele>2177</ele>
        <time>2026-07-29T06:23:24.716Z</time>
      </trkpt>
      <trkpt lat="45.7575" lon="6.72913">
        <ele>2177</ele>
        <time>2026-07-29T06:23:25.716Z</time>
      </trkpt>
      <trkpt lat="45.7575" lon="6.72913">
        <ele>2177</ele>
        <time>2026-07-29T06:23:26.716Z</time>
      </trkpt>
      <trkpt lat="45.7575" lon="6.72913">
        <ele>2177</ele>
        <time>2026-07-29T06:23:27.716Z</time>
      </trkpt>
      <trkpt lat="45.7575" lon="6.72913">
        <ele>2177</ele>
        <time>2026-07-29T06:23:28.716Z</time>
      </trkpt>
      <trkpt lat="45.7575" lon="6.72913">
        <ele>2177</ele>
        <time>2026-07-29T06:23:29.716Z</time>
      </trkpt>
      <trkpt lat="45.7575" lon="6.72913">
        <ele>2177</ele>
        <time>2026-07-29T06:23:30.716Z</time>
      </trkpt>
      <trkpt lat="45.7575" lon="6.72913">
        <ele>2177</ele>
        <time>2026-07-29T06:23:31.716Z</time>
      </trkpt>
      <trkpt lat="45.7575" lon="6.72913">
        <ele>2177</ele>
        <time>2026-07-29T06:23:32.716Z</time>
      </trkpt>
      <trkpt lat="45.7575" lon="6.72913">
        <ele>2177</ele>
        <time>2026-07-29T06:23:33.716Z</time>
      </trkpt>
      <trkpt lat="45.7575" lon="6.72913">
        <ele>2177</ele>
        <time>2026-07-29T06:23:34.716Z</time>
      </trkpt>
      <trkpt lat="45.7575" lon="6.72914">
        <ele>2177</ele>
        <time>2026-07-29T06:23:35.716Z</time>
      </trkpt>
      <trkpt lat="45.7575" lon="6.72914">
        <ele>2177</ele>
        <time>2026-07-29T06:23:36.716Z</time>
      </trkpt>
      <trkpt lat="45.7575" lon="6.72914">
        <ele>2177</ele>
        <time>2026-07-29T06:23:37.716Z</time>
      </trkpt>
      <trkpt lat="45.7575" lon="6.72914">
        <ele>2177</ele>
        <time>2026-07-29T06:23:38.716Z</time>
      </trkpt>
      <trkpt lat="45.7575" lon="6.72914">
        <ele>2177</ele>
        <time>2026-07-29T06:23:39.716Z</time>
      </trkpt>
      <trkpt lat="45.7575" lon="6.72914">
        <ele>2177</ele>
        <time>2026-07-29T06:23:40.716Z</time>
      </trkpt>
      <trkpt lat="45.7575" lon="6.72914">
        <ele>2177</ele>
        <time>2026-07-29T06:23:41.716Z</time>
      </trkpt>
      <trkpt lat="45.7575" lon="6.72914">
        <ele>2177</ele>
        <time>2026-07-29T06:23:42.716Z</time>
      </trkpt>
      <trkpt lat="45.7575" lon="6.72914">
        <ele>2177</ele>
        <time>2026-07-29T06:23:43.716Z</time>
      </trkpt>
      <trkpt lat="45.7575" lon="6.72914">
        <ele>2177</ele>
        <time>2026-07-29T06:23:44.716Z</time>
      </trkpt>
      <trkpt lat="45.75751" lon="6.72915">
        <ele>2177</ele>
        <time>2026-07-29T06:23:45.716Z</time>
      </trkpt>
      <trkpt lat="45.75753" lon="6.72915">
        <ele>2177</ele>
        <time>2026-07-29T06:23:46.716Z</time>
      </trkpt>
      <trkpt lat="45.75754" lon="6.72916">
        <ele>2177</ele>
        <time>2026-07-29T06:23:47.716Z</time>
      </trkpt>
      <trkpt lat="45.75756" lon="6.72917">
        <ele>2177</ele>
        <time>2026-07-29T06:23:48.716Z</time>
      </trkpt>
      <trkpt lat="45.75759" lon="6.72918">
        <ele>2177</ele>
        <time>2026-07-29T06:23:49.716Z</time>
      </trkpt>
      <trkpt lat="45.75761" lon="6.72919">
        <ele>2177</ele>
        <time>2026-07-29T06:23:50.716Z</time>
      </trkpt>
      <trkpt lat="45.75763" lon="6.7292">
        <ele>2177</ele>
        <time>2026-07-29T06:23:51.716Z</time>
      </trkpt>
      <trkpt lat="45.75765" lon="6.72921">
        <ele>2177</ele>
        <time>2026-07-29T06:23:52.716Z</time>
      </trkpt>
      <trkpt lat="45.75767" lon="6.72922">
        <ele>2177</ele>
        <time>2026-07-29T06:23:53.716Z</time>
      </trkpt>
      <trkpt lat="45.75768" lon="6.72923">
        <ele>2177</ele>
        <time>2026-07-29T06:23:54.716Z</time>
      </trkpt>
      <trkpt lat="45.75769" lon="6.72923">
        <ele>2177</ele>
        <time>2026-07-29T06:23:55.716Z</time>
      </trkpt>
      <trkpt lat="45.7577" lon="6.72923">
        <ele>2177</ele>
        <time>2026-07-29T06:23:56.716Z</time>
      </trkpt>
      <trkpt lat="45.7577" lon="6.72924">
        <ele>2177</ele>
        <time>2026-07-29T06:23:57.716Z</time>
      </trkpt>
      <trkpt lat="45.7577" lon="6.72924">
        <ele>2177</ele>
        <time>2026-07-29T06:23:58.716Z</time>
      </trkpt>
      <trkpt lat="45.75771" lon="6.72925">
        <ele>2177</ele>
        <time>2026-07-29T06:23:59.716Z</time>
      </trkpt>
      <trkpt lat="45.75772" lon="6.72927">
        <ele>2177</ele>
        <time>2026-07-29T06:24:00.716Z</time>
      </trkpt>
      <trkpt lat="45.75773" lon="6.72928">
        <ele>2177</ele>
        <time>2026-07-29T06:24:01.716Z</time>
      </trkpt>
      <trkpt lat="45.75774" lon="6.72929">
        <ele>2177</ele>
        <time>2026-07-29T06:24:02.716Z</time>
      </trkpt>
      <trkpt lat="45.75776" lon="6.72931">
        <ele>2178</ele>
        <time>2026-07-29T06:24:03.716Z</time>
      </trkpt>
      <trkpt lat="45.75777" lon="6.72932">
        <ele>2178</ele>
        <time>2026-07-29T06:24:04.716Z</time>
      </trkpt>
      <trkpt lat="45.75779" lon="6.72933">
        <ele>2179</ele>
        <time>2026-07-29T06:24:05.716Z</time>
      </trkpt>
      <trkpt lat="45.75781" lon="6.72934">
        <ele>2179</ele>
        <time>2026-07-29T06:24:06.716Z</time>
      </trkpt>
      <trkpt lat="45.75782" lon="6.72935">
        <ele>2179</ele>
        <time>2026-07-29T06:24:07.716Z</time>
      </trkpt>
      <trkpt lat="45.75784" lon="6.72937">
        <ele>2180</ele>
        <time>2026-07-29T06:24:08.716Z</time>
      </trkpt>
      <trkpt lat="45.75786" lon="6.72938">
        <ele>2180</ele>
        <time>2026-07-29T06:24:09.716Z</time>
      </trkpt>
      <trkpt lat="45.75787" lon="6.72939">
        <ele>2180</ele>
        <time>2026-07-29T06:24:10.716Z</time>
      </trkpt>
      <trkpt lat="45.75787" lon="6.72941">
        <ele>2181</ele>
        <time>2026-07-29T06:24:11.716Z</time>
      </trkpt>
      <trkpt lat="45.75789" lon="6.72942">
        <ele>2181</ele>
        <time>2026-07-29T06:24:12.716Z</time>
      </trkpt>
      <trkpt lat="45.7579" lon="6.72943">
        <ele>2181</ele>
        <time>2026-07-29T06:24:13.716Z</time>
      </trkpt>
      <trkpt lat="45.75792" lon="6.72943">
        <ele>2181</ele>
        <time>2026-07-29T06:24:14.716Z</time>
      </trkpt>
      <trkpt lat="45.75793" lon="6.72944">
        <ele>2181</ele>
        <time>2026-07-29T06:24:15.716Z</time>
      </trkpt>
      <trkpt lat="45.75794" lon="6.72945">
        <ele>2181</ele>
        <time>2026-07-29T06:24:16.716Z</time>
      </trkpt>
      <trkpt lat="45.75795" lon="6.72946">
        <ele>2181</ele>
        <time>2026-07-29T06:24:17.716Z</time>
      </trkpt>
      <trkpt lat="45.75795" lon="6.72946">
        <ele>2180</ele>
        <time>2026-07-29T06:24:18.716Z</time>
      </trkpt>
      <trkpt lat="45.75796" lon="6.72947">
        <ele>2180</ele>
        <time>2026-07-29T06:24:19.716Z</time>
      </trkpt>
      <trkpt lat="45.75797" lon="6.72948">
        <ele>2180</ele>
        <time>2026-07-29T06:24:20.716Z</time>
      </trkpt>
      <trkpt lat="45.75799" lon="6.72949">
        <ele>2180</ele>
        <time>2026-07-29T06:24:21.716Z</time>
      </trkpt>
      <trkpt lat="45.75801" lon="6.72949">
        <ele>2180</ele>
        <time>2026-07-29T06:24:22.716Z</time>
      </trkpt>
      <trkpt lat="45.75802" lon="6.7295">
        <ele>2180</ele>
        <time>2026-07-29T06:24:23.716Z</time>
      </trkpt>
      <trkpt lat="45.75804" lon="6.72951">
        <ele>2180</ele>
        <time>2026-07-29T06:24:24.716Z</time>
      </trkpt>
      <trkpt lat="45.75806" lon="6.72952">
        <ele>2180</ele>
        <time>2026-07-29T06:24:25.716Z</time>
      </trkpt>
      <trkpt lat="45.75808" lon="6.72953">
        <ele>2180</ele>
        <time>2026-07-29T06:24:26.716Z</time>
      </trkpt>
      <trkpt lat="45.7581" lon="6.72953">
        <ele>2180</ele>
        <time>2026-07-29T06:24:27.716Z</time>
      </trkpt>
      <trkpt lat="45.75812" lon="6.72954">
        <ele>2180</ele>
        <time>2026-07-29T06:24:28.716Z</time>
      </trkpt>
      <trkpt lat="45.75813" lon="6.72955">
        <ele>2181</ele>
        <time>2026-07-29T06:24:29.716Z</time>
      </trkpt>
      <trkpt lat="45.75815" lon="6.72956">
        <ele>2181</ele>
        <time>2026-07-29T06:24:30.716Z</time>
      </trkpt>
      <trkpt lat="45.75816" lon="6.72957">
        <ele>2181</ele>
        <time>2026-07-29T06:24:31.716Z</time>
      </trkpt>
      <trkpt lat="45.75818" lon="6.72957">
        <ele>2181</ele>
        <time>2026-07-29T06:24:32.716Z</time>
      </trkpt>
      <trkpt lat="45.75819" lon="6.72959">
        <ele>2180</ele>
        <time>2026-07-29T06:24:33.716Z</time>
      </trkpt>
      <trkpt lat="45.75821" lon="6.7296">
        <ele>2180</ele>
        <time>2026-07-29T06:24:34.716Z</time>
      </trkpt>
      <trkpt lat="45.75822" lon="6.72961">
        <ele>2180</ele>
        <time>2026-07-29T06:24:35.717Z</time>
      </trkpt>
      <trkpt lat="45.75823" lon="6.72962">
        <ele>2180</ele>
        <time>2026-07-29T06:24:36.716Z</time>
      </trkpt>
      <trkpt lat="45.75825" lon="6.72963">
        <ele>2180</ele>
        <time>2026-07-29T06:24:37.716Z</time>
      </trkpt>
      <trkpt lat="45.75826" lon="6.72965">
        <ele>2180</ele>
        <time>2026-07-29T06:24:38.716Z</time>
      </trkpt>
      <trkpt lat="45.75828" lon="6.72966">
        <ele>2180</ele>
        <time>2026-07-29T06:24:39.716Z</time>
      </trkpt>
      <trkpt lat="45.75829" lon="6.72968">
        <ele>2180</ele>
        <time>2026-07-29T06:24:40.716Z</time>
      </trkpt>
      <trkpt lat="45.75831" lon="6.72969">
        <ele>2181</ele>
        <time>2026-07-29T06:24:41.716Z</time>
      </trkpt>
      <trkpt lat="45.75832" lon="6.72972">
        <ele>2181</ele>
        <time>2026-07-29T06:24:42.716Z</time>
      </trkpt>
      <trkpt lat="45.75834" lon="6.72974">
        <ele>2181</ele>
        <time>2026-07-29T06:24:43.716Z</time>
      </trkpt>
      <trkpt lat="45.75836" lon="6.72976">
        <ele>2181</ele>
        <time>2026-07-29T06:24:44.716Z</time>
      </trkpt>
      <trkpt lat="45.75837" lon="6.72978">
        <ele>2181</ele>
        <time>2026-07-29T06:24:45.716Z</time>
      </trkpt>
      <trkpt lat="45.75839" lon="6.7298">
        <ele>2181</ele>
        <time>2026-07-29T06:24:46.716Z</time>
      </trkpt>
      <trkpt lat="45.7584" lon="6.72982">
        <ele>2181</ele>
        <time>2026-07-29T06:24:47.716Z</time>
      </trkpt>
      <trkpt lat="45.75841" lon="6.72984">
        <ele>2181</ele>
        <time>2026-07-29T06:24:48.716Z</time>
      </trkpt>
      <trkpt lat="45.75843" lon="6.72985">
        <ele>2181</ele>
        <time>2026-07-29T06:24:49.716Z</time>
      </trkpt>
      <trkpt lat="45.75844" lon="6.72987">
        <ele>2181</ele>
        <time>2026-07-29T06:24:50.716Z</time>
      </trkpt>
      <trkpt lat="45.75846" lon="6.72988">
        <ele>2181</ele>
        <time>2026-07-29T06:24:51.716Z</time>
      </trkpt>
      <trkpt lat="45.75847" lon="6.7299">
        <ele>2180</ele>
        <time>2026-07-29T06:24:52.716Z</time>
      </trkpt>
      <trkpt lat="45.75848" lon="6.72992">
        <ele>2180</ele>
        <time>2026-07-29T06:24:53.716Z</time>
      </trkpt>
      <trkpt lat="45.7585" lon="6.72994">
        <ele>2180</ele>
        <time>2026-07-29T06:24:54.716Z</time>
      </trkpt>
      <trkpt lat="45.75851" lon="6.72996">
        <ele>2180</ele>
        <time>2026-07-29T06:24:55.716Z</time>
      </trkpt>
      <trkpt lat="45.75853" lon="6.72998">
        <ele>2180</ele>
        <time>2026-07-29T06:24:56.716Z</time>
      </trkpt>
      <trkpt lat="45.75854" lon="6.73">
        <ele>2179</ele>
        <time>2026-07-29T06:24:57.716Z</time>
      </trkpt>
      <trkpt lat="45.75855" lon="6.73002">
        <ele>2179</ele>
        <time>2026-07-29T06:24:58.716Z</time>
      </trkpt>
      <trkpt lat="45.75855" lon="6.73004">
        <ele>2179</ele>
        <time>2026-07-29T06:24:59.716Z</time>
      </trkpt>
      <trkpt lat="45.75856" lon="6.73005">
        <ele>2178</ele>
        <time>2026-07-29T06:25:00.716Z</time>
      </trkpt>
      <trkpt lat="45.75857" lon="6.73007">
        <ele>2178</ele>
        <time>2026-07-29T06:25:01.716Z</time>
      </trkpt>
      <trkpt lat="45.75858" lon="6.73008">
        <ele>2178</ele>
        <time>2026-07-29T06:25:02.716Z</time>
      </trkpt>
      <trkpt lat="45.75859" lon="6.73009">
        <ele>2178</ele>
        <time>2026-07-29T06:25:03.716Z</time>
      </trkpt>
      <trkpt lat="45.75859" lon="6.7301">
        <ele>2179</ele>
        <time>2026-07-29T06:25:04.716Z</time>
      </trkpt>
      <trkpt lat="45.7586" lon="6.73011">
        <ele>2179</ele>
        <time>2026-07-29T06:25:05.716Z</time>
      </trkpt>
      <trkpt lat="45.7586" lon="6.73013">
        <ele>2179</ele>
        <time>2026-07-29T06:25:06.716Z</time>
      </trkpt>
      <trkpt lat="45.75861" lon="6.73014">
        <ele>2179</ele>
        <time>2026-07-29T06:25:07.716Z</time>
      </trkpt>
      <trkpt lat="45.75861" lon="6.73015">
        <ele>2179</ele>
        <time>2026-07-29T06:25:08.716Z</time>
      </trkpt>
      <trkpt lat="45.75862" lon="6.73017">
        <ele>2179</ele>
        <time>2026-07-29T06:25:09.716Z</time>
      </trkpt>
      <trkpt lat="45.75863" lon="6.73018">
        <ele>2179</ele>
        <time>2026-07-29T06:25:10.716Z</time>
      </trkpt>
      <trkpt lat="45.75864" lon="6.73019">
        <ele>2179</ele>
        <time>2026-07-29T06:25:11.716Z</time>
      </trkpt>
      <trkpt lat="45.75865" lon="6.7302">
        <ele>2179</ele>
        <time>2026-07-29T06:25:12.716Z</time>
      </trkpt>
      <trkpt lat="45.75865" lon="6.73021">
        <ele>2179</ele>
        <time>2026-07-29T06:25:13.716Z</time>
      </trkpt>
      <trkpt lat="45.75866" lon="6.73022">
        <ele>2178</ele>
        <time>2026-07-29T06:25:14.716Z</time>
      </trkpt>
      <trkpt lat="45.75866" lon="6.73023">
        <ele>2178</ele>
        <time>2026-07-29T06:25:15.716Z</time>
      </trkpt>
      <trkpt lat="45.75867" lon="6.73024">
        <ele>2178</ele>
        <time>2026-07-29T06:25:16.716Z</time>
      </trkpt>
      <trkpt lat="45.75868" lon="6.73024">
        <ele>2178</ele>
        <time>2026-07-29T06:25:17.716Z</time>
      </trkpt>
      <trkpt lat="45.75868" lon="6.73025">
        <ele>2178</ele>
        <time>2026-07-29T06:25:18.716Z</time>
      </trkpt>
      <trkpt lat="45.75869" lon="6.73027">
        <ele>2178</ele>
        <time>2026-07-29T06:25:19.716Z</time>
      </trkpt>
      <trkpt lat="45.75869" lon="6.73028">
        <ele>2178</ele>
        <time>2026-07-29T06:25:20.716Z</time>
      </trkpt>
      <trkpt lat="45.75869" lon="6.73029">
        <ele>2178</ele>
        <time>2026-07-29T06:25:21.716Z</time>
      </trkpt>
      <trkpt lat="45.75869" lon="6.7303">
        <ele>2178</ele>
        <time>2026-07-29T06:25:22.716Z</time>
      </trkpt>
      <trkpt lat="45.75869" lon="6.73032">
        <ele>2178</ele>
        <time>2026-07-29T06:25:23.716Z</time>
      </trkpt>
      <trkpt lat="45.75869" lon="6.73033">
        <ele>2178</ele>
        <time>2026-07-29T06:25:24.716Z</time>
      </trkpt>
      <trkpt lat="45.75869" lon="6.73034">
        <ele>2178</ele>
        <time>2026-07-29T06:25:25.716Z</time>
      </trkpt>
      <trkpt lat="45.75869" lon="6.73035">
        <ele>2178</ele>
        <time>2026-07-29T06:25:26.716Z</time>
      </trkpt>
      <trkpt lat="45.7587" lon="6.73036">
        <ele>2178</ele>
        <time>2026-07-29T06:25:27.716Z</time>
      </trkpt>
      <trkpt lat="45.7587" lon="6.73037">
        <ele>2178</ele>
        <time>2026-07-29T06:25:28.716Z</time>
      </trkpt>
      <trkpt lat="45.7587" lon="6.73038">
        <ele>2177</ele>
        <time>2026-07-29T06:25:29.716Z</time>
      </trkpt>
      <trkpt lat="45.75869" lon="6.73039">
        <ele>2177</ele>
        <time>2026-07-29T06:25:30.716Z</time>
      </trkpt>
      <trkpt lat="45.75869" lon="6.73041">
        <ele>2177</ele>
        <time>2026-07-29T06:25:31.716Z</time>
      </trkpt>
      <trkpt lat="45.75869" lon="6.73042">
        <ele>2177</ele>
        <time>2026-07-29T06:25:32.716Z</time>
      </trkpt>
      <trkpt lat="45.75868" lon="6.73044">
        <ele>2176</ele>
        <time>2026-07-29T06:25:33.716Z</time>
      </trkpt>
      <trkpt lat="45.75867" lon="6.73046">
        <ele>2176</ele>
        <time>2026-07-29T06:25:34.716Z</time>
      </trkpt>
      <trkpt lat="45.75866" lon="6.73047">
        <ele>2176</ele>
        <time>2026-07-29T06:25:35.716Z</time>
      </trkpt>
      <trkpt lat="45.75865" lon="6.73049">
        <ele>2176</ele>
        <time>2026-07-29T06:25:36.716Z</time>
      </trkpt>
      <trkpt lat="45.75864" lon="6.73051">
        <ele>2177</ele>
        <time>2026-07-29T06:25:37.716Z</time>
      </trkpt>
      <trkpt lat="45.75863" lon="6.73053">
        <ele>2177</ele>
        <time>2026-07-29T06:25:38.716Z</time>
      </trkpt>
      <trkpt lat="45.75863" lon="6.73054">
        <ele>2177</ele>
        <time>2026-07-29T06:25:39.716Z</time>
      </trkpt>
      <trkpt lat="45.75862" lon="6.73056">
        <ele>2177</ele>
        <time>2026-07-29T06:25:40.716Z</time>
      </trkpt>
      <trkpt lat="45.75862" lon="6.73058">
        <ele>2177</ele>
        <time>2026-07-29T06:25:41.716Z</time>
      </trkpt>
      <trkpt lat="45.75862" lon="6.7306">
        <ele>2177</ele>
        <time>2026-07-29T06:25:42.716Z</time>
      </trkpt>
      <trkpt lat="45.75862" lon="6.73062">
        <ele>2177</ele>
        <time>2026-07-29T06:25:43.716Z</time>
      </trkpt>
      <trkpt lat="45.75862" lon="6.73064">
        <ele>2177</ele>
        <time>2026-07-29T06:25:44.716Z</time>
      </trkpt>
      <trkpt lat="45.75861" lon="6.73065">
        <ele>2177</ele>
        <time>2026-07-29T06:25:45.716Z</time>
      </trkpt>
      <trkpt lat="45.75861" lon="6.73066">
        <ele>2177</ele>
        <time>2026-07-29T06:25:46.716Z</time>
      </trkpt>
      <trkpt lat="45.7586" lon="6.73068">
        <ele>2178</ele>
        <time>2026-07-29T06:25:47.716Z</time>
      </trkpt>
      <trkpt lat="45.7586" lon="6.73069">
        <ele>2178</ele>
        <time>2026-07-29T06:25:48.716Z</time>
      </trkpt>
      <trkpt lat="45.7586" lon="6.7307">
        <ele>2178</ele>
        <time>2026-07-29T06:25:49.716Z</time>
      </trkpt>
      <trkpt lat="45.75859" lon="6.73072">
        <ele>2178</ele>
        <time>2026-07-29T06:25:50.716Z</time>
      </trkpt>
      <trkpt lat="45.75858" lon="6.73074">
        <ele>2178</ele>
        <time>2026-07-29T06:25:51.716Z</time>
      </trkpt>
      <trkpt lat="45.75858" lon="6.73076">
        <ele>2178</ele>
        <time>2026-07-29T06:25:52.716Z</time>
      </trkpt>
      <trkpt lat="45.75857" lon="6.73078">
        <ele>2178</ele>
        <time>2026-07-29T06:25:53.716Z</time>
      </trkpt>
      <trkpt lat="45.75857" lon="6.7308">
        <ele>2178</ele>
        <time>2026-07-29T06:25:54.716Z</time>
      </trkpt>
      <trkpt lat="45.75856" lon="6.73082">
        <ele>2178</ele>
        <time>2026-07-29T06:25:55.716Z</time>
      </trkpt>
      <trkpt lat="45.75855" lon="6.73084">
        <ele>2178</ele>
        <time>2026-07-29T06:25:56.716Z</time>
      </trkpt>
      <trkpt lat="45.75854" lon="6.73086">
        <ele>2177</ele>
        <time>2026-07-29T06:25:57.716Z</time>
      </trkpt>
      <trkpt lat="45.75853" lon="6.73087">
        <ele>2177</ele>
        <time>2026-07-29T06:25:58.716Z</time>
      </trkpt>
      <trkpt lat="45.75852" lon="6.7309">
        <ele>2177</ele>
        <time>2026-07-29T06:25:59.716Z</time>
      </trkpt>
      <trkpt lat="45.75851" lon="6.73092">
        <ele>2177</ele>
        <time>2026-07-29T06:26:00.716Z</time>
      </trkpt>
      <trkpt lat="45.75849" lon="6.73094">
        <ele>2177</ele>
        <time>2026-07-29T06:26:01.716Z</time>
      </trkpt>
      <trkpt lat="45.75848" lon="6.73097">
        <ele>2177</ele>
        <time>2026-07-29T06:26:02.716Z</time>
      </trkpt>
      <trkpt lat="45.75847" lon="6.73099">
        <ele>2176</ele>
        <time>2026-07-29T06:26:03.716Z</time>
      </trkpt>
      <trkpt lat="45.75846" lon="6.73101">
        <ele>2176</ele>
        <time>2026-07-29T06:26:04.716Z</time>
      </trkpt>
      <trkpt lat="45.75846" lon="6.73103">
        <ele>2176</ele>
        <time>2026-07-29T06:26:05.716Z</time>
      </trkpt>
      <trkpt lat="45.75845" lon="6.73105">
        <ele>2177</ele>
        <time>2026-07-29T06:26:06.716Z</time>
      </trkpt>
      <trkpt lat="45.75844" lon="6.73107">
        <ele>2177</ele>
        <time>2026-07-29T06:26:07.716Z</time>
      </trkpt>
      <trkpt lat="45.75843" lon="6.73109">
        <ele>2177</ele>
        <time>2026-07-29T06:26:08.716Z</time>
      </trkpt>
      <trkpt lat="45.75843" lon="6.73111">
        <ele>2177</ele>
        <time>2026-07-29T06:26:09.716Z</time>
      </trkpt>
      <trkpt lat="45.75842" lon="6.73113">
        <ele>2177</ele>
        <time>2026-07-29T06:26:10.716Z</time>
      </trkpt>
      <trkpt lat="45.75841" lon="6.73115">
        <ele>2177</ele>
        <time>2026-07-29T06:26:11.716Z</time>
      </trkpt>
      <trkpt lat="45.75841" lon="6.73117">
        <ele>2177</ele>
        <time>2026-07-29T06:26:12.716Z</time>
      </trkpt>
      <trkpt lat="45.75841" lon="6.73119">
        <ele>2177</ele>
        <time>2026-07-29T06:26:13.716Z</time>
      </trkpt>
      <trkpt lat="45.75841" lon="6.73122">
        <ele>2177</ele>
        <time>2026-07-29T06:26:14.716Z</time>
      </trkpt>
      <trkpt lat="45.75841" lon="6.73125">
        <ele>2177</ele>
        <time>2026-07-29T06:26:15.716Z</time>
      </trkpt>
      <trkpt lat="45.75841" lon="6.73127">
        <ele>2178</ele>
        <time>2026-07-29T06:26:16.716Z</time>
      </trkpt>
      <trkpt lat="45.75841" lon="6.73129">
        <ele>2178</ele>
        <time>2026-07-29T06:26:17.716Z</time>
      </trkpt>
      <trkpt lat="45.75841" lon="6.73131">
        <ele>2178</ele>
        <time>2026-07-29T06:26:18.716Z</time>
      </trkpt>
      <trkpt lat="45.75841" lon="6.73133">
        <ele>2178</ele>
        <time>2026-07-29T06:26:19.716Z</time>
      </trkpt>
      <trkpt lat="45.7584" lon="6.73134">
        <ele>2178</ele>
        <time>2026-07-29T06:26:20.716Z</time>
      </trkpt>
      <trkpt lat="45.7584" lon="6.73135">
        <ele>2178</ele>
        <time>2026-07-29T06:26:21.716Z</time>
      </trkpt>
      <trkpt lat="45.7584" lon="6.73136">
        <ele>2178</ele>
        <time>2026-07-29T06:26:22.716Z</time>
      </trkpt>
      <trkpt lat="45.75839" lon="6.73137">
        <ele>2178</ele>
        <time>2026-07-29T06:26:23.716Z</time>
      </trkpt>
      <trkpt lat="45.75839" lon="6.73138">
        <ele>2178</ele>
        <time>2026-07-29T06:26:24.716Z</time>
      </trkpt>
      <trkpt lat="45.75839" lon="6.73138">
        <ele>2178</ele>
        <time>2026-07-29T06:26:25.716Z</time>
      </trkpt>
      <trkpt lat="45.75839" lon="6.73138">
        <ele>2178</ele>
        <time>2026-07-29T06:26:26.716Z</time>
      </trkpt>
      <trkpt lat="45.7584" lon="6.73139">
        <ele>2178</ele>
        <time>2026-07-29T06:26:27.716Z</time>
      </trkpt>
      <trkpt lat="45.75842" lon="6.7314">
        <ele>2178</ele>
        <time>2026-07-29T06:26:28.716Z</time>
      </trkpt>
      <trkpt lat="45.75843" lon="6.73141">
        <ele>2178</ele>
        <time>2026-07-29T06:26:29.716Z</time>
      </trkpt>
      <trkpt lat="45.75844" lon="6.73142">
        <ele>2179</ele>
        <time>2026-07-29T06:26:30.716Z</time>
      </trkpt>
      <trkpt lat="45.75845" lon="6.73144">
        <ele>2179</ele>
        <time>2026-07-29T06:26:31.716Z</time>
      </trkpt>
      <trkpt lat="45.75846" lon="6.73146">
        <ele>2179</ele>
        <time>2026-07-29T06:26:32.716Z</time>
      </trkpt>
      <trkpt lat="45.75847" lon="6.73148">
        <ele>2179</ele>
        <time>2026-07-29T06:26:33.716Z</time>
      </trkpt>
      <trkpt lat="45.75848" lon="6.7315">
        <ele>2179</ele>
        <time>2026-07-29T06:26:34.716Z</time>
      </trkpt>
      <trkpt lat="45.75849" lon="6.73152">
        <ele>2179</ele>
        <time>2026-07-29T06:26:35.716Z</time>
      </trkpt>
      <trkpt lat="45.75851" lon="6.73154">
        <ele>2179</ele>
        <time>2026-07-29T06:26:36.716Z</time>
      </trkpt>
      <trkpt lat="45.75852" lon="6.73156">
        <ele>2179</ele>
        <time>2026-07-29T06:26:37.716Z</time>
      </trkpt>
      <trkpt lat="45.75854" lon="6.73157">
        <ele>2179</ele>
        <time>2026-07-29T06:26:38.716Z</time>
      </trkpt>
      <trkpt lat="45.75856" lon="6.73159">
        <ele>2179</ele>
        <time>2026-07-29T06:26:39.716Z</time>
      </trkpt>
      <trkpt lat="45.75857" lon="6.73161">
        <ele>2179</ele>
        <time>2026-07-29T06:26:40.716Z</time>
      </trkpt>
      <trkpt lat="45.75858" lon="6.73163">
        <ele>2179</ele>
        <time>2026-07-29T06:26:41.716Z</time>
      </trkpt>
      <trkpt lat="45.75859" lon="6.73165">
        <ele>2179</ele>
        <time>2026-07-29T06:26:42.716Z</time>
      </trkpt>
      <trkpt lat="45.7586" lon="6.73168">
        <ele>2179</ele>
        <time>2026-07-29T06:26:43.716Z</time>
      </trkpt>
      <trkpt lat="45.7586" lon="6.7317">
        <ele>2179</ele>
        <time>2026-07-29T06:26:44.716Z</time>
      </trkpt>
      <trkpt lat="45.75861" lon="6.73172">
        <ele>2180</ele>
        <time>2026-07-29T06:26:45.716Z</time>
      </trkpt>
      <trkpt lat="45.75862" lon="6.73174">
        <ele>2180</ele>
        <time>2026-07-29T06:26:46.716Z</time>
      </trkpt>
      <trkpt lat="45.75863" lon="6.73176">
        <ele>2180</ele>
        <time>2026-07-29T06:26:47.716Z</time>
      </trkpt>
      <trkpt lat="45.75865" lon="6.73177">
        <ele>2180</ele>
        <time>2026-07-29T06:26:48.716Z</time>
      </trkpt>
      <trkpt lat="45.75867" lon="6.73177">
        <ele>2180</ele>
        <time>2026-07-29T06:26:49.716Z</time>
      </trkpt>
      <trkpt lat="45.75868" lon="6.73178">
        <ele>2180</ele>
        <time>2026-07-29T06:26:50.716Z</time>
      </trkpt>
      <trkpt lat="45.7587" lon="6.7318">
        <ele>2180</ele>
        <time>2026-07-29T06:26:51.716Z</time>
      </trkpt>
      <trkpt lat="45.75871" lon="6.73181">
        <ele>2180</ele>
        <time>2026-07-29T06:26:52.716Z</time>
      </trkpt>
      <trkpt lat="45.75873" lon="6.73182">
        <ele>2181</ele>
        <time>2026-07-29T06:26:53.716Z</time>
      </trkpt>
      <trkpt lat="45.75874" lon="6.73184">
        <ele>2181</ele>
        <time>2026-07-29T06:26:54.716Z</time>
      </trkpt>
      <trkpt lat="45.75876" lon="6.73186">
        <ele>2182</ele>
        <time>2026-07-29T06:26:55.716Z</time>
      </trkpt>
      <trkpt lat="45.75877" lon="6.73188">
        <ele>2182</ele>
        <time>2026-07-29T06:26:56.716Z</time>
      </trkpt>
      <trkpt lat="45.75878" lon="6.7319">
        <ele>2182</ele>
        <time>2026-07-29T06:26:57.716Z</time>
      </trkpt>
      <trkpt lat="45.75879" lon="6.73192">
        <ele>2182</ele>
        <time>2026-07-29T06:26:58.716Z</time>
      </trkpt>
      <trkpt lat="45.7588" lon="6.73194">
        <ele>2182</ele>
        <time>2026-07-29T06:26:59.716Z</time>
      </trkpt>
      <trkpt lat="45.75881" lon="6.73196">
        <ele>2182</ele>
        <time>2026-07-29T06:27:00.716Z</time>
      </trkpt>
      <trkpt lat="45.75882" lon="6.73197">
        <ele>2182</ele>
        <time>2026-07-29T06:27:01.716Z</time>
      </trkpt>
      <trkpt lat="45.75883" lon="6.73199">
        <ele>2182</ele>
        <time>2026-07-29T06:27:02.716Z</time>
      </trkpt>
      <trkpt lat="45.75884" lon="6.73201">
        <ele>2182</ele>
        <time>2026-07-29T06:27:03.716Z</time>
      </trkpt>
      <trkpt lat="45.75885" lon="6.73203">
        <ele>2183</ele>
        <time>2026-07-29T06:27:04.716Z</time>
      </trkpt>
      <trkpt lat="45.75886" lon="6.73205">
        <ele>2183</ele>
        <time>2026-07-29T06:27:05.716Z</time>
      </trkpt>
      <trkpt lat="45.75887" lon="6.73206">
        <ele>2183</ele>
        <time>2026-07-29T06:27:06.716Z</time>
      </trkpt>
      <trkpt lat="45.75889" lon="6.73208">
        <ele>2183</ele>
        <time>2026-07-29T06:27:07.716Z</time>
      </trkpt>
      <trkpt lat="45.7589" lon="6.7321">
        <ele>2183</ele>
        <time>2026-07-29T06:27:08.716Z</time>
      </trkpt>
      <trkpt lat="45.75891" lon="6.73212">
        <ele>2183</ele>
        <time>2026-07-29T06:27:09.716Z</time>
      </trkpt>
      <trkpt lat="45.75892" lon="6.73214">
        <ele>2183</ele>
        <time>2026-07-29T06:27:10.716Z</time>
      </trkpt>
      <trkpt lat="45.75893" lon="6.73216">
        <ele>2183</ele>
        <time>2026-07-29T06:27:11.716Z</time>
      </trkpt>
      <trkpt lat="45.75893" lon="6.73217">
        <ele>2183</ele>
        <time>2026-07-29T06:27:12.716Z</time>
      </trkpt>
      <trkpt lat="45.75894" lon="6.73219">
        <ele>2183</ele>
        <time>2026-07-29T06:27:13.716Z</time>
      </trkpt>
      <trkpt lat="45.75895" lon="6.73222">
        <ele>2183</ele>
        <time>2026-07-29T06:27:14.716Z</time>
      </trkpt>
      <trkpt lat="45.75895" lon="6.73224">
        <ele>2184</ele>
        <time>2026-07-29T06:27:15.716Z</time>
      </trkpt>
      <trkpt lat="45.75896" lon="6.73226">
        <ele>2184</ele>
        <time>2026-07-29T06:27:16.716Z</time>
      </trkpt>
      <trkpt lat="45.75897" lon="6.73229">
        <ele>2184</ele>
        <time>2026-07-29T06:27:17.716Z</time>
      </trkpt>
      <trkpt lat="45.75898" lon="6.7323">
        <ele>2184</ele>
        <time>2026-07-29T06:27:18.716Z</time>
      </trkpt>
      <trkpt lat="45.75899" lon="6.73232">
        <ele>2184</ele>
        <time>2026-07-29T06:27:19.716Z</time>
      </trkpt>
      <trkpt lat="45.75901" lon="6.73233">
        <ele>2184</ele>
        <time>2026-07-29T06:27:20.716Z</time>
      </trkpt>
      <trkpt lat="45.75901" lon="6.73235">
        <ele>2184</ele>
        <time>2026-07-29T06:27:21.716Z</time>
      </trkpt>
      <trkpt lat="45.75903" lon="6.73235">
        <ele>2184</ele>
        <time>2026-07-29T06:27:22.716Z</time>
      </trkpt>
      <trkpt lat="45.75904" lon="6.73236">
        <ele>2185</ele>
        <time>2026-07-29T06:27:23.716Z</time>
      </trkpt>
      <trkpt lat="45.75905" lon="6.73236">
        <ele>2185</ele>
        <time>2026-07-29T06:27:24.716Z</time>
      </trkpt>
      <trkpt lat="45.75906" lon="6.73237">
        <ele>2185</ele>
        <time>2026-07-29T06:27:25.716Z</time>
      </trkpt>
      <trkpt lat="45.75908" lon="6.73237">
        <ele>2185</ele>
        <time>2026-07-29T06:27:26.716Z</time>
      </trkpt>
      <trkpt lat="45.75909" lon="6.73238">
        <ele>2185</ele>
        <time>2026-07-29T06:27:27.716Z</time>
      </trkpt>
      <trkpt lat="45.75909" lon="6.7324">
        <ele>2185</ele>
        <time>2026-07-29T06:27:28.716Z</time>
      </trkpt>
      <trkpt lat="45.7591" lon="6.73242">
        <ele>2185</ele>
        <time>2026-07-29T06:27:29.716Z</time>
      </trkpt>
      <trkpt lat="45.7591" lon="6.73245">
        <ele>2185</ele>
        <time>2026-07-29T06:27:30.716Z</time>
      </trkpt>
      <trkpt lat="45.75911" lon="6.73247">
        <ele>2185</ele>
        <time>2026-07-29T06:27:31.716Z</time>
      </trkpt>
      <trkpt lat="45.75911" lon="6.7325">
        <ele>2185</ele>
        <time>2026-07-29T06:27:32.716Z</time>
      </trkpt>
      <trkpt lat="45.75912" lon="6.73252">
        <ele>2185</ele>
        <time>2026-07-29T06:27:33.716Z</time>
      </trkpt>
      <trkpt lat="45.75913" lon="6.73255">
        <ele>2185</ele>
        <time>2026-07-29T06:27:34.716Z</time>
      </trkpt>
      <trkpt lat="45.75913" lon="6.73258">
        <ele>2185</ele>
        <time>2026-07-29T06:27:35.716Z</time>
      </trkpt>
      <trkpt lat="45.75914" lon="6.7326">
        <ele>2185</ele>
        <time>2026-07-29T06:27:36.716Z</time>
      </trkpt>
      <trkpt lat="45.75915" lon="6.73263">
        <ele>2185</ele>
        <time>2026-07-29T06:27:37.716Z</time>
      </trkpt>
      <trkpt lat="45.75916" lon="6.73266">
        <ele>2186</ele>
        <time>2026-07-29T06:27:38.716Z</time>
      </trkpt>
      <trkpt lat="45.75917" lon="6.73268">
        <ele>2186</ele>
        <time>2026-07-29T06:27:39.716Z</time>
      </trkpt>
      <trkpt lat="45.75919" lon="6.7327">
        <ele>2186</ele>
        <time>2026-07-29T06:27:40.716Z</time>
      </trkpt>
      <trkpt lat="45.7592" lon="6.73272">
        <ele>2186</ele>
        <time>2026-07-29T06:27:41.716Z</time>
      </trkpt>
      <trkpt lat="45.75921" lon="6.73274">
        <ele>2185</ele>
        <time>2026-07-29T06:27:42.716Z</time>
      </trkpt>
      <trkpt lat="45.75922" lon="6.73276">
        <ele>2185</ele>
        <time>2026-07-29T06:27:43.716Z</time>
      </trkpt>
      <trkpt lat="45.75923" lon="6.73278">
        <ele>2185</ele>
        <time>2026-07-29T06:27:44.716Z</time>
      </trkpt>
      <trkpt lat="45.75924" lon="6.7328">
        <ele>2185</ele>
        <time>2026-07-29T06:27:45.716Z</time>
      </trkpt>
      <trkpt lat="45.75924" lon="6.73283">
        <ele>2185</ele>
        <time>2026-07-29T06:27:46.716Z</time>
      </trkpt>
      <trkpt lat="45.75924" lon="6.73285">
        <ele>2186</ele>
        <time>2026-07-29T06:27:47.716Z</time>
      </trkpt>
      <trkpt lat="45.75924" lon="6.73287">
        <ele>2186</ele>
        <time>2026-07-29T06:27:48.716Z</time>
      </trkpt>
      <trkpt lat="45.75924" lon="6.73289">
        <ele>2186</ele>
        <time>2026-07-29T06:27:49.716Z</time>
      </trkpt>
      <trkpt lat="45.75924" lon="6.73292">
        <ele>2186</ele>
        <time>2026-07-29T06:27:50.716Z</time>
      </trkpt>
      <trkpt lat="45.75923" lon="6.73294">
        <ele>2186</ele>
        <time>2026-07-29T06:27:51.716Z</time>
      </trkpt>
      <trkpt lat="45.75923" lon="6.73296">
        <ele>2186</ele>
        <time>2026-07-29T06:27:52.716Z</time>
      </trkpt>
      <trkpt lat="45.75923" lon="6.73299">
        <ele>2186</ele>
        <time>2026-07-29T06:27:53.716Z</time>
      </trkpt>
      <trkpt lat="45.75923" lon="6.73302">
        <ele>2186</ele>
        <time>2026-07-29T06:27:54.716Z</time>
      </trkpt>
      <trkpt lat="45.75923" lon="6.73304">
        <ele>2186</ele>
        <time>2026-07-29T06:27:55.716Z</time>
      </trkpt>
      <trkpt lat="45.75924" lon="6.73307">
        <ele>2187</ele>
        <time>2026-07-29T06:27:56.716Z</time>
      </trkpt>
      <trkpt lat="45.75924" lon="6.73309">
        <ele>2187</ele>
        <time>2026-07-29T06:27:57.716Z</time>
      </trkpt>
      <trkpt lat="45.75925" lon="6.73311">
        <ele>2187</ele>
        <time>2026-07-29T06:27:58.716Z</time>
      </trkpt>
      <trkpt lat="45.75925" lon="6.73313">
        <ele>2188</ele>
        <time>2026-07-29T06:27:59.716Z</time>
      </trkpt>
      <trkpt lat="45.75925" lon="6.73315">
        <ele>2188</ele>
        <time>2026-07-29T06:28:00.716Z</time>
      </trkpt>
      <trkpt lat="45.75926" lon="6.73317">
        <ele>2187</ele>
        <time>2026-07-29T06:28:01.716Z</time>
      </trkpt>
      <trkpt lat="45.75926" lon="6.7332">
        <ele>2187</ele>
        <time>2026-07-29T06:28:02.716Z</time>
      </trkpt>
      <trkpt lat="45.75926" lon="6.73322">
        <ele>2188</ele>
        <time>2026-07-29T06:28:03.716Z</time>
      </trkpt>
      <trkpt lat="45.75926" lon="6.73324">
        <ele>2188</ele>
        <time>2026-07-29T06:28:04.716Z</time>
      </trkpt>
      <trkpt lat="45.75925" lon="6.73325">
        <ele>2188</ele>
        <time>2026-07-29T06:28:05.716Z</time>
      </trkpt>
      <trkpt lat="45.75925" lon="6.73327">
        <ele>2188</ele>
        <time>2026-07-29T06:28:06.716Z</time>
      </trkpt>
      <trkpt lat="45.75924" lon="6.73329">
        <ele>2188</ele>
        <time>2026-07-29T06:28:07.716Z</time>
      </trkpt>
      <trkpt lat="45.75924" lon="6.7333">
        <ele>2189</ele>
        <time>2026-07-29T06:28:08.716Z</time>
      </trkpt>
      <trkpt lat="45.75923" lon="6.73332">
        <ele>2189</ele>
        <time>2026-07-29T06:28:09.716Z</time>
      </trkpt>
      <trkpt lat="45.75923" lon="6.73333">
        <ele>2189</ele>
        <time>2026-07-29T06:28:10.716Z</time>
      </trkpt>
      <trkpt lat="45.75923" lon="6.73335">
        <ele>2189</ele>
        <time>2026-07-29T06:28:11.716Z</time>
      </trkpt>
      <trkpt lat="45.75923" lon="6.73337">
        <ele>2189</ele>
        <time>2026-07-29T06:28:12.716Z</time>
      </trkpt>
      <trkpt lat="45.75922" lon="6.73338">
        <ele>2189</ele>
        <time>2026-07-29T06:28:13.716Z</time>
      </trkpt>
      <trkpt lat="45.75922" lon="6.7334">
        <ele>2189</ele>
        <time>2026-07-29T06:28:14.716Z</time>
      </trkpt>
      <trkpt lat="45.75922" lon="6.73342">
        <ele>2189</ele>
        <time>2026-07-29T06:28:15.716Z</time>
      </trkpt>
      <trkpt lat="45.75922" lon="6.73343">
        <ele>2189</ele>
        <time>2026-07-29T06:28:16.716Z</time>
      </trkpt>
      <trkpt lat="45.75922" lon="6.73345">
        <ele>2189</ele>
        <time>2026-07-29T06:28:17.716Z</time>
      </trkpt>
      <trkpt lat="45.75922" lon="6.73346">
        <ele>2189</ele>
        <time>2026-07-29T06:28:18.716Z</time>
      </trkpt>
      <trkpt lat="45.75923" lon="6.73347">
        <ele>2189</ele>
        <time>2026-07-29T06:28:19.716Z</time>
      </trkpt>
      <trkpt lat="45.75924" lon="6.73348">
        <ele>2189</ele>
        <time>2026-07-29T06:28:20.716Z</time>
      </trkpt>
      <trkpt lat="45.75924" lon="6.73349">
        <ele>2190</ele>
        <time>2026-07-29T06:28:21.716Z</time>
      </trkpt>
      <trkpt lat="45.75925" lon="6.7335">
        <ele>2190</ele>
        <time>2026-07-29T06:28:22.716Z</time>
      </trkpt>
      <trkpt lat="45.75925" lon="6.73351">
        <ele>2190</ele>
        <time>2026-07-29T06:28:23.716Z</time>
      </trkpt>
      <trkpt lat="45.75925" lon="6.73353">
        <ele>2190</ele>
        <time>2026-07-29T06:28:24.716Z</time>
      </trkpt>
      <trkpt lat="45.75926" lon="6.73354">
        <ele>2190</ele>
        <time>2026-07-29T06:28:25.716Z</time>
      </trkpt>
      <trkpt lat="45.75926" lon="6.73356">
        <ele>2191</ele>
        <time>2026-07-29T06:28:26.716Z</time>
      </trkpt>
      <trkpt lat="45.75927" lon="6.73357">
        <ele>2191</ele>
        <time>2026-07-29T06:28:27.716Z</time>
      </trkpt>
      <trkpt lat="45.75927" lon="6.73359">
        <ele>2191</ele>
        <time>2026-07-29T06:28:28.716Z</time>
      </trkpt>
      <trkpt lat="45.75928" lon="6.73361">
        <ele>2191</ele>
        <time>2026-07-29T06:28:29.716Z</time>
      </trkpt>
      <trkpt lat="45.75929" lon="6.73363">
        <ele>2192</ele>
        <time>2026-07-29T06:28:30.716Z</time>
      </trkpt>
      <trkpt lat="45.7593" lon="6.73364">
        <ele>2192</ele>
        <time>2026-07-29T06:28:31.716Z</time>
      </trkpt>
      <trkpt lat="45.7593" lon="6.73365">
        <ele>2192</ele>
        <time>2026-07-29T06:28:32.716Z</time>
      </trkpt>
      <trkpt lat="45.75931" lon="6.73365">
        <ele>2192</ele>
        <time>2026-07-29T06:28:33.716Z</time>
      </trkpt>
      <trkpt lat="45.75932" lon="6.73366">
        <ele>2193</ele>
        <time>2026-07-29T06:28:34.716Z</time>
      </trkpt>
      <trkpt lat="45.75933" lon="6.73367">
        <ele>2193</ele>
        <time>2026-07-29T06:28:35.716Z</time>
      </trkpt>
      <trkpt lat="45.75934" lon="6.73368">
        <ele>2193</ele>
        <time>2026-07-29T06:28:36.716Z</time>
      </trkpt>
      <trkpt lat="45.75935" lon="6.73369">
        <ele>2193</ele>
        <time>2026-07-29T06:28:37.716Z</time>
      </trkpt>
      <trkpt lat="45.75935" lon="6.7337">
        <ele>2193</ele>
        <time>2026-07-29T06:28:38.716Z</time>
      </trkpt>
      <trkpt lat="45.75935" lon="6.73371">
        <ele>2193</ele>
        <time>2026-07-29T06:28:39.716Z</time>
      </trkpt>
      <trkpt lat="45.75936" lon="6.73372">
        <ele>2192</ele>
        <time>2026-07-29T06:28:40.716Z</time>
      </trkpt>
      <trkpt lat="45.75937" lon="6.73372">
        <ele>2192</ele>
        <time>2026-07-29T06:28:41.716Z</time>
      </trkpt>
      <trkpt lat="45.75938" lon="6.73373">
        <ele>2192</ele>
        <time>2026-07-29T06:28:42.716Z</time>
      </trkpt>
      <trkpt lat="45.7594" lon="6.73373">
        <ele>2192</ele>
        <time>2026-07-29T06:28:43.716Z</time>
      </trkpt>
      <trkpt lat="45.75941" lon="6.73374">
        <ele>2193</ele>
        <time>2026-07-29T06:28:44.716Z</time>
      </trkpt>
      <trkpt lat="45.75943" lon="6.73375">
        <ele>2193</ele>
        <time>2026-07-29T06:28:45.716Z</time>
      </trkpt>
      <trkpt lat="45.75945" lon="6.73375">
        <ele>2193</ele>
        <time>2026-07-29T06:28:46.716Z</time>
      </trkpt>
      <trkpt lat="45.75946" lon="6.73375">
        <ele>2193</ele>
        <time>2026-07-29T06:28:47.716Z</time>
      </trkpt>
      <trkpt lat="45.75948" lon="6.73376">
        <ele>2194</ele>
        <time>2026-07-29T06:28:48.716Z</time>
      </trkpt>
      <trkpt lat="45.7595" lon="6.73376">
        <ele>2194</ele>
        <time>2026-07-29T06:28:49.716Z</time>
      </trkpt>
      <trkpt lat="45.75951" lon="6.73376">
        <ele>2194</ele>
        <time>2026-07-29T06:28:50.716Z</time>
      </trkpt>
      <trkpt lat="45.75953" lon="6.73377">
        <ele>2195</ele>
        <time>2026-07-29T06:28:51.716Z</time>
      </trkpt>
      <trkpt lat="45.75955" lon="6.73378">
        <ele>2195</ele>
        <time>2026-07-29T06:28:52.716Z</time>
      </trkpt>
      <trkpt lat="45.75956" lon="6.73378">
        <ele>2195</ele>
        <time>2026-07-29T06:28:53.716Z</time>
      </trkpt>
      <trkpt lat="45.75957" lon="6.73379">
        <ele>2195</ele>
        <time>2026-07-29T06:28:54.716Z</time>
      </trkpt>
      <trkpt lat="45.75958" lon="6.73379">
        <ele>2195</ele>
        <time>2026-07-29T06:28:55.716Z</time>
      </trkpt>
      <trkpt lat="45.75958" lon="6.73379">
        <ele>2196</ele>
        <time>2026-07-29T06:28:56.716Z</time>
      </trkpt>
      <trkpt lat="45.75959" lon="6.73379">
        <ele>2196</ele>
        <time>2026-07-29T06:28:57.716Z</time>
      </trkpt>
      <trkpt lat="45.7596" lon="6.7338">
        <ele>2196</ele>
        <time>2026-07-29T06:28:58.716Z</time>
      </trkpt>
      <trkpt lat="45.75961" lon="6.73381">
        <ele>2196</ele>
        <time>2026-07-29T06:28:59.716Z</time>
      </trkpt>
      <trkpt lat="45.75961" lon="6.73382">
        <ele>2196</ele>
        <time>2026-07-29T06:29:00.716Z</time>
      </trkpt>
      <trkpt lat="45.75962" lon="6.73383">
        <ele>2196</ele>
        <time>2026-07-29T06:29:01.716Z</time>
      </trkpt>
      <trkpt lat="45.75962" lon="6.73383">
        <ele>2196</ele>
        <time>2026-07-29T06:29:02.716Z</time>
      </trkpt>
      <trkpt lat="45.75963" lon="6.73384">
        <ele>2196</ele>
        <time>2026-07-29T06:29:03.716Z</time>
      </trkpt>
      <trkpt lat="45.75963" lon="6.73385">
        <ele>2195</ele>
        <time>2026-07-29T06:29:04.716Z</time>
      </trkpt>
      <trkpt lat="45.75964" lon="6.73386">
        <ele>2195</ele>
        <time>2026-07-29T06:29:05.716Z</time>
      </trkpt>
      <trkpt lat="45.75965" lon="6.73387">
        <ele>2195</ele>
        <time>2026-07-29T06:29:06.716Z</time>
      </trkpt>
      <trkpt lat="45.75966" lon="6.73388">
        <ele>2195</ele>
        <time>2026-07-29T06:29:07.716Z</time>
      </trkpt>
      <trkpt lat="45.75966" lon="6.73389">
        <ele>2195</ele>
        <time>2026-07-29T06:29:08.716Z</time>
      </trkpt>
      <trkpt lat="45.75967" lon="6.7339">
        <ele>2196</ele>
        <time>2026-07-29T06:29:09.716Z</time>
      </trkpt>
      <trkpt lat="45.75968" lon="6.73391">
        <ele>2196</ele>
        <time>2026-07-29T06:29:10.716Z</time>
      </trkpt>
      <trkpt lat="45.75969" lon="6.73392">
        <ele>2196</ele>
        <time>2026-07-29T06:29:11.716Z</time>
      </trkpt>
      <trkpt lat="45.7597" lon="6.73393">
        <ele>2197</ele>
        <time>2026-07-29T06:29:12.716Z</time>
      </trkpt>
      <trkpt lat="45.75971" lon="6.73395">
        <ele>2197</ele>
        <time>2026-07-29T06:29:13.716Z</time>
      </trkpt>
      <trkpt lat="45.75972" lon="6.73396">
        <ele>2197</ele>
        <time>2026-07-29T06:29:14.716Z</time>
      </trkpt>
      <trkpt lat="45.75972" lon="6.73397">
        <ele>2197</ele>
        <time>2026-07-29T06:29:15.716Z</time>
      </trkpt>
      <trkpt lat="45.75973" lon="6.73399">
        <ele>2197</ele>
        <time>2026-07-29T06:29:16.716Z</time>
      </trkpt>
      <trkpt lat="45.75973" lon="6.734">
        <ele>2198</ele>
        <time>2026-07-29T06:29:17.716Z</time>
      </trkpt>
      <trkpt lat="45.75973" lon="6.73402">
        <ele>2198</ele>
        <time>2026-07-29T06:29:18.716Z</time>
      </trkpt>
      <trkpt lat="45.75973" lon="6.73403">
        <ele>2198</ele>
        <time>2026-07-29T06:29:19.716Z</time>
      </trkpt>
      <trkpt lat="45.75973" lon="6.73404">
        <ele>2199</ele>
        <time>2026-07-29T06:29:20.716Z</time>
      </trkpt>
      <trkpt lat="45.75974" lon="6.73405">
        <ele>2199</ele>
        <time>2026-07-29T06:29:21.716Z</time>
      </trkpt>
      <trkpt lat="45.75975" lon="6.73405">
        <ele>2199</ele>
        <time>2026-07-29T06:29:22.716Z</time>
      </trkpt>
      <trkpt lat="45.75975" lon="6.73405">
        <ele>2199</ele>
        <time>2026-07-29T06:29:23.716Z</time>
      </trkpt>
      <trkpt lat="45.75975" lon="6.73405">
        <ele>2198</ele>
        <time>2026-07-29T06:29:24.716Z</time>
      </trkpt>
      <trkpt lat="45.75976" lon="6.73404">
        <ele>2199</ele>
        <time>2026-07-29T06:29:25.716Z</time>
      </trkpt>
      <trkpt lat="45.75976" lon="6.73405">
        <ele>2199</ele>
        <time>2026-07-29T06:29:26.716Z</time>
      </trkpt>
      <trkpt lat="45.75977" lon="6.73405">
        <ele>2199</ele>
        <time>2026-07-29T06:29:27.716Z</time>
      </trkpt>
      <trkpt lat="45.75977" lon="6.73406">
        <ele>2199</ele>
        <time>2026-07-29T06:29:28.716Z</time>
      </trkpt>
      <trkpt lat="45.75977" lon="6.73407">
        <ele>2199</ele>
        <time>2026-07-29T06:29:29.716Z</time>
      </trkpt>
      <trkpt lat="45.75977" lon="6.73408">
        <ele>2199</ele>
        <time>2026-07-29T06:29:30.716Z</time>
      </trkpt>
      <trkpt lat="45.75977" lon="6.73409">
        <ele>2199</ele>
        <time>2026-07-29T06:29:31.716Z</time>
      </trkpt>
      <trkpt lat="45.75978" lon="6.7341">
        <ele>2200</ele>
        <time>2026-07-29T06:29:32.716Z</time>
      </trkpt>
      <trkpt lat="45.75979" lon="6.73411">
        <ele>2200</ele>
        <time>2026-07-29T06:29:33.716Z</time>
      </trkpt>
      <trkpt lat="45.75979" lon="6.73412">
        <ele>2200</ele>
        <time>2026-07-29T06:29:34.716Z</time>
      </trkpt>
      <trkpt lat="45.7598" lon="6.73413">
        <ele>2201</ele>
        <time>2026-07-29T06:29:35.716Z</time>
      </trkpt>
      <trkpt lat="45.7598" lon="6.73414">
        <ele>2201</ele>
        <time>2026-07-29T06:29:36.716Z</time>
      </trkpt>
      <trkpt lat="45.75981" lon="6.73415">
        <ele>2201</ele>
        <time>2026-07-29T06:29:37.716Z</time>
      </trkpt>
      <trkpt lat="45.75981" lon="6.73416">
        <ele>2201</ele>
        <time>2026-07-29T06:29:38.716Z</time>
      </trkpt>
      <trkpt lat="45.75982" lon="6.73416">
        <ele>2201</ele>
        <time>2026-07-29T06:29:39.716Z</time>
      </trkpt>
      <trkpt lat="45.75983" lon="6.73416">
        <ele>2202</ele>
        <time>2026-07-29T06:29:40.716Z</time>
      </trkpt>
      <trkpt lat="45.75984" lon="6.73415">
        <ele>2202</ele>
        <time>2026-07-29T06:29:41.716Z</time>
      </trkpt>
      <trkpt lat="45.75985" lon="6.73415">
        <ele>2202</ele>
        <time>2026-07-29T06:29:42.716Z</time>
      </trkpt>
      <trkpt lat="45.75987" lon="6.73415">
        <ele>2202</ele>
        <time>2026-07-29T06:29:43.716Z</time>
      </trkpt>
      <trkpt lat="45.75988" lon="6.73416">
        <ele>2202</ele>
        <time>2026-07-29T06:29:44.716Z</time>
      </trkpt>
      <trkpt lat="45.75989" lon="6.73416">
        <ele>2203</ele>
        <time>2026-07-29T06:29:45.716Z</time>
      </trkpt>
      <trkpt lat="45.75989" lon="6.73417">
        <ele>2203</ele>
        <time>2026-07-29T06:29:46.716Z</time>
      </trkpt>
      <trkpt lat="45.7599" lon="6.73419">
        <ele>2203</ele>
        <time>2026-07-29T06:29:47.716Z</time>
      </trkpt>
      <trkpt lat="45.75991" lon="6.7342">
        <ele>2203</ele>
        <time>2026-07-29T06:29:48.716Z</time>
      </trkpt>
      <trkpt lat="45.75992" lon="6.7342">
        <ele>2204</ele>
        <time>2026-07-29T06:29:49.716Z</time>
      </trkpt>
      <trkpt lat="45.75992" lon="6.73421">
        <ele>2204</ele>
        <time>2026-07-29T06:29:50.716Z</time>
      </trkpt>
      <trkpt lat="45.75993" lon="6.73422">
        <ele>2204</ele>
        <time>2026-07-29T06:29:51.716Z</time>
      </trkpt>
      <trkpt lat="45.75994" lon="6.73423">
        <ele>2204</ele>
        <time>2026-07-29T06:29:52.716Z</time>
      </trkpt>
      <trkpt lat="45.75995" lon="6.73423">
        <ele>2205</ele>
        <time>2026-07-29T06:29:53.716Z</time>
      </trkpt>
      <trkpt lat="45.75995" lon="6.73423">
        <ele>2205</ele>
        <time>2026-07-29T06:29:54.716Z</time>
      </trkpt>
      <trkpt lat="45.75996" lon="6.73423">
        <ele>2206</ele>
        <time>2026-07-29T06:29:55.716Z</time>
      </trkpt>
      <trkpt lat="45.75997" lon="6.73423">
        <ele>2206</ele>
        <time>2026-07-29T06:29:56.716Z</time>
      </trkpt>
      <trkpt lat="45.75998" lon="6.73423">
        <ele>2206</ele>
        <time>2026-07-29T06:29:57.716Z</time>
      </trkpt>
      <trkpt lat="45.75999" lon="6.73422">
        <ele>2207</ele>
        <time>2026-07-29T06:29:58.716Z</time>
      </trkpt>
      <trkpt lat="45.76" lon="6.73422">
        <ele>2207</ele>
        <time>2026-07-29T06:29:59.716Z</time>
      </trkpt>
      <trkpt lat="45.76" lon="6.73421">
        <ele>2207</ele>
        <time>2026-07-29T06:30:00.716Z</time>
      </trkpt>
      <trkpt lat="45.76001" lon="6.73421">
        <ele>2207</ele>
        <time>2026-07-29T06:30:01.716Z</time>
      </trkpt>
      <trkpt lat="45.76002" lon="6.73421">
        <ele>2207</ele>
        <time>2026-07-29T06:30:02.716Z</time>
      </trkpt>
      <trkpt lat="45.76002" lon="6.73421">
        <ele>2207</ele>
        <time>2026-07-29T06:30:03.716Z</time>
      </trkpt>
      <trkpt lat="45.76003" lon="6.73421">
        <ele>2207</ele>
        <time>2026-07-29T06:30:04.716Z</time>
      </trkpt>
      <trkpt lat="45.76003" lon="6.73421">
        <ele>2207</ele>
        <time>2026-07-29T06:30:05.716Z</time>
      </trkpt>
      <trkpt lat="45.76003" lon="6.73422">
        <ele>2207</ele>
        <time>2026-07-29T06:30:06.716Z</time>
      </trkpt>
      <trkpt lat="45.76003" lon="6.73422">
        <ele>2207</ele>
        <time>2026-07-29T06:30:07.716Z</time>
      </trkpt>
      <trkpt lat="45.76003" lon="6.73422">
        <ele>2207</ele>
        <time>2026-07-29T06:30:08.716Z</time>
      </trkpt>
      <trkpt lat="45.76003" lon="6.73422">
        <ele>2207</ele>
        <time>2026-07-29T06:30:09.716Z</time>
      </trkpt>
      <trkpt lat="45.76003" lon="6.73422">
        <ele>2207</ele>
        <time>2026-07-29T06:30:10.716Z</time>
      </trkpt>
      <trkpt lat="45.76003" lon="6.73422">
        <ele>2207</ele>
        <time>2026-07-29T06:30:11.716Z</time>
      </trkpt>
      <trkpt lat="45.76003" lon="6.73422">
        <ele>2207</ele>
        <time>2026-07-29T06:30:12.716Z</time>
      </trkpt>
      <trkpt lat="45.76003" lon="6.73422">
        <ele>2207</ele>
        <time>2026-07-29T06:30:13.716Z</time>
      </trkpt>
      <trkpt lat="45.76003" lon="6.73422">
        <ele>2207</ele>
        <time>2026-07-29T06:30:14.716Z</time>
      </trkpt>
      <trkpt lat="45.76004" lon="6.73422">
        <ele>2208</ele>
        <time>2026-07-29T06:30:15.716Z</time>
      </trkpt>
      <trkpt lat="45.76004" lon="6.73422">
        <ele>2208</ele>
        <time>2026-07-29T06:30:16.716Z</time>
      </trkpt>
      <trkpt lat="45.76005" lon="6.73422">
        <ele>2208</ele>
        <time>2026-07-29T06:30:17.716Z</time>
      </trkpt>
      <trkpt lat="45.76005" lon="6.73422">
        <ele>2209</ele>
        <time>2026-07-29T06:30:18.716Z</time>
      </trkpt>
      <trkpt lat="45.76005" lon="6.73422">
        <ele>2209</ele>
        <time>2026-07-29T06:30:19.716Z</time>
      </trkpt>
      <trkpt lat="45.76005" lon="6.73422">
        <ele>2209</ele>
        <time>2026-07-29T06:30:20.716Z</time>
      </trkpt>
      <trkpt lat="45.76005" lon="6.73422">
        <ele>2209</ele>
        <time>2026-07-29T06:30:21.716Z</time>
      </trkpt>
      <trkpt lat="45.76005" lon="6.73422">
        <ele>2209</ele>
        <time>2026-07-29T06:30:22.716Z</time>
      </trkpt>
      <trkpt lat="45.76005" lon="6.73422">
        <ele>2208</ele>
        <time>2026-07-29T06:30:23.716Z</time>
      </trkpt>
      <trkpt lat="45.76005" lon="6.73422">
        <ele>2208</ele>
        <time>2026-07-29T06:30:24.716Z</time>
      </trkpt>
      <trkpt lat="45.76005" lon="6.73422">
        <ele>2207</ele>
        <time>2026-07-29T06:30:25.716Z</time>
      </trkpt>
      <trkpt lat="45.76005" lon="6.73422">
        <ele>2207</ele>
        <time>2026-07-29T06:30:26.716Z</time>
      </trkpt>
      <trkpt lat="45.76005" lon="6.73422">
        <ele>2207</ele>
        <time>2026-07-29T06:30:27.716Z</time>
      </trkpt>
      <trkpt lat="45.76005" lon="6.73422">
        <ele>2207</ele>
        <time>2026-07-29T06:30:28.716Z</time>
      </trkpt>
      <trkpt lat="45.76005" lon="6.73422">
        <ele>2206</ele>
        <time>2026-07-29T06:30:29.716Z</time>
      </trkpt>
      <trkpt lat="45.76005" lon="6.73422">
        <ele>2206</ele>
        <time>2026-07-29T06:30:30.716Z</time>
      </trkpt>
      <trkpt lat="45.76005" lon="6.73422">
        <ele>2206</ele>
        <time>2026-07-29T06:30:31.716Z</time>
      </trkpt>
      <trkpt lat="45.76005" lon="6.73422">
        <ele>2206</ele>
        <time>2026-07-29T06:30:32.716Z</time>
      </trkpt>
      <trkpt lat="45.76005" lon="6.73422">
        <ele>2206</ele>
        <time>2026-07-29T06:30:33.716Z</time>
      </trkpt>
      <trkpt lat="45.76005" lon="6.73422">
        <ele>2206</ele>
        <time>2026-07-29T06:30:34.716Z</time>
      </trkpt>
      <trkpt lat="45.76005" lon="6.73422">
        <ele>2206</ele>
        <time>2026-07-29T06:30:35.716Z</time>
      </trkpt>
      <trkpt lat="45.76005" lon="6.73422">
        <ele>2205</ele>
        <time>2026-07-29T06:30:36.716Z</time>
      </trkpt>
      <trkpt lat="45.76005" lon="6.73422">
        <ele>2205</ele>
        <time>2026-07-29T06:30:37.716Z</time>
      </trkpt>
      <trkpt lat="45.76005" lon="6.73422">
        <ele>2205</ele>
        <time>2026-07-29T06:30:38.716Z</time>
      </trkpt>
      <trkpt lat="45.76005" lon="6.73422">
        <ele>2205</ele>
        <time>2026-07-29T06:30:39.716Z</time>
      </trkpt>
      <trkpt lat="45.76005" lon="6.73422">
        <ele>2205</ele>
        <time>2026-07-29T06:30:40.716Z</time>
      </trkpt>
      <trkpt lat="45.76005" lon="6.73422">
        <ele>2205</ele>
        <time>2026-07-29T06:30:41.716Z</time>
      </trkpt>
      <trkpt lat="45.76005" lon="6.73422">
        <ele>2205</ele>
        <time>2026-07-29T06:30:42.716Z</time>
      </trkpt>
      <trkpt lat="45.76005" lon="6.73422">
        <ele>2205</ele>
        <time>2026-07-29T06:30:43.716Z</time>
      </trkpt>
      <trkpt lat="45.76005" lon="6.73422">
        <ele>2205</ele>
        <time>2026-07-29T06:30:44.716Z</time>
      </trkpt>
      <trkpt lat="45.76005" lon="6.73421">
        <ele>2205</ele>
        <time>2026-07-29T06:30:45.716Z</time>
      </trkpt>
      <trkpt lat="45.76005" lon="6.73421">
        <ele>2205</ele>
        <time>2026-07-29T06:30:46.716Z</time>
      </trkpt>
      <trkpt lat="45.76004" lon="6.7342">
        <ele>2205</ele>
        <time>2026-07-29T06:30:47.716Z</time>
      </trkpt>
      <trkpt lat="45.76004" lon="6.7342">
        <ele>2205</ele>
        <time>2026-07-29T06:30:48.716Z</time>
      </trkpt>
      <trkpt lat="45.76004" lon="6.7342">
        <ele>2205</ele>
        <time>2026-07-29T06:30:49.716Z</time>
      </trkpt>
      <trkpt lat="45.76004" lon="6.7342">
        <ele>2205</ele>
        <time>2026-07-29T06:30:50.716Z</time>
      </trkpt>
      <trkpt lat="45.76004" lon="6.7342">
        <ele>2205</ele>
        <time>2026-07-29T06:30:51.716Z</time>
      </trkpt>
      <trkpt lat="45.76004" lon="6.73419">
        <ele>2205</ele>
        <time>2026-07-29T06:30:52.716Z</time>
      </trkpt>
      <trkpt lat="45.76004" lon="6.73419">
        <ele>2205</ele>
        <time>2026-07-29T06:30:53.716Z</time>
      </trkpt>
      <trkpt lat="45.76004" lon="6.73419">
        <ele>2205</ele>
        <time>2026-07-29T06:30:54.716Z</time>
      </trkpt>
      <trkpt lat="45.76004" lon="6.73419">
        <ele>2205</ele>
        <time>2026-07-29T06:30:55.716Z</time>
      </trkpt>
      <trkpt lat="45.76004" lon="6.73419">
        <ele>2205</ele>
        <time>2026-07-29T06:30:56.716Z</time>
      </trkpt>
      <trkpt lat="45.76004" lon="6.73419">
        <ele>2205</ele>
        <time>2026-07-29T06:30:57.716Z</time>
      </trkpt>
      <trkpt lat="45.76004" lon="6.73419">
        <ele>2205</ele>
        <time>2026-07-29T06:30:58.716Z</time>
      </trkpt>
      <trkpt lat="45.76004" lon="6.73419">
        <ele>2205</ele>
        <time>2026-07-29T06:30:59.716Z</time>
      </trkpt>
      <trkpt lat="45.76004" lon="6.73419">
        <ele>2205</ele>
        <time>2026-07-29T06:31:00.716Z</time>
      </trkpt>
      <trkpt lat="45.76004" lon="6.73419">
        <ele>2205</ele>
        <time>2026-07-29T06:31:01.716Z</time>
      </trkpt>
      <trkpt lat="45.76004" lon="6.73419">
        <ele>2205</ele>
        <time>2026-07-29T06:31:02.716Z</time>
      </trkpt>
      <trkpt lat="45.76004" lon="6.73419">
        <ele>2205</ele>
        <time>2026-07-29T06:31:03.716Z</time>
      </trkpt>
      <trkpt lat="45.76004" lon="6.73419">
        <ele>2205</ele>
        <time>2026-07-29T06:31:04.716Z</time>
      </trkpt>
      <trkpt lat="45.76004" lon="6.73419">
        <ele>2205</ele>
        <time>2026-07-29T06:31:05.716Z</time>
      </trkpt>
      <trkpt lat="45.76004" lon="6.73419">
        <ele>2205</ele>
        <time>2026-07-29T06:31:06.716Z</time>
      </trkpt>
      <trkpt lat="45.76004" lon="6.73419">
        <ele>2205</ele>
        <time>2026-07-29T06:31:07.716Z</time>
      </trkpt>
      <trkpt lat="45.76004" lon="6.73419">
        <ele>2205</ele>
        <time>2026-07-29T06:31:08.716Z</time>
      </trkpt>
      <trkpt lat="45.76003" lon="6.73419">
        <ele>2205</ele>
        <time>2026-07-29T06:31:09.716Z</time>
      </trkpt>
      <trkpt lat="45.76003" lon="6.73419">
        <ele>2205</ele>
        <time>2026-07-29T06:31:10.716Z</time>
      </trkpt>
      <trkpt lat="45.76003" lon="6.73419">
        <ele>2205</ele>
        <time>2026-07-29T06:31:11.716Z</time>
      </trkpt>
      <trkpt lat="45.76003" lon="6.73419">
        <ele>2205</ele>
        <time>2026-07-29T06:31:12.716Z</time>
      </trkpt>
      <trkpt lat="45.76003" lon="6.73419">
        <ele>2205</ele>
        <time>2026-07-29T06:31:13.716Z</time>
      </trkpt>
      <trkpt lat="45.76003" lon="6.73419">
        <ele>2205</ele>
        <time>2026-07-29T06:31:14.716Z</time>
      </trkpt>
      <trkpt lat="45.76003" lon="6.73419">
        <ele>2205</ele>
        <time>2026-07-29T06:31:15.716Z</time>
      </trkpt>
      <trkpt lat="45.76003" lon="6.73419">
        <ele>2205</ele>
        <time>2026-07-29T06:31:16.716Z</time>
      </trkpt>
      <trkpt lat="45.76003" lon="6.73419">
        <ele>2205</ele>
        <time>2026-07-29T06:31:17.716Z</time>
      </trkpt>
      <trkpt lat="45.76003" lon="6.73419">
        <ele>2205</ele>
        <time>2026-07-29T06:31:18.716Z</time>
      </trkpt>
      <trkpt lat="45.76003" lon="6.73419">
        <ele>2205</ele>
        <time>2026-07-29T06:31:19.716Z</time>
      </trkpt>
      <trkpt lat="45.76003" lon="6.73419">
        <ele>2205</ele>
        <time>2026-07-29T06:31:20.716Z</time>
      </trkpt>
      <trkpt lat="45.76003" lon="6.73419">
        <ele>2205</ele>
        <time>2026-07-29T06:31:21.716Z</time>
      </trkpt>
      <trkpt lat="45.76003" lon="6.73419">
        <ele>2205</ele>
        <time>2026-07-29T06:31:22.716Z</time>
      </trkpt>
      <trkpt lat="45.76003" lon="6.73419">
        <ele>2206</ele>
        <time>2026-07-29T06:31:23.716Z</time>
      </trkpt>
      <trkpt lat="45.76003" lon="6.73419">
        <ele>2206</ele>
        <time>2026-07-29T06:31:24.716Z</time>
      </trkpt>
      <trkpt lat="45.76003" lon="6.73418">
        <ele>2206</ele>
        <time>2026-07-29T06:31:25.716Z</time>
      </trkpt>
      <trkpt lat="45.76003" lon="6.73417">
        <ele>2206</ele>
        <time>2026-07-29T06:31:26.716Z</time>
      </trkpt>
      <trkpt lat="45.76003" lon="6.73415">
        <ele>2206</ele>
        <time>2026-07-29T06:31:27.716Z</time>
      </trkpt>
      <trkpt lat="45.76002" lon="6.73414">
        <ele>2205</ele>
        <time>2026-07-29T06:31:28.716Z</time>
      </trkpt>
      <trkpt lat="45.76002" lon="6.73412">
        <ele>2205</ele>
        <time>2026-07-29T06:31:29.716Z</time>
      </trkpt>
      <trkpt lat="45.76002" lon="6.7341">
        <ele>2205</ele>
        <time>2026-07-29T06:31:30.716Z</time>
      </trkpt>
      <trkpt lat="45.76001" lon="6.73408">
        <ele>2205</ele>
        <time>2026-07-29T06:31:31.716Z</time>
      </trkpt>
      <trkpt lat="45.76002" lon="6.73405">
        <ele>2206</ele>
        <time>2026-07-29T06:31:32.716Z</time>
      </trkpt>
      <trkpt lat="45.76002" lon="6.73403">
        <ele>2206</ele>
        <time>2026-07-29T06:31:33.716Z</time>
      </trkpt>
      <trkpt lat="45.76002" lon="6.734">
        <ele>2206</ele>
        <time>2026-07-29T06:31:34.716Z</time>
      </trkpt>
      <trkpt lat="45.76003" lon="6.73398">
        <ele>2206</ele>
        <time>2026-07-29T06:31:35.716Z</time>
      </trkpt>
      <trkpt lat="45.76004" lon="6.73396">
        <ele>2207</ele>
        <time>2026-07-29T06:31:36.716Z</time>
      </trkpt>
      <trkpt lat="45.76005" lon="6.73394">
        <ele>2207</ele>
        <time>2026-07-29T06:31:37.716Z</time>
      </trkpt>
      <trkpt lat="45.76006" lon="6.73393">
        <ele>2208</ele>
        <time>2026-07-29T06:31:38.716Z</time>
      </trkpt>
      <trkpt lat="45.76007" lon="6.73392">
        <ele>2208</ele>
        <time>2026-07-29T06:31:39.716Z</time>
      </trkpt>
      <trkpt lat="45.76007" lon="6.73391">
        <ele>2208</ele>
        <time>2026-07-29T06:31:40.716Z</time>
      </trkpt>
      <trkpt lat="45.76007" lon="6.7339">
        <ele>2208</ele>
        <time>2026-07-29T06:31:41.716Z</time>
      </trkpt>
      <trkpt lat="45.76007" lon="6.73389">
        <ele>2208</ele>
        <time>2026-07-29T06:31:42.716Z</time>
      </trkpt>
      <trkpt lat="45.76007" lon="6.73388">
        <ele>2208</ele>
        <time>2026-07-29T06:31:43.716Z</time>
      </trkpt>
      <trkpt lat="45.76006" lon="6.73387">
        <ele>2208</ele>
        <time>2026-07-29T06:31:44.716Z</time>
      </trkpt>
      <trkpt lat="45.76006" lon="6.73386">
        <ele>2208</ele>
        <time>2026-07-29T06:31:45.716Z</time>
      </trkpt>
      <trkpt lat="45.76006" lon="6.73384">
        <ele>2207</ele>
        <time>2026-07-29T06:31:46.716Z</time>
      </trkpt>
      <trkpt lat="45.76007" lon="6.73383">
        <ele>2207</ele>
        <time>2026-07-29T06:31:47.716Z</time>
      </trkpt>
      <trkpt lat="45.76008" lon="6.73381">
        <ele>2207</ele>
        <time>2026-07-29T06:31:48.716Z</time>
      </trkpt>
      <trkpt lat="45.76009" lon="6.7338">
        <ele>2206</ele>
        <time>2026-07-29T06:31:49.716Z</time>
      </trkpt>
      <trkpt lat="45.76009" lon="6.73378">
        <ele>2206</ele>
        <time>2026-07-29T06:31:50.716Z</time>
      </trkpt>
      <trkpt lat="45.76009" lon="6.73377">
        <ele>2206</ele>
        <time>2026-07-29T06:31:51.716Z</time>
      </trkpt>
      <trkpt lat="45.76009" lon="6.73376">
        <ele>2206</ele>
        <time>2026-07-29T06:31:52.716Z</time>
      </trkpt>
      <trkpt lat="45.7601" lon="6.73376">
        <ele>2206</ele>
        <time>2026-07-29T06:31:53.716Z</time>
      </trkpt>
      <trkpt lat="45.7601" lon="6.73375">
        <ele>2206</ele>
        <time>2026-07-29T06:31:54.716Z</time>
      </trkpt>
      <trkpt lat="45.7601" lon="6.73374">
        <ele>2206</ele>
        <time>2026-07-29T06:31:55.716Z</time>
      </trkpt>
      <trkpt lat="45.7601" lon="6.73372">
        <ele>2206</ele>
        <time>2026-07-29T06:31:56.716Z</time>
      </trkpt>
      <trkpt lat="45.7601" lon="6.73371">
        <ele>2206</ele>
        <time>2026-07-29T06:31:57.716Z</time>
      </trkpt>
      <trkpt lat="45.76011" lon="6.73369">
        <ele>2205</ele>
        <time>2026-07-29T06:31:58.716Z</time>
      </trkpt>
      <trkpt lat="45.76011" lon="6.73368">
        <ele>2205</ele>
        <time>2026-07-29T06:31:59.716Z</time>
      </trkpt>
      <trkpt lat="45.76011" lon="6.73366">
        <ele>2204</ele>
        <time>2026-07-29T06:32:00.716Z</time>
      </trkpt>
      <trkpt lat="45.76011" lon="6.73366">
        <ele>2204</ele>
        <time>2026-07-29T06:32:01.716Z</time>
      </trkpt>
      <trkpt lat="45.76011" lon="6.73365">
        <ele>2204</ele>
        <time>2026-07-29T06:32:02.716Z</time>
      </trkpt>
      <trkpt lat="45.76011" lon="6.73365">
        <ele>2204</ele>
        <time>2026-07-29T06:32:03.716Z</time>
      </trkpt>
      <trkpt lat="45.76011" lon="6.73365">
        <ele>2204</ele>
        <time>2026-07-29T06:32:04.716Z</time>
      </trkpt>
      <trkpt lat="45.76012" lon="6.73366">
        <ele>2204</ele>
        <time>2026-07-29T06:32:05.716Z</time>
      </trkpt>
      <trkpt lat="45.76013" lon="6.73367">
        <ele>2204</ele>
        <time>2026-07-29T06:32:06.716Z</time>
      </trkpt>
      <trkpt lat="45.76014" lon="6.73367">
        <ele>2204</ele>
        <time>2026-07-29T06:32:07.716Z</time>
      </trkpt>
      <trkpt lat="45.76015" lon="6.73367">
        <ele>2203</ele>
        <time>2026-07-29T06:32:08.716Z</time>
      </trkpt>
      <trkpt lat="45.76016" lon="6.73367">
        <ele>2203</ele>
        <time>2026-07-29T06:32:09.716Z</time>
      </trkpt>
      <trkpt lat="45.76017" lon="6.73367">
        <ele>2203</ele>
        <time>2026-07-29T06:32:10.716Z</time>
      </trkpt>
      <trkpt lat="45.76018" lon="6.73367">
        <ele>2203</ele>
        <time>2026-07-29T06:32:11.716Z</time>
      </trkpt>
      <trkpt lat="45.76018" lon="6.73367">
        <ele>2203</ele>
        <time>2026-07-29T06:32:12.716Z</time>
      </trkpt>
      <trkpt lat="45.76019" lon="6.73367">
        <ele>2203</ele>
        <time>2026-07-29T06:32:13.716Z</time>
      </trkpt>
      <trkpt lat="45.7602" lon="6.73367">
        <ele>2203</ele>
        <time>2026-07-29T06:32:14.716Z</time>
      </trkpt>
      <trkpt lat="45.76021" lon="6.73367">
        <ele>2203</ele>
        <time>2026-07-29T06:32:15.716Z</time>
      </trkpt>
      <trkpt lat="45.76022" lon="6.73367">
        <ele>2202</ele>
        <time>2026-07-29T06:32:16.716Z</time>
      </trkpt>
      <trkpt lat="45.76022" lon="6.73366">
        <ele>2203</ele>
        <time>2026-07-29T06:32:17.716Z</time>
      </trkpt>
      <trkpt lat="45.76023" lon="6.73366">
        <ele>2203</ele>
        <time>2026-07-29T06:32:18.716Z</time>
      </trkpt>
      <trkpt lat="45.76024" lon="6.73367">
        <ele>2202</ele>
        <time>2026-07-29T06:32:19.716Z</time>
      </trkpt>
      <trkpt lat="45.76025" lon="6.73366">
        <ele>2202</ele>
        <time>2026-07-29T06:32:20.716Z</time>
      </trkpt>
      <trkpt lat="45.76026" lon="6.73366">
        <ele>2202</ele>
        <time>2026-07-29T06:32:21.716Z</time>
      </trkpt>
      <trkpt lat="45.76026" lon="6.73365">
        <ele>2202</ele>
        <time>2026-07-29T06:32:22.716Z</time>
      </trkpt>
      <trkpt lat="45.76027" lon="6.73364">
        <ele>2202</ele>
        <time>2026-07-29T06:32:23.716Z</time>
      </trkpt>
      <trkpt lat="45.76028" lon="6.73364">
        <ele>2202</ele>
        <time>2026-07-29T06:32:24.716Z</time>
      </trkpt>
      <trkpt lat="45.76028" lon="6.73364">
        <ele>2201</ele>
        <time>2026-07-29T06:32:25.716Z</time>
      </trkpt>
      <trkpt lat="45.76029" lon="6.73364">
        <ele>2201</ele>
        <time>2026-07-29T06:32:26.716Z</time>
      </trkpt>
      <trkpt lat="45.76029" lon="6.73364">
        <ele>2201</ele>
        <time>2026-07-29T06:32:27.716Z</time>
      </trkpt>
      <trkpt lat="45.7603" lon="6.73363">
        <ele>2201</ele>
        <time>2026-07-29T06:32:28.716Z</time>
      </trkpt>
      <trkpt lat="45.7603" lon="6.73363">
        <ele>2201</ele>
        <time>2026-07-29T06:32:29.716Z</time>
      </trkpt>
      <trkpt lat="45.76031" lon="6.73361">
        <ele>2201</ele>
        <time>2026-07-29T06:32:30.716Z</time>
      </trkpt>
      <trkpt lat="45.76031" lon="6.7336">
        <ele>2201</ele>
        <time>2026-07-29T06:32:31.716Z</time>
      </trkpt>
      <trkpt lat="45.76032" lon="6.73359">
        <ele>2201</ele>
        <time>2026-07-29T06:32:32.716Z</time>
      </trkpt>
      <trkpt lat="45.76033" lon="6.73358">
        <ele>2201</ele>
        <time>2026-07-29T06:32:33.716Z</time>
      </trkpt>
      <trkpt lat="45.76034" lon="6.73358">
        <ele>2200</ele>
        <time>2026-07-29T06:32:34.716Z</time>
      </trkpt>
      <trkpt lat="45.76035" lon="6.73359">
        <ele>2200</ele>
        <time>2026-07-29T06:32:35.716Z</time>
      </trkpt>
      <trkpt lat="45.76035" lon="6.73359">
        <ele>2200</ele>
        <time>2026-07-29T06:32:36.716Z</time>
      </trkpt>
      <trkpt lat="45.76036" lon="6.7336">
        <ele>2199</ele>
        <time>2026-07-29T06:32:37.716Z</time>
      </trkpt>
      <trkpt lat="45.76037" lon="6.7336">
        <ele>2199</ele>
        <time>2026-07-29T06:32:38.716Z</time>
      </trkpt>
      <trkpt lat="45.76039" lon="6.73361">
        <ele>2199</ele>
        <time>2026-07-29T06:32:39.716Z</time>
      </trkpt>
      <trkpt lat="45.7604" lon="6.73361">
        <ele>2198</ele>
        <time>2026-07-29T06:32:40.716Z</time>
      </trkpt>
      <trkpt lat="45.76041" lon="6.73362">
        <ele>2198</ele>
        <time>2026-07-29T06:32:41.716Z</time>
      </trkpt>
      <trkpt lat="45.76043" lon="6.73361">
        <ele>2198</ele>
        <time>2026-07-29T06:32:42.716Z</time>
      </trkpt>
      <trkpt lat="45.76044" lon="6.73361">
        <ele>2198</ele>
        <time>2026-07-29T06:32:43.716Z</time>
      </trkpt>
      <trkpt lat="45.76045" lon="6.73361">
        <ele>2199</ele>
        <time>2026-07-29T06:32:44.716Z</time>
      </trkpt>
      <trkpt lat="45.76046" lon="6.73362">
        <ele>2199</ele>
        <time>2026-07-29T06:32:45.716Z</time>
      </trkpt>
      <trkpt lat="45.76046" lon="6.73362">
        <ele>2199</ele>
        <time>2026-07-29T06:32:46.716Z</time>
      </trkpt>
      <trkpt lat="45.76046" lon="6.73364">
        <ele>2199</ele>
        <time>2026-07-29T06:32:47.716Z</time>
      </trkpt>
      <trkpt lat="45.76046" lon="6.73364">
        <ele>2199</ele>
        <time>2026-07-29T06:32:48.716Z</time>
      </trkpt>
      <trkpt lat="45.76047" lon="6.73365">
        <ele>2199</ele>
        <time>2026-07-29T06:32:49.716Z</time>
      </trkpt>
      <trkpt lat="45.76047" lon="6.73366">
        <ele>2199</ele>
        <time>2026-07-29T06:32:50.716Z</time>
      </trkpt>
      <trkpt lat="45.76048" lon="6.73367">
        <ele>2199</ele>
        <time>2026-07-29T06:32:51.716Z</time>
      </trkpt>
      <trkpt lat="45.76049" lon="6.73368">
        <ele>2199</ele>
        <time>2026-07-29T06:32:52.716Z</time>
      </trkpt>
      <trkpt lat="45.7605" lon="6.73369">
        <ele>2199</ele>
        <time>2026-07-29T06:32:53.716Z</time>
      </trkpt>
      <trkpt lat="45.7605" lon="6.7337">
        <ele>2199</ele>
        <time>2026-07-29T06:32:54.716Z</time>
      </trkpt>
      <trkpt lat="45.76051" lon="6.73371">
        <ele>2199</ele>
        <time>2026-07-29T06:32:55.716Z</time>
      </trkpt>
      <trkpt lat="45.76052" lon="6.73372">
        <ele>2199</ele>
        <time>2026-07-29T06:32:56.716Z</time>
      </trkpt>
      <trkpt lat="45.76053" lon="6.73373">
        <ele>2199</ele>
        <time>2026-07-29T06:32:57.716Z</time>
      </trkpt>
      <trkpt lat="45.76054" lon="6.73373">
        <ele>2199</ele>
        <time>2026-07-29T06:32:58.716Z</time>
      </trkpt>
      <trkpt lat="45.76055" lon="6.73373">
        <ele>2198</ele>
        <time>2026-07-29T06:32:59.716Z</time>
      </trkpt>
      <trkpt lat="45.76055" lon="6.73374">
        <ele>2198</ele>
        <time>2026-07-29T06:33:00.716Z</time>
      </trkpt>
      <trkpt lat="45.76056" lon="6.73375">
        <ele>2198</ele>
        <time>2026-07-29T06:33:01.716Z</time>
      </trkpt>
      <trkpt lat="45.76057" lon="6.73375">
        <ele>2199</ele>
        <time>2026-07-29T06:33:02.716Z</time>
      </trkpt>
      <trkpt lat="45.76058" lon="6.73376">
        <ele>2199</ele>
        <time>2026-07-29T06:33:03.716Z</time>
      </trkpt>
      <trkpt lat="45.76058" lon="6.73376">
        <ele>2199</ele>
        <time>2026-07-29T06:33:04.716Z</time>
      </trkpt>
      <trkpt lat="45.76059" lon="6.73377">
        <ele>2200</ele>
        <time>2026-07-29T06:33:05.716Z</time>
      </trkpt>
      <trkpt lat="45.76059" lon="6.73377">
        <ele>2200</ele>
        <time>2026-07-29T06:33:06.716Z</time>
      </trkpt>
      <trkpt lat="45.7606" lon="6.73377">
        <ele>2200</ele>
        <time>2026-07-29T06:33:07.716Z</time>
      </trkpt>
      <trkpt lat="45.7606" lon="6.73377">
        <ele>2200</ele>
        <time>2026-07-29T06:33:08.716Z</time>
      </trkpt>
      <trkpt lat="45.7606" lon="6.73377">
        <ele>2200</ele>
        <time>2026-07-29T06:33:09.716Z</time>
      </trkpt>
      <trkpt lat="45.7606" lon="6.73377">
        <ele>2200</ele>
        <time>2026-07-29T06:33:10.716Z</time>
      </trkpt>
      <trkpt lat="45.7606" lon="6.73377">
        <ele>2201</ele>
        <time>2026-07-29T06:33:11.716Z</time>
      </trkpt>
      <trkpt lat="45.7606" lon="6.73377">
        <ele>2200</ele>
        <time>2026-07-29T06:33:12.716Z</time>
      </trkpt>
      <trkpt lat="45.7606" lon="6.73377">
        <ele>2200</ele>
        <time>2026-07-29T06:33:13.716Z</time>
      </trkpt>
      <trkpt lat="45.7606" lon="6.73377">
        <ele>2199</ele>
        <time>2026-07-29T06:33:14.716Z</time>
      </trkpt>
      <trkpt lat="45.7606" lon="6.73377">
        <ele>2199</ele>
        <time>2026-07-29T06:33:15.716Z</time>
      </trkpt>
      <trkpt lat="45.7606" lon="6.73377">
        <ele>2199</ele>
        <time>2026-07-29T06:33:16.716Z</time>
      </trkpt>
      <trkpt lat="45.7606" lon="6.73377">
        <ele>2199</ele>
        <time>2026-07-29T06:33:17.716Z</time>
      </trkpt>
      <trkpt lat="45.7606" lon="6.73377">
        <ele>2199</ele>
        <time>2026-07-29T06:33:18.716Z</time>
      </trkpt>
      <trkpt lat="45.7606" lon="6.73377">
        <ele>2199</ele>
        <time>2026-07-29T06:33:19.716Z</time>
      </trkpt>
      <trkpt lat="45.7606" lon="6.73377">
        <ele>2198</ele>
        <time>2026-07-29T06:33:20.716Z</time>
      </trkpt>
      <trkpt lat="45.7606" lon="6.73377">
        <ele>2198</ele>
        <time>2026-07-29T06:33:21.716Z</time>
      </trkpt>
      <trkpt lat="45.76061" lon="6.73378">
        <ele>2198</ele>
        <time>2026-07-29T06:33:22.716Z</time>
      </trkpt>
      <trkpt lat="45.76063" lon="6.73378">
        <ele>2198</ele>
        <time>2026-07-29T06:33:23.716Z</time>
      </trkpt>
      <trkpt lat="45.76064" lon="6.73378">
        <ele>2198</ele>
        <time>2026-07-29T06:33:24.716Z</time>
      </trkpt>
      <trkpt lat="45.76065" lon="6.73377">
        <ele>2198</ele>
        <time>2026-07-29T06:33:25.716Z</time>
      </trkpt>
      <trkpt lat="45.76066" lon="6.73377">
        <ele>2198</ele>
        <time>2026-07-29T06:33:26.716Z</time>
      </trkpt>
      <trkpt lat="45.76067" lon="6.73377">
        <ele>2197</ele>
        <time>2026-07-29T06:33:27.716Z</time>
      </trkpt>
      <trkpt lat="45.76069" lon="6.73376">
        <ele>2197</ele>
        <time>2026-07-29T06:33:28.716Z</time>
      </trkpt>
      <trkpt lat="45.7607" lon="6.73376">
        <ele>2198</ele>
        <time>2026-07-29T06:33:29.716Z</time>
      </trkpt>
      <trkpt lat="45.76071" lon="6.73377">
        <ele>2198</ele>
        <time>2026-07-29T06:33:30.716Z</time>
      </trkpt>
      <trkpt lat="45.76073" lon="6.73377">
        <ele>2198</ele>
        <time>2026-07-29T06:33:31.716Z</time>
      </trkpt>
      <trkpt lat="45.76074" lon="6.73377">
        <ele>2198</ele>
        <time>2026-07-29T06:33:32.716Z</time>
      </trkpt>
      <trkpt lat="45.76075" lon="6.73377">
        <ele>2198</ele>
        <time>2026-07-29T06:33:33.716Z</time>
      </trkpt>
      <trkpt lat="45.76075" lon="6.73377">
        <ele>2198</ele>
        <time>2026-07-29T06:33:34.716Z</time>
      </trkpt>
      <trkpt lat="45.76076" lon="6.73378">
        <ele>2198</ele>
        <time>2026-07-29T06:33:35.716Z</time>
      </trkpt>
      <trkpt lat="45.76076" lon="6.7338">
        <ele>2199</ele>
        <time>2026-07-29T06:33:36.716Z</time>
      </trkpt>
      <trkpt lat="45.76077" lon="6.7338">
        <ele>2199</ele>
        <time>2026-07-29T06:33:37.716Z</time>
      </trkpt>
      <trkpt lat="45.76078" lon="6.7338">
        <ele>2199</ele>
        <time>2026-07-29T06:33:38.716Z</time>
      </trkpt>
      <trkpt lat="45.76079" lon="6.73381">
        <ele>2199</ele>
        <time>2026-07-29T06:33:39.716Z</time>
      </trkpt>
      <trkpt lat="45.76081" lon="6.73381">
        <ele>2199</ele>
        <time>2026-07-29T06:33:40.716Z</time>
      </trkpt>
      <trkpt lat="45.76082" lon="6.73382">
        <ele>2199</ele>
        <time>2026-07-29T06:33:41.716Z</time>
      </trkpt>
      <trkpt lat="45.76084" lon="6.73382">
        <ele>2199</ele>
        <time>2026-07-29T06:33:42.716Z</time>
      </trkpt>
      <trkpt lat="45.76085" lon="6.73383">
        <ele>2199</ele>
        <time>2026-07-29T06:33:43.716Z</time>
      </trkpt>
      <trkpt lat="45.76086" lon="6.73383">
        <ele>2199</ele>
        <time>2026-07-29T06:33:44.716Z</time>
      </trkpt>
      <trkpt lat="45.76087" lon="6.73384">
        <ele>2198</ele>
        <time>2026-07-29T06:33:45.716Z</time>
      </trkpt>
      <trkpt lat="45.76088" lon="6.73385">
        <ele>2198</ele>
        <time>2026-07-29T06:33:46.716Z</time>
      </trkpt>
      <trkpt lat="45.76088" lon="6.73386">
        <ele>2198</ele>
        <time>2026-07-29T06:33:47.716Z</time>
      </trkpt>
      <trkpt lat="45.76089" lon="6.73386">
        <ele>2199</ele>
        <time>2026-07-29T06:33:48.716Z</time>
      </trkpt>
      <trkpt lat="45.7609" lon="6.73388">
        <ele>2198</ele>
        <time>2026-07-29T06:33:49.716Z</time>
      </trkpt>
      <trkpt lat="45.7609" lon="6.7339">
        <ele>2198</ele>
        <time>2026-07-29T06:33:50.716Z</time>
      </trkpt>
      <trkpt lat="45.76091" lon="6.7339">
        <ele>2197</ele>
        <time>2026-07-29T06:33:51.716Z</time>
      </trkpt>
      <trkpt lat="45.76092" lon="6.73391">
        <ele>2197</ele>
        <time>2026-07-29T06:33:52.716Z</time>
      </trkpt>
      <trkpt lat="45.76093" lon="6.73392">
        <ele>2197</ele>
        <time>2026-07-29T06:33:53.716Z</time>
      </trkpt>
      <trkpt lat="45.76094" lon="6.73393">
        <ele>2196</ele>
        <time>2026-07-29T06:33:54.716Z</time>
      </trkpt>
      <trkpt lat="45.76095" lon="6.73395">
        <ele>2196</ele>
        <time>2026-07-29T06:33:55.716Z</time>
      </trkpt>
      <trkpt lat="45.76096" lon="6.73396">
        <ele>2196</ele>
        <time>2026-07-29T06:33:56.716Z</time>
      </trkpt>
      <trkpt lat="45.76097" lon="6.73397">
        <ele>2196</ele>
        <time>2026-07-29T06:33:57.716Z</time>
      </trkpt>
      <trkpt lat="45.76098" lon="6.73398">
        <ele>2196</ele>
        <time>2026-07-29T06:33:58.716Z</time>
      </trkpt>
      <trkpt lat="45.761" lon="6.73399">
        <ele>2196</ele>
        <time>2026-07-29T06:33:59.716Z</time>
      </trkpt>
      <trkpt lat="45.76101" lon="6.734">
        <ele>2196</ele>
        <time>2026-07-29T06:34:00.716Z</time>
      </trkpt>
      <trkpt lat="45.76102" lon="6.73401">
        <ele>2196</ele>
        <time>2026-07-29T06:34:01.716Z</time>
      </trkpt>
      <trkpt lat="45.76103" lon="6.73401">
        <ele>2196</ele>
        <time>2026-07-29T06:34:02.716Z</time>
      </trkpt>
      <trkpt lat="45.76105" lon="6.73402">
        <ele>2196</ele>
        <time>2026-07-29T06:34:03.716Z</time>
      </trkpt>
      <trkpt lat="45.76106" lon="6.73403">
        <ele>2196</ele>
        <time>2026-07-29T06:34:04.716Z</time>
      </trkpt>
      <trkpt lat="45.76107" lon="6.73405">
        <ele>2196</ele>
        <time>2026-07-29T06:34:05.716Z</time>
      </trkpt>
      <trkpt lat="45.76108" lon="6.73406">
        <ele>2197</ele>
        <time>2026-07-29T06:34:06.716Z</time>
      </trkpt>
      <trkpt lat="45.76109" lon="6.73407">
        <ele>2197</ele>
        <time>2026-07-29T06:34:07.716Z</time>
      </trkpt>
      <trkpt lat="45.7611" lon="6.73408">
        <ele>2197</ele>
        <time>2026-07-29T06:34:08.716Z</time>
      </trkpt>
      <trkpt lat="45.76112" lon="6.73409">
        <ele>2197</ele>
        <time>2026-07-29T06:34:09.716Z</time>
      </trkpt>
      <trkpt lat="45.76113" lon="6.7341">
        <ele>2197</ele>
        <time>2026-07-29T06:34:10.716Z</time>
      </trkpt>
      <trkpt lat="45.76114" lon="6.73412">
        <ele>2197</ele>
        <time>2026-07-29T06:34:11.716Z</time>
      </trkpt>
      <trkpt lat="45.76115" lon="6.73413">
        <ele>2197</ele>
        <time>2026-07-29T06:34:12.716Z</time>
      </trkpt>
      <trkpt lat="45.76116" lon="6.73414">
        <ele>2197</ele>
        <time>2026-07-29T06:34:13.716Z</time>
      </trkpt>
      <trkpt lat="45.76117" lon="6.73415">
        <ele>2197</ele>
        <time>2026-07-29T06:34:14.716Z</time>
      </trkpt>
      <trkpt lat="45.76118" lon="6.73416">
        <ele>2197</ele>
        <time>2026-07-29T06:34:15.716Z</time>
      </trkpt>
      <trkpt lat="45.76119" lon="6.73417">
        <ele>2197</ele>
        <time>2026-07-29T06:34:16.716Z</time>
      </trkpt>
      <trkpt lat="45.7612" lon="6.73418">
        <ele>2198</ele>
        <time>2026-07-29T06:34:17.716Z</time>
      </trkpt>
      <trkpt lat="45.76122" lon="6.7342">
        <ele>2198</ele>
        <time>2026-07-29T06:34:18.716Z</time>
      </trkpt>
      <trkpt lat="45.76123" lon="6.73421">
        <ele>2198</ele>
        <time>2026-07-29T06:34:19.716Z</time>
      </trkpt>
      <trkpt lat="45.76124" lon="6.73422">
        <ele>2198</ele>
        <time>2026-07-29T06:34:20.716Z</time>
      </trkpt>
      <trkpt lat="45.76125" lon="6.73423">
        <ele>2198</ele>
        <time>2026-07-29T06:34:21.716Z</time>
      </trkpt>
      <trkpt lat="45.76125" lon="6.73425">
        <ele>2199</ele>
        <time>2026-07-29T06:34:22.716Z</time>
      </trkpt>
      <trkpt lat="45.76126" lon="6.73426">
        <ele>2199</ele>
        <time>2026-07-29T06:34:23.716Z</time>
      </trkpt>
      <trkpt lat="45.76127" lon="6.73428">
        <ele>2199</ele>
        <time>2026-07-29T06:34:24.716Z</time>
      </trkpt>
      <trkpt lat="45.76127" lon="6.73429">
        <ele>2199</ele>
        <time>2026-07-29T06:34:25.716Z</time>
      </trkpt>
      <trkpt lat="45.76128" lon="6.7343">
        <ele>2199</ele>
        <time>2026-07-29T06:34:26.716Z</time>
      </trkpt>
      <trkpt lat="45.76129" lon="6.73432">
        <ele>2199</ele>
        <time>2026-07-29T06:34:27.716Z</time>
      </trkpt>
      <trkpt lat="45.7613" lon="6.73433">
        <ele>2198</ele>
        <time>2026-07-29T06:34:28.716Z</time>
      </trkpt>
      <trkpt lat="45.76131" lon="6.73434">
        <ele>2198</ele>
        <time>2026-07-29T06:34:29.716Z</time>
      </trkpt>
      <trkpt lat="45.76132" lon="6.73435">
        <ele>2198</ele>
        <time>2026-07-29T06:34:30.716Z</time>
      </trkpt>
      <trkpt lat="45.76133" lon="6.73436">
        <ele>2198</ele>
        <time>2026-07-29T06:34:31.716Z</time>
      </trkpt>
      <trkpt lat="45.76134" lon="6.73437">
        <ele>2198</ele>
        <time>2026-07-29T06:34:32.716Z</time>
      </trkpt>
      <trkpt lat="45.76135" lon="6.73438">
        <ele>2198</ele>
        <time>2026-07-29T06:34:33.716Z</time>
      </trkpt>
      <trkpt lat="45.76136" lon="6.73439">
        <ele>2197</ele>
        <time>2026-07-29T06:34:34.716Z</time>
      </trkpt>
      <trkpt lat="45.76136" lon="6.73441">
        <ele>2197</ele>
        <time>2026-07-29T06:34:35.716Z</time>
      </trkpt>
      <trkpt lat="45.76137" lon="6.73442">
        <ele>2197</ele>
        <time>2026-07-29T06:34:36.716Z</time>
      </trkpt>
      <trkpt lat="45.76138" lon="6.73443">
        <ele>2197</ele>
        <time>2026-07-29T06:34:37.716Z</time>
      </trkpt>
      <trkpt lat="45.76139" lon="6.73444">
        <ele>2197</ele>
        <time>2026-07-29T06:34:38.716Z</time>
      </trkpt>
      <trkpt lat="45.7614" lon="6.73445">
        <ele>2197</ele>
        <time>2026-07-29T06:34:39.716Z</time>
      </trkpt>
      <trkpt lat="45.76141" lon="6.73446">
        <ele>2197</ele>
        <time>2026-07-29T06:34:40.716Z</time>
      </trkpt>
      <trkpt lat="45.76142" lon="6.73447">
        <ele>2197</ele>
        <time>2026-07-29T06:34:41.716Z</time>
      </trkpt>
      <trkpt lat="45.76143" lon="6.73448">
        <ele>2197</ele>
        <time>2026-07-29T06:34:42.716Z</time>
      </trkpt>
      <trkpt lat="45.76144" lon="6.73449">
        <ele>2198</ele>
        <time>2026-07-29T06:34:43.716Z</time>
      </trkpt>
      <trkpt lat="45.76145" lon="6.73451">
        <ele>2198</ele>
        <time>2026-07-29T06:34:44.716Z</time>
      </trkpt>
      <trkpt lat="45.76146" lon="6.73452">
        <ele>2199</ele>
        <time>2026-07-29T06:34:45.716Z</time>
      </trkpt>
      <trkpt lat="45.76146" lon="6.73453">
        <ele>2199</ele>
        <time>2026-07-29T06:34:46.716Z</time>
      </trkpt>
      <trkpt lat="45.76148" lon="6.73454">
        <ele>2199</ele>
        <time>2026-07-29T06:34:47.716Z</time>
      </trkpt>
      <trkpt lat="45.76149" lon="6.73455">
        <ele>2199</ele>
        <time>2026-07-29T06:34:48.716Z</time>
      </trkpt>
      <trkpt lat="45.7615" lon="6.73456">
        <ele>2199</ele>
        <time>2026-07-29T06:34:49.716Z</time>
      </trkpt>
      <trkpt lat="45.76151" lon="6.73457">
        <ele>2199</ele>
        <time>2026-07-29T06:34:50.716Z</time>
      </trkpt>
      <trkpt lat="45.76152" lon="6.73457">
        <ele>2199</ele>
        <time>2026-07-29T06:34:51.716Z</time>
      </trkpt>
      <trkpt lat="45.76152" lon="6.73458">
        <ele>2199</ele>
        <time>2026-07-29T06:34:52.716Z</time>
      </trkpt>
      <trkpt lat="45.76152" lon="6.73458">
        <ele>2199</ele>
        <time>2026-07-29T06:34:53.716Z</time>
      </trkpt>
      <trkpt lat="45.76153" lon="6.73459">
        <ele>2198</ele>
        <time>2026-07-29T06:34:54.716Z</time>
      </trkpt>
      <trkpt lat="45.76153" lon="6.73459">
        <ele>2198</ele>
        <time>2026-07-29T06:34:55.716Z</time>
      </trkpt>
      <trkpt lat="45.76153" lon="6.73459">
        <ele>2198</ele>
        <time>2026-07-29T06:34:56.716Z</time>
      </trkpt>
      <trkpt lat="45.76153" lon="6.73459">
        <ele>2198</ele>
        <time>2026-07-29T06:34:57.716Z</time>
      </trkpt>
      <trkpt lat="45.76154" lon="6.7346">
        <ele>2198</ele>
        <time>2026-07-29T06:34:58.716Z</time>
      </trkpt>
      <trkpt lat="45.76154" lon="6.7346">
        <ele>2198</ele>
        <time>2026-07-29T06:34:59.716Z</time>
      </trkpt>
      <trkpt lat="45.76154" lon="6.7346">
        <ele>2198</ele>
        <time>2026-07-29T06:35:00.716Z</time>
      </trkpt>
      <trkpt lat="45.76154" lon="6.7346">
        <ele>2198</ele>
        <time>2026-07-29T06:35:01.716Z</time>
      </trkpt>
      <trkpt lat="45.76154" lon="6.7346">
        <ele>2198</ele>
        <time>2026-07-29T06:35:02.716Z</time>
      </trkpt>
      <trkpt lat="45.76154" lon="6.7346">
        <ele>2198</ele>
        <time>2026-07-29T06:35:03.716Z</time>
      </trkpt>
      <trkpt lat="45.76154" lon="6.7346">
        <ele>2198</ele>
        <time>2026-07-29T06:35:04.716Z</time>
      </trkpt>
      <trkpt lat="45.76154" lon="6.7346">
        <ele>2198</ele>
        <time>2026-07-29T06:35:05.716Z</time>
      </trkpt>
      <trkpt lat="45.76154" lon="6.7346">
        <ele>2199</ele>
        <time>2026-07-29T06:35:06.716Z</time>
      </trkpt>
      <trkpt lat="45.76154" lon="6.7346">
        <ele>2199</ele>
        <time>2026-07-29T06:35:07.716Z</time>
      </trkpt>
      <trkpt lat="45.76154" lon="6.7346">
        <ele>2199</ele>
        <time>2026-07-29T06:35:08.716Z</time>
      </trkpt>
      <trkpt lat="45.76154" lon="6.7346">
        <ele>2200</ele>
        <time>2026-07-29T06:35:09.716Z</time>
      </trkpt>
      <trkpt lat="45.76154" lon="6.7346">
        <ele>2200</ele>
        <time>2026-07-29T06:35:10.716Z</time>
      </trkpt>
      <trkpt lat="45.76154" lon="6.7346">
        <ele>2200</ele>
        <time>2026-07-29T06:35:11.716Z</time>
      </trkpt>
      <trkpt lat="45.76154" lon="6.7346">
        <ele>2200</ele>
        <time>2026-07-29T06:35:12.716Z</time>
      </trkpt>
      <trkpt lat="45.76154" lon="6.7346">
        <ele>2200</ele>
        <time>2026-07-29T06:35:13.716Z</time>
      </trkpt>
      <trkpt lat="45.76154" lon="6.7346">
        <ele>2200</ele>
        <time>2026-07-29T06:35:14.716Z</time>
      </trkpt>
      <trkpt lat="45.76154" lon="6.7346">
        <ele>2201</ele>
        <time>2026-07-29T06:35:15.716Z</time>
      </trkpt>
      <trkpt lat="45.76154" lon="6.7346">
        <ele>2201</ele>
        <time>2026-07-29T06:35:16.716Z</time>
      </trkpt>
      <trkpt lat="45.76154" lon="6.7346">
        <ele>2201</ele>
        <time>2026-07-29T06:35:17.716Z</time>
      </trkpt>
      <trkpt lat="45.76154" lon="6.7346">
        <ele>2201</ele>
        <time>2026-07-29T06:35:18.716Z</time>
      </trkpt>
      <trkpt lat="45.76154" lon="6.7346">
        <ele>2201</ele>
        <time>2026-07-29T06:35:19.716Z</time>
      </trkpt>
      <trkpt lat="45.76154" lon="6.7346">
        <ele>2201</ele>
        <time>2026-07-29T06:35:20.716Z</time>
      </trkpt>
      <trkpt lat="45.76154" lon="6.73461">
        <ele>2201</ele>
        <time>2026-07-29T06:35:21.716Z</time>
      </trkpt>
      <trkpt lat="45.76154" lon="6.73461">
        <ele>2201</ele>
        <time>2026-07-29T06:35:22.716Z</time>
      </trkpt>
      <trkpt lat="45.76154" lon="6.73461">
        <ele>2201</ele>
        <time>2026-07-29T06:35:23.716Z</time>
      </trkpt>
      <trkpt lat="45.76154" lon="6.73461">
        <ele>2201</ele>
        <time>2026-07-29T06:35:24.716Z</time>
      </trkpt>
      <trkpt lat="45.76154" lon="6.73461">
        <ele>2201</ele>
        <time>2026-07-29T06:35:25.716Z</time>
      </trkpt>
      <trkpt lat="45.76154" lon="6.73461">
        <ele>2201</ele>
        <time>2026-07-29T06:35:26.716Z</time>
      </trkpt>
      <trkpt lat="45.76154" lon="6.73461">
        <ele>2201</ele>
        <time>2026-07-29T06:35:27.716Z</time>
      </trkpt>
      <trkpt lat="45.76156" lon="6.73463">
        <ele>2201</ele>
        <time>2026-07-29T06:35:28.716Z</time>
      </trkpt>
      <trkpt lat="45.76157" lon="6.73464">
        <ele>2201</ele>
        <time>2026-07-29T06:35:29.716Z</time>
      </trkpt>
      <trkpt lat="45.76158" lon="6.73466">
        <ele>2201</ele>
        <time>2026-07-29T06:35:30.716Z</time>
      </trkpt>
      <trkpt lat="45.7616" lon="6.73467">
        <ele>2201</ele>
        <time>2026-07-29T06:35:31.716Z</time>
      </trkpt>
      <trkpt lat="45.76161" lon="6.73468">
        <ele>2201</ele>
        <time>2026-07-29T06:35:32.716Z</time>
      </trkpt>
      <trkpt lat="45.76163" lon="6.7347">
        <ele>2200</ele>
        <time>2026-07-29T06:35:33.716Z</time>
      </trkpt>
      <trkpt lat="45.76164" lon="6.73471">
        <ele>2200</ele>
        <time>2026-07-29T06:35:34.716Z</time>
      </trkpt>
      <trkpt lat="45.76166" lon="6.73473">
        <ele>2200</ele>
        <time>2026-07-29T06:35:35.716Z</time>
      </trkpt>
      <trkpt lat="45.76168" lon="6.73474">
        <ele>2199</ele>
        <time>2026-07-29T06:35:36.716Z</time>
      </trkpt>
      <trkpt lat="45.76169" lon="6.73476">
        <ele>2199</ele>
        <time>2026-07-29T06:35:37.716Z</time>
      </trkpt>
      <trkpt lat="45.7617" lon="6.73477">
        <ele>2199</ele>
        <time>2026-07-29T06:35:38.716Z</time>
      </trkpt>
      <trkpt lat="45.7617" lon="6.73478">
        <ele>2198</ele>
        <time>2026-07-29T06:35:39.716Z</time>
      </trkpt>
      <trkpt lat="45.76171" lon="6.73479">
        <ele>2198</ele>
        <time>2026-07-29T06:35:40.716Z</time>
      </trkpt>
      <trkpt lat="45.76171" lon="6.73479">
        <ele>2199</ele>
        <time>2026-07-29T06:35:41.716Z</time>
      </trkpt>
      <trkpt lat="45.76171" lon="6.73479">
        <ele>2199</ele>
        <time>2026-07-29T06:35:42.716Z</time>
      </trkpt>
      <trkpt lat="45.76171" lon="6.73479">
        <ele>2199</ele>
        <time>2026-07-29T06:35:43.716Z</time>
      </trkpt>
      <trkpt lat="45.76172" lon="6.73479">
        <ele>2199</ele>
        <time>2026-07-29T06:35:44.716Z</time>
      </trkpt>
      <trkpt lat="45.76172" lon="6.7348">
        <ele>2198</ele>
        <time>2026-07-29T06:35:45.716Z</time>
      </trkpt>
      <trkpt lat="45.76173" lon="6.7348">
        <ele>2198</ele>
        <time>2026-07-29T06:35:46.716Z</time>
      </trkpt>
      <trkpt lat="45.76174" lon="6.73481">
        <ele>2198</ele>
        <time>2026-07-29T06:35:47.716Z</time>
      </trkpt>
      <trkpt lat="45.76175" lon="6.73481">
        <ele>2198</ele>
        <time>2026-07-29T06:35:48.716Z</time>
      </trkpt>
      <trkpt lat="45.76176" lon="6.73482">
        <ele>2198</ele>
        <time>2026-07-29T06:35:49.716Z</time>
      </trkpt>
      <trkpt lat="45.76177" lon="6.73483">
        <ele>2198</ele>
        <time>2026-07-29T06:35:50.716Z</time>
      </trkpt>
      <trkpt lat="45.76177" lon="6.73484">
        <ele>2198</ele>
        <time>2026-07-29T06:35:51.716Z</time>
      </trkpt>
      <trkpt lat="45.76178" lon="6.73485">
        <ele>2198</ele>
        <time>2026-07-29T06:35:52.716Z</time>
      </trkpt>
      <trkpt lat="45.76178" lon="6.73485">
        <ele>2198</ele>
        <time>2026-07-29T06:35:53.716Z</time>
      </trkpt>
      <trkpt lat="45.76178" lon="6.73486">
        <ele>2198</ele>
        <time>2026-07-29T06:35:54.716Z</time>
      </trkpt>
      <trkpt lat="45.76179" lon="6.73486">
        <ele>2198</ele>
        <time>2026-07-29T06:35:55.716Z</time>
      </trkpt>
      <trkpt lat="45.76179" lon="6.73487">
        <ele>2198</ele>
        <time>2026-07-29T06:35:56.716Z</time>
      </trkpt>
      <trkpt lat="45.76179" lon="6.73488">
        <ele>2198</ele>
        <time>2026-07-29T06:35:57.716Z</time>
      </trkpt>
      <trkpt lat="45.7618" lon="6.73488">
        <ele>2198</ele>
        <time>2026-07-29T06:35:58.716Z</time>
      </trkpt>
      <trkpt lat="45.7618" lon="6.73489">
        <ele>2198</ele>
        <time>2026-07-29T06:35:59.716Z</time>
      </trkpt>
      <trkpt lat="45.76181" lon="6.73489">
        <ele>2198</ele>
        <time>2026-07-29T06:36:00.716Z</time>
      </trkpt>
      <trkpt lat="45.76181" lon="6.7349">
        <ele>2197</ele>
        <time>2026-07-29T06:36:01.716Z</time>
      </trkpt>
      <trkpt lat="45.76181" lon="6.73491">
        <ele>2197</ele>
        <time>2026-07-29T06:36:02.716Z</time>
      </trkpt>
      <trkpt lat="45.76182" lon="6.73492">
        <ele>2197</ele>
        <time>2026-07-29T06:36:03.716Z</time>
      </trkpt>
      <trkpt lat="45.76182" lon="6.73493">
        <ele>2196</ele>
        <time>2026-07-29T06:36:04.716Z</time>
      </trkpt>
      <trkpt lat="45.76182" lon="6.73495">
        <ele>2196</ele>
        <time>2026-07-29T06:36:05.716Z</time>
      </trkpt>
      <trkpt lat="45.76183" lon="6.73496">
        <ele>2196</ele>
        <time>2026-07-29T06:36:06.716Z</time>
      </trkpt>
      <trkpt lat="45.76183" lon="6.73497">
        <ele>2196</ele>
        <time>2026-07-29T06:36:07.716Z</time>
      </trkpt>
      <trkpt lat="45.76183" lon="6.73498">
        <ele>2196</ele>
        <time>2026-07-29T06:36:08.716Z</time>
      </trkpt>
      <trkpt lat="45.76183" lon="6.73499">
        <ele>2196</ele>
        <time>2026-07-29T06:36:09.716Z</time>
      </trkpt>
      <trkpt lat="45.76184" lon="6.735">
        <ele>2196</ele>
        <time>2026-07-29T06:36:10.716Z</time>
      </trkpt>
      <trkpt lat="45.76185" lon="6.73501">
        <ele>2196</ele>
        <time>2026-07-29T06:36:11.716Z</time>
      </trkpt>
      <trkpt lat="45.76185" lon="6.73502">
        <ele>2196</ele>
        <time>2026-07-29T06:36:12.716Z</time>
      </trkpt>
      <trkpt lat="45.76186" lon="6.73503">
        <ele>2196</ele>
        <time>2026-07-29T06:36:13.716Z</time>
      </trkpt>
      <trkpt lat="45.76186" lon="6.73503">
        <ele>2196</ele>
        <time>2026-07-29T06:36:14.716Z</time>
      </trkpt>
      <trkpt lat="45.76186" lon="6.73504">
        <ele>2196</ele>
        <time>2026-07-29T06:36:15.716Z</time>
      </trkpt>
      <trkpt lat="45.76186" lon="6.73505">
        <ele>2196</ele>
        <time>2026-07-29T06:36:16.716Z</time>
      </trkpt>
      <trkpt lat="45.76187" lon="6.73506">
        <ele>2196</ele>
        <time>2026-07-29T06:36:17.716Z</time>
      </trkpt>
      <trkpt lat="45.76187" lon="6.73507">
        <ele>2196</ele>
        <time>2026-07-29T06:36:18.716Z</time>
      </trkpt>
      <trkpt lat="45.76188" lon="6.73508">
        <ele>2196</ele>
        <time>2026-07-29T06:36:19.716Z</time>
      </trkpt>
      <trkpt lat="45.76189" lon="6.73509">
        <ele>2196</ele>
        <time>2026-07-29T06:36:20.716Z</time>
      </trkpt>
      <trkpt lat="45.76189" lon="6.7351">
        <ele>2196</ele>
        <time>2026-07-29T06:36:21.716Z</time>
      </trkpt>
      <trkpt lat="45.7619" lon="6.73511">
        <ele>2196</ele>
        <time>2026-07-29T06:36:22.716Z</time>
      </trkpt>
      <trkpt lat="45.76191" lon="6.73512">
        <ele>2196</ele>
        <time>2026-07-29T06:36:23.716Z</time>
      </trkpt>
      <trkpt lat="45.76191" lon="6.73513">
        <ele>2196</ele>
        <time>2026-07-29T06:36:24.716Z</time>
      </trkpt>
      <trkpt lat="45.76192" lon="6.73514">
        <ele>2196</ele>
        <time>2026-07-29T06:36:25.716Z</time>
      </trkpt>
      <trkpt lat="45.76193" lon="6.73515">
        <ele>2197</ele>
        <time>2026-07-29T06:36:26.716Z</time>
      </trkpt>
      <trkpt lat="45.76193" lon="6.73516">
        <ele>2197</ele>
        <time>2026-07-29T06:36:27.716Z</time>
      </trkpt>
      <trkpt lat="45.76193" lon="6.73517">
        <ele>2197</ele>
        <time>2026-07-29T06:36:28.716Z</time>
      </trkpt>
      <trkpt lat="45.76194" lon="6.73517">
        <ele>2198</ele>
        <time>2026-07-29T06:36:29.716Z</time>
      </trkpt>
      <trkpt lat="45.76194" lon="6.73518">
        <ele>2198</ele>
        <time>2026-07-29T06:36:30.716Z</time>
      </trkpt>
      <trkpt lat="45.76195" lon="6.73518">
        <ele>2198</ele>
        <time>2026-07-29T06:36:31.716Z</time>
      </trkpt>
      <trkpt lat="45.76195" lon="6.73519">
        <ele>2197</ele>
        <time>2026-07-29T06:36:32.716Z</time>
      </trkpt>
      <trkpt lat="45.76196" lon="6.7352">
        <ele>2197</ele>
        <time>2026-07-29T06:36:33.716Z</time>
      </trkpt>
      <trkpt lat="45.76196" lon="6.73521">
        <ele>2197</ele>
        <time>2026-07-29T06:36:34.716Z</time>
      </trkpt>
      <trkpt lat="45.76196" lon="6.73521">
        <ele>2197</ele>
        <time>2026-07-29T06:36:35.716Z</time>
      </trkpt>
      <trkpt lat="45.76197" lon="6.73522">
        <ele>2197</ele>
        <time>2026-07-29T06:36:36.716Z</time>
      </trkpt>
      <trkpt lat="45.76198" lon="6.73523">
        <ele>2197</ele>
        <time>2026-07-29T06:36:37.716Z</time>
      </trkpt>
      <trkpt lat="45.76198" lon="6.73523">
        <ele>2197</ele>
        <time>2026-07-29T06:36:38.716Z</time>
      </trkpt>
      <trkpt lat="45.76199" lon="6.73525">
        <ele>2197</ele>
        <time>2026-07-29T06:36:39.716Z</time>
      </trkpt>
      <trkpt lat="45.76199" lon="6.73526">
        <ele>2197</ele>
        <time>2026-07-29T06:36:40.716Z</time>
      </trkpt>
      <trkpt lat="45.762" lon="6.73527">
        <ele>2197</ele>
        <time>2026-07-29T06:36:41.716Z</time>
      </trkpt>
      <trkpt lat="45.76201" lon="6.73528">
        <ele>2196</ele>
        <time>2026-07-29T06:36:42.716Z</time>
      </trkpt>
      <trkpt lat="45.76201" lon="6.73529">
        <ele>2196</ele>
        <time>2026-07-29T06:36:43.716Z</time>
      </trkpt>
      <trkpt lat="45.76202" lon="6.73531">
        <ele>2196</ele>
        <time>2026-07-29T06:36:44.716Z</time>
      </trkpt>
      <trkpt lat="45.76203" lon="6.73533">
        <ele>2195</ele>
        <time>2026-07-29T06:36:45.716Z</time>
      </trkpt>
      <trkpt lat="45.76203" lon="6.73534">
        <ele>2195</ele>
        <time>2026-07-29T06:36:46.716Z</time>
      </trkpt>
      <trkpt lat="45.76204" lon="6.73535">
        <ele>2195</ele>
        <time>2026-07-29T06:36:47.716Z</time>
      </trkpt>
      <trkpt lat="45.76205" lon="6.73536">
        <ele>2195</ele>
        <time>2026-07-29T06:36:48.716Z</time>
      </trkpt>
      <trkpt lat="45.76206" lon="6.73537">
        <ele>2194</ele>
        <time>2026-07-29T06:36:49.716Z</time>
      </trkpt>
      <trkpt lat="45.76206" lon="6.73539">
        <ele>2194</ele>
        <time>2026-07-29T06:36:50.716Z</time>
      </trkpt>
      <trkpt lat="45.76207" lon="6.73541">
        <ele>2194</ele>
        <time>2026-07-29T06:36:51.716Z</time>
      </trkpt>
      <trkpt lat="45.76208" lon="6.73543">
        <ele>2194</ele>
        <time>2026-07-29T06:36:52.716Z</time>
      </trkpt>
      <trkpt lat="45.76208" lon="6.73544">
        <ele>2194</ele>
        <time>2026-07-29T06:36:53.716Z</time>
      </trkpt>
      <trkpt lat="45.76208" lon="6.73546">
        <ele>2194</ele>
        <time>2026-07-29T06:36:54.716Z</time>
      </trkpt>
      <trkpt lat="45.76208" lon="6.73547">
        <ele>2194</ele>
        <time>2026-07-29T06:36:55.716Z</time>
      </trkpt>
      <trkpt lat="45.76208" lon="6.73548">
        <ele>2195</ele>
        <time>2026-07-29T06:36:56.716Z</time>
      </trkpt>
      <trkpt lat="45.76209" lon="6.73549">
        <ele>2195</ele>
        <time>2026-07-29T06:36:57.716Z</time>
      </trkpt>
      <trkpt lat="45.76209" lon="6.73549">
        <ele>2195</ele>
        <time>2026-07-29T06:36:58.716Z</time>
      </trkpt>
      <trkpt lat="45.76209" lon="6.73551">
        <ele>2195</ele>
        <time>2026-07-29T06:36:59.716Z</time>
      </trkpt>
      <trkpt lat="45.7621" lon="6.73552">
        <ele>2195</ele>
        <time>2026-07-29T06:37:00.716Z</time>
      </trkpt>
      <trkpt lat="45.76209" lon="6.73554">
        <ele>2195</ele>
        <time>2026-07-29T06:37:01.716Z</time>
      </trkpt>
      <trkpt lat="45.76209" lon="6.73555">
        <ele>2195</ele>
        <time>2026-07-29T06:37:02.716Z</time>
      </trkpt>
      <trkpt lat="45.76209" lon="6.73556">
        <ele>2196</ele>
        <time>2026-07-29T06:37:03.716Z</time>
      </trkpt>
      <trkpt lat="45.7621" lon="6.73557">
        <ele>2196</ele>
        <time>2026-07-29T06:37:04.716Z</time>
      </trkpt>
      <trkpt lat="45.7621" lon="6.73558">
        <ele>2196</ele>
        <time>2026-07-29T06:37:05.716Z</time>
      </trkpt>
      <trkpt lat="45.7621" lon="6.7356">
        <ele>2196</ele>
        <time>2026-07-29T06:37:06.716Z</time>
      </trkpt>
      <trkpt lat="45.76211" lon="6.7356">
        <ele>2196</ele>
        <time>2026-07-29T06:37:07.716Z</time>
      </trkpt>
      <trkpt lat="45.76211" lon="6.73561">
        <ele>2196</ele>
        <time>2026-07-29T06:37:08.716Z</time>
      </trkpt>
      <trkpt lat="45.76211" lon="6.73562">
        <ele>2196</ele>
        <time>2026-07-29T06:37:09.716Z</time>
      </trkpt>
      <trkpt lat="45.76211" lon="6.73564">
        <ele>2196</ele>
        <time>2026-07-29T06:37:10.716Z</time>
      </trkpt>
      <trkpt lat="45.76211" lon="6.73565">
        <ele>2197</ele>
        <time>2026-07-29T06:37:11.716Z</time>
      </trkpt>
      <trkpt lat="45.76211" lon="6.73566">
        <ele>2197</ele>
        <time>2026-07-29T06:37:12.716Z</time>
      </trkpt>
      <trkpt lat="45.7621" lon="6.73567">
        <ele>2197</ele>
        <time>2026-07-29T06:37:13.716Z</time>
      </trkpt>
      <trkpt lat="45.7621" lon="6.73568">
        <ele>2197</ele>
        <time>2026-07-29T06:37:14.716Z</time>
      </trkpt>
      <trkpt lat="45.76209" lon="6.73568">
        <ele>2196</ele>
        <time>2026-07-29T06:37:15.716Z</time>
      </trkpt>
      <trkpt lat="45.76208" lon="6.73569">
        <ele>2196</ele>
        <time>2026-07-29T06:37:16.716Z</time>
      </trkpt>
      <trkpt lat="45.76207" lon="6.7357">
        <ele>2196</ele>
        <time>2026-07-29T06:37:17.716Z</time>
      </trkpt>
      <trkpt lat="45.76206" lon="6.73571">
        <ele>2195</ele>
        <time>2026-07-29T06:37:18.716Z</time>
      </trkpt>
      <trkpt lat="45.76205" lon="6.73572">
        <ele>2195</ele>
        <time>2026-07-29T06:37:19.716Z</time>
      </trkpt>
      <trkpt lat="45.76203" lon="6.73573">
        <ele>2194</ele>
        <time>2026-07-29T06:37:20.716Z</time>
      </trkpt>
      <trkpt lat="45.76202" lon="6.73574">
        <ele>2194</ele>
        <time>2026-07-29T06:37:21.716Z</time>
      </trkpt>
      <trkpt lat="45.76201" lon="6.73575">
        <ele>2193</ele>
        <time>2026-07-29T06:37:22.716Z</time>
      </trkpt>
      <trkpt lat="45.762" lon="6.73575">
        <ele>2193</ele>
        <time>2026-07-29T06:37:23.716Z</time>
      </trkpt>
      <trkpt lat="45.76199" lon="6.73576">
        <ele>2193</ele>
        <time>2026-07-29T06:37:24.716Z</time>
      </trkpt>
      <trkpt lat="45.76198" lon="6.73576">
        <ele>2194</ele>
        <time>2026-07-29T06:37:25.716Z</time>
      </trkpt>
      <trkpt lat="45.76197" lon="6.73576">
        <ele>2194</ele>
        <time>2026-07-29T06:37:26.716Z</time>
      </trkpt>
      <trkpt lat="45.76195" lon="6.73577">
        <ele>2194</ele>
        <time>2026-07-29T06:37:27.716Z</time>
      </trkpt>
      <trkpt lat="45.76194" lon="6.73577">
        <ele>2195</ele>
        <time>2026-07-29T06:37:28.716Z</time>
      </trkpt>
      <trkpt lat="45.76193" lon="6.73577">
        <ele>2195</ele>
        <time>2026-07-29T06:37:29.716Z</time>
      </trkpt>
      <trkpt lat="45.76191" lon="6.73578">
        <ele>2196</ele>
        <time>2026-07-29T06:37:30.716Z</time>
      </trkpt>
      <trkpt lat="45.76189" lon="6.73579">
        <ele>2196</ele>
        <time>2026-07-29T06:37:31.716Z</time>
      </trkpt>
      <trkpt lat="45.76188" lon="6.73579">
        <ele>2196</ele>
        <time>2026-07-29T06:37:32.716Z</time>
      </trkpt>
      <trkpt lat="45.76187" lon="6.73579">
        <ele>2197</ele>
        <time>2026-07-29T06:37:33.716Z</time>
      </trkpt>
      <trkpt lat="45.76185" lon="6.73579">
        <ele>2197</ele>
        <time>2026-07-29T06:37:34.716Z</time>
      </trkpt>
      <trkpt lat="45.76184" lon="6.73579">
        <ele>2197</ele>
        <time>2026-07-29T06:37:35.716Z</time>
      </trkpt>
      <trkpt lat="45.76182" lon="6.73579">
        <ele>2197</ele>
        <time>2026-07-29T06:37:36.716Z</time>
      </trkpt>
      <trkpt lat="45.76181" lon="6.73579">
        <ele>2198</ele>
        <time>2026-07-29T06:37:37.716Z</time>
      </trkpt>
      <trkpt lat="45.7618" lon="6.73579">
        <ele>2198</ele>
        <time>2026-07-29T06:37:38.716Z</time>
      </trkpt>
      <trkpt lat="45.76179" lon="6.73579">
        <ele>2198</ele>
        <time>2026-07-29T06:37:39.716Z</time>
      </trkpt>
      <trkpt lat="45.76178" lon="6.73579">
        <ele>2197</ele>
        <time>2026-07-29T06:37:40.716Z</time>
      </trkpt>
      <trkpt lat="45.76178" lon="6.73579">
        <ele>2197</ele>
        <time>2026-07-29T06:37:41.716Z</time>
      </trkpt>
      <trkpt lat="45.76177" lon="6.73579">
        <ele>2196</ele>
        <time>2026-07-29T06:37:42.716Z</time>
      </trkpt>
      <trkpt lat="45.76176" lon="6.73579">
        <ele>2196</ele>
        <time>2026-07-29T06:37:43.716Z</time>
      </trkpt>
      <trkpt lat="45.76175" lon="6.73579">
        <ele>2196</ele>
        <time>2026-07-29T06:37:44.716Z</time>
      </trkpt>
      <trkpt lat="45.76174" lon="6.73579">
        <ele>2195</ele>
        <time>2026-07-29T06:37:45.716Z</time>
      </trkpt>
      <trkpt lat="45.76173" lon="6.73579">
        <ele>2195</ele>
        <time>2026-07-29T06:37:46.716Z</time>
      </trkpt>
      <trkpt lat="45.76172" lon="6.73579">
        <ele>2195</ele>
        <time>2026-07-29T06:37:47.716Z</time>
      </trkpt>
      <trkpt lat="45.76171" lon="6.73579">
        <ele>2196</ele>
        <time>2026-07-29T06:37:48.716Z</time>
      </trkpt>
      <trkpt lat="45.7617" lon="6.73579">
        <ele>2196</ele>
        <time>2026-07-29T06:37:49.716Z</time>
      </trkpt>
      <trkpt lat="45.76169" lon="6.73579">
        <ele>2197</ele>
        <time>2026-07-29T06:37:50.716Z</time>
      </trkpt>
      <trkpt lat="45.76168" lon="6.73579">
        <ele>2197</ele>
        <time>2026-07-29T06:37:51.716Z</time>
      </trkpt>
      <trkpt lat="45.76168" lon="6.73578">
        <ele>2197</ele>
        <time>2026-07-29T06:37:52.716Z</time>
      </trkpt>
      <trkpt lat="45.76168" lon="6.73577">
        <ele>2198</ele>
        <time>2026-07-29T06:37:53.716Z</time>
      </trkpt>
      <trkpt lat="45.76167" lon="6.73577">
        <ele>2198</ele>
        <time>2026-07-29T06:37:54.716Z</time>
      </trkpt>
      <trkpt lat="45.76167" lon="6.73576">
        <ele>2198</ele>
        <time>2026-07-29T06:37:55.716Z</time>
      </trkpt>
      <trkpt lat="45.76166" lon="6.73576">
        <ele>2198</ele>
        <time>2026-07-29T06:37:56.716Z</time>
      </trkpt>
      <trkpt lat="45.76165" lon="6.73576">
        <ele>2198</ele>
        <time>2026-07-29T06:37:57.716Z</time>
      </trkpt>
      <trkpt lat="45.76164" lon="6.73575">
        <ele>2198</ele>
        <time>2026-07-29T06:37:58.716Z</time>
      </trkpt>
      <trkpt lat="45.76163" lon="6.73574">
        <ele>2198</ele>
        <time>2026-07-29T06:37:59.716Z</time>
      </trkpt>
      <trkpt lat="45.76162" lon="6.73573">
        <ele>2198</ele>
        <time>2026-07-29T06:38:00.716Z</time>
      </trkpt>
      <trkpt lat="45.76161" lon="6.73572">
        <ele>2198</ele>
        <time>2026-07-29T06:38:01.716Z</time>
      </trkpt>
      <trkpt lat="45.76159" lon="6.73571">
        <ele>2198</ele>
        <time>2026-07-29T06:38:02.716Z</time>
      </trkpt>
      <trkpt lat="45.76157" lon="6.73571">
        <ele>2198</ele>
        <time>2026-07-29T06:38:03.716Z</time>
      </trkpt>
      <trkpt lat="45.76156" lon="6.7357">
        <ele>2198</ele>
        <time>2026-07-29T06:38:04.716Z</time>
      </trkpt>
      <trkpt lat="45.76154" lon="6.7357">
        <ele>2198</ele>
        <time>2026-07-29T06:38:05.716Z</time>
      </trkpt>
      <trkpt lat="45.76153" lon="6.73569">
        <ele>2199</ele>
        <time>2026-07-29T06:38:06.716Z</time>
      </trkpt>
      <trkpt lat="45.76152" lon="6.73568">
        <ele>2199</ele>
        <time>2026-07-29T06:38:07.716Z</time>
      </trkpt>
      <trkpt lat="45.7615" lon="6.73567">
        <ele>2199</ele>
        <time>2026-07-29T06:38:08.716Z</time>
      </trkpt>
      <trkpt lat="45.76149" lon="6.73566">
        <ele>2199</ele>
        <time>2026-07-29T06:38:09.716Z</time>
      </trkpt>
      <trkpt lat="45.76148" lon="6.73566">
        <ele>2199</ele>
        <time>2026-07-29T06:38:10.716Z</time>
      </trkpt>
      <trkpt lat="45.76148" lon="6.73565">
        <ele>2199</ele>
        <time>2026-07-29T06:38:11.716Z</time>
      </trkpt>
      <trkpt lat="45.76147" lon="6.73564">
        <ele>2199</ele>
        <time>2026-07-29T06:38:12.716Z</time>
      </trkpt>
      <trkpt lat="45.76146" lon="6.73563">
        <ele>2199</ele>
        <time>2026-07-29T06:38:13.716Z</time>
      </trkpt>
      <trkpt lat="45.76144" lon="6.73563">
        <ele>2199</ele>
        <time>2026-07-29T06:38:14.716Z</time>
      </trkpt>
      <trkpt lat="45.76143" lon="6.73562">
        <ele>2199</ele>
        <time>2026-07-29T06:38:15.716Z</time>
      </trkpt>
      <trkpt lat="45.76142" lon="6.73561">
        <ele>2198</ele>
        <time>2026-07-29T06:38:16.716Z</time>
      </trkpt>
      <trkpt lat="45.76141" lon="6.7356">
        <ele>2198</ele>
        <time>2026-07-29T06:38:17.716Z</time>
      </trkpt>
      <trkpt lat="45.7614" lon="6.7356">
        <ele>2198</ele>
        <time>2026-07-29T06:38:18.716Z</time>
      </trkpt>
      <trkpt lat="45.76138" lon="6.73559">
        <ele>2198</ele>
        <time>2026-07-29T06:38:19.716Z</time>
      </trkpt>
      <trkpt lat="45.76137" lon="6.73558">
        <ele>2198</ele>
        <time>2026-07-29T06:38:20.716Z</time>
      </trkpt>
      <trkpt lat="45.76136" lon="6.73557">
        <ele>2198</ele>
        <time>2026-07-29T06:38:21.716Z</time>
      </trkpt>
      <trkpt lat="45.76135" lon="6.73555">
        <ele>2198</ele>
        <time>2026-07-29T06:38:22.716Z</time>
      </trkpt>
      <trkpt lat="45.76134" lon="6.73554">
        <ele>2198</ele>
        <time>2026-07-29T06:38:23.716Z</time>
      </trkpt>
      <trkpt lat="45.76133" lon="6.73553">
        <ele>2198</ele>
        <time>2026-07-29T06:38:24.716Z</time>
      </trkpt>
      <trkpt lat="45.76132" lon="6.73553">
        <ele>2198</ele>
        <time>2026-07-29T06:38:25.716Z</time>
      </trkpt>
      <trkpt lat="45.76132" lon="6.73552">
        <ele>2198</ele>
        <time>2026-07-29T06:38:26.716Z</time>
      </trkpt>
      <trkpt lat="45.7613" lon="6.73552">
        <ele>2198</ele>
        <time>2026-07-29T06:38:27.716Z</time>
      </trkpt>
      <trkpt lat="45.76129" lon="6.73552">
        <ele>2198</ele>
        <time>2026-07-29T06:38:28.716Z</time>
      </trkpt>
      <trkpt lat="45.76128" lon="6.73551">
        <ele>2198</ele>
        <time>2026-07-29T06:38:29.716Z</time>
      </trkpt>
      <trkpt lat="45.76127" lon="6.73551">
        <ele>2198</ele>
        <time>2026-07-29T06:38:30.716Z</time>
      </trkpt>
      <trkpt lat="45.76126" lon="6.7355">
        <ele>2198</ele>
        <time>2026-07-29T06:38:31.716Z</time>
      </trkpt>
      <trkpt lat="45.76125" lon="6.73549">
        <ele>2198</ele>
        <time>2026-07-29T06:38:32.716Z</time>
      </trkpt>
      <trkpt lat="45.76125" lon="6.73548">
        <ele>2198</ele>
        <time>2026-07-29T06:38:33.716Z</time>
      </trkpt>
      <trkpt lat="45.76124" lon="6.73547">
        <ele>2198</ele>
        <time>2026-07-29T06:38:34.716Z</time>
      </trkpt>
      <trkpt lat="45.76123" lon="6.73547">
        <ele>2199</ele>
        <time>2026-07-29T06:38:35.716Z</time>
      </trkpt>
      <trkpt lat="45.76122" lon="6.73546">
        <ele>2199</ele>
        <time>2026-07-29T06:38:36.716Z</time>
      </trkpt>
      <trkpt lat="45.76121" lon="6.73545">
        <ele>2199</ele>
        <time>2026-07-29T06:38:37.716Z</time>
      </trkpt>
      <trkpt lat="45.76121" lon="6.73544">
        <ele>2199</ele>
        <time>2026-07-29T06:38:38.716Z</time>
      </trkpt>
      <trkpt lat="45.7612" lon="6.73543">
        <ele>2199</ele>
        <time>2026-07-29T06:38:39.716Z</time>
      </trkpt>
      <trkpt lat="45.7612" lon="6.73543">
        <ele>2198</ele>
        <time>2026-07-29T06:38:40.716Z</time>
      </trkpt>
      <trkpt lat="45.7612" lon="6.73542">
        <ele>2199</ele>
        <time>2026-07-29T06:38:41.716Z</time>
      </trkpt>
      <trkpt lat="45.76119" lon="6.73542">
        <ele>2198</ele>
        <time>2026-07-29T06:38:42.716Z</time>
      </trkpt>
      <trkpt lat="45.76118" lon="6.73542">
        <ele>2198</ele>
        <time>2026-07-29T06:38:43.716Z</time>
      </trkpt>
      <trkpt lat="45.76117" lon="6.73541">
        <ele>2198</ele>
        <time>2026-07-29T06:38:44.716Z</time>
      </trkpt>
      <trkpt lat="45.76117" lon="6.73541">
        <ele>2198</ele>
        <time>2026-07-29T06:38:45.716Z</time>
      </trkpt>
      <trkpt lat="45.76116" lon="6.73541">
        <ele>2198</ele>
        <time>2026-07-29T06:38:46.716Z</time>
      </trkpt>
      <trkpt lat="45.76115" lon="6.73541">
        <ele>2198</ele>
        <time>2026-07-29T06:38:47.716Z</time>
      </trkpt>
      <trkpt lat="45.76115" lon="6.7354">
        <ele>2198</ele>
        <time>2026-07-29T06:38:48.716Z</time>
      </trkpt>
      <trkpt lat="45.76114" lon="6.73539">
        <ele>2198</ele>
        <time>2026-07-29T06:38:49.716Z</time>
      </trkpt>
      <trkpt lat="45.76113" lon="6.73538">
        <ele>2198</ele>
        <time>2026-07-29T06:38:50.716Z</time>
      </trkpt>
      <trkpt lat="45.76113" lon="6.73537">
        <ele>2198</ele>
        <time>2026-07-29T06:38:51.716Z</time>
      </trkpt>
      <trkpt lat="45.76112" lon="6.73537">
        <ele>2197</ele>
        <time>2026-07-29T06:38:52.716Z</time>
      </trkpt>
      <trkpt lat="45.76112" lon="6.73537">
        <ele>2197</ele>
        <time>2026-07-29T06:38:53.716Z</time>
      </trkpt>
      <trkpt lat="45.76111" lon="6.73536">
        <ele>2197</ele>
        <time>2026-07-29T06:38:54.716Z</time>
      </trkpt>
      <trkpt lat="45.76111" lon="6.73535">
        <ele>2197</ele>
        <time>2026-07-29T06:38:55.716Z</time>
      </trkpt>
      <trkpt lat="45.7611" lon="6.73534">
        <ele>2196</ele>
        <time>2026-07-29T06:38:56.716Z</time>
      </trkpt>
      <trkpt lat="45.76109" lon="6.73534">
        <ele>2196</ele>
        <time>2026-07-29T06:38:57.716Z</time>
      </trkpt>
      <trkpt lat="45.76109" lon="6.73533">
        <ele>2197</ele>
        <time>2026-07-29T06:38:58.716Z</time>
      </trkpt>
      <trkpt lat="45.76109" lon="6.73532">
        <ele>2198</ele>
        <time>2026-07-29T06:38:59.716Z</time>
      </trkpt>
      <trkpt lat="45.76108" lon="6.73531">
        <ele>2198</ele>
        <time>2026-07-29T06:39:00.716Z</time>
      </trkpt>
      <trkpt lat="45.76108" lon="6.7353">
        <ele>2198</ele>
        <time>2026-07-29T06:39:01.716Z</time>
      </trkpt>
      <trkpt lat="45.76107" lon="6.7353">
        <ele>2198</ele>
        <time>2026-07-29T06:39:02.716Z</time>
      </trkpt>
      <trkpt lat="45.76107" lon="6.73529">
        <ele>2198</ele>
        <time>2026-07-29T06:39:03.716Z</time>
      </trkpt>
      <trkpt lat="45.76107" lon="6.73528">
        <ele>2198</ele>
        <time>2026-07-29T06:39:04.716Z</time>
      </trkpt>
      <trkpt lat="45.76106" lon="6.73527">
        <ele>2198</ele>
        <time>2026-07-29T06:39:05.716Z</time>
      </trkpt>
      <trkpt lat="45.76105" lon="6.73526">
        <ele>2198</ele>
        <time>2026-07-29T06:39:06.716Z</time>
      </trkpt>
      <trkpt lat="45.76105" lon="6.73526">
        <ele>2197</ele>
        <time>2026-07-29T06:39:07.716Z</time>
      </trkpt>
      <trkpt lat="45.76104" lon="6.73525">
        <ele>2197</ele>
        <time>2026-07-29T06:39:08.716Z</time>
      </trkpt>
      <trkpt lat="45.76103" lon="6.73524">
        <ele>2196</ele>
        <time>2026-07-29T06:39:09.716Z</time>
      </trkpt>
      <trkpt lat="45.76103" lon="6.73523">
        <ele>2196</ele>
        <time>2026-07-29T06:39:10.716Z</time>
      </trkpt>
      <trkpt lat="45.76102" lon="6.73523">
        <ele>2196</ele>
        <time>2026-07-29T06:39:11.716Z</time>
      </trkpt>
      <trkpt lat="45.76102" lon="6.73522">
        <ele>2196</ele>
        <time>2026-07-29T06:39:12.716Z</time>
      </trkpt>
      <trkpt lat="45.76101" lon="6.73522">
        <ele>2196</ele>
        <time>2026-07-29T06:39:13.716Z</time>
      </trkpt>
      <trkpt lat="45.761" lon="6.73521">
        <ele>2195</ele>
        <time>2026-07-29T06:39:14.716Z</time>
      </trkpt>
      <trkpt lat="45.76099" lon="6.73521">
        <ele>2196</ele>
        <time>2026-07-29T06:39:15.716Z</time>
      </trkpt>
      <trkpt lat="45.76099" lon="6.73521">
        <ele>2196</ele>
        <time>2026-07-29T06:39:16.716Z</time>
      </trkpt>
      <trkpt lat="45.76098" lon="6.7352">
        <ele>2196</ele>
        <time>2026-07-29T06:39:17.716Z</time>
      </trkpt>
      <trkpt lat="45.76097" lon="6.7352">
        <ele>2197</ele>
        <time>2026-07-29T06:39:18.716Z</time>
      </trkpt>
      <trkpt lat="45.76097" lon="6.7352">
        <ele>2197</ele>
        <time>2026-07-29T06:39:19.716Z</time>
      </trkpt>
      <trkpt lat="45.76096" lon="6.7352">
        <ele>2197</ele>
        <time>2026-07-29T06:39:20.716Z</time>
      </trkpt>
      <trkpt lat="45.76096" lon="6.7352">
        <ele>2197</ele>
        <time>2026-07-29T06:39:21.716Z</time>
      </trkpt>
      <trkpt lat="45.76095" lon="6.73519">
        <ele>2197</ele>
        <time>2026-07-29T06:39:22.716Z</time>
      </trkpt>
      <trkpt lat="45.76094" lon="6.73519">
        <ele>2198</ele>
        <time>2026-07-29T06:39:23.716Z</time>
      </trkpt>
      <trkpt lat="45.76094" lon="6.7352">
        <ele>2198</ele>
        <time>2026-07-29T06:39:24.716Z</time>
      </trkpt>
      <trkpt lat="45.76093" lon="6.7352">
        <ele>2199</ele>
        <time>2026-07-29T06:39:25.716Z</time>
      </trkpt>
      <trkpt lat="45.76092" lon="6.73519">
        <ele>2199</ele>
        <time>2026-07-29T06:39:26.716Z</time>
      </trkpt>
      <trkpt lat="45.76091" lon="6.73519">
        <ele>2200</ele>
        <time>2026-07-29T06:39:27.716Z</time>
      </trkpt>
      <trkpt lat="45.76091" lon="6.73519">
        <ele>2200</ele>
        <time>2026-07-29T06:39:28.716Z</time>
      </trkpt>
      <trkpt lat="45.76091" lon="6.73518">
        <ele>2200</ele>
        <time>2026-07-29T06:39:29.716Z</time>
      </trkpt>
      <trkpt lat="45.76091" lon="6.73518">
        <ele>2200</ele>
        <time>2026-07-29T06:39:30.716Z</time>
      </trkpt>
      <trkpt lat="45.7609" lon="6.73518">
        <ele>2199</ele>
        <time>2026-07-29T06:39:31.716Z</time>
      </trkpt>
      <trkpt lat="45.7609" lon="6.73518">
        <ele>2199</ele>
        <time>2026-07-29T06:39:32.716Z</time>
      </trkpt>
      <trkpt lat="45.76089" lon="6.73518">
        <ele>2198</ele>
        <time>2026-07-29T06:39:33.716Z</time>
      </trkpt>
      <trkpt lat="45.76089" lon="6.73517">
        <ele>2198</ele>
        <time>2026-07-29T06:39:34.716Z</time>
      </trkpt>
      <trkpt lat="45.76088" lon="6.73517">
        <ele>2198</ele>
        <time>2026-07-29T06:39:35.716Z</time>
      </trkpt>
      <trkpt lat="45.76088" lon="6.73517">
        <ele>2198</ele>
        <time>2026-07-29T06:39:36.716Z</time>
      </trkpt>
      <trkpt lat="45.76087" lon="6.73516">
        <ele>2198</ele>
        <time>2026-07-29T06:39:37.716Z</time>
      </trkpt>
      <trkpt lat="45.76087" lon="6.73516">
        <ele>2198</ele>
        <time>2026-07-29T06:39:38.716Z</time>
      </trkpt>
      <trkpt lat="45.76086" lon="6.73515">
        <ele>2198</ele>
        <time>2026-07-29T06:39:39.716Z</time>
      </trkpt>
      <trkpt lat="45.76086" lon="6.73515">
        <ele>2198</ele>
        <time>2026-07-29T06:39:40.716Z</time>
      </trkpt>
      <trkpt lat="45.76086" lon="6.73514">
        <ele>2198</ele>
        <time>2026-07-29T06:39:41.716Z</time>
      </trkpt>
      <trkpt lat="45.76086" lon="6.73514">
        <ele>2198</ele>
        <time>2026-07-29T06:39:42.716Z</time>
      </trkpt>
      <trkpt lat="45.76086" lon="6.73513">
        <ele>2197</ele>
        <time>2026-07-29T06:39:43.716Z</time>
      </trkpt>
      <trkpt lat="45.76085" lon="6.73512">
        <ele>2197</ele>
        <time>2026-07-29T06:39:44.716Z</time>
      </trkpt>
      <trkpt lat="45.76085" lon="6.73511">
        <ele>2197</ele>
        <time>2026-07-29T06:39:45.716Z</time>
      </trkpt>
      <trkpt lat="45.76085" lon="6.7351">
        <ele>2197</ele>
        <time>2026-07-29T06:39:46.716Z</time>
      </trkpt>
      <trkpt lat="45.76084" lon="6.73509">
        <ele>2197</ele>
        <time>2026-07-29T06:39:47.716Z</time>
      </trkpt>
      <trkpt lat="45.76084" lon="6.73509">
        <ele>2197</ele>
        <time>2026-07-29T06:39:48.716Z</time>
      </trkpt>
      <trkpt lat="45.76083" lon="6.73508">
        <ele>2197</ele>
        <time>2026-07-29T06:39:49.716Z</time>
      </trkpt>
      <trkpt lat="45.76083" lon="6.73507">
        <ele>2197</ele>
        <time>2026-07-29T06:39:50.716Z</time>
      </trkpt>
      <trkpt lat="45.76082" lon="6.73507">
        <ele>2197</ele>
        <time>2026-07-29T06:39:51.716Z</time>
      </trkpt>
      <trkpt lat="45.76081" lon="6.73507">
        <ele>2197</ele>
        <time>2026-07-29T06:39:52.716Z</time>
      </trkpt>
      <trkpt lat="45.7608" lon="6.73507">
        <ele>2197</ele>
        <time>2026-07-29T06:39:53.716Z</time>
      </trkpt>
      <trkpt lat="45.76079" lon="6.73507">
        <ele>2197</ele>
        <time>2026-07-29T06:39:54.716Z</time>
      </trkpt>
      <trkpt lat="45.76078" lon="6.73506">
        <ele>2197</ele>
        <time>2026-07-29T06:39:55.716Z</time>
      </trkpt>
      <trkpt lat="45.76077" lon="6.73506">
        <ele>2197</ele>
        <time>2026-07-29T06:39:56.716Z</time>
      </trkpt>
      <trkpt lat="45.76077" lon="6.73506">
        <ele>2197</ele>
        <time>2026-07-29T06:39:57.716Z</time>
      </trkpt>
      <trkpt lat="45.76076" lon="6.73505">
        <ele>2197</ele>
        <time>2026-07-29T06:39:58.716Z</time>
      </trkpt>
      <trkpt lat="45.76075" lon="6.73504">
        <ele>2197</ele>
        <time>2026-07-29T06:39:59.716Z</time>
      </trkpt>
      <trkpt lat="45.76074" lon="6.73504">
        <ele>2197</ele>
        <time>2026-07-29T06:40:00.716Z</time>
      </trkpt>
      <trkpt lat="45.76074" lon="6.73503">
        <ele>2196</ele>
        <time>2026-07-29T06:40:01.716Z</time>
      </trkpt>
      <trkpt lat="45.76073" lon="6.73502">
        <ele>2196</ele>
        <time>2026-07-29T06:40:02.716Z</time>
      </trkpt>
      <trkpt lat="45.76073" lon="6.73502">
        <ele>2196</ele>
        <time>2026-07-29T06:40:03.716Z</time>
      </trkpt>
      <trkpt lat="45.76072" lon="6.73501">
        <ele>2196</ele>
        <time>2026-07-29T06:40:04.716Z</time>
      </trkpt>
      <trkpt lat="45.76072" lon="6.73501">
        <ele>2196</ele>
        <time>2026-07-29T06:40:05.716Z</time>
      </trkpt>
      <trkpt lat="45.76071" lon="6.73501">
        <ele>2197</ele>
        <time>2026-07-29T06:40:06.716Z</time>
      </trkpt>
      <trkpt lat="45.7607" lon="6.735">
        <ele>2197</ele>
        <time>2026-07-29T06:40:07.716Z</time>
      </trkpt>
      <trkpt lat="45.7607" lon="6.73501">
        <ele>2197</ele>
        <time>2026-07-29T06:40:08.716Z</time>
      </trkpt>
      <trkpt lat="45.76069" lon="6.73501">
        <ele>2198</ele>
        <time>2026-07-29T06:40:09.716Z</time>
      </trkpt>
      <trkpt lat="45.76069" lon="6.73501">
        <ele>2198</ele>
        <time>2026-07-29T06:40:10.716Z</time>
      </trkpt>
      <trkpt lat="45.76068" lon="6.73501">
        <ele>2197</ele>
        <time>2026-07-29T06:40:11.716Z</time>
      </trkpt>
      <trkpt lat="45.76067" lon="6.73501">
        <ele>2197</ele>
        <time>2026-07-29T06:40:12.716Z</time>
      </trkpt>
      <trkpt lat="45.76066" lon="6.73501">
        <ele>2198</ele>
        <time>2026-07-29T06:40:13.716Z</time>
      </trkpt>
      <trkpt lat="45.76066" lon="6.735">
        <ele>2198</ele>
        <time>2026-07-29T06:40:14.716Z</time>
      </trkpt>
      <trkpt lat="45.76065" lon="6.735">
        <ele>2198</ele>
        <time>2026-07-29T06:40:15.716Z</time>
      </trkpt>
      <trkpt lat="45.76065" lon="6.73499">
        <ele>2198</ele>
        <time>2026-07-29T06:40:16.716Z</time>
      </trkpt>
      <trkpt lat="45.76065" lon="6.73499">
        <ele>2199</ele>
        <time>2026-07-29T06:40:17.716Z</time>
      </trkpt>
      <trkpt lat="45.76065" lon="6.73498">
        <ele>2199</ele>
        <time>2026-07-29T06:40:18.716Z</time>
      </trkpt>
      <trkpt lat="45.76064" lon="6.73498">
        <ele>2198</ele>
        <time>2026-07-29T06:40:19.716Z</time>
      </trkpt>
      <trkpt lat="45.76064" lon="6.73498">
        <ele>2198</ele>
        <time>2026-07-29T06:40:20.716Z</time>
      </trkpt>
      <trkpt lat="45.76063" lon="6.73498">
        <ele>2198</ele>
        <time>2026-07-29T06:40:21.716Z</time>
      </trkpt>
      <trkpt lat="45.76062" lon="6.73498">
        <ele>2198</ele>
        <time>2026-07-29T06:40:22.716Z</time>
      </trkpt>
      <trkpt lat="45.76062" lon="6.73497">
        <ele>2197</ele>
        <time>2026-07-29T06:40:23.716Z</time>
      </trkpt>
      <trkpt lat="45.76061" lon="6.73497">
        <ele>2197</ele>
        <time>2026-07-29T06:40:24.716Z</time>
      </trkpt>
      <trkpt lat="45.76061" lon="6.73497">
        <ele>2197</ele>
        <time>2026-07-29T06:40:25.716Z</time>
      </trkpt>
      <trkpt lat="45.7606" lon="6.73496">
        <ele>2197</ele>
        <time>2026-07-29T06:40:26.716Z</time>
      </trkpt>
      <trkpt lat="45.7606" lon="6.73496">
        <ele>2197</ele>
        <time>2026-07-29T06:40:27.716Z</time>
      </trkpt>
      <trkpt lat="45.76059" lon="6.73495">
        <ele>2197</ele>
        <time>2026-07-29T06:40:28.716Z</time>
      </trkpt>
      <trkpt lat="45.76058" lon="6.73495">
        <ele>2198</ele>
        <time>2026-07-29T06:40:29.716Z</time>
      </trkpt>
      <trkpt lat="45.76057" lon="6.73494">
        <ele>2198</ele>
        <time>2026-07-29T06:40:30.716Z</time>
      </trkpt>
      <trkpt lat="45.76057" lon="6.73494">
        <ele>2198</ele>
        <time>2026-07-29T06:40:31.716Z</time>
      </trkpt>
      <trkpt lat="45.76056" lon="6.73493">
        <ele>2198</ele>
        <time>2026-07-29T06:40:32.716Z</time>
      </trkpt>
      <trkpt lat="45.76055" lon="6.73493">
        <ele>2199</ele>
        <time>2026-07-29T06:40:33.716Z</time>
      </trkpt>
      <trkpt lat="45.76055" lon="6.73492">
        <ele>2199</ele>
        <time>2026-07-29T06:40:34.716Z</time>
      </trkpt>
      <trkpt lat="45.76054" lon="6.73492">
        <ele>2200</ele>
        <time>2026-07-29T06:40:35.716Z</time>
      </trkpt>
      <trkpt lat="45.76054" lon="6.73491">
        <ele>2200</ele>
        <time>2026-07-29T06:40:36.716Z</time>
      </trkpt>
      <trkpt lat="45.76053" lon="6.73491">
        <ele>2200</ele>
        <time>2026-07-29T06:40:37.716Z</time>
      </trkpt>
      <trkpt lat="45.76053" lon="6.7349">
        <ele>2199</ele>
        <time>2026-07-29T06:40:38.716Z</time>
      </trkpt>
      <trkpt lat="45.76052" lon="6.7349">
        <ele>2199</ele>
        <time>2026-07-29T06:40:39.716Z</time>
      </trkpt>
      <trkpt lat="45.76052" lon="6.7349">
        <ele>2199</ele>
        <time>2026-07-29T06:40:40.716Z</time>
      </trkpt>
      <trkpt lat="45.76051" lon="6.73489">
        <ele>2200</ele>
        <time>2026-07-29T06:40:41.716Z</time>
      </trkpt>
      <trkpt lat="45.7605" lon="6.7349">
        <ele>2200</ele>
        <time>2026-07-29T06:40:42.716Z</time>
      </trkpt>
      <trkpt lat="45.7605" lon="6.73489">
        <ele>2201</ele>
        <time>2026-07-29T06:40:43.716Z</time>
      </trkpt>
      <trkpt lat="45.76049" lon="6.73488">
        <ele>2201</ele>
        <time>2026-07-29T06:40:44.716Z</time>
      </trkpt>
      <trkpt lat="45.76049" lon="6.73488">
        <ele>2201</ele>
        <time>2026-07-29T06:40:45.716Z</time>
      </trkpt>
      <trkpt lat="45.76049" lon="6.73488">
        <ele>2202</ele>
        <time>2026-07-29T06:40:46.716Z</time>
      </trkpt>
      <trkpt lat="45.76048" lon="6.73488">
        <ele>2202</ele>
        <time>2026-07-29T06:40:47.716Z</time>
      </trkpt>
      <trkpt lat="45.76048" lon="6.73488">
        <ele>2202</ele>
        <time>2026-07-29T06:40:48.716Z</time>
      </trkpt>
      <trkpt lat="45.76048" lon="6.73488">
        <ele>2202</ele>
        <time>2026-07-29T06:40:49.716Z</time>
      </trkpt>
      <trkpt lat="45.76047" lon="6.73487">
        <ele>2202</ele>
        <time>2026-07-29T06:40:50.716Z</time>
      </trkpt>
      <trkpt lat="45.76047" lon="6.73487">
        <ele>2201</ele>
        <time>2026-07-29T06:40:51.716Z</time>
      </trkpt>
      <trkpt lat="45.76046" lon="6.73486">
        <ele>2201</ele>
        <time>2026-07-29T06:40:52.716Z</time>
      </trkpt>
      <trkpt lat="45.76046" lon="6.73485">
        <ele>2201</ele>
        <time>2026-07-29T06:40:53.716Z</time>
      </trkpt>
      <trkpt lat="45.76045" lon="6.73484">
        <ele>2200</ele>
        <time>2026-07-29T06:40:54.716Z</time>
      </trkpt>
      <trkpt lat="45.76044" lon="6.73483">
        <ele>2200</ele>
        <time>2026-07-29T06:40:55.716Z</time>
      </trkpt>
      <trkpt lat="45.76043" lon="6.73483">
        <ele>2201</ele>
        <time>2026-07-29T06:40:56.716Z</time>
      </trkpt>
      <trkpt lat="45.76043" lon="6.73482">
        <ele>2201</ele>
        <time>2026-07-29T06:40:57.716Z</time>
      </trkpt>
      <trkpt lat="45.76042" lon="6.73481">
        <ele>2201</ele>
        <time>2026-07-29T06:40:58.716Z</time>
      </trkpt>
      <trkpt lat="45.76042" lon="6.73481">
        <ele>2201</ele>
        <time>2026-07-29T06:40:59.716Z</time>
      </trkpt>
      <trkpt lat="45.76041" lon="6.7348">
        <ele>2200</ele>
        <time>2026-07-29T06:41:00.716Z</time>
      </trkpt>
      <trkpt lat="45.7604" lon="6.73479">
        <ele>2200</ele>
        <time>2026-07-29T06:41:01.716Z</time>
      </trkpt>
      <trkpt lat="45.76039" lon="6.73478">
        <ele>2200</ele>
        <time>2026-07-29T06:41:02.716Z</time>
      </trkpt>
      <trkpt lat="45.76039" lon="6.73477">
        <ele>2200</ele>
        <time>2026-07-29T06:41:03.716Z</time>
      </trkpt>
      <trkpt lat="45.76038" lon="6.73476">
        <ele>2200</ele>
        <time>2026-07-29T06:41:04.716Z</time>
      </trkpt>
      <trkpt lat="45.76038" lon="6.73475">
        <ele>2200</ele>
        <time>2026-07-29T06:41:05.716Z</time>
      </trkpt>
      <trkpt lat="45.76038" lon="6.73474">
        <ele>2200</ele>
        <time>2026-07-29T06:41:06.716Z</time>
      </trkpt>
      <trkpt lat="45.76038" lon="6.73473">
        <ele>2200</ele>
        <time>2026-07-29T06:41:07.716Z</time>
      </trkpt>
      <trkpt lat="45.76037" lon="6.73472">
        <ele>2200</ele>
        <time>2026-07-29T06:41:08.716Z</time>
      </trkpt>
      <trkpt lat="45.76037" lon="6.73472">
        <ele>2200</ele>
        <time>2026-07-29T06:41:09.716Z</time>
      </trkpt>
      <trkpt lat="45.76037" lon="6.73472">
        <ele>2200</ele>
        <time>2026-07-29T06:41:10.716Z</time>
      </trkpt>
      <trkpt lat="45.76037" lon="6.73471">
        <ele>2200</ele>
        <time>2026-07-29T06:41:11.716Z</time>
      </trkpt>
      <trkpt lat="45.76036" lon="6.73471">
        <ele>2200</ele>
        <time>2026-07-29T06:41:12.716Z</time>
      </trkpt>
      <trkpt lat="45.76036" lon="6.7347">
        <ele>2200</ele>
        <time>2026-07-29T06:41:13.716Z</time>
      </trkpt>
      <trkpt lat="45.76036" lon="6.73469">
        <ele>2200</ele>
        <time>2026-07-29T06:41:14.716Z</time>
      </trkpt>
      <trkpt lat="45.76036" lon="6.73468">
        <ele>2199</ele>
        <time>2026-07-29T06:41:15.716Z</time>
      </trkpt>
      <trkpt lat="45.76036" lon="6.73468">
        <ele>2200</ele>
        <time>2026-07-29T06:41:16.716Z</time>
      </trkpt>
      <trkpt lat="45.76035" lon="6.73467">
        <ele>2200</ele>
        <time>2026-07-29T06:41:17.716Z</time>
      </trkpt>
      <trkpt lat="45.76035" lon="6.73466">
        <ele>2200</ele>
        <time>2026-07-29T06:41:18.716Z</time>
      </trkpt>
      <trkpt lat="45.76035" lon="6.73465">
        <ele>2200</ele>
        <time>2026-07-29T06:41:19.716Z</time>
      </trkpt>
      <trkpt lat="45.76034" lon="6.73464">
        <ele>2201</ele>
        <time>2026-07-29T06:41:20.716Z</time>
      </trkpt>
      <trkpt lat="45.76034" lon="6.73464">
        <ele>2201</ele>
        <time>2026-07-29T06:41:21.716Z</time>
      </trkpt>
      <trkpt lat="45.76034" lon="6.73463">
        <ele>2201</ele>
        <time>2026-07-29T06:41:22.716Z</time>
      </trkpt>
      <trkpt lat="45.76033" lon="6.73462">
        <ele>2201</ele>
        <time>2026-07-29T06:41:23.716Z</time>
      </trkpt>
      <trkpt lat="45.76032" lon="6.73462">
        <ele>2201</ele>
        <time>2026-07-29T06:41:24.716Z</time>
      </trkpt>
      <trkpt lat="45.76032" lon="6.73461">
        <ele>2201</ele>
        <time>2026-07-29T06:41:25.716Z</time>
      </trkpt>
      <trkpt lat="45.76031" lon="6.7346">
        <ele>2201</ele>
        <time>2026-07-29T06:41:26.716Z</time>
      </trkpt>
      <trkpt lat="45.76031" lon="6.73459">
        <ele>2201</ele>
        <time>2026-07-29T06:41:27.716Z</time>
      </trkpt>
      <trkpt lat="45.7603" lon="6.73458">
        <ele>2201</ele>
        <time>2026-07-29T06:41:28.716Z</time>
      </trkpt>
      <trkpt lat="45.7603" lon="6.73457">
        <ele>2201</ele>
        <time>2026-07-29T06:41:29.716Z</time>
      </trkpt>
      <trkpt lat="45.76029" lon="6.73456">
        <ele>2201</ele>
        <time>2026-07-29T06:41:30.716Z</time>
      </trkpt>
      <trkpt lat="45.76028" lon="6.73455">
        <ele>2201</ele>
        <time>2026-07-29T06:41:31.716Z</time>
      </trkpt>
      <trkpt lat="45.76028" lon="6.73454">
        <ele>2202</ele>
        <time>2026-07-29T06:41:32.716Z</time>
      </trkpt>
      <trkpt lat="45.76027" lon="6.73453">
        <ele>2202</ele>
        <time>2026-07-29T06:41:33.716Z</time>
      </trkpt>
      <trkpt lat="45.76027" lon="6.73453">
        <ele>2202</ele>
        <time>2026-07-29T06:41:34.716Z</time>
      </trkpt>
      <trkpt lat="45.76027" lon="6.73452">
        <ele>2202</ele>
        <time>2026-07-29T06:41:35.716Z</time>
      </trkpt>
      <trkpt lat="45.76027" lon="6.73452">
        <ele>2202</ele>
        <time>2026-07-29T06:41:36.716Z</time>
      </trkpt>
      <trkpt lat="45.76026" lon="6.73452">
        <ele>2202</ele>
        <time>2026-07-29T06:41:37.716Z</time>
      </trkpt>
      <trkpt lat="45.76026" lon="6.73451">
        <ele>2202</ele>
        <time>2026-07-29T06:41:38.716Z</time>
      </trkpt>
      <trkpt lat="45.76026" lon="6.73451">
        <ele>2202</ele>
        <time>2026-07-29T06:41:39.716Z</time>
      </trkpt>
      <trkpt lat="45.76026" lon="6.7345">
        <ele>2202</ele>
        <time>2026-07-29T06:41:40.716Z</time>
      </trkpt>
      <trkpt lat="45.76026" lon="6.73449">
        <ele>2202</ele>
        <time>2026-07-29T06:41:41.716Z</time>
      </trkpt>
      <trkpt lat="45.76025" lon="6.73448">
        <ele>2202</ele>
        <time>2026-07-29T06:41:42.716Z</time>
      </trkpt>
      <trkpt lat="45.76025" lon="6.73447">
        <ele>2202</ele>
        <time>2026-07-29T06:41:43.716Z</time>
      </trkpt>
      <trkpt lat="45.76024" lon="6.73446">
        <ele>2202</ele>
        <time>2026-07-29T06:41:44.716Z</time>
      </trkpt>
      <trkpt lat="45.76024" lon="6.73446">
        <ele>2202</ele>
        <time>2026-07-29T06:41:45.716Z</time>
      </trkpt>
      <trkpt lat="45.76024" lon="6.73445">
        <ele>2202</ele>
        <time>2026-07-29T06:41:46.716Z</time>
      </trkpt>
      <trkpt lat="45.76023" lon="6.73444">
        <ele>2202</ele>
        <time>2026-07-29T06:41:47.716Z</time>
      </trkpt>
      <trkpt lat="45.76023" lon="6.73443">
        <ele>2202</ele>
        <time>2026-07-29T06:41:48.716Z</time>
      </trkpt>
      <trkpt lat="45.76023" lon="6.73442">
        <ele>2202</ele>
        <time>2026-07-29T06:41:49.716Z</time>
      </trkpt>
      <trkpt lat="45.76023" lon="6.73441">
        <ele>2202</ele>
        <time>2026-07-29T06:41:50.716Z</time>
      </trkpt>
      <trkpt lat="45.76023" lon="6.7344">
        <ele>2202</ele>
        <time>2026-07-29T06:41:51.716Z</time>
      </trkpt>
      <trkpt lat="45.76023" lon="6.7344">
        <ele>2203</ele>
        <time>2026-07-29T06:41:52.716Z</time>
      </trkpt>
      <trkpt lat="45.76023" lon="6.73439">
        <ele>2203</ele>
        <time>2026-07-29T06:41:53.716Z</time>
      </trkpt>
      <trkpt lat="45.76023" lon="6.73439">
        <ele>2203</ele>
        <time>2026-07-29T06:41:54.716Z</time>
      </trkpt>
      <trkpt lat="45.76023" lon="6.73439">
        <ele>2204</ele>
        <time>2026-07-29T06:41:55.716Z</time>
      </trkpt>
      <trkpt lat="45.76023" lon="6.73439">
        <ele>2204</ele>
        <time>2026-07-29T06:41:56.716Z</time>
      </trkpt>
      <trkpt lat="45.76023" lon="6.7344">
        <ele>2204</ele>
        <time>2026-07-29T06:41:57.716Z</time>
      </trkpt>
      <trkpt lat="45.76022" lon="6.7344">
        <ele>2204</ele>
        <time>2026-07-29T06:41:58.716Z</time>
      </trkpt>
      <trkpt lat="45.76021" lon="6.7344">
        <ele>2204</ele>
        <time>2026-07-29T06:41:59.716Z</time>
      </trkpt>
      <trkpt lat="45.76021" lon="6.7344">
        <ele>2205</ele>
        <time>2026-07-29T06:42:00.716Z</time>
      </trkpt>
      <trkpt lat="45.7602" lon="6.7344">
        <ele>2205</ele>
        <time>2026-07-29T06:42:01.716Z</time>
      </trkpt>
      <trkpt lat="45.7602" lon="6.73439">
        <ele>2205</ele>
        <time>2026-07-29T06:42:02.716Z</time>
      </trkpt>
      <trkpt lat="45.7602" lon="6.73439">
        <ele>2205</ele>
        <time>2026-07-29T06:42:03.716Z</time>
      </trkpt>
      <trkpt lat="45.7602" lon="6.73439">
        <ele>2205</ele>
        <time>2026-07-29T06:42:04.716Z</time>
      </trkpt>
      <trkpt lat="45.7602" lon="6.73439">
        <ele>2206</ele>
        <time>2026-07-29T06:42:05.716Z</time>
      </trkpt>
      <trkpt lat="45.7602" lon="6.73439">
        <ele>2206</ele>
        <time>2026-07-29T06:42:06.716Z</time>
      </trkpt>
      <trkpt lat="45.7602" lon="6.73439">
        <ele>2205</ele>
        <time>2026-07-29T06:42:07.716Z</time>
      </trkpt>
      <trkpt lat="45.7602" lon="6.73439">
        <ele>2205</ele>
        <time>2026-07-29T06:42:08.716Z</time>
      </trkpt>
      <trkpt lat="45.7602" lon="6.73439">
        <ele>2205</ele>
        <time>2026-07-29T06:42:09.716Z</time>
      </trkpt>
      <trkpt lat="45.7602" lon="6.73439">
        <ele>2205</ele>
        <time>2026-07-29T06:42:10.716Z</time>
      </trkpt>
      <trkpt lat="45.76019" lon="6.73439">
        <ele>2205</ele>
        <time>2026-07-29T06:42:11.716Z</time>
      </trkpt>
      <trkpt lat="45.76018" lon="6.73438">
        <ele>2205</ele>
        <time>2026-07-29T06:42:12.716Z</time>
      </trkpt>
      <trkpt lat="45.76017" lon="6.73437">
        <ele>2205</ele>
        <time>2026-07-29T06:42:13.716Z</time>
      </trkpt>
      <trkpt lat="45.76015" lon="6.73437">
        <ele>2205</ele>
        <time>2026-07-29T06:42:14.716Z</time>
      </trkpt>
      <trkpt lat="45.76014" lon="6.73436">
        <ele>2205</ele>
        <time>2026-07-29T06:42:15.716Z</time>
      </trkpt>
      <trkpt lat="45.76013" lon="6.73436">
        <ele>2205</ele>
        <time>2026-07-29T06:42:16.716Z</time>
      </trkpt>
      <trkpt lat="45.76012" lon="6.73436">
        <ele>2205</ele>
        <time>2026-07-29T06:42:17.716Z</time>
      </trkpt>
      <trkpt lat="45.76011" lon="6.73437">
        <ele>2205</ele>
        <time>2026-07-29T06:42:18.716Z</time>
      </trkpt>
      <trkpt lat="45.7601" lon="6.73437">
        <ele>2205</ele>
        <time>2026-07-29T06:42:19.716Z</time>
      </trkpt>
      <trkpt lat="45.76009" lon="6.73438">
        <ele>2205</ele>
        <time>2026-07-29T06:42:20.716Z</time>
      </trkpt>
      <trkpt lat="45.76009" lon="6.73438">
        <ele>2205</ele>
        <time>2026-07-29T06:42:21.716Z</time>
      </trkpt>
      <trkpt lat="45.76008" lon="6.73439">
        <ele>2205</ele>
        <time>2026-07-29T06:42:22.716Z</time>
      </trkpt>
      <trkpt lat="45.76007" lon="6.7344">
        <ele>2204</ele>
        <time>2026-07-29T06:42:23.716Z</time>
      </trkpt>
      <trkpt lat="45.76006" lon="6.73441">
        <ele>2204</ele>
        <time>2026-07-29T06:42:24.716Z</time>
      </trkpt>
      <trkpt lat="45.76005" lon="6.73442">
        <ele>2204</ele>
        <time>2026-07-29T06:42:25.716Z</time>
      </trkpt>
      <trkpt lat="45.76004" lon="6.73442">
        <ele>2204</ele>
        <time>2026-07-29T06:42:26.716Z</time>
      </trkpt>
      <trkpt lat="45.76003" lon="6.73443">
        <ele>2204</ele>
        <time>2026-07-29T06:42:27.716Z</time>
      </trkpt>
      <trkpt lat="45.76002" lon="6.73443">
        <ele>2204</ele>
        <time>2026-07-29T06:42:28.716Z</time>
      </trkpt>
      <trkpt lat="45.76001" lon="6.73442">
        <ele>2204</ele>
        <time>2026-07-29T06:42:29.716Z</time>
      </trkpt>
      <trkpt lat="45.76" lon="6.73442">
        <ele>2204</ele>
        <time>2026-07-29T06:42:30.716Z</time>
      </trkpt>
      <trkpt lat="45.76" lon="6.73441">
        <ele>2205</ele>
        <time>2026-07-29T06:42:31.716Z</time>
      </trkpt>
      <trkpt lat="45.75999" lon="6.73439">
        <ele>2205</ele>
        <time>2026-07-29T06:42:32.716Z</time>
      </trkpt>
      <trkpt lat="45.75999" lon="6.73438">
        <ele>2205</ele>
        <time>2026-07-29T06:42:33.716Z</time>
      </trkpt>
      <trkpt lat="45.75998" lon="6.73436">
        <ele>2205</ele>
        <time>2026-07-29T06:42:34.716Z</time>
      </trkpt>
      <trkpt lat="45.75998" lon="6.73435">
        <ele>2205</ele>
        <time>2026-07-29T06:42:35.716Z</time>
      </trkpt>
      <trkpt lat="45.75997" lon="6.73433">
        <ele>2205</ele>
        <time>2026-07-29T06:42:36.716Z</time>
      </trkpt>
      <trkpt lat="45.75997" lon="6.73432">
        <ele>2205</ele>
        <time>2026-07-29T06:42:37.716Z</time>
      </trkpt>
      <trkpt lat="45.75996" lon="6.73431">
        <ele>2206</ele>
        <time>2026-07-29T06:42:38.716Z</time>
      </trkpt>
      <trkpt lat="45.75995" lon="6.73429">
        <ele>2206</ele>
        <time>2026-07-29T06:42:39.716Z</time>
      </trkpt>
      <trkpt lat="45.75995" lon="6.73428">
        <ele>2206</ele>
        <time>2026-07-29T06:42:40.717Z</time>
      </trkpt>
      <trkpt lat="45.75994" lon="6.73427">
        <ele>2206</ele>
        <time>2026-07-29T06:42:41.716Z</time>
      </trkpt>
      <trkpt lat="45.75994" lon="6.73426">
        <ele>2206</ele>
        <time>2026-07-29T06:42:42.716Z</time>
      </trkpt>
      <trkpt lat="45.75993" lon="6.73424">
        <ele>2206</ele>
        <time>2026-07-29T06:42:43.716Z</time>
      </trkpt>
      <trkpt lat="45.75993" lon="6.73423">
        <ele>2206</ele>
        <time>2026-07-29T06:42:44.716Z</time>
      </trkpt>
      <trkpt lat="45.75993" lon="6.73421">
        <ele>2206</ele>
        <time>2026-07-29T06:42:45.716Z</time>
      </trkpt>
      <trkpt lat="45.75993" lon="6.7342">
        <ele>2206</ele>
        <time>2026-07-29T06:42:46.716Z</time>
      </trkpt>
      <trkpt lat="45.75992" lon="6.73419">
        <ele>2206</ele>
        <time>2026-07-29T06:42:47.716Z</time>
      </trkpt>
      <trkpt lat="45.75991" lon="6.73419">
        <ele>2207</ele>
        <time>2026-07-29T06:42:48.716Z</time>
      </trkpt>
      <trkpt lat="45.75991" lon="6.73418">
        <ele>2207</ele>
        <time>2026-07-29T06:42:49.716Z</time>
      </trkpt>
      <trkpt lat="45.7599" lon="6.73418">
        <ele>2207</ele>
        <time>2026-07-29T06:42:50.716Z</time>
      </trkpt>
      <trkpt lat="45.7599" lon="6.73418">
        <ele>2207</ele>
        <time>2026-07-29T06:42:51.716Z</time>
      </trkpt>
      <trkpt lat="45.7599" lon="6.73418">
        <ele>2207</ele>
        <time>2026-07-29T06:42:52.716Z</time>
      </trkpt>
      <trkpt lat="45.7599" lon="6.73418">
        <ele>2207</ele>
        <time>2026-07-29T06:42:53.716Z</time>
      </trkpt>
      <trkpt lat="45.7599" lon="6.73418">
        <ele>2207</ele>
        <time>2026-07-29T06:42:54.716Z</time>
      </trkpt>
      <trkpt lat="45.7599" lon="6.73418">
        <ele>2207</ele>
        <time>2026-07-29T06:42:55.716Z</time>
      </trkpt>
      <trkpt lat="45.7599" lon="6.73418">
        <ele>2207</ele>
        <time>2026-07-29T06:42:56.716Z</time>
      </trkpt>
      <trkpt lat="45.7599" lon="6.73418">
        <ele>2207</ele>
        <time>2026-07-29T06:42:57.716Z</time>
      </trkpt>
      <trkpt lat="45.7599" lon="6.73418">
        <ele>2207</ele>
        <time>2026-07-29T06:42:58.716Z</time>
      </trkpt>
      <trkpt lat="45.7599" lon="6.73418">
        <ele>2207</ele>
        <time>2026-07-29T06:42:59.716Z</time>
      </trkpt>
      <trkpt lat="45.7599" lon="6.73418">
        <ele>2207</ele>
        <time>2026-07-29T06:43:00.716Z</time>
      </trkpt>
      <trkpt lat="45.7599" lon="6.73418">
        <ele>2208</ele>
        <time>2026-07-29T06:43:01.716Z</time>
      </trkpt>
      <trkpt lat="45.7599" lon="6.73418">
        <ele>2208</ele>
        <time>2026-07-29T06:43:02.716Z</time>
      </trkpt>
      <trkpt lat="45.7599" lon="6.73418">
        <ele>2209</ele>
        <time>2026-07-29T06:43:03.716Z</time>
      </trkpt>
      <trkpt lat="45.7599" lon="6.73418">
        <ele>2209</ele>
        <time>2026-07-29T06:43:04.716Z</time>
      </trkpt>
      <trkpt lat="45.7599" lon="6.73418">
        <ele>2209</ele>
        <time>2026-07-29T06:43:05.716Z</time>
      </trkpt>
      <trkpt lat="45.7599" lon="6.73418">
        <ele>2209</ele>
        <time>2026-07-29T06:43:06.716Z</time>
      </trkpt>
      <trkpt lat="45.7599" lon="6.73418">
        <ele>2209</ele>
        <time>2026-07-29T06:43:07.716Z</time>
      </trkpt>
      <trkpt lat="45.7599" lon="6.73418">
        <ele>2210</ele>
        <time>2026-07-29T06:43:08.716Z</time>
      </trkpt>
      <trkpt lat="45.7599" lon="6.73418">
        <ele>2210</ele>
        <time>2026-07-29T06:43:09.716Z</time>
      </trkpt>
      <trkpt lat="45.7599" lon="6.73418">
        <ele>2210</ele>
        <time>2026-07-29T06:43:10.716Z</time>
      </trkpt>
      <trkpt lat="45.7599" lon="6.73418">
        <ele>2210</ele>
        <time>2026-07-29T06:43:11.716Z</time>
      </trkpt>
      <trkpt lat="45.7599" lon="6.73418">
        <ele>2210</ele>
        <time>2026-07-29T06:43:12.716Z</time>
      </trkpt>
      <trkpt lat="45.7599" lon="6.73418">
        <ele>2210</ele>
        <time>2026-07-29T06:43:13.716Z</time>
      </trkpt>
      <trkpt lat="45.7599" lon="6.73418">
        <ele>2210</ele>
        <time>2026-07-29T06:43:14.716Z</time>
      </trkpt>
      <trkpt lat="45.75988" lon="6.73418">
        <ele>2210</ele>
        <time>2026-07-29T06:43:15.716Z</time>
      </trkpt>
      <trkpt lat="45.75986" lon="6.73418">
        <ele>2210</ele>
        <time>2026-07-29T06:43:16.716Z</time>
      </trkpt>
      <trkpt lat="45.75984" lon="6.73417">
        <ele>2210</ele>
        <time>2026-07-29T06:43:17.716Z</time>
      </trkpt>
      <trkpt lat="45.75983" lon="6.73415">
        <ele>2210</ele>
        <time>2026-07-29T06:43:18.716Z</time>
      </trkpt>
      <trkpt lat="45.75982" lon="6.73414">
        <ele>2209</ele>
        <time>2026-07-29T06:43:19.716Z</time>
      </trkpt>
      <trkpt lat="45.75981" lon="6.73412">
        <ele>2209</ele>
        <time>2026-07-29T06:43:20.716Z</time>
      </trkpt>
      <trkpt lat="45.7598" lon="6.73411">
        <ele>2208</ele>
        <time>2026-07-29T06:43:21.716Z</time>
      </trkpt>
      <trkpt lat="45.75979" lon="6.7341">
        <ele>2208</ele>
        <time>2026-07-29T06:43:22.716Z</time>
      </trkpt>
      <trkpt lat="45.75978" lon="6.73409">
        <ele>2207</ele>
        <time>2026-07-29T06:43:23.716Z</time>
      </trkpt>
      <trkpt lat="45.75978" lon="6.73408">
        <ele>2206</ele>
        <time>2026-07-29T06:43:24.716Z</time>
      </trkpt>
      <trkpt lat="45.75977" lon="6.73407">
        <ele>2206</ele>
        <time>2026-07-29T06:43:25.716Z</time>
      </trkpt>
      <trkpt lat="45.75977" lon="6.73406">
        <ele>2206</ele>
        <time>2026-07-29T06:43:26.716Z</time>
      </trkpt>
      <trkpt lat="45.75977" lon="6.73405">
        <ele>2205</ele>
        <time>2026-07-29T06:43:27.716Z</time>
      </trkpt>
      <trkpt lat="45.75976" lon="6.73405">
        <ele>2205</ele>
        <time>2026-07-29T06:43:28.716Z</time>
      </trkpt>
      <trkpt lat="45.75976" lon="6.73404">
        <ele>2205</ele>
        <time>2026-07-29T06:43:29.716Z</time>
      </trkpt>
      <trkpt lat="45.75975" lon="6.73404">
        <ele>2205</ele>
        <time>2026-07-29T06:43:30.716Z</time>
      </trkpt>
      <trkpt lat="45.75975" lon="6.73403">
        <ele>2205</ele>
        <time>2026-07-29T06:43:31.716Z</time>
      </trkpt>
      <trkpt lat="45.75974" lon="6.73402">
        <ele>2205</ele>
        <time>2026-07-29T06:43:32.716Z</time>
      </trkpt>
      <trkpt lat="45.75974" lon="6.73402">
        <ele>2205</ele>
        <time>2026-07-29T06:43:33.716Z</time>
      </trkpt>
      <trkpt lat="45.75974" lon="6.73401">
        <ele>2205</ele>
        <time>2026-07-29T06:43:34.716Z</time>
      </trkpt>
      <trkpt lat="45.75974" lon="6.73401">
        <ele>2205</ele>
        <time>2026-07-29T06:43:35.716Z</time>
      </trkpt>
      <trkpt lat="45.75974" lon="6.734">
        <ele>2205</ele>
        <time>2026-07-29T06:43:36.716Z</time>
      </trkpt>
      <trkpt lat="45.75973" lon="6.734">
        <ele>2205</ele>
        <time>2026-07-29T06:43:37.716Z</time>
      </trkpt>
      <trkpt lat="45.75973" lon="6.734">
        <ele>2205</ele>
        <time>2026-07-29T06:43:38.716Z</time>
      </trkpt>
      <trkpt lat="45.75972" lon="6.73399">
        <ele>2204</ele>
        <time>2026-07-29T06:43:39.716Z</time>
      </trkpt>
      <trkpt lat="45.75972" lon="6.73398">
        <ele>2204</ele>
        <time>2026-07-29T06:43:40.716Z</time>
      </trkpt>
      <trkpt lat="45.75972" lon="6.73396">
        <ele>2204</ele>
        <time>2026-07-29T06:43:41.716Z</time>
      </trkpt>
      <trkpt lat="45.75971" lon="6.73395">
        <ele>2204</ele>
        <time>2026-07-29T06:43:42.716Z</time>
      </trkpt>
      <trkpt lat="45.7597" lon="6.73393">
        <ele>2204</ele>
        <time>2026-07-29T06:43:43.716Z</time>
      </trkpt>
      <trkpt lat="45.7597" lon="6.73392">
        <ele>2203</ele>
        <time>2026-07-29T06:43:44.716Z</time>
      </trkpt>
      <trkpt lat="45.75969" lon="6.73391">
        <ele>2203</ele>
        <time>2026-07-29T06:43:45.716Z</time>
      </trkpt>
      <trkpt lat="45.75969" lon="6.7339">
        <ele>2203</ele>
        <time>2026-07-29T06:43:46.716Z</time>
      </trkpt>
      <trkpt lat="45.75968" lon="6.73388">
        <ele>2203</ele>
        <time>2026-07-29T06:43:47.716Z</time>
      </trkpt>
      <trkpt lat="45.75967" lon="6.73388">
        <ele>2202</ele>
        <time>2026-07-29T06:43:48.716Z</time>
      </trkpt>
      <trkpt lat="45.75967" lon="6.73386">
        <ele>2202</ele>
        <time>2026-07-29T06:43:49.716Z</time>
      </trkpt>
      <trkpt lat="45.75966" lon="6.73386">
        <ele>2202</ele>
        <time>2026-07-29T06:43:50.716Z</time>
      </trkpt>
      <trkpt lat="45.75966" lon="6.73385">
        <ele>2201</ele>
        <time>2026-07-29T06:43:51.716Z</time>
      </trkpt>
      <trkpt lat="45.75966" lon="6.73384">
        <ele>2201</ele>
        <time>2026-07-29T06:43:52.716Z</time>
      </trkpt>
      <trkpt lat="45.75965" lon="6.73383">
        <ele>2200</ele>
        <time>2026-07-29T06:43:53.716Z</time>
      </trkpt>
      <trkpt lat="45.75964" lon="6.73382">
        <ele>2200</ele>
        <time>2026-07-29T06:43:54.716Z</time>
      </trkpt>
      <trkpt lat="45.75964" lon="6.73381">
        <ele>2200</ele>
        <time>2026-07-29T06:43:55.716Z</time>
      </trkpt>
      <trkpt lat="45.75963" lon="6.7338">
        <ele>2200</ele>
        <time>2026-07-29T06:43:56.716Z</time>
      </trkpt>
      <trkpt lat="45.75963" lon="6.73379">
        <ele>2199</ele>
        <time>2026-07-29T06:43:57.716Z</time>
      </trkpt>
      <trkpt lat="45.75963" lon="6.73378">
        <ele>2199</ele>
        <time>2026-07-29T06:43:58.716Z</time>
      </trkpt>
      <trkpt lat="45.75963" lon="6.73378">
        <ele>2198</ele>
        <time>2026-07-29T06:43:59.716Z</time>
      </trkpt>
      <trkpt lat="45.75962" lon="6.73377">
        <ele>2198</ele>
        <time>2026-07-29T06:44:00.716Z</time>
      </trkpt>
      <trkpt lat="45.75962" lon="6.73377">
        <ele>2198</ele>
        <time>2026-07-29T06:44:01.716Z</time>
      </trkpt>
      <trkpt lat="45.75961" lon="6.73376">
        <ele>2198</ele>
        <time>2026-07-29T06:44:02.716Z</time>
      </trkpt>
      <trkpt lat="45.75961" lon="6.73376">
        <ele>2198</ele>
        <time>2026-07-29T06:44:03.716Z</time>
      </trkpt>
      <trkpt lat="45.7596" lon="6.73376">
        <ele>2198</ele>
        <time>2026-07-29T06:44:04.716Z</time>
      </trkpt>
      <trkpt lat="45.75959" lon="6.73376">
        <ele>2198</ele>
        <time>2026-07-29T06:44:05.716Z</time>
      </trkpt>
      <trkpt lat="45.75958" lon="6.73376">
        <ele>2197</ele>
        <time>2026-07-29T06:44:06.716Z</time>
      </trkpt>
      <trkpt lat="45.75957" lon="6.73376">
        <ele>2197</ele>
        <time>2026-07-29T06:44:07.716Z</time>
      </trkpt>
      <trkpt lat="45.75956" lon="6.73376">
        <ele>2196</ele>
        <time>2026-07-29T06:44:08.716Z</time>
      </trkpt>
      <trkpt lat="45.75955" lon="6.73375">
        <ele>2196</ele>
        <time>2026-07-29T06:44:09.716Z</time>
      </trkpt>
      <trkpt lat="45.75954" lon="6.73375">
        <ele>2196</ele>
        <time>2026-07-29T06:44:10.716Z</time>
      </trkpt>
      <trkpt lat="45.75952" lon="6.73374">
        <ele>2196</ele>
        <time>2026-07-29T06:44:11.716Z</time>
      </trkpt>
      <trkpt lat="45.7595" lon="6.73374">
        <ele>2196</ele>
        <time>2026-07-29T06:44:12.716Z</time>
      </trkpt>
      <trkpt lat="45.75949" lon="6.73374">
        <ele>2196</ele>
        <time>2026-07-29T06:44:13.716Z</time>
      </trkpt>
      <trkpt lat="45.75947" lon="6.73373">
        <ele>2196</ele>
        <time>2026-07-29T06:44:14.716Z</time>
      </trkpt>
      <trkpt lat="45.75946" lon="6.73373">
        <ele>2196</ele>
        <time>2026-07-29T06:44:15.716Z</time>
      </trkpt>
      <trkpt lat="45.75945" lon="6.73372">
        <ele>2196</ele>
        <time>2026-07-29T06:44:16.716Z</time>
      </trkpt>
      <trkpt lat="45.75944" lon="6.73371">
        <ele>2196</ele>
        <time>2026-07-29T06:44:17.716Z</time>
      </trkpt>
      <trkpt lat="45.75943" lon="6.73371">
        <ele>2196</ele>
        <time>2026-07-29T06:44:18.716Z</time>
      </trkpt>
      <trkpt lat="45.75942" lon="6.7337">
        <ele>2196</ele>
        <time>2026-07-29T06:44:19.716Z</time>
      </trkpt>
      <trkpt lat="45.75942" lon="6.7337">
        <ele>2196</ele>
        <time>2026-07-29T06:44:20.716Z</time>
      </trkpt>
      <trkpt lat="45.75941" lon="6.73369">
        <ele>2197</ele>
        <time>2026-07-29T06:44:21.716Z</time>
      </trkpt>
      <trkpt lat="45.7594" lon="6.73369">
        <ele>2196</ele>
        <time>2026-07-29T06:44:22.716Z</time>
      </trkpt>
      <trkpt lat="45.7594" lon="6.73369">
        <ele>2196</ele>
        <time>2026-07-29T06:44:23.716Z</time>
      </trkpt>
      <trkpt lat="45.7594" lon="6.73369">
        <ele>2196</ele>
        <time>2026-07-29T06:44:24.716Z</time>
      </trkpt>
      <trkpt lat="45.75939" lon="6.73369">
        <ele>2196</ele>
        <time>2026-07-29T06:44:25.716Z</time>
      </trkpt>
      <trkpt lat="45.75939" lon="6.73369">
        <ele>2196</ele>
        <time>2026-07-29T06:44:26.716Z</time>
      </trkpt>
      <trkpt lat="45.75939" lon="6.73368">
        <ele>2196</ele>
        <time>2026-07-29T06:44:27.716Z</time>
      </trkpt>
      <trkpt lat="45.75939" lon="6.73368">
        <ele>2196</ele>
        <time>2026-07-29T06:44:28.716Z</time>
      </trkpt>
      <trkpt lat="45.75939" lon="6.73368">
        <ele>2197</ele>
        <time>2026-07-29T06:44:29.716Z</time>
      </trkpt>
      <trkpt lat="45.75939" lon="6.73368">
        <ele>2196</ele>
        <time>2026-07-29T06:44:30.716Z</time>
      </trkpt>
      <trkpt lat="45.75938" lon="6.73368">
        <ele>2196</ele>
        <time>2026-07-29T06:44:31.716Z</time>
      </trkpt>
      <trkpt lat="45.75937" lon="6.73367">
        <ele>2196</ele>
        <time>2026-07-29T06:44:32.716Z</time>
      </trkpt>
      <trkpt lat="45.75936" lon="6.73367">
        <ele>2195</ele>
        <time>2026-07-29T06:44:33.716Z</time>
      </trkpt>
      <trkpt lat="45.75935" lon="6.73366">
        <ele>2195</ele>
        <time>2026-07-29T06:44:34.716Z</time>
      </trkpt>
      <trkpt lat="45.75933" lon="6.73365">
        <ele>2195</ele>
        <time>2026-07-29T06:44:35.716Z</time>
      </trkpt>
      <trkpt lat="45.75932" lon="6.73364">
        <ele>2195</ele>
        <time>2026-07-29T06:44:36.716Z</time>
      </trkpt>
      <trkpt lat="45.75931" lon="6.73362">
        <ele>2195</ele>
        <time>2026-07-29T06:44:37.716Z</time>
      </trkpt>
      <trkpt lat="45.7593" lon="6.7336">
        <ele>2195</ele>
        <time>2026-07-29T06:44:38.716Z</time>
      </trkpt>
      <trkpt lat="45.75929" lon="6.73359">
        <ele>2195</ele>
        <time>2026-07-29T06:44:39.716Z</time>
      </trkpt>
      <trkpt lat="45.75928" lon="6.73356">
        <ele>2195</ele>
        <time>2026-07-29T06:44:40.716Z</time>
      </trkpt>
      <trkpt lat="45.75928" lon="6.73354">
        <ele>2195</ele>
        <time>2026-07-29T06:44:41.716Z</time>
      </trkpt>
      <trkpt lat="45.75927" lon="6.73352">
        <ele>2194</ele>
        <time>2026-07-29T06:44:42.716Z</time>
      </trkpt>
      <trkpt lat="45.75927" lon="6.7335">
        <ele>2194</ele>
        <time>2026-07-29T06:44:43.716Z</time>
      </trkpt>
      <trkpt lat="45.75926" lon="6.73349">
        <ele>2195</ele>
        <time>2026-07-29T06:44:44.716Z</time>
      </trkpt>
      <trkpt lat="45.75925" lon="6.73347">
        <ele>2194</ele>
        <time>2026-07-29T06:44:45.716Z</time>
      </trkpt>
      <trkpt lat="45.75924" lon="6.73346">
        <ele>2194</ele>
        <time>2026-07-29T06:44:46.716Z</time>
      </trkpt>
      <trkpt lat="45.75923" lon="6.73345">
        <ele>2195</ele>
        <time>2026-07-29T06:44:47.716Z</time>
      </trkpt>
      <trkpt lat="45.75921" lon="6.73343">
        <ele>2195</ele>
        <time>2026-07-29T06:44:48.716Z</time>
      </trkpt>
      <trkpt lat="45.7592" lon="6.73342">
        <ele>2195</ele>
        <time>2026-07-29T06:44:49.716Z</time>
      </trkpt>
      <trkpt lat="45.75919" lon="6.73341">
        <ele>2194</ele>
        <time>2026-07-29T06:44:50.716Z</time>
      </trkpt>
      <trkpt lat="45.75918" lon="6.7334">
        <ele>2194</ele>
        <time>2026-07-29T06:44:51.716Z</time>
      </trkpt>
      <trkpt lat="45.75917" lon="6.73339">
        <ele>2194</ele>
        <time>2026-07-29T06:44:52.716Z</time>
      </trkpt>
      <trkpt lat="45.75916" lon="6.73337">
        <ele>2193</ele>
        <time>2026-07-29T06:44:53.716Z</time>
      </trkpt>
      <trkpt lat="45.75915" lon="6.73335">
        <ele>2193</ele>
        <time>2026-07-29T06:44:54.716Z</time>
      </trkpt>
      <trkpt lat="45.75915" lon="6.73333">
        <ele>2193</ele>
        <time>2026-07-29T06:44:55.716Z</time>
      </trkpt>
      <trkpt lat="45.75914" lon="6.73331">
        <ele>2193</ele>
        <time>2026-07-29T06:44:56.716Z</time>
      </trkpt>
      <trkpt lat="45.75913" lon="6.7333">
        <ele>2193</ele>
        <time>2026-07-29T06:44:57.716Z</time>
      </trkpt>
      <trkpt lat="45.75912" lon="6.73329">
        <ele>2193</ele>
        <time>2026-07-29T06:44:58.716Z</time>
      </trkpt>
      <trkpt lat="45.75911" lon="6.73327">
        <ele>2192</ele>
        <time>2026-07-29T06:44:59.716Z</time>
      </trkpt>
      <trkpt lat="45.75911" lon="6.73326">
        <ele>2192</ele>
        <time>2026-07-29T06:45:00.716Z</time>
      </trkpt>
      <trkpt lat="45.7591" lon="6.73325">
        <ele>2192</ele>
        <time>2026-07-29T06:45:01.716Z</time>
      </trkpt>
      <trkpt lat="45.7591" lon="6.73324">
        <ele>2191</ele>
        <time>2026-07-29T06:45:02.716Z</time>
      </trkpt>
      <trkpt lat="45.7591" lon="6.73323">
        <ele>2191</ele>
        <time>2026-07-29T06:45:03.716Z</time>
      </trkpt>
      <trkpt lat="45.75909" lon="6.73323">
        <ele>2191</ele>
        <time>2026-07-29T06:45:04.716Z</time>
      </trkpt>
      <trkpt lat="45.75908" lon="6.73323">
        <ele>2191</ele>
        <time>2026-07-29T06:45:05.716Z</time>
      </trkpt>
      <trkpt lat="45.75908" lon="6.73322">
        <ele>2191</ele>
        <time>2026-07-29T06:45:06.716Z</time>
      </trkpt>
      <trkpt lat="45.75907" lon="6.73321">
        <ele>2191</ele>
        <time>2026-07-29T06:45:07.716Z</time>
      </trkpt>
      <trkpt lat="45.75907" lon="6.73321">
        <ele>2191</ele>
        <time>2026-07-29T06:45:08.716Z</time>
      </trkpt>
      <trkpt lat="45.75906" lon="6.73321">
        <ele>2191</ele>
        <time>2026-07-29T06:45:09.716Z</time>
      </trkpt>
      <trkpt lat="45.75905" lon="6.73321">
        <ele>2191</ele>
        <time>2026-07-29T06:45:10.716Z</time>
      </trkpt>
      <trkpt lat="45.75905" lon="6.7332">
        <ele>2190</ele>
        <time>2026-07-29T06:45:11.716Z</time>
      </trkpt>
      <trkpt lat="45.75904" lon="6.73319">
        <ele>2190</ele>
        <time>2026-07-29T06:45:12.716Z</time>
      </trkpt>
      <trkpt lat="45.75904" lon="6.73318">
        <ele>2189</ele>
        <time>2026-07-29T06:45:13.716Z</time>
      </trkpt>
      <trkpt lat="45.75904" lon="6.73318">
        <ele>2189</ele>
        <time>2026-07-29T06:45:14.716Z</time>
      </trkpt>
      <trkpt lat="45.75904" lon="6.73317">
        <ele>2189</ele>
        <time>2026-07-29T06:45:15.716Z</time>
      </trkpt>
      <trkpt lat="45.75903" lon="6.73317">
        <ele>2189</ele>
        <time>2026-07-29T06:45:16.716Z</time>
      </trkpt>
      <trkpt lat="45.75902" lon="6.73317">
        <ele>2189</ele>
        <time>2026-07-29T06:45:17.716Z</time>
      </trkpt>
      <trkpt lat="45.75901" lon="6.73317">
        <ele>2189</ele>
        <time>2026-07-29T06:45:18.716Z</time>
      </trkpt>
      <trkpt lat="45.75901" lon="6.73316">
        <ele>2189</ele>
        <time>2026-07-29T06:45:19.716Z</time>
      </trkpt>
      <trkpt lat="45.759" lon="6.73315">
        <ele>2189</ele>
        <time>2026-07-29T06:45:20.716Z</time>
      </trkpt>
      <trkpt lat="45.75899" lon="6.73314">
        <ele>2188</ele>
        <time>2026-07-29T06:45:21.716Z</time>
      </trkpt>
      <trkpt lat="45.75898" lon="6.73312">
        <ele>2188</ele>
        <time>2026-07-29T06:45:22.716Z</time>
      </trkpt>
      <trkpt lat="45.75897" lon="6.7331">
        <ele>2188</ele>
        <time>2026-07-29T06:45:23.716Z</time>
      </trkpt>
      <trkpt lat="45.75897" lon="6.73308">
        <ele>2188</ele>
        <time>2026-07-29T06:45:24.716Z</time>
      </trkpt>
      <trkpt lat="45.75896" lon="6.73305">
        <ele>2187</ele>
        <time>2026-07-29T06:45:25.716Z</time>
      </trkpt>
      <trkpt lat="45.75895" lon="6.73303">
        <ele>2187</ele>
        <time>2026-07-29T06:45:26.716Z</time>
      </trkpt>
      <trkpt lat="45.75894" lon="6.733">
        <ele>2186</ele>
        <time>2026-07-29T06:45:27.716Z</time>
      </trkpt>
      <trkpt lat="45.75893" lon="6.73297">
        <ele>2186</ele>
        <time>2026-07-29T06:45:28.716Z</time>
      </trkpt>
      <trkpt lat="45.75892" lon="6.73295">
        <ele>2186</ele>
        <time>2026-07-29T06:45:29.716Z</time>
      </trkpt>
      <trkpt lat="45.75891" lon="6.73293">
        <ele>2186</ele>
        <time>2026-07-29T06:45:30.716Z</time>
      </trkpt>
      <trkpt lat="45.7589" lon="6.7329">
        <ele>2185</ele>
        <time>2026-07-29T06:45:31.716Z</time>
      </trkpt>
      <trkpt lat="45.7589" lon="6.73288">
        <ele>2185</ele>
        <time>2026-07-29T06:45:32.716Z</time>
      </trkpt>
      <trkpt lat="45.75889" lon="6.73285">
        <ele>2185</ele>
        <time>2026-07-29T06:45:33.716Z</time>
      </trkpt>
      <trkpt lat="45.75888" lon="6.73283">
        <ele>2185</ele>
        <time>2026-07-29T06:45:34.716Z</time>
      </trkpt>
      <trkpt lat="45.75887" lon="6.73282">
        <ele>2185</ele>
        <time>2026-07-29T06:45:35.716Z</time>
      </trkpt>
      <trkpt lat="45.75885" lon="6.7328">
        <ele>2185</ele>
        <time>2026-07-29T06:45:36.716Z</time>
      </trkpt>
      <trkpt lat="45.75885" lon="6.7328">
        <ele>2185</ele>
        <time>2026-07-29T06:45:37.716Z</time>
      </trkpt>
      <trkpt lat="45.75883" lon="6.7328">
        <ele>2185</ele>
        <time>2026-07-29T06:45:38.716Z</time>
      </trkpt>
      <trkpt lat="45.75882" lon="6.7328">
        <ele>2185</ele>
        <time>2026-07-29T06:45:39.716Z</time>
      </trkpt>
      <trkpt lat="45.75882" lon="6.7328">
        <ele>2185</ele>
        <time>2026-07-29T06:45:40.716Z</time>
      </trkpt>
      <trkpt lat="45.75881" lon="6.73279">
        <ele>2185</ele>
        <time>2026-07-29T06:45:41.716Z</time>
      </trkpt>
      <trkpt lat="45.7588" lon="6.73278">
        <ele>2185</ele>
        <time>2026-07-29T06:45:42.716Z</time>
      </trkpt>
      <trkpt lat="45.7588" lon="6.73277">
        <ele>2185</ele>
        <time>2026-07-29T06:45:43.716Z</time>
      </trkpt>
      <trkpt lat="45.75879" lon="6.73276">
        <ele>2184</ele>
        <time>2026-07-29T06:45:44.716Z</time>
      </trkpt>
      <trkpt lat="45.75878" lon="6.73274">
        <ele>2184</ele>
        <time>2026-07-29T06:45:45.716Z</time>
      </trkpt>
      <trkpt lat="45.75876" lon="6.73274">
        <ele>2184</ele>
        <time>2026-07-29T06:45:46.716Z</time>
      </trkpt>
      <trkpt lat="45.75875" lon="6.73272">
        <ele>2185</ele>
        <time>2026-07-29T06:45:47.716Z</time>
      </trkpt>
      <trkpt lat="45.75873" lon="6.73271">
        <ele>2185</ele>
        <time>2026-07-29T06:45:48.716Z</time>
      </trkpt>
      <trkpt lat="45.75872" lon="6.7327">
        <ele>2185</ele>
        <time>2026-07-29T06:45:49.716Z</time>
      </trkpt>
      <trkpt lat="45.7587" lon="6.73269">
        <ele>2185</ele>
        <time>2026-07-29T06:45:50.716Z</time>
      </trkpt>
      <trkpt lat="45.75869" lon="6.73268">
        <ele>2185</ele>
        <time>2026-07-29T06:45:51.716Z</time>
      </trkpt>
      <trkpt lat="45.75868" lon="6.73267">
        <ele>2185</ele>
        <time>2026-07-29T06:45:52.716Z</time>
      </trkpt>
      <trkpt lat="45.75867" lon="6.73266">
        <ele>2185</ele>
        <time>2026-07-29T06:45:53.716Z</time>
      </trkpt>
      <trkpt lat="45.75865" lon="6.73265">
        <ele>2185</ele>
        <time>2026-07-29T06:45:54.716Z</time>
      </trkpt>
      <trkpt lat="45.75864" lon="6.73264">
        <ele>2185</ele>
        <time>2026-07-29T06:45:55.716Z</time>
      </trkpt>
      <trkpt lat="45.75863" lon="6.73263">
        <ele>2185</ele>
        <time>2026-07-29T06:45:56.716Z</time>
      </trkpt>
      <trkpt lat="45.75862" lon="6.73263">
        <ele>2185</ele>
        <time>2026-07-29T06:45:57.716Z</time>
      </trkpt>
      <trkpt lat="45.75862" lon="6.73263">
        <ele>2185</ele>
        <time>2026-07-29T06:45:58.716Z</time>
      </trkpt>
      <trkpt lat="45.75862" lon="6.73263">
        <ele>2185</ele>
        <time>2026-07-29T06:45:59.716Z</time>
      </trkpt>
      <trkpt lat="45.75861" lon="6.73263">
        <ele>2185</ele>
        <time>2026-07-29T06:46:00.716Z</time>
      </trkpt>
      <trkpt lat="45.7586" lon="6.73264">
        <ele>2185</ele>
        <time>2026-07-29T06:46:01.716Z</time>
      </trkpt>
      <trkpt lat="45.75859" lon="6.73265">
        <ele>2185</ele>
        <time>2026-07-29T06:46:02.716Z</time>
      </trkpt>
      <trkpt lat="45.75857" lon="6.73267">
        <ele>2186</ele>
        <time>2026-07-29T06:46:03.716Z</time>
      </trkpt>
      <trkpt lat="45.75855" lon="6.73268">
        <ele>2186</ele>
        <time>2026-07-29T06:46:04.716Z</time>
      </trkpt>
      <trkpt lat="45.75853" lon="6.73269">
        <ele>2186</ele>
        <time>2026-07-29T06:46:05.716Z</time>
      </trkpt>
      <trkpt lat="45.75851" lon="6.73269">
        <ele>2187</ele>
        <time>2026-07-29T06:46:06.716Z</time>
      </trkpt>
      <trkpt lat="45.75849" lon="6.73269">
        <ele>2187</ele>
        <time>2026-07-29T06:46:07.716Z</time>
      </trkpt>
      <trkpt lat="45.75847" lon="6.73269">
        <ele>2187</ele>
        <time>2026-07-29T06:46:08.716Z</time>
      </trkpt>
      <trkpt lat="45.75845" lon="6.73269">
        <ele>2187</ele>
        <time>2026-07-29T06:46:09.716Z</time>
      </trkpt>
      <trkpt lat="45.75843" lon="6.73269">
        <ele>2187</ele>
        <time>2026-07-29T06:46:10.716Z</time>
      </trkpt>
      <trkpt lat="45.75841" lon="6.73269">
        <ele>2187</ele>
        <time>2026-07-29T06:46:11.716Z</time>
      </trkpt>
      <trkpt lat="45.75839" lon="6.73269">
        <ele>2187</ele>
        <time>2026-07-29T06:46:12.716Z</time>
      </trkpt>
      <trkpt lat="45.75838" lon="6.73269">
        <ele>2187</ele>
        <time>2026-07-29T06:46:13.716Z</time>
      </trkpt>
      <trkpt lat="45.75836" lon="6.73269">
        <ele>2186</ele>
        <time>2026-07-29T06:46:14.716Z</time>
      </trkpt>
      <trkpt lat="45.75834" lon="6.7327">
        <ele>2186</ele>
        <time>2026-07-29T06:46:15.716Z</time>
      </trkpt>
      <trkpt lat="45.75833" lon="6.7327">
        <ele>2186</ele>
        <time>2026-07-29T06:46:16.716Z</time>
      </trkpt>
      <trkpt lat="45.75831" lon="6.73271">
        <ele>2185</ele>
        <time>2026-07-29T06:46:17.716Z</time>
      </trkpt>
      <trkpt lat="45.75829" lon="6.73272">
        <ele>2185</ele>
        <time>2026-07-29T06:46:18.716Z</time>
      </trkpt>
      <trkpt lat="45.75827" lon="6.73272">
        <ele>2185</ele>
        <time>2026-07-29T06:46:19.716Z</time>
      </trkpt>
      <trkpt lat="45.75825" lon="6.73273">
        <ele>2185</ele>
        <time>2026-07-29T06:46:20.716Z</time>
      </trkpt>
      <trkpt lat="45.75824" lon="6.73273">
        <ele>2185</ele>
        <time>2026-07-29T06:46:21.716Z</time>
      </trkpt>
      <trkpt lat="45.75822" lon="6.73273">
        <ele>2185</ele>
        <time>2026-07-29T06:46:22.716Z</time>
      </trkpt>
      <trkpt lat="45.7582" lon="6.73274">
        <ele>2185</ele>
        <time>2026-07-29T06:46:23.716Z</time>
      </trkpt>
      <trkpt lat="45.75819" lon="6.73274">
        <ele>2185</ele>
        <time>2026-07-29T06:46:24.716Z</time>
      </trkpt>
      <trkpt lat="45.75817" lon="6.73274">
        <ele>2185</ele>
        <time>2026-07-29T06:46:25.716Z</time>
      </trkpt>
      <trkpt lat="45.75815" lon="6.73274">
        <ele>2185</ele>
        <time>2026-07-29T06:46:26.716Z</time>
      </trkpt>
      <trkpt lat="45.75814" lon="6.73274">
        <ele>2185</ele>
        <time>2026-07-29T06:46:27.716Z</time>
      </trkpt>
      <trkpt lat="45.75813" lon="6.73274">
        <ele>2184</ele>
        <time>2026-07-29T06:46:28.716Z</time>
      </trkpt>
      <trkpt lat="45.75811" lon="6.73275">
        <ele>2184</ele>
        <time>2026-07-29T06:46:29.716Z</time>
      </trkpt>
      <trkpt lat="45.7581" lon="6.73275">
        <ele>2183</ele>
        <time>2026-07-29T06:46:30.716Z</time>
      </trkpt>
      <trkpt lat="45.75808" lon="6.73274">
        <ele>2183</ele>
        <time>2026-07-29T06:46:31.716Z</time>
      </trkpt>
      <trkpt lat="45.75807" lon="6.73274">
        <ele>2182</ele>
        <time>2026-07-29T06:46:32.716Z</time>
      </trkpt>
      <trkpt lat="45.75805" lon="6.73273">
        <ele>2182</ele>
        <time>2026-07-29T06:46:33.716Z</time>
      </trkpt>
      <trkpt lat="45.75804" lon="6.73273">
        <ele>2182</ele>
        <time>2026-07-29T06:46:34.716Z</time>
      </trkpt>
      <trkpt lat="45.75802" lon="6.73273">
        <ele>2182</ele>
        <time>2026-07-29T06:46:35.716Z</time>
      </trkpt>
      <trkpt lat="45.75801" lon="6.73273">
        <ele>2182</ele>
        <time>2026-07-29T06:46:36.716Z</time>
      </trkpt>
      <trkpt lat="45.758" lon="6.73273">
        <ele>2182</ele>
        <time>2026-07-29T06:46:37.716Z</time>
      </trkpt>
      <trkpt lat="45.75798" lon="6.73274">
        <ele>2182</ele>
        <time>2026-07-29T06:46:38.716Z</time>
      </trkpt>
      <trkpt lat="45.75797" lon="6.73274">
        <ele>2182</ele>
        <time>2026-07-29T06:46:39.716Z</time>
      </trkpt>
      <trkpt lat="45.75796" lon="6.73275">
        <ele>2181</ele>
        <time>2026-07-29T06:46:40.716Z</time>
      </trkpt>
      <trkpt lat="45.75795" lon="6.73276">
        <ele>2181</ele>
        <time>2026-07-29T06:46:41.716Z</time>
      </trkpt>
      <trkpt lat="45.75794" lon="6.73278">
        <ele>2181</ele>
        <time>2026-07-29T06:46:42.716Z</time>
      </trkpt>
      <trkpt lat="45.75793" lon="6.73279">
        <ele>2181</ele>
        <time>2026-07-29T06:46:43.716Z</time>
      </trkpt>
      <trkpt lat="45.75791" lon="6.73281">
        <ele>2181</ele>
        <time>2026-07-29T06:46:44.716Z</time>
      </trkpt>
      <trkpt lat="45.7579" lon="6.73283">
        <ele>2181</ele>
        <time>2026-07-29T06:46:45.716Z</time>
      </trkpt>
      <trkpt lat="45.7579" lon="6.73285">
        <ele>2181</ele>
        <time>2026-07-29T06:46:46.716Z</time>
      </trkpt>
      <trkpt lat="45.75789" lon="6.73287">
        <ele>2181</ele>
        <time>2026-07-29T06:46:47.716Z</time>
      </trkpt>
      <trkpt lat="45.75789" lon="6.73289">
        <ele>2181</ele>
        <time>2026-07-29T06:46:48.716Z</time>
      </trkpt>
      <trkpt lat="45.75788" lon="6.73292">
        <ele>2181</ele>
        <time>2026-07-29T06:46:49.716Z</time>
      </trkpt>
      <trkpt lat="45.75788" lon="6.73294">
        <ele>2181</ele>
        <time>2026-07-29T06:46:50.716Z</time>
      </trkpt>
      <trkpt lat="45.75788" lon="6.73297">
        <ele>2181</ele>
        <time>2026-07-29T06:46:51.716Z</time>
      </trkpt>
      <trkpt lat="45.75788" lon="6.73299">
        <ele>2181</ele>
        <time>2026-07-29T06:46:52.716Z</time>
      </trkpt>
      <trkpt lat="45.75787" lon="6.73301">
        <ele>2181</ele>
        <time>2026-07-29T06:46:53.716Z</time>
      </trkpt>
      <trkpt lat="45.75786" lon="6.73303">
        <ele>2182</ele>
        <time>2026-07-29T06:46:54.716Z</time>
      </trkpt>
      <trkpt lat="45.75785" lon="6.73306">
        <ele>2182</ele>
        <time>2026-07-29T06:46:55.716Z</time>
      </trkpt>
      <trkpt lat="45.75784" lon="6.73308">
        <ele>2182</ele>
        <time>2026-07-29T06:46:56.716Z</time>
      </trkpt>
      <trkpt lat="45.75784" lon="6.73311">
        <ele>2182</ele>
        <time>2026-07-29T06:46:57.716Z</time>
      </trkpt>
      <trkpt lat="45.75783" lon="6.73313">
        <ele>2182</ele>
        <time>2026-07-29T06:46:58.716Z</time>
      </trkpt>
      <trkpt lat="45.75782" lon="6.73316">
        <ele>2181</ele>
        <time>2026-07-29T06:46:59.716Z</time>
      </trkpt>
      <trkpt lat="45.75781" lon="6.73318">
        <ele>2181</ele>
        <time>2026-07-29T06:47:00.716Z</time>
      </trkpt>
      <trkpt lat="45.7578" lon="6.73321">
        <ele>2181</ele>
        <time>2026-07-29T06:47:01.716Z</time>
      </trkpt>
      <trkpt lat="45.7578" lon="6.73323">
        <ele>2181</ele>
        <time>2026-07-29T06:47:02.716Z</time>
      </trkpt>
      <trkpt lat="45.75779" lon="6.73326">
        <ele>2180</ele>
        <time>2026-07-29T06:47:03.716Z</time>
      </trkpt>
      <trkpt lat="45.75779" lon="6.73328">
        <ele>2180</ele>
        <time>2026-07-29T06:47:04.716Z</time>
      </trkpt>
      <trkpt lat="45.75778" lon="6.73331">
        <ele>2180</ele>
        <time>2026-07-29T06:47:05.716Z</time>
      </trkpt>
      <trkpt lat="45.75777" lon="6.73332">
        <ele>2179</ele>
        <time>2026-07-29T06:47:06.716Z</time>
      </trkpt>
      <trkpt lat="45.75776" lon="6.73334">
        <ele>2180</ele>
        <time>2026-07-29T06:47:07.716Z</time>
      </trkpt>
      <trkpt lat="45.75775" lon="6.73336">
        <ele>2180</ele>
        <time>2026-07-29T06:47:08.716Z</time>
      </trkpt>
      <trkpt lat="45.75775" lon="6.73337">
        <ele>2181</ele>
        <time>2026-07-29T06:47:09.716Z</time>
      </trkpt>
      <trkpt lat="45.75774" lon="6.73338">
        <ele>2181</ele>
        <time>2026-07-29T06:47:10.716Z</time>
      </trkpt>
      <trkpt lat="45.75774" lon="6.7334">
        <ele>2182</ele>
        <time>2026-07-29T06:47:11.716Z</time>
      </trkpt>
      <trkpt lat="45.75774" lon="6.73342">
        <ele>2182</ele>
        <time>2026-07-29T06:47:12.716Z</time>
      </trkpt>
      <trkpt lat="45.75774" lon="6.73344">
        <ele>2182</ele>
        <time>2026-07-29T06:47:13.716Z</time>
      </trkpt>
      <trkpt lat="45.75775" lon="6.73346">
        <ele>2182</ele>
        <time>2026-07-29T06:47:14.716Z</time>
      </trkpt>
      <trkpt lat="45.75776" lon="6.73348">
        <ele>2182</ele>
        <time>2026-07-29T06:47:15.716Z</time>
      </trkpt>
      <trkpt lat="45.75776" lon="6.7335">
        <ele>2181</ele>
        <time>2026-07-29T06:47:16.716Z</time>
      </trkpt>
      <trkpt lat="45.75776" lon="6.73351">
        <ele>2181</ele>
        <time>2026-07-29T06:47:17.716Z</time>
      </trkpt>
      <trkpt lat="45.75775" lon="6.73352">
        <ele>2181</ele>
        <time>2026-07-29T06:47:18.716Z</time>
      </trkpt>
      <trkpt lat="45.75775" lon="6.73353">
        <ele>2181</ele>
        <time>2026-07-29T06:47:19.716Z</time>
      </trkpt>
      <trkpt lat="45.75775" lon="6.73354">
        <ele>2180</ele>
        <time>2026-07-29T06:47:20.716Z</time>
      </trkpt>
      <trkpt lat="45.75775" lon="6.73354">
        <ele>2181</ele>
        <time>2026-07-29T06:47:21.716Z</time>
      </trkpt>
      <trkpt lat="45.75775" lon="6.73355">
        <ele>2180</ele>
        <time>2026-07-29T06:47:22.716Z</time>
      </trkpt>
      <trkpt lat="45.75775" lon="6.73356">
        <ele>2180</ele>
        <time>2026-07-29T06:47:23.716Z</time>
      </trkpt>
      <trkpt lat="45.75774" lon="6.73357">
        <ele>2180</ele>
        <time>2026-07-29T06:47:24.716Z</time>
      </trkpt>
      <trkpt lat="45.75774" lon="6.73357">
        <ele>2180</ele>
        <time>2026-07-29T06:47:25.716Z</time>
      </trkpt>
      <trkpt lat="45.75774" lon="6.73358">
        <ele>2180</ele>
        <time>2026-07-29T06:47:26.716Z</time>
      </trkpt>
      <trkpt lat="45.75774" lon="6.73359">
        <ele>2180</ele>
        <time>2026-07-29T06:47:27.716Z</time>
      </trkpt>
      <trkpt lat="45.75774" lon="6.7336">
        <ele>2180</ele>
        <time>2026-07-29T06:47:28.716Z</time>
      </trkpt>
      <trkpt lat="45.75774" lon="6.73362">
        <ele>2180</ele>
        <time>2026-07-29T06:47:29.716Z</time>
      </trkpt>
      <trkpt lat="45.75774" lon="6.73364">
        <ele>2181</ele>
        <time>2026-07-29T06:47:30.716Z</time>
      </trkpt>
      <trkpt lat="45.75775" lon="6.73366">
        <ele>2181</ele>
        <time>2026-07-29T06:47:31.716Z</time>
      </trkpt>
      <trkpt lat="45.75774" lon="6.73368">
        <ele>2181</ele>
        <time>2026-07-29T06:47:32.716Z</time>
      </trkpt>
      <trkpt lat="45.75774" lon="6.7337">
        <ele>2181</ele>
        <time>2026-07-29T06:47:33.716Z</time>
      </trkpt>
      <trkpt lat="45.75774" lon="6.73371">
        <ele>2182</ele>
        <time>2026-07-29T06:47:34.716Z</time>
      </trkpt>
      <trkpt lat="45.75773" lon="6.73372">
        <ele>2182</ele>
        <time>2026-07-29T06:47:35.716Z</time>
      </trkpt>
      <trkpt lat="45.75772" lon="6.73374">
        <ele>2182</ele>
        <time>2026-07-29T06:47:36.716Z</time>
      </trkpt>
      <trkpt lat="45.75771" lon="6.73375">
        <ele>2182</ele>
        <time>2026-07-29T06:47:37.716Z</time>
      </trkpt>
      <trkpt lat="45.7577" lon="6.73377">
        <ele>2182</ele>
        <time>2026-07-29T06:47:38.716Z</time>
      </trkpt>
      <trkpt lat="45.75769" lon="6.73378">
        <ele>2182</ele>
        <time>2026-07-29T06:47:39.716Z</time>
      </trkpt>
      <trkpt lat="45.75769" lon="6.73379">
        <ele>2182</ele>
        <time>2026-07-29T06:47:40.716Z</time>
      </trkpt>
      <trkpt lat="45.75768" lon="6.7338">
        <ele>2182</ele>
        <time>2026-07-29T06:47:41.716Z</time>
      </trkpt>
      <trkpt lat="45.75768" lon="6.73381">
        <ele>2182</ele>
        <time>2026-07-29T06:47:42.716Z</time>
      </trkpt>
      <trkpt lat="45.75767" lon="6.73381">
        <ele>2182</ele>
        <time>2026-07-29T06:47:43.716Z</time>
      </trkpt>
      <trkpt lat="45.75767" lon="6.73382">
        <ele>2181</ele>
        <time>2026-07-29T06:47:44.716Z</time>
      </trkpt>
      <trkpt lat="45.75767" lon="6.73382">
        <ele>2181</ele>
        <time>2026-07-29T06:47:45.716Z</time>
      </trkpt>
      <trkpt lat="45.75766" lon="6.73383">
        <ele>2181</ele>
        <time>2026-07-29T06:47:46.716Z</time>
      </trkpt>
      <trkpt lat="45.75765" lon="6.73383">
        <ele>2181</ele>
        <time>2026-07-29T06:47:47.716Z</time>
      </trkpt>
      <trkpt lat="45.75764" lon="6.73383">
        <ele>2181</ele>
        <time>2026-07-29T06:47:48.716Z</time>
      </trkpt>
      <trkpt lat="45.75763" lon="6.73384">
        <ele>2182</ele>
        <time>2026-07-29T06:47:49.716Z</time>
      </trkpt>
      <trkpt lat="45.75763" lon="6.73384">
        <ele>2182</ele>
        <time>2026-07-29T06:47:50.716Z</time>
      </trkpt>
      <trkpt lat="45.75762" lon="6.73384">
        <ele>2182</ele>
        <time>2026-07-29T06:47:51.716Z</time>
      </trkpt>
      <trkpt lat="45.75761" lon="6.73384">
        <ele>2182</ele>
        <time>2026-07-29T06:47:52.716Z</time>
      </trkpt>
      <trkpt lat="45.75761" lon="6.73385">
        <ele>2182</ele>
        <time>2026-07-29T06:47:53.716Z</time>
      </trkpt>
      <trkpt lat="45.7576" lon="6.73385">
        <ele>2181</ele>
        <time>2026-07-29T06:47:54.716Z</time>
      </trkpt>
      <trkpt lat="45.75759" lon="6.73385">
        <ele>2181</ele>
        <time>2026-07-29T06:47:55.716Z</time>
      </trkpt>
      <trkpt lat="45.75759" lon="6.73386">
        <ele>2181</ele>
        <time>2026-07-29T06:47:56.716Z</time>
      </trkpt>
      <trkpt lat="45.75758" lon="6.73386">
        <ele>2181</ele>
        <time>2026-07-29T06:47:57.716Z</time>
      </trkpt>
      <trkpt lat="45.75757" lon="6.73386">
        <ele>2181</ele>
        <time>2026-07-29T06:47:58.716Z</time>
      </trkpt>
      <trkpt lat="45.75756" lon="6.73386">
        <ele>2181</ele>
        <time>2026-07-29T06:47:59.716Z</time>
      </trkpt>
      <trkpt lat="45.75756" lon="6.73387">
        <ele>2180</ele>
        <time>2026-07-29T06:48:00.716Z</time>
      </trkpt>
      <trkpt lat="45.75755" lon="6.73388">
        <ele>2180</ele>
        <time>2026-07-29T06:48:01.716Z</time>
      </trkpt>
      <trkpt lat="45.75754" lon="6.73388">
        <ele>2180</ele>
        <time>2026-07-29T06:48:02.716Z</time>
      </trkpt>
      <trkpt lat="45.75753" lon="6.73389">
        <ele>2181</ele>
        <time>2026-07-29T06:48:03.716Z</time>
      </trkpt>
      <trkpt lat="45.75752" lon="6.73388">
        <ele>2181</ele>
        <time>2026-07-29T06:48:04.716Z</time>
      </trkpt>
      <trkpt lat="45.75752" lon="6.73387">
        <ele>2181</ele>
        <time>2026-07-29T06:48:05.716Z</time>
      </trkpt>
      <trkpt lat="45.75751" lon="6.73386">
        <ele>2181</ele>
        <time>2026-07-29T06:48:06.716Z</time>
      </trkpt>
      <trkpt lat="45.75751" lon="6.73385">
        <ele>2181</ele>
        <time>2026-07-29T06:48:07.716Z</time>
      </trkpt>
      <trkpt lat="45.75751" lon="6.73385">
        <ele>2181</ele>
        <time>2026-07-29T06:48:08.716Z</time>
      </trkpt>
      <trkpt lat="45.75751" lon="6.73384">
        <ele>2181</ele>
        <time>2026-07-29T06:48:09.716Z</time>
      </trkpt>
      <trkpt lat="45.7575" lon="6.73384">
        <ele>2181</ele>
        <time>2026-07-29T06:48:10.716Z</time>
      </trkpt>
      <trkpt lat="45.75749" lon="6.73383">
        <ele>2181</ele>
        <time>2026-07-29T06:48:11.716Z</time>
      </trkpt>
      <trkpt lat="45.75749" lon="6.73383">
        <ele>2182</ele>
        <time>2026-07-29T06:48:12.716Z</time>
      </trkpt>
      <trkpt lat="45.75748" lon="6.73382">
        <ele>2182</ele>
        <time>2026-07-29T06:48:13.716Z</time>
      </trkpt>
      <trkpt lat="45.75747" lon="6.73381">
        <ele>2183</ele>
        <time>2026-07-29T06:48:14.716Z</time>
      </trkpt>
      <trkpt lat="45.75746" lon="6.7338">
        <ele>2184</ele>
        <time>2026-07-29T06:48:15.716Z</time>
      </trkpt>
      <trkpt lat="45.75745" lon="6.73379">
        <ele>2184</ele>
        <time>2026-07-29T06:48:16.716Z</time>
      </trkpt>
      <trkpt lat="45.75744" lon="6.73378">
        <ele>2184</ele>
        <time>2026-07-29T06:48:17.716Z</time>
      </trkpt>
      <trkpt lat="45.75743" lon="6.73376">
        <ele>2184</ele>
        <time>2026-07-29T06:48:18.716Z</time>
      </trkpt>
      <trkpt lat="45.75743" lon="6.73375">
        <ele>2184</ele>
        <time>2026-07-29T06:48:19.716Z</time>
      </trkpt>
      <trkpt lat="45.75742" lon="6.73373">
        <ele>2184</ele>
        <time>2026-07-29T06:48:20.716Z</time>
      </trkpt>
      <trkpt lat="45.75741" lon="6.73372">
        <ele>2183</ele>
        <time>2026-07-29T06:48:21.716Z</time>
      </trkpt>
      <trkpt lat="45.7574" lon="6.73369">
        <ele>2183</ele>
        <time>2026-07-29T06:48:22.716Z</time>
      </trkpt>
      <trkpt lat="45.75739" lon="6.73367">
        <ele>2183</ele>
        <time>2026-07-29T06:48:23.716Z</time>
      </trkpt>
      <trkpt lat="45.75738" lon="6.73365">
        <ele>2183</ele>
        <time>2026-07-29T06:48:24.716Z</time>
      </trkpt>
      <trkpt lat="45.75737" lon="6.73363">
        <ele>2183</ele>
        <time>2026-07-29T06:48:25.716Z</time>
      </trkpt>
      <trkpt lat="45.75737" lon="6.73361">
        <ele>2183</ele>
        <time>2026-07-29T06:48:26.716Z</time>
      </trkpt>
      <trkpt lat="45.75736" lon="6.73359">
        <ele>2184</ele>
        <time>2026-07-29T06:48:27.716Z</time>
      </trkpt>
      <trkpt lat="45.75735" lon="6.73357">
        <ele>2184</ele>
        <time>2026-07-29T06:48:28.716Z</time>
      </trkpt>
      <trkpt lat="45.75733" lon="6.73355">
        <ele>2184</ele>
        <time>2026-07-29T06:48:29.716Z</time>
      </trkpt>
      <trkpt lat="45.75732" lon="6.73354">
        <ele>2183</ele>
        <time>2026-07-29T06:48:30.716Z</time>
      </trkpt>
      <trkpt lat="45.75731" lon="6.73352">
        <ele>2183</ele>
        <time>2026-07-29T06:48:31.716Z</time>
      </trkpt>
      <trkpt lat="45.7573" lon="6.73351">
        <ele>2184</ele>
        <time>2026-07-29T06:48:32.716Z</time>
      </trkpt>
      <trkpt lat="45.75728" lon="6.7335">
        <ele>2184</ele>
        <time>2026-07-29T06:48:33.716Z</time>
      </trkpt>
      <trkpt lat="45.75727" lon="6.73349">
        <ele>2185</ele>
        <time>2026-07-29T06:48:34.716Z</time>
      </trkpt>
      <trkpt lat="45.75726" lon="6.73347">
        <ele>2185</ele>
        <time>2026-07-29T06:48:35.716Z</time>
      </trkpt>
      <trkpt lat="45.75725" lon="6.73345">
        <ele>2185</ele>
        <time>2026-07-29T06:48:36.716Z</time>
      </trkpt>
      <trkpt lat="45.75724" lon="6.73344">
        <ele>2185</ele>
        <time>2026-07-29T06:48:37.716Z</time>
      </trkpt>
      <trkpt lat="45.75723" lon="6.73342">
        <ele>2185</ele>
        <time>2026-07-29T06:48:38.716Z</time>
      </trkpt>
      <trkpt lat="45.75722" lon="6.7334">
        <ele>2186</ele>
        <time>2026-07-29T06:48:39.716Z</time>
      </trkpt>
      <trkpt lat="45.75721" lon="6.73338">
        <ele>2186</ele>
        <time>2026-07-29T06:48:40.716Z</time>
      </trkpt>
      <trkpt lat="45.7572" lon="6.73336">
        <ele>2186</ele>
        <time>2026-07-29T06:48:41.716Z</time>
      </trkpt>
      <trkpt lat="45.75719" lon="6.73334">
        <ele>2187</ele>
        <time>2026-07-29T06:48:42.716Z</time>
      </trkpt>
      <trkpt lat="45.75718" lon="6.73333">
        <ele>2187</ele>
        <time>2026-07-29T06:48:43.716Z</time>
      </trkpt>
      <trkpt lat="45.75717" lon="6.73331">
        <ele>2187</ele>
        <time>2026-07-29T06:48:44.716Z</time>
      </trkpt>
      <trkpt lat="45.75716" lon="6.73329">
        <ele>2187</ele>
        <time>2026-07-29T06:48:45.716Z</time>
      </trkpt>
      <trkpt lat="45.75715" lon="6.73328">
        <ele>2187</ele>
        <time>2026-07-29T06:48:46.716Z</time>
      </trkpt>
      <trkpt lat="45.75714" lon="6.73326">
        <ele>2188</ele>
        <time>2026-07-29T06:48:47.716Z</time>
      </trkpt>
      <trkpt lat="45.75713" lon="6.73325">
        <ele>2188</ele>
        <time>2026-07-29T06:48:48.716Z</time>
      </trkpt>
      <trkpt lat="45.75712" lon="6.73323">
        <ele>2188</ele>
        <time>2026-07-29T06:48:49.716Z</time>
      </trkpt>
      <trkpt lat="45.75711" lon="6.73322">
        <ele>2188</ele>
        <time>2026-07-29T06:48:50.716Z</time>
      </trkpt>
      <trkpt lat="45.7571" lon="6.7332">
        <ele>2188</ele>
        <time>2026-07-29T06:48:51.716Z</time>
      </trkpt>
      <trkpt lat="45.75709" lon="6.73319">
        <ele>2189</ele>
        <time>2026-07-29T06:48:52.716Z</time>
      </trkpt>
      <trkpt lat="45.75708" lon="6.73317">
        <ele>2189</ele>
        <time>2026-07-29T06:48:53.716Z</time>
      </trkpt>
      <trkpt lat="45.75708" lon="6.73315">
        <ele>2189</ele>
        <time>2026-07-29T06:48:54.716Z</time>
      </trkpt>
      <trkpt lat="45.75707" lon="6.73313">
        <ele>2189</ele>
        <time>2026-07-29T06:48:55.716Z</time>
      </trkpt>
      <trkpt lat="45.75706" lon="6.73311">
        <ele>2189</ele>
        <time>2026-07-29T06:48:56.716Z</time>
      </trkpt>
      <trkpt lat="45.75705" lon="6.73309">
        <ele>2189</ele>
        <time>2026-07-29T06:48:57.716Z</time>
      </trkpt>
      <trkpt lat="45.75704" lon="6.73307">
        <ele>2189</ele>
        <time>2026-07-29T06:48:58.716Z</time>
      </trkpt>
      <trkpt lat="45.75703" lon="6.73305">
        <ele>2189</ele>
        <time>2026-07-29T06:48:59.716Z</time>
      </trkpt>
      <trkpt lat="45.75702" lon="6.73303">
        <ele>2189</ele>
        <time>2026-07-29T06:49:00.716Z</time>
      </trkpt>
      <trkpt lat="45.75701" lon="6.73301">
        <ele>2190</ele>
        <time>2026-07-29T06:49:01.716Z</time>
      </trkpt>
      <trkpt lat="45.757" lon="6.73299">
        <ele>2190</ele>
        <time>2026-07-29T06:49:02.716Z</time>
      </trkpt>
      <trkpt lat="45.75698" lon="6.73296">
        <ele>2190</ele>
        <time>2026-07-29T06:49:03.716Z</time>
      </trkpt>
      <trkpt lat="45.75697" lon="6.73294">
        <ele>2190</ele>
        <time>2026-07-29T06:49:04.716Z</time>
      </trkpt>
      <trkpt lat="45.75696" lon="6.73292">
        <ele>2190</ele>
        <time>2026-07-29T06:49:05.716Z</time>
      </trkpt>
      <trkpt lat="45.75695" lon="6.7329">
        <ele>2190</ele>
        <time>2026-07-29T06:49:06.716Z</time>
      </trkpt>
      <trkpt lat="45.75694" lon="6.73288">
        <ele>2190</ele>
        <time>2026-07-29T06:49:07.716Z</time>
      </trkpt>
      <trkpt lat="45.75693" lon="6.73287">
        <ele>2190</ele>
        <time>2026-07-29T06:49:08.716Z</time>
      </trkpt>
      <trkpt lat="45.75693" lon="6.73287">
        <ele>2190</ele>
        <time>2026-07-29T06:49:09.716Z</time>
      </trkpt>
      <trkpt lat="45.75693" lon="6.73287">
        <ele>2190</ele>
        <time>2026-07-29T06:49:10.716Z</time>
      </trkpt>
      <trkpt lat="45.75693" lon="6.73287">
        <ele>2190</ele>
        <time>2026-07-29T06:49:11.716Z</time>
      </trkpt>
      <trkpt lat="45.75693" lon="6.73287">
        <ele>2190</ele>
        <time>2026-07-29T06:49:12.716Z</time>
      </trkpt>
      <trkpt lat="45.75693" lon="6.73286">
        <ele>2190</ele>
        <time>2026-07-29T06:49:13.716Z</time>
      </trkpt>
      <trkpt lat="45.75692" lon="6.73286">
        <ele>2191</ele>
        <time>2026-07-29T06:49:14.716Z</time>
      </trkpt>
      <trkpt lat="45.75692" lon="6.73284">
        <ele>2191</ele>
        <time>2026-07-29T06:49:15.716Z</time>
      </trkpt>
      <trkpt lat="45.75691" lon="6.73283">
        <ele>2191</ele>
        <time>2026-07-29T06:49:16.716Z</time>
      </trkpt>
      <trkpt lat="45.7569" lon="6.7328">
        <ele>2191</ele>
        <time>2026-07-29T06:49:17.716Z</time>
      </trkpt>
      <trkpt lat="45.75688" lon="6.73278">
        <ele>2191</ele>
        <time>2026-07-29T06:49:18.716Z</time>
      </trkpt>
      <trkpt lat="45.75687" lon="6.73275">
        <ele>2191</ele>
        <time>2026-07-29T06:49:19.716Z</time>
      </trkpt>
      <trkpt lat="45.75686" lon="6.73273">
        <ele>2191</ele>
        <time>2026-07-29T06:49:20.716Z</time>
      </trkpt>
      <trkpt lat="45.75685" lon="6.7327">
        <ele>2191</ele>
        <time>2026-07-29T06:49:21.716Z</time>
      </trkpt>
      <trkpt lat="45.75683" lon="6.73268">
        <ele>2191</ele>
        <time>2026-07-29T06:49:22.716Z</time>
      </trkpt>
      <trkpt lat="45.75682" lon="6.73266">
        <ele>2191</ele>
        <time>2026-07-29T06:49:23.716Z</time>
      </trkpt>
      <trkpt lat="45.75681" lon="6.73264">
        <ele>2191</ele>
        <time>2026-07-29T06:49:24.716Z</time>
      </trkpt>
      <trkpt lat="45.7568" lon="6.73262">
        <ele>2191</ele>
        <time>2026-07-29T06:49:25.716Z</time>
      </trkpt>
      <trkpt lat="45.75679" lon="6.7326">
        <ele>2191</ele>
        <time>2026-07-29T06:49:26.716Z</time>
      </trkpt>
      <trkpt lat="45.75678" lon="6.73258">
        <ele>2191</ele>
        <time>2026-07-29T06:49:27.716Z</time>
      </trkpt>
      <trkpt lat="45.75676" lon="6.73255">
        <ele>2191</ele>
        <time>2026-07-29T06:49:28.716Z</time>
      </trkpt>
      <trkpt lat="45.75675" lon="6.73254">
        <ele>2191</ele>
        <time>2026-07-29T06:49:29.716Z</time>
      </trkpt>
      <trkpt lat="45.75675" lon="6.73252">
        <ele>2190</ele>
        <time>2026-07-29T06:49:30.716Z</time>
      </trkpt>
      <trkpt lat="45.75674" lon="6.7325">
        <ele>2190</ele>
        <time>2026-07-29T06:49:31.716Z</time>
      </trkpt>
      <trkpt lat="45.75673" lon="6.73248">
        <ele>2190</ele>
        <time>2026-07-29T06:49:32.716Z</time>
      </trkpt>
      <trkpt lat="45.75672" lon="6.73246">
        <ele>2190</ele>
        <time>2026-07-29T06:49:33.716Z</time>
      </trkpt>
      <trkpt lat="45.75671" lon="6.73244">
        <ele>2190</ele>
        <time>2026-07-29T06:49:34.716Z</time>
      </trkpt>
      <trkpt lat="45.7567" lon="6.73241">
        <ele>2190</ele>
        <time>2026-07-29T06:49:35.716Z</time>
      </trkpt>
      <trkpt lat="45.75669" lon="6.73239">
        <ele>2190</ele>
        <time>2026-07-29T06:49:36.716Z</time>
      </trkpt>
      <trkpt lat="45.75668" lon="6.73237">
        <ele>2190</ele>
        <time>2026-07-29T06:49:37.716Z</time>
      </trkpt>
      <trkpt lat="45.75667" lon="6.73235">
        <ele>2190</ele>
        <time>2026-07-29T06:49:38.716Z</time>
      </trkpt>
      <trkpt lat="45.75666" lon="6.73233">
        <ele>2190</ele>
        <time>2026-07-29T06:49:39.716Z</time>
      </trkpt>
      <trkpt lat="45.75664" lon="6.73231">
        <ele>2190</ele>
        <time>2026-07-29T06:49:40.716Z</time>
      </trkpt>
      <trkpt lat="45.75663" lon="6.73229">
        <ele>2190</ele>
        <time>2026-07-29T06:49:41.716Z</time>
      </trkpt>
      <trkpt lat="45.75662" lon="6.73227">
        <ele>2190</ele>
        <time>2026-07-29T06:49:42.716Z</time>
      </trkpt>
      <trkpt lat="45.75661" lon="6.73225">
        <ele>2190</ele>
        <time>2026-07-29T06:49:43.717Z</time>
      </trkpt>
      <trkpt lat="45.7566" lon="6.73223">
        <ele>2190</ele>
        <time>2026-07-29T06:49:44.716Z</time>
      </trkpt>
      <trkpt lat="45.75659" lon="6.73221">
        <ele>2190</ele>
        <time>2026-07-29T06:49:45.716Z</time>
      </trkpt>
      <trkpt lat="45.75658" lon="6.73219">
        <ele>2190</ele>
        <time>2026-07-29T06:49:46.716Z</time>
      </trkpt>
      <trkpt lat="45.75656" lon="6.73217">
        <ele>2190</ele>
        <time>2026-07-29T06:49:47.716Z</time>
      </trkpt>
      <trkpt lat="45.75655" lon="6.73215">
        <ele>2190</ele>
        <time>2026-07-29T06:49:48.716Z</time>
      </trkpt>
      <trkpt lat="45.75654" lon="6.73213">
        <ele>2190</ele>
        <time>2026-07-29T06:49:49.716Z</time>
      </trkpt>
      <trkpt lat="45.75652" lon="6.73211">
        <ele>2190</ele>
        <time>2026-07-29T06:49:50.716Z</time>
      </trkpt>
      <trkpt lat="45.75651" lon="6.7321">
        <ele>2190</ele>
        <time>2026-07-29T06:49:51.716Z</time>
      </trkpt>
      <trkpt lat="45.7565" lon="6.73208">
        <ele>2190</ele>
        <time>2026-07-29T06:49:52.716Z</time>
      </trkpt>
      <trkpt lat="45.75648" lon="6.73206">
        <ele>2190</ele>
        <time>2026-07-29T06:49:53.716Z</time>
      </trkpt>
      <trkpt lat="45.75647" lon="6.73204">
        <ele>2190</ele>
        <time>2026-07-29T06:49:54.716Z</time>
      </trkpt>
      <trkpt lat="45.75646" lon="6.73202">
        <ele>2190</ele>
        <time>2026-07-29T06:49:55.716Z</time>
      </trkpt>
      <trkpt lat="45.75644" lon="6.732">
        <ele>2190</ele>
        <time>2026-07-29T06:49:56.716Z</time>
      </trkpt>
      <trkpt lat="45.75643" lon="6.73198">
        <ele>2190</ele>
        <time>2026-07-29T06:49:57.716Z</time>
      </trkpt>
      <trkpt lat="45.75642" lon="6.73196">
        <ele>2190</ele>
        <time>2026-07-29T06:49:58.716Z</time>
      </trkpt>
      <trkpt lat="45.75641" lon="6.73195">
        <ele>2190</ele>
        <time>2026-07-29T06:49:59.716Z</time>
      </trkpt>
      <trkpt lat="45.7564" lon="6.73194">
        <ele>2190</ele>
        <time>2026-07-29T06:50:00.716Z</time>
      </trkpt>
      <trkpt lat="45.75639" lon="6.73193">
        <ele>2190</ele>
        <time>2026-07-29T06:50:01.716Z</time>
      </trkpt>
      <trkpt lat="45.75638" lon="6.73193">
        <ele>2190</ele>
        <time>2026-07-29T06:50:02.716Z</time>
      </trkpt>
      <trkpt lat="45.75637" lon="6.73194">
        <ele>2190</ele>
        <time>2026-07-29T06:50:03.716Z</time>
      </trkpt>
      <trkpt lat="45.75637" lon="6.73194">
        <ele>2190</ele>
        <time>2026-07-29T06:50:04.716Z</time>
      </trkpt>
      <trkpt lat="45.75636" lon="6.73194">
        <ele>2190</ele>
        <time>2026-07-29T06:50:05.716Z</time>
      </trkpt>
      <trkpt lat="45.75636" lon="6.73194">
        <ele>2190</ele>
        <time>2026-07-29T06:50:06.716Z</time>
      </trkpt>
      <trkpt lat="45.75636" lon="6.73194">
        <ele>2190</ele>
        <time>2026-07-29T06:50:07.716Z</time>
      </trkpt>
      <trkpt lat="45.75636" lon="6.73194">
        <ele>2190</ele>
        <time>2026-07-29T06:50:08.716Z</time>
      </trkpt>
      <trkpt lat="45.75635" lon="6.73194">
        <ele>2190</ele>
        <time>2026-07-29T06:50:09.716Z</time>
      </trkpt>
      <trkpt lat="45.75635" lon="6.73194">
        <ele>2190</ele>
        <time>2026-07-29T06:50:10.716Z</time>
      </trkpt>
      <trkpt lat="45.75634" lon="6.73194">
        <ele>2189</ele>
        <time>2026-07-29T06:50:11.716Z</time>
      </trkpt>
      <trkpt lat="45.75633" lon="6.73194">
        <ele>2189</ele>
        <time>2026-07-29T06:50:12.716Z</time>
      </trkpt>
      <trkpt lat="45.75632" lon="6.73195">
        <ele>2189</ele>
        <time>2026-07-29T06:50:13.716Z</time>
      </trkpt>
      <trkpt lat="45.75631" lon="6.73195">
        <ele>2189</ele>
        <time>2026-07-29T06:50:14.716Z</time>
      </trkpt>
      <trkpt lat="45.7563" lon="6.73195">
        <ele>2189</ele>
        <time>2026-07-29T06:50:15.716Z</time>
      </trkpt>
      <trkpt lat="45.75628" lon="6.73195">
        <ele>2189</ele>
        <time>2026-07-29T06:50:16.716Z</time>
      </trkpt>
      <trkpt lat="45.75627" lon="6.73195">
        <ele>2188</ele>
        <time>2026-07-29T06:50:17.716Z</time>
      </trkpt>
      <trkpt lat="45.75625" lon="6.73195">
        <ele>2188</ele>
        <time>2026-07-29T06:50:18.716Z</time>
      </trkpt>
      <trkpt lat="45.75625" lon="6.73196">
        <ele>2188</ele>
        <time>2026-07-29T06:50:19.716Z</time>
      </trkpt>
      <trkpt lat="45.75624" lon="6.73196">
        <ele>2188</ele>
        <time>2026-07-29T06:50:20.716Z</time>
      </trkpt>
      <trkpt lat="45.75624" lon="6.73196">
        <ele>2188</ele>
        <time>2026-07-29T06:50:21.716Z</time>
      </trkpt>
      <trkpt lat="45.75624" lon="6.73196">
        <ele>2187</ele>
        <time>2026-07-29T06:50:22.716Z</time>
      </trkpt>
      <trkpt lat="45.75623" lon="6.73196">
        <ele>2187</ele>
        <time>2026-07-29T06:50:23.716Z</time>
      </trkpt>
      <trkpt lat="45.75623" lon="6.73196">
        <ele>2187</ele>
        <time>2026-07-29T06:50:24.716Z</time>
      </trkpt>
      <trkpt lat="45.75623" lon="6.73196">
        <ele>2187</ele>
        <time>2026-07-29T06:50:25.716Z</time>
      </trkpt>
      <trkpt lat="45.75623" lon="6.73196">
        <ele>2187</ele>
        <time>2026-07-29T06:50:26.716Z</time>
      </trkpt>
      <trkpt lat="45.75623" lon="6.73196">
        <ele>2187</ele>
        <time>2026-07-29T06:50:27.716Z</time>
      </trkpt>
      <trkpt lat="45.75623" lon="6.73196">
        <ele>2187</ele>
        <time>2026-07-29T06:50:28.716Z</time>
      </trkpt>
      <trkpt lat="45.75622" lon="6.73196">
        <ele>2187</ele>
        <time>2026-07-29T06:50:29.716Z</time>
      </trkpt>
      <trkpt lat="45.75621" lon="6.73195">
        <ele>2187</ele>
        <time>2026-07-29T06:50:30.716Z</time>
      </trkpt>
      <trkpt lat="45.75621" lon="6.73195">
        <ele>2186</ele>
        <time>2026-07-29T06:50:31.716Z</time>
      </trkpt>
      <trkpt lat="45.75621" lon="6.73195">
        <ele>2186</ele>
        <time>2026-07-29T06:50:32.716Z</time>
      </trkpt>
      <trkpt lat="45.7562" lon="6.73195">
        <ele>2186</ele>
        <time>2026-07-29T06:50:33.716Z</time>
      </trkpt>
      <trkpt lat="45.7562" lon="6.73195">
        <ele>2186</ele>
        <time>2026-07-29T06:50:34.716Z</time>
      </trkpt>
      <trkpt lat="45.75621" lon="6.73195">
        <ele>2186</ele>
        <time>2026-07-29T06:50:35.716Z</time>
      </trkpt>
      <trkpt lat="45.75621" lon="6.73195">
        <ele>2186</ele>
        <time>2026-07-29T06:50:36.716Z</time>
      </trkpt>
      <trkpt lat="45.75621" lon="6.73195">
        <ele>2186</ele>
        <time>2026-07-29T06:50:37.716Z</time>
      </trkpt>
      <trkpt lat="45.75621" lon="6.73195">
        <ele>2186</ele>
        <time>2026-07-29T06:50:38.716Z</time>
      </trkpt>
      <trkpt lat="45.75621" lon="6.73195">
        <ele>2186</ele>
        <time>2026-07-29T06:50:39.716Z</time>
      </trkpt>
      <trkpt lat="45.75621" lon="6.73195">
        <ele>2186</ele>
        <time>2026-07-29T06:50:40.716Z</time>
      </trkpt>
      <trkpt lat="45.75621" lon="6.73195">
        <ele>2186</ele>
        <time>2026-07-29T06:50:41.716Z</time>
      </trkpt>
      <trkpt lat="45.75621" lon="6.73195">
        <ele>2186</ele>
        <time>2026-07-29T06:50:42.716Z</time>
      </trkpt>
      <trkpt lat="45.75621" lon="6.73195">
        <ele>2186</ele>
        <time>2026-07-29T06:50:43.716Z</time>
      </trkpt>
      <trkpt lat="45.7562" lon="6.73195">
        <ele>2186</ele>
        <time>2026-07-29T06:50:44.716Z</time>
      </trkpt>
      <trkpt lat="45.75619" lon="6.73195">
        <ele>2186</ele>
        <time>2026-07-29T06:50:45.716Z</time>
      </trkpt>
      <trkpt lat="45.75617" lon="6.73194">
        <ele>2186</ele>
        <time>2026-07-29T06:50:46.716Z</time>
      </trkpt>
      <trkpt lat="45.75616" lon="6.73193">
        <ele>2186</ele>
        <time>2026-07-29T06:50:47.716Z</time>
      </trkpt>
      <trkpt lat="45.75614" lon="6.73192">
        <ele>2186</ele>
        <time>2026-07-29T06:50:48.716Z</time>
      </trkpt>
      <trkpt lat="45.75612" lon="6.73191">
        <ele>2186</ele>
        <time>2026-07-29T06:50:49.716Z</time>
      </trkpt>
      <trkpt lat="45.7561" lon="6.7319">
        <ele>2186</ele>
        <time>2026-07-29T06:50:50.716Z</time>
      </trkpt>
      <trkpt lat="45.75608" lon="6.73188">
        <ele>2186</ele>
        <time>2026-07-29T06:50:51.716Z</time>
      </trkpt>
      <trkpt lat="45.75607" lon="6.73186">
        <ele>2186</ele>
        <time>2026-07-29T06:50:52.716Z</time>
      </trkpt>
      <trkpt lat="45.75605" lon="6.73185">
        <ele>2186</ele>
        <time>2026-07-29T06:50:53.716Z</time>
      </trkpt>
      <trkpt lat="45.75604" lon="6.73183">
        <ele>2186</ele>
        <time>2026-07-29T06:50:54.716Z</time>
      </trkpt>
      <trkpt lat="45.75603" lon="6.73182">
        <ele>2187</ele>
        <time>2026-07-29T06:50:55.716Z</time>
      </trkpt>
      <trkpt lat="45.75602" lon="6.73181">
        <ele>2187</ele>
        <time>2026-07-29T06:50:56.716Z</time>
      </trkpt>
      <trkpt lat="45.75602" lon="6.73181">
        <ele>2187</ele>
        <time>2026-07-29T06:50:57.716Z</time>
      </trkpt>
      <trkpt lat="45.75602" lon="6.7318">
        <ele>2188</ele>
        <time>2026-07-29T06:50:58.716Z</time>
      </trkpt>
      <trkpt lat="45.75602" lon="6.7318">
        <ele>2188</ele>
        <time>2026-07-29T06:50:59.716Z</time>
      </trkpt>
      <trkpt lat="45.75602" lon="6.73181">
        <ele>2189</ele>
        <time>2026-07-29T06:51:00.716Z</time>
      </trkpt>
      <trkpt lat="45.75602" lon="6.73181">
        <ele>2189</ele>
        <time>2026-07-29T06:51:01.716Z</time>
      </trkpt>
      <trkpt lat="45.75602" lon="6.73181">
        <ele>2189</ele>
        <time>2026-07-29T06:51:02.716Z</time>
      </trkpt>
      <trkpt lat="45.75602" lon="6.73181">
        <ele>2189</ele>
        <time>2026-07-29T06:51:03.716Z</time>
      </trkpt>
      <trkpt lat="45.75602" lon="6.73181">
        <ele>2188</ele>
        <time>2026-07-29T06:51:04.716Z</time>
      </trkpt>
      <trkpt lat="45.75602" lon="6.73181">
        <ele>2188</ele>
        <time>2026-07-29T06:51:05.716Z</time>
      </trkpt>
      <trkpt lat="45.75602" lon="6.73181">
        <ele>2187</ele>
        <time>2026-07-29T06:51:06.716Z</time>
      </trkpt>
      <trkpt lat="45.75603" lon="6.73181">
        <ele>2187</ele>
        <time>2026-07-29T06:51:07.716Z</time>
      </trkpt>
      <trkpt lat="45.75602" lon="6.73181">
        <ele>2186</ele>
        <time>2026-07-29T06:51:08.716Z</time>
      </trkpt>
      <trkpt lat="45.75602" lon="6.73181">
        <ele>2186</ele>
        <time>2026-07-29T06:51:09.716Z</time>
      </trkpt>
      <trkpt lat="45.75602" lon="6.73181">
        <ele>2186</ele>
        <time>2026-07-29T06:51:10.716Z</time>
      </trkpt>
      <trkpt lat="45.75602" lon="6.73181">
        <ele>2185</ele>
        <time>2026-07-29T06:51:11.716Z</time>
      </trkpt>
      <trkpt lat="45.75602" lon="6.73181">
        <ele>2184</ele>
        <time>2026-07-29T06:51:12.716Z</time>
      </trkpt>
      <trkpt lat="45.75602" lon="6.73181">
        <ele>2184</ele>
        <time>2026-07-29T06:51:13.716Z</time>
      </trkpt>
      <trkpt lat="45.75602" lon="6.73181">
        <ele>2184</ele>
        <time>2026-07-29T06:51:14.716Z</time>
      </trkpt>
      <trkpt lat="45.75602" lon="6.73181">
        <ele>2184</ele>
        <time>2026-07-29T06:51:15.716Z</time>
      </trkpt>
      <trkpt lat="45.75602" lon="6.73181">
        <ele>2184</ele>
        <time>2026-07-29T06:51:16.716Z</time>
      </trkpt>
      <trkpt lat="45.75602" lon="6.73181">
        <ele>2183</ele>
        <time>2026-07-29T06:51:17.716Z</time>
      </trkpt>
      <trkpt lat="45.75602" lon="6.7318">
        <ele>2183</ele>
        <time>2026-07-29T06:51:18.716Z</time>
      </trkpt>
      <trkpt lat="45.756" lon="6.73179">
        <ele>2183</ele>
        <time>2026-07-29T06:51:19.716Z</time>
      </trkpt>
      <trkpt lat="45.75599" lon="6.73177">
        <ele>2183</ele>
        <time>2026-07-29T06:51:20.716Z</time>
      </trkpt>
      <trkpt lat="45.75597" lon="6.73175">
        <ele>2183</ele>
        <time>2026-07-29T06:51:21.716Z</time>
      </trkpt>
      <trkpt lat="45.75595" lon="6.73173">
        <ele>2183</ele>
        <time>2026-07-29T06:51:22.716Z</time>
      </trkpt>
      <trkpt lat="45.75594" lon="6.73171">
        <ele>2183</ele>
        <time>2026-07-29T06:51:23.716Z</time>
      </trkpt>
      <trkpt lat="45.75592" lon="6.73169">
        <ele>2183</ele>
        <time>2026-07-29T06:51:24.716Z</time>
      </trkpt>
      <trkpt lat="45.75591" lon="6.73168">
        <ele>2183</ele>
        <time>2026-07-29T06:51:25.716Z</time>
      </trkpt>
      <trkpt lat="45.75589" lon="6.73166">
        <ele>2184</ele>
        <time>2026-07-29T06:51:26.716Z</time>
      </trkpt>
      <trkpt lat="45.75587" lon="6.73164">
        <ele>2184</ele>
        <time>2026-07-29T06:51:27.716Z</time>
      </trkpt>
      <trkpt lat="45.75586" lon="6.73162">
        <ele>2184</ele>
        <time>2026-07-29T06:51:28.716Z</time>
      </trkpt>
      <trkpt lat="45.75585" lon="6.73161">
        <ele>2185</ele>
        <time>2026-07-29T06:51:29.716Z</time>
      </trkpt>
      <trkpt lat="45.75583" lon="6.73159">
        <ele>2185</ele>
        <time>2026-07-29T06:51:30.716Z</time>
      </trkpt>
      <trkpt lat="45.75581" lon="6.73158">
        <ele>2186</ele>
        <time>2026-07-29T06:51:31.716Z</time>
      </trkpt>
      <trkpt lat="45.7558" lon="6.73156">
        <ele>2186</ele>
        <time>2026-07-29T06:51:32.716Z</time>
      </trkpt>
      <trkpt lat="45.75579" lon="6.73154">
        <ele>2187</ele>
        <time>2026-07-29T06:51:33.716Z</time>
      </trkpt>
      <trkpt lat="45.75577" lon="6.73153">
        <ele>2187</ele>
        <time>2026-07-29T06:51:34.716Z</time>
      </trkpt>
      <trkpt lat="45.75577" lon="6.73151">
        <ele>2187</ele>
        <time>2026-07-29T06:51:35.716Z</time>
      </trkpt>
      <trkpt lat="45.75575" lon="6.73149">
        <ele>2187</ele>
        <time>2026-07-29T06:51:36.716Z</time>
      </trkpt>
      <trkpt lat="45.75574" lon="6.73147">
        <ele>2188</ele>
        <time>2026-07-29T06:51:37.716Z</time>
      </trkpt>
      <trkpt lat="45.75573" lon="6.73145">
        <ele>2188</ele>
        <time>2026-07-29T06:51:38.716Z</time>
      </trkpt>
      <trkpt lat="45.75572" lon="6.73143">
        <ele>2188</ele>
        <time>2026-07-29T06:51:39.716Z</time>
      </trkpt>
      <trkpt lat="45.75571" lon="6.73141">
        <ele>2189</ele>
        <time>2026-07-29T06:51:40.716Z</time>
      </trkpt>
      <trkpt lat="45.7557" lon="6.73139">
        <ele>2189</ele>
        <time>2026-07-29T06:51:41.716Z</time>
      </trkpt>
      <trkpt lat="45.75569" lon="6.73137">
        <ele>2189</ele>
        <time>2026-07-29T06:51:42.716Z</time>
      </trkpt>
      <trkpt lat="45.75568" lon="6.73136">
        <ele>2189</ele>
        <time>2026-07-29T06:51:43.716Z</time>
      </trkpt>
      <trkpt lat="45.75568" lon="6.73134">
        <ele>2189</ele>
        <time>2026-07-29T06:51:44.716Z</time>
      </trkpt>
      <trkpt lat="45.75567" lon="6.73133">
        <ele>2189</ele>
        <time>2026-07-29T06:51:45.716Z</time>
      </trkpt>
      <trkpt lat="45.75566" lon="6.73131">
        <ele>2189</ele>
        <time>2026-07-29T06:51:46.716Z</time>
      </trkpt>
      <trkpt lat="45.75565" lon="6.73128">
        <ele>2189</ele>
        <time>2026-07-29T06:51:47.716Z</time>
      </trkpt>
      <trkpt lat="45.75564" lon="6.73126">
        <ele>2189</ele>
        <time>2026-07-29T06:51:48.716Z</time>
      </trkpt>
      <trkpt lat="45.75563" lon="6.73124">
        <ele>2189</ele>
        <time>2026-07-29T06:51:49.716Z</time>
      </trkpt>
      <trkpt lat="45.75562" lon="6.73122">
        <ele>2189</ele>
        <time>2026-07-29T06:51:50.716Z</time>
      </trkpt>
      <trkpt lat="45.75561" lon="6.7312">
        <ele>2189</ele>
        <time>2026-07-29T06:51:51.716Z</time>
      </trkpt>
      <trkpt lat="45.7556" lon="6.73118">
        <ele>2189</ele>
        <time>2026-07-29T06:51:52.716Z</time>
      </trkpt>
      <trkpt lat="45.75559" lon="6.73115">
        <ele>2190</ele>
        <time>2026-07-29T06:51:53.716Z</time>
      </trkpt>
      <trkpt lat="45.75558" lon="6.73113">
        <ele>2190</ele>
        <time>2026-07-29T06:51:54.716Z</time>
      </trkpt>
      <trkpt lat="45.75556" lon="6.73112">
        <ele>2191</ele>
        <time>2026-07-29T06:51:55.716Z</time>
      </trkpt>
      <trkpt lat="45.75555" lon="6.73111">
        <ele>2192</ele>
        <time>2026-07-29T06:51:56.716Z</time>
      </trkpt>
      <trkpt lat="45.75554" lon="6.73109">
        <ele>2192</ele>
        <time>2026-07-29T06:51:57.716Z</time>
      </trkpt>
      <trkpt lat="45.75553" lon="6.73107">
        <ele>2193</ele>
        <time>2026-07-29T06:51:58.716Z</time>
      </trkpt>
      <trkpt lat="45.75551" lon="6.73105">
        <ele>2193</ele>
        <time>2026-07-29T06:51:59.716Z</time>
      </trkpt>
      <trkpt lat="45.7555" lon="6.73104">
        <ele>2193</ele>
        <time>2026-07-29T06:52:00.716Z</time>
      </trkpt>
      <trkpt lat="45.75549" lon="6.73102">
        <ele>2192</ele>
        <time>2026-07-29T06:52:01.716Z</time>
      </trkpt>
      <trkpt lat="45.75548" lon="6.731">
        <ele>2192</ele>
        <time>2026-07-29T06:52:02.716Z</time>
      </trkpt>
      <trkpt lat="45.75547" lon="6.73098">
        <ele>2192</ele>
        <time>2026-07-29T06:52:03.716Z</time>
      </trkpt>
      <trkpt lat="45.75546" lon="6.73096">
        <ele>2192</ele>
        <time>2026-07-29T06:52:04.716Z</time>
      </trkpt>
      <trkpt lat="45.75545" lon="6.73094">
        <ele>2192</ele>
        <time>2026-07-29T06:52:05.716Z</time>
      </trkpt>
      <trkpt lat="45.75544" lon="6.73092">
        <ele>2192</ele>
        <time>2026-07-29T06:52:06.716Z</time>
      </trkpt>
      <trkpt lat="45.75544" lon="6.7309">
        <ele>2192</ele>
        <time>2026-07-29T06:52:07.716Z</time>
      </trkpt>
      <trkpt lat="45.75543" lon="6.73088">
        <ele>2192</ele>
        <time>2026-07-29T06:52:08.716Z</time>
      </trkpt>
      <trkpt lat="45.75542" lon="6.73086">
        <ele>2192</ele>
        <time>2026-07-29T06:52:09.716Z</time>
      </trkpt>
      <trkpt lat="45.75542" lon="6.73084">
        <ele>2192</ele>
        <time>2026-07-29T06:52:10.716Z</time>
      </trkpt>
      <trkpt lat="45.75542" lon="6.73081">
        <ele>2192</ele>
        <time>2026-07-29T06:52:11.716Z</time>
      </trkpt>
      <trkpt lat="45.75541" lon="6.73079">
        <ele>2192</ele>
        <time>2026-07-29T06:52:12.716Z</time>
      </trkpt>
      <trkpt lat="45.75541" lon="6.73077">
        <ele>2192</ele>
        <time>2026-07-29T06:52:13.716Z</time>
      </trkpt>
      <trkpt lat="45.75541" lon="6.73075">
        <ele>2191</ele>
        <time>2026-07-29T06:52:14.716Z</time>
      </trkpt>
      <trkpt lat="45.75541" lon="6.73074">
        <ele>2191</ele>
        <time>2026-07-29T06:52:15.716Z</time>
      </trkpt>
      <trkpt lat="45.75541" lon="6.73072">
        <ele>2191</ele>
        <time>2026-07-29T06:52:16.716Z</time>
      </trkpt>
      <trkpt lat="45.75541" lon="6.7307">
        <ele>2191</ele>
        <time>2026-07-29T06:52:17.716Z</time>
      </trkpt>
      <trkpt lat="45.75541" lon="6.73068">
        <ele>2191</ele>
        <time>2026-07-29T06:52:18.716Z</time>
      </trkpt>
      <trkpt lat="45.7554" lon="6.73065">
        <ele>2190</ele>
        <time>2026-07-29T06:52:19.716Z</time>
      </trkpt>
      <trkpt lat="45.7554" lon="6.73062">
        <ele>2190</ele>
        <time>2026-07-29T06:52:20.716Z</time>
      </trkpt>
      <trkpt lat="45.7554" lon="6.7306">
        <ele>2190</ele>
        <time>2026-07-29T06:52:21.716Z</time>
      </trkpt>
      <trkpt lat="45.7554" lon="6.73057">
        <ele>2189</ele>
        <time>2026-07-29T06:52:22.716Z</time>
      </trkpt>
      <trkpt lat="45.75539" lon="6.73054">
        <ele>2189</ele>
        <time>2026-07-29T06:52:23.716Z</time>
      </trkpt>
      <trkpt lat="45.75538" lon="6.73052">
        <ele>2189</ele>
        <time>2026-07-29T06:52:24.716Z</time>
      </trkpt>
      <trkpt lat="45.75538" lon="6.73049">
        <ele>2189</ele>
        <time>2026-07-29T06:52:25.716Z</time>
      </trkpt>
      <trkpt lat="45.75537" lon="6.73046">
        <ele>2189</ele>
        <time>2026-07-29T06:52:26.716Z</time>
      </trkpt>
      <trkpt lat="45.75536" lon="6.73044">
        <ele>2188</ele>
        <time>2026-07-29T06:52:27.716Z</time>
      </trkpt>
      <trkpt lat="45.75535" lon="6.73042">
        <ele>2189</ele>
        <time>2026-07-29T06:52:28.716Z</time>
      </trkpt>
      <trkpt lat="45.75534" lon="6.7304">
        <ele>2189</ele>
        <time>2026-07-29T06:52:29.716Z</time>
      </trkpt>
      <trkpt lat="45.75533" lon="6.73038">
        <ele>2189</ele>
        <time>2026-07-29T06:52:30.716Z</time>
      </trkpt>
      <trkpt lat="45.75533" lon="6.73036">
        <ele>2189</ele>
        <time>2026-07-29T06:52:31.716Z</time>
      </trkpt>
      <trkpt lat="45.75532" lon="6.73034">
        <ele>2189</ele>
        <time>2026-07-29T06:52:32.716Z</time>
      </trkpt>
      <trkpt lat="45.75532" lon="6.73032">
        <ele>2189</ele>
        <time>2026-07-29T06:52:33.716Z</time>
      </trkpt>
      <trkpt lat="45.75531" lon="6.7303">
        <ele>2189</ele>
        <time>2026-07-29T06:52:34.716Z</time>
      </trkpt>
      <trkpt lat="45.7553" lon="6.73027">
        <ele>2189</ele>
        <time>2026-07-29T06:52:35.716Z</time>
      </trkpt>
      <trkpt lat="45.7553" lon="6.73025">
        <ele>2189</ele>
        <time>2026-07-29T06:52:36.716Z</time>
      </trkpt>
      <trkpt lat="45.75529" lon="6.73022">
        <ele>2188</ele>
        <time>2026-07-29T06:52:37.716Z</time>
      </trkpt>
      <trkpt lat="45.75529" lon="6.7302">
        <ele>2188</ele>
        <time>2026-07-29T06:52:38.716Z</time>
      </trkpt>
      <trkpt lat="45.75528" lon="6.73018">
        <ele>2188</ele>
        <time>2026-07-29T06:52:39.716Z</time>
      </trkpt>
      <trkpt lat="45.75528" lon="6.73015">
        <ele>2188</ele>
        <time>2026-07-29T06:52:40.716Z</time>
      </trkpt>
      <trkpt lat="45.75529" lon="6.73013">
        <ele>2188</ele>
        <time>2026-07-29T06:52:41.716Z</time>
      </trkpt>
      <trkpt lat="45.75528" lon="6.73011">
        <ele>2188</ele>
        <time>2026-07-29T06:52:42.716Z</time>
      </trkpt>
      <trkpt lat="45.75528" lon="6.73009">
        <ele>2188</ele>
        <time>2026-07-29T06:52:43.716Z</time>
      </trkpt>
      <trkpt lat="45.75528" lon="6.73006">
        <ele>2187</ele>
        <time>2026-07-29T06:52:44.716Z</time>
      </trkpt>
      <trkpt lat="45.75527" lon="6.73004">
        <ele>2187</ele>
        <time>2026-07-29T06:52:45.716Z</time>
      </trkpt>
      <trkpt lat="45.75527" lon="6.73001">
        <ele>2187</ele>
        <time>2026-07-29T06:52:46.716Z</time>
      </trkpt>
      <trkpt lat="45.75527" lon="6.72999">
        <ele>2187</ele>
        <time>2026-07-29T06:52:47.716Z</time>
      </trkpt>
      <trkpt lat="45.75527" lon="6.72996">
        <ele>2186</ele>
        <time>2026-07-29T06:52:48.716Z</time>
      </trkpt>
      <trkpt lat="45.75527" lon="6.72994">
        <ele>2186</ele>
        <time>2026-07-29T06:52:49.716Z</time>
      </trkpt>
      <trkpt lat="45.75527" lon="6.72991">
        <ele>2187</ele>
        <time>2026-07-29T06:52:50.716Z</time>
      </trkpt>
      <trkpt lat="45.75527" lon="6.72989">
        <ele>2186</ele>
        <time>2026-07-29T06:52:51.716Z</time>
      </trkpt>
      <trkpt lat="45.75527" lon="6.72986">
        <ele>2186</ele>
        <time>2026-07-29T06:52:52.716Z</time>
      </trkpt>
      <trkpt lat="45.75527" lon="6.72983">
        <ele>2186</ele>
        <time>2026-07-29T06:52:53.716Z</time>
      </trkpt>
      <trkpt lat="45.75528" lon="6.72981">
        <ele>2186</ele>
        <time>2026-07-29T06:52:54.716Z</time>
      </trkpt>
      <trkpt lat="45.75528" lon="6.72979">
        <ele>2186</ele>
        <time>2026-07-29T06:52:55.716Z</time>
      </trkpt>
      <trkpt lat="45.75529" lon="6.72976">
        <ele>2185</ele>
        <time>2026-07-29T06:52:56.716Z</time>
      </trkpt>
      <trkpt lat="45.7553" lon="6.72974">
        <ele>2185</ele>
        <time>2026-07-29T06:52:57.716Z</time>
      </trkpt>
      <trkpt lat="45.7553" lon="6.72972">
        <ele>2185</ele>
        <time>2026-07-29T06:52:58.716Z</time>
      </trkpt>
      <trkpt lat="45.75531" lon="6.72971">
        <ele>2184</ele>
        <time>2026-07-29T06:52:59.716Z</time>
      </trkpt>
      <trkpt lat="45.75532" lon="6.72969">
        <ele>2184</ele>
        <time>2026-07-29T06:53:00.716Z</time>
      </trkpt>
      <trkpt lat="45.75533" lon="6.72968">
        <ele>2184</ele>
        <time>2026-07-29T06:53:01.716Z</time>
      </trkpt>
      <trkpt lat="45.75534" lon="6.72966">
        <ele>2184</ele>
        <time>2026-07-29T06:53:02.716Z</time>
      </trkpt>
      <trkpt lat="45.75536" lon="6.72965">
        <ele>2184</ele>
        <time>2026-07-29T06:53:03.716Z</time>
      </trkpt>
      <trkpt lat="45.75537" lon="6.72963">
        <ele>2184</ele>
        <time>2026-07-29T06:53:04.716Z</time>
      </trkpt>
      <trkpt lat="45.75537" lon="6.7296">
        <ele>2184</ele>
        <time>2026-07-29T06:53:05.716Z</time>
      </trkpt>
      <trkpt lat="45.75537" lon="6.72957">
        <ele>2184</ele>
        <time>2026-07-29T06:53:06.716Z</time>
      </trkpt>
      <trkpt lat="45.75537" lon="6.72955">
        <ele>2184</ele>
        <time>2026-07-29T06:53:07.716Z</time>
      </trkpt>
      <trkpt lat="45.75536" lon="6.72952">
        <ele>2184</ele>
        <time>2026-07-29T06:53:08.716Z</time>
      </trkpt>
      <trkpt lat="45.75535" lon="6.72949">
        <ele>2183</ele>
        <time>2026-07-29T06:53:09.716Z</time>
      </trkpt>
      <trkpt lat="45.75534" lon="6.72947">
        <ele>2183</ele>
        <time>2026-07-29T06:53:10.716Z</time>
      </trkpt>
      <trkpt lat="45.75534" lon="6.72945">
        <ele>2183</ele>
        <time>2026-07-29T06:53:11.716Z</time>
      </trkpt>
      <trkpt lat="45.75533" lon="6.72943">
        <ele>2184</ele>
        <time>2026-07-29T06:53:12.716Z</time>
      </trkpt>
      <trkpt lat="45.75533" lon="6.72942">
        <ele>2184</ele>
        <time>2026-07-29T06:53:13.716Z</time>
      </trkpt>
      <trkpt lat="45.75533" lon="6.72942">
        <ele>2184</ele>
        <time>2026-07-29T06:53:14.716Z</time>
      </trkpt>
      <trkpt lat="45.75533" lon="6.72941">
        <ele>2184</ele>
        <time>2026-07-29T06:53:15.716Z</time>
      </trkpt>
      <trkpt lat="45.75533" lon="6.72941">
        <ele>2184</ele>
        <time>2026-07-29T06:53:16.716Z</time>
      </trkpt>
      <trkpt lat="45.75533" lon="6.72941">
        <ele>2183</ele>
        <time>2026-07-29T06:53:17.716Z</time>
      </trkpt>
      <trkpt lat="45.75533" lon="6.7294">
        <ele>2183</ele>
        <time>2026-07-29T06:53:18.716Z</time>
      </trkpt>
      <trkpt lat="45.75533" lon="6.7294">
        <ele>2183</ele>
        <time>2026-07-29T06:53:19.716Z</time>
      </trkpt>
      <trkpt lat="45.75533" lon="6.7294">
        <ele>2182</ele>
        <time>2026-07-29T06:53:20.716Z</time>
      </trkpt>
      <trkpt lat="45.75533" lon="6.7294">
        <ele>2182</ele>
        <time>2026-07-29T06:53:21.716Z</time>
      </trkpt>
      <trkpt lat="45.75533" lon="6.72939">
        <ele>2181</ele>
        <time>2026-07-29T06:53:22.716Z</time>
      </trkpt>
      <trkpt lat="45.75533" lon="6.72938">
        <ele>2181</ele>
        <time>2026-07-29T06:53:23.716Z</time>
      </trkpt>
      <trkpt lat="45.75533" lon="6.72936">
        <ele>2181</ele>
        <time>2026-07-29T06:53:24.716Z</time>
      </trkpt>
      <trkpt lat="45.75532" lon="6.72934">
        <ele>2181</ele>
        <time>2026-07-29T06:53:25.716Z</time>
      </trkpt>
      <trkpt lat="45.75532" lon="6.72931">
        <ele>2181</ele>
        <time>2026-07-29T06:53:26.716Z</time>
      </trkpt>
      <trkpt lat="45.75531" lon="6.72928">
        <ele>2181</ele>
        <time>2026-07-29T06:53:27.716Z</time>
      </trkpt>
      <trkpt lat="45.75531" lon="6.72926">
        <ele>2181</ele>
        <time>2026-07-29T06:53:28.716Z</time>
      </trkpt>
      <trkpt lat="45.7553" lon="6.72922">
        <ele>2181</ele>
        <time>2026-07-29T06:53:29.716Z</time>
      </trkpt>
      <trkpt lat="45.75529" lon="6.7292">
        <ele>2182</ele>
        <time>2026-07-29T06:53:30.716Z</time>
      </trkpt>
      <trkpt lat="45.75529" lon="6.72917">
        <ele>2182</ele>
        <time>2026-07-29T06:53:31.716Z</time>
      </trkpt>
      <trkpt lat="45.75528" lon="6.72914">
        <ele>2182</ele>
        <time>2026-07-29T06:53:32.716Z</time>
      </trkpt>
      <trkpt lat="45.75527" lon="6.72911">
        <ele>2182</ele>
        <time>2026-07-29T06:53:33.716Z</time>
      </trkpt>
      <trkpt lat="45.75527" lon="6.72908">
        <ele>2182</ele>
        <time>2026-07-29T06:53:34.716Z</time>
      </trkpt>
      <trkpt lat="45.75526" lon="6.72906">
        <ele>2182</ele>
        <time>2026-07-29T06:53:35.716Z</time>
      </trkpt>
      <trkpt lat="45.75526" lon="6.72903">
        <ele>2182</ele>
        <time>2026-07-29T06:53:36.716Z</time>
      </trkpt>
      <trkpt lat="45.75525" lon="6.72901">
        <ele>2182</ele>
        <time>2026-07-29T06:53:37.716Z</time>
      </trkpt>
      <trkpt lat="45.75525" lon="6.72898">
        <ele>2182</ele>
        <time>2026-07-29T06:53:38.716Z</time>
      </trkpt>
      <trkpt lat="45.75524" lon="6.72896">
        <ele>2182</ele>
        <time>2026-07-29T06:53:39.716Z</time>
      </trkpt>
      <trkpt lat="45.75524" lon="6.72893">
        <ele>2182</ele>
        <time>2026-07-29T06:53:40.716Z</time>
      </trkpt>
      <trkpt lat="45.75523" lon="6.7289">
        <ele>2182</ele>
        <time>2026-07-29T06:53:41.716Z</time>
      </trkpt>
      <trkpt lat="45.75523" lon="6.72888">
        <ele>2182</ele>
        <time>2026-07-29T06:53:42.716Z</time>
      </trkpt>
      <trkpt lat="45.75523" lon="6.72885">
        <ele>2182</ele>
        <time>2026-07-29T06:53:43.716Z</time>
      </trkpt>
      <trkpt lat="45.75523" lon="6.72883">
        <ele>2182</ele>
        <time>2026-07-29T06:53:44.716Z</time>
      </trkpt>
      <trkpt lat="45.75523" lon="6.72881">
        <ele>2182</ele>
        <time>2026-07-29T06:53:45.716Z</time>
      </trkpt>
      <trkpt lat="45.75523" lon="6.72879">
        <ele>2182</ele>
        <time>2026-07-29T06:53:46.716Z</time>
      </trkpt>
      <trkpt lat="45.75522" lon="6.72877">
        <ele>2182</ele>
        <time>2026-07-29T06:53:47.716Z</time>
      </trkpt>
      <trkpt lat="45.75521" lon="6.72875">
        <ele>2181</ele>
        <time>2026-07-29T06:53:48.716Z</time>
      </trkpt>
      <trkpt lat="45.75519" lon="6.72873">
        <ele>2182</ele>
        <time>2026-07-29T06:53:49.716Z</time>
      </trkpt>
      <trkpt lat="45.75518" lon="6.72871">
        <ele>2182</ele>
        <time>2026-07-29T06:53:50.716Z</time>
      </trkpt>
      <trkpt lat="45.75516" lon="6.7287">
        <ele>2183</ele>
        <time>2026-07-29T06:53:51.716Z</time>
      </trkpt>
      <trkpt lat="45.75515" lon="6.72868">
        <ele>2183</ele>
        <time>2026-07-29T06:53:52.716Z</time>
      </trkpt>
      <trkpt lat="45.75514" lon="6.72866">
        <ele>2183</ele>
        <time>2026-07-29T06:53:53.716Z</time>
      </trkpt>
      <trkpt lat="45.75513" lon="6.72864">
        <ele>2183</ele>
        <time>2026-07-29T06:53:54.716Z</time>
      </trkpt>
      <trkpt lat="45.75512" lon="6.72863">
        <ele>2183</ele>
        <time>2026-07-29T06:53:55.716Z</time>
      </trkpt>
      <trkpt lat="45.75511" lon="6.72861">
        <ele>2183</ele>
        <time>2026-07-29T06:53:56.716Z</time>
      </trkpt>
      <trkpt lat="45.7551" lon="6.7286">
        <ele>2184</ele>
        <time>2026-07-29T06:53:57.716Z</time>
      </trkpt>
      <trkpt lat="45.75508" lon="6.72859">
        <ele>2184</ele>
        <time>2026-07-29T06:53:58.716Z</time>
      </trkpt>
      <trkpt lat="45.75507" lon="6.72858">
        <ele>2184</ele>
        <time>2026-07-29T06:53:59.716Z</time>
      </trkpt>
      <trkpt lat="45.75506" lon="6.72857">
        <ele>2185</ele>
        <time>2026-07-29T06:54:00.716Z</time>
      </trkpt>
      <trkpt lat="45.75504" lon="6.72856">
        <ele>2185</ele>
        <time>2026-07-29T06:54:01.716Z</time>
      </trkpt>
      <trkpt lat="45.75502" lon="6.72855">
        <ele>2186</ele>
        <time>2026-07-29T06:54:02.716Z</time>
      </trkpt>
      <trkpt lat="45.75501" lon="6.72854">
        <ele>2186</ele>
        <time>2026-07-29T06:54:03.716Z</time>
      </trkpt>
      <trkpt lat="45.75499" lon="6.72852">
        <ele>2185</ele>
        <time>2026-07-29T06:54:04.716Z</time>
      </trkpt>
      <trkpt lat="45.75498" lon="6.72851">
        <ele>2185</ele>
        <time>2026-07-29T06:54:05.716Z</time>
      </trkpt>
      <trkpt lat="45.75496" lon="6.72849">
        <ele>2184</ele>
        <time>2026-07-29T06:54:06.716Z</time>
      </trkpt>
      <trkpt lat="45.75495" lon="6.72848">
        <ele>2184</ele>
        <time>2026-07-29T06:54:07.716Z</time>
      </trkpt>
      <trkpt lat="45.75493" lon="6.72847">
        <ele>2184</ele>
        <time>2026-07-29T06:54:08.716Z</time>
      </trkpt>
      <trkpt lat="45.75491" lon="6.72846">
        <ele>2184</ele>
        <time>2026-07-29T06:54:09.716Z</time>
      </trkpt>
      <trkpt lat="45.7549" lon="6.72845">
        <ele>2183</ele>
        <time>2026-07-29T06:54:10.716Z</time>
      </trkpt>
      <trkpt lat="45.75488" lon="6.72843">
        <ele>2183</ele>
        <time>2026-07-29T06:54:11.716Z</time>
      </trkpt>
      <trkpt lat="45.75487" lon="6.72841">
        <ele>2183</ele>
        <time>2026-07-29T06:54:12.716Z</time>
      </trkpt>
      <trkpt lat="45.75485" lon="6.7284">
        <ele>2182</ele>
        <time>2026-07-29T06:54:13.716Z</time>
      </trkpt>
      <trkpt lat="45.75484" lon="6.72838">
        <ele>2181</ele>
        <time>2026-07-29T06:54:14.716Z</time>
      </trkpt>
      <trkpt lat="45.75483" lon="6.72837">
        <ele>2181</ele>
        <time>2026-07-29T06:54:15.716Z</time>
      </trkpt>
      <trkpt lat="45.75481" lon="6.72835">
        <ele>2180</ele>
        <time>2026-07-29T06:54:16.716Z</time>
      </trkpt>
      <trkpt lat="45.7548" lon="6.72834">
        <ele>2180</ele>
        <time>2026-07-29T06:54:17.716Z</time>
      </trkpt>
      <trkpt lat="45.75478" lon="6.72832">
        <ele>2180</ele>
        <time>2026-07-29T06:54:18.716Z</time>
      </trkpt>
      <trkpt lat="45.75476" lon="6.7283">
        <ele>2179</ele>
        <time>2026-07-29T06:54:19.716Z</time>
      </trkpt>
      <trkpt lat="45.75475" lon="6.72829">
        <ele>2179</ele>
        <time>2026-07-29T06:54:20.716Z</time>
      </trkpt>
      <trkpt lat="45.75473" lon="6.72827">
        <ele>2179</ele>
        <time>2026-07-29T06:54:21.716Z</time>
      </trkpt>
      <trkpt lat="45.75472" lon="6.72825">
        <ele>2179</ele>
        <time>2026-07-29T06:54:22.716Z</time>
      </trkpt>
      <trkpt lat="45.75471" lon="6.72823">
        <ele>2179</ele>
        <time>2026-07-29T06:54:23.716Z</time>
      </trkpt>
      <trkpt lat="45.7547" lon="6.7282">
        <ele>2178</ele>
        <time>2026-07-29T06:54:24.716Z</time>
      </trkpt>
      <trkpt lat="45.75469" lon="6.72819">
        <ele>2178</ele>
        <time>2026-07-29T06:54:25.716Z</time>
      </trkpt>
      <trkpt lat="45.75468" lon="6.72817">
        <ele>2177</ele>
        <time>2026-07-29T06:54:26.716Z</time>
      </trkpt>
      <trkpt lat="45.75467" lon="6.72816">
        <ele>2177</ele>
        <time>2026-07-29T06:54:27.716Z</time>
      </trkpt>
      <trkpt lat="45.75466" lon="6.72814">
        <ele>2176</ele>
        <time>2026-07-29T06:54:28.716Z</time>
      </trkpt>
      <trkpt lat="45.75465" lon="6.72814">
        <ele>2176</ele>
        <time>2026-07-29T06:54:29.716Z</time>
      </trkpt>
      <trkpt lat="45.75465" lon="6.72813">
        <ele>2176</ele>
        <time>2026-07-29T06:54:30.716Z</time>
      </trkpt>
      <trkpt lat="45.75465" lon="6.72813">
        <ele>2176</ele>
        <time>2026-07-29T06:54:31.716Z</time>
      </trkpt>
      <trkpt lat="45.75464" lon="6.72813">
        <ele>2176</ele>
        <time>2026-07-29T06:54:32.716Z</time>
      </trkpt>
      <trkpt lat="45.75464" lon="6.72813">
        <ele>2176</ele>
        <time>2026-07-29T06:54:33.716Z</time>
      </trkpt>
      <trkpt lat="45.75464" lon="6.72813">
        <ele>2176</ele>
        <time>2026-07-29T06:54:34.716Z</time>
      </trkpt>
      <trkpt lat="45.75464" lon="6.72812">
        <ele>2175</ele>
        <time>2026-07-29T06:54:35.716Z</time>
      </trkpt>
      <trkpt lat="45.75464" lon="6.72812">
        <ele>2175</ele>
        <time>2026-07-29T06:54:36.716Z</time>
      </trkpt>
      <trkpt lat="45.75464" lon="6.72812">
        <ele>2175</ele>
        <time>2026-07-29T06:54:37.716Z</time>
      </trkpt>
      <trkpt lat="45.75464" lon="6.72812">
        <ele>2175</ele>
        <time>2026-07-29T06:54:38.716Z</time>
      </trkpt>
      <trkpt lat="45.75464" lon="6.72812">
        <ele>2175</ele>
        <time>2026-07-29T06:54:39.716Z</time>
      </trkpt>
      <trkpt lat="45.75464" lon="6.72812">
        <ele>2175</ele>
        <time>2026-07-29T06:54:40.716Z</time>
      </trkpt>
      <trkpt lat="45.75464" lon="6.72812">
        <ele>2174</ele>
        <time>2026-07-29T06:54:41.716Z</time>
      </trkpt>
      <trkpt lat="45.75464" lon="6.72813">
        <ele>2174</ele>
        <time>2026-07-29T06:54:42.716Z</time>
      </trkpt>
      <trkpt lat="45.75463" lon="6.72813">
        <ele>2174</ele>
        <time>2026-07-29T06:54:43.716Z</time>
      </trkpt>
      <trkpt lat="45.75463" lon="6.72813">
        <ele>2174</ele>
        <time>2026-07-29T06:54:44.716Z</time>
      </trkpt>
      <trkpt lat="45.75463" lon="6.72813">
        <ele>2174</ele>
        <time>2026-07-29T06:54:45.716Z</time>
      </trkpt>
      <trkpt lat="45.75463" lon="6.72813">
        <ele>2174</ele>
        <time>2026-07-29T06:54:46.716Z</time>
      </trkpt>
      <trkpt lat="45.75463" lon="6.72813">
        <ele>2174</ele>
        <time>2026-07-29T06:54:47.716Z</time>
      </trkpt>
      <trkpt lat="45.75463" lon="6.72813">
        <ele>2173</ele>
        <time>2026-07-29T06:54:48.716Z</time>
      </trkpt>
      <trkpt lat="45.75463" lon="6.72813">
        <ele>2173</ele>
        <time>2026-07-29T06:54:49.716Z</time>
      </trkpt>
      <trkpt lat="45.75463" lon="6.72813">
        <ele>2173</ele>
        <time>2026-07-29T06:54:50.716Z</time>
      </trkpt>
      <trkpt lat="45.75463" lon="6.72813">
        <ele>2173</ele>
        <time>2026-07-29T06:54:51.716Z</time>
      </trkpt>
      <trkpt lat="45.75463" lon="6.72813">
        <ele>2173</ele>
        <time>2026-07-29T06:54:52.716Z</time>
      </trkpt>
      <trkpt lat="45.75463" lon="6.72812">
        <ele>2173</ele>
        <time>2026-07-29T06:54:53.716Z</time>
      </trkpt>
      <trkpt lat="45.75462" lon="6.7281">
        <ele>2173</ele>
        <time>2026-07-29T06:54:54.716Z</time>
      </trkpt>
      <trkpt lat="45.7546" lon="6.72807">
        <ele>2173</ele>
        <time>2026-07-29T06:54:55.716Z</time>
      </trkpt>
      <trkpt lat="45.75459" lon="6.72806">
        <ele>2173</ele>
        <time>2026-07-29T06:54:56.716Z</time>
      </trkpt>
      <trkpt lat="45.75458" lon="6.72804">
        <ele>2172</ele>
        <time>2026-07-29T06:54:57.716Z</time>
      </trkpt>
      <trkpt lat="45.75457" lon="6.72801">
        <ele>2172</ele>
        <time>2026-07-29T06:54:58.716Z</time>
      </trkpt>
      <trkpt lat="45.75455" lon="6.72799">
        <ele>2172</ele>
        <time>2026-07-29T06:54:59.716Z</time>
      </trkpt>
      <trkpt lat="45.75454" lon="6.72797">
        <ele>2172</ele>
        <time>2026-07-29T06:55:00.716Z</time>
      </trkpt>
      <trkpt lat="45.75453" lon="6.72794">
        <ele>2172</ele>
        <time>2026-07-29T06:55:01.716Z</time>
      </trkpt>
      <trkpt lat="45.75452" lon="6.72792">
        <ele>2172</ele>
        <time>2026-07-29T06:55:02.716Z</time>
      </trkpt>
      <trkpt lat="45.75451" lon="6.72791">
        <ele>2171</ele>
        <time>2026-07-29T06:55:03.716Z</time>
      </trkpt>
      <trkpt lat="45.7545" lon="6.72789">
        <ele>2171</ele>
        <time>2026-07-29T06:55:04.716Z</time>
      </trkpt>
      <trkpt lat="45.7545" lon="6.72789">
        <ele>2171</ele>
        <time>2026-07-29T06:55:05.716Z</time>
      </trkpt>
      <trkpt lat="45.7545" lon="6.72789">
        <ele>2171</ele>
        <time>2026-07-29T06:55:06.716Z</time>
      </trkpt>
      <trkpt lat="45.7545" lon="6.72789">
        <ele>2171</ele>
        <time>2026-07-29T06:55:07.716Z</time>
      </trkpt>
      <trkpt lat="45.7545" lon="6.72789">
        <ele>2170</ele>
        <time>2026-07-29T06:55:08.716Z</time>
      </trkpt>
      <trkpt lat="45.7545" lon="6.72789">
        <ele>2170</ele>
        <time>2026-07-29T06:55:09.716Z</time>
      </trkpt>
      <trkpt lat="45.7545" lon="6.72789">
        <ele>2169</ele>
        <time>2026-07-29T06:55:10.716Z</time>
      </trkpt>
      <trkpt lat="45.7545" lon="6.72789">
        <ele>2169</ele>
        <time>2026-07-29T06:55:11.716Z</time>
      </trkpt>
      <trkpt lat="45.7545" lon="6.72789">
        <ele>2169</ele>
        <time>2026-07-29T06:55:12.716Z</time>
      </trkpt>
      <trkpt lat="45.7545" lon="6.72789">
        <ele>2169</ele>
        <time>2026-07-29T06:55:13.716Z</time>
      </trkpt>
      <trkpt lat="45.7545" lon="6.72789">
        <ele>2169</ele>
        <time>2026-07-29T06:55:14.716Z</time>
      </trkpt>
      <trkpt lat="45.7545" lon="6.72789">
        <ele>2169</ele>
        <time>2026-07-29T06:55:15.716Z</time>
      </trkpt>
      <trkpt lat="45.7545" lon="6.72789">
        <ele>2169</ele>
        <time>2026-07-29T06:55:16.716Z</time>
      </trkpt>
      <trkpt lat="45.7545" lon="6.72789">
        <ele>2169</ele>
        <time>2026-07-29T06:55:17.716Z</time>
      </trkpt>
      <trkpt lat="45.7545" lon="6.72789">
        <ele>2169</ele>
        <time>2026-07-29T06:55:18.716Z</time>
      </trkpt>
      <trkpt lat="45.7545" lon="6.72789">
        <ele>2169</ele>
        <time>2026-07-29T06:55:19.716Z</time>
      </trkpt>
      <trkpt lat="45.7545" lon="6.72789">
        <ele>2170</ele>
        <time>2026-07-29T06:55:20.716Z</time>
      </trkpt>
      <trkpt lat="45.7545" lon="6.72789">
        <ele>2170</ele>
        <time>2026-07-29T06:55:21.716Z</time>
      </trkpt>
      <trkpt lat="45.7545" lon="6.72789">
        <ele>2170</ele>
        <time>2026-07-29T06:55:22.716Z</time>
      </trkpt>
      <trkpt lat="45.7545" lon="6.72789">
        <ele>2170</ele>
        <time>2026-07-29T06:55:23.716Z</time>
      </trkpt>
      <trkpt lat="45.7545" lon="6.72789">
        <ele>2170</ele>
        <time>2026-07-29T06:55:24.716Z</time>
      </trkpt>
      <trkpt lat="45.7545" lon="6.72789">
        <ele>2170</ele>
        <time>2026-07-29T06:55:25.716Z</time>
      </trkpt>
      <trkpt lat="45.7545" lon="6.72789">
        <ele>2170</ele>
        <time>2026-07-29T06:55:26.716Z</time>
      </trkpt>
      <trkpt lat="45.7545" lon="6.72789">
        <ele>2170</ele>
        <time>2026-07-29T06:55:27.716Z</time>
      </trkpt>
      <trkpt lat="45.7545" lon="6.72789">
        <ele>2170</ele>
        <time>2026-07-29T06:55:28.716Z</time>
      </trkpt>
      <trkpt lat="45.7545" lon="6.72789">
        <ele>2170</ele>
        <time>2026-07-29T06:55:29.716Z</time>
      </trkpt>
      <trkpt lat="45.7545" lon="6.72789">
        <ele>2170</ele>
        <time>2026-07-29T06:55:30.716Z</time>
      </trkpt>
      <trkpt lat="45.7545" lon="6.72789">
        <ele>2170</ele>
        <time>2026-07-29T06:55:31.716Z</time>
      </trkpt>
      <trkpt lat="45.7545" lon="6.72789">
        <ele>2170</ele>
        <time>2026-07-29T06:55:32.716Z</time>
      </trkpt>
      <trkpt lat="45.7545" lon="6.72789">
        <ele>2170</ele>
        <time>2026-07-29T06:55:33.716Z</time>
      </trkpt>
      <trkpt lat="45.7545" lon="6.72789">
        <ele>2170</ele>
        <time>2026-07-29T06:55:34.716Z</time>
      </trkpt>
      <trkpt lat="45.7545" lon="6.72789">
        <ele>2170</ele>
        <time>2026-07-29T06:55:35.716Z</time>
      </trkpt>
      <trkpt lat="45.7545" lon="6.72789">
        <ele>2170</ele>
        <time>2026-07-29T06:55:36.716Z</time>
      </trkpt>
      <trkpt lat="45.7545" lon="6.72789">
        <ele>2170</ele>
        <time>2026-07-29T06:55:37.716Z</time>
      </trkpt>
      <trkpt lat="45.7545" lon="6.72789">
        <ele>2170</ele>
        <time>2026-07-29T06:55:38.716Z</time>
      </trkpt>
      <trkpt lat="45.7545" lon="6.72789">
        <ele>2170</ele>
        <time>2026-07-29T06:55:39.716Z</time>
      </trkpt>
      <trkpt lat="45.7545" lon="6.72789">
        <ele>2170</ele>
        <time>2026-07-29T06:55:40.716Z</time>
      </trkpt>
      <trkpt lat="45.7545" lon="6.72788">
        <ele>2170</ele>
        <time>2026-07-29T06:55:41.716Z</time>
      </trkpt>
      <trkpt lat="45.7545" lon="6.72788">
        <ele>2170</ele>
        <time>2026-07-29T06:55:42.716Z</time>
      </trkpt>
      <trkpt lat="45.7545" lon="6.72788">
        <ele>2170</ele>
        <time>2026-07-29T06:55:43.716Z</time>
      </trkpt>
      <trkpt lat="45.7545" lon="6.72788">
        <ele>2170</ele>
        <time>2026-07-29T06:55:44.716Z</time>
      </trkpt>
      <trkpt lat="45.7545" lon="6.72788">
        <ele>2170</ele>
        <time>2026-07-29T06:55:45.716Z</time>
      </trkpt>
      <trkpt lat="45.7545" lon="6.72788">
        <ele>2170</ele>
        <time>2026-07-29T06:55:46.716Z</time>
      </trkpt>
      <trkpt lat="45.7545" lon="6.72788">
        <ele>2170</ele>
        <time>2026-07-29T06:55:47.716Z</time>
      </trkpt>
      <trkpt lat="45.7545" lon="6.72788">
        <ele>2170</ele>
        <time>2026-07-29T06:55:48.716Z</time>
      </trkpt>
      <trkpt lat="45.7545" lon="6.72788">
        <ele>2170</ele>
        <time>2026-07-29T06:55:49.716Z</time>
      </trkpt>
      <trkpt lat="45.7545" lon="6.72788">
        <ele>2170</ele>
        <time>2026-07-29T06:55:50.716Z</time>
      </trkpt>
      <trkpt lat="45.7545" lon="6.72788">
        <ele>2170</ele>
        <time>2026-07-29T06:55:51.716Z</time>
      </trkpt>
      <trkpt lat="45.7545" lon="6.72788">
        <ele>2170</ele>
        <time>2026-07-29T06:55:52.716Z</time>
      </trkpt>
      <trkpt lat="45.7545" lon="6.72788">
        <ele>2170</ele>
        <time>2026-07-29T06:55:53.716Z</time>
      </trkpt>
      <trkpt lat="45.7545" lon="6.72788">
        <ele>2170</ele>
        <time>2026-07-29T06:55:54.716Z</time>
      </trkpt>
      <trkpt lat="45.7545" lon="6.72788">
        <ele>2170</ele>
        <time>2026-07-29T06:55:55.716Z</time>
      </trkpt>
      <trkpt lat="45.7545" lon="6.72788">
        <ele>2170</ele>
        <time>2026-07-29T06:55:56.716Z</time>
      </trkpt>
      <trkpt lat="45.7545" lon="6.72788">
        <ele>2170</ele>
        <time>2026-07-29T06:55:57.716Z</time>
      </trkpt>
      <trkpt lat="45.7545" lon="6.72788">
        <ele>2170</ele>
        <time>2026-07-29T06:55:58.716Z</time>
      </trkpt>
      <trkpt lat="45.7545" lon="6.72788">
        <ele>2170</ele>
        <time>2026-07-29T06:55:59.716Z</time>
      </trkpt>
      <trkpt lat="45.7545" lon="6.72788">
        <ele>2170</ele>
        <time>2026-07-29T06:56:00.716Z</time>
      </trkpt>
      <trkpt lat="45.7545" lon="6.72789">
        <ele>2170</ele>
        <time>2026-07-29T06:56:01.716Z</time>
      </trkpt>
      <trkpt lat="45.75451" lon="6.72791">
        <ele>2170</ele>
        <time>2026-07-29T06:56:02.716Z</time>
      </trkpt>
      <trkpt lat="45.75453" lon="6.72793">
        <ele>2170</ele>
        <time>2026-07-29T06:56:03.716Z</time>
      </trkpt>
      <trkpt lat="45.75454" lon="6.72795">
        <ele>2170</ele>
        <time>2026-07-29T06:56:04.716Z</time>
      </trkpt>
      <trkpt lat="45.75455" lon="6.72796">
        <ele>2170</ele>
        <time>2026-07-29T06:56:05.716Z</time>
      </trkpt>
      <trkpt lat="45.75456" lon="6.72798">
        <ele>2170</ele>
        <time>2026-07-29T06:56:06.716Z</time>
      </trkpt>
      <trkpt lat="45.75457" lon="6.72799">
        <ele>2170</ele>
        <time>2026-07-29T06:56:07.716Z</time>
      </trkpt>
      <trkpt lat="45.75458" lon="6.72801">
        <ele>2171</ele>
        <time>2026-07-29T06:56:08.716Z</time>
      </trkpt>
      <trkpt lat="45.75459" lon="6.72802">
        <ele>2171</ele>
        <time>2026-07-29T06:56:09.716Z</time>
      </trkpt>
      <trkpt lat="45.75459" lon="6.72803">
        <ele>2171</ele>
        <time>2026-07-29T06:56:10.716Z</time>
      </trkpt>
      <trkpt lat="45.75459" lon="6.72803">
        <ele>2171</ele>
        <time>2026-07-29T06:56:11.716Z</time>
      </trkpt>
      <trkpt lat="45.75459" lon="6.72803">
        <ele>2171</ele>
        <time>2026-07-29T06:56:12.716Z</time>
      </trkpt>
      <trkpt lat="45.75459" lon="6.72803">
        <ele>2171</ele>
        <time>2026-07-29T06:56:13.716Z</time>
      </trkpt>
      <trkpt lat="45.75459" lon="6.72803">
        <ele>2171</ele>
        <time>2026-07-29T06:56:14.716Z</time>
      </trkpt>
      <trkpt lat="45.75459" lon="6.72803">
        <ele>2172</ele>
        <time>2026-07-29T06:56:15.716Z</time>
      </trkpt>
      <trkpt lat="45.75459" lon="6.72803">
        <ele>2172</ele>
        <time>2026-07-29T06:56:16.716Z</time>
      </trkpt>
      <trkpt lat="45.75459" lon="6.72803">
        <ele>2172</ele>
        <time>2026-07-29T06:56:17.716Z</time>
      </trkpt>
      <trkpt lat="45.75459" lon="6.72803">
        <ele>2172</ele>
        <time>2026-07-29T06:56:18.716Z</time>
      </trkpt>
      <trkpt lat="45.75459" lon="6.72803">
        <ele>2172</ele>
        <time>2026-07-29T06:56:19.716Z</time>
      </trkpt>
      <trkpt lat="45.75459" lon="6.72803">
        <ele>2171</ele>
        <time>2026-07-29T06:56:20.716Z</time>
      </trkpt>
      <trkpt lat="45.75459" lon="6.72803">
        <ele>2171</ele>
        <time>2026-07-29T06:56:21.716Z</time>
      </trkpt>
      <trkpt lat="45.75459" lon="6.72803">
        <ele>2171</ele>
        <time>2026-07-29T06:56:22.716Z</time>
      </trkpt>
      <trkpt lat="45.75459" lon="6.72803">
        <ele>2171</ele>
        <time>2026-07-29T06:56:23.716Z</time>
      </trkpt>
      <trkpt lat="45.75459" lon="6.72803">
        <ele>2171</ele>
        <time>2026-07-29T06:56:24.716Z</time>
      </trkpt>
      <trkpt lat="45.75459" lon="6.72803">
        <ele>2171</ele>
        <time>2026-07-29T06:56:25.717Z</time>
      </trkpt>
      <trkpt lat="45.75459" lon="6.72803">
        <ele>2171</ele>
        <time>2026-07-29T06:56:26.716Z</time>
      </trkpt>
      <trkpt lat="45.75459" lon="6.72803">
        <ele>2171</ele>
        <time>2026-07-29T06:56:27.716Z</time>
      </trkpt>
      <trkpt lat="45.75459" lon="6.72803">
        <ele>2171</ele>
        <time>2026-07-29T06:56:28.716Z</time>
      </trkpt>
      <trkpt lat="45.75459" lon="6.72803">
        <ele>2171</ele>
        <time>2026-07-29T06:56:29.716Z</time>
      </trkpt>
      <trkpt lat="45.75459" lon="6.72803">
        <ele>2171</ele>
        <time>2026-07-29T06:56:30.716Z</time>
      </trkpt>
      <trkpt lat="45.75459" lon="6.72803">
        <ele>2171</ele>
        <time>2026-07-29T06:56:31.716Z</time>
      </trkpt>
      <trkpt lat="45.75459" lon="6.72803">
        <ele>2171</ele>
        <time>2026-07-29T06:56:32.716Z</time>
      </trkpt>
      <trkpt lat="45.75459" lon="6.72803">
        <ele>2171</ele>
        <time>2026-07-29T06:56:33.716Z</time>
      </trkpt>
      <trkpt lat="45.75459" lon="6.72803">
        <ele>2171</ele>
        <time>2026-07-29T06:56:34.716Z</time>
      </trkpt>
      <trkpt lat="45.75459" lon="6.72803">
        <ele>2171</ele>
        <time>2026-07-29T06:56:35.716Z</time>
      </trkpt>
      <trkpt lat="45.75459" lon="6.72803">
        <ele>2171</ele>
        <time>2026-07-29T06:56:36.716Z</time>
      </trkpt>
      <trkpt lat="45.75459" lon="6.72803">
        <ele>2171</ele>
        <time>2026-07-29T06:56:37.716Z</time>
      </trkpt>
      <trkpt lat="45.75459" lon="6.72803">
        <ele>2171</ele>
        <time>2026-07-29T06:56:38.716Z</time>
      </trkpt>
      <trkpt lat="45.75459" lon="6.72803">
        <ele>2171</ele>
        <time>2026-07-29T06:56:39.716Z</time>
      </trkpt>
      <trkpt lat="45.75459" lon="6.72803">
        <ele>2171</ele>
        <time>2026-07-29T06:56:40.716Z</time>
      </trkpt>
      <trkpt lat="45.75459" lon="6.72803">
        <ele>2171</ele>
        <time>2026-07-29T06:56:41.716Z</time>
      </trkpt>
      <trkpt lat="45.75459" lon="6.72803">
        <ele>2171</ele>
        <time>2026-07-29T06:56:42.716Z</time>
      </trkpt>
      <trkpt lat="45.75459" lon="6.72803">
        <ele>2171</ele>
        <time>2026-07-29T06:56:43.716Z</time>
      </trkpt>
      <trkpt lat="45.75459" lon="6.72804">
        <ele>2171</ele>
        <time>2026-07-29T06:56:44.716Z</time>
      </trkpt>
      <trkpt lat="45.75459" lon="6.72804">
        <ele>2171</ele>
        <time>2026-07-29T06:56:45.716Z</time>
      </trkpt>
      <trkpt lat="45.75459" lon="6.72804">
        <ele>2171</ele>
        <time>2026-07-29T06:56:46.716Z</time>
      </trkpt>
      <trkpt lat="45.75459" lon="6.72804">
        <ele>2171</ele>
        <time>2026-07-29T06:56:47.716Z</time>
      </trkpt>
      <trkpt lat="45.75459" lon="6.72804">
        <ele>2171</ele>
        <time>2026-07-29T06:56:48.716Z</time>
      </trkpt>
      <trkpt lat="45.75459" lon="6.72804">
        <ele>2171</ele>
        <time>2026-07-29T06:56:49.716Z</time>
      </trkpt>
      <trkpt lat="45.75459" lon="6.72804">
        <ele>2171</ele>
        <time>2026-07-29T06:56:50.716Z</time>
      </trkpt>
      <trkpt lat="45.75459" lon="6.72804">
        <ele>2171</ele>
        <time>2026-07-29T06:56:51.716Z</time>
      </trkpt>
      <trkpt lat="45.75459" lon="6.72804">
        <ele>2171</ele>
        <time>2026-07-29T06:56:52.716Z</time>
      </trkpt>
      <trkpt lat="45.75459" lon="6.72804">
        <ele>2171</ele>
        <time>2026-07-29T06:56:53.716Z</time>
      </trkpt>
      <trkpt lat="45.75459" lon="6.72804">
        <ele>2171</ele>
        <time>2026-07-29T06:56:54.716Z</time>
      </trkpt>
      <trkpt lat="45.75459" lon="6.72804">
        <ele>2171</ele>
        <time>2026-07-29T06:56:55.716Z</time>
      </trkpt>
      <trkpt lat="45.7546" lon="6.72805">
        <ele>2171</ele>
        <time>2026-07-29T06:56:56.716Z</time>
      </trkpt>
      <trkpt lat="45.75461" lon="6.72807">
        <ele>2171</ele>
        <time>2026-07-29T06:56:57.716Z</time>
      </trkpt>
      <trkpt lat="45.75462" lon="6.72809">
        <ele>2171</ele>
        <time>2026-07-29T06:56:58.716Z</time>
      </trkpt>
      <trkpt lat="45.75464" lon="6.72811">
        <ele>2171</ele>
        <time>2026-07-29T06:56:59.716Z</time>
      </trkpt>
      <trkpt lat="45.75465" lon="6.72813">
        <ele>2171</ele>
        <time>2026-07-29T06:57:00.716Z</time>
      </trkpt>
      <trkpt lat="45.75467" lon="6.72815">
        <ele>2171</ele>
        <time>2026-07-29T06:57:01.716Z</time>
      </trkpt>
      <trkpt lat="45.75468" lon="6.72817">
        <ele>2171</ele>
        <time>2026-07-29T06:57:02.716Z</time>
      </trkpt>
      <trkpt lat="45.7547" lon="6.72819">
        <ele>2171</ele>
        <time>2026-07-29T06:57:03.716Z</time>
      </trkpt>
      <trkpt lat="45.75472" lon="6.72822">
        <ele>2171</ele>
        <time>2026-07-29T06:57:04.716Z</time>
      </trkpt>
      <trkpt lat="45.75473" lon="6.72824">
        <ele>2171</ele>
        <time>2026-07-29T06:57:05.716Z</time>
      </trkpt>
      <trkpt lat="45.75475" lon="6.72826">
        <ele>2171</ele>
        <time>2026-07-29T06:57:06.716Z</time>
      </trkpt>
      <trkpt lat="45.75476" lon="6.72828">
        <ele>2171</ele>
        <time>2026-07-29T06:57:07.716Z</time>
      </trkpt>
      <trkpt lat="45.75477" lon="6.7283">
        <ele>2171</ele>
        <time>2026-07-29T06:57:08.716Z</time>
      </trkpt>
      <trkpt lat="45.75479" lon="6.72831">
        <ele>2171</ele>
        <time>2026-07-29T06:57:09.716Z</time>
      </trkpt>
      <trkpt lat="45.7548" lon="6.72833">
        <ele>2171</ele>
        <time>2026-07-29T06:57:10.716Z</time>
      </trkpt>
      <trkpt lat="45.75482" lon="6.72834">
        <ele>2171</ele>
        <time>2026-07-29T06:57:11.716Z</time>
      </trkpt>
      <trkpt lat="45.75483" lon="6.72836">
        <ele>2171</ele>
        <time>2026-07-29T06:57:12.716Z</time>
      </trkpt>
      <trkpt lat="45.75484" lon="6.72837">
        <ele>2171</ele>
        <time>2026-07-29T06:57:13.716Z</time>
      </trkpt>
      <trkpt lat="45.75485" lon="6.72838">
        <ele>2171</ele>
        <time>2026-07-29T06:57:14.716Z</time>
      </trkpt>
      <trkpt lat="45.75486" lon="6.72839">
        <ele>2171</ele>
        <time>2026-07-29T06:57:15.716Z</time>
      </trkpt>
      <trkpt lat="45.75487" lon="6.7284">
        <ele>2171</ele>
        <time>2026-07-29T06:57:16.716Z</time>
      </trkpt>
      <trkpt lat="45.75488" lon="6.72841">
        <ele>2171</ele>
        <time>2026-07-29T06:57:17.716Z</time>
      </trkpt>
      <trkpt lat="45.75489" lon="6.72842">
        <ele>2172</ele>
        <time>2026-07-29T06:57:18.716Z</time>
      </trkpt>
      <trkpt lat="45.7549" lon="6.72843">
        <ele>2172</ele>
        <time>2026-07-29T06:57:19.716Z</time>
      </trkpt>
      <trkpt lat="45.7549" lon="6.72844">
        <ele>2173</ele>
        <time>2026-07-29T06:57:20.716Z</time>
      </trkpt>
      <trkpt lat="45.75491" lon="6.72845">
        <ele>2173</ele>
        <time>2026-07-29T06:57:21.716Z</time>
      </trkpt>
      <trkpt lat="45.75492" lon="6.72846">
        <ele>2173</ele>
        <time>2026-07-29T06:57:22.716Z</time>
      </trkpt>
      <trkpt lat="45.75493" lon="6.72846">
        <ele>2173</ele>
        <time>2026-07-29T06:57:23.716Z</time>
      </trkpt>
      <trkpt lat="45.75494" lon="6.72847">
        <ele>2174</ele>
        <time>2026-07-29T06:57:24.716Z</time>
      </trkpt>
      <trkpt lat="45.75495" lon="6.72848">
        <ele>2174</ele>
        <time>2026-07-29T06:57:25.716Z</time>
      </trkpt>
      <trkpt lat="45.75496" lon="6.72849">
        <ele>2174</ele>
        <time>2026-07-29T06:57:26.716Z</time>
      </trkpt>
      <trkpt lat="45.75497" lon="6.7285">
        <ele>2175</ele>
        <time>2026-07-29T06:57:27.716Z</time>
      </trkpt>
      <trkpt lat="45.75498" lon="6.72851">
        <ele>2175</ele>
        <time>2026-07-29T06:57:28.716Z</time>
      </trkpt>
      <trkpt lat="45.75499" lon="6.72852">
        <ele>2175</ele>
        <time>2026-07-29T06:57:29.716Z</time>
      </trkpt>
      <trkpt lat="45.755" lon="6.72853">
        <ele>2176</ele>
        <time>2026-07-29T06:57:30.716Z</time>
      </trkpt>
      <trkpt lat="45.75501" lon="6.72853">
        <ele>2176</ele>
        <time>2026-07-29T06:57:31.716Z</time>
      </trkpt>
      <trkpt lat="45.75502" lon="6.72854">
        <ele>2176</ele>
        <time>2026-07-29T06:57:32.716Z</time>
      </trkpt>
      <trkpt lat="45.75503" lon="6.72855">
        <ele>2177</ele>
        <time>2026-07-29T06:57:33.716Z</time>
      </trkpt>
      <trkpt lat="45.75504" lon="6.72856">
        <ele>2177</ele>
        <time>2026-07-29T06:57:34.716Z</time>
      </trkpt>
      <trkpt lat="45.75505" lon="6.72857">
        <ele>2178</ele>
        <time>2026-07-29T06:57:35.716Z</time>
      </trkpt>
      <trkpt lat="45.75506" lon="6.72858">
        <ele>2178</ele>
        <time>2026-07-29T06:57:36.716Z</time>
      </trkpt>
      <trkpt lat="45.75507" lon="6.72859">
        <ele>2178</ele>
        <time>2026-07-29T06:57:37.716Z</time>
      </trkpt>
      <trkpt lat="45.75508" lon="6.7286">
        <ele>2178</ele>
        <time>2026-07-29T06:57:38.716Z</time>
      </trkpt>
      <trkpt lat="45.75509" lon="6.7286">
        <ele>2179</ele>
        <time>2026-07-29T06:57:39.716Z</time>
      </trkpt>
      <trkpt lat="45.75509" lon="6.7286">
        <ele>2179</ele>
        <time>2026-07-29T06:57:40.716Z</time>
      </trkpt>
      <trkpt lat="45.7551" lon="6.72861">
        <ele>2180</ele>
        <time>2026-07-29T06:57:41.716Z</time>
      </trkpt>
      <trkpt lat="45.75511" lon="6.72862">
        <ele>2180</ele>
        <time>2026-07-29T06:57:42.716Z</time>
      </trkpt>
      <trkpt lat="45.75512" lon="6.72863">
        <ele>2181</ele>
        <time>2026-07-29T06:57:43.716Z</time>
      </trkpt>
      <trkpt lat="45.75513" lon="6.72865">
        <ele>2181</ele>
        <time>2026-07-29T06:57:44.716Z</time>
      </trkpt>
      <trkpt lat="45.75514" lon="6.72866">
        <ele>2181</ele>
        <time>2026-07-29T06:57:45.716Z</time>
      </trkpt>
      <trkpt lat="45.75515" lon="6.72868">
        <ele>2181</ele>
        <time>2026-07-29T06:57:46.716Z</time>
      </trkpt>
      <trkpt lat="45.75516" lon="6.7287">
        <ele>2181</ele>
        <time>2026-07-29T06:57:47.716Z</time>
      </trkpt>
      <trkpt lat="45.75516" lon="6.72871">
        <ele>2181</ele>
        <time>2026-07-29T06:57:48.716Z</time>
      </trkpt>
      <trkpt lat="45.75517" lon="6.72873">
        <ele>2181</ele>
        <time>2026-07-29T06:57:49.716Z</time>
      </trkpt>
      <trkpt lat="45.75518" lon="6.72875">
        <ele>2182</ele>
        <time>2026-07-29T06:57:50.716Z</time>
      </trkpt>
      <trkpt lat="45.7552" lon="6.72877">
        <ele>2182</ele>
        <time>2026-07-29T06:57:51.716Z</time>
      </trkpt>
      <trkpt lat="45.75521" lon="6.72879">
        <ele>2182</ele>
        <time>2026-07-29T06:57:52.716Z</time>
      </trkpt>
      <trkpt lat="45.75522" lon="6.72881">
        <ele>2182</ele>
        <time>2026-07-29T06:57:53.716Z</time>
      </trkpt>
      <trkpt lat="45.75523" lon="6.72883">
        <ele>2182</ele>
        <time>2026-07-29T06:57:54.716Z</time>
      </trkpt>
      <trkpt lat="45.75524" lon="6.72884">
        <ele>2183</ele>
        <time>2026-07-29T06:57:55.716Z</time>
      </trkpt>
      <trkpt lat="45.75524" lon="6.72886">
        <ele>2182</ele>
        <time>2026-07-29T06:57:56.716Z</time>
      </trkpt>
      <trkpt lat="45.75524" lon="6.72887">
        <ele>2182</ele>
        <time>2026-07-29T06:57:57.716Z</time>
      </trkpt>
      <trkpt lat="45.75524" lon="6.72889">
        <ele>2182</ele>
        <time>2026-07-29T06:57:58.716Z</time>
      </trkpt>
      <trkpt lat="45.75524" lon="6.72891">
        <ele>2182</ele>
        <time>2026-07-29T06:57:59.716Z</time>
      </trkpt>
      <trkpt lat="45.75524" lon="6.72893">
        <ele>2182</ele>
        <time>2026-07-29T06:58:00.716Z</time>
      </trkpt>
      <trkpt lat="45.75524" lon="6.72896">
        <ele>2183</ele>
        <time>2026-07-29T06:58:01.716Z</time>
      </trkpt>
      <trkpt lat="45.75524" lon="6.72897">
        <ele>2183</ele>
        <time>2026-07-29T06:58:02.716Z</time>
      </trkpt>
      <trkpt lat="45.75524" lon="6.72899">
        <ele>2182</ele>
        <time>2026-07-29T06:58:03.716Z</time>
      </trkpt>
      <trkpt lat="45.75525" lon="6.729">
        <ele>2182</ele>
        <time>2026-07-29T06:58:04.716Z</time>
      </trkpt>
      <trkpt lat="45.75524" lon="6.72901">
        <ele>2182</ele>
        <time>2026-07-29T06:58:05.716Z</time>
      </trkpt>
      <trkpt lat="45.75524" lon="6.72902">
        <ele>2182</ele>
        <time>2026-07-29T06:58:06.716Z</time>
      </trkpt>
      <trkpt lat="45.75525" lon="6.72903">
        <ele>2182</ele>
        <time>2026-07-29T06:58:07.716Z</time>
      </trkpt>
      <trkpt lat="45.75525" lon="6.72904">
        <ele>2182</ele>
        <time>2026-07-29T06:58:08.716Z</time>
      </trkpt>
      <trkpt lat="45.75525" lon="6.72905">
        <ele>2183</ele>
        <time>2026-07-29T06:58:09.716Z</time>
      </trkpt>
      <trkpt lat="45.75525" lon="6.72905">
        <ele>2183</ele>
        <time>2026-07-29T06:58:10.716Z</time>
      </trkpt>
      <trkpt lat="45.75525" lon="6.72905">
        <ele>2184</ele>
        <time>2026-07-29T06:58:11.716Z</time>
      </trkpt>
      <trkpt lat="45.75525" lon="6.72905">
        <ele>2184</ele>
        <time>2026-07-29T06:58:12.716Z</time>
      </trkpt>
      <trkpt lat="45.75525" lon="6.72905">
        <ele>2184</ele>
        <time>2026-07-29T06:58:13.716Z</time>
      </trkpt>
      <trkpt lat="45.75525" lon="6.72906">
        <ele>2184</ele>
        <time>2026-07-29T06:58:14.716Z</time>
      </trkpt>
      <trkpt lat="45.75526" lon="6.72908">
        <ele>2184</ele>
        <time>2026-07-29T06:58:15.716Z</time>
      </trkpt>
      <trkpt lat="45.75526" lon="6.7291">
        <ele>2183</ele>
        <time>2026-07-29T06:58:16.716Z</time>
      </trkpt>
      <trkpt lat="45.75526" lon="6.72912">
        <ele>2183</ele>
        <time>2026-07-29T06:58:17.716Z</time>
      </trkpt>
      <trkpt lat="45.75527" lon="6.72915">
        <ele>2182</ele>
        <time>2026-07-29T06:58:18.716Z</time>
      </trkpt>
      <trkpt lat="45.75528" lon="6.72918">
        <ele>2182</ele>
        <time>2026-07-29T06:58:19.716Z</time>
      </trkpt>
      <trkpt lat="45.75529" lon="6.72921">
        <ele>2182</ele>
        <time>2026-07-29T06:58:20.716Z</time>
      </trkpt>
      <trkpt lat="45.7553" lon="6.72924">
        <ele>2182</ele>
        <time>2026-07-29T06:58:21.716Z</time>
      </trkpt>
      <trkpt lat="45.7553" lon="6.72927">
        <ele>2182</ele>
        <time>2026-07-29T06:58:22.716Z</time>
      </trkpt>
      <trkpt lat="45.75531" lon="6.72929">
        <ele>2182</ele>
        <time>2026-07-29T06:58:23.716Z</time>
      </trkpt>
      <trkpt lat="45.75531" lon="6.72932">
        <ele>2182</ele>
        <time>2026-07-29T06:58:24.716Z</time>
      </trkpt>
      <trkpt lat="45.75532" lon="6.72934">
        <ele>2182</ele>
        <time>2026-07-29T06:58:25.716Z</time>
      </trkpt>
      <trkpt lat="45.75532" lon="6.72937">
        <ele>2182</ele>
        <time>2026-07-29T06:58:26.716Z</time>
      </trkpt>
      <trkpt lat="45.75533" lon="6.72939">
        <ele>2182</ele>
        <time>2026-07-29T06:58:27.716Z</time>
      </trkpt>
      <trkpt lat="45.75533" lon="6.72942">
        <ele>2182</ele>
        <time>2026-07-29T06:58:28.716Z</time>
      </trkpt>
      <trkpt lat="45.75534" lon="6.72944">
        <ele>2182</ele>
        <time>2026-07-29T06:58:29.716Z</time>
      </trkpt>
      <trkpt lat="45.75534" lon="6.72947">
        <ele>2182</ele>
        <time>2026-07-29T06:58:30.716Z</time>
      </trkpt>
      <trkpt lat="45.75535" lon="6.72949">
        <ele>2182</ele>
        <time>2026-07-29T06:58:31.716Z</time>
      </trkpt>
      <trkpt lat="45.75535" lon="6.72952">
        <ele>2182</ele>
        <time>2026-07-29T06:58:32.716Z</time>
      </trkpt>
      <trkpt lat="45.75535" lon="6.72954">
        <ele>2182</ele>
        <time>2026-07-29T06:58:33.716Z</time>
      </trkpt>
      <trkpt lat="45.75536" lon="6.72957">
        <ele>2182</ele>
        <time>2026-07-29T06:58:34.716Z</time>
      </trkpt>
      <trkpt lat="45.75536" lon="6.72959">
        <ele>2181</ele>
        <time>2026-07-29T06:58:35.716Z</time>
      </trkpt>
      <trkpt lat="45.75536" lon="6.72962">
        <ele>2181</ele>
        <time>2026-07-29T06:58:36.716Z</time>
      </trkpt>
      <trkpt lat="45.75536" lon="6.72965">
        <ele>2181</ele>
        <time>2026-07-29T06:58:37.716Z</time>
      </trkpt>
      <trkpt lat="45.75536" lon="6.72967">
        <ele>2182</ele>
        <time>2026-07-29T06:58:38.716Z</time>
      </trkpt>
      <trkpt lat="45.75535" lon="6.72969">
        <ele>2182</ele>
        <time>2026-07-29T06:58:39.716Z</time>
      </trkpt>
      <trkpt lat="45.75535" lon="6.7297">
        <ele>2182</ele>
        <time>2026-07-29T06:58:40.716Z</time>
      </trkpt>
      <trkpt lat="45.75535" lon="6.72972">
        <ele>2181</ele>
        <time>2026-07-29T06:58:41.716Z</time>
      </trkpt>
      <trkpt lat="45.75534" lon="6.72974">
        <ele>2181</ele>
        <time>2026-07-29T06:58:42.716Z</time>
      </trkpt>
      <trkpt lat="45.75533" lon="6.72975">
        <ele>2181</ele>
        <time>2026-07-29T06:58:43.716Z</time>
      </trkpt>
      <trkpt lat="45.75532" lon="6.72977">
        <ele>2181</ele>
        <time>2026-07-29T06:58:44.716Z</time>
      </trkpt>
      <trkpt lat="45.75531" lon="6.72978">
        <ele>2181</ele>
        <time>2026-07-29T06:58:45.716Z</time>
      </trkpt>
      <trkpt lat="45.7553" lon="6.7298">
        <ele>2181</ele>
        <time>2026-07-29T06:58:46.716Z</time>
      </trkpt>
      <trkpt lat="45.75529" lon="6.72982">
        <ele>2181</ele>
        <time>2026-07-29T06:58:47.716Z</time>
      </trkpt>
      <trkpt lat="45.75529" lon="6.72983">
        <ele>2181</ele>
        <time>2026-07-29T06:58:48.716Z</time>
      </trkpt>
      <trkpt lat="45.75529" lon="6.72983">
        <ele>2181</ele>
        <time>2026-07-29T06:58:49.716Z</time>
      </trkpt>
      <trkpt lat="45.75529" lon="6.72984">
        <ele>2181</ele>
        <time>2026-07-29T06:58:50.716Z</time>
      </trkpt>
      <trkpt lat="45.75528" lon="6.72984">
        <ele>2181</ele>
        <time>2026-07-29T06:58:51.716Z</time>
      </trkpt>
      <trkpt lat="45.75528" lon="6.72984">
        <ele>2182</ele>
        <time>2026-07-29T06:58:52.716Z</time>
      </trkpt>
      <trkpt lat="45.75528" lon="6.72983">
        <ele>2182</ele>
        <time>2026-07-29T06:58:53.716Z</time>
      </trkpt>
      <trkpt lat="45.75528" lon="6.72984">
        <ele>2182</ele>
        <time>2026-07-29T06:58:54.716Z</time>
      </trkpt>
      <trkpt lat="45.75528" lon="6.72984">
        <ele>2183</ele>
        <time>2026-07-29T06:58:55.716Z</time>
      </trkpt>
      <trkpt lat="45.75528" lon="6.72984">
        <ele>2183</ele>
        <time>2026-07-29T06:58:56.716Z</time>
      </trkpt>
      <trkpt lat="45.75528" lon="6.72984">
        <ele>2183</ele>
        <time>2026-07-29T06:58:57.716Z</time>
      </trkpt>
      <trkpt lat="45.75528" lon="6.72984">
        <ele>2184</ele>
        <time>2026-07-29T06:58:58.716Z</time>
      </trkpt>
      <trkpt lat="45.75528" lon="6.72984">
        <ele>2184</ele>
        <time>2026-07-29T06:58:59.716Z</time>
      </trkpt>
      <trkpt lat="45.75528" lon="6.72984">
        <ele>2184</ele>
        <time>2026-07-29T06:59:00.716Z</time>
      </trkpt>
      <trkpt lat="45.75528" lon="6.72984">
        <ele>2184</ele>
        <time>2026-07-29T06:59:01.716Z</time>
      </trkpt>
      <trkpt lat="45.75528" lon="6.72984">
        <ele>2184</ele>
        <time>2026-07-29T06:59:02.716Z</time>
      </trkpt>
      <trkpt lat="45.75528" lon="6.72984">
        <ele>2184</ele>
        <time>2026-07-29T06:59:03.716Z</time>
      </trkpt>
      <trkpt lat="45.75528" lon="6.72984">
        <ele>2184</ele>
        <time>2026-07-29T06:59:04.716Z</time>
      </trkpt>
      <trkpt lat="45.75528" lon="6.72984">
        <ele>2184</ele>
        <time>2026-07-29T06:59:05.716Z</time>
      </trkpt>
      <trkpt lat="45.75528" lon="6.72984">
        <ele>2184</ele>
        <time>2026-07-29T06:59:06.716Z</time>
      </trkpt>
      <trkpt lat="45.75528" lon="6.72984">
        <ele>2184</ele>
        <time>2026-07-29T06:59:07.716Z</time>
      </trkpt>
      <trkpt lat="45.75528" lon="6.72984">
        <ele>2184</ele>
        <time>2026-07-29T06:59:08.716Z</time>
      </trkpt>
      <trkpt lat="45.75528" lon="6.72984">
        <ele>2184</ele>
        <time>2026-07-29T06:59:09.716Z</time>
      </trkpt>
      <trkpt lat="45.75528" lon="6.72984">
        <ele>2184</ele>
        <time>2026-07-29T06:59:10.716Z</time>
      </trkpt>
      <trkpt lat="45.75528" lon="6.72984">
        <ele>2185</ele>
        <time>2026-07-29T06:59:11.716Z</time>
      </trkpt>
      <trkpt lat="45.75528" lon="6.72984">
        <ele>2185</ele>
        <time>2026-07-29T06:59:12.716Z</time>
      </trkpt>
      <trkpt lat="45.75528" lon="6.72984">
        <ele>2185</ele>
        <time>2026-07-29T06:59:13.716Z</time>
      </trkpt>
      <trkpt lat="45.75528" lon="6.72984">
        <ele>2185</ele>
        <time>2026-07-29T06:59:14.716Z</time>
      </trkpt>
      <trkpt lat="45.75528" lon="6.72984">
        <ele>2185</ele>
        <time>2026-07-29T06:59:15.716Z</time>
      </trkpt>
      <trkpt lat="45.75528" lon="6.72984">
        <ele>2185</ele>
        <time>2026-07-29T06:59:16.716Z</time>
      </trkpt>
      <trkpt lat="45.75528" lon="6.72984">
        <ele>2185</ele>
        <time>2026-07-29T06:59:17.716Z</time>
      </trkpt>
      <trkpt lat="45.75528" lon="6.72984">
        <ele>2185</ele>
        <time>2026-07-29T06:59:18.716Z</time>
      </trkpt>
      <trkpt lat="45.75528" lon="6.72984">
        <ele>2185</ele>
        <time>2026-07-29T06:59:19.716Z</time>
      </trkpt>
      <trkpt lat="45.75528" lon="6.72984">
        <ele>2185</ele>
        <time>2026-07-29T06:59:20.716Z</time>
      </trkpt>
      <trkpt lat="45.75528" lon="6.72987">
        <ele>2185</ele>
        <time>2026-07-29T06:59:21.717Z</time>
      </trkpt>
      <trkpt lat="45.75528" lon="6.7299">
        <ele>2185</ele>
        <time>2026-07-29T06:59:22.716Z</time>
      </trkpt>
      <trkpt lat="45.75527" lon="6.72993">
        <ele>2185</ele>
        <time>2026-07-29T06:59:23.716Z</time>
      </trkpt>
      <trkpt lat="45.75527" lon="6.72996">
        <ele>2185</ele>
        <time>2026-07-29T06:59:24.716Z</time>
      </trkpt>
      <trkpt lat="45.75528" lon="6.72999">
        <ele>2185</ele>
        <time>2026-07-29T06:59:25.716Z</time>
      </trkpt>
      <trkpt lat="45.75528" lon="6.73002">
        <ele>2185</ele>
        <time>2026-07-29T06:59:26.716Z</time>
      </trkpt>
      <trkpt lat="45.75528" lon="6.73005">
        <ele>2184</ele>
        <time>2026-07-29T06:59:27.716Z</time>
      </trkpt>
      <trkpt lat="45.75529" lon="6.73008">
        <ele>2184</ele>
        <time>2026-07-29T06:59:28.716Z</time>
      </trkpt>
      <trkpt lat="45.75529" lon="6.7301">
        <ele>2184</ele>
        <time>2026-07-29T06:59:29.716Z</time>
      </trkpt>
      <trkpt lat="45.75529" lon="6.73013">
        <ele>2184</ele>
        <time>2026-07-29T06:59:30.716Z</time>
      </trkpt>
      <trkpt lat="45.75529" lon="6.73015">
        <ele>2184</ele>
        <time>2026-07-29T06:59:31.716Z</time>
      </trkpt>
      <trkpt lat="45.75529" lon="6.73017">
        <ele>2184</ele>
        <time>2026-07-29T06:59:32.716Z</time>
      </trkpt>
      <trkpt lat="45.75529" lon="6.73019">
        <ele>2184</ele>
        <time>2026-07-29T06:59:33.716Z</time>
      </trkpt>
      <trkpt lat="45.75529" lon="6.73022">
        <ele>2184</ele>
        <time>2026-07-29T06:59:34.716Z</time>
      </trkpt>
      <trkpt lat="45.7553" lon="6.73024">
        <ele>2185</ele>
        <time>2026-07-29T06:59:35.716Z</time>
      </trkpt>
      <trkpt lat="45.7553" lon="6.73026">
        <ele>2185</ele>
        <time>2026-07-29T06:59:36.716Z</time>
      </trkpt>
      <trkpt lat="45.75531" lon="6.73029">
        <ele>2185</ele>
        <time>2026-07-29T06:59:37.716Z</time>
      </trkpt>
      <trkpt lat="45.75532" lon="6.73031">
        <ele>2186</ele>
        <time>2026-07-29T06:59:38.716Z</time>
      </trkpt>
      <trkpt lat="45.75532" lon="6.73034">
        <ele>2186</ele>
        <time>2026-07-29T06:59:39.716Z</time>
      </trkpt>
      <trkpt lat="45.75533" lon="6.73037">
        <ele>2186</ele>
        <time>2026-07-29T06:59:40.716Z</time>
      </trkpt>
      <trkpt lat="45.75534" lon="6.73039">
        <ele>2186</ele>
        <time>2026-07-29T06:59:41.716Z</time>
      </trkpt>
      <trkpt lat="45.75534" lon="6.73041">
        <ele>2186</ele>
        <time>2026-07-29T06:59:42.716Z</time>
      </trkpt>
      <trkpt lat="45.75535" lon="6.73044">
        <ele>2187</ele>
        <time>2026-07-29T06:59:43.716Z</time>
      </trkpt>
      <trkpt lat="45.75536" lon="6.73046">
        <ele>2187</ele>
        <time>2026-07-29T06:59:44.716Z</time>
      </trkpt>
      <trkpt lat="45.75537" lon="6.73049">
        <ele>2187</ele>
        <time>2026-07-29T06:59:45.716Z</time>
      </trkpt>
      <trkpt lat="45.75538" lon="6.73052">
        <ele>2187</ele>
        <time>2026-07-29T06:59:46.716Z</time>
      </trkpt>
      <trkpt lat="45.75539" lon="6.73054">
        <ele>2187</ele>
        <time>2026-07-29T06:59:47.716Z</time>
      </trkpt>
      <trkpt lat="45.7554" lon="6.73057">
        <ele>2187</ele>
        <time>2026-07-29T06:59:48.716Z</time>
      </trkpt>
      <trkpt lat="45.7554" lon="6.7306">
        <ele>2187</ele>
        <time>2026-07-29T06:59:49.716Z</time>
      </trkpt>
      <trkpt lat="45.75541" lon="6.73062">
        <ele>2187</ele>
        <time>2026-07-29T06:59:50.716Z</time>
      </trkpt>
      <trkpt lat="45.75541" lon="6.73065">
        <ele>2187</ele>
        <time>2026-07-29T06:59:51.716Z</time>
      </trkpt>
      <trkpt lat="45.75542" lon="6.73068">
        <ele>2186</ele>
        <time>2026-07-29T06:59:52.716Z</time>
      </trkpt>
      <trkpt lat="45.75542" lon="6.7307">
        <ele>2186</ele>
        <time>2026-07-29T06:59:53.716Z</time>
      </trkpt>
      <trkpt lat="45.75542" lon="6.73073">
        <ele>2186</ele>
        <time>2026-07-29T06:59:54.716Z</time>
      </trkpt>
      <trkpt lat="45.75542" lon="6.73075">
        <ele>2187</ele>
        <time>2026-07-29T06:59:55.716Z</time>
      </trkpt>
      <trkpt lat="45.75542" lon="6.73077">
        <ele>2187</ele>
        <time>2026-07-29T06:59:56.716Z</time>
      </trkpt>
      <trkpt lat="45.75542" lon="6.73079">
        <ele>2188</ele>
        <time>2026-07-29T06:59:57.716Z</time>
      </trkpt>
      <trkpt lat="45.75542" lon="6.73081">
        <ele>2188</ele>
        <time>2026-07-29T06:59:58.716Z</time>
      </trkpt>
      <trkpt lat="45.75542" lon="6.73083">
        <ele>2188</ele>
        <time>2026-07-29T06:59:59.716Z</time>
      </trkpt>
      <trkpt lat="45.75542" lon="6.73085">
        <ele>2188</ele>
        <time>2026-07-29T07:00:00.716Z</time>
      </trkpt>
      <trkpt lat="45.75542" lon="6.73087">
        <ele>2188</ele>
        <time>2026-07-29T07:00:01.716Z</time>
      </trkpt>
      <trkpt lat="45.75543" lon="6.73088">
        <ele>2189</ele>
        <time>2026-07-29T07:00:02.716Z</time>
      </trkpt>
      <trkpt lat="45.75544" lon="6.7309">
        <ele>2189</ele>
        <time>2026-07-29T07:00:03.716Z</time>
      </trkpt>
      <trkpt lat="45.75544" lon="6.73092">
        <ele>2189</ele>
        <time>2026-07-29T07:00:04.716Z</time>
      </trkpt>
      <trkpt lat="45.75545" lon="6.73093">
        <ele>2189</ele>
        <time>2026-07-29T07:00:05.716Z</time>
      </trkpt>
      <trkpt lat="45.75545" lon="6.73095">
        <ele>2189</ele>
        <time>2026-07-29T07:00:06.716Z</time>
      </trkpt>
      <trkpt lat="45.75546" lon="6.73096">
        <ele>2190</ele>
        <time>2026-07-29T07:00:07.716Z</time>
      </trkpt>
      <trkpt lat="45.75546" lon="6.73097">
        <ele>2190</ele>
        <time>2026-07-29T07:00:08.716Z</time>
      </trkpt>
      <trkpt lat="45.75546" lon="6.73097">
        <ele>2191</ele>
        <time>2026-07-29T07:00:09.716Z</time>
      </trkpt>
      <trkpt lat="45.75546" lon="6.73098">
        <ele>2191</ele>
        <time>2026-07-29T07:00:10.716Z</time>
      </trkpt>
      <trkpt lat="45.75547" lon="6.73099">
        <ele>2190</ele>
        <time>2026-07-29T07:00:11.716Z</time>
      </trkpt>
      <trkpt lat="45.75547" lon="6.73099">
        <ele>2190</ele>
        <time>2026-07-29T07:00:12.716Z</time>
      </trkpt>
      <trkpt lat="45.75548" lon="6.73101">
        <ele>2190</ele>
        <time>2026-07-29T07:00:13.716Z</time>
      </trkpt>
      <trkpt lat="45.75549" lon="6.73102">
        <ele>2190</ele>
        <time>2026-07-29T07:00:14.716Z</time>
      </trkpt>
      <trkpt lat="45.7555" lon="6.73103">
        <ele>2189</ele>
        <time>2026-07-29T07:00:15.716Z</time>
      </trkpt>
      <trkpt lat="45.75551" lon="6.73105">
        <ele>2189</ele>
        <time>2026-07-29T07:00:16.716Z</time>
      </trkpt>
      <trkpt lat="45.75552" lon="6.73107">
        <ele>2189</ele>
        <time>2026-07-29T07:00:17.716Z</time>
      </trkpt>
      <trkpt lat="45.75554" lon="6.73109">
        <ele>2189</ele>
        <time>2026-07-29T07:00:18.716Z</time>
      </trkpt>
      <trkpt lat="45.75555" lon="6.73111">
        <ele>2188</ele>
        <time>2026-07-29T07:00:19.716Z</time>
      </trkpt>
      <trkpt lat="45.75556" lon="6.73113">
        <ele>2188</ele>
        <time>2026-07-29T07:00:20.716Z</time>
      </trkpt>
      <trkpt lat="45.75558" lon="6.73115">
        <ele>2188</ele>
        <time>2026-07-29T07:00:21.716Z</time>
      </trkpt>
      <trkpt lat="45.7556" lon="6.73117">
        <ele>2189</ele>
        <time>2026-07-29T07:00:22.716Z</time>
      </trkpt>
      <trkpt lat="45.75561" lon="6.73119">
        <ele>2189</ele>
        <time>2026-07-29T07:00:23.716Z</time>
      </trkpt>
      <trkpt lat="45.75563" lon="6.73122">
        <ele>2189</ele>
        <time>2026-07-29T07:00:24.716Z</time>
      </trkpt>
      <trkpt lat="45.75564" lon="6.73124">
        <ele>2189</ele>
        <time>2026-07-29T07:00:25.716Z</time>
      </trkpt>
      <trkpt lat="45.75565" lon="6.73127">
        <ele>2189</ele>
        <time>2026-07-29T07:00:26.716Z</time>
      </trkpt>
      <trkpt lat="45.75567" lon="6.7313">
        <ele>2189</ele>
        <time>2026-07-29T07:00:27.716Z</time>
      </trkpt>
      <trkpt lat="45.75568" lon="6.73132">
        <ele>2189</ele>
        <time>2026-07-29T07:00:28.716Z</time>
      </trkpt>
      <trkpt lat="45.75569" lon="6.73134">
        <ele>2189</ele>
        <time>2026-07-29T07:00:29.716Z</time>
      </trkpt>
      <trkpt lat="45.75569" lon="6.73136">
        <ele>2189</ele>
        <time>2026-07-29T07:00:30.716Z</time>
      </trkpt>
      <trkpt lat="45.7557" lon="6.73138">
        <ele>2189</ele>
        <time>2026-07-29T07:00:31.716Z</time>
      </trkpt>
      <trkpt lat="45.75571" lon="6.7314">
        <ele>2189</ele>
        <time>2026-07-29T07:00:32.716Z</time>
      </trkpt>
      <trkpt lat="45.75573" lon="6.73142">
        <ele>2189</ele>
        <time>2026-07-29T07:00:33.716Z</time>
      </trkpt>
      <trkpt lat="45.75573" lon="6.73144">
        <ele>2189</ele>
        <time>2026-07-29T07:00:34.716Z</time>
      </trkpt>
      <trkpt lat="45.75574" lon="6.73146">
        <ele>2190</ele>
        <time>2026-07-29T07:00:35.716Z</time>
      </trkpt>
      <trkpt lat="45.75575" lon="6.73148">
        <ele>2190</ele>
        <time>2026-07-29T07:00:36.716Z</time>
      </trkpt>
      <trkpt lat="45.75576" lon="6.7315">
        <ele>2190</ele>
        <time>2026-07-29T07:00:37.716Z</time>
      </trkpt>
      <trkpt lat="45.75577" lon="6.73152">
        <ele>2190</ele>
        <time>2026-07-29T07:00:38.716Z</time>
      </trkpt>
      <trkpt lat="45.75579" lon="6.73154">
        <ele>2190</ele>
        <time>2026-07-29T07:00:39.716Z</time>
      </trkpt>
      <trkpt lat="45.7558" lon="6.73157">
        <ele>2189</ele>
        <time>2026-07-29T07:00:40.716Z</time>
      </trkpt>
      <trkpt lat="45.75582" lon="6.73159">
        <ele>2189</ele>
        <time>2026-07-29T07:00:41.716Z</time>
      </trkpt>
      <trkpt lat="45.75583" lon="6.73161">
        <ele>2189</ele>
        <time>2026-07-29T07:00:42.716Z</time>
      </trkpt>
      <trkpt lat="45.75585" lon="6.73163">
        <ele>2188</ele>
        <time>2026-07-29T07:00:43.716Z</time>
      </trkpt>
      <trkpt lat="45.75586" lon="6.73165">
        <ele>2188</ele>
        <time>2026-07-29T07:00:44.716Z</time>
      </trkpt>
      <trkpt lat="45.75588" lon="6.73166">
        <ele>2188</ele>
        <time>2026-07-29T07:00:45.716Z</time>
      </trkpt>
      <trkpt lat="45.75589" lon="6.73168">
        <ele>2188</ele>
        <time>2026-07-29T07:00:46.716Z</time>
      </trkpt>
      <trkpt lat="45.75591" lon="6.7317">
        <ele>2187</ele>
        <time>2026-07-29T07:00:47.716Z</time>
      </trkpt>
      <trkpt lat="45.75592" lon="6.73172">
        <ele>2187</ele>
        <time>2026-07-29T07:00:48.716Z</time>
      </trkpt>
      <trkpt lat="45.75594" lon="6.73174">
        <ele>2187</ele>
        <time>2026-07-29T07:00:49.716Z</time>
      </trkpt>
      <trkpt lat="45.75596" lon="6.73176">
        <ele>2187</ele>
        <time>2026-07-29T07:00:50.716Z</time>
      </trkpt>
      <trkpt lat="45.75597" lon="6.73178">
        <ele>2186</ele>
        <time>2026-07-29T07:00:51.716Z</time>
      </trkpt>
      <trkpt lat="45.75599" lon="6.7318">
        <ele>2186</ele>
        <time>2026-07-29T07:00:52.716Z</time>
      </trkpt>
      <trkpt lat="45.75601" lon="6.73182">
        <ele>2186</ele>
        <time>2026-07-29T07:00:53.716Z</time>
      </trkpt>
      <trkpt lat="45.75602" lon="6.73183">
        <ele>2186</ele>
        <time>2026-07-29T07:00:54.716Z</time>
      </trkpt>
      <trkpt lat="45.75604" lon="6.73185">
        <ele>2185</ele>
        <time>2026-07-29T07:00:55.716Z</time>
      </trkpt>
      <trkpt lat="45.75606" lon="6.73187">
        <ele>2185</ele>
        <time>2026-07-29T07:00:56.716Z</time>
      </trkpt>
      <trkpt lat="45.75608" lon="6.73189">
        <ele>2186</ele>
        <time>2026-07-29T07:00:57.716Z</time>
      </trkpt>
      <trkpt lat="45.7561" lon="6.73191">
        <ele>2186</ele>
        <time>2026-07-29T07:00:58.716Z</time>
      </trkpt>
      <trkpt lat="45.75612" lon="6.73192">
        <ele>2185</ele>
        <time>2026-07-29T07:00:59.716Z</time>
      </trkpt>
      <trkpt lat="45.75614" lon="6.73193">
        <ele>2186</ele>
        <time>2026-07-29T07:01:00.716Z</time>
      </trkpt>
      <trkpt lat="45.75615" lon="6.73195">
        <ele>2186</ele>
        <time>2026-07-29T07:01:01.716Z</time>
      </trkpt>
      <trkpt lat="45.75617" lon="6.73196">
        <ele>2186</ele>
        <time>2026-07-29T07:01:02.716Z</time>
      </trkpt>
      <trkpt lat="45.75618" lon="6.73197">
        <ele>2186</ele>
        <time>2026-07-29T07:01:03.716Z</time>
      </trkpt>
      <trkpt lat="45.75619" lon="6.73198">
        <ele>2185</ele>
        <time>2026-07-29T07:01:04.716Z</time>
      </trkpt>
      <trkpt lat="45.75621" lon="6.73198">
        <ele>2185</ele>
        <time>2026-07-29T07:01:05.716Z</time>
      </trkpt>
      <trkpt lat="45.75622" lon="6.73198">
        <ele>2185</ele>
        <time>2026-07-29T07:01:06.716Z</time>
      </trkpt>
      <trkpt lat="45.75624" lon="6.73198">
        <ele>2185</ele>
        <time>2026-07-29T07:01:07.716Z</time>
      </trkpt>
      <trkpt lat="45.75625" lon="6.73198">
        <ele>2185</ele>
        <time>2026-07-29T07:01:08.716Z</time>
      </trkpt>
      <trkpt lat="45.75627" lon="6.73197">
        <ele>2185</ele>
        <time>2026-07-29T07:01:09.716Z</time>
      </trkpt>
      <trkpt lat="45.75628" lon="6.73197">
        <ele>2185</ele>
        <time>2026-07-29T07:01:10.716Z</time>
      </trkpt>
      <trkpt lat="45.7563" lon="6.73197">
        <ele>2185</ele>
        <time>2026-07-29T07:01:11.716Z</time>
      </trkpt>
      <trkpt lat="45.75631" lon="6.73197">
        <ele>2185</ele>
        <time>2026-07-29T07:01:12.716Z</time>
      </trkpt>
      <trkpt lat="45.75632" lon="6.73197">
        <ele>2186</ele>
        <time>2026-07-29T07:01:13.716Z</time>
      </trkpt>
      <trkpt lat="45.75634" lon="6.73197">
        <ele>2186</ele>
        <time>2026-07-29T07:01:14.716Z</time>
      </trkpt>
      <trkpt lat="45.75635" lon="6.73197">
        <ele>2186</ele>
        <time>2026-07-29T07:01:15.716Z</time>
      </trkpt>
      <trkpt lat="45.75636" lon="6.73197">
        <ele>2186</ele>
        <time>2026-07-29T07:01:16.716Z</time>
      </trkpt>
      <trkpt lat="45.75637" lon="6.73197">
        <ele>2186</ele>
        <time>2026-07-29T07:01:17.716Z</time>
      </trkpt>
      <trkpt lat="45.75637" lon="6.73198">
        <ele>2187</ele>
        <time>2026-07-29T07:01:18.716Z</time>
      </trkpt>
      <trkpt lat="45.75638" lon="6.73199">
        <ele>2187</ele>
        <time>2026-07-29T07:01:19.716Z</time>
      </trkpt>
      <trkpt lat="45.75638" lon="6.732">
        <ele>2187</ele>
        <time>2026-07-29T07:01:20.716Z</time>
      </trkpt>
      <trkpt lat="45.75637" lon="6.73201">
        <ele>2187</ele>
        <time>2026-07-29T07:01:21.716Z</time>
      </trkpt>
      <trkpt lat="45.75637" lon="6.73202">
        <ele>2187</ele>
        <time>2026-07-29T07:01:22.716Z</time>
      </trkpt>
      <trkpt lat="45.75637" lon="6.73202">
        <ele>2186</ele>
        <time>2026-07-29T07:01:23.716Z</time>
      </trkpt>
      <trkpt lat="45.75638" lon="6.73203">
        <ele>2186</ele>
        <time>2026-07-29T07:01:24.716Z</time>
      </trkpt>
      <trkpt lat="45.75639" lon="6.73203">
        <ele>2186</ele>
        <time>2026-07-29T07:01:25.717Z</time>
      </trkpt>
      <trkpt lat="45.7564" lon="6.73203">
        <ele>2186</ele>
        <time>2026-07-29T07:01:26.716Z</time>
      </trkpt>
      <trkpt lat="45.75641" lon="6.73203">
        <ele>2186</ele>
        <time>2026-07-29T07:01:27.716Z</time>
      </trkpt>
      <trkpt lat="45.75641" lon="6.73204">
        <ele>2187</ele>
        <time>2026-07-29T07:01:28.716Z</time>
      </trkpt>
      <trkpt lat="45.75642" lon="6.73204">
        <ele>2187</ele>
        <time>2026-07-29T07:01:29.716Z</time>
      </trkpt>
      <trkpt lat="45.75643" lon="6.73205">
        <ele>2187</ele>
        <time>2026-07-29T07:01:30.716Z</time>
      </trkpt>
      <trkpt lat="45.75643" lon="6.73206">
        <ele>2188</ele>
        <time>2026-07-29T07:01:31.716Z</time>
      </trkpt>
      <trkpt lat="45.75643" lon="6.73207">
        <ele>2188</ele>
        <time>2026-07-29T07:01:32.716Z</time>
      </trkpt>
      <trkpt lat="45.75643" lon="6.73208">
        <ele>2188</ele>
        <time>2026-07-29T07:01:33.716Z</time>
      </trkpt>
      <trkpt lat="45.75642" lon="6.7321">
        <ele>2189</ele>
        <time>2026-07-29T07:01:34.716Z</time>
      </trkpt>
      <trkpt lat="45.75642" lon="6.73211">
        <ele>2189</ele>
        <time>2026-07-29T07:01:35.716Z</time>
      </trkpt>
      <trkpt lat="45.75642" lon="6.73212">
        <ele>2189</ele>
        <time>2026-07-29T07:01:36.716Z</time>
      </trkpt>
      <trkpt lat="45.75642" lon="6.73213">
        <ele>2189</ele>
        <time>2026-07-29T07:01:37.716Z</time>
      </trkpt>
      <trkpt lat="45.75641" lon="6.73214">
        <ele>2190</ele>
        <time>2026-07-29T07:01:38.716Z</time>
      </trkpt>
      <trkpt lat="45.75641" lon="6.73215">
        <ele>2190</ele>
        <time>2026-07-29T07:01:39.716Z</time>
      </trkpt>
      <trkpt lat="45.75641" lon="6.73215">
        <ele>2190</ele>
        <time>2026-07-29T07:01:40.716Z</time>
      </trkpt>
      <trkpt lat="45.75641" lon="6.73216">
        <ele>2190</ele>
        <time>2026-07-29T07:01:41.716Z</time>
      </trkpt>
      <trkpt lat="45.75641" lon="6.73217">
        <ele>2190</ele>
        <time>2026-07-29T07:01:42.716Z</time>
      </trkpt>
      <trkpt lat="45.75642" lon="6.73218">
        <ele>2190</ele>
        <time>2026-07-29T07:01:43.716Z</time>
      </trkpt>
      <trkpt lat="45.75642" lon="6.73218">
        <ele>2190</ele>
        <time>2026-07-29T07:01:44.716Z</time>
      </trkpt>
      <trkpt lat="45.75643" lon="6.73219">
        <ele>2191</ele>
        <time>2026-07-29T07:01:45.716Z</time>
      </trkpt>
      <trkpt lat="45.75644" lon="6.73219">
        <ele>2191</ele>
        <time>2026-07-29T07:01:46.716Z</time>
      </trkpt>
      <trkpt lat="45.75644" lon="6.73219">
        <ele>2192</ele>
        <time>2026-07-29T07:01:47.716Z</time>
      </trkpt>
      <trkpt lat="45.75645" lon="6.73219">
        <ele>2192</ele>
        <time>2026-07-29T07:01:48.716Z</time>
      </trkpt>
      <trkpt lat="45.75646" lon="6.73219">
        <ele>2192</ele>
        <time>2026-07-29T07:01:49.716Z</time>
      </trkpt>
      <trkpt lat="45.75646" lon="6.7322">
        <ele>2193</ele>
        <time>2026-07-29T07:01:50.716Z</time>
      </trkpt>
      <trkpt lat="45.75647" lon="6.73221">
        <ele>2193</ele>
        <time>2026-07-29T07:01:51.716Z</time>
      </trkpt>
      <trkpt lat="45.75647" lon="6.73222">
        <ele>2193</ele>
        <time>2026-07-29T07:01:52.716Z</time>
      </trkpt>
      <trkpt lat="45.75647" lon="6.73224">
        <ele>2193</ele>
        <time>2026-07-29T07:01:53.716Z</time>
      </trkpt>
      <trkpt lat="45.75647" lon="6.73225">
        <ele>2193</ele>
        <time>2026-07-29T07:01:54.716Z</time>
      </trkpt>
      <trkpt lat="45.75647" lon="6.73226">
        <ele>2193</ele>
        <time>2026-07-29T07:01:55.716Z</time>
      </trkpt>
      <trkpt lat="45.75647" lon="6.73227">
        <ele>2192</ele>
        <time>2026-07-29T07:01:56.716Z</time>
      </trkpt>
      <trkpt lat="45.75647" lon="6.73229">
        <ele>2193</ele>
        <time>2026-07-29T07:01:57.716Z</time>
      </trkpt>
      <trkpt lat="45.75647" lon="6.7323">
        <ele>2193</ele>
        <time>2026-07-29T07:01:58.716Z</time>
      </trkpt>
      <trkpt lat="45.75648" lon="6.73231">
        <ele>2193</ele>
        <time>2026-07-29T07:01:59.716Z</time>
      </trkpt>
      <trkpt lat="45.75648" lon="6.73232">
        <ele>2194</ele>
        <time>2026-07-29T07:02:00.716Z</time>
      </trkpt>
      <trkpt lat="45.75649" lon="6.73233">
        <ele>2195</ele>
        <time>2026-07-29T07:02:01.716Z</time>
      </trkpt>
      <trkpt lat="45.75649" lon="6.73234">
        <ele>2195</ele>
        <time>2026-07-29T07:02:02.716Z</time>
      </trkpt>
      <trkpt lat="45.7565" lon="6.73235">
        <ele>2196</ele>
        <time>2026-07-29T07:02:03.716Z</time>
      </trkpt>
      <trkpt lat="45.75651" lon="6.73236">
        <ele>2196</ele>
        <time>2026-07-29T07:02:04.716Z</time>
      </trkpt>
      <trkpt lat="45.75651" lon="6.73237">
        <ele>2197</ele>
        <time>2026-07-29T07:02:05.716Z</time>
      </trkpt>
      <trkpt lat="45.75652" lon="6.73237">
        <ele>2197</ele>
        <time>2026-07-29T07:02:06.716Z</time>
      </trkpt>
      <trkpt lat="45.75652" lon="6.73238">
        <ele>2198</ele>
        <time>2026-07-29T07:02:07.716Z</time>
      </trkpt>
      <trkpt lat="45.75653" lon="6.73239">
        <ele>2198</ele>
        <time>2026-07-29T07:02:08.716Z</time>
      </trkpt>
      <trkpt lat="45.75653" lon="6.7324">
        <ele>2199</ele>
        <time>2026-07-29T07:02:09.716Z</time>
      </trkpt>
      <trkpt lat="45.75653" lon="6.73241">
        <ele>2199</ele>
        <time>2026-07-29T07:02:10.716Z</time>
      </trkpt>
      <trkpt lat="45.75653" lon="6.73242">
        <ele>2199</ele>
        <time>2026-07-29T07:02:11.716Z</time>
      </trkpt>
      <trkpt lat="45.75653" lon="6.73243">
        <ele>2199</ele>
        <time>2026-07-29T07:02:12.716Z</time>
      </trkpt>
      <trkpt lat="45.75653" lon="6.73245">
        <ele>2199</ele>
        <time>2026-07-29T07:02:13.716Z</time>
      </trkpt>
      <trkpt lat="45.75653" lon="6.73246">
        <ele>2199</ele>
        <time>2026-07-29T07:02:14.716Z</time>
      </trkpt>
      <trkpt lat="45.75654" lon="6.73248">
        <ele>2199</ele>
        <time>2026-07-29T07:02:15.716Z</time>
      </trkpt>
      <trkpt lat="45.75654" lon="6.73249">
        <ele>2199</ele>
        <time>2026-07-29T07:02:16.716Z</time>
      </trkpt>
      <trkpt lat="45.75654" lon="6.7325">
        <ele>2199</ele>
        <time>2026-07-29T07:02:17.716Z</time>
      </trkpt>
      <trkpt lat="45.75655" lon="6.73251">
        <ele>2199</ele>
        <time>2026-07-29T07:02:18.716Z</time>
      </trkpt>
      <trkpt lat="45.75655" lon="6.73253">
        <ele>2199</ele>
        <time>2026-07-29T07:02:19.716Z</time>
      </trkpt>
      <trkpt lat="45.75656" lon="6.73254">
        <ele>2199</ele>
        <time>2026-07-29T07:02:20.716Z</time>
      </trkpt>
      <trkpt lat="45.75656" lon="6.73256">
        <ele>2199</ele>
        <time>2026-07-29T07:02:21.716Z</time>
      </trkpt>
      <trkpt lat="45.75657" lon="6.73257">
        <ele>2199</ele>
        <time>2026-07-29T07:02:22.716Z</time>
      </trkpt>
      <trkpt lat="45.75657" lon="6.73259">
        <ele>2199</ele>
        <time>2026-07-29T07:02:23.716Z</time>
      </trkpt>
      <trkpt lat="45.75657" lon="6.7326">
        <ele>2199</ele>
        <time>2026-07-29T07:02:24.716Z</time>
      </trkpt>
      <trkpt lat="45.75657" lon="6.73261">
        <ele>2199</ele>
        <time>2026-07-29T07:02:25.716Z</time>
      </trkpt>
      <trkpt lat="45.75658" lon="6.73263">
        <ele>2200</ele>
        <time>2026-07-29T07:02:26.716Z</time>
      </trkpt>
      <trkpt lat="45.75658" lon="6.73264">
        <ele>2200</ele>
        <time>2026-07-29T07:02:27.716Z</time>
      </trkpt>
      <trkpt lat="45.75658" lon="6.73266">
        <ele>2200</ele>
        <time>2026-07-29T07:02:28.716Z</time>
      </trkpt>
      <trkpt lat="45.75658" lon="6.73267">
        <ele>2201</ele>
        <time>2026-07-29T07:02:29.716Z</time>
      </trkpt>
      <trkpt lat="45.75659" lon="6.73269">
        <ele>2201</ele>
        <time>2026-07-29T07:02:30.716Z</time>
      </trkpt>
      <trkpt lat="45.75659" lon="6.73271">
        <ele>2202</ele>
        <time>2026-07-29T07:02:31.716Z</time>
      </trkpt>
      <trkpt lat="45.75659" lon="6.73272">
        <ele>2202</ele>
        <time>2026-07-29T07:02:32.716Z</time>
      </trkpt>
      <trkpt lat="45.75659" lon="6.73273">
        <ele>2203</ele>
        <time>2026-07-29T07:02:33.716Z</time>
      </trkpt>
      <trkpt lat="45.75659" lon="6.73275">
        <ele>2203</ele>
        <time>2026-07-29T07:02:34.716Z</time>
      </trkpt>
      <trkpt lat="45.7566" lon="6.73276">
        <ele>2203</ele>
        <time>2026-07-29T07:02:35.716Z</time>
      </trkpt>
      <trkpt lat="45.7566" lon="6.73278">
        <ele>2203</ele>
        <time>2026-07-29T07:02:36.716Z</time>
      </trkpt>
      <trkpt lat="45.75661" lon="6.73279">
        <ele>2203</ele>
        <time>2026-07-29T07:02:37.716Z</time>
      </trkpt>
      <trkpt lat="45.75661" lon="6.73281">
        <ele>2203</ele>
        <time>2026-07-29T07:02:38.716Z</time>
      </trkpt>
      <trkpt lat="45.75661" lon="6.73282">
        <ele>2203</ele>
        <time>2026-07-29T07:02:39.716Z</time>
      </trkpt>
      <trkpt lat="45.75661" lon="6.73284">
        <ele>2203</ele>
        <time>2026-07-29T07:02:40.716Z</time>
      </trkpt>
      <trkpt lat="45.75661" lon="6.73286">
        <ele>2203</ele>
        <time>2026-07-29T07:02:41.716Z</time>
      </trkpt>
      <trkpt lat="45.75661" lon="6.73288">
        <ele>2203</ele>
        <time>2026-07-29T07:02:42.716Z</time>
      </trkpt>
      <trkpt lat="45.75661" lon="6.7329">
        <ele>2203</ele>
        <time>2026-07-29T07:02:43.716Z</time>
      </trkpt>
      <trkpt lat="45.75661" lon="6.73291">
        <ele>2204</ele>
        <time>2026-07-29T07:02:44.716Z</time>
      </trkpt>
      <trkpt lat="45.75661" lon="6.73293">
        <ele>2204</ele>
        <time>2026-07-29T07:02:45.716Z</time>
      </trkpt>
      <trkpt lat="45.75662" lon="6.73294">
        <ele>2205</ele>
        <time>2026-07-29T07:02:46.716Z</time>
      </trkpt>
      <trkpt lat="45.75663" lon="6.73295">
        <ele>2206</ele>
        <time>2026-07-29T07:02:47.716Z</time>
      </trkpt>
      <trkpt lat="45.75663" lon="6.73296">
        <ele>2206</ele>
        <time>2026-07-29T07:02:48.716Z</time>
      </trkpt>
      <trkpt lat="45.75664" lon="6.73297">
        <ele>2207</ele>
        <time>2026-07-29T07:02:49.716Z</time>
      </trkpt>
      <trkpt lat="45.75664" lon="6.73298">
        <ele>2207</ele>
        <time>2026-07-29T07:02:50.716Z</time>
      </trkpt>
      <trkpt lat="45.75664" lon="6.73299">
        <ele>2207</ele>
        <time>2026-07-29T07:02:51.716Z</time>
      </trkpt>
      <trkpt lat="45.75665" lon="6.733">
        <ele>2207</ele>
        <time>2026-07-29T07:02:52.716Z</time>
      </trkpt>
      <trkpt lat="45.75665" lon="6.73301">
        <ele>2207</ele>
        <time>2026-07-29T07:02:53.716Z</time>
      </trkpt>
      <trkpt lat="45.75665" lon="6.73302">
        <ele>2207</ele>
        <time>2026-07-29T07:02:54.716Z</time>
      </trkpt>
      <trkpt lat="45.75665" lon="6.73303">
        <ele>2208</ele>
        <time>2026-07-29T07:02:55.716Z</time>
      </trkpt>
      <trkpt lat="45.75666" lon="6.73304">
        <ele>2208</ele>
        <time>2026-07-29T07:02:56.716Z</time>
      </trkpt>
      <trkpt lat="45.75666" lon="6.73305">
        <ele>2208</ele>
        <time>2026-07-29T07:02:57.716Z</time>
      </trkpt>
      <trkpt lat="45.75667" lon="6.73306">
        <ele>2209</ele>
        <time>2026-07-29T07:02:58.716Z</time>
      </trkpt>
      <trkpt lat="45.75667" lon="6.73307">
        <ele>2209</ele>
        <time>2026-07-29T07:02:59.716Z</time>
      </trkpt>
      <trkpt lat="45.75667" lon="6.73307">
        <ele>2209</ele>
        <time>2026-07-29T07:03:00.716Z</time>
      </trkpt>
      <trkpt lat="45.75667" lon="6.73308">
        <ele>2209</ele>
        <time>2026-07-29T07:03:01.716Z</time>
      </trkpt>
      <trkpt lat="45.75667" lon="6.73309">
        <ele>2209</ele>
        <time>2026-07-29T07:03:02.716Z</time>
      </trkpt>
      <trkpt lat="45.75667" lon="6.7331">
        <ele>2209</ele>
        <time>2026-07-29T07:03:03.716Z</time>
      </trkpt>
      <trkpt lat="45.75668" lon="6.73311">
        <ele>2209</ele>
        <time>2026-07-29T07:03:04.716Z</time>
      </trkpt>
      <trkpt lat="45.75668" lon="6.73312">
        <ele>2208</ele>
        <time>2026-07-29T07:03:05.716Z</time>
      </trkpt>
      <trkpt lat="45.75668" lon="6.73313">
        <ele>2208</ele>
        <time>2026-07-29T07:03:06.716Z</time>
      </trkpt>
      <trkpt lat="45.75668" lon="6.73314">
        <ele>2208</ele>
        <time>2026-07-29T07:03:07.716Z</time>
      </trkpt>
      <trkpt lat="45.75669" lon="6.73315">
        <ele>2208</ele>
        <time>2026-07-29T07:03:08.716Z</time>
      </trkpt>
      <trkpt lat="45.7567" lon="6.73316">
        <ele>2209</ele>
        <time>2026-07-29T07:03:09.716Z</time>
      </trkpt>
      <trkpt lat="45.7567" lon="6.73317">
        <ele>2210</ele>
        <time>2026-07-29T07:03:10.716Z</time>
      </trkpt>
      <trkpt lat="45.75671" lon="6.73318">
        <ele>2210</ele>
        <time>2026-07-29T07:03:11.716Z</time>
      </trkpt>
      <trkpt lat="45.75671" lon="6.73319">
        <ele>2210</ele>
        <time>2026-07-29T07:03:12.716Z</time>
      </trkpt>
      <trkpt lat="45.75671" lon="6.73319">
        <ele>2211</ele>
        <time>2026-07-29T07:03:13.716Z</time>
      </trkpt>
      <trkpt lat="45.75672" lon="6.7332">
        <ele>2212</ele>
        <time>2026-07-29T07:03:14.716Z</time>
      </trkpt>
      <trkpt lat="45.75672" lon="6.73321">
        <ele>2212</ele>
        <time>2026-07-29T07:03:15.716Z</time>
      </trkpt>
      <trkpt lat="45.75672" lon="6.73323">
        <ele>2212</ele>
        <time>2026-07-29T07:03:16.716Z</time>
      </trkpt>
      <trkpt lat="45.75672" lon="6.73324">
        <ele>2212</ele>
        <time>2026-07-29T07:03:17.716Z</time>
      </trkpt>
      <trkpt lat="45.75673" lon="6.73325">
        <ele>2212</ele>
        <time>2026-07-29T07:03:18.716Z</time>
      </trkpt>
      <trkpt lat="45.75673" lon="6.73327">
        <ele>2212</ele>
        <time>2026-07-29T07:03:19.716Z</time>
      </trkpt>
      <trkpt lat="45.75673" lon="6.73327">
        <ele>2212</ele>
        <time>2026-07-29T07:03:20.716Z</time>
      </trkpt>
      <trkpt lat="45.75674" lon="6.73329">
        <ele>2212</ele>
        <time>2026-07-29T07:03:21.716Z</time>
      </trkpt>
      <trkpt lat="45.75674" lon="6.7333">
        <ele>2212</ele>
        <time>2026-07-29T07:03:22.716Z</time>
      </trkpt>
      <trkpt lat="45.75674" lon="6.73331">
        <ele>2212</ele>
        <time>2026-07-29T07:03:23.716Z</time>
      </trkpt>
      <trkpt lat="45.75674" lon="6.73333">
        <ele>2212</ele>
        <time>2026-07-29T07:03:24.716Z</time>
      </trkpt>
      <trkpt lat="45.75675" lon="6.73334">
        <ele>2213</ele>
        <time>2026-07-29T07:03:25.716Z</time>
      </trkpt>
      <trkpt lat="45.75675" lon="6.73335">
        <ele>2213</ele>
        <time>2026-07-29T07:03:26.716Z</time>
      </trkpt>
      <trkpt lat="45.75675" lon="6.73336">
        <ele>2214</ele>
        <time>2026-07-29T07:03:27.716Z</time>
      </trkpt>
      <trkpt lat="45.75675" lon="6.73337">
        <ele>2214</ele>
        <time>2026-07-29T07:03:28.716Z</time>
      </trkpt>
      <trkpt lat="45.75676" lon="6.73338">
        <ele>2214</ele>
        <time>2026-07-29T07:03:29.716Z</time>
      </trkpt>
      <trkpt lat="45.75676" lon="6.73339">
        <ele>2214</ele>
        <time>2026-07-29T07:03:30.716Z</time>
      </trkpt>
      <trkpt lat="45.75676" lon="6.7334">
        <ele>2214</ele>
        <time>2026-07-29T07:03:31.716Z</time>
      </trkpt>
      <trkpt lat="45.75677" lon="6.73342">
        <ele>2215</ele>
        <time>2026-07-29T07:03:32.716Z</time>
      </trkpt>
      <trkpt lat="45.75677" lon="6.73344">
        <ele>2215</ele>
        <time>2026-07-29T07:03:33.716Z</time>
      </trkpt>
      <trkpt lat="45.75677" lon="6.73345">
        <ele>2215</ele>
        <time>2026-07-29T07:03:34.716Z</time>
      </trkpt>
      <trkpt lat="45.75678" lon="6.73347">
        <ele>2216</ele>
        <time>2026-07-29T07:03:35.716Z</time>
      </trkpt>
      <trkpt lat="45.75678" lon="6.73348">
        <ele>2216</ele>
        <time>2026-07-29T07:03:36.716Z</time>
      </trkpt>
      <trkpt lat="45.75678" lon="6.73349">
        <ele>2216</ele>
        <time>2026-07-29T07:03:37.716Z</time>
      </trkpt>
      <trkpt lat="45.75679" lon="6.7335">
        <ele>2216</ele>
        <time>2026-07-29T07:03:38.716Z</time>
      </trkpt>
      <trkpt lat="45.7568" lon="6.73352">
        <ele>2217</ele>
        <time>2026-07-29T07:03:39.716Z</time>
      </trkpt>
      <trkpt lat="45.7568" lon="6.73353">
        <ele>2217</ele>
        <time>2026-07-29T07:03:40.716Z</time>
      </trkpt>
      <trkpt lat="45.75681" lon="6.73355">
        <ele>2217</ele>
        <time>2026-07-29T07:03:41.716Z</time>
      </trkpt>
      <trkpt lat="45.75682" lon="6.73356">
        <ele>2217</ele>
        <time>2026-07-29T07:03:42.716Z</time>
      </trkpt>
      <trkpt lat="45.75682" lon="6.73358">
        <ele>2217</ele>
        <time>2026-07-29T07:03:43.716Z</time>
      </trkpt>
      <trkpt lat="45.75682" lon="6.7336">
        <ele>2217</ele>
        <time>2026-07-29T07:03:44.716Z</time>
      </trkpt>
      <trkpt lat="45.75682" lon="6.73362">
        <ele>2217</ele>
        <time>2026-07-29T07:03:45.716Z</time>
      </trkpt>
      <trkpt lat="45.75682" lon="6.73364">
        <ele>2217</ele>
        <time>2026-07-29T07:03:46.716Z</time>
      </trkpt>
      <trkpt lat="45.75682" lon="6.73366">
        <ele>2217</ele>
        <time>2026-07-29T07:03:47.716Z</time>
      </trkpt>
      <trkpt lat="45.75682" lon="6.73368">
        <ele>2217</ele>
        <time>2026-07-29T07:03:48.716Z</time>
      </trkpt>
      <trkpt lat="45.75682" lon="6.73369">
        <ele>2218</ele>
        <time>2026-07-29T07:03:49.716Z</time>
      </trkpt>
      <trkpt lat="45.75682" lon="6.73371">
        <ele>2218</ele>
        <time>2026-07-29T07:03:50.716Z</time>
      </trkpt>
      <trkpt lat="45.75682" lon="6.73373">
        <ele>2218</ele>
        <time>2026-07-29T07:03:51.716Z</time>
      </trkpt>
      <trkpt lat="45.75683" lon="6.73374">
        <ele>2218</ele>
        <time>2026-07-29T07:03:52.716Z</time>
      </trkpt>
      <trkpt lat="45.75683" lon="6.73376">
        <ele>2218</ele>
        <time>2026-07-29T07:03:53.716Z</time>
      </trkpt>
      <trkpt lat="45.75683" lon="6.73377">
        <ele>2218</ele>
        <time>2026-07-29T07:03:54.716Z</time>
      </trkpt>
      <trkpt lat="45.75683" lon="6.73379">
        <ele>2218</ele>
        <time>2026-07-29T07:03:55.716Z</time>
      </trkpt>
      <trkpt lat="45.75684" lon="6.7338">
        <ele>2218</ele>
        <time>2026-07-29T07:03:56.716Z</time>
      </trkpt>
      <trkpt lat="45.75684" lon="6.73382">
        <ele>2218</ele>
        <time>2026-07-29T07:03:57.716Z</time>
      </trkpt>
      <trkpt lat="45.75684" lon="6.73384">
        <ele>2218</ele>
        <time>2026-07-29T07:03:58.716Z</time>
      </trkpt>
      <trkpt lat="45.75684" lon="6.73386">
        <ele>2218</ele>
        <time>2026-07-29T07:03:59.716Z</time>
      </trkpt>
      <trkpt lat="45.75684" lon="6.73387">
        <ele>2218</ele>
        <time>2026-07-29T07:04:00.716Z</time>
      </trkpt>
      <trkpt lat="45.75684" lon="6.73389">
        <ele>2218</ele>
        <time>2026-07-29T07:04:01.716Z</time>
      </trkpt>
      <trkpt lat="45.75684" lon="6.73391">
        <ele>2219</ele>
        <time>2026-07-29T07:04:02.716Z</time>
      </trkpt>
      <trkpt lat="45.75684" lon="6.73392">
        <ele>2219</ele>
        <time>2026-07-29T07:04:03.716Z</time>
      </trkpt>
      <trkpt lat="45.75684" lon="6.73392">
        <ele>2219</ele>
        <time>2026-07-29T07:04:04.716Z</time>
      </trkpt>
      <trkpt lat="45.75684" lon="6.73393">
        <ele>2219</ele>
        <time>2026-07-29T07:04:05.716Z</time>
      </trkpt>
      <trkpt lat="45.75684" lon="6.73393">
        <ele>2219</ele>
        <time>2026-07-29T07:04:06.716Z</time>
      </trkpt>
      <trkpt lat="45.75685" lon="6.73394">
        <ele>2219</ele>
        <time>2026-07-29T07:04:07.716Z</time>
      </trkpt>
      <trkpt lat="45.75685" lon="6.73395">
        <ele>2219</ele>
        <time>2026-07-29T07:04:08.716Z</time>
      </trkpt>
      <trkpt lat="45.75685" lon="6.73395">
        <ele>2219</ele>
        <time>2026-07-29T07:04:09.716Z</time>
      </trkpt>
      <trkpt lat="45.75685" lon="6.73395">
        <ele>2219</ele>
        <time>2026-07-29T07:04:10.716Z</time>
      </trkpt>
      <trkpt lat="45.75686" lon="6.73396">
        <ele>2218</ele>
        <time>2026-07-29T07:04:11.716Z</time>
      </trkpt>
      <trkpt lat="45.75686" lon="6.73397">
        <ele>2218</ele>
        <time>2026-07-29T07:04:12.716Z</time>
      </trkpt>
      <trkpt lat="45.75686" lon="6.73398">
        <ele>2218</ele>
        <time>2026-07-29T07:04:13.716Z</time>
      </trkpt>
      <trkpt lat="45.75686" lon="6.73398">
        <ele>2218</ele>
        <time>2026-07-29T07:04:14.716Z</time>
      </trkpt>
      <trkpt lat="45.75685" lon="6.73399">
        <ele>2218</ele>
        <time>2026-07-29T07:04:15.716Z</time>
      </trkpt>
      <trkpt lat="45.75685" lon="6.734">
        <ele>2218</ele>
        <time>2026-07-29T07:04:16.716Z</time>
      </trkpt>
      <trkpt lat="45.75684" lon="6.73401">
        <ele>2218</ele>
        <time>2026-07-29T07:04:17.716Z</time>
      </trkpt>
      <trkpt lat="45.75684" lon="6.73403">
        <ele>2218</ele>
        <time>2026-07-29T07:04:18.716Z</time>
      </trkpt>
      <trkpt lat="45.75683" lon="6.73404">
        <ele>2218</ele>
        <time>2026-07-29T07:04:19.716Z</time>
      </trkpt>
      <trkpt lat="45.75683" lon="6.73405">
        <ele>2218</ele>
        <time>2026-07-29T07:04:20.716Z</time>
      </trkpt>
      <trkpt lat="45.75683" lon="6.73406">
        <ele>2218</ele>
        <time>2026-07-29T07:04:21.716Z</time>
      </trkpt>
      <trkpt lat="45.75683" lon="6.73407">
        <ele>2218</ele>
        <time>2026-07-29T07:04:22.716Z</time>
      </trkpt>
      <trkpt lat="45.75684" lon="6.73408">
        <ele>2218</ele>
        <time>2026-07-29T07:04:23.716Z</time>
      </trkpt>
      <trkpt lat="45.75684" lon="6.73409">
        <ele>2218</ele>
        <time>2026-07-29T07:04:24.716Z</time>
      </trkpt>
      <trkpt lat="45.75684" lon="6.7341">
        <ele>2218</ele>
        <time>2026-07-29T07:04:25.716Z</time>
      </trkpt>
      <trkpt lat="45.75684" lon="6.73411">
        <ele>2218</ele>
        <time>2026-07-29T07:04:26.716Z</time>
      </trkpt>
      <trkpt lat="45.75684" lon="6.73411">
        <ele>2218</ele>
        <time>2026-07-29T07:04:27.716Z</time>
      </trkpt>
      <trkpt lat="45.75684" lon="6.73413">
        <ele>2217</ele>
        <time>2026-07-29T07:04:28.716Z</time>
      </trkpt>
      <trkpt lat="45.75684" lon="6.73413">
        <ele>2218</ele>
        <time>2026-07-29T07:04:29.716Z</time>
      </trkpt>
      <trkpt lat="45.75685" lon="6.73414">
        <ele>2217</ele>
        <time>2026-07-29T07:04:30.716Z</time>
      </trkpt>
      <trkpt lat="45.75685" lon="6.73415">
        <ele>2217</ele>
        <time>2026-07-29T07:04:31.716Z</time>
      </trkpt>
      <trkpt lat="45.75685" lon="6.73417">
        <ele>2217</ele>
        <time>2026-07-29T07:04:32.716Z</time>
      </trkpt>
      <trkpt lat="45.75686" lon="6.73417">
        <ele>2217</ele>
        <time>2026-07-29T07:04:33.716Z</time>
      </trkpt>
      <trkpt lat="45.75686" lon="6.73418">
        <ele>2217</ele>
        <time>2026-07-29T07:04:34.716Z</time>
      </trkpt>
      <trkpt lat="45.75687" lon="6.73419">
        <ele>2217</ele>
        <time>2026-07-29T07:04:35.716Z</time>
      </trkpt>
      <trkpt lat="45.75688" lon="6.7342">
        <ele>2217</ele>
        <time>2026-07-29T07:04:36.716Z</time>
      </trkpt>
      <trkpt lat="45.75689" lon="6.73421">
        <ele>2217</ele>
        <time>2026-07-29T07:04:37.716Z</time>
      </trkpt>
      <trkpt lat="45.75689" lon="6.73422">
        <ele>2217</ele>
        <time>2026-07-29T07:04:38.716Z</time>
      </trkpt>
      <trkpt lat="45.75689" lon="6.73424">
        <ele>2218</ele>
        <time>2026-07-29T07:04:39.716Z</time>
      </trkpt>
      <trkpt lat="45.75689" lon="6.73425">
        <ele>2217</ele>
        <time>2026-07-29T07:04:40.716Z</time>
      </trkpt>
      <trkpt lat="45.75689" lon="6.73426">
        <ele>2217</ele>
        <time>2026-07-29T07:04:41.716Z</time>
      </trkpt>
      <trkpt lat="45.75688" lon="6.73427">
        <ele>2217</ele>
        <time>2026-07-29T07:04:42.716Z</time>
      </trkpt>
      <trkpt lat="45.75688" lon="6.73429">
        <ele>2217</ele>
        <time>2026-07-29T07:04:43.716Z</time>
      </trkpt>
      <trkpt lat="45.75688" lon="6.7343">
        <ele>2216</ele>
        <time>2026-07-29T07:04:44.716Z</time>
      </trkpt>
      <trkpt lat="45.75687" lon="6.73431">
        <ele>2216</ele>
        <time>2026-07-29T07:04:45.716Z</time>
      </trkpt>
      <trkpt lat="45.75687" lon="6.73432">
        <ele>2215</ele>
        <time>2026-07-29T07:04:46.716Z</time>
      </trkpt>
      <trkpt lat="45.75687" lon="6.73433">
        <ele>2215</ele>
        <time>2026-07-29T07:04:47.716Z</time>
      </trkpt>
      <trkpt lat="45.75687" lon="6.73434">
        <ele>2215</ele>
        <time>2026-07-29T07:04:48.716Z</time>
      </trkpt>
      <trkpt lat="45.75687" lon="6.73435">
        <ele>2215</ele>
        <time>2026-07-29T07:04:49.716Z</time>
      </trkpt>
      <trkpt lat="45.75687" lon="6.73435">
        <ele>2215</ele>
        <time>2026-07-29T07:04:50.716Z</time>
      </trkpt>
      <trkpt lat="45.75687" lon="6.73436">
        <ele>2215</ele>
        <time>2026-07-29T07:04:51.716Z</time>
      </trkpt>
      <trkpt lat="45.75688" lon="6.73436">
        <ele>2216</ele>
        <time>2026-07-29T07:04:52.716Z</time>
      </trkpt>
      <trkpt lat="45.75688" lon="6.73437">
        <ele>2216</ele>
        <time>2026-07-29T07:04:53.716Z</time>
      </trkpt>
      <trkpt lat="45.75688" lon="6.73438">
        <ele>2217</ele>
        <time>2026-07-29T07:04:54.716Z</time>
      </trkpt>
      <trkpt lat="45.75688" lon="6.73439">
        <ele>2217</ele>
        <time>2026-07-29T07:04:55.716Z</time>
      </trkpt>
      <trkpt lat="45.75688" lon="6.7344">
        <ele>2217</ele>
        <time>2026-07-29T07:04:56.716Z</time>
      </trkpt>
      <trkpt lat="45.75688" lon="6.73441">
        <ele>2216</ele>
        <time>2026-07-29T07:04:57.716Z</time>
      </trkpt>
      <trkpt lat="45.75688" lon="6.73442">
        <ele>2216</ele>
        <time>2026-07-29T07:04:58.716Z</time>
      </trkpt>
      <trkpt lat="45.75688" lon="6.73442">
        <ele>2216</ele>
        <time>2026-07-29T07:04:59.716Z</time>
      </trkpt>
      <trkpt lat="45.75688" lon="6.73443">
        <ele>2216</ele>
        <time>2026-07-29T07:05:00.716Z</time>
      </trkpt>
      <trkpt lat="45.75688" lon="6.73443">
        <ele>2216</ele>
        <time>2026-07-29T07:05:01.716Z</time>
      </trkpt>
      <trkpt lat="45.75688" lon="6.73444">
        <ele>2215</ele>
        <time>2026-07-29T07:05:02.716Z</time>
      </trkpt>
      <trkpt lat="45.75688" lon="6.73445">
        <ele>2215</ele>
        <time>2026-07-29T07:05:03.716Z</time>
      </trkpt>
      <trkpt lat="45.75689" lon="6.73446">
        <ele>2215</ele>
        <time>2026-07-29T07:05:04.716Z</time>
      </trkpt>
      <trkpt lat="45.75689" lon="6.73448">
        <ele>2214</ele>
        <time>2026-07-29T07:05:05.716Z</time>
      </trkpt>
      <trkpt lat="45.75689" lon="6.73449">
        <ele>2214</ele>
        <time>2026-07-29T07:05:06.716Z</time>
      </trkpt>
      <trkpt lat="45.75689" lon="6.7345">
        <ele>2213</ele>
        <time>2026-07-29T07:05:07.716Z</time>
      </trkpt>
      <trkpt lat="45.75689" lon="6.73451">
        <ele>2213</ele>
        <time>2026-07-29T07:05:08.716Z</time>
      </trkpt>
      <trkpt lat="45.7569" lon="6.73453">
        <ele>2213</ele>
        <time>2026-07-29T07:05:09.716Z</time>
      </trkpt>
      <trkpt lat="45.7569" lon="6.73454">
        <ele>2213</ele>
        <time>2026-07-29T07:05:10.716Z</time>
      </trkpt>
      <trkpt lat="45.75689" lon="6.73455">
        <ele>2213</ele>
        <time>2026-07-29T07:05:11.716Z</time>
      </trkpt>
      <trkpt lat="45.75689" lon="6.73456">
        <ele>2212</ele>
        <time>2026-07-29T07:05:12.716Z</time>
      </trkpt>
      <trkpt lat="45.75689" lon="6.73456">
        <ele>2212</ele>
        <time>2026-07-29T07:05:13.716Z</time>
      </trkpt>
      <trkpt lat="45.75689" lon="6.73456">
        <ele>2211</ele>
        <time>2026-07-29T07:05:14.716Z</time>
      </trkpt>
      <trkpt lat="45.75689" lon="6.73456">
        <ele>2211</ele>
        <time>2026-07-29T07:05:15.716Z</time>
      </trkpt>
      <trkpt lat="45.75689" lon="6.73456">
        <ele>2211</ele>
        <time>2026-07-29T07:05:16.716Z</time>
      </trkpt>
      <trkpt lat="45.75689" lon="6.73456">
        <ele>2211</ele>
        <time>2026-07-29T07:05:17.716Z</time>
      </trkpt>
      <trkpt lat="45.75689" lon="6.73456">
        <ele>2212</ele>
        <time>2026-07-29T07:05:18.716Z</time>
      </trkpt>
      <trkpt lat="45.75689" lon="6.73456">
        <ele>2212</ele>
        <time>2026-07-29T07:05:19.716Z</time>
      </trkpt>
      <trkpt lat="45.75689" lon="6.73457">
        <ele>2213</ele>
        <time>2026-07-29T07:05:20.716Z</time>
      </trkpt>
      <trkpt lat="45.75689" lon="6.73457">
        <ele>2214</ele>
        <time>2026-07-29T07:05:21.716Z</time>
      </trkpt>
      <trkpt lat="45.75689" lon="6.73457">
        <ele>2215</ele>
        <time>2026-07-29T07:05:22.716Z</time>
      </trkpt>
      <trkpt lat="45.75689" lon="6.73457">
        <ele>2215</ele>
        <time>2026-07-29T07:05:23.716Z</time>
      </trkpt>
      <trkpt lat="45.75689" lon="6.73457">
        <ele>2216</ele>
        <time>2026-07-29T07:05:24.716Z</time>
      </trkpt>
      <trkpt lat="45.75689" lon="6.73457">
        <ele>2216</ele>
        <time>2026-07-29T07:05:25.716Z</time>
      </trkpt>
      <trkpt lat="45.75689" lon="6.73457">
        <ele>2217</ele>
        <time>2026-07-29T07:05:26.716Z</time>
      </trkpt>
      <trkpt lat="45.75689" lon="6.73457">
        <ele>2217</ele>
        <time>2026-07-29T07:05:27.716Z</time>
      </trkpt>
      <trkpt lat="45.75689" lon="6.73457">
        <ele>2216</ele>
        <time>2026-07-29T07:05:28.716Z</time>
      </trkpt>
      <trkpt lat="45.75689" lon="6.73457">
        <ele>2216</ele>
        <time>2026-07-29T07:05:29.716Z</time>
      </trkpt>
      <trkpt lat="45.75689" lon="6.73457">
        <ele>2216</ele>
        <time>2026-07-29T07:05:30.716Z</time>
      </trkpt>
      <trkpt lat="45.75689" lon="6.73457">
        <ele>2216</ele>
        <time>2026-07-29T07:05:31.716Z</time>
      </trkpt>
      <trkpt lat="45.75689" lon="6.73458">
        <ele>2216</ele>
        <time>2026-07-29T07:05:32.716Z</time>
      </trkpt>
      <trkpt lat="45.75689" lon="6.73459">
        <ele>2216</ele>
        <time>2026-07-29T07:05:33.716Z</time>
      </trkpt>
      <trkpt lat="45.7569" lon="6.73461">
        <ele>2216</ele>
        <time>2026-07-29T07:05:34.716Z</time>
      </trkpt>
      <trkpt lat="45.7569" lon="6.73462">
        <ele>2216</ele>
        <time>2026-07-29T07:05:35.716Z</time>
      </trkpt>
      <trkpt lat="45.7569" lon="6.73463">
        <ele>2216</ele>
        <time>2026-07-29T07:05:36.716Z</time>
      </trkpt>
      <trkpt lat="45.7569" lon="6.73464">
        <ele>2216</ele>
        <time>2026-07-29T07:05:37.716Z</time>
      </trkpt>
      <trkpt lat="45.75689" lon="6.73465">
        <ele>2215</ele>
        <time>2026-07-29T07:05:38.716Z</time>
      </trkpt>
      <trkpt lat="45.75689" lon="6.73467">
        <ele>2215</ele>
        <time>2026-07-29T07:05:39.716Z</time>
      </trkpt>
      <trkpt lat="45.7569" lon="6.73468">
        <ele>2214</ele>
        <time>2026-07-29T07:05:40.716Z</time>
      </trkpt>
      <trkpt lat="45.7569" lon="6.73469">
        <ele>2214</ele>
        <time>2026-07-29T07:05:41.716Z</time>
      </trkpt>
      <trkpt lat="45.7569" lon="6.7347">
        <ele>2214</ele>
        <time>2026-07-29T07:05:42.716Z</time>
      </trkpt>
      <trkpt lat="45.7569" lon="6.73471">
        <ele>2214</ele>
        <time>2026-07-29T07:05:43.716Z</time>
      </trkpt>
      <trkpt lat="45.75691" lon="6.73472">
        <ele>2214</ele>
        <time>2026-07-29T07:05:44.716Z</time>
      </trkpt>
      <trkpt lat="45.75692" lon="6.73473">
        <ele>2214</ele>
        <time>2026-07-29T07:05:45.716Z</time>
      </trkpt>
      <trkpt lat="45.75693" lon="6.73474">
        <ele>2213</ele>
        <time>2026-07-29T07:05:46.716Z</time>
      </trkpt>
      <trkpt lat="45.75694" lon="6.73474">
        <ele>2213</ele>
        <time>2026-07-29T07:05:47.716Z</time>
      </trkpt>
      <trkpt lat="45.75694" lon="6.73475">
        <ele>2213</ele>
        <time>2026-07-29T07:05:48.716Z</time>
      </trkpt>
      <trkpt lat="45.75694" lon="6.73476">
        <ele>2213</ele>
        <time>2026-07-29T07:05:49.716Z</time>
      </trkpt>
      <trkpt lat="45.75695" lon="6.73477">
        <ele>2213</ele>
        <time>2026-07-29T07:05:50.716Z</time>
      </trkpt>
      <trkpt lat="45.75695" lon="6.73478">
        <ele>2213</ele>
        <time>2026-07-29T07:05:51.716Z</time>
      </trkpt>
      <trkpt lat="45.75695" lon="6.7348">
        <ele>2214</ele>
        <time>2026-07-29T07:05:52.716Z</time>
      </trkpt>
      <trkpt lat="45.75696" lon="6.73481">
        <ele>2213</ele>
        <time>2026-07-29T07:05:53.716Z</time>
      </trkpt>
      <trkpt lat="45.75696" lon="6.73482">
        <ele>2213</ele>
        <time>2026-07-29T07:05:54.716Z</time>
      </trkpt>
      <trkpt lat="45.75696" lon="6.73483">
        <ele>2213</ele>
        <time>2026-07-29T07:05:55.716Z</time>
      </trkpt>
      <trkpt lat="45.75696" lon="6.73484">
        <ele>2214</ele>
        <time>2026-07-29T07:05:56.716Z</time>
      </trkpt>
      <trkpt lat="45.75696" lon="6.73485">
        <ele>2214</ele>
        <time>2026-07-29T07:05:57.716Z</time>
      </trkpt>
      <trkpt lat="45.75696" lon="6.73486">
        <ele>2214</ele>
        <time>2026-07-29T07:05:58.716Z</time>
      </trkpt>
      <trkpt lat="45.75697" lon="6.73487">
        <ele>2215</ele>
        <time>2026-07-29T07:05:59.716Z</time>
      </trkpt>
      <trkpt lat="45.75697" lon="6.73489">
        <ele>2215</ele>
        <time>2026-07-29T07:06:00.716Z</time>
      </trkpt>
      <trkpt lat="45.75697" lon="6.7349">
        <ele>2215</ele>
        <time>2026-07-29T07:06:01.716Z</time>
      </trkpt>
      <trkpt lat="45.75696" lon="6.73492">
        <ele>2215</ele>
        <time>2026-07-29T07:06:02.716Z</time>
      </trkpt>
      <trkpt lat="45.75696" lon="6.73493">
        <ele>2216</ele>
        <time>2026-07-29T07:06:03.716Z</time>
      </trkpt>
      <trkpt lat="45.75696" lon="6.73494">
        <ele>2216</ele>
        <time>2026-07-29T07:06:04.716Z</time>
      </trkpt>
      <trkpt lat="45.75696" lon="6.73495">
        <ele>2217</ele>
        <time>2026-07-29T07:06:05.716Z</time>
      </trkpt>
      <trkpt lat="45.75696" lon="6.73496">
        <ele>2217</ele>
        <time>2026-07-29T07:06:06.716Z</time>
      </trkpt>
      <trkpt lat="45.75697" lon="6.73497">
        <ele>2217</ele>
        <time>2026-07-29T07:06:07.716Z</time>
      </trkpt>
      <trkpt lat="45.75697" lon="6.73498">
        <ele>2218</ele>
        <time>2026-07-29T07:06:08.716Z</time>
      </trkpt>
      <trkpt lat="45.75698" lon="6.73499">
        <ele>2218</ele>
        <time>2026-07-29T07:06:09.716Z</time>
      </trkpt>
      <trkpt lat="45.75698" lon="6.735">
        <ele>2218</ele>
        <time>2026-07-29T07:06:10.716Z</time>
      </trkpt>
      <trkpt lat="45.75698" lon="6.73501">
        <ele>2218</ele>
        <time>2026-07-29T07:06:11.716Z</time>
      </trkpt>
      <trkpt lat="45.75698" lon="6.73502">
        <ele>2218</ele>
        <time>2026-07-29T07:06:12.716Z</time>
      </trkpt>
      <trkpt lat="45.75697" lon="6.73503">
        <ele>2218</ele>
        <time>2026-07-29T07:06:13.716Z</time>
      </trkpt>
      <trkpt lat="45.75696" lon="6.73504">
        <ele>2219</ele>
        <time>2026-07-29T07:06:14.716Z</time>
      </trkpt>
      <trkpt lat="45.75696" lon="6.73505">
        <ele>2219</ele>
        <time>2026-07-29T07:06:15.716Z</time>
      </trkpt>
      <trkpt lat="45.75695" lon="6.73506">
        <ele>2219</ele>
        <time>2026-07-29T07:06:16.716Z</time>
      </trkpt>
      <trkpt lat="45.75694" lon="6.73507">
        <ele>2219</ele>
        <time>2026-07-29T07:06:17.716Z</time>
      </trkpt>
      <trkpt lat="45.75694" lon="6.73508">
        <ele>2220</ele>
        <time>2026-07-29T07:06:18.716Z</time>
      </trkpt>
      <trkpt lat="45.75693" lon="6.73509">
        <ele>2220</ele>
        <time>2026-07-29T07:06:19.716Z</time>
      </trkpt>
      <trkpt lat="45.75693" lon="6.7351">
        <ele>2220</ele>
        <time>2026-07-29T07:06:20.716Z</time>
      </trkpt>
      <trkpt lat="45.75692" lon="6.73511">
        <ele>2220</ele>
        <time>2026-07-29T07:06:21.716Z</time>
      </trkpt>
      <trkpt lat="45.75692" lon="6.73511">
        <ele>2220</ele>
        <time>2026-07-29T07:06:22.716Z</time>
      </trkpt>
      <trkpt lat="45.75691" lon="6.73512">
        <ele>2221</ele>
        <time>2026-07-29T07:06:23.716Z</time>
      </trkpt>
      <trkpt lat="45.7569" lon="6.73512">
        <ele>2221</ele>
        <time>2026-07-29T07:06:24.716Z</time>
      </trkpt>
      <trkpt lat="45.7569" lon="6.73513">
        <ele>2221</ele>
        <time>2026-07-29T07:06:25.716Z</time>
      </trkpt>
      <trkpt lat="45.75689" lon="6.73514">
        <ele>2222</ele>
        <time>2026-07-29T07:06:26.716Z</time>
      </trkpt>
      <trkpt lat="45.75689" lon="6.73515">
        <ele>2222</ele>
        <time>2026-07-29T07:06:27.716Z</time>
      </trkpt>
      <trkpt lat="45.75688" lon="6.73516">
        <ele>2223</ele>
        <time>2026-07-29T07:06:28.716Z</time>
      </trkpt>
      <trkpt lat="45.75688" lon="6.73517">
        <ele>2223</ele>
        <time>2026-07-29T07:06:29.716Z</time>
      </trkpt>
      <trkpt lat="45.75688" lon="6.73518">
        <ele>2224</ele>
        <time>2026-07-29T07:06:30.716Z</time>
      </trkpt>
      <trkpt lat="45.75688" lon="6.73519">
        <ele>2224</ele>
        <time>2026-07-29T07:06:31.716Z</time>
      </trkpt>
      <trkpt lat="45.75688" lon="6.7352">
        <ele>2224</ele>
        <time>2026-07-29T07:06:32.716Z</time>
      </trkpt>
      <trkpt lat="45.75687" lon="6.73521">
        <ele>2225</ele>
        <time>2026-07-29T07:06:33.716Z</time>
      </trkpt>
      <trkpt lat="45.75687" lon="6.73522">
        <ele>2225</ele>
        <time>2026-07-29T07:06:34.716Z</time>
      </trkpt>
      <trkpt lat="45.75687" lon="6.73523">
        <ele>2225</ele>
        <time>2026-07-29T07:06:35.716Z</time>
      </trkpt>
      <trkpt lat="45.75687" lon="6.73524">
        <ele>2225</ele>
        <time>2026-07-29T07:06:36.716Z</time>
      </trkpt>
      <trkpt lat="45.75687" lon="6.73525">
        <ele>2225</ele>
        <time>2026-07-29T07:06:37.716Z</time>
      </trkpt>
      <trkpt lat="45.75687" lon="6.73525">
        <ele>2225</ele>
        <time>2026-07-29T07:06:38.716Z</time>
      </trkpt>
      <trkpt lat="45.75688" lon="6.73526">
        <ele>2225</ele>
        <time>2026-07-29T07:06:39.716Z</time>
      </trkpt>
      <trkpt lat="45.75688" lon="6.73527">
        <ele>2225</ele>
        <time>2026-07-29T07:06:40.716Z</time>
      </trkpt>
      <trkpt lat="45.75688" lon="6.73528">
        <ele>2225</ele>
        <time>2026-07-29T07:06:41.716Z</time>
      </trkpt>
      <trkpt lat="45.75688" lon="6.73529">
        <ele>2226</ele>
        <time>2026-07-29T07:06:42.716Z</time>
      </trkpt>
      <trkpt lat="45.75689" lon="6.7353">
        <ele>2226</ele>
        <time>2026-07-29T07:06:43.716Z</time>
      </trkpt>
      <trkpt lat="45.75689" lon="6.73532">
        <ele>2226</ele>
        <time>2026-07-29T07:06:44.716Z</time>
      </trkpt>
      <trkpt lat="45.75689" lon="6.73533">
        <ele>2226</ele>
        <time>2026-07-29T07:06:45.716Z</time>
      </trkpt>
      <trkpt lat="45.75689" lon="6.73534">
        <ele>2226</ele>
        <time>2026-07-29T07:06:46.716Z</time>
      </trkpt>
      <trkpt lat="45.75689" lon="6.73535">
        <ele>2226</ele>
        <time>2026-07-29T07:06:47.716Z</time>
      </trkpt>
      <trkpt lat="45.75688" lon="6.73536">
        <ele>2226</ele>
        <time>2026-07-29T07:06:48.716Z</time>
      </trkpt>
      <trkpt lat="45.75689" lon="6.73536">
        <ele>2226</ele>
        <time>2026-07-29T07:06:49.716Z</time>
      </trkpt>
      <trkpt lat="45.75689" lon="6.73537">
        <ele>2226</ele>
        <time>2026-07-29T07:06:50.716Z</time>
      </trkpt>
      <trkpt lat="45.75689" lon="6.73537">
        <ele>2226</ele>
        <time>2026-07-29T07:06:51.716Z</time>
      </trkpt>
      <trkpt lat="45.75689" lon="6.73537">
        <ele>2226</ele>
        <time>2026-07-29T07:06:52.716Z</time>
      </trkpt>
      <trkpt lat="45.75689" lon="6.73537">
        <ele>2226</ele>
        <time>2026-07-29T07:06:53.716Z</time>
      </trkpt>
      <trkpt lat="45.75689" lon="6.73537">
        <ele>2227</ele>
        <time>2026-07-29T07:06:54.716Z</time>
      </trkpt>
      <trkpt lat="45.75689" lon="6.73537">
        <ele>2227</ele>
        <time>2026-07-29T07:06:55.716Z</time>
      </trkpt>
      <trkpt lat="45.75689" lon="6.73538">
        <ele>2228</ele>
        <time>2026-07-29T07:06:56.716Z</time>
      </trkpt>
      <trkpt lat="45.7569" lon="6.73538">
        <ele>2228</ele>
        <time>2026-07-29T07:06:57.716Z</time>
      </trkpt>
      <trkpt lat="45.7569" lon="6.73539">
        <ele>2228</ele>
        <time>2026-07-29T07:06:58.716Z</time>
      </trkpt>
      <trkpt lat="45.7569" lon="6.7354">
        <ele>2229</ele>
        <time>2026-07-29T07:06:59.716Z</time>
      </trkpt>
      <trkpt lat="45.7569" lon="6.7354">
        <ele>2229</ele>
        <time>2026-07-29T07:07:00.716Z</time>
      </trkpt>
      <trkpt lat="45.7569" lon="6.73541">
        <ele>2229</ele>
        <time>2026-07-29T07:07:01.716Z</time>
      </trkpt>
      <trkpt lat="45.75691" lon="6.73542">
        <ele>2229</ele>
        <time>2026-07-29T07:07:02.716Z</time>
      </trkpt>
      <trkpt lat="45.75691" lon="6.73542">
        <ele>2229</ele>
        <time>2026-07-29T07:07:03.716Z</time>
      </trkpt>
      <trkpt lat="45.75691" lon="6.73543">
        <ele>2229</ele>
        <time>2026-07-29T07:07:04.716Z</time>
      </trkpt>
      <trkpt lat="45.75692" lon="6.73543">
        <ele>2229</ele>
        <time>2026-07-29T07:07:05.716Z</time>
      </trkpt>
      <trkpt lat="45.75692" lon="6.73544">
        <ele>2229</ele>
        <time>2026-07-29T07:07:06.716Z</time>
      </trkpt>
      <trkpt lat="45.75692" lon="6.73545">
        <ele>2229</ele>
        <time>2026-07-29T07:07:07.716Z</time>
      </trkpt>
      <trkpt lat="45.75692" lon="6.73545">
        <ele>2229</ele>
        <time>2026-07-29T07:07:08.716Z</time>
      </trkpt>
      <trkpt lat="45.75692" lon="6.73546">
        <ele>2229</ele>
        <time>2026-07-29T07:07:09.716Z</time>
      </trkpt>
      <trkpt lat="45.75692" lon="6.73547">
        <ele>2229</ele>
        <time>2026-07-29T07:07:10.716Z</time>
      </trkpt>
      <trkpt lat="45.75691" lon="6.73548">
        <ele>2229</ele>
        <time>2026-07-29T07:07:11.716Z</time>
      </trkpt>
      <trkpt lat="45.75692" lon="6.73549">
        <ele>2230</ele>
        <time>2026-07-29T07:07:12.716Z</time>
      </trkpt>
      <trkpt lat="45.75692" lon="6.7355">
        <ele>2230</ele>
        <time>2026-07-29T07:07:13.716Z</time>
      </trkpt>
      <trkpt lat="45.75693" lon="6.7355">
        <ele>2230</ele>
        <time>2026-07-29T07:07:14.716Z</time>
      </trkpt>
      <trkpt lat="45.75694" lon="6.7355">
        <ele>2231</ele>
        <time>2026-07-29T07:07:15.716Z</time>
      </trkpt>
      <trkpt lat="45.75694" lon="6.73551">
        <ele>2231</ele>
        <time>2026-07-29T07:07:16.716Z</time>
      </trkpt>
      <trkpt lat="45.75695" lon="6.73551">
        <ele>2231</ele>
        <time>2026-07-29T07:07:17.716Z</time>
      </trkpt>
      <trkpt lat="45.75696" lon="6.73551">
        <ele>2231</ele>
        <time>2026-07-29T07:07:18.716Z</time>
      </trkpt>
      <trkpt lat="45.75696" lon="6.73552">
        <ele>2231</ele>
        <time>2026-07-29T07:07:19.716Z</time>
      </trkpt>
      <trkpt lat="45.75696" lon="6.73553">
        <ele>2232</ele>
        <time>2026-07-29T07:07:20.716Z</time>
      </trkpt>
      <trkpt lat="45.75697" lon="6.73554">
        <ele>2232</ele>
        <time>2026-07-29T07:07:21.716Z</time>
      </trkpt>
      <trkpt lat="45.75697" lon="6.73555">
        <ele>2232</ele>
        <time>2026-07-29T07:07:22.716Z</time>
      </trkpt>
      <trkpt lat="45.75697" lon="6.73556">
        <ele>2232</ele>
        <time>2026-07-29T07:07:23.716Z</time>
      </trkpt>
      <trkpt lat="45.75698" lon="6.73557">
        <ele>2232</ele>
        <time>2026-07-29T07:07:24.716Z</time>
      </trkpt>
      <trkpt lat="45.75699" lon="6.73557">
        <ele>2232</ele>
        <time>2026-07-29T07:07:25.716Z</time>
      </trkpt>
      <trkpt lat="45.75699" lon="6.73558">
        <ele>2233</ele>
        <time>2026-07-29T07:07:26.716Z</time>
      </trkpt>
      <trkpt lat="45.757" lon="6.73559">
        <ele>2233</ele>
        <time>2026-07-29T07:07:27.716Z</time>
      </trkpt>
      <trkpt lat="45.75701" lon="6.7356">
        <ele>2234</ele>
        <time>2026-07-29T07:07:28.716Z</time>
      </trkpt>
      <trkpt lat="45.75702" lon="6.73561">
        <ele>2234</ele>
        <time>2026-07-29T07:07:29.716Z</time>
      </trkpt>
      <trkpt lat="45.75702" lon="6.73563">
        <ele>2234</ele>
        <time>2026-07-29T07:07:30.716Z</time>
      </trkpt>
      <trkpt lat="45.75702" lon="6.73564">
        <ele>2235</ele>
        <time>2026-07-29T07:07:31.716Z</time>
      </trkpt>
      <trkpt lat="45.75701" lon="6.73565">
        <ele>2235</ele>
        <time>2026-07-29T07:07:32.716Z</time>
      </trkpt>
      <trkpt lat="45.75701" lon="6.73566">
        <ele>2235</ele>
        <time>2026-07-29T07:07:33.716Z</time>
      </trkpt>
      <trkpt lat="45.75701" lon="6.73566">
        <ele>2235</ele>
        <time>2026-07-29T07:07:34.716Z</time>
      </trkpt>
      <trkpt lat="45.75701" lon="6.73567">
        <ele>2236</ele>
        <time>2026-07-29T07:07:35.716Z</time>
      </trkpt>
      <trkpt lat="45.757" lon="6.73567">
        <ele>2236</ele>
        <time>2026-07-29T07:07:36.716Z</time>
      </trkpt>
      <trkpt lat="45.757" lon="6.73568">
        <ele>2237</ele>
        <time>2026-07-29T07:07:37.716Z</time>
      </trkpt>
      <trkpt lat="45.75699" lon="6.73568">
        <ele>2237</ele>
        <time>2026-07-29T07:07:38.716Z</time>
      </trkpt>
      <trkpt lat="45.75699" lon="6.73569">
        <ele>2238</ele>
        <time>2026-07-29T07:07:39.716Z</time>
      </trkpt>
      <trkpt lat="45.75699" lon="6.73569">
        <ele>2238</ele>
        <time>2026-07-29T07:07:40.716Z</time>
      </trkpt>
      <trkpt lat="45.75698" lon="6.7357">
        <ele>2238</ele>
        <time>2026-07-29T07:07:41.716Z</time>
      </trkpt>
      <trkpt lat="45.75698" lon="6.7357">
        <ele>2238</ele>
        <time>2026-07-29T07:07:42.716Z</time>
      </trkpt>
      <trkpt lat="45.75698" lon="6.73571">
        <ele>2238</ele>
        <time>2026-07-29T07:07:43.716Z</time>
      </trkpt>
      <trkpt lat="45.75697" lon="6.73572">
        <ele>2238</ele>
        <time>2026-07-29T07:07:44.716Z</time>
      </trkpt>
      <trkpt lat="45.75697" lon="6.73573">
        <ele>2238</ele>
        <time>2026-07-29T07:07:45.716Z</time>
      </trkpt>
      <trkpt lat="45.75697" lon="6.73574">
        <ele>2238</ele>
        <time>2026-07-29T07:07:46.716Z</time>
      </trkpt>
      <trkpt lat="45.75697" lon="6.73575">
        <ele>2238</ele>
        <time>2026-07-29T07:07:47.716Z</time>
      </trkpt>
      <trkpt lat="45.75697" lon="6.73577">
        <ele>2238</ele>
        <time>2026-07-29T07:07:48.716Z</time>
      </trkpt>
      <trkpt lat="45.75697" lon="6.73578">
        <ele>2238</ele>
        <time>2026-07-29T07:07:49.716Z</time>
      </trkpt>
      <trkpt lat="45.75697" lon="6.73579">
        <ele>2239</ele>
        <time>2026-07-29T07:07:50.716Z</time>
      </trkpt>
      <trkpt lat="45.75697" lon="6.73581">
        <ele>2239</ele>
        <time>2026-07-29T07:07:51.716Z</time>
      </trkpt>
      <trkpt lat="45.75697" lon="6.73582">
        <ele>2239</ele>
        <time>2026-07-29T07:07:52.716Z</time>
      </trkpt>
      <trkpt lat="45.75697" lon="6.73584">
        <ele>2239</ele>
        <time>2026-07-29T07:07:53.716Z</time>
      </trkpt>
      <trkpt lat="45.75696" lon="6.73585">
        <ele>2240</ele>
        <time>2026-07-29T07:07:54.716Z</time>
      </trkpt>
      <trkpt lat="45.75696" lon="6.73587">
        <ele>2240</ele>
        <time>2026-07-29T07:07:55.716Z</time>
      </trkpt>
      <trkpt lat="45.75695" lon="6.73588">
        <ele>2240</ele>
        <time>2026-07-29T07:07:56.716Z</time>
      </trkpt>
      <trkpt lat="45.75695" lon="6.73589">
        <ele>2240</ele>
        <time>2026-07-29T07:07:57.716Z</time>
      </trkpt>
      <trkpt lat="45.75695" lon="6.7359">
        <ele>2240</ele>
        <time>2026-07-29T07:07:58.716Z</time>
      </trkpt>
      <trkpt lat="45.75695" lon="6.7359">
        <ele>2240</ele>
        <time>2026-07-29T07:07:59.716Z</time>
      </trkpt>
      <trkpt lat="45.75695" lon="6.73592">
        <ele>2240</ele>
        <time>2026-07-29T07:08:00.716Z</time>
      </trkpt>
      <trkpt lat="45.75694" lon="6.73593">
        <ele>2241</ele>
        <time>2026-07-29T07:08:01.716Z</time>
      </trkpt>
      <trkpt lat="45.75694" lon="6.73594">
        <ele>2241</ele>
        <time>2026-07-29T07:08:02.716Z</time>
      </trkpt>
      <trkpt lat="45.75693" lon="6.73594">
        <ele>2241</ele>
        <time>2026-07-29T07:08:03.716Z</time>
      </trkpt>
      <trkpt lat="45.75693" lon="6.73595">
        <ele>2241</ele>
        <time>2026-07-29T07:08:04.716Z</time>
      </trkpt>
      <trkpt lat="45.75692" lon="6.73596">
        <ele>2241</ele>
        <time>2026-07-29T07:08:05.716Z</time>
      </trkpt>
      <trkpt lat="45.75692" lon="6.73596">
        <ele>2241</ele>
        <time>2026-07-29T07:08:06.716Z</time>
      </trkpt>
      <trkpt lat="45.75692" lon="6.73597">
        <ele>2241</ele>
        <time>2026-07-29T07:08:07.716Z</time>
      </trkpt>
      <trkpt lat="45.75692" lon="6.73598">
        <ele>2241</ele>
        <time>2026-07-29T07:08:08.716Z</time>
      </trkpt>
      <trkpt lat="45.75692" lon="6.73598">
        <ele>2241</ele>
        <time>2026-07-29T07:08:09.716Z</time>
      </trkpt>
      <trkpt lat="45.75693" lon="6.73599">
        <ele>2241</ele>
        <time>2026-07-29T07:08:10.716Z</time>
      </trkpt>
      <trkpt lat="45.75693" lon="6.736">
        <ele>2241</ele>
        <time>2026-07-29T07:08:11.716Z</time>
      </trkpt>
      <trkpt lat="45.75693" lon="6.73601">
        <ele>2241</ele>
        <time>2026-07-29T07:08:12.716Z</time>
      </trkpt>
      <trkpt lat="45.75693" lon="6.73603">
        <ele>2242</ele>
        <time>2026-07-29T07:08:13.716Z</time>
      </trkpt>
      <trkpt lat="45.75693" lon="6.73604">
        <ele>2242</ele>
        <time>2026-07-29T07:08:14.716Z</time>
      </trkpt>
      <trkpt lat="45.75693" lon="6.73605">
        <ele>2242</ele>
        <time>2026-07-29T07:08:15.716Z</time>
      </trkpt>
      <trkpt lat="45.75693" lon="6.73607">
        <ele>2243</ele>
        <time>2026-07-29T07:08:16.716Z</time>
      </trkpt>
      <trkpt lat="45.75692" lon="6.73608">
        <ele>2243</ele>
        <time>2026-07-29T07:08:17.716Z</time>
      </trkpt>
      <trkpt lat="45.75692" lon="6.73609">
        <ele>2244</ele>
        <time>2026-07-29T07:08:18.716Z</time>
      </trkpt>
      <trkpt lat="45.75692" lon="6.7361">
        <ele>2244</ele>
        <time>2026-07-29T07:08:19.716Z</time>
      </trkpt>
      <trkpt lat="45.75692" lon="6.73611">
        <ele>2245</ele>
        <time>2026-07-29T07:08:20.716Z</time>
      </trkpt>
      <trkpt lat="45.75692" lon="6.73611">
        <ele>2245</ele>
        <time>2026-07-29T07:08:21.716Z</time>
      </trkpt>
      <trkpt lat="45.75692" lon="6.73612">
        <ele>2246</ele>
        <time>2026-07-29T07:08:22.716Z</time>
      </trkpt>
      <trkpt lat="45.75692" lon="6.73613">
        <ele>2246</ele>
        <time>2026-07-29T07:08:23.716Z</time>
      </trkpt>
      <trkpt lat="45.75692" lon="6.73614">
        <ele>2246</ele>
        <time>2026-07-29T07:08:24.716Z</time>
      </trkpt>
      <trkpt lat="45.75692" lon="6.73615">
        <ele>2246</ele>
        <time>2026-07-29T07:08:25.716Z</time>
      </trkpt>
      <trkpt lat="45.75693" lon="6.73616">
        <ele>2246</ele>
        <time>2026-07-29T07:08:26.716Z</time>
      </trkpt>
      <trkpt lat="45.75693" lon="6.73616">
        <ele>2246</ele>
        <time>2026-07-29T07:08:27.716Z</time>
      </trkpt>
      <trkpt lat="45.75693" lon="6.73617">
        <ele>2246</ele>
        <time>2026-07-29T07:08:28.716Z</time>
      </trkpt>
      <trkpt lat="45.75694" lon="6.73618">
        <ele>2246</ele>
        <time>2026-07-29T07:08:29.716Z</time>
      </trkpt>
      <trkpt lat="45.75694" lon="6.73618">
        <ele>2247</ele>
        <time>2026-07-29T07:08:30.716Z</time>
      </trkpt>
      <trkpt lat="45.75695" lon="6.73619">
        <ele>2247</ele>
        <time>2026-07-29T07:08:31.716Z</time>
      </trkpt>
      <trkpt lat="45.75695" lon="6.73619">
        <ele>2247</ele>
        <time>2026-07-29T07:08:32.716Z</time>
      </trkpt>
      <trkpt lat="45.75696" lon="6.73619">
        <ele>2248</ele>
        <time>2026-07-29T07:08:33.716Z</time>
      </trkpt>
      <trkpt lat="45.75696" lon="6.7362">
        <ele>2248</ele>
        <time>2026-07-29T07:08:34.716Z</time>
      </trkpt>
      <trkpt lat="45.75697" lon="6.7362">
        <ele>2249</ele>
        <time>2026-07-29T07:08:35.716Z</time>
      </trkpt>
      <trkpt lat="45.75698" lon="6.73621">
        <ele>2249</ele>
        <time>2026-07-29T07:08:36.716Z</time>
      </trkpt>
      <trkpt lat="45.75699" lon="6.73621">
        <ele>2249</ele>
        <time>2026-07-29T07:08:37.716Z</time>
      </trkpt>
      <trkpt lat="45.75699" lon="6.73622">
        <ele>2249</ele>
        <time>2026-07-29T07:08:38.716Z</time>
      </trkpt>
      <trkpt lat="45.75699" lon="6.73623">
        <ele>2249</ele>
        <time>2026-07-29T07:08:39.716Z</time>
      </trkpt>
      <trkpt lat="45.75699" lon="6.73623">
        <ele>2250</ele>
        <time>2026-07-29T07:08:40.716Z</time>
      </trkpt>
      <trkpt lat="45.75699" lon="6.73624">
        <ele>2250</ele>
        <time>2026-07-29T07:08:41.716Z</time>
      </trkpt>
      <trkpt lat="45.75699" lon="6.73624">
        <ele>2250</ele>
        <time>2026-07-29T07:08:42.716Z</time>
      </trkpt>
      <trkpt lat="45.75699" lon="6.73624">
        <ele>2250</ele>
        <time>2026-07-29T07:08:43.716Z</time>
      </trkpt>
      <trkpt lat="45.75699" lon="6.73624">
        <ele>2250</ele>
        <time>2026-07-29T07:08:44.716Z</time>
      </trkpt>
      <trkpt lat="45.75699" lon="6.73624">
        <ele>2251</ele>
        <time>2026-07-29T07:08:45.716Z</time>
      </trkpt>
      <trkpt lat="45.75699" lon="6.73625">
        <ele>2251</ele>
        <time>2026-07-29T07:08:46.716Z</time>
      </trkpt>
      <trkpt lat="45.75698" lon="6.73625">
        <ele>2251</ele>
        <time>2026-07-29T07:08:47.716Z</time>
      </trkpt>
      <trkpt lat="45.75698" lon="6.73625">
        <ele>2251</ele>
        <time>2026-07-29T07:08:48.716Z</time>
      </trkpt>
      <trkpt lat="45.75698" lon="6.73625">
        <ele>2251</ele>
        <time>2026-07-29T07:08:49.716Z</time>
      </trkpt>
      <trkpt lat="45.75698" lon="6.73626">
        <ele>2251</ele>
        <time>2026-07-29T07:08:50.716Z</time>
      </trkpt>
      <trkpt lat="45.75698" lon="6.73626">
        <ele>2251</ele>
        <time>2026-07-29T07:08:51.716Z</time>
      </trkpt>
      <trkpt lat="45.75699" lon="6.73626">
        <ele>2251</ele>
        <time>2026-07-29T07:08:52.716Z</time>
      </trkpt>
      <trkpt lat="45.75699" lon="6.73627">
        <ele>2251</ele>
        <time>2026-07-29T07:08:53.716Z</time>
      </trkpt>
      <trkpt lat="45.75699" lon="6.73627">
        <ele>2252</ele>
        <time>2026-07-29T07:08:54.716Z</time>
      </trkpt>
      <trkpt lat="45.75699" lon="6.73627">
        <ele>2252</ele>
        <time>2026-07-29T07:08:55.716Z</time>
      </trkpt>
      <trkpt lat="45.757" lon="6.73627">
        <ele>2252</ele>
        <time>2026-07-29T07:08:56.716Z</time>
      </trkpt>
      <trkpt lat="45.75701" lon="6.73627">
        <ele>2252</ele>
        <time>2026-07-29T07:08:57.716Z</time>
      </trkpt>
      <trkpt lat="45.75702" lon="6.73627">
        <ele>2252</ele>
        <time>2026-07-29T07:08:58.716Z</time>
      </trkpt>
      <trkpt lat="45.75702" lon="6.73628">
        <ele>2252</ele>
        <time>2026-07-29T07:08:59.716Z</time>
      </trkpt>
      <trkpt lat="45.75702" lon="6.73629">
        <ele>2252</ele>
        <time>2026-07-29T07:09:00.716Z</time>
      </trkpt>
      <trkpt lat="45.75702" lon="6.73629">
        <ele>2253</ele>
        <time>2026-07-29T07:09:01.716Z</time>
      </trkpt>
      <trkpt lat="45.75702" lon="6.7363">
        <ele>2253</ele>
        <time>2026-07-29T07:09:02.716Z</time>
      </trkpt>
      <trkpt lat="45.75702" lon="6.7363">
        <ele>2253</ele>
        <time>2026-07-29T07:09:03.716Z</time>
      </trkpt>
      <trkpt lat="45.75702" lon="6.73631">
        <ele>2253</ele>
        <time>2026-07-29T07:09:04.716Z</time>
      </trkpt>
      <trkpt lat="45.75702" lon="6.73631">
        <ele>2254</ele>
        <time>2026-07-29T07:09:05.716Z</time>
      </trkpt>
      <trkpt lat="45.75702" lon="6.73632">
        <ele>2254</ele>
        <time>2026-07-29T07:09:06.716Z</time>
      </trkpt>
      <trkpt lat="45.75703" lon="6.73633">
        <ele>2254</ele>
        <time>2026-07-29T07:09:07.716Z</time>
      </trkpt>
      <trkpt lat="45.75703" lon="6.73633">
        <ele>2254</ele>
        <time>2026-07-29T07:09:08.716Z</time>
      </trkpt>
      <trkpt lat="45.75703" lon="6.73633">
        <ele>2254</ele>
        <time>2026-07-29T07:09:09.716Z</time>
      </trkpt>
      <trkpt lat="45.75703" lon="6.73634">
        <ele>2254</ele>
        <time>2026-07-29T07:09:10.716Z</time>
      </trkpt>
      <trkpt lat="45.75703" lon="6.73634">
        <ele>2255</ele>
        <time>2026-07-29T07:09:11.716Z</time>
      </trkpt>
      <trkpt lat="45.75704" lon="6.73634">
        <ele>2255</ele>
        <time>2026-07-29T07:09:12.716Z</time>
      </trkpt>
      <trkpt lat="45.75704" lon="6.73634">
        <ele>2255</ele>
        <time>2026-07-29T07:09:13.716Z</time>
      </trkpt>
      <trkpt lat="45.75705" lon="6.73635">
        <ele>2256</ele>
        <time>2026-07-29T07:09:14.716Z</time>
      </trkpt>
      <trkpt lat="45.75705" lon="6.73635">
        <ele>2256</ele>
        <time>2026-07-29T07:09:15.716Z</time>
      </trkpt>
      <trkpt lat="45.75705" lon="6.73636">
        <ele>2256</ele>
        <time>2026-07-29T07:09:16.716Z</time>
      </trkpt>
      <trkpt lat="45.75706" lon="6.73636">
        <ele>2256</ele>
        <time>2026-07-29T07:09:17.716Z</time>
      </trkpt>
      <trkpt lat="45.75706" lon="6.73637">
        <ele>2256</ele>
        <time>2026-07-29T07:09:18.716Z</time>
      </trkpt>
      <trkpt lat="45.75707" lon="6.73637">
        <ele>2256</ele>
        <time>2026-07-29T07:09:19.716Z</time>
      </trkpt>
      <trkpt lat="45.75707" lon="6.73638">
        <ele>2257</ele>
        <time>2026-07-29T07:09:20.716Z</time>
      </trkpt>
      <trkpt lat="45.75707" lon="6.73639">
        <ele>2258</ele>
        <time>2026-07-29T07:09:21.716Z</time>
      </trkpt>
      <trkpt lat="45.75708" lon="6.73639">
        <ele>2258</ele>
        <time>2026-07-29T07:09:22.716Z</time>
      </trkpt>
      <trkpt lat="45.75708" lon="6.7364">
        <ele>2259</ele>
        <time>2026-07-29T07:09:23.716Z</time>
      </trkpt>
      <trkpt lat="45.75708" lon="6.73641">
        <ele>2259</ele>
        <time>2026-07-29T07:09:24.716Z</time>
      </trkpt>
      <trkpt lat="45.75708" lon="6.73642">
        <ele>2259</ele>
        <time>2026-07-29T07:09:25.716Z</time>
      </trkpt>
      <trkpt lat="45.75708" lon="6.73643">
        <ele>2260</ele>
        <time>2026-07-29T07:09:26.716Z</time>
      </trkpt>
      <trkpt lat="45.75708" lon="6.73644">
        <ele>2260</ele>
        <time>2026-07-29T07:09:27.716Z</time>
      </trkpt>
      <trkpt lat="45.75707" lon="6.73645">
        <ele>2260</ele>
        <time>2026-07-29T07:09:28.716Z</time>
      </trkpt>
      <trkpt lat="45.75707" lon="6.73645">
        <ele>2260</ele>
        <time>2026-07-29T07:09:29.716Z</time>
      </trkpt>
      <trkpt lat="45.75706" lon="6.73645">
        <ele>2260</ele>
        <time>2026-07-29T07:09:30.716Z</time>
      </trkpt>
      <trkpt lat="45.75706" lon="6.73645">
        <ele>2261</ele>
        <time>2026-07-29T07:09:31.716Z</time>
      </trkpt>
      <trkpt lat="45.75705" lon="6.73645">
        <ele>2261</ele>
        <time>2026-07-29T07:09:32.716Z</time>
      </trkpt>
      <trkpt lat="45.75704" lon="6.73646">
        <ele>2262</ele>
        <time>2026-07-29T07:09:33.716Z</time>
      </trkpt>
      <trkpt lat="45.75704" lon="6.73646">
        <ele>2262</ele>
        <time>2026-07-29T07:09:34.716Z</time>
      </trkpt>
      <trkpt lat="45.75703" lon="6.73647">
        <ele>2263</ele>
        <time>2026-07-29T07:09:35.716Z</time>
      </trkpt>
      <trkpt lat="45.75702" lon="6.73648">
        <ele>2263</ele>
        <time>2026-07-29T07:09:36.716Z</time>
      </trkpt>
      <trkpt lat="45.75701" lon="6.73648">
        <ele>2263</ele>
        <time>2026-07-29T07:09:37.716Z</time>
      </trkpt>
      <trkpt lat="45.75701" lon="6.73649">
        <ele>2264</ele>
        <time>2026-07-29T07:09:38.716Z</time>
      </trkpt>
      <trkpt lat="45.757" lon="6.73649">
        <ele>2264</ele>
        <time>2026-07-29T07:09:39.716Z</time>
      </trkpt>
      <trkpt lat="45.757" lon="6.73649">
        <ele>2265</ele>
        <time>2026-07-29T07:09:40.716Z</time>
      </trkpt>
      <trkpt lat="45.757" lon="6.7365">
        <ele>2265</ele>
        <time>2026-07-29T07:09:41.716Z</time>
      </trkpt>
      <trkpt lat="45.757" lon="6.7365">
        <ele>2266</ele>
        <time>2026-07-29T07:09:42.716Z</time>
      </trkpt>
      <trkpt lat="45.75699" lon="6.73651">
        <ele>2266</ele>
        <time>2026-07-29T07:09:43.716Z</time>
      </trkpt>
      <trkpt lat="45.75699" lon="6.73651">
        <ele>2267</ele>
        <time>2026-07-29T07:09:44.716Z</time>
      </trkpt>
      <trkpt lat="45.75699" lon="6.73652">
        <ele>2267</ele>
        <time>2026-07-29T07:09:45.716Z</time>
      </trkpt>
      <trkpt lat="45.75699" lon="6.73652">
        <ele>2267</ele>
        <time>2026-07-29T07:09:46.716Z</time>
      </trkpt>
      <trkpt lat="45.757" lon="6.73653">
        <ele>2267</ele>
        <time>2026-07-29T07:09:47.716Z</time>
      </trkpt>
      <trkpt lat="45.75699" lon="6.73654">
        <ele>2267</ele>
        <time>2026-07-29T07:09:48.716Z</time>
      </trkpt>
      <trkpt lat="45.75699" lon="6.73654">
        <ele>2268</ele>
        <time>2026-07-29T07:09:49.716Z</time>
      </trkpt>
      <trkpt lat="45.75699" lon="6.73655">
        <ele>2268</ele>
        <time>2026-07-29T07:09:50.716Z</time>
      </trkpt>
      <trkpt lat="45.75699" lon="6.73655">
        <ele>2268</ele>
        <time>2026-07-29T07:09:51.716Z</time>
      </trkpt>
      <trkpt lat="45.75699" lon="6.73655">
        <ele>2268</ele>
        <time>2026-07-29T07:09:52.716Z</time>
      </trkpt>
      <trkpt lat="45.75699" lon="6.73656">
        <ele>2268</ele>
        <time>2026-07-29T07:09:53.716Z</time>
      </trkpt>
      <trkpt lat="45.75699" lon="6.73656">
        <ele>2268</ele>
        <time>2026-07-29T07:09:54.716Z</time>
      </trkpt>
      <trkpt lat="45.75698" lon="6.73657">
        <ele>2269</ele>
        <time>2026-07-29T07:09:55.716Z</time>
      </trkpt>
      <trkpt lat="45.75697" lon="6.73657">
        <ele>2269</ele>
        <time>2026-07-29T07:09:56.716Z</time>
      </trkpt>
      <trkpt lat="45.75696" lon="6.73657">
        <ele>2269</ele>
        <time>2026-07-29T07:09:57.716Z</time>
      </trkpt>
      <trkpt lat="45.75696" lon="6.73657">
        <ele>2269</ele>
        <time>2026-07-29T07:09:58.716Z</time>
      </trkpt>
      <trkpt lat="45.75695" lon="6.73658">
        <ele>2269</ele>
        <time>2026-07-29T07:09:59.716Z</time>
      </trkpt>
      <trkpt lat="45.75694" lon="6.73658">
        <ele>2269</ele>
        <time>2026-07-29T07:10:00.716Z</time>
      </trkpt>
      <trkpt lat="45.75693" lon="6.73659">
        <ele>2269</ele>
        <time>2026-07-29T07:10:01.716Z</time>
      </trkpt>
      <trkpt lat="45.75693" lon="6.73659">
        <ele>2270</ele>
        <time>2026-07-29T07:10:02.716Z</time>
      </trkpt>
      <trkpt lat="45.75692" lon="6.7366">
        <ele>2270</ele>
        <time>2026-07-29T07:10:03.716Z</time>
      </trkpt>
      <trkpt lat="45.75692" lon="6.7366">
        <ele>2270</ele>
        <time>2026-07-29T07:10:04.716Z</time>
      </trkpt>
      <trkpt lat="45.75691" lon="6.73661">
        <ele>2270</ele>
        <time>2026-07-29T07:10:05.716Z</time>
      </trkpt>
      <trkpt lat="45.75691" lon="6.73662">
        <ele>2271</ele>
        <time>2026-07-29T07:10:06.716Z</time>
      </trkpt>
      <trkpt lat="45.75691" lon="6.73662">
        <ele>2271</ele>
        <time>2026-07-29T07:10:07.716Z</time>
      </trkpt>
      <trkpt lat="45.7569" lon="6.73663">
        <ele>2271</ele>
        <time>2026-07-29T07:10:08.716Z</time>
      </trkpt>
      <trkpt lat="45.7569" lon="6.73663">
        <ele>2271</ele>
        <time>2026-07-29T07:10:09.716Z</time>
      </trkpt>
      <trkpt lat="45.7569" lon="6.73663">
        <ele>2271</ele>
        <time>2026-07-29T07:10:10.716Z</time>
      </trkpt>
      <trkpt lat="45.7569" lon="6.73663">
        <ele>2271</ele>
        <time>2026-07-29T07:10:11.716Z</time>
      </trkpt>
      <trkpt lat="45.7569" lon="6.73664">
        <ele>2272</ele>
        <time>2026-07-29T07:10:12.716Z</time>
      </trkpt>
      <trkpt lat="45.7569" lon="6.73665">
        <ele>2272</ele>
        <time>2026-07-29T07:10:13.716Z</time>
      </trkpt>
      <trkpt lat="45.75689" lon="6.73665">
        <ele>2272</ele>
        <time>2026-07-29T07:10:14.716Z</time>
      </trkpt>
      <trkpt lat="45.75688" lon="6.73666">
        <ele>2272</ele>
        <time>2026-07-29T07:10:15.716Z</time>
      </trkpt>
      <trkpt lat="45.75688" lon="6.73667">
        <ele>2273</ele>
        <time>2026-07-29T07:10:16.716Z</time>
      </trkpt>
      <trkpt lat="45.75688" lon="6.73668">
        <ele>2273</ele>
        <time>2026-07-29T07:10:17.716Z</time>
      </trkpt>
      <trkpt lat="45.75687" lon="6.73669">
        <ele>2273</ele>
        <time>2026-07-29T07:10:18.716Z</time>
      </trkpt>
      <trkpt lat="45.75687" lon="6.73669">
        <ele>2274</ele>
        <time>2026-07-29T07:10:19.716Z</time>
      </trkpt>
      <trkpt lat="45.75687" lon="6.7367">
        <ele>2274</ele>
        <time>2026-07-29T07:10:20.716Z</time>
      </trkpt>
      <trkpt lat="45.75687" lon="6.7367">
        <ele>2274</ele>
        <time>2026-07-29T07:10:21.716Z</time>
      </trkpt>
      <trkpt lat="45.75687" lon="6.7367">
        <ele>2275</ele>
        <time>2026-07-29T07:10:22.716Z</time>
      </trkpt>
      <trkpt lat="45.75686" lon="6.7367">
        <ele>2275</ele>
        <time>2026-07-29T07:10:23.716Z</time>
      </trkpt>
      <trkpt lat="45.75685" lon="6.73671">
        <ele>2275</ele>
        <time>2026-07-29T07:10:24.716Z</time>
      </trkpt>
      <trkpt lat="45.75685" lon="6.73671">
        <ele>2275</ele>
        <time>2026-07-29T07:10:25.716Z</time>
      </trkpt>
      <trkpt lat="45.75685" lon="6.73672">
        <ele>2275</ele>
        <time>2026-07-29T07:10:26.716Z</time>
      </trkpt>
      <trkpt lat="45.75686" lon="6.73673">
        <ele>2275</ele>
        <time>2026-07-29T07:10:27.716Z</time>
      </trkpt>
      <trkpt lat="45.75686" lon="6.73674">
        <ele>2275</ele>
        <time>2026-07-29T07:10:28.716Z</time>
      </trkpt>
      <trkpt lat="45.75687" lon="6.73675">
        <ele>2275</ele>
        <time>2026-07-29T07:10:29.716Z</time>
      </trkpt>
      <trkpt lat="45.75687" lon="6.73676">
        <ele>2275</ele>
        <time>2026-07-29T07:10:30.716Z</time>
      </trkpt>
      <trkpt lat="45.75686" lon="6.73676">
        <ele>2275</ele>
        <time>2026-07-29T07:10:31.716Z</time>
      </trkpt>
      <trkpt lat="45.75685" lon="6.73677">
        <ele>2276</ele>
        <time>2026-07-29T07:10:32.716Z</time>
      </trkpt>
      <trkpt lat="45.75685" lon="6.73678">
        <ele>2276</ele>
        <time>2026-07-29T07:10:33.716Z</time>
      </trkpt>
      <trkpt lat="45.75685" lon="6.73678">
        <ele>2277</ele>
        <time>2026-07-29T07:10:34.716Z</time>
      </trkpt>
      <trkpt lat="45.75685" lon="6.73679">
        <ele>2277</ele>
        <time>2026-07-29T07:10:35.716Z</time>
      </trkpt>
      <trkpt lat="45.75684" lon="6.7368">
        <ele>2277</ele>
        <time>2026-07-29T07:10:36.716Z</time>
      </trkpt>
      <trkpt lat="45.75683" lon="6.73681">
        <ele>2278</ele>
        <time>2026-07-29T07:10:37.716Z</time>
      </trkpt>
      <trkpt lat="45.75683" lon="6.73681">
        <ele>2278</ele>
        <time>2026-07-29T07:10:38.716Z</time>
      </trkpt>
      <trkpt lat="45.75682" lon="6.73682">
        <ele>2279</ele>
        <time>2026-07-29T07:10:39.716Z</time>
      </trkpt>
      <trkpt lat="45.75682" lon="6.73682">
        <ele>2279</ele>
        <time>2026-07-29T07:10:40.716Z</time>
      </trkpt>
      <trkpt lat="45.75681" lon="6.73683">
        <ele>2280</ele>
        <time>2026-07-29T07:10:41.716Z</time>
      </trkpt>
      <trkpt lat="45.7568" lon="6.73684">
        <ele>2280</ele>
        <time>2026-07-29T07:10:42.716Z</time>
      </trkpt>
      <trkpt lat="45.7568" lon="6.73685">
        <ele>2281</ele>
        <time>2026-07-29T07:10:43.716Z</time>
      </trkpt>
      <trkpt lat="45.75679" lon="6.73685">
        <ele>2281</ele>
        <time>2026-07-29T07:10:44.716Z</time>
      </trkpt>
      <trkpt lat="45.75679" lon="6.73686">
        <ele>2281</ele>
        <time>2026-07-29T07:10:45.716Z</time>
      </trkpt>
      <trkpt lat="45.75678" lon="6.73687">
        <ele>2281</ele>
        <time>2026-07-29T07:10:46.716Z</time>
      </trkpt>
      <trkpt lat="45.75677" lon="6.73687">
        <ele>2282</ele>
        <time>2026-07-29T07:10:47.716Z</time>
      </trkpt>
      <trkpt lat="45.75677" lon="6.73688">
        <ele>2282</ele>
        <time>2026-07-29T07:10:48.716Z</time>
      </trkpt>
      <trkpt lat="45.75676" lon="6.73688">
        <ele>2282</ele>
        <time>2026-07-29T07:10:49.716Z</time>
      </trkpt>
      <trkpt lat="45.75675" lon="6.73689">
        <ele>2283</ele>
        <time>2026-07-29T07:10:50.716Z</time>
      </trkpt>
      <trkpt lat="45.75675" lon="6.7369">
        <ele>2283</ele>
        <time>2026-07-29T07:10:51.716Z</time>
      </trkpt>
      <trkpt lat="45.75674" lon="6.7369">
        <ele>2283</ele>
        <time>2026-07-29T07:10:52.716Z</time>
      </trkpt>
      <trkpt lat="45.75674" lon="6.73691">
        <ele>2284</ele>
        <time>2026-07-29T07:10:53.716Z</time>
      </trkpt>
      <trkpt lat="45.75673" lon="6.73691">
        <ele>2284</ele>
        <time>2026-07-29T07:10:54.716Z</time>
      </trkpt>
      <trkpt lat="45.75672" lon="6.73691">
        <ele>2284</ele>
        <time>2026-07-29T07:10:55.716Z</time>
      </trkpt>
      <trkpt lat="45.75672" lon="6.73692">
        <ele>2284</ele>
        <time>2026-07-29T07:10:56.716Z</time>
      </trkpt>
      <trkpt lat="45.75671" lon="6.73692">
        <ele>2284</ele>
        <time>2026-07-29T07:10:57.716Z</time>
      </trkpt>
      <trkpt lat="45.75671" lon="6.73693">
        <ele>2284</ele>
        <time>2026-07-29T07:10:58.716Z</time>
      </trkpt>
      <trkpt lat="45.7567" lon="6.73693">
        <ele>2284</ele>
        <time>2026-07-29T07:10:59.716Z</time>
      </trkpt>
      <trkpt lat="45.7567" lon="6.73693">
        <ele>2284</ele>
        <time>2026-07-29T07:11:00.716Z</time>
      </trkpt>
      <trkpt lat="45.7567" lon="6.73694">
        <ele>2284</ele>
        <time>2026-07-29T07:11:01.716Z</time>
      </trkpt>
      <trkpt lat="45.7567" lon="6.73695">
        <ele>2284</ele>
        <time>2026-07-29T07:11:02.716Z</time>
      </trkpt>
      <trkpt lat="45.7567" lon="6.73696">
        <ele>2284</ele>
        <time>2026-07-29T07:11:03.716Z</time>
      </trkpt>
      <trkpt lat="45.7567" lon="6.73696">
        <ele>2284</ele>
        <time>2026-07-29T07:11:04.716Z</time>
      </trkpt>
      <trkpt lat="45.7567" lon="6.73698">
        <ele>2285</ele>
        <time>2026-07-29T07:11:05.716Z</time>
      </trkpt>
      <trkpt lat="45.7567" lon="6.73698">
        <ele>2285</ele>
        <time>2026-07-29T07:11:06.716Z</time>
      </trkpt>
      <trkpt lat="45.7567" lon="6.73699">
        <ele>2285</ele>
        <time>2026-07-29T07:11:07.716Z</time>
      </trkpt>
      <trkpt lat="45.7567" lon="6.737">
        <ele>2285</ele>
        <time>2026-07-29T07:11:08.716Z</time>
      </trkpt>
      <trkpt lat="45.7567" lon="6.73701">
        <ele>2286</ele>
        <time>2026-07-29T07:11:09.716Z</time>
      </trkpt>
      <trkpt lat="45.75671" lon="6.73703">
        <ele>2286</ele>
        <time>2026-07-29T07:11:10.716Z</time>
      </trkpt>
      <trkpt lat="45.75671" lon="6.73704">
        <ele>2286</ele>
        <time>2026-07-29T07:11:11.716Z</time>
      </trkpt>
      <trkpt lat="45.75671" lon="6.73705">
        <ele>2286</ele>
        <time>2026-07-29T07:11:12.716Z</time>
      </trkpt>
      <trkpt lat="45.75671" lon="6.73706">
        <ele>2286</ele>
        <time>2026-07-29T07:11:13.716Z</time>
      </trkpt>
      <trkpt lat="45.75671" lon="6.73707">
        <ele>2287</ele>
        <time>2026-07-29T07:11:14.716Z</time>
      </trkpt>
      <trkpt lat="45.75671" lon="6.73707">
        <ele>2287</ele>
        <time>2026-07-29T07:11:15.716Z</time>
      </trkpt>
      <trkpt lat="45.75671" lon="6.73708">
        <ele>2287</ele>
        <time>2026-07-29T07:11:16.716Z</time>
      </trkpt>
      <trkpt lat="45.75671" lon="6.73709">
        <ele>2287</ele>
        <time>2026-07-29T07:11:17.716Z</time>
      </trkpt>
      <trkpt lat="45.75671" lon="6.7371">
        <ele>2287</ele>
        <time>2026-07-29T07:11:18.716Z</time>
      </trkpt>
      <trkpt lat="45.75671" lon="6.73711">
        <ele>2287</ele>
        <time>2026-07-29T07:11:19.716Z</time>
      </trkpt>
      <trkpt lat="45.75672" lon="6.73712">
        <ele>2287</ele>
        <time>2026-07-29T07:11:20.716Z</time>
      </trkpt>
      <trkpt lat="45.75672" lon="6.73713">
        <ele>2287</ele>
        <time>2026-07-29T07:11:21.716Z</time>
      </trkpt>
      <trkpt lat="45.75673" lon="6.73713">
        <ele>2287</ele>
        <time>2026-07-29T07:11:22.716Z</time>
      </trkpt>
      <trkpt lat="45.75673" lon="6.73714">
        <ele>2287</ele>
        <time>2026-07-29T07:11:23.716Z</time>
      </trkpt>
      <trkpt lat="45.75673" lon="6.73715">
        <ele>2287</ele>
        <time>2026-07-29T07:11:24.716Z</time>
      </trkpt>
      <trkpt lat="45.75673" lon="6.73716">
        <ele>2288</ele>
        <time>2026-07-29T07:11:25.716Z</time>
      </trkpt>
      <trkpt lat="45.75673" lon="6.73716">
        <ele>2288</ele>
        <time>2026-07-29T07:11:26.716Z</time>
      </trkpt>
      <trkpt lat="45.75673" lon="6.73717">
        <ele>2288</ele>
        <time>2026-07-29T07:11:27.716Z</time>
      </trkpt>
      <trkpt lat="45.75673" lon="6.73717">
        <ele>2288</ele>
        <time>2026-07-29T07:11:28.716Z</time>
      </trkpt>
      <trkpt lat="45.75673" lon="6.73718">
        <ele>2288</ele>
        <time>2026-07-29T07:11:29.716Z</time>
      </trkpt>
      <trkpt lat="45.75673" lon="6.73718">
        <ele>2288</ele>
        <time>2026-07-29T07:11:30.716Z</time>
      </trkpt>
      <trkpt lat="45.75674" lon="6.73719">
        <ele>2288</ele>
        <time>2026-07-29T07:11:31.716Z</time>
      </trkpt>
      <trkpt lat="45.75674" lon="6.73719">
        <ele>2289</ele>
        <time>2026-07-29T07:11:32.716Z</time>
      </trkpt>
      <trkpt lat="45.75674" lon="6.7372">
        <ele>2289</ele>
        <time>2026-07-29T07:11:33.716Z</time>
      </trkpt>
      <trkpt lat="45.75674" lon="6.73721">
        <ele>2289</ele>
        <time>2026-07-29T07:11:34.716Z</time>
      </trkpt>
      <trkpt lat="45.75674" lon="6.73722">
        <ele>2290</ele>
        <time>2026-07-29T07:11:35.716Z</time>
      </trkpt>
      <trkpt lat="45.75674" lon="6.73722">
        <ele>2290</ele>
        <time>2026-07-29T07:11:36.716Z</time>
      </trkpt>
      <trkpt lat="45.75675" lon="6.73723">
        <ele>2290</ele>
        <time>2026-07-29T07:11:37.716Z</time>
      </trkpt>
      <trkpt lat="45.75675" lon="6.73724">
        <ele>2290</ele>
        <time>2026-07-29T07:11:38.716Z</time>
      </trkpt>
      <trkpt lat="45.75675" lon="6.73724">
        <ele>2290</ele>
        <time>2026-07-29T07:11:39.716Z</time>
      </trkpt>
      <trkpt lat="45.75675" lon="6.73725">
        <ele>2290</ele>
        <time>2026-07-29T07:11:40.716Z</time>
      </trkpt>
      <trkpt lat="45.75675" lon="6.73726">
        <ele>2290</ele>
        <time>2026-07-29T07:11:41.716Z</time>
      </trkpt>
      <trkpt lat="45.75675" lon="6.73727">
        <ele>2290</ele>
        <time>2026-07-29T07:11:42.716Z</time>
      </trkpt>
      <trkpt lat="45.75675" lon="6.73728">
        <ele>2290</ele>
        <time>2026-07-29T07:11:43.716Z</time>
      </trkpt>
      <trkpt lat="45.75675" lon="6.73728">
        <ele>2290</ele>
        <time>2026-07-29T07:11:44.716Z</time>
      </trkpt>
      <trkpt lat="45.75676" lon="6.73729">
        <ele>2290</ele>
        <time>2026-07-29T07:11:45.716Z</time>
      </trkpt>
      <trkpt lat="45.75676" lon="6.7373">
        <ele>2290</ele>
        <time>2026-07-29T07:11:46.716Z</time>
      </trkpt>
      <trkpt lat="45.75676" lon="6.73731">
        <ele>2291</ele>
        <time>2026-07-29T07:11:47.716Z</time>
      </trkpt>
      <trkpt lat="45.75676" lon="6.73731">
        <ele>2291</ele>
        <time>2026-07-29T07:11:48.716Z</time>
      </trkpt>
      <trkpt lat="45.75676" lon="6.73731">
        <ele>2291</ele>
        <time>2026-07-29T07:11:49.716Z</time>
      </trkpt>
      <trkpt lat="45.75676" lon="6.73731">
        <ele>2291</ele>
        <time>2026-07-29T07:11:50.716Z</time>
      </trkpt>
      <trkpt lat="45.75676" lon="6.73732">
        <ele>2292</ele>
        <time>2026-07-29T07:11:51.716Z</time>
      </trkpt>
      <trkpt lat="45.75676" lon="6.73732">
        <ele>2292</ele>
        <time>2026-07-29T07:11:52.716Z</time>
      </trkpt>
      <trkpt lat="45.75676" lon="6.73732">
        <ele>2292</ele>
        <time>2026-07-29T07:11:53.716Z</time>
      </trkpt>
      <trkpt lat="45.75676" lon="6.73732">
        <ele>2292</ele>
        <time>2026-07-29T07:11:54.716Z</time>
      </trkpt>
      <trkpt lat="45.75676" lon="6.73732">
        <ele>2292</ele>
        <time>2026-07-29T07:11:55.716Z</time>
      </trkpt>
      <trkpt lat="45.75676" lon="6.73732">
        <ele>2292</ele>
        <time>2026-07-29T07:11:56.716Z</time>
      </trkpt>
      <trkpt lat="45.75676" lon="6.73732">
        <ele>2292</ele>
        <time>2026-07-29T07:11:57.716Z</time>
      </trkpt>
      <trkpt lat="45.75676" lon="6.73732">
        <ele>2292</ele>
        <time>2026-07-29T07:11:58.716Z</time>
      </trkpt>
      <trkpt lat="45.75676" lon="6.73732">
        <ele>2292</ele>
        <time>2026-07-29T07:11:59.716Z</time>
      </trkpt>
      <trkpt lat="45.75676" lon="6.73732">
        <ele>2292</ele>
        <time>2026-07-29T07:12:00.716Z</time>
      </trkpt>
      <trkpt lat="45.75676" lon="6.73732">
        <ele>2292</ele>
        <time>2026-07-29T07:12:01.716Z</time>
      </trkpt>
      <trkpt lat="45.75676" lon="6.73732">
        <ele>2292</ele>
        <time>2026-07-29T07:12:02.716Z</time>
      </trkpt>
      <trkpt lat="45.75676" lon="6.73732">
        <ele>2292</ele>
        <time>2026-07-29T07:12:03.716Z</time>
      </trkpt>
      <trkpt lat="45.75676" lon="6.73732">
        <ele>2293</ele>
        <time>2026-07-29T07:12:04.716Z</time>
      </trkpt>
      <trkpt lat="45.75676" lon="6.73734">
        <ele>2293</ele>
        <time>2026-07-29T07:12:05.716Z</time>
      </trkpt>
      <trkpt lat="45.75676" lon="6.73735">
        <ele>2293</ele>
        <time>2026-07-29T07:12:06.716Z</time>
      </trkpt>
      <trkpt lat="45.75676" lon="6.73736">
        <ele>2293</ele>
        <time>2026-07-29T07:12:07.716Z</time>
      </trkpt>
      <trkpt lat="45.75677" lon="6.73738">
        <ele>2293</ele>
        <time>2026-07-29T07:12:08.716Z</time>
      </trkpt>
      <trkpt lat="45.75677" lon="6.73739">
        <ele>2294</ele>
        <time>2026-07-29T07:12:09.716Z</time>
      </trkpt>
      <trkpt lat="45.75677" lon="6.7374">
        <ele>2294</ele>
        <time>2026-07-29T07:12:10.716Z</time>
      </trkpt>
      <trkpt lat="45.75678" lon="6.73742">
        <ele>2295</ele>
        <time>2026-07-29T07:12:11.716Z</time>
      </trkpt>
      <trkpt lat="45.75678" lon="6.73743">
        <ele>2295</ele>
        <time>2026-07-29T07:12:12.716Z</time>
      </trkpt>
      <trkpt lat="45.75678" lon="6.73744">
        <ele>2295</ele>
        <time>2026-07-29T07:12:13.716Z</time>
      </trkpt>
      <trkpt lat="45.75678" lon="6.73745">
        <ele>2295</ele>
        <time>2026-07-29T07:12:14.716Z</time>
      </trkpt>
      <trkpt lat="45.75678" lon="6.73746">
        <ele>2295</ele>
        <time>2026-07-29T07:12:15.716Z</time>
      </trkpt>
      <trkpt lat="45.75678" lon="6.73747">
        <ele>2295</ele>
        <time>2026-07-29T07:12:16.716Z</time>
      </trkpt>
      <trkpt lat="45.75677" lon="6.73747">
        <ele>2295</ele>
        <time>2026-07-29T07:12:17.716Z</time>
      </trkpt>
      <trkpt lat="45.75677" lon="6.73748">
        <ele>2295</ele>
        <time>2026-07-29T07:12:18.716Z</time>
      </trkpt>
      <trkpt lat="45.75677" lon="6.73749">
        <ele>2295</ele>
        <time>2026-07-29T07:12:19.716Z</time>
      </trkpt>
      <trkpt lat="45.75677" lon="6.73749">
        <ele>2296</ele>
        <time>2026-07-29T07:12:20.716Z</time>
      </trkpt>
      <trkpt lat="45.75677" lon="6.7375">
        <ele>2296</ele>
        <time>2026-07-29T07:12:21.716Z</time>
      </trkpt>
      <trkpt lat="45.75677" lon="6.73751">
        <ele>2296</ele>
        <time>2026-07-29T07:12:22.716Z</time>
      </trkpt>
      <trkpt lat="45.75677" lon="6.73751">
        <ele>2297</ele>
        <time>2026-07-29T07:12:23.716Z</time>
      </trkpt>
      <trkpt lat="45.75677" lon="6.73752">
        <ele>2297</ele>
        <time>2026-07-29T07:12:24.716Z</time>
      </trkpt>
      <trkpt lat="45.75677" lon="6.73753">
        <ele>2297</ele>
        <time>2026-07-29T07:12:25.716Z</time>
      </trkpt>
      <trkpt lat="45.75677" lon="6.73753">
        <ele>2297</ele>
        <time>2026-07-29T07:12:26.716Z</time>
      </trkpt>
      <trkpt lat="45.75678" lon="6.73754">
        <ele>2297</ele>
        <time>2026-07-29T07:12:27.716Z</time>
      </trkpt>
      <trkpt lat="45.75678" lon="6.73755">
        <ele>2298</ele>
        <time>2026-07-29T07:12:28.716Z</time>
      </trkpt>
      <trkpt lat="45.75678" lon="6.73755">
        <ele>2298</ele>
        <time>2026-07-29T07:12:29.716Z</time>
      </trkpt>
      <trkpt lat="45.75678" lon="6.73756">
        <ele>2299</ele>
        <time>2026-07-29T07:12:30.716Z</time>
      </trkpt>
      <trkpt lat="45.75679" lon="6.73756">
        <ele>2299</ele>
        <time>2026-07-29T07:12:31.716Z</time>
      </trkpt>
      <trkpt lat="45.75679" lon="6.73757">
        <ele>2300</ele>
        <time>2026-07-29T07:12:32.716Z</time>
      </trkpt>
      <trkpt lat="45.7568" lon="6.73757">
        <ele>2301</ele>
        <time>2026-07-29T07:12:33.716Z</time>
      </trkpt>
      <trkpt lat="45.7568" lon="6.73758">
        <ele>2301</ele>
        <time>2026-07-29T07:12:34.716Z</time>
      </trkpt>
      <trkpt lat="45.7568" lon="6.73759">
        <ele>2301</ele>
        <time>2026-07-29T07:12:35.716Z</time>
      </trkpt>
      <trkpt lat="45.7568" lon="6.7376">
        <ele>2301</ele>
        <time>2026-07-29T07:12:36.716Z</time>
      </trkpt>
      <trkpt lat="45.7568" lon="6.7376">
        <ele>2302</ele>
        <time>2026-07-29T07:12:37.716Z</time>
      </trkpt>
      <trkpt lat="45.7568" lon="6.73761">
        <ele>2302</ele>
        <time>2026-07-29T07:12:38.716Z</time>
      </trkpt>
      <trkpt lat="45.7568" lon="6.73762">
        <ele>2302</ele>
        <time>2026-07-29T07:12:39.716Z</time>
      </trkpt>
      <trkpt lat="45.75681" lon="6.73763">
        <ele>2302</ele>
        <time>2026-07-29T07:12:40.716Z</time>
      </trkpt>
      <trkpt lat="45.75681" lon="6.73764">
        <ele>2303</ele>
        <time>2026-07-29T07:12:41.716Z</time>
      </trkpt>
      <trkpt lat="45.75681" lon="6.73765">
        <ele>2303</ele>
        <time>2026-07-29T07:12:42.716Z</time>
      </trkpt>
      <trkpt lat="45.75681" lon="6.73765">
        <ele>2303</ele>
        <time>2026-07-29T07:12:43.716Z</time>
      </trkpt>
      <trkpt lat="45.75681" lon="6.73766">
        <ele>2303</ele>
        <time>2026-07-29T07:12:44.716Z</time>
      </trkpt>
      <trkpt lat="45.75682" lon="6.73767">
        <ele>2303</ele>
        <time>2026-07-29T07:12:45.716Z</time>
      </trkpt>
      <trkpt lat="45.75682" lon="6.73768">
        <ele>2303</ele>
        <time>2026-07-29T07:12:46.716Z</time>
      </trkpt>
      <trkpt lat="45.75682" lon="6.73769">
        <ele>2304</ele>
        <time>2026-07-29T07:12:47.716Z</time>
      </trkpt>
      <trkpt lat="45.75682" lon="6.73769">
        <ele>2304</ele>
        <time>2026-07-29T07:12:48.716Z</time>
      </trkpt>
      <trkpt lat="45.75682" lon="6.7377">
        <ele>2304</ele>
        <time>2026-07-29T07:12:49.716Z</time>
      </trkpt>
      <trkpt lat="45.75682" lon="6.73771">
        <ele>2304</ele>
        <time>2026-07-29T07:12:50.716Z</time>
      </trkpt>
      <trkpt lat="45.75681" lon="6.73772">
        <ele>2304</ele>
        <time>2026-07-29T07:12:51.716Z</time>
      </trkpt>
      <trkpt lat="45.7568" lon="6.73772">
        <ele>2304</ele>
        <time>2026-07-29T07:12:52.716Z</time>
      </trkpt>
      <trkpt lat="45.7568" lon="6.73772">
        <ele>2303</ele>
        <time>2026-07-29T07:12:53.716Z</time>
      </trkpt>
      <trkpt lat="45.75679" lon="6.73772">
        <ele>2304</ele>
        <time>2026-07-29T07:12:54.716Z</time>
      </trkpt>
      <trkpt lat="45.75678" lon="6.73772">
        <ele>2304</ele>
        <time>2026-07-29T07:12:55.716Z</time>
      </trkpt>
      <trkpt lat="45.75678" lon="6.73772">
        <ele>2305</ele>
        <time>2026-07-29T07:12:56.716Z</time>
      </trkpt>
      <trkpt lat="45.75677" lon="6.73772">
        <ele>2305</ele>
        <time>2026-07-29T07:12:57.716Z</time>
      </trkpt>
      <trkpt lat="45.75677" lon="6.73773">
        <ele>2305</ele>
        <time>2026-07-29T07:12:58.716Z</time>
      </trkpt>
      <trkpt lat="45.75676" lon="6.73772">
        <ele>2305</ele>
        <time>2026-07-29T07:12:59.716Z</time>
      </trkpt>
      <trkpt lat="45.75676" lon="6.73772">
        <ele>2306</ele>
        <time>2026-07-29T07:13:00.716Z</time>
      </trkpt>
      <trkpt lat="45.75675" lon="6.73772">
        <ele>2306</ele>
        <time>2026-07-29T07:13:01.716Z</time>
      </trkpt>
      <trkpt lat="45.75674" lon="6.73772">
        <ele>2306</ele>
        <time>2026-07-29T07:13:02.716Z</time>
      </trkpt>
      <trkpt lat="45.75674" lon="6.73772">
        <ele>2306</ele>
        <time>2026-07-29T07:13:03.716Z</time>
      </trkpt>
      <trkpt lat="45.75673" lon="6.73772">
        <ele>2307</ele>
        <time>2026-07-29T07:13:04.716Z</time>
      </trkpt>
      <trkpt lat="45.75672" lon="6.73772">
        <ele>2307</ele>
        <time>2026-07-29T07:13:05.716Z</time>
      </trkpt>
      <trkpt lat="45.75671" lon="6.73773">
        <ele>2308</ele>
        <time>2026-07-29T07:13:06.716Z</time>
      </trkpt>
      <trkpt lat="45.7567" lon="6.73773">
        <ele>2308</ele>
        <time>2026-07-29T07:13:07.716Z</time>
      </trkpt>
      <trkpt lat="45.7567" lon="6.73773">
        <ele>2309</ele>
        <time>2026-07-29T07:13:08.716Z</time>
      </trkpt>
      <trkpt lat="45.75669" lon="6.73774">
        <ele>2310</ele>
        <time>2026-07-29T07:13:09.716Z</time>
      </trkpt>
      <trkpt lat="45.75668" lon="6.73774">
        <ele>2310</ele>
        <time>2026-07-29T07:13:10.716Z</time>
      </trkpt>
      <trkpt lat="45.75667" lon="6.73774">
        <ele>2310</ele>
        <time>2026-07-29T07:13:11.716Z</time>
      </trkpt>
      <trkpt lat="45.75666" lon="6.73774">
        <ele>2311</ele>
        <time>2026-07-29T07:13:12.716Z</time>
      </trkpt>
      <trkpt lat="45.75665" lon="6.73774">
        <ele>2311</ele>
        <time>2026-07-29T07:13:13.716Z</time>
      </trkpt>
      <trkpt lat="45.75665" lon="6.73774">
        <ele>2311</ele>
        <time>2026-07-29T07:13:14.716Z</time>
      </trkpt>
      <trkpt lat="45.75664" lon="6.73774">
        <ele>2312</ele>
        <time>2026-07-29T07:13:15.716Z</time>
      </trkpt>
      <trkpt lat="45.75663" lon="6.73775">
        <ele>2312</ele>
        <time>2026-07-29T07:13:16.716Z</time>
      </trkpt>
      <trkpt lat="45.75662" lon="6.73775">
        <ele>2312</ele>
        <time>2026-07-29T07:13:17.716Z</time>
      </trkpt>
      <trkpt lat="45.75661" lon="6.73774">
        <ele>2312</ele>
        <time>2026-07-29T07:13:18.716Z</time>
      </trkpt>
      <trkpt lat="45.7566" lon="6.73774">
        <ele>2313</ele>
        <time>2026-07-29T07:13:19.716Z</time>
      </trkpt>
      <trkpt lat="45.75659" lon="6.73774">
        <ele>2313</ele>
        <time>2026-07-29T07:13:20.716Z</time>
      </trkpt>
      <trkpt lat="45.75658" lon="6.73775">
        <ele>2313</ele>
        <time>2026-07-29T07:13:21.716Z</time>
      </trkpt>
      <trkpt lat="45.75658" lon="6.73775">
        <ele>2313</ele>
        <time>2026-07-29T07:13:22.716Z</time>
      </trkpt>
      <trkpt lat="45.75657" lon="6.73775">
        <ele>2313</ele>
        <time>2026-07-29T07:13:23.716Z</time>
      </trkpt>
      <trkpt lat="45.75656" lon="6.73776">
        <ele>2313</ele>
        <time>2026-07-29T07:13:24.716Z</time>
      </trkpt>
      <trkpt lat="45.75655" lon="6.73776">
        <ele>2313</ele>
        <time>2026-07-29T07:13:25.716Z</time>
      </trkpt>
      <trkpt lat="45.75654" lon="6.73776">
        <ele>2313</ele>
        <time>2026-07-29T07:13:26.716Z</time>
      </trkpt>
      <trkpt lat="45.75653" lon="6.73776">
        <ele>2312</ele>
        <time>2026-07-29T07:13:27.716Z</time>
      </trkpt>
      <trkpt lat="45.75653" lon="6.73776">
        <ele>2312</ele>
        <time>2026-07-29T07:13:28.716Z</time>
      </trkpt>
      <trkpt lat="45.75652" lon="6.73776">
        <ele>2312</ele>
        <time>2026-07-29T07:13:29.716Z</time>
      </trkpt>
      <trkpt lat="45.75651" lon="6.73776">
        <ele>2312</ele>
        <time>2026-07-29T07:13:30.716Z</time>
      </trkpt>
      <trkpt lat="45.7565" lon="6.73776">
        <ele>2313</ele>
        <time>2026-07-29T07:13:31.716Z</time>
      </trkpt>
      <trkpt lat="45.75649" lon="6.73776">
        <ele>2313</ele>
        <time>2026-07-29T07:13:32.716Z</time>
      </trkpt>
      <trkpt lat="45.75648" lon="6.73776">
        <ele>2314</ele>
        <time>2026-07-29T07:13:33.717Z</time>
      </trkpt>
      <trkpt lat="45.75647" lon="6.73776">
        <ele>2314</ele>
        <time>2026-07-29T07:13:34.716Z</time>
      </trkpt>
      <trkpt lat="45.75647" lon="6.73777">
        <ele>2315</ele>
        <time>2026-07-29T07:13:35.716Z</time>
      </trkpt>
      <trkpt lat="45.75647" lon="6.73777">
        <ele>2315</ele>
        <time>2026-07-29T07:13:36.716Z</time>
      </trkpt>
      <trkpt lat="45.75647" lon="6.73778">
        <ele>2315</ele>
        <time>2026-07-29T07:13:37.716Z</time>
      </trkpt>
      <trkpt lat="45.75647" lon="6.73778">
        <ele>2316</ele>
        <time>2026-07-29T07:13:38.716Z</time>
      </trkpt>
      <trkpt lat="45.75647" lon="6.73778">
        <ele>2316</ele>
        <time>2026-07-29T07:13:39.716Z</time>
      </trkpt>
      <trkpt lat="45.75647" lon="6.73779">
        <ele>2316</ele>
        <time>2026-07-29T07:13:40.716Z</time>
      </trkpt>
      <trkpt lat="45.75647" lon="6.73779">
        <ele>2316</ele>
        <time>2026-07-29T07:13:41.716Z</time>
      </trkpt>
      <trkpt lat="45.75648" lon="6.7378">
        <ele>2316</ele>
        <time>2026-07-29T07:13:42.716Z</time>
      </trkpt>
      <trkpt lat="45.75649" lon="6.7378">
        <ele>2316</ele>
        <time>2026-07-29T07:13:43.716Z</time>
      </trkpt>
      <trkpt lat="45.75649" lon="6.73781">
        <ele>2315</ele>
        <time>2026-07-29T07:13:44.716Z</time>
      </trkpt>
      <trkpt lat="45.75649" lon="6.73782">
        <ele>2315</ele>
        <time>2026-07-29T07:13:45.716Z</time>
      </trkpt>
      <trkpt lat="45.7565" lon="6.73782">
        <ele>2315</ele>
        <time>2026-07-29T07:13:46.716Z</time>
      </trkpt>
      <trkpt lat="45.75651" lon="6.73783">
        <ele>2315</ele>
        <time>2026-07-29T07:13:47.716Z</time>
      </trkpt>
      <trkpt lat="45.75651" lon="6.73784">
        <ele>2315</ele>
        <time>2026-07-29T07:13:48.716Z</time>
      </trkpt>
      <trkpt lat="45.75651" lon="6.73784">
        <ele>2315</ele>
        <time>2026-07-29T07:13:49.716Z</time>
      </trkpt>
      <trkpt lat="45.75652" lon="6.73785">
        <ele>2315</ele>
        <time>2026-07-29T07:13:50.716Z</time>
      </trkpt>
      <trkpt lat="45.75653" lon="6.73786">
        <ele>2316</ele>
        <time>2026-07-29T07:13:51.716Z</time>
      </trkpt>
      <trkpt lat="45.75653" lon="6.73786">
        <ele>2316</ele>
        <time>2026-07-29T07:13:52.716Z</time>
      </trkpt>
      <trkpt lat="45.75654" lon="6.73787">
        <ele>2316</ele>
        <time>2026-07-29T07:13:53.716Z</time>
      </trkpt>
      <trkpt lat="45.75654" lon="6.73787">
        <ele>2316</ele>
        <time>2026-07-29T07:13:54.716Z</time>
      </trkpt>
      <trkpt lat="45.75655" lon="6.73788">
        <ele>2316</ele>
        <time>2026-07-29T07:13:55.716Z</time>
      </trkpt>
      <trkpt lat="45.75656" lon="6.73789">
        <ele>2316</ele>
        <time>2026-07-29T07:13:56.716Z</time>
      </trkpt>
      <trkpt lat="45.75656" lon="6.73789">
        <ele>2316</ele>
        <time>2026-07-29T07:13:57.716Z</time>
      </trkpt>
      <trkpt lat="45.75657" lon="6.7379">
        <ele>2316</ele>
        <time>2026-07-29T07:13:58.716Z</time>
      </trkpt>
      <trkpt lat="45.75658" lon="6.73791">
        <ele>2316</ele>
        <time>2026-07-29T07:13:59.716Z</time>
      </trkpt>
      <trkpt lat="45.75659" lon="6.73791">
        <ele>2316</ele>
        <time>2026-07-29T07:14:00.716Z</time>
      </trkpt>
      <trkpt lat="45.75661" lon="6.73792">
        <ele>2316</ele>
        <time>2026-07-29T07:14:01.716Z</time>
      </trkpt>
      <trkpt lat="45.75662" lon="6.73793">
        <ele>2317</ele>
        <time>2026-07-29T07:14:02.716Z</time>
      </trkpt>
      <trkpt lat="45.75662" lon="6.73794">
        <ele>2317</ele>
        <time>2026-07-29T07:14:03.716Z</time>
      </trkpt>
      <trkpt lat="45.75663" lon="6.73795">
        <ele>2317</ele>
        <time>2026-07-29T07:14:04.716Z</time>
      </trkpt>
      <trkpt lat="45.75664" lon="6.73796">
        <ele>2317</ele>
        <time>2026-07-29T07:14:05.716Z</time>
      </trkpt>
      <trkpt lat="45.75665" lon="6.73797">
        <ele>2317</ele>
        <time>2026-07-29T07:14:06.716Z</time>
      </trkpt>
      <trkpt lat="45.75666" lon="6.73798">
        <ele>2317</ele>
        <time>2026-07-29T07:14:07.716Z</time>
      </trkpt>
      <trkpt lat="45.75667" lon="6.73799">
        <ele>2317</ele>
        <time>2026-07-29T07:14:08.716Z</time>
      </trkpt>
      <trkpt lat="45.75668" lon="6.738">
        <ele>2318</ele>
        <time>2026-07-29T07:14:09.716Z</time>
      </trkpt>
      <trkpt lat="45.75669" lon="6.73801">
        <ele>2318</ele>
        <time>2026-07-29T07:14:10.716Z</time>
      </trkpt>
      <trkpt lat="45.75669" lon="6.73802">
        <ele>2318</ele>
        <time>2026-07-29T07:14:11.716Z</time>
      </trkpt>
      <trkpt lat="45.7567" lon="6.73803">
        <ele>2318</ele>
        <time>2026-07-29T07:14:12.716Z</time>
      </trkpt>
      <trkpt lat="45.75671" lon="6.73804">
        <ele>2318</ele>
        <time>2026-07-29T07:14:13.716Z</time>
      </trkpt>
      <trkpt lat="45.75671" lon="6.73805">
        <ele>2318</ele>
        <time>2026-07-29T07:14:14.716Z</time>
      </trkpt>
      <trkpt lat="45.75672" lon="6.73806">
        <ele>2318</ele>
        <time>2026-07-29T07:14:15.716Z</time>
      </trkpt>
      <trkpt lat="45.75672" lon="6.73808">
        <ele>2318</ele>
        <time>2026-07-29T07:14:16.716Z</time>
      </trkpt>
      <trkpt lat="45.75673" lon="6.73809">
        <ele>2318</ele>
        <time>2026-07-29T07:14:17.716Z</time>
      </trkpt>
      <trkpt lat="45.75674" lon="6.7381">
        <ele>2318</ele>
        <time>2026-07-29T07:14:18.716Z</time>
      </trkpt>
      <trkpt lat="45.75674" lon="6.73811">
        <ele>2319</ele>
        <time>2026-07-29T07:14:19.716Z</time>
      </trkpt>
      <trkpt lat="45.75675" lon="6.73812">
        <ele>2319</ele>
        <time>2026-07-29T07:14:20.716Z</time>
      </trkpt>
      <trkpt lat="45.75675" lon="6.73813">
        <ele>2319</ele>
        <time>2026-07-29T07:14:21.716Z</time>
      </trkpt>
      <trkpt lat="45.75676" lon="6.73814">
        <ele>2320</ele>
        <time>2026-07-29T07:14:22.716Z</time>
      </trkpt>
      <trkpt lat="45.75677" lon="6.73816">
        <ele>2320</ele>
        <time>2026-07-29T07:14:23.716Z</time>
      </trkpt>
      <trkpt lat="45.75678" lon="6.73817">
        <ele>2320</ele>
        <time>2026-07-29T07:14:24.716Z</time>
      </trkpt>
      <trkpt lat="45.75678" lon="6.73818">
        <ele>2320</ele>
        <time>2026-07-29T07:14:25.716Z</time>
      </trkpt>
      <trkpt lat="45.75679" lon="6.7382">
        <ele>2320</ele>
        <time>2026-07-29T07:14:26.716Z</time>
      </trkpt>
      <trkpt lat="45.7568" lon="6.73821">
        <ele>2321</ele>
        <time>2026-07-29T07:14:27.716Z</time>
      </trkpt>
      <trkpt lat="45.7568" lon="6.73822">
        <ele>2321</ele>
        <time>2026-07-29T07:14:28.716Z</time>
      </trkpt>
      <trkpt lat="45.75681" lon="6.73823">
        <ele>2321</ele>
        <time>2026-07-29T07:14:29.716Z</time>
      </trkpt>
      <trkpt lat="45.75681" lon="6.73824">
        <ele>2321</ele>
        <time>2026-07-29T07:14:30.716Z</time>
      </trkpt>
      <trkpt lat="45.75682" lon="6.73825">
        <ele>2321</ele>
        <time>2026-07-29T07:14:31.716Z</time>
      </trkpt>
      <trkpt lat="45.75682" lon="6.73826">
        <ele>2321</ele>
        <time>2026-07-29T07:14:32.716Z</time>
      </trkpt>
      <trkpt lat="45.75683" lon="6.73827">
        <ele>2321</ele>
        <time>2026-07-29T07:14:33.716Z</time>
      </trkpt>
      <trkpt lat="45.75684" lon="6.73828">
        <ele>2322</ele>
        <time>2026-07-29T07:14:34.716Z</time>
      </trkpt>
      <trkpt lat="45.75684" lon="6.73829">
        <ele>2322</ele>
        <time>2026-07-29T07:14:35.716Z</time>
      </trkpt>
      <trkpt lat="45.75685" lon="6.7383">
        <ele>2322</ele>
        <time>2026-07-29T07:14:36.716Z</time>
      </trkpt>
      <trkpt lat="45.75685" lon="6.73831">
        <ele>2322</ele>
        <time>2026-07-29T07:14:37.716Z</time>
      </trkpt>
      <trkpt lat="45.75686" lon="6.73832">
        <ele>2323</ele>
        <time>2026-07-29T07:14:38.716Z</time>
      </trkpt>
      <trkpt lat="45.75686" lon="6.73833">
        <ele>2323</ele>
        <time>2026-07-29T07:14:39.716Z</time>
      </trkpt>
      <trkpt lat="45.75687" lon="6.73834">
        <ele>2323</ele>
        <time>2026-07-29T07:14:40.716Z</time>
      </trkpt>
      <trkpt lat="45.75687" lon="6.73835">
        <ele>2324</ele>
        <time>2026-07-29T07:14:41.716Z</time>
      </trkpt>
      <trkpt lat="45.75687" lon="6.73836">
        <ele>2324</ele>
        <time>2026-07-29T07:14:42.716Z</time>
      </trkpt>
      <trkpt lat="45.75687" lon="6.73837">
        <ele>2324</ele>
        <time>2026-07-29T07:14:43.716Z</time>
      </trkpt>
      <trkpt lat="45.75687" lon="6.73838">
        <ele>2324</ele>
        <time>2026-07-29T07:14:44.716Z</time>
      </trkpt>
      <trkpt lat="45.75688" lon="6.7384">
        <ele>2324</ele>
        <time>2026-07-29T07:14:45.716Z</time>
      </trkpt>
      <trkpt lat="45.75688" lon="6.73841">
        <ele>2324</ele>
        <time>2026-07-29T07:14:46.716Z</time>
      </trkpt>
      <trkpt lat="45.75689" lon="6.73842">
        <ele>2324</ele>
        <time>2026-07-29T07:14:47.716Z</time>
      </trkpt>
      <trkpt lat="45.75689" lon="6.73843">
        <ele>2325</ele>
        <time>2026-07-29T07:14:48.716Z</time>
      </trkpt>
      <trkpt lat="45.75689" lon="6.73844">
        <ele>2325</ele>
        <time>2026-07-29T07:14:49.716Z</time>
      </trkpt>
      <trkpt lat="45.7569" lon="6.73845">
        <ele>2325</ele>
        <time>2026-07-29T07:14:50.716Z</time>
      </trkpt>
      <trkpt lat="45.7569" lon="6.73846">
        <ele>2325</ele>
        <time>2026-07-29T07:14:51.716Z</time>
      </trkpt>
      <trkpt lat="45.7569" lon="6.73847">
        <ele>2325</ele>
        <time>2026-07-29T07:14:52.716Z</time>
      </trkpt>
      <trkpt lat="45.7569" lon="6.73848">
        <ele>2326</ele>
        <time>2026-07-29T07:14:53.716Z</time>
      </trkpt>
      <trkpt lat="45.7569" lon="6.73849">
        <ele>2326</ele>
        <time>2026-07-29T07:14:54.716Z</time>
      </trkpt>
      <trkpt lat="45.75691" lon="6.7385">
        <ele>2326</ele>
        <time>2026-07-29T07:14:55.716Z</time>
      </trkpt>
      <trkpt lat="45.75691" lon="6.73851">
        <ele>2326</ele>
        <time>2026-07-29T07:14:56.716Z</time>
      </trkpt>
      <trkpt lat="45.75692" lon="6.73852">
        <ele>2327</ele>
        <time>2026-07-29T07:14:57.716Z</time>
      </trkpt>
      <trkpt lat="45.75692" lon="6.73853">
        <ele>2327</ele>
        <time>2026-07-29T07:14:58.716Z</time>
      </trkpt>
      <trkpt lat="45.75692" lon="6.73853">
        <ele>2327</ele>
        <time>2026-07-29T07:14:59.717Z</time>
      </trkpt>
      <trkpt lat="45.75693" lon="6.73855">
        <ele>2328</ele>
        <time>2026-07-29T07:15:00.716Z</time>
      </trkpt>
      <trkpt lat="45.75693" lon="6.73856">
        <ele>2328</ele>
        <time>2026-07-29T07:15:01.716Z</time>
      </trkpt>
      <trkpt lat="45.75693" lon="6.73857">
        <ele>2328</ele>
        <time>2026-07-29T07:15:02.716Z</time>
      </trkpt>
      <trkpt lat="45.75694" lon="6.73858">
        <ele>2328</ele>
        <time>2026-07-29T07:15:03.716Z</time>
      </trkpt>
      <trkpt lat="45.75694" lon="6.73858">
        <ele>2328</ele>
        <time>2026-07-29T07:15:04.716Z</time>
      </trkpt>
      <trkpt lat="45.75695" lon="6.73859">
        <ele>2328</ele>
        <time>2026-07-29T07:15:05.716Z</time>
      </trkpt>
      <trkpt lat="45.75695" lon="6.7386">
        <ele>2328</ele>
        <time>2026-07-29T07:15:06.716Z</time>
      </trkpt>
      <trkpt lat="45.75696" lon="6.73861">
        <ele>2328</ele>
        <time>2026-07-29T07:15:07.716Z</time>
      </trkpt>
      <trkpt lat="45.75696" lon="6.73863">
        <ele>2328</ele>
        <time>2026-07-29T07:15:08.716Z</time>
      </trkpt>
      <trkpt lat="45.75696" lon="6.73864">
        <ele>2329</ele>
        <time>2026-07-29T07:15:09.716Z</time>
      </trkpt>
      <trkpt lat="45.75696" lon="6.73865">
        <ele>2329</ele>
        <time>2026-07-29T07:15:10.716Z</time>
      </trkpt>
      <trkpt lat="45.75697" lon="6.73866">
        <ele>2329</ele>
        <time>2026-07-29T07:15:11.716Z</time>
      </trkpt>
      <trkpt lat="45.75697" lon="6.73867">
        <ele>2330</ele>
        <time>2026-07-29T07:15:12.716Z</time>
      </trkpt>
      <trkpt lat="45.75697" lon="6.73868">
        <ele>2330</ele>
        <time>2026-07-29T07:15:13.716Z</time>
      </trkpt>
      <trkpt lat="45.75698" lon="6.73869">
        <ele>2331</ele>
        <time>2026-07-29T07:15:14.716Z</time>
      </trkpt>
      <trkpt lat="45.75698" lon="6.7387">
        <ele>2331</ele>
        <time>2026-07-29T07:15:15.716Z</time>
      </trkpt>
      <trkpt lat="45.75699" lon="6.73871">
        <ele>2331</ele>
        <time>2026-07-29T07:15:16.716Z</time>
      </trkpt>
      <trkpt lat="45.75699" lon="6.73872">
        <ele>2332</ele>
        <time>2026-07-29T07:15:17.716Z</time>
      </trkpt>
      <trkpt lat="45.757" lon="6.73872">
        <ele>2332</ele>
        <time>2026-07-29T07:15:18.716Z</time>
      </trkpt>
      <trkpt lat="45.757" lon="6.73873">
        <ele>2332</ele>
        <time>2026-07-29T07:15:19.716Z</time>
      </trkpt>
      <trkpt lat="45.75701" lon="6.73874">
        <ele>2332</ele>
        <time>2026-07-29T07:15:20.716Z</time>
      </trkpt>
      <trkpt lat="45.75701" lon="6.73875">
        <ele>2332</ele>
        <time>2026-07-29T07:15:21.716Z</time>
      </trkpt>
      <trkpt lat="45.75701" lon="6.73876">
        <ele>2332</ele>
        <time>2026-07-29T07:15:22.716Z</time>
      </trkpt>
      <trkpt lat="45.75701" lon="6.73877">
        <ele>2332</ele>
        <time>2026-07-29T07:15:23.716Z</time>
      </trkpt>
      <trkpt lat="45.75702" lon="6.73878">
        <ele>2333</ele>
        <time>2026-07-29T07:15:24.716Z</time>
      </trkpt>
      <trkpt lat="45.75702" lon="6.73879">
        <ele>2333</ele>
        <time>2026-07-29T07:15:25.716Z</time>
      </trkpt>
      <trkpt lat="45.75703" lon="6.73881">
        <ele>2334</ele>
        <time>2026-07-29T07:15:26.716Z</time>
      </trkpt>
      <trkpt lat="45.75703" lon="6.73882">
        <ele>2334</ele>
        <time>2026-07-29T07:15:27.716Z</time>
      </trkpt>
      <trkpt lat="45.75703" lon="6.73883">
        <ele>2334</ele>
        <time>2026-07-29T07:15:28.716Z</time>
      </trkpt>
      <trkpt lat="45.75704" lon="6.73883">
        <ele>2335</ele>
        <time>2026-07-29T07:15:29.716Z</time>
      </trkpt>
      <trkpt lat="45.75704" lon="6.73884">
        <ele>2335</ele>
        <time>2026-07-29T07:15:30.716Z</time>
      </trkpt>
      <trkpt lat="45.75704" lon="6.73886">
        <ele>2335</ele>
        <time>2026-07-29T07:15:31.716Z</time>
      </trkpt>
      <trkpt lat="45.75705" lon="6.73887">
        <ele>2335</ele>
        <time>2026-07-29T07:15:32.716Z</time>
      </trkpt>
      <trkpt lat="45.75705" lon="6.73888">
        <ele>2335</ele>
        <time>2026-07-29T07:15:33.716Z</time>
      </trkpt>
      <trkpt lat="45.75705" lon="6.73889">
        <ele>2335</ele>
        <time>2026-07-29T07:15:34.716Z</time>
      </trkpt>
      <trkpt lat="45.75705" lon="6.73889">
        <ele>2335</ele>
        <time>2026-07-29T07:15:35.716Z</time>
      </trkpt>
      <trkpt lat="45.75705" lon="6.73891">
        <ele>2335</ele>
        <time>2026-07-29T07:15:36.716Z</time>
      </trkpt>
      <trkpt lat="45.75706" lon="6.73892">
        <ele>2335</ele>
        <time>2026-07-29T07:15:37.716Z</time>
      </trkpt>
      <trkpt lat="45.75706" lon="6.73893">
        <ele>2335</ele>
        <time>2026-07-29T07:15:38.716Z</time>
      </trkpt>
      <trkpt lat="45.75706" lon="6.73894">
        <ele>2335</ele>
        <time>2026-07-29T07:15:39.716Z</time>
      </trkpt>
      <trkpt lat="45.75707" lon="6.73895">
        <ele>2336</ele>
        <time>2026-07-29T07:15:40.716Z</time>
      </trkpt>
      <trkpt lat="45.75707" lon="6.73896">
        <ele>2336</ele>
        <time>2026-07-29T07:15:41.716Z</time>
      </trkpt>
      <trkpt lat="45.75708" lon="6.73897">
        <ele>2336</ele>
        <time>2026-07-29T07:15:42.716Z</time>
      </trkpt>
      <trkpt lat="45.75708" lon="6.73898">
        <ele>2336</ele>
        <time>2026-07-29T07:15:43.716Z</time>
      </trkpt>
      <trkpt lat="45.75708" lon="6.73899">
        <ele>2336</ele>
        <time>2026-07-29T07:15:44.716Z</time>
      </trkpt>
      <trkpt lat="45.75708" lon="6.739">
        <ele>2337</ele>
        <time>2026-07-29T07:15:45.716Z</time>
      </trkpt>
      <trkpt lat="45.75709" lon="6.73901">
        <ele>2337</ele>
        <time>2026-07-29T07:15:46.716Z</time>
      </trkpt>
      <trkpt lat="45.75709" lon="6.73902">
        <ele>2338</ele>
        <time>2026-07-29T07:15:47.716Z</time>
      </trkpt>
      <trkpt lat="45.75709" lon="6.73903">
        <ele>2338</ele>
        <time>2026-07-29T07:15:48.716Z</time>
      </trkpt>
      <trkpt lat="45.75709" lon="6.73904">
        <ele>2338</ele>
        <time>2026-07-29T07:15:49.716Z</time>
      </trkpt>
      <trkpt lat="45.7571" lon="6.73906">
        <ele>2338</ele>
        <time>2026-07-29T07:15:50.716Z</time>
      </trkpt>
      <trkpt lat="45.7571" lon="6.73907">
        <ele>2338</ele>
        <time>2026-07-29T07:15:51.716Z</time>
      </trkpt>
      <trkpt lat="45.75711" lon="6.73908">
        <ele>2338</ele>
        <time>2026-07-29T07:15:52.716Z</time>
      </trkpt>
      <trkpt lat="45.75711" lon="6.73908">
        <ele>2339</ele>
        <time>2026-07-29T07:15:53.716Z</time>
      </trkpt>
      <trkpt lat="45.75712" lon="6.73909">
        <ele>2339</ele>
        <time>2026-07-29T07:15:54.716Z</time>
      </trkpt>
      <trkpt lat="45.75712" lon="6.7391">
        <ele>2339</ele>
        <time>2026-07-29T07:15:55.716Z</time>
      </trkpt>
      <trkpt lat="45.75713" lon="6.73911">
        <ele>2339</ele>
        <time>2026-07-29T07:15:56.716Z</time>
      </trkpt>
      <trkpt lat="45.75712" lon="6.73913">
        <ele>2339</ele>
        <time>2026-07-29T07:15:57.716Z</time>
      </trkpt>
      <trkpt lat="45.75712" lon="6.73914">
        <ele>2339</ele>
        <time>2026-07-29T07:15:58.716Z</time>
      </trkpt>
      <trkpt lat="45.75712" lon="6.73915">
        <ele>2339</ele>
        <time>2026-07-29T07:15:59.716Z</time>
      </trkpt>
      <trkpt lat="45.75713" lon="6.73916">
        <ele>2340</ele>
        <time>2026-07-29T07:16:00.716Z</time>
      </trkpt>
      <trkpt lat="45.75713" lon="6.73917">
        <ele>2340</ele>
        <time>2026-07-29T07:16:01.716Z</time>
      </trkpt>
      <trkpt lat="45.75713" lon="6.73918">
        <ele>2340</ele>
        <time>2026-07-29T07:16:02.716Z</time>
      </trkpt>
      <trkpt lat="45.75714" lon="6.73919">
        <ele>2340</ele>
        <time>2026-07-29T07:16:03.716Z</time>
      </trkpt>
      <trkpt lat="45.75714" lon="6.7392">
        <ele>2340</ele>
        <time>2026-07-29T07:16:04.716Z</time>
      </trkpt>
      <trkpt lat="45.75715" lon="6.73922">
        <ele>2340</ele>
        <time>2026-07-29T07:16:05.716Z</time>
      </trkpt>
      <trkpt lat="45.75715" lon="6.73923">
        <ele>2340</ele>
        <time>2026-07-29T07:16:06.716Z</time>
      </trkpt>
      <trkpt lat="45.75715" lon="6.73925">
        <ele>2340</ele>
        <time>2026-07-29T07:16:07.716Z</time>
      </trkpt>
      <trkpt lat="45.75715" lon="6.73926">
        <ele>2340</ele>
        <time>2026-07-29T07:16:08.716Z</time>
      </trkpt>
      <trkpt lat="45.75715" lon="6.73927">
        <ele>2340</ele>
        <time>2026-07-29T07:16:09.716Z</time>
      </trkpt>
      <trkpt lat="45.75715" lon="6.73928">
        <ele>2340</ele>
        <time>2026-07-29T07:16:10.716Z</time>
      </trkpt>
      <trkpt lat="45.75715" lon="6.7393">
        <ele>2340</ele>
        <time>2026-07-29T07:16:11.716Z</time>
      </trkpt>
      <trkpt lat="45.75716" lon="6.73931">
        <ele>2340</ele>
        <time>2026-07-29T07:16:12.716Z</time>
      </trkpt>
      <trkpt lat="45.75716" lon="6.73932">
        <ele>2340</ele>
        <time>2026-07-29T07:16:13.716Z</time>
      </trkpt>
      <trkpt lat="45.75717" lon="6.73933">
        <ele>2340</ele>
        <time>2026-07-29T07:16:14.716Z</time>
      </trkpt>
      <trkpt lat="45.75718" lon="6.73934">
        <ele>2340</ele>
        <time>2026-07-29T07:16:15.716Z</time>
      </trkpt>
      <trkpt lat="45.75719" lon="6.73935">
        <ele>2341</ele>
        <time>2026-07-29T07:16:16.716Z</time>
      </trkpt>
      <trkpt lat="45.75719" lon="6.73936">
        <ele>2341</ele>
        <time>2026-07-29T07:16:17.716Z</time>
      </trkpt>
      <trkpt lat="45.75719" lon="6.73937">
        <ele>2342</ele>
        <time>2026-07-29T07:16:18.716Z</time>
      </trkpt>
      <trkpt lat="45.75719" lon="6.73939">
        <ele>2342</ele>
        <time>2026-07-29T07:16:19.716Z</time>
      </trkpt>
      <trkpt lat="45.75719" lon="6.7394">
        <ele>2343</ele>
        <time>2026-07-29T07:16:20.716Z</time>
      </trkpt>
      <trkpt lat="45.75719" lon="6.73941">
        <ele>2343</ele>
        <time>2026-07-29T07:16:21.716Z</time>
      </trkpt>
      <trkpt lat="45.7572" lon="6.73942">
        <ele>2343</ele>
        <time>2026-07-29T07:16:22.716Z</time>
      </trkpt>
      <trkpt lat="45.7572" lon="6.73944">
        <ele>2343</ele>
        <time>2026-07-29T07:16:23.716Z</time>
      </trkpt>
      <trkpt lat="45.75721" lon="6.73945">
        <ele>2344</ele>
        <time>2026-07-29T07:16:24.716Z</time>
      </trkpt>
      <trkpt lat="45.75721" lon="6.73946">
        <ele>2344</ele>
        <time>2026-07-29T07:16:25.716Z</time>
      </trkpt>
      <trkpt lat="45.75721" lon="6.73948">
        <ele>2344</ele>
        <time>2026-07-29T07:16:26.716Z</time>
      </trkpt>
      <trkpt lat="45.75722" lon="6.73949">
        <ele>2345</ele>
        <time>2026-07-29T07:16:27.716Z</time>
      </trkpt>
      <trkpt lat="45.75722" lon="6.73951">
        <ele>2345</ele>
        <time>2026-07-29T07:16:28.716Z</time>
      </trkpt>
      <trkpt lat="45.75722" lon="6.73952">
        <ele>2345</ele>
        <time>2026-07-29T07:16:29.716Z</time>
      </trkpt>
      <trkpt lat="45.75722" lon="6.73953">
        <ele>2345</ele>
        <time>2026-07-29T07:16:30.716Z</time>
      </trkpt>
      <trkpt lat="45.75722" lon="6.73955">
        <ele>2345</ele>
        <time>2026-07-29T07:16:31.716Z</time>
      </trkpt>
      <trkpt lat="45.75723" lon="6.73956">
        <ele>2345</ele>
        <time>2026-07-29T07:16:32.716Z</time>
      </trkpt>
      <trkpt lat="45.75723" lon="6.73958">
        <ele>2345</ele>
        <time>2026-07-29T07:16:33.716Z</time>
      </trkpt>
      <trkpt lat="45.75724" lon="6.73959">
        <ele>2345</ele>
        <time>2026-07-29T07:16:34.716Z</time>
      </trkpt>
      <trkpt lat="45.75724" lon="6.73961">
        <ele>2345</ele>
        <time>2026-07-29T07:16:35.716Z</time>
      </trkpt>
      <trkpt lat="45.75725" lon="6.73963">
        <ele>2346</ele>
        <time>2026-07-29T07:16:36.716Z</time>
      </trkpt>
      <trkpt lat="45.75725" lon="6.73965">
        <ele>2346</ele>
        <time>2026-07-29T07:16:37.716Z</time>
      </trkpt>
      <trkpt lat="45.75725" lon="6.73966">
        <ele>2346</ele>
        <time>2026-07-29T07:16:38.716Z</time>
      </trkpt>
      <trkpt lat="45.75725" lon="6.73968">
        <ele>2347</ele>
        <time>2026-07-29T07:16:39.716Z</time>
      </trkpt>
      <trkpt lat="45.75725" lon="6.7397">
        <ele>2347</ele>
        <time>2026-07-29T07:16:40.716Z</time>
      </trkpt>
      <trkpt lat="45.75725" lon="6.73972">
        <ele>2347</ele>
        <time>2026-07-29T07:16:41.716Z</time>
      </trkpt>
      <trkpt lat="45.75725" lon="6.73973">
        <ele>2347</ele>
        <time>2026-07-29T07:16:42.716Z</time>
      </trkpt>
      <trkpt lat="45.75724" lon="6.73975">
        <ele>2347</ele>
        <time>2026-07-29T07:16:43.716Z</time>
      </trkpt>
      <trkpt lat="45.75724" lon="6.73977">
        <ele>2347</ele>
        <time>2026-07-29T07:16:44.716Z</time>
      </trkpt>
      <trkpt lat="45.75724" lon="6.73978">
        <ele>2347</ele>
        <time>2026-07-29T07:16:45.716Z</time>
      </trkpt>
      <trkpt lat="45.75724" lon="6.73979">
        <ele>2347</ele>
        <time>2026-07-29T07:16:46.716Z</time>
      </trkpt>
      <trkpt lat="45.75724" lon="6.73981">
        <ele>2347</ele>
        <time>2026-07-29T07:16:47.716Z</time>
      </trkpt>
      <trkpt lat="45.75724" lon="6.73982">
        <ele>2347</ele>
        <time>2026-07-29T07:16:48.716Z</time>
      </trkpt>
      <trkpt lat="45.75724" lon="6.73983">
        <ele>2347</ele>
        <time>2026-07-29T07:16:49.716Z</time>
      </trkpt>
      <trkpt lat="45.75723" lon="6.73984">
        <ele>2348</ele>
        <time>2026-07-29T07:16:50.716Z</time>
      </trkpt>
      <trkpt lat="45.75723" lon="6.73984">
        <ele>2347</ele>
        <time>2026-07-29T07:16:51.716Z</time>
      </trkpt>
      <trkpt lat="45.75723" lon="6.73984">
        <ele>2347</ele>
        <time>2026-07-29T07:16:52.716Z</time>
      </trkpt>
      <trkpt lat="45.75723" lon="6.73984">
        <ele>2347</ele>
        <time>2026-07-29T07:16:53.716Z</time>
      </trkpt>
      <trkpt lat="45.75723" lon="6.73984">
        <ele>2347</ele>
        <time>2026-07-29T07:16:54.716Z</time>
      </trkpt>
      <trkpt lat="45.75723" lon="6.73984">
        <ele>2346</ele>
        <time>2026-07-29T07:16:55.716Z</time>
      </trkpt>
      <trkpt lat="45.75723" lon="6.73984">
        <ele>2346</ele>
        <time>2026-07-29T07:16:56.716Z</time>
      </trkpt>
      <trkpt lat="45.75723" lon="6.73984">
        <ele>2346</ele>
        <time>2026-07-29T07:16:57.716Z</time>
      </trkpt>
      <trkpt lat="45.75723" lon="6.73984">
        <ele>2346</ele>
        <time>2026-07-29T07:16:58.716Z</time>
      </trkpt>
      <trkpt lat="45.75723" lon="6.73984">
        <ele>2346</ele>
        <time>2026-07-29T07:16:59.716Z</time>
      </trkpt>
      <trkpt lat="45.75723" lon="6.73984">
        <ele>2347</ele>
        <time>2026-07-29T07:17:00.716Z</time>
      </trkpt>
      <trkpt lat="45.75723" lon="6.73984">
        <ele>2347</ele>
        <time>2026-07-29T07:17:01.716Z</time>
      </trkpt>
      <trkpt lat="45.75723" lon="6.73984">
        <ele>2347</ele>
        <time>2026-07-29T07:17:02.716Z</time>
      </trkpt>
      <trkpt lat="45.75723" lon="6.73984">
        <ele>2347</ele>
        <time>2026-07-29T07:17:03.716Z</time>
      </trkpt>
      <trkpt lat="45.75723" lon="6.73984">
        <ele>2347</ele>
        <time>2026-07-29T07:17:04.716Z</time>
      </trkpt>
      <trkpt lat="45.75723" lon="6.73984">
        <ele>2348</ele>
        <time>2026-07-29T07:17:05.716Z</time>
      </trkpt>
      <trkpt lat="45.75723" lon="6.73984">
        <ele>2348</ele>
        <time>2026-07-29T07:17:06.716Z</time>
      </trkpt>
      <trkpt lat="45.75723" lon="6.73984">
        <ele>2348</ele>
        <time>2026-07-29T07:17:07.716Z</time>
      </trkpt>
      <trkpt lat="45.75723" lon="6.73984">
        <ele>2348</ele>
        <time>2026-07-29T07:17:08.716Z</time>
      </trkpt>
      <trkpt lat="45.75723" lon="6.73984">
        <ele>2348</ele>
        <time>2026-07-29T07:17:09.716Z</time>
      </trkpt>
      <trkpt lat="45.75723" lon="6.73984">
        <ele>2348</ele>
        <time>2026-07-29T07:17:10.716Z</time>
      </trkpt>
      <trkpt lat="45.75723" lon="6.73984">
        <ele>2348</ele>
        <time>2026-07-29T07:17:11.716Z</time>
      </trkpt>
      <trkpt lat="45.75723" lon="6.73984">
        <ele>2348</ele>
        <time>2026-07-29T07:17:12.716Z</time>
      </trkpt>
      <trkpt lat="45.75723" lon="6.73984">
        <ele>2348</ele>
        <time>2026-07-29T07:17:13.716Z</time>
      </trkpt>
      <trkpt lat="45.75723" lon="6.73984">
        <ele>2349</ele>
        <time>2026-07-29T07:17:14.716Z</time>
      </trkpt>
      <trkpt lat="45.75723" lon="6.73984">
        <ele>2349</ele>
        <time>2026-07-29T07:17:15.716Z</time>
      </trkpt>
      <trkpt lat="45.75723" lon="6.73984">
        <ele>2349</ele>
        <time>2026-07-29T07:17:16.716Z</time>
      </trkpt>
      <trkpt lat="45.75723" lon="6.73984">
        <ele>2349</ele>
        <time>2026-07-29T07:17:17.716Z</time>
      </trkpt>
      <trkpt lat="45.75723" lon="6.73984">
        <ele>2349</ele>
        <time>2026-07-29T07:17:18.716Z</time>
      </trkpt>
      <trkpt lat="45.75723" lon="6.73984">
        <ele>2349</ele>
        <time>2026-07-29T07:17:19.716Z</time>
      </trkpt>
      <trkpt lat="45.75723" lon="6.73984">
        <ele>2349</ele>
        <time>2026-07-29T07:17:20.716Z</time>
      </trkpt>
      <trkpt lat="45.75723" lon="6.73984">
        <ele>2349</ele>
        <time>2026-07-29T07:17:21.716Z</time>
      </trkpt>
      <trkpt lat="45.75723" lon="6.73984">
        <ele>2349</ele>
        <time>2026-07-29T07:17:22.716Z</time>
      </trkpt>
      <trkpt lat="45.75722" lon="6.73984">
        <ele>2349</ele>
        <time>2026-07-29T07:17:23.716Z</time>
      </trkpt>
      <trkpt lat="45.75722" lon="6.73984">
        <ele>2349</ele>
        <time>2026-07-29T07:17:24.716Z</time>
      </trkpt>
      <trkpt lat="45.75722" lon="6.73984">
        <ele>2349</ele>
        <time>2026-07-29T07:17:25.716Z</time>
      </trkpt>
      <trkpt lat="45.75722" lon="6.73984">
        <ele>2349</ele>
        <time>2026-07-29T07:17:26.716Z</time>
      </trkpt>
      <trkpt lat="45.75722" lon="6.73984">
        <ele>2349</ele>
        <time>2026-07-29T07:17:27.716Z</time>
      </trkpt>
      <trkpt lat="45.75722" lon="6.73984">
        <ele>2349</ele>
        <time>2026-07-29T07:17:28.716Z</time>
      </trkpt>
      <trkpt lat="45.75722" lon="6.73984">
        <ele>2349</ele>
        <time>2026-07-29T07:17:29.716Z</time>
      </trkpt>
      <trkpt lat="45.75722" lon="6.73984">
        <ele>2349</ele>
        <time>2026-07-29T07:17:30.716Z</time>
      </trkpt>
      <trkpt lat="45.75722" lon="6.73984">
        <ele>2349</ele>
        <time>2026-07-29T07:17:31.716Z</time>
      </trkpt>
      <trkpt lat="45.75722" lon="6.73984">
        <ele>2349</ele>
        <time>2026-07-29T07:17:32.716Z</time>
      </trkpt>
      <trkpt lat="45.75722" lon="6.73985">
        <ele>2349</ele>
        <time>2026-07-29T07:17:33.716Z</time>
      </trkpt>
      <trkpt lat="45.75722" lon="6.73986">
        <ele>2349</ele>
        <time>2026-07-29T07:17:34.716Z</time>
      </trkpt>
      <trkpt lat="45.75722" lon="6.73986">
        <ele>2349</ele>
        <time>2026-07-29T07:17:35.716Z</time>
      </trkpt>
      <trkpt lat="45.75722" lon="6.73986">
        <ele>2349</ele>
        <time>2026-07-29T07:17:36.716Z</time>
      </trkpt>
      <trkpt lat="45.75722" lon="6.73986">
        <ele>2349</ele>
        <time>2026-07-29T07:17:37.716Z</time>
      </trkpt>
      <trkpt lat="45.75722" lon="6.73987">
        <ele>2349</ele>
        <time>2026-07-29T07:17:38.716Z</time>
      </trkpt>
      <trkpt lat="45.75722" lon="6.73987">
        <ele>2349</ele>
        <time>2026-07-29T07:17:39.716Z</time>
      </trkpt>
      <trkpt lat="45.75722" lon="6.73987">
        <ele>2349</ele>
        <time>2026-07-29T07:17:40.716Z</time>
      </trkpt>
      <trkpt lat="45.75722" lon="6.73987">
        <ele>2349</ele>
        <time>2026-07-29T07:17:41.716Z</time>
      </trkpt>
      <trkpt lat="45.75722" lon="6.73987">
        <ele>2349</ele>
        <time>2026-07-29T07:17:42.716Z</time>
      </trkpt>
      <trkpt lat="45.75722" lon="6.73987">
        <ele>2349</ele>
        <time>2026-07-29T07:17:43.716Z</time>
      </trkpt>
      <trkpt lat="45.75722" lon="6.73987">
        <ele>2349</ele>
        <time>2026-07-29T07:17:44.716Z</time>
      </trkpt>
      <trkpt lat="45.75722" lon="6.73987">
        <ele>2350</ele>
        <time>2026-07-29T07:17:45.716Z</time>
      </trkpt>
      <trkpt lat="45.75722" lon="6.73987">
        <ele>2350</ele>
        <time>2026-07-29T07:17:46.716Z</time>
      </trkpt>
      <trkpt lat="45.75722" lon="6.73987">
        <ele>2350</ele>
        <time>2026-07-29T07:17:47.716Z</time>
      </trkpt>
      <trkpt lat="45.75722" lon="6.73987">
        <ele>2350</ele>
        <time>2026-07-29T07:17:48.716Z</time>
      </trkpt>
      <trkpt lat="45.75722" lon="6.73987">
        <ele>2350</ele>
        <time>2026-07-29T07:17:49.716Z</time>
      </trkpt>
      <trkpt lat="45.75722" lon="6.73988">
        <ele>2350</ele>
        <time>2026-07-29T07:17:50.716Z</time>
      </trkpt>
      <trkpt lat="45.75722" lon="6.73988">
        <ele>2350</ele>
        <time>2026-07-29T07:17:51.716Z</time>
      </trkpt>
      <trkpt lat="45.75722" lon="6.73989">
        <ele>2350</ele>
        <time>2026-07-29T07:17:52.716Z</time>
      </trkpt>
      <trkpt lat="45.75722" lon="6.73991">
        <ele>2350</ele>
        <time>2026-07-29T07:17:53.716Z</time>
      </trkpt>
      <trkpt lat="45.75722" lon="6.73993">
        <ele>2350</ele>
        <time>2026-07-29T07:17:54.716Z</time>
      </trkpt>
      <trkpt lat="45.75723" lon="6.73995">
        <ele>2350</ele>
        <time>2026-07-29T07:17:55.716Z</time>
      </trkpt>
      <trkpt lat="45.75723" lon="6.73998">
        <ele>2350</ele>
        <time>2026-07-29T07:17:56.716Z</time>
      </trkpt>
      <trkpt lat="45.75724" lon="6.74">
        <ele>2350</ele>
        <time>2026-07-29T07:17:57.716Z</time>
      </trkpt>
      <trkpt lat="45.75724" lon="6.74002">
        <ele>2350</ele>
        <time>2026-07-29T07:17:58.716Z</time>
      </trkpt>
      <trkpt lat="45.75725" lon="6.74004">
        <ele>2350</ele>
        <time>2026-07-29T07:17:59.716Z</time>
      </trkpt>
      <trkpt lat="45.75725" lon="6.74006">
        <ele>2351</ele>
        <time>2026-07-29T07:18:00.716Z</time>
      </trkpt>
      <trkpt lat="45.75726" lon="6.74008">
        <ele>2351</ele>
        <time>2026-07-29T07:18:01.716Z</time>
      </trkpt>
      <trkpt lat="45.75727" lon="6.74009">
        <ele>2351</ele>
        <time>2026-07-29T07:18:02.716Z</time>
      </trkpt>
      <trkpt lat="45.75728" lon="6.74011">
        <ele>2351</ele>
        <time>2026-07-29T07:18:03.716Z</time>
      </trkpt>
      <trkpt lat="45.75728" lon="6.74012">
        <ele>2351</ele>
        <time>2026-07-29T07:18:04.716Z</time>
      </trkpt>
      <trkpt lat="45.75729" lon="6.74014">
        <ele>2352</ele>
        <time>2026-07-29T07:18:05.716Z</time>
      </trkpt>
      <trkpt lat="45.75729" lon="6.74015">
        <ele>2352</ele>
        <time>2026-07-29T07:18:06.716Z</time>
      </trkpt>
      <trkpt lat="45.7573" lon="6.74016">
        <ele>2352</ele>
        <time>2026-07-29T07:18:07.716Z</time>
      </trkpt>
      <trkpt lat="45.7573" lon="6.74017">
        <ele>2352</ele>
        <time>2026-07-29T07:18:08.716Z</time>
      </trkpt>
      <trkpt lat="45.75731" lon="6.74019">
        <ele>2353</ele>
        <time>2026-07-29T07:18:09.716Z</time>
      </trkpt>
      <trkpt lat="45.75731" lon="6.7402">
        <ele>2353</ele>
        <time>2026-07-29T07:18:10.716Z</time>
      </trkpt>
      <trkpt lat="45.75732" lon="6.74022">
        <ele>2353</ele>
        <time>2026-07-29T07:18:11.716Z</time>
      </trkpt>
      <trkpt lat="45.75732" lon="6.74023">
        <ele>2353</ele>
        <time>2026-07-29T07:18:12.716Z</time>
      </trkpt>
      <trkpt lat="45.75733" lon="6.74025">
        <ele>2353</ele>
        <time>2026-07-29T07:18:13.716Z</time>
      </trkpt>
      <trkpt lat="45.75734" lon="6.74026">
        <ele>2354</ele>
        <time>2026-07-29T07:18:14.716Z</time>
      </trkpt>
      <trkpt lat="45.75735" lon="6.74027">
        <ele>2354</ele>
        <time>2026-07-29T07:18:15.716Z</time>
      </trkpt>
      <trkpt lat="45.75735" lon="6.74029">
        <ele>2354</ele>
        <time>2026-07-29T07:18:16.716Z</time>
      </trkpt>
      <trkpt lat="45.75736" lon="6.7403">
        <ele>2354</ele>
        <time>2026-07-29T07:18:17.716Z</time>
      </trkpt>
      <trkpt lat="45.75736" lon="6.74031">
        <ele>2354</ele>
        <time>2026-07-29T07:18:18.716Z</time>
      </trkpt>
      <trkpt lat="45.75736" lon="6.74032">
        <ele>2354</ele>
        <time>2026-07-29T07:18:19.716Z</time>
      </trkpt>
      <trkpt lat="45.75737" lon="6.74033">
        <ele>2354</ele>
        <time>2026-07-29T07:18:20.716Z</time>
      </trkpt>
      <trkpt lat="45.75737" lon="6.74034">
        <ele>2354</ele>
        <time>2026-07-29T07:18:21.716Z</time>
      </trkpt>
      <trkpt lat="45.75738" lon="6.74036">
        <ele>2355</ele>
        <time>2026-07-29T07:18:22.716Z</time>
      </trkpt>
      <trkpt lat="45.75739" lon="6.74037">
        <ele>2355</ele>
        <time>2026-07-29T07:18:23.716Z</time>
      </trkpt>
      <trkpt lat="45.75739" lon="6.74038">
        <ele>2356</ele>
        <time>2026-07-29T07:18:24.716Z</time>
      </trkpt>
      <trkpt lat="45.75739" lon="6.74039">
        <ele>2356</ele>
        <time>2026-07-29T07:18:25.716Z</time>
      </trkpt>
      <trkpt lat="45.7574" lon="6.7404">
        <ele>2356</ele>
        <time>2026-07-29T07:18:26.716Z</time>
      </trkpt>
      <trkpt lat="45.7574" lon="6.7404">
        <ele>2357</ele>
        <time>2026-07-29T07:18:27.716Z</time>
      </trkpt>
      <trkpt lat="45.75741" lon="6.74041">
        <ele>2357</ele>
        <time>2026-07-29T07:18:28.716Z</time>
      </trkpt>
      <trkpt lat="45.75741" lon="6.74042">
        <ele>2357</ele>
        <time>2026-07-29T07:18:29.716Z</time>
      </trkpt>
      <trkpt lat="45.75741" lon="6.74043">
        <ele>2357</ele>
        <time>2026-07-29T07:18:30.716Z</time>
      </trkpt>
      <trkpt lat="45.75742" lon="6.74043">
        <ele>2358</ele>
        <time>2026-07-29T07:18:31.716Z</time>
      </trkpt>
      <trkpt lat="45.75742" lon="6.74044">
        <ele>2358</ele>
        <time>2026-07-29T07:18:32.716Z</time>
      </trkpt>
      <trkpt lat="45.75742" lon="6.74045">
        <ele>2358</ele>
        <time>2026-07-29T07:18:33.716Z</time>
      </trkpt>
      <trkpt lat="45.75741" lon="6.74045">
        <ele>2358</ele>
        <time>2026-07-29T07:18:34.716Z</time>
      </trkpt>
      <trkpt lat="45.75741" lon="6.74046">
        <ele>2359</ele>
        <time>2026-07-29T07:18:35.716Z</time>
      </trkpt>
      <trkpt lat="45.75742" lon="6.74047">
        <ele>2359</ele>
        <time>2026-07-29T07:18:36.716Z</time>
      </trkpt>
      <trkpt lat="45.75742" lon="6.74047">
        <ele>2359</ele>
        <time>2026-07-29T07:18:37.716Z</time>
      </trkpt>
      <trkpt lat="45.75742" lon="6.74048">
        <ele>2359</ele>
        <time>2026-07-29T07:18:38.716Z</time>
      </trkpt>
      <trkpt lat="45.75742" lon="6.74048">
        <ele>2359</ele>
        <time>2026-07-29T07:18:39.716Z</time>
      </trkpt>
      <trkpt lat="45.75742" lon="6.74049">
        <ele>2360</ele>
        <time>2026-07-29T07:18:40.716Z</time>
      </trkpt>
      <trkpt lat="45.75742" lon="6.74049">
        <ele>2360</ele>
        <time>2026-07-29T07:18:41.716Z</time>
      </trkpt>
      <trkpt lat="45.75742" lon="6.7405">
        <ele>2360</ele>
        <time>2026-07-29T07:18:42.716Z</time>
      </trkpt>
      <trkpt lat="45.75743" lon="6.74051">
        <ele>2360</ele>
        <time>2026-07-29T07:18:43.716Z</time>
      </trkpt>
      <trkpt lat="45.75742" lon="6.74052">
        <ele>2360</ele>
        <time>2026-07-29T07:18:44.716Z</time>
      </trkpt>
      <trkpt lat="45.75742" lon="6.74052">
        <ele>2360</ele>
        <time>2026-07-29T07:18:45.716Z</time>
      </trkpt>
      <trkpt lat="45.75741" lon="6.74053">
        <ele>2360</ele>
        <time>2026-07-29T07:18:46.716Z</time>
      </trkpt>
      <trkpt lat="45.7574" lon="6.74053">
        <ele>2360</ele>
        <time>2026-07-29T07:18:47.716Z</time>
      </trkpt>
      <trkpt lat="45.7574" lon="6.74053">
        <ele>2361</ele>
        <time>2026-07-29T07:18:48.716Z</time>
      </trkpt>
      <trkpt lat="45.75739" lon="6.74053">
        <ele>2361</ele>
        <time>2026-07-29T07:18:49.716Z</time>
      </trkpt>
      <trkpt lat="45.75739" lon="6.74053">
        <ele>2362</ele>
        <time>2026-07-29T07:18:50.716Z</time>
      </trkpt>
      <trkpt lat="45.75738" lon="6.74052">
        <ele>2363</ele>
        <time>2026-07-29T07:18:51.716Z</time>
      </trkpt>
      <trkpt lat="45.75737" lon="6.74053">
        <ele>2364</ele>
        <time>2026-07-29T07:18:52.716Z</time>
      </trkpt>
      <trkpt lat="45.75736" lon="6.74053">
        <ele>2364</ele>
        <time>2026-07-29T07:18:53.716Z</time>
      </trkpt>
      <trkpt lat="45.75736" lon="6.74053">
        <ele>2365</ele>
        <time>2026-07-29T07:18:54.716Z</time>
      </trkpt>
      <trkpt lat="45.75736" lon="6.74053">
        <ele>2365</ele>
        <time>2026-07-29T07:18:55.716Z</time>
      </trkpt>
      <trkpt lat="45.75735" lon="6.74053">
        <ele>2366</ele>
        <time>2026-07-29T07:18:56.716Z</time>
      </trkpt>
      <trkpt lat="45.75735" lon="6.74053">
        <ele>2367</ele>
        <time>2026-07-29T07:18:57.716Z</time>
      </trkpt>
      <trkpt lat="45.75734" lon="6.74053">
        <ele>2367</ele>
        <time>2026-07-29T07:18:58.716Z</time>
      </trkpt>
      <trkpt lat="45.75734" lon="6.74054">
        <ele>2368</ele>
        <time>2026-07-29T07:18:59.716Z</time>
      </trkpt>
      <trkpt lat="45.75734" lon="6.74054">
        <ele>2368</ele>
        <time>2026-07-29T07:19:00.716Z</time>
      </trkpt>
      <trkpt lat="45.75733" lon="6.74054">
        <ele>2369</ele>
        <time>2026-07-29T07:19:01.716Z</time>
      </trkpt>
      <trkpt lat="45.75733" lon="6.74054">
        <ele>2369</ele>
        <time>2026-07-29T07:19:02.716Z</time>
      </trkpt>
      <trkpt lat="45.75733" lon="6.74055">
        <ele>2370</ele>
        <time>2026-07-29T07:19:03.716Z</time>
      </trkpt>
      <trkpt lat="45.75733" lon="6.74055">
        <ele>2370</ele>
        <time>2026-07-29T07:19:04.716Z</time>
      </trkpt>
      <trkpt lat="45.75733" lon="6.74055">
        <ele>2370</ele>
        <time>2026-07-29T07:19:05.716Z</time>
      </trkpt>
      <trkpt lat="45.75732" lon="6.74055">
        <ele>2370</ele>
        <time>2026-07-29T07:19:06.716Z</time>
      </trkpt>
      <trkpt lat="45.75732" lon="6.74055">
        <ele>2370</ele>
        <time>2026-07-29T07:19:07.716Z</time>
      </trkpt>
      <trkpt lat="45.75731" lon="6.74055">
        <ele>2370</ele>
        <time>2026-07-29T07:19:08.716Z</time>
      </trkpt>
      <trkpt lat="45.75731" lon="6.74055">
        <ele>2370</ele>
        <time>2026-07-29T07:19:09.716Z</time>
      </trkpt>
      <trkpt lat="45.7573" lon="6.74055">
        <ele>2370</ele>
        <time>2026-07-29T07:19:10.716Z</time>
      </trkpt>
      <trkpt lat="45.7573" lon="6.74056">
        <ele>2370</ele>
        <time>2026-07-29T07:19:11.716Z</time>
      </trkpt>
      <trkpt lat="45.7573" lon="6.74056">
        <ele>2370</ele>
        <time>2026-07-29T07:19:12.716Z</time>
      </trkpt>
      <trkpt lat="45.75729" lon="6.74057">
        <ele>2370</ele>
        <time>2026-07-29T07:19:13.716Z</time>
      </trkpt>
      <trkpt lat="45.75729" lon="6.74057">
        <ele>2370</ele>
        <time>2026-07-29T07:19:14.716Z</time>
      </trkpt>
      <trkpt lat="45.75728" lon="6.74057">
        <ele>2370</ele>
        <time>2026-07-29T07:19:15.716Z</time>
      </trkpt>
      <trkpt lat="45.75728" lon="6.74057">
        <ele>2370</ele>
        <time>2026-07-29T07:19:16.716Z</time>
      </trkpt>
      <trkpt lat="45.75728" lon="6.74057">
        <ele>2370</ele>
        <time>2026-07-29T07:19:17.716Z</time>
      </trkpt>
      <trkpt lat="45.75727" lon="6.74057">
        <ele>2370</ele>
        <time>2026-07-29T07:19:18.716Z</time>
      </trkpt>
      <trkpt lat="45.75727" lon="6.74058">
        <ele>2370</ele>
        <time>2026-07-29T07:19:19.716Z</time>
      </trkpt>
      <trkpt lat="45.75727" lon="6.74059">
        <ele>2371</ele>
        <time>2026-07-29T07:19:20.716Z</time>
      </trkpt>
      <trkpt lat="45.75726" lon="6.7406">
        <ele>2371</ele>
        <time>2026-07-29T07:19:21.716Z</time>
      </trkpt>
      <trkpt lat="45.75725" lon="6.7406">
        <ele>2371</ele>
        <time>2026-07-29T07:19:22.716Z</time>
      </trkpt>
      <trkpt lat="45.75725" lon="6.74061">
        <ele>2372</ele>
        <time>2026-07-29T07:19:23.716Z</time>
      </trkpt>
      <trkpt lat="45.75724" lon="6.74061">
        <ele>2372</ele>
        <time>2026-07-29T07:19:24.716Z</time>
      </trkpt>
      <trkpt lat="45.75723" lon="6.74061">
        <ele>2372</ele>
        <time>2026-07-29T07:19:25.716Z</time>
      </trkpt>
      <trkpt lat="45.75723" lon="6.74061">
        <ele>2372</ele>
        <time>2026-07-29T07:19:26.716Z</time>
      </trkpt>
      <trkpt lat="45.75723" lon="6.74062">
        <ele>2372</ele>
        <time>2026-07-29T07:19:27.716Z</time>
      </trkpt>
      <trkpt lat="45.75722" lon="6.74063">
        <ele>2372</ele>
        <time>2026-07-29T07:19:28.716Z</time>
      </trkpt>
      <trkpt lat="45.75723" lon="6.74063">
        <ele>2372</ele>
        <time>2026-07-29T07:19:29.716Z</time>
      </trkpt>
      <trkpt lat="45.75723" lon="6.74063">
        <ele>2372</ele>
        <time>2026-07-29T07:19:30.716Z</time>
      </trkpt>
      <trkpt lat="45.75723" lon="6.74064">
        <ele>2373</ele>
        <time>2026-07-29T07:19:31.716Z</time>
      </trkpt>
      <trkpt lat="45.75724" lon="6.74064">
        <ele>2373</ele>
        <time>2026-07-29T07:19:32.716Z</time>
      </trkpt>
      <trkpt lat="45.75724" lon="6.74064">
        <ele>2374</ele>
        <time>2026-07-29T07:19:33.716Z</time>
      </trkpt>
      <trkpt lat="45.75725" lon="6.74065">
        <ele>2374</ele>
        <time>2026-07-29T07:19:34.716Z</time>
      </trkpt>
      <trkpt lat="45.75726" lon="6.74065">
        <ele>2374</ele>
        <time>2026-07-29T07:19:35.716Z</time>
      </trkpt>
      <trkpt lat="45.75726" lon="6.74066">
        <ele>2375</ele>
        <time>2026-07-29T07:19:36.716Z</time>
      </trkpt>
      <trkpt lat="45.75726" lon="6.74067">
        <ele>2375</ele>
        <time>2026-07-29T07:19:37.716Z</time>
      </trkpt>
      <trkpt lat="45.75725" lon="6.74067">
        <ele>2376</ele>
        <time>2026-07-29T07:19:38.716Z</time>
      </trkpt>
      <trkpt lat="45.75725" lon="6.74068">
        <ele>2376</ele>
        <time>2026-07-29T07:19:39.716Z</time>
      </trkpt>
      <trkpt lat="45.75724" lon="6.74068">
        <ele>2376</ele>
        <time>2026-07-29T07:19:40.716Z</time>
      </trkpt>
      <trkpt lat="45.75724" lon="6.74069">
        <ele>2376</ele>
        <time>2026-07-29T07:19:41.716Z</time>
      </trkpt>
      <trkpt lat="45.75724" lon="6.74069">
        <ele>2376</ele>
        <time>2026-07-29T07:19:42.716Z</time>
      </trkpt>
      <trkpt lat="45.75725" lon="6.7407">
        <ele>2377</ele>
        <time>2026-07-29T07:19:43.716Z</time>
      </trkpt>
      <trkpt lat="45.75726" lon="6.7407">
        <ele>2377</ele>
        <time>2026-07-29T07:19:44.716Z</time>
      </trkpt>
      <trkpt lat="45.75726" lon="6.74071">
        <ele>2377</ele>
        <time>2026-07-29T07:19:45.716Z</time>
      </trkpt>
      <trkpt lat="45.75726" lon="6.74071">
        <ele>2378</ele>
        <time>2026-07-29T07:19:46.716Z</time>
      </trkpt>
      <trkpt lat="45.75727" lon="6.74071">
        <ele>2378</ele>
        <time>2026-07-29T07:19:47.716Z</time>
      </trkpt>
      <trkpt lat="45.75727" lon="6.74072">
        <ele>2378</ele>
        <time>2026-07-29T07:19:48.716Z</time>
      </trkpt>
      <trkpt lat="45.75727" lon="6.74072">
        <ele>2378</ele>
        <time>2026-07-29T07:19:49.716Z</time>
      </trkpt>
      <trkpt lat="45.75728" lon="6.74072">
        <ele>2379</ele>
        <time>2026-07-29T07:19:50.716Z</time>
      </trkpt>
      <trkpt lat="45.75728" lon="6.74073">
        <ele>2379</ele>
        <time>2026-07-29T07:19:51.716Z</time>
      </trkpt>
      <trkpt lat="45.75729" lon="6.74073">
        <ele>2379</ele>
        <time>2026-07-29T07:19:52.716Z</time>
      </trkpt>
      <trkpt lat="45.75729" lon="6.74074">
        <ele>2379</ele>
        <time>2026-07-29T07:19:53.716Z</time>
      </trkpt>
      <trkpt lat="45.75729" lon="6.74074">
        <ele>2379</ele>
        <time>2026-07-29T07:19:54.716Z</time>
      </trkpt>
      <trkpt lat="45.75729" lon="6.74075">
        <ele>2380</ele>
        <time>2026-07-29T07:19:55.716Z</time>
      </trkpt>
      <trkpt lat="45.75729" lon="6.74075">
        <ele>2380</ele>
        <time>2026-07-29T07:19:56.716Z</time>
      </trkpt>
      <trkpt lat="45.75728" lon="6.74076">
        <ele>2381</ele>
        <time>2026-07-29T07:19:57.716Z</time>
      </trkpt>
      <trkpt lat="45.75728" lon="6.74076">
        <ele>2381</ele>
        <time>2026-07-29T07:19:58.716Z</time>
      </trkpt>
      <trkpt lat="45.75728" lon="6.74076">
        <ele>2381</ele>
        <time>2026-07-29T07:19:59.716Z</time>
      </trkpt>
      <trkpt lat="45.75727" lon="6.74076">
        <ele>2381</ele>
        <time>2026-07-29T07:20:00.716Z</time>
      </trkpt>
      <trkpt lat="45.75727" lon="6.74076">
        <ele>2382</ele>
        <time>2026-07-29T07:20:01.716Z</time>
      </trkpt>
      <trkpt lat="45.75727" lon="6.74076">
        <ele>2382</ele>
        <time>2026-07-29T07:20:02.716Z</time>
      </trkpt>
      <trkpt lat="45.75727" lon="6.74076">
        <ele>2382</ele>
        <time>2026-07-29T07:20:03.716Z</time>
      </trkpt>
      <trkpt lat="45.75727" lon="6.74076">
        <ele>2382</ele>
        <time>2026-07-29T07:20:04.716Z</time>
      </trkpt>
      <trkpt lat="45.75727" lon="6.74076">
        <ele>2382</ele>
        <time>2026-07-29T07:20:05.716Z</time>
      </trkpt>
      <trkpt lat="45.75727" lon="6.74076">
        <ele>2383</ele>
        <time>2026-07-29T07:20:06.716Z</time>
      </trkpt>
      <trkpt lat="45.75727" lon="6.74076">
        <ele>2383</ele>
        <time>2026-07-29T07:20:07.716Z</time>
      </trkpt>
      <trkpt lat="45.75727" lon="6.74076">
        <ele>2383</ele>
        <time>2026-07-29T07:20:08.716Z</time>
      </trkpt>
      <trkpt lat="45.75727" lon="6.74076">
        <ele>2383</ele>
        <time>2026-07-29T07:20:09.716Z</time>
      </trkpt>
      <trkpt lat="45.75727" lon="6.74076">
        <ele>2383</ele>
        <time>2026-07-29T07:20:10.716Z</time>
      </trkpt>
      <trkpt lat="45.75727" lon="6.74076">
        <ele>2383</ele>
        <time>2026-07-29T07:20:11.716Z</time>
      </trkpt>
      <trkpt lat="45.75727" lon="6.74076">
        <ele>2384</ele>
        <time>2026-07-29T07:20:12.716Z</time>
      </trkpt>
      <trkpt lat="45.75727" lon="6.74076">
        <ele>2384</ele>
        <time>2026-07-29T07:20:13.716Z</time>
      </trkpt>
      <trkpt lat="45.75727" lon="6.74076">
        <ele>2384</ele>
        <time>2026-07-29T07:20:14.716Z</time>
      </trkpt>
      <trkpt lat="45.75727" lon="6.74076">
        <ele>2384</ele>
        <time>2026-07-29T07:20:15.716Z</time>
      </trkpt>
      <trkpt lat="45.75727" lon="6.74076">
        <ele>2384</ele>
        <time>2026-07-29T07:20:16.716Z</time>
      </trkpt>
      <trkpt lat="45.75727" lon="6.74076">
        <ele>2384</ele>
        <time>2026-07-29T07:20:17.716Z</time>
      </trkpt>
      <trkpt lat="45.75727" lon="6.74076">
        <ele>2384</ele>
        <time>2026-07-29T07:20:18.716Z</time>
      </trkpt>
      <trkpt lat="45.75728" lon="6.74077">
        <ele>2384</ele>
        <time>2026-07-29T07:20:19.716Z</time>
      </trkpt>
      <trkpt lat="45.75727" lon="6.74079">
        <ele>2384</ele>
        <time>2026-07-29T07:20:20.716Z</time>
      </trkpt>
      <trkpt lat="45.75727" lon="6.7408">
        <ele>2384</ele>
        <time>2026-07-29T07:20:21.716Z</time>
      </trkpt>
      <trkpt lat="45.75727" lon="6.74082">
        <ele>2384</ele>
        <time>2026-07-29T07:20:22.716Z</time>
      </trkpt>
      <trkpt lat="45.75727" lon="6.74083">
        <ele>2384</ele>
        <time>2026-07-29T07:20:23.716Z</time>
      </trkpt>
      <trkpt lat="45.75727" lon="6.74085">
        <ele>2384</ele>
        <time>2026-07-29T07:20:24.716Z</time>
      </trkpt>
      <trkpt lat="45.75727" lon="6.74087">
        <ele>2384</ele>
        <time>2026-07-29T07:20:25.716Z</time>
      </trkpt>
      <trkpt lat="45.75728" lon="6.74088">
        <ele>2384</ele>
        <time>2026-07-29T07:20:26.716Z</time>
      </trkpt>
      <trkpt lat="45.75728" lon="6.7409">
        <ele>2384</ele>
        <time>2026-07-29T07:20:27.716Z</time>
      </trkpt>
      <trkpt lat="45.75728" lon="6.74092">
        <ele>2384</ele>
        <time>2026-07-29T07:20:28.716Z</time>
      </trkpt>
      <trkpt lat="45.75728" lon="6.74092">
        <ele>2384</ele>
        <time>2026-07-29T07:20:29.716Z</time>
      </trkpt>
      <trkpt lat="45.75728" lon="6.74093">
        <ele>2384</ele>
        <time>2026-07-29T07:20:30.716Z</time>
      </trkpt>
      <trkpt lat="45.75728" lon="6.74093">
        <ele>2384</ele>
        <time>2026-07-29T07:20:31.716Z</time>
      </trkpt>
      <trkpt lat="45.75728" lon="6.74094">
        <ele>2384</ele>
        <time>2026-07-29T07:20:32.716Z</time>
      </trkpt>
      <trkpt lat="45.75728" lon="6.74094">
        <ele>2384</ele>
        <time>2026-07-29T07:20:33.716Z</time>
      </trkpt>
      <trkpt lat="45.75727" lon="6.74094">
        <ele>2385</ele>
        <time>2026-07-29T07:20:34.716Z</time>
      </trkpt>
      <trkpt lat="45.75727" lon="6.74094">
        <ele>2385</ele>
        <time>2026-07-29T07:20:35.716Z</time>
      </trkpt>
      <trkpt lat="45.75726" lon="6.74094">
        <ele>2386</ele>
        <time>2026-07-29T07:20:36.716Z</time>
      </trkpt>
      <trkpt lat="45.75726" lon="6.74094">
        <ele>2386</ele>
        <time>2026-07-29T07:20:37.716Z</time>
      </trkpt>
      <trkpt lat="45.75725" lon="6.74094">
        <ele>2386</ele>
        <time>2026-07-29T07:20:38.716Z</time>
      </trkpt>
      <trkpt lat="45.75725" lon="6.74094">
        <ele>2386</ele>
        <time>2026-07-29T07:20:39.716Z</time>
      </trkpt>
      <trkpt lat="45.75725" lon="6.74094">
        <ele>2387</ele>
        <time>2026-07-29T07:20:40.716Z</time>
      </trkpt>
      <trkpt lat="45.75725" lon="6.74094">
        <ele>2387</ele>
        <time>2026-07-29T07:20:41.716Z</time>
      </trkpt>
      <trkpt lat="45.75725" lon="6.74094">
        <ele>2388</ele>
        <time>2026-07-29T07:20:42.716Z</time>
      </trkpt>
      <trkpt lat="45.75725" lon="6.74094">
        <ele>2388</ele>
        <time>2026-07-29T07:20:43.716Z</time>
      </trkpt>
      <trkpt lat="45.75725" lon="6.74094">
        <ele>2389</ele>
        <time>2026-07-29T07:20:44.716Z</time>
      </trkpt>
      <trkpt lat="45.75725" lon="6.74094">
        <ele>2389</ele>
        <time>2026-07-29T07:20:45.716Z</time>
      </trkpt>
      <trkpt lat="45.75725" lon="6.74094">
        <ele>2389</ele>
        <time>2026-07-29T07:20:46.716Z</time>
      </trkpt>
      <trkpt lat="45.75725" lon="6.74094">
        <ele>2390</ele>
        <time>2026-07-29T07:20:47.716Z</time>
      </trkpt>
      <trkpt lat="45.75725" lon="6.74094">
        <ele>2390</ele>
        <time>2026-07-29T07:20:48.717Z</time>
      </trkpt>
      <trkpt lat="45.75725" lon="6.74094">
        <ele>2390</ele>
        <time>2026-07-29T07:20:49.716Z</time>
      </trkpt>
      <trkpt lat="45.75725" lon="6.74094">
        <ele>2390</ele>
        <time>2026-07-29T07:20:50.716Z</time>
      </trkpt>
      <trkpt lat="45.75725" lon="6.74094">
        <ele>2390</ele>
        <time>2026-07-29T07:20:51.716Z</time>
      </trkpt>
      <trkpt lat="45.75725" lon="6.74094">
        <ele>2390</ele>
        <time>2026-07-29T07:20:52.716Z</time>
      </trkpt>
      <trkpt lat="45.75725" lon="6.74094">
        <ele>2391</ele>
        <time>2026-07-29T07:20:53.716Z</time>
      </trkpt>
      <trkpt lat="45.75725" lon="6.74094">
        <ele>2391</ele>
        <time>2026-07-29T07:20:54.716Z</time>
      </trkpt>
      <trkpt lat="45.75725" lon="6.74094">
        <ele>2391</ele>
        <time>2026-07-29T07:20:55.716Z</time>
      </trkpt>
      <trkpt lat="45.75725" lon="6.74095">
        <ele>2391</ele>
        <time>2026-07-29T07:20:56.716Z</time>
      </trkpt>
      <trkpt lat="45.75725" lon="6.74097">
        <ele>2391</ele>
        <time>2026-07-29T07:20:57.716Z</time>
      </trkpt>
      <trkpt lat="45.75724" lon="6.74099">
        <ele>2391</ele>
        <time>2026-07-29T07:20:58.716Z</time>
      </trkpt>
      <trkpt lat="45.75724" lon="6.74101">
        <ele>2391</ele>
        <time>2026-07-29T07:20:59.716Z</time>
      </trkpt>
      <trkpt lat="45.75724" lon="6.74103">
        <ele>2391</ele>
        <time>2026-07-29T07:21:00.716Z</time>
      </trkpt>
      <trkpt lat="45.75724" lon="6.74105">
        <ele>2392</ele>
        <time>2026-07-29T07:21:01.716Z</time>
      </trkpt>
      <trkpt lat="45.75723" lon="6.74107">
        <ele>2392</ele>
        <time>2026-07-29T07:21:02.716Z</time>
      </trkpt>
      <trkpt lat="45.75723" lon="6.74108">
        <ele>2392</ele>
        <time>2026-07-29T07:21:03.716Z</time>
      </trkpt>
      <trkpt lat="45.75723" lon="6.7411">
        <ele>2393</ele>
        <time>2026-07-29T07:21:04.716Z</time>
      </trkpt>
      <trkpt lat="45.75723" lon="6.74111">
        <ele>2393</ele>
        <time>2026-07-29T07:21:05.716Z</time>
      </trkpt>
      <trkpt lat="45.75723" lon="6.74112">
        <ele>2393</ele>
        <time>2026-07-29T07:21:06.716Z</time>
      </trkpt>
      <trkpt lat="45.75723" lon="6.74112">
        <ele>2394</ele>
        <time>2026-07-29T07:21:07.716Z</time>
      </trkpt>
      <trkpt lat="45.75722" lon="6.74112">
        <ele>2394</ele>
        <time>2026-07-29T07:21:08.716Z</time>
      </trkpt>
      <trkpt lat="45.75722" lon="6.74112">
        <ele>2394</ele>
        <time>2026-07-29T07:21:09.716Z</time>
      </trkpt>
      <trkpt lat="45.75722" lon="6.74112">
        <ele>2395</ele>
        <time>2026-07-29T07:21:10.716Z</time>
      </trkpt>
      <trkpt lat="45.75722" lon="6.74113">
        <ele>2395</ele>
        <time>2026-07-29T07:21:11.716Z</time>
      </trkpt>
      <trkpt lat="45.75721" lon="6.74113">
        <ele>2395</ele>
        <time>2026-07-29T07:21:12.716Z</time>
      </trkpt>
      <trkpt lat="45.75721" lon="6.74113">
        <ele>2395</ele>
        <time>2026-07-29T07:21:13.716Z</time>
      </trkpt>
      <trkpt lat="45.75721" lon="6.74113">
        <ele>2395</ele>
        <time>2026-07-29T07:21:14.716Z</time>
      </trkpt>
      <trkpt lat="45.75721" lon="6.74114">
        <ele>2396</ele>
        <time>2026-07-29T07:21:15.716Z</time>
      </trkpt>
      <trkpt lat="45.75721" lon="6.74114">
        <ele>2396</ele>
        <time>2026-07-29T07:21:16.716Z</time>
      </trkpt>
      <trkpt lat="45.7572" lon="6.74115">
        <ele>2396</ele>
        <time>2026-07-29T07:21:17.716Z</time>
      </trkpt>
      <trkpt lat="45.7572" lon="6.74116">
        <ele>2396</ele>
        <time>2026-07-29T07:21:18.716Z</time>
      </trkpt>
      <trkpt lat="45.7572" lon="6.74116">
        <ele>2397</ele>
        <time>2026-07-29T07:21:19.716Z</time>
      </trkpt>
      <trkpt lat="45.7572" lon="6.74117">
        <ele>2397</ele>
        <time>2026-07-29T07:21:20.716Z</time>
      </trkpt>
      <trkpt lat="45.7572" lon="6.74118">
        <ele>2397</ele>
        <time>2026-07-29T07:21:21.716Z</time>
      </trkpt>
      <trkpt lat="45.7572" lon="6.74118">
        <ele>2397</ele>
        <time>2026-07-29T07:21:22.716Z</time>
      </trkpt>
      <trkpt lat="45.7572" lon="6.74119">
        <ele>2397</ele>
        <time>2026-07-29T07:21:23.716Z</time>
      </trkpt>
      <trkpt lat="45.7572" lon="6.74119">
        <ele>2397</ele>
        <time>2026-07-29T07:21:24.716Z</time>
      </trkpt>
      <trkpt lat="45.7572" lon="6.7412">
        <ele>2397</ele>
        <time>2026-07-29T07:21:25.716Z</time>
      </trkpt>
      <trkpt lat="45.7572" lon="6.74121">
        <ele>2398</ele>
        <time>2026-07-29T07:21:26.716Z</time>
      </trkpt>
      <trkpt lat="45.75721" lon="6.74122">
        <ele>2398</ele>
        <time>2026-07-29T07:21:27.716Z</time>
      </trkpt>
      <trkpt lat="45.75721" lon="6.74122">
        <ele>2398</ele>
        <time>2026-07-29T07:21:28.716Z</time>
      </trkpt>
      <trkpt lat="45.75721" lon="6.74123">
        <ele>2399</ele>
        <time>2026-07-29T07:21:29.716Z</time>
      </trkpt>
      <trkpt lat="45.75721" lon="6.74123">
        <ele>2399</ele>
        <time>2026-07-29T07:21:30.716Z</time>
      </trkpt>
      <trkpt lat="45.75721" lon="6.74124">
        <ele>2400</ele>
        <time>2026-07-29T07:21:31.716Z</time>
      </trkpt>
      <trkpt lat="45.75721" lon="6.74124">
        <ele>2400</ele>
        <time>2026-07-29T07:21:32.716Z</time>
      </trkpt>
      <trkpt lat="45.7572" lon="6.74124">
        <ele>2401</ele>
        <time>2026-07-29T07:21:33.716Z</time>
      </trkpt>
      <trkpt lat="45.7572" lon="6.74125">
        <ele>2401</ele>
        <time>2026-07-29T07:21:34.716Z</time>
      </trkpt>
      <trkpt lat="45.75719" lon="6.74125">
        <ele>2401</ele>
        <time>2026-07-29T07:21:35.716Z</time>
      </trkpt>
      <trkpt lat="45.75719" lon="6.74125">
        <ele>2402</ele>
        <time>2026-07-29T07:21:36.716Z</time>
      </trkpt>
      <trkpt lat="45.75718" lon="6.74125">
        <ele>2402</ele>
        <time>2026-07-29T07:21:37.716Z</time>
      </trkpt>
      <trkpt lat="45.75718" lon="6.74125">
        <ele>2402</ele>
        <time>2026-07-29T07:21:38.716Z</time>
      </trkpt>
      <trkpt lat="45.75717" lon="6.74125">
        <ele>2403</ele>
        <time>2026-07-29T07:21:39.716Z</time>
      </trkpt>
      <trkpt lat="45.75717" lon="6.74125">
        <ele>2403</ele>
        <time>2026-07-29T07:21:40.716Z</time>
      </trkpt>
      <trkpt lat="45.75717" lon="6.74125">
        <ele>2404</ele>
        <time>2026-07-29T07:21:41.716Z</time>
      </trkpt>
      <trkpt lat="45.75716" lon="6.74125">
        <ele>2404</ele>
        <time>2026-07-29T07:21:42.716Z</time>
      </trkpt>
      <trkpt lat="45.75716" lon="6.74126">
        <ele>2405</ele>
        <time>2026-07-29T07:21:43.716Z</time>
      </trkpt>
      <trkpt lat="45.75715" lon="6.74126">
        <ele>2405</ele>
        <time>2026-07-29T07:21:44.716Z</time>
      </trkpt>
      <trkpt lat="45.75715" lon="6.74127">
        <ele>2405</ele>
        <time>2026-07-29T07:21:45.716Z</time>
      </trkpt>
      <trkpt lat="45.75715" lon="6.74128">
        <ele>2405</ele>
        <time>2026-07-29T07:21:46.716Z</time>
      </trkpt>
      <trkpt lat="45.75715" lon="6.74128">
        <ele>2405</ele>
        <time>2026-07-29T07:21:47.716Z</time>
      </trkpt>
      <trkpt lat="45.75715" lon="6.74129">
        <ele>2405</ele>
        <time>2026-07-29T07:21:48.716Z</time>
      </trkpt>
      <trkpt lat="45.75714" lon="6.74129">
        <ele>2405</ele>
        <time>2026-07-29T07:21:49.716Z</time>
      </trkpt>
      <trkpt lat="45.75714" lon="6.7413">
        <ele>2405</ele>
        <time>2026-07-29T07:21:50.716Z</time>
      </trkpt>
      <trkpt lat="45.75713" lon="6.74131">
        <ele>2405</ele>
        <time>2026-07-29T07:21:51.716Z</time>
      </trkpt>
      <trkpt lat="45.75713" lon="6.74131">
        <ele>2405</ele>
        <time>2026-07-29T07:21:52.716Z</time>
      </trkpt>
      <trkpt lat="45.75712" lon="6.74131">
        <ele>2405</ele>
        <time>2026-07-29T07:21:53.716Z</time>
      </trkpt>
      <trkpt lat="45.75711" lon="6.74131">
        <ele>2406</ele>
        <time>2026-07-29T07:21:54.716Z</time>
      </trkpt>
      <trkpt lat="45.75711" lon="6.74132">
        <ele>2406</ele>
        <time>2026-07-29T07:21:55.716Z</time>
      </trkpt>
      <trkpt lat="45.75711" lon="6.74132">
        <ele>2406</ele>
        <time>2026-07-29T07:21:56.716Z</time>
      </trkpt>
      <trkpt lat="45.75711" lon="6.74133">
        <ele>2407</ele>
        <time>2026-07-29T07:21:57.716Z</time>
      </trkpt>
      <trkpt lat="45.7571" lon="6.74133">
        <ele>2407</ele>
        <time>2026-07-29T07:21:58.716Z</time>
      </trkpt>
      <trkpt lat="45.7571" lon="6.74134">
        <ele>2407</ele>
        <time>2026-07-29T07:21:59.716Z</time>
      </trkpt>
      <trkpt lat="45.75709" lon="6.74134">
        <ele>2407</ele>
        <time>2026-07-29T07:22:00.716Z</time>
      </trkpt>
      <trkpt lat="45.75709" lon="6.74134">
        <ele>2408</ele>
        <time>2026-07-29T07:22:01.716Z</time>
      </trkpt>
      <trkpt lat="45.75708" lon="6.74134">
        <ele>2408</ele>
        <time>2026-07-29T07:22:02.716Z</time>
      </trkpt>
      <trkpt lat="45.75708" lon="6.74134">
        <ele>2408</ele>
        <time>2026-07-29T07:22:03.716Z</time>
      </trkpt>
      <trkpt lat="45.75707" lon="6.74134">
        <ele>2408</ele>
        <time>2026-07-29T07:22:04.716Z</time>
      </trkpt>
      <trkpt lat="45.75707" lon="6.74134">
        <ele>2408</ele>
        <time>2026-07-29T07:22:05.716Z</time>
      </trkpt>
      <trkpt lat="45.75706" lon="6.74134">
        <ele>2408</ele>
        <time>2026-07-29T07:22:06.716Z</time>
      </trkpt>
      <trkpt lat="45.75706" lon="6.74134">
        <ele>2408</ele>
        <time>2026-07-29T07:22:07.716Z</time>
      </trkpt>
      <trkpt lat="45.75706" lon="6.74135">
        <ele>2409</ele>
        <time>2026-07-29T07:22:08.716Z</time>
      </trkpt>
      <trkpt lat="45.75706" lon="6.74135">
        <ele>2409</ele>
        <time>2026-07-29T07:22:09.716Z</time>
      </trkpt>
      <trkpt lat="45.75706" lon="6.74135">
        <ele>2409</ele>
        <time>2026-07-29T07:22:10.716Z</time>
      </trkpt>
      <trkpt lat="45.75705" lon="6.74135">
        <ele>2409</ele>
        <time>2026-07-29T07:22:11.716Z</time>
      </trkpt>
      <trkpt lat="45.75705" lon="6.74135">
        <ele>2409</ele>
        <time>2026-07-29T07:22:12.716Z</time>
      </trkpt>
      <trkpt lat="45.75705" lon="6.74135">
        <ele>2410</ele>
        <time>2026-07-29T07:22:13.716Z</time>
      </trkpt>
      <trkpt lat="45.75706" lon="6.74135">
        <ele>2410</ele>
        <time>2026-07-29T07:22:14.716Z</time>
      </trkpt>
      <trkpt lat="45.75706" lon="6.74135">
        <ele>2410</ele>
        <time>2026-07-29T07:22:15.716Z</time>
      </trkpt>
      <trkpt lat="45.75706" lon="6.74135">
        <ele>2411</ele>
        <time>2026-07-29T07:22:16.716Z</time>
      </trkpt>
      <trkpt lat="45.75706" lon="6.74135">
        <ele>2411</ele>
        <time>2026-07-29T07:22:17.716Z</time>
      </trkpt>
      <trkpt lat="45.75706" lon="6.74135">
        <ele>2411</ele>
        <time>2026-07-29T07:22:18.716Z</time>
      </trkpt>
      <trkpt lat="45.75706" lon="6.74135">
        <ele>2411</ele>
        <time>2026-07-29T07:22:19.716Z</time>
      </trkpt>
      <trkpt lat="45.75706" lon="6.74135">
        <ele>2411</ele>
        <time>2026-07-29T07:22:20.716Z</time>
      </trkpt>
      <trkpt lat="45.75706" lon="6.74135">
        <ele>2412</ele>
        <time>2026-07-29T07:22:21.716Z</time>
      </trkpt>
      <trkpt lat="45.75706" lon="6.74135">
        <ele>2412</ele>
        <time>2026-07-29T07:22:22.716Z</time>
      </trkpt>
      <trkpt lat="45.75706" lon="6.74135">
        <ele>2412</ele>
        <time>2026-07-29T07:22:23.716Z</time>
      </trkpt>
      <trkpt lat="45.75706" lon="6.74135">
        <ele>2412</ele>
        <time>2026-07-29T07:22:24.716Z</time>
      </trkpt>
      <trkpt lat="45.75706" lon="6.74135">
        <ele>2412</ele>
        <time>2026-07-29T07:22:25.716Z</time>
      </trkpt>
      <trkpt lat="45.75706" lon="6.74135">
        <ele>2412</ele>
        <time>2026-07-29T07:22:26.716Z</time>
      </trkpt>
      <trkpt lat="45.75706" lon="6.74135">
        <ele>2412</ele>
        <time>2026-07-29T07:22:27.716Z</time>
      </trkpt>
      <trkpt lat="45.75706" lon="6.74135">
        <ele>2412</ele>
        <time>2026-07-29T07:22:28.716Z</time>
      </trkpt>
      <trkpt lat="45.75706" lon="6.74135">
        <ele>2412</ele>
        <time>2026-07-29T07:22:29.716Z</time>
      </trkpt>
      <trkpt lat="45.75706" lon="6.74135">
        <ele>2412</ele>
        <time>2026-07-29T07:22:30.716Z</time>
      </trkpt>
      <trkpt lat="45.75706" lon="6.74135">
        <ele>2412</ele>
        <time>2026-07-29T07:22:31.716Z</time>
      </trkpt>
      <trkpt lat="45.75706" lon="6.74135">
        <ele>2413</ele>
        <time>2026-07-29T07:22:32.716Z</time>
      </trkpt>
      <trkpt lat="45.75705" lon="6.74135">
        <ele>2413</ele>
        <time>2026-07-29T07:22:33.716Z</time>
      </trkpt>
      <trkpt lat="45.75703" lon="6.74136">
        <ele>2413</ele>
        <time>2026-07-29T07:22:34.716Z</time>
      </trkpt>
      <trkpt lat="45.75702" lon="6.74137">
        <ele>2413</ele>
        <time>2026-07-29T07:22:35.716Z</time>
      </trkpt>
      <trkpt lat="45.75701" lon="6.74138">
        <ele>2413</ele>
        <time>2026-07-29T07:22:36.716Z</time>
      </trkpt>
      <trkpt lat="45.75699" lon="6.74138">
        <ele>2413</ele>
        <time>2026-07-29T07:22:37.716Z</time>
      </trkpt>
      <trkpt lat="45.75698" lon="6.74139">
        <ele>2413</ele>
        <time>2026-07-29T07:22:38.716Z</time>
      </trkpt>
      <trkpt lat="45.75697" lon="6.7414">
        <ele>2413</ele>
        <time>2026-07-29T07:22:39.716Z</time>
      </trkpt>
      <trkpt lat="45.75695" lon="6.74141">
        <ele>2414</ele>
        <time>2026-07-29T07:22:40.716Z</time>
      </trkpt>
      <trkpt lat="45.75694" lon="6.74141">
        <ele>2414</ele>
        <time>2026-07-29T07:22:41.716Z</time>
      </trkpt>
      <trkpt lat="45.75692" lon="6.74142">
        <ele>2415</ele>
        <time>2026-07-29T07:22:42.716Z</time>
      </trkpt>
      <trkpt lat="45.75692" lon="6.74142">
        <ele>2415</ele>
        <time>2026-07-29T07:22:43.716Z</time>
      </trkpt>
      <trkpt lat="45.75693" lon="6.74143">
        <ele>2416</ele>
        <time>2026-07-29T07:22:44.716Z</time>
      </trkpt>
      <trkpt lat="45.75693" lon="6.74143">
        <ele>2416</ele>
        <time>2026-07-29T07:22:45.716Z</time>
      </trkpt>
      <trkpt lat="45.75693" lon="6.74144">
        <ele>2416</ele>
        <time>2026-07-29T07:22:46.716Z</time>
      </trkpt>
      <trkpt lat="45.75694" lon="6.74145">
        <ele>2416</ele>
        <time>2026-07-29T07:22:47.716Z</time>
      </trkpt>
      <trkpt lat="45.75694" lon="6.74146">
        <ele>2416</ele>
        <time>2026-07-29T07:22:48.716Z</time>
      </trkpt>
      <trkpt lat="45.75695" lon="6.74147">
        <ele>2416</ele>
        <time>2026-07-29T07:22:49.716Z</time>
      </trkpt>
      <trkpt lat="45.75695" lon="6.74148">
        <ele>2417</ele>
        <time>2026-07-29T07:22:50.716Z</time>
      </trkpt>
      <trkpt lat="45.75695" lon="6.74148">
        <ele>2417</ele>
        <time>2026-07-29T07:22:51.716Z</time>
      </trkpt>
      <trkpt lat="45.75696" lon="6.74149">
        <ele>2417</ele>
        <time>2026-07-29T07:22:52.716Z</time>
      </trkpt>
      <trkpt lat="45.75696" lon="6.7415">
        <ele>2417</ele>
        <time>2026-07-29T07:22:53.716Z</time>
      </trkpt>
      <trkpt lat="45.75696" lon="6.74151">
        <ele>2417</ele>
        <time>2026-07-29T07:22:54.716Z</time>
      </trkpt>
      <trkpt lat="45.75697" lon="6.74151">
        <ele>2417</ele>
        <time>2026-07-29T07:22:55.716Z</time>
      </trkpt>
      <trkpt lat="45.75697" lon="6.74152">
        <ele>2418</ele>
        <time>2026-07-29T07:22:56.716Z</time>
      </trkpt>
      <trkpt lat="45.75698" lon="6.74153">
        <ele>2418</ele>
        <time>2026-07-29T07:22:57.716Z</time>
      </trkpt>
      <trkpt lat="45.75698" lon="6.74153">
        <ele>2418</ele>
        <time>2026-07-29T07:22:58.716Z</time>
      </trkpt>
      <trkpt lat="45.75698" lon="6.74154">
        <ele>2418</ele>
        <time>2026-07-29T07:22:59.716Z</time>
      </trkpt>
      <trkpt lat="45.75698" lon="6.74155">
        <ele>2418</ele>
        <time>2026-07-29T07:23:00.716Z</time>
      </trkpt>
      <trkpt lat="45.75698" lon="6.74156">
        <ele>2418</ele>
        <time>2026-07-29T07:23:01.716Z</time>
      </trkpt>
      <trkpt lat="45.75698" lon="6.74157">
        <ele>2418</ele>
        <time>2026-07-29T07:23:02.716Z</time>
      </trkpt>
      <trkpt lat="45.75698" lon="6.74157">
        <ele>2418</ele>
        <time>2026-07-29T07:23:03.716Z</time>
      </trkpt>
      <trkpt lat="45.75698" lon="6.74158">
        <ele>2418</ele>
        <time>2026-07-29T07:23:04.716Z</time>
      </trkpt>
      <trkpt lat="45.75697" lon="6.74158">
        <ele>2418</ele>
        <time>2026-07-29T07:23:05.716Z</time>
      </trkpt>
      <trkpt lat="45.75697" lon="6.74158">
        <ele>2419</ele>
        <time>2026-07-29T07:23:06.716Z</time>
      </trkpt>
      <trkpt lat="45.75697" lon="6.74158">
        <ele>2419</ele>
        <time>2026-07-29T07:23:07.717Z</time>
      </trkpt>
      <trkpt lat="45.75696" lon="6.74158">
        <ele>2419</ele>
        <time>2026-07-29T07:23:08.716Z</time>
      </trkpt>
      <trkpt lat="45.75696" lon="6.74158">
        <ele>2419</ele>
        <time>2026-07-29T07:23:09.716Z</time>
      </trkpt>
      <trkpt lat="45.75696" lon="6.74158">
        <ele>2420</ele>
        <time>2026-07-29T07:23:10.716Z</time>
      </trkpt>
      <trkpt lat="45.75696" lon="6.74158">
        <ele>2420</ele>
        <time>2026-07-29T07:23:11.716Z</time>
      </trkpt>
      <trkpt lat="45.75696" lon="6.74159">
        <ele>2420</ele>
        <time>2026-07-29T07:23:12.716Z</time>
      </trkpt>
      <trkpt lat="45.75696" lon="6.74159">
        <ele>2420</ele>
        <time>2026-07-29T07:23:13.716Z</time>
      </trkpt>
      <trkpt lat="45.75696" lon="6.7416">
        <ele>2420</ele>
        <time>2026-07-29T07:23:14.716Z</time>
      </trkpt>
      <trkpt lat="45.75696" lon="6.7416">
        <ele>2421</ele>
        <time>2026-07-29T07:23:15.716Z</time>
      </trkpt>
      <trkpt lat="45.75696" lon="6.7416">
        <ele>2421</ele>
        <time>2026-07-29T07:23:16.716Z</time>
      </trkpt>
      <trkpt lat="45.75696" lon="6.74161">
        <ele>2421</ele>
        <time>2026-07-29T07:23:17.716Z</time>
      </trkpt>
      <trkpt lat="45.75696" lon="6.74162">
        <ele>2422</ele>
        <time>2026-07-29T07:23:18.716Z</time>
      </trkpt>
      <trkpt lat="45.75696" lon="6.74162">
        <ele>2423</ele>
        <time>2026-07-29T07:23:19.716Z</time>
      </trkpt>
      <trkpt lat="45.75696" lon="6.74162">
        <ele>2423</ele>
        <time>2026-07-29T07:23:20.716Z</time>
      </trkpt>
      <trkpt lat="45.75696" lon="6.74163">
        <ele>2423</ele>
        <time>2026-07-29T07:23:21.716Z</time>
      </trkpt>
      <trkpt lat="45.75696" lon="6.74164">
        <ele>2423</ele>
        <time>2026-07-29T07:23:22.716Z</time>
      </trkpt>
      <trkpt lat="45.75696" lon="6.74165">
        <ele>2423</ele>
        <time>2026-07-29T07:23:23.716Z</time>
      </trkpt>
      <trkpt lat="45.75696" lon="6.74165">
        <ele>2423</ele>
        <time>2026-07-29T07:23:24.716Z</time>
      </trkpt>
      <trkpt lat="45.75695" lon="6.74166">
        <ele>2423</ele>
        <time>2026-07-29T07:23:25.716Z</time>
      </trkpt>
      <trkpt lat="45.75695" lon="6.74165">
        <ele>2423</ele>
        <time>2026-07-29T07:23:26.716Z</time>
      </trkpt>
      <trkpt lat="45.75694" lon="6.74165">
        <ele>2424</ele>
        <time>2026-07-29T07:23:27.716Z</time>
      </trkpt>
      <trkpt lat="45.75694" lon="6.74165">
        <ele>2424</ele>
        <time>2026-07-29T07:23:28.716Z</time>
      </trkpt>
      <trkpt lat="45.75693" lon="6.74165">
        <ele>2424</ele>
        <time>2026-07-29T07:23:29.716Z</time>
      </trkpt>
      <trkpt lat="45.75693" lon="6.74165">
        <ele>2424</ele>
        <time>2026-07-29T07:23:30.716Z</time>
      </trkpt>
      <trkpt lat="45.75692" lon="6.74165">
        <ele>2424</ele>
        <time>2026-07-29T07:23:31.716Z</time>
      </trkpt>
      <trkpt lat="45.75692" lon="6.74164">
        <ele>2425</ele>
        <time>2026-07-29T07:23:32.716Z</time>
      </trkpt>
      <trkpt lat="45.75692" lon="6.74164">
        <ele>2425</ele>
        <time>2026-07-29T07:23:33.716Z</time>
      </trkpt>
      <trkpt lat="45.75691" lon="6.74164">
        <ele>2426</ele>
        <time>2026-07-29T07:23:34.716Z</time>
      </trkpt>
      <trkpt lat="45.75691" lon="6.74163">
        <ele>2426</ele>
        <time>2026-07-29T07:23:35.716Z</time>
      </trkpt>
      <trkpt lat="45.75691" lon="6.74163">
        <ele>2427</ele>
        <time>2026-07-29T07:23:36.716Z</time>
      </trkpt>
      <trkpt lat="45.7569" lon="6.74163">
        <ele>2427</ele>
        <time>2026-07-29T07:23:37.716Z</time>
      </trkpt>
      <trkpt lat="45.7569" lon="6.74163">
        <ele>2427</ele>
        <time>2026-07-29T07:23:38.716Z</time>
      </trkpt>
      <trkpt lat="45.75689" lon="6.74162">
        <ele>2427</ele>
        <time>2026-07-29T07:23:39.716Z</time>
      </trkpt>
      <trkpt lat="45.75689" lon="6.74161">
        <ele>2428</ele>
        <time>2026-07-29T07:23:40.716Z</time>
      </trkpt>
      <trkpt lat="45.75688" lon="6.74161">
        <ele>2428</ele>
        <time>2026-07-29T07:23:41.716Z</time>
      </trkpt>
      <trkpt lat="45.75688" lon="6.74161">
        <ele>2428</ele>
        <time>2026-07-29T07:23:42.716Z</time>
      </trkpt>
      <trkpt lat="45.75687" lon="6.7416">
        <ele>2428</ele>
        <time>2026-07-29T07:23:43.716Z</time>
      </trkpt>
      <trkpt lat="45.75687" lon="6.7416">
        <ele>2428</ele>
        <time>2026-07-29T07:23:44.716Z</time>
      </trkpt>
      <trkpt lat="45.75686" lon="6.74159">
        <ele>2429</ele>
        <time>2026-07-29T07:23:45.716Z</time>
      </trkpt>
      <trkpt lat="45.75685" lon="6.74158">
        <ele>2429</ele>
        <time>2026-07-29T07:23:46.716Z</time>
      </trkpt>
      <trkpt lat="45.75684" lon="6.74158">
        <ele>2430</ele>
        <time>2026-07-29T07:23:47.716Z</time>
      </trkpt>
      <trkpt lat="45.75684" lon="6.74157">
        <ele>2430</ele>
        <time>2026-07-29T07:23:48.716Z</time>
      </trkpt>
      <trkpt lat="45.75684" lon="6.74157">
        <ele>2430</ele>
        <time>2026-07-29T07:23:49.716Z</time>
      </trkpt>
      <trkpt lat="45.75684" lon="6.74156">
        <ele>2430</ele>
        <time>2026-07-29T07:23:50.716Z</time>
      </trkpt>
      <trkpt lat="45.75683" lon="6.74156">
        <ele>2430</ele>
        <time>2026-07-29T07:23:51.716Z</time>
      </trkpt>
      <trkpt lat="45.75682" lon="6.74156">
        <ele>2430</ele>
        <time>2026-07-29T07:23:52.716Z</time>
      </trkpt>
      <trkpt lat="45.75682" lon="6.74156">
        <ele>2430</ele>
        <time>2026-07-29T07:23:53.716Z</time>
      </trkpt>
      <trkpt lat="45.75681" lon="6.74156">
        <ele>2430</ele>
        <time>2026-07-29T07:23:54.716Z</time>
      </trkpt>
      <trkpt lat="45.75681" lon="6.74157">
        <ele>2430</ele>
        <time>2026-07-29T07:23:55.716Z</time>
      </trkpt>
      <trkpt lat="45.7568" lon="6.74157">
        <ele>2430</ele>
        <time>2026-07-29T07:23:56.716Z</time>
      </trkpt>
      <trkpt lat="45.7568" lon="6.74158">
        <ele>2430</ele>
        <time>2026-07-29T07:23:57.716Z</time>
      </trkpt>
      <trkpt lat="45.75679" lon="6.74158">
        <ele>2431</ele>
        <time>2026-07-29T07:23:58.716Z</time>
      </trkpt>
      <trkpt lat="45.75678" lon="6.74159">
        <ele>2432</ele>
        <time>2026-07-29T07:23:59.716Z</time>
      </trkpt>
      <trkpt lat="45.75678" lon="6.74159">
        <ele>2432</ele>
        <time>2026-07-29T07:24:00.716Z</time>
      </trkpt>
      <trkpt lat="45.75677" lon="6.74159">
        <ele>2433</ele>
        <time>2026-07-29T07:24:01.716Z</time>
      </trkpt>
      <trkpt lat="45.75676" lon="6.7416">
        <ele>2434</ele>
        <time>2026-07-29T07:24:02.716Z</time>
      </trkpt>
      <trkpt lat="45.75676" lon="6.7416">
        <ele>2434</ele>
        <time>2026-07-29T07:24:03.716Z</time>
      </trkpt>
      <trkpt lat="45.75675" lon="6.74161">
        <ele>2434</ele>
        <time>2026-07-29T07:24:04.716Z</time>
      </trkpt>
      <trkpt lat="45.75674" lon="6.74161">
        <ele>2434</ele>
        <time>2026-07-29T07:24:05.716Z</time>
      </trkpt>
      <trkpt lat="45.75674" lon="6.74162">
        <ele>2434</ele>
        <time>2026-07-29T07:24:06.716Z</time>
      </trkpt>
      <trkpt lat="45.75674" lon="6.74162">
        <ele>2434</ele>
        <time>2026-07-29T07:24:07.716Z</time>
      </trkpt>
      <trkpt lat="45.75673" lon="6.74163">
        <ele>2434</ele>
        <time>2026-07-29T07:24:08.716Z</time>
      </trkpt>
      <trkpt lat="45.75673" lon="6.74163">
        <ele>2434</ele>
        <time>2026-07-29T07:24:09.716Z</time>
      </trkpt>
      <trkpt lat="45.75674" lon="6.74164">
        <ele>2434</ele>
        <time>2026-07-29T07:24:10.716Z</time>
      </trkpt>
      <trkpt lat="45.75674" lon="6.74165">
        <ele>2434</ele>
        <time>2026-07-29T07:24:11.716Z</time>
      </trkpt>
      <trkpt lat="45.75674" lon="6.74165">
        <ele>2434</ele>
        <time>2026-07-29T07:24:12.716Z</time>
      </trkpt>
      <trkpt lat="45.75674" lon="6.74166">
        <ele>2434</ele>
        <time>2026-07-29T07:24:13.716Z</time>
      </trkpt>
      <trkpt lat="45.75675" lon="6.74166">
        <ele>2435</ele>
        <time>2026-07-29T07:24:14.716Z</time>
      </trkpt>
      <trkpt lat="45.75675" lon="6.74166">
        <ele>2435</ele>
        <time>2026-07-29T07:24:15.716Z</time>
      </trkpt>
      <trkpt lat="45.75676" lon="6.74166">
        <ele>2435</ele>
        <time>2026-07-29T07:24:16.716Z</time>
      </trkpt>
      <trkpt lat="45.75676" lon="6.74167">
        <ele>2435</ele>
        <time>2026-07-29T07:24:17.716Z</time>
      </trkpt>
      <trkpt lat="45.75676" lon="6.74167">
        <ele>2435</ele>
        <time>2026-07-29T07:24:18.716Z</time>
      </trkpt>
      <trkpt lat="45.75676" lon="6.74167">
        <ele>2436</ele>
        <time>2026-07-29T07:24:19.716Z</time>
      </trkpt>
      <trkpt lat="45.75677" lon="6.74168">
        <ele>2436</ele>
        <time>2026-07-29T07:24:20.716Z</time>
      </trkpt>
      <trkpt lat="45.75677" lon="6.74168">
        <ele>2436</ele>
        <time>2026-07-29T07:24:21.716Z</time>
      </trkpt>
      <trkpt lat="45.75678" lon="6.74169">
        <ele>2436</ele>
        <time>2026-07-29T07:24:22.716Z</time>
      </trkpt>
      <trkpt lat="45.75678" lon="6.74169">
        <ele>2437</ele>
        <time>2026-07-29T07:24:23.716Z</time>
      </trkpt>
      <trkpt lat="45.75678" lon="6.7417">
        <ele>2437</ele>
        <time>2026-07-29T07:24:24.716Z</time>
      </trkpt>
      <trkpt lat="45.75678" lon="6.7417">
        <ele>2437</ele>
        <time>2026-07-29T07:24:25.716Z</time>
      </trkpt>
      <trkpt lat="45.75678" lon="6.74171">
        <ele>2438</ele>
        <time>2026-07-29T07:24:26.716Z</time>
      </trkpt>
      <trkpt lat="45.75679" lon="6.74172">
        <ele>2438</ele>
        <time>2026-07-29T07:24:27.716Z</time>
      </trkpt>
      <trkpt lat="45.75679" lon="6.74173">
        <ele>2438</ele>
        <time>2026-07-29T07:24:28.716Z</time>
      </trkpt>
      <trkpt lat="45.75679" lon="6.74173">
        <ele>2438</ele>
        <time>2026-07-29T07:24:29.716Z</time>
      </trkpt>
      <trkpt lat="45.75678" lon="6.74173">
        <ele>2438</ele>
        <time>2026-07-29T07:24:30.717Z</time>
      </trkpt>
      <trkpt lat="45.75678" lon="6.74173">
        <ele>2439</ele>
        <time>2026-07-29T07:24:31.716Z</time>
      </trkpt>
      <trkpt lat="45.75678" lon="6.74174">
        <ele>2439</ele>
        <time>2026-07-29T07:24:32.716Z</time>
      </trkpt>
      <trkpt lat="45.75678" lon="6.74174">
        <ele>2439</ele>
        <time>2026-07-29T07:24:33.716Z</time>
      </trkpt>
      <trkpt lat="45.75678" lon="6.74174">
        <ele>2439</ele>
        <time>2026-07-29T07:24:34.716Z</time>
      </trkpt>
      <trkpt lat="45.75678" lon="6.74174">
        <ele>2439</ele>
        <time>2026-07-29T07:24:35.716Z</time>
      </trkpt>
      <trkpt lat="45.75678" lon="6.74175">
        <ele>2439</ele>
        <time>2026-07-29T07:24:36.716Z</time>
      </trkpt>
      <trkpt lat="45.75678" lon="6.74176">
        <ele>2439</ele>
        <time>2026-07-29T07:24:37.716Z</time>
      </trkpt>
      <trkpt lat="45.75678" lon="6.74176">
        <ele>2440</ele>
        <time>2026-07-29T07:24:38.716Z</time>
      </trkpt>
      <trkpt lat="45.75677" lon="6.74176">
        <ele>2440</ele>
        <time>2026-07-29T07:24:39.716Z</time>
      </trkpt>
      <trkpt lat="45.75677" lon="6.74176">
        <ele>2440</ele>
        <time>2026-07-29T07:24:40.716Z</time>
      </trkpt>
      <trkpt lat="45.75676" lon="6.74176">
        <ele>2440</ele>
        <time>2026-07-29T07:24:41.716Z</time>
      </trkpt>
      <trkpt lat="45.75676" lon="6.74176">
        <ele>2440</ele>
        <time>2026-07-29T07:24:42.716Z</time>
      </trkpt>
      <trkpt lat="45.75676" lon="6.74177">
        <ele>2440</ele>
        <time>2026-07-29T07:24:43.716Z</time>
      </trkpt>
      <trkpt lat="45.75675" lon="6.74177">
        <ele>2441</ele>
        <time>2026-07-29T07:24:44.716Z</time>
      </trkpt>
      <trkpt lat="45.75675" lon="6.74177">
        <ele>2441</ele>
        <time>2026-07-29T07:24:45.716Z</time>
      </trkpt>
      <trkpt lat="45.75674" lon="6.74178">
        <ele>2441</ele>
        <time>2026-07-29T07:24:46.716Z</time>
      </trkpt>
      <trkpt lat="45.75674" lon="6.74178">
        <ele>2442</ele>
        <time>2026-07-29T07:24:47.716Z</time>
      </trkpt>
      <trkpt lat="45.75673" lon="6.74178">
        <ele>2442</ele>
        <time>2026-07-29T07:24:48.716Z</time>
      </trkpt>
      <trkpt lat="45.75672" lon="6.74178">
        <ele>2442</ele>
        <time>2026-07-29T07:24:49.716Z</time>
      </trkpt>
      <trkpt lat="45.75671" lon="6.74178">
        <ele>2442</ele>
        <time>2026-07-29T07:24:50.716Z</time>
      </trkpt>
      <trkpt lat="45.75671" lon="6.74178">
        <ele>2442</ele>
        <time>2026-07-29T07:24:51.716Z</time>
      </trkpt>
      <trkpt lat="45.7567" lon="6.74178">
        <ele>2442</ele>
        <time>2026-07-29T07:24:52.716Z</time>
      </trkpt>
      <trkpt lat="45.7567" lon="6.74179">
        <ele>2443</ele>
        <time>2026-07-29T07:24:53.716Z</time>
      </trkpt>
      <trkpt lat="45.75671" lon="6.74179">
        <ele>2443</ele>
        <time>2026-07-29T07:24:54.716Z</time>
      </trkpt>
      <trkpt lat="45.75671" lon="6.74179">
        <ele>2443</ele>
        <time>2026-07-29T07:24:55.716Z</time>
      </trkpt>
      <trkpt lat="45.75671" lon="6.74179">
        <ele>2443</ele>
        <time>2026-07-29T07:24:56.716Z</time>
      </trkpt>
      <trkpt lat="45.75671" lon="6.74179">
        <ele>2443</ele>
        <time>2026-07-29T07:24:57.716Z</time>
      </trkpt>
      <trkpt lat="45.75671" lon="6.7418">
        <ele>2444</ele>
        <time>2026-07-29T07:24:58.716Z</time>
      </trkpt>
      <trkpt lat="45.75671" lon="6.7418">
        <ele>2444</ele>
        <time>2026-07-29T07:24:59.716Z</time>
      </trkpt>
      <trkpt lat="45.75671" lon="6.74181">
        <ele>2444</ele>
        <time>2026-07-29T07:25:00.716Z</time>
      </trkpt>
      <trkpt lat="45.75671" lon="6.74182">
        <ele>2445</ele>
        <time>2026-07-29T07:25:01.716Z</time>
      </trkpt>
      <trkpt lat="45.75671" lon="6.74182">
        <ele>2445</ele>
        <time>2026-07-29T07:25:02.716Z</time>
      </trkpt>
      <trkpt lat="45.75671" lon="6.74183">
        <ele>2446</ele>
        <time>2026-07-29T07:25:03.716Z</time>
      </trkpt>
      <trkpt lat="45.75671" lon="6.74183">
        <ele>2446</ele>
        <time>2026-07-29T07:25:04.716Z</time>
      </trkpt>
      <trkpt lat="45.75671" lon="6.74184">
        <ele>2447</ele>
        <time>2026-07-29T07:25:05.716Z</time>
      </trkpt>
      <trkpt lat="45.75671" lon="6.74184">
        <ele>2447</ele>
        <time>2026-07-29T07:25:06.716Z</time>
      </trkpt>
      <trkpt lat="45.75672" lon="6.74184">
        <ele>2447</ele>
        <time>2026-07-29T07:25:07.716Z</time>
      </trkpt>
      <trkpt lat="45.75671" lon="6.74183">
        <ele>2448</ele>
        <time>2026-07-29T07:25:08.716Z</time>
      </trkpt>
      <trkpt lat="45.75671" lon="6.74184">
        <ele>2448</ele>
        <time>2026-07-29T07:25:09.716Z</time>
      </trkpt>
      <trkpt lat="45.7567" lon="6.74184">
        <ele>2448</ele>
        <time>2026-07-29T07:25:10.716Z</time>
      </trkpt>
      <trkpt lat="45.7567" lon="6.74184">
        <ele>2447</ele>
        <time>2026-07-29T07:25:11.716Z</time>
      </trkpt>
      <trkpt lat="45.7567" lon="6.74185">
        <ele>2447</ele>
        <time>2026-07-29T07:25:12.716Z</time>
      </trkpt>
      <trkpt lat="45.75671" lon="6.74185">
        <ele>2448</ele>
        <time>2026-07-29T07:25:13.716Z</time>
      </trkpt>
      <trkpt lat="45.75671" lon="6.74186">
        <ele>2448</ele>
        <time>2026-07-29T07:25:14.716Z</time>
      </trkpt>
      <trkpt lat="45.75671" lon="6.74186">
        <ele>2448</ele>
        <time>2026-07-29T07:25:15.716Z</time>
      </trkpt>
      <trkpt lat="45.7567" lon="6.74187">
        <ele>2448</ele>
        <time>2026-07-29T07:25:16.716Z</time>
      </trkpt>
      <trkpt lat="45.75671" lon="6.74187">
        <ele>2448</ele>
        <time>2026-07-29T07:25:17.716Z</time>
      </trkpt>
      <trkpt lat="45.75671" lon="6.74188">
        <ele>2448</ele>
        <time>2026-07-29T07:25:18.716Z</time>
      </trkpt>
      <trkpt lat="45.7567" lon="6.74188">
        <ele>2448</ele>
        <time>2026-07-29T07:25:19.716Z</time>
      </trkpt>
      <trkpt lat="45.7567" lon="6.74189">
        <ele>2448</ele>
        <time>2026-07-29T07:25:20.716Z</time>
      </trkpt>
      <trkpt lat="45.7567" lon="6.74189">
        <ele>2449</ele>
        <time>2026-07-29T07:25:21.716Z</time>
      </trkpt>
      <trkpt lat="45.7567" lon="6.74189">
        <ele>2450</ele>
        <time>2026-07-29T07:25:22.716Z</time>
      </trkpt>
      <trkpt lat="45.7567" lon="6.7419">
        <ele>2450</ele>
        <time>2026-07-29T07:25:23.716Z</time>
      </trkpt>
      <trkpt lat="45.75669" lon="6.7419">
        <ele>2451</ele>
        <time>2026-07-29T07:25:24.716Z</time>
      </trkpt>
      <trkpt lat="45.75669" lon="6.7419">
        <ele>2451</ele>
        <time>2026-07-29T07:25:25.716Z</time>
      </trkpt>
      <trkpt lat="45.75669" lon="6.74191">
        <ele>2452</ele>
        <time>2026-07-29T07:25:26.716Z</time>
      </trkpt>
      <trkpt lat="45.75669" lon="6.74192">
        <ele>2452</ele>
        <time>2026-07-29T07:25:27.716Z</time>
      </trkpt>
      <trkpt lat="45.75668" lon="6.74193">
        <ele>2452</ele>
        <time>2026-07-29T07:25:28.716Z</time>
      </trkpt>
      <trkpt lat="45.75668" lon="6.74193">
        <ele>2452</ele>
        <time>2026-07-29T07:25:29.716Z</time>
      </trkpt>
      <trkpt lat="45.75667" lon="6.74194">
        <ele>2453</ele>
        <time>2026-07-29T07:25:30.716Z</time>
      </trkpt>
      <trkpt lat="45.75667" lon="6.74194">
        <ele>2453</ele>
        <time>2026-07-29T07:25:31.716Z</time>
      </trkpt>
      <trkpt lat="45.75667" lon="6.74195">
        <ele>2454</ele>
        <time>2026-07-29T07:25:32.716Z</time>
      </trkpt>
      <trkpt lat="45.75667" lon="6.74195">
        <ele>2454</ele>
        <time>2026-07-29T07:25:33.716Z</time>
      </trkpt>
      <trkpt lat="45.75666" lon="6.74196">
        <ele>2454</ele>
        <time>2026-07-29T07:25:34.716Z</time>
      </trkpt>
      <trkpt lat="45.75666" lon="6.74196">
        <ele>2454</ele>
        <time>2026-07-29T07:25:35.716Z</time>
      </trkpt>
      <trkpt lat="45.75666" lon="6.74196">
        <ele>2454</ele>
        <time>2026-07-29T07:25:36.716Z</time>
      </trkpt>
      <trkpt lat="45.75665" lon="6.74195">
        <ele>2454</ele>
        <time>2026-07-29T07:25:37.716Z</time>
      </trkpt>
      <trkpt lat="45.75665" lon="6.74195">
        <ele>2454</ele>
        <time>2026-07-29T07:25:38.716Z</time>
      </trkpt>
      <trkpt lat="45.75665" lon="6.74195">
        <ele>2454</ele>
        <time>2026-07-29T07:25:39.716Z</time>
      </trkpt>
      <trkpt lat="45.75665" lon="6.74195">
        <ele>2454</ele>
        <time>2026-07-29T07:25:40.716Z</time>
      </trkpt>
      <trkpt lat="45.75664" lon="6.74195">
        <ele>2454</ele>
        <time>2026-07-29T07:25:41.716Z</time>
      </trkpt>
      <trkpt lat="45.75664" lon="6.74195">
        <ele>2455</ele>
        <time>2026-07-29T07:25:42.716Z</time>
      </trkpt>
      <trkpt lat="45.75664" lon="6.74195">
        <ele>2455</ele>
        <time>2026-07-29T07:25:43.716Z</time>
      </trkpt>
      <trkpt lat="45.75664" lon="6.74195">
        <ele>2455</ele>
        <time>2026-07-29T07:25:44.716Z</time>
      </trkpt>
      <trkpt lat="45.75664" lon="6.74196">
        <ele>2456</ele>
        <time>2026-07-29T07:25:45.716Z</time>
      </trkpt>
      <trkpt lat="45.75664" lon="6.74196">
        <ele>2456</ele>
        <time>2026-07-29T07:25:46.716Z</time>
      </trkpt>
      <trkpt lat="45.75664" lon="6.74197">
        <ele>2456</ele>
        <time>2026-07-29T07:25:47.716Z</time>
      </trkpt>
      <trkpt lat="45.75664" lon="6.74197">
        <ele>2456</ele>
        <time>2026-07-29T07:25:48.716Z</time>
      </trkpt>
      <trkpt lat="45.75664" lon="6.74198">
        <ele>2457</ele>
        <time>2026-07-29T07:25:49.716Z</time>
      </trkpt>
      <trkpt lat="45.75664" lon="6.74198">
        <ele>2457</ele>
        <time>2026-07-29T07:25:50.716Z</time>
      </trkpt>
      <trkpt lat="45.75663" lon="6.74199">
        <ele>2458</ele>
        <time>2026-07-29T07:25:51.716Z</time>
      </trkpt>
      <trkpt lat="45.75663" lon="6.74199">
        <ele>2458</ele>
        <time>2026-07-29T07:25:52.716Z</time>
      </trkpt>
      <trkpt lat="45.75662" lon="6.74198">
        <ele>2459</ele>
        <time>2026-07-29T07:25:53.716Z</time>
      </trkpt>
      <trkpt lat="45.75661" lon="6.74198">
        <ele>2459</ele>
        <time>2026-07-29T07:25:54.716Z</time>
      </trkpt>
      <trkpt lat="45.75661" lon="6.74198">
        <ele>2460</ele>
        <time>2026-07-29T07:25:55.716Z</time>
      </trkpt>
      <trkpt lat="45.7566" lon="6.74198">
        <ele>2460</ele>
        <time>2026-07-29T07:25:56.716Z</time>
      </trkpt>
      <trkpt lat="45.75659" lon="6.74198">
        <ele>2460</ele>
        <time>2026-07-29T07:25:57.716Z</time>
      </trkpt>
      <trkpt lat="45.75659" lon="6.74198">
        <ele>2460</ele>
        <time>2026-07-29T07:25:58.716Z</time>
      </trkpt>
      <trkpt lat="45.75658" lon="6.74198">
        <ele>2460</ele>
        <time>2026-07-29T07:25:59.716Z</time>
      </trkpt>
      <trkpt lat="45.75658" lon="6.74197">
        <ele>2461</ele>
        <time>2026-07-29T07:26:00.716Z</time>
      </trkpt>
      <trkpt lat="45.75657" lon="6.74197">
        <ele>2461</ele>
        <time>2026-07-29T07:26:01.716Z</time>
      </trkpt>
      <trkpt lat="45.75657" lon="6.74197">
        <ele>2462</ele>
        <time>2026-07-29T07:26:02.716Z</time>
      </trkpt>
      <trkpt lat="45.75657" lon="6.74198">
        <ele>2462</ele>
        <time>2026-07-29T07:26:03.716Z</time>
      </trkpt>
      <trkpt lat="45.75656" lon="6.74198">
        <ele>2463</ele>
        <time>2026-07-29T07:26:04.716Z</time>
      </trkpt>
      <trkpt lat="45.75656" lon="6.74198">
        <ele>2463</ele>
        <time>2026-07-29T07:26:05.716Z</time>
      </trkpt>
      <trkpt lat="45.75656" lon="6.74199">
        <ele>2463</ele>
        <time>2026-07-29T07:26:06.716Z</time>
      </trkpt>
      <trkpt lat="45.75656" lon="6.74199">
        <ele>2463</ele>
        <time>2026-07-29T07:26:07.716Z</time>
      </trkpt>
      <trkpt lat="45.75656" lon="6.74199">
        <ele>2463</ele>
        <time>2026-07-29T07:26:08.716Z</time>
      </trkpt>
      <trkpt lat="45.75656" lon="6.742">
        <ele>2463</ele>
        <time>2026-07-29T07:26:09.716Z</time>
      </trkpt>
      <trkpt lat="45.75656" lon="6.742">
        <ele>2462</ele>
        <time>2026-07-29T07:26:10.716Z</time>
      </trkpt>
      <trkpt lat="45.75656" lon="6.742">
        <ele>2462</ele>
        <time>2026-07-29T07:26:11.716Z</time>
      </trkpt>
      <trkpt lat="45.75656" lon="6.742">
        <ele>2462</ele>
        <time>2026-07-29T07:26:12.716Z</time>
      </trkpt>
      <trkpt lat="45.75655" lon="6.742">
        <ele>2462</ele>
        <time>2026-07-29T07:26:13.716Z</time>
      </trkpt>
      <trkpt lat="45.75655" lon="6.74201">
        <ele>2462</ele>
        <time>2026-07-29T07:26:14.716Z</time>
      </trkpt>
      <trkpt lat="45.75655" lon="6.74202">
        <ele>2462</ele>
        <time>2026-07-29T07:26:15.716Z</time>
      </trkpt>
      <trkpt lat="45.75655" lon="6.74202">
        <ele>2462</ele>
        <time>2026-07-29T07:26:16.716Z</time>
      </trkpt>
      <trkpt lat="45.75655" lon="6.74203">
        <ele>2462</ele>
        <time>2026-07-29T07:26:17.716Z</time>
      </trkpt>
      <trkpt lat="45.75654" lon="6.74203">
        <ele>2463</ele>
        <time>2026-07-29T07:26:18.716Z</time>
      </trkpt>
      <trkpt lat="45.75654" lon="6.74203">
        <ele>2463</ele>
        <time>2026-07-29T07:26:19.716Z</time>
      </trkpt>
      <trkpt lat="45.75654" lon="6.74204">
        <ele>2463</ele>
        <time>2026-07-29T07:26:20.716Z</time>
      </trkpt>
      <trkpt lat="45.75654" lon="6.74205">
        <ele>2464</ele>
        <time>2026-07-29T07:26:21.716Z</time>
      </trkpt>
      <trkpt lat="45.75654" lon="6.74205">
        <ele>2464</ele>
        <time>2026-07-29T07:26:22.716Z</time>
      </trkpt>
      <trkpt lat="45.75654" lon="6.74206">
        <ele>2464</ele>
        <time>2026-07-29T07:26:23.716Z</time>
      </trkpt>
      <trkpt lat="45.75655" lon="6.74207">
        <ele>2464</ele>
        <time>2026-07-29T07:26:24.716Z</time>
      </trkpt>
      <trkpt lat="45.75655" lon="6.74207">
        <ele>2464</ele>
        <time>2026-07-29T07:26:25.716Z</time>
      </trkpt>
      <trkpt lat="45.75654" lon="6.74208">
        <ele>2465</ele>
        <time>2026-07-29T07:26:26.716Z</time>
      </trkpt>
      <trkpt lat="45.75654" lon="6.74208">
        <ele>2465</ele>
        <time>2026-07-29T07:26:27.716Z</time>
      </trkpt>
      <trkpt lat="45.75654" lon="6.74208">
        <ele>2466</ele>
        <time>2026-07-29T07:26:28.716Z</time>
      </trkpt>
      <trkpt lat="45.75654" lon="6.74208">
        <ele>2467</ele>
        <time>2026-07-29T07:26:29.716Z</time>
      </trkpt>
      <trkpt lat="45.75654" lon="6.74208">
        <ele>2467</ele>
        <time>2026-07-29T07:26:30.716Z</time>
      </trkpt>
      <trkpt lat="45.75654" lon="6.74208">
        <ele>2468</ele>
        <time>2026-07-29T07:26:31.716Z</time>
      </trkpt>
      <trkpt lat="45.75654" lon="6.74208">
        <ele>2468</ele>
        <time>2026-07-29T07:26:32.716Z</time>
      </trkpt>
      <trkpt lat="45.75654" lon="6.74208">
        <ele>2468</ele>
        <time>2026-07-29T07:26:33.716Z</time>
      </trkpt>
      <trkpt lat="45.75654" lon="6.74208">
        <ele>2468</ele>
        <time>2026-07-29T07:26:34.716Z</time>
      </trkpt>
      <trkpt lat="45.75654" lon="6.74208">
        <ele>2468</ele>
        <time>2026-07-29T07:26:35.716Z</time>
      </trkpt>
      <trkpt lat="45.75654" lon="6.74208">
        <ele>2468</ele>
        <time>2026-07-29T07:26:36.716Z</time>
      </trkpt>
      <trkpt lat="45.75654" lon="6.74208">
        <ele>2467</ele>
        <time>2026-07-29T07:26:37.716Z</time>
      </trkpt>
      <trkpt lat="45.75654" lon="6.74208">
        <ele>2467</ele>
        <time>2026-07-29T07:26:38.716Z</time>
      </trkpt>
      <trkpt lat="45.75654" lon="6.74208">
        <ele>2467</ele>
        <time>2026-07-29T07:26:39.716Z</time>
      </trkpt>
      <trkpt lat="45.75654" lon="6.74208">
        <ele>2467</ele>
        <time>2026-07-29T07:26:40.716Z</time>
      </trkpt>
      <trkpt lat="45.75654" lon="6.74208">
        <ele>2467</ele>
        <time>2026-07-29T07:26:41.716Z</time>
      </trkpt>
      <trkpt lat="45.75654" lon="6.74208">
        <ele>2467</ele>
        <time>2026-07-29T07:26:42.716Z</time>
      </trkpt>
      <trkpt lat="45.75654" lon="6.74208">
        <ele>2467</ele>
        <time>2026-07-29T07:26:43.716Z</time>
      </trkpt>
      <trkpt lat="45.75654" lon="6.74208">
        <ele>2467</ele>
        <time>2026-07-29T07:26:44.716Z</time>
      </trkpt>
      <trkpt lat="45.75654" lon="6.74208">
        <ele>2467</ele>
        <time>2026-07-29T07:26:45.716Z</time>
      </trkpt>
      <trkpt lat="45.75654" lon="6.74208">
        <ele>2467</ele>
        <time>2026-07-29T07:26:46.716Z</time>
      </trkpt>
      <trkpt lat="45.75654" lon="6.74208">
        <ele>2467</ele>
        <time>2026-07-29T07:26:47.716Z</time>
      </trkpt>
      <trkpt lat="45.75654" lon="6.74208">
        <ele>2467</ele>
        <time>2026-07-29T07:26:48.716Z</time>
      </trkpt>
      <trkpt lat="45.75654" lon="6.74208">
        <ele>2467</ele>
        <time>2026-07-29T07:26:49.716Z</time>
      </trkpt>
      <trkpt lat="45.75654" lon="6.74208">
        <ele>2466</ele>
        <time>2026-07-29T07:26:50.716Z</time>
      </trkpt>
      <trkpt lat="45.75654" lon="6.74208">
        <ele>2466</ele>
        <time>2026-07-29T07:26:51.716Z</time>
      </trkpt>
      <trkpt lat="45.75654" lon="6.74208">
        <ele>2466</ele>
        <time>2026-07-29T07:26:52.716Z</time>
      </trkpt>
      <trkpt lat="45.75654" lon="6.74208">
        <ele>2466</ele>
        <time>2026-07-29T07:26:53.716Z</time>
      </trkpt>
      <trkpt lat="45.75654" lon="6.74208">
        <ele>2466</ele>
        <time>2026-07-29T07:26:54.716Z</time>
      </trkpt>
      <trkpt lat="45.75654" lon="6.74209">
        <ele>2466</ele>
        <time>2026-07-29T07:26:55.716Z</time>
      </trkpt>
      <trkpt lat="45.75654" lon="6.74209">
        <ele>2466</ele>
        <time>2026-07-29T07:26:56.716Z</time>
      </trkpt>
      <trkpt lat="45.75655" lon="6.74209">
        <ele>2466</ele>
        <time>2026-07-29T07:26:57.716Z</time>
      </trkpt>
      <trkpt lat="45.75655" lon="6.74209">
        <ele>2466</ele>
        <time>2026-07-29T07:26:58.716Z</time>
      </trkpt>
      <trkpt lat="45.75655" lon="6.74209">
        <ele>2466</ele>
        <time>2026-07-29T07:26:59.716Z</time>
      </trkpt>
      <trkpt lat="45.75655" lon="6.74209">
        <ele>2466</ele>
        <time>2026-07-29T07:27:00.716Z</time>
      </trkpt>
      <trkpt lat="45.75655" lon="6.74209">
        <ele>2466</ele>
        <time>2026-07-29T07:27:01.716Z</time>
      </trkpt>
      <trkpt lat="45.75655" lon="6.74209">
        <ele>2466</ele>
        <time>2026-07-29T07:27:02.716Z</time>
      </trkpt>
      <trkpt lat="45.75655" lon="6.74209">
        <ele>2466</ele>
        <time>2026-07-29T07:27:03.716Z</time>
      </trkpt>
      <trkpt lat="45.75655" lon="6.74209">
        <ele>2466</ele>
        <time>2026-07-29T07:27:04.716Z</time>
      </trkpt>
      <trkpt lat="45.75655" lon="6.74209">
        <ele>2466</ele>
        <time>2026-07-29T07:27:05.716Z</time>
      </trkpt>
      <trkpt lat="45.75655" lon="6.74209">
        <ele>2466</ele>
        <time>2026-07-29T07:27:06.716Z</time>
      </trkpt>
      <trkpt lat="45.75655" lon="6.74209">
        <ele>2466</ele>
        <time>2026-07-29T07:27:07.716Z</time>
      </trkpt>
      <trkpt lat="45.75655" lon="6.74209">
        <ele>2466</ele>
        <time>2026-07-29T07:27:08.716Z</time>
      </trkpt>
      <trkpt lat="45.75655" lon="6.74209">
        <ele>2466</ele>
        <time>2026-07-29T07:27:09.716Z</time>
      </trkpt>
      <trkpt lat="45.75655" lon="6.74209">
        <ele>2466</ele>
        <time>2026-07-29T07:27:10.716Z</time>
      </trkpt>
      <trkpt lat="45.75655" lon="6.74209">
        <ele>2466</ele>
        <time>2026-07-29T07:27:11.716Z</time>
      </trkpt>
      <trkpt lat="45.75655" lon="6.74209">
        <ele>2466</ele>
        <time>2026-07-29T07:27:12.716Z</time>
      </trkpt>
      <trkpt lat="45.75655" lon="6.74209">
        <ele>2466</ele>
        <time>2026-07-29T07:27:13.716Z</time>
      </trkpt>
      <trkpt lat="45.75655" lon="6.74209">
        <ele>2466</ele>
        <time>2026-07-29T07:27:14.716Z</time>
      </trkpt>
      <trkpt lat="45.75655" lon="6.74209">
        <ele>2466</ele>
        <time>2026-07-29T07:27:15.716Z</time>
      </trkpt>
      <trkpt lat="45.75655" lon="6.74209">
        <ele>2466</ele>
        <time>2026-07-29T07:27:16.716Z</time>
      </trkpt>
      <trkpt lat="45.75654" lon="6.74209">
        <ele>2467</ele>
        <time>2026-07-29T07:27:17.716Z</time>
      </trkpt>
      <trkpt lat="45.75654" lon="6.74209">
        <ele>2467</ele>
        <time>2026-07-29T07:27:18.716Z</time>
      </trkpt>
      <trkpt lat="45.75654" lon="6.74209">
        <ele>2467</ele>
        <time>2026-07-29T07:27:19.716Z</time>
      </trkpt>
      <trkpt lat="45.75653" lon="6.74209">
        <ele>2467</ele>
        <time>2026-07-29T07:27:20.716Z</time>
      </trkpt>
      <trkpt lat="45.75652" lon="6.74209">
        <ele>2467</ele>
        <time>2026-07-29T07:27:21.716Z</time>
      </trkpt>
      <trkpt lat="45.75651" lon="6.74208">
        <ele>2467</ele>
        <time>2026-07-29T07:27:22.716Z</time>
      </trkpt>
      <trkpt lat="45.7565" lon="6.74208">
        <ele>2467</ele>
        <time>2026-07-29T07:27:23.716Z</time>
      </trkpt>
      <trkpt lat="45.75649" lon="6.74207">
        <ele>2467</ele>
        <time>2026-07-29T07:27:24.716Z</time>
      </trkpt>
      <trkpt lat="45.75648" lon="6.74206">
        <ele>2467</ele>
        <time>2026-07-29T07:27:25.716Z</time>
      </trkpt>
      <trkpt lat="45.75648" lon="6.74206">
        <ele>2467</ele>
        <time>2026-07-29T07:27:26.716Z</time>
      </trkpt>
      <trkpt lat="45.75647" lon="6.74205">
        <ele>2468</ele>
        <time>2026-07-29T07:27:27.716Z</time>
      </trkpt>
      <trkpt lat="45.75646" lon="6.74205">
        <ele>2468</ele>
        <time>2026-07-29T07:27:28.716Z</time>
      </trkpt>
      <trkpt lat="45.75645" lon="6.74205">
        <ele>2468</ele>
        <time>2026-07-29T07:27:29.716Z</time>
      </trkpt>
      <trkpt lat="45.75645" lon="6.74205">
        <ele>2469</ele>
        <time>2026-07-29T07:27:30.716Z</time>
      </trkpt>
      <trkpt lat="45.75644" lon="6.74205">
        <ele>2469</ele>
        <time>2026-07-29T07:27:31.716Z</time>
      </trkpt>
      <trkpt lat="45.75644" lon="6.74204">
        <ele>2469</ele>
        <time>2026-07-29T07:27:32.716Z</time>
      </trkpt>
      <trkpt lat="45.75643" lon="6.74204">
        <ele>2470</ele>
        <time>2026-07-29T07:27:33.716Z</time>
      </trkpt>
      <trkpt lat="45.75643" lon="6.74204">
        <ele>2470</ele>
        <time>2026-07-29T07:27:34.716Z</time>
      </trkpt>
      <trkpt lat="45.75642" lon="6.74205">
        <ele>2471</ele>
        <time>2026-07-29T07:27:35.716Z</time>
      </trkpt>
      <trkpt lat="45.75642" lon="6.74205">
        <ele>2471</ele>
        <time>2026-07-29T07:27:36.716Z</time>
      </trkpt>
      <trkpt lat="45.75641" lon="6.74204">
        <ele>2472</ele>
        <time>2026-07-29T07:27:37.716Z</time>
      </trkpt>
      <trkpt lat="45.75641" lon="6.74204">
        <ele>2472</ele>
        <time>2026-07-29T07:27:38.716Z</time>
      </trkpt>
      <trkpt lat="45.7564" lon="6.74204">
        <ele>2473</ele>
        <time>2026-07-29T07:27:39.716Z</time>
      </trkpt>
      <trkpt lat="45.7564" lon="6.74204">
        <ele>2473</ele>
        <time>2026-07-29T07:27:40.716Z</time>
      </trkpt>
      <trkpt lat="45.75639" lon="6.74203">
        <ele>2474</ele>
        <time>2026-07-29T07:27:41.716Z</time>
      </trkpt>
      <trkpt lat="45.75639" lon="6.74203">
        <ele>2474</ele>
        <time>2026-07-29T07:27:42.716Z</time>
      </trkpt>
      <trkpt lat="45.75638" lon="6.74203">
        <ele>2474</ele>
        <time>2026-07-29T07:27:43.716Z</time>
      </trkpt>
      <trkpt lat="45.75638" lon="6.74203">
        <ele>2475</ele>
        <time>2026-07-29T07:27:44.716Z</time>
      </trkpt>
      <trkpt lat="45.75638" lon="6.74203">
        <ele>2475</ele>
        <time>2026-07-29T07:27:45.716Z</time>
      </trkpt>
      <trkpt lat="45.75638" lon="6.74203">
        <ele>2475</ele>
        <time>2026-07-29T07:27:46.716Z</time>
      </trkpt>
      <trkpt lat="45.75638" lon="6.74203">
        <ele>2475</ele>
        <time>2026-07-29T07:27:47.716Z</time>
      </trkpt>
      <trkpt lat="45.75639" lon="6.74204">
        <ele>2476</ele>
        <time>2026-07-29T07:27:48.716Z</time>
      </trkpt>
      <trkpt lat="45.75639" lon="6.74205">
        <ele>2476</ele>
        <time>2026-07-29T07:27:49.716Z</time>
      </trkpt>
      <trkpt lat="45.75639" lon="6.74205">
        <ele>2476</ele>
        <time>2026-07-29T07:27:50.716Z</time>
      </trkpt>
      <trkpt lat="45.75639" lon="6.74206">
        <ele>2476</ele>
        <time>2026-07-29T07:27:51.716Z</time>
      </trkpt>
      <trkpt lat="45.75639" lon="6.74206">
        <ele>2476</ele>
        <time>2026-07-29T07:27:52.716Z</time>
      </trkpt>
      <trkpt lat="45.75639" lon="6.74207">
        <ele>2477</ele>
        <time>2026-07-29T07:27:53.716Z</time>
      </trkpt>
      <trkpt lat="45.75639" lon="6.74207">
        <ele>2477</ele>
        <time>2026-07-29T07:27:54.716Z</time>
      </trkpt>
      <trkpt lat="45.7564" lon="6.74208">
        <ele>2477</ele>
        <time>2026-07-29T07:27:55.716Z</time>
      </trkpt>
      <trkpt lat="45.75639" lon="6.74208">
        <ele>2477</ele>
        <time>2026-07-29T07:27:56.716Z</time>
      </trkpt>
      <trkpt lat="45.75639" lon="6.74209">
        <ele>2476</ele>
        <time>2026-07-29T07:27:57.716Z</time>
      </trkpt>
      <trkpt lat="45.75639" lon="6.74209">
        <ele>2476</ele>
        <time>2026-07-29T07:27:58.716Z</time>
      </trkpt>
      <trkpt lat="45.75638" lon="6.74209">
        <ele>2476</ele>
        <time>2026-07-29T07:27:59.716Z</time>
      </trkpt>
      <trkpt lat="45.75638" lon="6.74209">
        <ele>2476</ele>
        <time>2026-07-29T07:28:00.716Z</time>
      </trkpt>
      <trkpt lat="45.75637" lon="6.74209">
        <ele>2477</ele>
        <time>2026-07-29T07:28:01.716Z</time>
      </trkpt>
      <trkpt lat="45.75637" lon="6.74209">
        <ele>2477</ele>
        <time>2026-07-29T07:28:02.716Z</time>
      </trkpt>
      <trkpt lat="45.75637" lon="6.74209">
        <ele>2477</ele>
        <time>2026-07-29T07:28:03.716Z</time>
      </trkpt>
      <trkpt lat="45.75636" lon="6.74209">
        <ele>2478</ele>
        <time>2026-07-29T07:28:04.716Z</time>
      </trkpt>
      <trkpt lat="45.75636" lon="6.7421">
        <ele>2478</ele>
        <time>2026-07-29T07:28:05.716Z</time>
      </trkpt>
      <trkpt lat="45.75636" lon="6.7421">
        <ele>2478</ele>
        <time>2026-07-29T07:28:06.716Z</time>
      </trkpt>
      <trkpt lat="45.75636" lon="6.7421">
        <ele>2478</ele>
        <time>2026-07-29T07:28:07.716Z</time>
      </trkpt>
      <trkpt lat="45.75636" lon="6.7421">
        <ele>2478</ele>
        <time>2026-07-29T07:28:08.716Z</time>
      </trkpt>
      <trkpt lat="45.75637" lon="6.74211">
        <ele>2478</ele>
        <time>2026-07-29T07:28:09.716Z</time>
      </trkpt>
      <trkpt lat="45.75637" lon="6.74211">
        <ele>2478</ele>
        <time>2026-07-29T07:28:10.716Z</time>
      </trkpt>
      <trkpt lat="45.75637" lon="6.74212">
        <ele>2478</ele>
        <time>2026-07-29T07:28:11.716Z</time>
      </trkpt>
      <trkpt lat="45.75637" lon="6.74212">
        <ele>2479</ele>
        <time>2026-07-29T07:28:12.716Z</time>
      </trkpt>
      <trkpt lat="45.75637" lon="6.74213">
        <ele>2479</ele>
        <time>2026-07-29T07:28:13.716Z</time>
      </trkpt>
      <trkpt lat="45.75637" lon="6.74213">
        <ele>2479</ele>
        <time>2026-07-29T07:28:14.716Z</time>
      </trkpt>
      <trkpt lat="45.75638" lon="6.74214">
        <ele>2479</ele>
        <time>2026-07-29T07:28:15.716Z</time>
      </trkpt>
      <trkpt lat="45.75637" lon="6.74214">
        <ele>2480</ele>
        <time>2026-07-29T07:28:16.716Z</time>
      </trkpt>
      <trkpt lat="45.75637" lon="6.74214">
        <ele>2480</ele>
        <time>2026-07-29T07:28:17.716Z</time>
      </trkpt>
      <trkpt lat="45.75636" lon="6.74214">
        <ele>2481</ele>
        <time>2026-07-29T07:28:18.716Z</time>
      </trkpt>
      <trkpt lat="45.75635" lon="6.74214">
        <ele>2481</ele>
        <time>2026-07-29T07:28:19.716Z</time>
      </trkpt>
      <trkpt lat="45.75635" lon="6.74214">
        <ele>2482</ele>
        <time>2026-07-29T07:28:20.716Z</time>
      </trkpt>
      <trkpt lat="45.75634" lon="6.74214">
        <ele>2482</ele>
        <time>2026-07-29T07:28:21.716Z</time>
      </trkpt>
      <trkpt lat="45.75634" lon="6.74214">
        <ele>2482</ele>
        <time>2026-07-29T07:28:22.716Z</time>
      </trkpt>
      <trkpt lat="45.75634" lon="6.74215">
        <ele>2482</ele>
        <time>2026-07-29T07:28:23.716Z</time>
      </trkpt>
      <trkpt lat="45.75634" lon="6.74215">
        <ele>2482</ele>
        <time>2026-07-29T07:28:24.716Z</time>
      </trkpt>
      <trkpt lat="45.75634" lon="6.74215">
        <ele>2483</ele>
        <time>2026-07-29T07:28:25.716Z</time>
      </trkpt>
      <trkpt lat="45.75634" lon="6.74216">
        <ele>2483</ele>
        <time>2026-07-29T07:28:26.716Z</time>
      </trkpt>
      <trkpt lat="45.75634" lon="6.74216">
        <ele>2483</ele>
        <time>2026-07-29T07:28:27.716Z</time>
      </trkpt>
      <trkpt lat="45.75634" lon="6.74217">
        <ele>2484</ele>
        <time>2026-07-29T07:28:28.716Z</time>
      </trkpt>
      <trkpt lat="45.75634" lon="6.74217">
        <ele>2484</ele>
        <time>2026-07-29T07:28:29.716Z</time>
      </trkpt>
      <trkpt lat="45.75634" lon="6.74218">
        <ele>2484</ele>
        <time>2026-07-29T07:28:30.716Z</time>
      </trkpt>
      <trkpt lat="45.75634" lon="6.74218">
        <ele>2484</ele>
        <time>2026-07-29T07:28:31.716Z</time>
      </trkpt>
      <trkpt lat="45.75634" lon="6.74218">
        <ele>2484</ele>
        <time>2026-07-29T07:28:32.716Z</time>
      </trkpt>
      <trkpt lat="45.75635" lon="6.74219">
        <ele>2484</ele>
        <time>2026-07-29T07:28:33.716Z</time>
      </trkpt>
      <trkpt lat="45.75636" lon="6.7422">
        <ele>2484</ele>
        <time>2026-07-29T07:28:34.716Z</time>
      </trkpt>
      <trkpt lat="45.75636" lon="6.7422">
        <ele>2485</ele>
        <time>2026-07-29T07:28:35.716Z</time>
      </trkpt>
      <trkpt lat="45.75636" lon="6.74221">
        <ele>2485</ele>
        <time>2026-07-29T07:28:36.716Z</time>
      </trkpt>
      <trkpt lat="45.75637" lon="6.74221">
        <ele>2485</ele>
        <time>2026-07-29T07:28:37.716Z</time>
      </trkpt>
      <trkpt lat="45.75637" lon="6.74222">
        <ele>2485</ele>
        <time>2026-07-29T07:28:38.716Z</time>
      </trkpt>
      <trkpt lat="45.75636" lon="6.74222">
        <ele>2485</ele>
        <time>2026-07-29T07:28:39.716Z</time>
      </trkpt>
      <trkpt lat="45.75636" lon="6.74223">
        <ele>2486</ele>
        <time>2026-07-29T07:28:40.716Z</time>
      </trkpt>
      <trkpt lat="45.75636" lon="6.74223">
        <ele>2486</ele>
        <time>2026-07-29T07:28:41.716Z</time>
      </trkpt>
      <trkpt lat="45.75636" lon="6.74224">
        <ele>2486</ele>
        <time>2026-07-29T07:28:42.716Z</time>
      </trkpt>
      <trkpt lat="45.75636" lon="6.74224">
        <ele>2486</ele>
        <time>2026-07-29T07:28:43.716Z</time>
      </trkpt>
      <trkpt lat="45.75636" lon="6.74224">
        <ele>2486</ele>
        <time>2026-07-29T07:28:44.716Z</time>
      </trkpt>
      <trkpt lat="45.75636" lon="6.74225">
        <ele>2486</ele>
        <time>2026-07-29T07:28:45.716Z</time>
      </trkpt>
      <trkpt lat="45.75636" lon="6.74226">
        <ele>2487</ele>
        <time>2026-07-29T07:28:46.716Z</time>
      </trkpt>
      <trkpt lat="45.75636" lon="6.74226">
        <ele>2488</ele>
        <time>2026-07-29T07:28:47.716Z</time>
      </trkpt>
      <trkpt lat="45.75636" lon="6.74227">
        <ele>2488</ele>
        <time>2026-07-29T07:28:48.716Z</time>
      </trkpt>
      <trkpt lat="45.75636" lon="6.74227">
        <ele>2488</ele>
        <time>2026-07-29T07:28:49.716Z</time>
      </trkpt>
      <trkpt lat="45.75636" lon="6.74227">
        <ele>2489</ele>
        <time>2026-07-29T07:28:50.716Z</time>
      </trkpt>
      <trkpt lat="45.75636" lon="6.74228">
        <ele>2489</ele>
        <time>2026-07-29T07:28:51.716Z</time>
      </trkpt>
      <trkpt lat="45.75636" lon="6.74228">
        <ele>2489</ele>
        <time>2026-07-29T07:28:52.716Z</time>
      </trkpt>
      <trkpt lat="45.75637" lon="6.74229">
        <ele>2489</ele>
        <time>2026-07-29T07:28:53.716Z</time>
      </trkpt>
      <trkpt lat="45.75637" lon="6.7423">
        <ele>2489</ele>
        <time>2026-07-29T07:28:54.716Z</time>
      </trkpt>
      <trkpt lat="45.75637" lon="6.7423">
        <ele>2490</ele>
        <time>2026-07-29T07:28:55.716Z</time>
      </trkpt>
      <trkpt lat="45.75637" lon="6.74231">
        <ele>2490</ele>
        <time>2026-07-29T07:28:56.716Z</time>
      </trkpt>
      <trkpt lat="45.75637" lon="6.74232">
        <ele>2490</ele>
        <time>2026-07-29T07:28:57.716Z</time>
      </trkpt>
      <trkpt lat="45.75638" lon="6.74233">
        <ele>2490</ele>
        <time>2026-07-29T07:28:58.716Z</time>
      </trkpt>
      <trkpt lat="45.75638" lon="6.74234">
        <ele>2490</ele>
        <time>2026-07-29T07:28:59.716Z</time>
      </trkpt>
      <trkpt lat="45.75638" lon="6.74234">
        <ele>2490</ele>
        <time>2026-07-29T07:29:00.716Z</time>
      </trkpt>
      <trkpt lat="45.75638" lon="6.74235">
        <ele>2491</ele>
        <time>2026-07-29T07:29:01.716Z</time>
      </trkpt>
      <trkpt lat="45.75639" lon="6.74235">
        <ele>2491</ele>
        <time>2026-07-29T07:29:02.716Z</time>
      </trkpt>
      <trkpt lat="45.75639" lon="6.74236">
        <ele>2491</ele>
        <time>2026-07-29T07:29:03.716Z</time>
      </trkpt>
      <trkpt lat="45.75639" lon="6.74237">
        <ele>2491</ele>
        <time>2026-07-29T07:29:04.716Z</time>
      </trkpt>
      <trkpt lat="45.7564" lon="6.74237">
        <ele>2491</ele>
        <time>2026-07-29T07:29:05.716Z</time>
      </trkpt>
      <trkpt lat="45.7564" lon="6.74238">
        <ele>2492</ele>
        <time>2026-07-29T07:29:06.716Z</time>
      </trkpt>
      <trkpt lat="45.7564" lon="6.74238">
        <ele>2492</ele>
        <time>2026-07-29T07:29:07.716Z</time>
      </trkpt>
      <trkpt lat="45.7564" lon="6.74239">
        <ele>2492</ele>
        <time>2026-07-29T07:29:08.716Z</time>
      </trkpt>
      <trkpt lat="45.7564" lon="6.7424">
        <ele>2493</ele>
        <time>2026-07-29T07:29:09.716Z</time>
      </trkpt>
      <trkpt lat="45.7564" lon="6.7424">
        <ele>2493</ele>
        <time>2026-07-29T07:29:10.716Z</time>
      </trkpt>
      <trkpt lat="45.7564" lon="6.7424">
        <ele>2493</ele>
        <time>2026-07-29T07:29:11.716Z</time>
      </trkpt>
      <trkpt lat="45.75639" lon="6.7424">
        <ele>2493</ele>
        <time>2026-07-29T07:29:12.716Z</time>
      </trkpt>
      <trkpt lat="45.75639" lon="6.7424">
        <ele>2493</ele>
        <time>2026-07-29T07:29:13.716Z</time>
      </trkpt>
      <trkpt lat="45.75639" lon="6.7424">
        <ele>2493</ele>
        <time>2026-07-29T07:29:14.716Z</time>
      </trkpt>
      <trkpt lat="45.75638" lon="6.74239">
        <ele>2493</ele>
        <time>2026-07-29T07:29:15.716Z</time>
      </trkpt>
      <trkpt lat="45.75637" lon="6.74239">
        <ele>2494</ele>
        <time>2026-07-29T07:29:16.716Z</time>
      </trkpt>
      <trkpt lat="45.75637" lon="6.74239">
        <ele>2494</ele>
        <time>2026-07-29T07:29:17.716Z</time>
      </trkpt>
      <trkpt lat="45.75636" lon="6.74239">
        <ele>2495</ele>
        <time>2026-07-29T07:29:18.716Z</time>
      </trkpt>
      <trkpt lat="45.75636" lon="6.74239">
        <ele>2495</ele>
        <time>2026-07-29T07:29:19.716Z</time>
      </trkpt>
      <trkpt lat="45.75636" lon="6.7424">
        <ele>2495</ele>
        <time>2026-07-29T07:29:20.716Z</time>
      </trkpt>
      <trkpt lat="45.75636" lon="6.7424">
        <ele>2495</ele>
        <time>2026-07-29T07:29:21.716Z</time>
      </trkpt>
      <trkpt lat="45.75636" lon="6.7424">
        <ele>2495</ele>
        <time>2026-07-29T07:29:22.716Z</time>
      </trkpt>
      <trkpt lat="45.75635" lon="6.7424">
        <ele>2495</ele>
        <time>2026-07-29T07:29:23.716Z</time>
      </trkpt>
      <trkpt lat="45.75635" lon="6.7424">
        <ele>2496</ele>
        <time>2026-07-29T07:29:24.716Z</time>
      </trkpt>
      <trkpt lat="45.75635" lon="6.7424">
        <ele>2495</ele>
        <time>2026-07-29T07:29:25.716Z</time>
      </trkpt>
      <trkpt lat="45.75634" lon="6.7424">
        <ele>2495</ele>
        <time>2026-07-29T07:29:26.716Z</time>
      </trkpt>
      <trkpt lat="45.75634" lon="6.7424">
        <ele>2495</ele>
        <time>2026-07-29T07:29:27.716Z</time>
      </trkpt>
      <trkpt lat="45.75634" lon="6.7424">
        <ele>2495</ele>
        <time>2026-07-29T07:29:28.716Z</time>
      </trkpt>
      <trkpt lat="45.75634" lon="6.7424">
        <ele>2495</ele>
        <time>2026-07-29T07:29:29.716Z</time>
      </trkpt>
      <trkpt lat="45.75634" lon="6.7424">
        <ele>2495</ele>
        <time>2026-07-29T07:29:30.716Z</time>
      </trkpt>
      <trkpt lat="45.75633" lon="6.7424">
        <ele>2496</ele>
        <time>2026-07-29T07:29:31.716Z</time>
      </trkpt>
      <trkpt lat="45.75633" lon="6.74241">
        <ele>2496</ele>
        <time>2026-07-29T07:29:32.716Z</time>
      </trkpt>
      <trkpt lat="45.75633" lon="6.74241">
        <ele>2497</ele>
        <time>2026-07-29T07:29:33.716Z</time>
      </trkpt>
      <trkpt lat="45.75633" lon="6.74242">
        <ele>2497</ele>
        <time>2026-07-29T07:29:34.716Z</time>
      </trkpt>
      <trkpt lat="45.75634" lon="6.74242">
        <ele>2497</ele>
        <time>2026-07-29T07:29:35.716Z</time>
      </trkpt>
      <trkpt lat="45.75634" lon="6.74243">
        <ele>2498</ele>
        <time>2026-07-29T07:29:36.716Z</time>
      </trkpt>
      <trkpt lat="45.75634" lon="6.74243">
        <ele>2498</ele>
        <time>2026-07-29T07:29:37.716Z</time>
      </trkpt>
      <trkpt lat="45.75633" lon="6.74244">
        <ele>2498</ele>
        <time>2026-07-29T07:29:38.716Z</time>
      </trkpt>
      <trkpt lat="45.75633" lon="6.74244">
        <ele>2498</ele>
        <time>2026-07-29T07:29:39.716Z</time>
      </trkpt>
      <trkpt lat="45.75633" lon="6.74244">
        <ele>2498</ele>
        <time>2026-07-29T07:29:40.716Z</time>
      </trkpt>
      <trkpt lat="45.75632" lon="6.74244">
        <ele>2498</ele>
        <time>2026-07-29T07:29:41.716Z</time>
      </trkpt>
      <trkpt lat="45.75632" lon="6.74244">
        <ele>2499</ele>
        <time>2026-07-29T07:29:42.716Z</time>
      </trkpt>
      <trkpt lat="45.75632" lon="6.74244">
        <ele>2499</ele>
        <time>2026-07-29T07:29:43.716Z</time>
      </trkpt>
      <trkpt lat="45.75632" lon="6.74244">
        <ele>2499</ele>
        <time>2026-07-29T07:29:44.716Z</time>
      </trkpt>
      <trkpt lat="45.75632" lon="6.74245">
        <ele>2499</ele>
        <time>2026-07-29T07:29:45.716Z</time>
      </trkpt>
      <trkpt lat="45.75632" lon="6.74245">
        <ele>2499</ele>
        <time>2026-07-29T07:29:46.716Z</time>
      </trkpt>
      <trkpt lat="45.75632" lon="6.74246">
        <ele>2499</ele>
        <time>2026-07-29T07:29:47.716Z</time>
      </trkpt>
      <trkpt lat="45.75632" lon="6.74247">
        <ele>2499</ele>
        <time>2026-07-29T07:29:48.716Z</time>
      </trkpt>
      <trkpt lat="45.75632" lon="6.74247">
        <ele>2500</ele>
        <time>2026-07-29T07:29:49.716Z</time>
      </trkpt>
      <trkpt lat="45.75632" lon="6.74248">
        <ele>2500</ele>
        <time>2026-07-29T07:29:50.716Z</time>
      </trkpt>
      <trkpt lat="45.75632" lon="6.74248">
        <ele>2500</ele>
        <time>2026-07-29T07:29:51.716Z</time>
      </trkpt>
      <trkpt lat="45.75632" lon="6.74248">
        <ele>2501</ele>
        <time>2026-07-29T07:29:52.716Z</time>
      </trkpt>
      <trkpt lat="45.75632" lon="6.74249">
        <ele>2501</ele>
        <time>2026-07-29T07:29:53.716Z</time>
      </trkpt>
      <trkpt lat="45.75633" lon="6.74249">
        <ele>2501</ele>
        <time>2026-07-29T07:29:54.716Z</time>
      </trkpt>
      <trkpt lat="45.75632" lon="6.74249">
        <ele>2501</ele>
        <time>2026-07-29T07:29:55.716Z</time>
      </trkpt>
      <trkpt lat="45.75632" lon="6.7425">
        <ele>2502</ele>
        <time>2026-07-29T07:29:56.716Z</time>
      </trkpt>
      <trkpt lat="45.75632" lon="6.74251">
        <ele>2502</ele>
        <time>2026-07-29T07:29:57.716Z</time>
      </trkpt>
      <trkpt lat="45.75631" lon="6.74251">
        <ele>2503</ele>
        <time>2026-07-29T07:29:58.716Z</time>
      </trkpt>
      <trkpt lat="45.75631" lon="6.74251">
        <ele>2503</ele>
        <time>2026-07-29T07:29:59.716Z</time>
      </trkpt>
      <trkpt lat="45.75631" lon="6.74251">
        <ele>2504</ele>
        <time>2026-07-29T07:30:00.716Z</time>
      </trkpt>
      <trkpt lat="45.75631" lon="6.74251">
        <ele>2504</ele>
        <time>2026-07-29T07:30:01.716Z</time>
      </trkpt>
      <trkpt lat="45.75631" lon="6.74251">
        <ele>2504</ele>
        <time>2026-07-29T07:30:02.716Z</time>
      </trkpt>
      <trkpt lat="45.75631" lon="6.74251">
        <ele>2504</ele>
        <time>2026-07-29T07:30:03.716Z</time>
      </trkpt>
      <trkpt lat="45.75631" lon="6.74251">
        <ele>2505</ele>
        <time>2026-07-29T07:30:04.716Z</time>
      </trkpt>
      <trkpt lat="45.75631" lon="6.74251">
        <ele>2505</ele>
        <time>2026-07-29T07:30:05.716Z</time>
      </trkpt>
      <trkpt lat="45.75631" lon="6.74251">
        <ele>2505</ele>
        <time>2026-07-29T07:30:06.716Z</time>
      </trkpt>
      <trkpt lat="45.75631" lon="6.74251">
        <ele>2505</ele>
        <time>2026-07-29T07:30:07.716Z</time>
      </trkpt>
      <trkpt lat="45.75631" lon="6.74251">
        <ele>2505</ele>
        <time>2026-07-29T07:30:08.716Z</time>
      </trkpt>
      <trkpt lat="45.75631" lon="6.74251">
        <ele>2505</ele>
        <time>2026-07-29T07:30:09.716Z</time>
      </trkpt>
      <trkpt lat="45.75631" lon="6.74251">
        <ele>2506</ele>
        <time>2026-07-29T07:30:10.716Z</time>
      </trkpt>
      <trkpt lat="45.75631" lon="6.74251">
        <ele>2506</ele>
        <time>2026-07-29T07:30:11.716Z</time>
      </trkpt>
      <trkpt lat="45.75631" lon="6.74251">
        <ele>2506</ele>
        <time>2026-07-29T07:30:12.716Z</time>
      </trkpt>
      <trkpt lat="45.75631" lon="6.74251">
        <ele>2506</ele>
        <time>2026-07-29T07:30:13.716Z</time>
      </trkpt>
      <trkpt lat="45.75631" lon="6.74251">
        <ele>2506</ele>
        <time>2026-07-29T07:30:14.716Z</time>
      </trkpt>
      <trkpt lat="45.75632" lon="6.74251">
        <ele>2506</ele>
        <time>2026-07-29T07:30:15.716Z</time>
      </trkpt>
      <trkpt lat="45.75632" lon="6.74251">
        <ele>2506</ele>
        <time>2026-07-29T07:30:16.716Z</time>
      </trkpt>
      <trkpt lat="45.75632" lon="6.74251">
        <ele>2506</ele>
        <time>2026-07-29T07:30:17.716Z</time>
      </trkpt>
      <trkpt lat="45.75632" lon="6.74251">
        <ele>2506</ele>
        <time>2026-07-29T07:30:18.716Z</time>
      </trkpt>
      <trkpt lat="45.75632" lon="6.74252">
        <ele>2506</ele>
        <time>2026-07-29T07:30:19.716Z</time>
      </trkpt>
      <trkpt lat="45.75632" lon="6.74252">
        <ele>2506</ele>
        <time>2026-07-29T07:30:20.716Z</time>
      </trkpt>
      <trkpt lat="45.75632" lon="6.74253">
        <ele>2506</ele>
        <time>2026-07-29T07:30:21.716Z</time>
      </trkpt>
      <trkpt lat="45.75632" lon="6.74253">
        <ele>2506</ele>
        <time>2026-07-29T07:30:22.716Z</time>
      </trkpt>
      <trkpt lat="45.75632" lon="6.74254">
        <ele>2506</ele>
        <time>2026-07-29T07:30:23.716Z</time>
      </trkpt>
      <trkpt lat="45.75632" lon="6.74254">
        <ele>2506</ele>
        <time>2026-07-29T07:30:24.716Z</time>
      </trkpt>
      <trkpt lat="45.75631" lon="6.74255">
        <ele>2506</ele>
        <time>2026-07-29T07:30:25.716Z</time>
      </trkpt>
      <trkpt lat="45.75631" lon="6.74255">
        <ele>2506</ele>
        <time>2026-07-29T07:30:26.716Z</time>
      </trkpt>
      <trkpt lat="45.75631" lon="6.74255">
        <ele>2506</ele>
        <time>2026-07-29T07:30:27.716Z</time>
      </trkpt>
      <trkpt lat="45.75631" lon="6.74255">
        <ele>2506</ele>
        <time>2026-07-29T07:30:28.716Z</time>
      </trkpt>
      <trkpt lat="45.75631" lon="6.74255">
        <ele>2506</ele>
        <time>2026-07-29T07:30:29.716Z</time>
      </trkpt>
      <trkpt lat="45.75631" lon="6.74255">
        <ele>2506</ele>
        <time>2026-07-29T07:30:30.716Z</time>
      </trkpt>
      <trkpt lat="45.75631" lon="6.74255">
        <ele>2506</ele>
        <time>2026-07-29T07:30:31.716Z</time>
      </trkpt>
      <trkpt lat="45.75631" lon="6.74256">
        <ele>2507</ele>
        <time>2026-07-29T07:30:32.716Z</time>
      </trkpt>
      <trkpt lat="45.75631" lon="6.74256">
        <ele>2507</ele>
        <time>2026-07-29T07:30:33.716Z</time>
      </trkpt>
      <trkpt lat="45.75631" lon="6.74256">
        <ele>2507</ele>
        <time>2026-07-29T07:30:34.716Z</time>
      </trkpt>
      <trkpt lat="45.75631" lon="6.74256">
        <ele>2507</ele>
        <time>2026-07-29T07:30:35.716Z</time>
      </trkpt>
      <trkpt lat="45.75631" lon="6.74256">
        <ele>2507</ele>
        <time>2026-07-29T07:30:36.716Z</time>
      </trkpt>
      <trkpt lat="45.75631" lon="6.74256">
        <ele>2507</ele>
        <time>2026-07-29T07:30:37.716Z</time>
      </trkpt>
      <trkpt lat="45.75631" lon="6.74256">
        <ele>2507</ele>
        <time>2026-07-29T07:30:38.716Z</time>
      </trkpt>
      <trkpt lat="45.75631" lon="6.74256">
        <ele>2507</ele>
        <time>2026-07-29T07:30:39.716Z</time>
      </trkpt>
      <trkpt lat="45.75631" lon="6.74256">
        <ele>2507</ele>
        <time>2026-07-29T07:30:40.716Z</time>
      </trkpt>
      <trkpt lat="45.75631" lon="6.74256">
        <ele>2507</ele>
        <time>2026-07-29T07:30:41.716Z</time>
      </trkpt>
      <trkpt lat="45.75631" lon="6.74256">
        <ele>2507</ele>
        <time>2026-07-29T07:30:42.716Z</time>
      </trkpt>
      <trkpt lat="45.75631" lon="6.74256">
        <ele>2507</ele>
        <time>2026-07-29T07:30:43.716Z</time>
      </trkpt>
      <trkpt lat="45.7563" lon="6.74256">
        <ele>2507</ele>
        <time>2026-07-29T07:30:44.716Z</time>
      </trkpt>
      <trkpt lat="45.7563" lon="6.74256">
        <ele>2507</ele>
        <time>2026-07-29T07:30:45.716Z</time>
      </trkpt>
      <trkpt lat="45.7563" lon="6.74256">
        <ele>2507</ele>
        <time>2026-07-29T07:30:46.716Z</time>
      </trkpt>
      <trkpt lat="45.7563" lon="6.74256">
        <ele>2507</ele>
        <time>2026-07-29T07:30:47.716Z</time>
      </trkpt>
      <trkpt lat="45.7563" lon="6.74257">
        <ele>2507</ele>
        <time>2026-07-29T07:30:48.716Z</time>
      </trkpt>
      <trkpt lat="45.7563" lon="6.74257">
        <ele>2507</ele>
        <time>2026-07-29T07:30:49.716Z</time>
      </trkpt>
      <trkpt lat="45.7563" lon="6.74257">
        <ele>2507</ele>
        <time>2026-07-29T07:30:50.716Z</time>
      </trkpt>
      <trkpt lat="45.7563" lon="6.74257">
        <ele>2507</ele>
        <time>2026-07-29T07:30:51.716Z</time>
      </trkpt>
      <trkpt lat="45.7563" lon="6.74257">
        <ele>2507</ele>
        <time>2026-07-29T07:30:52.716Z</time>
      </trkpt>
      <trkpt lat="45.7563" lon="6.74257">
        <ele>2507</ele>
        <time>2026-07-29T07:30:53.716Z</time>
      </trkpt>
      <trkpt lat="45.7563" lon="6.74257">
        <ele>2507</ele>
        <time>2026-07-29T07:30:54.716Z</time>
      </trkpt>
      <trkpt lat="45.75629" lon="6.74257">
        <ele>2507</ele>
        <time>2026-07-29T07:30:55.716Z</time>
      </trkpt>
      <trkpt lat="45.75629" lon="6.74257">
        <ele>2507</ele>
        <time>2026-07-29T07:30:56.716Z</time>
      </trkpt>
      <trkpt lat="45.75629" lon="6.74257">
        <ele>2507</ele>
        <time>2026-07-29T07:30:57.716Z</time>
      </trkpt>
      <trkpt lat="45.75629" lon="6.74257">
        <ele>2507</ele>
        <time>2026-07-29T07:30:58.716Z</time>
      </trkpt>
      <trkpt lat="45.75629" lon="6.74257">
        <ele>2507</ele>
        <time>2026-07-29T07:30:59.716Z</time>
      </trkpt>
      <trkpt lat="45.75629" lon="6.74257">
        <ele>2507</ele>
        <time>2026-07-29T07:31:00.716Z</time>
      </trkpt>
      <trkpt lat="45.75628" lon="6.74257">
        <ele>2507</ele>
        <time>2026-07-29T07:31:01.716Z</time>
      </trkpt>
      <trkpt lat="45.75627" lon="6.74257">
        <ele>2507</ele>
        <time>2026-07-29T07:31:02.716Z</time>
      </trkpt>
      <trkpt lat="45.75626" lon="6.74256">
        <ele>2507</ele>
        <time>2026-07-29T07:31:03.716Z</time>
      </trkpt>
      <trkpt lat="45.75625" lon="6.74255">
        <ele>2507</ele>
        <time>2026-07-29T07:31:04.716Z</time>
      </trkpt>
      <trkpt lat="45.75624" lon="6.74255">
        <ele>2508</ele>
        <time>2026-07-29T07:31:05.716Z</time>
      </trkpt>
      <trkpt lat="45.75623" lon="6.74255">
        <ele>2509</ele>
        <time>2026-07-29T07:31:06.716Z</time>
      </trkpt>
      <trkpt lat="45.75622" lon="6.74255">
        <ele>2509</ele>
        <time>2026-07-29T07:31:07.716Z</time>
      </trkpt>
      <trkpt lat="45.75621" lon="6.74255">
        <ele>2510</ele>
        <time>2026-07-29T07:31:08.716Z</time>
      </trkpt>
      <trkpt lat="45.7562" lon="6.74255">
        <ele>2510</ele>
        <time>2026-07-29T07:31:09.716Z</time>
      </trkpt>
      <trkpt lat="45.75618" lon="6.74254">
        <ele>2510</ele>
        <time>2026-07-29T07:31:10.716Z</time>
      </trkpt>
      <trkpt lat="45.75618" lon="6.74254">
        <ele>2510</ele>
        <time>2026-07-29T07:31:11.716Z</time>
      </trkpt>
      <trkpt lat="45.75618" lon="6.74255">
        <ele>2510</ele>
        <time>2026-07-29T07:31:12.716Z</time>
      </trkpt>
      <trkpt lat="45.75618" lon="6.74256">
        <ele>2511</ele>
        <time>2026-07-29T07:31:13.716Z</time>
      </trkpt>
      <trkpt lat="45.75618" lon="6.74256">
        <ele>2511</ele>
        <time>2026-07-29T07:31:14.716Z</time>
      </trkpt>
      <trkpt lat="45.75617" lon="6.74256">
        <ele>2512</ele>
        <time>2026-07-29T07:31:15.716Z</time>
      </trkpt>
      <trkpt lat="45.75617" lon="6.74256">
        <ele>2513</ele>
        <time>2026-07-29T07:31:16.716Z</time>
      </trkpt>
      <trkpt lat="45.75617" lon="6.74255">
        <ele>2513</ele>
        <time>2026-07-29T07:31:17.716Z</time>
      </trkpt>
      <trkpt lat="45.75616" lon="6.74255">
        <ele>2514</ele>
        <time>2026-07-29T07:31:18.716Z</time>
      </trkpt>
      <trkpt lat="45.75616" lon="6.74255">
        <ele>2514</ele>
        <time>2026-07-29T07:31:19.716Z</time>
      </trkpt>
      <trkpt lat="45.75616" lon="6.74254">
        <ele>2515</ele>
        <time>2026-07-29T07:31:20.716Z</time>
      </trkpt>
      <trkpt lat="45.75615" lon="6.74254">
        <ele>2515</ele>
        <time>2026-07-29T07:31:21.716Z</time>
      </trkpt>
      <trkpt lat="45.75615" lon="6.74254">
        <ele>2516</ele>
        <time>2026-07-29T07:31:22.716Z</time>
      </trkpt>
      <trkpt lat="45.75615" lon="6.74253">
        <ele>2516</ele>
        <time>2026-07-29T07:31:23.716Z</time>
      </trkpt>
      <trkpt lat="45.75614" lon="6.74253">
        <ele>2516</ele>
        <time>2026-07-29T07:31:24.716Z</time>
      </trkpt>
      <trkpt lat="45.75614" lon="6.74253">
        <ele>2517</ele>
        <time>2026-07-29T07:31:25.716Z</time>
      </trkpt>
      <trkpt lat="45.75614" lon="6.74252">
        <ele>2517</ele>
        <time>2026-07-29T07:31:26.716Z</time>
      </trkpt>
      <trkpt lat="45.75613" lon="6.74252">
        <ele>2517</ele>
        <time>2026-07-29T07:31:27.716Z</time>
      </trkpt>
      <trkpt lat="45.75613" lon="6.74251">
        <ele>2517</ele>
        <time>2026-07-29T07:31:28.716Z</time>
      </trkpt>
      <trkpt lat="45.75612" lon="6.74251">
        <ele>2517</ele>
        <time>2026-07-29T07:31:29.716Z</time>
      </trkpt>
      <trkpt lat="45.75612" lon="6.74251">
        <ele>2518</ele>
        <time>2026-07-29T07:31:30.716Z</time>
      </trkpt>
      <trkpt lat="45.75612" lon="6.74251">
        <ele>2518</ele>
        <time>2026-07-29T07:31:31.716Z</time>
      </trkpt>
      <trkpt lat="45.75612" lon="6.74251">
        <ele>2518</ele>
        <time>2026-07-29T07:31:32.716Z</time>
      </trkpt>
      <trkpt lat="45.75611" lon="6.74251">
        <ele>2518</ele>
        <time>2026-07-29T07:31:33.716Z</time>
      </trkpt>
      <trkpt lat="45.75611" lon="6.74252">
        <ele>2518</ele>
        <time>2026-07-29T07:31:34.716Z</time>
      </trkpt>
      <trkpt lat="45.75611" lon="6.74252">
        <ele>2518</ele>
        <time>2026-07-29T07:31:35.716Z</time>
      </trkpt>
      <trkpt lat="45.75611" lon="6.74252">
        <ele>2518</ele>
        <time>2026-07-29T07:31:36.716Z</time>
      </trkpt>
      <trkpt lat="45.7561" lon="6.74252">
        <ele>2519</ele>
        <time>2026-07-29T07:31:37.716Z</time>
      </trkpt>
      <trkpt lat="45.75609" lon="6.74252">
        <ele>2519</ele>
        <time>2026-07-29T07:31:38.716Z</time>
      </trkpt>
      <trkpt lat="45.75609" lon="6.74251">
        <ele>2520</ele>
        <time>2026-07-29T07:31:39.716Z</time>
      </trkpt>
      <trkpt lat="45.75609" lon="6.74251">
        <ele>2521</ele>
        <time>2026-07-29T07:31:40.716Z</time>
      </trkpt>
      <trkpt lat="45.75608" lon="6.74251">
        <ele>2521</ele>
        <time>2026-07-29T07:31:41.716Z</time>
      </trkpt>
      <trkpt lat="45.75608" lon="6.74252">
        <ele>2522</ele>
        <time>2026-07-29T07:31:42.716Z</time>
      </trkpt>
      <trkpt lat="45.75608" lon="6.74252">
        <ele>2522</ele>
        <time>2026-07-29T07:31:43.716Z</time>
      </trkpt>
      <trkpt lat="45.75608" lon="6.74253">
        <ele>2523</ele>
        <time>2026-07-29T07:31:44.716Z</time>
      </trkpt>
      <trkpt lat="45.75608" lon="6.74253">
        <ele>2523</ele>
        <time>2026-07-29T07:31:45.716Z</time>
      </trkpt>
      <trkpt lat="45.75608" lon="6.74254">
        <ele>2524</ele>
        <time>2026-07-29T07:31:46.716Z</time>
      </trkpt>
      <trkpt lat="45.75608" lon="6.74255">
        <ele>2524</ele>
        <time>2026-07-29T07:31:47.716Z</time>
      </trkpt>
      <trkpt lat="45.75608" lon="6.74256">
        <ele>2524</ele>
        <time>2026-07-29T07:31:48.716Z</time>
      </trkpt>
      <trkpt lat="45.75608" lon="6.74256">
        <ele>2524</ele>
        <time>2026-07-29T07:31:49.716Z</time>
      </trkpt>
      <trkpt lat="45.75608" lon="6.74255">
        <ele>2524</ele>
        <time>2026-07-29T07:31:50.716Z</time>
      </trkpt>
      <trkpt lat="45.75608" lon="6.74255">
        <ele>2524</ele>
        <time>2026-07-29T07:31:51.716Z</time>
      </trkpt>
      <trkpt lat="45.75608" lon="6.74255">
        <ele>2524</ele>
        <time>2026-07-29T07:31:52.716Z</time>
      </trkpt>
      <trkpt lat="45.75608" lon="6.74255">
        <ele>2525</ele>
        <time>2026-07-29T07:31:53.716Z</time>
      </trkpt>
      <trkpt lat="45.75608" lon="6.74255">
        <ele>2525</ele>
        <time>2026-07-29T07:31:54.716Z</time>
      </trkpt>
      <trkpt lat="45.75608" lon="6.74255">
        <ele>2525</ele>
        <time>2026-07-29T07:31:55.716Z</time>
      </trkpt>
      <trkpt lat="45.75608" lon="6.74255">
        <ele>2525</ele>
        <time>2026-07-29T07:31:56.716Z</time>
      </trkpt>
      <trkpt lat="45.75608" lon="6.74255">
        <ele>2525</ele>
        <time>2026-07-29T07:31:57.716Z</time>
      </trkpt>
      <trkpt lat="45.75608" lon="6.74255">
        <ele>2526</ele>
        <time>2026-07-29T07:31:58.716Z</time>
      </trkpt>
      <trkpt lat="45.75608" lon="6.74255">
        <ele>2526</ele>
        <time>2026-07-29T07:31:59.716Z</time>
      </trkpt>
      <trkpt lat="45.75608" lon="6.74255">
        <ele>2526</ele>
        <time>2026-07-29T07:32:00.716Z</time>
      </trkpt>
      <trkpt lat="45.75608" lon="6.74255">
        <ele>2526</ele>
        <time>2026-07-29T07:32:01.716Z</time>
      </trkpt>
      <trkpt lat="45.75608" lon="6.74255">
        <ele>2526</ele>
        <time>2026-07-29T07:32:02.716Z</time>
      </trkpt>
      <trkpt lat="45.75608" lon="6.74255">
        <ele>2527</ele>
        <time>2026-07-29T07:32:03.716Z</time>
      </trkpt>
      <trkpt lat="45.75608" lon="6.74255">
        <ele>2527</ele>
        <time>2026-07-29T07:32:04.716Z</time>
      </trkpt>
      <trkpt lat="45.75608" lon="6.74255">
        <ele>2527</ele>
        <time>2026-07-29T07:32:05.716Z</time>
      </trkpt>
      <trkpt lat="45.75608" lon="6.74256">
        <ele>2527</ele>
        <time>2026-07-29T07:32:06.716Z</time>
      </trkpt>
      <trkpt lat="45.75607" lon="6.74256">
        <ele>2527</ele>
        <time>2026-07-29T07:32:07.716Z</time>
      </trkpt>
      <trkpt lat="45.75607" lon="6.74256">
        <ele>2527</ele>
        <time>2026-07-29T07:32:08.716Z</time>
      </trkpt>
      <trkpt lat="45.75607" lon="6.74256">
        <ele>2527</ele>
        <time>2026-07-29T07:32:09.716Z</time>
      </trkpt>
      <trkpt lat="45.75607" lon="6.74256">
        <ele>2527</ele>
        <time>2026-07-29T07:32:10.716Z</time>
      </trkpt>
      <trkpt lat="45.75607" lon="6.74256">
        <ele>2527</ele>
        <time>2026-07-29T07:32:11.716Z</time>
      </trkpt>
      <trkpt lat="45.75607" lon="6.74256">
        <ele>2528</ele>
        <time>2026-07-29T07:32:12.716Z</time>
      </trkpt>
      <trkpt lat="45.75607" lon="6.74256">
        <ele>2528</ele>
        <time>2026-07-29T07:32:13.716Z</time>
      </trkpt>
      <trkpt lat="45.75607" lon="6.74256">
        <ele>2528</ele>
        <time>2026-07-29T07:32:14.716Z</time>
      </trkpt>
      <trkpt lat="45.75607" lon="6.74256">
        <ele>2528</ele>
        <time>2026-07-29T07:32:15.716Z</time>
      </trkpt>
      <trkpt lat="45.75607" lon="6.74257">
        <ele>2528</ele>
        <time>2026-07-29T07:32:16.716Z</time>
      </trkpt>
      <trkpt lat="45.75607" lon="6.74257">
        <ele>2528</ele>
        <time>2026-07-29T07:32:17.716Z</time>
      </trkpt>
      <trkpt lat="45.75607" lon="6.74257">
        <ele>2528</ele>
        <time>2026-07-29T07:32:18.716Z</time>
      </trkpt>
      <trkpt lat="45.75607" lon="6.74257">
        <ele>2528</ele>
        <time>2026-07-29T07:32:19.716Z</time>
      </trkpt>
      <trkpt lat="45.75607" lon="6.74257">
        <ele>2528</ele>
        <time>2026-07-29T07:32:20.716Z</time>
      </trkpt>
      <trkpt lat="45.75607" lon="6.74258">
        <ele>2528</ele>
        <time>2026-07-29T07:32:21.716Z</time>
      </trkpt>
      <trkpt lat="45.75607" lon="6.74258">
        <ele>2528</ele>
        <time>2026-07-29T07:32:22.716Z</time>
      </trkpt>
      <trkpt lat="45.75607" lon="6.74258">
        <ele>2528</ele>
        <time>2026-07-29T07:32:23.716Z</time>
      </trkpt>
      <trkpt lat="45.75607" lon="6.74259">
        <ele>2528</ele>
        <time>2026-07-29T07:32:24.716Z</time>
      </trkpt>
      <trkpt lat="45.75607" lon="6.74259">
        <ele>2528</ele>
        <time>2026-07-29T07:32:25.716Z</time>
      </trkpt>
      <trkpt lat="45.75607" lon="6.7426">
        <ele>2528</ele>
        <time>2026-07-29T07:32:26.716Z</time>
      </trkpt>
      <trkpt lat="45.75607" lon="6.7426">
        <ele>2528</ele>
        <time>2026-07-29T07:32:27.716Z</time>
      </trkpt>
      <trkpt lat="45.75607" lon="6.7426">
        <ele>2528</ele>
        <time>2026-07-29T07:32:28.716Z</time>
      </trkpt>
      <trkpt lat="45.75607" lon="6.74261">
        <ele>2528</ele>
        <time>2026-07-29T07:32:29.716Z</time>
      </trkpt>
      <trkpt lat="45.75607" lon="6.74261">
        <ele>2528</ele>
        <time>2026-07-29T07:32:30.716Z</time>
      </trkpt>
      <trkpt lat="45.75606" lon="6.74262">
        <ele>2528</ele>
        <time>2026-07-29T07:32:31.716Z</time>
      </trkpt>
      <trkpt lat="45.75606" lon="6.74262">
        <ele>2528</ele>
        <time>2026-07-29T07:32:32.716Z</time>
      </trkpt>
      <trkpt lat="45.75606" lon="6.74263">
        <ele>2528</ele>
        <time>2026-07-29T07:32:33.716Z</time>
      </trkpt>
      <trkpt lat="45.75606" lon="6.74263">
        <ele>2528</ele>
        <time>2026-07-29T07:32:34.716Z</time>
      </trkpt>
      <trkpt lat="45.75605" lon="6.74262">
        <ele>2528</ele>
        <time>2026-07-29T07:32:35.716Z</time>
      </trkpt>
      <trkpt lat="45.75604" lon="6.74262">
        <ele>2529</ele>
        <time>2026-07-29T07:32:36.716Z</time>
      </trkpt>
      <trkpt lat="45.75603" lon="6.74262">
        <ele>2529</ele>
        <time>2026-07-29T07:32:37.716Z</time>
      </trkpt>
      <trkpt lat="45.75602" lon="6.74262">
        <ele>2529</ele>
        <time>2026-07-29T07:32:38.716Z</time>
      </trkpt>
      <trkpt lat="45.75602" lon="6.74262">
        <ele>2530</ele>
        <time>2026-07-29T07:32:39.716Z</time>
      </trkpt>
      <trkpt lat="45.75601" lon="6.74262">
        <ele>2530</ele>
        <time>2026-07-29T07:32:40.716Z</time>
      </trkpt>
      <trkpt lat="45.756" lon="6.74262">
        <ele>2531</ele>
        <time>2026-07-29T07:32:41.716Z</time>
      </trkpt>
      <trkpt lat="45.75599" lon="6.74262">
        <ele>2532</ele>
        <time>2026-07-29T07:32:42.716Z</time>
      </trkpt>
      <trkpt lat="45.75599" lon="6.74262">
        <ele>2532</ele>
        <time>2026-07-29T07:32:43.716Z</time>
      </trkpt>
      <trkpt lat="45.75598" lon="6.74262">
        <ele>2533</ele>
        <time>2026-07-29T07:32:44.716Z</time>
      </trkpt>
      <trkpt lat="45.75598" lon="6.74262">
        <ele>2533</ele>
        <time>2026-07-29T07:32:45.716Z</time>
      </trkpt>
      <trkpt lat="45.75598" lon="6.74263">
        <ele>2533</ele>
        <time>2026-07-29T07:32:46.716Z</time>
      </trkpt>
      <trkpt lat="45.75598" lon="6.74263">
        <ele>2534</ele>
        <time>2026-07-29T07:32:47.716Z</time>
      </trkpt>
      <trkpt lat="45.75598" lon="6.74263">
        <ele>2535</ele>
        <time>2026-07-29T07:32:48.716Z</time>
      </trkpt>
      <trkpt lat="45.75598" lon="6.74263">
        <ele>2535</ele>
        <time>2026-07-29T07:32:49.716Z</time>
      </trkpt>
      <trkpt lat="45.75598" lon="6.74263">
        <ele>2536</ele>
        <time>2026-07-29T07:32:50.716Z</time>
      </trkpt>
      <trkpt lat="45.75598" lon="6.74263">
        <ele>2536</ele>
        <time>2026-07-29T07:32:51.716Z</time>
      </trkpt>
      <trkpt lat="45.75598" lon="6.74263">
        <ele>2537</ele>
        <time>2026-07-29T07:32:52.716Z</time>
      </trkpt>
      <trkpt lat="45.75598" lon="6.74263">
        <ele>2537</ele>
        <time>2026-07-29T07:32:53.716Z</time>
      </trkpt>
      <trkpt lat="45.75598" lon="6.74263">
        <ele>2537</ele>
        <time>2026-07-29T07:32:54.716Z</time>
      </trkpt>
      <trkpt lat="45.75598" lon="6.74263">
        <ele>2538</ele>
        <time>2026-07-29T07:32:55.716Z</time>
      </trkpt>
      <trkpt lat="45.75598" lon="6.74263">
        <ele>2538</ele>
        <time>2026-07-29T07:32:56.716Z</time>
      </trkpt>
      <trkpt lat="45.75598" lon="6.74263">
        <ele>2538</ele>
        <time>2026-07-29T07:32:57.716Z</time>
      </trkpt>
      <trkpt lat="45.75598" lon="6.74263">
        <ele>2538</ele>
        <time>2026-07-29T07:32:58.716Z</time>
      </trkpt>
      <trkpt lat="45.75598" lon="6.74263">
        <ele>2538</ele>
        <time>2026-07-29T07:32:59.716Z</time>
      </trkpt>
      <trkpt lat="45.75598" lon="6.74263">
        <ele>2538</ele>
        <time>2026-07-29T07:33:00.716Z</time>
      </trkpt>
      <trkpt lat="45.75598" lon="6.74263">
        <ele>2538</ele>
        <time>2026-07-29T07:33:01.716Z</time>
      </trkpt>
      <trkpt lat="45.75598" lon="6.74263">
        <ele>2539</ele>
        <time>2026-07-29T07:33:02.716Z</time>
      </trkpt>
      <trkpt lat="45.75598" lon="6.74263">
        <ele>2539</ele>
        <time>2026-07-29T07:33:03.716Z</time>
      </trkpt>
      <trkpt lat="45.75598" lon="6.74263">
        <ele>2539</ele>
        <time>2026-07-29T07:33:04.716Z</time>
      </trkpt>
      <trkpt lat="45.75598" lon="6.74263">
        <ele>2539</ele>
        <time>2026-07-29T07:33:05.716Z</time>
      </trkpt>
      <trkpt lat="45.75598" lon="6.74263">
        <ele>2539</ele>
        <time>2026-07-29T07:33:06.716Z</time>
      </trkpt>
      <trkpt lat="45.75598" lon="6.74263">
        <ele>2539</ele>
        <time>2026-07-29T07:33:07.716Z</time>
      </trkpt>
      <trkpt lat="45.75598" lon="6.74263">
        <ele>2539</ele>
        <time>2026-07-29T07:33:08.716Z</time>
      </trkpt>
      <trkpt lat="45.75598" lon="6.74263">
        <ele>2539</ele>
        <time>2026-07-29T07:33:09.716Z</time>
      </trkpt>
      <trkpt lat="45.75598" lon="6.74263">
        <ele>2539</ele>
        <time>2026-07-29T07:33:10.716Z</time>
      </trkpt>
      <trkpt lat="45.75598" lon="6.74263">
        <ele>2539</ele>
        <time>2026-07-29T07:33:11.716Z</time>
      </trkpt>
      <trkpt lat="45.75598" lon="6.74263">
        <ele>2539</ele>
        <time>2026-07-29T07:33:12.716Z</time>
      </trkpt>
      <trkpt lat="45.75598" lon="6.74263">
        <ele>2539</ele>
        <time>2026-07-29T07:33:13.716Z</time>
      </trkpt>
      <trkpt lat="45.75598" lon="6.74263">
        <ele>2539</ele>
        <time>2026-07-29T07:33:14.716Z</time>
      </trkpt>
      <trkpt lat="45.75598" lon="6.74263">
        <ele>2539</ele>
        <time>2026-07-29T07:33:15.716Z</time>
      </trkpt>
      <trkpt lat="45.75598" lon="6.74263">
        <ele>2539</ele>
        <time>2026-07-29T07:33:16.716Z</time>
      </trkpt>
      <trkpt lat="45.75598" lon="6.74263">
        <ele>2539</ele>
        <time>2026-07-29T07:33:17.717Z</time>
      </trkpt>
      <trkpt lat="45.75598" lon="6.74263">
        <ele>2539</ele>
        <time>2026-07-29T07:33:18.716Z</time>
      </trkpt>
      <trkpt lat="45.75598" lon="6.74263">
        <ele>2539</ele>
        <time>2026-07-29T07:33:19.716Z</time>
      </trkpt>
      <trkpt lat="45.75598" lon="6.74264">
        <ele>2539</ele>
        <time>2026-07-29T07:33:20.716Z</time>
      </trkpt>
      <trkpt lat="45.75598" lon="6.74264">
        <ele>2539</ele>
        <time>2026-07-29T07:33:21.716Z</time>
      </trkpt>
      <trkpt lat="45.75597" lon="6.74264">
        <ele>2539</ele>
        <time>2026-07-29T07:33:22.716Z</time>
      </trkpt>
      <trkpt lat="45.75596" lon="6.74264">
        <ele>2539</ele>
        <time>2026-07-29T07:33:23.716Z</time>
      </trkpt>
      <trkpt lat="45.75596" lon="6.74264">
        <ele>2539</ele>
        <time>2026-07-29T07:33:24.716Z</time>
      </trkpt>
      <trkpt lat="45.75596" lon="6.74264">
        <ele>2539</ele>
        <time>2026-07-29T07:33:25.716Z</time>
      </trkpt>
      <trkpt lat="45.75596" lon="6.74265">
        <ele>2540</ele>
        <time>2026-07-29T07:33:26.716Z</time>
      </trkpt>
      <trkpt lat="45.75596" lon="6.74265">
        <ele>2540</ele>
        <time>2026-07-29T07:33:27.716Z</time>
      </trkpt>
      <trkpt lat="45.75595" lon="6.74265">
        <ele>2540</ele>
        <time>2026-07-29T07:33:28.716Z</time>
      </trkpt>
      <trkpt lat="45.75595" lon="6.74266">
        <ele>2540</ele>
        <time>2026-07-29T07:33:29.716Z</time>
      </trkpt>
      <trkpt lat="45.75595" lon="6.74267">
        <ele>2540</ele>
        <time>2026-07-29T07:33:30.716Z</time>
      </trkpt>
      <trkpt lat="45.75595" lon="6.74267">
        <ele>2540</ele>
        <time>2026-07-29T07:33:31.716Z</time>
      </trkpt>
      <trkpt lat="45.75595" lon="6.74268">
        <ele>2540</ele>
        <time>2026-07-29T07:33:32.716Z</time>
      </trkpt>
      <trkpt lat="45.75595" lon="6.74269">
        <ele>2540</ele>
        <time>2026-07-29T07:33:33.716Z</time>
      </trkpt>
      <trkpt lat="45.75595" lon="6.74269">
        <ele>2540</ele>
        <time>2026-07-29T07:33:34.716Z</time>
      </trkpt>
      <trkpt lat="45.75595" lon="6.74269">
        <ele>2540</ele>
        <time>2026-07-29T07:33:35.716Z</time>
      </trkpt>
      <trkpt lat="45.75594" lon="6.74269">
        <ele>2540</ele>
        <time>2026-07-29T07:33:36.716Z</time>
      </trkpt>
      <trkpt lat="45.75594" lon="6.74269">
        <ele>2540</ele>
        <time>2026-07-29T07:33:37.716Z</time>
      </trkpt>
      <trkpt lat="45.75594" lon="6.74269">
        <ele>2540</ele>
        <time>2026-07-29T07:33:38.716Z</time>
      </trkpt>
      <trkpt lat="45.75593" lon="6.7427">
        <ele>2540</ele>
        <time>2026-07-29T07:33:39.716Z</time>
      </trkpt>
      <trkpt lat="45.75593" lon="6.7427">
        <ele>2540</ele>
        <time>2026-07-29T07:33:40.716Z</time>
      </trkpt>
      <trkpt lat="45.75593" lon="6.7427">
        <ele>2540</ele>
        <time>2026-07-29T07:33:41.716Z</time>
      </trkpt>
      <trkpt lat="45.75592" lon="6.7427">
        <ele>2540</ele>
        <time>2026-07-29T07:33:42.716Z</time>
      </trkpt>
      <trkpt lat="45.75592" lon="6.7427">
        <ele>2540</ele>
        <time>2026-07-29T07:33:43.716Z</time>
      </trkpt>
      <trkpt lat="45.75592" lon="6.7427">
        <ele>2540</ele>
        <time>2026-07-29T07:33:44.716Z</time>
      </trkpt>
      <trkpt lat="45.75591" lon="6.7427">
        <ele>2540</ele>
        <time>2026-07-29T07:33:45.716Z</time>
      </trkpt>
      <trkpt lat="45.75591" lon="6.7427">
        <ele>2540</ele>
        <time>2026-07-29T07:33:46.716Z</time>
      </trkpt>
      <trkpt lat="45.75591" lon="6.7427">
        <ele>2540</ele>
        <time>2026-07-29T07:33:47.716Z</time>
      </trkpt>
      <trkpt lat="45.75591" lon="6.7427">
        <ele>2540</ele>
        <time>2026-07-29T07:33:48.716Z</time>
      </trkpt>
      <trkpt lat="45.7559" lon="6.7427">
        <ele>2540</ele>
        <time>2026-07-29T07:33:49.716Z</time>
      </trkpt>
      <trkpt lat="45.7559" lon="6.74271">
        <ele>2540</ele>
        <time>2026-07-29T07:33:50.716Z</time>
      </trkpt>
      <trkpt lat="45.7559" lon="6.74271">
        <ele>2540</ele>
        <time>2026-07-29T07:33:51.716Z</time>
      </trkpt>
      <trkpt lat="45.75589" lon="6.74271">
        <ele>2541</ele>
        <time>2026-07-29T07:33:52.716Z</time>
      </trkpt>
      <trkpt lat="45.75589" lon="6.74272">
        <ele>2541</ele>
        <time>2026-07-29T07:33:53.716Z</time>
      </trkpt>
      <trkpt lat="45.75589" lon="6.74272">
        <ele>2541</ele>
        <time>2026-07-29T07:33:54.716Z</time>
      </trkpt>
      <trkpt lat="45.75589" lon="6.74272">
        <ele>2541</ele>
        <time>2026-07-29T07:33:55.716Z</time>
      </trkpt>
      <trkpt lat="45.75589" lon="6.74273">
        <ele>2541</ele>
        <time>2026-07-29T07:33:56.716Z</time>
      </trkpt>
      <trkpt lat="45.75588" lon="6.74273">
        <ele>2541</ele>
        <time>2026-07-29T07:33:57.716Z</time>
      </trkpt>
      <trkpt lat="45.75588" lon="6.74274">
        <ele>2541</ele>
        <time>2026-07-29T07:33:58.716Z</time>
      </trkpt>
      <trkpt lat="45.75588" lon="6.74274">
        <ele>2541</ele>
        <time>2026-07-29T07:33:59.716Z</time>
      </trkpt>
      <trkpt lat="45.75588" lon="6.74274">
        <ele>2541</ele>
        <time>2026-07-29T07:34:00.716Z</time>
      </trkpt>
      <trkpt lat="45.75587" lon="6.74275">
        <ele>2541</ele>
        <time>2026-07-29T07:34:01.716Z</time>
      </trkpt>
      <trkpt lat="45.75587" lon="6.74275">
        <ele>2541</ele>
        <time>2026-07-29T07:34:02.716Z</time>
      </trkpt>
      <trkpt lat="45.75587" lon="6.74275">
        <ele>2541</ele>
        <time>2026-07-29T07:34:03.716Z</time>
      </trkpt>
      <trkpt lat="45.75587" lon="6.74275">
        <ele>2541</ele>
        <time>2026-07-29T07:34:04.716Z</time>
      </trkpt>
      <trkpt lat="45.75587" lon="6.74276">
        <ele>2542</ele>
        <time>2026-07-29T07:34:05.716Z</time>
      </trkpt>
      <trkpt lat="45.75587" lon="6.74276">
        <ele>2542</ele>
        <time>2026-07-29T07:34:06.716Z</time>
      </trkpt>
      <trkpt lat="45.75587" lon="6.74276">
        <ele>2542</ele>
        <time>2026-07-29T07:34:07.716Z</time>
      </trkpt>
      <trkpt lat="45.75587" lon="6.74276">
        <ele>2542</ele>
        <time>2026-07-29T07:34:08.716Z</time>
      </trkpt>
      <trkpt lat="45.75587" lon="6.74276">
        <ele>2542</ele>
        <time>2026-07-29T07:34:09.716Z</time>
      </trkpt>
      <trkpt lat="45.75587" lon="6.74277">
        <ele>2542</ele>
        <time>2026-07-29T07:34:10.716Z</time>
      </trkpt>
      <trkpt lat="45.75586" lon="6.74277">
        <ele>2542</ele>
        <time>2026-07-29T07:34:11.716Z</time>
      </trkpt>
      <trkpt lat="45.75586" lon="6.74277">
        <ele>2542</ele>
        <time>2026-07-29T07:34:12.716Z</time>
      </trkpt>
      <trkpt lat="45.75586" lon="6.74277">
        <ele>2542</ele>
        <time>2026-07-29T07:34:13.716Z</time>
      </trkpt>
      <trkpt lat="45.75586" lon="6.74277">
        <ele>2542</ele>
        <time>2026-07-29T07:34:14.716Z</time>
      </trkpt>
      <trkpt lat="45.75586" lon="6.74278">
        <ele>2542</ele>
        <time>2026-07-29T07:34:15.716Z</time>
      </trkpt>
      <trkpt lat="45.75586" lon="6.74278">
        <ele>2542</ele>
        <time>2026-07-29T07:34:16.716Z</time>
      </trkpt>
      <trkpt lat="45.75586" lon="6.74278">
        <ele>2542</ele>
        <time>2026-07-29T07:34:17.716Z</time>
      </trkpt>
      <trkpt lat="45.75586" lon="6.74278">
        <ele>2542</ele>
        <time>2026-07-29T07:34:18.716Z</time>
      </trkpt>
      <trkpt lat="45.75586" lon="6.74279">
        <ele>2542</ele>
        <time>2026-07-29T07:34:19.716Z</time>
      </trkpt>
      <trkpt lat="45.75585" lon="6.74279">
        <ele>2542</ele>
        <time>2026-07-29T07:34:20.716Z</time>
      </trkpt>
      <trkpt lat="45.75584" lon="6.74279">
        <ele>2543</ele>
        <time>2026-07-29T07:34:21.716Z</time>
      </trkpt>
      <trkpt lat="45.75583" lon="6.74279">
        <ele>2543</ele>
        <time>2026-07-29T07:34:22.716Z</time>
      </trkpt>
      <trkpt lat="45.75582" lon="6.74279">
        <ele>2543</ele>
        <time>2026-07-29T07:34:23.716Z</time>
      </trkpt>
      <trkpt lat="45.75582" lon="6.74279">
        <ele>2544</ele>
        <time>2026-07-29T07:34:24.717Z</time>
      </trkpt>
      <trkpt lat="45.75582" lon="6.74279">
        <ele>2544</ele>
        <time>2026-07-29T07:34:25.716Z</time>
      </trkpt>
      <trkpt lat="45.75582" lon="6.74279">
        <ele>2545</ele>
        <time>2026-07-29T07:34:26.716Z</time>
      </trkpt>
      <trkpt lat="45.75582" lon="6.74279">
        <ele>2545</ele>
        <time>2026-07-29T07:34:27.716Z</time>
      </trkpt>
      <trkpt lat="45.75582" lon="6.74279">
        <ele>2546</ele>
        <time>2026-07-29T07:34:28.716Z</time>
      </trkpt>
      <trkpt lat="45.75582" lon="6.74279">
        <ele>2546</ele>
        <time>2026-07-29T07:34:29.716Z</time>
      </trkpt>
      <trkpt lat="45.75581" lon="6.7428">
        <ele>2547</ele>
        <time>2026-07-29T07:34:30.716Z</time>
      </trkpt>
      <trkpt lat="45.75581" lon="6.7428">
        <ele>2547</ele>
        <time>2026-07-29T07:34:31.716Z</time>
      </trkpt>
      <trkpt lat="45.75581" lon="6.7428">
        <ele>2547</ele>
        <time>2026-07-29T07:34:32.716Z</time>
      </trkpt>
      <trkpt lat="45.7558" lon="6.7428">
        <ele>2548</ele>
        <time>2026-07-29T07:34:33.716Z</time>
      </trkpt>
      <trkpt lat="45.7558" lon="6.7428">
        <ele>2548</ele>
        <time>2026-07-29T07:34:34.716Z</time>
      </trkpt>
      <trkpt lat="45.7558" lon="6.7428">
        <ele>2548</ele>
        <time>2026-07-29T07:34:35.716Z</time>
      </trkpt>
      <trkpt lat="45.7558" lon="6.7428">
        <ele>2549</ele>
        <time>2026-07-29T07:34:36.716Z</time>
      </trkpt>
      <trkpt lat="45.7558" lon="6.7428">
        <ele>2549</ele>
        <time>2026-07-29T07:34:37.716Z</time>
      </trkpt>
      <trkpt lat="45.7558" lon="6.7428">
        <ele>2549</ele>
        <time>2026-07-29T07:34:38.716Z</time>
      </trkpt>
      <trkpt lat="45.7558" lon="6.7428">
        <ele>2550</ele>
        <time>2026-07-29T07:34:39.716Z</time>
      </trkpt>
      <trkpt lat="45.7558" lon="6.7428">
        <ele>2550</ele>
        <time>2026-07-29T07:34:40.716Z</time>
      </trkpt>
      <trkpt lat="45.75579" lon="6.7428">
        <ele>2550</ele>
        <time>2026-07-29T07:34:41.716Z</time>
      </trkpt>
      <trkpt lat="45.75579" lon="6.7428">
        <ele>2550</ele>
        <time>2026-07-29T07:34:42.716Z</time>
      </trkpt>
      <trkpt lat="45.75579" lon="6.74281">
        <ele>2550</ele>
        <time>2026-07-29T07:34:43.716Z</time>
      </trkpt>
      <trkpt lat="45.75579" lon="6.74281">
        <ele>2551</ele>
        <time>2026-07-29T07:34:44.716Z</time>
      </trkpt>
      <trkpt lat="45.75579" lon="6.74281">
        <ele>2551</ele>
        <time>2026-07-29T07:34:45.716Z</time>
      </trkpt>
      <trkpt lat="45.75579" lon="6.74281">
        <ele>2551</ele>
        <time>2026-07-29T07:34:46.716Z</time>
      </trkpt>
      <trkpt lat="45.75579" lon="6.74282">
        <ele>2551</ele>
        <time>2026-07-29T07:34:47.716Z</time>
      </trkpt>
      <trkpt lat="45.75579" lon="6.74282">
        <ele>2551</ele>
        <time>2026-07-29T07:34:48.716Z</time>
      </trkpt>
      <trkpt lat="45.75579" lon="6.74282">
        <ele>2551</ele>
        <time>2026-07-29T07:34:49.716Z</time>
      </trkpt>
      <trkpt lat="45.75578" lon="6.74282">
        <ele>2551</ele>
        <time>2026-07-29T07:34:50.716Z</time>
      </trkpt>
      <trkpt lat="45.75577" lon="6.74283">
        <ele>2551</ele>
        <time>2026-07-29T07:34:51.716Z</time>
      </trkpt>
      <trkpt lat="45.75576" lon="6.74283">
        <ele>2552</ele>
        <time>2026-07-29T07:34:52.716Z</time>
      </trkpt>
      <trkpt lat="45.75575" lon="6.74283">
        <ele>2552</ele>
        <time>2026-07-29T07:34:53.716Z</time>
      </trkpt>
      <trkpt lat="45.75574" lon="6.74283">
        <ele>2552</ele>
        <time>2026-07-29T07:34:54.716Z</time>
      </trkpt>
      <trkpt lat="45.75573" lon="6.74283">
        <ele>2553</ele>
        <time>2026-07-29T07:34:55.716Z</time>
      </trkpt>
      <trkpt lat="45.75572" lon="6.74283">
        <ele>2553</ele>
        <time>2026-07-29T07:34:56.717Z</time>
      </trkpt>
      <trkpt lat="45.75571" lon="6.74284">
        <ele>2554</ele>
        <time>2026-07-29T07:34:57.716Z</time>
      </trkpt>
      <trkpt lat="45.7557" lon="6.74284">
        <ele>2555</ele>
        <time>2026-07-29T07:34:58.716Z</time>
      </trkpt>
      <trkpt lat="45.7557" lon="6.74285">
        <ele>2555</ele>
        <time>2026-07-29T07:34:59.716Z</time>
      </trkpt>
      <trkpt lat="45.7557" lon="6.74286">
        <ele>2556</ele>
        <time>2026-07-29T07:35:00.716Z</time>
      </trkpt>
      <trkpt lat="45.75569" lon="6.74286">
        <ele>2556</ele>
        <time>2026-07-29T07:35:01.716Z</time>
      </trkpt>
      <trkpt lat="45.75569" lon="6.74287">
        <ele>2557</ele>
        <time>2026-07-29T07:35:02.716Z</time>
      </trkpt>
      <trkpt lat="45.75569" lon="6.74287">
        <ele>2557</ele>
        <time>2026-07-29T07:35:03.716Z</time>
      </trkpt>
      <trkpt lat="45.75568" lon="6.74287">
        <ele>2557</ele>
        <time>2026-07-29T07:35:04.716Z</time>
      </trkpt>
      <trkpt lat="45.75568" lon="6.74287">
        <ele>2557</ele>
        <time>2026-07-29T07:35:05.716Z</time>
      </trkpt>
      <trkpt lat="45.75568" lon="6.74288">
        <ele>2557</ele>
        <time>2026-07-29T07:35:06.716Z</time>
      </trkpt>
      <trkpt lat="45.75568" lon="6.74288">
        <ele>2557</ele>
        <time>2026-07-29T07:35:07.716Z</time>
      </trkpt>
      <trkpt lat="45.75567" lon="6.74288">
        <ele>2557</ele>
        <time>2026-07-29T07:35:08.716Z</time>
      </trkpt>
      <trkpt lat="45.75567" lon="6.74288">
        <ele>2558</ele>
        <time>2026-07-29T07:35:09.716Z</time>
      </trkpt>
      <trkpt lat="45.75567" lon="6.74289">
        <ele>2558</ele>
        <time>2026-07-29T07:35:10.716Z</time>
      </trkpt>
      <trkpt lat="45.75568" lon="6.7429">
        <ele>2558</ele>
        <time>2026-07-29T07:35:11.716Z</time>
      </trkpt>
      <trkpt lat="45.75568" lon="6.7429">
        <ele>2558</ele>
        <time>2026-07-29T07:35:12.716Z</time>
      </trkpt>
      <trkpt lat="45.75568" lon="6.74291">
        <ele>2558</ele>
        <time>2026-07-29T07:35:13.716Z</time>
      </trkpt>
      <trkpt lat="45.75568" lon="6.74291">
        <ele>2559</ele>
        <time>2026-07-29T07:35:14.716Z</time>
      </trkpt>
      <trkpt lat="45.75568" lon="6.74292">
        <ele>2559</ele>
        <time>2026-07-29T07:35:15.716Z</time>
      </trkpt>
      <trkpt lat="45.75568" lon="6.74292">
        <ele>2559</ele>
        <time>2026-07-29T07:35:16.716Z</time>
      </trkpt>
      <trkpt lat="45.75568" lon="6.74293">
        <ele>2559</ele>
        <time>2026-07-29T07:35:17.716Z</time>
      </trkpt>
      <trkpt lat="45.75568" lon="6.74294">
        <ele>2559</ele>
        <time>2026-07-29T07:35:18.716Z</time>
      </trkpt>
      <trkpt lat="45.75568" lon="6.74295">
        <ele>2559</ele>
        <time>2026-07-29T07:35:19.716Z</time>
      </trkpt>
      <trkpt lat="45.75567" lon="6.74295">
        <ele>2560</ele>
        <time>2026-07-29T07:35:20.716Z</time>
      </trkpt>
      <trkpt lat="45.75567" lon="6.74295">
        <ele>2560</ele>
        <time>2026-07-29T07:35:21.716Z</time>
      </trkpt>
      <trkpt lat="45.75567" lon="6.74296">
        <ele>2560</ele>
        <time>2026-07-29T07:35:22.716Z</time>
      </trkpt>
      <trkpt lat="45.75567" lon="6.74296">
        <ele>2561</ele>
        <time>2026-07-29T07:35:23.716Z</time>
      </trkpt>
      <trkpt lat="45.75566" lon="6.74296">
        <ele>2562</ele>
        <time>2026-07-29T07:35:24.716Z</time>
      </trkpt>
      <trkpt lat="45.75566" lon="6.74296">
        <ele>2562</ele>
        <time>2026-07-29T07:35:25.716Z</time>
      </trkpt>
      <trkpt lat="45.75566" lon="6.74297">
        <ele>2563</ele>
        <time>2026-07-29T07:35:26.716Z</time>
      </trkpt>
      <trkpt lat="45.75565" lon="6.74297">
        <ele>2564</ele>
        <time>2026-07-29T07:35:27.716Z</time>
      </trkpt>
      <trkpt lat="45.75565" lon="6.74297">
        <ele>2564</ele>
        <time>2026-07-29T07:35:28.716Z</time>
      </trkpt>
      <trkpt lat="45.75565" lon="6.74298">
        <ele>2565</ele>
        <time>2026-07-29T07:35:29.716Z</time>
      </trkpt>
      <trkpt lat="45.75564" lon="6.74298">
        <ele>2565</ele>
        <time>2026-07-29T07:35:30.716Z</time>
      </trkpt>
      <trkpt lat="45.75564" lon="6.74299">
        <ele>2566</ele>
        <time>2026-07-29T07:35:31.716Z</time>
      </trkpt>
      <trkpt lat="45.75564" lon="6.74299">
        <ele>2566</ele>
        <time>2026-07-29T07:35:32.716Z</time>
      </trkpt>
      <trkpt lat="45.75564" lon="6.74299">
        <ele>2566</ele>
        <time>2026-07-29T07:35:33.716Z</time>
      </trkpt>
      <trkpt lat="45.75564" lon="6.743">
        <ele>2567</ele>
        <time>2026-07-29T07:35:34.716Z</time>
      </trkpt>
      <trkpt lat="45.75564" lon="6.74301">
        <ele>2567</ele>
        <time>2026-07-29T07:35:35.716Z</time>
      </trkpt>
      <trkpt lat="45.75564" lon="6.74301">
        <ele>2567</ele>
        <time>2026-07-29T07:35:36.716Z</time>
      </trkpt>
      <trkpt lat="45.75564" lon="6.74302">
        <ele>2567</ele>
        <time>2026-07-29T07:35:37.716Z</time>
      </trkpt>
      <trkpt lat="45.75563" lon="6.74302">
        <ele>2567</ele>
        <time>2026-07-29T07:35:38.716Z</time>
      </trkpt>
      <trkpt lat="45.75563" lon="6.74302">
        <ele>2567</ele>
        <time>2026-07-29T07:35:39.716Z</time>
      </trkpt>
      <trkpt lat="45.75562" lon="6.74302">
        <ele>2567</ele>
        <time>2026-07-29T07:35:40.716Z</time>
      </trkpt>
      <trkpt lat="45.75562" lon="6.74302">
        <ele>2566</ele>
        <time>2026-07-29T07:35:41.716Z</time>
      </trkpt>
      <trkpt lat="45.75562" lon="6.74303">
        <ele>2566</ele>
        <time>2026-07-29T07:35:42.716Z</time>
      </trkpt>
      <trkpt lat="45.75562" lon="6.74303">
        <ele>2567</ele>
        <time>2026-07-29T07:35:43.716Z</time>
      </trkpt>
      <trkpt lat="45.75561" lon="6.74304">
        <ele>2567</ele>
        <time>2026-07-29T07:35:44.716Z</time>
      </trkpt>
      <trkpt lat="45.75561" lon="6.74304">
        <ele>2567</ele>
        <time>2026-07-29T07:35:45.716Z</time>
      </trkpt>
      <trkpt lat="45.75561" lon="6.74304">
        <ele>2567</ele>
        <time>2026-07-29T07:35:46.716Z</time>
      </trkpt>
      <trkpt lat="45.75561" lon="6.74304">
        <ele>2567</ele>
        <time>2026-07-29T07:35:47.716Z</time>
      </trkpt>
      <trkpt lat="45.75561" lon="6.74304">
        <ele>2567</ele>
        <time>2026-07-29T07:35:48.716Z</time>
      </trkpt>
      <trkpt lat="45.75561" lon="6.74305">
        <ele>2567</ele>
        <time>2026-07-29T07:35:49.717Z</time>
      </trkpt>
      <trkpt lat="45.75561" lon="6.74305">
        <ele>2567</ele>
        <time>2026-07-29T07:35:50.716Z</time>
      </trkpt>
      <trkpt lat="45.7556" lon="6.74305">
        <ele>2567</ele>
        <time>2026-07-29T07:35:51.716Z</time>
      </trkpt>
      <trkpt lat="45.7556" lon="6.74306">
        <ele>2568</ele>
        <time>2026-07-29T07:35:52.716Z</time>
      </trkpt>
      <trkpt lat="45.7556" lon="6.74307">
        <ele>2568</ele>
        <time>2026-07-29T07:35:53.716Z</time>
      </trkpt>
      <trkpt lat="45.7556" lon="6.74307">
        <ele>2568</ele>
        <time>2026-07-29T07:35:54.716Z</time>
      </trkpt>
      <trkpt lat="45.75559" lon="6.74307">
        <ele>2569</ele>
        <time>2026-07-29T07:35:55.716Z</time>
      </trkpt>
      <trkpt lat="45.75559" lon="6.74307">
        <ele>2570</ele>
        <time>2026-07-29T07:35:56.716Z</time>
      </trkpt>
      <trkpt lat="45.75559" lon="6.74306">
        <ele>2571</ele>
        <time>2026-07-29T07:35:57.716Z</time>
      </trkpt>
      <trkpt lat="45.75558" lon="6.74306">
        <ele>2572</ele>
        <time>2026-07-29T07:35:58.716Z</time>
      </trkpt>
      <trkpt lat="45.75558" lon="6.74306">
        <ele>2573</ele>
        <time>2026-07-29T07:35:59.716Z</time>
      </trkpt>
      <trkpt lat="45.75557" lon="6.74306">
        <ele>2573</ele>
        <time>2026-07-29T07:36:00.716Z</time>
      </trkpt>
      <trkpt lat="45.75557" lon="6.74306">
        <ele>2574</ele>
        <time>2026-07-29T07:36:01.716Z</time>
      </trkpt>
      <trkpt lat="45.75557" lon="6.74306">
        <ele>2574</ele>
        <time>2026-07-29T07:36:02.716Z</time>
      </trkpt>
      <trkpt lat="45.75556" lon="6.74307">
        <ele>2574</ele>
        <time>2026-07-29T07:36:03.716Z</time>
      </trkpt>
      <trkpt lat="45.75556" lon="6.74308">
        <ele>2574</ele>
        <time>2026-07-29T07:36:04.716Z</time>
      </trkpt>
      <trkpt lat="45.75555" lon="6.74308">
        <ele>2575</ele>
        <time>2026-07-29T07:36:05.716Z</time>
      </trkpt>
      <trkpt lat="45.75555" lon="6.74308">
        <ele>2575</ele>
        <time>2026-07-29T07:36:06.716Z</time>
      </trkpt>
      <trkpt lat="45.75555" lon="6.74308">
        <ele>2575</ele>
        <time>2026-07-29T07:36:07.716Z</time>
      </trkpt>
      <trkpt lat="45.75555" lon="6.74308">
        <ele>2575</ele>
        <time>2026-07-29T07:36:08.716Z</time>
      </trkpt>
      <trkpt lat="45.75554" lon="6.74308">
        <ele>2575</ele>
        <time>2026-07-29T07:36:09.716Z</time>
      </trkpt>
      <trkpt lat="45.75554" lon="6.74308">
        <ele>2576</ele>
        <time>2026-07-29T07:36:10.716Z</time>
      </trkpt>
      <trkpt lat="45.75554" lon="6.74308">
        <ele>2576</ele>
        <time>2026-07-29T07:36:11.716Z</time>
      </trkpt>
      <trkpt lat="45.75554" lon="6.74308">
        <ele>2576</ele>
        <time>2026-07-29T07:36:12.716Z</time>
      </trkpt>
      <trkpt lat="45.75553" lon="6.74308">
        <ele>2576</ele>
        <time>2026-07-29T07:36:13.716Z</time>
      </trkpt>
      <trkpt lat="45.75553" lon="6.74308">
        <ele>2576</ele>
        <time>2026-07-29T07:36:14.716Z</time>
      </trkpt>
      <trkpt lat="45.75553" lon="6.74308">
        <ele>2576</ele>
        <time>2026-07-29T07:36:15.716Z</time>
      </trkpt>
      <trkpt lat="45.75552" lon="6.74308">
        <ele>2576</ele>
        <time>2026-07-29T07:36:16.716Z</time>
      </trkpt>
      <trkpt lat="45.75552" lon="6.74308">
        <ele>2576</ele>
        <time>2026-07-29T07:36:17.716Z</time>
      </trkpt>
      <trkpt lat="45.75551" lon="6.74308">
        <ele>2576</ele>
        <time>2026-07-29T07:36:18.716Z</time>
      </trkpt>
      <trkpt lat="45.75551" lon="6.74308">
        <ele>2576</ele>
        <time>2026-07-29T07:36:19.716Z</time>
      </trkpt>
      <trkpt lat="45.75551" lon="6.74308">
        <ele>2577</ele>
        <time>2026-07-29T07:36:20.716Z</time>
      </trkpt>
      <trkpt lat="45.7555" lon="6.74308">
        <ele>2577</ele>
        <time>2026-07-29T07:36:21.716Z</time>
      </trkpt>
      <trkpt lat="45.7555" lon="6.74309">
        <ele>2577</ele>
        <time>2026-07-29T07:36:22.716Z</time>
      </trkpt>
      <trkpt lat="45.75549" lon="6.74309">
        <ele>2577</ele>
        <time>2026-07-29T07:36:23.716Z</time>
      </trkpt>
      <trkpt lat="45.75549" lon="6.74309">
        <ele>2578</ele>
        <time>2026-07-29T07:36:24.716Z</time>
      </trkpt>
      <trkpt lat="45.75548" lon="6.7431">
        <ele>2578</ele>
        <time>2026-07-29T07:36:25.717Z</time>
      </trkpt>
      <trkpt lat="45.75548" lon="6.7431">
        <ele>2577</ele>
        <time>2026-07-29T07:36:26.716Z</time>
      </trkpt>
      <trkpt lat="45.75548" lon="6.7431">
        <ele>2577</ele>
        <time>2026-07-29T07:36:27.716Z</time>
      </trkpt>
      <trkpt lat="45.75548" lon="6.7431">
        <ele>2576</ele>
        <time>2026-07-29T07:36:28.716Z</time>
      </trkpt>
      <trkpt lat="45.75547" lon="6.7431">
        <ele>2576</ele>
        <time>2026-07-29T07:36:29.716Z</time>
      </trkpt>
      <trkpt lat="45.75547" lon="6.74311">
        <ele>2576</ele>
        <time>2026-07-29T07:36:30.716Z</time>
      </trkpt>
      <trkpt lat="45.75547" lon="6.74311">
        <ele>2576</ele>
        <time>2026-07-29T07:36:31.716Z</time>
      </trkpt>
      <trkpt lat="45.75547" lon="6.74311">
        <ele>2576</ele>
        <time>2026-07-29T07:36:32.716Z</time>
      </trkpt>
      <trkpt lat="45.75547" lon="6.74311">
        <ele>2576</ele>
        <time>2026-07-29T07:36:33.716Z</time>
      </trkpt>
      <trkpt lat="45.75547" lon="6.74311">
        <ele>2577</ele>
        <time>2026-07-29T07:36:34.716Z</time>
      </trkpt>
      <trkpt lat="45.75547" lon="6.74312">
        <ele>2577</ele>
        <time>2026-07-29T07:36:35.716Z</time>
      </trkpt>
      <trkpt lat="45.75547" lon="6.74312">
        <ele>2577</ele>
        <time>2026-07-29T07:36:36.716Z</time>
      </trkpt>
      <trkpt lat="45.75548" lon="6.74312">
        <ele>2578</ele>
        <time>2026-07-29T07:36:37.716Z</time>
      </trkpt>
      <trkpt lat="45.75547" lon="6.74312">
        <ele>2579</ele>
        <time>2026-07-29T07:36:38.716Z</time>
      </trkpt>
      <trkpt lat="45.75547" lon="6.74312">
        <ele>2580</ele>
        <time>2026-07-29T07:36:39.716Z</time>
      </trkpt>
      <trkpt lat="45.75547" lon="6.74312">
        <ele>2580</ele>
        <time>2026-07-29T07:36:40.716Z</time>
      </trkpt>
      <trkpt lat="45.75547" lon="6.74312">
        <ele>2580</ele>
        <time>2026-07-29T07:36:41.716Z</time>
      </trkpt>
      <trkpt lat="45.75547" lon="6.74312">
        <ele>2581</ele>
        <time>2026-07-29T07:36:42.716Z</time>
      </trkpt>
      <trkpt lat="45.75547" lon="6.74312">
        <ele>2581</ele>
        <time>2026-07-29T07:36:43.716Z</time>
      </trkpt>
      <trkpt lat="45.75547" lon="6.74312">
        <ele>2581</ele>
        <time>2026-07-29T07:36:44.716Z</time>
      </trkpt>
      <trkpt lat="45.75547" lon="6.74312">
        <ele>2581</ele>
        <time>2026-07-29T07:36:45.716Z</time>
      </trkpt>
      <trkpt lat="45.75547" lon="6.74312">
        <ele>2582</ele>
        <time>2026-07-29T07:36:46.716Z</time>
      </trkpt>
      <trkpt lat="45.75547" lon="6.74312">
        <ele>2582</ele>
        <time>2026-07-29T07:36:47.716Z</time>
      </trkpt>
      <trkpt lat="45.75547" lon="6.74312">
        <ele>2582</ele>
        <time>2026-07-29T07:36:48.716Z</time>
      </trkpt>
      <trkpt lat="45.75547" lon="6.74312">
        <ele>2582</ele>
        <time>2026-07-29T07:36:49.716Z</time>
      </trkpt>
      <trkpt lat="45.75547" lon="6.74312">
        <ele>2582</ele>
        <time>2026-07-29T07:36:50.716Z</time>
      </trkpt>
      <trkpt lat="45.75547" lon="6.74312">
        <ele>2582</ele>
        <time>2026-07-29T07:36:51.716Z</time>
      </trkpt>
      <trkpt lat="45.75547" lon="6.74312">
        <ele>2582</ele>
        <time>2026-07-29T07:36:52.716Z</time>
      </trkpt>
      <trkpt lat="45.75547" lon="6.74312">
        <ele>2582</ele>
        <time>2026-07-29T07:36:53.716Z</time>
      </trkpt>
      <trkpt lat="45.75547" lon="6.74312">
        <ele>2582</ele>
        <time>2026-07-29T07:36:54.716Z</time>
      </trkpt>
      <trkpt lat="45.75547" lon="6.74312">
        <ele>2582</ele>
        <time>2026-07-29T07:36:55.716Z</time>
      </trkpt>
      <trkpt lat="45.75547" lon="6.74312">
        <ele>2582</ele>
        <time>2026-07-29T07:36:56.716Z</time>
      </trkpt>
      <trkpt lat="45.75547" lon="6.74312">
        <ele>2582</ele>
        <time>2026-07-29T07:36:57.716Z</time>
      </trkpt>
      <trkpt lat="45.75547" lon="6.74312">
        <ele>2582</ele>
        <time>2026-07-29T07:36:58.716Z</time>
      </trkpt>
      <trkpt lat="45.75547" lon="6.74312">
        <ele>2582</ele>
        <time>2026-07-29T07:36:59.716Z</time>
      </trkpt>
      <trkpt lat="45.75547" lon="6.74313">
        <ele>2583</ele>
        <time>2026-07-29T07:37:00.716Z</time>
      </trkpt>
      <trkpt lat="45.75547" lon="6.74313">
        <ele>2583</ele>
        <time>2026-07-29T07:37:01.716Z</time>
      </trkpt>
      <trkpt lat="45.75547" lon="6.74314">
        <ele>2583</ele>
        <time>2026-07-29T07:37:02.716Z</time>
      </trkpt>
      <trkpt lat="45.75547" lon="6.74314">
        <ele>2583</ele>
        <time>2026-07-29T07:37:03.716Z</time>
      </trkpt>
      <trkpt lat="45.75547" lon="6.74315">
        <ele>2583</ele>
        <time>2026-07-29T07:37:04.716Z</time>
      </trkpt>
      <trkpt lat="45.75546" lon="6.74315">
        <ele>2583</ele>
        <time>2026-07-29T07:37:05.716Z</time>
      </trkpt>
      <trkpt lat="45.75546" lon="6.74316">
        <ele>2583</ele>
        <time>2026-07-29T07:37:06.716Z</time>
      </trkpt>
      <trkpt lat="45.75546" lon="6.74316">
        <ele>2583</ele>
        <time>2026-07-29T07:37:07.716Z</time>
      </trkpt>
      <trkpt lat="45.75546" lon="6.74316">
        <ele>2583</ele>
        <time>2026-07-29T07:37:08.716Z</time>
      </trkpt>
      <trkpt lat="45.75545" lon="6.74316">
        <ele>2583</ele>
        <time>2026-07-29T07:37:09.716Z</time>
      </trkpt>
      <trkpt lat="45.75545" lon="6.74316">
        <ele>2583</ele>
        <time>2026-07-29T07:37:10.716Z</time>
      </trkpt>
      <trkpt lat="45.75545" lon="6.74316">
        <ele>2583</ele>
        <time>2026-07-29T07:37:11.716Z</time>
      </trkpt>
      <trkpt lat="45.75545" lon="6.74317">
        <ele>2583</ele>
        <time>2026-07-29T07:37:12.716Z</time>
      </trkpt>
      <trkpt lat="45.75545" lon="6.74317">
        <ele>2583</ele>
        <time>2026-07-29T07:37:13.716Z</time>
      </trkpt>
      <trkpt lat="45.75545" lon="6.74317">
        <ele>2583</ele>
        <time>2026-07-29T07:37:14.716Z</time>
      </trkpt>
      <trkpt lat="45.75545" lon="6.74317">
        <ele>2583</ele>
        <time>2026-07-29T07:37:15.716Z</time>
      </trkpt>
      <trkpt lat="45.75545" lon="6.74317">
        <ele>2583</ele>
        <time>2026-07-29T07:37:16.716Z</time>
      </trkpt>
      <trkpt lat="45.75545" lon="6.74317">
        <ele>2583</ele>
        <time>2026-07-29T07:37:17.716Z</time>
      </trkpt>
      <trkpt lat="45.75545" lon="6.74318">
        <ele>2583</ele>
        <time>2026-07-29T07:37:18.716Z</time>
      </trkpt>
      <trkpt lat="45.75544" lon="6.74319">
        <ele>2583</ele>
        <time>2026-07-29T07:37:19.716Z</time>
      </trkpt>
      <trkpt lat="45.75544" lon="6.7432">
        <ele>2583</ele>
        <time>2026-07-29T07:37:20.716Z</time>
      </trkpt>
      <trkpt lat="45.75544" lon="6.74321">
        <ele>2583</ele>
        <time>2026-07-29T07:37:21.716Z</time>
      </trkpt>
      <trkpt lat="45.75544" lon="6.74322">
        <ele>2583</ele>
        <time>2026-07-29T07:37:22.716Z</time>
      </trkpt>
      <trkpt lat="45.75544" lon="6.74323">
        <ele>2583</ele>
        <time>2026-07-29T07:37:23.716Z</time>
      </trkpt>
      <trkpt lat="45.75544" lon="6.74324">
        <ele>2583</ele>
        <time>2026-07-29T07:37:24.716Z</time>
      </trkpt>
      <trkpt lat="45.75544" lon="6.74325">
        <ele>2583</ele>
        <time>2026-07-29T07:37:25.716Z</time>
      </trkpt>
      <trkpt lat="45.75544" lon="6.74325">
        <ele>2583</ele>
        <time>2026-07-29T07:37:26.716Z</time>
      </trkpt>
      <trkpt lat="45.75544" lon="6.74325">
        <ele>2583</ele>
        <time>2026-07-29T07:37:27.716Z</time>
      </trkpt>
      <trkpt lat="45.75544" lon="6.74325">
        <ele>2583</ele>
        <time>2026-07-29T07:37:28.716Z</time>
      </trkpt>
      <trkpt lat="45.75544" lon="6.74325">
        <ele>2584</ele>
        <time>2026-07-29T07:37:29.716Z</time>
      </trkpt>
      <trkpt lat="45.75544" lon="6.74325">
        <ele>2584</ele>
        <time>2026-07-29T07:37:30.716Z</time>
      </trkpt>
      <trkpt lat="45.75544" lon="6.74325">
        <ele>2584</ele>
        <time>2026-07-29T07:37:31.716Z</time>
      </trkpt>
      <trkpt lat="45.75544" lon="6.74325">
        <ele>2584</ele>
        <time>2026-07-29T07:37:32.716Z</time>
      </trkpt>
      <trkpt lat="45.75544" lon="6.74325">
        <ele>2584</ele>
        <time>2026-07-29T07:37:33.716Z</time>
      </trkpt>
      <trkpt lat="45.75544" lon="6.74325">
        <ele>2584</ele>
        <time>2026-07-29T07:37:34.716Z</time>
      </trkpt>
      <trkpt lat="45.75544" lon="6.74325">
        <ele>2585</ele>
        <time>2026-07-29T07:37:35.716Z</time>
      </trkpt>
      <trkpt lat="45.75544" lon="6.74325">
        <ele>2585</ele>
        <time>2026-07-29T07:37:36.716Z</time>
      </trkpt>
      <trkpt lat="45.75544" lon="6.74325">
        <ele>2585</ele>
        <time>2026-07-29T07:37:37.716Z</time>
      </trkpt>
      <trkpt lat="45.75544" lon="6.74326">
        <ele>2585</ele>
        <time>2026-07-29T07:37:38.716Z</time>
      </trkpt>
      <trkpt lat="45.75544" lon="6.74326">
        <ele>2585</ele>
        <time>2026-07-29T07:37:39.716Z</time>
      </trkpt>
      <trkpt lat="45.75544" lon="6.74326">
        <ele>2585</ele>
        <time>2026-07-29T07:37:40.716Z</time>
      </trkpt>
      <trkpt lat="45.75544" lon="6.74326">
        <ele>2585</ele>
        <time>2026-07-29T07:37:41.716Z</time>
      </trkpt>
      <trkpt lat="45.75544" lon="6.74326">
        <ele>2585</ele>
        <time>2026-07-29T07:37:42.716Z</time>
      </trkpt>
      <trkpt lat="45.75545" lon="6.74326">
        <ele>2585</ele>
        <time>2026-07-29T07:37:43.716Z</time>
      </trkpt>
      <trkpt lat="45.75545" lon="6.74326">
        <ele>2585</ele>
        <time>2026-07-29T07:37:44.716Z</time>
      </trkpt>
      <trkpt lat="45.75545" lon="6.74327">
        <ele>2585</ele>
        <time>2026-07-29T07:37:45.716Z</time>
      </trkpt>
      <trkpt lat="45.75545" lon="6.74327">
        <ele>2586</ele>
        <time>2026-07-29T07:37:46.716Z</time>
      </trkpt>
      <trkpt lat="45.75545" lon="6.74328">
        <ele>2586</ele>
        <time>2026-07-29T07:37:47.716Z</time>
      </trkpt>
      <trkpt lat="45.75545" lon="6.74328">
        <ele>2586</ele>
        <time>2026-07-29T07:37:48.716Z</time>
      </trkpt>
      <trkpt lat="45.75545" lon="6.74328">
        <ele>2586</ele>
        <time>2026-07-29T07:37:49.716Z</time>
      </trkpt>
      <trkpt lat="45.75546" lon="6.74328">
        <ele>2586</ele>
        <time>2026-07-29T07:37:50.716Z</time>
      </trkpt>
      <trkpt lat="45.75546" lon="6.74329">
        <ele>2586</ele>
        <time>2026-07-29T07:37:51.716Z</time>
      </trkpt>
      <trkpt lat="45.75546" lon="6.74329">
        <ele>2586</ele>
        <time>2026-07-29T07:37:52.716Z</time>
      </trkpt>
      <trkpt lat="45.75546" lon="6.7433">
        <ele>2586</ele>
        <time>2026-07-29T07:37:53.716Z</time>
      </trkpt>
      <trkpt lat="45.75546" lon="6.7433">
        <ele>2586</ele>
        <time>2026-07-29T07:37:54.716Z</time>
      </trkpt>
      <trkpt lat="45.75546" lon="6.74331">
        <ele>2586</ele>
        <time>2026-07-29T07:37:55.716Z</time>
      </trkpt>
      <trkpt lat="45.75546" lon="6.74331">
        <ele>2586</ele>
        <time>2026-07-29T07:37:56.716Z</time>
      </trkpt>
      <trkpt lat="45.75546" lon="6.74331">
        <ele>2586</ele>
        <time>2026-07-29T07:37:57.716Z</time>
      </trkpt>
      <trkpt lat="45.75546" lon="6.74331">
        <ele>2586</ele>
        <time>2026-07-29T07:37:58.716Z</time>
      </trkpt>
      <trkpt lat="45.75546" lon="6.74331">
        <ele>2586</ele>
        <time>2026-07-29T07:37:59.716Z</time>
      </trkpt>
      <trkpt lat="45.75546" lon="6.74331">
        <ele>2586</ele>
        <time>2026-07-29T07:38:00.716Z</time>
      </trkpt>
      <trkpt lat="45.75546" lon="6.74331">
        <ele>2586</ele>
        <time>2026-07-29T07:38:01.716Z</time>
      </trkpt>
      <trkpt lat="45.75546" lon="6.74331">
        <ele>2586</ele>
        <time>2026-07-29T07:38:02.716Z</time>
      </trkpt>
      <trkpt lat="45.75546" lon="6.74331">
        <ele>2586</ele>
        <time>2026-07-29T07:38:03.716Z</time>
      </trkpt>
      <trkpt lat="45.75546" lon="6.74331">
        <ele>2586</ele>
        <time>2026-07-29T07:38:04.716Z</time>
      </trkpt>
      <trkpt lat="45.75546" lon="6.74331">
        <ele>2586</ele>
        <time>2026-07-29T07:38:05.716Z</time>
      </trkpt>
      <trkpt lat="45.75546" lon="6.74331">
        <ele>2586</ele>
        <time>2026-07-29T07:38:06.716Z</time>
      </trkpt>
      <trkpt lat="45.75546" lon="6.74331">
        <ele>2586</ele>
        <time>2026-07-29T07:38:07.716Z</time>
      </trkpt>
      <trkpt lat="45.75546" lon="6.74331">
        <ele>2586</ele>
        <time>2026-07-29T07:38:08.716Z</time>
      </trkpt>
      <trkpt lat="45.75546" lon="6.74331">
        <ele>2586</ele>
        <time>2026-07-29T07:38:09.716Z</time>
      </trkpt>
      <trkpt lat="45.75546" lon="6.74331">
        <ele>2587</ele>
        <time>2026-07-29T07:38:10.716Z</time>
      </trkpt>
      <trkpt lat="45.75546" lon="6.74331">
        <ele>2587</ele>
        <time>2026-07-29T07:38:11.716Z</time>
      </trkpt>
      <trkpt lat="45.75546" lon="6.74331">
        <ele>2587</ele>
        <time>2026-07-29T07:38:12.716Z</time>
      </trkpt>
      <trkpt lat="45.75546" lon="6.74331">
        <ele>2587</ele>
        <time>2026-07-29T07:38:13.716Z</time>
      </trkpt>
      <trkpt lat="45.75546" lon="6.74331">
        <ele>2587</ele>
        <time>2026-07-29T07:38:14.716Z</time>
      </trkpt>
      <trkpt lat="45.75546" lon="6.74331">
        <ele>2587</ele>
        <time>2026-07-29T07:38:15.716Z</time>
      </trkpt>
      <trkpt lat="45.75546" lon="6.74331">
        <ele>2587</ele>
        <time>2026-07-29T07:38:16.716Z</time>
      </trkpt>
      <trkpt lat="45.75546" lon="6.74331">
        <ele>2587</ele>
        <time>2026-07-29T07:38:17.716Z</time>
      </trkpt>
      <trkpt lat="45.75546" lon="6.74331">
        <ele>2587</ele>
        <time>2026-07-29T07:38:18.716Z</time>
      </trkpt>
      <trkpt lat="45.75546" lon="6.74331">
        <ele>2587</ele>
        <time>2026-07-29T07:38:19.716Z</time>
      </trkpt>
      <trkpt lat="45.75546" lon="6.74331">
        <ele>2587</ele>
        <time>2026-07-29T07:38:20.716Z</time>
      </trkpt>
      <trkpt lat="45.75546" lon="6.74331">
        <ele>2587</ele>
        <time>2026-07-29T07:38:21.716Z</time>
      </trkpt>
      <trkpt lat="45.75546" lon="6.74331">
        <ele>2587</ele>
        <time>2026-07-29T07:38:22.716Z</time>
      </trkpt>
      <trkpt lat="45.75546" lon="6.74331">
        <ele>2587</ele>
        <time>2026-07-29T07:38:23.716Z</time>
      </trkpt>
      <trkpt lat="45.75546" lon="6.74331">
        <ele>2587</ele>
        <time>2026-07-29T07:38:24.716Z</time>
      </trkpt>
      <trkpt lat="45.75546" lon="6.74331">
        <ele>2587</ele>
        <time>2026-07-29T07:38:25.716Z</time>
      </trkpt>
      <trkpt lat="45.75546" lon="6.74331">
        <ele>2587</ele>
        <time>2026-07-29T07:38:26.716Z</time>
      </trkpt>
      <trkpt lat="45.75546" lon="6.74331">
        <ele>2587</ele>
        <time>2026-07-29T07:38:27.716Z</time>
      </trkpt>
      <trkpt lat="45.75546" lon="6.74331">
        <ele>2587</ele>
        <time>2026-07-29T07:38:28.716Z</time>
      </trkpt>
      <trkpt lat="45.75545" lon="6.74331">
        <ele>2587</ele>
        <time>2026-07-29T07:38:29.716Z</time>
      </trkpt>
      <trkpt lat="45.75545" lon="6.74331">
        <ele>2587</ele>
        <time>2026-07-29T07:38:30.716Z</time>
      </trkpt>
      <trkpt lat="45.75545" lon="6.74331">
        <ele>2587</ele>
        <time>2026-07-29T07:38:31.716Z</time>
      </trkpt>
      <trkpt lat="45.75545" lon="6.74331">
        <ele>2587</ele>
        <time>2026-07-29T07:38:32.716Z</time>
      </trkpt>
      <trkpt lat="45.75545" lon="6.74331">
        <ele>2587</ele>
        <time>2026-07-29T07:38:33.716Z</time>
      </trkpt>
      <trkpt lat="45.75545" lon="6.74331">
        <ele>2587</ele>
        <time>2026-07-29T07:38:34.716Z</time>
      </trkpt>
      <trkpt lat="45.75545" lon="6.74331">
        <ele>2587</ele>
        <time>2026-07-29T07:38:35.716Z</time>
      </trkpt>
      <trkpt lat="45.75545" lon="6.74331">
        <ele>2587</ele>
        <time>2026-07-29T07:38:36.716Z</time>
      </trkpt>
      <trkpt lat="45.75545" lon="6.74331">
        <ele>2587</ele>
        <time>2026-07-29T07:38:37.716Z</time>
      </trkpt>
      <trkpt lat="45.75545" lon="6.74331">
        <ele>2587</ele>
        <time>2026-07-29T07:38:38.716Z</time>
      </trkpt>
      <trkpt lat="45.75545" lon="6.74331">
        <ele>2587</ele>
        <time>2026-07-29T07:38:39.716Z</time>
      </trkpt>
      <trkpt lat="45.75544" lon="6.74331">
        <ele>2587</ele>
        <time>2026-07-29T07:38:40.716Z</time>
      </trkpt>
      <trkpt lat="45.75544" lon="6.74331">
        <ele>2587</ele>
        <time>2026-07-29T07:38:41.716Z</time>
      </trkpt>
      <trkpt lat="45.75544" lon="6.74331">
        <ele>2587</ele>
        <time>2026-07-29T07:38:42.716Z</time>
      </trkpt>
      <trkpt lat="45.75544" lon="6.74331">
        <ele>2587</ele>
        <time>2026-07-29T07:38:43.716Z</time>
      </trkpt>
      <trkpt lat="45.75544" lon="6.74331">
        <ele>2587</ele>
        <time>2026-07-29T07:38:44.716Z</time>
      </trkpt>
      <trkpt lat="45.75544" lon="6.74331">
        <ele>2587</ele>
        <time>2026-07-29T07:38:45.716Z</time>
      </trkpt>
      <trkpt lat="45.75544" lon="6.74331">
        <ele>2587</ele>
        <time>2026-07-29T07:38:46.716Z</time>
      </trkpt>
      <trkpt lat="45.75544" lon="6.74331">
        <ele>2587</ele>
        <time>2026-07-29T07:38:47.716Z</time>
      </trkpt>
      <trkpt lat="45.75544" lon="6.74331">
        <ele>2587</ele>
        <time>2026-07-29T07:38:48.716Z</time>
      </trkpt>
      <trkpt lat="45.75544" lon="6.74331">
        <ele>2587</ele>
        <time>2026-07-29T07:38:49.716Z</time>
      </trkpt>
      <trkpt lat="45.75544" lon="6.74331">
        <ele>2587</ele>
        <time>2026-07-29T07:38:50.716Z</time>
      </trkpt>
      <trkpt lat="45.75544" lon="6.74331">
        <ele>2587</ele>
        <time>2026-07-29T07:38:51.716Z</time>
      </trkpt>
      <trkpt lat="45.75544" lon="6.74331">
        <ele>2587</ele>
        <time>2026-07-29T07:38:52.716Z</time>
      </trkpt>
      <trkpt lat="45.75543" lon="6.74331">
        <ele>2588</ele>
        <time>2026-07-29T07:38:53.716Z</time>
      </trkpt>
      <trkpt lat="45.75543" lon="6.74331">
        <ele>2588</ele>
        <time>2026-07-29T07:38:54.716Z</time>
      </trkpt>
      <trkpt lat="45.75543" lon="6.74331">
        <ele>2588</ele>
        <time>2026-07-29T07:38:55.716Z</time>
      </trkpt>
      <trkpt lat="45.75543" lon="6.74331">
        <ele>2588</ele>
        <time>2026-07-29T07:38:56.716Z</time>
      </trkpt>
      <trkpt lat="45.75543" lon="6.74331">
        <ele>2588</ele>
        <time>2026-07-29T07:38:57.716Z</time>
      </trkpt>
      <trkpt lat="45.75543" lon="6.74331">
        <ele>2588</ele>
        <time>2026-07-29T07:38:58.716Z</time>
      </trkpt>
      <trkpt lat="45.75543" lon="6.74331">
        <ele>2588</ele>
        <time>2026-07-29T07:38:59.716Z</time>
      </trkpt>
      <trkpt lat="45.75543" lon="6.74332">
        <ele>2588</ele>
        <time>2026-07-29T07:39:00.716Z</time>
      </trkpt>
      <trkpt lat="45.75543" lon="6.74332">
        <ele>2588</ele>
        <time>2026-07-29T07:39:01.716Z</time>
      </trkpt>
      <trkpt lat="45.75543" lon="6.74332">
        <ele>2588</ele>
        <time>2026-07-29T07:39:02.716Z</time>
      </trkpt>
      <trkpt lat="45.75543" lon="6.74333">
        <ele>2588</ele>
        <time>2026-07-29T07:39:03.716Z</time>
      </trkpt>
      <trkpt lat="45.75542" lon="6.74333">
        <ele>2588</ele>
        <time>2026-07-29T07:39:04.716Z</time>
      </trkpt>
      <trkpt lat="45.75542" lon="6.74333">
        <ele>2588</ele>
        <time>2026-07-29T07:39:05.716Z</time>
      </trkpt>
      <trkpt lat="45.75542" lon="6.74334">
        <ele>2588</ele>
        <time>2026-07-29T07:39:06.716Z</time>
      </trkpt>
      <trkpt lat="45.75542" lon="6.74334">
        <ele>2588</ele>
        <time>2026-07-29T07:39:07.716Z</time>
      </trkpt>
      <trkpt lat="45.75542" lon="6.74334">
        <ele>2588</ele>
        <time>2026-07-29T07:39:08.716Z</time>
      </trkpt>
      <trkpt lat="45.75542" lon="6.74334">
        <ele>2588</ele>
        <time>2026-07-29T07:39:09.716Z</time>
      </trkpt>
      <trkpt lat="45.75542" lon="6.74334">
        <ele>2588</ele>
        <time>2026-07-29T07:39:10.716Z</time>
      </trkpt>
      <trkpt lat="45.75542" lon="6.74334">
        <ele>2588</ele>
        <time>2026-07-29T07:39:11.716Z</time>
      </trkpt>
      <trkpt lat="45.75542" lon="6.74334">
        <ele>2589</ele>
        <time>2026-07-29T07:39:12.716Z</time>
      </trkpt>
      <trkpt lat="45.75542" lon="6.74334">
        <ele>2589</ele>
        <time>2026-07-29T07:39:13.716Z</time>
      </trkpt>
      <trkpt lat="45.75542" lon="6.74334">
        <ele>2589</ele>
        <time>2026-07-29T07:39:14.716Z</time>
      </trkpt>
      <trkpt lat="45.75542" lon="6.74334">
        <ele>2589</ele>
        <time>2026-07-29T07:39:15.716Z</time>
      </trkpt>
      <trkpt lat="45.75542" lon="6.74335">
        <ele>2589</ele>
        <time>2026-07-29T07:39:16.716Z</time>
      </trkpt>
      <trkpt lat="45.75542" lon="6.74335">
        <ele>2589</ele>
        <time>2026-07-29T07:39:17.716Z</time>
      </trkpt>
      <trkpt lat="45.75542" lon="6.74335">
        <ele>2589</ele>
        <time>2026-07-29T07:39:18.716Z</time>
      </trkpt>
      <trkpt lat="45.75542" lon="6.74336">
        <ele>2589</ele>
        <time>2026-07-29T07:39:19.716Z</time>
      </trkpt>
      <trkpt lat="45.75541" lon="6.74336">
        <ele>2589</ele>
        <time>2026-07-29T07:39:20.716Z</time>
      </trkpt>
      <trkpt lat="45.75541" lon="6.74336">
        <ele>2589</ele>
        <time>2026-07-29T07:39:21.716Z</time>
      </trkpt>
      <trkpt lat="45.75541" lon="6.74336">
        <ele>2589</ele>
        <time>2026-07-29T07:39:22.716Z</time>
      </trkpt>
      <trkpt lat="45.75541" lon="6.74336">
        <ele>2589</ele>
        <time>2026-07-29T07:39:23.716Z</time>
      </trkpt>
      <trkpt lat="45.75541" lon="6.74336">
        <ele>2589</ele>
        <time>2026-07-29T07:39:24.716Z</time>
      </trkpt>
      <trkpt lat="45.75541" lon="6.74336">
        <ele>2589</ele>
        <time>2026-07-29T07:39:25.716Z</time>
      </trkpt>
      <trkpt lat="45.75541" lon="6.74336">
        <ele>2589</ele>
        <time>2026-07-29T07:39:26.716Z</time>
      </trkpt>
      <trkpt lat="45.75541" lon="6.74336">
        <ele>2589</ele>
        <time>2026-07-29T07:39:27.716Z</time>
      </trkpt>
      <trkpt lat="45.75541" lon="6.74336">
        <ele>2589</ele>
        <time>2026-07-29T07:39:28.716Z</time>
      </trkpt>
      <trkpt lat="45.75541" lon="6.74336">
        <ele>2590</ele>
        <time>2026-07-29T07:39:29.716Z</time>
      </trkpt>
      <trkpt lat="45.7554" lon="6.74336">
        <ele>2590</ele>
        <time>2026-07-29T07:39:30.716Z</time>
      </trkpt>
      <trkpt lat="45.7554" lon="6.74336">
        <ele>2590</ele>
        <time>2026-07-29T07:39:31.716Z</time>
      </trkpt>
      <trkpt lat="45.7554" lon="6.74336">
        <ele>2590</ele>
        <time>2026-07-29T07:39:32.716Z</time>
      </trkpt>
      <trkpt lat="45.75539" lon="6.74336">
        <ele>2590</ele>
        <time>2026-07-29T07:39:33.716Z</time>
      </trkpt>
      <trkpt lat="45.75539" lon="6.74336">
        <ele>2590</ele>
        <time>2026-07-29T07:39:34.716Z</time>
      </trkpt>
      <trkpt lat="45.75539" lon="6.74336">
        <ele>2590</ele>
        <time>2026-07-29T07:39:35.716Z</time>
      </trkpt>
      <trkpt lat="45.75539" lon="6.74336">
        <ele>2590</ele>
        <time>2026-07-29T07:39:36.716Z</time>
      </trkpt>
      <trkpt lat="45.75539" lon="6.74336">
        <ele>2590</ele>
        <time>2026-07-29T07:39:37.716Z</time>
      </trkpt>
      <trkpt lat="45.75538" lon="6.74336">
        <ele>2590</ele>
        <time>2026-07-29T07:39:38.716Z</time>
      </trkpt>
      <trkpt lat="45.75538" lon="6.74336">
        <ele>2590</ele>
        <time>2026-07-29T07:39:39.716Z</time>
      </trkpt>
      <trkpt lat="45.75538" lon="6.74336">
        <ele>2590</ele>
        <time>2026-07-29T07:39:40.716Z</time>
      </trkpt>
      <trkpt lat="45.75538" lon="6.74336">
        <ele>2590</ele>
        <time>2026-07-29T07:39:41.716Z</time>
      </trkpt>
      <trkpt lat="45.75537" lon="6.74336">
        <ele>2590</ele>
        <time>2026-07-29T07:39:42.716Z</time>
      </trkpt>
      <trkpt lat="45.75537" lon="6.74336">
        <ele>2590</ele>
        <time>2026-07-29T07:39:43.716Z</time>
      </trkpt>
      <trkpt lat="45.75537" lon="6.74336">
        <ele>2590</ele>
        <time>2026-07-29T07:39:44.716Z</time>
      </trkpt>
      <trkpt lat="45.75536" lon="6.74336">
        <ele>2590</ele>
        <time>2026-07-29T07:39:45.716Z</time>
      </trkpt>
      <trkpt lat="45.75536" lon="6.74335">
        <ele>2590</ele>
        <time>2026-07-29T07:39:46.716Z</time>
      </trkpt>
      <trkpt lat="45.75536" lon="6.74335">
        <ele>2591</ele>
        <time>2026-07-29T07:39:47.716Z</time>
      </trkpt>
      <trkpt lat="45.75535" lon="6.74335">
        <ele>2591</ele>
        <time>2026-07-29T07:39:48.716Z</time>
      </trkpt>
      <trkpt lat="45.75535" lon="6.74335">
        <ele>2591</ele>
        <time>2026-07-29T07:39:49.716Z</time>
      </trkpt>
      <trkpt lat="45.75535" lon="6.74335">
        <ele>2591</ele>
        <time>2026-07-29T07:39:50.716Z</time>
      </trkpt>
      <trkpt lat="45.75535" lon="6.74335">
        <ele>2591</ele>
        <time>2026-07-29T07:39:51.716Z</time>
      </trkpt>
      <trkpt lat="45.75535" lon="6.74335">
        <ele>2591</ele>
        <time>2026-07-29T07:39:52.716Z</time>
      </trkpt>
      <trkpt lat="45.75534" lon="6.74335">
        <ele>2591</ele>
        <time>2026-07-29T07:39:53.716Z</time>
      </trkpt>
      <trkpt lat="45.75534" lon="6.74335">
        <ele>2591</ele>
        <time>2026-07-29T07:39:54.716Z</time>
      </trkpt>
      <trkpt lat="45.75534" lon="6.74335">
        <ele>2591</ele>
        <time>2026-07-29T07:39:55.716Z</time>
      </trkpt>
      <trkpt lat="45.75534" lon="6.74335">
        <ele>2591</ele>
        <time>2026-07-29T07:39:56.716Z</time>
      </trkpt>
      <trkpt lat="45.75534" lon="6.74335">
        <ele>2591</ele>
        <time>2026-07-29T07:39:57.716Z</time>
      </trkpt>
      <trkpt lat="45.75534" lon="6.74335">
        <ele>2591</ele>
        <time>2026-07-29T07:39:58.716Z</time>
      </trkpt>
      <trkpt lat="45.75534" lon="6.74335">
        <ele>2591</ele>
        <time>2026-07-29T07:39:59.716Z</time>
      </trkpt>
      <trkpt lat="45.75533" lon="6.74336">
        <ele>2592</ele>
        <time>2026-07-29T07:40:00.716Z</time>
      </trkpt>
      <trkpt lat="45.75533" lon="6.74336">
        <ele>2592</ele>
        <time>2026-07-29T07:40:01.716Z</time>
      </trkpt>
      <trkpt lat="45.75533" lon="6.74336">
        <ele>2592</ele>
        <time>2026-07-29T07:40:02.716Z</time>
      </trkpt>
      <trkpt lat="45.75533" lon="6.74336">
        <ele>2592</ele>
        <time>2026-07-29T07:40:03.716Z</time>
      </trkpt>
      <trkpt lat="45.75533" lon="6.74336">
        <ele>2592</ele>
        <time>2026-07-29T07:40:04.716Z</time>
      </trkpt>
      <trkpt lat="45.75533" lon="6.74337">
        <ele>2592</ele>
        <time>2026-07-29T07:40:05.716Z</time>
      </trkpt>
      <trkpt lat="45.75533" lon="6.74337">
        <ele>2592</ele>
        <time>2026-07-29T07:40:06.716Z</time>
      </trkpt>
      <trkpt lat="45.75533" lon="6.74337">
        <ele>2592</ele>
        <time>2026-07-29T07:40:07.716Z</time>
      </trkpt>
      <trkpt lat="45.75532" lon="6.74337">
        <ele>2592</ele>
        <time>2026-07-29T07:40:08.716Z</time>
      </trkpt>
      <trkpt lat="45.75532" lon="6.74337">
        <ele>2592</ele>
        <time>2026-07-29T07:40:09.716Z</time>
      </trkpt>
      <trkpt lat="45.75532" lon="6.74337">
        <ele>2592</ele>
        <time>2026-07-29T07:40:10.716Z</time>
      </trkpt>
      <trkpt lat="45.75532" lon="6.74338">
        <ele>2592</ele>
        <time>2026-07-29T07:40:11.716Z</time>
      </trkpt>
      <trkpt lat="45.75532" lon="6.74338">
        <ele>2592</ele>
        <time>2026-07-29T07:40:12.716Z</time>
      </trkpt>
      <trkpt lat="45.75532" lon="6.74338">
        <ele>2592</ele>
        <time>2026-07-29T07:40:13.716Z</time>
      </trkpt>
      <trkpt lat="45.75532" lon="6.74338">
        <ele>2592</ele>
        <time>2026-07-29T07:40:14.716Z</time>
      </trkpt>
      <trkpt lat="45.75532" lon="6.74338">
        <ele>2593</ele>
        <time>2026-07-29T07:40:15.716Z</time>
      </trkpt>
      <trkpt lat="45.75532" lon="6.74338">
        <ele>2593</ele>
        <time>2026-07-29T07:40:16.716Z</time>
      </trkpt>
      <trkpt lat="45.75531" lon="6.74338">
        <ele>2593</ele>
        <time>2026-07-29T07:40:17.716Z</time>
      </trkpt>
      <trkpt lat="45.75531" lon="6.74338">
        <ele>2593</ele>
        <time>2026-07-29T07:40:18.716Z</time>
      </trkpt>
      <trkpt lat="45.75531" lon="6.74338">
        <ele>2593</ele>
        <time>2026-07-29T07:40:19.716Z</time>
      </trkpt>
      <trkpt lat="45.75531" lon="6.74338">
        <ele>2593</ele>
        <time>2026-07-29T07:40:20.716Z</time>
      </trkpt>
      <trkpt lat="45.75531" lon="6.74338">
        <ele>2593</ele>
        <time>2026-07-29T07:40:21.716Z</time>
      </trkpt>
      <trkpt lat="45.75531" lon="6.74338">
        <ele>2593</ele>
        <time>2026-07-29T07:40:22.716Z</time>
      </trkpt>
      <trkpt lat="45.75531" lon="6.74338">
        <ele>2593</ele>
        <time>2026-07-29T07:40:23.716Z</time>
      </trkpt>
      <trkpt lat="45.7553" lon="6.74338">
        <ele>2593</ele>
        <time>2026-07-29T07:40:24.716Z</time>
      </trkpt>
      <trkpt lat="45.75529" lon="6.74338">
        <ele>2593</ele>
        <time>2026-07-29T07:40:25.716Z</time>
      </trkpt>
      <trkpt lat="45.75528" lon="6.74338">
        <ele>2594</ele>
        <time>2026-07-29T07:40:26.716Z</time>
      </trkpt>
      <trkpt lat="45.75527" lon="6.74339">
        <ele>2594</ele>
        <time>2026-07-29T07:40:27.716Z</time>
      </trkpt>
      <trkpt lat="45.75526" lon="6.74339">
        <ele>2594</ele>
        <time>2026-07-29T07:40:28.716Z</time>
      </trkpt>
      <trkpt lat="45.75525" lon="6.74339">
        <ele>2595</ele>
        <time>2026-07-29T07:40:29.716Z</time>
      </trkpt>
      <trkpt lat="45.75524" lon="6.7434">
        <ele>2596</ele>
        <time>2026-07-29T07:40:30.716Z</time>
      </trkpt>
      <trkpt lat="45.75523" lon="6.7434">
        <ele>2597</ele>
        <time>2026-07-29T07:40:31.716Z</time>
      </trkpt>
      <trkpt lat="45.75522" lon="6.7434">
        <ele>2598</ele>
        <time>2026-07-29T07:40:32.716Z</time>
      </trkpt>
      <trkpt lat="45.75522" lon="6.7434">
        <ele>2599</ele>
        <time>2026-07-29T07:40:33.716Z</time>
      </trkpt>
      <trkpt lat="45.75522" lon="6.7434">
        <ele>2600</ele>
        <time>2026-07-29T07:40:34.716Z</time>
      </trkpt>
      <trkpt lat="45.75522" lon="6.7434">
        <ele>2600</ele>
        <time>2026-07-29T07:40:35.716Z</time>
      </trkpt>
      <trkpt lat="45.75521" lon="6.7434">
        <ele>2601</ele>
        <time>2026-07-29T07:40:36.716Z</time>
      </trkpt>
      <trkpt lat="45.75521" lon="6.7434">
        <ele>2602</ele>
        <time>2026-07-29T07:40:37.716Z</time>
      </trkpt>
      <trkpt lat="45.75521" lon="6.7434">
        <ele>2603</ele>
        <time>2026-07-29T07:40:38.716Z</time>
      </trkpt>
      <trkpt lat="45.75521" lon="6.7434">
        <ele>2604</ele>
        <time>2026-07-29T07:40:39.716Z</time>
      </trkpt>
      <trkpt lat="45.7552" lon="6.7434">
        <ele>2605</ele>
        <time>2026-07-29T07:40:40.716Z</time>
      </trkpt>
      <trkpt lat="45.7552" lon="6.74341">
        <ele>2606</ele>
        <time>2026-07-29T07:40:41.716Z</time>
      </trkpt>
      <trkpt lat="45.7552" lon="6.74341">
        <ele>2607</ele>
        <time>2026-07-29T07:40:42.716Z</time>
      </trkpt>
      <trkpt lat="45.7552" lon="6.74341">
        <ele>2608</ele>
        <time>2026-07-29T07:40:43.716Z</time>
      </trkpt>
      <trkpt lat="45.75519" lon="6.74341">
        <ele>2608</ele>
        <time>2026-07-29T07:40:44.716Z</time>
      </trkpt>
      <trkpt lat="45.75519" lon="6.74341">
        <ele>2609</ele>
        <time>2026-07-29T07:40:45.716Z</time>
      </trkpt>
      <trkpt lat="45.75519" lon="6.74341">
        <ele>2609</ele>
        <time>2026-07-29T07:40:46.716Z</time>
      </trkpt>
      <trkpt lat="45.75519" lon="6.74341">
        <ele>2610</ele>
        <time>2026-07-29T07:40:47.716Z</time>
      </trkpt>
      <trkpt lat="45.75518" lon="6.74341">
        <ele>2610</ele>
        <time>2026-07-29T07:40:48.716Z</time>
      </trkpt>
      <trkpt lat="45.75518" lon="6.74341">
        <ele>2611</ele>
        <time>2026-07-29T07:40:49.716Z</time>
      </trkpt>
      <trkpt lat="45.75518" lon="6.7434">
        <ele>2611</ele>
        <time>2026-07-29T07:40:50.716Z</time>
      </trkpt>
      <trkpt lat="45.75518" lon="6.7434">
        <ele>2611</ele>
        <time>2026-07-29T07:40:51.716Z</time>
      </trkpt>
      <trkpt lat="45.75518" lon="6.7434">
        <ele>2612</ele>
        <time>2026-07-29T07:40:52.716Z</time>
      </trkpt>
      <trkpt lat="45.75518" lon="6.7434">
        <ele>2612</ele>
        <time>2026-07-29T07:40:53.716Z</time>
      </trkpt>
      <trkpt lat="45.75518" lon="6.7434">
        <ele>2611</ele>
        <time>2026-07-29T07:40:54.716Z</time>
      </trkpt>
      <trkpt lat="45.75518" lon="6.7434">
        <ele>2611</ele>
        <time>2026-07-29T07:40:55.716Z</time>
      </trkpt>
      <trkpt lat="45.75518" lon="6.7434">
        <ele>2611</ele>
        <time>2026-07-29T07:40:56.716Z</time>
      </trkpt>
      <trkpt lat="45.75518" lon="6.7434">
        <ele>2611</ele>
        <time>2026-07-29T07:40:57.716Z</time>
      </trkpt>
      <trkpt lat="45.75518" lon="6.7434">
        <ele>2610</ele>
        <time>2026-07-29T07:40:58.716Z</time>
      </trkpt>
      <trkpt lat="45.75518" lon="6.7434">
        <ele>2610</ele>
        <time>2026-07-29T07:40:59.716Z</time>
      </trkpt>
      <trkpt lat="45.75518" lon="6.7434">
        <ele>2610</ele>
        <time>2026-07-29T07:41:00.716Z</time>
      </trkpt>
      <trkpt lat="45.75518" lon="6.7434">
        <ele>2610</ele>
        <time>2026-07-29T07:41:01.716Z</time>
      </trkpt>
      <trkpt lat="45.75518" lon="6.7434">
        <ele>2610</ele>
        <time>2026-07-29T07:41:02.716Z</time>
      </trkpt>
      <trkpt lat="45.75518" lon="6.7434">
        <ele>2610</ele>
        <time>2026-07-29T07:41:03.716Z</time>
      </trkpt>
      <trkpt lat="45.75518" lon="6.7434">
        <ele>2610</ele>
        <time>2026-07-29T07:41:04.716Z</time>
      </trkpt>
      <trkpt lat="45.75518" lon="6.7434">
        <ele>2610</ele>
        <time>2026-07-29T07:41:05.716Z</time>
      </trkpt>
      <trkpt lat="45.75518" lon="6.7434">
        <ele>2610</ele>
        <time>2026-07-29T07:41:06.716Z</time>
      </trkpt>
      <trkpt lat="45.75518" lon="6.7434">
        <ele>2610</ele>
        <time>2026-07-29T07:41:07.716Z</time>
      </trkpt>
      <trkpt lat="45.75518" lon="6.7434">
        <ele>2610</ele>
        <time>2026-07-29T07:41:08.716Z</time>
      </trkpt>
      <trkpt lat="45.75518" lon="6.7434">
        <ele>2610</ele>
        <time>2026-07-29T07:41:09.716Z</time>
      </trkpt>
      <trkpt lat="45.75518" lon="6.7434">
        <ele>2610</ele>
        <time>2026-07-29T07:41:10.716Z</time>
      </trkpt>
      <trkpt lat="45.75517" lon="6.7434">
        <ele>2610</ele>
        <time>2026-07-29T07:41:11.716Z</time>
      </trkpt>
      <trkpt lat="45.75517" lon="6.7434">
        <ele>2610</ele>
        <time>2026-07-29T07:41:12.716Z</time>
      </trkpt>
      <trkpt lat="45.75517" lon="6.74339">
        <ele>2610</ele>
        <time>2026-07-29T07:41:13.716Z</time>
      </trkpt>
      <trkpt lat="45.75517" lon="6.74339">
        <ele>2610</ele>
        <time>2026-07-29T07:41:14.716Z</time>
      </trkpt>
      <trkpt lat="45.75517" lon="6.74339">
        <ele>2610</ele>
        <time>2026-07-29T07:41:15.716Z</time>
      </trkpt>
      <trkpt lat="45.75517" lon="6.74339">
        <ele>2610</ele>
        <time>2026-07-29T07:41:16.716Z</time>
      </trkpt>
      <trkpt lat="45.75517" lon="6.74339">
        <ele>2610</ele>
        <time>2026-07-29T07:41:17.716Z</time>
      </trkpt>
      <trkpt lat="45.75517" lon="6.74339">
        <ele>2610</ele>
        <time>2026-07-29T07:41:18.716Z</time>
      </trkpt>
      <trkpt lat="45.75516" lon="6.74339">
        <ele>2610</ele>
        <time>2026-07-29T07:41:19.716Z</time>
      </trkpt>
      <trkpt lat="45.75516" lon="6.74339">
        <ele>2611</ele>
        <time>2026-07-29T07:41:20.716Z</time>
      </trkpt>
      <trkpt lat="45.75516" lon="6.74339">
        <ele>2611</ele>
        <time>2026-07-29T07:41:21.716Z</time>
      </trkpt>
      <trkpt lat="45.75516" lon="6.74339">
        <ele>2611</ele>
        <time>2026-07-29T07:41:22.716Z</time>
      </trkpt>
      <trkpt lat="45.75516" lon="6.74339">
        <ele>2611</ele>
        <time>2026-07-29T07:41:23.716Z</time>
      </trkpt>
      <trkpt lat="45.75515" lon="6.74339">
        <ele>2611</ele>
        <time>2026-07-29T07:41:24.716Z</time>
      </trkpt>
      <trkpt lat="45.75515" lon="6.74339">
        <ele>2611</ele>
        <time>2026-07-29T07:41:25.717Z</time>
      </trkpt>
      <trkpt lat="45.75515" lon="6.74339">
        <ele>2611</ele>
        <time>2026-07-29T07:41:26.716Z</time>
      </trkpt>
      <trkpt lat="45.75515" lon="6.74339">
        <ele>2611</ele>
        <time>2026-07-29T07:41:27.716Z</time>
      </trkpt>
      <trkpt lat="45.75515" lon="6.74339">
        <ele>2611</ele>
        <time>2026-07-29T07:41:28.716Z</time>
      </trkpt>
      <trkpt lat="45.75514" lon="6.74339">
        <ele>2611</ele>
        <time>2026-07-29T07:41:29.716Z</time>
      </trkpt>
      <trkpt lat="45.75514" lon="6.74339">
        <ele>2611</ele>
        <time>2026-07-29T07:41:30.716Z</time>
      </trkpt>
      <trkpt lat="45.75514" lon="6.74339">
        <ele>2611</ele>
        <time>2026-07-29T07:41:31.716Z</time>
      </trkpt>
      <trkpt lat="45.75514" lon="6.74339">
        <ele>2611</ele>
        <time>2026-07-29T07:41:32.716Z</time>
      </trkpt>
      <trkpt lat="45.75514" lon="6.74339">
        <ele>2611</ele>
        <time>2026-07-29T07:41:33.716Z</time>
      </trkpt>
      <trkpt lat="45.75514" lon="6.74339">
        <ele>2611</ele>
        <time>2026-07-29T07:41:34.716Z</time>
      </trkpt>
      <trkpt lat="45.75514" lon="6.74339">
        <ele>2611</ele>
        <time>2026-07-29T07:41:35.716Z</time>
      </trkpt>
      <trkpt lat="45.75513" lon="6.74339">
        <ele>2611</ele>
        <time>2026-07-29T07:41:36.716Z</time>
      </trkpt>
      <trkpt lat="45.75513" lon="6.74339">
        <ele>2611</ele>
        <time>2026-07-29T07:41:37.716Z</time>
      </trkpt>
      <trkpt lat="45.75513" lon="6.74339">
        <ele>2611</ele>
        <time>2026-07-29T07:41:38.716Z</time>
      </trkpt>
      <trkpt lat="45.75513" lon="6.74339">
        <ele>2611</ele>
        <time>2026-07-29T07:41:39.716Z</time>
      </trkpt>
      <trkpt lat="45.75513" lon="6.74339">
        <ele>2611</ele>
        <time>2026-07-29T07:41:40.716Z</time>
      </trkpt>
      <trkpt lat="45.75513" lon="6.74339">
        <ele>2611</ele>
        <time>2026-07-29T07:41:41.716Z</time>
      </trkpt>
      <trkpt lat="45.75513" lon="6.74339">
        <ele>2612</ele>
        <time>2026-07-29T07:41:42.716Z</time>
      </trkpt>
      <trkpt lat="45.75513" lon="6.74339">
        <ele>2612</ele>
        <time>2026-07-29T07:41:43.716Z</time>
      </trkpt>
      <trkpt lat="45.75513" lon="6.74339">
        <ele>2612</ele>
        <time>2026-07-29T07:41:44.716Z</time>
      </trkpt>
      <trkpt lat="45.75513" lon="6.74339">
        <ele>2612</ele>
        <time>2026-07-29T07:41:45.716Z</time>
      </trkpt>
      <trkpt lat="45.75513" lon="6.74339">
        <ele>2612</ele>
        <time>2026-07-29T07:41:46.716Z</time>
      </trkpt>
      <trkpt lat="45.75513" lon="6.74339">
        <ele>2612</ele>
        <time>2026-07-29T07:41:47.716Z</time>
      </trkpt>
      <trkpt lat="45.75513" lon="6.74339">
        <ele>2612</ele>
        <time>2026-07-29T07:41:48.716Z</time>
      </trkpt>
      <trkpt lat="45.75513" lon="6.74339">
        <ele>2612</ele>
        <time>2026-07-29T07:41:49.716Z</time>
      </trkpt>
      <trkpt lat="45.75513" lon="6.74339">
        <ele>2612</ele>
        <time>2026-07-29T07:41:50.716Z</time>
      </trkpt>
      <trkpt lat="45.75513" lon="6.74339">
        <ele>2612</ele>
        <time>2026-07-29T07:41:51.716Z</time>
      </trkpt>
      <trkpt lat="45.75512" lon="6.74339">
        <ele>2612</ele>
        <time>2026-07-29T07:41:52.716Z</time>
      </trkpt>
      <trkpt lat="45.75512" lon="6.74339">
        <ele>2612</ele>
        <time>2026-07-29T07:41:53.716Z</time>
      </trkpt>
      <trkpt lat="45.75512" lon="6.74339">
        <ele>2612</ele>
        <time>2026-07-29T07:41:54.716Z</time>
      </trkpt>
      <trkpt lat="45.75512" lon="6.74339">
        <ele>2613</ele>
        <time>2026-07-29T07:41:55.716Z</time>
      </trkpt>
      <trkpt lat="45.75512" lon="6.74339">
        <ele>2613</ele>
        <time>2026-07-29T07:41:56.716Z</time>
      </trkpt>
      <trkpt lat="45.75512" lon="6.74339">
        <ele>2613</ele>
        <time>2026-07-29T07:41:57.716Z</time>
      </trkpt>
      <trkpt lat="45.75512" lon="6.74339">
        <ele>2613</ele>
        <time>2026-07-29T07:41:58.716Z</time>
      </trkpt>
      <trkpt lat="45.75512" lon="6.74339">
        <ele>2613</ele>
        <time>2026-07-29T07:41:59.716Z</time>
      </trkpt>
      <trkpt lat="45.75512" lon="6.74339">
        <ele>2613</ele>
        <time>2026-07-29T07:42:00.716Z</time>
      </trkpt>
      <trkpt lat="45.75512" lon="6.74339">
        <ele>2613</ele>
        <time>2026-07-29T07:42:01.716Z</time>
      </trkpt>
      <trkpt lat="45.75512" lon="6.74339">
        <ele>2613</ele>
        <time>2026-07-29T07:42:02.716Z</time>
      </trkpt>
      <trkpt lat="45.75512" lon="6.74339">
        <ele>2613</ele>
        <time>2026-07-29T07:42:03.716Z</time>
      </trkpt>
      <trkpt lat="45.75512" lon="6.74339">
        <ele>2613</ele>
        <time>2026-07-29T07:42:04.716Z</time>
      </trkpt>
      <trkpt lat="45.75511" lon="6.74339">
        <ele>2613</ele>
        <time>2026-07-29T07:42:05.716Z</time>
      </trkpt>
      <trkpt lat="45.75511" lon="6.74339">
        <ele>2613</ele>
        <time>2026-07-29T07:42:06.716Z</time>
      </trkpt>
      <trkpt lat="45.75511" lon="6.74339">
        <ele>2613</ele>
        <time>2026-07-29T07:42:07.716Z</time>
      </trkpt>
      <trkpt lat="45.7551" lon="6.74339">
        <ele>2613</ele>
        <time>2026-07-29T07:42:08.716Z</time>
      </trkpt>
      <trkpt lat="45.7551" lon="6.74339">
        <ele>2613</ele>
        <time>2026-07-29T07:42:09.716Z</time>
      </trkpt>
      <trkpt lat="45.75509" lon="6.7434">
        <ele>2613</ele>
        <time>2026-07-29T07:42:10.716Z</time>
      </trkpt>
      <trkpt lat="45.75509" lon="6.7434">
        <ele>2613</ele>
        <time>2026-07-29T07:42:11.716Z</time>
      </trkpt>
      <trkpt lat="45.75509" lon="6.7434">
        <ele>2614</ele>
        <time>2026-07-29T07:42:12.716Z</time>
      </trkpt>
      <trkpt lat="45.75508" lon="6.7434">
        <ele>2614</ele>
        <time>2026-07-29T07:42:13.716Z</time>
      </trkpt>
      <trkpt lat="45.75508" lon="6.7434">
        <ele>2614</ele>
        <time>2026-07-29T07:42:14.716Z</time>
      </trkpt>
      <trkpt lat="45.75508" lon="6.7434">
        <ele>2614</ele>
        <time>2026-07-29T07:42:15.716Z</time>
      </trkpt>
      <trkpt lat="45.75507" lon="6.7434">
        <ele>2614</ele>
        <time>2026-07-29T07:42:16.716Z</time>
      </trkpt>
      <trkpt lat="45.75507" lon="6.7434">
        <ele>2614</ele>
        <time>2026-07-29T07:42:17.716Z</time>
      </trkpt>
      <trkpt lat="45.75507" lon="6.7434">
        <ele>2614</ele>
        <time>2026-07-29T07:42:18.716Z</time>
      </trkpt>
      <trkpt lat="45.75507" lon="6.7434">
        <ele>2614</ele>
        <time>2026-07-29T07:42:19.716Z</time>
      </trkpt>
      <trkpt lat="45.75507" lon="6.7434">
        <ele>2614</ele>
        <time>2026-07-29T07:42:20.716Z</time>
      </trkpt>
      <trkpt lat="45.75507" lon="6.7434">
        <ele>2614</ele>
        <time>2026-07-29T07:42:21.716Z</time>
      </trkpt>
      <trkpt lat="45.75506" lon="6.74341">
        <ele>2614</ele>
        <time>2026-07-29T07:42:22.716Z</time>
      </trkpt>
      <trkpt lat="45.75506" lon="6.74341">
        <ele>2614</ele>
        <time>2026-07-29T07:42:23.716Z</time>
      </trkpt>
      <trkpt lat="45.75506" lon="6.74341">
        <ele>2614</ele>
        <time>2026-07-29T07:42:24.716Z</time>
      </trkpt>
      <trkpt lat="45.75505" lon="6.74341">
        <ele>2614</ele>
        <time>2026-07-29T07:42:25.716Z</time>
      </trkpt>
      <trkpt lat="45.75505" lon="6.74341">
        <ele>2614</ele>
        <time>2026-07-29T07:42:26.716Z</time>
      </trkpt>
      <trkpt lat="45.75504" lon="6.74341">
        <ele>2615</ele>
        <time>2026-07-29T07:42:27.716Z</time>
      </trkpt>
      <trkpt lat="45.75504" lon="6.74341">
        <ele>2615</ele>
        <time>2026-07-29T07:42:28.716Z</time>
      </trkpt>
      <trkpt lat="45.75504" lon="6.74341">
        <ele>2615</ele>
        <time>2026-07-29T07:42:29.716Z</time>
      </trkpt>
      <trkpt lat="45.75503" lon="6.74341">
        <ele>2615</ele>
        <time>2026-07-29T07:42:30.716Z</time>
      </trkpt>
      <trkpt lat="45.75503" lon="6.74341">
        <ele>2615</ele>
        <time>2026-07-29T07:42:31.716Z</time>
      </trkpt>
      <trkpt lat="45.75503" lon="6.74342">
        <ele>2615</ele>
        <time>2026-07-29T07:42:32.716Z</time>
      </trkpt>
      <trkpt lat="45.75503" lon="6.74342">
        <ele>2615</ele>
        <time>2026-07-29T07:42:33.716Z</time>
      </trkpt>
      <trkpt lat="45.75503" lon="6.74342">
        <ele>2615</ele>
        <time>2026-07-29T07:42:34.716Z</time>
      </trkpt>
      <trkpt lat="45.75503" lon="6.74342">
        <ele>2615</ele>
        <time>2026-07-29T07:42:35.716Z</time>
      </trkpt>
      <trkpt lat="45.75503" lon="6.74342">
        <ele>2615</ele>
        <time>2026-07-29T07:42:36.716Z</time>
      </trkpt>
      <trkpt lat="45.75503" lon="6.74343">
        <ele>2615</ele>
        <time>2026-07-29T07:42:37.716Z</time>
      </trkpt>
      <trkpt lat="45.75503" lon="6.74343">
        <ele>2615</ele>
        <time>2026-07-29T07:42:38.716Z</time>
      </trkpt>
      <trkpt lat="45.75503" lon="6.74344">
        <ele>2616</ele>
        <time>2026-07-29T07:42:39.716Z</time>
      </trkpt>
      <trkpt lat="45.75502" lon="6.74344">
        <ele>2616</ele>
        <time>2026-07-29T07:42:40.716Z</time>
      </trkpt>
      <trkpt lat="45.75502" lon="6.74344">
        <ele>2616</ele>
        <time>2026-07-29T07:42:41.716Z</time>
      </trkpt>
      <trkpt lat="45.75502" lon="6.74345">
        <ele>2616</ele>
        <time>2026-07-29T07:42:42.716Z</time>
      </trkpt>
      <trkpt lat="45.75501" lon="6.74345">
        <ele>2616</ele>
        <time>2026-07-29T07:42:43.716Z</time>
      </trkpt>
      <trkpt lat="45.75501" lon="6.74345">
        <ele>2616</ele>
        <time>2026-07-29T07:42:44.716Z</time>
      </trkpt>
      <trkpt lat="45.75501" lon="6.74345">
        <ele>2616</ele>
        <time>2026-07-29T07:42:45.716Z</time>
      </trkpt>
      <trkpt lat="45.75501" lon="6.74345">
        <ele>2616</ele>
        <time>2026-07-29T07:42:46.716Z</time>
      </trkpt>
      <trkpt lat="45.755" lon="6.74345">
        <ele>2616</ele>
        <time>2026-07-29T07:42:47.716Z</time>
      </trkpt>
      <trkpt lat="45.755" lon="6.74345">
        <ele>2616</ele>
        <time>2026-07-29T07:42:48.716Z</time>
      </trkpt>
      <trkpt lat="45.755" lon="6.74346">
        <ele>2616</ele>
        <time>2026-07-29T07:42:49.716Z</time>
      </trkpt>
      <trkpt lat="45.75499" lon="6.74346">
        <ele>2617</ele>
        <time>2026-07-29T07:42:50.716Z</time>
      </trkpt>
      <trkpt lat="45.75499" lon="6.74346">
        <ele>2617</ele>
        <time>2026-07-29T07:42:51.716Z</time>
      </trkpt>
      <trkpt lat="45.75499" lon="6.74346">
        <ele>2617</ele>
        <time>2026-07-29T07:42:52.716Z</time>
      </trkpt>
      <trkpt lat="45.75499" lon="6.74346">
        <ele>2617</ele>
        <time>2026-07-29T07:42:53.716Z</time>
      </trkpt>
      <trkpt lat="45.75499" lon="6.74346">
        <ele>2617</ele>
        <time>2026-07-29T07:42:54.716Z</time>
      </trkpt>
      <trkpt lat="45.75498" lon="6.74346">
        <ele>2617</ele>
        <time>2026-07-29T07:42:55.716Z</time>
      </trkpt>
      <trkpt lat="45.75498" lon="6.74346">
        <ele>2617</ele>
        <time>2026-07-29T07:42:56.716Z</time>
      </trkpt>
      <trkpt lat="45.75498" lon="6.74346">
        <ele>2617</ele>
        <time>2026-07-29T07:42:57.716Z</time>
      </trkpt>
      <trkpt lat="45.75498" lon="6.74346">
        <ele>2617</ele>
        <time>2026-07-29T07:42:58.716Z</time>
      </trkpt>
      <trkpt lat="45.75498" lon="6.74346">
        <ele>2617</ele>
        <time>2026-07-29T07:42:59.716Z</time>
      </trkpt>
      <trkpt lat="45.75498" lon="6.74346">
        <ele>2617</ele>
        <time>2026-07-29T07:43:00.716Z</time>
      </trkpt>
      <trkpt lat="45.75497" lon="6.74346">
        <ele>2617</ele>
        <time>2026-07-29T07:43:01.716Z</time>
      </trkpt>
      <trkpt lat="45.75497" lon="6.74346">
        <ele>2617</ele>
        <time>2026-07-29T07:43:02.716Z</time>
      </trkpt>
      <trkpt lat="45.75497" lon="6.74347">
        <ele>2617</ele>
        <time>2026-07-29T07:43:03.716Z</time>
      </trkpt>
      <trkpt lat="45.75497" lon="6.74347">
        <ele>2617</ele>
        <time>2026-07-29T07:43:04.716Z</time>
      </trkpt>
      <trkpt lat="45.75497" lon="6.74347">
        <ele>2618</ele>
        <time>2026-07-29T07:43:05.716Z</time>
      </trkpt>
      <trkpt lat="45.75497" lon="6.74347">
        <ele>2618</ele>
        <time>2026-07-29T07:43:06.716Z</time>
      </trkpt>
      <trkpt lat="45.75496" lon="6.74347">
        <ele>2618</ele>
        <time>2026-07-29T07:43:07.716Z</time>
      </trkpt>
      <trkpt lat="45.75496" lon="6.74348">
        <ele>2618</ele>
        <time>2026-07-29T07:43:08.716Z</time>
      </trkpt>
      <trkpt lat="45.75495" lon="6.74349">
        <ele>2618</ele>
        <time>2026-07-29T07:43:09.716Z</time>
      </trkpt>
      <trkpt lat="45.75495" lon="6.74349">
        <ele>2618</ele>
        <time>2026-07-29T07:43:10.716Z</time>
      </trkpt>
      <trkpt lat="45.75494" lon="6.74349">
        <ele>2619</ele>
        <time>2026-07-29T07:43:11.716Z</time>
      </trkpt>
      <trkpt lat="45.75494" lon="6.7435">
        <ele>2620</ele>
        <time>2026-07-29T07:43:12.716Z</time>
      </trkpt>
      <trkpt lat="45.75494" lon="6.7435">
        <ele>2622</ele>
        <time>2026-07-29T07:43:13.716Z</time>
      </trkpt>
      <trkpt lat="45.75493" lon="6.74352">
        <ele>2623</ele>
        <time>2026-07-29T07:43:14.716Z</time>
      </trkpt>
      <trkpt lat="45.75492" lon="6.74352">
        <ele>2624</ele>
        <time>2026-07-29T07:43:15.716Z</time>
      </trkpt>
      <trkpt lat="45.75491" lon="6.74353">
        <ele>2626</ele>
        <time>2026-07-29T07:43:16.716Z</time>
      </trkpt>
      <trkpt lat="45.75491" lon="6.74353">
        <ele>2627</ele>
        <time>2026-07-29T07:43:17.716Z</time>
      </trkpt>
      <trkpt lat="45.75491" lon="6.74353">
        <ele>2628</ele>
        <time>2026-07-29T07:43:18.716Z</time>
      </trkpt>
      <trkpt lat="45.7549" lon="6.74354">
        <ele>2629</ele>
        <time>2026-07-29T07:43:19.716Z</time>
      </trkpt>
      <trkpt lat="45.7549" lon="6.74354">
        <ele>2629</ele>
        <time>2026-07-29T07:43:20.716Z</time>
      </trkpt>
      <trkpt lat="45.7549" lon="6.74354">
        <ele>2630</ele>
        <time>2026-07-29T07:43:21.716Z</time>
      </trkpt>
      <trkpt lat="45.75489" lon="6.74355">
        <ele>2631</ele>
        <time>2026-07-29T07:43:22.716Z</time>
      </trkpt>
      <trkpt lat="45.75489" lon="6.74356">
        <ele>2631</ele>
        <time>2026-07-29T07:43:23.716Z</time>
      </trkpt>
      <trkpt lat="45.75489" lon="6.74356">
        <ele>2632</ele>
        <time>2026-07-29T07:43:24.716Z</time>
      </trkpt>
      <trkpt lat="45.75489" lon="6.74356">
        <ele>2633</ele>
        <time>2026-07-29T07:43:25.716Z</time>
      </trkpt>
      <trkpt lat="45.75489" lon="6.74356">
        <ele>2634</ele>
        <time>2026-07-29T07:43:26.716Z</time>
      </trkpt>
      <trkpt lat="45.75488" lon="6.74356">
        <ele>2634</ele>
        <time>2026-07-29T07:43:27.716Z</time>
      </trkpt>
      <trkpt lat="45.75488" lon="6.74357">
        <ele>2634</ele>
        <time>2026-07-29T07:43:28.716Z</time>
      </trkpt>
      <trkpt lat="45.75488" lon="6.74357">
        <ele>2635</ele>
        <time>2026-07-29T07:43:29.716Z</time>
      </trkpt>
      <trkpt lat="45.75488" lon="6.74357">
        <ele>2635</ele>
        <time>2026-07-29T07:43:30.716Z</time>
      </trkpt>
      <trkpt lat="45.75488" lon="6.74357">
        <ele>2635</ele>
        <time>2026-07-29T07:43:31.716Z</time>
      </trkpt>
      <trkpt lat="45.75488" lon="6.74357">
        <ele>2636</ele>
        <time>2026-07-29T07:43:32.716Z</time>
      </trkpt>
      <trkpt lat="45.75488" lon="6.74357">
        <ele>2636</ele>
        <time>2026-07-29T07:43:33.716Z</time>
      </trkpt>
      <trkpt lat="45.75488" lon="6.74357">
        <ele>2636</ele>
        <time>2026-07-29T07:43:34.716Z</time>
      </trkpt>
      <trkpt lat="45.75488" lon="6.74357">
        <ele>2637</ele>
        <time>2026-07-29T07:43:35.716Z</time>
      </trkpt>
      <trkpt lat="45.75488" lon="6.74357">
        <ele>2637</ele>
        <time>2026-07-29T07:43:36.716Z</time>
      </trkpt>
      <trkpt lat="45.75488" lon="6.74357">
        <ele>2638</ele>
        <time>2026-07-29T07:43:37.716Z</time>
      </trkpt>
      <trkpt lat="45.75488" lon="6.74357">
        <ele>2638</ele>
        <time>2026-07-29T07:43:38.716Z</time>
      </trkpt>
      <trkpt lat="45.75488" lon="6.74357">
        <ele>2638</ele>
        <time>2026-07-29T07:43:39.716Z</time>
      </trkpt>
      <trkpt lat="45.75488" lon="6.74357">
        <ele>2638</ele>
        <time>2026-07-29T07:43:40.716Z</time>
      </trkpt>
      <trkpt lat="45.75488" lon="6.74357">
        <ele>2639</ele>
        <time>2026-07-29T07:43:41.716Z</time>
      </trkpt>
      <trkpt lat="45.75488" lon="6.74357">
        <ele>2639</ele>
        <time>2026-07-29T07:43:42.716Z</time>
      </trkpt>
      <trkpt lat="45.75488" lon="6.74357">
        <ele>2639</ele>
        <time>2026-07-29T07:43:43.716Z</time>
      </trkpt>
      <trkpt lat="45.75488" lon="6.74357">
        <ele>2639</ele>
        <time>2026-07-29T07:43:44.716Z</time>
      </trkpt>
      <trkpt lat="45.75488" lon="6.74357">
        <ele>2639</ele>
        <time>2026-07-29T07:43:45.716Z</time>
      </trkpt>
      <trkpt lat="45.75488" lon="6.74357">
        <ele>2640</ele>
        <time>2026-07-29T07:43:46.716Z</time>
      </trkpt>
      <trkpt lat="45.75488" lon="6.74357">
        <ele>2640</ele>
        <time>2026-07-29T07:43:47.716Z</time>
      </trkpt>
      <trkpt lat="45.75488" lon="6.74358">
        <ele>2640</ele>
        <time>2026-07-29T07:43:48.716Z</time>
      </trkpt>
      <trkpt lat="45.75488" lon="6.74358">
        <ele>2640</ele>
        <time>2026-07-29T07:43:49.716Z</time>
      </trkpt>
      <trkpt lat="45.75488" lon="6.74358">
        <ele>2640</ele>
        <time>2026-07-29T07:43:50.716Z</time>
      </trkpt>
      <trkpt lat="45.75487" lon="6.74358">
        <ele>2640</ele>
        <time>2026-07-29T07:43:51.716Z</time>
      </trkpt>
      <trkpt lat="45.75487" lon="6.74358">
        <ele>2640</ele>
        <time>2026-07-29T07:43:52.716Z</time>
      </trkpt>
      <trkpt lat="45.75487" lon="6.74359">
        <ele>2640</ele>
        <time>2026-07-29T07:43:53.716Z</time>
      </trkpt>
      <trkpt lat="45.75486" lon="6.74359">
        <ele>2641</ele>
        <time>2026-07-29T07:43:54.716Z</time>
      </trkpt>
      <trkpt lat="45.75486" lon="6.74359">
        <ele>2641</ele>
        <time>2026-07-29T07:43:55.716Z</time>
      </trkpt>
      <trkpt lat="45.75485" lon="6.7436">
        <ele>2642</ele>
        <time>2026-07-29T07:43:56.716Z</time>
      </trkpt>
      <trkpt lat="45.75484" lon="6.7436">
        <ele>2642</ele>
        <time>2026-07-29T07:43:57.716Z</time>
      </trkpt>
      <trkpt lat="45.75484" lon="6.7436">
        <ele>2642</ele>
        <time>2026-07-29T07:43:58.716Z</time>
      </trkpt>
      <trkpt lat="45.75484" lon="6.7436">
        <ele>2642</ele>
        <time>2026-07-29T07:43:59.716Z</time>
      </trkpt>
      <trkpt lat="45.75484" lon="6.7436">
        <ele>2642</ele>
        <time>2026-07-29T07:44:00.716Z</time>
      </trkpt>
      <trkpt lat="45.75484" lon="6.7436">
        <ele>2642</ele>
        <time>2026-07-29T07:44:01.716Z</time>
      </trkpt>
      <trkpt lat="45.75484" lon="6.7436">
        <ele>2642</ele>
        <time>2026-07-29T07:44:02.716Z</time>
      </trkpt>
      <trkpt lat="45.75484" lon="6.7436">
        <ele>2642</ele>
        <time>2026-07-29T07:44:03.716Z</time>
      </trkpt>
      <trkpt lat="45.75483" lon="6.7436">
        <ele>2642</ele>
        <time>2026-07-29T07:44:04.716Z</time>
      </trkpt>
      <trkpt lat="45.75483" lon="6.7436">
        <ele>2642</ele>
        <time>2026-07-29T07:44:05.716Z</time>
      </trkpt>
      <trkpt lat="45.75483" lon="6.7436">
        <ele>2642</ele>
        <time>2026-07-29T07:44:06.716Z</time>
      </trkpt>
      <trkpt lat="45.75483" lon="6.7436">
        <ele>2642</ele>
        <time>2026-07-29T07:44:07.716Z</time>
      </trkpt>
      <trkpt lat="45.75483" lon="6.7436">
        <ele>2642</ele>
        <time>2026-07-29T07:44:08.716Z</time>
      </trkpt>
      <trkpt lat="45.75483" lon="6.7436">
        <ele>2642</ele>
        <time>2026-07-29T07:44:09.716Z</time>
      </trkpt>
      <trkpt lat="45.75483" lon="6.7436">
        <ele>2642</ele>
        <time>2026-07-29T07:44:10.716Z</time>
      </trkpt>
      <trkpt lat="45.75482" lon="6.7436">
        <ele>2643</ele>
        <time>2026-07-29T07:44:11.716Z</time>
      </trkpt>
      <trkpt lat="45.75482" lon="6.74361">
        <ele>2643</ele>
        <time>2026-07-29T07:44:12.716Z</time>
      </trkpt>
      <trkpt lat="45.75482" lon="6.74361">
        <ele>2643</ele>
        <time>2026-07-29T07:44:13.716Z</time>
      </trkpt>
      <trkpt lat="45.75482" lon="6.74361">
        <ele>2643</ele>
        <time>2026-07-29T07:44:14.716Z</time>
      </trkpt>
      <trkpt lat="45.75482" lon="6.74361">
        <ele>2643</ele>
        <time>2026-07-29T07:44:15.716Z</time>
      </trkpt>
      <trkpt lat="45.75482" lon="6.74361">
        <ele>2643</ele>
        <time>2026-07-29T07:44:16.716Z</time>
      </trkpt>
      <trkpt lat="45.75482" lon="6.74361">
        <ele>2643</ele>
        <time>2026-07-29T07:44:17.716Z</time>
      </trkpt>
      <trkpt lat="45.75481" lon="6.74361">
        <ele>2643</ele>
        <time>2026-07-29T07:44:18.716Z</time>
      </trkpt>
      <trkpt lat="45.75481" lon="6.74361">
        <ele>2643</ele>
        <time>2026-07-29T07:44:19.716Z</time>
      </trkpt>
      <trkpt lat="45.75481" lon="6.74361">
        <ele>2643</ele>
        <time>2026-07-29T07:44:20.716Z</time>
      </trkpt>
      <trkpt lat="45.75481" lon="6.74361">
        <ele>2643</ele>
        <time>2026-07-29T07:44:21.716Z</time>
      </trkpt>
      <trkpt lat="45.75481" lon="6.74361">
        <ele>2643</ele>
        <time>2026-07-29T07:44:22.716Z</time>
      </trkpt>
      <trkpt lat="45.75481" lon="6.74361">
        <ele>2643</ele>
        <time>2026-07-29T07:44:23.716Z</time>
      </trkpt>
      <trkpt lat="45.75481" lon="6.74361">
        <ele>2643</ele>
        <time>2026-07-29T07:44:24.716Z</time>
      </trkpt>
      <trkpt lat="45.7548" lon="6.74361">
        <ele>2643</ele>
        <time>2026-07-29T07:44:25.716Z</time>
      </trkpt>
      <trkpt lat="45.7548" lon="6.74361">
        <ele>2643</ele>
        <time>2026-07-29T07:44:26.716Z</time>
      </trkpt>
      <trkpt lat="45.7548" lon="6.74361">
        <ele>2643</ele>
        <time>2026-07-29T07:44:27.716Z</time>
      </trkpt>
      <trkpt lat="45.7548" lon="6.74361">
        <ele>2643</ele>
        <time>2026-07-29T07:44:28.716Z</time>
      </trkpt>
      <trkpt lat="45.75479" lon="6.74361">
        <ele>2643</ele>
        <time>2026-07-29T07:44:29.716Z</time>
      </trkpt>
      <trkpt lat="45.75479" lon="6.74361">
        <ele>2643</ele>
        <time>2026-07-29T07:44:30.716Z</time>
      </trkpt>
      <trkpt lat="45.75479" lon="6.74361">
        <ele>2643</ele>
        <time>2026-07-29T07:44:31.716Z</time>
      </trkpt>
      <trkpt lat="45.75479" lon="6.74361">
        <ele>2643</ele>
        <time>2026-07-29T07:44:32.716Z</time>
      </trkpt>
      <trkpt lat="45.75479" lon="6.74361">
        <ele>2643</ele>
        <time>2026-07-29T07:44:33.716Z</time>
      </trkpt>
      <trkpt lat="45.75479" lon="6.74361">
        <ele>2643</ele>
        <time>2026-07-29T07:44:34.716Z</time>
      </trkpt>
      <trkpt lat="45.75479" lon="6.74361">
        <ele>2643</ele>
        <time>2026-07-29T07:44:35.716Z</time>
      </trkpt>
      <trkpt lat="45.75479" lon="6.74361">
        <ele>2644</ele>
        <time>2026-07-29T07:44:36.716Z</time>
      </trkpt>
      <trkpt lat="45.75479" lon="6.74361">
        <ele>2644</ele>
        <time>2026-07-29T07:44:37.716Z</time>
      </trkpt>
      <trkpt lat="45.75479" lon="6.74361">
        <ele>2644</ele>
        <time>2026-07-29T07:44:38.716Z</time>
      </trkpt>
      <trkpt lat="45.75479" lon="6.74361">
        <ele>2644</ele>
        <time>2026-07-29T07:44:39.716Z</time>
      </trkpt>
      <trkpt lat="45.75479" lon="6.74361">
        <ele>2644</ele>
        <time>2026-07-29T07:44:40.716Z</time>
      </trkpt>
      <trkpt lat="45.75479" lon="6.74361">
        <ele>2644</ele>
        <time>2026-07-29T07:44:41.716Z</time>
      </trkpt>
      <trkpt lat="45.75479" lon="6.74361">
        <ele>2644</ele>
        <time>2026-07-29T07:44:42.716Z</time>
      </trkpt>
      <trkpt lat="45.75479" lon="6.74361">
        <ele>2644</ele>
        <time>2026-07-29T07:44:43.716Z</time>
      </trkpt>
      <trkpt lat="45.75479" lon="6.74361">
        <ele>2644</ele>
        <time>2026-07-29T07:44:44.716Z</time>
      </trkpt>
      <trkpt lat="45.75479" lon="6.74361">
        <ele>2644</ele>
        <time>2026-07-29T07:44:45.716Z</time>
      </trkpt>
      <trkpt lat="45.75479" lon="6.74361">
        <ele>2644</ele>
        <time>2026-07-29T07:44:46.716Z</time>
      </trkpt>
      <trkpt lat="45.75478" lon="6.74361">
        <ele>2644</ele>
        <time>2026-07-29T07:44:47.716Z</time>
      </trkpt>
      <trkpt lat="45.75478" lon="6.74361">
        <ele>2644</ele>
        <time>2026-07-29T07:44:48.716Z</time>
      </trkpt>
      <trkpt lat="45.75478" lon="6.74361">
        <ele>2644</ele>
        <time>2026-07-29T07:44:49.716Z</time>
      </trkpt>
      <trkpt lat="45.75478" lon="6.74361">
        <ele>2644</ele>
        <time>2026-07-29T07:44:50.716Z</time>
      </trkpt>
      <trkpt lat="45.75478" lon="6.7436">
        <ele>2644</ele>
        <time>2026-07-29T07:44:51.716Z</time>
      </trkpt>
      <trkpt lat="45.75478" lon="6.7436">
        <ele>2644</ele>
        <time>2026-07-29T07:44:52.716Z</time>
      </trkpt>
      <trkpt lat="45.75478" lon="6.7436">
        <ele>2644</ele>
        <time>2026-07-29T07:44:53.716Z</time>
      </trkpt>
      <trkpt lat="45.75478" lon="6.7436">
        <ele>2644</ele>
        <time>2026-07-29T07:44:54.716Z</time>
      </trkpt>
      <trkpt lat="45.75478" lon="6.7436">
        <ele>2645</ele>
        <time>2026-07-29T07:44:55.716Z</time>
      </trkpt>
      <trkpt lat="45.75478" lon="6.7436">
        <ele>2645</ele>
        <time>2026-07-29T07:44:56.716Z</time>
      </trkpt>
      <trkpt lat="45.75478" lon="6.7436">
        <ele>2645</ele>
        <time>2026-07-29T07:44:57.716Z</time>
      </trkpt>
      <trkpt lat="45.75478" lon="6.7436">
        <ele>2645</ele>
        <time>2026-07-29T07:44:58.716Z</time>
      </trkpt>
      <trkpt lat="45.75478" lon="6.7436">
        <ele>2645</ele>
        <time>2026-07-29T07:44:59.716Z</time>
      </trkpt>
      <trkpt lat="45.75478" lon="6.7436">
        <ele>2645</ele>
        <time>2026-07-29T07:45:00.716Z</time>
      </trkpt>
      <trkpt lat="45.75478" lon="6.7436">
        <ele>2645</ele>
        <time>2026-07-29T07:45:01.716Z</time>
      </trkpt>
      <trkpt lat="45.75478" lon="6.7436">
        <ele>2645</ele>
        <time>2026-07-29T07:45:02.716Z</time>
      </trkpt>
      <trkpt lat="45.75478" lon="6.7436">
        <ele>2645</ele>
        <time>2026-07-29T07:45:03.716Z</time>
      </trkpt>
      <trkpt lat="45.75478" lon="6.7436">
        <ele>2645</ele>
        <time>2026-07-29T07:45:04.716Z</time>
      </trkpt>
      <trkpt lat="45.75478" lon="6.7436">
        <ele>2645</ele>
        <time>2026-07-29T07:45:05.716Z</time>
      </trkpt>
      <trkpt lat="45.75478" lon="6.74359">
        <ele>2645</ele>
        <time>2026-07-29T07:45:06.716Z</time>
      </trkpt>
      <trkpt lat="45.75478" lon="6.74359">
        <ele>2645</ele>
        <time>2026-07-29T07:45:07.716Z</time>
      </trkpt>
      <trkpt lat="45.75478" lon="6.74359">
        <ele>2645</ele>
        <time>2026-07-29T07:45:08.716Z</time>
      </trkpt>
      <trkpt lat="45.75477" lon="6.74359">
        <ele>2645</ele>
        <time>2026-07-29T07:45:09.716Z</time>
      </trkpt>
      <trkpt lat="45.75476" lon="6.74359">
        <ele>2645</ele>
        <time>2026-07-29T07:45:10.716Z</time>
      </trkpt>
      <trkpt lat="45.75475" lon="6.74359">
        <ele>2645</ele>
        <time>2026-07-29T07:45:11.716Z</time>
      </trkpt>
      <trkpt lat="45.75473" lon="6.74359">
        <ele>2646</ele>
        <time>2026-07-29T07:45:12.716Z</time>
      </trkpt>
      <trkpt lat="45.75472" lon="6.7436">
        <ele>2646</ele>
        <time>2026-07-29T07:45:13.716Z</time>
      </trkpt>
      <trkpt lat="45.75471" lon="6.7436">
        <ele>2647</ele>
        <time>2026-07-29T07:45:14.716Z</time>
      </trkpt>
      <trkpt lat="45.7547" lon="6.7436">
        <ele>2647</ele>
        <time>2026-07-29T07:45:15.716Z</time>
      </trkpt>
      <trkpt lat="45.75469" lon="6.7436">
        <ele>2648</ele>
        <time>2026-07-29T07:45:16.716Z</time>
      </trkpt>
      <trkpt lat="45.75468" lon="6.7436">
        <ele>2649</ele>
        <time>2026-07-29T07:45:17.716Z</time>
      </trkpt>
      <trkpt lat="45.75468" lon="6.7436">
        <ele>2649</ele>
        <time>2026-07-29T07:45:18.716Z</time>
      </trkpt>
      <trkpt lat="45.75467" lon="6.7436">
        <ele>2650</ele>
        <time>2026-07-29T07:45:19.716Z</time>
      </trkpt>
      <trkpt lat="45.75467" lon="6.74361">
        <ele>2651</ele>
        <time>2026-07-29T07:45:20.716Z</time>
      </trkpt>
      <trkpt lat="45.75466" lon="6.74361">
        <ele>2651</ele>
        <time>2026-07-29T07:45:21.716Z</time>
      </trkpt>
      <trkpt lat="45.75467" lon="6.74362">
        <ele>2651</ele>
        <time>2026-07-29T07:45:22.716Z</time>
      </trkpt>
      <trkpt lat="45.75467" lon="6.74362">
        <ele>2652</ele>
        <time>2026-07-29T07:45:23.716Z</time>
      </trkpt>
      <trkpt lat="45.75466" lon="6.74363">
        <ele>2652</ele>
        <time>2026-07-29T07:45:24.716Z</time>
      </trkpt>
      <trkpt lat="45.75467" lon="6.74363">
        <ele>2653</ele>
        <time>2026-07-29T07:45:25.716Z</time>
      </trkpt>
      <trkpt lat="45.75467" lon="6.74363">
        <ele>2653</ele>
        <time>2026-07-29T07:45:26.716Z</time>
      </trkpt>
      <trkpt lat="45.75466" lon="6.74364">
        <ele>2653</ele>
        <time>2026-07-29T07:45:27.716Z</time>
      </trkpt>
      <trkpt lat="45.75467" lon="6.74364">
        <ele>2654</ele>
        <time>2026-07-29T07:45:28.716Z</time>
      </trkpt>
      <trkpt lat="45.75467" lon="6.74365">
        <ele>2654</ele>
        <time>2026-07-29T07:45:29.716Z</time>
      </trkpt>
      <trkpt lat="45.75467" lon="6.74365">
        <ele>2654</ele>
        <time>2026-07-29T07:45:30.716Z</time>
      </trkpt>
      <trkpt lat="45.75466" lon="6.74366">
        <ele>2655</ele>
        <time>2026-07-29T07:45:31.716Z</time>
      </trkpt>
      <trkpt lat="45.75466" lon="6.74366">
        <ele>2655</ele>
        <time>2026-07-29T07:45:32.716Z</time>
      </trkpt>
      <trkpt lat="45.75466" lon="6.74366">
        <ele>2655</ele>
        <time>2026-07-29T07:45:33.716Z</time>
      </trkpt>
      <trkpt lat="45.75466" lon="6.74366">
        <ele>2656</ele>
        <time>2026-07-29T07:45:34.716Z</time>
      </trkpt>
      <trkpt lat="45.75466" lon="6.74366">
        <ele>2656</ele>
        <time>2026-07-29T07:45:35.716Z</time>
      </trkpt>
      <trkpt lat="45.75466" lon="6.74366">
        <ele>2656</ele>
        <time>2026-07-29T07:45:36.716Z</time>
      </trkpt>
      <trkpt lat="45.75466" lon="6.74366">
        <ele>2656</ele>
        <time>2026-07-29T07:45:37.716Z</time>
      </trkpt>
      <trkpt lat="45.75466" lon="6.74366">
        <ele>2656</ele>
        <time>2026-07-29T07:45:38.716Z</time>
      </trkpt>
      <trkpt lat="45.75466" lon="6.74366">
        <ele>2656</ele>
        <time>2026-07-29T07:45:39.716Z</time>
      </trkpt>
      <trkpt lat="45.75466" lon="6.74366">
        <ele>2656</ele>
        <time>2026-07-29T07:45:40.716Z</time>
      </trkpt>
      <trkpt lat="45.75466" lon="6.74366">
        <ele>2656</ele>
        <time>2026-07-29T07:45:41.716Z</time>
      </trkpt>
      <trkpt lat="45.75466" lon="6.74366">
        <ele>2656</ele>
        <time>2026-07-29T07:45:42.716Z</time>
      </trkpt>
      <trkpt lat="45.75466" lon="6.74366">
        <ele>2657</ele>
        <time>2026-07-29T07:45:43.716Z</time>
      </trkpt>
      <trkpt lat="45.75466" lon="6.74366">
        <ele>2657</ele>
        <time>2026-07-29T07:45:44.716Z</time>
      </trkpt>
      <trkpt lat="45.75466" lon="6.74366">
        <ele>2657</ele>
        <time>2026-07-29T07:45:45.716Z</time>
      </trkpt>
      <trkpt lat="45.75466" lon="6.74366">
        <ele>2657</ele>
        <time>2026-07-29T07:45:46.716Z</time>
      </trkpt>
      <trkpt lat="45.75466" lon="6.74366">
        <ele>2657</ele>
        <time>2026-07-29T07:45:47.716Z</time>
      </trkpt>
      <trkpt lat="45.75466" lon="6.74366">
        <ele>2657</ele>
        <time>2026-07-29T07:45:48.716Z</time>
      </trkpt>
      <trkpt lat="45.75466" lon="6.74367">
        <ele>2657</ele>
        <time>2026-07-29T07:45:49.716Z</time>
      </trkpt>
      <trkpt lat="45.75466" lon="6.74368">
        <ele>2657</ele>
        <time>2026-07-29T07:45:50.716Z</time>
      </trkpt>
      <trkpt lat="45.75466" lon="6.74369">
        <ele>2657</ele>
        <time>2026-07-29T07:45:51.716Z</time>
      </trkpt>
      <trkpt lat="45.75466" lon="6.74369">
        <ele>2657</ele>
        <time>2026-07-29T07:45:52.716Z</time>
      </trkpt>
      <trkpt lat="45.75466" lon="6.7437">
        <ele>2657</ele>
        <time>2026-07-29T07:45:53.716Z</time>
      </trkpt>
      <trkpt lat="45.75466" lon="6.7437">
        <ele>2657</ele>
        <time>2026-07-29T07:45:54.716Z</time>
      </trkpt>
      <trkpt lat="45.75466" lon="6.7437">
        <ele>2657</ele>
        <time>2026-07-29T07:45:55.716Z</time>
      </trkpt>
      <trkpt lat="45.75466" lon="6.7437">
        <ele>2657</ele>
        <time>2026-07-29T07:45:56.716Z</time>
      </trkpt>
      <trkpt lat="45.75466" lon="6.74371">
        <ele>2657</ele>
        <time>2026-07-29T07:45:57.716Z</time>
      </trkpt>
      <trkpt lat="45.75465" lon="6.74373">
        <ele>2657</ele>
        <time>2026-07-29T07:45:58.716Z</time>
      </trkpt>
      <trkpt lat="45.75464" lon="6.74373">
        <ele>2657</ele>
        <time>2026-07-29T07:45:59.716Z</time>
      </trkpt>
      <trkpt lat="45.75464" lon="6.74375">
        <ele>2657</ele>
        <time>2026-07-29T07:46:00.716Z</time>
      </trkpt>
      <trkpt lat="45.75463" lon="6.74376">
        <ele>2657</ele>
        <time>2026-07-29T07:46:01.716Z</time>
      </trkpt>
      <trkpt lat="45.75463" lon="6.74378">
        <ele>2657</ele>
        <time>2026-07-29T07:46:02.716Z</time>
      </trkpt>
      <trkpt lat="45.75462" lon="6.74379">
        <ele>2657</ele>
        <time>2026-07-29T07:46:03.716Z</time>
      </trkpt>
      <trkpt lat="45.75462" lon="6.74381">
        <ele>2658</ele>
        <time>2026-07-29T07:46:04.716Z</time>
      </trkpt>
      <trkpt lat="45.75461" lon="6.74382">
        <ele>2658</ele>
        <time>2026-07-29T07:46:05.716Z</time>
      </trkpt>
      <trkpt lat="45.75461" lon="6.74383">
        <ele>2658</ele>
        <time>2026-07-29T07:46:06.716Z</time>
      </trkpt>
      <trkpt lat="45.75461" lon="6.74384">
        <ele>2658</ele>
        <time>2026-07-29T07:46:07.716Z</time>
      </trkpt>
      <trkpt lat="45.75461" lon="6.74385">
        <ele>2658</ele>
        <time>2026-07-29T07:46:08.716Z</time>
      </trkpt>
      <trkpt lat="45.75461" lon="6.74386">
        <ele>2658</ele>
        <time>2026-07-29T07:46:09.716Z</time>
      </trkpt>
      <trkpt lat="45.75462" lon="6.74387">
        <ele>2658</ele>
        <time>2026-07-29T07:46:10.716Z</time>
      </trkpt>
      <trkpt lat="45.75462" lon="6.74388">
        <ele>2659</ele>
        <time>2026-07-29T07:46:11.716Z</time>
      </trkpt>
      <trkpt lat="45.75463" lon="6.74388">
        <ele>2659</ele>
        <time>2026-07-29T07:46:12.716Z</time>
      </trkpt>
      <trkpt lat="45.75463" lon="6.74389">
        <ele>2659</ele>
        <time>2026-07-29T07:46:13.716Z</time>
      </trkpt>
      <trkpt lat="45.75463" lon="6.7439">
        <ele>2659</ele>
        <time>2026-07-29T07:46:14.716Z</time>
      </trkpt>
      <trkpt lat="45.75463" lon="6.7439">
        <ele>2659</ele>
        <time>2026-07-29T07:46:15.716Z</time>
      </trkpt>
      <trkpt lat="45.75463" lon="6.74391">
        <ele>2659</ele>
        <time>2026-07-29T07:46:16.716Z</time>
      </trkpt>
      <trkpt lat="45.75464" lon="6.74392">
        <ele>2659</ele>
        <time>2026-07-29T07:46:17.716Z</time>
      </trkpt>
      <trkpt lat="45.75464" lon="6.74393">
        <ele>2659</ele>
        <time>2026-07-29T07:46:18.716Z</time>
      </trkpt>
      <trkpt lat="45.75464" lon="6.74394">
        <ele>2659</ele>
        <time>2026-07-29T07:46:19.716Z</time>
      </trkpt>
      <trkpt lat="45.75464" lon="6.74394">
        <ele>2659</ele>
        <time>2026-07-29T07:46:20.716Z</time>
      </trkpt>
      <trkpt lat="45.75465" lon="6.74395">
        <ele>2659</ele>
        <time>2026-07-29T07:46:21.716Z</time>
      </trkpt>
      <trkpt lat="45.75464" lon="6.74395">
        <ele>2659</ele>
        <time>2026-07-29T07:46:22.716Z</time>
      </trkpt>
      <trkpt lat="45.75465" lon="6.74396">
        <ele>2659</ele>
        <time>2026-07-29T07:46:23.716Z</time>
      </trkpt>
      <trkpt lat="45.75465" lon="6.74397">
        <ele>2659</ele>
        <time>2026-07-29T07:46:24.716Z</time>
      </trkpt>
      <trkpt lat="45.75464" lon="6.74398">
        <ele>2659</ele>
        <time>2026-07-29T07:46:25.716Z</time>
      </trkpt>
      <trkpt lat="45.75464" lon="6.74399">
        <ele>2659</ele>
        <time>2026-07-29T07:46:26.716Z</time>
      </trkpt>
      <trkpt lat="45.75465" lon="6.744">
        <ele>2659</ele>
        <time>2026-07-29T07:46:27.716Z</time>
      </trkpt>
      <trkpt lat="45.75465" lon="6.74401">
        <ele>2659</ele>
        <time>2026-07-29T07:46:28.716Z</time>
      </trkpt>
      <trkpt lat="45.75466" lon="6.74402">
        <ele>2660</ele>
        <time>2026-07-29T07:46:29.716Z</time>
      </trkpt>
      <trkpt lat="45.75467" lon="6.74403">
        <ele>2660</ele>
        <time>2026-07-29T07:46:30.716Z</time>
      </trkpt>
      <trkpt lat="45.75467" lon="6.74404">
        <ele>2660</ele>
        <time>2026-07-29T07:46:31.716Z</time>
      </trkpt>
      <trkpt lat="45.75468" lon="6.74406">
        <ele>2661</ele>
        <time>2026-07-29T07:46:32.716Z</time>
      </trkpt>
      <trkpt lat="45.75468" lon="6.74407">
        <ele>2661</ele>
        <time>2026-07-29T07:46:33.716Z</time>
      </trkpt>
      <trkpt lat="45.75468" lon="6.74407">
        <ele>2661</ele>
        <time>2026-07-29T07:46:34.716Z</time>
      </trkpt>
      <trkpt lat="45.75468" lon="6.74408">
        <ele>2661</ele>
        <time>2026-07-29T07:46:35.716Z</time>
      </trkpt>
      <trkpt lat="45.75468" lon="6.74409">
        <ele>2661</ele>
        <time>2026-07-29T07:46:36.716Z</time>
      </trkpt>
      <trkpt lat="45.75468" lon="6.74409">
        <ele>2662</ele>
        <time>2026-07-29T07:46:37.716Z</time>
      </trkpt>
      <trkpt lat="45.75468" lon="6.7441">
        <ele>2662</ele>
        <time>2026-07-29T07:46:38.716Z</time>
      </trkpt>
      <trkpt lat="45.75469" lon="6.74411">
        <ele>2663</ele>
        <time>2026-07-29T07:46:39.716Z</time>
      </trkpt>
      <trkpt lat="45.75469" lon="6.74412">
        <ele>2663</ele>
        <time>2026-07-29T07:46:40.716Z</time>
      </trkpt>
      <trkpt lat="45.75469" lon="6.74413">
        <ele>2663</ele>
        <time>2026-07-29T07:46:41.716Z</time>
      </trkpt>
      <trkpt lat="45.7547" lon="6.74414">
        <ele>2663</ele>
        <time>2026-07-29T07:46:42.716Z</time>
      </trkpt>
      <trkpt lat="45.75471" lon="6.74414">
        <ele>2664</ele>
        <time>2026-07-29T07:46:43.716Z</time>
      </trkpt>
      <trkpt lat="45.75471" lon="6.74415">
        <ele>2664</ele>
        <time>2026-07-29T07:46:44.716Z</time>
      </trkpt>
      <trkpt lat="45.75472" lon="6.74416">
        <ele>2665</ele>
        <time>2026-07-29T07:46:45.716Z</time>
      </trkpt>
      <trkpt lat="45.75472" lon="6.74416">
        <ele>2665</ele>
        <time>2026-07-29T07:46:46.716Z</time>
      </trkpt>
      <trkpt lat="45.75472" lon="6.74417">
        <ele>2665</ele>
        <time>2026-07-29T07:46:47.716Z</time>
      </trkpt>
      <trkpt lat="45.75472" lon="6.74418">
        <ele>2665</ele>
        <time>2026-07-29T07:46:48.716Z</time>
      </trkpt>
      <trkpt lat="45.75472" lon="6.74418">
        <ele>2665</ele>
        <time>2026-07-29T07:46:49.716Z</time>
      </trkpt>
      <trkpt lat="45.75472" lon="6.74419">
        <ele>2665</ele>
        <time>2026-07-29T07:46:50.716Z</time>
      </trkpt>
      <trkpt lat="45.75472" lon="6.74419">
        <ele>2665</ele>
        <time>2026-07-29T07:46:51.716Z</time>
      </trkpt>
      <trkpt lat="45.75472" lon="6.74419">
        <ele>2665</ele>
        <time>2026-07-29T07:46:52.716Z</time>
      </trkpt>
      <trkpt lat="45.75471" lon="6.74419">
        <ele>2665</ele>
        <time>2026-07-29T07:46:53.716Z</time>
      </trkpt>
      <trkpt lat="45.75471" lon="6.7442">
        <ele>2666</ele>
        <time>2026-07-29T07:46:54.716Z</time>
      </trkpt>
      <trkpt lat="45.75471" lon="6.7442">
        <ele>2666</ele>
        <time>2026-07-29T07:46:55.716Z</time>
      </trkpt>
      <trkpt lat="45.75471" lon="6.7442">
        <ele>2667</ele>
        <time>2026-07-29T07:46:56.716Z</time>
      </trkpt>
      <trkpt lat="45.75471" lon="6.74421">
        <ele>2667</ele>
        <time>2026-07-29T07:46:57.716Z</time>
      </trkpt>
      <trkpt lat="45.75471" lon="6.74421">
        <ele>2667</ele>
        <time>2026-07-29T07:46:58.716Z</time>
      </trkpt>
      <trkpt lat="45.75471" lon="6.74422">
        <ele>2667</ele>
        <time>2026-07-29T07:46:59.716Z</time>
      </trkpt>
      <trkpt lat="45.75471" lon="6.74423">
        <ele>2667</ele>
        <time>2026-07-29T07:47:00.716Z</time>
      </trkpt>
      <trkpt lat="45.75471" lon="6.74423">
        <ele>2668</ele>
        <time>2026-07-29T07:47:01.716Z</time>
      </trkpt>
      <trkpt lat="45.75471" lon="6.74423">
        <ele>2668</ele>
        <time>2026-07-29T07:47:02.716Z</time>
      </trkpt>
      <trkpt lat="45.75471" lon="6.74424">
        <ele>2668</ele>
        <time>2026-07-29T07:47:03.716Z</time>
      </trkpt>
      <trkpt lat="45.75471" lon="6.74424">
        <ele>2668</ele>
        <time>2026-07-29T07:47:04.716Z</time>
      </trkpt>
      <trkpt lat="45.75471" lon="6.74424">
        <ele>2668</ele>
        <time>2026-07-29T07:47:05.716Z</time>
      </trkpt>
      <trkpt lat="45.75471" lon="6.74424">
        <ele>2668</ele>
        <time>2026-07-29T07:47:06.716Z</time>
      </trkpt>
      <trkpt lat="45.75471" lon="6.74424">
        <ele>2668</ele>
        <time>2026-07-29T07:47:07.716Z</time>
      </trkpt>
      <trkpt lat="45.75471" lon="6.74424">
        <ele>2668</ele>
        <time>2026-07-29T07:47:08.716Z</time>
      </trkpt>
      <trkpt lat="45.75471" lon="6.74424">
        <ele>2668</ele>
        <time>2026-07-29T07:47:09.716Z</time>
      </trkpt>
      <trkpt lat="45.75471" lon="6.74424">
        <ele>2669</ele>
        <time>2026-07-29T07:47:10.716Z</time>
      </trkpt>
      <trkpt lat="45.75471" lon="6.74424">
        <ele>2669</ele>
        <time>2026-07-29T07:47:11.716Z</time>
      </trkpt>
      <trkpt lat="45.75471" lon="6.74424">
        <ele>2669</ele>
        <time>2026-07-29T07:47:12.716Z</time>
      </trkpt>
      <trkpt lat="45.75471" lon="6.74424">
        <ele>2669</ele>
        <time>2026-07-29T07:47:13.716Z</time>
      </trkpt>
      <trkpt lat="45.75471" lon="6.74424">
        <ele>2669</ele>
        <time>2026-07-29T07:47:14.716Z</time>
      </trkpt>
      <trkpt lat="45.75471" lon="6.74424">
        <ele>2669</ele>
        <time>2026-07-29T07:47:15.716Z</time>
      </trkpt>
      <trkpt lat="45.75471" lon="6.74424">
        <ele>2669</ele>
        <time>2026-07-29T07:47:16.716Z</time>
      </trkpt>
      <trkpt lat="45.75471" lon="6.74424">
        <ele>2669</ele>
        <time>2026-07-29T07:47:17.716Z</time>
      </trkpt>
      <trkpt lat="45.75471" lon="6.74424">
        <ele>2669</ele>
        <time>2026-07-29T07:47:18.716Z</time>
      </trkpt>
      <trkpt lat="45.75471" lon="6.74424">
        <ele>2669</ele>
        <time>2026-07-29T07:47:19.716Z</time>
      </trkpt>
      <trkpt lat="45.75471" lon="6.74424">
        <ele>2669</ele>
        <time>2026-07-29T07:47:20.716Z</time>
      </trkpt>
      <trkpt lat="45.75471" lon="6.74425">
        <ele>2669</ele>
        <time>2026-07-29T07:47:21.716Z</time>
      </trkpt>
      <trkpt lat="45.75471" lon="6.74425">
        <ele>2669</ele>
        <time>2026-07-29T07:47:22.716Z</time>
      </trkpt>
      <trkpt lat="45.75471" lon="6.74426">
        <ele>2669</ele>
        <time>2026-07-29T07:47:23.716Z</time>
      </trkpt>
      <trkpt lat="45.75471" lon="6.74426">
        <ele>2669</ele>
        <time>2026-07-29T07:47:24.716Z</time>
      </trkpt>
      <trkpt lat="45.75471" lon="6.74426">
        <ele>2669</ele>
        <time>2026-07-29T07:47:25.716Z</time>
      </trkpt>
      <trkpt lat="45.75471" lon="6.74427">
        <ele>2669</ele>
        <time>2026-07-29T07:47:26.716Z</time>
      </trkpt>
      <trkpt lat="45.75471" lon="6.74427">
        <ele>2669</ele>
        <time>2026-07-29T07:47:27.716Z</time>
      </trkpt>
      <trkpt lat="45.75471" lon="6.74427">
        <ele>2669</ele>
        <time>2026-07-29T07:47:28.716Z</time>
      </trkpt>
      <trkpt lat="45.75471" lon="6.74427">
        <ele>2669</ele>
        <time>2026-07-29T07:47:29.716Z</time>
      </trkpt>
      <trkpt lat="45.75471" lon="6.74427">
        <ele>2669</ele>
        <time>2026-07-29T07:47:30.716Z</time>
      </trkpt>
      <trkpt lat="45.75471" lon="6.74428">
        <ele>2669</ele>
        <time>2026-07-29T07:47:31.716Z</time>
      </trkpt>
      <trkpt lat="45.75471" lon="6.74428">
        <ele>2669</ele>
        <time>2026-07-29T07:47:32.716Z</time>
      </trkpt>
      <trkpt lat="45.75471" lon="6.74428">
        <ele>2669</ele>
        <time>2026-07-29T07:47:33.716Z</time>
      </trkpt>
      <trkpt lat="45.75471" lon="6.74428">
        <ele>2669</ele>
        <time>2026-07-29T07:47:34.716Z</time>
      </trkpt>
      <trkpt lat="45.75471" lon="6.74428">
        <ele>2669</ele>
        <time>2026-07-29T07:47:35.716Z</time>
      </trkpt>
      <trkpt lat="45.75471" lon="6.74428">
        <ele>2669</ele>
        <time>2026-07-29T07:47:36.716Z</time>
      </trkpt>
      <trkpt lat="45.75471" lon="6.74429">
        <ele>2669</ele>
        <time>2026-07-29T07:47:37.716Z</time>
      </trkpt>
      <trkpt lat="45.75471" lon="6.74429">
        <ele>2669</ele>
        <time>2026-07-29T07:47:38.716Z</time>
      </trkpt>
      <trkpt lat="45.75472" lon="6.7443">
        <ele>2669</ele>
        <time>2026-07-29T07:47:39.716Z</time>
      </trkpt>
      <trkpt lat="45.75472" lon="6.74431">
        <ele>2669</ele>
        <time>2026-07-29T07:47:40.716Z</time>
      </trkpt>
      <trkpt lat="45.75472" lon="6.74432">
        <ele>2669</ele>
        <time>2026-07-29T07:47:41.716Z</time>
      </trkpt>
      <trkpt lat="45.75473" lon="6.74433">
        <ele>2669</ele>
        <time>2026-07-29T07:47:42.716Z</time>
      </trkpt>
      <trkpt lat="45.75473" lon="6.74434">
        <ele>2669</ele>
        <time>2026-07-29T07:47:43.716Z</time>
      </trkpt>
      <trkpt lat="45.75473" lon="6.74435">
        <ele>2669</ele>
        <time>2026-07-29T07:47:44.716Z</time>
      </trkpt>
      <trkpt lat="45.75474" lon="6.74436">
        <ele>2669</ele>
        <time>2026-07-29T07:47:45.716Z</time>
      </trkpt>
      <trkpt lat="45.75474" lon="6.74437">
        <ele>2669</ele>
        <time>2026-07-29T07:47:46.716Z</time>
      </trkpt>
      <trkpt lat="45.75475" lon="6.74438">
        <ele>2669</ele>
        <time>2026-07-29T07:47:47.716Z</time>
      </trkpt>
      <trkpt lat="45.75475" lon="6.74439">
        <ele>2669</ele>
        <time>2026-07-29T07:47:48.716Z</time>
      </trkpt>
      <trkpt lat="45.75475" lon="6.7444">
        <ele>2669</ele>
        <time>2026-07-29T07:47:49.716Z</time>
      </trkpt>
      <trkpt lat="45.75475" lon="6.74441">
        <ele>2669</ele>
        <time>2026-07-29T07:47:50.716Z</time>
      </trkpt>
      <trkpt lat="45.75475" lon="6.74442">
        <ele>2669</ele>
        <time>2026-07-29T07:47:51.716Z</time>
      </trkpt>
      <trkpt lat="45.75475" lon="6.74442">
        <ele>2669</ele>
        <time>2026-07-29T07:47:52.716Z</time>
      </trkpt>
      <trkpt lat="45.75475" lon="6.74442">
        <ele>2670</ele>
        <time>2026-07-29T07:47:53.716Z</time>
      </trkpt>
      <trkpt lat="45.75474" lon="6.74442">
        <ele>2670</ele>
        <time>2026-07-29T07:47:54.716Z</time>
      </trkpt>
      <trkpt lat="45.75474" lon="6.74443">
        <ele>2670</ele>
        <time>2026-07-29T07:47:55.716Z</time>
      </trkpt>
      <trkpt lat="45.75474" lon="6.74443">
        <ele>2670</ele>
        <time>2026-07-29T07:47:56.716Z</time>
      </trkpt>
      <trkpt lat="45.75474" lon="6.74444">
        <ele>2670</ele>
        <time>2026-07-29T07:47:57.716Z</time>
      </trkpt>
      <trkpt lat="45.75474" lon="6.74444">
        <ele>2670</ele>
        <time>2026-07-29T07:47:58.716Z</time>
      </trkpt>
      <trkpt lat="45.75474" lon="6.74445">
        <ele>2671</ele>
        <time>2026-07-29T07:47:59.716Z</time>
      </trkpt>
      <trkpt lat="45.75474" lon="6.74445">
        <ele>2671</ele>
        <time>2026-07-29T07:48:00.716Z</time>
      </trkpt>
      <trkpt lat="45.75474" lon="6.74446">
        <ele>2671</ele>
        <time>2026-07-29T07:48:01.716Z</time>
      </trkpt>
      <trkpt lat="45.75474" lon="6.74447">
        <ele>2671</ele>
        <time>2026-07-29T07:48:02.716Z</time>
      </trkpt>
      <trkpt lat="45.75474" lon="6.74447">
        <ele>2671</ele>
        <time>2026-07-29T07:48:03.716Z</time>
      </trkpt>
      <trkpt lat="45.75474" lon="6.74448">
        <ele>2672</ele>
        <time>2026-07-29T07:48:04.716Z</time>
      </trkpt>
      <trkpt lat="45.75474" lon="6.74449">
        <ele>2672</ele>
        <time>2026-07-29T07:48:05.716Z</time>
      </trkpt>
      <trkpt lat="45.75474" lon="6.7445">
        <ele>2672</ele>
        <time>2026-07-29T07:48:06.716Z</time>
      </trkpt>
      <trkpt lat="45.75475" lon="6.74451">
        <ele>2672</ele>
        <time>2026-07-29T07:48:07.716Z</time>
      </trkpt>
      <trkpt lat="45.75475" lon="6.74451">
        <ele>2672</ele>
        <time>2026-07-29T07:48:08.716Z</time>
      </trkpt>
      <trkpt lat="45.75475" lon="6.74452">
        <ele>2673</ele>
        <time>2026-07-29T07:48:09.716Z</time>
      </trkpt>
      <trkpt lat="45.75475" lon="6.74453">
        <ele>2673</ele>
        <time>2026-07-29T07:48:10.716Z</time>
      </trkpt>
      <trkpt lat="45.75475" lon="6.74454">
        <ele>2673</ele>
        <time>2026-07-29T07:48:11.716Z</time>
      </trkpt>
      <trkpt lat="45.75475" lon="6.74455">
        <ele>2673</ele>
        <time>2026-07-29T07:48:12.716Z</time>
      </trkpt>
      <trkpt lat="45.75475" lon="6.74456">
        <ele>2673</ele>
        <time>2026-07-29T07:48:13.716Z</time>
      </trkpt>
      <trkpt lat="45.75476" lon="6.74457">
        <ele>2674</ele>
        <time>2026-07-29T07:48:14.716Z</time>
      </trkpt>
      <trkpt lat="45.75476" lon="6.74458">
        <ele>2674</ele>
        <time>2026-07-29T07:48:15.716Z</time>
      </trkpt>
      <trkpt lat="45.75476" lon="6.74458">
        <ele>2674</ele>
        <time>2026-07-29T07:48:16.716Z</time>
      </trkpt>
      <trkpt lat="45.75476" lon="6.74459">
        <ele>2674</ele>
        <time>2026-07-29T07:48:17.716Z</time>
      </trkpt>
      <trkpt lat="45.75476" lon="6.74459">
        <ele>2674</ele>
        <time>2026-07-29T07:48:18.716Z</time>
      </trkpt>
      <trkpt lat="45.75476" lon="6.7446">
        <ele>2674</ele>
        <time>2026-07-29T07:48:19.716Z</time>
      </trkpt>
      <trkpt lat="45.75477" lon="6.74461">
        <ele>2674</ele>
        <time>2026-07-29T07:48:20.716Z</time>
      </trkpt>
      <trkpt lat="45.75477" lon="6.74461">
        <ele>2674</ele>
        <time>2026-07-29T07:48:21.716Z</time>
      </trkpt>
      <trkpt lat="45.75477" lon="6.74462">
        <ele>2674</ele>
        <time>2026-07-29T07:48:22.716Z</time>
      </trkpt>
      <trkpt lat="45.75476" lon="6.74462">
        <ele>2674</ele>
        <time>2026-07-29T07:48:23.716Z</time>
      </trkpt>
      <trkpt lat="45.75476" lon="6.74463">
        <ele>2674</ele>
        <time>2026-07-29T07:48:24.716Z</time>
      </trkpt>
      <trkpt lat="45.75476" lon="6.74464">
        <ele>2674</ele>
        <time>2026-07-29T07:48:25.716Z</time>
      </trkpt>
      <trkpt lat="45.75476" lon="6.74465">
        <ele>2675</ele>
        <time>2026-07-29T07:48:26.716Z</time>
      </trkpt>
      <trkpt lat="45.75476" lon="6.74465">
        <ele>2675</ele>
        <time>2026-07-29T07:48:27.716Z</time>
      </trkpt>
      <trkpt lat="45.75476" lon="6.74466">
        <ele>2675</ele>
        <time>2026-07-29T07:48:28.716Z</time>
      </trkpt>
      <trkpt lat="45.75476" lon="6.74466">
        <ele>2675</ele>
        <time>2026-07-29T07:48:29.716Z</time>
      </trkpt>
      <trkpt lat="45.75477" lon="6.74467">
        <ele>2675</ele>
        <time>2026-07-29T07:48:30.716Z</time>
      </trkpt>
      <trkpt lat="45.75478" lon="6.74468">
        <ele>2675</ele>
        <time>2026-07-29T07:48:31.716Z</time>
      </trkpt>
      <trkpt lat="45.75479" lon="6.74469">
        <ele>2675</ele>
        <time>2026-07-29T07:48:32.716Z</time>
      </trkpt>
      <trkpt lat="45.7548" lon="6.7447">
        <ele>2675</ele>
        <time>2026-07-29T07:48:33.716Z</time>
      </trkpt>
      <trkpt lat="45.7548" lon="6.74471">
        <ele>2675</ele>
        <time>2026-07-29T07:48:34.716Z</time>
      </trkpt>
      <trkpt lat="45.75481" lon="6.74471">
        <ele>2675</ele>
        <time>2026-07-29T07:48:35.716Z</time>
      </trkpt>
      <trkpt lat="45.75482" lon="6.74472">
        <ele>2675</ele>
        <time>2026-07-29T07:48:36.716Z</time>
      </trkpt>
      <trkpt lat="45.75483" lon="6.74472">
        <ele>2675</ele>
        <time>2026-07-29T07:48:37.716Z</time>
      </trkpt>
      <trkpt lat="45.75483" lon="6.74473">
        <ele>2675</ele>
        <time>2026-07-29T07:48:38.716Z</time>
      </trkpt>
      <trkpt lat="45.75484" lon="6.74474">
        <ele>2675</ele>
        <time>2026-07-29T07:48:39.716Z</time>
      </trkpt>
      <trkpt lat="45.75485" lon="6.74475">
        <ele>2676</ele>
        <time>2026-07-29T07:48:40.716Z</time>
      </trkpt>
      <trkpt lat="45.75485" lon="6.74477">
        <ele>2676</ele>
        <time>2026-07-29T07:48:41.716Z</time>
      </trkpt>
      <trkpt lat="45.75486" lon="6.74478">
        <ele>2676</ele>
        <time>2026-07-29T07:48:42.716Z</time>
      </trkpt>
      <trkpt lat="45.75486" lon="6.74479">
        <ele>2676</ele>
        <time>2026-07-29T07:48:43.716Z</time>
      </trkpt>
      <trkpt lat="45.75487" lon="6.7448">
        <ele>2676</ele>
        <time>2026-07-29T07:48:44.716Z</time>
      </trkpt>
      <trkpt lat="45.75487" lon="6.7448">
        <ele>2676</ele>
        <time>2026-07-29T07:48:45.716Z</time>
      </trkpt>
      <trkpt lat="45.75488" lon="6.74481">
        <ele>2677</ele>
        <time>2026-07-29T07:48:46.716Z</time>
      </trkpt>
      <trkpt lat="45.75489" lon="6.74482">
        <ele>2677</ele>
        <time>2026-07-29T07:48:47.716Z</time>
      </trkpt>
      <trkpt lat="45.75489" lon="6.74484">
        <ele>2677</ele>
        <time>2026-07-29T07:48:48.716Z</time>
      </trkpt>
      <trkpt lat="45.7549" lon="6.74485">
        <ele>2677</ele>
        <time>2026-07-29T07:48:49.716Z</time>
      </trkpt>
      <trkpt lat="45.7549" lon="6.74486">
        <ele>2677</ele>
        <time>2026-07-29T07:48:50.716Z</time>
      </trkpt>
      <trkpt lat="45.75491" lon="6.74486">
        <ele>2677</ele>
        <time>2026-07-29T07:48:51.716Z</time>
      </trkpt>
      <trkpt lat="45.75491" lon="6.74487">
        <ele>2678</ele>
        <time>2026-07-29T07:48:52.716Z</time>
      </trkpt>
      <trkpt lat="45.75491" lon="6.74488">
        <ele>2678</ele>
        <time>2026-07-29T07:48:53.716Z</time>
      </trkpt>
      <trkpt lat="45.75492" lon="6.74489">
        <ele>2678</ele>
        <time>2026-07-29T07:48:54.716Z</time>
      </trkpt>
      <trkpt lat="45.75492" lon="6.7449">
        <ele>2678</ele>
        <time>2026-07-29T07:48:55.716Z</time>
      </trkpt>
      <trkpt lat="45.75492" lon="6.74491">
        <ele>2678</ele>
        <time>2026-07-29T07:48:56.716Z</time>
      </trkpt>
      <trkpt lat="45.75492" lon="6.74491">
        <ele>2678</ele>
        <time>2026-07-29T07:48:57.716Z</time>
      </trkpt>
      <trkpt lat="45.75491" lon="6.74491">
        <ele>2678</ele>
        <time>2026-07-29T07:48:58.716Z</time>
      </trkpt>
      <trkpt lat="45.75491" lon="6.74491">
        <ele>2678</ele>
        <time>2026-07-29T07:48:59.716Z</time>
      </trkpt>
      <trkpt lat="45.75491" lon="6.74491">
        <ele>2678</ele>
        <time>2026-07-29T07:49:00.716Z</time>
      </trkpt>
      <trkpt lat="45.75491" lon="6.7449">
        <ele>2678</ele>
        <time>2026-07-29T07:49:01.716Z</time>
      </trkpt>
      <trkpt lat="45.75491" lon="6.7449">
        <ele>2678</ele>
        <time>2026-07-29T07:49:02.716Z</time>
      </trkpt>
      <trkpt lat="45.75491" lon="6.74491">
        <ele>2678</ele>
        <time>2026-07-29T07:49:03.716Z</time>
      </trkpt>
      <trkpt lat="45.75491" lon="6.74491">
        <ele>2679</ele>
        <time>2026-07-29T07:49:04.716Z</time>
      </trkpt>
      <trkpt lat="45.75491" lon="6.74491">
        <ele>2679</ele>
        <time>2026-07-29T07:49:05.716Z</time>
      </trkpt>
      <trkpt lat="45.75491" lon="6.74491">
        <ele>2678</ele>
        <time>2026-07-29T07:49:06.716Z</time>
      </trkpt>
      <trkpt lat="45.75491" lon="6.74491">
        <ele>2678</ele>
        <time>2026-07-29T07:49:07.716Z</time>
      </trkpt>
      <trkpt lat="45.75491" lon="6.74491">
        <ele>2678</ele>
        <time>2026-07-29T07:49:08.716Z</time>
      </trkpt>
      <trkpt lat="45.75491" lon="6.74491">
        <ele>2678</ele>
        <time>2026-07-29T07:49:09.716Z</time>
      </trkpt>
      <trkpt lat="45.75491" lon="6.74491">
        <ele>2677</ele>
        <time>2026-07-29T07:49:10.716Z</time>
      </trkpt>
      <trkpt lat="45.75491" lon="6.74491">
        <ele>2677</ele>
        <time>2026-07-29T07:49:11.716Z</time>
      </trkpt>
      <trkpt lat="45.75491" lon="6.74491">
        <ele>2677</ele>
        <time>2026-07-29T07:49:12.716Z</time>
      </trkpt>
      <trkpt lat="45.75491" lon="6.74491">
        <ele>2677</ele>
        <time>2026-07-29T07:49:13.716Z</time>
      </trkpt>
      <trkpt lat="45.75491" lon="6.74491">
        <ele>2677</ele>
        <time>2026-07-29T07:49:14.716Z</time>
      </trkpt>
      <trkpt lat="45.75491" lon="6.74491">
        <ele>2677</ele>
        <time>2026-07-29T07:49:15.716Z</time>
      </trkpt>
      <trkpt lat="45.75491" lon="6.74491">
        <ele>2677</ele>
        <time>2026-07-29T07:49:16.716Z</time>
      </trkpt>
      <trkpt lat="45.75491" lon="6.74491">
        <ele>2677</ele>
        <time>2026-07-29T07:49:17.716Z</time>
      </trkpt>
      <trkpt lat="45.75491" lon="6.74491">
        <ele>2677</ele>
        <time>2026-07-29T07:49:18.716Z</time>
      </trkpt>
      <trkpt lat="45.75491" lon="6.74491">
        <ele>2677</ele>
        <time>2026-07-29T07:49:19.716Z</time>
      </trkpt>
      <trkpt lat="45.75491" lon="6.74491">
        <ele>2677</ele>
        <time>2026-07-29T07:49:20.716Z</time>
      </trkpt>
      <trkpt lat="45.75491" lon="6.74491">
        <ele>2677</ele>
        <time>2026-07-29T07:49:21.716Z</time>
      </trkpt>
      <trkpt lat="45.75491" lon="6.74491">
        <ele>2677</ele>
        <time>2026-07-29T07:49:22.716Z</time>
      </trkpt>
      <trkpt lat="45.75491" lon="6.74491">
        <ele>2677</ele>
        <time>2026-07-29T07:49:23.716Z</time>
      </trkpt>
      <trkpt lat="45.75491" lon="6.74491">
        <ele>2677</ele>
        <time>2026-07-29T07:49:24.716Z</time>
      </trkpt>
      <trkpt lat="45.75491" lon="6.74491">
        <ele>2677</ele>
        <time>2026-07-29T07:49:25.716Z</time>
      </trkpt>
      <trkpt lat="45.75491" lon="6.7449">
        <ele>2677</ele>
        <time>2026-07-29T07:49:26.716Z</time>
      </trkpt>
      <trkpt lat="45.75491" lon="6.7449">
        <ele>2677</ele>
        <time>2026-07-29T07:49:27.716Z</time>
      </trkpt>
      <trkpt lat="45.75491" lon="6.7449">
        <ele>2677</ele>
        <time>2026-07-29T07:49:28.716Z</time>
      </trkpt>
      <trkpt lat="45.75491" lon="6.7449">
        <ele>2677</ele>
        <time>2026-07-29T07:49:29.716Z</time>
      </trkpt>
      <trkpt lat="45.75491" lon="6.7449">
        <ele>2677</ele>
        <time>2026-07-29T07:49:30.716Z</time>
      </trkpt>
      <trkpt lat="45.75491" lon="6.74489">
        <ele>2677</ele>
        <time>2026-07-29T07:49:31.716Z</time>
      </trkpt>
      <trkpt lat="45.75492" lon="6.74489">
        <ele>2677</ele>
        <time>2026-07-29T07:49:32.716Z</time>
      </trkpt>
      <trkpt lat="45.75492" lon="6.74489">
        <ele>2677</ele>
        <time>2026-07-29T07:49:33.716Z</time>
      </trkpt>
      <trkpt lat="45.75492" lon="6.74489">
        <ele>2677</ele>
        <time>2026-07-29T07:49:34.716Z</time>
      </trkpt>
      <trkpt lat="45.75492" lon="6.74489">
        <ele>2677</ele>
        <time>2026-07-29T07:49:35.716Z</time>
      </trkpt>
      <trkpt lat="45.75492" lon="6.74489">
        <ele>2677</ele>
        <time>2026-07-29T07:49:36.716Z</time>
      </trkpt>
      <trkpt lat="45.75492" lon="6.74489">
        <ele>2677</ele>
        <time>2026-07-29T07:49:37.716Z</time>
      </trkpt>
      <trkpt lat="45.75492" lon="6.74489">
        <ele>2677</ele>
        <time>2026-07-29T07:49:38.716Z</time>
      </trkpt>
      <trkpt lat="45.75492" lon="6.74489">
        <ele>2677</ele>
        <time>2026-07-29T07:49:39.716Z</time>
      </trkpt>
      <trkpt lat="45.75492" lon="6.74489">
        <ele>2677</ele>
        <time>2026-07-29T07:49:40.716Z</time>
      </trkpt>
      <trkpt lat="45.75492" lon="6.74489">
        <ele>2677</ele>
        <time>2026-07-29T07:49:41.716Z</time>
      </trkpt>
      <trkpt lat="45.75493" lon="6.74489">
        <ele>2677</ele>
        <time>2026-07-29T07:49:42.716Z</time>
      </trkpt>
      <trkpt lat="45.75493" lon="6.74489">
        <ele>2677</ele>
        <time>2026-07-29T07:49:43.716Z</time>
      </trkpt>
      <trkpt lat="45.75493" lon="6.74489">
        <ele>2677</ele>
        <time>2026-07-29T07:49:44.716Z</time>
      </trkpt>
      <trkpt lat="45.75493" lon="6.74489">
        <ele>2677</ele>
        <time>2026-07-29T07:49:45.716Z</time>
      </trkpt>
      <trkpt lat="45.75493" lon="6.74489">
        <ele>2677</ele>
        <time>2026-07-29T07:49:46.716Z</time>
      </trkpt>
      <trkpt lat="45.75493" lon="6.74489">
        <ele>2677</ele>
        <time>2026-07-29T07:49:47.716Z</time>
      </trkpt>
      <trkpt lat="45.75493" lon="6.7449">
        <ele>2677</ele>
        <time>2026-07-29T07:49:48.716Z</time>
      </trkpt>
      <trkpt lat="45.75493" lon="6.7449">
        <ele>2677</ele>
        <time>2026-07-29T07:49:49.716Z</time>
      </trkpt>
      <trkpt lat="45.75493" lon="6.7449">
        <ele>2677</ele>
        <time>2026-07-29T07:49:50.716Z</time>
      </trkpt>
      <trkpt lat="45.75493" lon="6.74491">
        <ele>2677</ele>
        <time>2026-07-29T07:49:51.716Z</time>
      </trkpt>
      <trkpt lat="45.75493" lon="6.74491">
        <ele>2677</ele>
        <time>2026-07-29T07:49:52.716Z</time>
      </trkpt>
      <trkpt lat="45.75493" lon="6.74491">
        <ele>2677</ele>
        <time>2026-07-29T07:49:53.716Z</time>
      </trkpt>
      <trkpt lat="45.75493" lon="6.74491">
        <ele>2677</ele>
        <time>2026-07-29T07:49:54.716Z</time>
      </trkpt>
      <trkpt lat="45.75493" lon="6.74491">
        <ele>2677</ele>
        <time>2026-07-29T07:49:55.716Z</time>
      </trkpt>
      <trkpt lat="45.75493" lon="6.74491">
        <ele>2677</ele>
        <time>2026-07-29T07:49:56.716Z</time>
      </trkpt>
      <trkpt lat="45.75493" lon="6.74491">
        <ele>2677</ele>
        <time>2026-07-29T07:49:57.716Z</time>
      </trkpt>
      <trkpt lat="45.75493" lon="6.74491">
        <ele>2677</ele>
        <time>2026-07-29T07:49:58.716Z</time>
      </trkpt>
      <trkpt lat="45.75493" lon="6.74491">
        <ele>2677</ele>
        <time>2026-07-29T07:49:59.716Z</time>
      </trkpt>
      <trkpt lat="45.75493" lon="6.74491">
        <ele>2677</ele>
        <time>2026-07-29T07:50:00.716Z</time>
      </trkpt>
      <trkpt lat="45.75493" lon="6.74491">
        <ele>2677</ele>
        <time>2026-07-29T07:50:01.716Z</time>
      </trkpt>
      <trkpt lat="45.75493" lon="6.74491">
        <ele>2677</ele>
        <time>2026-07-29T07:50:02.716Z</time>
      </trkpt>
      <trkpt lat="45.75493" lon="6.74491">
        <ele>2677</ele>
        <time>2026-07-29T07:50:03.716Z</time>
      </trkpt>
      <trkpt lat="45.75493" lon="6.74491">
        <ele>2677</ele>
        <time>2026-07-29T07:50:04.716Z</time>
      </trkpt>
      <trkpt lat="45.75493" lon="6.74491">
        <ele>2677</ele>
        <time>2026-07-29T07:50:05.716Z</time>
      </trkpt>
      <trkpt lat="45.75493" lon="6.74491">
        <ele>2677</ele>
        <time>2026-07-29T07:50:06.716Z</time>
      </trkpt>
      <trkpt lat="45.75493" lon="6.74491">
        <ele>2677</ele>
        <time>2026-07-29T07:50:07.716Z</time>
      </trkpt>
      <trkpt lat="45.75493" lon="6.7449">
        <ele>2677</ele>
        <time>2026-07-29T07:50:08.716Z</time>
      </trkpt>
      <trkpt lat="45.75493" lon="6.7449">
        <ele>2677</ele>
        <time>2026-07-29T07:50:09.716Z</time>
      </trkpt>
      <trkpt lat="45.75493" lon="6.74489">
        <ele>2677</ele>
        <time>2026-07-29T07:50:10.716Z</time>
      </trkpt>
      <trkpt lat="45.75493" lon="6.74489">
        <ele>2677</ele>
        <time>2026-07-29T07:50:11.716Z</time>
      </trkpt>
      <trkpt lat="45.75493" lon="6.74489">
        <ele>2677</ele>
        <time>2026-07-29T07:50:12.716Z</time>
      </trkpt>
      <trkpt lat="45.75492" lon="6.7449">
        <ele>2677</ele>
        <time>2026-07-29T07:50:13.716Z</time>
      </trkpt>
      <trkpt lat="45.75492" lon="6.7449">
        <ele>2677</ele>
        <time>2026-07-29T07:50:14.716Z</time>
      </trkpt>
      <trkpt lat="45.75492" lon="6.74491">
        <ele>2677</ele>
        <time>2026-07-29T07:50:15.716Z</time>
      </trkpt>
      <trkpt lat="45.75492" lon="6.74491">
        <ele>2677</ele>
        <time>2026-07-29T07:50:16.716Z</time>
      </trkpt>
      <trkpt lat="45.75492" lon="6.74492">
        <ele>2677</ele>
        <time>2026-07-29T07:50:17.716Z</time>
      </trkpt>
      <trkpt lat="45.75492" lon="6.74492">
        <ele>2677</ele>
        <time>2026-07-29T07:50:18.716Z</time>
      </trkpt>
      <trkpt lat="45.75492" lon="6.74492">
        <ele>2677</ele>
        <time>2026-07-29T07:50:19.716Z</time>
      </trkpt>
      <trkpt lat="45.75492" lon="6.74492">
        <ele>2677</ele>
        <time>2026-07-29T07:50:20.716Z</time>
      </trkpt>
      <trkpt lat="45.75492" lon="6.74492">
        <ele>2677</ele>
        <time>2026-07-29T07:50:21.716Z</time>
      </trkpt>
      <trkpt lat="45.75492" lon="6.74492">
        <ele>2677</ele>
        <time>2026-07-29T07:50:22.716Z</time>
      </trkpt>
      <trkpt lat="45.75492" lon="6.74492">
        <ele>2677</ele>
        <time>2026-07-29T07:50:23.716Z</time>
      </trkpt>
      <trkpt lat="45.75492" lon="6.74492">
        <ele>2677</ele>
        <time>2026-07-29T07:50:24.716Z</time>
      </trkpt>
      <trkpt lat="45.75492" lon="6.74492">
        <ele>2677</ele>
        <time>2026-07-29T07:50:25.716Z</time>
      </trkpt>
      <trkpt lat="45.75492" lon="6.74492">
        <ele>2677</ele>
        <time>2026-07-29T07:50:26.716Z</time>
      </trkpt>
      <trkpt lat="45.75492" lon="6.74491">
        <ele>2677</ele>
        <time>2026-07-29T07:50:27.716Z</time>
      </trkpt>
      <trkpt lat="45.75492" lon="6.74489">
        <ele>2677</ele>
        <time>2026-07-29T07:50:28.716Z</time>
      </trkpt>
      <trkpt lat="45.75492" lon="6.74488">
        <ele>2677</ele>
        <time>2026-07-29T07:50:29.716Z</time>
      </trkpt>
      <trkpt lat="45.75493" lon="6.74487">
        <ele>2677</ele>
        <time>2026-07-29T07:50:30.716Z</time>
      </trkpt>
      <trkpt lat="45.75493" lon="6.74487">
        <ele>2677</ele>
        <time>2026-07-29T07:50:31.716Z</time>
      </trkpt>
      <trkpt lat="45.75493" lon="6.74486">
        <ele>2677</ele>
        <time>2026-07-29T07:50:32.716Z</time>
      </trkpt>
      <trkpt lat="45.75492" lon="6.74485">
        <ele>2678</ele>
        <time>2026-07-29T07:50:33.716Z</time>
      </trkpt>
      <trkpt lat="45.75492" lon="6.74485">
        <ele>2678</ele>
        <time>2026-07-29T07:50:34.716Z</time>
      </trkpt>
      <trkpt lat="45.75492" lon="6.74484">
        <ele>2678</ele>
        <time>2026-07-29T07:50:35.716Z</time>
      </trkpt>
      <trkpt lat="45.75492" lon="6.74483">
        <ele>2678</ele>
        <time>2026-07-29T07:50:36.716Z</time>
      </trkpt>
      <trkpt lat="45.75492" lon="6.74483">
        <ele>2678</ele>
        <time>2026-07-29T07:50:37.716Z</time>
      </trkpt>
      <trkpt lat="45.75492" lon="6.74483">
        <ele>2678</ele>
        <time>2026-07-29T07:50:38.716Z</time>
      </trkpt>
      <trkpt lat="45.75492" lon="6.74483">
        <ele>2678</ele>
        <time>2026-07-29T07:50:39.716Z</time>
      </trkpt>
      <trkpt lat="45.75492" lon="6.74483">
        <ele>2678</ele>
        <time>2026-07-29T07:50:40.716Z</time>
      </trkpt>
      <trkpt lat="45.75492" lon="6.74483">
        <ele>2678</ele>
        <time>2026-07-29T07:50:41.716Z</time>
      </trkpt>
      <trkpt lat="45.75492" lon="6.74483">
        <ele>2678</ele>
        <time>2026-07-29T07:50:42.716Z</time>
      </trkpt>
      <trkpt lat="45.75492" lon="6.74483">
        <ele>2678</ele>
        <time>2026-07-29T07:50:43.716Z</time>
      </trkpt>
      <trkpt lat="45.75492" lon="6.74483">
        <ele>2678</ele>
        <time>2026-07-29T07:50:44.716Z</time>
      </trkpt>
      <trkpt lat="45.75492" lon="6.74483">
        <ele>2678</ele>
        <time>2026-07-29T07:50:45.716Z</time>
      </trkpt>
      <trkpt lat="45.75492" lon="6.74483">
        <ele>2678</ele>
        <time>2026-07-29T07:50:46.716Z</time>
      </trkpt>
      <trkpt lat="45.75492" lon="6.74483">
        <ele>2678</ele>
        <time>2026-07-29T07:50:47.716Z</time>
      </trkpt>
      <trkpt lat="45.75492" lon="6.74483">
        <ele>2677</ele>
        <time>2026-07-29T07:50:48.716Z</time>
      </trkpt>
      <trkpt lat="45.75492" lon="6.74483">
        <ele>2677</ele>
        <time>2026-07-29T07:50:49.716Z</time>
      </trkpt>
      <trkpt lat="45.75492" lon="6.74483">
        <ele>2677</ele>
        <time>2026-07-29T07:50:50.716Z</time>
      </trkpt>
      <trkpt lat="45.75492" lon="6.74483">
        <ele>2677</ele>
        <time>2026-07-29T07:50:51.716Z</time>
      </trkpt>
      <trkpt lat="45.75492" lon="6.74484">
        <ele>2677</ele>
        <time>2026-07-29T07:50:52.716Z</time>
      </trkpt>
      <trkpt lat="45.75492" lon="6.74484">
        <ele>2677</ele>
        <time>2026-07-29T07:50:53.716Z</time>
      </trkpt>
      <trkpt lat="45.75492" lon="6.74484">
        <ele>2677</ele>
        <time>2026-07-29T07:50:54.716Z</time>
      </trkpt>
      <trkpt lat="45.75492" lon="6.74484">
        <ele>2677</ele>
        <time>2026-07-29T07:50:55.716Z</time>
      </trkpt>
      <trkpt lat="45.75492" lon="6.74484">
        <ele>2677</ele>
        <time>2026-07-29T07:50:56.716Z</time>
      </trkpt>
      <trkpt lat="45.75493" lon="6.74484">
        <ele>2677</ele>
        <time>2026-07-29T07:50:57.716Z</time>
      </trkpt>
      <trkpt lat="45.75493" lon="6.74484">
        <ele>2677</ele>
        <time>2026-07-29T07:50:58.716Z</time>
      </trkpt>
      <trkpt lat="45.75493" lon="6.74484">
        <ele>2677</ele>
        <time>2026-07-29T07:50:59.716Z</time>
      </trkpt>
      <trkpt lat="45.75493" lon="6.74484">
        <ele>2677</ele>
        <time>2026-07-29T07:51:00.716Z</time>
      </trkpt>
      <trkpt lat="45.75493" lon="6.74484">
        <ele>2677</ele>
        <time>2026-07-29T07:51:01.716Z</time>
      </trkpt>
      <trkpt lat="45.75493" lon="6.74484">
        <ele>2677</ele>
        <time>2026-07-29T07:51:02.716Z</time>
      </trkpt>
      <trkpt lat="45.75493" lon="6.74484">
        <ele>2677</ele>
        <time>2026-07-29T07:51:03.716Z</time>
      </trkpt>
      <trkpt lat="45.75493" lon="6.74484">
        <ele>2677</ele>
        <time>2026-07-29T07:51:04.716Z</time>
      </trkpt>
      <trkpt lat="45.75493" lon="6.74484">
        <ele>2677</ele>
        <time>2026-07-29T07:51:05.716Z</time>
      </trkpt>
      <trkpt lat="45.75493" lon="6.74484">
        <ele>2677</ele>
        <time>2026-07-29T07:51:06.716Z</time>
      </trkpt>
      <trkpt lat="45.75493" lon="6.74484">
        <ele>2677</ele>
        <time>2026-07-29T07:51:07.716Z</time>
      </trkpt>
      <trkpt lat="45.75493" lon="6.74484">
        <ele>2677</ele>
        <time>2026-07-29T07:51:08.716Z</time>
      </trkpt>
      <trkpt lat="45.75493" lon="6.74484">
        <ele>2677</ele>
        <time>2026-07-29T07:51:09.716Z</time>
      </trkpt>
      <trkpt lat="45.75493" lon="6.74484">
        <ele>2677</ele>
        <time>2026-07-29T07:51:10.716Z</time>
      </trkpt>
      <trkpt lat="45.75493" lon="6.74484">
        <ele>2677</ele>
        <time>2026-07-29T07:51:11.716Z</time>
      </trkpt>
      <trkpt lat="45.75493" lon="6.74484">
        <ele>2677</ele>
        <time>2026-07-29T07:51:12.716Z</time>
      </trkpt>
      <trkpt lat="45.75493" lon="6.74484">
        <ele>2677</ele>
        <time>2026-07-29T07:51:13.716Z</time>
      </trkpt>
      <trkpt lat="45.75493" lon="6.74484">
        <ele>2677</ele>
        <time>2026-07-29T07:51:14.716Z</time>
      </trkpt>
      <trkpt lat="45.75492" lon="6.74485">
        <ele>2677</ele>
        <time>2026-07-29T07:51:15.716Z</time>
      </trkpt>
      <trkpt lat="45.75492" lon="6.74486">
        <ele>2677</ele>
        <time>2026-07-29T07:51:16.716Z</time>
      </trkpt>
      <trkpt lat="45.75492" lon="6.74486">
        <ele>2677</ele>
        <time>2026-07-29T07:51:17.716Z</time>
      </trkpt>
      <trkpt lat="45.75492" lon="6.74487">
        <ele>2677</ele>
        <time>2026-07-29T07:51:18.716Z</time>
      </trkpt>
      <trkpt lat="45.75492" lon="6.74488">
        <ele>2678</ele>
        <time>2026-07-29T07:51:19.716Z</time>
      </trkpt>
      <trkpt lat="45.75491" lon="6.74488">
        <ele>2678</ele>
        <time>2026-07-29T07:51:20.716Z</time>
      </trkpt>
      <trkpt lat="45.75491" lon="6.74488">
        <ele>2678</ele>
        <time>2026-07-29T07:51:21.716Z</time>
      </trkpt>
      <trkpt lat="45.75491" lon="6.74488">
        <ele>2678</ele>
        <time>2026-07-29T07:51:22.716Z</time>
      </trkpt>
      <trkpt lat="45.75491" lon="6.74488">
        <ele>2679</ele>
        <time>2026-07-29T07:51:23.716Z</time>
      </trkpt>
      <trkpt lat="45.75491" lon="6.74488">
        <ele>2679</ele>
        <time>2026-07-29T07:51:24.716Z</time>
      </trkpt>
      <trkpt lat="45.75491" lon="6.74488">
        <ele>2680</ele>
        <time>2026-07-29T07:51:25.716Z</time>
      </trkpt>
      <trkpt lat="45.75491" lon="6.74488">
        <ele>2680</ele>
        <time>2026-07-29T07:51:26.716Z</time>
      </trkpt>
      <trkpt lat="45.75491" lon="6.74491">
        <ele>2680</ele>
        <time>2026-07-29T07:51:27.716Z</time>
      </trkpt>
      <trkpt lat="45.75491" lon="6.74491">
        <ele>2681</ele>
        <time>2026-07-29T07:51:28.716Z</time>
      </trkpt>
      <trkpt lat="45.75491" lon="6.74491">
        <ele>2681</ele>
        <time>2026-07-29T07:51:29.716Z</time>
      </trkpt>
      <trkpt lat="45.75491" lon="6.74491">
        <ele>2681</ele>
        <time>2026-07-29T07:51:30.716Z</time>
      </trkpt>
      <trkpt lat="45.75491" lon="6.74491">
        <ele>2681</ele>
        <time>2026-07-29T07:51:31.716Z</time>
      </trkpt>
      <trkpt lat="45.75491" lon="6.74492">
        <ele>2681</ele>
        <time>2026-07-29T07:51:32.716Z</time>
      </trkpt>
      <trkpt lat="45.75491" lon="6.74492">
        <ele>2682</ele>
        <time>2026-07-29T07:51:33.716Z</time>
      </trkpt>
      <trkpt lat="45.75491" lon="6.74492">
        <ele>2682</ele>
        <time>2026-07-29T07:51:34.716Z</time>
      </trkpt>
      <trkpt lat="45.75491" lon="6.74492">
        <ele>2682</ele>
        <time>2026-07-29T07:51:35.716Z</time>
      </trkpt>
      <trkpt lat="45.75491" lon="6.74492">
        <ele>2682</ele>
        <time>2026-07-29T07:51:36.716Z</time>
      </trkpt>
      <trkpt lat="45.75491" lon="6.74492">
        <ele>2682</ele>
        <time>2026-07-29T07:51:37.716Z</time>
      </trkpt>
      <trkpt lat="45.75491" lon="6.74492">
        <ele>2682</ele>
        <time>2026-07-29T07:51:38.716Z</time>
      </trkpt>
      <trkpt lat="45.75491" lon="6.74492">
        <ele>2683</ele>
        <time>2026-07-29T07:51:39.716Z</time>
      </trkpt>
      <trkpt lat="45.75491" lon="6.74492">
        <ele>2683</ele>
        <time>2026-07-29T07:51:40.716Z</time>
      </trkpt>
      <trkpt lat="45.75491" lon="6.74492">
        <ele>2683</ele>
        <time>2026-07-29T07:51:41.716Z</time>
      </trkpt>
      <trkpt lat="45.75491" lon="6.74492">
        <ele>2683</ele>
        <time>2026-07-29T07:51:42.716Z</time>
      </trkpt>
      <trkpt lat="45.75491" lon="6.74492">
        <ele>2683</ele>
        <time>2026-07-29T07:51:43.716Z</time>
      </trkpt>
      <trkpt lat="45.7549" lon="6.74492">
        <ele>2683</ele>
        <time>2026-07-29T07:51:44.716Z</time>
      </trkpt>
      <trkpt lat="45.7549" lon="6.74493">
        <ele>2683</ele>
        <time>2026-07-29T07:51:45.716Z</time>
      </trkpt>
      <trkpt lat="45.7549" lon="6.74493">
        <ele>2683</ele>
        <time>2026-07-29T07:51:46.716Z</time>
      </trkpt>
      <trkpt lat="45.7549" lon="6.74493">
        <ele>2683</ele>
        <time>2026-07-29T07:51:47.716Z</time>
      </trkpt>
      <trkpt lat="45.7549" lon="6.74493">
        <ele>2683</ele>
        <time>2026-07-29T07:51:48.716Z</time>
      </trkpt>
      <trkpt lat="45.7549" lon="6.74493">
        <ele>2683</ele>
        <time>2026-07-29T07:51:49.716Z</time>
      </trkpt>
      <trkpt lat="45.7549" lon="6.74493">
        <ele>2683</ele>
        <time>2026-07-29T07:51:50.716Z</time>
      </trkpt>
      <trkpt lat="45.7549" lon="6.74493">
        <ele>2683</ele>
        <time>2026-07-29T07:51:51.716Z</time>
      </trkpt>
      <trkpt lat="45.7549" lon="6.74493">
        <ele>2683</ele>
        <time>2026-07-29T07:51:52.716Z</time>
      </trkpt>
      <trkpt lat="45.7549" lon="6.74493">
        <ele>2683</ele>
        <time>2026-07-29T07:51:53.716Z</time>
      </trkpt>
      <trkpt lat="45.7549" lon="6.74493">
        <ele>2683</ele>
        <time>2026-07-29T07:51:54.716Z</time>
      </trkpt>
      <trkpt lat="45.7549" lon="6.74493">
        <ele>2683</ele>
        <time>2026-07-29T07:51:55.716Z</time>
      </trkpt>
      <trkpt lat="45.7549" lon="6.74493">
        <ele>2683</ele>
        <time>2026-07-29T07:51:56.716Z</time>
      </trkpt>
      <trkpt lat="45.7549" lon="6.74493">
        <ele>2683</ele>
        <time>2026-07-29T07:51:57.716Z</time>
      </trkpt>
      <trkpt lat="45.7549" lon="6.74493">
        <ele>2683</ele>
        <time>2026-07-29T07:51:58.716Z</time>
      </trkpt>
      <trkpt lat="45.7549" lon="6.74493">
        <ele>2683</ele>
        <time>2026-07-29T07:51:59.716Z</time>
      </trkpt>
      <trkpt lat="45.7549" lon="6.74493">
        <ele>2683</ele>
        <time>2026-07-29T07:52:00.716Z</time>
      </trkpt>
      <trkpt lat="45.7549" lon="6.74493">
        <ele>2683</ele>
        <time>2026-07-29T07:52:01.716Z</time>
      </trkpt>
      <trkpt lat="45.7549" lon="6.74493">
        <ele>2683</ele>
        <time>2026-07-29T07:52:02.716Z</time>
      </trkpt>
      <trkpt lat="45.7549" lon="6.74493">
        <ele>2683</ele>
        <time>2026-07-29T07:52:03.716Z</time>
      </trkpt>
      <trkpt lat="45.7549" lon="6.74493">
        <ele>2683</ele>
        <time>2026-07-29T07:52:04.716Z</time>
      </trkpt>
      <trkpt lat="45.7549" lon="6.74493">
        <ele>2683</ele>
        <time>2026-07-29T07:52:05.716Z</time>
      </trkpt>
      <trkpt lat="45.7549" lon="6.74493">
        <ele>2683</ele>
        <time>2026-07-29T07:52:06.716Z</time>
      </trkpt>
      <trkpt lat="45.7549" lon="6.74493">
        <ele>2683</ele>
        <time>2026-07-29T07:52:07.716Z</time>
      </trkpt>
      <trkpt lat="45.7549" lon="6.74493">
        <ele>2683</ele>
        <time>2026-07-29T07:52:08.716Z</time>
      </trkpt>
      <trkpt lat="45.7549" lon="6.74493">
        <ele>2683</ele>
        <time>2026-07-29T07:52:09.716Z</time>
      </trkpt>
      <trkpt lat="45.7549" lon="6.74493">
        <ele>2683</ele>
        <time>2026-07-29T07:52:10.716Z</time>
      </trkpt>
      <trkpt lat="45.7549" lon="6.74493">
        <ele>2683</ele>
        <time>2026-07-29T07:52:11.716Z</time>
      </trkpt>
      <trkpt lat="45.75491" lon="6.74493">
        <ele>2683</ele>
        <time>2026-07-29T07:52:12.716Z</time>
      </trkpt>
      <trkpt lat="45.75491" lon="6.74493">
        <ele>2683</ele>
        <time>2026-07-29T07:52:13.716Z</time>
      </trkpt>
      <trkpt lat="45.75491" lon="6.74493">
        <ele>2683</ele>
        <time>2026-07-29T07:52:14.716Z</time>
      </trkpt>
      <trkpt lat="45.75491" lon="6.74493">
        <ele>2683</ele>
        <time>2026-07-29T07:52:15.716Z</time>
      </trkpt>
      <trkpt lat="45.75491" lon="6.74493">
        <ele>2683</ele>
        <time>2026-07-29T07:52:16.716Z</time>
      </trkpt>
      <trkpt lat="45.75491" lon="6.74493">
        <ele>2683</ele>
        <time>2026-07-29T07:52:17.716Z</time>
      </trkpt>
      <trkpt lat="45.75491" lon="6.74492">
        <ele>2683</ele>
        <time>2026-07-29T07:52:18.716Z</time>
      </trkpt>
      <trkpt lat="45.75491" lon="6.74492">
        <ele>2683</ele>
        <time>2026-07-29T07:52:19.716Z</time>
      </trkpt>
      <trkpt lat="45.75491" lon="6.74492">
        <ele>2683</ele>
        <time>2026-07-29T07:52:20.716Z</time>
      </trkpt>
      <trkpt lat="45.75491" lon="6.74492">
        <ele>2683</ele>
        <time>2026-07-29T07:52:21.716Z</time>
      </trkpt>
      <trkpt lat="45.75491" lon="6.74492">
        <ele>2683</ele>
        <time>2026-07-29T07:52:22.716Z</time>
      </trkpt>
      <trkpt lat="45.75491" lon="6.74492">
        <ele>2683</ele>
        <time>2026-07-29T07:52:23.716Z</time>
      </trkpt>
      <trkpt lat="45.75491" lon="6.74492">
        <ele>2683</ele>
        <time>2026-07-29T07:52:24.716Z</time>
      </trkpt>
      <trkpt lat="45.75492" lon="6.74492">
        <ele>2683</ele>
        <time>2026-07-29T07:52:25.716Z</time>
      </trkpt>
      <trkpt lat="45.75492" lon="6.74492">
        <ele>2683</ele>
        <time>2026-07-29T07:52:26.716Z</time>
      </trkpt>
      <trkpt lat="45.75492" lon="6.74492">
        <ele>2683</ele>
        <time>2026-07-29T07:52:27.716Z</time>
      </trkpt>
      <trkpt lat="45.75492" lon="6.74492">
        <ele>2683</ele>
        <time>2026-07-29T07:52:28.716Z</time>
      </trkpt>
      <trkpt lat="45.75492" lon="6.74492">
        <ele>2683</ele>
        <time>2026-07-29T07:52:29.716Z</time>
      </trkpt>
      <trkpt lat="45.75492" lon="6.74492">
        <ele>2683</ele>
        <time>2026-07-29T07:52:30.716Z</time>
      </trkpt>
      <trkpt lat="45.75492" lon="6.74492">
        <ele>2683</ele>
        <time>2026-07-29T07:52:31.716Z</time>
      </trkpt>
      <trkpt lat="45.75492" lon="6.74492">
        <ele>2683</ele>
        <time>2026-07-29T07:52:32.716Z</time>
      </trkpt>
      <trkpt lat="45.75492" lon="6.74492">
        <ele>2683</ele>
        <time>2026-07-29T07:52:33.716Z</time>
      </trkpt>
      <trkpt lat="45.75492" lon="6.74492">
        <ele>2683</ele>
        <time>2026-07-29T07:52:34.716Z</time>
      </trkpt>
      <trkpt lat="45.75492" lon="6.74492">
        <ele>2683</ele>
        <time>2026-07-29T07:52:35.716Z</time>
      </trkpt>
      <trkpt lat="45.75492" lon="6.74492">
        <ele>2683</ele>
        <time>2026-07-29T07:52:36.716Z</time>
      </trkpt>
      <trkpt lat="45.75492" lon="6.74492">
        <ele>2683</ele>
        <time>2026-07-29T07:52:37.716Z</time>
      </trkpt>
      <trkpt lat="45.75492" lon="6.74492">
        <ele>2682</ele>
        <time>2026-07-29T07:52:38.716Z</time>
      </trkpt>
      <trkpt lat="45.75492" lon="6.74492">
        <ele>2682</ele>
        <time>2026-07-29T07:52:39.716Z</time>
      </trkpt>
      <trkpt lat="45.75492" lon="6.74492">
        <ele>2682</ele>
        <time>2026-07-29T07:52:40.716Z</time>
      </trkpt>
      <trkpt lat="45.75492" lon="6.74493">
        <ele>2682</ele>
        <time>2026-07-29T07:52:41.716Z</time>
      </trkpt>
      <trkpt lat="45.75492" lon="6.74493">
        <ele>2682</ele>
        <time>2026-07-29T07:52:42.716Z</time>
      </trkpt>
      <trkpt lat="45.75492" lon="6.74493">
        <ele>2682</ele>
        <time>2026-07-29T07:52:43.717Z</time>
      </trkpt>
      <trkpt lat="45.75492" lon="6.74493">
        <ele>2682</ele>
        <time>2026-07-29T07:52:44.716Z</time>
      </trkpt>
      <trkpt lat="45.75492" lon="6.74493">
        <ele>2682</ele>
        <time>2026-07-29T07:52:45.716Z</time>
      </trkpt>
      <trkpt lat="45.75492" lon="6.74493">
        <ele>2682</ele>
        <time>2026-07-29T07:52:46.716Z</time>
      </trkpt>
      <trkpt lat="45.75492" lon="6.74493">
        <ele>2682</ele>
        <time>2026-07-29T07:52:47.716Z</time>
      </trkpt>
      <trkpt lat="45.75492" lon="6.74493">
        <ele>2682</ele>
        <time>2026-07-29T07:52:48.716Z</time>
      </trkpt>
      <trkpt lat="45.75492" lon="6.74493">
        <ele>2682</ele>
        <time>2026-07-29T07:52:49.716Z</time>
      </trkpt>
      <trkpt lat="45.75492" lon="6.74493">
        <ele>2682</ele>
        <time>2026-07-29T07:52:50.716Z</time>
      </trkpt>
      <trkpt lat="45.75492" lon="6.74493">
        <ele>2682</ele>
        <time>2026-07-29T07:52:51.716Z</time>
      </trkpt>
      <trkpt lat="45.75492" lon="6.74493">
        <ele>2682</ele>
        <time>2026-07-29T07:52:52.716Z</time>
      </trkpt>
      <trkpt lat="45.75492" lon="6.74493">
        <ele>2682</ele>
        <time>2026-07-29T07:52:53.716Z</time>
      </trkpt>
      <trkpt lat="45.75492" lon="6.74493">
        <ele>2682</ele>
        <time>2026-07-29T07:52:54.716Z</time>
      </trkpt>
      <trkpt lat="45.75492" lon="6.74493">
        <ele>2682</ele>
        <time>2026-07-29T07:52:55.716Z</time>
      </trkpt>
      <trkpt lat="45.75492" lon="6.74493">
        <ele>2682</ele>
        <time>2026-07-29T07:52:56.716Z</time>
      </trkpt>
      <trkpt lat="45.75492" lon="6.74493">
        <ele>2682</ele>
        <time>2026-07-29T07:52:57.716Z</time>
      </trkpt>
      <trkpt lat="45.75492" lon="6.74493">
        <ele>2682</ele>
        <time>2026-07-29T07:52:58.716Z</time>
      </trkpt>
      <trkpt lat="45.75492" lon="6.74493">
        <ele>2682</ele>
        <time>2026-07-29T07:52:59.716Z</time>
      </trkpt>
      <trkpt lat="45.75492" lon="6.74493">
        <ele>2682</ele>
        <time>2026-07-29T07:53:00.716Z</time>
      </trkpt>
      <trkpt lat="45.75492" lon="6.74493">
        <ele>2682</ele>
        <time>2026-07-29T07:53:01.716Z</time>
      </trkpt>
      <trkpt lat="45.75491" lon="6.74493">
        <ele>2682</ele>
        <time>2026-07-29T07:53:02.716Z</time>
      </trkpt>
      <trkpt lat="45.75491" lon="6.74493">
        <ele>2682</ele>
        <time>2026-07-29T07:53:03.716Z</time>
      </trkpt>
      <trkpt lat="45.75491" lon="6.74492">
        <ele>2682</ele>
        <time>2026-07-29T07:53:04.716Z</time>
      </trkpt>
      <trkpt lat="45.75491" lon="6.74492">
        <ele>2682</ele>
        <time>2026-07-29T07:53:05.716Z</time>
      </trkpt>
      <trkpt lat="45.75491" lon="6.74492">
        <ele>2682</ele>
        <time>2026-07-29T07:53:06.716Z</time>
      </trkpt>
      <trkpt lat="45.75491" lon="6.74492">
        <ele>2682</ele>
        <time>2026-07-29T07:53:07.716Z</time>
      </trkpt>
      <trkpt lat="45.75491" lon="6.74492">
        <ele>2682</ele>
        <time>2026-07-29T07:53:08.716Z</time>
      </trkpt>
      <trkpt lat="45.75491" lon="6.74492">
        <ele>2682</ele>
        <time>2026-07-29T07:53:09.716Z</time>
      </trkpt>
      <trkpt lat="45.75491" lon="6.74492">
        <ele>2682</ele>
        <time>2026-07-29T07:53:10.716Z</time>
      </trkpt>
      <trkpt lat="45.75491" lon="6.74492">
        <ele>2682</ele>
        <time>2026-07-29T07:53:11.716Z</time>
      </trkpt>
      <trkpt lat="45.75491" lon="6.74492">
        <ele>2682</ele>
        <time>2026-07-29T07:53:12.716Z</time>
      </trkpt>
      <trkpt lat="45.75491" lon="6.74492">
        <ele>2682</ele>
        <time>2026-07-29T07:53:13.716Z</time>
      </trkpt>
      <trkpt lat="45.75491" lon="6.74492">
        <ele>2682</ele>
        <time>2026-07-29T07:53:14.716Z</time>
      </trkpt>
      <trkpt lat="45.75491" lon="6.74492">
        <ele>2682</ele>
        <time>2026-07-29T07:53:15.716Z</time>
      </trkpt>
      <trkpt lat="45.75491" lon="6.74492">
        <ele>2682</ele>
        <time>2026-07-29T07:53:16.716Z</time>
      </trkpt>
      <trkpt lat="45.75491" lon="6.74492">
        <ele>2682</ele>
        <time>2026-07-29T07:53:17.716Z</time>
      </trkpt>
      <trkpt lat="45.75491" lon="6.74492">
        <ele>2682</ele>
        <time>2026-07-29T07:53:18.716Z</time>
      </trkpt>
      <trkpt lat="45.7549" lon="6.74492">
        <ele>2682</ele>
        <time>2026-07-29T07:53:19.716Z</time>
      </trkpt>
      <trkpt lat="45.7549" lon="6.74492">
        <ele>2682</ele>
        <time>2026-07-29T07:53:20.716Z</time>
      </trkpt>
      <trkpt lat="45.7549" lon="6.74492">
        <ele>2682</ele>
        <time>2026-07-29T07:53:21.716Z</time>
      </trkpt>
      <trkpt lat="45.7549" lon="6.74492">
        <ele>2682</ele>
        <time>2026-07-29T07:53:22.716Z</time>
      </trkpt>
      <trkpt lat="45.7549" lon="6.74492">
        <ele>2682</ele>
        <time>2026-07-29T07:53:23.716Z</time>
      </trkpt>
      <trkpt lat="45.7549" lon="6.74492">
        <ele>2682</ele>
        <time>2026-07-29T07:53:24.716Z</time>
      </trkpt>
      <trkpt lat="45.7549" lon="6.74492">
        <ele>2682</ele>
        <time>2026-07-29T07:53:25.716Z</time>
      </trkpt>
      <trkpt lat="45.7549" lon="6.74492">
        <ele>2682</ele>
        <time>2026-07-29T07:53:26.716Z</time>
      </trkpt>
      <trkpt lat="45.7549" lon="6.74492">
        <ele>2682</ele>
        <time>2026-07-29T07:53:27.716Z</time>
      </trkpt>
      <trkpt lat="45.7549" lon="6.74492">
        <ele>2682</ele>
        <time>2026-07-29T07:53:28.716Z</time>
      </trkpt>
      <trkpt lat="45.7549" lon="6.74492">
        <ele>2682</ele>
        <time>2026-07-29T07:53:29.716Z</time>
      </trkpt>
      <trkpt lat="45.7549" lon="6.74492">
        <ele>2682</ele>
        <time>2026-07-29T07:53:30.716Z</time>
      </trkpt>
      <trkpt lat="45.7549" lon="6.74492">
        <ele>2682</ele>
        <time>2026-07-29T07:53:31.716Z</time>
      </trkpt>
      <trkpt lat="45.7549" lon="6.74492">
        <ele>2682</ele>
        <time>2026-07-29T07:53:32.716Z</time>
      </trkpt>
      <trkpt lat="45.7549" lon="6.74492">
        <ele>2682</ele>
        <time>2026-07-29T07:53:33.716Z</time>
      </trkpt>
      <trkpt lat="45.7549" lon="6.74492">
        <ele>2682</ele>
        <time>2026-07-29T07:53:34.716Z</time>
      </trkpt>
      <trkpt lat="45.7549" lon="6.74492">
        <ele>2682</ele>
        <time>2026-07-29T07:53:35.716Z</time>
      </trkpt>
      <trkpt lat="45.7549" lon="6.74492">
        <ele>2682</ele>
        <time>2026-07-29T07:53:36.716Z</time>
      </trkpt>
      <trkpt lat="45.7549" lon="6.74492">
        <ele>2682</ele>
        <time>2026-07-29T07:53:37.716Z</time>
      </trkpt>
      <trkpt lat="45.75491" lon="6.74492">
        <ele>2682</ele>
        <time>2026-07-29T07:53:38.716Z</time>
      </trkpt>
      <trkpt lat="45.75491" lon="6.74492">
        <ele>2682</ele>
        <time>2026-07-29T07:53:39.716Z</time>
      </trkpt>
      <trkpt lat="45.75491" lon="6.74492">
        <ele>2682</ele>
        <time>2026-07-29T07:53:40.716Z</time>
      </trkpt>
      <trkpt lat="45.75491" lon="6.74492">
        <ele>2682</ele>
        <time>2026-07-29T07:53:41.716Z</time>
      </trkpt>
      <trkpt lat="45.75491" lon="6.74492">
        <ele>2682</ele>
        <time>2026-07-29T07:53:42.716Z</time>
      </trkpt>
      <trkpt lat="45.75491" lon="6.74492">
        <ele>2682</ele>
        <time>2026-07-29T07:53:43.716Z</time>
      </trkpt>
      <trkpt lat="45.75491" lon="6.74492">
        <ele>2682</ele>
        <time>2026-07-29T07:53:44.716Z</time>
      </trkpt>
      <trkpt lat="45.75491" lon="6.74492">
        <ele>2682</ele>
        <time>2026-07-29T07:53:45.716Z</time>
      </trkpt>
      <trkpt lat="45.75491" lon="6.74492">
        <ele>2682</ele>
        <time>2026-07-29T07:53:46.716Z</time>
      </trkpt>
      <trkpt lat="45.75491" lon="6.74492">
        <ele>2682</ele>
        <time>2026-07-29T07:53:47.716Z</time>
      </trkpt>
      <trkpt lat="45.75491" lon="6.74492">
        <ele>2682</ele>
        <time>2026-07-29T07:53:48.716Z</time>
      </trkpt>
      <trkpt lat="45.75491" lon="6.74492">
        <ele>2682</ele>
        <time>2026-07-29T07:53:49.716Z</time>
      </trkpt>
      <trkpt lat="45.75491" lon="6.74492">
        <ele>2682</ele>
        <time>2026-07-29T07:53:50.716Z</time>
      </trkpt>
      <trkpt lat="45.75491" lon="6.74492">
        <ele>2682</ele>
        <time>2026-07-29T07:53:51.716Z</time>
      </trkpt>
      <trkpt lat="45.75492" lon="6.74492">
        <ele>2682</ele>
        <time>2026-07-29T07:53:52.716Z</time>
      </trkpt>
      <trkpt lat="45.75492" lon="6.74492">
        <ele>2682</ele>
        <time>2026-07-29T07:53:53.716Z</time>
      </trkpt>
      <trkpt lat="45.75492" lon="6.74492">
        <ele>2682</ele>
        <time>2026-07-29T07:53:54.716Z</time>
      </trkpt>
      <trkpt lat="45.75492" lon="6.74492">
        <ele>2682</ele>
        <time>2026-07-29T07:53:55.716Z</time>
      </trkpt>
      <trkpt lat="45.75492" lon="6.74492">
        <ele>2682</ele>
        <time>2026-07-29T07:53:56.716Z</time>
      </trkpt>
      <trkpt lat="45.75492" lon="6.74492">
        <ele>2682</ele>
        <time>2026-07-29T07:53:57.716Z</time>
      </trkpt>
      <trkpt lat="45.75492" lon="6.74492">
        <ele>2682</ele>
        <time>2026-07-29T07:53:58.716Z</time>
      </trkpt>
      <trkpt lat="45.75492" lon="6.74492">
        <ele>2682</ele>
        <time>2026-07-29T07:53:59.716Z</time>
      </trkpt>
      <trkpt lat="45.75492" lon="6.74492">
        <ele>2682</ele>
        <time>2026-07-29T07:54:00.716Z</time>
      </trkpt>
      <trkpt lat="45.75492" lon="6.74492">
        <ele>2682</ele>
        <time>2026-07-29T07:54:01.716Z</time>
      </trkpt>
      <trkpt lat="45.75492" lon="6.74492">
        <ele>2682</ele>
        <time>2026-07-29T07:54:02.716Z</time>
      </trkpt>
      <trkpt lat="45.75492" lon="6.74492">
        <ele>2682</ele>
        <time>2026-07-29T07:54:03.716Z</time>
      </trkpt>
      <trkpt lat="45.75492" lon="6.74492">
        <ele>2682</ele>
        <time>2026-07-29T07:54:04.716Z</time>
      </trkpt>
      <trkpt lat="45.75492" lon="6.74492">
        <ele>2682</ele>
        <time>2026-07-29T07:54:05.716Z</time>
      </trkpt>
      <trkpt lat="45.75492" lon="6.74492">
        <ele>2682</ele>
        <time>2026-07-29T07:54:06.716Z</time>
      </trkpt>
      <trkpt lat="45.75492" lon="6.74492">
        <ele>2682</ele>
        <time>2026-07-29T07:54:07.716Z</time>
      </trkpt>
      <trkpt lat="45.75492" lon="6.74492">
        <ele>2682</ele>
        <time>2026-07-29T07:54:08.716Z</time>
      </trkpt>
      <trkpt lat="45.75492" lon="6.74492">
        <ele>2682</ele>
        <time>2026-07-29T07:54:09.716Z</time>
      </trkpt>
      <trkpt lat="45.75492" lon="6.74493">
        <ele>2682</ele>
        <time>2026-07-29T07:54:10.716Z</time>
      </trkpt>
      <trkpt lat="45.75492" lon="6.74493">
        <ele>2682</ele>
        <time>2026-07-29T07:54:11.716Z</time>
      </trkpt>
      <trkpt lat="45.75492" lon="6.74493">
        <ele>2682</ele>
        <time>2026-07-29T07:54:12.716Z</time>
      </trkpt>
      <trkpt lat="45.75492" lon="6.74493">
        <ele>2682</ele>
        <time>2026-07-29T07:54:13.716Z</time>
      </trkpt>
      <trkpt lat="45.75492" lon="6.74493">
        <ele>2682</ele>
        <time>2026-07-29T07:54:14.716Z</time>
      </trkpt>
      <trkpt lat="45.75492" lon="6.74493">
        <ele>2682</ele>
        <time>2026-07-29T07:54:15.716Z</time>
      </trkpt>
      <trkpt lat="45.75492" lon="6.74493">
        <ele>2682</ele>
        <time>2026-07-29T07:54:16.716Z</time>
      </trkpt>
      <trkpt lat="45.75492" lon="6.74493">
        <ele>2682</ele>
        <time>2026-07-29T07:54:17.716Z</time>
      </trkpt>
      <trkpt lat="45.75492" lon="6.74493">
        <ele>2682</ele>
        <time>2026-07-29T07:54:18.716Z</time>
      </trkpt>
      <trkpt lat="45.75492" lon="6.74493">
        <ele>2682</ele>
        <time>2026-07-29T07:54:19.716Z</time>
      </trkpt>
      <trkpt lat="45.75492" lon="6.74493">
        <ele>2682</ele>
        <time>2026-07-29T07:54:20.716Z</time>
      </trkpt>
      <trkpt lat="45.75492" lon="6.74493">
        <ele>2682</ele>
        <time>2026-07-29T07:54:21.716Z</time>
      </trkpt>
      <trkpt lat="45.75492" lon="6.74493">
        <ele>2682</ele>
        <time>2026-07-29T07:54:22.716Z</time>
      </trkpt>
      <trkpt lat="45.75492" lon="6.74493">
        <ele>2682</ele>
        <time>2026-07-29T07:54:23.716Z</time>
      </trkpt>
      <trkpt lat="45.75492" lon="6.74493">
        <ele>2682</ele>
        <time>2026-07-29T07:54:24.716Z</time>
      </trkpt>
      <trkpt lat="45.75492" lon="6.74493">
        <ele>2682</ele>
        <time>2026-07-29T07:54:25.716Z</time>
      </trkpt>
      <trkpt lat="45.75492" lon="6.74493">
        <ele>2682</ele>
        <time>2026-07-29T07:54:26.716Z</time>
      </trkpt>
      <trkpt lat="45.75492" lon="6.74493">
        <ele>2682</ele>
        <time>2026-07-29T07:54:27.716Z</time>
      </trkpt>
      <trkpt lat="45.75492" lon="6.74493">
        <ele>2682</ele>
        <time>2026-07-29T07:54:28.716Z</time>
      </trkpt>
      <trkpt lat="45.75492" lon="6.74493">
        <ele>2682</ele>
        <time>2026-07-29T07:54:29.716Z</time>
      </trkpt>
      <trkpt lat="45.75492" lon="6.74493">
        <ele>2682</ele>
        <time>2026-07-29T07:54:30.716Z</time>
      </trkpt>
      <trkpt lat="45.75492" lon="6.74493">
        <ele>2682</ele>
        <time>2026-07-29T07:54:31.716Z</time>
      </trkpt>
      <trkpt lat="45.75492" lon="6.74493">
        <ele>2682</ele>
        <time>2026-07-29T07:54:32.716Z</time>
      </trkpt>
      <trkpt lat="45.75492" lon="6.74493">
        <ele>2682</ele>
        <time>2026-07-29T07:54:33.716Z</time>
      </trkpt>
      <trkpt lat="45.75492" lon="6.74493">
        <ele>2682</ele>
        <time>2026-07-29T07:54:34.716Z</time>
      </trkpt>
      <trkpt lat="45.75492" lon="6.74493">
        <ele>2682</ele>
        <time>2026-07-29T07:54:35.716Z</time>
      </trkpt>
      <trkpt lat="45.75492" lon="6.74493">
        <ele>2682</ele>
        <time>2026-07-29T07:54:36.716Z</time>
      </trkpt>
      <trkpt lat="45.75492" lon="6.74493">
        <ele>2682</ele>
        <time>2026-07-29T07:54:37.716Z</time>
      </trkpt>
      <trkpt lat="45.75492" lon="6.74493">
        <ele>2682</ele>
        <time>2026-07-29T07:54:38.716Z</time>
      </trkpt>
      <trkpt lat="45.75492" lon="6.74493">
        <ele>2682</ele>
        <time>2026-07-29T07:54:39.716Z</time>
      </trkpt>
      <trkpt lat="45.75492" lon="6.74493">
        <ele>2682</ele>
        <time>2026-07-29T07:54:40.716Z</time>
      </trkpt>
      <trkpt lat="45.75492" lon="6.74493">
        <ele>2682</ele>
        <time>2026-07-29T07:54:41.716Z</time>
      </trkpt>
      <trkpt lat="45.75492" lon="6.74493">
        <ele>2682</ele>
        <time>2026-07-29T07:54:42.716Z</time>
      </trkpt>
      <trkpt lat="45.75492" lon="6.74493">
        <ele>2682</ele>
        <time>2026-07-29T07:54:43.716Z</time>
      </trkpt>
      <trkpt lat="45.75492" lon="6.74493">
        <ele>2682</ele>
        <time>2026-07-29T07:54:44.716Z</time>
      </trkpt>
      <trkpt lat="45.75492" lon="6.74493">
        <ele>2682</ele>
        <time>2026-07-29T07:54:45.716Z</time>
      </trkpt>
      <trkpt lat="45.75492" lon="6.74493">
        <ele>2682</ele>
        <time>2026-07-29T07:54:46.716Z</time>
      </trkpt>
      <trkpt lat="45.75492" lon="6.74493">
        <ele>2682</ele>
        <time>2026-07-29T07:54:47.716Z</time>
      </trkpt>
      <trkpt lat="45.75492" lon="6.74493">
        <ele>2682</ele>
        <time>2026-07-29T07:54:48.716Z</time>
      </trkpt>
      <trkpt lat="45.75492" lon="6.74493">
        <ele>2682</ele>
        <time>2026-07-29T07:54:49.716Z</time>
      </trkpt>
      <trkpt lat="45.75492" lon="6.74493">
        <ele>2682</ele>
        <time>2026-07-29T07:54:50.716Z</time>
      </trkpt>
      <trkpt lat="45.75492" lon="6.74493">
        <ele>2682</ele>
        <time>2026-07-29T07:54:51.716Z</time>
      </trkpt>
      <trkpt lat="45.75492" lon="6.74493">
        <ele>2682</ele>
        <time>2026-07-29T07:54:52.716Z</time>
      </trkpt>
      <trkpt lat="45.75492" lon="6.74493">
        <ele>2682</ele>
        <time>2026-07-29T07:54:53.716Z</time>
      </trkpt>
      <trkpt lat="45.75492" lon="6.74493">
        <ele>2682</ele>
        <time>2026-07-29T07:54:54.716Z</time>
      </trkpt>
      <trkpt lat="45.75492" lon="6.74493">
        <ele>2682</ele>
        <time>2026-07-29T07:54:55.716Z</time>
      </trkpt>
      <trkpt lat="45.75492" lon="6.74493">
        <ele>2682</ele>
        <time>2026-07-29T07:54:56.716Z</time>
      </trkpt>
      <trkpt lat="45.75492" lon="6.74493">
        <ele>2681</ele>
        <time>2026-07-29T07:54:57.716Z</time>
      </trkpt>
      <trkpt lat="45.75492" lon="6.74493">
        <ele>2681</ele>
        <time>2026-07-29T07:54:58.717Z</time>
      </trkpt>
      <trkpt lat="45.75492" lon="6.74493">
        <ele>2681</ele>
        <time>2026-07-29T07:54:59.716Z</time>
      </trkpt>
      <trkpt lat="45.75492" lon="6.74493">
        <ele>2681</ele>
        <time>2026-07-29T07:55:00.716Z</time>
      </trkpt>
      <trkpt lat="45.75492" lon="6.74493">
        <ele>2681</ele>
        <time>2026-07-29T07:55:01.716Z</time>
      </trkpt>
      <trkpt lat="45.75492" lon="6.74493">
        <ele>2681</ele>
        <time>2026-07-29T07:55:02.716Z</time>
      </trkpt>
      <trkpt lat="45.75492" lon="6.74493">
        <ele>2681</ele>
        <time>2026-07-29T07:55:03.716Z</time>
      </trkpt>
      <trkpt lat="45.75492" lon="6.74493">
        <ele>2681</ele>
        <time>2026-07-29T07:55:04.716Z</time>
      </trkpt>
      <trkpt lat="45.75492" lon="6.74493">
        <ele>2681</ele>
        <time>2026-07-29T07:55:05.716Z</time>
      </trkpt>
      <trkpt lat="45.75492" lon="6.74493">
        <ele>2681</ele>
        <time>2026-07-29T07:55:06.716Z</time>
      </trkpt>
      <trkpt lat="45.75492" lon="6.74493">
        <ele>2681</ele>
        <time>2026-07-29T07:55:07.716Z</time>
      </trkpt>
      <trkpt lat="45.75492" lon="6.74493">
        <ele>2681</ele>
        <time>2026-07-29T07:55:08.716Z</time>
      </trkpt>
      <trkpt lat="45.75492" lon="6.74493">
        <ele>2681</ele>
        <time>2026-07-29T07:55:09.716Z</time>
      </trkpt>
      <trkpt lat="45.75492" lon="6.74493">
        <ele>2681</ele>
        <time>2026-07-29T07:55:10.716Z</time>
      </trkpt>
      <trkpt lat="45.75492" lon="6.74493">
        <ele>2681</ele>
        <time>2026-07-29T07:55:11.716Z</time>
      </trkpt>
      <trkpt lat="45.75492" lon="6.74493">
        <ele>2681</ele>
        <time>2026-07-29T07:55:12.716Z</time>
      </trkpt>
      <trkpt lat="45.75492" lon="6.74493">
        <ele>2681</ele>
        <time>2026-07-29T07:55:13.716Z</time>
      </trkpt>
      <trkpt lat="45.75492" lon="6.74493">
        <ele>2681</ele>
        <time>2026-07-29T07:55:14.716Z</time>
      </trkpt>
      <trkpt lat="45.75492" lon="6.74493">
        <ele>2681</ele>
        <time>2026-07-29T07:55:15.716Z</time>
      </trkpt>
      <trkpt lat="45.75492" lon="6.74493">
        <ele>2681</ele>
        <time>2026-07-29T07:55:16.716Z</time>
      </trkpt>
      <trkpt lat="45.75492" lon="6.74493">
        <ele>2681</ele>
        <time>2026-07-29T07:55:17.716Z</time>
      </trkpt>
      <trkpt lat="45.75492" lon="6.74493">
        <ele>2681</ele>
        <time>2026-07-29T07:55:18.716Z</time>
      </trkpt>
      <trkpt lat="45.75492" lon="6.74493">
        <ele>2681</ele>
        <time>2026-07-29T07:55:19.716Z</time>
      </trkpt>
      <trkpt lat="45.75492" lon="6.74493">
        <ele>2681</ele>
        <time>2026-07-29T07:55:20.716Z</time>
      </trkpt>
      <trkpt lat="45.75492" lon="6.74493">
        <ele>2681</ele>
        <time>2026-07-29T07:55:21.716Z</time>
      </trkpt>
      <trkpt lat="45.75492" lon="6.74493">
        <ele>2681</ele>
        <time>2026-07-29T07:55:22.716Z</time>
      </trkpt>
      <trkpt lat="45.75492" lon="6.74493">
        <ele>2681</ele>
        <time>2026-07-29T07:55:23.716Z</time>
      </trkpt>
      <trkpt lat="45.75492" lon="6.74493">
        <ele>2681</ele>
        <time>2026-07-29T07:55:24.716Z</time>
      </trkpt>
      <trkpt lat="45.75492" lon="6.74493">
        <ele>2681</ele>
        <time>2026-07-29T07:55:25.716Z</time>
      </trkpt>
      <trkpt lat="45.75492" lon="6.74493">
        <ele>2681</ele>
        <time>2026-07-29T07:55:26.716Z</time>
      </trkpt>
      <trkpt lat="45.75492" lon="6.74493">
        <ele>2681</ele>
        <time>2026-07-29T07:55:27.716Z</time>
      </trkpt>
      <trkpt lat="45.75492" lon="6.74493">
        <ele>2681</ele>
        <time>2026-07-29T07:55:28.716Z</time>
      </trkpt>
      <trkpt lat="45.75492" lon="6.74493">
        <ele>2681</ele>
        <time>2026-07-29T07:55:29.716Z</time>
      </trkpt>
      <trkpt lat="45.75492" lon="6.74493">
        <ele>2681</ele>
        <time>2026-07-29T07:55:30.716Z</time>
      </trkpt>
      <trkpt lat="45.75492" lon="6.74493">
        <ele>2681</ele>
        <time>2026-07-29T07:55:31.716Z</time>
      </trkpt>
      <trkpt lat="45.75492" lon="6.74493">
        <ele>2681</ele>
        <time>2026-07-29T07:55:32.716Z</time>
      </trkpt>
      <trkpt lat="45.75492" lon="6.74493">
        <ele>2681</ele>
        <time>2026-07-29T07:55:33.716Z</time>
      </trkpt>
      <trkpt lat="45.75492" lon="6.74493">
        <ele>2681</ele>
        <time>2026-07-29T07:55:34.716Z</time>
      </trkpt>
      <trkpt lat="45.75492" lon="6.74493">
        <ele>2681</ele>
        <time>2026-07-29T07:55:35.716Z</time>
      </trkpt>
      <trkpt lat="45.75492" lon="6.74493">
        <ele>2681</ele>
        <time>2026-07-29T07:55:36.716Z</time>
      </trkpt>
      <trkpt lat="45.75492" lon="6.74493">
        <ele>2681</ele>
        <time>2026-07-29T07:55:37.716Z</time>
      </trkpt>
      <trkpt lat="45.75492" lon="6.74493">
        <ele>2681</ele>
        <time>2026-07-29T07:55:38.716Z</time>
      </trkpt>
      <trkpt lat="45.75492" lon="6.74493">
        <ele>2681</ele>
        <time>2026-07-29T07:55:39.716Z</time>
      </trkpt>
      <trkpt lat="45.75492" lon="6.74493">
        <ele>2681</ele>
        <time>2026-07-29T07:55:40.716Z</time>
      </trkpt>
      <trkpt lat="45.75492" lon="6.74493">
        <ele>2681</ele>
        <time>2026-07-29T07:55:41.716Z</time>
      </trkpt>
      <trkpt lat="45.75492" lon="6.74493">
        <ele>2681</ele>
        <time>2026-07-29T07:55:42.716Z</time>
      </trkpt>
      <trkpt lat="45.75492" lon="6.74493">
        <ele>2681</ele>
        <time>2026-07-29T07:55:43.716Z</time>
      </trkpt>
      <trkpt lat="45.75492" lon="6.74493">
        <ele>2681</ele>
        <time>2026-07-29T07:55:44.716Z</time>
      </trkpt>
      <trkpt lat="45.75492" lon="6.74493">
        <ele>2681</ele>
        <time>2026-07-29T07:55:45.716Z</time>
      </trkpt>
      <trkpt lat="45.75492" lon="6.74493">
        <ele>2681</ele>
        <time>2026-07-29T07:55:46.716Z</time>
      </trkpt>
      <trkpt lat="45.75492" lon="6.74493">
        <ele>2681</ele>
        <time>2026-07-29T07:55:47.716Z</time>
      </trkpt>
      <trkpt lat="45.75492" lon="6.74493">
        <ele>2681</ele>
        <time>2026-07-29T07:55:48.716Z</time>
      </trkpt>
      <trkpt lat="45.75492" lon="6.74493">
        <ele>2681</ele>
        <time>2026-07-29T07:55:49.716Z</time>
      </trkpt>
      <trkpt lat="45.75492" lon="6.74493">
        <ele>2681</ele>
        <time>2026-07-29T07:55:50.716Z</time>
      </trkpt>
      <trkpt lat="45.75492" lon="6.74493">
        <ele>2681</ele>
        <time>2026-07-29T07:55:51.716Z</time>
      </trkpt>
      <trkpt lat="45.75492" lon="6.74493">
        <ele>2681</ele>
        <time>2026-07-29T07:55:52.716Z</time>
      </trkpt>
      <trkpt lat="45.75492" lon="6.74493">
        <ele>2681</ele>
        <time>2026-07-29T07:55:53.716Z</time>
      </trkpt>
      <trkpt lat="45.75492" lon="6.74493">
        <ele>2681</ele>
        <time>2026-07-29T07:55:54.716Z</time>
      </trkpt>
      <trkpt lat="45.75492" lon="6.74493">
        <ele>2680</ele>
        <time>2026-07-29T07:55:55.716Z</time>
      </trkpt>
      <trkpt lat="45.75492" lon="6.74493">
        <ele>2680</ele>
        <time>2026-07-29T07:55:56.716Z</time>
      </trkpt>
      <trkpt lat="45.75492" lon="6.74493">
        <ele>2680</ele>
        <time>2026-07-29T07:55:57.716Z</time>
      </trkpt>
      <trkpt lat="45.75492" lon="6.74493">
        <ele>2680</ele>
        <time>2026-07-29T07:55:58.716Z</time>
      </trkpt>
      <trkpt lat="45.75492" lon="6.74493">
        <ele>2680</ele>
        <time>2026-07-29T07:55:59.716Z</time>
      </trkpt>
      <trkpt lat="45.75492" lon="6.74493">
        <ele>2680</ele>
        <time>2026-07-29T07:56:00.716Z</time>
      </trkpt>
      <trkpt lat="45.75492" lon="6.74493">
        <ele>2680</ele>
        <time>2026-07-29T07:56:01.716Z</time>
      </trkpt>
      <trkpt lat="45.75492" lon="6.74493">
        <ele>2680</ele>
        <time>2026-07-29T07:56:02.716Z</time>
      </trkpt>
      <trkpt lat="45.75492" lon="6.74493">
        <ele>2680</ele>
        <time>2026-07-29T07:56:03.716Z</time>
      </trkpt>
      <trkpt lat="45.75492" lon="6.74493">
        <ele>2680</ele>
        <time>2026-07-29T07:56:04.716Z</time>
      </trkpt>
      <trkpt lat="45.75492" lon="6.74493">
        <ele>2680</ele>
        <time>2026-07-29T07:56:05.716Z</time>
      </trkpt>
      <trkpt lat="45.75492" lon="6.74493">
        <ele>2680</ele>
        <time>2026-07-29T07:56:06.716Z</time>
      </trkpt>
      <trkpt lat="45.75492" lon="6.74493">
        <ele>2680</ele>
        <time>2026-07-29T07:56:07.716Z</time>
      </trkpt>
      <trkpt lat="45.75492" lon="6.74493">
        <ele>2680</ele>
        <time>2026-07-29T07:56:08.716Z</time>
      </trkpt>
      <trkpt lat="45.75492" lon="6.74493">
        <ele>2680</ele>
        <time>2026-07-29T07:56:09.716Z</time>
      </trkpt>
      <trkpt lat="45.75492" lon="6.74493">
        <ele>2680</ele>
        <time>2026-07-29T07:56:10.716Z</time>
      </trkpt>
      <trkpt lat="45.75492" lon="6.74493">
        <ele>2680</ele>
        <time>2026-07-29T07:56:11.716Z</time>
      </trkpt>
      <trkpt lat="45.75492" lon="6.74493">
        <ele>2680</ele>
        <time>2026-07-29T07:56:12.716Z</time>
      </trkpt>
      <trkpt lat="45.75492" lon="6.74493">
        <ele>2680</ele>
        <time>2026-07-29T07:56:13.716Z</time>
      </trkpt>
      <trkpt lat="45.75492" lon="6.74493">
        <ele>2680</ele>
        <time>2026-07-29T07:56:14.716Z</time>
      </trkpt>
      <trkpt lat="45.75492" lon="6.74493">
        <ele>2680</ele>
        <time>2026-07-29T07:56:15.716Z</time>
      </trkpt>
      <trkpt lat="45.75492" lon="6.74493">
        <ele>2680</ele>
        <time>2026-07-29T07:56:16.716Z</time>
      </trkpt>
      <trkpt lat="45.75492" lon="6.74493">
        <ele>2680</ele>
        <time>2026-07-29T07:56:17.716Z</time>
      </trkpt>
      <trkpt lat="45.75492" lon="6.74493">
        <ele>2680</ele>
        <time>2026-07-29T07:56:18.716Z</time>
      </trkpt>
      <trkpt lat="45.75492" lon="6.74493">
        <ele>2680</ele>
        <time>2026-07-29T07:56:19.716Z</time>
      </trkpt>
      <trkpt lat="45.75492" lon="6.74493">
        <ele>2680</ele>
        <time>2026-07-29T07:56:20.716Z</time>
      </trkpt>
      <trkpt lat="45.75492" lon="6.74493">
        <ele>2680</ele>
        <time>2026-07-29T07:56:21.716Z</time>
      </trkpt>
      <trkpt lat="45.75492" lon="6.74493">
        <ele>2680</ele>
        <time>2026-07-29T07:56:22.716Z</time>
      </trkpt>
      <trkpt lat="45.75492" lon="6.74493">
        <ele>2680</ele>
        <time>2026-07-29T07:56:23.716Z</time>
      </trkpt>
      <trkpt lat="45.75492" lon="6.74493">
        <ele>2680</ele>
        <time>2026-07-29T07:56:24.716Z</time>
      </trkpt>
      <trkpt lat="45.75492" lon="6.74493">
        <ele>2680</ele>
        <time>2026-07-29T07:56:25.716Z</time>
      </trkpt>
      <trkpt lat="45.75492" lon="6.74493">
        <ele>2680</ele>
        <time>2026-07-29T07:56:26.716Z</time>
      </trkpt>
      <trkpt lat="45.75492" lon="6.74493">
        <ele>2680</ele>
        <time>2026-07-29T07:56:27.716Z</time>
      </trkpt>
      <trkpt lat="45.75492" lon="6.74493">
        <ele>2680</ele>
        <time>2026-07-29T07:56:28.716Z</time>
      </trkpt>
      <trkpt lat="45.75492" lon="6.74493">
        <ele>2680</ele>
        <time>2026-07-29T07:56:29.716Z</time>
      </trkpt>
      <trkpt lat="45.75492" lon="6.74493">
        <ele>2680</ele>
        <time>2026-07-29T07:56:30.716Z</time>
      </trkpt>
      <trkpt lat="45.75492" lon="6.74493">
        <ele>2680</ele>
        <time>2026-07-29T07:56:31.716Z</time>
      </trkpt>
      <trkpt lat="45.75492" lon="6.74492">
        <ele>2680</ele>
        <time>2026-07-29T07:56:32.716Z</time>
      </trkpt>
      <trkpt lat="45.75492" lon="6.74492">
        <ele>2680</ele>
        <time>2026-07-29T07:56:33.716Z</time>
      </trkpt>
      <trkpt lat="45.75492" lon="6.74492">
        <ele>2680</ele>
        <time>2026-07-29T07:56:34.716Z</time>
      </trkpt>
      <trkpt lat="45.75492" lon="6.74492">
        <ele>2680</ele>
        <time>2026-07-29T07:56:35.716Z</time>
      </trkpt>
      <trkpt lat="45.75492" lon="6.74492">
        <ele>2680</ele>
        <time>2026-07-29T07:56:36.716Z</time>
      </trkpt>
      <trkpt lat="45.75492" lon="6.74492">
        <ele>2680</ele>
        <time>2026-07-29T07:56:37.716Z</time>
      </trkpt>
      <trkpt lat="45.75492" lon="6.74492">
        <ele>2680</ele>
        <time>2026-07-29T07:56:38.716Z</time>
      </trkpt>
      <trkpt lat="45.75492" lon="6.74492">
        <ele>2680</ele>
        <time>2026-07-29T07:56:39.716Z</time>
      </trkpt>
      <trkpt lat="45.75492" lon="6.74492">
        <ele>2680</ele>
        <time>2026-07-29T07:56:40.716Z</time>
      </trkpt>
      <trkpt lat="45.75492" lon="6.74492">
        <ele>2680</ele>
        <time>2026-07-29T07:56:41.716Z</time>
      </trkpt>
      <trkpt lat="45.75492" lon="6.74492">
        <ele>2680</ele>
        <time>2026-07-29T07:56:42.716Z</time>
      </trkpt>
      <trkpt lat="45.75492" lon="6.74492">
        <ele>2680</ele>
        <time>2026-07-29T07:56:43.716Z</time>
      </trkpt>
      <trkpt lat="45.75492" lon="6.74492">
        <ele>2680</ele>
        <time>2026-07-29T07:56:44.716Z</time>
      </trkpt>
      <trkpt lat="45.75492" lon="6.74492">
        <ele>2680</ele>
        <time>2026-07-29T07:56:45.716Z</time>
      </trkpt>
      <trkpt lat="45.75492" lon="6.74492">
        <ele>2680</ele>
        <time>2026-07-29T07:56:46.716Z</time>
      </trkpt>
      <trkpt lat="45.75492" lon="6.74492">
        <ele>2679</ele>
        <time>2026-07-29T07:56:47.716Z</time>
      </trkpt>
      <trkpt lat="45.75492" lon="6.74492">
        <ele>2679</ele>
        <time>2026-07-29T07:56:48.716Z</time>
      </trkpt>
      <trkpt lat="45.75492" lon="6.74492">
        <ele>2679</ele>
        <time>2026-07-29T07:56:49.716Z</time>
      </trkpt>
      <trkpt lat="45.75492" lon="6.74492">
        <ele>2679</ele>
        <time>2026-07-29T07:56:50.716Z</time>
      </trkpt>
      <trkpt lat="45.75492" lon="6.74492">
        <ele>2679</ele>
        <time>2026-07-29T07:56:51.716Z</time>
      </trkpt>
      <trkpt lat="45.75492" lon="6.74492">
        <ele>2679</ele>
        <time>2026-07-29T07:56:52.716Z</time>
      </trkpt>
      <trkpt lat="45.75492" lon="6.74492">
        <ele>2679</ele>
        <time>2026-07-29T07:56:53.716Z</time>
      </trkpt>
      <trkpt lat="45.75492" lon="6.74492">
        <ele>2679</ele>
        <time>2026-07-29T07:56:54.716Z</time>
      </trkpt>
      <trkpt lat="45.75492" lon="6.74492">
        <ele>2679</ele>
        <time>2026-07-29T07:56:55.716Z</time>
      </trkpt>
      <trkpt lat="45.75492" lon="6.74492">
        <ele>2679</ele>
        <time>2026-07-29T07:56:56.716Z</time>
      </trkpt>
      <trkpt lat="45.75492" lon="6.74492">
        <ele>2679</ele>
        <time>2026-07-29T07:56:57.716Z</time>
      </trkpt>
      <trkpt lat="45.75492" lon="6.74492">
        <ele>2679</ele>
        <time>2026-07-29T07:56:58.716Z</time>
      </trkpt>
      <trkpt lat="45.75492" lon="6.74492">
        <ele>2679</ele>
        <time>2026-07-29T07:56:59.716Z</time>
      </trkpt>
      <trkpt lat="45.75492" lon="6.74492">
        <ele>2679</ele>
        <time>2026-07-29T07:57:00.716Z</time>
      </trkpt>
      <trkpt lat="45.75492" lon="6.74492">
        <ele>2679</ele>
        <time>2026-07-29T07:57:01.716Z</time>
      </trkpt>
      <trkpt lat="45.75492" lon="6.74492">
        <ele>2679</ele>
        <time>2026-07-29T07:57:02.716Z</time>
      </trkpt>
      <trkpt lat="45.75491" lon="6.7449">
        <ele>2679</ele>
        <time>2026-07-29T07:57:03.716Z</time>
      </trkpt>
      <trkpt lat="45.75491" lon="6.74489">
        <ele>2679</ele>
        <time>2026-07-29T07:57:04.716Z</time>
      </trkpt>
      <trkpt lat="45.75491" lon="6.74489">
        <ele>2679</ele>
        <time>2026-07-29T07:57:05.716Z</time>
      </trkpt>
      <trkpt lat="45.7549" lon="6.74488">
        <ele>2679</ele>
        <time>2026-07-29T07:57:06.716Z</time>
      </trkpt>
      <trkpt lat="45.7549" lon="6.74488">
        <ele>2679</ele>
        <time>2026-07-29T07:57:07.716Z</time>
      </trkpt>
      <trkpt lat="45.7549" lon="6.74487">
        <ele>2679</ele>
        <time>2026-07-29T07:57:08.716Z</time>
      </trkpt>
      <trkpt lat="45.7549" lon="6.74487">
        <ele>2679</ele>
        <time>2026-07-29T07:57:09.716Z</time>
      </trkpt>
      <trkpt lat="45.7549" lon="6.74487">
        <ele>2679</ele>
        <time>2026-07-29T07:57:10.716Z</time>
      </trkpt>
      <trkpt lat="45.7549" lon="6.74487">
        <ele>2679</ele>
        <time>2026-07-29T07:57:11.716Z</time>
      </trkpt>
      <trkpt lat="45.7549" lon="6.74488">
        <ele>2679</ele>
        <time>2026-07-29T07:57:12.716Z</time>
      </trkpt>
      <trkpt lat="45.7549" lon="6.74488">
        <ele>2679</ele>
        <time>2026-07-29T07:57:13.716Z</time>
      </trkpt>
      <trkpt lat="45.7549" lon="6.74489">
        <ele>2679</ele>
        <time>2026-07-29T07:57:14.716Z</time>
      </trkpt>
      <trkpt lat="45.7549" lon="6.74489">
        <ele>2679</ele>
        <time>2026-07-29T07:57:15.716Z</time>
      </trkpt>
      <trkpt lat="45.7549" lon="6.7449">
        <ele>2679</ele>
        <time>2026-07-29T07:57:16.716Z</time>
      </trkpt>
      <trkpt lat="45.7549" lon="6.7449">
        <ele>2679</ele>
        <time>2026-07-29T07:57:17.716Z</time>
      </trkpt>
      <trkpt lat="45.7549" lon="6.7449">
        <ele>2679</ele>
        <time>2026-07-29T07:57:18.716Z</time>
      </trkpt>
      <trkpt lat="45.7549" lon="6.7449">
        <ele>2679</ele>
        <time>2026-07-29T07:57:19.716Z</time>
      </trkpt>
      <trkpt lat="45.7549" lon="6.7449">
        <ele>2679</ele>
        <time>2026-07-29T07:57:20.716Z</time>
      </trkpt>
      <trkpt lat="45.7549" lon="6.7449">
        <ele>2680</ele>
        <time>2026-07-29T07:57:21.716Z</time>
      </trkpt>
      <trkpt lat="45.7549" lon="6.7449">
        <ele>2680</ele>
        <time>2026-07-29T07:57:22.716Z</time>
      </trkpt>
      <trkpt lat="45.7549" lon="6.7449">
        <ele>2680</ele>
        <time>2026-07-29T07:57:23.716Z</time>
      </trkpt>
      <trkpt lat="45.7549" lon="6.7449">
        <ele>2680</ele>
        <time>2026-07-29T07:57:24.716Z</time>
      </trkpt>
      <trkpt lat="45.7549" lon="6.7449">
        <ele>2680</ele>
        <time>2026-07-29T07:57:25.716Z</time>
      </trkpt>
      <trkpt lat="45.7549" lon="6.7449">
        <ele>2680</ele>
        <time>2026-07-29T07:57:26.716Z</time>
      </trkpt>
      <trkpt lat="45.7549" lon="6.7449">
        <ele>2680</ele>
        <time>2026-07-29T07:57:27.716Z</time>
      </trkpt>
      <trkpt lat="45.7549" lon="6.7449">
        <ele>2680</ele>
        <time>2026-07-29T07:57:28.716Z</time>
      </trkpt>
      <trkpt lat="45.7549" lon="6.7449">
        <ele>2680</ele>
        <time>2026-07-29T07:57:29.716Z</time>
      </trkpt>
      <trkpt lat="45.7549" lon="6.7449">
        <ele>2680</ele>
        <time>2026-07-29T07:57:30.716Z</time>
      </trkpt>
      <trkpt lat="45.7549" lon="6.7449">
        <ele>2680</ele>
        <time>2026-07-29T07:57:31.716Z</time>
      </trkpt>
      <trkpt lat="45.7549" lon="6.7449">
        <ele>2680</ele>
        <time>2026-07-29T07:57:32.716Z</time>
      </trkpt>
      <trkpt lat="45.7549" lon="6.7449">
        <ele>2680</ele>
        <time>2026-07-29T07:57:33.716Z</time>
      </trkpt>
      <trkpt lat="45.7549" lon="6.7449">
        <ele>2680</ele>
        <time>2026-07-29T07:57:34.716Z</time>
      </trkpt>
      <trkpt lat="45.7549" lon="6.7449">
        <ele>2680</ele>
        <time>2026-07-29T07:57:35.716Z</time>
      </trkpt>
      <trkpt lat="45.7549" lon="6.7449">
        <ele>2680</ele>
        <time>2026-07-29T07:57:36.716Z</time>
      </trkpt>
      <trkpt lat="45.7549" lon="6.7449">
        <ele>2680</ele>
        <time>2026-07-29T07:57:37.716Z</time>
      </trkpt>
      <trkpt lat="45.7549" lon="6.7449">
        <ele>2680</ele>
        <time>2026-07-29T07:57:38.716Z</time>
      </trkpt>
      <trkpt lat="45.7549" lon="6.7449">
        <ele>2680</ele>
        <time>2026-07-29T07:57:39.716Z</time>
      </trkpt>
      <trkpt lat="45.7549" lon="6.7449">
        <ele>2680</ele>
        <time>2026-07-29T07:57:40.716Z</time>
      </trkpt>
      <trkpt lat="45.7549" lon="6.7449">
        <ele>2680</ele>
        <time>2026-07-29T07:57:41.716Z</time>
      </trkpt>
      <trkpt lat="45.7549" lon="6.7449">
        <ele>2680</ele>
        <time>2026-07-29T07:57:42.716Z</time>
      </trkpt>
      <trkpt lat="45.7549" lon="6.7449">
        <ele>2680</ele>
        <time>2026-07-29T07:57:43.716Z</time>
      </trkpt>
      <trkpt lat="45.7549" lon="6.7449">
        <ele>2680</ele>
        <time>2026-07-29T07:57:44.716Z</time>
      </trkpt>
      <trkpt lat="45.7549" lon="6.7449">
        <ele>2680</ele>
        <time>2026-07-29T07:57:45.716Z</time>
      </trkpt>
      <trkpt lat="45.7549" lon="6.7449">
        <ele>2680</ele>
        <time>2026-07-29T07:57:46.716Z</time>
      </trkpt>
      <trkpt lat="45.7549" lon="6.7449">
        <ele>2680</ele>
        <time>2026-07-29T07:57:47.716Z</time>
      </trkpt>
      <trkpt lat="45.7549" lon="6.7449">
        <ele>2680</ele>
        <time>2026-07-29T07:57:48.716Z</time>
      </trkpt>
      <trkpt lat="45.7549" lon="6.7449">
        <ele>2680</ele>
        <time>2026-07-29T07:57:49.716Z</time>
      </trkpt>
      <trkpt lat="45.7549" lon="6.7449">
        <ele>2680</ele>
        <time>2026-07-29T07:57:50.716Z</time>
      </trkpt>
      <trkpt lat="45.7549" lon="6.7449">
        <ele>2680</ele>
        <time>2026-07-29T07:57:51.716Z</time>
      </trkpt>
      <trkpt lat="45.7549" lon="6.7449">
        <ele>2680</ele>
        <time>2026-07-29T07:57:52.716Z</time>
      </trkpt>
      <trkpt lat="45.7549" lon="6.7449">
        <ele>2680</ele>
        <time>2026-07-29T07:57:53.716Z</time>
      </trkpt>
      <trkpt lat="45.7549" lon="6.7449">
        <ele>2680</ele>
        <time>2026-07-29T07:57:54.716Z</time>
      </trkpt>
      <trkpt lat="45.7549" lon="6.7449">
        <ele>2680</ele>
        <time>2026-07-29T07:57:55.716Z</time>
      </trkpt>
      <trkpt lat="45.7549" lon="6.7449">
        <ele>2680</ele>
        <time>2026-07-29T07:57:56.716Z</time>
      </trkpt>
      <trkpt lat="45.7549" lon="6.7449">
        <ele>2680</ele>
        <time>2026-07-29T07:57:57.716Z</time>
      </trkpt>
      <trkpt lat="45.7549" lon="6.7449">
        <ele>2680</ele>
        <time>2026-07-29T07:57:58.716Z</time>
      </trkpt>
      <trkpt lat="45.7549" lon="6.7449">
        <ele>2680</ele>
        <time>2026-07-29T07:57:59.716Z</time>
      </trkpt>
      <trkpt lat="45.7549" lon="6.7449">
        <ele>2680</ele>
        <time>2026-07-29T07:58:00.716Z</time>
      </trkpt>
      <trkpt lat="45.7549" lon="6.74489">
        <ele>2680</ele>
        <time>2026-07-29T07:58:01.716Z</time>
      </trkpt>
      <trkpt lat="45.7549" lon="6.74489">
        <ele>2680</ele>
        <time>2026-07-29T07:58:02.716Z</time>
      </trkpt>
      <trkpt lat="45.7549" lon="6.74489">
        <ele>2680</ele>
        <time>2026-07-29T07:58:03.716Z</time>
      </trkpt>
      <trkpt lat="45.7549" lon="6.74489">
        <ele>2680</ele>
        <time>2026-07-29T07:58:04.716Z</time>
      </trkpt>
      <trkpt lat="45.7549" lon="6.74489">
        <ele>2680</ele>
        <time>2026-07-29T07:58:05.716Z</time>
      </trkpt>
      <trkpt lat="45.7549" lon="6.74489">
        <ele>2680</ele>
        <time>2026-07-29T07:58:06.716Z</time>
      </trkpt>
      <trkpt lat="45.75489" lon="6.74489">
        <ele>2680</ele>
        <time>2026-07-29T07:58:07.716Z</time>
      </trkpt>
      <trkpt lat="45.75489" lon="6.74489">
        <ele>2680</ele>
        <time>2026-07-29T07:58:08.716Z</time>
      </trkpt>
      <trkpt lat="45.75489" lon="6.74489">
        <ele>2680</ele>
        <time>2026-07-29T07:58:09.716Z</time>
      </trkpt>
      <trkpt lat="45.75489" lon="6.74489">
        <ele>2680</ele>
        <time>2026-07-29T07:58:10.716Z</time>
      </trkpt>
      <trkpt lat="45.75489" lon="6.74489">
        <ele>2680</ele>
        <time>2026-07-29T07:58:11.716Z</time>
      </trkpt>
      <trkpt lat="45.75489" lon="6.74489">
        <ele>2680</ele>
        <time>2026-07-29T07:58:12.716Z</time>
      </trkpt>
      <trkpt lat="45.75489" lon="6.74489">
        <ele>2680</ele>
        <time>2026-07-29T07:58:13.716Z</time>
      </trkpt>
      <trkpt lat="45.75489" lon="6.74489">
        <ele>2680</ele>
        <time>2026-07-29T07:58:14.716Z</time>
      </trkpt>
      <trkpt lat="45.75489" lon="6.74489">
        <ele>2680</ele>
        <time>2026-07-29T07:58:15.716Z</time>
      </trkpt>
      <trkpt lat="45.75489" lon="6.74489">
        <ele>2680</ele>
        <time>2026-07-29T07:58:16.716Z</time>
      </trkpt>
      <trkpt lat="45.75489" lon="6.74489">
        <ele>2680</ele>
        <time>2026-07-29T07:58:17.716Z</time>
      </trkpt>
      <trkpt lat="45.75489" lon="6.74489">
        <ele>2680</ele>
        <time>2026-07-29T07:58:18.716Z</time>
      </trkpt>
      <trkpt lat="45.75489" lon="6.74489">
        <ele>2680</ele>
        <time>2026-07-29T07:58:19.716Z</time>
      </trkpt>
      <trkpt lat="45.75489" lon="6.74488">
        <ele>2680</ele>
        <time>2026-07-29T07:58:20.716Z</time>
      </trkpt>
      <trkpt lat="45.75489" lon="6.74488">
        <ele>2680</ele>
        <time>2026-07-29T07:58:21.716Z</time>
      </trkpt>
      <trkpt lat="45.75489" lon="6.74487">
        <ele>2680</ele>
        <time>2026-07-29T07:58:22.716Z</time>
      </trkpt>
      <trkpt lat="45.75489" lon="6.74487">
        <ele>2680</ele>
        <time>2026-07-29T07:58:23.716Z</time>
      </trkpt>
      <trkpt lat="45.75489" lon="6.74487">
        <ele>2680</ele>
        <time>2026-07-29T07:58:24.716Z</time>
      </trkpt>
      <trkpt lat="45.75489" lon="6.74486">
        <ele>2680</ele>
        <time>2026-07-29T07:58:25.716Z</time>
      </trkpt>
      <trkpt lat="45.75489" lon="6.74486">
        <ele>2680</ele>
        <time>2026-07-29T07:58:26.716Z</time>
      </trkpt>
      <trkpt lat="45.75489" lon="6.74486">
        <ele>2680</ele>
        <time>2026-07-29T07:58:27.716Z</time>
      </trkpt>
      <trkpt lat="45.75489" lon="6.74486">
        <ele>2680</ele>
        <time>2026-07-29T07:58:28.716Z</time>
      </trkpt>
      <trkpt lat="45.75489" lon="6.74486">
        <ele>2680</ele>
        <time>2026-07-29T07:58:29.716Z</time>
      </trkpt>
      <trkpt lat="45.75489" lon="6.74486">
        <ele>2680</ele>
        <time>2026-07-29T07:58:30.716Z</time>
      </trkpt>
      <trkpt lat="45.75488" lon="6.74486">
        <ele>2680</ele>
        <time>2026-07-29T07:58:31.716Z</time>
      </trkpt>
      <trkpt lat="45.75488" lon="6.74486">
        <ele>2680</ele>
        <time>2026-07-29T07:58:32.716Z</time>
      </trkpt>
      <trkpt lat="45.75488" lon="6.74486">
        <ele>2680</ele>
        <time>2026-07-29T07:58:33.716Z</time>
      </trkpt>
      <trkpt lat="45.75488" lon="6.74486">
        <ele>2680</ele>
        <time>2026-07-29T07:58:34.716Z</time>
      </trkpt>
      <trkpt lat="45.75487" lon="6.74486">
        <ele>2680</ele>
        <time>2026-07-29T07:58:35.716Z</time>
      </trkpt>
      <trkpt lat="45.75487" lon="6.74486">
        <ele>2680</ele>
        <time>2026-07-29T07:58:36.716Z</time>
      </trkpt>
      <trkpt lat="45.75487" lon="6.74486">
        <ele>2680</ele>
        <time>2026-07-29T07:58:37.716Z</time>
      </trkpt>
      <trkpt lat="45.75486" lon="6.74486">
        <ele>2680</ele>
        <time>2026-07-29T07:58:38.716Z</time>
      </trkpt>
      <trkpt lat="45.75486" lon="6.74486">
        <ele>2680</ele>
        <time>2026-07-29T07:58:39.716Z</time>
      </trkpt>
      <trkpt lat="45.75486" lon="6.74486">
        <ele>2680</ele>
        <time>2026-07-29T07:58:40.716Z</time>
      </trkpt>
      <trkpt lat="45.75486" lon="6.74486">
        <ele>2680</ele>
        <time>2026-07-29T07:58:41.716Z</time>
      </trkpt>
      <trkpt lat="45.75486" lon="6.74486">
        <ele>2680</ele>
        <time>2026-07-29T07:58:42.716Z</time>
      </trkpt>
      <trkpt lat="45.75485" lon="6.74486">
        <ele>2680</ele>
        <time>2026-07-29T07:58:43.716Z</time>
      </trkpt>
      <trkpt lat="45.75485" lon="6.74486">
        <ele>2680</ele>
        <time>2026-07-29T07:58:44.716Z</time>
      </trkpt>
      <trkpt lat="45.75484" lon="6.74486">
        <ele>2680</ele>
        <time>2026-07-29T07:58:45.716Z</time>
      </trkpt>
      <trkpt lat="45.75484" lon="6.74487">
        <ele>2680</ele>
        <time>2026-07-29T07:58:46.716Z</time>
      </trkpt>
      <trkpt lat="45.75484" lon="6.74487">
        <ele>2680</ele>
        <time>2026-07-29T07:58:47.716Z</time>
      </trkpt>
      <trkpt lat="45.75484" lon="6.74487">
        <ele>2680</ele>
        <time>2026-07-29T07:58:48.716Z</time>
      </trkpt>
      <trkpt lat="45.75483" lon="6.74488">
        <ele>2680</ele>
        <time>2026-07-29T07:58:49.716Z</time>
      </trkpt>
      <trkpt lat="45.75483" lon="6.7449">
        <ele>2680</ele>
        <time>2026-07-29T07:58:50.716Z</time>
      </trkpt>
      <trkpt lat="45.75483" lon="6.74492">
        <ele>2680</ele>
        <time>2026-07-29T07:58:51.716Z</time>
      </trkpt>
      <trkpt lat="45.75482" lon="6.74494">
        <ele>2680</ele>
        <time>2026-07-29T07:58:52.716Z</time>
      </trkpt>
      <trkpt lat="45.75482" lon="6.74496">
        <ele>2680</ele>
        <time>2026-07-29T07:58:53.716Z</time>
      </trkpt>
      <trkpt lat="45.75481" lon="6.74499">
        <ele>2680</ele>
        <time>2026-07-29T07:58:54.716Z</time>
      </trkpt>
      <trkpt lat="45.7548" lon="6.74501">
        <ele>2680</ele>
        <time>2026-07-29T07:58:55.716Z</time>
      </trkpt>
      <trkpt lat="45.7548" lon="6.74504">
        <ele>2679</ele>
        <time>2026-07-29T07:58:56.716Z</time>
      </trkpt>
      <trkpt lat="45.7548" lon="6.74506">
        <ele>2679</ele>
        <time>2026-07-29T07:58:57.716Z</time>
      </trkpt>
      <trkpt lat="45.75479" lon="6.74509">
        <ele>2679</ele>
        <time>2026-07-29T07:58:58.716Z</time>
      </trkpt>
      <trkpt lat="45.75479" lon="6.74509">
        <ele>2679</ele>
        <time>2026-07-29T07:58:59.716Z</time>
      </trkpt>
      <trkpt lat="45.75479" lon="6.74509">
        <ele>2679</ele>
        <time>2026-07-29T07:59:00.716Z</time>
      </trkpt>
      <trkpt lat="45.75479" lon="6.74509">
        <ele>2678</ele>
        <time>2026-07-29T07:59:01.716Z</time>
      </trkpt>
      <trkpt lat="45.75479" lon="6.7451">
        <ele>2678</ele>
        <time>2026-07-29T07:59:02.716Z</time>
      </trkpt>
      <trkpt lat="45.75479" lon="6.7451">
        <ele>2678</ele>
        <time>2026-07-29T07:59:03.716Z</time>
      </trkpt>
      <trkpt lat="45.75479" lon="6.7451">
        <ele>2678</ele>
        <time>2026-07-29T07:59:04.716Z</time>
      </trkpt>
      <trkpt lat="45.75479" lon="6.74511">
        <ele>2678</ele>
        <time>2026-07-29T07:59:05.716Z</time>
      </trkpt>
      <trkpt lat="45.75479" lon="6.74512">
        <ele>2677</ele>
        <time>2026-07-29T07:59:06.716Z</time>
      </trkpt>
      <trkpt lat="45.75478" lon="6.74513">
        <ele>2677</ele>
        <time>2026-07-29T07:59:07.716Z</time>
      </trkpt>
      <trkpt lat="45.75477" lon="6.74514">
        <ele>2677</ele>
        <time>2026-07-29T07:59:08.716Z</time>
      </trkpt>
      <trkpt lat="45.75477" lon="6.74513">
        <ele>2676</ele>
        <time>2026-07-29T07:59:09.716Z</time>
      </trkpt>
      <trkpt lat="45.75476" lon="6.74513">
        <ele>2676</ele>
        <time>2026-07-29T07:59:10.716Z</time>
      </trkpt>
      <trkpt lat="45.75475" lon="6.74512">
        <ele>2676</ele>
        <time>2026-07-29T07:59:11.716Z</time>
      </trkpt>
      <trkpt lat="45.75475" lon="6.74511">
        <ele>2675</ele>
        <time>2026-07-29T07:59:12.716Z</time>
      </trkpt>
      <trkpt lat="45.75474" lon="6.7451">
        <ele>2674</ele>
        <time>2026-07-29T07:59:13.716Z</time>
      </trkpt>
      <trkpt lat="45.75473" lon="6.7451">
        <ele>2674</ele>
        <time>2026-07-29T07:59:14.716Z</time>
      </trkpt>
      <trkpt lat="45.75473" lon="6.74509">
        <ele>2673</ele>
        <time>2026-07-29T07:59:15.716Z</time>
      </trkpt>
      <trkpt lat="45.75472" lon="6.74508">
        <ele>2672</ele>
        <time>2026-07-29T07:59:16.716Z</time>
      </trkpt>
      <trkpt lat="45.75472" lon="6.74508">
        <ele>2672</ele>
        <time>2026-07-29T07:59:17.716Z</time>
      </trkpt>
      <trkpt lat="45.75471" lon="6.74507">
        <ele>2672</ele>
        <time>2026-07-29T07:59:18.716Z</time>
      </trkpt>
      <trkpt lat="45.75471" lon="6.74506">
        <ele>2671</ele>
        <time>2026-07-29T07:59:19.716Z</time>
      </trkpt>
      <trkpt lat="45.7547" lon="6.74506">
        <ele>2671</ele>
        <time>2026-07-29T07:59:20.716Z</time>
      </trkpt>
      <trkpt lat="45.75469" lon="6.74505">
        <ele>2670</ele>
        <time>2026-07-29T07:59:21.716Z</time>
      </trkpt>
      <trkpt lat="45.75469" lon="6.74505">
        <ele>2670</ele>
        <time>2026-07-29T07:59:22.716Z</time>
      </trkpt>
      <trkpt lat="45.75468" lon="6.74505">
        <ele>2669</ele>
        <time>2026-07-29T07:59:23.716Z</time>
      </trkpt>
      <trkpt lat="45.75468" lon="6.74504">
        <ele>2668</ele>
        <time>2026-07-29T07:59:24.716Z</time>
      </trkpt>
      <trkpt lat="45.75467" lon="6.74504">
        <ele>2667</ele>
        <time>2026-07-29T07:59:25.716Z</time>
      </trkpt>
      <trkpt lat="45.75467" lon="6.74504">
        <ele>2667</ele>
        <time>2026-07-29T07:59:26.716Z</time>
      </trkpt>
      <trkpt lat="45.75466" lon="6.74504">
        <ele>2666</ele>
        <time>2026-07-29T07:59:27.716Z</time>
      </trkpt>
      <trkpt lat="45.75466" lon="6.74504">
        <ele>2666</ele>
        <time>2026-07-29T07:59:28.716Z</time>
      </trkpt>
      <trkpt lat="45.75465" lon="6.74504">
        <ele>2666</ele>
        <time>2026-07-29T07:59:29.716Z</time>
      </trkpt>
      <trkpt lat="45.75465" lon="6.74505">
        <ele>2665</ele>
        <time>2026-07-29T07:59:30.716Z</time>
      </trkpt>
      <trkpt lat="45.75465" lon="6.74506">
        <ele>2664</ele>
        <time>2026-07-29T07:59:31.716Z</time>
      </trkpt>
      <trkpt lat="45.75466" lon="6.74506">
        <ele>2663</ele>
        <time>2026-07-29T07:59:32.716Z</time>
      </trkpt>
      <trkpt lat="45.75466" lon="6.74507">
        <ele>2663</ele>
        <time>2026-07-29T07:59:33.716Z</time>
      </trkpt>
      <trkpt lat="45.75466" lon="6.74508">
        <ele>2662</ele>
        <time>2026-07-29T07:59:34.716Z</time>
      </trkpt>
      <trkpt lat="45.75466" lon="6.74509">
        <ele>2662</ele>
        <time>2026-07-29T07:59:35.716Z</time>
      </trkpt>
      <trkpt lat="45.75466" lon="6.7451">
        <ele>2662</ele>
        <time>2026-07-29T07:59:36.716Z</time>
      </trkpt>
      <trkpt lat="45.75466" lon="6.74511">
        <ele>2662</ele>
        <time>2026-07-29T07:59:37.716Z</time>
      </trkpt>
      <trkpt lat="45.75466" lon="6.74512">
        <ele>2662</ele>
        <time>2026-07-29T07:59:38.716Z</time>
      </trkpt>
      <trkpt lat="45.75466" lon="6.74512">
        <ele>2662</ele>
        <time>2026-07-29T07:59:39.716Z</time>
      </trkpt>
      <trkpt lat="45.75466" lon="6.74513">
        <ele>2662</ele>
        <time>2026-07-29T07:59:40.716Z</time>
      </trkpt>
      <trkpt lat="45.75466" lon="6.74514">
        <ele>2661</ele>
        <time>2026-07-29T07:59:41.716Z</time>
      </trkpt>
      <trkpt lat="45.75466" lon="6.74515">
        <ele>2661</ele>
        <time>2026-07-29T07:59:42.716Z</time>
      </trkpt>
      <trkpt lat="45.75466" lon="6.74516">
        <ele>2661</ele>
        <time>2026-07-29T07:59:43.716Z</time>
      </trkpt>
      <trkpt lat="45.75466" lon="6.74517">
        <ele>2661</ele>
        <time>2026-07-29T07:59:44.716Z</time>
      </trkpt>
      <trkpt lat="45.75465" lon="6.74518">
        <ele>2661</ele>
        <time>2026-07-29T07:59:45.716Z</time>
      </trkpt>
      <trkpt lat="45.75465" lon="6.74519">
        <ele>2660</ele>
        <time>2026-07-29T07:59:46.716Z</time>
      </trkpt>
      <trkpt lat="45.75465" lon="6.74519">
        <ele>2660</ele>
        <time>2026-07-29T07:59:47.716Z</time>
      </trkpt>
      <trkpt lat="45.75464" lon="6.74519">
        <ele>2659</ele>
        <time>2026-07-29T07:59:48.716Z</time>
      </trkpt>
      <trkpt lat="45.75464" lon="6.7452">
        <ele>2659</ele>
        <time>2026-07-29T07:59:49.716Z</time>
      </trkpt>
      <trkpt lat="45.75464" lon="6.74521">
        <ele>2658</ele>
        <time>2026-07-29T07:59:50.716Z</time>
      </trkpt>
      <trkpt lat="45.75464" lon="6.74522">
        <ele>2658</ele>
        <time>2026-07-29T07:59:51.716Z</time>
      </trkpt>
      <trkpt lat="45.75463" lon="6.74523">
        <ele>2658</ele>
        <time>2026-07-29T07:59:52.716Z</time>
      </trkpt>
      <trkpt lat="45.75463" lon="6.74524">
        <ele>2657</ele>
        <time>2026-07-29T07:59:53.716Z</time>
      </trkpt>
      <trkpt lat="45.75464" lon="6.74525">
        <ele>2657</ele>
        <time>2026-07-29T07:59:54.716Z</time>
      </trkpt>
      <trkpt lat="45.75464" lon="6.74526">
        <ele>2656</ele>
        <time>2026-07-29T07:59:55.716Z</time>
      </trkpt>
      <trkpt lat="45.75464" lon="6.74528">
        <ele>2656</ele>
        <time>2026-07-29T07:59:56.716Z</time>
      </trkpt>
      <trkpt lat="45.75464" lon="6.74529">
        <ele>2655</ele>
        <time>2026-07-29T07:59:57.716Z</time>
      </trkpt>
      <trkpt lat="45.75464" lon="6.7453">
        <ele>2655</ele>
        <time>2026-07-29T07:59:58.716Z</time>
      </trkpt>
      <trkpt lat="45.75464" lon="6.74531">
        <ele>2655</ele>
        <time>2026-07-29T07:59:59.716Z</time>
      </trkpt>
      <trkpt lat="45.75464" lon="6.74532">
        <ele>2654</ele>
        <time>2026-07-29T08:00:00.716Z</time>
      </trkpt>
      <trkpt lat="45.75464" lon="6.74533">
        <ele>2654</ele>
        <time>2026-07-29T08:00:01.716Z</time>
      </trkpt>
      <trkpt lat="45.75464" lon="6.74534">
        <ele>2654</ele>
        <time>2026-07-29T08:00:02.716Z</time>
      </trkpt>
      <trkpt lat="45.75464" lon="6.74536">
        <ele>2654</ele>
        <time>2026-07-29T08:00:03.716Z</time>
      </trkpt>
      <trkpt lat="45.75464" lon="6.74537">
        <ele>2653</ele>
        <time>2026-07-29T08:00:04.716Z</time>
      </trkpt>
      <trkpt lat="45.75464" lon="6.74538">
        <ele>2653</ele>
        <time>2026-07-29T08:00:05.716Z</time>
      </trkpt>
      <trkpt lat="45.75463" lon="6.74538">
        <ele>2653</ele>
        <time>2026-07-29T08:00:06.716Z</time>
      </trkpt>
      <trkpt lat="45.75462" lon="6.74537">
        <ele>2652</ele>
        <time>2026-07-29T08:00:07.716Z</time>
      </trkpt>
      <trkpt lat="45.75461" lon="6.74536">
        <ele>2652</ele>
        <time>2026-07-29T08:00:08.716Z</time>
      </trkpt>
      <trkpt lat="45.7546" lon="6.74535">
        <ele>2652</ele>
        <time>2026-07-29T08:00:09.716Z</time>
      </trkpt>
      <trkpt lat="45.75459" lon="6.74534">
        <ele>2652</ele>
        <time>2026-07-29T08:00:10.716Z</time>
      </trkpt>
      <trkpt lat="45.75459" lon="6.74533">
        <ele>2651</ele>
        <time>2026-07-29T08:00:11.716Z</time>
      </trkpt>
      <trkpt lat="45.75458" lon="6.74532">
        <ele>2651</ele>
        <time>2026-07-29T08:00:12.716Z</time>
      </trkpt>
      <trkpt lat="45.75457" lon="6.74531">
        <ele>2651</ele>
        <time>2026-07-29T08:00:13.716Z</time>
      </trkpt>
      <trkpt lat="45.75457" lon="6.74531">
        <ele>2650</ele>
        <time>2026-07-29T08:00:14.716Z</time>
      </trkpt>
      <trkpt lat="45.75457" lon="6.74532">
        <ele>2650</ele>
        <time>2026-07-29T08:00:15.716Z</time>
      </trkpt>
      <trkpt lat="45.75457" lon="6.74533">
        <ele>2650</ele>
        <time>2026-07-29T08:00:16.716Z</time>
      </trkpt>
      <trkpt lat="45.75457" lon="6.74534">
        <ele>2649</ele>
        <time>2026-07-29T08:00:17.716Z</time>
      </trkpt>
      <trkpt lat="45.75457" lon="6.74535">
        <ele>2649</ele>
        <time>2026-07-29T08:00:18.716Z</time>
      </trkpt>
      <trkpt lat="45.75457" lon="6.74536">
        <ele>2649</ele>
        <time>2026-07-29T08:00:19.716Z</time>
      </trkpt>
      <trkpt lat="45.75457" lon="6.74538">
        <ele>2649</ele>
        <time>2026-07-29T08:00:20.716Z</time>
      </trkpt>
      <trkpt lat="45.75458" lon="6.7454">
        <ele>2649</ele>
        <time>2026-07-29T08:00:21.716Z</time>
      </trkpt>
      <trkpt lat="45.75458" lon="6.74542">
        <ele>2648</ele>
        <time>2026-07-29T08:00:22.716Z</time>
      </trkpt>
      <trkpt lat="45.75458" lon="6.74544">
        <ele>2648</ele>
        <time>2026-07-29T08:00:23.716Z</time>
      </trkpt>
      <trkpt lat="45.75458" lon="6.74546">
        <ele>2648</ele>
        <time>2026-07-29T08:00:24.716Z</time>
      </trkpt>
      <trkpt lat="45.75459" lon="6.74547">
        <ele>2648</ele>
        <time>2026-07-29T08:00:25.716Z</time>
      </trkpt>
      <trkpt lat="45.75459" lon="6.74549">
        <ele>2648</ele>
        <time>2026-07-29T08:00:26.716Z</time>
      </trkpt>
      <trkpt lat="45.75459" lon="6.74551">
        <ele>2648</ele>
        <time>2026-07-29T08:00:27.716Z</time>
      </trkpt>
      <trkpt lat="45.75459" lon="6.74552">
        <ele>2647</ele>
        <time>2026-07-29T08:00:28.716Z</time>
      </trkpt>
      <trkpt lat="45.75459" lon="6.74553">
        <ele>2647</ele>
        <time>2026-07-29T08:00:29.717Z</time>
      </trkpt>
      <trkpt lat="45.75459" lon="6.74554">
        <ele>2647</ele>
        <time>2026-07-29T08:00:30.716Z</time>
      </trkpt>
      <trkpt lat="45.75459" lon="6.74555">
        <ele>2647</ele>
        <time>2026-07-29T08:00:31.716Z</time>
      </trkpt>
      <trkpt lat="45.75459" lon="6.74556">
        <ele>2646</ele>
        <time>2026-07-29T08:00:32.716Z</time>
      </trkpt>
      <trkpt lat="45.75459" lon="6.74556">
        <ele>2646</ele>
        <time>2026-07-29T08:00:33.716Z</time>
      </trkpt>
      <trkpt lat="45.75459" lon="6.74557">
        <ele>2646</ele>
        <time>2026-07-29T08:00:34.716Z</time>
      </trkpt>
      <trkpt lat="45.75459" lon="6.74558">
        <ele>2646</ele>
        <time>2026-07-29T08:00:35.716Z</time>
      </trkpt>
      <trkpt lat="45.75459" lon="6.7456">
        <ele>2646</ele>
        <time>2026-07-29T08:00:36.716Z</time>
      </trkpt>
      <trkpt lat="45.75459" lon="6.74561">
        <ele>2645</ele>
        <time>2026-07-29T08:00:37.716Z</time>
      </trkpt>
      <trkpt lat="45.75459" lon="6.74563">
        <ele>2645</ele>
        <time>2026-07-29T08:00:38.716Z</time>
      </trkpt>
      <trkpt lat="45.75459" lon="6.74565">
        <ele>2645</ele>
        <time>2026-07-29T08:00:39.716Z</time>
      </trkpt>
      <trkpt lat="45.75459" lon="6.74567">
        <ele>2644</ele>
        <time>2026-07-29T08:00:40.716Z</time>
      </trkpt>
      <trkpt lat="45.75458" lon="6.74568">
        <ele>2644</ele>
        <time>2026-07-29T08:00:41.716Z</time>
      </trkpt>
      <trkpt lat="45.75458" lon="6.7457">
        <ele>2645</ele>
        <time>2026-07-29T08:00:42.716Z</time>
      </trkpt>
      <trkpt lat="45.75458" lon="6.74571">
        <ele>2645</ele>
        <time>2026-07-29T08:00:43.716Z</time>
      </trkpt>
      <trkpt lat="45.75458" lon="6.74572">
        <ele>2644</ele>
        <time>2026-07-29T08:00:44.716Z</time>
      </trkpt>
      <trkpt lat="45.75459" lon="6.74574">
        <ele>2644</ele>
        <time>2026-07-29T08:00:45.716Z</time>
      </trkpt>
      <trkpt lat="45.75459" lon="6.74575">
        <ele>2644</ele>
        <time>2026-07-29T08:00:46.716Z</time>
      </trkpt>
      <trkpt lat="45.75459" lon="6.74575">
        <ele>2643</ele>
        <time>2026-07-29T08:00:47.716Z</time>
      </trkpt>
      <trkpt lat="45.75459" lon="6.74576">
        <ele>2643</ele>
        <time>2026-07-29T08:00:48.716Z</time>
      </trkpt>
      <trkpt lat="45.75459" lon="6.74577">
        <ele>2643</ele>
        <time>2026-07-29T08:00:49.716Z</time>
      </trkpt>
      <trkpt lat="45.75459" lon="6.74578">
        <ele>2642</ele>
        <time>2026-07-29T08:00:50.716Z</time>
      </trkpt>
      <trkpt lat="45.75459" lon="6.74579">
        <ele>2642</ele>
        <time>2026-07-29T08:00:51.716Z</time>
      </trkpt>
      <trkpt lat="45.75459" lon="6.7458">
        <ele>2642</ele>
        <time>2026-07-29T08:00:52.716Z</time>
      </trkpt>
      <trkpt lat="45.75458" lon="6.74581">
        <ele>2642</ele>
        <time>2026-07-29T08:00:53.716Z</time>
      </trkpt>
      <trkpt lat="45.75458" lon="6.74582">
        <ele>2642</ele>
        <time>2026-07-29T08:00:54.716Z</time>
      </trkpt>
      <trkpt lat="45.75458" lon="6.74583">
        <ele>2642</ele>
        <time>2026-07-29T08:00:55.716Z</time>
      </trkpt>
      <trkpt lat="45.75458" lon="6.74584">
        <ele>2643</ele>
        <time>2026-07-29T08:00:56.716Z</time>
      </trkpt>
      <trkpt lat="45.75458" lon="6.74585">
        <ele>2643</ele>
        <time>2026-07-29T08:00:57.716Z</time>
      </trkpt>
      <trkpt lat="45.75457" lon="6.74585">
        <ele>2642</ele>
        <time>2026-07-29T08:00:58.716Z</time>
      </trkpt>
      <trkpt lat="45.75457" lon="6.74586">
        <ele>2642</ele>
        <time>2026-07-29T08:00:59.716Z</time>
      </trkpt>
      <trkpt lat="45.75457" lon="6.74587">
        <ele>2642</ele>
        <time>2026-07-29T08:01:00.716Z</time>
      </trkpt>
      <trkpt lat="45.75457" lon="6.74588">
        <ele>2641</ele>
        <time>2026-07-29T08:01:01.716Z</time>
      </trkpt>
      <trkpt lat="45.75456" lon="6.74589">
        <ele>2641</ele>
        <time>2026-07-29T08:01:02.716Z</time>
      </trkpt>
      <trkpt lat="45.75456" lon="6.7459">
        <ele>2641</ele>
        <time>2026-07-29T08:01:03.716Z</time>
      </trkpt>
      <trkpt lat="45.75456" lon="6.74591">
        <ele>2641</ele>
        <time>2026-07-29T08:01:04.716Z</time>
      </trkpt>
      <trkpt lat="45.75455" lon="6.74593">
        <ele>2641</ele>
        <time>2026-07-29T08:01:05.716Z</time>
      </trkpt>
      <trkpt lat="45.75455" lon="6.74594">
        <ele>2641</ele>
        <time>2026-07-29T08:01:06.716Z</time>
      </trkpt>
      <trkpt lat="45.75454" lon="6.74595">
        <ele>2640</ele>
        <time>2026-07-29T08:01:07.716Z</time>
      </trkpt>
      <trkpt lat="45.75454" lon="6.74595">
        <ele>2640</ele>
        <time>2026-07-29T08:01:08.716Z</time>
      </trkpt>
      <trkpt lat="45.75453" lon="6.74596">
        <ele>2640</ele>
        <time>2026-07-29T08:01:09.716Z</time>
      </trkpt>
      <trkpt lat="45.75453" lon="6.74597">
        <ele>2640</ele>
        <time>2026-07-29T08:01:10.716Z</time>
      </trkpt>
      <trkpt lat="45.75452" lon="6.74597">
        <ele>2640</ele>
        <time>2026-07-29T08:01:11.716Z</time>
      </trkpt>
      <trkpt lat="45.75452" lon="6.74598">
        <ele>2640</ele>
        <time>2026-07-29T08:01:12.716Z</time>
      </trkpt>
      <trkpt lat="45.75452" lon="6.74598">
        <ele>2640</ele>
        <time>2026-07-29T08:01:13.716Z</time>
      </trkpt>
      <trkpt lat="45.75452" lon="6.74599">
        <ele>2640</ele>
        <time>2026-07-29T08:01:14.716Z</time>
      </trkpt>
      <trkpt lat="45.75452" lon="6.746">
        <ele>2640</ele>
        <time>2026-07-29T08:01:15.716Z</time>
      </trkpt>
      <trkpt lat="45.75452" lon="6.74601">
        <ele>2640</ele>
        <time>2026-07-29T08:01:16.716Z</time>
      </trkpt>
      <trkpt lat="45.75452" lon="6.74602">
        <ele>2640</ele>
        <time>2026-07-29T08:01:17.716Z</time>
      </trkpt>
      <trkpt lat="45.75452" lon="6.74602">
        <ele>2639</ele>
        <time>2026-07-29T08:01:18.716Z</time>
      </trkpt>
      <trkpt lat="45.75452" lon="6.74604">
        <ele>2639</ele>
        <time>2026-07-29T08:01:19.716Z</time>
      </trkpt>
      <trkpt lat="45.75451" lon="6.74605">
        <ele>2639</ele>
        <time>2026-07-29T08:01:20.716Z</time>
      </trkpt>
      <trkpt lat="45.75451" lon="6.74605">
        <ele>2639</ele>
        <time>2026-07-29T08:01:21.716Z</time>
      </trkpt>
      <trkpt lat="45.75451" lon="6.74606">
        <ele>2639</ele>
        <time>2026-07-29T08:01:22.716Z</time>
      </trkpt>
      <trkpt lat="45.7545" lon="6.74607">
        <ele>2639</ele>
        <time>2026-07-29T08:01:23.716Z</time>
      </trkpt>
      <trkpt lat="45.7545" lon="6.74608">
        <ele>2638</ele>
        <time>2026-07-29T08:01:24.716Z</time>
      </trkpt>
      <trkpt lat="45.7545" lon="6.74609">
        <ele>2638</ele>
        <time>2026-07-29T08:01:25.716Z</time>
      </trkpt>
      <trkpt lat="45.75449" lon="6.7461">
        <ele>2639</ele>
        <time>2026-07-29T08:01:26.716Z</time>
      </trkpt>
      <trkpt lat="45.75449" lon="6.7461">
        <ele>2639</ele>
        <time>2026-07-29T08:01:27.716Z</time>
      </trkpt>
      <trkpt lat="45.75449" lon="6.74611">
        <ele>2639</ele>
        <time>2026-07-29T08:01:28.716Z</time>
      </trkpt>
      <trkpt lat="45.75449" lon="6.74611">
        <ele>2638</ele>
        <time>2026-07-29T08:01:29.716Z</time>
      </trkpt>
      <trkpt lat="45.75449" lon="6.74612">
        <ele>2638</ele>
        <time>2026-07-29T08:01:30.716Z</time>
      </trkpt>
      <trkpt lat="45.75448" lon="6.74612">
        <ele>2638</ele>
        <time>2026-07-29T08:01:31.716Z</time>
      </trkpt>
      <trkpt lat="45.75448" lon="6.74613">
        <ele>2638</ele>
        <time>2026-07-29T08:01:32.716Z</time>
      </trkpt>
      <trkpt lat="45.75448" lon="6.74613">
        <ele>2638</ele>
        <time>2026-07-29T08:01:33.716Z</time>
      </trkpt>
      <trkpt lat="45.75448" lon="6.74614">
        <ele>2638</ele>
        <time>2026-07-29T08:01:34.716Z</time>
      </trkpt>
      <trkpt lat="45.75448" lon="6.74615">
        <ele>2638</ele>
        <time>2026-07-29T08:01:35.716Z</time>
      </trkpt>
      <trkpt lat="45.75447" lon="6.74615">
        <ele>2637</ele>
        <time>2026-07-29T08:01:36.716Z</time>
      </trkpt>
      <trkpt lat="45.75447" lon="6.74615">
        <ele>2637</ele>
        <time>2026-07-29T08:01:37.716Z</time>
      </trkpt>
      <trkpt lat="45.75447" lon="6.74616">
        <ele>2637</ele>
        <time>2026-07-29T08:01:38.716Z</time>
      </trkpt>
      <trkpt lat="45.75447" lon="6.74617">
        <ele>2637</ele>
        <time>2026-07-29T08:01:39.716Z</time>
      </trkpt>
      <trkpt lat="45.75447" lon="6.74618">
        <ele>2636</ele>
        <time>2026-07-29T08:01:40.716Z</time>
      </trkpt>
      <trkpt lat="45.75447" lon="6.74618">
        <ele>2636</ele>
        <time>2026-07-29T08:01:41.716Z</time>
      </trkpt>
      <trkpt lat="45.75447" lon="6.74618">
        <ele>2636</ele>
        <time>2026-07-29T08:01:42.716Z</time>
      </trkpt>
      <trkpt lat="45.75447" lon="6.74619">
        <ele>2636</ele>
        <time>2026-07-29T08:01:43.716Z</time>
      </trkpt>
      <trkpt lat="45.75447" lon="6.74619">
        <ele>2636</ele>
        <time>2026-07-29T08:01:44.716Z</time>
      </trkpt>
      <trkpt lat="45.75447" lon="6.7462">
        <ele>2636</ele>
        <time>2026-07-29T08:01:45.716Z</time>
      </trkpt>
      <trkpt lat="45.75447" lon="6.7462">
        <ele>2636</ele>
        <time>2026-07-29T08:01:46.716Z</time>
      </trkpt>
      <trkpt lat="45.75447" lon="6.74621">
        <ele>2636</ele>
        <time>2026-07-29T08:01:47.716Z</time>
      </trkpt>
      <trkpt lat="45.75447" lon="6.74621">
        <ele>2636</ele>
        <time>2026-07-29T08:01:48.716Z</time>
      </trkpt>
      <trkpt lat="45.75447" lon="6.74621">
        <ele>2636</ele>
        <time>2026-07-29T08:01:49.716Z</time>
      </trkpt>
      <trkpt lat="45.75447" lon="6.74621">
        <ele>2636</ele>
        <time>2026-07-29T08:01:50.716Z</time>
      </trkpt>
      <trkpt lat="45.75447" lon="6.74621">
        <ele>2636</ele>
        <time>2026-07-29T08:01:51.716Z</time>
      </trkpt>
      <trkpt lat="45.75447" lon="6.74621">
        <ele>2636</ele>
        <time>2026-07-29T08:01:52.716Z</time>
      </trkpt>
      <trkpt lat="45.75446" lon="6.74621">
        <ele>2637</ele>
        <time>2026-07-29T08:01:53.716Z</time>
      </trkpt>
      <trkpt lat="45.75446" lon="6.74621">
        <ele>2637</ele>
        <time>2026-07-29T08:01:54.716Z</time>
      </trkpt>
      <trkpt lat="45.75446" lon="6.74621">
        <ele>2637</ele>
        <time>2026-07-29T08:01:55.716Z</time>
      </trkpt>
      <trkpt lat="45.75446" lon="6.74621">
        <ele>2637</ele>
        <time>2026-07-29T08:01:56.716Z</time>
      </trkpt>
      <trkpt lat="45.75446" lon="6.74621">
        <ele>2637</ele>
        <time>2026-07-29T08:01:57.716Z</time>
      </trkpt>
      <trkpt lat="45.75446" lon="6.74621">
        <ele>2637</ele>
        <time>2026-07-29T08:01:58.716Z</time>
      </trkpt>
      <trkpt lat="45.75446" lon="6.74621">
        <ele>2637</ele>
        <time>2026-07-29T08:01:59.716Z</time>
      </trkpt>
      <trkpt lat="45.75446" lon="6.74621">
        <ele>2638</ele>
        <time>2026-07-29T08:02:00.716Z</time>
      </trkpt>
      <trkpt lat="45.75446" lon="6.74621">
        <ele>2638</ele>
        <time>2026-07-29T08:02:01.716Z</time>
      </trkpt>
      <trkpt lat="45.75446" lon="6.74621">
        <ele>2638</ele>
        <time>2026-07-29T08:02:02.716Z</time>
      </trkpt>
      <trkpt lat="45.75446" lon="6.74621">
        <ele>2638</ele>
        <time>2026-07-29T08:02:03.716Z</time>
      </trkpt>
      <trkpt lat="45.75446" lon="6.74621">
        <ele>2638</ele>
        <time>2026-07-29T08:02:04.716Z</time>
      </trkpt>
      <trkpt lat="45.75446" lon="6.74621">
        <ele>2638</ele>
        <time>2026-07-29T08:02:05.716Z</time>
      </trkpt>
      <trkpt lat="45.75446" lon="6.74621">
        <ele>2638</ele>
        <time>2026-07-29T08:02:06.716Z</time>
      </trkpt>
      <trkpt lat="45.75446" lon="6.74621">
        <ele>2638</ele>
        <time>2026-07-29T08:02:07.716Z</time>
      </trkpt>
      <trkpt lat="45.75446" lon="6.74621">
        <ele>2638</ele>
        <time>2026-07-29T08:02:08.716Z</time>
      </trkpt>
      <trkpt lat="45.75446" lon="6.74622">
        <ele>2638</ele>
        <time>2026-07-29T08:02:09.716Z</time>
      </trkpt>
      <trkpt lat="45.75446" lon="6.74622">
        <ele>2638</ele>
        <time>2026-07-29T08:02:10.716Z</time>
      </trkpt>
      <trkpt lat="45.75446" lon="6.74622">
        <ele>2638</ele>
        <time>2026-07-29T08:02:11.716Z</time>
      </trkpt>
      <trkpt lat="45.75446" lon="6.74622">
        <ele>2638</ele>
        <time>2026-07-29T08:02:12.716Z</time>
      </trkpt>
      <trkpt lat="45.75446" lon="6.74622">
        <ele>2638</ele>
        <time>2026-07-29T08:02:13.716Z</time>
      </trkpt>
      <trkpt lat="45.75446" lon="6.74623">
        <ele>2638</ele>
        <time>2026-07-29T08:02:14.716Z</time>
      </trkpt>
      <trkpt lat="45.75446" lon="6.74623">
        <ele>2638</ele>
        <time>2026-07-29T08:02:15.716Z</time>
      </trkpt>
      <trkpt lat="45.75446" lon="6.74624">
        <ele>2638</ele>
        <time>2026-07-29T08:02:16.716Z</time>
      </trkpt>
      <trkpt lat="45.75446" lon="6.74624">
        <ele>2638</ele>
        <time>2026-07-29T08:02:17.716Z</time>
      </trkpt>
      <trkpt lat="45.75445" lon="6.74625">
        <ele>2638</ele>
        <time>2026-07-29T08:02:18.716Z</time>
      </trkpt>
      <trkpt lat="45.75445" lon="6.74625">
        <ele>2638</ele>
        <time>2026-07-29T08:02:19.716Z</time>
      </trkpt>
      <trkpt lat="45.75445" lon="6.74625">
        <ele>2638</ele>
        <time>2026-07-29T08:02:20.716Z</time>
      </trkpt>
      <trkpt lat="45.75444" lon="6.74626">
        <ele>2638</ele>
        <time>2026-07-29T08:02:21.716Z</time>
      </trkpt>
      <trkpt lat="45.75443" lon="6.74627">
        <ele>2638</ele>
        <time>2026-07-29T08:02:22.716Z</time>
      </trkpt>
      <trkpt lat="45.75443" lon="6.74628">
        <ele>2638</ele>
        <time>2026-07-29T08:02:23.716Z</time>
      </trkpt>
      <trkpt lat="45.75442" lon="6.74628">
        <ele>2638</ele>
        <time>2026-07-29T08:02:24.716Z</time>
      </trkpt>
      <trkpt lat="45.75441" lon="6.74629">
        <ele>2638</ele>
        <time>2026-07-29T08:02:25.716Z</time>
      </trkpt>
      <trkpt lat="45.7544" lon="6.7463">
        <ele>2637</ele>
        <time>2026-07-29T08:02:26.716Z</time>
      </trkpt>
      <trkpt lat="45.75439" lon="6.7463">
        <ele>2637</ele>
        <time>2026-07-29T08:02:27.716Z</time>
      </trkpt>
      <trkpt lat="45.75438" lon="6.74632">
        <ele>2637</ele>
        <time>2026-07-29T08:02:28.716Z</time>
      </trkpt>
      <trkpt lat="45.75437" lon="6.74633">
        <ele>2636</ele>
        <time>2026-07-29T08:02:29.716Z</time>
      </trkpt>
      <trkpt lat="45.75436" lon="6.74635">
        <ele>2636</ele>
        <time>2026-07-29T08:02:30.716Z</time>
      </trkpt>
      <trkpt lat="45.75435" lon="6.74635">
        <ele>2636</ele>
        <time>2026-07-29T08:02:31.716Z</time>
      </trkpt>
      <trkpt lat="45.75434" lon="6.74636">
        <ele>2636</ele>
        <time>2026-07-29T08:02:32.716Z</time>
      </trkpt>
      <trkpt lat="45.75434" lon="6.74637">
        <ele>2636</ele>
        <time>2026-07-29T08:02:33.716Z</time>
      </trkpt>
      <trkpt lat="45.75433" lon="6.74637">
        <ele>2636</ele>
        <time>2026-07-29T08:02:34.716Z</time>
      </trkpt>
      <trkpt lat="45.75432" lon="6.74637">
        <ele>2635</ele>
        <time>2026-07-29T08:02:35.716Z</time>
      </trkpt>
      <trkpt lat="45.75432" lon="6.74637">
        <ele>2635</ele>
        <time>2026-07-29T08:02:36.716Z</time>
      </trkpt>
      <trkpt lat="45.75431" lon="6.74637">
        <ele>2634</ele>
        <time>2026-07-29T08:02:37.716Z</time>
      </trkpt>
      <trkpt lat="45.75431" lon="6.74638">
        <ele>2634</ele>
        <time>2026-07-29T08:02:38.716Z</time>
      </trkpt>
      <trkpt lat="45.7543" lon="6.74639">
        <ele>2634</ele>
        <time>2026-07-29T08:02:39.716Z</time>
      </trkpt>
      <trkpt lat="45.75429" lon="6.7464">
        <ele>2634</ele>
        <time>2026-07-29T08:02:40.716Z</time>
      </trkpt>
      <trkpt lat="45.75429" lon="6.74641">
        <ele>2634</ele>
        <time>2026-07-29T08:02:41.716Z</time>
      </trkpt>
      <trkpt lat="45.75428" lon="6.74643">
        <ele>2634</ele>
        <time>2026-07-29T08:02:42.716Z</time>
      </trkpt>
      <trkpt lat="45.75428" lon="6.74645">
        <ele>2634</ele>
        <time>2026-07-29T08:02:43.716Z</time>
      </trkpt>
      <trkpt lat="45.75427" lon="6.74646">
        <ele>2634</ele>
        <time>2026-07-29T08:02:44.716Z</time>
      </trkpt>
      <trkpt lat="45.75427" lon="6.74647">
        <ele>2634</ele>
        <time>2026-07-29T08:02:45.716Z</time>
      </trkpt>
      <trkpt lat="45.75427" lon="6.74648">
        <ele>2633</ele>
        <time>2026-07-29T08:02:46.716Z</time>
      </trkpt>
      <trkpt lat="45.75426" lon="6.74649">
        <ele>2633</ele>
        <time>2026-07-29T08:02:47.716Z</time>
      </trkpt>
      <trkpt lat="45.75426" lon="6.7465">
        <ele>2633</ele>
        <time>2026-07-29T08:02:48.716Z</time>
      </trkpt>
      <trkpt lat="45.75426" lon="6.74651">
        <ele>2633</ele>
        <time>2026-07-29T08:02:49.716Z</time>
      </trkpt>
      <trkpt lat="45.75426" lon="6.74653">
        <ele>2633</ele>
        <time>2026-07-29T08:02:50.716Z</time>
      </trkpt>
      <trkpt lat="45.75425" lon="6.74655">
        <ele>2632</ele>
        <time>2026-07-29T08:02:51.716Z</time>
      </trkpt>
      <trkpt lat="45.75424" lon="6.74657">
        <ele>2632</ele>
        <time>2026-07-29T08:02:52.716Z</time>
      </trkpt>
      <trkpt lat="45.75424" lon="6.74659">
        <ele>2632</ele>
        <time>2026-07-29T08:02:53.716Z</time>
      </trkpt>
      <trkpt lat="45.75423" lon="6.74662">
        <ele>2632</ele>
        <time>2026-07-29T08:02:54.716Z</time>
      </trkpt>
      <trkpt lat="45.75422" lon="6.74663">
        <ele>2632</ele>
        <time>2026-07-29T08:02:55.716Z</time>
      </trkpt>
      <trkpt lat="45.75421" lon="6.74665">
        <ele>2632</ele>
        <time>2026-07-29T08:02:56.716Z</time>
      </trkpt>
      <trkpt lat="45.7542" lon="6.74667">
        <ele>2631</ele>
        <time>2026-07-29T08:02:57.716Z</time>
      </trkpt>
      <trkpt lat="45.7542" lon="6.74669">
        <ele>2631</ele>
        <time>2026-07-29T08:02:58.716Z</time>
      </trkpt>
      <trkpt lat="45.7542" lon="6.74671">
        <ele>2631</ele>
        <time>2026-07-29T08:02:59.716Z</time>
      </trkpt>
      <trkpt lat="45.7542" lon="6.74672">
        <ele>2630</ele>
        <time>2026-07-29T08:03:00.716Z</time>
      </trkpt>
      <trkpt lat="45.7542" lon="6.74674">
        <ele>2629</ele>
        <time>2026-07-29T08:03:01.716Z</time>
      </trkpt>
      <trkpt lat="45.75419" lon="6.74675">
        <ele>2629</ele>
        <time>2026-07-29T08:03:02.716Z</time>
      </trkpt>
      <trkpt lat="45.75419" lon="6.74677">
        <ele>2629</ele>
        <time>2026-07-29T08:03:03.716Z</time>
      </trkpt>
      <trkpt lat="45.75418" lon="6.74678">
        <ele>2628</ele>
        <time>2026-07-29T08:03:04.717Z</time>
      </trkpt>
      <trkpt lat="45.75418" lon="6.74679">
        <ele>2628</ele>
        <time>2026-07-29T08:03:05.716Z</time>
      </trkpt>
      <trkpt lat="45.75418" lon="6.74681">
        <ele>2628</ele>
        <time>2026-07-29T08:03:06.716Z</time>
      </trkpt>
      <trkpt lat="45.75418" lon="6.74682">
        <ele>2627</ele>
        <time>2026-07-29T08:03:07.716Z</time>
      </trkpt>
      <trkpt lat="45.75418" lon="6.74683">
        <ele>2627</ele>
        <time>2026-07-29T08:03:08.716Z</time>
      </trkpt>
      <trkpt lat="45.75417" lon="6.74684">
        <ele>2626</ele>
        <time>2026-07-29T08:03:09.716Z</time>
      </trkpt>
      <trkpt lat="45.75417" lon="6.74686">
        <ele>2626</ele>
        <time>2026-07-29T08:03:10.716Z</time>
      </trkpt>
      <trkpt lat="45.75417" lon="6.74687">
        <ele>2625</ele>
        <time>2026-07-29T08:03:11.716Z</time>
      </trkpt>
      <trkpt lat="45.75417" lon="6.74688">
        <ele>2625</ele>
        <time>2026-07-29T08:03:12.716Z</time>
      </trkpt>
      <trkpt lat="45.75417" lon="6.74688">
        <ele>2625</ele>
        <time>2026-07-29T08:03:13.716Z</time>
      </trkpt>
      <trkpt lat="45.75416" lon="6.74689">
        <ele>2625</ele>
        <time>2026-07-29T08:03:14.716Z</time>
      </trkpt>
      <trkpt lat="45.75416" lon="6.74689">
        <ele>2625</ele>
        <time>2026-07-29T08:03:15.716Z</time>
      </trkpt>
      <trkpt lat="45.75416" lon="6.74689">
        <ele>2625</ele>
        <time>2026-07-29T08:03:16.716Z</time>
      </trkpt>
      <trkpt lat="45.75416" lon="6.74689">
        <ele>2625</ele>
        <time>2026-07-29T08:03:17.716Z</time>
      </trkpt>
      <trkpt lat="45.75416" lon="6.74689">
        <ele>2625</ele>
        <time>2026-07-29T08:03:18.716Z</time>
      </trkpt>
      <trkpt lat="45.75416" lon="6.74689">
        <ele>2625</ele>
        <time>2026-07-29T08:03:19.716Z</time>
      </trkpt>
      <trkpt lat="45.75416" lon="6.74689">
        <ele>2625</ele>
        <time>2026-07-29T08:03:20.716Z</time>
      </trkpt>
      <trkpt lat="45.75416" lon="6.74689">
        <ele>2625</ele>
        <time>2026-07-29T08:03:21.716Z</time>
      </trkpt>
      <trkpt lat="45.75416" lon="6.74689">
        <ele>2626</ele>
        <time>2026-07-29T08:03:22.716Z</time>
      </trkpt>
      <trkpt lat="45.75416" lon="6.74689">
        <ele>2626</ele>
        <time>2026-07-29T08:03:23.716Z</time>
      </trkpt>
      <trkpt lat="45.75417" lon="6.7469">
        <ele>2626</ele>
        <time>2026-07-29T08:03:24.716Z</time>
      </trkpt>
      <trkpt lat="45.75417" lon="6.7469">
        <ele>2626</ele>
        <time>2026-07-29T08:03:25.716Z</time>
      </trkpt>
      <trkpt lat="45.75417" lon="6.7469">
        <ele>2626</ele>
        <time>2026-07-29T08:03:26.716Z</time>
      </trkpt>
      <trkpt lat="45.75417" lon="6.7469">
        <ele>2626</ele>
        <time>2026-07-29T08:03:27.716Z</time>
      </trkpt>
      <trkpt lat="45.75417" lon="6.7469">
        <ele>2626</ele>
        <time>2026-07-29T08:03:28.716Z</time>
      </trkpt>
      <trkpt lat="45.75417" lon="6.7469">
        <ele>2626</ele>
        <time>2026-07-29T08:03:29.716Z</time>
      </trkpt>
      <trkpt lat="45.75417" lon="6.7469">
        <ele>2626</ele>
        <time>2026-07-29T08:03:30.716Z</time>
      </trkpt>
      <trkpt lat="45.75417" lon="6.7469">
        <ele>2626</ele>
        <time>2026-07-29T08:03:31.716Z</time>
      </trkpt>
      <trkpt lat="45.75417" lon="6.7469">
        <ele>2626</ele>
        <time>2026-07-29T08:03:32.716Z</time>
      </trkpt>
      <trkpt lat="45.75417" lon="6.7469">
        <ele>2626</ele>
        <time>2026-07-29T08:03:33.716Z</time>
      </trkpt>
      <trkpt lat="45.75417" lon="6.7469">
        <ele>2626</ele>
        <time>2026-07-29T08:03:34.716Z</time>
      </trkpt>
      <trkpt lat="45.75417" lon="6.7469">
        <ele>2626</ele>
        <time>2026-07-29T08:03:35.716Z</time>
      </trkpt>
      <trkpt lat="45.75417" lon="6.7469">
        <ele>2626</ele>
        <time>2026-07-29T08:03:36.716Z</time>
      </trkpt>
      <trkpt lat="45.75417" lon="6.7469">
        <ele>2626</ele>
        <time>2026-07-29T08:03:37.716Z</time>
      </trkpt>
      <trkpt lat="45.75417" lon="6.7469">
        <ele>2626</ele>
        <time>2026-07-29T08:03:38.716Z</time>
      </trkpt>
      <trkpt lat="45.75416" lon="6.74691">
        <ele>2626</ele>
        <time>2026-07-29T08:03:39.716Z</time>
      </trkpt>
      <trkpt lat="45.75416" lon="6.74693">
        <ele>2626</ele>
        <time>2026-07-29T08:03:40.716Z</time>
      </trkpt>
      <trkpt lat="45.75416" lon="6.74695">
        <ele>2626</ele>
        <time>2026-07-29T08:03:41.716Z</time>
      </trkpt>
      <trkpt lat="45.75416" lon="6.74697">
        <ele>2625</ele>
        <time>2026-07-29T08:03:42.716Z</time>
      </trkpt>
      <trkpt lat="45.75416" lon="6.74699">
        <ele>2625</ele>
        <time>2026-07-29T08:03:43.716Z</time>
      </trkpt>
      <trkpt lat="45.75416" lon="6.74701">
        <ele>2625</ele>
        <time>2026-07-29T08:03:44.716Z</time>
      </trkpt>
      <trkpt lat="45.75416" lon="6.74703">
        <ele>2625</ele>
        <time>2026-07-29T08:03:45.716Z</time>
      </trkpt>
      <trkpt lat="45.75415" lon="6.74706">
        <ele>2625</ele>
        <time>2026-07-29T08:03:46.716Z</time>
      </trkpt>
      <trkpt lat="45.75415" lon="6.74707">
        <ele>2625</ele>
        <time>2026-07-29T08:03:47.716Z</time>
      </trkpt>
      <trkpt lat="45.75415" lon="6.74709">
        <ele>2625</ele>
        <time>2026-07-29T08:03:48.716Z</time>
      </trkpt>
      <trkpt lat="45.75415" lon="6.74709">
        <ele>2625</ele>
        <time>2026-07-29T08:03:49.716Z</time>
      </trkpt>
      <trkpt lat="45.75415" lon="6.74709">
        <ele>2625</ele>
        <time>2026-07-29T08:03:50.716Z</time>
      </trkpt>
      <trkpt lat="45.75415" lon="6.74709">
        <ele>2625</ele>
        <time>2026-07-29T08:03:51.716Z</time>
      </trkpt>
      <trkpt lat="45.75415" lon="6.74709">
        <ele>2625</ele>
        <time>2026-07-29T08:03:52.716Z</time>
      </trkpt>
      <trkpt lat="45.75415" lon="6.74709">
        <ele>2625</ele>
        <time>2026-07-29T08:03:53.716Z</time>
      </trkpt>
      <trkpt lat="45.75415" lon="6.74709">
        <ele>2626</ele>
        <time>2026-07-29T08:03:54.716Z</time>
      </trkpt>
      <trkpt lat="45.75415" lon="6.74709">
        <ele>2626</ele>
        <time>2026-07-29T08:03:55.716Z</time>
      </trkpt>
      <trkpt lat="45.75415" lon="6.74709">
        <ele>2626</ele>
        <time>2026-07-29T08:03:56.716Z</time>
      </trkpt>
      <trkpt lat="45.75415" lon="6.7471">
        <ele>2626</ele>
        <time>2026-07-29T08:03:57.716Z</time>
      </trkpt>
      <trkpt lat="45.75415" lon="6.7471">
        <ele>2626</ele>
        <time>2026-07-29T08:03:58.716Z</time>
      </trkpt>
      <trkpt lat="45.75415" lon="6.74711">
        <ele>2626</ele>
        <time>2026-07-29T08:03:59.716Z</time>
      </trkpt>
      <trkpt lat="45.75415" lon="6.74711">
        <ele>2625</ele>
        <time>2026-07-29T08:04:00.716Z</time>
      </trkpt>
      <trkpt lat="45.75414" lon="6.74711">
        <ele>2625</ele>
        <time>2026-07-29T08:04:01.716Z</time>
      </trkpt>
      <trkpt lat="45.75414" lon="6.74712">
        <ele>2625</ele>
        <time>2026-07-29T08:04:02.716Z</time>
      </trkpt>
      <trkpt lat="45.75414" lon="6.74713">
        <ele>2625</ele>
        <time>2026-07-29T08:04:03.716Z</time>
      </trkpt>
      <trkpt lat="45.75414" lon="6.74714">
        <ele>2624</ele>
        <time>2026-07-29T08:04:04.716Z</time>
      </trkpt>
      <trkpt lat="45.75414" lon="6.74715">
        <ele>2624</ele>
        <time>2026-07-29T08:04:05.716Z</time>
      </trkpt>
      <trkpt lat="45.75414" lon="6.74717">
        <ele>2624</ele>
        <time>2026-07-29T08:04:06.716Z</time>
      </trkpt>
      <trkpt lat="45.75414" lon="6.74718">
        <ele>2624</ele>
        <time>2026-07-29T08:04:07.716Z</time>
      </trkpt>
      <trkpt lat="45.75413" lon="6.74719">
        <ele>2623</ele>
        <time>2026-07-29T08:04:08.716Z</time>
      </trkpt>
      <trkpt lat="45.75413" lon="6.7472">
        <ele>2623</ele>
        <time>2026-07-29T08:04:09.716Z</time>
      </trkpt>
      <trkpt lat="45.75412" lon="6.74722">
        <ele>2623</ele>
        <time>2026-07-29T08:04:10.716Z</time>
      </trkpt>
      <trkpt lat="45.75411" lon="6.74724">
        <ele>2623</ele>
        <time>2026-07-29T08:04:11.716Z</time>
      </trkpt>
      <trkpt lat="45.7541" lon="6.74725">
        <ele>2624</ele>
        <time>2026-07-29T08:04:12.716Z</time>
      </trkpt>
      <trkpt lat="45.7541" lon="6.74727">
        <ele>2624</ele>
        <time>2026-07-29T08:04:13.716Z</time>
      </trkpt>
      <trkpt lat="45.7541" lon="6.74728">
        <ele>2624</ele>
        <time>2026-07-29T08:04:14.716Z</time>
      </trkpt>
      <trkpt lat="45.7541" lon="6.7473">
        <ele>2624</ele>
        <time>2026-07-29T08:04:15.716Z</time>
      </trkpt>
      <trkpt lat="45.75411" lon="6.74732">
        <ele>2624</ele>
        <time>2026-07-29T08:04:16.716Z</time>
      </trkpt>
      <trkpt lat="45.7541" lon="6.74733">
        <ele>2624</ele>
        <time>2026-07-29T08:04:17.716Z</time>
      </trkpt>
      <trkpt lat="45.7541" lon="6.74734">
        <ele>2624</ele>
        <time>2026-07-29T08:04:18.716Z</time>
      </trkpt>
      <trkpt lat="45.7541" lon="6.74735">
        <ele>2624</ele>
        <time>2026-07-29T08:04:19.716Z</time>
      </trkpt>
      <trkpt lat="45.7541" lon="6.74736">
        <ele>2624</ele>
        <time>2026-07-29T08:04:20.716Z</time>
      </trkpt>
      <trkpt lat="45.75409" lon="6.74737">
        <ele>2624</ele>
        <time>2026-07-29T08:04:21.716Z</time>
      </trkpt>
      <trkpt lat="45.75409" lon="6.74738">
        <ele>2623</ele>
        <time>2026-07-29T08:04:22.716Z</time>
      </trkpt>
      <trkpt lat="45.75409" lon="6.74739">
        <ele>2623</ele>
        <time>2026-07-29T08:04:23.716Z</time>
      </trkpt>
      <trkpt lat="45.7541" lon="6.7474">
        <ele>2623</ele>
        <time>2026-07-29T08:04:24.716Z</time>
      </trkpt>
      <trkpt lat="45.75409" lon="6.74742">
        <ele>2622</ele>
        <time>2026-07-29T08:04:25.716Z</time>
      </trkpt>
      <trkpt lat="45.75409" lon="6.74743">
        <ele>2622</ele>
        <time>2026-07-29T08:04:26.716Z</time>
      </trkpt>
      <trkpt lat="45.75409" lon="6.74744">
        <ele>2622</ele>
        <time>2026-07-29T08:04:27.716Z</time>
      </trkpt>
      <trkpt lat="45.75409" lon="6.74745">
        <ele>2622</ele>
        <time>2026-07-29T08:04:28.716Z</time>
      </trkpt>
      <trkpt lat="45.75409" lon="6.74745">
        <ele>2621</ele>
        <time>2026-07-29T08:04:29.716Z</time>
      </trkpt>
      <trkpt lat="45.75408" lon="6.74746">
        <ele>2621</ele>
        <time>2026-07-29T08:04:30.716Z</time>
      </trkpt>
      <trkpt lat="45.75408" lon="6.74746">
        <ele>2620</ele>
        <time>2026-07-29T08:04:31.716Z</time>
      </trkpt>
      <trkpt lat="45.75407" lon="6.74747">
        <ele>2620</ele>
        <time>2026-07-29T08:04:32.716Z</time>
      </trkpt>
      <trkpt lat="45.75406" lon="6.74747">
        <ele>2620</ele>
        <time>2026-07-29T08:04:33.716Z</time>
      </trkpt>
      <trkpt lat="45.75405" lon="6.74747">
        <ele>2620</ele>
        <time>2026-07-29T08:04:34.716Z</time>
      </trkpt>
      <trkpt lat="45.75404" lon="6.74747">
        <ele>2620</ele>
        <time>2026-07-29T08:04:35.716Z</time>
      </trkpt>
      <trkpt lat="45.75404" lon="6.74748">
        <ele>2620</ele>
        <time>2026-07-29T08:04:36.716Z</time>
      </trkpt>
      <trkpt lat="45.75403" lon="6.74748">
        <ele>2619</ele>
        <time>2026-07-29T08:04:37.716Z</time>
      </trkpt>
      <trkpt lat="45.75403" lon="6.74748">
        <ele>2619</ele>
        <time>2026-07-29T08:04:38.716Z</time>
      </trkpt>
      <trkpt lat="45.75402" lon="6.74749">
        <ele>2619</ele>
        <time>2026-07-29T08:04:39.716Z</time>
      </trkpt>
      <trkpt lat="45.75402" lon="6.7475">
        <ele>2619</ele>
        <time>2026-07-29T08:04:40.716Z</time>
      </trkpt>
      <trkpt lat="45.75402" lon="6.7475">
        <ele>2619</ele>
        <time>2026-07-29T08:04:41.716Z</time>
      </trkpt>
      <trkpt lat="45.754" lon="6.74751">
        <ele>2618</ele>
        <time>2026-07-29T08:04:42.716Z</time>
      </trkpt>
      <trkpt lat="45.75399" lon="6.74752">
        <ele>2618</ele>
        <time>2026-07-29T08:04:43.716Z</time>
      </trkpt>
      <trkpt lat="45.75399" lon="6.74753">
        <ele>2617</ele>
        <time>2026-07-29T08:04:44.716Z</time>
      </trkpt>
      <trkpt lat="45.75398" lon="6.74753">
        <ele>2617</ele>
        <time>2026-07-29T08:04:45.716Z</time>
      </trkpt>
      <trkpt lat="45.75398" lon="6.74754">
        <ele>2617</ele>
        <time>2026-07-29T08:04:46.716Z</time>
      </trkpt>
      <trkpt lat="45.75396" lon="6.74754">
        <ele>2617</ele>
        <time>2026-07-29T08:04:47.716Z</time>
      </trkpt>
      <trkpt lat="45.75395" lon="6.74754">
        <ele>2617</ele>
        <time>2026-07-29T08:04:48.716Z</time>
      </trkpt>
      <trkpt lat="45.75395" lon="6.74754">
        <ele>2617</ele>
        <time>2026-07-29T08:04:49.716Z</time>
      </trkpt>
      <trkpt lat="45.75394" lon="6.74754">
        <ele>2617</ele>
        <time>2026-07-29T08:04:50.716Z</time>
      </trkpt>
      <trkpt lat="45.75393" lon="6.74755">
        <ele>2617</ele>
        <time>2026-07-29T08:04:51.716Z</time>
      </trkpt>
      <trkpt lat="45.75391" lon="6.74756">
        <ele>2617</ele>
        <time>2026-07-29T08:04:52.716Z</time>
      </trkpt>
      <trkpt lat="45.75389" lon="6.74757">
        <ele>2617</ele>
        <time>2026-07-29T08:04:53.716Z</time>
      </trkpt>
      <trkpt lat="45.75388" lon="6.74758">
        <ele>2617</ele>
        <time>2026-07-29T08:04:54.716Z</time>
      </trkpt>
      <trkpt lat="45.75387" lon="6.74759">
        <ele>2617</ele>
        <time>2026-07-29T08:04:55.716Z</time>
      </trkpt>
      <trkpt lat="45.75385" lon="6.74759">
        <ele>2617</ele>
        <time>2026-07-29T08:04:56.716Z</time>
      </trkpt>
      <trkpt lat="45.75384" lon="6.7476">
        <ele>2617</ele>
        <time>2026-07-29T08:04:57.716Z</time>
      </trkpt>
      <trkpt lat="45.75383" lon="6.74761">
        <ele>2617</ele>
        <time>2026-07-29T08:04:58.716Z</time>
      </trkpt>
      <trkpt lat="45.75382" lon="6.74762">
        <ele>2618</ele>
        <time>2026-07-29T08:04:59.716Z</time>
      </trkpt>
      <trkpt lat="45.75381" lon="6.74762">
        <ele>2618</ele>
        <time>2026-07-29T08:05:00.716Z</time>
      </trkpt>
      <trkpt lat="45.7538" lon="6.74764">
        <ele>2618</ele>
        <time>2026-07-29T08:05:01.716Z</time>
      </trkpt>
      <trkpt lat="45.7538" lon="6.74765">
        <ele>2619</ele>
        <time>2026-07-29T08:05:02.716Z</time>
      </trkpt>
      <trkpt lat="45.75379" lon="6.74766">
        <ele>2619</ele>
        <time>2026-07-29T08:05:03.716Z</time>
      </trkpt>
      <trkpt lat="45.75378" lon="6.74767">
        <ele>2619</ele>
        <time>2026-07-29T08:05:04.716Z</time>
      </trkpt>
      <trkpt lat="45.75376" lon="6.74768">
        <ele>2620</ele>
        <time>2026-07-29T08:05:05.716Z</time>
      </trkpt>
      <trkpt lat="45.75375" lon="6.74769">
        <ele>2620</ele>
        <time>2026-07-29T08:05:06.716Z</time>
      </trkpt>
      <trkpt lat="45.75375" lon="6.7477">
        <ele>2620</ele>
        <time>2026-07-29T08:05:07.716Z</time>
      </trkpt>
      <trkpt lat="45.75374" lon="6.74771">
        <ele>2620</ele>
        <time>2026-07-29T08:05:08.716Z</time>
      </trkpt>
      <trkpt lat="45.75373" lon="6.74772">
        <ele>2620</ele>
        <time>2026-07-29T08:05:09.716Z</time>
      </trkpt>
      <trkpt lat="45.75373" lon="6.74773">
        <ele>2620</ele>
        <time>2026-07-29T08:05:10.716Z</time>
      </trkpt>
      <trkpt lat="45.75372" lon="6.74774">
        <ele>2620</ele>
        <time>2026-07-29T08:05:11.716Z</time>
      </trkpt>
      <trkpt lat="45.75372" lon="6.74774">
        <ele>2620</ele>
        <time>2026-07-29T08:05:12.716Z</time>
      </trkpt>
      <trkpt lat="45.75371" lon="6.74776">
        <ele>2620</ele>
        <time>2026-07-29T08:05:13.716Z</time>
      </trkpt>
      <trkpt lat="45.7537" lon="6.74776">
        <ele>2620</ele>
        <time>2026-07-29T08:05:14.716Z</time>
      </trkpt>
      <trkpt lat="45.75369" lon="6.74777">
        <ele>2620</ele>
        <time>2026-07-29T08:05:15.716Z</time>
      </trkpt>
      <trkpt lat="45.75368" lon="6.74778">
        <ele>2620</ele>
        <time>2026-07-29T08:05:16.716Z</time>
      </trkpt>
      <trkpt lat="45.75367" lon="6.74778">
        <ele>2620</ele>
        <time>2026-07-29T08:05:17.716Z</time>
      </trkpt>
      <trkpt lat="45.75367" lon="6.74779">
        <ele>2620</ele>
        <time>2026-07-29T08:05:18.716Z</time>
      </trkpt>
      <trkpt lat="45.75367" lon="6.74779">
        <ele>2620</ele>
        <time>2026-07-29T08:05:19.716Z</time>
      </trkpt>
      <trkpt lat="45.75367" lon="6.74779">
        <ele>2621</ele>
        <time>2026-07-29T08:05:20.716Z</time>
      </trkpt>
      <trkpt lat="45.75367" lon="6.74779">
        <ele>2621</ele>
        <time>2026-07-29T08:05:21.716Z</time>
      </trkpt>
      <trkpt lat="45.75366" lon="6.7478">
        <ele>2621</ele>
        <time>2026-07-29T08:05:22.716Z</time>
      </trkpt>
      <trkpt lat="45.75366" lon="6.7478">
        <ele>2622</ele>
        <time>2026-07-29T08:05:23.716Z</time>
      </trkpt>
      <trkpt lat="45.75365" lon="6.7478">
        <ele>2622</ele>
        <time>2026-07-29T08:05:24.716Z</time>
      </trkpt>
      <trkpt lat="45.75365" lon="6.7478">
        <ele>2622</ele>
        <time>2026-07-29T08:05:25.716Z</time>
      </trkpt>
      <trkpt lat="45.75364" lon="6.74779">
        <ele>2622</ele>
        <time>2026-07-29T08:05:26.716Z</time>
      </trkpt>
      <trkpt lat="45.75363" lon="6.74779">
        <ele>2622</ele>
        <time>2026-07-29T08:05:27.716Z</time>
      </trkpt>
      <trkpt lat="45.75362" lon="6.74778">
        <ele>2622</ele>
        <time>2026-07-29T08:05:28.716Z</time>
      </trkpt>
      <trkpt lat="45.75361" lon="6.74777">
        <ele>2622</ele>
        <time>2026-07-29T08:05:29.716Z</time>
      </trkpt>
      <trkpt lat="45.75361" lon="6.74777">
        <ele>2622</ele>
        <time>2026-07-29T08:05:30.716Z</time>
      </trkpt>
      <trkpt lat="45.7536" lon="6.74778">
        <ele>2622</ele>
        <time>2026-07-29T08:05:31.716Z</time>
      </trkpt>
      <trkpt lat="45.7536" lon="6.74778">
        <ele>2621</ele>
        <time>2026-07-29T08:05:32.716Z</time>
      </trkpt>
      <trkpt lat="45.75359" lon="6.74778">
        <ele>2621</ele>
        <time>2026-07-29T08:05:33.716Z</time>
      </trkpt>
      <trkpt lat="45.75358" lon="6.74778">
        <ele>2621</ele>
        <time>2026-07-29T08:05:34.716Z</time>
      </trkpt>
      <trkpt lat="45.75357" lon="6.74779">
        <ele>2620</ele>
        <time>2026-07-29T08:05:35.716Z</time>
      </trkpt>
      <trkpt lat="45.75356" lon="6.74779">
        <ele>2620</ele>
        <time>2026-07-29T08:05:36.716Z</time>
      </trkpt>
      <trkpt lat="45.75356" lon="6.7478">
        <ele>2620</ele>
        <time>2026-07-29T08:05:37.716Z</time>
      </trkpt>
      <trkpt lat="45.75356" lon="6.74781">
        <ele>2620</ele>
        <time>2026-07-29T08:05:38.716Z</time>
      </trkpt>
      <trkpt lat="45.75356" lon="6.74783">
        <ele>2619</ele>
        <time>2026-07-29T08:05:39.716Z</time>
      </trkpt>
      <trkpt lat="45.75356" lon="6.74784">
        <ele>2619</ele>
        <time>2026-07-29T08:05:40.716Z</time>
      </trkpt>
      <trkpt lat="45.75356" lon="6.74785">
        <ele>2619</ele>
        <time>2026-07-29T08:05:41.716Z</time>
      </trkpt>
      <trkpt lat="45.75356" lon="6.74786">
        <ele>2619</ele>
        <time>2026-07-29T08:05:42.716Z</time>
      </trkpt>
      <trkpt lat="45.75356" lon="6.74788">
        <ele>2618</ele>
        <time>2026-07-29T08:05:43.716Z</time>
      </trkpt>
      <trkpt lat="45.75356" lon="6.74789">
        <ele>2618</ele>
        <time>2026-07-29T08:05:44.716Z</time>
      </trkpt>
      <trkpt lat="45.75357" lon="6.7479">
        <ele>2617</ele>
        <time>2026-07-29T08:05:45.716Z</time>
      </trkpt>
      <trkpt lat="45.75357" lon="6.74792">
        <ele>2617</ele>
        <time>2026-07-29T08:05:46.716Z</time>
      </trkpt>
      <trkpt lat="45.75357" lon="6.74793">
        <ele>2617</ele>
        <time>2026-07-29T08:05:47.716Z</time>
      </trkpt>
      <trkpt lat="45.75357" lon="6.74795">
        <ele>2617</ele>
        <time>2026-07-29T08:05:48.716Z</time>
      </trkpt>
      <trkpt lat="45.75356" lon="6.74797">
        <ele>2618</ele>
        <time>2026-07-29T08:05:49.716Z</time>
      </trkpt>
      <trkpt lat="45.75355" lon="6.74799">
        <ele>2618</ele>
        <time>2026-07-29T08:05:50.716Z</time>
      </trkpt>
      <trkpt lat="45.75354" lon="6.74801">
        <ele>2618</ele>
        <time>2026-07-29T08:05:51.716Z</time>
      </trkpt>
      <trkpt lat="45.75353" lon="6.74803">
        <ele>2618</ele>
        <time>2026-07-29T08:05:52.716Z</time>
      </trkpt>
      <trkpt lat="45.75352" lon="6.74804">
        <ele>2618</ele>
        <time>2026-07-29T08:05:53.716Z</time>
      </trkpt>
      <trkpt lat="45.7535" lon="6.74806">
        <ele>2618</ele>
        <time>2026-07-29T08:05:54.716Z</time>
      </trkpt>
      <trkpt lat="45.75349" lon="6.74807">
        <ele>2617</ele>
        <time>2026-07-29T08:05:55.716Z</time>
      </trkpt>
      <trkpt lat="45.75348" lon="6.74809">
        <ele>2617</ele>
        <time>2026-07-29T08:05:56.716Z</time>
      </trkpt>
      <trkpt lat="45.75347" lon="6.74812">
        <ele>2617</ele>
        <time>2026-07-29T08:05:57.716Z</time>
      </trkpt>
      <trkpt lat="45.75346" lon="6.74813">
        <ele>2617</ele>
        <time>2026-07-29T08:05:58.716Z</time>
      </trkpt>
      <trkpt lat="45.75346" lon="6.74815">
        <ele>2616</ele>
        <time>2026-07-29T08:05:59.716Z</time>
      </trkpt>
      <trkpt lat="45.75345" lon="6.74816">
        <ele>2616</ele>
        <time>2026-07-29T08:06:00.716Z</time>
      </trkpt>
      <trkpt lat="45.75345" lon="6.74818">
        <ele>2616</ele>
        <time>2026-07-29T08:06:01.716Z</time>
      </trkpt>
      <trkpt lat="45.75345" lon="6.74819">
        <ele>2616</ele>
        <time>2026-07-29T08:06:02.716Z</time>
      </trkpt>
      <trkpt lat="45.75345" lon="6.7482">
        <ele>2617</ele>
        <time>2026-07-29T08:06:03.716Z</time>
      </trkpt>
      <trkpt lat="45.75345" lon="6.74821">
        <ele>2617</ele>
        <time>2026-07-29T08:06:04.716Z</time>
      </trkpt>
      <trkpt lat="45.75345" lon="6.74822">
        <ele>2617</ele>
        <time>2026-07-29T08:06:05.716Z</time>
      </trkpt>
      <trkpt lat="45.75345" lon="6.74823">
        <ele>2616</ele>
        <time>2026-07-29T08:06:06.716Z</time>
      </trkpt>
      <trkpt lat="45.75345" lon="6.74824">
        <ele>2616</ele>
        <time>2026-07-29T08:06:07.716Z</time>
      </trkpt>
      <trkpt lat="45.75345" lon="6.74825">
        <ele>2616</ele>
        <time>2026-07-29T08:06:08.716Z</time>
      </trkpt>
      <trkpt lat="45.75344" lon="6.74826">
        <ele>2616</ele>
        <time>2026-07-29T08:06:09.716Z</time>
      </trkpt>
      <trkpt lat="45.75344" lon="6.74828">
        <ele>2616</ele>
        <time>2026-07-29T08:06:10.716Z</time>
      </trkpt>
      <trkpt lat="45.75344" lon="6.7483">
        <ele>2616</ele>
        <time>2026-07-29T08:06:11.716Z</time>
      </trkpt>
      <trkpt lat="45.75344" lon="6.74832">
        <ele>2616</ele>
        <time>2026-07-29T08:06:12.716Z</time>
      </trkpt>
      <trkpt lat="45.75344" lon="6.74833">
        <ele>2615</ele>
        <time>2026-07-29T08:06:13.716Z</time>
      </trkpt>
      <trkpt lat="45.75344" lon="6.74835">
        <ele>2615</ele>
        <time>2026-07-29T08:06:14.716Z</time>
      </trkpt>
      <trkpt lat="45.75344" lon="6.74837">
        <ele>2616</ele>
        <time>2026-07-29T08:06:15.716Z</time>
      </trkpt>
      <trkpt lat="45.75345" lon="6.74839">
        <ele>2616</ele>
        <time>2026-07-29T08:06:16.716Z</time>
      </trkpt>
      <trkpt lat="45.75345" lon="6.74841">
        <ele>2616</ele>
        <time>2026-07-29T08:06:17.716Z</time>
      </trkpt>
      <trkpt lat="45.75345" lon="6.74843">
        <ele>2616</ele>
        <time>2026-07-29T08:06:18.716Z</time>
      </trkpt>
      <trkpt lat="45.75345" lon="6.74844">
        <ele>2616</ele>
        <time>2026-07-29T08:06:19.716Z</time>
      </trkpt>
      <trkpt lat="45.75344" lon="6.74846">
        <ele>2615</ele>
        <time>2026-07-29T08:06:20.716Z</time>
      </trkpt>
      <trkpt lat="45.75344" lon="6.74847">
        <ele>2615</ele>
        <time>2026-07-29T08:06:21.716Z</time>
      </trkpt>
      <trkpt lat="45.75344" lon="6.74848">
        <ele>2615</ele>
        <time>2026-07-29T08:06:22.716Z</time>
      </trkpt>
      <trkpt lat="45.75344" lon="6.74849">
        <ele>2615</ele>
        <time>2026-07-29T08:06:23.716Z</time>
      </trkpt>
      <trkpt lat="45.75343" lon="6.74849">
        <ele>2616</ele>
        <time>2026-07-29T08:06:24.716Z</time>
      </trkpt>
      <trkpt lat="45.75343" lon="6.74849">
        <ele>2616</ele>
        <time>2026-07-29T08:06:25.716Z</time>
      </trkpt>
      <trkpt lat="45.75343" lon="6.74849">
        <ele>2616</ele>
        <time>2026-07-29T08:06:26.716Z</time>
      </trkpt>
      <trkpt lat="45.75343" lon="6.7485">
        <ele>2616</ele>
        <time>2026-07-29T08:06:27.716Z</time>
      </trkpt>
      <trkpt lat="45.75343" lon="6.7485">
        <ele>2615</ele>
        <time>2026-07-29T08:06:28.716Z</time>
      </trkpt>
      <trkpt lat="45.75343" lon="6.7485">
        <ele>2615</ele>
        <time>2026-07-29T08:06:29.716Z</time>
      </trkpt>
      <trkpt lat="45.75343" lon="6.7485">
        <ele>2615</ele>
        <time>2026-07-29T08:06:30.716Z</time>
      </trkpt>
      <trkpt lat="45.75343" lon="6.74851">
        <ele>2614</ele>
        <time>2026-07-29T08:06:31.716Z</time>
      </trkpt>
      <trkpt lat="45.75344" lon="6.74852">
        <ele>2614</ele>
        <time>2026-07-29T08:06:32.716Z</time>
      </trkpt>
      <trkpt lat="45.75344" lon="6.74854">
        <ele>2614</ele>
        <time>2026-07-29T08:06:33.716Z</time>
      </trkpt>
      <trkpt lat="45.75343" lon="6.74855">
        <ele>2613</ele>
        <time>2026-07-29T08:06:34.716Z</time>
      </trkpt>
      <trkpt lat="45.75343" lon="6.74856">
        <ele>2613</ele>
        <time>2026-07-29T08:06:35.716Z</time>
      </trkpt>
      <trkpt lat="45.75343" lon="6.74858">
        <ele>2612</ele>
        <time>2026-07-29T08:06:36.716Z</time>
      </trkpt>
      <trkpt lat="45.75343" lon="6.74859">
        <ele>2612</ele>
        <time>2026-07-29T08:06:37.716Z</time>
      </trkpt>
      <trkpt lat="45.75343" lon="6.74861">
        <ele>2612</ele>
        <time>2026-07-29T08:06:38.716Z</time>
      </trkpt>
      <trkpt lat="45.75343" lon="6.74862">
        <ele>2612</ele>
        <time>2026-07-29T08:06:39.716Z</time>
      </trkpt>
      <trkpt lat="45.75344" lon="6.74863">
        <ele>2612</ele>
        <time>2026-07-29T08:06:40.716Z</time>
      </trkpt>
      <trkpt lat="45.75344" lon="6.74864">
        <ele>2612</ele>
        <time>2026-07-29T08:06:41.716Z</time>
      </trkpt>
      <trkpt lat="45.75345" lon="6.74866">
        <ele>2612</ele>
        <time>2026-07-29T08:06:42.716Z</time>
      </trkpt>
      <trkpt lat="45.75346" lon="6.74867">
        <ele>2612</ele>
        <time>2026-07-29T08:06:43.716Z</time>
      </trkpt>
      <trkpt lat="45.75346" lon="6.74868">
        <ele>2612</ele>
        <time>2026-07-29T08:06:44.716Z</time>
      </trkpt>
      <trkpt lat="45.75347" lon="6.74869">
        <ele>2612</ele>
        <time>2026-07-29T08:06:45.716Z</time>
      </trkpt>
      <trkpt lat="45.75347" lon="6.7487">
        <ele>2612</ele>
        <time>2026-07-29T08:06:46.716Z</time>
      </trkpt>
      <trkpt lat="45.75348" lon="6.74871">
        <ele>2612</ele>
        <time>2026-07-29T08:06:47.716Z</time>
      </trkpt>
      <trkpt lat="45.75348" lon="6.74872">
        <ele>2612</ele>
        <time>2026-07-29T08:06:48.716Z</time>
      </trkpt>
      <trkpt lat="45.75348" lon="6.74874">
        <ele>2612</ele>
        <time>2026-07-29T08:06:49.716Z</time>
      </trkpt>
      <trkpt lat="45.75349" lon="6.74875">
        <ele>2612</ele>
        <time>2026-07-29T08:06:50.716Z</time>
      </trkpt>
      <trkpt lat="45.75349" lon="6.74876">
        <ele>2612</ele>
        <time>2026-07-29T08:06:51.716Z</time>
      </trkpt>
      <trkpt lat="45.75349" lon="6.74876">
        <ele>2611</ele>
        <time>2026-07-29T08:06:52.716Z</time>
      </trkpt>
      <trkpt lat="45.75349" lon="6.74878">
        <ele>2611</ele>
        <time>2026-07-29T08:06:53.716Z</time>
      </trkpt>
      <trkpt lat="45.75349" lon="6.74879">
        <ele>2611</ele>
        <time>2026-07-29T08:06:54.716Z</time>
      </trkpt>
      <trkpt lat="45.75349" lon="6.74879">
        <ele>2610</ele>
        <time>2026-07-29T08:06:55.716Z</time>
      </trkpt>
      <trkpt lat="45.75349" lon="6.7488">
        <ele>2610</ele>
        <time>2026-07-29T08:06:56.716Z</time>
      </trkpt>
      <trkpt lat="45.75349" lon="6.74881">
        <ele>2609</ele>
        <time>2026-07-29T08:06:57.716Z</time>
      </trkpt>
      <trkpt lat="45.75349" lon="6.74882">
        <ele>2609</ele>
        <time>2026-07-29T08:06:58.716Z</time>
      </trkpt>
      <trkpt lat="45.75349" lon="6.74883">
        <ele>2609</ele>
        <time>2026-07-29T08:06:59.716Z</time>
      </trkpt>
      <trkpt lat="45.75349" lon="6.74884">
        <ele>2609</ele>
        <time>2026-07-29T08:07:00.716Z</time>
      </trkpt>
      <trkpt lat="45.75349" lon="6.74885">
        <ele>2609</ele>
        <time>2026-07-29T08:07:01.716Z</time>
      </trkpt>
      <trkpt lat="45.75349" lon="6.74886">
        <ele>2609</ele>
        <time>2026-07-29T08:07:02.716Z</time>
      </trkpt>
      <trkpt lat="45.75349" lon="6.74887">
        <ele>2609</ele>
        <time>2026-07-29T08:07:03.716Z</time>
      </trkpt>
      <trkpt lat="45.7535" lon="6.74888">
        <ele>2608</ele>
        <time>2026-07-29T08:07:04.716Z</time>
      </trkpt>
      <trkpt lat="45.7535" lon="6.74889">
        <ele>2608</ele>
        <time>2026-07-29T08:07:05.716Z</time>
      </trkpt>
      <trkpt lat="45.7535" lon="6.7489">
        <ele>2608</ele>
        <time>2026-07-29T08:07:06.716Z</time>
      </trkpt>
      <trkpt lat="45.7535" lon="6.74891">
        <ele>2608</ele>
        <time>2026-07-29T08:07:07.716Z</time>
      </trkpt>
      <trkpt lat="45.7535" lon="6.74893">
        <ele>2608</ele>
        <time>2026-07-29T08:07:08.716Z</time>
      </trkpt>
      <trkpt lat="45.7535" lon="6.74894">
        <ele>2608</ele>
        <time>2026-07-29T08:07:09.716Z</time>
      </trkpt>
      <trkpt lat="45.7535" lon="6.74895">
        <ele>2609</ele>
        <time>2026-07-29T08:07:10.716Z</time>
      </trkpt>
      <trkpt lat="45.75349" lon="6.74896">
        <ele>2609</ele>
        <time>2026-07-29T08:07:11.716Z</time>
      </trkpt>
      <trkpt lat="45.75349" lon="6.74897">
        <ele>2609</ele>
        <time>2026-07-29T08:07:12.716Z</time>
      </trkpt>
      <trkpt lat="45.75349" lon="6.74898">
        <ele>2609</ele>
        <time>2026-07-29T08:07:13.716Z</time>
      </trkpt>
      <trkpt lat="45.75349" lon="6.74899">
        <ele>2609</ele>
        <time>2026-07-29T08:07:14.716Z</time>
      </trkpt>
      <trkpt lat="45.75349" lon="6.749">
        <ele>2608</ele>
        <time>2026-07-29T08:07:15.716Z</time>
      </trkpt>
      <trkpt lat="45.75349" lon="6.74901">
        <ele>2608</ele>
        <time>2026-07-29T08:07:16.716Z</time>
      </trkpt>
      <trkpt lat="45.75349" lon="6.74902">
        <ele>2608</ele>
        <time>2026-07-29T08:07:17.716Z</time>
      </trkpt>
      <trkpt lat="45.7535" lon="6.74903">
        <ele>2607</ele>
        <time>2026-07-29T08:07:18.716Z</time>
      </trkpt>
      <trkpt lat="45.7535" lon="6.74904">
        <ele>2607</ele>
        <time>2026-07-29T08:07:19.716Z</time>
      </trkpt>
      <trkpt lat="45.7535" lon="6.74905">
        <ele>2606</ele>
        <time>2026-07-29T08:07:20.716Z</time>
      </trkpt>
      <trkpt lat="45.7535" lon="6.74905">
        <ele>2606</ele>
        <time>2026-07-29T08:07:21.716Z</time>
      </trkpt>
      <trkpt lat="45.7535" lon="6.74906">
        <ele>2605</ele>
        <time>2026-07-29T08:07:22.716Z</time>
      </trkpt>
      <trkpt lat="45.7535" lon="6.74906">
        <ele>2605</ele>
        <time>2026-07-29T08:07:23.716Z</time>
      </trkpt>
      <trkpt lat="45.7535" lon="6.74907">
        <ele>2605</ele>
        <time>2026-07-29T08:07:24.716Z</time>
      </trkpt>
      <trkpt lat="45.7535" lon="6.74907">
        <ele>2604</ele>
        <time>2026-07-29T08:07:25.716Z</time>
      </trkpt>
      <trkpt lat="45.7535" lon="6.74908">
        <ele>2604</ele>
        <time>2026-07-29T08:07:26.716Z</time>
      </trkpt>
      <trkpt lat="45.7535" lon="6.7491">
        <ele>2604</ele>
        <time>2026-07-29T08:07:27.716Z</time>
      </trkpt>
      <trkpt lat="45.7535" lon="6.74911">
        <ele>2604</ele>
        <time>2026-07-29T08:07:28.716Z</time>
      </trkpt>
      <trkpt lat="45.75349" lon="6.74913">
        <ele>2604</ele>
        <time>2026-07-29T08:07:29.716Z</time>
      </trkpt>
      <trkpt lat="45.75349" lon="6.74914">
        <ele>2604</ele>
        <time>2026-07-29T08:07:30.716Z</time>
      </trkpt>
      <trkpt lat="45.75349" lon="6.74916">
        <ele>2604</ele>
        <time>2026-07-29T08:07:31.716Z</time>
      </trkpt>
      <trkpt lat="45.75349" lon="6.74917">
        <ele>2604</ele>
        <time>2026-07-29T08:07:32.716Z</time>
      </trkpt>
      <trkpt lat="45.75349" lon="6.74918">
        <ele>2603</ele>
        <time>2026-07-29T08:07:33.716Z</time>
      </trkpt>
      <trkpt lat="45.75349" lon="6.74919">
        <ele>2603</ele>
        <time>2026-07-29T08:07:34.716Z</time>
      </trkpt>
      <trkpt lat="45.75349" lon="6.74921">
        <ele>2603</ele>
        <time>2026-07-29T08:07:35.716Z</time>
      </trkpt>
      <trkpt lat="45.75348" lon="6.74922">
        <ele>2603</ele>
        <time>2026-07-29T08:07:36.716Z</time>
      </trkpt>
      <trkpt lat="45.75348" lon="6.74923">
        <ele>2602</ele>
        <time>2026-07-29T08:07:37.716Z</time>
      </trkpt>
      <trkpt lat="45.75349" lon="6.74924">
        <ele>2602</ele>
        <time>2026-07-29T08:07:38.716Z</time>
      </trkpt>
      <trkpt lat="45.75349" lon="6.74925">
        <ele>2602</ele>
        <time>2026-07-29T08:07:39.716Z</time>
      </trkpt>
      <trkpt lat="45.75349" lon="6.74926">
        <ele>2602</ele>
        <time>2026-07-29T08:07:40.716Z</time>
      </trkpt>
      <trkpt lat="45.75349" lon="6.74927">
        <ele>2601</ele>
        <time>2026-07-29T08:07:41.716Z</time>
      </trkpt>
      <trkpt lat="45.7535" lon="6.74928">
        <ele>2601</ele>
        <time>2026-07-29T08:07:42.716Z</time>
      </trkpt>
      <trkpt lat="45.7535" lon="6.74929">
        <ele>2601</ele>
        <time>2026-07-29T08:07:43.716Z</time>
      </trkpt>
      <trkpt lat="45.7535" lon="6.7493">
        <ele>2600</ele>
        <time>2026-07-29T08:07:44.716Z</time>
      </trkpt>
      <trkpt lat="45.75349" lon="6.74932">
        <ele>2600</ele>
        <time>2026-07-29T08:07:45.716Z</time>
      </trkpt>
      <trkpt lat="45.75349" lon="6.74933">
        <ele>2601</ele>
        <time>2026-07-29T08:07:46.716Z</time>
      </trkpt>
      <trkpt lat="45.75349" lon="6.74935">
        <ele>2601</ele>
        <time>2026-07-29T08:07:47.716Z</time>
      </trkpt>
      <trkpt lat="45.7535" lon="6.74937">
        <ele>2601</ele>
        <time>2026-07-29T08:07:48.716Z</time>
      </trkpt>
      <trkpt lat="45.7535" lon="6.74939">
        <ele>2601</ele>
        <time>2026-07-29T08:07:49.716Z</time>
      </trkpt>
      <trkpt lat="45.7535" lon="6.74941">
        <ele>2601</ele>
        <time>2026-07-29T08:07:50.716Z</time>
      </trkpt>
      <trkpt lat="45.7535" lon="6.74943">
        <ele>2601</ele>
        <time>2026-07-29T08:07:51.716Z</time>
      </trkpt>
      <trkpt lat="45.75349" lon="6.74944">
        <ele>2601</ele>
        <time>2026-07-29T08:07:52.716Z</time>
      </trkpt>
      <trkpt lat="45.7535" lon="6.74946">
        <ele>2601</ele>
        <time>2026-07-29T08:07:53.716Z</time>
      </trkpt>
      <trkpt lat="45.7535" lon="6.74947">
        <ele>2601</ele>
        <time>2026-07-29T08:07:54.716Z</time>
      </trkpt>
      <trkpt lat="45.7535" lon="6.74949">
        <ele>2601</ele>
        <time>2026-07-29T08:07:55.716Z</time>
      </trkpt>
      <trkpt lat="45.7535" lon="6.7495">
        <ele>2600</ele>
        <time>2026-07-29T08:07:56.716Z</time>
      </trkpt>
      <trkpt lat="45.7535" lon="6.74952">
        <ele>2600</ele>
        <time>2026-07-29T08:07:57.716Z</time>
      </trkpt>
      <trkpt lat="45.7535" lon="6.74953">
        <ele>2600</ele>
        <time>2026-07-29T08:07:58.716Z</time>
      </trkpt>
      <trkpt lat="45.75351" lon="6.74954">
        <ele>2600</ele>
        <time>2026-07-29T08:07:59.716Z</time>
      </trkpt>
      <trkpt lat="45.75351" lon="6.74955">
        <ele>2600</ele>
        <time>2026-07-29T08:08:00.716Z</time>
      </trkpt>
      <trkpt lat="45.75352" lon="6.74956">
        <ele>2600</ele>
        <time>2026-07-29T08:08:01.716Z</time>
      </trkpt>
      <trkpt lat="45.75352" lon="6.74957">
        <ele>2599</ele>
        <time>2026-07-29T08:08:02.716Z</time>
      </trkpt>
      <trkpt lat="45.75352" lon="6.74958">
        <ele>2599</ele>
        <time>2026-07-29T08:08:03.716Z</time>
      </trkpt>
      <trkpt lat="45.75352" lon="6.74958">
        <ele>2599</ele>
        <time>2026-07-29T08:08:04.716Z</time>
      </trkpt>
      <trkpt lat="45.75352" lon="6.74959">
        <ele>2599</ele>
        <time>2026-07-29T08:08:05.716Z</time>
      </trkpt>
      <trkpt lat="45.75351" lon="6.7496">
        <ele>2599</ele>
        <time>2026-07-29T08:08:06.716Z</time>
      </trkpt>
      <trkpt lat="45.75351" lon="6.74961">
        <ele>2599</ele>
        <time>2026-07-29T08:08:07.716Z</time>
      </trkpt>
      <trkpt lat="45.7535" lon="6.74962">
        <ele>2599</ele>
        <time>2026-07-29T08:08:08.716Z</time>
      </trkpt>
      <trkpt lat="45.7535" lon="6.74962">
        <ele>2599</ele>
        <time>2026-07-29T08:08:09.716Z</time>
      </trkpt>
      <trkpt lat="45.7535" lon="6.74963">
        <ele>2599</ele>
        <time>2026-07-29T08:08:10.716Z</time>
      </trkpt>
      <trkpt lat="45.7535" lon="6.74963">
        <ele>2599</ele>
        <time>2026-07-29T08:08:11.716Z</time>
      </trkpt>
      <trkpt lat="45.7535" lon="6.74963">
        <ele>2599</ele>
        <time>2026-07-29T08:08:12.716Z</time>
      </trkpt>
      <trkpt lat="45.7535" lon="6.74963">
        <ele>2599</ele>
        <time>2026-07-29T08:08:13.716Z</time>
      </trkpt>
      <trkpt lat="45.7535" lon="6.74963">
        <ele>2599</ele>
        <time>2026-07-29T08:08:14.716Z</time>
      </trkpt>
      <trkpt lat="45.7535" lon="6.74963">
        <ele>2599</ele>
        <time>2026-07-29T08:08:15.716Z</time>
      </trkpt>
      <trkpt lat="45.7535" lon="6.74963">
        <ele>2599</ele>
        <time>2026-07-29T08:08:16.716Z</time>
      </trkpt>
      <trkpt lat="45.75349" lon="6.74963">
        <ele>2599</ele>
        <time>2026-07-29T08:08:17.716Z</time>
      </trkpt>
      <trkpt lat="45.75349" lon="6.74963">
        <ele>2598</ele>
        <time>2026-07-29T08:08:18.716Z</time>
      </trkpt>
      <trkpt lat="45.75349" lon="6.74964">
        <ele>2598</ele>
        <time>2026-07-29T08:08:19.716Z</time>
      </trkpt>
      <trkpt lat="45.75349" lon="6.74964">
        <ele>2598</ele>
        <time>2026-07-29T08:08:20.716Z</time>
      </trkpt>
      <trkpt lat="45.75349" lon="6.74965">
        <ele>2598</ele>
        <time>2026-07-29T08:08:21.716Z</time>
      </trkpt>
      <trkpt lat="45.75349" lon="6.74966">
        <ele>2598</ele>
        <time>2026-07-29T08:08:22.716Z</time>
      </trkpt>
      <trkpt lat="45.75349" lon="6.74967">
        <ele>2597</ele>
        <time>2026-07-29T08:08:23.716Z</time>
      </trkpt>
      <trkpt lat="45.7535" lon="6.74968">
        <ele>2597</ele>
        <time>2026-07-29T08:08:24.716Z</time>
      </trkpt>
      <trkpt lat="45.7535" lon="6.74969">
        <ele>2597</ele>
        <time>2026-07-29T08:08:25.716Z</time>
      </trkpt>
      <trkpt lat="45.7535" lon="6.74971">
        <ele>2597</ele>
        <time>2026-07-29T08:08:26.716Z</time>
      </trkpt>
      <trkpt lat="45.7535" lon="6.74972">
        <ele>2596</ele>
        <time>2026-07-29T08:08:27.716Z</time>
      </trkpt>
      <trkpt lat="45.75351" lon="6.74973">
        <ele>2596</ele>
        <time>2026-07-29T08:08:28.716Z</time>
      </trkpt>
      <trkpt lat="45.7535" lon="6.74974">
        <ele>2596</ele>
        <time>2026-07-29T08:08:29.716Z</time>
      </trkpt>
      <trkpt lat="45.7535" lon="6.74976">
        <ele>2596</ele>
        <time>2026-07-29T08:08:30.716Z</time>
      </trkpt>
      <trkpt lat="45.7535" lon="6.74978">
        <ele>2596</ele>
        <time>2026-07-29T08:08:31.716Z</time>
      </trkpt>
      <trkpt lat="45.7535" lon="6.74979">
        <ele>2596</ele>
        <time>2026-07-29T08:08:32.716Z</time>
      </trkpt>
      <trkpt lat="45.7535" lon="6.74981">
        <ele>2596</ele>
        <time>2026-07-29T08:08:33.716Z</time>
      </trkpt>
      <trkpt lat="45.7535" lon="6.74982">
        <ele>2596</ele>
        <time>2026-07-29T08:08:34.716Z</time>
      </trkpt>
      <trkpt lat="45.7535" lon="6.74984">
        <ele>2596</ele>
        <time>2026-07-29T08:08:35.716Z</time>
      </trkpt>
      <trkpt lat="45.75351" lon="6.74985">
        <ele>2596</ele>
        <time>2026-07-29T08:08:36.716Z</time>
      </trkpt>
      <trkpt lat="45.75351" lon="6.74987">
        <ele>2596</ele>
        <time>2026-07-29T08:08:37.716Z</time>
      </trkpt>
      <trkpt lat="45.75351" lon="6.74988">
        <ele>2596</ele>
        <time>2026-07-29T08:08:38.716Z</time>
      </trkpt>
      <trkpt lat="45.75351" lon="6.7499">
        <ele>2596</ele>
        <time>2026-07-29T08:08:39.716Z</time>
      </trkpt>
      <trkpt lat="45.75351" lon="6.74992">
        <ele>2596</ele>
        <time>2026-07-29T08:08:40.716Z</time>
      </trkpt>
      <trkpt lat="45.75351" lon="6.74993">
        <ele>2596</ele>
        <time>2026-07-29T08:08:41.716Z</time>
      </trkpt>
      <trkpt lat="45.75351" lon="6.74995">
        <ele>2596</ele>
        <time>2026-07-29T08:08:42.716Z</time>
      </trkpt>
      <trkpt lat="45.75351" lon="6.74996">
        <ele>2596</ele>
        <time>2026-07-29T08:08:43.716Z</time>
      </trkpt>
      <trkpt lat="45.75351" lon="6.74998">
        <ele>2596</ele>
        <time>2026-07-29T08:08:44.716Z</time>
      </trkpt>
      <trkpt lat="45.75351" lon="6.74999">
        <ele>2596</ele>
        <time>2026-07-29T08:08:45.716Z</time>
      </trkpt>
      <trkpt lat="45.75351" lon="6.75001">
        <ele>2596</ele>
        <time>2026-07-29T08:08:46.716Z</time>
      </trkpt>
      <trkpt lat="45.75351" lon="6.75002">
        <ele>2595</ele>
        <time>2026-07-29T08:08:47.716Z</time>
      </trkpt>
      <trkpt lat="45.7535" lon="6.75002">
        <ele>2595</ele>
        <time>2026-07-29T08:08:48.716Z</time>
      </trkpt>
      <trkpt lat="45.7535" lon="6.75003">
        <ele>2595</ele>
        <time>2026-07-29T08:08:49.716Z</time>
      </trkpt>
      <trkpt lat="45.7535" lon="6.75003">
        <ele>2595</ele>
        <time>2026-07-29T08:08:50.716Z</time>
      </trkpt>
      <trkpt lat="45.7535" lon="6.75003">
        <ele>2595</ele>
        <time>2026-07-29T08:08:51.716Z</time>
      </trkpt>
      <trkpt lat="45.7535" lon="6.75004">
        <ele>2595</ele>
        <time>2026-07-29T08:08:52.716Z</time>
      </trkpt>
      <trkpt lat="45.75349" lon="6.75004">
        <ele>2595</ele>
        <time>2026-07-29T08:08:53.716Z</time>
      </trkpt>
      <trkpt lat="45.75348" lon="6.75004">
        <ele>2595</ele>
        <time>2026-07-29T08:08:54.716Z</time>
      </trkpt>
      <trkpt lat="45.75348" lon="6.75005">
        <ele>2595</ele>
        <time>2026-07-29T08:08:55.716Z</time>
      </trkpt>
      <trkpt lat="45.75347" lon="6.75006">
        <ele>2595</ele>
        <time>2026-07-29T08:08:56.716Z</time>
      </trkpt>
      <trkpt lat="45.75347" lon="6.75007">
        <ele>2596</ele>
        <time>2026-07-29T08:08:57.716Z</time>
      </trkpt>
      <trkpt lat="45.75347" lon="6.75008">
        <ele>2596</ele>
        <time>2026-07-29T08:08:58.716Z</time>
      </trkpt>
      <trkpt lat="45.75347" lon="6.7501">
        <ele>2596</ele>
        <time>2026-07-29T08:08:59.716Z</time>
      </trkpt>
      <trkpt lat="45.75347" lon="6.75012">
        <ele>2597</ele>
        <time>2026-07-29T08:09:00.716Z</time>
      </trkpt>
      <trkpt lat="45.75348" lon="6.75013">
        <ele>2597</ele>
        <time>2026-07-29T08:09:01.716Z</time>
      </trkpt>
      <trkpt lat="45.75348" lon="6.75014">
        <ele>2597</ele>
        <time>2026-07-29T08:09:02.716Z</time>
      </trkpt>
      <trkpt lat="45.75349" lon="6.75016">
        <ele>2597</ele>
        <time>2026-07-29T08:09:03.716Z</time>
      </trkpt>
      <trkpt lat="45.75349" lon="6.75017">
        <ele>2597</ele>
        <time>2026-07-29T08:09:04.716Z</time>
      </trkpt>
      <trkpt lat="45.7535" lon="6.75017">
        <ele>2597</ele>
        <time>2026-07-29T08:09:05.716Z</time>
      </trkpt>
      <trkpt lat="45.7535" lon="6.75018">
        <ele>2597</ele>
        <time>2026-07-29T08:09:06.716Z</time>
      </trkpt>
      <trkpt lat="45.7535" lon="6.75019">
        <ele>2597</ele>
        <time>2026-07-29T08:09:07.716Z</time>
      </trkpt>
      <trkpt lat="45.7535" lon="6.75019">
        <ele>2597</ele>
        <time>2026-07-29T08:09:08.716Z</time>
      </trkpt>
      <trkpt lat="45.7535" lon="6.7502">
        <ele>2597</ele>
        <time>2026-07-29T08:09:09.716Z</time>
      </trkpt>
      <trkpt lat="45.7535" lon="6.75021">
        <ele>2597</ele>
        <time>2026-07-29T08:09:10.716Z</time>
      </trkpt>
      <trkpt lat="45.75349" lon="6.75022">
        <ele>2597</ele>
        <time>2026-07-29T08:09:11.716Z</time>
      </trkpt>
      <trkpt lat="45.75349" lon="6.75022">
        <ele>2597</ele>
        <time>2026-07-29T08:09:12.716Z</time>
      </trkpt>
      <trkpt lat="45.75348" lon="6.75023">
        <ele>2597</ele>
        <time>2026-07-29T08:09:13.716Z</time>
      </trkpt>
      <trkpt lat="45.75348" lon="6.75024">
        <ele>2596</ele>
        <time>2026-07-29T08:09:14.716Z</time>
      </trkpt>
      <trkpt lat="45.75347" lon="6.75024">
        <ele>2596</ele>
        <time>2026-07-29T08:09:15.716Z</time>
      </trkpt>
      <trkpt lat="45.75347" lon="6.75025">
        <ele>2596</ele>
        <time>2026-07-29T08:09:16.716Z</time>
      </trkpt>
      <trkpt lat="45.75347" lon="6.75025">
        <ele>2596</ele>
        <time>2026-07-29T08:09:17.716Z</time>
      </trkpt>
      <trkpt lat="45.75347" lon="6.75026">
        <ele>2595</ele>
        <time>2026-07-29T08:09:18.716Z</time>
      </trkpt>
      <trkpt lat="45.75347" lon="6.75027">
        <ele>2595</ele>
        <time>2026-07-29T08:09:19.716Z</time>
      </trkpt>
      <trkpt lat="45.75347" lon="6.75028">
        <ele>2594</ele>
        <time>2026-07-29T08:09:20.716Z</time>
      </trkpt>
      <trkpt lat="45.75346" lon="6.75029">
        <ele>2594</ele>
        <time>2026-07-29T08:09:21.716Z</time>
      </trkpt>
      <trkpt lat="45.75347" lon="6.7503">
        <ele>2594</ele>
        <time>2026-07-29T08:09:22.716Z</time>
      </trkpt>
      <trkpt lat="45.75347" lon="6.75031">
        <ele>2594</ele>
        <time>2026-07-29T08:09:23.716Z</time>
      </trkpt>
      <trkpt lat="45.75347" lon="6.75032">
        <ele>2594</ele>
        <time>2026-07-29T08:09:24.716Z</time>
      </trkpt>
      <trkpt lat="45.75347" lon="6.75033">
        <ele>2594</ele>
        <time>2026-07-29T08:09:25.716Z</time>
      </trkpt>
      <trkpt lat="45.75347" lon="6.75034">
        <ele>2594</ele>
        <time>2026-07-29T08:09:26.716Z</time>
      </trkpt>
      <trkpt lat="45.75347" lon="6.75035">
        <ele>2594</ele>
        <time>2026-07-29T08:09:27.716Z</time>
      </trkpt>
      <trkpt lat="45.75347" lon="6.75037">
        <ele>2594</ele>
        <time>2026-07-29T08:09:28.716Z</time>
      </trkpt>
      <trkpt lat="45.75347" lon="6.75037">
        <ele>2594</ele>
        <time>2026-07-29T08:09:29.716Z</time>
      </trkpt>
      <trkpt lat="45.75347" lon="6.75038">
        <ele>2594</ele>
        <time>2026-07-29T08:09:30.716Z</time>
      </trkpt>
      <trkpt lat="45.75347" lon="6.75039">
        <ele>2594</ele>
        <time>2026-07-29T08:09:31.716Z</time>
      </trkpt>
      <trkpt lat="45.75347" lon="6.75039">
        <ele>2594</ele>
        <time>2026-07-29T08:09:32.716Z</time>
      </trkpt>
      <trkpt lat="45.75347" lon="6.75039">
        <ele>2594</ele>
        <time>2026-07-29T08:09:33.716Z</time>
      </trkpt>
      <trkpt lat="45.75347" lon="6.75039">
        <ele>2594</ele>
        <time>2026-07-29T08:09:34.716Z</time>
      </trkpt>
      <trkpt lat="45.75347" lon="6.75039">
        <ele>2594</ele>
        <time>2026-07-29T08:09:35.716Z</time>
      </trkpt>
      <trkpt lat="45.75347" lon="6.75039">
        <ele>2594</ele>
        <time>2026-07-29T08:09:36.716Z</time>
      </trkpt>
      <trkpt lat="45.75347" lon="6.75039">
        <ele>2594</ele>
        <time>2026-07-29T08:09:37.716Z</time>
      </trkpt>
      <trkpt lat="45.75347" lon="6.75039">
        <ele>2594</ele>
        <time>2026-07-29T08:09:38.716Z</time>
      </trkpt>
      <trkpt lat="45.75347" lon="6.75039">
        <ele>2594</ele>
        <time>2026-07-29T08:09:39.716Z</time>
      </trkpt>
      <trkpt lat="45.75347" lon="6.75039">
        <ele>2594</ele>
        <time>2026-07-29T08:09:40.716Z</time>
      </trkpt>
      <trkpt lat="45.75347" lon="6.75039">
        <ele>2594</ele>
        <time>2026-07-29T08:09:41.716Z</time>
      </trkpt>
      <trkpt lat="45.75347" lon="6.75039">
        <ele>2595</ele>
        <time>2026-07-29T08:09:42.716Z</time>
      </trkpt>
      <trkpt lat="45.75347" lon="6.75039">
        <ele>2595</ele>
        <time>2026-07-29T08:09:43.716Z</time>
      </trkpt>
      <trkpt lat="45.75347" lon="6.75039">
        <ele>2595</ele>
        <time>2026-07-29T08:09:44.716Z</time>
      </trkpt>
      <trkpt lat="45.75347" lon="6.75039">
        <ele>2595</ele>
        <time>2026-07-29T08:09:45.716Z</time>
      </trkpt>
      <trkpt lat="45.75347" lon="6.75039">
        <ele>2595</ele>
        <time>2026-07-29T08:09:46.716Z</time>
      </trkpt>
      <trkpt lat="45.75347" lon="6.75039">
        <ele>2595</ele>
        <time>2026-07-29T08:09:47.716Z</time>
      </trkpt>
      <trkpt lat="45.75347" lon="6.75039">
        <ele>2595</ele>
        <time>2026-07-29T08:09:48.716Z</time>
      </trkpt>
      <trkpt lat="45.75347" lon="6.75039">
        <ele>2595</ele>
        <time>2026-07-29T08:09:49.716Z</time>
      </trkpt>
      <trkpt lat="45.75347" lon="6.75039">
        <ele>2595</ele>
        <time>2026-07-29T08:09:50.716Z</time>
      </trkpt>
      <trkpt lat="45.75347" lon="6.75039">
        <ele>2595</ele>
        <time>2026-07-29T08:09:51.716Z</time>
      </trkpt>
      <trkpt lat="45.75347" lon="6.75039">
        <ele>2595</ele>
        <time>2026-07-29T08:09:52.716Z</time>
      </trkpt>
      <trkpt lat="45.75347" lon="6.75039">
        <ele>2596</ele>
        <time>2026-07-29T08:09:53.716Z</time>
      </trkpt>
      <trkpt lat="45.75347" lon="6.75039">
        <ele>2596</ele>
        <time>2026-07-29T08:09:54.716Z</time>
      </trkpt>
      <trkpt lat="45.75347" lon="6.75039">
        <ele>2596</ele>
        <time>2026-07-29T08:09:55.716Z</time>
      </trkpt>
      <trkpt lat="45.75347" lon="6.75039">
        <ele>2596</ele>
        <time>2026-07-29T08:09:56.716Z</time>
      </trkpt>
      <trkpt lat="45.75347" lon="6.75039">
        <ele>2596</ele>
        <time>2026-07-29T08:09:57.716Z</time>
      </trkpt>
      <trkpt lat="45.75347" lon="6.75039">
        <ele>2596</ele>
        <time>2026-07-29T08:09:58.716Z</time>
      </trkpt>
      <trkpt lat="45.75348" lon="6.75039">
        <ele>2595</ele>
        <time>2026-07-29T08:09:59.716Z</time>
      </trkpt>
      <trkpt lat="45.75348" lon="6.7504">
        <ele>2595</ele>
        <time>2026-07-29T08:10:00.716Z</time>
      </trkpt>
      <trkpt lat="45.75348" lon="6.75042">
        <ele>2595</ele>
        <time>2026-07-29T08:10:01.716Z</time>
      </trkpt>
      <trkpt lat="45.75348" lon="6.75043">
        <ele>2595</ele>
        <time>2026-07-29T08:10:02.716Z</time>
      </trkpt>
      <trkpt lat="45.75348" lon="6.75045">
        <ele>2595</ele>
        <time>2026-07-29T08:10:03.716Z</time>
      </trkpt>
      <trkpt lat="45.75348" lon="6.75046">
        <ele>2595</ele>
        <time>2026-07-29T08:10:04.716Z</time>
      </trkpt>
      <trkpt lat="45.75348" lon="6.75048">
        <ele>2594</ele>
        <time>2026-07-29T08:10:05.716Z</time>
      </trkpt>
      <trkpt lat="45.75348" lon="6.7505">
        <ele>2594</ele>
        <time>2026-07-29T08:10:06.716Z</time>
      </trkpt>
      <trkpt lat="45.75348" lon="6.75053">
        <ele>2593</ele>
        <time>2026-07-29T08:10:07.716Z</time>
      </trkpt>
      <trkpt lat="45.75348" lon="6.75056">
        <ele>2593</ele>
        <time>2026-07-29T08:10:08.716Z</time>
      </trkpt>
      <trkpt lat="45.75348" lon="6.75058">
        <ele>2593</ele>
        <time>2026-07-29T08:10:09.716Z</time>
      </trkpt>
      <trkpt lat="45.75348" lon="6.75059">
        <ele>2593</ele>
        <time>2026-07-29T08:10:10.716Z</time>
      </trkpt>
      <trkpt lat="45.75347" lon="6.75061">
        <ele>2593</ele>
        <time>2026-07-29T08:10:11.716Z</time>
      </trkpt>
      <trkpt lat="45.75347" lon="6.75062">
        <ele>2593</ele>
        <time>2026-07-29T08:10:12.716Z</time>
      </trkpt>
      <trkpt lat="45.75347" lon="6.75063">
        <ele>2593</ele>
        <time>2026-07-29T08:10:13.716Z</time>
      </trkpt>
      <trkpt lat="45.75347" lon="6.75064">
        <ele>2593</ele>
        <time>2026-07-29T08:10:14.716Z</time>
      </trkpt>
      <trkpt lat="45.75347" lon="6.75066">
        <ele>2592</ele>
        <time>2026-07-29T08:10:15.716Z</time>
      </trkpt>
      <trkpt lat="45.75347" lon="6.75067">
        <ele>2593</ele>
        <time>2026-07-29T08:10:16.716Z</time>
      </trkpt>
      <trkpt lat="45.75347" lon="6.75069">
        <ele>2593</ele>
        <time>2026-07-29T08:10:17.716Z</time>
      </trkpt>
      <trkpt lat="45.75347" lon="6.7507">
        <ele>2593</ele>
        <time>2026-07-29T08:10:18.716Z</time>
      </trkpt>
      <trkpt lat="45.75347" lon="6.75071">
        <ele>2594</ele>
        <time>2026-07-29T08:10:19.716Z</time>
      </trkpt>
      <trkpt lat="45.75346" lon="6.75072">
        <ele>2594</ele>
        <time>2026-07-29T08:10:20.716Z</time>
      </trkpt>
      <trkpt lat="45.75346" lon="6.75073">
        <ele>2594</ele>
        <time>2026-07-29T08:10:21.716Z</time>
      </trkpt>
      <trkpt lat="45.75346" lon="6.75074">
        <ele>2594</ele>
        <time>2026-07-29T08:10:22.716Z</time>
      </trkpt>
      <trkpt lat="45.75346" lon="6.75075">
        <ele>2594</ele>
        <time>2026-07-29T08:10:23.716Z</time>
      </trkpt>
      <trkpt lat="45.75346" lon="6.75076">
        <ele>2595</ele>
        <time>2026-07-29T08:10:24.716Z</time>
      </trkpt>
      <trkpt lat="45.75346" lon="6.75076">
        <ele>2595</ele>
        <time>2026-07-29T08:10:25.716Z</time>
      </trkpt>
      <trkpt lat="45.75346" lon="6.75077">
        <ele>2595</ele>
        <time>2026-07-29T08:10:26.716Z</time>
      </trkpt>
      <trkpt lat="45.75346" lon="6.75077">
        <ele>2595</ele>
        <time>2026-07-29T08:10:27.716Z</time>
      </trkpt>
      <trkpt lat="45.75347" lon="6.75078">
        <ele>2596</ele>
        <time>2026-07-29T08:10:28.716Z</time>
      </trkpt>
      <trkpt lat="45.75347" lon="6.75078">
        <ele>2596</ele>
        <time>2026-07-29T08:10:29.716Z</time>
      </trkpt>
      <trkpt lat="45.75348" lon="6.75079">
        <ele>2596</ele>
        <time>2026-07-29T08:10:30.716Z</time>
      </trkpt>
      <trkpt lat="45.75349" lon="6.75079">
        <ele>2596</ele>
        <time>2026-07-29T08:10:31.716Z</time>
      </trkpt>
      <trkpt lat="45.7535" lon="6.7508">
        <ele>2596</ele>
        <time>2026-07-29T08:10:32.716Z</time>
      </trkpt>
      <trkpt lat="45.75351" lon="6.7508">
        <ele>2595</ele>
        <time>2026-07-29T08:10:33.716Z</time>
      </trkpt>
      <trkpt lat="45.75352" lon="6.75081">
        <ele>2595</ele>
        <time>2026-07-29T08:10:34.716Z</time>
      </trkpt>
      <trkpt lat="45.75352" lon="6.75081">
        <ele>2595</ele>
        <time>2026-07-29T08:10:35.716Z</time>
      </trkpt>
      <trkpt lat="45.75353" lon="6.75082">
        <ele>2595</ele>
        <time>2026-07-29T08:10:36.716Z</time>
      </trkpt>
      <trkpt lat="45.75354" lon="6.75082">
        <ele>2595</ele>
        <time>2026-07-29T08:10:37.716Z</time>
      </trkpt>
      <trkpt lat="45.75355" lon="6.75083">
        <ele>2594</ele>
        <time>2026-07-29T08:10:38.716Z</time>
      </trkpt>
      <trkpt lat="45.75356" lon="6.75082">
        <ele>2594</ele>
        <time>2026-07-29T08:10:39.716Z</time>
      </trkpt>
      <trkpt lat="45.75357" lon="6.75082">
        <ele>2594</ele>
        <time>2026-07-29T08:10:40.716Z</time>
      </trkpt>
      <trkpt lat="45.75358" lon="6.75081">
        <ele>2594</ele>
        <time>2026-07-29T08:10:41.716Z</time>
      </trkpt>
      <trkpt lat="45.75358" lon="6.75081">
        <ele>2594</ele>
        <time>2026-07-29T08:10:42.716Z</time>
      </trkpt>
      <trkpt lat="45.75359" lon="6.7508">
        <ele>2595</ele>
        <time>2026-07-29T08:10:43.716Z</time>
      </trkpt>
      <trkpt lat="45.75359" lon="6.7508">
        <ele>2595</ele>
        <time>2026-07-29T08:10:44.716Z</time>
      </trkpt>
      <trkpt lat="45.7536" lon="6.75079">
        <ele>2595</ele>
        <time>2026-07-29T08:10:45.716Z</time>
      </trkpt>
      <trkpt lat="45.7536" lon="6.75079">
        <ele>2596</ele>
        <time>2026-07-29T08:10:46.716Z</time>
      </trkpt>
      <trkpt lat="45.75361" lon="6.75078">
        <ele>2596</ele>
        <time>2026-07-29T08:10:47.716Z</time>
      </trkpt>
      <trkpt lat="45.75361" lon="6.75078">
        <ele>2596</ele>
        <time>2026-07-29T08:10:48.716Z</time>
      </trkpt>
      <trkpt lat="45.75361" lon="6.75078">
        <ele>2595</ele>
        <time>2026-07-29T08:10:49.716Z</time>
      </trkpt>
      <trkpt lat="45.75361" lon="6.75078">
        <ele>2595</ele>
        <time>2026-07-29T08:10:50.716Z</time>
      </trkpt>
      <trkpt lat="45.75362" lon="6.75079">
        <ele>2595</ele>
        <time>2026-07-29T08:10:51.716Z</time>
      </trkpt>
      <trkpt lat="45.75362" lon="6.75079">
        <ele>2595</ele>
        <time>2026-07-29T08:10:52.716Z</time>
      </trkpt>
      <trkpt lat="45.75362" lon="6.75079">
        <ele>2595</ele>
        <time>2026-07-29T08:10:53.716Z</time>
      </trkpt>
      <trkpt lat="45.75362" lon="6.75079">
        <ele>2596</ele>
        <time>2026-07-29T08:10:54.716Z</time>
      </trkpt>
      <trkpt lat="45.75361" lon="6.75079">
        <ele>2596</ele>
        <time>2026-07-29T08:10:55.716Z</time>
      </trkpt>
      <trkpt lat="45.75361" lon="6.75079">
        <ele>2596</ele>
        <time>2026-07-29T08:10:56.716Z</time>
      </trkpt>
      <trkpt lat="45.75361" lon="6.75079">
        <ele>2597</ele>
        <time>2026-07-29T08:10:57.716Z</time>
      </trkpt>
      <trkpt lat="45.75361" lon="6.75079">
        <ele>2597</ele>
        <time>2026-07-29T08:10:58.716Z</time>
      </trkpt>
      <trkpt lat="45.75361" lon="6.75078">
        <ele>2597</ele>
        <time>2026-07-29T08:10:59.716Z</time>
      </trkpt>
      <trkpt lat="45.7536" lon="6.75077">
        <ele>2597</ele>
        <time>2026-07-29T08:11:00.716Z</time>
      </trkpt>
      <trkpt lat="45.7536" lon="6.75077">
        <ele>2596</ele>
        <time>2026-07-29T08:11:01.716Z</time>
      </trkpt>
      <trkpt lat="45.75359" lon="6.75076">
        <ele>2596</ele>
        <time>2026-07-29T08:11:02.716Z</time>
      </trkpt>
      <trkpt lat="45.75358" lon="6.75076">
        <ele>2596</ele>
        <time>2026-07-29T08:11:03.716Z</time>
      </trkpt>
      <trkpt lat="45.75357" lon="6.75076">
        <ele>2595</ele>
        <time>2026-07-29T08:11:04.716Z</time>
      </trkpt>
      <trkpt lat="45.75356" lon="6.75075">
        <ele>2595</ele>
        <time>2026-07-29T08:11:05.716Z</time>
      </trkpt>
      <trkpt lat="45.75356" lon="6.75076">
        <ele>2595</ele>
        <time>2026-07-29T08:11:06.716Z</time>
      </trkpt>
      <trkpt lat="45.75355" lon="6.75076">
        <ele>2595</ele>
        <time>2026-07-29T08:11:07.716Z</time>
      </trkpt>
      <trkpt lat="45.75355" lon="6.75077">
        <ele>2595</ele>
        <time>2026-07-29T08:11:08.716Z</time>
      </trkpt>
      <trkpt lat="45.75355" lon="6.75079">
        <ele>2595</ele>
        <time>2026-07-29T08:11:09.716Z</time>
      </trkpt>
      <trkpt lat="45.75355" lon="6.7508">
        <ele>2595</ele>
        <time>2026-07-29T08:11:10.716Z</time>
      </trkpt>
      <trkpt lat="45.75355" lon="6.75081">
        <ele>2595</ele>
        <time>2026-07-29T08:11:11.716Z</time>
      </trkpt>
      <trkpt lat="45.75354" lon="6.75082">
        <ele>2594</ele>
        <time>2026-07-29T08:11:12.716Z</time>
      </trkpt>
      <trkpt lat="45.75353" lon="6.75082">
        <ele>2594</ele>
        <time>2026-07-29T08:11:13.716Z</time>
      </trkpt>
      <trkpt lat="45.75352" lon="6.75083">
        <ele>2594</ele>
        <time>2026-07-29T08:11:14.716Z</time>
      </trkpt>
      <trkpt lat="45.75351" lon="6.75082">
        <ele>2594</ele>
        <time>2026-07-29T08:11:15.716Z</time>
      </trkpt>
      <trkpt lat="45.7535" lon="6.75082">
        <ele>2594</ele>
        <time>2026-07-29T08:11:16.716Z</time>
      </trkpt>
      <trkpt lat="45.75349" lon="6.75081">
        <ele>2594</ele>
        <time>2026-07-29T08:11:17.716Z</time>
      </trkpt>
      <trkpt lat="45.75347" lon="6.7508">
        <ele>2594</ele>
        <time>2026-07-29T08:11:18.716Z</time>
      </trkpt>
      <trkpt lat="45.75346" lon="6.75079">
        <ele>2593</ele>
        <time>2026-07-29T08:11:19.716Z</time>
      </trkpt>
      <trkpt lat="45.75345" lon="6.75078">
        <ele>2593</ele>
        <time>2026-07-29T08:11:20.716Z</time>
      </trkpt>
      <trkpt lat="45.75344" lon="6.75077">
        <ele>2593</ele>
        <time>2026-07-29T08:11:21.716Z</time>
      </trkpt>
      <trkpt lat="45.75343" lon="6.75076">
        <ele>2593</ele>
        <time>2026-07-29T08:11:22.716Z</time>
      </trkpt>
      <trkpt lat="45.75342" lon="6.75075">
        <ele>2593</ele>
        <time>2026-07-29T08:11:23.716Z</time>
      </trkpt>
      <trkpt lat="45.75341" lon="6.75074">
        <ele>2592</ele>
        <time>2026-07-29T08:11:24.716Z</time>
      </trkpt>
      <trkpt lat="45.75341" lon="6.75073">
        <ele>2592</ele>
        <time>2026-07-29T08:11:25.716Z</time>
      </trkpt>
      <trkpt lat="45.7534" lon="6.75073">
        <ele>2592</ele>
        <time>2026-07-29T08:11:26.716Z</time>
      </trkpt>
      <trkpt lat="45.7534" lon="6.75072">
        <ele>2592</ele>
        <time>2026-07-29T08:11:27.716Z</time>
      </trkpt>
      <trkpt lat="45.75339" lon="6.75071">
        <ele>2592</ele>
        <time>2026-07-29T08:11:28.716Z</time>
      </trkpt>
      <trkpt lat="45.75338" lon="6.7507">
        <ele>2591</ele>
        <time>2026-07-29T08:11:29.716Z</time>
      </trkpt>
      <trkpt lat="45.75337" lon="6.7507">
        <ele>2591</ele>
        <time>2026-07-29T08:11:30.716Z</time>
      </trkpt>
      <trkpt lat="45.75337" lon="6.7507">
        <ele>2591</ele>
        <time>2026-07-29T08:11:31.716Z</time>
      </trkpt>
      <trkpt lat="45.75336" lon="6.7507">
        <ele>2590</ele>
        <time>2026-07-29T08:11:32.716Z</time>
      </trkpt>
      <trkpt lat="45.75335" lon="6.7507">
        <ele>2590</ele>
        <time>2026-07-29T08:11:33.716Z</time>
      </trkpt>
      <trkpt lat="45.75335" lon="6.75069">
        <ele>2589</ele>
        <time>2026-07-29T08:11:34.716Z</time>
      </trkpt>
      <trkpt lat="45.75334" lon="6.75068">
        <ele>2589</ele>
        <time>2026-07-29T08:11:35.716Z</time>
      </trkpt>
      <trkpt lat="45.75334" lon="6.75067">
        <ele>2589</ele>
        <time>2026-07-29T08:11:36.716Z</time>
      </trkpt>
      <trkpt lat="45.75333" lon="6.75066">
        <ele>2589</ele>
        <time>2026-07-29T08:11:37.716Z</time>
      </trkpt>
      <trkpt lat="45.75333" lon="6.75066">
        <ele>2589</ele>
        <time>2026-07-29T08:11:38.716Z</time>
      </trkpt>
      <trkpt lat="45.75332" lon="6.75066">
        <ele>2589</ele>
        <time>2026-07-29T08:11:39.716Z</time>
      </trkpt>
      <trkpt lat="45.75332" lon="6.75066">
        <ele>2589</ele>
        <time>2026-07-29T08:11:40.716Z</time>
      </trkpt>
      <trkpt lat="45.75332" lon="6.75066">
        <ele>2588</ele>
        <time>2026-07-29T08:11:41.716Z</time>
      </trkpt>
      <trkpt lat="45.75331" lon="6.75066">
        <ele>2588</ele>
        <time>2026-07-29T08:11:42.716Z</time>
      </trkpt>
      <trkpt lat="45.7533" lon="6.75066">
        <ele>2588</ele>
        <time>2026-07-29T08:11:43.716Z</time>
      </trkpt>
      <trkpt lat="45.75329" lon="6.75066">
        <ele>2588</ele>
        <time>2026-07-29T08:11:44.716Z</time>
      </trkpt>
      <trkpt lat="45.75329" lon="6.75066">
        <ele>2588</ele>
        <time>2026-07-29T08:11:45.716Z</time>
      </trkpt>
      <trkpt lat="45.75328" lon="6.75066">
        <ele>2588</ele>
        <time>2026-07-29T08:11:46.716Z</time>
      </trkpt>
      <trkpt lat="45.75327" lon="6.75066">
        <ele>2588</ele>
        <time>2026-07-29T08:11:47.716Z</time>
      </trkpt>
      <trkpt lat="45.75326" lon="6.75065">
        <ele>2588</ele>
        <time>2026-07-29T08:11:48.716Z</time>
      </trkpt>
      <trkpt lat="45.75326" lon="6.75064">
        <ele>2588</ele>
        <time>2026-07-29T08:11:49.716Z</time>
      </trkpt>
      <trkpt lat="45.75325" lon="6.75062">
        <ele>2588</ele>
        <time>2026-07-29T08:11:50.716Z</time>
      </trkpt>
      <trkpt lat="45.75325" lon="6.75061">
        <ele>2588</ele>
        <time>2026-07-29T08:11:51.716Z</time>
      </trkpt>
      <trkpt lat="45.75324" lon="6.75059">
        <ele>2588</ele>
        <time>2026-07-29T08:11:52.716Z</time>
      </trkpt>
      <trkpt lat="45.75323" lon="6.75058">
        <ele>2587</ele>
        <time>2026-07-29T08:11:53.716Z</time>
      </trkpt>
      <trkpt lat="45.75322" lon="6.75056">
        <ele>2586</ele>
        <time>2026-07-29T08:11:54.716Z</time>
      </trkpt>
      <trkpt lat="45.75321" lon="6.75055">
        <ele>2586</ele>
        <time>2026-07-29T08:11:55.716Z</time>
      </trkpt>
      <trkpt lat="45.7532" lon="6.75054">
        <ele>2586</ele>
        <time>2026-07-29T08:11:56.716Z</time>
      </trkpt>
      <trkpt lat="45.75319" lon="6.75053">
        <ele>2585</ele>
        <time>2026-07-29T08:11:57.716Z</time>
      </trkpt>
      <trkpt lat="45.75317" lon="6.75052">
        <ele>2585</ele>
        <time>2026-07-29T08:11:58.716Z</time>
      </trkpt>
      <trkpt lat="45.75316" lon="6.75052">
        <ele>2585</ele>
        <time>2026-07-29T08:11:59.716Z</time>
      </trkpt>
      <trkpt lat="45.75315" lon="6.75052">
        <ele>2584</ele>
        <time>2026-07-29T08:12:00.716Z</time>
      </trkpt>
      <trkpt lat="45.75314" lon="6.75052">
        <ele>2584</ele>
        <time>2026-07-29T08:12:01.716Z</time>
      </trkpt>
      <trkpt lat="45.75313" lon="6.75053">
        <ele>2583</ele>
        <time>2026-07-29T08:12:02.716Z</time>
      </trkpt>
      <trkpt lat="45.75312" lon="6.75053">
        <ele>2583</ele>
        <time>2026-07-29T08:12:03.716Z</time>
      </trkpt>
      <trkpt lat="45.75311" lon="6.75054">
        <ele>2583</ele>
        <time>2026-07-29T08:12:04.716Z</time>
      </trkpt>
      <trkpt lat="45.7531" lon="6.75054">
        <ele>2583</ele>
        <time>2026-07-29T08:12:05.716Z</time>
      </trkpt>
      <trkpt lat="45.7531" lon="6.75055">
        <ele>2583</ele>
        <time>2026-07-29T08:12:06.716Z</time>
      </trkpt>
      <trkpt lat="45.75309" lon="6.75055">
        <ele>2582</ele>
        <time>2026-07-29T08:12:07.716Z</time>
      </trkpt>
      <trkpt lat="45.75308" lon="6.75056">
        <ele>2582</ele>
        <time>2026-07-29T08:12:08.716Z</time>
      </trkpt>
      <trkpt lat="45.75308" lon="6.75056">
        <ele>2582</ele>
        <time>2026-07-29T08:12:09.716Z</time>
      </trkpt>
      <trkpt lat="45.75307" lon="6.75057">
        <ele>2581</ele>
        <time>2026-07-29T08:12:10.716Z</time>
      </trkpt>
      <trkpt lat="45.75306" lon="6.75058">
        <ele>2581</ele>
        <time>2026-07-29T08:12:11.716Z</time>
      </trkpt>
      <trkpt lat="45.75305" lon="6.75058">
        <ele>2580</ele>
        <time>2026-07-29T08:12:12.716Z</time>
      </trkpt>
      <trkpt lat="45.75304" lon="6.75059">
        <ele>2580</ele>
        <time>2026-07-29T08:12:13.716Z</time>
      </trkpt>
      <trkpt lat="45.75303" lon="6.75059">
        <ele>2580</ele>
        <time>2026-07-29T08:12:14.716Z</time>
      </trkpt>
      <trkpt lat="45.75303" lon="6.7506">
        <ele>2579</ele>
        <time>2026-07-29T08:12:15.716Z</time>
      </trkpt>
      <trkpt lat="45.75302" lon="6.7506">
        <ele>2579</ele>
        <time>2026-07-29T08:12:16.716Z</time>
      </trkpt>
      <trkpt lat="45.75302" lon="6.75059">
        <ele>2578</ele>
        <time>2026-07-29T08:12:17.716Z</time>
      </trkpt>
      <trkpt lat="45.75301" lon="6.75058">
        <ele>2578</ele>
        <time>2026-07-29T08:12:18.716Z</time>
      </trkpt>
      <trkpt lat="45.753" lon="6.75058">
        <ele>2578</ele>
        <time>2026-07-29T08:12:19.716Z</time>
      </trkpt>
      <trkpt lat="45.75299" lon="6.75057">
        <ele>2577</ele>
        <time>2026-07-29T08:12:20.716Z</time>
      </trkpt>
      <trkpt lat="45.75299" lon="6.75057">
        <ele>2577</ele>
        <time>2026-07-29T08:12:21.716Z</time>
      </trkpt>
      <trkpt lat="45.75299" lon="6.75056">
        <ele>2577</ele>
        <time>2026-07-29T08:12:22.716Z</time>
      </trkpt>
      <trkpt lat="45.75299" lon="6.75055">
        <ele>2576</ele>
        <time>2026-07-29T08:12:23.716Z</time>
      </trkpt>
      <trkpt lat="45.75298" lon="6.75054">
        <ele>2576</ele>
        <time>2026-07-29T08:12:24.716Z</time>
      </trkpt>
      <trkpt lat="45.75297" lon="6.75053">
        <ele>2575</ele>
        <time>2026-07-29T08:12:25.716Z</time>
      </trkpt>
      <trkpt lat="45.75297" lon="6.75053">
        <ele>2575</ele>
        <time>2026-07-29T08:12:26.716Z</time>
      </trkpt>
      <trkpt lat="45.75296" lon="6.75052">
        <ele>2575</ele>
        <time>2026-07-29T08:12:27.716Z</time>
      </trkpt>
      <trkpt lat="45.75296" lon="6.75051">
        <ele>2575</ele>
        <time>2026-07-29T08:12:28.716Z</time>
      </trkpt>
      <trkpt lat="45.75295" lon="6.75051">
        <ele>2575</ele>
        <time>2026-07-29T08:12:29.716Z</time>
      </trkpt>
      <trkpt lat="45.75294" lon="6.75051">
        <ele>2574</ele>
        <time>2026-07-29T08:12:30.716Z</time>
      </trkpt>
      <trkpt lat="45.75293" lon="6.75051">
        <ele>2574</ele>
        <time>2026-07-29T08:12:31.716Z</time>
      </trkpt>
      <trkpt lat="45.75292" lon="6.7505">
        <ele>2573</ele>
        <time>2026-07-29T08:12:32.716Z</time>
      </trkpt>
      <trkpt lat="45.75291" lon="6.7505">
        <ele>2573</ele>
        <time>2026-07-29T08:12:33.716Z</time>
      </trkpt>
      <trkpt lat="45.7529" lon="6.75049">
        <ele>2572</ele>
        <time>2026-07-29T08:12:34.716Z</time>
      </trkpt>
      <trkpt lat="45.75289" lon="6.75049">
        <ele>2572</ele>
        <time>2026-07-29T08:12:35.716Z</time>
      </trkpt>
      <trkpt lat="45.75289" lon="6.75049">
        <ele>2571</ele>
        <time>2026-07-29T08:12:36.716Z</time>
      </trkpt>
      <trkpt lat="45.75288" lon="6.75048">
        <ele>2571</ele>
        <time>2026-07-29T08:12:37.716Z</time>
      </trkpt>
      <trkpt lat="45.75288" lon="6.75047">
        <ele>2571</ele>
        <time>2026-07-29T08:12:38.716Z</time>
      </trkpt>
      <trkpt lat="45.75287" lon="6.75046">
        <ele>2570</ele>
        <time>2026-07-29T08:12:39.716Z</time>
      </trkpt>
      <trkpt lat="45.75287" lon="6.75045">
        <ele>2570</ele>
        <time>2026-07-29T08:12:40.716Z</time>
      </trkpt>
      <trkpt lat="45.75287" lon="6.75044">
        <ele>2570</ele>
        <time>2026-07-29T08:12:41.716Z</time>
      </trkpt>
      <trkpt lat="45.75286" lon="6.75042">
        <ele>2570</ele>
        <time>2026-07-29T08:12:42.716Z</time>
      </trkpt>
      <trkpt lat="45.75286" lon="6.75041">
        <ele>2569</ele>
        <time>2026-07-29T08:12:43.716Z</time>
      </trkpt>
      <trkpt lat="45.75285" lon="6.75041">
        <ele>2569</ele>
        <time>2026-07-29T08:12:44.716Z</time>
      </trkpt>
      <trkpt lat="45.75284" lon="6.7504">
        <ele>2569</ele>
        <time>2026-07-29T08:12:45.716Z</time>
      </trkpt>
      <trkpt lat="45.75283" lon="6.75041">
        <ele>2569</ele>
        <time>2026-07-29T08:12:46.716Z</time>
      </trkpt>
      <trkpt lat="45.75282" lon="6.75041">
        <ele>2568</ele>
        <time>2026-07-29T08:12:47.716Z</time>
      </trkpt>
      <trkpt lat="45.75281" lon="6.75041">
        <ele>2568</ele>
        <time>2026-07-29T08:12:48.716Z</time>
      </trkpt>
      <trkpt lat="45.7528" lon="6.75041">
        <ele>2568</ele>
        <time>2026-07-29T08:12:49.716Z</time>
      </trkpt>
      <trkpt lat="45.75279" lon="6.75041">
        <ele>2568</ele>
        <time>2026-07-29T08:12:50.716Z</time>
      </trkpt>
      <trkpt lat="45.75278" lon="6.7504">
        <ele>2568</ele>
        <time>2026-07-29T08:12:51.716Z</time>
      </trkpt>
      <trkpt lat="45.75277" lon="6.75039">
        <ele>2567</ele>
        <time>2026-07-29T08:12:52.716Z</time>
      </trkpt>
      <trkpt lat="45.75276" lon="6.75039">
        <ele>2567</ele>
        <time>2026-07-29T08:12:53.716Z</time>
      </trkpt>
      <trkpt lat="45.75276" lon="6.75039">
        <ele>2567</ele>
        <time>2026-07-29T08:12:54.716Z</time>
      </trkpt>
      <trkpt lat="45.75275" lon="6.75038">
        <ele>2566</ele>
        <time>2026-07-29T08:12:55.716Z</time>
      </trkpt>
      <trkpt lat="45.75274" lon="6.75038">
        <ele>2566</ele>
        <time>2026-07-29T08:12:56.716Z</time>
      </trkpt>
      <trkpt lat="45.75274" lon="6.75038">
        <ele>2566</ele>
        <time>2026-07-29T08:12:57.716Z</time>
      </trkpt>
      <trkpt lat="45.75273" lon="6.75038">
        <ele>2566</ele>
        <time>2026-07-29T08:12:58.716Z</time>
      </trkpt>
      <trkpt lat="45.75273" lon="6.75038">
        <ele>2565</ele>
        <time>2026-07-29T08:12:59.716Z</time>
      </trkpt>
      <trkpt lat="45.75272" lon="6.75038">
        <ele>2565</ele>
        <time>2026-07-29T08:13:00.716Z</time>
      </trkpt>
      <trkpt lat="45.75272" lon="6.75037">
        <ele>2565</ele>
        <time>2026-07-29T08:13:01.716Z</time>
      </trkpt>
      <trkpt lat="45.75272" lon="6.75037">
        <ele>2565</ele>
        <time>2026-07-29T08:13:02.716Z</time>
      </trkpt>
      <trkpt lat="45.75271" lon="6.75036">
        <ele>2565</ele>
        <time>2026-07-29T08:13:03.716Z</time>
      </trkpt>
      <trkpt lat="45.7527" lon="6.75035">
        <ele>2565</ele>
        <time>2026-07-29T08:13:04.716Z</time>
      </trkpt>
      <trkpt lat="45.75269" lon="6.75034">
        <ele>2565</ele>
        <time>2026-07-29T08:13:05.716Z</time>
      </trkpt>
      <trkpt lat="45.75268" lon="6.75034">
        <ele>2564</ele>
        <time>2026-07-29T08:13:06.716Z</time>
      </trkpt>
      <trkpt lat="45.75267" lon="6.75034">
        <ele>2564</ele>
        <time>2026-07-29T08:13:07.716Z</time>
      </trkpt>
      <trkpt lat="45.75267" lon="6.75033">
        <ele>2564</ele>
        <time>2026-07-29T08:13:08.716Z</time>
      </trkpt>
      <trkpt lat="45.75265" lon="6.75033">
        <ele>2564</ele>
        <time>2026-07-29T08:13:09.716Z</time>
      </trkpt>
      <trkpt lat="45.75264" lon="6.75033">
        <ele>2563</ele>
        <time>2026-07-29T08:13:10.716Z</time>
      </trkpt>
      <trkpt lat="45.75263" lon="6.75033">
        <ele>2563</ele>
        <time>2026-07-29T08:13:11.716Z</time>
      </trkpt>
      <trkpt lat="45.75261" lon="6.75032">
        <ele>2563</ele>
        <time>2026-07-29T08:13:12.716Z</time>
      </trkpt>
      <trkpt lat="45.7526" lon="6.75031">
        <ele>2563</ele>
        <time>2026-07-29T08:13:13.716Z</time>
      </trkpt>
      <trkpt lat="45.75259" lon="6.75031">
        <ele>2563</ele>
        <time>2026-07-29T08:13:14.716Z</time>
      </trkpt>
      <trkpt lat="45.75258" lon="6.75031">
        <ele>2564</ele>
        <time>2026-07-29T08:13:15.716Z</time>
      </trkpt>
      <trkpt lat="45.75257" lon="6.7503">
        <ele>2564</ele>
        <time>2026-07-29T08:13:16.716Z</time>
      </trkpt>
      <trkpt lat="45.75255" lon="6.7503">
        <ele>2564</ele>
        <time>2026-07-29T08:13:17.716Z</time>
      </trkpt>
      <trkpt lat="45.75254" lon="6.7503">
        <ele>2564</ele>
        <time>2026-07-29T08:13:18.716Z</time>
      </trkpt>
      <trkpt lat="45.75253" lon="6.75029">
        <ele>2564</ele>
        <time>2026-07-29T08:13:19.716Z</time>
      </trkpt>
      <trkpt lat="45.75252" lon="6.75029">
        <ele>2564</ele>
        <time>2026-07-29T08:13:20.716Z</time>
      </trkpt>
      <trkpt lat="45.7525" lon="6.7503">
        <ele>2564</ele>
        <time>2026-07-29T08:13:21.716Z</time>
      </trkpt>
      <trkpt lat="45.75249" lon="6.7503">
        <ele>2564</ele>
        <time>2026-07-29T08:13:22.716Z</time>
      </trkpt>
      <trkpt lat="45.75248" lon="6.75029">
        <ele>2564</ele>
        <time>2026-07-29T08:13:23.716Z</time>
      </trkpt>
      <trkpt lat="45.75247" lon="6.75029">
        <ele>2564</ele>
        <time>2026-07-29T08:13:24.716Z</time>
      </trkpt>
      <trkpt lat="45.75246" lon="6.75028">
        <ele>2564</ele>
        <time>2026-07-29T08:13:25.716Z</time>
      </trkpt>
      <trkpt lat="45.75245" lon="6.75028">
        <ele>2563</ele>
        <time>2026-07-29T08:13:26.716Z</time>
      </trkpt>
      <trkpt lat="45.75244" lon="6.75029">
        <ele>2563</ele>
        <time>2026-07-29T08:13:27.716Z</time>
      </trkpt>
      <trkpt lat="45.75244" lon="6.75029">
        <ele>2563</ele>
        <time>2026-07-29T08:13:28.716Z</time>
      </trkpt>
      <trkpt lat="45.75243" lon="6.75031">
        <ele>2562</ele>
        <time>2026-07-29T08:13:29.716Z</time>
      </trkpt>
      <trkpt lat="45.75242" lon="6.75032">
        <ele>2562</ele>
        <time>2026-07-29T08:13:30.716Z</time>
      </trkpt>
      <trkpt lat="45.75241" lon="6.75032">
        <ele>2562</ele>
        <time>2026-07-29T08:13:31.716Z</time>
      </trkpt>
      <trkpt lat="45.7524" lon="6.75032">
        <ele>2562</ele>
        <time>2026-07-29T08:13:32.716Z</time>
      </trkpt>
      <trkpt lat="45.75239" lon="6.75032">
        <ele>2562</ele>
        <time>2026-07-29T08:13:33.716Z</time>
      </trkpt>
      <trkpt lat="45.75239" lon="6.75033">
        <ele>2562</ele>
        <time>2026-07-29T08:13:34.716Z</time>
      </trkpt>
      <trkpt lat="45.75238" lon="6.75032">
        <ele>2562</ele>
        <time>2026-07-29T08:13:35.716Z</time>
      </trkpt>
      <trkpt lat="45.75237" lon="6.75032">
        <ele>2562</ele>
        <time>2026-07-29T08:13:36.716Z</time>
      </trkpt>
      <trkpt lat="45.75237" lon="6.75031">
        <ele>2561</ele>
        <time>2026-07-29T08:13:37.716Z</time>
      </trkpt>
      <trkpt lat="45.75236" lon="6.7503">
        <ele>2561</ele>
        <time>2026-07-29T08:13:38.716Z</time>
      </trkpt>
      <trkpt lat="45.75236" lon="6.7503">
        <ele>2561</ele>
        <time>2026-07-29T08:13:39.716Z</time>
      </trkpt>
      <trkpt lat="45.75235" lon="6.7503">
        <ele>2561</ele>
        <time>2026-07-29T08:13:40.716Z</time>
      </trkpt>
      <trkpt lat="45.75234" lon="6.7503">
        <ele>2561</ele>
        <time>2026-07-29T08:13:41.716Z</time>
      </trkpt>
      <trkpt lat="45.75234" lon="6.75029">
        <ele>2561</ele>
        <time>2026-07-29T08:13:42.716Z</time>
      </trkpt>
      <trkpt lat="45.75233" lon="6.75029">
        <ele>2561</ele>
        <time>2026-07-29T08:13:43.716Z</time>
      </trkpt>
      <trkpt lat="45.75233" lon="6.75029">
        <ele>2561</ele>
        <time>2026-07-29T08:13:44.716Z</time>
      </trkpt>
      <trkpt lat="45.75232" lon="6.75029">
        <ele>2561</ele>
        <time>2026-07-29T08:13:45.716Z</time>
      </trkpt>
      <trkpt lat="45.75231" lon="6.75029">
        <ele>2561</ele>
        <time>2026-07-29T08:13:46.716Z</time>
      </trkpt>
      <trkpt lat="45.7523" lon="6.7503">
        <ele>2561</ele>
        <time>2026-07-29T08:13:47.716Z</time>
      </trkpt>
      <trkpt lat="45.75229" lon="6.75029">
        <ele>2561</ele>
        <time>2026-07-29T08:13:48.716Z</time>
      </trkpt>
      <trkpt lat="45.75227" lon="6.7503">
        <ele>2561</ele>
        <time>2026-07-29T08:13:49.716Z</time>
      </trkpt>
      <trkpt lat="45.75226" lon="6.7503">
        <ele>2561</ele>
        <time>2026-07-29T08:13:50.716Z</time>
      </trkpt>
      <trkpt lat="45.75226" lon="6.75029">
        <ele>2561</ele>
        <time>2026-07-29T08:13:51.716Z</time>
      </trkpt>
      <trkpt lat="45.75225" lon="6.75028">
        <ele>2560</ele>
        <time>2026-07-29T08:13:52.716Z</time>
      </trkpt>
      <trkpt lat="45.75225" lon="6.75027">
        <ele>2560</ele>
        <time>2026-07-29T08:13:53.716Z</time>
      </trkpt>
      <trkpt lat="45.75224" lon="6.75026">
        <ele>2559</ele>
        <time>2026-07-29T08:13:54.716Z</time>
      </trkpt>
      <trkpt lat="45.75223" lon="6.75025">
        <ele>2559</ele>
        <time>2026-07-29T08:13:55.716Z</time>
      </trkpt>
      <trkpt lat="45.75222" lon="6.75025">
        <ele>2559</ele>
        <time>2026-07-29T08:13:56.716Z</time>
      </trkpt>
      <trkpt lat="45.75221" lon="6.75025">
        <ele>2559</ele>
        <time>2026-07-29T08:13:57.716Z</time>
      </trkpt>
      <trkpt lat="45.75219" lon="6.75025">
        <ele>2558</ele>
        <time>2026-07-29T08:13:58.716Z</time>
      </trkpt>
      <trkpt lat="45.75218" lon="6.75025">
        <ele>2558</ele>
        <time>2026-07-29T08:13:59.716Z</time>
      </trkpt>
      <trkpt lat="45.75217" lon="6.75025">
        <ele>2557</ele>
        <time>2026-07-29T08:14:00.716Z</time>
      </trkpt>
      <trkpt lat="45.75215" lon="6.75025">
        <ele>2557</ele>
        <time>2026-07-29T08:14:01.716Z</time>
      </trkpt>
      <trkpt lat="45.75214" lon="6.75026">
        <ele>2556</ele>
        <time>2026-07-29T08:14:02.716Z</time>
      </trkpt>
      <trkpt lat="45.75213" lon="6.75027">
        <ele>2555</ele>
        <time>2026-07-29T08:14:03.716Z</time>
      </trkpt>
      <trkpt lat="45.75212" lon="6.75028">
        <ele>2555</ele>
        <time>2026-07-29T08:14:04.716Z</time>
      </trkpt>
      <trkpt lat="45.7521" lon="6.75029">
        <ele>2555</ele>
        <time>2026-07-29T08:14:05.716Z</time>
      </trkpt>
      <trkpt lat="45.7521" lon="6.75029">
        <ele>2555</ele>
        <time>2026-07-29T08:14:06.716Z</time>
      </trkpt>
      <trkpt lat="45.75209" lon="6.75029">
        <ele>2555</ele>
        <time>2026-07-29T08:14:07.716Z</time>
      </trkpt>
      <trkpt lat="45.75209" lon="6.75029">
        <ele>2555</ele>
        <time>2026-07-29T08:14:08.716Z</time>
      </trkpt>
      <trkpt lat="45.75208" lon="6.75029">
        <ele>2555</ele>
        <time>2026-07-29T08:14:09.716Z</time>
      </trkpt>
      <trkpt lat="45.75207" lon="6.75029">
        <ele>2554</ele>
        <time>2026-07-29T08:14:10.716Z</time>
      </trkpt>
      <trkpt lat="45.75206" lon="6.75029">
        <ele>2554</ele>
        <time>2026-07-29T08:14:11.716Z</time>
      </trkpt>
      <trkpt lat="45.75206" lon="6.75029">
        <ele>2554</ele>
        <time>2026-07-29T08:14:12.716Z</time>
      </trkpt>
      <trkpt lat="45.75205" lon="6.75028">
        <ele>2554</ele>
        <time>2026-07-29T08:14:13.716Z</time>
      </trkpt>
      <trkpt lat="45.75205" lon="6.75027">
        <ele>2553</ele>
        <time>2026-07-29T08:14:14.716Z</time>
      </trkpt>
      <trkpt lat="45.75204" lon="6.75027">
        <ele>2552</ele>
        <time>2026-07-29T08:14:15.716Z</time>
      </trkpt>
      <trkpt lat="45.75204" lon="6.75027">
        <ele>2552</ele>
        <time>2026-07-29T08:14:16.716Z</time>
      </trkpt>
      <trkpt lat="45.75203" lon="6.75026">
        <ele>2551</ele>
        <time>2026-07-29T08:14:17.716Z</time>
      </trkpt>
      <trkpt lat="45.75202" lon="6.75026">
        <ele>2550</ele>
        <time>2026-07-29T08:14:18.716Z</time>
      </trkpt>
      <trkpt lat="45.75201" lon="6.75026">
        <ele>2550</ele>
        <time>2026-07-29T08:14:19.716Z</time>
      </trkpt>
      <trkpt lat="45.75201" lon="6.75025">
        <ele>2549</ele>
        <time>2026-07-29T08:14:20.716Z</time>
      </trkpt>
      <trkpt lat="45.752" lon="6.75025">
        <ele>2548</ele>
        <time>2026-07-29T08:14:21.716Z</time>
      </trkpt>
      <trkpt lat="45.75199" lon="6.75025">
        <ele>2548</ele>
        <time>2026-07-29T08:14:22.716Z</time>
      </trkpt>
      <trkpt lat="45.75199" lon="6.75024">
        <ele>2549</ele>
        <time>2026-07-29T08:14:23.716Z</time>
      </trkpt>
      <trkpt lat="45.75198" lon="6.75023">
        <ele>2549</ele>
        <time>2026-07-29T08:14:24.716Z</time>
      </trkpt>
      <trkpt lat="45.75197" lon="6.75022">
        <ele>2550</ele>
        <time>2026-07-29T08:14:25.716Z</time>
      </trkpt>
      <trkpt lat="45.75196" lon="6.75022">
        <ele>2550</ele>
        <time>2026-07-29T08:14:26.716Z</time>
      </trkpt>
      <trkpt lat="45.75195" lon="6.75021">
        <ele>2550</ele>
        <time>2026-07-29T08:14:27.716Z</time>
      </trkpt>
      <trkpt lat="45.75194" lon="6.75021">
        <ele>2550</ele>
        <time>2026-07-29T08:14:28.716Z</time>
      </trkpt>
      <trkpt lat="45.75192" lon="6.75021">
        <ele>2551</ele>
        <time>2026-07-29T08:14:29.716Z</time>
      </trkpt>
      <trkpt lat="45.75191" lon="6.75021">
        <ele>2551</ele>
        <time>2026-07-29T08:14:30.716Z</time>
      </trkpt>
      <trkpt lat="45.7519" lon="6.75022">
        <ele>2551</ele>
        <time>2026-07-29T08:14:31.716Z</time>
      </trkpt>
      <trkpt lat="45.75188" lon="6.75021">
        <ele>2551</ele>
        <time>2026-07-29T08:14:32.716Z</time>
      </trkpt>
      <trkpt lat="45.75188" lon="6.75021">
        <ele>2551</ele>
        <time>2026-07-29T08:14:33.716Z</time>
      </trkpt>
      <trkpt lat="45.75186" lon="6.7502">
        <ele>2551</ele>
        <time>2026-07-29T08:14:34.716Z</time>
      </trkpt>
      <trkpt lat="45.75185" lon="6.7502">
        <ele>2551</ele>
        <time>2026-07-29T08:14:35.716Z</time>
      </trkpt>
      <trkpt lat="45.75184" lon="6.7502">
        <ele>2551</ele>
        <time>2026-07-29T08:14:36.716Z</time>
      </trkpt>
      <trkpt lat="45.75183" lon="6.7502">
        <ele>2551</ele>
        <time>2026-07-29T08:14:37.716Z</time>
      </trkpt>
      <trkpt lat="45.75182" lon="6.75021">
        <ele>2552</ele>
        <time>2026-07-29T08:14:38.716Z</time>
      </trkpt>
      <trkpt lat="45.75181" lon="6.75021">
        <ele>2552</ele>
        <time>2026-07-29T08:14:39.716Z</time>
      </trkpt>
      <trkpt lat="45.7518" lon="6.7502">
        <ele>2552</ele>
        <time>2026-07-29T08:14:40.716Z</time>
      </trkpt>
      <trkpt lat="45.75179" lon="6.7502">
        <ele>2551</ele>
        <time>2026-07-29T08:14:41.716Z</time>
      </trkpt>
      <trkpt lat="45.75178" lon="6.7502">
        <ele>2551</ele>
        <time>2026-07-29T08:14:42.716Z</time>
      </trkpt>
      <trkpt lat="45.75177" lon="6.75021">
        <ele>2551</ele>
        <time>2026-07-29T08:14:43.716Z</time>
      </trkpt>
      <trkpt lat="45.75176" lon="6.75021">
        <ele>2551</ele>
        <time>2026-07-29T08:14:44.716Z</time>
      </trkpt>
      <trkpt lat="45.75175" lon="6.75022">
        <ele>2550</ele>
        <time>2026-07-29T08:14:45.716Z</time>
      </trkpt>
      <trkpt lat="45.75173" lon="6.75022">
        <ele>2550</ele>
        <time>2026-07-29T08:14:46.716Z</time>
      </trkpt>
      <trkpt lat="45.75172" lon="6.75022">
        <ele>2549</ele>
        <time>2026-07-29T08:14:47.716Z</time>
      </trkpt>
      <trkpt lat="45.7517" lon="6.75022">
        <ele>2549</ele>
        <time>2026-07-29T08:14:48.716Z</time>
      </trkpt>
      <trkpt lat="45.75169" lon="6.75022">
        <ele>2549</ele>
        <time>2026-07-29T08:14:49.716Z</time>
      </trkpt>
      <trkpt lat="45.75168" lon="6.75021">
        <ele>2550</ele>
        <time>2026-07-29T08:14:50.716Z</time>
      </trkpt>
      <trkpt lat="45.75166" lon="6.75021">
        <ele>2550</ele>
        <time>2026-07-29T08:14:51.716Z</time>
      </trkpt>
      <trkpt lat="45.75165" lon="6.75021">
        <ele>2550</ele>
        <time>2026-07-29T08:14:52.716Z</time>
      </trkpt>
      <trkpt lat="45.75164" lon="6.75021">
        <ele>2550</ele>
        <time>2026-07-29T08:14:53.716Z</time>
      </trkpt>
      <trkpt lat="45.75162" lon="6.75021">
        <ele>2550</ele>
        <time>2026-07-29T08:14:54.716Z</time>
      </trkpt>
      <trkpt lat="45.75161" lon="6.75022">
        <ele>2549</ele>
        <time>2026-07-29T08:14:55.716Z</time>
      </trkpt>
      <trkpt lat="45.75159" lon="6.75022">
        <ele>2549</ele>
        <time>2026-07-29T08:14:56.716Z</time>
      </trkpt>
      <trkpt lat="45.75158" lon="6.75022">
        <ele>2549</ele>
        <time>2026-07-29T08:14:57.716Z</time>
      </trkpt>
      <trkpt lat="45.75157" lon="6.75021">
        <ele>2549</ele>
        <time>2026-07-29T08:14:58.716Z</time>
      </trkpt>
      <trkpt lat="45.75155" lon="6.75021">
        <ele>2548</ele>
        <time>2026-07-29T08:14:59.716Z</time>
      </trkpt>
      <trkpt lat="45.75154" lon="6.7502">
        <ele>2548</ele>
        <time>2026-07-29T08:15:00.716Z</time>
      </trkpt>
      <trkpt lat="45.75153" lon="6.75019">
        <ele>2547</ele>
        <time>2026-07-29T08:15:01.716Z</time>
      </trkpt>
      <trkpt lat="45.75152" lon="6.75019">
        <ele>2547</ele>
        <time>2026-07-29T08:15:02.716Z</time>
      </trkpt>
      <trkpt lat="45.7515" lon="6.75019">
        <ele>2546</ele>
        <time>2026-07-29T08:15:03.716Z</time>
      </trkpt>
      <trkpt lat="45.75148" lon="6.75019">
        <ele>2546</ele>
        <time>2026-07-29T08:15:04.716Z</time>
      </trkpt>
      <trkpt lat="45.75147" lon="6.75019">
        <ele>2545</ele>
        <time>2026-07-29T08:15:05.716Z</time>
      </trkpt>
      <trkpt lat="45.75145" lon="6.75018">
        <ele>2545</ele>
        <time>2026-07-29T08:15:06.716Z</time>
      </trkpt>
      <trkpt lat="45.75144" lon="6.75018">
        <ele>2545</ele>
        <time>2026-07-29T08:15:07.716Z</time>
      </trkpt>
      <trkpt lat="45.75142" lon="6.75017">
        <ele>2544</ele>
        <time>2026-07-29T08:15:08.716Z</time>
      </trkpt>
      <trkpt lat="45.75141" lon="6.75016">
        <ele>2544</ele>
        <time>2026-07-29T08:15:09.716Z</time>
      </trkpt>
      <trkpt lat="45.7514" lon="6.75016">
        <ele>2543</ele>
        <time>2026-07-29T08:15:10.716Z</time>
      </trkpt>
      <trkpt lat="45.7514" lon="6.75015">
        <ele>2543</ele>
        <time>2026-07-29T08:15:11.716Z</time>
      </trkpt>
      <trkpt lat="45.75138" lon="6.75014">
        <ele>2542</ele>
        <time>2026-07-29T08:15:12.716Z</time>
      </trkpt>
      <trkpt lat="45.75137" lon="6.75015">
        <ele>2542</ele>
        <time>2026-07-29T08:15:13.716Z</time>
      </trkpt>
      <trkpt lat="45.75136" lon="6.75014">
        <ele>2542</ele>
        <time>2026-07-29T08:15:14.716Z</time>
      </trkpt>
      <trkpt lat="45.75135" lon="6.75014">
        <ele>2542</ele>
        <time>2026-07-29T08:15:15.716Z</time>
      </trkpt>
      <trkpt lat="45.75134" lon="6.75013">
        <ele>2542</ele>
        <time>2026-07-29T08:15:16.716Z</time>
      </trkpt>
      <trkpt lat="45.75133" lon="6.75011">
        <ele>2542</ele>
        <time>2026-07-29T08:15:17.716Z</time>
      </trkpt>
      <trkpt lat="45.75131" lon="6.7501">
        <ele>2543</ele>
        <time>2026-07-29T08:15:18.716Z</time>
      </trkpt>
      <trkpt lat="45.7513" lon="6.75009">
        <ele>2543</ele>
        <time>2026-07-29T08:15:19.716Z</time>
      </trkpt>
      <trkpt lat="45.75129" lon="6.75008">
        <ele>2543</ele>
        <time>2026-07-29T08:15:20.716Z</time>
      </trkpt>
      <trkpt lat="45.75127" lon="6.75007">
        <ele>2543</ele>
        <time>2026-07-29T08:15:21.716Z</time>
      </trkpt>
      <trkpt lat="45.75125" lon="6.75005">
        <ele>2543</ele>
        <time>2026-07-29T08:15:22.716Z</time>
      </trkpt>
      <trkpt lat="45.75124" lon="6.75004">
        <ele>2543</ele>
        <time>2026-07-29T08:15:23.716Z</time>
      </trkpt>
      <trkpt lat="45.75122" lon="6.75002">
        <ele>2543</ele>
        <time>2026-07-29T08:15:24.716Z</time>
      </trkpt>
      <trkpt lat="45.75121" lon="6.75001">
        <ele>2543</ele>
        <time>2026-07-29T08:15:25.716Z</time>
      </trkpt>
      <trkpt lat="45.7512" lon="6.75">
        <ele>2543</ele>
        <time>2026-07-29T08:15:26.716Z</time>
      </trkpt>
      <trkpt lat="45.75118" lon="6.74999">
        <ele>2543</ele>
        <time>2026-07-29T08:15:27.716Z</time>
      </trkpt>
      <trkpt lat="45.75117" lon="6.74998">
        <ele>2543</ele>
        <time>2026-07-29T08:15:28.716Z</time>
      </trkpt>
      <trkpt lat="45.75115" lon="6.74997">
        <ele>2542</ele>
        <time>2026-07-29T08:15:29.716Z</time>
      </trkpt>
      <trkpt lat="45.75114" lon="6.74996">
        <ele>2542</ele>
        <time>2026-07-29T08:15:30.716Z</time>
      </trkpt>
      <trkpt lat="45.75113" lon="6.74994">
        <ele>2542</ele>
        <time>2026-07-29T08:15:31.716Z</time>
      </trkpt>
      <trkpt lat="45.75112" lon="6.74992">
        <ele>2541</ele>
        <time>2026-07-29T08:15:32.716Z</time>
      </trkpt>
      <trkpt lat="45.75111" lon="6.74991">
        <ele>2541</ele>
        <time>2026-07-29T08:15:33.716Z</time>
      </trkpt>
      <trkpt lat="45.7511" lon="6.74989">
        <ele>2541</ele>
        <time>2026-07-29T08:15:34.716Z</time>
      </trkpt>
      <trkpt lat="45.75109" lon="6.74987">
        <ele>2540</ele>
        <time>2026-07-29T08:15:35.716Z</time>
      </trkpt>
      <trkpt lat="45.75108" lon="6.74986">
        <ele>2540</ele>
        <time>2026-07-29T08:15:36.716Z</time>
      </trkpt>
      <trkpt lat="45.75107" lon="6.74984">
        <ele>2540</ele>
        <time>2026-07-29T08:15:37.717Z</time>
      </trkpt>
      <trkpt lat="45.75106" lon="6.74982">
        <ele>2540</ele>
        <time>2026-07-29T08:15:38.716Z</time>
      </trkpt>
      <trkpt lat="45.75105" lon="6.74981">
        <ele>2540</ele>
        <time>2026-07-29T08:15:39.716Z</time>
      </trkpt>
      <trkpt lat="45.75104" lon="6.74979">
        <ele>2539</ele>
        <time>2026-07-29T08:15:40.716Z</time>
      </trkpt>
      <trkpt lat="45.75103" lon="6.74977">
        <ele>2539</ele>
        <time>2026-07-29T08:15:41.716Z</time>
      </trkpt>
      <trkpt lat="45.75101" lon="6.74976">
        <ele>2538</ele>
        <time>2026-07-29T08:15:42.716Z</time>
      </trkpt>
      <trkpt lat="45.751" lon="6.74975">
        <ele>2538</ele>
        <time>2026-07-29T08:15:43.716Z</time>
      </trkpt>
      <trkpt lat="45.75099" lon="6.74974">
        <ele>2537</ele>
        <time>2026-07-29T08:15:44.716Z</time>
      </trkpt>
      <trkpt lat="45.75099" lon="6.74973">
        <ele>2537</ele>
        <time>2026-07-29T08:15:45.716Z</time>
      </trkpt>
      <trkpt lat="45.75099" lon="6.74973">
        <ele>2536</ele>
        <time>2026-07-29T08:15:46.716Z</time>
      </trkpt>
      <trkpt lat="45.75098" lon="6.74973">
        <ele>2536</ele>
        <time>2026-07-29T08:15:47.716Z</time>
      </trkpt>
      <trkpt lat="45.75098" lon="6.74973">
        <ele>2536</ele>
        <time>2026-07-29T08:15:48.716Z</time>
      </trkpt>
      <trkpt lat="45.75098" lon="6.74972">
        <ele>2535</ele>
        <time>2026-07-29T08:15:49.716Z</time>
      </trkpt>
      <trkpt lat="45.75098" lon="6.74972">
        <ele>2535</ele>
        <time>2026-07-29T08:15:50.716Z</time>
      </trkpt>
      <trkpt lat="45.75098" lon="6.74972">
        <ele>2535</ele>
        <time>2026-07-29T08:15:51.716Z</time>
      </trkpt>
      <trkpt lat="45.75098" lon="6.74971">
        <ele>2534</ele>
        <time>2026-07-29T08:15:52.716Z</time>
      </trkpt>
      <trkpt lat="45.75098" lon="6.74971">
        <ele>2533</ele>
        <time>2026-07-29T08:15:53.716Z</time>
      </trkpt>
      <trkpt lat="45.75099" lon="6.74971">
        <ele>2533</ele>
        <time>2026-07-29T08:15:54.716Z</time>
      </trkpt>
      <trkpt lat="45.75099" lon="6.74971">
        <ele>2533</ele>
        <time>2026-07-29T08:15:55.716Z</time>
      </trkpt>
      <trkpt lat="45.75099" lon="6.7497">
        <ele>2532</ele>
        <time>2026-07-29T08:15:56.716Z</time>
      </trkpt>
      <trkpt lat="45.75099" lon="6.74969">
        <ele>2532</ele>
        <time>2026-07-29T08:15:57.716Z</time>
      </trkpt>
      <trkpt lat="45.75099" lon="6.74968">
        <ele>2531</ele>
        <time>2026-07-29T08:15:58.716Z</time>
      </trkpt>
      <trkpt lat="45.75099" lon="6.74966">
        <ele>2531</ele>
        <time>2026-07-29T08:15:59.716Z</time>
      </trkpt>
      <trkpt lat="45.75099" lon="6.74964">
        <ele>2530</ele>
        <time>2026-07-29T08:16:00.716Z</time>
      </trkpt>
      <trkpt lat="45.75098" lon="6.74961">
        <ele>2530</ele>
        <time>2026-07-29T08:16:01.716Z</time>
      </trkpt>
      <trkpt lat="45.75098" lon="6.7496">
        <ele>2530</ele>
        <time>2026-07-29T08:16:02.716Z</time>
      </trkpt>
      <trkpt lat="45.75097" lon="6.74958">
        <ele>2530</ele>
        <time>2026-07-29T08:16:03.716Z</time>
      </trkpt>
      <trkpt lat="45.75096" lon="6.74957">
        <ele>2530</ele>
        <time>2026-07-29T08:16:04.716Z</time>
      </trkpt>
      <trkpt lat="45.75095" lon="6.74956">
        <ele>2530</ele>
        <time>2026-07-29T08:16:05.716Z</time>
      </trkpt>
      <trkpt lat="45.75094" lon="6.74954">
        <ele>2530</ele>
        <time>2026-07-29T08:16:06.716Z</time>
      </trkpt>
      <trkpt lat="45.75093" lon="6.74953">
        <ele>2530</ele>
        <time>2026-07-29T08:16:07.716Z</time>
      </trkpt>
      <trkpt lat="45.75092" lon="6.74951">
        <ele>2531</ele>
        <time>2026-07-29T08:16:08.716Z</time>
      </trkpt>
      <trkpt lat="45.75091" lon="6.7495">
        <ele>2531</ele>
        <time>2026-07-29T08:16:09.716Z</time>
      </trkpt>
      <trkpt lat="45.75091" lon="6.74947">
        <ele>2531</ele>
        <time>2026-07-29T08:16:10.716Z</time>
      </trkpt>
      <trkpt lat="45.75091" lon="6.74945">
        <ele>2531</ele>
        <time>2026-07-29T08:16:11.716Z</time>
      </trkpt>
      <trkpt lat="45.75091" lon="6.74943">
        <ele>2531</ele>
        <time>2026-07-29T08:16:12.716Z</time>
      </trkpt>
      <trkpt lat="45.75091" lon="6.74941">
        <ele>2532</ele>
        <time>2026-07-29T08:16:13.716Z</time>
      </trkpt>
      <trkpt lat="45.7509" lon="6.74939">
        <ele>2532</ele>
        <time>2026-07-29T08:16:14.716Z</time>
      </trkpt>
      <trkpt lat="45.7509" lon="6.74938">
        <ele>2533</ele>
        <time>2026-07-29T08:16:15.716Z</time>
      </trkpt>
      <trkpt lat="45.7509" lon="6.74936">
        <ele>2534</ele>
        <time>2026-07-29T08:16:16.716Z</time>
      </trkpt>
      <trkpt lat="45.75089" lon="6.74935">
        <ele>2534</ele>
        <time>2026-07-29T08:16:17.716Z</time>
      </trkpt>
      <trkpt lat="45.75089" lon="6.74933">
        <ele>2535</ele>
        <time>2026-07-29T08:16:18.716Z</time>
      </trkpt>
      <trkpt lat="45.75088" lon="6.74932">
        <ele>2535</ele>
        <time>2026-07-29T08:16:19.716Z</time>
      </trkpt>
      <trkpt lat="45.75087" lon="6.7493">
        <ele>2535</ele>
        <time>2026-07-29T08:16:20.716Z</time>
      </trkpt>
      <trkpt lat="45.75085" lon="6.74929">
        <ele>2535</ele>
        <time>2026-07-29T08:16:21.716Z</time>
      </trkpt>
      <trkpt lat="45.75084" lon="6.74928">
        <ele>2535</ele>
        <time>2026-07-29T08:16:22.716Z</time>
      </trkpt>
      <trkpt lat="45.75083" lon="6.74926">
        <ele>2535</ele>
        <time>2026-07-29T08:16:23.716Z</time>
      </trkpt>
      <trkpt lat="45.75082" lon="6.74925">
        <ele>2535</ele>
        <time>2026-07-29T08:16:24.716Z</time>
      </trkpt>
      <trkpt lat="45.75081" lon="6.74923">
        <ele>2536</ele>
        <time>2026-07-29T08:16:25.716Z</time>
      </trkpt>
      <trkpt lat="45.75081" lon="6.74922">
        <ele>2536</ele>
        <time>2026-07-29T08:16:26.716Z</time>
      </trkpt>
      <trkpt lat="45.7508" lon="6.74921">
        <ele>2536</ele>
        <time>2026-07-29T08:16:27.716Z</time>
      </trkpt>
      <trkpt lat="45.75079" lon="6.7492">
        <ele>2536</ele>
        <time>2026-07-29T08:16:28.716Z</time>
      </trkpt>
      <trkpt lat="45.75078" lon="6.74919">
        <ele>2536</ele>
        <time>2026-07-29T08:16:29.716Z</time>
      </trkpt>
      <trkpt lat="45.75076" lon="6.74919">
        <ele>2536</ele>
        <time>2026-07-29T08:16:30.716Z</time>
      </trkpt>
      <trkpt lat="45.75075" lon="6.74919">
        <ele>2537</ele>
        <time>2026-07-29T08:16:31.716Z</time>
      </trkpt>
      <trkpt lat="45.75074" lon="6.74918">
        <ele>2537</ele>
        <time>2026-07-29T08:16:32.716Z</time>
      </trkpt>
      <trkpt lat="45.75073" lon="6.74917">
        <ele>2537</ele>
        <time>2026-07-29T08:16:33.716Z</time>
      </trkpt>
      <trkpt lat="45.75071" lon="6.74916">
        <ele>2537</ele>
        <time>2026-07-29T08:16:34.716Z</time>
      </trkpt>
      <trkpt lat="45.7507" lon="6.74915">
        <ele>2537</ele>
        <time>2026-07-29T08:16:35.716Z</time>
      </trkpt>
      <trkpt lat="45.75069" lon="6.74914">
        <ele>2537</ele>
        <time>2026-07-29T08:16:36.716Z</time>
      </trkpt>
      <trkpt lat="45.75067" lon="6.74913">
        <ele>2537</ele>
        <time>2026-07-29T08:16:37.716Z</time>
      </trkpt>
      <trkpt lat="45.75066" lon="6.74912">
        <ele>2537</ele>
        <time>2026-07-29T08:16:38.716Z</time>
      </trkpt>
      <trkpt lat="45.75065" lon="6.74911">
        <ele>2537</ele>
        <time>2026-07-29T08:16:39.716Z</time>
      </trkpt>
      <trkpt lat="45.75064" lon="6.7491">
        <ele>2537</ele>
        <time>2026-07-29T08:16:40.716Z</time>
      </trkpt>
      <trkpt lat="45.75063" lon="6.74909">
        <ele>2537</ele>
        <time>2026-07-29T08:16:41.716Z</time>
      </trkpt>
      <trkpt lat="45.75062" lon="6.74909">
        <ele>2537</ele>
        <time>2026-07-29T08:16:42.716Z</time>
      </trkpt>
      <trkpt lat="45.75061" lon="6.74909">
        <ele>2537</ele>
        <time>2026-07-29T08:16:43.716Z</time>
      </trkpt>
      <trkpt lat="45.7506" lon="6.74909">
        <ele>2537</ele>
        <time>2026-07-29T08:16:44.716Z</time>
      </trkpt>
      <trkpt lat="45.7506" lon="6.74909">
        <ele>2536</ele>
        <time>2026-07-29T08:16:45.716Z</time>
      </trkpt>
      <trkpt lat="45.75059" lon="6.74908">
        <ele>2536</ele>
        <time>2026-07-29T08:16:46.716Z</time>
      </trkpt>
      <trkpt lat="45.75058" lon="6.74907">
        <ele>2536</ele>
        <time>2026-07-29T08:16:47.716Z</time>
      </trkpt>
      <trkpt lat="45.75057" lon="6.74906">
        <ele>2536</ele>
        <time>2026-07-29T08:16:48.716Z</time>
      </trkpt>
      <trkpt lat="45.75057" lon="6.74904">
        <ele>2535</ele>
        <time>2026-07-29T08:16:49.716Z</time>
      </trkpt>
      <trkpt lat="45.75056" lon="6.74903">
        <ele>2535</ele>
        <time>2026-07-29T08:16:50.716Z</time>
      </trkpt>
      <trkpt lat="45.75055" lon="6.74901">
        <ele>2535</ele>
        <time>2026-07-29T08:16:51.716Z</time>
      </trkpt>
      <trkpt lat="45.75054" lon="6.749">
        <ele>2535</ele>
        <time>2026-07-29T08:16:52.716Z</time>
      </trkpt>
      <trkpt lat="45.75053" lon="6.74899">
        <ele>2534</ele>
        <time>2026-07-29T08:16:53.716Z</time>
      </trkpt>
      <trkpt lat="45.75052" lon="6.74898">
        <ele>2534</ele>
        <time>2026-07-29T08:16:54.716Z</time>
      </trkpt>
      <trkpt lat="45.7505" lon="6.74898">
        <ele>2534</ele>
        <time>2026-07-29T08:16:55.716Z</time>
      </trkpt>
      <trkpt lat="45.75049" lon="6.74898">
        <ele>2534</ele>
        <time>2026-07-29T08:16:56.716Z</time>
      </trkpt>
      <trkpt lat="45.75048" lon="6.74897">
        <ele>2534</ele>
        <time>2026-07-29T08:16:57.716Z</time>
      </trkpt>
      <trkpt lat="45.75047" lon="6.74896">
        <ele>2534</ele>
        <time>2026-07-29T08:16:58.716Z</time>
      </trkpt>
      <trkpt lat="45.75046" lon="6.74895">
        <ele>2534</ele>
        <time>2026-07-29T08:16:59.716Z</time>
      </trkpt>
      <trkpt lat="45.75046" lon="6.74894">
        <ele>2534</ele>
        <time>2026-07-29T08:17:00.716Z</time>
      </trkpt>
      <trkpt lat="45.75045" lon="6.74893">
        <ele>2535</ele>
        <time>2026-07-29T08:17:01.716Z</time>
      </trkpt>
      <trkpt lat="45.75044" lon="6.74892">
        <ele>2535</ele>
        <time>2026-07-29T08:17:02.716Z</time>
      </trkpt>
      <trkpt lat="45.75044" lon="6.74891">
        <ele>2535</ele>
        <time>2026-07-29T08:17:03.716Z</time>
      </trkpt>
      <trkpt lat="45.75043" lon="6.74889">
        <ele>2534</ele>
        <time>2026-07-29T08:17:04.716Z</time>
      </trkpt>
      <trkpt lat="45.75042" lon="6.74888">
        <ele>2534</ele>
        <time>2026-07-29T08:17:05.716Z</time>
      </trkpt>
      <trkpt lat="45.75042" lon="6.74887">
        <ele>2533</ele>
        <time>2026-07-29T08:17:06.716Z</time>
      </trkpt>
      <trkpt lat="45.75041" lon="6.74886">
        <ele>2532</ele>
        <time>2026-07-29T08:17:07.716Z</time>
      </trkpt>
      <trkpt lat="45.7504" lon="6.74884">
        <ele>2531</ele>
        <time>2026-07-29T08:17:08.716Z</time>
      </trkpt>
      <trkpt lat="45.75039" lon="6.74883">
        <ele>2531</ele>
        <time>2026-07-29T08:17:09.716Z</time>
      </trkpt>
      <trkpt lat="45.75038" lon="6.74882">
        <ele>2530</ele>
        <time>2026-07-29T08:17:10.716Z</time>
      </trkpt>
      <trkpt lat="45.75037" lon="6.7488">
        <ele>2530</ele>
        <time>2026-07-29T08:17:11.716Z</time>
      </trkpt>
      <trkpt lat="45.75035" lon="6.74879">
        <ele>2530</ele>
        <time>2026-07-29T08:17:12.716Z</time>
      </trkpt>
      <trkpt lat="45.75033" lon="6.74877">
        <ele>2529</ele>
        <time>2026-07-29T08:17:13.716Z</time>
      </trkpt>
      <trkpt lat="45.75032" lon="6.74876">
        <ele>2529</ele>
        <time>2026-07-29T08:17:14.716Z</time>
      </trkpt>
      <trkpt lat="45.7503" lon="6.74875">
        <ele>2528</ele>
        <time>2026-07-29T08:17:15.716Z</time>
      </trkpt>
      <trkpt lat="45.75029" lon="6.74874">
        <ele>2529</ele>
        <time>2026-07-29T08:17:16.716Z</time>
      </trkpt>
      <trkpt lat="45.75028" lon="6.74874">
        <ele>2529</ele>
        <time>2026-07-29T08:17:17.716Z</time>
      </trkpt>
      <trkpt lat="45.75026" lon="6.74873">
        <ele>2529</ele>
        <time>2026-07-29T08:17:18.716Z</time>
      </trkpt>
      <trkpt lat="45.75025" lon="6.74873">
        <ele>2530</ele>
        <time>2026-07-29T08:17:19.716Z</time>
      </trkpt>
      <trkpt lat="45.75024" lon="6.74873">
        <ele>2530</ele>
        <time>2026-07-29T08:17:20.716Z</time>
      </trkpt>
      <trkpt lat="45.75023" lon="6.74873">
        <ele>2530</ele>
        <time>2026-07-29T08:17:21.716Z</time>
      </trkpt>
      <trkpt lat="45.75022" lon="6.74873">
        <ele>2531</ele>
        <time>2026-07-29T08:17:22.716Z</time>
      </trkpt>
      <trkpt lat="45.75021" lon="6.74872">
        <ele>2531</ele>
        <time>2026-07-29T08:17:23.716Z</time>
      </trkpt>
      <trkpt lat="45.75021" lon="6.74872">
        <ele>2531</ele>
        <time>2026-07-29T08:17:24.716Z</time>
      </trkpt>
      <trkpt lat="45.7502" lon="6.74872">
        <ele>2531</ele>
        <time>2026-07-29T08:17:25.716Z</time>
      </trkpt>
      <trkpt lat="45.75019" lon="6.74872">
        <ele>2531</ele>
        <time>2026-07-29T08:17:26.716Z</time>
      </trkpt>
      <trkpt lat="45.75018" lon="6.74872">
        <ele>2531</ele>
        <time>2026-07-29T08:17:27.716Z</time>
      </trkpt>
      <trkpt lat="45.75017" lon="6.74872">
        <ele>2531</ele>
        <time>2026-07-29T08:17:28.716Z</time>
      </trkpt>
      <trkpt lat="45.75017" lon="6.74873">
        <ele>2531</ele>
        <time>2026-07-29T08:17:29.716Z</time>
      </trkpt>
      <trkpt lat="45.75016" lon="6.74874">
        <ele>2531</ele>
        <time>2026-07-29T08:17:30.716Z</time>
      </trkpt>
      <trkpt lat="45.75015" lon="6.74873">
        <ele>2531</ele>
        <time>2026-07-29T08:17:31.716Z</time>
      </trkpt>
      <trkpt lat="45.75014" lon="6.74873">
        <ele>2530</ele>
        <time>2026-07-29T08:17:32.716Z</time>
      </trkpt>
      <trkpt lat="45.75013" lon="6.74871">
        <ele>2530</ele>
        <time>2026-07-29T08:17:33.716Z</time>
      </trkpt>
      <trkpt lat="45.75012" lon="6.7487">
        <ele>2530</ele>
        <time>2026-07-29T08:17:34.716Z</time>
      </trkpt>
      <trkpt lat="45.75011" lon="6.74869">
        <ele>2530</ele>
        <time>2026-07-29T08:17:35.716Z</time>
      </trkpt>
      <trkpt lat="45.7501" lon="6.74868">
        <ele>2530</ele>
        <time>2026-07-29T08:17:36.716Z</time>
      </trkpt>
      <trkpt lat="45.75009" lon="6.74867">
        <ele>2530</ele>
        <time>2026-07-29T08:17:37.716Z</time>
      </trkpt>
      <trkpt lat="45.75007" lon="6.74866">
        <ele>2529</ele>
        <time>2026-07-29T08:17:38.716Z</time>
      </trkpt>
      <trkpt lat="45.75006" lon="6.74864">
        <ele>2528</ele>
        <time>2026-07-29T08:17:39.716Z</time>
      </trkpt>
      <trkpt lat="45.75005" lon="6.74863">
        <ele>2528</ele>
        <time>2026-07-29T08:17:40.716Z</time>
      </trkpt>
      <trkpt lat="45.75004" lon="6.74861">
        <ele>2528</ele>
        <time>2026-07-29T08:17:41.716Z</time>
      </trkpt>
      <trkpt lat="45.75004" lon="6.7486">
        <ele>2527</ele>
        <time>2026-07-29T08:17:42.716Z</time>
      </trkpt>
      <trkpt lat="45.75003" lon="6.74858">
        <ele>2527</ele>
        <time>2026-07-29T08:17:43.716Z</time>
      </trkpt>
      <trkpt lat="45.75002" lon="6.74857">
        <ele>2527</ele>
        <time>2026-07-29T08:17:44.716Z</time>
      </trkpt>
      <trkpt lat="45.75002" lon="6.74855">
        <ele>2527</ele>
        <time>2026-07-29T08:17:45.716Z</time>
      </trkpt>
      <trkpt lat="45.75001" lon="6.74854">
        <ele>2527</ele>
        <time>2026-07-29T08:17:46.716Z</time>
      </trkpt>
      <trkpt lat="45.75001" lon="6.74853">
        <ele>2527</ele>
        <time>2026-07-29T08:17:47.716Z</time>
      </trkpt>
      <trkpt lat="45.75" lon="6.74853">
        <ele>2526</ele>
        <time>2026-07-29T08:17:48.716Z</time>
      </trkpt>
      <trkpt lat="45.75" lon="6.74852">
        <ele>2526</ele>
        <time>2026-07-29T08:17:49.716Z</time>
      </trkpt>
      <trkpt lat="45.74999" lon="6.74851">
        <ele>2526</ele>
        <time>2026-07-29T08:17:50.716Z</time>
      </trkpt>
      <trkpt lat="45.74998" lon="6.7485">
        <ele>2526</ele>
        <time>2026-07-29T08:17:51.716Z</time>
      </trkpt>
      <trkpt lat="45.74998" lon="6.74849">
        <ele>2526</ele>
        <time>2026-07-29T08:17:52.716Z</time>
      </trkpt>
      <trkpt lat="45.74997" lon="6.74848">
        <ele>2526</ele>
        <time>2026-07-29T08:17:53.716Z</time>
      </trkpt>
      <trkpt lat="45.74997" lon="6.74846">
        <ele>2526</ele>
        <time>2026-07-29T08:17:54.716Z</time>
      </trkpt>
      <trkpt lat="45.74997" lon="6.74845">
        <ele>2525</ele>
        <time>2026-07-29T08:17:55.716Z</time>
      </trkpt>
      <trkpt lat="45.74997" lon="6.74845">
        <ele>2525</ele>
        <time>2026-07-29T08:17:56.716Z</time>
      </trkpt>
      <trkpt lat="45.74996" lon="6.74844">
        <ele>2525</ele>
        <time>2026-07-29T08:17:57.716Z</time>
      </trkpt>
      <trkpt lat="45.74996" lon="6.74844">
        <ele>2525</ele>
        <time>2026-07-29T08:17:58.716Z</time>
      </trkpt>
      <trkpt lat="45.74995" lon="6.74845">
        <ele>2525</ele>
        <time>2026-07-29T08:17:59.716Z</time>
      </trkpt>
      <trkpt lat="45.74994" lon="6.74845">
        <ele>2524</ele>
        <time>2026-07-29T08:18:00.716Z</time>
      </trkpt>
      <trkpt lat="45.74994" lon="6.74845">
        <ele>2524</ele>
        <time>2026-07-29T08:18:01.716Z</time>
      </trkpt>
      <trkpt lat="45.74993" lon="6.74845">
        <ele>2524</ele>
        <time>2026-07-29T08:18:02.716Z</time>
      </trkpt>
      <trkpt lat="45.74993" lon="6.74844">
        <ele>2524</ele>
        <time>2026-07-29T08:18:03.716Z</time>
      </trkpt>
      <trkpt lat="45.74992" lon="6.74844">
        <ele>2523</ele>
        <time>2026-07-29T08:18:04.716Z</time>
      </trkpt>
      <trkpt lat="45.74992" lon="6.74843">
        <ele>2523</ele>
        <time>2026-07-29T08:18:05.716Z</time>
      </trkpt>
      <trkpt lat="45.74991" lon="6.74843">
        <ele>2523</ele>
        <time>2026-07-29T08:18:06.716Z</time>
      </trkpt>
      <trkpt lat="45.7499" lon="6.74841">
        <ele>2523</ele>
        <time>2026-07-29T08:18:07.716Z</time>
      </trkpt>
      <trkpt lat="45.7499" lon="6.7484">
        <ele>2523</ele>
        <time>2026-07-29T08:18:08.716Z</time>
      </trkpt>
      <trkpt lat="45.74989" lon="6.74839">
        <ele>2523</ele>
        <time>2026-07-29T08:18:09.716Z</time>
      </trkpt>
      <trkpt lat="45.74989" lon="6.74838">
        <ele>2523</ele>
        <time>2026-07-29T08:18:10.716Z</time>
      </trkpt>
      <trkpt lat="45.74989" lon="6.74837">
        <ele>2523</ele>
        <time>2026-07-29T08:18:11.716Z</time>
      </trkpt>
      <trkpt lat="45.74988" lon="6.74835">
        <ele>2523</ele>
        <time>2026-07-29T08:18:12.716Z</time>
      </trkpt>
      <trkpt lat="45.74988" lon="6.74834">
        <ele>2522</ele>
        <time>2026-07-29T08:18:13.716Z</time>
      </trkpt>
      <trkpt lat="45.74987" lon="6.74833">
        <ele>2522</ele>
        <time>2026-07-29T08:18:14.716Z</time>
      </trkpt>
      <trkpt lat="45.74987" lon="6.74832">
        <ele>2522</ele>
        <time>2026-07-29T08:18:15.716Z</time>
      </trkpt>
      <trkpt lat="45.74986" lon="6.74832">
        <ele>2522</ele>
        <time>2026-07-29T08:18:16.716Z</time>
      </trkpt>
      <trkpt lat="45.74985" lon="6.74832">
        <ele>2522</ele>
        <time>2026-07-29T08:18:17.716Z</time>
      </trkpt>
      <trkpt lat="45.74985" lon="6.74831">
        <ele>2521</ele>
        <time>2026-07-29T08:18:18.716Z</time>
      </trkpt>
      <trkpt lat="45.74985" lon="6.74831">
        <ele>2521</ele>
        <time>2026-07-29T08:18:19.716Z</time>
      </trkpt>
      <trkpt lat="45.74984" lon="6.74829">
        <ele>2521</ele>
        <time>2026-07-29T08:18:20.716Z</time>
      </trkpt>
      <trkpt lat="45.74984" lon="6.74829">
        <ele>2521</ele>
        <time>2026-07-29T08:18:21.716Z</time>
      </trkpt>
      <trkpt lat="45.74984" lon="6.74828">
        <ele>2521</ele>
        <time>2026-07-29T08:18:22.716Z</time>
      </trkpt>
      <trkpt lat="45.74984" lon="6.74827">
        <ele>2521</ele>
        <time>2026-07-29T08:18:23.716Z</time>
      </trkpt>
      <trkpt lat="45.74983" lon="6.74826">
        <ele>2522</ele>
        <time>2026-07-29T08:18:24.716Z</time>
      </trkpt>
      <trkpt lat="45.74983" lon="6.74825">
        <ele>2522</ele>
        <time>2026-07-29T08:18:25.716Z</time>
      </trkpt>
      <trkpt lat="45.74982" lon="6.74825">
        <ele>2522</ele>
        <time>2026-07-29T08:18:26.716Z</time>
      </trkpt>
      <trkpt lat="45.74982" lon="6.74824">
        <ele>2522</ele>
        <time>2026-07-29T08:18:27.716Z</time>
      </trkpt>
      <trkpt lat="45.74981" lon="6.74824">
        <ele>2522</ele>
        <time>2026-07-29T08:18:28.716Z</time>
      </trkpt>
      <trkpt lat="45.74981" lon="6.74823">
        <ele>2522</ele>
        <time>2026-07-29T08:18:29.716Z</time>
      </trkpt>
      <trkpt lat="45.7498" lon="6.74823">
        <ele>2522</ele>
        <time>2026-07-29T08:18:30.716Z</time>
      </trkpt>
      <trkpt lat="45.7498" lon="6.74822">
        <ele>2522</ele>
        <time>2026-07-29T08:18:31.716Z</time>
      </trkpt>
      <trkpt lat="45.7498" lon="6.74821">
        <ele>2522</ele>
        <time>2026-07-29T08:18:32.716Z</time>
      </trkpt>
      <trkpt lat="45.7498" lon="6.74821">
        <ele>2522</ele>
        <time>2026-07-29T08:18:33.716Z</time>
      </trkpt>
      <trkpt lat="45.7498" lon="6.74821">
        <ele>2521</ele>
        <time>2026-07-29T08:18:34.716Z</time>
      </trkpt>
      <trkpt lat="45.7498" lon="6.74821">
        <ele>2521</ele>
        <time>2026-07-29T08:18:35.716Z</time>
      </trkpt>
      <trkpt lat="45.7498" lon="6.7482">
        <ele>2521</ele>
        <time>2026-07-29T08:18:36.716Z</time>
      </trkpt>
      <trkpt lat="45.74979" lon="6.7482">
        <ele>2520</ele>
        <time>2026-07-29T08:18:37.716Z</time>
      </trkpt>
      <trkpt lat="45.74979" lon="6.74819">
        <ele>2520</ele>
        <time>2026-07-29T08:18:38.716Z</time>
      </trkpt>
      <trkpt lat="45.74979" lon="6.74819">
        <ele>2520</ele>
        <time>2026-07-29T08:18:39.716Z</time>
      </trkpt>
      <trkpt lat="45.74978" lon="6.74818">
        <ele>2520</ele>
        <time>2026-07-29T08:18:40.716Z</time>
      </trkpt>
      <trkpt lat="45.74978" lon="6.74818">
        <ele>2520</ele>
        <time>2026-07-29T08:18:41.716Z</time>
      </trkpt>
      <trkpt lat="45.74978" lon="6.74817">
        <ele>2520</ele>
        <time>2026-07-29T08:18:42.716Z</time>
      </trkpt>
      <trkpt lat="45.74978" lon="6.74817">
        <ele>2520</ele>
        <time>2026-07-29T08:18:43.716Z</time>
      </trkpt>
      <trkpt lat="45.74978" lon="6.74817">
        <ele>2520</ele>
        <time>2026-07-29T08:18:44.716Z</time>
      </trkpt>
      <trkpt lat="45.74978" lon="6.74817">
        <ele>2519</ele>
        <time>2026-07-29T08:18:45.716Z</time>
      </trkpt>
      <trkpt lat="45.74978" lon="6.74817">
        <ele>2519</ele>
        <time>2026-07-29T08:18:46.716Z</time>
      </trkpt>
      <trkpt lat="45.74978" lon="6.74816">
        <ele>2518</ele>
        <time>2026-07-29T08:18:47.716Z</time>
      </trkpt>
      <trkpt lat="45.74978" lon="6.74815">
        <ele>2518</ele>
        <time>2026-07-29T08:18:48.716Z</time>
      </trkpt>
      <trkpt lat="45.74978" lon="6.74814">
        <ele>2518</ele>
        <time>2026-07-29T08:18:49.716Z</time>
      </trkpt>
      <trkpt lat="45.74977" lon="6.74813">
        <ele>2517</ele>
        <time>2026-07-29T08:18:50.716Z</time>
      </trkpt>
      <trkpt lat="45.74977" lon="6.74813">
        <ele>2517</ele>
        <time>2026-07-29T08:18:51.716Z</time>
      </trkpt>
      <trkpt lat="45.74977" lon="6.74812">
        <ele>2517</ele>
        <time>2026-07-29T08:18:52.716Z</time>
      </trkpt>
      <trkpt lat="45.74977" lon="6.74812">
        <ele>2517</ele>
        <time>2026-07-29T08:18:53.716Z</time>
      </trkpt>
      <trkpt lat="45.74976" lon="6.74812">
        <ele>2517</ele>
        <time>2026-07-29T08:18:54.716Z</time>
      </trkpt>
      <trkpt lat="45.74976" lon="6.74811">
        <ele>2517</ele>
        <time>2026-07-29T08:18:55.716Z</time>
      </trkpt>
      <trkpt lat="45.74976" lon="6.74811">
        <ele>2516</ele>
        <time>2026-07-29T08:18:56.716Z</time>
      </trkpt>
      <trkpt lat="45.74975" lon="6.7481">
        <ele>2517</ele>
        <time>2026-07-29T08:18:57.716Z</time>
      </trkpt>
      <trkpt lat="45.74975" lon="6.74809">
        <ele>2517</ele>
        <time>2026-07-29T08:18:58.716Z</time>
      </trkpt>
      <trkpt lat="45.74974" lon="6.74808">
        <ele>2517</ele>
        <time>2026-07-29T08:18:59.716Z</time>
      </trkpt>
      <trkpt lat="45.74974" lon="6.74807">
        <ele>2517</ele>
        <time>2026-07-29T08:19:00.716Z</time>
      </trkpt>
      <trkpt lat="45.74974" lon="6.74806">
        <ele>2517</ele>
        <time>2026-07-29T08:19:01.716Z</time>
      </trkpt>
      <trkpt lat="45.74974" lon="6.74804">
        <ele>2517</ele>
        <time>2026-07-29T08:19:02.716Z</time>
      </trkpt>
      <trkpt lat="45.74974" lon="6.74803">
        <ele>2517</ele>
        <time>2026-07-29T08:19:03.716Z</time>
      </trkpt>
      <trkpt lat="45.74973" lon="6.74803">
        <ele>2518</ele>
        <time>2026-07-29T08:19:04.716Z</time>
      </trkpt>
      <trkpt lat="45.74973" lon="6.74802">
        <ele>2518</ele>
        <time>2026-07-29T08:19:05.716Z</time>
      </trkpt>
      <trkpt lat="45.74972" lon="6.74802">
        <ele>2518</ele>
        <time>2026-07-29T08:19:06.716Z</time>
      </trkpt>
      <trkpt lat="45.74971" lon="6.74801">
        <ele>2517</ele>
        <time>2026-07-29T08:19:07.716Z</time>
      </trkpt>
      <trkpt lat="45.74971" lon="6.748">
        <ele>2517</ele>
        <time>2026-07-29T08:19:08.716Z</time>
      </trkpt>
      <trkpt lat="45.7497" lon="6.74799">
        <ele>2517</ele>
        <time>2026-07-29T08:19:09.716Z</time>
      </trkpt>
      <trkpt lat="45.7497" lon="6.74798">
        <ele>2517</ele>
        <time>2026-07-29T08:19:10.716Z</time>
      </trkpt>
      <trkpt lat="45.74969" lon="6.74797">
        <ele>2517</ele>
        <time>2026-07-29T08:19:11.716Z</time>
      </trkpt>
      <trkpt lat="45.74969" lon="6.74796">
        <ele>2517</ele>
        <time>2026-07-29T08:19:12.716Z</time>
      </trkpt>
      <trkpt lat="45.74969" lon="6.74795">
        <ele>2516</ele>
        <time>2026-07-29T08:19:13.716Z</time>
      </trkpt>
      <trkpt lat="45.74968" lon="6.74794">
        <ele>2516</ele>
        <time>2026-07-29T08:19:14.716Z</time>
      </trkpt>
      <trkpt lat="45.74968" lon="6.74792">
        <ele>2516</ele>
        <time>2026-07-29T08:19:15.716Z</time>
      </trkpt>
      <trkpt lat="45.74968" lon="6.74792">
        <ele>2515</ele>
        <time>2026-07-29T08:19:16.716Z</time>
      </trkpt>
      <trkpt lat="45.74967" lon="6.74791">
        <ele>2515</ele>
        <time>2026-07-29T08:19:17.716Z</time>
      </trkpt>
      <trkpt lat="45.74967" lon="6.74791">
        <ele>2516</ele>
        <time>2026-07-29T08:19:18.716Z</time>
      </trkpt>
      <trkpt lat="45.74967" lon="6.74791">
        <ele>2516</ele>
        <time>2026-07-29T08:19:19.716Z</time>
      </trkpt>
      <trkpt lat="45.74966" lon="6.7479">
        <ele>2516</ele>
        <time>2026-07-29T08:19:20.716Z</time>
      </trkpt>
      <trkpt lat="45.74966" lon="6.74789">
        <ele>2516</ele>
        <time>2026-07-29T08:19:21.716Z</time>
      </trkpt>
      <trkpt lat="45.74965" lon="6.74789">
        <ele>2516</ele>
        <time>2026-07-29T08:19:22.716Z</time>
      </trkpt>
      <trkpt lat="45.74964" lon="6.74789">
        <ele>2516</ele>
        <time>2026-07-29T08:19:23.716Z</time>
      </trkpt>
      <trkpt lat="45.74964" lon="6.7479">
        <ele>2516</ele>
        <time>2026-07-29T08:19:24.716Z</time>
      </trkpt>
      <trkpt lat="45.74963" lon="6.7479">
        <ele>2517</ele>
        <time>2026-07-29T08:19:25.716Z</time>
      </trkpt>
      <trkpt lat="45.74963" lon="6.7479">
        <ele>2517</ele>
        <time>2026-07-29T08:19:26.716Z</time>
      </trkpt>
      <trkpt lat="45.74963" lon="6.7479">
        <ele>2517</ele>
        <time>2026-07-29T08:19:27.716Z</time>
      </trkpt>
      <trkpt lat="45.74962" lon="6.7479">
        <ele>2517</ele>
        <time>2026-07-29T08:19:28.716Z</time>
      </trkpt>
      <trkpt lat="45.74963" lon="6.7479">
        <ele>2517</ele>
        <time>2026-07-29T08:19:29.716Z</time>
      </trkpt>
      <trkpt lat="45.74963" lon="6.74789">
        <ele>2517</ele>
        <time>2026-07-29T08:19:30.716Z</time>
      </trkpt>
      <trkpt lat="45.74963" lon="6.74789">
        <ele>2517</ele>
        <time>2026-07-29T08:19:31.716Z</time>
      </trkpt>
      <trkpt lat="45.74963" lon="6.74789">
        <ele>2518</ele>
        <time>2026-07-29T08:19:32.716Z</time>
      </trkpt>
      <trkpt lat="45.74963" lon="6.74789">
        <ele>2517</ele>
        <time>2026-07-29T08:19:33.716Z</time>
      </trkpt>
      <trkpt lat="45.74963" lon="6.74788">
        <ele>2517</ele>
        <time>2026-07-29T08:19:34.716Z</time>
      </trkpt>
      <trkpt lat="45.74963" lon="6.74788">
        <ele>2517</ele>
        <time>2026-07-29T08:19:35.716Z</time>
      </trkpt>
      <trkpt lat="45.74963" lon="6.74788">
        <ele>2516</ele>
        <time>2026-07-29T08:19:36.716Z</time>
      </trkpt>
      <trkpt lat="45.74963" lon="6.74788">
        <ele>2516</ele>
        <time>2026-07-29T08:19:37.716Z</time>
      </trkpt>
      <trkpt lat="45.74963" lon="6.74788">
        <ele>2516</ele>
        <time>2026-07-29T08:19:38.716Z</time>
      </trkpt>
      <trkpt lat="45.74963" lon="6.74788">
        <ele>2515</ele>
        <time>2026-07-29T08:19:39.716Z</time>
      </trkpt>
      <trkpt lat="45.74963" lon="6.74788">
        <ele>2515</ele>
        <time>2026-07-29T08:19:40.716Z</time>
      </trkpt>
      <trkpt lat="45.74963" lon="6.74788">
        <ele>2515</ele>
        <time>2026-07-29T08:19:41.716Z</time>
      </trkpt>
      <trkpt lat="45.74963" lon="6.74788">
        <ele>2514</ele>
        <time>2026-07-29T08:19:42.716Z</time>
      </trkpt>
      <trkpt lat="45.74963" lon="6.74788">
        <ele>2514</ele>
        <time>2026-07-29T08:19:43.716Z</time>
      </trkpt>
      <trkpt lat="45.74963" lon="6.74788">
        <ele>2514</ele>
        <time>2026-07-29T08:19:44.716Z</time>
      </trkpt>
      <trkpt lat="45.74963" lon="6.74788">
        <ele>2514</ele>
        <time>2026-07-29T08:19:45.716Z</time>
      </trkpt>
      <trkpt lat="45.74963" lon="6.74788">
        <ele>2514</ele>
        <time>2026-07-29T08:19:46.716Z</time>
      </trkpt>
      <trkpt lat="45.74963" lon="6.74788">
        <ele>2513</ele>
        <time>2026-07-29T08:19:47.716Z</time>
      </trkpt>
      <trkpt lat="45.74963" lon="6.74788">
        <ele>2513</ele>
        <time>2026-07-29T08:19:48.716Z</time>
      </trkpt>
      <trkpt lat="45.74963" lon="6.74788">
        <ele>2513</ele>
        <time>2026-07-29T08:19:49.716Z</time>
      </trkpt>
      <trkpt lat="45.74963" lon="6.74788">
        <ele>2513</ele>
        <time>2026-07-29T08:19:50.716Z</time>
      </trkpt>
      <trkpt lat="45.74963" lon="6.74788">
        <ele>2513</ele>
        <time>2026-07-29T08:19:51.716Z</time>
      </trkpt>
      <trkpt lat="45.74963" lon="6.74788">
        <ele>2513</ele>
        <time>2026-07-29T08:19:52.716Z</time>
      </trkpt>
      <trkpt lat="45.74963" lon="6.74788">
        <ele>2513</ele>
        <time>2026-07-29T08:19:53.716Z</time>
      </trkpt>
      <trkpt lat="45.74963" lon="6.74788">
        <ele>2513</ele>
        <time>2026-07-29T08:19:54.716Z</time>
      </trkpt>
      <trkpt lat="45.74963" lon="6.74788">
        <ele>2512</ele>
        <time>2026-07-29T08:19:55.716Z</time>
      </trkpt>
      <trkpt lat="45.74963" lon="6.74788">
        <ele>2512</ele>
        <time>2026-07-29T08:19:56.716Z</time>
      </trkpt>
      <trkpt lat="45.74963" lon="6.74788">
        <ele>2512</ele>
        <time>2026-07-29T08:19:57.716Z</time>
      </trkpt>
      <trkpt lat="45.74963" lon="6.74788">
        <ele>2512</ele>
        <time>2026-07-29T08:19:58.716Z</time>
      </trkpt>
      <trkpt lat="45.74963" lon="6.74788">
        <ele>2512</ele>
        <time>2026-07-29T08:19:59.716Z</time>
      </trkpt>
      <trkpt lat="45.74963" lon="6.74788">
        <ele>2512</ele>
        <time>2026-07-29T08:20:00.716Z</time>
      </trkpt>
      <trkpt lat="45.74963" lon="6.74787">
        <ele>2512</ele>
        <time>2026-07-29T08:20:01.716Z</time>
      </trkpt>
      <trkpt lat="45.74963" lon="6.74787">
        <ele>2512</ele>
        <time>2026-07-29T08:20:02.716Z</time>
      </trkpt>
      <trkpt lat="45.74963" lon="6.74787">
        <ele>2512</ele>
        <time>2026-07-29T08:20:03.716Z</time>
      </trkpt>
      <trkpt lat="45.74963" lon="6.74787">
        <ele>2512</ele>
        <time>2026-07-29T08:20:04.716Z</time>
      </trkpt>
      <trkpt lat="45.74963" lon="6.74787">
        <ele>2512</ele>
        <time>2026-07-29T08:20:05.716Z</time>
      </trkpt>
      <trkpt lat="45.74963" lon="6.74787">
        <ele>2512</ele>
        <time>2026-07-29T08:20:06.716Z</time>
      </trkpt>
      <trkpt lat="45.74963" lon="6.74787">
        <ele>2512</ele>
        <time>2026-07-29T08:20:07.716Z</time>
      </trkpt>
      <trkpt lat="45.74963" lon="6.74787">
        <ele>2512</ele>
        <time>2026-07-29T08:20:08.716Z</time>
      </trkpt>
      <trkpt lat="45.74963" lon="6.74787">
        <ele>2512</ele>
        <time>2026-07-29T08:20:09.716Z</time>
      </trkpt>
      <trkpt lat="45.74963" lon="6.74787">
        <ele>2512</ele>
        <time>2026-07-29T08:20:10.716Z</time>
      </trkpt>
      <trkpt lat="45.74963" lon="6.74787">
        <ele>2512</ele>
        <time>2026-07-29T08:20:11.716Z</time>
      </trkpt>
      <trkpt lat="45.74963" lon="6.74787">
        <ele>2512</ele>
        <time>2026-07-29T08:20:12.716Z</time>
      </trkpt>
      <trkpt lat="45.74963" lon="6.74787">
        <ele>2512</ele>
        <time>2026-07-29T08:20:13.716Z</time>
      </trkpt>
      <trkpt lat="45.74963" lon="6.74786">
        <ele>2512</ele>
        <time>2026-07-29T08:20:14.716Z</time>
      </trkpt>
      <trkpt lat="45.74963" lon="6.74786">
        <ele>2512</ele>
        <time>2026-07-29T08:20:15.716Z</time>
      </trkpt>
      <trkpt lat="45.74963" lon="6.74785">
        <ele>2512</ele>
        <time>2026-07-29T08:20:16.716Z</time>
      </trkpt>
      <trkpt lat="45.74963" lon="6.74785">
        <ele>2512</ele>
        <time>2026-07-29T08:20:17.716Z</time>
      </trkpt>
      <trkpt lat="45.74963" lon="6.74785">
        <ele>2512</ele>
        <time>2026-07-29T08:20:18.716Z</time>
      </trkpt>
      <trkpt lat="45.74963" lon="6.74784">
        <ele>2512</ele>
        <time>2026-07-29T08:20:19.716Z</time>
      </trkpt>
      <trkpt lat="45.74962" lon="6.74784">
        <ele>2512</ele>
        <time>2026-07-29T08:20:20.716Z</time>
      </trkpt>
      <trkpt lat="45.74961" lon="6.74782">
        <ele>2512</ele>
        <time>2026-07-29T08:20:21.716Z</time>
      </trkpt>
      <trkpt lat="45.7496" lon="6.7478">
        <ele>2512</ele>
        <time>2026-07-29T08:20:22.716Z</time>
      </trkpt>
      <trkpt lat="45.74959" lon="6.74778">
        <ele>2512</ele>
        <time>2026-07-29T08:20:23.716Z</time>
      </trkpt>
      <trkpt lat="45.74959" lon="6.74777">
        <ele>2512</ele>
        <time>2026-07-29T08:20:24.716Z</time>
      </trkpt>
      <trkpt lat="45.74958" lon="6.74776">
        <ele>2512</ele>
        <time>2026-07-29T08:20:25.716Z</time>
      </trkpt>
      <trkpt lat="45.74957" lon="6.74775">
        <ele>2512</ele>
        <time>2026-07-29T08:20:26.716Z</time>
      </trkpt>
      <trkpt lat="45.74956" lon="6.74774">
        <ele>2511</ele>
        <time>2026-07-29T08:20:27.716Z</time>
      </trkpt>
      <trkpt lat="45.74955" lon="6.74772">
        <ele>2512</ele>
        <time>2026-07-29T08:20:28.716Z</time>
      </trkpt>
      <trkpt lat="45.74954" lon="6.74771">
        <ele>2512</ele>
        <time>2026-07-29T08:20:29.716Z</time>
      </trkpt>
      <trkpt lat="45.74953" lon="6.74771">
        <ele>2512</ele>
        <time>2026-07-29T08:20:30.716Z</time>
      </trkpt>
      <trkpt lat="45.74953" lon="6.74771">
        <ele>2512</ele>
        <time>2026-07-29T08:20:31.716Z</time>
      </trkpt>
      <trkpt lat="45.74952" lon="6.74771">
        <ele>2512</ele>
        <time>2026-07-29T08:20:32.716Z</time>
      </trkpt>
      <trkpt lat="45.74952" lon="6.74771">
        <ele>2512</ele>
        <time>2026-07-29T08:20:33.716Z</time>
      </trkpt>
      <trkpt lat="45.74951" lon="6.74771">
        <ele>2512</ele>
        <time>2026-07-29T08:20:34.716Z</time>
      </trkpt>
      <trkpt lat="45.74951" lon="6.74771">
        <ele>2512</ele>
        <time>2026-07-29T08:20:35.716Z</time>
      </trkpt>
      <trkpt lat="45.7495" lon="6.7477">
        <ele>2512</ele>
        <time>2026-07-29T08:20:36.716Z</time>
      </trkpt>
      <trkpt lat="45.74949" lon="6.7477">
        <ele>2512</ele>
        <time>2026-07-29T08:20:37.716Z</time>
      </trkpt>
      <trkpt lat="45.74949" lon="6.74769">
        <ele>2511</ele>
        <time>2026-07-29T08:20:38.716Z</time>
      </trkpt>
      <trkpt lat="45.74948" lon="6.74769">
        <ele>2511</ele>
        <time>2026-07-29T08:20:39.716Z</time>
      </trkpt>
      <trkpt lat="45.74948" lon="6.74769">
        <ele>2511</ele>
        <time>2026-07-29T08:20:40.716Z</time>
      </trkpt>
      <trkpt lat="45.74947" lon="6.74769">
        <ele>2511</ele>
        <time>2026-07-29T08:20:41.716Z</time>
      </trkpt>
      <trkpt lat="45.74946" lon="6.74769">
        <ele>2511</ele>
        <time>2026-07-29T08:20:42.716Z</time>
      </trkpt>
      <trkpt lat="45.74945" lon="6.74768">
        <ele>2511</ele>
        <time>2026-07-29T08:20:43.716Z</time>
      </trkpt>
      <trkpt lat="45.74945" lon="6.74768">
        <ele>2511</ele>
        <time>2026-07-29T08:20:44.716Z</time>
      </trkpt>
      <trkpt lat="45.74944" lon="6.74767">
        <ele>2511</ele>
        <time>2026-07-29T08:20:45.716Z</time>
      </trkpt>
      <trkpt lat="45.74944" lon="6.74767">
        <ele>2511</ele>
        <time>2026-07-29T08:20:46.716Z</time>
      </trkpt>
      <trkpt lat="45.74943" lon="6.74766">
        <ele>2511</ele>
        <time>2026-07-29T08:20:47.716Z</time>
      </trkpt>
      <trkpt lat="45.74943" lon="6.74765">
        <ele>2512</ele>
        <time>2026-07-29T08:20:48.716Z</time>
      </trkpt>
      <trkpt lat="45.74943" lon="6.74764">
        <ele>2512</ele>
        <time>2026-07-29T08:20:49.716Z</time>
      </trkpt>
      <trkpt lat="45.74942" lon="6.74763">
        <ele>2511</ele>
        <time>2026-07-29T08:20:50.716Z</time>
      </trkpt>
      <trkpt lat="45.74942" lon="6.74763">
        <ele>2511</ele>
        <time>2026-07-29T08:20:51.716Z</time>
      </trkpt>
      <trkpt lat="45.74942" lon="6.74763">
        <ele>2511</ele>
        <time>2026-07-29T08:20:52.716Z</time>
      </trkpt>
      <trkpt lat="45.74941" lon="6.74762">
        <ele>2512</ele>
        <time>2026-07-29T08:20:53.716Z</time>
      </trkpt>
      <trkpt lat="45.74941" lon="6.74762">
        <ele>2511</ele>
        <time>2026-07-29T08:20:54.716Z</time>
      </trkpt>
      <trkpt lat="45.7494" lon="6.74761">
        <ele>2511</ele>
        <time>2026-07-29T08:20:55.716Z</time>
      </trkpt>
      <trkpt lat="45.7494" lon="6.74761">
        <ele>2511</ele>
        <time>2026-07-29T08:20:56.716Z</time>
      </trkpt>
      <trkpt lat="45.7494" lon="6.7476">
        <ele>2511</ele>
        <time>2026-07-29T08:20:57.716Z</time>
      </trkpt>
      <trkpt lat="45.74939" lon="6.7476">
        <ele>2511</ele>
        <time>2026-07-29T08:20:58.716Z</time>
      </trkpt>
      <trkpt lat="45.74939" lon="6.74759">
        <ele>2511</ele>
        <time>2026-07-29T08:20:59.716Z</time>
      </trkpt>
      <trkpt lat="45.74939" lon="6.74759">
        <ele>2511</ele>
        <time>2026-07-29T08:21:00.716Z</time>
      </trkpt>
      <trkpt lat="45.74939" lon="6.74759">
        <ele>2511</ele>
        <time>2026-07-29T08:21:01.716Z</time>
      </trkpt>
      <trkpt lat="45.74939" lon="6.74758">
        <ele>2511</ele>
        <time>2026-07-29T08:21:02.716Z</time>
      </trkpt>
      <trkpt lat="45.74939" lon="6.74758">
        <ele>2512</ele>
        <time>2026-07-29T08:21:03.716Z</time>
      </trkpt>
      <trkpt lat="45.74939" lon="6.74758">
        <ele>2512</ele>
        <time>2026-07-29T08:21:04.716Z</time>
      </trkpt>
      <trkpt lat="45.74939" lon="6.74758">
        <ele>2512</ele>
        <time>2026-07-29T08:21:05.716Z</time>
      </trkpt>
      <trkpt lat="45.74938" lon="6.74758">
        <ele>2513</ele>
        <time>2026-07-29T08:21:06.716Z</time>
      </trkpt>
      <trkpt lat="45.74938" lon="6.74758">
        <ele>2513</ele>
        <time>2026-07-29T08:21:07.716Z</time>
      </trkpt>
      <trkpt lat="45.74937" lon="6.74758">
        <ele>2513</ele>
        <time>2026-07-29T08:21:08.716Z</time>
      </trkpt>
      <trkpt lat="45.74937" lon="6.74758">
        <ele>2513</ele>
        <time>2026-07-29T08:21:09.716Z</time>
      </trkpt>
      <trkpt lat="45.74936" lon="6.74758">
        <ele>2513</ele>
        <time>2026-07-29T08:21:10.716Z</time>
      </trkpt>
      <trkpt lat="45.74935" lon="6.74758">
        <ele>2513</ele>
        <time>2026-07-29T08:21:11.716Z</time>
      </trkpt>
      <trkpt lat="45.74935" lon="6.74757">
        <ele>2512</ele>
        <time>2026-07-29T08:21:12.716Z</time>
      </trkpt>
      <trkpt lat="45.74934" lon="6.74756">
        <ele>2512</ele>
        <time>2026-07-29T08:21:13.716Z</time>
      </trkpt>
      <trkpt lat="45.74934" lon="6.74756">
        <ele>2512</ele>
        <time>2026-07-29T08:21:14.716Z</time>
      </trkpt>
      <trkpt lat="45.74933" lon="6.74755">
        <ele>2512</ele>
        <time>2026-07-29T08:21:15.716Z</time>
      </trkpt>
      <trkpt lat="45.74933" lon="6.74754">
        <ele>2512</ele>
        <time>2026-07-29T08:21:16.716Z</time>
      </trkpt>
      <trkpt lat="45.74932" lon="6.74753">
        <ele>2512</ele>
        <time>2026-07-29T08:21:17.716Z</time>
      </trkpt>
      <trkpt lat="45.74931" lon="6.74752">
        <ele>2512</ele>
        <time>2026-07-29T08:21:18.716Z</time>
      </trkpt>
      <trkpt lat="45.7493" lon="6.74751">
        <ele>2512</ele>
        <time>2026-07-29T08:21:19.716Z</time>
      </trkpt>
      <trkpt lat="45.7493" lon="6.7475">
        <ele>2512</ele>
        <time>2026-07-29T08:21:20.716Z</time>
      </trkpt>
      <trkpt lat="45.7493" lon="6.7475">
        <ele>2512</ele>
        <time>2026-07-29T08:21:21.716Z</time>
      </trkpt>
      <trkpt lat="45.74929" lon="6.74749">
        <ele>2513</ele>
        <time>2026-07-29T08:21:22.716Z</time>
      </trkpt>
      <trkpt lat="45.74928" lon="6.74749">
        <ele>2513</ele>
        <time>2026-07-29T08:21:23.716Z</time>
      </trkpt>
      <trkpt lat="45.74928" lon="6.74748">
        <ele>2513</ele>
        <time>2026-07-29T08:21:24.716Z</time>
      </trkpt>
      <trkpt lat="45.74927" lon="6.74747">
        <ele>2514</ele>
        <time>2026-07-29T08:21:25.716Z</time>
      </trkpt>
      <trkpt lat="45.74926" lon="6.74746">
        <ele>2513</ele>
        <time>2026-07-29T08:21:26.716Z</time>
      </trkpt>
      <trkpt lat="45.74926" lon="6.74745">
        <ele>2513</ele>
        <time>2026-07-29T08:21:27.716Z</time>
      </trkpt>
      <trkpt lat="45.74925" lon="6.74744">
        <ele>2513</ele>
        <time>2026-07-29T08:21:28.716Z</time>
      </trkpt>
      <trkpt lat="45.74925" lon="6.74743">
        <ele>2513</ele>
        <time>2026-07-29T08:21:29.716Z</time>
      </trkpt>
      <trkpt lat="45.74925" lon="6.74742">
        <ele>2513</ele>
        <time>2026-07-29T08:21:30.716Z</time>
      </trkpt>
      <trkpt lat="45.74925" lon="6.74741">
        <ele>2513</ele>
        <time>2026-07-29T08:21:31.716Z</time>
      </trkpt>
      <trkpt lat="45.74925" lon="6.7474">
        <ele>2513</ele>
        <time>2026-07-29T08:21:32.716Z</time>
      </trkpt>
      <trkpt lat="45.74924" lon="6.74739">
        <ele>2513</ele>
        <time>2026-07-29T08:21:33.716Z</time>
      </trkpt>
      <trkpt lat="45.74924" lon="6.74739">
        <ele>2512</ele>
        <time>2026-07-29T08:21:34.716Z</time>
      </trkpt>
      <trkpt lat="45.74923" lon="6.74738">
        <ele>2512</ele>
        <time>2026-07-29T08:21:35.716Z</time>
      </trkpt>
      <trkpt lat="45.74923" lon="6.74738">
        <ele>2512</ele>
        <time>2026-07-29T08:21:36.716Z</time>
      </trkpt>
      <trkpt lat="45.74922" lon="6.74737">
        <ele>2512</ele>
        <time>2026-07-29T08:21:37.716Z</time>
      </trkpt>
      <trkpt lat="45.74922" lon="6.74737">
        <ele>2512</ele>
        <time>2026-07-29T08:21:38.716Z</time>
      </trkpt>
      <trkpt lat="45.74922" lon="6.74737">
        <ele>2512</ele>
        <time>2026-07-29T08:21:39.716Z</time>
      </trkpt>
      <trkpt lat="45.74922" lon="6.74736">
        <ele>2511</ele>
        <time>2026-07-29T08:21:40.716Z</time>
      </trkpt>
      <trkpt lat="45.74922" lon="6.74736">
        <ele>2511</ele>
        <time>2026-07-29T08:21:41.716Z</time>
      </trkpt>
      <trkpt lat="45.74922" lon="6.74736">
        <ele>2511</ele>
        <time>2026-07-29T08:21:42.716Z</time>
      </trkpt>
      <trkpt lat="45.74922" lon="6.74736">
        <ele>2510</ele>
        <time>2026-07-29T08:21:43.716Z</time>
      </trkpt>
      <trkpt lat="45.74922" lon="6.74736">
        <ele>2509</ele>
        <time>2026-07-29T08:21:44.716Z</time>
      </trkpt>
      <trkpt lat="45.74922" lon="6.74736">
        <ele>2508</ele>
        <time>2026-07-29T08:21:45.716Z</time>
      </trkpt>
      <trkpt lat="45.74922" lon="6.74735">
        <ele>2507</ele>
        <time>2026-07-29T08:21:46.716Z</time>
      </trkpt>
      <trkpt lat="45.74922" lon="6.74735">
        <ele>2506</ele>
        <time>2026-07-29T08:21:47.716Z</time>
      </trkpt>
      <trkpt lat="45.74922" lon="6.74735">
        <ele>2505</ele>
        <time>2026-07-29T08:21:48.716Z</time>
      </trkpt>
      <trkpt lat="45.74922" lon="6.74735">
        <ele>2505</ele>
        <time>2026-07-29T08:21:49.716Z</time>
      </trkpt>
      <trkpt lat="45.74922" lon="6.74735">
        <ele>2504</ele>
        <time>2026-07-29T08:21:50.716Z</time>
      </trkpt>
      <trkpt lat="45.74922" lon="6.74735">
        <ele>2504</ele>
        <time>2026-07-29T08:21:51.716Z</time>
      </trkpt>
      <trkpt lat="45.74922" lon="6.74735">
        <ele>2504</ele>
        <time>2026-07-29T08:21:52.716Z</time>
      </trkpt>
      <trkpt lat="45.74922" lon="6.74735">
        <ele>2504</ele>
        <time>2026-07-29T08:21:53.716Z</time>
      </trkpt>
      <trkpt lat="45.74922" lon="6.74736">
        <ele>2504</ele>
        <time>2026-07-29T08:21:54.716Z</time>
      </trkpt>
      <trkpt lat="45.74922" lon="6.74736">
        <ele>2504</ele>
        <time>2026-07-29T08:21:55.716Z</time>
      </trkpt>
      <trkpt lat="45.74922" lon="6.74736">
        <ele>2505</ele>
        <time>2026-07-29T08:21:56.716Z</time>
      </trkpt>
      <trkpt lat="45.74922" lon="6.74736">
        <ele>2505</ele>
        <time>2026-07-29T08:21:57.716Z</time>
      </trkpt>
      <trkpt lat="45.74922" lon="6.74736">
        <ele>2505</ele>
        <time>2026-07-29T08:21:58.716Z</time>
      </trkpt>
      <trkpt lat="45.74921" lon="6.74736">
        <ele>2506</ele>
        <time>2026-07-29T08:21:59.716Z</time>
      </trkpt>
      <trkpt lat="45.74921" lon="6.74736">
        <ele>2506</ele>
        <time>2026-07-29T08:22:00.716Z</time>
      </trkpt>
      <trkpt lat="45.7492" lon="6.74736">
        <ele>2507</ele>
        <time>2026-07-29T08:22:01.716Z</time>
      </trkpt>
      <trkpt lat="45.74919" lon="6.74737">
        <ele>2507</ele>
        <time>2026-07-29T08:22:02.716Z</time>
      </trkpt>
      <trkpt lat="45.74919" lon="6.74736">
        <ele>2508</ele>
        <time>2026-07-29T08:22:03.716Z</time>
      </trkpt>
      <trkpt lat="45.74919" lon="6.74736">
        <ele>2509</ele>
        <time>2026-07-29T08:22:04.716Z</time>
      </trkpt>
      <trkpt lat="45.74918" lon="6.74736">
        <ele>2509</ele>
        <time>2026-07-29T08:22:05.716Z</time>
      </trkpt>
      <trkpt lat="45.74918" lon="6.74735">
        <ele>2510</ele>
        <time>2026-07-29T08:22:06.716Z</time>
      </trkpt>
      <trkpt lat="45.74918" lon="6.74735">
        <ele>2510</ele>
        <time>2026-07-29T08:22:07.716Z</time>
      </trkpt>
      <trkpt lat="45.74918" lon="6.74736">
        <ele>2511</ele>
        <time>2026-07-29T08:22:08.716Z</time>
      </trkpt>
      <trkpt lat="45.74918" lon="6.74735">
        <ele>2512</ele>
        <time>2026-07-29T08:22:09.716Z</time>
      </trkpt>
      <trkpt lat="45.74918" lon="6.74735">
        <ele>2512</ele>
        <time>2026-07-29T08:22:10.716Z</time>
      </trkpt>
      <trkpt lat="45.74918" lon="6.74734">
        <ele>2512</ele>
        <time>2026-07-29T08:22:11.716Z</time>
      </trkpt>
      <trkpt lat="45.74918" lon="6.74733">
        <ele>2512</ele>
        <time>2026-07-29T08:22:12.716Z</time>
      </trkpt>
      <trkpt lat="45.74918" lon="6.74732">
        <ele>2512</ele>
        <time>2026-07-29T08:22:13.716Z</time>
      </trkpt>
      <trkpt lat="45.74918" lon="6.7473">
        <ele>2513</ele>
        <time>2026-07-29T08:22:14.716Z</time>
      </trkpt>
      <trkpt lat="45.74918" lon="6.74729">
        <ele>2514</ele>
        <time>2026-07-29T08:22:15.716Z</time>
      </trkpt>
      <trkpt lat="45.74917" lon="6.74729">
        <ele>2514</ele>
        <time>2026-07-29T08:22:16.716Z</time>
      </trkpt>
      <trkpt lat="45.74917" lon="6.74728">
        <ele>2514</ele>
        <time>2026-07-29T08:22:17.716Z</time>
      </trkpt>
      <trkpt lat="45.74917" lon="6.74727">
        <ele>2514</ele>
        <time>2026-07-29T08:22:18.716Z</time>
      </trkpt>
      <trkpt lat="45.74916" lon="6.74727">
        <ele>2514</ele>
        <time>2026-07-29T08:22:19.716Z</time>
      </trkpt>
      <trkpt lat="45.74915" lon="6.74726">
        <ele>2514</ele>
        <time>2026-07-29T08:22:20.716Z</time>
      </trkpt>
      <trkpt lat="45.74915" lon="6.74725">
        <ele>2514</ele>
        <time>2026-07-29T08:22:21.716Z</time>
      </trkpt>
      <trkpt lat="45.74914" lon="6.74724">
        <ele>2514</ele>
        <time>2026-07-29T08:22:22.716Z</time>
      </trkpt>
      <trkpt lat="45.74913" lon="6.74724">
        <ele>2514</ele>
        <time>2026-07-29T08:22:23.716Z</time>
      </trkpt>
      <trkpt lat="45.74913" lon="6.74723">
        <ele>2514</ele>
        <time>2026-07-29T08:22:24.716Z</time>
      </trkpt>
      <trkpt lat="45.74912" lon="6.74723">
        <ele>2514</ele>
        <time>2026-07-29T08:22:25.716Z</time>
      </trkpt>
      <trkpt lat="45.74912" lon="6.74723">
        <ele>2514</ele>
        <time>2026-07-29T08:22:26.716Z</time>
      </trkpt>
      <trkpt lat="45.74911" lon="6.74723">
        <ele>2514</ele>
        <time>2026-07-29T08:22:27.716Z</time>
      </trkpt>
      <trkpt lat="45.74911" lon="6.74723">
        <ele>2514</ele>
        <time>2026-07-29T08:22:28.716Z</time>
      </trkpt>
      <trkpt lat="45.74911" lon="6.74723">
        <ele>2513</ele>
        <time>2026-07-29T08:22:29.716Z</time>
      </trkpt>
      <trkpt lat="45.74911" lon="6.74722">
        <ele>2513</ele>
        <time>2026-07-29T08:22:30.716Z</time>
      </trkpt>
      <trkpt lat="45.74911" lon="6.74722">
        <ele>2512</ele>
        <time>2026-07-29T08:22:31.716Z</time>
      </trkpt>
      <trkpt lat="45.7491" lon="6.74722">
        <ele>2512</ele>
        <time>2026-07-29T08:22:32.716Z</time>
      </trkpt>
      <trkpt lat="45.74909" lon="6.74722">
        <ele>2512</ele>
        <time>2026-07-29T08:22:33.716Z</time>
      </trkpt>
      <trkpt lat="45.74908" lon="6.74722">
        <ele>2512</ele>
        <time>2026-07-29T08:22:34.716Z</time>
      </trkpt>
      <trkpt lat="45.74907" lon="6.74721">
        <ele>2511</ele>
        <time>2026-07-29T08:22:35.716Z</time>
      </trkpt>
      <trkpt lat="45.74906" lon="6.74721">
        <ele>2511</ele>
        <time>2026-07-29T08:22:36.716Z</time>
      </trkpt>
      <trkpt lat="45.74906" lon="6.74721">
        <ele>2510</ele>
        <time>2026-07-29T08:22:37.716Z</time>
      </trkpt>
      <trkpt lat="45.74905" lon="6.74721">
        <ele>2510</ele>
        <time>2026-07-29T08:22:38.716Z</time>
      </trkpt>
      <trkpt lat="45.74904" lon="6.74721">
        <ele>2509</ele>
        <time>2026-07-29T08:22:39.716Z</time>
      </trkpt>
      <trkpt lat="45.74903" lon="6.74721">
        <ele>2509</ele>
        <time>2026-07-29T08:22:40.716Z</time>
      </trkpt>
      <trkpt lat="45.74902" lon="6.74721">
        <ele>2509</ele>
        <time>2026-07-29T08:22:41.716Z</time>
      </trkpt>
      <trkpt lat="45.74901" lon="6.74721">
        <ele>2508</ele>
        <time>2026-07-29T08:22:42.716Z</time>
      </trkpt>
      <trkpt lat="45.749" lon="6.74721">
        <ele>2508</ele>
        <time>2026-07-29T08:22:43.716Z</time>
      </trkpt>
      <trkpt lat="45.74899" lon="6.74721">
        <ele>2508</ele>
        <time>2026-07-29T08:22:44.716Z</time>
      </trkpt>
      <trkpt lat="45.74898" lon="6.74721">
        <ele>2508</ele>
        <time>2026-07-29T08:22:45.716Z</time>
      </trkpt>
      <trkpt lat="45.74897" lon="6.74721">
        <ele>2508</ele>
        <time>2026-07-29T08:22:46.716Z</time>
      </trkpt>
      <trkpt lat="45.74896" lon="6.74721">
        <ele>2508</ele>
        <time>2026-07-29T08:22:47.716Z</time>
      </trkpt>
      <trkpt lat="45.74896" lon="6.74721">
        <ele>2508</ele>
        <time>2026-07-29T08:22:48.716Z</time>
      </trkpt>
      <trkpt lat="45.74895" lon="6.74721">
        <ele>2508</ele>
        <time>2026-07-29T08:22:49.716Z</time>
      </trkpt>
      <trkpt lat="45.74894" lon="6.74722">
        <ele>2509</ele>
        <time>2026-07-29T08:22:50.716Z</time>
      </trkpt>
      <trkpt lat="45.74894" lon="6.74723">
        <ele>2509</ele>
        <time>2026-07-29T08:22:51.716Z</time>
      </trkpt>
      <trkpt lat="45.74893" lon="6.74724">
        <ele>2509</ele>
        <time>2026-07-29T08:22:52.716Z</time>
      </trkpt>
      <trkpt lat="45.74892" lon="6.74724">
        <ele>2509</ele>
        <time>2026-07-29T08:22:53.716Z</time>
      </trkpt>
      <trkpt lat="45.74891" lon="6.74725">
        <ele>2509</ele>
        <time>2026-07-29T08:22:54.716Z</time>
      </trkpt>
      <trkpt lat="45.7489" lon="6.74726">
        <ele>2509</ele>
        <time>2026-07-29T08:22:55.716Z</time>
      </trkpt>
      <trkpt lat="45.74889" lon="6.74726">
        <ele>2509</ele>
        <time>2026-07-29T08:22:56.716Z</time>
      </trkpt>
      <trkpt lat="45.74888" lon="6.74726">
        <ele>2510</ele>
        <time>2026-07-29T08:22:57.716Z</time>
      </trkpt>
      <trkpt lat="45.74887" lon="6.74727">
        <ele>2509</ele>
        <time>2026-07-29T08:22:58.716Z</time>
      </trkpt>
      <trkpt lat="45.74886" lon="6.74728">
        <ele>2509</ele>
        <time>2026-07-29T08:22:59.716Z</time>
      </trkpt>
      <trkpt lat="45.74886" lon="6.74729">
        <ele>2509</ele>
        <time>2026-07-29T08:23:00.716Z</time>
      </trkpt>
      <trkpt lat="45.74885" lon="6.7473">
        <ele>2509</ele>
        <time>2026-07-29T08:23:01.716Z</time>
      </trkpt>
      <trkpt lat="45.74884" lon="6.7473">
        <ele>2509</ele>
        <time>2026-07-29T08:23:02.716Z</time>
      </trkpt>
      <trkpt lat="45.74883" lon="6.74731">
        <ele>2508</ele>
        <time>2026-07-29T08:23:03.716Z</time>
      </trkpt>
      <trkpt lat="45.74882" lon="6.74732">
        <ele>2508</ele>
        <time>2026-07-29T08:23:04.716Z</time>
      </trkpt>
      <trkpt lat="45.74881" lon="6.74733">
        <ele>2508</ele>
        <time>2026-07-29T08:23:05.716Z</time>
      </trkpt>
      <trkpt lat="45.74881" lon="6.74734">
        <ele>2508</ele>
        <time>2026-07-29T08:23:06.716Z</time>
      </trkpt>
      <trkpt lat="45.74881" lon="6.74734">
        <ele>2508</ele>
        <time>2026-07-29T08:23:07.716Z</time>
      </trkpt>
      <trkpt lat="45.7488" lon="6.74735">
        <ele>2508</ele>
        <time>2026-07-29T08:23:08.716Z</time>
      </trkpt>
      <trkpt lat="45.7488" lon="6.74735">
        <ele>2508</ele>
        <time>2026-07-29T08:23:09.716Z</time>
      </trkpt>
      <trkpt lat="45.7488" lon="6.74735">
        <ele>2508</ele>
        <time>2026-07-29T08:23:10.716Z</time>
      </trkpt>
      <trkpt lat="45.7488" lon="6.74735">
        <ele>2508</ele>
        <time>2026-07-29T08:23:11.716Z</time>
      </trkpt>
      <trkpt lat="45.74881" lon="6.74735">
        <ele>2508</ele>
        <time>2026-07-29T08:23:12.716Z</time>
      </trkpt>
      <trkpt lat="45.74881" lon="6.74735">
        <ele>2508</ele>
        <time>2026-07-29T08:23:13.716Z</time>
      </trkpt>
      <trkpt lat="45.74881" lon="6.74735">
        <ele>2508</ele>
        <time>2026-07-29T08:23:14.716Z</time>
      </trkpt>
      <trkpt lat="45.74881" lon="6.74735">
        <ele>2508</ele>
        <time>2026-07-29T08:23:15.716Z</time>
      </trkpt>
      <trkpt lat="45.74881" lon="6.74735">
        <ele>2508</ele>
        <time>2026-07-29T08:23:16.716Z</time>
      </trkpt>
      <trkpt lat="45.74881" lon="6.74735">
        <ele>2509</ele>
        <time>2026-07-29T08:23:17.716Z</time>
      </trkpt>
      <trkpt lat="45.74881" lon="6.74735">
        <ele>2508</ele>
        <time>2026-07-29T08:23:18.716Z</time>
      </trkpt>
      <trkpt lat="45.74881" lon="6.74735">
        <ele>2507</ele>
        <time>2026-07-29T08:23:19.716Z</time>
      </trkpt>
      <trkpt lat="45.74881" lon="6.74735">
        <ele>2507</ele>
        <time>2026-07-29T08:23:20.716Z</time>
      </trkpt>
      <trkpt lat="45.74881" lon="6.74735">
        <ele>2507</ele>
        <time>2026-07-29T08:23:21.716Z</time>
      </trkpt>
      <trkpt lat="45.74881" lon="6.74735">
        <ele>2506</ele>
        <time>2026-07-29T08:23:22.716Z</time>
      </trkpt>
      <trkpt lat="45.74881" lon="6.74735">
        <ele>2506</ele>
        <time>2026-07-29T08:23:23.716Z</time>
      </trkpt>
      <trkpt lat="45.74881" lon="6.74735">
        <ele>2506</ele>
        <time>2026-07-29T08:23:24.716Z</time>
      </trkpt>
      <trkpt lat="45.74881" lon="6.74735">
        <ele>2506</ele>
        <time>2026-07-29T08:23:25.716Z</time>
      </trkpt>
      <trkpt lat="45.74881" lon="6.74735">
        <ele>2505</ele>
        <time>2026-07-29T08:23:26.716Z</time>
      </trkpt>
      <trkpt lat="45.7488" lon="6.74736">
        <ele>2505</ele>
        <time>2026-07-29T08:23:27.716Z</time>
      </trkpt>
      <trkpt lat="45.74879" lon="6.74738">
        <ele>2505</ele>
        <time>2026-07-29T08:23:28.716Z</time>
      </trkpt>
      <trkpt lat="45.74878" lon="6.7474">
        <ele>2505</ele>
        <time>2026-07-29T08:23:29.716Z</time>
      </trkpt>
      <trkpt lat="45.74878" lon="6.74742">
        <ele>2505</ele>
        <time>2026-07-29T08:23:30.716Z</time>
      </trkpt>
      <trkpt lat="45.74876" lon="6.74745">
        <ele>2505</ele>
        <time>2026-07-29T08:23:31.716Z</time>
      </trkpt>
      <trkpt lat="45.74875" lon="6.74747">
        <ele>2505</ele>
        <time>2026-07-29T08:23:32.716Z</time>
      </trkpt>
      <trkpt lat="45.74873" lon="6.74749">
        <ele>2506</ele>
        <time>2026-07-29T08:23:33.716Z</time>
      </trkpt>
      <trkpt lat="45.74871" lon="6.74751">
        <ele>2506</ele>
        <time>2026-07-29T08:23:34.716Z</time>
      </trkpt>
      <trkpt lat="45.7487" lon="6.74753">
        <ele>2506</ele>
        <time>2026-07-29T08:23:35.716Z</time>
      </trkpt>
      <trkpt lat="45.74869" lon="6.74754">
        <ele>2507</ele>
        <time>2026-07-29T08:23:36.716Z</time>
      </trkpt>
      <trkpt lat="45.74868" lon="6.74756">
        <ele>2507</ele>
        <time>2026-07-29T08:23:37.716Z</time>
      </trkpt>
      <trkpt lat="45.74868" lon="6.74756">
        <ele>2508</ele>
        <time>2026-07-29T08:23:38.716Z</time>
      </trkpt>
      <trkpt lat="45.74866" lon="6.74757">
        <ele>2508</ele>
        <time>2026-07-29T08:23:39.716Z</time>
      </trkpt>
      <trkpt lat="45.74866" lon="6.74758">
        <ele>2508</ele>
        <time>2026-07-29T08:23:40.716Z</time>
      </trkpt>
      <trkpt lat="45.74865" lon="6.74758">
        <ele>2509</ele>
        <time>2026-07-29T08:23:41.716Z</time>
      </trkpt>
      <trkpt lat="45.74865" lon="6.74757">
        <ele>2509</ele>
        <time>2026-07-29T08:23:42.716Z</time>
      </trkpt>
      <trkpt lat="45.74864" lon="6.74756">
        <ele>2509</ele>
        <time>2026-07-29T08:23:43.716Z</time>
      </trkpt>
      <trkpt lat="45.74864" lon="6.74756">
        <ele>2510</ele>
        <time>2026-07-29T08:23:44.716Z</time>
      </trkpt>
      <trkpt lat="45.74863" lon="6.74756">
        <ele>2510</ele>
        <time>2026-07-29T08:23:45.716Z</time>
      </trkpt>
      <trkpt lat="45.74863" lon="6.74756">
        <ele>2511</ele>
        <time>2026-07-29T08:23:46.716Z</time>
      </trkpt>
      <trkpt lat="45.74863" lon="6.74755">
        <ele>2511</ele>
        <time>2026-07-29T08:23:47.716Z</time>
      </trkpt>
      <trkpt lat="45.74862" lon="6.74754">
        <ele>2512</ele>
        <time>2026-07-29T08:23:48.716Z</time>
      </trkpt>
      <trkpt lat="45.74862" lon="6.74754">
        <ele>2513</ele>
        <time>2026-07-29T08:23:49.716Z</time>
      </trkpt>
      <trkpt lat="45.74861" lon="6.74753">
        <ele>2513</ele>
        <time>2026-07-29T08:23:50.716Z</time>
      </trkpt>
      <trkpt lat="45.7486" lon="6.74752">
        <ele>2514</ele>
        <time>2026-07-29T08:23:51.716Z</time>
      </trkpt>
      <trkpt lat="45.7486" lon="6.74752">
        <ele>2514</ele>
        <time>2026-07-29T08:23:52.716Z</time>
      </trkpt>
      <trkpt lat="45.74859" lon="6.74751">
        <ele>2515</ele>
        <time>2026-07-29T08:23:53.716Z</time>
      </trkpt>
      <trkpt lat="45.74858" lon="6.74751">
        <ele>2516</ele>
        <time>2026-07-29T08:23:54.716Z</time>
      </trkpt>
      <trkpt lat="45.74857" lon="6.74751">
        <ele>2516</ele>
        <time>2026-07-29T08:23:55.716Z</time>
      </trkpt>
      <trkpt lat="45.74857" lon="6.74751">
        <ele>2517</ele>
        <time>2026-07-29T08:23:56.716Z</time>
      </trkpt>
      <trkpt lat="45.74856" lon="6.74751">
        <ele>2517</ele>
        <time>2026-07-29T08:23:57.716Z</time>
      </trkpt>
      <trkpt lat="45.74855" lon="6.7475">
        <ele>2517</ele>
        <time>2026-07-29T08:23:58.716Z</time>
      </trkpt>
      <trkpt lat="45.74855" lon="6.7475">
        <ele>2518</ele>
        <time>2026-07-29T08:23:59.716Z</time>
      </trkpt>
      <trkpt lat="45.74854" lon="6.7475">
        <ele>2518</ele>
        <time>2026-07-29T08:24:00.716Z</time>
      </trkpt>
      <trkpt lat="45.74853" lon="6.74751">
        <ele>2518</ele>
        <time>2026-07-29T08:24:01.716Z</time>
      </trkpt>
      <trkpt lat="45.74852" lon="6.7475">
        <ele>2518</ele>
        <time>2026-07-29T08:24:02.716Z</time>
      </trkpt>
      <trkpt lat="45.74851" lon="6.7475">
        <ele>2518</ele>
        <time>2026-07-29T08:24:03.716Z</time>
      </trkpt>
      <trkpt lat="45.7485" lon="6.7475">
        <ele>2518</ele>
        <time>2026-07-29T08:24:04.716Z</time>
      </trkpt>
      <trkpt lat="45.74849" lon="6.7475">
        <ele>2518</ele>
        <time>2026-07-29T08:24:05.716Z</time>
      </trkpt>
      <trkpt lat="45.74848" lon="6.7475">
        <ele>2518</ele>
        <time>2026-07-29T08:24:06.716Z</time>
      </trkpt>
      <trkpt lat="45.74847" lon="6.7475">
        <ele>2518</ele>
        <time>2026-07-29T08:24:07.716Z</time>
      </trkpt>
      <trkpt lat="45.74846" lon="6.7475">
        <ele>2518</ele>
        <time>2026-07-29T08:24:08.716Z</time>
      </trkpt>
      <trkpt lat="45.74845" lon="6.7475">
        <ele>2518</ele>
        <time>2026-07-29T08:24:09.716Z</time>
      </trkpt>
      <trkpt lat="45.74843" lon="6.7475">
        <ele>2518</ele>
        <time>2026-07-29T08:24:10.716Z</time>
      </trkpt>
      <trkpt lat="45.74842" lon="6.7475">
        <ele>2518</ele>
        <time>2026-07-29T08:24:11.716Z</time>
      </trkpt>
      <trkpt lat="45.74841" lon="6.7475">
        <ele>2518</ele>
        <time>2026-07-29T08:24:12.716Z</time>
      </trkpt>
      <trkpt lat="45.74839" lon="6.7475">
        <ele>2519</ele>
        <time>2026-07-29T08:24:13.716Z</time>
      </trkpt>
      <trkpt lat="45.74838" lon="6.74751">
        <ele>2519</ele>
        <time>2026-07-29T08:24:14.716Z</time>
      </trkpt>
      <trkpt lat="45.74836" lon="6.74752">
        <ele>2519</ele>
        <time>2026-07-29T08:24:15.716Z</time>
      </trkpt>
      <trkpt lat="45.74835" lon="6.74752">
        <ele>2519</ele>
        <time>2026-07-29T08:24:16.716Z</time>
      </trkpt>
      <trkpt lat="45.74834" lon="6.74752">
        <ele>2519</ele>
        <time>2026-07-29T08:24:17.716Z</time>
      </trkpt>
      <trkpt lat="45.74833" lon="6.74751">
        <ele>2519</ele>
        <time>2026-07-29T08:24:18.716Z</time>
      </trkpt>
      <trkpt lat="45.74832" lon="6.74751">
        <ele>2518</ele>
        <time>2026-07-29T08:24:19.716Z</time>
      </trkpt>
      <trkpt lat="45.74831" lon="6.74751">
        <ele>2518</ele>
        <time>2026-07-29T08:24:20.716Z</time>
      </trkpt>
      <trkpt lat="45.7483" lon="6.7475">
        <ele>2517</ele>
        <time>2026-07-29T08:24:21.716Z</time>
      </trkpt>
      <trkpt lat="45.7483" lon="6.74749">
        <ele>2517</ele>
        <time>2026-07-29T08:24:22.716Z</time>
      </trkpt>
      <trkpt lat="45.74829" lon="6.74748">
        <ele>2517</ele>
        <time>2026-07-29T08:24:23.716Z</time>
      </trkpt>
      <trkpt lat="45.74828" lon="6.74748">
        <ele>2517</ele>
        <time>2026-07-29T08:24:24.716Z</time>
      </trkpt>
      <trkpt lat="45.74827" lon="6.74747">
        <ele>2517</ele>
        <time>2026-07-29T08:24:25.716Z</time>
      </trkpt>
      <trkpt lat="45.74826" lon="6.74746">
        <ele>2518</ele>
        <time>2026-07-29T08:24:26.716Z</time>
      </trkpt>
      <trkpt lat="45.74825" lon="6.74746">
        <ele>2518</ele>
        <time>2026-07-29T08:24:27.716Z</time>
      </trkpt>
      <trkpt lat="45.74824" lon="6.74745">
        <ele>2518</ele>
        <time>2026-07-29T08:24:28.716Z</time>
      </trkpt>
      <trkpt lat="45.74823" lon="6.74745">
        <ele>2518</ele>
        <time>2026-07-29T08:24:29.716Z</time>
      </trkpt>
      <trkpt lat="45.74821" lon="6.74745">
        <ele>2518</ele>
        <time>2026-07-29T08:24:30.716Z</time>
      </trkpt>
      <trkpt lat="45.7482" lon="6.74745">
        <ele>2518</ele>
        <time>2026-07-29T08:24:31.716Z</time>
      </trkpt>
      <trkpt lat="45.74819" lon="6.74744">
        <ele>2519</ele>
        <time>2026-07-29T08:24:32.716Z</time>
      </trkpt>
      <trkpt lat="45.74818" lon="6.74744">
        <ele>2519</ele>
        <time>2026-07-29T08:24:33.716Z</time>
      </trkpt>
      <trkpt lat="45.74817" lon="6.74744">
        <ele>2519</ele>
        <time>2026-07-29T08:24:34.716Z</time>
      </trkpt>
      <trkpt lat="45.74816" lon="6.74744">
        <ele>2518</ele>
        <time>2026-07-29T08:24:35.716Z</time>
      </trkpt>
      <trkpt lat="45.74815" lon="6.74744">
        <ele>2518</ele>
        <time>2026-07-29T08:24:36.716Z</time>
      </trkpt>
      <trkpt lat="45.74815" lon="6.74743">
        <ele>2518</ele>
        <time>2026-07-29T08:24:37.716Z</time>
      </trkpt>
      <trkpt lat="45.74814" lon="6.74742">
        <ele>2519</ele>
        <time>2026-07-29T08:24:38.716Z</time>
      </trkpt>
      <trkpt lat="45.74814" lon="6.7474">
        <ele>2519</ele>
        <time>2026-07-29T08:24:39.716Z</time>
      </trkpt>
      <trkpt lat="45.74813" lon="6.74739">
        <ele>2519</ele>
        <time>2026-07-29T08:24:40.716Z</time>
      </trkpt>
      <trkpt lat="45.74812" lon="6.74738">
        <ele>2519</ele>
        <time>2026-07-29T08:24:41.716Z</time>
      </trkpt>
      <trkpt lat="45.74811" lon="6.74738">
        <ele>2518</ele>
        <time>2026-07-29T08:24:42.716Z</time>
      </trkpt>
      <trkpt lat="45.74811" lon="6.74737">
        <ele>2518</ele>
        <time>2026-07-29T08:24:43.716Z</time>
      </trkpt>
      <trkpt lat="45.7481" lon="6.74736">
        <ele>2518</ele>
        <time>2026-07-29T08:24:44.716Z</time>
      </trkpt>
      <trkpt lat="45.7481" lon="6.74735">
        <ele>2517</ele>
        <time>2026-07-29T08:24:45.716Z</time>
      </trkpt>
      <trkpt lat="45.74809" lon="6.74735">
        <ele>2517</ele>
        <time>2026-07-29T08:24:46.716Z</time>
      </trkpt>
      <trkpt lat="45.74809" lon="6.74735">
        <ele>2517</ele>
        <time>2026-07-29T08:24:47.716Z</time>
      </trkpt>
      <trkpt lat="45.74808" lon="6.74734">
        <ele>2517</ele>
        <time>2026-07-29T08:24:48.716Z</time>
      </trkpt>
      <trkpt lat="45.74807" lon="6.74734">
        <ele>2517</ele>
        <time>2026-07-29T08:24:49.716Z</time>
      </trkpt>
      <trkpt lat="45.74806" lon="6.74734">
        <ele>2517</ele>
        <time>2026-07-29T08:24:50.716Z</time>
      </trkpt>
      <trkpt lat="45.74805" lon="6.74733">
        <ele>2517</ele>
        <time>2026-07-29T08:24:51.716Z</time>
      </trkpt>
      <trkpt lat="45.74804" lon="6.74731">
        <ele>2517</ele>
        <time>2026-07-29T08:24:52.716Z</time>
      </trkpt>
      <trkpt lat="45.74803" lon="6.74729">
        <ele>2518</ele>
        <time>2026-07-29T08:24:53.716Z</time>
      </trkpt>
      <trkpt lat="45.74802" lon="6.74728">
        <ele>2518</ele>
        <time>2026-07-29T08:24:54.716Z</time>
      </trkpt>
      <trkpt lat="45.74802" lon="6.74726">
        <ele>2519</ele>
        <time>2026-07-29T08:24:55.716Z</time>
      </trkpt>
      <trkpt lat="45.74801" lon="6.74724">
        <ele>2519</ele>
        <time>2026-07-29T08:24:56.716Z</time>
      </trkpt>
      <trkpt lat="45.748" lon="6.74723">
        <ele>2519</ele>
        <time>2026-07-29T08:24:57.716Z</time>
      </trkpt>
      <trkpt lat="45.748" lon="6.74723">
        <ele>2519</ele>
        <time>2026-07-29T08:24:58.716Z</time>
      </trkpt>
      <trkpt lat="45.74799" lon="6.74722">
        <ele>2519</ele>
        <time>2026-07-29T08:24:59.716Z</time>
      </trkpt>
      <trkpt lat="45.74798" lon="6.7472">
        <ele>2519</ele>
        <time>2026-07-29T08:25:00.716Z</time>
      </trkpt>
      <trkpt lat="45.74797" lon="6.74719">
        <ele>2519</ele>
        <time>2026-07-29T08:25:01.716Z</time>
      </trkpt>
      <trkpt lat="45.74797" lon="6.74718">
        <ele>2519</ele>
        <time>2026-07-29T08:25:02.716Z</time>
      </trkpt>
      <trkpt lat="45.74796" lon="6.74716">
        <ele>2520</ele>
        <time>2026-07-29T08:25:03.716Z</time>
      </trkpt>
      <trkpt lat="45.74796" lon="6.74715">
        <ele>2520</ele>
        <time>2026-07-29T08:25:04.716Z</time>
      </trkpt>
      <trkpt lat="45.74795" lon="6.74714">
        <ele>2520</ele>
        <time>2026-07-29T08:25:05.716Z</time>
      </trkpt>
      <trkpt lat="45.74795" lon="6.74713">
        <ele>2520</ele>
        <time>2026-07-29T08:25:06.716Z</time>
      </trkpt>
      <trkpt lat="45.74794" lon="6.74712">
        <ele>2521</ele>
        <time>2026-07-29T08:25:07.716Z</time>
      </trkpt>
      <trkpt lat="45.74793" lon="6.74711">
        <ele>2520</ele>
        <time>2026-07-29T08:25:08.716Z</time>
      </trkpt>
      <trkpt lat="45.74792" lon="6.7471">
        <ele>2520</ele>
        <time>2026-07-29T08:25:09.716Z</time>
      </trkpt>
      <trkpt lat="45.74791" lon="6.7471">
        <ele>2520</ele>
        <time>2026-07-29T08:25:10.716Z</time>
      </trkpt>
      <trkpt lat="45.7479" lon="6.74709">
        <ele>2520</ele>
        <time>2026-07-29T08:25:11.716Z</time>
      </trkpt>
      <trkpt lat="45.74789" lon="6.74708">
        <ele>2520</ele>
        <time>2026-07-29T08:25:12.716Z</time>
      </trkpt>
      <trkpt lat="45.74788" lon="6.74707">
        <ele>2520</ele>
        <time>2026-07-29T08:25:13.716Z</time>
      </trkpt>
      <trkpt lat="45.74786" lon="6.74706">
        <ele>2520</ele>
        <time>2026-07-29T08:25:14.716Z</time>
      </trkpt>
      <trkpt lat="45.74785" lon="6.74705">
        <ele>2520</ele>
        <time>2026-07-29T08:25:15.716Z</time>
      </trkpt>
      <trkpt lat="45.74784" lon="6.74703">
        <ele>2519</ele>
        <time>2026-07-29T08:25:16.716Z</time>
      </trkpt>
      <trkpt lat="45.74783" lon="6.74702">
        <ele>2519</ele>
        <time>2026-07-29T08:25:17.716Z</time>
      </trkpt>
      <trkpt lat="45.74781" lon="6.74701">
        <ele>2519</ele>
        <time>2026-07-29T08:25:18.716Z</time>
      </trkpt>
      <trkpt lat="45.74781" lon="6.747">
        <ele>2519</ele>
        <time>2026-07-29T08:25:19.716Z</time>
      </trkpt>
      <trkpt lat="45.7478" lon="6.74698">
        <ele>2519</ele>
        <time>2026-07-29T08:25:20.716Z</time>
      </trkpt>
      <trkpt lat="45.7478" lon="6.74697">
        <ele>2519</ele>
        <time>2026-07-29T08:25:21.716Z</time>
      </trkpt>
      <trkpt lat="45.74779" lon="6.74696">
        <ele>2519</ele>
        <time>2026-07-29T08:25:22.716Z</time>
      </trkpt>
      <trkpt lat="45.74779" lon="6.74695">
        <ele>2519</ele>
        <time>2026-07-29T08:25:23.716Z</time>
      </trkpt>
      <trkpt lat="45.74779" lon="6.74694">
        <ele>2519</ele>
        <time>2026-07-29T08:25:24.716Z</time>
      </trkpt>
      <trkpt lat="45.74778" lon="6.74693">
        <ele>2519</ele>
        <time>2026-07-29T08:25:25.716Z</time>
      </trkpt>
      <trkpt lat="45.74778" lon="6.74692">
        <ele>2519</ele>
        <time>2026-07-29T08:25:26.716Z</time>
      </trkpt>
      <trkpt lat="45.74777" lon="6.74691">
        <ele>2520</ele>
        <time>2026-07-29T08:25:27.716Z</time>
      </trkpt>
      <trkpt lat="45.74777" lon="6.74689">
        <ele>2520</ele>
        <time>2026-07-29T08:25:28.716Z</time>
      </trkpt>
      <trkpt lat="45.74776" lon="6.74688">
        <ele>2521</ele>
        <time>2026-07-29T08:25:29.716Z</time>
      </trkpt>
      <trkpt lat="45.74776" lon="6.74687">
        <ele>2522</ele>
        <time>2026-07-29T08:25:30.716Z</time>
      </trkpt>
      <trkpt lat="45.74775" lon="6.74686">
        <ele>2523</ele>
        <time>2026-07-29T08:25:31.716Z</time>
      </trkpt>
      <trkpt lat="45.74775" lon="6.74685">
        <ele>2523</ele>
        <time>2026-07-29T08:25:32.716Z</time>
      </trkpt>
      <trkpt lat="45.74775" lon="6.74685">
        <ele>2523</ele>
        <time>2026-07-29T08:25:33.716Z</time>
      </trkpt>
      <trkpt lat="45.74775" lon="6.74684">
        <ele>2523</ele>
        <time>2026-07-29T08:25:34.716Z</time>
      </trkpt>
      <trkpt lat="45.74775" lon="6.74684">
        <ele>2522</ele>
        <time>2026-07-29T08:25:35.716Z</time>
      </trkpt>
      <trkpt lat="45.74775" lon="6.74684">
        <ele>2522</ele>
        <time>2026-07-29T08:25:36.716Z</time>
      </trkpt>
      <trkpt lat="45.74774" lon="6.74684">
        <ele>2522</ele>
        <time>2026-07-29T08:25:37.716Z</time>
      </trkpt>
      <trkpt lat="45.74773" lon="6.74683">
        <ele>2522</ele>
        <time>2026-07-29T08:25:38.716Z</time>
      </trkpt>
      <trkpt lat="45.74773" lon="6.74682">
        <ele>2522</ele>
        <time>2026-07-29T08:25:39.716Z</time>
      </trkpt>
      <trkpt lat="45.74772" lon="6.74681">
        <ele>2522</ele>
        <time>2026-07-29T08:25:40.716Z</time>
      </trkpt>
      <trkpt lat="45.74771" lon="6.74681">
        <ele>2523</ele>
        <time>2026-07-29T08:25:41.716Z</time>
      </trkpt>
      <trkpt lat="45.74771" lon="6.7468">
        <ele>2523</ele>
        <time>2026-07-29T08:25:42.716Z</time>
      </trkpt>
      <trkpt lat="45.7477" lon="6.7468">
        <ele>2523</ele>
        <time>2026-07-29T08:25:43.716Z</time>
      </trkpt>
      <trkpt lat="45.74769" lon="6.7468">
        <ele>2523</ele>
        <time>2026-07-29T08:25:44.716Z</time>
      </trkpt>
      <trkpt lat="45.74768" lon="6.7468">
        <ele>2523</ele>
        <time>2026-07-29T08:25:45.716Z</time>
      </trkpt>
      <trkpt lat="45.74767" lon="6.7468">
        <ele>2524</ele>
        <time>2026-07-29T08:25:46.716Z</time>
      </trkpt>
      <trkpt lat="45.74766" lon="6.74679">
        <ele>2524</ele>
        <time>2026-07-29T08:25:47.716Z</time>
      </trkpt>
      <trkpt lat="45.74765" lon="6.7468">
        <ele>2524</ele>
        <time>2026-07-29T08:25:48.716Z</time>
      </trkpt>
      <trkpt lat="45.74765" lon="6.7468">
        <ele>2524</ele>
        <time>2026-07-29T08:25:49.716Z</time>
      </trkpt>
      <trkpt lat="45.74765" lon="6.7468">
        <ele>2525</ele>
        <time>2026-07-29T08:25:50.716Z</time>
      </trkpt>
      <trkpt lat="45.74764" lon="6.7468">
        <ele>2525</ele>
        <time>2026-07-29T08:25:51.716Z</time>
      </trkpt>
      <trkpt lat="45.74763" lon="6.74681">
        <ele>2525</ele>
        <time>2026-07-29T08:25:52.716Z</time>
      </trkpt>
      <trkpt lat="45.74762" lon="6.74682">
        <ele>2525</ele>
        <time>2026-07-29T08:25:53.716Z</time>
      </trkpt>
      <trkpt lat="45.74761" lon="6.74682">
        <ele>2525</ele>
        <time>2026-07-29T08:25:54.716Z</time>
      </trkpt>
      <trkpt lat="45.74759" lon="6.74683">
        <ele>2525</ele>
        <time>2026-07-29T08:25:55.716Z</time>
      </trkpt>
      <trkpt lat="45.74758" lon="6.74682">
        <ele>2526</ele>
        <time>2026-07-29T08:25:56.716Z</time>
      </trkpt>
      <trkpt lat="45.74757" lon="6.74682">
        <ele>2526</ele>
        <time>2026-07-29T08:25:57.716Z</time>
      </trkpt>
      <trkpt lat="45.74756" lon="6.74682">
        <ele>2526</ele>
        <time>2026-07-29T08:25:58.716Z</time>
      </trkpt>
      <trkpt lat="45.74755" lon="6.74682">
        <ele>2526</ele>
        <time>2026-07-29T08:25:59.716Z</time>
      </trkpt>
      <trkpt lat="45.74754" lon="6.74682">
        <ele>2527</ele>
        <time>2026-07-29T08:26:00.716Z</time>
      </trkpt>
      <trkpt lat="45.74753" lon="6.74682">
        <ele>2527</ele>
        <time>2026-07-29T08:26:01.716Z</time>
      </trkpt>
      <trkpt lat="45.74752" lon="6.74682">
        <ele>2527</ele>
        <time>2026-07-29T08:26:02.716Z</time>
      </trkpt>
      <trkpt lat="45.7475" lon="6.74683">
        <ele>2527</ele>
        <time>2026-07-29T08:26:03.716Z</time>
      </trkpt>
      <trkpt lat="45.74749" lon="6.74683">
        <ele>2528</ele>
        <time>2026-07-29T08:26:04.716Z</time>
      </trkpt>
      <trkpt lat="45.74748" lon="6.74683">
        <ele>2528</ele>
        <time>2026-07-29T08:26:05.716Z</time>
      </trkpt>
      <trkpt lat="45.74747" lon="6.74682">
        <ele>2528</ele>
        <time>2026-07-29T08:26:06.716Z</time>
      </trkpt>
      <trkpt lat="45.74746" lon="6.74681">
        <ele>2527</ele>
        <time>2026-07-29T08:26:07.716Z</time>
      </trkpt>
      <trkpt lat="45.74745" lon="6.74681">
        <ele>2527</ele>
        <time>2026-07-29T08:26:08.716Z</time>
      </trkpt>
      <trkpt lat="45.74745" lon="6.7468">
        <ele>2526</ele>
        <time>2026-07-29T08:26:09.716Z</time>
      </trkpt>
      <trkpt lat="45.74744" lon="6.7468">
        <ele>2526</ele>
        <time>2026-07-29T08:26:10.716Z</time>
      </trkpt>
      <trkpt lat="45.74743" lon="6.7468">
        <ele>2526</ele>
        <time>2026-07-29T08:26:11.716Z</time>
      </trkpt>
      <trkpt lat="45.74742" lon="6.7468">
        <ele>2526</ele>
        <time>2026-07-29T08:26:12.716Z</time>
      </trkpt>
      <trkpt lat="45.74742" lon="6.74679">
        <ele>2526</ele>
        <time>2026-07-29T08:26:13.716Z</time>
      </trkpt>
      <trkpt lat="45.74741" lon="6.74679">
        <ele>2527</ele>
        <time>2026-07-29T08:26:14.716Z</time>
      </trkpt>
      <trkpt lat="45.7474" lon="6.74679">
        <ele>2527</ele>
        <time>2026-07-29T08:26:15.716Z</time>
      </trkpt>
      <trkpt lat="45.74739" lon="6.74679">
        <ele>2527</ele>
        <time>2026-07-29T08:26:16.716Z</time>
      </trkpt>
      <trkpt lat="45.74738" lon="6.7468">
        <ele>2527</ele>
        <time>2026-07-29T08:26:17.716Z</time>
      </trkpt>
      <trkpt lat="45.74737" lon="6.7468">
        <ele>2527</ele>
        <time>2026-07-29T08:26:18.716Z</time>
      </trkpt>
      <trkpt lat="45.74736" lon="6.74679">
        <ele>2527</ele>
        <time>2026-07-29T08:26:19.716Z</time>
      </trkpt>
      <trkpt lat="45.74735" lon="6.74679">
        <ele>2527</ele>
        <time>2026-07-29T08:26:20.716Z</time>
      </trkpt>
      <trkpt lat="45.74734" lon="6.74678">
        <ele>2527</ele>
        <time>2026-07-29T08:26:21.716Z</time>
      </trkpt>
      <trkpt lat="45.74733" lon="6.74678">
        <ele>2528</ele>
        <time>2026-07-29T08:26:22.716Z</time>
      </trkpt>
      <trkpt lat="45.74732" lon="6.74678">
        <ele>2527</ele>
        <time>2026-07-29T08:26:23.716Z</time>
      </trkpt>
      <trkpt lat="45.74731" lon="6.74678">
        <ele>2527</ele>
        <time>2026-07-29T08:26:24.716Z</time>
      </trkpt>
      <trkpt lat="45.7473" lon="6.74678">
        <ele>2527</ele>
        <time>2026-07-29T08:26:25.716Z</time>
      </trkpt>
      <trkpt lat="45.74728" lon="6.74678">
        <ele>2527</ele>
        <time>2026-07-29T08:26:26.716Z</time>
      </trkpt>
      <trkpt lat="45.74727" lon="6.74677">
        <ele>2527</ele>
        <time>2026-07-29T08:26:27.716Z</time>
      </trkpt>
      <trkpt lat="45.74726" lon="6.74677">
        <ele>2526</ele>
        <time>2026-07-29T08:26:28.716Z</time>
      </trkpt>
      <trkpt lat="45.74725" lon="6.74677">
        <ele>2526</ele>
        <time>2026-07-29T08:26:29.716Z</time>
      </trkpt>
      <trkpt lat="45.74725" lon="6.74676">
        <ele>2525</ele>
        <time>2026-07-29T08:26:30.716Z</time>
      </trkpt>
      <trkpt lat="45.74724" lon="6.74676">
        <ele>2525</ele>
        <time>2026-07-29T08:26:31.716Z</time>
      </trkpt>
      <trkpt lat="45.74723" lon="6.74676">
        <ele>2525</ele>
        <time>2026-07-29T08:26:32.716Z</time>
      </trkpt>
      <trkpt lat="45.74722" lon="6.74676">
        <ele>2525</ele>
        <time>2026-07-29T08:26:33.716Z</time>
      </trkpt>
      <trkpt lat="45.74721" lon="6.74676">
        <ele>2526</ele>
        <time>2026-07-29T08:26:34.716Z</time>
      </trkpt>
      <trkpt lat="45.7472" lon="6.74676">
        <ele>2526</ele>
        <time>2026-07-29T08:26:35.716Z</time>
      </trkpt>
      <trkpt lat="45.74719" lon="6.74676">
        <ele>2526</ele>
        <time>2026-07-29T08:26:36.716Z</time>
      </trkpt>
      <trkpt lat="45.74719" lon="6.74676">
        <ele>2526</ele>
        <time>2026-07-29T08:26:37.716Z</time>
      </trkpt>
      <trkpt lat="45.74718" lon="6.74676">
        <ele>2526</ele>
        <time>2026-07-29T08:26:38.716Z</time>
      </trkpt>
      <trkpt lat="45.74718" lon="6.74677">
        <ele>2526</ele>
        <time>2026-07-29T08:26:39.716Z</time>
      </trkpt>
      <trkpt lat="45.74717" lon="6.74677">
        <ele>2526</ele>
        <time>2026-07-29T08:26:40.716Z</time>
      </trkpt>
      <trkpt lat="45.74716" lon="6.74677">
        <ele>2526</ele>
        <time>2026-07-29T08:26:41.716Z</time>
      </trkpt>
      <trkpt lat="45.74716" lon="6.74677">
        <ele>2527</ele>
        <time>2026-07-29T08:26:42.716Z</time>
      </trkpt>
      <trkpt lat="45.74715" lon="6.74677">
        <ele>2527</ele>
        <time>2026-07-29T08:26:43.716Z</time>
      </trkpt>
      <trkpt lat="45.74714" lon="6.74677">
        <ele>2527</ele>
        <time>2026-07-29T08:26:44.716Z</time>
      </trkpt>
      <trkpt lat="45.74713" lon="6.74677">
        <ele>2527</ele>
        <time>2026-07-29T08:26:45.716Z</time>
      </trkpt>
      <trkpt lat="45.74711" lon="6.74677">
        <ele>2528</ele>
        <time>2026-07-29T08:26:46.716Z</time>
      </trkpt>
      <trkpt lat="45.7471" lon="6.74678">
        <ele>2528</ele>
        <time>2026-07-29T08:26:47.716Z</time>
      </trkpt>
      <trkpt lat="45.74709" lon="6.74678">
        <ele>2528</ele>
        <time>2026-07-29T08:26:48.716Z</time>
      </trkpt>
      <trkpt lat="45.74708" lon="6.74678">
        <ele>2528</ele>
        <time>2026-07-29T08:26:49.716Z</time>
      </trkpt>
      <trkpt lat="45.74707" lon="6.74678">
        <ele>2528</ele>
        <time>2026-07-29T08:26:50.716Z</time>
      </trkpt>
      <trkpt lat="45.74706" lon="6.74678">
        <ele>2528</ele>
        <time>2026-07-29T08:26:51.716Z</time>
      </trkpt>
      <trkpt lat="45.74705" lon="6.74678">
        <ele>2528</ele>
        <time>2026-07-29T08:26:52.716Z</time>
      </trkpt>
      <trkpt lat="45.74704" lon="6.74679">
        <ele>2529</ele>
        <time>2026-07-29T08:26:53.716Z</time>
      </trkpt>
      <trkpt lat="45.74703" lon="6.74679">
        <ele>2529</ele>
        <time>2026-07-29T08:26:54.716Z</time>
      </trkpt>
      <trkpt lat="45.74702" lon="6.74679">
        <ele>2529</ele>
        <time>2026-07-29T08:26:55.716Z</time>
      </trkpt>
      <trkpt lat="45.74701" lon="6.7468">
        <ele>2530</ele>
        <time>2026-07-29T08:26:56.716Z</time>
      </trkpt>
      <trkpt lat="45.747" lon="6.7468">
        <ele>2530</ele>
        <time>2026-07-29T08:26:57.716Z</time>
      </trkpt>
      <trkpt lat="45.74699" lon="6.7468">
        <ele>2530</ele>
        <time>2026-07-29T08:26:58.716Z</time>
      </trkpt>
      <trkpt lat="45.74697" lon="6.74679">
        <ele>2530</ele>
        <time>2026-07-29T08:26:59.716Z</time>
      </trkpt>
      <trkpt lat="45.74696" lon="6.74679">
        <ele>2530</ele>
        <time>2026-07-29T08:27:00.716Z</time>
      </trkpt>
      <trkpt lat="45.74695" lon="6.74679">
        <ele>2530</ele>
        <time>2026-07-29T08:27:01.716Z</time>
      </trkpt>
      <trkpt lat="45.74693" lon="6.74679">
        <ele>2530</ele>
        <time>2026-07-29T08:27:02.716Z</time>
      </trkpt>
      <trkpt lat="45.74692" lon="6.74679">
        <ele>2530</ele>
        <time>2026-07-29T08:27:03.716Z</time>
      </trkpt>
      <trkpt lat="45.74691" lon="6.74679">
        <ele>2530</ele>
        <time>2026-07-29T08:27:04.716Z</time>
      </trkpt>
      <trkpt lat="45.7469" lon="6.7468">
        <ele>2530</ele>
        <time>2026-07-29T08:27:05.716Z</time>
      </trkpt>
      <trkpt lat="45.74689" lon="6.74681">
        <ele>2530</ele>
        <time>2026-07-29T08:27:06.716Z</time>
      </trkpt>
      <trkpt lat="45.74688" lon="6.74683">
        <ele>2529</ele>
        <time>2026-07-29T08:27:07.716Z</time>
      </trkpt>
      <trkpt lat="45.74687" lon="6.74684">
        <ele>2529</ele>
        <time>2026-07-29T08:27:08.716Z</time>
      </trkpt>
      <trkpt lat="45.74686" lon="6.74685">
        <ele>2529</ele>
        <time>2026-07-29T08:27:09.716Z</time>
      </trkpt>
      <trkpt lat="45.74684" lon="6.74686">
        <ele>2529</ele>
        <time>2026-07-29T08:27:10.716Z</time>
      </trkpt>
      <trkpt lat="45.74683" lon="6.74686">
        <ele>2528</ele>
        <time>2026-07-29T08:27:11.716Z</time>
      </trkpt>
      <trkpt lat="45.74682" lon="6.74687">
        <ele>2528</ele>
        <time>2026-07-29T08:27:12.716Z</time>
      </trkpt>
      <trkpt lat="45.7468" lon="6.74687">
        <ele>2528</ele>
        <time>2026-07-29T08:27:13.716Z</time>
      </trkpt>
      <trkpt lat="45.74679" lon="6.74688">
        <ele>2529</ele>
        <time>2026-07-29T08:27:14.716Z</time>
      </trkpt>
      <trkpt lat="45.74677" lon="6.74688">
        <ele>2529</ele>
        <time>2026-07-29T08:27:15.716Z</time>
      </trkpt>
      <trkpt lat="45.74676" lon="6.74688">
        <ele>2529</ele>
        <time>2026-07-29T08:27:16.716Z</time>
      </trkpt>
      <trkpt lat="45.74675" lon="6.74689">
        <ele>2529</ele>
        <time>2026-07-29T08:27:17.716Z</time>
      </trkpt>
      <trkpt lat="45.74674" lon="6.74689">
        <ele>2529</ele>
        <time>2026-07-29T08:27:18.716Z</time>
      </trkpt>
      <trkpt lat="45.74673" lon="6.74689">
        <ele>2530</ele>
        <time>2026-07-29T08:27:19.716Z</time>
      </trkpt>
      <trkpt lat="45.74673" lon="6.74689">
        <ele>2530</ele>
        <time>2026-07-29T08:27:20.716Z</time>
      </trkpt>
      <trkpt lat="45.74672" lon="6.7469">
        <ele>2530</ele>
        <time>2026-07-29T08:27:21.716Z</time>
      </trkpt>
      <trkpt lat="45.74671" lon="6.7469">
        <ele>2530</ele>
        <time>2026-07-29T08:27:22.716Z</time>
      </trkpt>
      <trkpt lat="45.74671" lon="6.7469">
        <ele>2531</ele>
        <time>2026-07-29T08:27:23.716Z</time>
      </trkpt>
      <trkpt lat="45.7467" lon="6.74691">
        <ele>2531</ele>
        <time>2026-07-29T08:27:24.716Z</time>
      </trkpt>
      <trkpt lat="45.74669" lon="6.74691">
        <ele>2532</ele>
        <time>2026-07-29T08:27:25.716Z</time>
      </trkpt>
      <trkpt lat="45.74668" lon="6.74691">
        <ele>2533</ele>
        <time>2026-07-29T08:27:26.716Z</time>
      </trkpt>
      <trkpt lat="45.74667" lon="6.74691">
        <ele>2533</ele>
        <time>2026-07-29T08:27:27.716Z</time>
      </trkpt>
      <trkpt lat="45.74667" lon="6.74691">
        <ele>2533</ele>
        <time>2026-07-29T08:27:28.716Z</time>
      </trkpt>
      <trkpt lat="45.74666" lon="6.74691">
        <ele>2533</ele>
        <time>2026-07-29T08:27:29.716Z</time>
      </trkpt>
      <trkpt lat="45.74665" lon="6.74692">
        <ele>2533</ele>
        <time>2026-07-29T08:27:30.716Z</time>
      </trkpt>
      <trkpt lat="45.74664" lon="6.74692">
        <ele>2534</ele>
        <time>2026-07-29T08:27:31.716Z</time>
      </trkpt>
      <trkpt lat="45.74664" lon="6.74692">
        <ele>2534</ele>
        <time>2026-07-29T08:27:32.716Z</time>
      </trkpt>
      <trkpt lat="45.74663" lon="6.74692">
        <ele>2534</ele>
        <time>2026-07-29T08:27:33.716Z</time>
      </trkpt>
      <trkpt lat="45.74662" lon="6.74693">
        <ele>2534</ele>
        <time>2026-07-29T08:27:34.716Z</time>
      </trkpt>
      <trkpt lat="45.74661" lon="6.74694">
        <ele>2534</ele>
        <time>2026-07-29T08:27:35.716Z</time>
      </trkpt>
      <trkpt lat="45.74661" lon="6.74694">
        <ele>2535</ele>
        <time>2026-07-29T08:27:36.716Z</time>
      </trkpt>
      <trkpt lat="45.7466" lon="6.74695">
        <ele>2535</ele>
        <time>2026-07-29T08:27:37.716Z</time>
      </trkpt>
      <trkpt lat="45.74659" lon="6.74695">
        <ele>2535</ele>
        <time>2026-07-29T08:27:38.716Z</time>
      </trkpt>
      <trkpt lat="45.74658" lon="6.74696">
        <ele>2536</ele>
        <time>2026-07-29T08:27:39.716Z</time>
      </trkpt>
      <trkpt lat="45.74657" lon="6.74697">
        <ele>2536</ele>
        <time>2026-07-29T08:27:40.716Z</time>
      </trkpt>
      <trkpt lat="45.74657" lon="6.74697">
        <ele>2536</ele>
        <time>2026-07-29T08:27:41.716Z</time>
      </trkpt>
      <trkpt lat="45.74656" lon="6.74697">
        <ele>2537</ele>
        <time>2026-07-29T08:27:42.716Z</time>
      </trkpt>
      <trkpt lat="45.74655" lon="6.74697">
        <ele>2537</ele>
        <time>2026-07-29T08:27:43.716Z</time>
      </trkpt>
      <trkpt lat="45.74654" lon="6.74697">
        <ele>2537</ele>
        <time>2026-07-29T08:27:44.716Z</time>
      </trkpt>
      <trkpt lat="45.74654" lon="6.74697">
        <ele>2538</ele>
        <time>2026-07-29T08:27:45.716Z</time>
      </trkpt>
      <trkpt lat="45.74653" lon="6.74698">
        <ele>2538</ele>
        <time>2026-07-29T08:27:46.716Z</time>
      </trkpt>
      <trkpt lat="45.74652" lon="6.74698">
        <ele>2539</ele>
        <time>2026-07-29T08:27:47.716Z</time>
      </trkpt>
      <trkpt lat="45.74652" lon="6.74698">
        <ele>2539</ele>
        <time>2026-07-29T08:27:48.716Z</time>
      </trkpt>
      <trkpt lat="45.74651" lon="6.74698">
        <ele>2539</ele>
        <time>2026-07-29T08:27:49.716Z</time>
      </trkpt>
      <trkpt lat="45.7465" lon="6.74698">
        <ele>2540</ele>
        <time>2026-07-29T08:27:50.716Z</time>
      </trkpt>
      <trkpt lat="45.74649" lon="6.74697">
        <ele>2540</ele>
        <time>2026-07-29T08:27:51.716Z</time>
      </trkpt>
      <trkpt lat="45.74649" lon="6.74697">
        <ele>2540</ele>
        <time>2026-07-29T08:27:52.716Z</time>
      </trkpt>
      <trkpt lat="45.74648" lon="6.74697">
        <ele>2539</ele>
        <time>2026-07-29T08:27:53.716Z</time>
      </trkpt>
      <trkpt lat="45.74648" lon="6.74697">
        <ele>2539</ele>
        <time>2026-07-29T08:27:54.716Z</time>
      </trkpt>
      <trkpt lat="45.74647" lon="6.74697">
        <ele>2539</ele>
        <time>2026-07-29T08:27:55.716Z</time>
      </trkpt>
      <trkpt lat="45.74646" lon="6.74697">
        <ele>2540</ele>
        <time>2026-07-29T08:27:56.716Z</time>
      </trkpt>
      <trkpt lat="45.74645" lon="6.74697">
        <ele>2540</ele>
        <time>2026-07-29T08:27:57.716Z</time>
      </trkpt>
      <trkpt lat="45.74644" lon="6.74697">
        <ele>2540</ele>
        <time>2026-07-29T08:27:58.716Z</time>
      </trkpt>
      <trkpt lat="45.74643" lon="6.74698">
        <ele>2540</ele>
        <time>2026-07-29T08:27:59.716Z</time>
      </trkpt>
      <trkpt lat="45.74642" lon="6.74698">
        <ele>2540</ele>
        <time>2026-07-29T08:28:00.716Z</time>
      </trkpt>
      <trkpt lat="45.74642" lon="6.74698">
        <ele>2540</ele>
        <time>2026-07-29T08:28:01.716Z</time>
      </trkpt>
      <trkpt lat="45.74641" lon="6.74698">
        <ele>2540</ele>
        <time>2026-07-29T08:28:02.716Z</time>
      </trkpt>
      <trkpt lat="45.74641" lon="6.74698">
        <ele>2541</ele>
        <time>2026-07-29T08:28:03.716Z</time>
      </trkpt>
      <trkpt lat="45.7464" lon="6.74697">
        <ele>2541</ele>
        <time>2026-07-29T08:28:04.716Z</time>
      </trkpt>
      <trkpt lat="45.74639" lon="6.74697">
        <ele>2542</ele>
        <time>2026-07-29T08:28:05.716Z</time>
      </trkpt>
      <trkpt lat="45.74639" lon="6.74696">
        <ele>2542</ele>
        <time>2026-07-29T08:28:06.716Z</time>
      </trkpt>
      <trkpt lat="45.74638" lon="6.74696">
        <ele>2543</ele>
        <time>2026-07-29T08:28:07.716Z</time>
      </trkpt>
      <trkpt lat="45.74638" lon="6.74695">
        <ele>2543</ele>
        <time>2026-07-29T08:28:08.716Z</time>
      </trkpt>
      <trkpt lat="45.74637" lon="6.74695">
        <ele>2543</ele>
        <time>2026-07-29T08:28:09.716Z</time>
      </trkpt>
      <trkpt lat="45.74636" lon="6.74694">
        <ele>2543</ele>
        <time>2026-07-29T08:28:10.716Z</time>
      </trkpt>
      <trkpt lat="45.74635" lon="6.74694">
        <ele>2544</ele>
        <time>2026-07-29T08:28:11.716Z</time>
      </trkpt>
      <trkpt lat="45.74633" lon="6.74695">
        <ele>2544</ele>
        <time>2026-07-29T08:28:12.716Z</time>
      </trkpt>
      <trkpt lat="45.74633" lon="6.74694">
        <ele>2544</ele>
        <time>2026-07-29T08:28:13.716Z</time>
      </trkpt>
      <trkpt lat="45.74632" lon="6.74693">
        <ele>2544</ele>
        <time>2026-07-29T08:28:14.716Z</time>
      </trkpt>
      <trkpt lat="45.74631" lon="6.74693">
        <ele>2544</ele>
        <time>2026-07-29T08:28:15.716Z</time>
      </trkpt>
      <trkpt lat="45.7463" lon="6.74693">
        <ele>2543</ele>
        <time>2026-07-29T08:28:16.716Z</time>
      </trkpt>
      <trkpt lat="45.7463" lon="6.74692">
        <ele>2543</ele>
        <time>2026-07-29T08:28:17.716Z</time>
      </trkpt>
      <trkpt lat="45.74629" lon="6.74691">
        <ele>2542</ele>
        <time>2026-07-29T08:28:18.716Z</time>
      </trkpt>
      <trkpt lat="45.74628" lon="6.74691">
        <ele>2542</ele>
        <time>2026-07-29T08:28:19.716Z</time>
      </trkpt>
      <trkpt lat="45.74627" lon="6.74691">
        <ele>2542</ele>
        <time>2026-07-29T08:28:20.716Z</time>
      </trkpt>
      <trkpt lat="45.74626" lon="6.7469">
        <ele>2541</ele>
        <time>2026-07-29T08:28:21.716Z</time>
      </trkpt>
      <trkpt lat="45.74626" lon="6.74689">
        <ele>2541</ele>
        <time>2026-07-29T08:28:22.716Z</time>
      </trkpt>
      <trkpt lat="45.74625" lon="6.74689">
        <ele>2541</ele>
        <time>2026-07-29T08:28:23.716Z</time>
      </trkpt>
      <trkpt lat="45.74624" lon="6.74689">
        <ele>2541</ele>
        <time>2026-07-29T08:28:24.716Z</time>
      </trkpt>
      <trkpt lat="45.74623" lon="6.74688">
        <ele>2540</ele>
        <time>2026-07-29T08:28:25.716Z</time>
      </trkpt>
      <trkpt lat="45.74622" lon="6.74687">
        <ele>2540</ele>
        <time>2026-07-29T08:28:26.716Z</time>
      </trkpt>
      <trkpt lat="45.74622" lon="6.74687">
        <ele>2540</ele>
        <time>2026-07-29T08:28:27.716Z</time>
      </trkpt>
      <trkpt lat="45.74621" lon="6.74686">
        <ele>2541</ele>
        <time>2026-07-29T08:28:28.716Z</time>
      </trkpt>
      <trkpt lat="45.74622" lon="6.74686">
        <ele>2542</ele>
        <time>2026-07-29T08:28:29.716Z</time>
      </trkpt>
      <trkpt lat="45.74622" lon="6.74685">
        <ele>2543</ele>
        <time>2026-07-29T08:28:30.716Z</time>
      </trkpt>
      <trkpt lat="45.74623" lon="6.74685">
        <ele>2544</ele>
        <time>2026-07-29T08:28:31.716Z</time>
      </trkpt>
      <trkpt lat="45.74623" lon="6.74685">
        <ele>2544</ele>
        <time>2026-07-29T08:28:32.716Z</time>
      </trkpt>
      <trkpt lat="45.74623" lon="6.74685">
        <ele>2545</ele>
        <time>2026-07-29T08:28:33.716Z</time>
      </trkpt>
      <trkpt lat="45.74624" lon="6.74685">
        <ele>2545</ele>
        <time>2026-07-29T08:28:34.716Z</time>
      </trkpt>
      <trkpt lat="45.74624" lon="6.74685">
        <ele>2545</ele>
        <time>2026-07-29T08:28:35.716Z</time>
      </trkpt>
      <trkpt lat="45.74624" lon="6.74685">
        <ele>2545</ele>
        <time>2026-07-29T08:28:36.716Z</time>
      </trkpt>
      <trkpt lat="45.74624" lon="6.74685">
        <ele>2545</ele>
        <time>2026-07-29T08:28:37.716Z</time>
      </trkpt>
      <trkpt lat="45.74624" lon="6.74684">
        <ele>2544</ele>
        <time>2026-07-29T08:28:38.716Z</time>
      </trkpt>
      <trkpt lat="45.74625" lon="6.74684">
        <ele>2544</ele>
        <time>2026-07-29T08:28:39.716Z</time>
      </trkpt>
      <trkpt lat="45.74625" lon="6.74684">
        <ele>2545</ele>
        <time>2026-07-29T08:28:40.716Z</time>
      </trkpt>
      <trkpt lat="45.74626" lon="6.74683">
        <ele>2545</ele>
        <time>2026-07-29T08:28:41.716Z</time>
      </trkpt>
      <trkpt lat="45.74626" lon="6.74683">
        <ele>2546</ele>
        <time>2026-07-29T08:28:42.716Z</time>
      </trkpt>
      <trkpt lat="45.74627" lon="6.74682">
        <ele>2546</ele>
        <time>2026-07-29T08:28:43.716Z</time>
      </trkpt>
      <trkpt lat="45.74628" lon="6.74681">
        <ele>2547</ele>
        <time>2026-07-29T08:28:44.716Z</time>
      </trkpt>
      <trkpt lat="45.74629" lon="6.7468">
        <ele>2547</ele>
        <time>2026-07-29T08:28:45.716Z</time>
      </trkpt>
      <trkpt lat="45.74629" lon="6.7468">
        <ele>2547</ele>
        <time>2026-07-29T08:28:46.716Z</time>
      </trkpt>
      <trkpt lat="45.7463" lon="6.74679">
        <ele>2547</ele>
        <time>2026-07-29T08:28:47.716Z</time>
      </trkpt>
      <trkpt lat="45.74631" lon="6.74679">
        <ele>2548</ele>
        <time>2026-07-29T08:28:48.716Z</time>
      </trkpt>
      <trkpt lat="45.74632" lon="6.74678">
        <ele>2548</ele>
        <time>2026-07-29T08:28:49.716Z</time>
      </trkpt>
      <trkpt lat="45.74633" lon="6.74678">
        <ele>2549</ele>
        <time>2026-07-29T08:28:50.716Z</time>
      </trkpt>
      <trkpt lat="45.74634" lon="6.74677">
        <ele>2549</ele>
        <time>2026-07-29T08:28:51.716Z</time>
      </trkpt>
      <trkpt lat="45.74634" lon="6.74677">
        <ele>2550</ele>
        <time>2026-07-29T08:28:52.716Z</time>
      </trkpt>
      <trkpt lat="45.74634" lon="6.74676">
        <ele>2550</ele>
        <time>2026-07-29T08:28:53.716Z</time>
      </trkpt>
      <trkpt lat="45.74633" lon="6.74676">
        <ele>2550</ele>
        <time>2026-07-29T08:28:54.716Z</time>
      </trkpt>
      <trkpt lat="45.74633" lon="6.74676">
        <ele>2550</ele>
        <time>2026-07-29T08:28:55.716Z</time>
      </trkpt>
      <trkpt lat="45.74632" lon="6.74675">
        <ele>2550</ele>
        <time>2026-07-29T08:28:56.716Z</time>
      </trkpt>
      <trkpt lat="45.74631" lon="6.74675">
        <ele>2551</ele>
        <time>2026-07-29T08:28:57.716Z</time>
      </trkpt>
      <trkpt lat="45.74631" lon="6.74675">
        <ele>2551</ele>
        <time>2026-07-29T08:28:58.716Z</time>
      </trkpt>
      <trkpt lat="45.7463" lon="6.74675">
        <ele>2551</ele>
        <time>2026-07-29T08:28:59.716Z</time>
      </trkpt>
      <trkpt lat="45.74629" lon="6.74675">
        <ele>2552</ele>
        <time>2026-07-29T08:29:00.716Z</time>
      </trkpt>
      <trkpt lat="45.74628" lon="6.74675">
        <ele>2552</ele>
        <time>2026-07-29T08:29:01.716Z</time>
      </trkpt>
      <trkpt lat="45.74627" lon="6.74674">
        <ele>2552</ele>
        <time>2026-07-29T08:29:02.716Z</time>
      </trkpt>
      <trkpt lat="45.74627" lon="6.74673">
        <ele>2552</ele>
        <time>2026-07-29T08:29:03.716Z</time>
      </trkpt>
      <trkpt lat="45.74627" lon="6.74673">
        <ele>2552</ele>
        <time>2026-07-29T08:29:04.716Z</time>
      </trkpt>
      <trkpt lat="45.74627" lon="6.74672">
        <ele>2552</ele>
        <time>2026-07-29T08:29:05.716Z</time>
      </trkpt>
      <trkpt lat="45.74628" lon="6.74671">
        <ele>2552</ele>
        <time>2026-07-29T08:29:06.716Z</time>
      </trkpt>
      <trkpt lat="45.74628" lon="6.74671">
        <ele>2553</ele>
        <time>2026-07-29T08:29:07.716Z</time>
      </trkpt>
      <trkpt lat="45.74629" lon="6.7467">
        <ele>2554</ele>
        <time>2026-07-29T08:29:08.716Z</time>
      </trkpt>
      <trkpt lat="45.7463" lon="6.74669">
        <ele>2555</ele>
        <time>2026-07-29T08:29:09.716Z</time>
      </trkpt>
      <trkpt lat="45.7463" lon="6.74669">
        <ele>2555</ele>
        <time>2026-07-29T08:29:10.716Z</time>
      </trkpt>
      <trkpt lat="45.74631" lon="6.74669">
        <ele>2556</ele>
        <time>2026-07-29T08:29:11.716Z</time>
      </trkpt>
      <trkpt lat="45.74631" lon="6.74668">
        <ele>2556</ele>
        <time>2026-07-29T08:29:12.716Z</time>
      </trkpt>
      <trkpt lat="45.74632" lon="6.74667">
        <ele>2557</ele>
        <time>2026-07-29T08:29:13.716Z</time>
      </trkpt>
      <trkpt lat="45.74632" lon="6.74667">
        <ele>2557</ele>
        <time>2026-07-29T08:29:14.716Z</time>
      </trkpt>
      <trkpt lat="45.74632" lon="6.74667">
        <ele>2557</ele>
        <time>2026-07-29T08:29:15.716Z</time>
      </trkpt>
      <trkpt lat="45.74631" lon="6.74667">
        <ele>2558</ele>
        <time>2026-07-29T08:29:16.716Z</time>
      </trkpt>
      <trkpt lat="45.7463" lon="6.74667">
        <ele>2558</ele>
        <time>2026-07-29T08:29:17.716Z</time>
      </trkpt>
      <trkpt lat="45.74629" lon="6.74666">
        <ele>2558</ele>
        <time>2026-07-29T08:29:18.716Z</time>
      </trkpt>
      <trkpt lat="45.74629" lon="6.74666">
        <ele>2558</ele>
        <time>2026-07-29T08:29:19.716Z</time>
      </trkpt>
      <trkpt lat="45.74628" lon="6.74666">
        <ele>2558</ele>
        <time>2026-07-29T08:29:20.716Z</time>
      </trkpt>
      <trkpt lat="45.74627" lon="6.74665">
        <ele>2558</ele>
        <time>2026-07-29T08:29:21.716Z</time>
      </trkpt>
      <trkpt lat="45.74627" lon="6.74665">
        <ele>2558</ele>
        <time>2026-07-29T08:29:22.716Z</time>
      </trkpt>
      <trkpt lat="45.74626" lon="6.74665">
        <ele>2558</ele>
        <time>2026-07-29T08:29:23.716Z</time>
      </trkpt>
      <trkpt lat="45.74625" lon="6.74664">
        <ele>2558</ele>
        <time>2026-07-29T08:29:24.716Z</time>
      </trkpt>
      <trkpt lat="45.74624" lon="6.74664">
        <ele>2558</ele>
        <time>2026-07-29T08:29:25.716Z</time>
      </trkpt>
      <trkpt lat="45.74624" lon="6.74663">
        <ele>2559</ele>
        <time>2026-07-29T08:29:26.716Z</time>
      </trkpt>
      <trkpt lat="45.74623" lon="6.74662">
        <ele>2559</ele>
        <time>2026-07-29T08:29:27.716Z</time>
      </trkpt>
      <trkpt lat="45.74622" lon="6.74662">
        <ele>2559</ele>
        <time>2026-07-29T08:29:28.716Z</time>
      </trkpt>
      <trkpt lat="45.74621" lon="6.74662">
        <ele>2560</ele>
        <time>2026-07-29T08:29:29.716Z</time>
      </trkpt>
      <trkpt lat="45.74621" lon="6.74661">
        <ele>2560</ele>
        <time>2026-07-29T08:29:30.716Z</time>
      </trkpt>
      <trkpt lat="45.74621" lon="6.7466">
        <ele>2560</ele>
        <time>2026-07-29T08:29:31.716Z</time>
      </trkpt>
      <trkpt lat="45.74621" lon="6.74659">
        <ele>2560</ele>
        <time>2026-07-29T08:29:32.716Z</time>
      </trkpt>
      <trkpt lat="45.74622" lon="6.74658">
        <ele>2561</ele>
        <time>2026-07-29T08:29:33.716Z</time>
      </trkpt>
      <trkpt lat="45.74622" lon="6.74657">
        <ele>2561</ele>
        <time>2026-07-29T08:29:34.716Z</time>
      </trkpt>
      <trkpt lat="45.74623" lon="6.74657">
        <ele>2561</ele>
        <time>2026-07-29T08:29:35.716Z</time>
      </trkpt>
      <trkpt lat="45.74623" lon="6.74656">
        <ele>2561</ele>
        <time>2026-07-29T08:29:36.716Z</time>
      </trkpt>
      <trkpt lat="45.74624" lon="6.74656">
        <ele>2562</ele>
        <time>2026-07-29T08:29:37.716Z</time>
      </trkpt>
      <trkpt lat="45.74625" lon="6.74655">
        <ele>2562</ele>
        <time>2026-07-29T08:29:38.716Z</time>
      </trkpt>
      <trkpt lat="45.74625" lon="6.74655">
        <ele>2562</ele>
        <time>2026-07-29T08:29:39.716Z</time>
      </trkpt>
      <trkpt lat="45.74626" lon="6.74654">
        <ele>2563</ele>
        <time>2026-07-29T08:29:40.716Z</time>
      </trkpt>
      <trkpt lat="45.74626" lon="6.74654">
        <ele>2563</ele>
        <time>2026-07-29T08:29:41.716Z</time>
      </trkpt>
      <trkpt lat="45.74626" lon="6.74654">
        <ele>2564</ele>
        <time>2026-07-29T08:29:42.716Z</time>
      </trkpt>
      <trkpt lat="45.74625" lon="6.74654">
        <ele>2564</ele>
        <time>2026-07-29T08:29:43.716Z</time>
      </trkpt>
      <trkpt lat="45.74624" lon="6.74654">
        <ele>2565</ele>
        <time>2026-07-29T08:29:44.716Z</time>
      </trkpt>
      <trkpt lat="45.74624" lon="6.74653">
        <ele>2565</ele>
        <time>2026-07-29T08:29:45.716Z</time>
      </trkpt>
      <trkpt lat="45.74623" lon="6.74654">
        <ele>2565</ele>
        <time>2026-07-29T08:29:46.716Z</time>
      </trkpt>
      <trkpt lat="45.74622" lon="6.74654">
        <ele>2566</ele>
        <time>2026-07-29T08:29:47.716Z</time>
      </trkpt>
      <trkpt lat="45.74621" lon="6.74654">
        <ele>2566</ele>
        <time>2026-07-29T08:29:48.716Z</time>
      </trkpt>
      <trkpt lat="45.7462" lon="6.74653">
        <ele>2566</ele>
        <time>2026-07-29T08:29:49.716Z</time>
      </trkpt>
      <trkpt lat="45.74619" lon="6.74653">
        <ele>2567</ele>
        <time>2026-07-29T08:29:50.716Z</time>
      </trkpt>
      <trkpt lat="45.74618" lon="6.74653">
        <ele>2567</ele>
        <time>2026-07-29T08:29:51.716Z</time>
      </trkpt>
      <trkpt lat="45.74617" lon="6.74653">
        <ele>2567</ele>
        <time>2026-07-29T08:29:52.716Z</time>
      </trkpt>
      <trkpt lat="45.74616" lon="6.74653">
        <ele>2567</ele>
        <time>2026-07-29T08:29:53.716Z</time>
      </trkpt>
      <trkpt lat="45.74615" lon="6.74653">
        <ele>2567</ele>
        <time>2026-07-29T08:29:54.716Z</time>
      </trkpt>
      <trkpt lat="45.74614" lon="6.74653">
        <ele>2567</ele>
        <time>2026-07-29T08:29:55.716Z</time>
      </trkpt>
      <trkpt lat="45.74613" lon="6.74653">
        <ele>2567</ele>
        <time>2026-07-29T08:29:56.716Z</time>
      </trkpt>
      <trkpt lat="45.74613" lon="6.74653">
        <ele>2567</ele>
        <time>2026-07-29T08:29:57.716Z</time>
      </trkpt>
      <trkpt lat="45.74611" lon="6.74653">
        <ele>2567</ele>
        <time>2026-07-29T08:29:58.716Z</time>
      </trkpt>
      <trkpt lat="45.74611" lon="6.74653">
        <ele>2567</ele>
        <time>2026-07-29T08:29:59.716Z</time>
      </trkpt>
      <trkpt lat="45.7461" lon="6.74653">
        <ele>2567</ele>
        <time>2026-07-29T08:30:00.716Z</time>
      </trkpt>
      <trkpt lat="45.74609" lon="6.74652">
        <ele>2567</ele>
        <time>2026-07-29T08:30:01.716Z</time>
      </trkpt>
      <trkpt lat="45.74608" lon="6.74652">
        <ele>2567</ele>
        <time>2026-07-29T08:30:02.716Z</time>
      </trkpt>
      <trkpt lat="45.74607" lon="6.74652">
        <ele>2567</ele>
        <time>2026-07-29T08:30:03.716Z</time>
      </trkpt>
      <trkpt lat="45.74606" lon="6.74651">
        <ele>2567</ele>
        <time>2026-07-29T08:30:04.716Z</time>
      </trkpt>
      <trkpt lat="45.74605" lon="6.74651">
        <ele>2567</ele>
        <time>2026-07-29T08:30:05.716Z</time>
      </trkpt>
      <trkpt lat="45.74604" lon="6.74651">
        <ele>2567</ele>
        <time>2026-07-29T08:30:06.716Z</time>
      </trkpt>
      <trkpt lat="45.74603" lon="6.74651">
        <ele>2567</ele>
        <time>2026-07-29T08:30:07.716Z</time>
      </trkpt>
      <trkpt lat="45.74601" lon="6.74651">
        <ele>2567</ele>
        <time>2026-07-29T08:30:08.716Z</time>
      </trkpt>
      <trkpt lat="45.746" lon="6.74651">
        <ele>2567</ele>
        <time>2026-07-29T08:30:09.716Z</time>
      </trkpt>
      <trkpt lat="45.74599" lon="6.74651">
        <ele>2567</ele>
        <time>2026-07-29T08:30:10.716Z</time>
      </trkpt>
      <trkpt lat="45.74598" lon="6.74651">
        <ele>2567</ele>
        <time>2026-07-29T08:30:11.716Z</time>
      </trkpt>
      <trkpt lat="45.74597" lon="6.74651">
        <ele>2567</ele>
        <time>2026-07-29T08:30:12.716Z</time>
      </trkpt>
      <trkpt lat="45.74596" lon="6.74651">
        <ele>2567</ele>
        <time>2026-07-29T08:30:13.716Z</time>
      </trkpt>
      <trkpt lat="45.74595" lon="6.74651">
        <ele>2567</ele>
        <time>2026-07-29T08:30:14.716Z</time>
      </trkpt>
      <trkpt lat="45.74594" lon="6.7465">
        <ele>2567</ele>
        <time>2026-07-29T08:30:15.716Z</time>
      </trkpt>
      <trkpt lat="45.74593" lon="6.7465">
        <ele>2568</ele>
        <time>2026-07-29T08:30:16.716Z</time>
      </trkpt>
      <trkpt lat="45.74592" lon="6.7465">
        <ele>2568</ele>
        <time>2026-07-29T08:30:17.716Z</time>
      </trkpt>
      <trkpt lat="45.74591" lon="6.74649">
        <ele>2568</ele>
        <time>2026-07-29T08:30:18.716Z</time>
      </trkpt>
      <trkpt lat="45.7459" lon="6.74649">
        <ele>2569</ele>
        <time>2026-07-29T08:30:19.716Z</time>
      </trkpt>
      <trkpt lat="45.7459" lon="6.74649">
        <ele>2568</ele>
        <time>2026-07-29T08:30:20.716Z</time>
      </trkpt>
      <trkpt lat="45.74589" lon="6.74648">
        <ele>2568</ele>
        <time>2026-07-29T08:30:21.716Z</time>
      </trkpt>
      <trkpt lat="45.74589" lon="6.74647">
        <ele>2568</ele>
        <time>2026-07-29T08:30:22.716Z</time>
      </trkpt>
      <trkpt lat="45.74589" lon="6.74646">
        <ele>2568</ele>
        <time>2026-07-29T08:30:23.716Z</time>
      </trkpt>
      <trkpt lat="45.74589" lon="6.74646">
        <ele>2569</ele>
        <time>2026-07-29T08:30:24.716Z</time>
      </trkpt>
      <trkpt lat="45.7459" lon="6.74645">
        <ele>2569</ele>
        <time>2026-07-29T08:30:25.716Z</time>
      </trkpt>
      <trkpt lat="45.74591" lon="6.74644">
        <ele>2570</ele>
        <time>2026-07-29T08:30:26.716Z</time>
      </trkpt>
      <trkpt lat="45.74591" lon="6.74644">
        <ele>2570</ele>
        <time>2026-07-29T08:30:27.716Z</time>
      </trkpt>
      <trkpt lat="45.74591" lon="6.74644">
        <ele>2570</ele>
        <time>2026-07-29T08:30:28.716Z</time>
      </trkpt>
      <trkpt lat="45.74591" lon="6.74643">
        <ele>2571</ele>
        <time>2026-07-29T08:30:29.716Z</time>
      </trkpt>
      <trkpt lat="45.74591" lon="6.74643">
        <ele>2573</ele>
        <time>2026-07-29T08:30:30.716Z</time>
      </trkpt>
      <trkpt lat="45.74591" lon="6.74643">
        <ele>2573</ele>
        <time>2026-07-29T08:30:31.716Z</time>
      </trkpt>
      <trkpt lat="45.7459" lon="6.74643">
        <ele>2574</ele>
        <time>2026-07-29T08:30:32.716Z</time>
      </trkpt>
      <trkpt lat="45.7459" lon="6.74642">
        <ele>2575</ele>
        <time>2026-07-29T08:30:33.716Z</time>
      </trkpt>
      <trkpt lat="45.74589" lon="6.74642">
        <ele>2575</ele>
        <time>2026-07-29T08:30:34.716Z</time>
      </trkpt>
      <trkpt lat="45.74589" lon="6.74642">
        <ele>2575</ele>
        <time>2026-07-29T08:30:35.716Z</time>
      </trkpt>
      <trkpt lat="45.74588" lon="6.74642">
        <ele>2575</ele>
        <time>2026-07-29T08:30:36.716Z</time>
      </trkpt>
      <trkpt lat="45.74587" lon="6.74642">
        <ele>2575</ele>
        <time>2026-07-29T08:30:37.716Z</time>
      </trkpt>
      <trkpt lat="45.74587" lon="6.74641">
        <ele>2576</ele>
        <time>2026-07-29T08:30:38.716Z</time>
      </trkpt>
      <trkpt lat="45.74586" lon="6.74641">
        <ele>2576</ele>
        <time>2026-07-29T08:30:39.716Z</time>
      </trkpt>
      <trkpt lat="45.74585" lon="6.7464">
        <ele>2576</ele>
        <time>2026-07-29T08:30:40.716Z</time>
      </trkpt>
      <trkpt lat="45.74584" lon="6.74639">
        <ele>2577</ele>
        <time>2026-07-29T08:30:41.716Z</time>
      </trkpt>
      <trkpt lat="45.74584" lon="6.74639">
        <ele>2577</ele>
        <time>2026-07-29T08:30:42.716Z</time>
      </trkpt>
      <trkpt lat="45.74583" lon="6.74638">
        <ele>2577</ele>
        <time>2026-07-29T08:30:43.716Z</time>
      </trkpt>
      <trkpt lat="45.74582" lon="6.74638">
        <ele>2577</ele>
        <time>2026-07-29T08:30:44.716Z</time>
      </trkpt>
      <trkpt lat="45.74581" lon="6.74638">
        <ele>2577</ele>
        <time>2026-07-29T08:30:45.716Z</time>
      </trkpt>
      <trkpt lat="45.7458" lon="6.74638">
        <ele>2577</ele>
        <time>2026-07-29T08:30:46.716Z</time>
      </trkpt>
      <trkpt lat="45.74579" lon="6.74638">
        <ele>2578</ele>
        <time>2026-07-29T08:30:47.716Z</time>
      </trkpt>
      <trkpt lat="45.74578" lon="6.74637">
        <ele>2578</ele>
        <time>2026-07-29T08:30:48.716Z</time>
      </trkpt>
      <trkpt lat="45.74577" lon="6.74636">
        <ele>2578</ele>
        <time>2026-07-29T08:30:49.716Z</time>
      </trkpt>
      <trkpt lat="45.74576" lon="6.74635">
        <ele>2578</ele>
        <time>2026-07-29T08:30:50.716Z</time>
      </trkpt>
      <trkpt lat="45.74576" lon="6.74635">
        <ele>2578</ele>
        <time>2026-07-29T08:30:51.716Z</time>
      </trkpt>
      <trkpt lat="45.74576" lon="6.74635">
        <ele>2578</ele>
        <time>2026-07-29T08:30:52.716Z</time>
      </trkpt>
      <trkpt lat="45.74576" lon="6.74635">
        <ele>2578</ele>
        <time>2026-07-29T08:30:53.716Z</time>
      </trkpt>
      <trkpt lat="45.74575" lon="6.74635">
        <ele>2578</ele>
        <time>2026-07-29T08:30:54.716Z</time>
      </trkpt>
      <trkpt lat="45.74575" lon="6.74635">
        <ele>2578</ele>
        <time>2026-07-29T08:30:55.716Z</time>
      </trkpt>
      <trkpt lat="45.74574" lon="6.74635">
        <ele>2578</ele>
        <time>2026-07-29T08:30:56.716Z</time>
      </trkpt>
      <trkpt lat="45.74574" lon="6.74634">
        <ele>2578</ele>
        <time>2026-07-29T08:30:57.716Z</time>
      </trkpt>
      <trkpt lat="45.74573" lon="6.74633">
        <ele>2578</ele>
        <time>2026-07-29T08:30:58.716Z</time>
      </trkpt>
      <trkpt lat="45.74573" lon="6.74633">
        <ele>2578</ele>
        <time>2026-07-29T08:30:59.716Z</time>
      </trkpt>
      <trkpt lat="45.74572" lon="6.74633">
        <ele>2579</ele>
        <time>2026-07-29T08:31:00.716Z</time>
      </trkpt>
      <trkpt lat="45.74572" lon="6.74633">
        <ele>2579</ele>
        <time>2026-07-29T08:31:01.716Z</time>
      </trkpt>
      <trkpt lat="45.74571" lon="6.74633">
        <ele>2579</ele>
        <time>2026-07-29T08:31:02.716Z</time>
      </trkpt>
      <trkpt lat="45.74571" lon="6.74634">
        <ele>2579</ele>
        <time>2026-07-29T08:31:03.716Z</time>
      </trkpt>
      <trkpt lat="45.7457" lon="6.74635">
        <ele>2579</ele>
        <time>2026-07-29T08:31:04.716Z</time>
      </trkpt>
      <trkpt lat="45.74568" lon="6.74635">
        <ele>2580</ele>
        <time>2026-07-29T08:31:05.716Z</time>
      </trkpt>
      <trkpt lat="45.74567" lon="6.74635">
        <ele>2579</ele>
        <time>2026-07-29T08:31:06.716Z</time>
      </trkpt>
      <trkpt lat="45.74566" lon="6.74635">
        <ele>2579</ele>
        <time>2026-07-29T08:31:07.716Z</time>
      </trkpt>
      <trkpt lat="45.74566" lon="6.74635">
        <ele>2580</ele>
        <time>2026-07-29T08:31:08.716Z</time>
      </trkpt>
      <trkpt lat="45.74565" lon="6.74635">
        <ele>2580</ele>
        <time>2026-07-29T08:31:09.716Z</time>
      </trkpt>
      <trkpt lat="45.74564" lon="6.74635">
        <ele>2580</ele>
        <time>2026-07-29T08:31:10.716Z</time>
      </trkpt>
      <trkpt lat="45.74563" lon="6.74635">
        <ele>2580</ele>
        <time>2026-07-29T08:31:11.716Z</time>
      </trkpt>
      <trkpt lat="45.74562" lon="6.74634">
        <ele>2580</ele>
        <time>2026-07-29T08:31:12.716Z</time>
      </trkpt>
      <trkpt lat="45.74561" lon="6.74634">
        <ele>2580</ele>
        <time>2026-07-29T08:31:13.716Z</time>
      </trkpt>
      <trkpt lat="45.7456" lon="6.74634">
        <ele>2580</ele>
        <time>2026-07-29T08:31:14.716Z</time>
      </trkpt>
      <trkpt lat="45.74559" lon="6.74633">
        <ele>2580</ele>
        <time>2026-07-29T08:31:15.716Z</time>
      </trkpt>
      <trkpt lat="45.74558" lon="6.74633">
        <ele>2580</ele>
        <time>2026-07-29T08:31:16.716Z</time>
      </trkpt>
      <trkpt lat="45.74557" lon="6.74633">
        <ele>2581</ele>
        <time>2026-07-29T08:31:17.716Z</time>
      </trkpt>
      <trkpt lat="45.74557" lon="6.74633">
        <ele>2581</ele>
        <time>2026-07-29T08:31:18.716Z</time>
      </trkpt>
      <trkpt lat="45.74556" lon="6.74633">
        <ele>2581</ele>
        <time>2026-07-29T08:31:19.716Z</time>
      </trkpt>
      <trkpt lat="45.74556" lon="6.74633">
        <ele>2582</ele>
        <time>2026-07-29T08:31:20.716Z</time>
      </trkpt>
      <trkpt lat="45.74555" lon="6.74634">
        <ele>2582</ele>
        <time>2026-07-29T08:31:21.716Z</time>
      </trkpt>
      <trkpt lat="45.74555" lon="6.74634">
        <ele>2582</ele>
        <time>2026-07-29T08:31:22.716Z</time>
      </trkpt>
      <trkpt lat="45.74555" lon="6.74634">
        <ele>2582</ele>
        <time>2026-07-29T08:31:23.716Z</time>
      </trkpt>
      <trkpt lat="45.74554" lon="6.74635">
        <ele>2583</ele>
        <time>2026-07-29T08:31:24.716Z</time>
      </trkpt>
      <trkpt lat="45.74554" lon="6.74635">
        <ele>2583</ele>
        <time>2026-07-29T08:31:25.716Z</time>
      </trkpt>
      <trkpt lat="45.74553" lon="6.74636">
        <ele>2583</ele>
        <time>2026-07-29T08:31:26.716Z</time>
      </trkpt>
      <trkpt lat="45.74552" lon="6.74637">
        <ele>2584</ele>
        <time>2026-07-29T08:31:27.716Z</time>
      </trkpt>
      <trkpt lat="45.74551" lon="6.74637">
        <ele>2584</ele>
        <time>2026-07-29T08:31:28.716Z</time>
      </trkpt>
      <trkpt lat="45.74551" lon="6.74637">
        <ele>2584</ele>
        <time>2026-07-29T08:31:29.716Z</time>
      </trkpt>
      <trkpt lat="45.7455" lon="6.74637">
        <ele>2584</ele>
        <time>2026-07-29T08:31:30.716Z</time>
      </trkpt>
      <trkpt lat="45.7455" lon="6.74636">
        <ele>2584</ele>
        <time>2026-07-29T08:31:31.716Z</time>
      </trkpt>
      <trkpt lat="45.74549" lon="6.74636">
        <ele>2584</ele>
        <time>2026-07-29T08:31:32.716Z</time>
      </trkpt>
      <trkpt lat="45.74547" lon="6.74636">
        <ele>2585</ele>
        <time>2026-07-29T08:31:33.716Z</time>
      </trkpt>
      <trkpt lat="45.74546" lon="6.74637">
        <ele>2585</ele>
        <time>2026-07-29T08:31:34.716Z</time>
      </trkpt>
      <trkpt lat="45.74545" lon="6.74637">
        <ele>2584</ele>
        <time>2026-07-29T08:31:35.716Z</time>
      </trkpt>
      <trkpt lat="45.74544" lon="6.74638">
        <ele>2584</ele>
        <time>2026-07-29T08:31:36.716Z</time>
      </trkpt>
      <trkpt lat="45.74543" lon="6.74638">
        <ele>2584</ele>
        <time>2026-07-29T08:31:37.716Z</time>
      </trkpt>
      <trkpt lat="45.74543" lon="6.74639">
        <ele>2584</ele>
        <time>2026-07-29T08:31:38.716Z</time>
      </trkpt>
      <trkpt lat="45.74542" lon="6.7464">
        <ele>2585</ele>
        <time>2026-07-29T08:31:39.716Z</time>
      </trkpt>
      <trkpt lat="45.74541" lon="6.74641">
        <ele>2585</ele>
        <time>2026-07-29T08:31:40.716Z</time>
      </trkpt>
      <trkpt lat="45.7454" lon="6.74643">
        <ele>2585</ele>
        <time>2026-07-29T08:31:41.716Z</time>
      </trkpt>
      <trkpt lat="45.7454" lon="6.74644">
        <ele>2586</ele>
        <time>2026-07-29T08:31:42.716Z</time>
      </trkpt>
      <trkpt lat="45.7454" lon="6.74645">
        <ele>2586</ele>
        <time>2026-07-29T08:31:43.716Z</time>
      </trkpt>
      <trkpt lat="45.74539" lon="6.74647">
        <ele>2586</ele>
        <time>2026-07-29T08:31:44.716Z</time>
      </trkpt>
      <trkpt lat="45.74537" lon="6.74649">
        <ele>2586</ele>
        <time>2026-07-29T08:31:45.716Z</time>
      </trkpt>
      <trkpt lat="45.74537" lon="6.74651">
        <ele>2586</ele>
        <time>2026-07-29T08:31:46.716Z</time>
      </trkpt>
      <trkpt lat="45.74536" lon="6.74653">
        <ele>2587</ele>
        <time>2026-07-29T08:31:47.716Z</time>
      </trkpt>
      <trkpt lat="45.74535" lon="6.74656">
        <ele>2587</ele>
        <time>2026-07-29T08:31:48.716Z</time>
      </trkpt>
      <trkpt lat="45.74534" lon="6.74659">
        <ele>2588</ele>
        <time>2026-07-29T08:31:49.716Z</time>
      </trkpt>
      <trkpt lat="45.74534" lon="6.74661">
        <ele>2588</ele>
        <time>2026-07-29T08:31:50.716Z</time>
      </trkpt>
      <trkpt lat="45.74533" lon="6.74663">
        <ele>2589</ele>
        <time>2026-07-29T08:31:51.716Z</time>
      </trkpt>
      <trkpt lat="45.74533" lon="6.74665">
        <ele>2590</ele>
        <time>2026-07-29T08:31:52.716Z</time>
      </trkpt>
      <trkpt lat="45.74532" lon="6.74667">
        <ele>2590</ele>
        <time>2026-07-29T08:31:53.716Z</time>
      </trkpt>
      <trkpt lat="45.74531" lon="6.74669">
        <ele>2590</ele>
        <time>2026-07-29T08:31:54.716Z</time>
      </trkpt>
      <trkpt lat="45.74531" lon="6.7467">
        <ele>2590</ele>
        <time>2026-07-29T08:31:55.716Z</time>
      </trkpt>
      <trkpt lat="45.7453" lon="6.74672">
        <ele>2590</ele>
        <time>2026-07-29T08:31:56.716Z</time>
      </trkpt>
      <trkpt lat="45.7453" lon="6.74674">
        <ele>2590</ele>
        <time>2026-07-29T08:31:57.716Z</time>
      </trkpt>
      <trkpt lat="45.74529" lon="6.74675">
        <ele>2590</ele>
        <time>2026-07-29T08:31:58.716Z</time>
      </trkpt>
      <trkpt lat="45.74528" lon="6.74677">
        <ele>2589</ele>
        <time>2026-07-29T08:31:59.716Z</time>
      </trkpt>
      <trkpt lat="45.74527" lon="6.74679">
        <ele>2589</ele>
        <time>2026-07-29T08:32:00.716Z</time>
      </trkpt>
      <trkpt lat="45.74526" lon="6.74681">
        <ele>2588</ele>
        <time>2026-07-29T08:32:01.716Z</time>
      </trkpt>
      <trkpt lat="45.74526" lon="6.74682">
        <ele>2588</ele>
        <time>2026-07-29T08:32:02.716Z</time>
      </trkpt>
      <trkpt lat="45.74525" lon="6.74683">
        <ele>2588</ele>
        <time>2026-07-29T08:32:03.716Z</time>
      </trkpt>
      <trkpt lat="45.74524" lon="6.74685">
        <ele>2588</ele>
        <time>2026-07-29T08:32:04.716Z</time>
      </trkpt>
      <trkpt lat="45.74523" lon="6.74686">
        <ele>2588</ele>
        <time>2026-07-29T08:32:05.716Z</time>
      </trkpt>
      <trkpt lat="45.74521" lon="6.74687">
        <ele>2587</ele>
        <time>2026-07-29T08:32:06.716Z</time>
      </trkpt>
      <trkpt lat="45.7452" lon="6.74687">
        <ele>2587</ele>
        <time>2026-07-29T08:32:07.716Z</time>
      </trkpt>
      <trkpt lat="45.74519" lon="6.74688">
        <ele>2587</ele>
        <time>2026-07-29T08:32:08.716Z</time>
      </trkpt>
      <trkpt lat="45.74518" lon="6.74688">
        <ele>2587</ele>
        <time>2026-07-29T08:32:09.716Z</time>
      </trkpt>
      <trkpt lat="45.74517" lon="6.74689">
        <ele>2587</ele>
        <time>2026-07-29T08:32:10.716Z</time>
      </trkpt>
      <trkpt lat="45.74516" lon="6.74689">
        <ele>2587</ele>
        <time>2026-07-29T08:32:11.716Z</time>
      </trkpt>
      <trkpt lat="45.74515" lon="6.7469">
        <ele>2587</ele>
        <time>2026-07-29T08:32:12.716Z</time>
      </trkpt>
      <trkpt lat="45.74513" lon="6.7469">
        <ele>2586</ele>
        <time>2026-07-29T08:32:13.716Z</time>
      </trkpt>
      <trkpt lat="45.74512" lon="6.7469">
        <ele>2586</ele>
        <time>2026-07-29T08:32:14.716Z</time>
      </trkpt>
      <trkpt lat="45.74512" lon="6.7469">
        <ele>2587</ele>
        <time>2026-07-29T08:32:15.716Z</time>
      </trkpt>
      <trkpt lat="45.74511" lon="6.7469">
        <ele>2587</ele>
        <time>2026-07-29T08:32:16.716Z</time>
      </trkpt>
      <trkpt lat="45.74511" lon="6.74691">
        <ele>2587</ele>
        <time>2026-07-29T08:32:17.716Z</time>
      </trkpt>
      <trkpt lat="45.7451" lon="6.74691">
        <ele>2588</ele>
        <time>2026-07-29T08:32:18.716Z</time>
      </trkpt>
      <trkpt lat="45.74509" lon="6.74691">
        <ele>2588</ele>
        <time>2026-07-29T08:32:19.716Z</time>
      </trkpt>
      <trkpt lat="45.74508" lon="6.74691">
        <ele>2588</ele>
        <time>2026-07-29T08:32:20.716Z</time>
      </trkpt>
      <trkpt lat="45.74508" lon="6.7469">
        <ele>2588</ele>
        <time>2026-07-29T08:32:21.716Z</time>
      </trkpt>
      <trkpt lat="45.74507" lon="6.7469">
        <ele>2588</ele>
        <time>2026-07-29T08:32:22.716Z</time>
      </trkpt>
      <trkpt lat="45.74507" lon="6.7469">
        <ele>2588</ele>
        <time>2026-07-29T08:32:23.716Z</time>
      </trkpt>
      <trkpt lat="45.74506" lon="6.7469">
        <ele>2588</ele>
        <time>2026-07-29T08:32:24.716Z</time>
      </trkpt>
      <trkpt lat="45.74506" lon="6.74689">
        <ele>2589</ele>
        <time>2026-07-29T08:32:25.716Z</time>
      </trkpt>
      <trkpt lat="45.74506" lon="6.74689">
        <ele>2589</ele>
        <time>2026-07-29T08:32:26.716Z</time>
      </trkpt>
      <trkpt lat="45.74506" lon="6.74688">
        <ele>2589</ele>
        <time>2026-07-29T08:32:27.716Z</time>
      </trkpt>
      <trkpt lat="45.74506" lon="6.74687">
        <ele>2589</ele>
        <time>2026-07-29T08:32:28.716Z</time>
      </trkpt>
      <trkpt lat="45.74506" lon="6.74686">
        <ele>2589</ele>
        <time>2026-07-29T08:32:29.716Z</time>
      </trkpt>
      <trkpt lat="45.74507" lon="6.74685">
        <ele>2590</ele>
        <time>2026-07-29T08:32:30.716Z</time>
      </trkpt>
      <trkpt lat="45.74507" lon="6.74685">
        <ele>2590</ele>
        <time>2026-07-29T08:32:31.716Z</time>
      </trkpt>
      <trkpt lat="45.74508" lon="6.74683">
        <ele>2591</ele>
        <time>2026-07-29T08:32:32.716Z</time>
      </trkpt>
      <trkpt lat="45.74509" lon="6.74682">
        <ele>2591</ele>
        <time>2026-07-29T08:32:33.716Z</time>
      </trkpt>
      <trkpt lat="45.74509" lon="6.74681">
        <ele>2591</ele>
        <time>2026-07-29T08:32:34.716Z</time>
      </trkpt>
      <trkpt lat="45.74509" lon="6.74681">
        <ele>2592</ele>
        <time>2026-07-29T08:32:35.716Z</time>
      </trkpt>
      <trkpt lat="45.74509" lon="6.7468">
        <ele>2592</ele>
        <time>2026-07-29T08:32:36.716Z</time>
      </trkpt>
      <trkpt lat="45.74509" lon="6.7468">
        <ele>2593</ele>
        <time>2026-07-29T08:32:37.716Z</time>
      </trkpt>
      <trkpt lat="45.74508" lon="6.7468">
        <ele>2593</ele>
        <time>2026-07-29T08:32:38.716Z</time>
      </trkpt>
      <trkpt lat="45.74508" lon="6.7468">
        <ele>2594</ele>
        <time>2026-07-29T08:32:39.716Z</time>
      </trkpt>
      <trkpt lat="45.74507" lon="6.7468">
        <ele>2594</ele>
        <time>2026-07-29T08:32:40.716Z</time>
      </trkpt>
      <trkpt lat="45.74506" lon="6.7468">
        <ele>2594</ele>
        <time>2026-07-29T08:32:41.716Z</time>
      </trkpt>
      <trkpt lat="45.74504" lon="6.7468">
        <ele>2594</ele>
        <time>2026-07-29T08:32:42.716Z</time>
      </trkpt>
      <trkpt lat="45.74504" lon="6.7468">
        <ele>2594</ele>
        <time>2026-07-29T08:32:43.716Z</time>
      </trkpt>
      <trkpt lat="45.74503" lon="6.74681">
        <ele>2594</ele>
        <time>2026-07-29T08:32:44.716Z</time>
      </trkpt>
      <trkpt lat="45.74502" lon="6.74681">
        <ele>2594</ele>
        <time>2026-07-29T08:32:45.716Z</time>
      </trkpt>
      <trkpt lat="45.74501" lon="6.7468">
        <ele>2595</ele>
        <time>2026-07-29T08:32:46.716Z</time>
      </trkpt>
      <trkpt lat="45.74501" lon="6.74679">
        <ele>2595</ele>
        <time>2026-07-29T08:32:47.716Z</time>
      </trkpt>
      <trkpt lat="45.74502" lon="6.74678">
        <ele>2595</ele>
        <time>2026-07-29T08:32:48.716Z</time>
      </trkpt>
      <trkpt lat="45.74502" lon="6.74677">
        <ele>2595</ele>
        <time>2026-07-29T08:32:49.716Z</time>
      </trkpt>
      <trkpt lat="45.74503" lon="6.74676">
        <ele>2595</ele>
        <time>2026-07-29T08:32:50.716Z</time>
      </trkpt>
      <trkpt lat="45.74503" lon="6.74675">
        <ele>2595</ele>
        <time>2026-07-29T08:32:51.716Z</time>
      </trkpt>
      <trkpt lat="45.74504" lon="6.74673">
        <ele>2595</ele>
        <time>2026-07-29T08:32:52.716Z</time>
      </trkpt>
      <trkpt lat="45.74505" lon="6.74672">
        <ele>2595</ele>
        <time>2026-07-29T08:32:53.716Z</time>
      </trkpt>
      <trkpt lat="45.74506" lon="6.74671">
        <ele>2595</ele>
        <time>2026-07-29T08:32:54.716Z</time>
      </trkpt>
      <trkpt lat="45.74507" lon="6.7467">
        <ele>2595</ele>
        <time>2026-07-29T08:32:55.716Z</time>
      </trkpt>
      <trkpt lat="45.74508" lon="6.74669">
        <ele>2596</ele>
        <time>2026-07-29T08:32:56.716Z</time>
      </trkpt>
      <trkpt lat="45.74508" lon="6.74669">
        <ele>2596</ele>
        <time>2026-07-29T08:32:57.716Z</time>
      </trkpt>
      <trkpt lat="45.74509" lon="6.74668">
        <ele>2596</ele>
        <time>2026-07-29T08:32:58.716Z</time>
      </trkpt>
      <trkpt lat="45.74508" lon="6.74668">
        <ele>2596</ele>
        <time>2026-07-29T08:32:59.716Z</time>
      </trkpt>
      <trkpt lat="45.74509" lon="6.74668">
        <ele>2597</ele>
        <time>2026-07-29T08:33:00.716Z</time>
      </trkpt>
      <trkpt lat="45.74509" lon="6.74668">
        <ele>2597</ele>
        <time>2026-07-29T08:33:01.716Z</time>
      </trkpt>
      <trkpt lat="45.74509" lon="6.74668">
        <ele>2597</ele>
        <time>2026-07-29T08:33:02.716Z</time>
      </trkpt>
      <trkpt lat="45.74509" lon="6.74668">
        <ele>2597</ele>
        <time>2026-07-29T08:33:03.716Z</time>
      </trkpt>
      <trkpt lat="45.74509" lon="6.74666">
        <ele>2598</ele>
        <time>2026-07-29T08:33:04.716Z</time>
      </trkpt>
      <trkpt lat="45.74509" lon="6.74666">
        <ele>2598</ele>
        <time>2026-07-29T08:33:05.716Z</time>
      </trkpt>
      <trkpt lat="45.74509" lon="6.74665">
        <ele>2598</ele>
        <time>2026-07-29T08:33:06.716Z</time>
      </trkpt>
      <trkpt lat="45.74509" lon="6.74665">
        <ele>2599</ele>
        <time>2026-07-29T08:33:07.716Z</time>
      </trkpt>
      <trkpt lat="45.7451" lon="6.74664">
        <ele>2599</ele>
        <time>2026-07-29T08:33:08.716Z</time>
      </trkpt>
      <trkpt lat="45.7451" lon="6.74664">
        <ele>2599</ele>
        <time>2026-07-29T08:33:09.716Z</time>
      </trkpt>
      <trkpt lat="45.7451" lon="6.74664">
        <ele>2600</ele>
        <time>2026-07-29T08:33:10.716Z</time>
      </trkpt>
      <trkpt lat="45.74509" lon="6.74664">
        <ele>2600</ele>
        <time>2026-07-29T08:33:11.716Z</time>
      </trkpt>
      <trkpt lat="45.74508" lon="6.74664">
        <ele>2600</ele>
        <time>2026-07-29T08:33:12.716Z</time>
      </trkpt>
      <trkpt lat="45.74508" lon="6.74663">
        <ele>2600</ele>
        <time>2026-07-29T08:33:13.716Z</time>
      </trkpt>
      <trkpt lat="45.74507" lon="6.74663">
        <ele>2601</ele>
        <time>2026-07-29T08:33:14.716Z</time>
      </trkpt>
      <trkpt lat="45.74509" lon="6.74661">
        <ele>2601</ele>
        <time>2026-07-29T08:33:15.716Z</time>
      </trkpt>
      <trkpt lat="45.74509" lon="6.7466">
        <ele>2601</ele>
        <time>2026-07-29T08:33:16.716Z</time>
      </trkpt>
      <trkpt lat="45.74509" lon="6.7466">
        <ele>2601</ele>
        <time>2026-07-29T08:33:17.716Z</time>
      </trkpt>
      <trkpt lat="45.7451" lon="6.74659">
        <ele>2601</ele>
        <time>2026-07-29T08:33:18.716Z</time>
      </trkpt>
      <trkpt lat="45.74511" lon="6.74658">
        <ele>2601</ele>
        <time>2026-07-29T08:33:19.716Z</time>
      </trkpt>
      <trkpt lat="45.74512" lon="6.74657">
        <ele>2601</ele>
        <time>2026-07-29T08:33:20.716Z</time>
      </trkpt>
      <trkpt lat="45.74513" lon="6.74657">
        <ele>2601</ele>
        <time>2026-07-29T08:33:21.716Z</time>
      </trkpt>
      <trkpt lat="45.74513" lon="6.74657">
        <ele>2602</ele>
        <time>2026-07-29T08:33:22.716Z</time>
      </trkpt>
      <trkpt lat="45.74514" lon="6.74656">
        <ele>2602</ele>
        <time>2026-07-29T08:33:23.716Z</time>
      </trkpt>
      <trkpt lat="45.74514" lon="6.74656">
        <ele>2602</ele>
        <time>2026-07-29T08:33:24.716Z</time>
      </trkpt>
      <trkpt lat="45.74514" lon="6.74656">
        <ele>2603</ele>
        <time>2026-07-29T08:33:25.716Z</time>
      </trkpt>
      <trkpt lat="45.74513" lon="6.74655">
        <ele>2603</ele>
        <time>2026-07-29T08:33:26.716Z</time>
      </trkpt>
      <trkpt lat="45.74513" lon="6.74655">
        <ele>2603</ele>
        <time>2026-07-29T08:33:27.716Z</time>
      </trkpt>
      <trkpt lat="45.74512" lon="6.74654">
        <ele>2603</ele>
        <time>2026-07-29T08:33:28.716Z</time>
      </trkpt>
      <trkpt lat="45.74511" lon="6.74654">
        <ele>2603</ele>
        <time>2026-07-29T08:33:29.716Z</time>
      </trkpt>
      <trkpt lat="45.74511" lon="6.74654">
        <ele>2603</ele>
        <time>2026-07-29T08:33:30.716Z</time>
      </trkpt>
      <trkpt lat="45.7451" lon="6.74654">
        <ele>2603</ele>
        <time>2026-07-29T08:33:31.716Z</time>
      </trkpt>
      <trkpt lat="45.74509" lon="6.74653">
        <ele>2603</ele>
        <time>2026-07-29T08:33:32.716Z</time>
      </trkpt>
      <trkpt lat="45.74509" lon="6.74652">
        <ele>2603</ele>
        <time>2026-07-29T08:33:33.716Z</time>
      </trkpt>
      <trkpt lat="45.74508" lon="6.74652">
        <ele>2603</ele>
        <time>2026-07-29T08:33:34.716Z</time>
      </trkpt>
      <trkpt lat="45.74508" lon="6.74651">
        <ele>2604</ele>
        <time>2026-07-29T08:33:35.716Z</time>
      </trkpt>
      <trkpt lat="45.74508" lon="6.74651">
        <ele>2604</ele>
        <time>2026-07-29T08:33:36.716Z</time>
      </trkpt>
      <trkpt lat="45.74508" lon="6.74651">
        <ele>2604</ele>
        <time>2026-07-29T08:33:37.716Z</time>
      </trkpt>
      <trkpt lat="45.74508" lon="6.74651">
        <ele>2605</ele>
        <time>2026-07-29T08:33:38.716Z</time>
      </trkpt>
      <trkpt lat="45.74507" lon="6.74651">
        <ele>2605</ele>
        <time>2026-07-29T08:33:39.716Z</time>
      </trkpt>
      <trkpt lat="45.74507" lon="6.7465">
        <ele>2605</ele>
        <time>2026-07-29T08:33:40.716Z</time>
      </trkpt>
      <trkpt lat="45.74508" lon="6.7465">
        <ele>2606</ele>
        <time>2026-07-29T08:33:41.716Z</time>
      </trkpt>
      <trkpt lat="45.74508" lon="6.7465">
        <ele>2606</ele>
        <time>2026-07-29T08:33:42.716Z</time>
      </trkpt>
      <trkpt lat="45.74508" lon="6.74649">
        <ele>2606</ele>
        <time>2026-07-29T08:33:43.716Z</time>
      </trkpt>
      <trkpt lat="45.74509" lon="6.7465">
        <ele>2606</ele>
        <time>2026-07-29T08:33:44.716Z</time>
      </trkpt>
      <trkpt lat="45.7451" lon="6.74649">
        <ele>2606</ele>
        <time>2026-07-29T08:33:45.716Z</time>
      </trkpt>
      <trkpt lat="45.7451" lon="6.74649">
        <ele>2606</ele>
        <time>2026-07-29T08:33:46.716Z</time>
      </trkpt>
      <trkpt lat="45.7451" lon="6.74649">
        <ele>2607</ele>
        <time>2026-07-29T08:33:47.716Z</time>
      </trkpt>
      <trkpt lat="45.7451" lon="6.74649">
        <ele>2607</ele>
        <time>2026-07-29T08:33:48.716Z</time>
      </trkpt>
      <trkpt lat="45.7451" lon="6.74649">
        <ele>2607</ele>
        <time>2026-07-29T08:33:49.716Z</time>
      </trkpt>
      <trkpt lat="45.7451" lon="6.74649">
        <ele>2607</ele>
        <time>2026-07-29T08:33:50.716Z</time>
      </trkpt>
      <trkpt lat="45.7451" lon="6.74649">
        <ele>2607</ele>
        <time>2026-07-29T08:33:51.716Z</time>
      </trkpt>
      <trkpt lat="45.7451" lon="6.74649">
        <ele>2608</ele>
        <time>2026-07-29T08:33:52.716Z</time>
      </trkpt>
      <trkpt lat="45.7451" lon="6.74649">
        <ele>2608</ele>
        <time>2026-07-29T08:33:53.716Z</time>
      </trkpt>
      <trkpt lat="45.7451" lon="6.74649">
        <ele>2608</ele>
        <time>2026-07-29T08:33:54.716Z</time>
      </trkpt>
      <trkpt lat="45.7451" lon="6.74649">
        <ele>2608</ele>
        <time>2026-07-29T08:33:55.716Z</time>
      </trkpt>
      <trkpt lat="45.7451" lon="6.74649">
        <ele>2609</ele>
        <time>2026-07-29T08:33:56.716Z</time>
      </trkpt>
      <trkpt lat="45.7451" lon="6.74649">
        <ele>2609</ele>
        <time>2026-07-29T08:33:57.716Z</time>
      </trkpt>
      <trkpt lat="45.7451" lon="6.74649">
        <ele>2609</ele>
        <time>2026-07-29T08:33:58.716Z</time>
      </trkpt>
      <trkpt lat="45.7451" lon="6.74649">
        <ele>2609</ele>
        <time>2026-07-29T08:33:59.716Z</time>
      </trkpt>
      <trkpt lat="45.7451" lon="6.74649">
        <ele>2609</ele>
        <time>2026-07-29T08:34:00.716Z</time>
      </trkpt>
      <trkpt lat="45.7451" lon="6.74649">
        <ele>2609</ele>
        <time>2026-07-29T08:34:01.716Z</time>
      </trkpt>
      <trkpt lat="45.7451" lon="6.74649">
        <ele>2610</ele>
        <time>2026-07-29T08:34:02.716Z</time>
      </trkpt>
      <trkpt lat="45.7451" lon="6.74649">
        <ele>2610</ele>
        <time>2026-07-29T08:34:03.716Z</time>
      </trkpt>
      <trkpt lat="45.74509" lon="6.74649">
        <ele>2610</ele>
        <time>2026-07-29T08:34:04.716Z</time>
      </trkpt>
      <trkpt lat="45.74509" lon="6.74649">
        <ele>2610</ele>
        <time>2026-07-29T08:34:05.716Z</time>
      </trkpt>
      <trkpt lat="45.74509" lon="6.74649">
        <ele>2610</ele>
        <time>2026-07-29T08:34:06.716Z</time>
      </trkpt>
      <trkpt lat="45.74509" lon="6.7465">
        <ele>2610</ele>
        <time>2026-07-29T08:34:07.716Z</time>
      </trkpt>
      <trkpt lat="45.74509" lon="6.7465">
        <ele>2610</ele>
        <time>2026-07-29T08:34:08.716Z</time>
      </trkpt>
      <trkpt lat="45.74509" lon="6.7465">
        <ele>2610</ele>
        <time>2026-07-29T08:34:09.716Z</time>
      </trkpt>
      <trkpt lat="45.74509" lon="6.7465">
        <ele>2610</ele>
        <time>2026-07-29T08:34:10.716Z</time>
      </trkpt>
      <trkpt lat="45.74509" lon="6.7465">
        <ele>2610</ele>
        <time>2026-07-29T08:34:11.716Z</time>
      </trkpt>
      <trkpt lat="45.74509" lon="6.7465">
        <ele>2610</ele>
        <time>2026-07-29T08:34:12.716Z</time>
      </trkpt>
      <trkpt lat="45.74509" lon="6.7465">
        <ele>2610</ele>
        <time>2026-07-29T08:34:13.716Z</time>
      </trkpt>
      <trkpt lat="45.74509" lon="6.74651">
        <ele>2610</ele>
        <time>2026-07-29T08:34:14.716Z</time>
      </trkpt>
      <trkpt lat="45.74509" lon="6.74651">
        <ele>2610</ele>
        <time>2026-07-29T08:34:15.716Z</time>
      </trkpt>
      <trkpt lat="45.74509" lon="6.74651">
        <ele>2610</ele>
        <time>2026-07-29T08:34:16.716Z</time>
      </trkpt>
      <trkpt lat="45.74509" lon="6.74651">
        <ele>2610</ele>
        <time>2026-07-29T08:34:17.716Z</time>
      </trkpt>
      <trkpt lat="45.74509" lon="6.74651">
        <ele>2610</ele>
        <time>2026-07-29T08:34:18.716Z</time>
      </trkpt>
      <trkpt lat="45.74509" lon="6.74651">
        <ele>2610</ele>
        <time>2026-07-29T08:34:19.716Z</time>
      </trkpt>
      <trkpt lat="45.74509" lon="6.74651">
        <ele>2610</ele>
        <time>2026-07-29T08:34:20.716Z</time>
      </trkpt>
      <trkpt lat="45.74509" lon="6.74652">
        <ele>2610</ele>
        <time>2026-07-29T08:34:21.716Z</time>
      </trkpt>
      <trkpt lat="45.74509" lon="6.74652">
        <ele>2610</ele>
        <time>2026-07-29T08:34:22.716Z</time>
      </trkpt>
      <trkpt lat="45.74509" lon="6.74652">
        <ele>2610</ele>
        <time>2026-07-29T08:34:23.716Z</time>
      </trkpt>
      <trkpt lat="45.74509" lon="6.74652">
        <ele>2610</ele>
        <time>2026-07-29T08:34:24.716Z</time>
      </trkpt>
      <trkpt lat="45.74509" lon="6.74652">
        <ele>2610</ele>
        <time>2026-07-29T08:34:25.716Z</time>
      </trkpt>
      <trkpt lat="45.74509" lon="6.74652">
        <ele>2610</ele>
        <time>2026-07-29T08:34:26.716Z</time>
      </trkpt>
      <trkpt lat="45.74509" lon="6.74652">
        <ele>2610</ele>
        <time>2026-07-29T08:34:27.716Z</time>
      </trkpt>
      <trkpt lat="45.74509" lon="6.74652">
        <ele>2610</ele>
        <time>2026-07-29T08:34:28.716Z</time>
      </trkpt>
      <trkpt lat="45.74509" lon="6.74652">
        <ele>2610</ele>
        <time>2026-07-29T08:34:29.716Z</time>
      </trkpt>
      <trkpt lat="45.74509" lon="6.74652">
        <ele>2610</ele>
        <time>2026-07-29T08:34:30.716Z</time>
      </trkpt>
      <trkpt lat="45.74509" lon="6.74652">
        <ele>2610</ele>
        <time>2026-07-29T08:34:31.716Z</time>
      </trkpt>
      <trkpt lat="45.74509" lon="6.74652">
        <ele>2610</ele>
        <time>2026-07-29T08:34:32.716Z</time>
      </trkpt>
      <trkpt lat="45.74509" lon="6.74652">
        <ele>2610</ele>
        <time>2026-07-29T08:34:33.716Z</time>
      </trkpt>
      <trkpt lat="45.74509" lon="6.74652">
        <ele>2610</ele>
        <time>2026-07-29T08:34:34.716Z</time>
      </trkpt>
      <trkpt lat="45.74509" lon="6.74652">
        <ele>2610</ele>
        <time>2026-07-29T08:34:35.716Z</time>
      </trkpt>
      <trkpt lat="45.74509" lon="6.74652">
        <ele>2610</ele>
        <time>2026-07-29T08:34:36.716Z</time>
      </trkpt>
      <trkpt lat="45.74509" lon="6.74652">
        <ele>2610</ele>
        <time>2026-07-29T08:34:37.716Z</time>
      </trkpt>
      <trkpt lat="45.74509" lon="6.74652">
        <ele>2610</ele>
        <time>2026-07-29T08:34:38.716Z</time>
      </trkpt>
      <trkpt lat="45.74509" lon="6.74652">
        <ele>2610</ele>
        <time>2026-07-29T08:34:39.716Z</time>
      </trkpt>
      <trkpt lat="45.74509" lon="6.74652">
        <ele>2610</ele>
        <time>2026-07-29T08:34:40.716Z</time>
      </trkpt>
      <trkpt lat="45.74509" lon="6.74652">
        <ele>2610</ele>
        <time>2026-07-29T08:34:41.716Z</time>
      </trkpt>
      <trkpt lat="45.74509" lon="6.74652">
        <ele>2610</ele>
        <time>2026-07-29T08:34:42.716Z</time>
      </trkpt>
      <trkpt lat="45.74509" lon="6.74652">
        <ele>2610</ele>
        <time>2026-07-29T08:34:43.716Z</time>
      </trkpt>
      <trkpt lat="45.74509" lon="6.74652">
        <ele>2610</ele>
        <time>2026-07-29T08:34:44.716Z</time>
      </trkpt>
      <trkpt lat="45.74509" lon="6.74652">
        <ele>2610</ele>
        <time>2026-07-29T08:34:45.716Z</time>
      </trkpt>
      <trkpt lat="45.74509" lon="6.74652">
        <ele>2610</ele>
        <time>2026-07-29T08:34:46.716Z</time>
      </trkpt>
      <trkpt lat="45.74509" lon="6.74651">
        <ele>2609</ele>
        <time>2026-07-29T08:34:47.716Z</time>
      </trkpt>
      <trkpt lat="45.74509" lon="6.74651">
        <ele>2609</ele>
        <time>2026-07-29T08:34:48.716Z</time>
      </trkpt>
      <trkpt lat="45.74509" lon="6.74651">
        <ele>2609</ele>
        <time>2026-07-29T08:34:49.716Z</time>
      </trkpt>
      <trkpt lat="45.74509" lon="6.74651">
        <ele>2609</ele>
        <time>2026-07-29T08:34:50.716Z</time>
      </trkpt>
      <trkpt lat="45.74509" lon="6.74651">
        <ele>2609</ele>
        <time>2026-07-29T08:34:51.716Z</time>
      </trkpt>
      <trkpt lat="45.74509" lon="6.74651">
        <ele>2609</ele>
        <time>2026-07-29T08:34:52.716Z</time>
      </trkpt>
      <trkpt lat="45.74508" lon="6.74651">
        <ele>2609</ele>
        <time>2026-07-29T08:34:53.716Z</time>
      </trkpt>
      <trkpt lat="45.74508" lon="6.74651">
        <ele>2609</ele>
        <time>2026-07-29T08:34:54.716Z</time>
      </trkpt>
      <trkpt lat="45.74507" lon="6.74651">
        <ele>2609</ele>
        <time>2026-07-29T08:34:55.716Z</time>
      </trkpt>
      <trkpt lat="45.74507" lon="6.74651">
        <ele>2609</ele>
        <time>2026-07-29T08:34:56.716Z</time>
      </trkpt>
      <trkpt lat="45.74507" lon="6.74651">
        <ele>2609</ele>
        <time>2026-07-29T08:34:57.716Z</time>
      </trkpt>
      <trkpt lat="45.74506" lon="6.74651">
        <ele>2609</ele>
        <time>2026-07-29T08:34:58.716Z</time>
      </trkpt>
      <trkpt lat="45.74506" lon="6.74651">
        <ele>2609</ele>
        <time>2026-07-29T08:34:59.716Z</time>
      </trkpt>
      <trkpt lat="45.74506" lon="6.74651">
        <ele>2609</ele>
        <time>2026-07-29T08:35:00.716Z</time>
      </trkpt>
      <trkpt lat="45.74505" lon="6.74651">
        <ele>2609</ele>
        <time>2026-07-29T08:35:01.716Z</time>
      </trkpt>
      <trkpt lat="45.74505" lon="6.7465">
        <ele>2609</ele>
        <time>2026-07-29T08:35:02.716Z</time>
      </trkpt>
      <trkpt lat="45.74505" lon="6.7465">
        <ele>2609</ele>
        <time>2026-07-29T08:35:03.716Z</time>
      </trkpt>
      <trkpt lat="45.74505" lon="6.74649">
        <ele>2609</ele>
        <time>2026-07-29T08:35:04.716Z</time>
      </trkpt>
      <trkpt lat="45.74505" lon="6.74649">
        <ele>2609</ele>
        <time>2026-07-29T08:35:05.716Z</time>
      </trkpt>
      <trkpt lat="45.74505" lon="6.74649">
        <ele>2609</ele>
        <time>2026-07-29T08:35:06.716Z</time>
      </trkpt>
      <trkpt lat="45.74505" lon="6.74649">
        <ele>2609</ele>
        <time>2026-07-29T08:35:07.716Z</time>
      </trkpt>
      <trkpt lat="45.74504" lon="6.74649">
        <ele>2609</ele>
        <time>2026-07-29T08:35:08.716Z</time>
      </trkpt>
      <trkpt lat="45.74504" lon="6.74649">
        <ele>2609</ele>
        <time>2026-07-29T08:35:09.716Z</time>
      </trkpt>
      <trkpt lat="45.74504" lon="6.74648">
        <ele>2609</ele>
        <time>2026-07-29T08:35:10.716Z</time>
      </trkpt>
      <trkpt lat="45.74504" lon="6.74648">
        <ele>2609</ele>
        <time>2026-07-29T08:35:11.716Z</time>
      </trkpt>
      <trkpt lat="45.74504" lon="6.74648">
        <ele>2609</ele>
        <time>2026-07-29T08:35:12.716Z</time>
      </trkpt>
      <trkpt lat="45.74503" lon="6.74648">
        <ele>2609</ele>
        <time>2026-07-29T08:35:13.716Z</time>
      </trkpt>
      <trkpt lat="45.74503" lon="6.74647">
        <ele>2609</ele>
        <time>2026-07-29T08:35:14.716Z</time>
      </trkpt>
      <trkpt lat="45.74502" lon="6.74647">
        <ele>2609</ele>
        <time>2026-07-29T08:35:15.716Z</time>
      </trkpt>
      <trkpt lat="45.74502" lon="6.74647">
        <ele>2609</ele>
        <time>2026-07-29T08:35:16.716Z</time>
      </trkpt>
      <trkpt lat="45.74501" lon="6.74648">
        <ele>2608</ele>
        <time>2026-07-29T08:35:17.716Z</time>
      </trkpt>
      <trkpt lat="45.745" lon="6.74648">
        <ele>2608</ele>
        <time>2026-07-29T08:35:18.716Z</time>
      </trkpt>
      <trkpt lat="45.74498" lon="6.74648">
        <ele>2608</ele>
        <time>2026-07-29T08:35:19.716Z</time>
      </trkpt>
      <trkpt lat="45.74497" lon="6.74649">
        <ele>2608</ele>
        <time>2026-07-29T08:35:20.716Z</time>
      </trkpt>
      <trkpt lat="45.74496" lon="6.74648">
        <ele>2608</ele>
        <time>2026-07-29T08:35:21.716Z</time>
      </trkpt>
      <trkpt lat="45.74495" lon="6.74648">
        <ele>2608</ele>
        <time>2026-07-29T08:35:22.716Z</time>
      </trkpt>
      <trkpt lat="45.74495" lon="6.74647">
        <ele>2607</ele>
        <time>2026-07-29T08:35:23.716Z</time>
      </trkpt>
      <trkpt lat="45.74494" lon="6.74646">
        <ele>2607</ele>
        <time>2026-07-29T08:35:24.716Z</time>
      </trkpt>
      <trkpt lat="45.74494" lon="6.74645">
        <ele>2606</ele>
        <time>2026-07-29T08:35:25.716Z</time>
      </trkpt>
      <trkpt lat="45.74494" lon="6.74643">
        <ele>2605</ele>
        <time>2026-07-29T08:35:26.716Z</time>
      </trkpt>
      <trkpt lat="45.74494" lon="6.74642">
        <ele>2604</ele>
        <time>2026-07-29T08:35:27.716Z</time>
      </trkpt>
      <trkpt lat="45.74494" lon="6.7464">
        <ele>2603</ele>
        <time>2026-07-29T08:35:28.716Z</time>
      </trkpt>
      <trkpt lat="45.74494" lon="6.74639">
        <ele>2603</ele>
        <time>2026-07-29T08:35:29.716Z</time>
      </trkpt>
      <trkpt lat="45.74494" lon="6.74638">
        <ele>2602</ele>
        <time>2026-07-29T08:35:30.716Z</time>
      </trkpt>
      <trkpt lat="45.74494" lon="6.74637">
        <ele>2601</ele>
        <time>2026-07-29T08:35:31.716Z</time>
      </trkpt>
      <trkpt lat="45.74495" lon="6.74636">
        <ele>2600</ele>
        <time>2026-07-29T08:35:32.716Z</time>
      </trkpt>
      <trkpt lat="45.74495" lon="6.74636">
        <ele>2599</ele>
        <time>2026-07-29T08:35:33.716Z</time>
      </trkpt>
      <trkpt lat="45.74495" lon="6.74636">
        <ele>2598</ele>
        <time>2026-07-29T08:35:34.716Z</time>
      </trkpt>
      <trkpt lat="45.74494" lon="6.74636">
        <ele>2598</ele>
        <time>2026-07-29T08:35:35.716Z</time>
      </trkpt>
      <trkpt lat="45.74494" lon="6.74636">
        <ele>2597</ele>
        <time>2026-07-29T08:35:36.716Z</time>
      </trkpt>
      <trkpt lat="45.74493" lon="6.74637">
        <ele>2597</ele>
        <time>2026-07-29T08:35:37.716Z</time>
      </trkpt>
      <trkpt lat="45.74493" lon="6.74637">
        <ele>2596</ele>
        <time>2026-07-29T08:35:38.716Z</time>
      </trkpt>
      <trkpt lat="45.74493" lon="6.74636">
        <ele>2596</ele>
        <time>2026-07-29T08:35:39.716Z</time>
      </trkpt>
      <trkpt lat="45.74493" lon="6.74636">
        <ele>2595</ele>
        <time>2026-07-29T08:35:40.716Z</time>
      </trkpt>
      <trkpt lat="45.74493" lon="6.74635">
        <ele>2595</ele>
        <time>2026-07-29T08:35:41.716Z</time>
      </trkpt>
      <trkpt lat="45.74493" lon="6.74635">
        <ele>2594</ele>
        <time>2026-07-29T08:35:42.716Z</time>
      </trkpt>
      <trkpt lat="45.74492" lon="6.74634">
        <ele>2594</ele>
        <time>2026-07-29T08:35:43.716Z</time>
      </trkpt>
      <trkpt lat="45.74492" lon="6.74634">
        <ele>2594</ele>
        <time>2026-07-29T08:35:44.716Z</time>
      </trkpt>
      <trkpt lat="45.74492" lon="6.74633">
        <ele>2593</ele>
        <time>2026-07-29T08:35:45.716Z</time>
      </trkpt>
      <trkpt lat="45.74492" lon="6.74632">
        <ele>2593</ele>
        <time>2026-07-29T08:35:46.716Z</time>
      </trkpt>
      <trkpt lat="45.74492" lon="6.74632">
        <ele>2593</ele>
        <time>2026-07-29T08:35:47.716Z</time>
      </trkpt>
      <trkpt lat="45.74492" lon="6.74631">
        <ele>2593</ele>
        <time>2026-07-29T08:35:48.716Z</time>
      </trkpt>
      <trkpt lat="45.74492" lon="6.74631">
        <ele>2592</ele>
        <time>2026-07-29T08:35:49.716Z</time>
      </trkpt>
      <trkpt lat="45.74491" lon="6.7463">
        <ele>2592</ele>
        <time>2026-07-29T08:35:50.716Z</time>
      </trkpt>
      <trkpt lat="45.74491" lon="6.74629">
        <ele>2592</ele>
        <time>2026-07-29T08:35:51.716Z</time>
      </trkpt>
      <trkpt lat="45.74491" lon="6.74629">
        <ele>2592</ele>
        <time>2026-07-29T08:35:52.716Z</time>
      </trkpt>
      <trkpt lat="45.74491" lon="6.74628">
        <ele>2593</ele>
        <time>2026-07-29T08:35:53.716Z</time>
      </trkpt>
      <trkpt lat="45.74491" lon="6.74628">
        <ele>2593</ele>
        <time>2026-07-29T08:35:54.716Z</time>
      </trkpt>
      <trkpt lat="45.74491" lon="6.74628">
        <ele>2593</ele>
        <time>2026-07-29T08:35:55.716Z</time>
      </trkpt>
      <trkpt lat="45.74491" lon="6.74628">
        <ele>2592</ele>
        <time>2026-07-29T08:35:56.716Z</time>
      </trkpt>
      <trkpt lat="45.74491" lon="6.74627">
        <ele>2592</ele>
        <time>2026-07-29T08:35:57.716Z</time>
      </trkpt>
      <trkpt lat="45.74491" lon="6.74627">
        <ele>2592</ele>
        <time>2026-07-29T08:35:58.716Z</time>
      </trkpt>
      <trkpt lat="45.7449" lon="6.74626">
        <ele>2592</ele>
        <time>2026-07-29T08:35:59.716Z</time>
      </trkpt>
      <trkpt lat="45.7449" lon="6.74626">
        <ele>2591</ele>
        <time>2026-07-29T08:36:00.716Z</time>
      </trkpt>
      <trkpt lat="45.7449" lon="6.74625">
        <ele>2591</ele>
        <time>2026-07-29T08:36:01.716Z</time>
      </trkpt>
      <trkpt lat="45.7449" lon="6.74625">
        <ele>2591</ele>
        <time>2026-07-29T08:36:02.716Z</time>
      </trkpt>
      <trkpt lat="45.7449" lon="6.74625">
        <ele>2591</ele>
        <time>2026-07-29T08:36:03.716Z</time>
      </trkpt>
      <trkpt lat="45.7449" lon="6.74624">
        <ele>2591</ele>
        <time>2026-07-29T08:36:04.716Z</time>
      </trkpt>
      <trkpt lat="45.74489" lon="6.74624">
        <ele>2591</ele>
        <time>2026-07-29T08:36:05.716Z</time>
      </trkpt>
      <trkpt lat="45.74489" lon="6.74623">
        <ele>2591</ele>
        <time>2026-07-29T08:36:06.716Z</time>
      </trkpt>
      <trkpt lat="45.74489" lon="6.74623">
        <ele>2591</ele>
        <time>2026-07-29T08:36:07.716Z</time>
      </trkpt>
      <trkpt lat="45.74489" lon="6.74623">
        <ele>2591</ele>
        <time>2026-07-29T08:36:08.716Z</time>
      </trkpt>
      <trkpt lat="45.74489" lon="6.74623">
        <ele>2591</ele>
        <time>2026-07-29T08:36:09.716Z</time>
      </trkpt>
      <trkpt lat="45.74489" lon="6.74623">
        <ele>2591</ele>
        <time>2026-07-29T08:36:10.716Z</time>
      </trkpt>
      <trkpt lat="45.74489" lon="6.74623">
        <ele>2591</ele>
        <time>2026-07-29T08:36:11.716Z</time>
      </trkpt>
      <trkpt lat="45.74489" lon="6.74622">
        <ele>2591</ele>
        <time>2026-07-29T08:36:12.716Z</time>
      </trkpt>
      <trkpt lat="45.74488" lon="6.74622">
        <ele>2590</ele>
        <time>2026-07-29T08:36:13.716Z</time>
      </trkpt>
      <trkpt lat="45.74488" lon="6.74622">
        <ele>2590</ele>
        <time>2026-07-29T08:36:14.716Z</time>
      </trkpt>
      <trkpt lat="45.74488" lon="6.74622">
        <ele>2590</ele>
        <time>2026-07-29T08:36:15.716Z</time>
      </trkpt>
      <trkpt lat="45.74488" lon="6.74622">
        <ele>2590</ele>
        <time>2026-07-29T08:36:16.716Z</time>
      </trkpt>
      <trkpt lat="45.74488" lon="6.74622">
        <ele>2590</ele>
        <time>2026-07-29T08:36:17.716Z</time>
      </trkpt>
      <trkpt lat="45.74487" lon="6.74622">
        <ele>2589</ele>
        <time>2026-07-29T08:36:18.716Z</time>
      </trkpt>
      <trkpt lat="45.74487" lon="6.74623">
        <ele>2589</ele>
        <time>2026-07-29T08:36:19.716Z</time>
      </trkpt>
      <trkpt lat="45.74487" lon="6.74623">
        <ele>2589</ele>
        <time>2026-07-29T08:36:20.716Z</time>
      </trkpt>
      <trkpt lat="45.74486" lon="6.74624">
        <ele>2589</ele>
        <time>2026-07-29T08:36:21.716Z</time>
      </trkpt>
      <trkpt lat="45.74486" lon="6.74625">
        <ele>2589</ele>
        <time>2026-07-29T08:36:22.716Z</time>
      </trkpt>
      <trkpt lat="45.74486" lon="6.74626">
        <ele>2589</ele>
        <time>2026-07-29T08:36:23.716Z</time>
      </trkpt>
      <trkpt lat="45.74485" lon="6.74627">
        <ele>2589</ele>
        <time>2026-07-29T08:36:24.716Z</time>
      </trkpt>
      <trkpt lat="45.74485" lon="6.74628">
        <ele>2589</ele>
        <time>2026-07-29T08:36:25.716Z</time>
      </trkpt>
      <trkpt lat="45.74484" lon="6.74629">
        <ele>2589</ele>
        <time>2026-07-29T08:36:26.716Z</time>
      </trkpt>
      <trkpt lat="45.74483" lon="6.74629">
        <ele>2589</ele>
        <time>2026-07-29T08:36:27.716Z</time>
      </trkpt>
      <trkpt lat="45.74482" lon="6.74629">
        <ele>2589</ele>
        <time>2026-07-29T08:36:28.716Z</time>
      </trkpt>
      <trkpt lat="45.74482" lon="6.74628">
        <ele>2589</ele>
        <time>2026-07-29T08:36:29.716Z</time>
      </trkpt>
      <trkpt lat="45.74481" lon="6.74627">
        <ele>2590</ele>
        <time>2026-07-29T08:36:30.716Z</time>
      </trkpt>
      <trkpt lat="45.74481" lon="6.74627">
        <ele>2590</ele>
        <time>2026-07-29T08:36:31.716Z</time>
      </trkpt>
      <trkpt lat="45.7448" lon="6.74626">
        <ele>2590</ele>
        <time>2026-07-29T08:36:32.716Z</time>
      </trkpt>
      <trkpt lat="45.7448" lon="6.74625">
        <ele>2590</ele>
        <time>2026-07-29T08:36:33.716Z</time>
      </trkpt>
      <trkpt lat="45.7448" lon="6.74624">
        <ele>2590</ele>
        <time>2026-07-29T08:36:34.716Z</time>
      </trkpt>
      <trkpt lat="45.74479" lon="6.74622">
        <ele>2590</ele>
        <time>2026-07-29T08:36:35.716Z</time>
      </trkpt>
      <trkpt lat="45.74479" lon="6.74621">
        <ele>2590</ele>
        <time>2026-07-29T08:36:36.716Z</time>
      </trkpt>
      <trkpt lat="45.74479" lon="6.74621">
        <ele>2589</ele>
        <time>2026-07-29T08:36:37.716Z</time>
      </trkpt>
      <trkpt lat="45.74479" lon="6.7462">
        <ele>2589</ele>
        <time>2026-07-29T08:36:38.716Z</time>
      </trkpt>
      <trkpt lat="45.74479" lon="6.74619">
        <ele>2589</ele>
        <time>2026-07-29T08:36:39.716Z</time>
      </trkpt>
      <trkpt lat="45.74479" lon="6.74619">
        <ele>2588</ele>
        <time>2026-07-29T08:36:40.716Z</time>
      </trkpt>
      <trkpt lat="45.74479" lon="6.74619">
        <ele>2587</ele>
        <time>2026-07-29T08:36:41.716Z</time>
      </trkpt>
      <trkpt lat="45.74478" lon="6.74619">
        <ele>2587</ele>
        <time>2026-07-29T08:36:42.716Z</time>
      </trkpt>
      <trkpt lat="45.74478" lon="6.74618">
        <ele>2586</ele>
        <time>2026-07-29T08:36:43.716Z</time>
      </trkpt>
      <trkpt lat="45.74478" lon="6.74617">
        <ele>2585</ele>
        <time>2026-07-29T08:36:44.716Z</time>
      </trkpt>
      <trkpt lat="45.74477" lon="6.74617">
        <ele>2585</ele>
        <time>2026-07-29T08:36:45.716Z</time>
      </trkpt>
      <trkpt lat="45.74477" lon="6.74617">
        <ele>2585</ele>
        <time>2026-07-29T08:36:46.716Z</time>
      </trkpt>
      <trkpt lat="45.74477" lon="6.74617">
        <ele>2584</ele>
        <time>2026-07-29T08:36:47.716Z</time>
      </trkpt>
      <trkpt lat="45.74477" lon="6.74616">
        <ele>2584</ele>
        <time>2026-07-29T08:36:48.716Z</time>
      </trkpt>
      <trkpt lat="45.74476" lon="6.74616">
        <ele>2584</ele>
        <time>2026-07-29T08:36:49.716Z</time>
      </trkpt>
      <trkpt lat="45.74476" lon="6.74616">
        <ele>2584</ele>
        <time>2026-07-29T08:36:50.716Z</time>
      </trkpt>
      <trkpt lat="45.74475" lon="6.74616">
        <ele>2583</ele>
        <time>2026-07-29T08:36:51.716Z</time>
      </trkpt>
      <trkpt lat="45.74475" lon="6.74615">
        <ele>2583</ele>
        <time>2026-07-29T08:36:52.716Z</time>
      </trkpt>
      <trkpt lat="45.74475" lon="6.74616">
        <ele>2583</ele>
        <time>2026-07-29T08:36:53.716Z</time>
      </trkpt>
      <trkpt lat="45.74475" lon="6.74616">
        <ele>2583</ele>
        <time>2026-07-29T08:36:54.716Z</time>
      </trkpt>
      <trkpt lat="45.74475" lon="6.74616">
        <ele>2583</ele>
        <time>2026-07-29T08:36:55.716Z</time>
      </trkpt>
      <trkpt lat="45.74474" lon="6.74616">
        <ele>2583</ele>
        <time>2026-07-29T08:36:56.716Z</time>
      </trkpt>
      <trkpt lat="45.74474" lon="6.74617">
        <ele>2582</ele>
        <time>2026-07-29T08:36:57.716Z</time>
      </trkpt>
      <trkpt lat="45.74473" lon="6.74617">
        <ele>2582</ele>
        <time>2026-07-29T08:36:58.716Z</time>
      </trkpt>
      <trkpt lat="45.74473" lon="6.74617">
        <ele>2582</ele>
        <time>2026-07-29T08:36:59.716Z</time>
      </trkpt>
      <trkpt lat="45.74473" lon="6.74618">
        <ele>2582</ele>
        <time>2026-07-29T08:37:00.716Z</time>
      </trkpt>
      <trkpt lat="45.74472" lon="6.74619">
        <ele>2582</ele>
        <time>2026-07-29T08:37:01.716Z</time>
      </trkpt>
      <trkpt lat="45.74472" lon="6.7462">
        <ele>2582</ele>
        <time>2026-07-29T08:37:02.716Z</time>
      </trkpt>
      <trkpt lat="45.74472" lon="6.7462">
        <ele>2582</ele>
        <time>2026-07-29T08:37:03.716Z</time>
      </trkpt>
      <trkpt lat="45.74472" lon="6.74621">
        <ele>2582</ele>
        <time>2026-07-29T08:37:04.716Z</time>
      </trkpt>
      <trkpt lat="45.74472" lon="6.74621">
        <ele>2582</ele>
        <time>2026-07-29T08:37:05.716Z</time>
      </trkpt>
      <trkpt lat="45.74471" lon="6.74622">
        <ele>2581</ele>
        <time>2026-07-29T08:37:06.716Z</time>
      </trkpt>
      <trkpt lat="45.74471" lon="6.74621">
        <ele>2581</ele>
        <time>2026-07-29T08:37:07.716Z</time>
      </trkpt>
      <trkpt lat="45.7447" lon="6.74621">
        <ele>2581</ele>
        <time>2026-07-29T08:37:08.716Z</time>
      </trkpt>
      <trkpt lat="45.7447" lon="6.7462">
        <ele>2580</ele>
        <time>2026-07-29T08:37:09.716Z</time>
      </trkpt>
      <trkpt lat="45.7447" lon="6.7462">
        <ele>2579</ele>
        <time>2026-07-29T08:37:10.716Z</time>
      </trkpt>
      <trkpt lat="45.74469" lon="6.74619">
        <ele>2579</ele>
        <time>2026-07-29T08:37:11.716Z</time>
      </trkpt>
      <trkpt lat="45.74469" lon="6.74618">
        <ele>2579</ele>
        <time>2026-07-29T08:37:12.716Z</time>
      </trkpt>
      <trkpt lat="45.74469" lon="6.74618">
        <ele>2578</ele>
        <time>2026-07-29T08:37:13.716Z</time>
      </trkpt>
      <trkpt lat="45.74469" lon="6.74618">
        <ele>2578</ele>
        <time>2026-07-29T08:37:14.716Z</time>
      </trkpt>
      <trkpt lat="45.74468" lon="6.74618">
        <ele>2577</ele>
        <time>2026-07-29T08:37:15.716Z</time>
      </trkpt>
      <trkpt lat="45.74468" lon="6.74617">
        <ele>2577</ele>
        <time>2026-07-29T08:37:16.716Z</time>
      </trkpt>
      <trkpt lat="45.74468" lon="6.74617">
        <ele>2576</ele>
        <time>2026-07-29T08:37:17.716Z</time>
      </trkpt>
      <trkpt lat="45.74467" lon="6.74616">
        <ele>2576</ele>
        <time>2026-07-29T08:37:18.716Z</time>
      </trkpt>
      <trkpt lat="45.74467" lon="6.74615">
        <ele>2576</ele>
        <time>2026-07-29T08:37:19.716Z</time>
      </trkpt>
      <trkpt lat="45.74467" lon="6.74615">
        <ele>2575</ele>
        <time>2026-07-29T08:37:20.716Z</time>
      </trkpt>
      <trkpt lat="45.74467" lon="6.74615">
        <ele>2575</ele>
        <time>2026-07-29T08:37:21.716Z</time>
      </trkpt>
      <trkpt lat="45.74466" lon="6.74614">
        <ele>2575</ele>
        <time>2026-07-29T08:37:22.716Z</time>
      </trkpt>
      <trkpt lat="45.74465" lon="6.74614">
        <ele>2575</ele>
        <time>2026-07-29T08:37:23.716Z</time>
      </trkpt>
      <trkpt lat="45.74465" lon="6.74613">
        <ele>2574</ele>
        <time>2026-07-29T08:37:24.716Z</time>
      </trkpt>
      <trkpt lat="45.74465" lon="6.74612">
        <ele>2574</ele>
        <time>2026-07-29T08:37:25.716Z</time>
      </trkpt>
      <trkpt lat="45.74465" lon="6.74612">
        <ele>2573</ele>
        <time>2026-07-29T08:37:26.716Z</time>
      </trkpt>
      <trkpt lat="45.74465" lon="6.74611">
        <ele>2573</ele>
        <time>2026-07-29T08:37:27.716Z</time>
      </trkpt>
      <trkpt lat="45.74464" lon="6.7461">
        <ele>2573</ele>
        <time>2026-07-29T08:37:28.716Z</time>
      </trkpt>
      <trkpt lat="45.74464" lon="6.74609">
        <ele>2572</ele>
        <time>2026-07-29T08:37:29.716Z</time>
      </trkpt>
      <trkpt lat="45.74464" lon="6.74609">
        <ele>2572</ele>
        <time>2026-07-29T08:37:30.716Z</time>
      </trkpt>
      <trkpt lat="45.74464" lon="6.74608">
        <ele>2572</ele>
        <time>2026-07-29T08:37:31.716Z</time>
      </trkpt>
      <trkpt lat="45.74464" lon="6.74607">
        <ele>2572</ele>
        <time>2026-07-29T08:37:32.716Z</time>
      </trkpt>
      <trkpt lat="45.74464" lon="6.74607">
        <ele>2572</ele>
        <time>2026-07-29T08:37:33.716Z</time>
      </trkpt>
      <trkpt lat="45.74464" lon="6.74608">
        <ele>2571</ele>
        <time>2026-07-29T08:37:34.716Z</time>
      </trkpt>
      <trkpt lat="45.74463" lon="6.74608">
        <ele>2571</ele>
        <time>2026-07-29T08:37:35.716Z</time>
      </trkpt>
      <trkpt lat="45.74464" lon="6.74609">
        <ele>2571</ele>
        <time>2026-07-29T08:37:36.716Z</time>
      </trkpt>
      <trkpt lat="45.74463" lon="6.7461">
        <ele>2571</ele>
        <time>2026-07-29T08:37:37.716Z</time>
      </trkpt>
      <trkpt lat="45.74464" lon="6.74611">
        <ele>2570</ele>
        <time>2026-07-29T08:37:38.716Z</time>
      </trkpt>
      <trkpt lat="45.74463" lon="6.74613">
        <ele>2570</ele>
        <time>2026-07-29T08:37:39.716Z</time>
      </trkpt>
      <trkpt lat="45.74462" lon="6.74614">
        <ele>2570</ele>
        <time>2026-07-29T08:37:40.716Z</time>
      </trkpt>
      <trkpt lat="45.74462" lon="6.74615">
        <ele>2569</ele>
        <time>2026-07-29T08:37:41.716Z</time>
      </trkpt>
      <trkpt lat="45.74462" lon="6.74616">
        <ele>2569</ele>
        <time>2026-07-29T08:37:42.716Z</time>
      </trkpt>
      <trkpt lat="45.74461" lon="6.74617">
        <ele>2569</ele>
        <time>2026-07-29T08:37:43.716Z</time>
      </trkpt>
      <trkpt lat="45.7446" lon="6.74617">
        <ele>2569</ele>
        <time>2026-07-29T08:37:44.716Z</time>
      </trkpt>
      <trkpt lat="45.74459" lon="6.74617">
        <ele>2569</ele>
        <time>2026-07-29T08:37:45.716Z</time>
      </trkpt>
      <trkpt lat="45.74458" lon="6.74616">
        <ele>2568</ele>
        <time>2026-07-29T08:37:46.716Z</time>
      </trkpt>
      <trkpt lat="45.74458" lon="6.74615">
        <ele>2568</ele>
        <time>2026-07-29T08:37:47.716Z</time>
      </trkpt>
      <trkpt lat="45.74457" lon="6.74615">
        <ele>2568</ele>
        <time>2026-07-29T08:37:48.716Z</time>
      </trkpt>
      <trkpt lat="45.74456" lon="6.74614">
        <ele>2568</ele>
        <time>2026-07-29T08:37:49.716Z</time>
      </trkpt>
      <trkpt lat="45.74456" lon="6.74613">
        <ele>2567</ele>
        <time>2026-07-29T08:37:50.716Z</time>
      </trkpt>
      <trkpt lat="45.74455" lon="6.74613">
        <ele>2567</ele>
        <time>2026-07-29T08:37:51.716Z</time>
      </trkpt>
      <trkpt lat="45.74455" lon="6.74612">
        <ele>2566</ele>
        <time>2026-07-29T08:37:52.716Z</time>
      </trkpt>
      <trkpt lat="45.74454" lon="6.7461">
        <ele>2566</ele>
        <time>2026-07-29T08:37:53.716Z</time>
      </trkpt>
      <trkpt lat="45.74454" lon="6.74609">
        <ele>2566</ele>
        <time>2026-07-29T08:37:54.716Z</time>
      </trkpt>
      <trkpt lat="45.74453" lon="6.74609">
        <ele>2566</ele>
        <time>2026-07-29T08:37:55.716Z</time>
      </trkpt>
      <trkpt lat="45.74453" lon="6.74609">
        <ele>2565</ele>
        <time>2026-07-29T08:37:56.716Z</time>
      </trkpt>
      <trkpt lat="45.74453" lon="6.74608">
        <ele>2565</ele>
        <time>2026-07-29T08:37:57.716Z</time>
      </trkpt>
      <trkpt lat="45.74453" lon="6.74608">
        <ele>2564</ele>
        <time>2026-07-29T08:37:58.716Z</time>
      </trkpt>
      <trkpt lat="45.74453" lon="6.74608">
        <ele>2564</ele>
        <time>2026-07-29T08:37:59.716Z</time>
      </trkpt>
      <trkpt lat="45.74453" lon="6.74608">
        <ele>2563</ele>
        <time>2026-07-29T08:38:00.716Z</time>
      </trkpt>
      <trkpt lat="45.74453" lon="6.74607">
        <ele>2563</ele>
        <time>2026-07-29T08:38:01.716Z</time>
      </trkpt>
      <trkpt lat="45.74453" lon="6.74607">
        <ele>2563</ele>
        <time>2026-07-29T08:38:02.716Z</time>
      </trkpt>
      <trkpt lat="45.74453" lon="6.74606">
        <ele>2563</ele>
        <time>2026-07-29T08:38:03.716Z</time>
      </trkpt>
      <trkpt lat="45.74453" lon="6.74605">
        <ele>2563</ele>
        <time>2026-07-29T08:38:04.716Z</time>
      </trkpt>
      <trkpt lat="45.74453" lon="6.74604">
        <ele>2563</ele>
        <time>2026-07-29T08:38:05.716Z</time>
      </trkpt>
      <trkpt lat="45.74452" lon="6.74604">
        <ele>2563</ele>
        <time>2026-07-29T08:38:06.716Z</time>
      </trkpt>
      <trkpt lat="45.74452" lon="6.74604">
        <ele>2563</ele>
        <time>2026-07-29T08:38:07.716Z</time>
      </trkpt>
      <trkpt lat="45.74451" lon="6.74604">
        <ele>2563</ele>
        <time>2026-07-29T08:38:08.716Z</time>
      </trkpt>
      <trkpt lat="45.74451" lon="6.74605">
        <ele>2563</ele>
        <time>2026-07-29T08:38:09.716Z</time>
      </trkpt>
      <trkpt lat="45.7445" lon="6.74606">
        <ele>2563</ele>
        <time>2026-07-29T08:38:10.716Z</time>
      </trkpt>
      <trkpt lat="45.7445" lon="6.74606">
        <ele>2562</ele>
        <time>2026-07-29T08:38:11.716Z</time>
      </trkpt>
      <trkpt lat="45.74449" lon="6.74607">
        <ele>2562</ele>
        <time>2026-07-29T08:38:12.716Z</time>
      </trkpt>
      <trkpt lat="45.74449" lon="6.74608">
        <ele>2562</ele>
        <time>2026-07-29T08:38:13.716Z</time>
      </trkpt>
      <trkpt lat="45.74449" lon="6.74608">
        <ele>2562</ele>
        <time>2026-07-29T08:38:14.716Z</time>
      </trkpt>
      <trkpt lat="45.74449" lon="6.7461">
        <ele>2561</ele>
        <time>2026-07-29T08:38:15.716Z</time>
      </trkpt>
      <trkpt lat="45.74449" lon="6.74611">
        <ele>2561</ele>
        <time>2026-07-29T08:38:16.716Z</time>
      </trkpt>
      <trkpt lat="45.74449" lon="6.74612">
        <ele>2561</ele>
        <time>2026-07-29T08:38:17.716Z</time>
      </trkpt>
      <trkpt lat="45.74449" lon="6.74613">
        <ele>2560</ele>
        <time>2026-07-29T08:38:18.716Z</time>
      </trkpt>
      <trkpt lat="45.74449" lon="6.74613">
        <ele>2560</ele>
        <time>2026-07-29T08:38:19.716Z</time>
      </trkpt>
      <trkpt lat="45.74449" lon="6.74612">
        <ele>2559</ele>
        <time>2026-07-29T08:38:20.716Z</time>
      </trkpt>
      <trkpt lat="45.74449" lon="6.74611">
        <ele>2559</ele>
        <time>2026-07-29T08:38:21.716Z</time>
      </trkpt>
      <trkpt lat="45.74448" lon="6.7461">
        <ele>2558</ele>
        <time>2026-07-29T08:38:22.716Z</time>
      </trkpt>
      <trkpt lat="45.74447" lon="6.7461">
        <ele>2558</ele>
        <time>2026-07-29T08:38:23.716Z</time>
      </trkpt>
      <trkpt lat="45.74447" lon="6.74609">
        <ele>2557</ele>
        <time>2026-07-29T08:38:24.716Z</time>
      </trkpt>
      <trkpt lat="45.74446" lon="6.74608">
        <ele>2557</ele>
        <time>2026-07-29T08:38:25.716Z</time>
      </trkpt>
      <trkpt lat="45.74446" lon="6.74607">
        <ele>2557</ele>
        <time>2026-07-29T08:38:26.716Z</time>
      </trkpt>
      <trkpt lat="45.74445" lon="6.74606">
        <ele>2556</ele>
        <time>2026-07-29T08:38:27.716Z</time>
      </trkpt>
      <trkpt lat="45.74445" lon="6.74605">
        <ele>2556</ele>
        <time>2026-07-29T08:38:28.716Z</time>
      </trkpt>
      <trkpt lat="45.74444" lon="6.74604">
        <ele>2556</ele>
        <time>2026-07-29T08:38:29.716Z</time>
      </trkpt>
      <trkpt lat="45.74444" lon="6.74603">
        <ele>2556</ele>
        <time>2026-07-29T08:38:30.716Z</time>
      </trkpt>
      <trkpt lat="45.74444" lon="6.74601">
        <ele>2556</ele>
        <time>2026-07-29T08:38:31.716Z</time>
      </trkpt>
      <trkpt lat="45.74444" lon="6.746">
        <ele>2555</ele>
        <time>2026-07-29T08:38:32.716Z</time>
      </trkpt>
      <trkpt lat="45.74443" lon="6.74599">
        <ele>2555</ele>
        <time>2026-07-29T08:38:33.716Z</time>
      </trkpt>
      <trkpt lat="45.74443" lon="6.74598">
        <ele>2555</ele>
        <time>2026-07-29T08:38:34.716Z</time>
      </trkpt>
      <trkpt lat="45.74442" lon="6.74597">
        <ele>2555</ele>
        <time>2026-07-29T08:38:35.716Z</time>
      </trkpt>
      <trkpt lat="45.74442" lon="6.74596">
        <ele>2555</ele>
        <time>2026-07-29T08:38:36.716Z</time>
      </trkpt>
      <trkpt lat="45.74442" lon="6.74595">
        <ele>2554</ele>
        <time>2026-07-29T08:38:37.716Z</time>
      </trkpt>
      <trkpt lat="45.74442" lon="6.74594">
        <ele>2554</ele>
        <time>2026-07-29T08:38:38.716Z</time>
      </trkpt>
      <trkpt lat="45.74442" lon="6.74592">
        <ele>2554</ele>
        <time>2026-07-29T08:38:39.716Z</time>
      </trkpt>
      <trkpt lat="45.74442" lon="6.74591">
        <ele>2554</ele>
        <time>2026-07-29T08:38:40.716Z</time>
      </trkpt>
      <trkpt lat="45.74442" lon="6.7459">
        <ele>2553</ele>
        <time>2026-07-29T08:38:41.716Z</time>
      </trkpt>
      <trkpt lat="45.74442" lon="6.74588">
        <ele>2553</ele>
        <time>2026-07-29T08:38:42.716Z</time>
      </trkpt>
      <trkpt lat="45.74442" lon="6.74587">
        <ele>2553</ele>
        <time>2026-07-29T08:38:43.716Z</time>
      </trkpt>
      <trkpt lat="45.74442" lon="6.74585">
        <ele>2553</ele>
        <time>2026-07-29T08:38:44.716Z</time>
      </trkpt>
      <trkpt lat="45.74442" lon="6.74584">
        <ele>2552</ele>
        <time>2026-07-29T08:38:45.716Z</time>
      </trkpt>
      <trkpt lat="45.74442" lon="6.74583">
        <ele>2552</ele>
        <time>2026-07-29T08:38:46.716Z</time>
      </trkpt>
      <trkpt lat="45.74442" lon="6.74582">
        <ele>2551</ele>
        <time>2026-07-29T08:38:47.716Z</time>
      </trkpt>
      <trkpt lat="45.74442" lon="6.74581">
        <ele>2551</ele>
        <time>2026-07-29T08:38:48.716Z</time>
      </trkpt>
      <trkpt lat="45.74441" lon="6.74581">
        <ele>2550</ele>
        <time>2026-07-29T08:38:49.716Z</time>
      </trkpt>
      <trkpt lat="45.74441" lon="6.7458">
        <ele>2549</ele>
        <time>2026-07-29T08:38:50.716Z</time>
      </trkpt>
      <trkpt lat="45.74441" lon="6.74579">
        <ele>2549</ele>
        <time>2026-07-29T08:38:51.716Z</time>
      </trkpt>
      <trkpt lat="45.74441" lon="6.74578">
        <ele>2548</ele>
        <time>2026-07-29T08:38:52.716Z</time>
      </trkpt>
      <trkpt lat="45.7444" lon="6.74578">
        <ele>2548</ele>
        <time>2026-07-29T08:38:53.716Z</time>
      </trkpt>
      <trkpt lat="45.7444" lon="6.74577">
        <ele>2548</ele>
        <time>2026-07-29T08:38:54.716Z</time>
      </trkpt>
      <trkpt lat="45.7444" lon="6.74576">
        <ele>2548</ele>
        <time>2026-07-29T08:38:55.716Z</time>
      </trkpt>
      <trkpt lat="45.7444" lon="6.74575">
        <ele>2547</ele>
        <time>2026-07-29T08:38:56.716Z</time>
      </trkpt>
      <trkpt lat="45.7444" lon="6.74574">
        <ele>2547</ele>
        <time>2026-07-29T08:38:57.716Z</time>
      </trkpt>
      <trkpt lat="45.7444" lon="6.74573">
        <ele>2547</ele>
        <time>2026-07-29T08:38:58.716Z</time>
      </trkpt>
      <trkpt lat="45.74441" lon="6.74572">
        <ele>2547</ele>
        <time>2026-07-29T08:38:59.716Z</time>
      </trkpt>
      <trkpt lat="45.74441" lon="6.7457">
        <ele>2546</ele>
        <time>2026-07-29T08:39:00.716Z</time>
      </trkpt>
      <trkpt lat="45.74441" lon="6.74569">
        <ele>2546</ele>
        <time>2026-07-29T08:39:01.716Z</time>
      </trkpt>
      <trkpt lat="45.74441" lon="6.74567">
        <ele>2546</ele>
        <time>2026-07-29T08:39:02.716Z</time>
      </trkpt>
      <trkpt lat="45.74441" lon="6.74566">
        <ele>2545</ele>
        <time>2026-07-29T08:39:03.716Z</time>
      </trkpt>
      <trkpt lat="45.74441" lon="6.74565">
        <ele>2545</ele>
        <time>2026-07-29T08:39:04.716Z</time>
      </trkpt>
      <trkpt lat="45.74441" lon="6.74563">
        <ele>2545</ele>
        <time>2026-07-29T08:39:05.716Z</time>
      </trkpt>
      <trkpt lat="45.74441" lon="6.74562">
        <ele>2545</ele>
        <time>2026-07-29T08:39:06.716Z</time>
      </trkpt>
      <trkpt lat="45.74441" lon="6.74561">
        <ele>2545</ele>
        <time>2026-07-29T08:39:07.716Z</time>
      </trkpt>
      <trkpt lat="45.74442" lon="6.74559">
        <ele>2545</ele>
        <time>2026-07-29T08:39:08.716Z</time>
      </trkpt>
      <trkpt lat="45.74442" lon="6.74558">
        <ele>2545</ele>
        <time>2026-07-29T08:39:09.716Z</time>
      </trkpt>
      <trkpt lat="45.74442" lon="6.74556">
        <ele>2545</ele>
        <time>2026-07-29T08:39:10.716Z</time>
      </trkpt>
      <trkpt lat="45.74442" lon="6.74554">
        <ele>2545</ele>
        <time>2026-07-29T08:39:11.716Z</time>
      </trkpt>
      <trkpt lat="45.74442" lon="6.74553">
        <ele>2544</ele>
        <time>2026-07-29T08:39:12.716Z</time>
      </trkpt>
      <trkpt lat="45.74442" lon="6.74551">
        <ele>2543</ele>
        <time>2026-07-29T08:39:13.716Z</time>
      </trkpt>
      <trkpt lat="45.74442" lon="6.74549">
        <ele>2543</ele>
        <time>2026-07-29T08:39:14.716Z</time>
      </trkpt>
      <trkpt lat="45.74442" lon="6.74547">
        <ele>2543</ele>
        <time>2026-07-29T08:39:15.716Z</time>
      </trkpt>
      <trkpt lat="45.74442" lon="6.74544">
        <ele>2543</ele>
        <time>2026-07-29T08:39:16.716Z</time>
      </trkpt>
      <trkpt lat="45.74442" lon="6.74542">
        <ele>2543</ele>
        <time>2026-07-29T08:39:17.716Z</time>
      </trkpt>
      <trkpt lat="45.74442" lon="6.74539">
        <ele>2542</ele>
        <time>2026-07-29T08:39:18.716Z</time>
      </trkpt>
      <trkpt lat="45.74442" lon="6.74537">
        <ele>2542</ele>
        <time>2026-07-29T08:39:19.716Z</time>
      </trkpt>
      <trkpt lat="45.74443" lon="6.74534">
        <ele>2542</ele>
        <time>2026-07-29T08:39:20.716Z</time>
      </trkpt>
      <trkpt lat="45.74444" lon="6.74532">
        <ele>2541</ele>
        <time>2026-07-29T08:39:21.716Z</time>
      </trkpt>
      <trkpt lat="45.74444" lon="6.7453">
        <ele>2541</ele>
        <time>2026-07-29T08:39:22.716Z</time>
      </trkpt>
      <trkpt lat="45.74444" lon="6.74528">
        <ele>2541</ele>
        <time>2026-07-29T08:39:23.716Z</time>
      </trkpt>
      <trkpt lat="45.74444" lon="6.74527">
        <ele>2540</ele>
        <time>2026-07-29T08:39:24.716Z</time>
      </trkpt>
      <trkpt lat="45.74444" lon="6.74525">
        <ele>2540</ele>
        <time>2026-07-29T08:39:25.716Z</time>
      </trkpt>
      <trkpt lat="45.74444" lon="6.74523">
        <ele>2540</ele>
        <time>2026-07-29T08:39:26.716Z</time>
      </trkpt>
      <trkpt lat="45.74444" lon="6.74522">
        <ele>2539</ele>
        <time>2026-07-29T08:39:27.716Z</time>
      </trkpt>
      <trkpt lat="45.74442" lon="6.7452">
        <ele>2539</ele>
        <time>2026-07-29T08:39:28.716Z</time>
      </trkpt>
      <trkpt lat="45.74442" lon="6.74518">
        <ele>2540</ele>
        <time>2026-07-29T08:39:29.716Z</time>
      </trkpt>
      <trkpt lat="45.74441" lon="6.74517">
        <ele>2540</ele>
        <time>2026-07-29T08:39:30.716Z</time>
      </trkpt>
      <trkpt lat="45.7444" lon="6.74515">
        <ele>2541</ele>
        <time>2026-07-29T08:39:31.716Z</time>
      </trkpt>
      <trkpt lat="45.7444" lon="6.74513">
        <ele>2542</ele>
        <time>2026-07-29T08:39:32.716Z</time>
      </trkpt>
      <trkpt lat="45.74439" lon="6.74511">
        <ele>2543</ele>
        <time>2026-07-29T08:39:33.716Z</time>
      </trkpt>
      <trkpt lat="45.74439" lon="6.74509">
        <ele>2543</ele>
        <time>2026-07-29T08:39:34.716Z</time>
      </trkpt>
      <trkpt lat="45.74438" lon="6.74507">
        <ele>2544</ele>
        <time>2026-07-29T08:39:35.716Z</time>
      </trkpt>
      <trkpt lat="45.74438" lon="6.74505">
        <ele>2544</ele>
        <time>2026-07-29T08:39:36.716Z</time>
      </trkpt>
      <trkpt lat="45.74438" lon="6.74503">
        <ele>2545</ele>
        <time>2026-07-29T08:39:37.716Z</time>
      </trkpt>
      <trkpt lat="45.74438" lon="6.745">
        <ele>2545</ele>
        <time>2026-07-29T08:39:38.716Z</time>
      </trkpt>
      <trkpt lat="45.74438" lon="6.74498">
        <ele>2545</ele>
        <time>2026-07-29T08:39:39.716Z</time>
      </trkpt>
      <trkpt lat="45.74438" lon="6.74495">
        <ele>2546</ele>
        <time>2026-07-29T08:39:40.716Z</time>
      </trkpt>
      <trkpt lat="45.74438" lon="6.74494">
        <ele>2546</ele>
        <time>2026-07-29T08:39:41.716Z</time>
      </trkpt>
      <trkpt lat="45.74438" lon="6.74492">
        <ele>2546</ele>
        <time>2026-07-29T08:39:42.716Z</time>
      </trkpt>
      <trkpt lat="45.74439" lon="6.74491">
        <ele>2546</ele>
        <time>2026-07-29T08:39:43.716Z</time>
      </trkpt>
      <trkpt lat="45.74439" lon="6.7449">
        <ele>2545</ele>
        <time>2026-07-29T08:39:44.716Z</time>
      </trkpt>
      <trkpt lat="45.74438" lon="6.74489">
        <ele>2545</ele>
        <time>2026-07-29T08:39:45.716Z</time>
      </trkpt>
      <trkpt lat="45.74438" lon="6.74488">
        <ele>2545</ele>
        <time>2026-07-29T08:39:46.716Z</time>
      </trkpt>
      <trkpt lat="45.74438" lon="6.74486">
        <ele>2544</ele>
        <time>2026-07-29T08:39:47.716Z</time>
      </trkpt>
      <trkpt lat="45.74439" lon="6.74485">
        <ele>2544</ele>
        <time>2026-07-29T08:39:48.716Z</time>
      </trkpt>
      <trkpt lat="45.74439" lon="6.74484">
        <ele>2544</ele>
        <time>2026-07-29T08:39:49.716Z</time>
      </trkpt>
      <trkpt lat="45.7444" lon="6.74483">
        <ele>2544</ele>
        <time>2026-07-29T08:39:50.716Z</time>
      </trkpt>
      <trkpt lat="45.7444" lon="6.74481">
        <ele>2544</ele>
        <time>2026-07-29T08:39:51.716Z</time>
      </trkpt>
      <trkpt lat="45.74441" lon="6.7448">
        <ele>2543</ele>
        <time>2026-07-29T08:39:52.716Z</time>
      </trkpt>
      <trkpt lat="45.74441" lon="6.74479">
        <ele>2543</ele>
        <time>2026-07-29T08:39:53.716Z</time>
      </trkpt>
      <trkpt lat="45.74442" lon="6.74478">
        <ele>2543</ele>
        <time>2026-07-29T08:39:54.716Z</time>
      </trkpt>
      <trkpt lat="45.74442" lon="6.74477">
        <ele>2543</ele>
        <time>2026-07-29T08:39:55.716Z</time>
      </trkpt>
      <trkpt lat="45.74442" lon="6.74475">
        <ele>2543</ele>
        <time>2026-07-29T08:39:56.716Z</time>
      </trkpt>
      <trkpt lat="45.74441" lon="6.74474">
        <ele>2543</ele>
        <time>2026-07-29T08:39:57.716Z</time>
      </trkpt>
      <trkpt lat="45.74441" lon="6.74472">
        <ele>2543</ele>
        <time>2026-07-29T08:39:58.716Z</time>
      </trkpt>
      <trkpt lat="45.74442" lon="6.7447">
        <ele>2543</ele>
        <time>2026-07-29T08:39:59.716Z</time>
      </trkpt>
      <trkpt lat="45.74442" lon="6.74468">
        <ele>2543</ele>
        <time>2026-07-29T08:40:00.716Z</time>
      </trkpt>
      <trkpt lat="45.74442" lon="6.74467">
        <ele>2542</ele>
        <time>2026-07-29T08:40:01.716Z</time>
      </trkpt>
      <trkpt lat="45.74443" lon="6.74465">
        <ele>2542</ele>
        <time>2026-07-29T08:40:02.716Z</time>
      </trkpt>
      <trkpt lat="45.74443" lon="6.74464">
        <ele>2543</ele>
        <time>2026-07-29T08:40:03.716Z</time>
      </trkpt>
      <trkpt lat="45.74444" lon="6.74462">
        <ele>2543</ele>
        <time>2026-07-29T08:40:04.716Z</time>
      </trkpt>
      <trkpt lat="45.74445" lon="6.74461">
        <ele>2543</ele>
        <time>2026-07-29T08:40:05.716Z</time>
      </trkpt>
      <trkpt lat="45.74445" lon="6.74459">
        <ele>2542</ele>
        <time>2026-07-29T08:40:06.716Z</time>
      </trkpt>
      <trkpt lat="45.74446" lon="6.74457">
        <ele>2541</ele>
        <time>2026-07-29T08:40:07.716Z</time>
      </trkpt>
      <trkpt lat="45.74446" lon="6.74455">
        <ele>2540</ele>
        <time>2026-07-29T08:40:08.716Z</time>
      </trkpt>
      <trkpt lat="45.74447" lon="6.74453">
        <ele>2540</ele>
        <time>2026-07-29T08:40:09.716Z</time>
      </trkpt>
      <trkpt lat="45.74448" lon="6.74452">
        <ele>2539</ele>
        <time>2026-07-29T08:40:10.716Z</time>
      </trkpt>
      <trkpt lat="45.74448" lon="6.7445">
        <ele>2539</ele>
        <time>2026-07-29T08:40:11.716Z</time>
      </trkpt>
      <trkpt lat="45.74447" lon="6.74449">
        <ele>2539</ele>
        <time>2026-07-29T08:40:12.716Z</time>
      </trkpt>
      <trkpt lat="45.74447" lon="6.74446">
        <ele>2539</ele>
        <time>2026-07-29T08:40:13.716Z</time>
      </trkpt>
      <trkpt lat="45.74447" lon="6.74445">
        <ele>2539</ele>
        <time>2026-07-29T08:40:14.716Z</time>
      </trkpt>
      <trkpt lat="45.74447" lon="6.74443">
        <ele>2539</ele>
        <time>2026-07-29T08:40:15.716Z</time>
      </trkpt>
      <trkpt lat="45.74447" lon="6.74441">
        <ele>2540</ele>
        <time>2026-07-29T08:40:16.716Z</time>
      </trkpt>
      <trkpt lat="45.74446" lon="6.74439">
        <ele>2540</ele>
        <time>2026-07-29T08:40:17.716Z</time>
      </trkpt>
      <trkpt lat="45.74446" lon="6.74438">
        <ele>2540</ele>
        <time>2026-07-29T08:40:18.716Z</time>
      </trkpt>
      <trkpt lat="45.74446" lon="6.74437">
        <ele>2541</ele>
        <time>2026-07-29T08:40:19.716Z</time>
      </trkpt>
      <trkpt lat="45.74446" lon="6.74435">
        <ele>2541</ele>
        <time>2026-07-29T08:40:20.716Z</time>
      </trkpt>
      <trkpt lat="45.74446" lon="6.74434">
        <ele>2542</ele>
        <time>2026-07-29T08:40:21.716Z</time>
      </trkpt>
      <trkpt lat="45.74445" lon="6.74433">
        <ele>2542</ele>
        <time>2026-07-29T08:40:22.716Z</time>
      </trkpt>
      <trkpt lat="45.74445" lon="6.74432">
        <ele>2543</ele>
        <time>2026-07-29T08:40:23.716Z</time>
      </trkpt>
      <trkpt lat="45.74445" lon="6.74431">
        <ele>2543</ele>
        <time>2026-07-29T08:40:24.716Z</time>
      </trkpt>
      <trkpt lat="45.74445" lon="6.7443">
        <ele>2544</ele>
        <time>2026-07-29T08:40:25.716Z</time>
      </trkpt>
      <trkpt lat="45.74444" lon="6.74429">
        <ele>2545</ele>
        <time>2026-07-29T08:40:26.716Z</time>
      </trkpt>
      <trkpt lat="45.74444" lon="6.74428">
        <ele>2546</ele>
        <time>2026-07-29T08:40:27.716Z</time>
      </trkpt>
      <trkpt lat="45.74444" lon="6.74427">
        <ele>2547</ele>
        <time>2026-07-29T08:40:28.716Z</time>
      </trkpt>
      <trkpt lat="45.74444" lon="6.74426">
        <ele>2547</ele>
        <time>2026-07-29T08:40:29.716Z</time>
      </trkpt>
      <trkpt lat="45.74444" lon="6.74425">
        <ele>2547</ele>
        <time>2026-07-29T08:40:30.716Z</time>
      </trkpt>
      <trkpt lat="45.74444" lon="6.74424">
        <ele>2546</ele>
        <time>2026-07-29T08:40:31.716Z</time>
      </trkpt>
      <trkpt lat="45.74443" lon="6.74423">
        <ele>2546</ele>
        <time>2026-07-29T08:40:32.716Z</time>
      </trkpt>
      <trkpt lat="45.74443" lon="6.74421">
        <ele>2546</ele>
        <time>2026-07-29T08:40:33.716Z</time>
      </trkpt>
      <trkpt lat="45.74443" lon="6.7442">
        <ele>2546</ele>
        <time>2026-07-29T08:40:34.716Z</time>
      </trkpt>
      <trkpt lat="45.74443" lon="6.74419">
        <ele>2546</ele>
        <time>2026-07-29T08:40:35.716Z</time>
      </trkpt>
      <trkpt lat="45.74443" lon="6.74419">
        <ele>2545</ele>
        <time>2026-07-29T08:40:36.716Z</time>
      </trkpt>
      <trkpt lat="45.74443" lon="6.74418">
        <ele>2545</ele>
        <time>2026-07-29T08:40:37.716Z</time>
      </trkpt>
      <trkpt lat="45.74442" lon="6.74417">
        <ele>2545</ele>
        <time>2026-07-29T08:40:38.716Z</time>
      </trkpt>
      <trkpt lat="45.74442" lon="6.74415">
        <ele>2545</ele>
        <time>2026-07-29T08:40:39.716Z</time>
      </trkpt>
      <trkpt lat="45.74442" lon="6.74414">
        <ele>2545</ele>
        <time>2026-07-29T08:40:40.716Z</time>
      </trkpt>
      <trkpt lat="45.74442" lon="6.74413">
        <ele>2545</ele>
        <time>2026-07-29T08:40:41.716Z</time>
      </trkpt>
      <trkpt lat="45.74442" lon="6.74412">
        <ele>2544</ele>
        <time>2026-07-29T08:40:42.716Z</time>
      </trkpt>
      <trkpt lat="45.74442" lon="6.74411">
        <ele>2544</ele>
        <time>2026-07-29T08:40:43.716Z</time>
      </trkpt>
      <trkpt lat="45.74442" lon="6.74409">
        <ele>2544</ele>
        <time>2026-07-29T08:40:44.716Z</time>
      </trkpt>
      <trkpt lat="45.74442" lon="6.74408">
        <ele>2544</ele>
        <time>2026-07-29T08:40:45.716Z</time>
      </trkpt>
      <trkpt lat="45.74442" lon="6.74406">
        <ele>2543</ele>
        <time>2026-07-29T08:40:46.716Z</time>
      </trkpt>
      <trkpt lat="45.74442" lon="6.74405">
        <ele>2543</ele>
        <time>2026-07-29T08:40:47.716Z</time>
      </trkpt>
      <trkpt lat="45.74441" lon="6.74404">
        <ele>2543</ele>
        <time>2026-07-29T08:40:48.716Z</time>
      </trkpt>
      <trkpt lat="45.74441" lon="6.74402">
        <ele>2543</ele>
        <time>2026-07-29T08:40:49.716Z</time>
      </trkpt>
      <trkpt lat="45.74442" lon="6.74401">
        <ele>2543</ele>
        <time>2026-07-29T08:40:50.716Z</time>
      </trkpt>
      <trkpt lat="45.74442" lon="6.74399">
        <ele>2543</ele>
        <time>2026-07-29T08:40:51.716Z</time>
      </trkpt>
      <trkpt lat="45.74442" lon="6.74398">
        <ele>2542</ele>
        <time>2026-07-29T08:40:52.716Z</time>
      </trkpt>
      <trkpt lat="45.74442" lon="6.74396">
        <ele>2542</ele>
        <time>2026-07-29T08:40:53.716Z</time>
      </trkpt>
      <trkpt lat="45.74442" lon="6.74394">
        <ele>2542</ele>
        <time>2026-07-29T08:40:54.716Z</time>
      </trkpt>
      <trkpt lat="45.74442" lon="6.74393">
        <ele>2542</ele>
        <time>2026-07-29T08:40:55.716Z</time>
      </trkpt>
      <trkpt lat="45.74442" lon="6.74391">
        <ele>2542</ele>
        <time>2026-07-29T08:40:56.716Z</time>
      </trkpt>
      <trkpt lat="45.74442" lon="6.74389">
        <ele>2542</ele>
        <time>2026-07-29T08:40:57.716Z</time>
      </trkpt>
      <trkpt lat="45.74442" lon="6.74387">
        <ele>2542</ele>
        <time>2026-07-29T08:40:58.716Z</time>
      </trkpt>
      <trkpt lat="45.74443" lon="6.74386">
        <ele>2542</ele>
        <time>2026-07-29T08:40:59.716Z</time>
      </trkpt>
      <trkpt lat="45.74443" lon="6.74384">
        <ele>2541</ele>
        <time>2026-07-29T08:41:00.716Z</time>
      </trkpt>
      <trkpt lat="45.74443" lon="6.74383">
        <ele>2541</ele>
        <time>2026-07-29T08:41:01.716Z</time>
      </trkpt>
      <trkpt lat="45.74443" lon="6.74381">
        <ele>2541</ele>
        <time>2026-07-29T08:41:02.716Z</time>
      </trkpt>
      <trkpt lat="45.74443" lon="6.7438">
        <ele>2541</ele>
        <time>2026-07-29T08:41:03.716Z</time>
      </trkpt>
      <trkpt lat="45.74442" lon="6.7438">
        <ele>2541</ele>
        <time>2026-07-29T08:41:04.716Z</time>
      </trkpt>
      <trkpt lat="45.74441" lon="6.7438">
        <ele>2541</ele>
        <time>2026-07-29T08:41:05.716Z</time>
      </trkpt>
      <trkpt lat="45.74441" lon="6.74382">
        <ele>2541</ele>
        <time>2026-07-29T08:41:06.716Z</time>
      </trkpt>
      <trkpt lat="45.7444" lon="6.74383">
        <ele>2541</ele>
        <time>2026-07-29T08:41:07.716Z</time>
      </trkpt>
      <trkpt lat="45.74439" lon="6.74384">
        <ele>2541</ele>
        <time>2026-07-29T08:41:08.716Z</time>
      </trkpt>
      <trkpt lat="45.74439" lon="6.74385">
        <ele>2540</ele>
        <time>2026-07-29T08:41:09.716Z</time>
      </trkpt>
      <trkpt lat="45.74439" lon="6.74386">
        <ele>2540</ele>
        <time>2026-07-29T08:41:10.716Z</time>
      </trkpt>
      <trkpt lat="45.74438" lon="6.74387">
        <ele>2540</ele>
        <time>2026-07-29T08:41:11.716Z</time>
      </trkpt>
      <trkpt lat="45.74438" lon="6.74387">
        <ele>2540</ele>
        <time>2026-07-29T08:41:12.716Z</time>
      </trkpt>
      <trkpt lat="45.74437" lon="6.74387">
        <ele>2540</ele>
        <time>2026-07-29T08:41:13.716Z</time>
      </trkpt>
      <trkpt lat="45.74437" lon="6.74387">
        <ele>2540</ele>
        <time>2026-07-29T08:41:14.716Z</time>
      </trkpt>
      <trkpt lat="45.74436" lon="6.74386">
        <ele>2540</ele>
        <time>2026-07-29T08:41:15.716Z</time>
      </trkpt>
      <trkpt lat="45.74435" lon="6.74384">
        <ele>2540</ele>
        <time>2026-07-29T08:41:16.716Z</time>
      </trkpt>
      <trkpt lat="45.74435" lon="6.74383">
        <ele>2540</ele>
        <time>2026-07-29T08:41:17.716Z</time>
      </trkpt>
      <trkpt lat="45.74435" lon="6.74382">
        <ele>2540</ele>
        <time>2026-07-29T08:41:18.716Z</time>
      </trkpt>
      <trkpt lat="45.74435" lon="6.74381">
        <ele>2540</ele>
        <time>2026-07-29T08:41:19.716Z</time>
      </trkpt>
      <trkpt lat="45.74435" lon="6.7438">
        <ele>2540</ele>
        <time>2026-07-29T08:41:20.716Z</time>
      </trkpt>
      <trkpt lat="45.74434" lon="6.74378">
        <ele>2539</ele>
        <time>2026-07-29T08:41:21.716Z</time>
      </trkpt>
      <trkpt lat="45.74435" lon="6.74376">
        <ele>2539</ele>
        <time>2026-07-29T08:41:22.716Z</time>
      </trkpt>
      <trkpt lat="45.74435" lon="6.74374">
        <ele>2538</ele>
        <time>2026-07-29T08:41:23.716Z</time>
      </trkpt>
      <trkpt lat="45.74435" lon="6.74372">
        <ele>2538</ele>
        <time>2026-07-29T08:41:24.716Z</time>
      </trkpt>
      <trkpt lat="45.74436" lon="6.74371">
        <ele>2537</ele>
        <time>2026-07-29T08:41:25.716Z</time>
      </trkpt>
      <trkpt lat="45.74436" lon="6.7437">
        <ele>2537</ele>
        <time>2026-07-29T08:41:26.716Z</time>
      </trkpt>
      <trkpt lat="45.74436" lon="6.74369">
        <ele>2537</ele>
        <time>2026-07-29T08:41:27.716Z</time>
      </trkpt>
      <trkpt lat="45.74436" lon="6.74368">
        <ele>2536</ele>
        <time>2026-07-29T08:41:28.716Z</time>
      </trkpt>
      <trkpt lat="45.74436" lon="6.74366">
        <ele>2536</ele>
        <time>2026-07-29T08:41:29.716Z</time>
      </trkpt>
      <trkpt lat="45.74436" lon="6.74365">
        <ele>2535</ele>
        <time>2026-07-29T08:41:30.716Z</time>
      </trkpt>
      <trkpt lat="45.74436" lon="6.74363">
        <ele>2535</ele>
        <time>2026-07-29T08:41:31.716Z</time>
      </trkpt>
      <trkpt lat="45.74436" lon="6.74362">
        <ele>2535</ele>
        <time>2026-07-29T08:41:32.716Z</time>
      </trkpt>
      <trkpt lat="45.74437" lon="6.7436">
        <ele>2534</ele>
        <time>2026-07-29T08:41:33.716Z</time>
      </trkpt>
      <trkpt lat="45.74437" lon="6.7436">
        <ele>2534</ele>
        <time>2026-07-29T08:41:34.716Z</time>
      </trkpt>
      <trkpt lat="45.74437" lon="6.74357">
        <ele>2534</ele>
        <time>2026-07-29T08:41:35.716Z</time>
      </trkpt>
      <trkpt lat="45.74436" lon="6.74356">
        <ele>2533</ele>
        <time>2026-07-29T08:41:36.716Z</time>
      </trkpt>
      <trkpt lat="45.74436" lon="6.74355">
        <ele>2533</ele>
        <time>2026-07-29T08:41:37.716Z</time>
      </trkpt>
      <trkpt lat="45.74436" lon="6.74353">
        <ele>2533</ele>
        <time>2026-07-29T08:41:38.716Z</time>
      </trkpt>
      <trkpt lat="45.74436" lon="6.74351">
        <ele>2532</ele>
        <time>2026-07-29T08:41:39.716Z</time>
      </trkpt>
      <trkpt lat="45.74436" lon="6.7435">
        <ele>2532</ele>
        <time>2026-07-29T08:41:40.716Z</time>
      </trkpt>
      <trkpt lat="45.74436" lon="6.74348">
        <ele>2533</ele>
        <time>2026-07-29T08:41:41.716Z</time>
      </trkpt>
      <trkpt lat="45.74436" lon="6.74346">
        <ele>2533</ele>
        <time>2026-07-29T08:41:42.716Z</time>
      </trkpt>
      <trkpt lat="45.74435" lon="6.74344">
        <ele>2533</ele>
        <time>2026-07-29T08:41:43.716Z</time>
      </trkpt>
      <trkpt lat="45.74435" lon="6.74342">
        <ele>2533</ele>
        <time>2026-07-29T08:41:44.716Z</time>
      </trkpt>
      <trkpt lat="45.74436" lon="6.7434">
        <ele>2532</ele>
        <time>2026-07-29T08:41:45.716Z</time>
      </trkpt>
      <trkpt lat="45.74436" lon="6.74338">
        <ele>2532</ele>
        <time>2026-07-29T08:41:46.716Z</time>
      </trkpt>
      <trkpt lat="45.74436" lon="6.74337">
        <ele>2532</ele>
        <time>2026-07-29T08:41:47.716Z</time>
      </trkpt>
      <trkpt lat="45.74436" lon="6.74335">
        <ele>2531</ele>
        <time>2026-07-29T08:41:48.716Z</time>
      </trkpt>
      <trkpt lat="45.74436" lon="6.74334">
        <ele>2531</ele>
        <time>2026-07-29T08:41:49.716Z</time>
      </trkpt>
      <trkpt lat="45.74435" lon="6.74332">
        <ele>2531</ele>
        <time>2026-07-29T08:41:50.716Z</time>
      </trkpt>
      <trkpt lat="45.74435" lon="6.7433">
        <ele>2531</ele>
        <time>2026-07-29T08:41:51.716Z</time>
      </trkpt>
      <trkpt lat="45.74435" lon="6.74328">
        <ele>2531</ele>
        <time>2026-07-29T08:41:52.716Z</time>
      </trkpt>
      <trkpt lat="45.74434" lon="6.74327">
        <ele>2531</ele>
        <time>2026-07-29T08:41:53.716Z</time>
      </trkpt>
      <trkpt lat="45.74434" lon="6.74325">
        <ele>2532</ele>
        <time>2026-07-29T08:41:54.716Z</time>
      </trkpt>
      <trkpt lat="45.74434" lon="6.74323">
        <ele>2532</ele>
        <time>2026-07-29T08:41:55.716Z</time>
      </trkpt>
      <trkpt lat="45.74433" lon="6.74321">
        <ele>2532</ele>
        <time>2026-07-29T08:41:56.716Z</time>
      </trkpt>
      <trkpt lat="45.74433" lon="6.74319">
        <ele>2531</ele>
        <time>2026-07-29T08:41:57.716Z</time>
      </trkpt>
      <trkpt lat="45.74433" lon="6.74317">
        <ele>2531</ele>
        <time>2026-07-29T08:41:58.716Z</time>
      </trkpt>
      <trkpt lat="45.74433" lon="6.74315">
        <ele>2531</ele>
        <time>2026-07-29T08:41:59.716Z</time>
      </trkpt>
      <trkpt lat="45.74433" lon="6.74313">
        <ele>2531</ele>
        <time>2026-07-29T08:42:00.716Z</time>
      </trkpt>
      <trkpt lat="45.74433" lon="6.74312">
        <ele>2530</ele>
        <time>2026-07-29T08:42:01.716Z</time>
      </trkpt>
      <trkpt lat="45.74433" lon="6.7431">
        <ele>2530</ele>
        <time>2026-07-29T08:42:02.716Z</time>
      </trkpt>
      <trkpt lat="45.74433" lon="6.74308">
        <ele>2530</ele>
        <time>2026-07-29T08:42:03.716Z</time>
      </trkpt>
      <trkpt lat="45.74433" lon="6.74307">
        <ele>2529</ele>
        <time>2026-07-29T08:42:04.716Z</time>
      </trkpt>
      <trkpt lat="45.74433" lon="6.74305">
        <ele>2529</ele>
        <time>2026-07-29T08:42:05.716Z</time>
      </trkpt>
      <trkpt lat="45.74433" lon="6.74303">
        <ele>2529</ele>
        <time>2026-07-29T08:42:06.716Z</time>
      </trkpt>
      <trkpt lat="45.74433" lon="6.74301">
        <ele>2529</ele>
        <time>2026-07-29T08:42:07.716Z</time>
      </trkpt>
      <trkpt lat="45.74433" lon="6.74299">
        <ele>2529</ele>
        <time>2026-07-29T08:42:08.716Z</time>
      </trkpt>
      <trkpt lat="45.74433" lon="6.74298">
        <ele>2529</ele>
        <time>2026-07-29T08:42:09.716Z</time>
      </trkpt>
      <trkpt lat="45.74433" lon="6.74296">
        <ele>2529</ele>
        <time>2026-07-29T08:42:10.716Z</time>
      </trkpt>
      <trkpt lat="45.74432" lon="6.74294">
        <ele>2529</ele>
        <time>2026-07-29T08:42:11.716Z</time>
      </trkpt>
      <trkpt lat="45.74432" lon="6.74293">
        <ele>2529</ele>
        <time>2026-07-29T08:42:12.716Z</time>
      </trkpt>
      <trkpt lat="45.74432" lon="6.74291">
        <ele>2530</ele>
        <time>2026-07-29T08:42:13.716Z</time>
      </trkpt>
      <trkpt lat="45.74432" lon="6.74289">
        <ele>2530</ele>
        <time>2026-07-29T08:42:14.716Z</time>
      </trkpt>
      <trkpt lat="45.74432" lon="6.74287">
        <ele>2530</ele>
        <time>2026-07-29T08:42:15.716Z</time>
      </trkpt>
      <trkpt lat="45.74432" lon="6.74285">
        <ele>2530</ele>
        <time>2026-07-29T08:42:16.716Z</time>
      </trkpt>
      <trkpt lat="45.74431" lon="6.74283">
        <ele>2529</ele>
        <time>2026-07-29T08:42:17.716Z</time>
      </trkpt>
      <trkpt lat="45.74431" lon="6.74282">
        <ele>2529</ele>
        <time>2026-07-29T08:42:18.716Z</time>
      </trkpt>
      <trkpt lat="45.7443" lon="6.7428">
        <ele>2529</ele>
        <time>2026-07-29T08:42:19.716Z</time>
      </trkpt>
      <trkpt lat="45.7443" lon="6.74278">
        <ele>2529</ele>
        <time>2026-07-29T08:42:20.716Z</time>
      </trkpt>
      <trkpt lat="45.7443" lon="6.74276">
        <ele>2529</ele>
        <time>2026-07-29T08:42:21.716Z</time>
      </trkpt>
      <trkpt lat="45.74429" lon="6.74274">
        <ele>2528</ele>
        <time>2026-07-29T08:42:22.716Z</time>
      </trkpt>
      <trkpt lat="45.74429" lon="6.74272">
        <ele>2528</ele>
        <time>2026-07-29T08:42:23.716Z</time>
      </trkpt>
      <trkpt lat="45.74429" lon="6.74271">
        <ele>2528</ele>
        <time>2026-07-29T08:42:24.716Z</time>
      </trkpt>
      <trkpt lat="45.7443" lon="6.74269">
        <ele>2528</ele>
        <time>2026-07-29T08:42:25.716Z</time>
      </trkpt>
      <trkpt lat="45.7443" lon="6.74268">
        <ele>2528</ele>
        <time>2026-07-29T08:42:26.716Z</time>
      </trkpt>
      <trkpt lat="45.7443" lon="6.74266">
        <ele>2528</ele>
        <time>2026-07-29T08:42:27.716Z</time>
      </trkpt>
      <trkpt lat="45.7443" lon="6.74264">
        <ele>2527</ele>
        <time>2026-07-29T08:42:28.716Z</time>
      </trkpt>
      <trkpt lat="45.7443" lon="6.74262">
        <ele>2527</ele>
        <time>2026-07-29T08:42:29.716Z</time>
      </trkpt>
      <trkpt lat="45.7443" lon="6.7426">
        <ele>2527</ele>
        <time>2026-07-29T08:42:30.716Z</time>
      </trkpt>
      <trkpt lat="45.7443" lon="6.74258">
        <ele>2527</ele>
        <time>2026-07-29T08:42:31.716Z</time>
      </trkpt>
      <trkpt lat="45.7443" lon="6.74256">
        <ele>2527</ele>
        <time>2026-07-29T08:42:32.716Z</time>
      </trkpt>
      <trkpt lat="45.7443" lon="6.74255">
        <ele>2527</ele>
        <time>2026-07-29T08:42:33.716Z</time>
      </trkpt>
      <trkpt lat="45.7443" lon="6.74252">
        <ele>2526</ele>
        <time>2026-07-29T08:42:34.716Z</time>
      </trkpt>
      <trkpt lat="45.7443" lon="6.7425">
        <ele>2526</ele>
        <time>2026-07-29T08:42:35.716Z</time>
      </trkpt>
      <trkpt lat="45.74431" lon="6.74248">
        <ele>2526</ele>
        <time>2026-07-29T08:42:36.716Z</time>
      </trkpt>
      <trkpt lat="45.74431" lon="6.74246">
        <ele>2525</ele>
        <time>2026-07-29T08:42:37.716Z</time>
      </trkpt>
      <trkpt lat="45.74432" lon="6.74244">
        <ele>2525</ele>
        <time>2026-07-29T08:42:38.716Z</time>
      </trkpt>
      <trkpt lat="45.74432" lon="6.74242">
        <ele>2525</ele>
        <time>2026-07-29T08:42:39.716Z</time>
      </trkpt>
      <trkpt lat="45.74432" lon="6.7424">
        <ele>2525</ele>
        <time>2026-07-29T08:42:40.716Z</time>
      </trkpt>
      <trkpt lat="45.74432" lon="6.74238">
        <ele>2524</ele>
        <time>2026-07-29T08:42:41.716Z</time>
      </trkpt>
      <trkpt lat="45.74432" lon="6.74237">
        <ele>2524</ele>
        <time>2026-07-29T08:42:42.716Z</time>
      </trkpt>
      <trkpt lat="45.74432" lon="6.74235">
        <ele>2524</ele>
        <time>2026-07-29T08:42:43.716Z</time>
      </trkpt>
      <trkpt lat="45.74431" lon="6.74234">
        <ele>2524</ele>
        <time>2026-07-29T08:42:44.716Z</time>
      </trkpt>
      <trkpt lat="45.74431" lon="6.74233">
        <ele>2524</ele>
        <time>2026-07-29T08:42:45.716Z</time>
      </trkpt>
      <trkpt lat="45.74432" lon="6.74231">
        <ele>2524</ele>
        <time>2026-07-29T08:42:46.716Z</time>
      </trkpt>
      <trkpt lat="45.74431" lon="6.7423">
        <ele>2524</ele>
        <time>2026-07-29T08:42:47.716Z</time>
      </trkpt>
      <trkpt lat="45.74431" lon="6.74229">
        <ele>2523</ele>
        <time>2026-07-29T08:42:48.716Z</time>
      </trkpt>
      <trkpt lat="45.74431" lon="6.74228">
        <ele>2523</ele>
        <time>2026-07-29T08:42:49.716Z</time>
      </trkpt>
      <trkpt lat="45.7443" lon="6.74227">
        <ele>2523</ele>
        <time>2026-07-29T08:42:50.716Z</time>
      </trkpt>
      <trkpt lat="45.7443" lon="6.74227">
        <ele>2523</ele>
        <time>2026-07-29T08:42:51.716Z</time>
      </trkpt>
      <trkpt lat="45.7443" lon="6.74227">
        <ele>2523</ele>
        <time>2026-07-29T08:42:52.716Z</time>
      </trkpt>
      <trkpt lat="45.7443" lon="6.74227">
        <ele>2523</ele>
        <time>2026-07-29T08:42:53.716Z</time>
      </trkpt>
      <trkpt lat="45.7443" lon="6.74226">
        <ele>2523</ele>
        <time>2026-07-29T08:42:54.716Z</time>
      </trkpt>
      <trkpt lat="45.7443" lon="6.74226">
        <ele>2522</ele>
        <time>2026-07-29T08:42:55.716Z</time>
      </trkpt>
      <trkpt lat="45.7443" lon="6.74226">
        <ele>2522</ele>
        <time>2026-07-29T08:42:56.716Z</time>
      </trkpt>
      <trkpt lat="45.74429" lon="6.74225">
        <ele>2522</ele>
        <time>2026-07-29T08:42:57.716Z</time>
      </trkpt>
      <trkpt lat="45.74429" lon="6.74225">
        <ele>2522</ele>
        <time>2026-07-29T08:42:58.716Z</time>
      </trkpt>
      <trkpt lat="45.74429" lon="6.74224">
        <ele>2522</ele>
        <time>2026-07-29T08:42:59.716Z</time>
      </trkpt>
      <trkpt lat="45.74429" lon="6.74224">
        <ele>2522</ele>
        <time>2026-07-29T08:43:00.716Z</time>
      </trkpt>
      <trkpt lat="45.74428" lon="6.74223">
        <ele>2522</ele>
        <time>2026-07-29T08:43:01.716Z</time>
      </trkpt>
      <trkpt lat="45.74428" lon="6.74222">
        <ele>2522</ele>
        <time>2026-07-29T08:43:02.716Z</time>
      </trkpt>
      <trkpt lat="45.74427" lon="6.7422">
        <ele>2522</ele>
        <time>2026-07-29T08:43:03.716Z</time>
      </trkpt>
      <trkpt lat="45.74427" lon="6.74219">
        <ele>2521</ele>
        <time>2026-07-29T08:43:04.716Z</time>
      </trkpt>
      <trkpt lat="45.74427" lon="6.74217">
        <ele>2521</ele>
        <time>2026-07-29T08:43:05.716Z</time>
      </trkpt>
      <trkpt lat="45.74427" lon="6.74216">
        <ele>2521</ele>
        <time>2026-07-29T08:43:06.716Z</time>
      </trkpt>
      <trkpt lat="45.74427" lon="6.74214">
        <ele>2521</ele>
        <time>2026-07-29T08:43:07.716Z</time>
      </trkpt>
      <trkpt lat="45.74426" lon="6.74213">
        <ele>2521</ele>
        <time>2026-07-29T08:43:08.716Z</time>
      </trkpt>
      <trkpt lat="45.74426" lon="6.74211">
        <ele>2520</ele>
        <time>2026-07-29T08:43:09.716Z</time>
      </trkpt>
      <trkpt lat="45.74426" lon="6.7421">
        <ele>2520</ele>
        <time>2026-07-29T08:43:10.716Z</time>
      </trkpt>
      <trkpt lat="45.74426" lon="6.7421">
        <ele>2519</ele>
        <time>2026-07-29T08:43:11.716Z</time>
      </trkpt>
      <trkpt lat="45.74426" lon="6.74209">
        <ele>2519</ele>
        <time>2026-07-29T08:43:12.716Z</time>
      </trkpt>
      <trkpt lat="45.74426" lon="6.74208">
        <ele>2518</ele>
        <time>2026-07-29T08:43:13.716Z</time>
      </trkpt>
      <trkpt lat="45.74426" lon="6.74207">
        <ele>2518</ele>
        <time>2026-07-29T08:43:14.716Z</time>
      </trkpt>
      <trkpt lat="45.74426" lon="6.74205">
        <ele>2518</ele>
        <time>2026-07-29T08:43:15.716Z</time>
      </trkpt>
      <trkpt lat="45.74425" lon="6.74203">
        <ele>2518</ele>
        <time>2026-07-29T08:43:16.716Z</time>
      </trkpt>
      <trkpt lat="45.74425" lon="6.74201">
        <ele>2518</ele>
        <time>2026-07-29T08:43:17.716Z</time>
      </trkpt>
      <trkpt lat="45.74425" lon="6.74199">
        <ele>2518</ele>
        <time>2026-07-29T08:43:18.716Z</time>
      </trkpt>
      <trkpt lat="45.74425" lon="6.74197">
        <ele>2517</ele>
        <time>2026-07-29T08:43:19.716Z</time>
      </trkpt>
      <trkpt lat="45.74424" lon="6.74196">
        <ele>2517</ele>
        <time>2026-07-29T08:43:20.716Z</time>
      </trkpt>
      <trkpt lat="45.74424" lon="6.74195">
        <ele>2517</ele>
        <time>2026-07-29T08:43:21.716Z</time>
      </trkpt>
      <trkpt lat="45.74424" lon="6.74193">
        <ele>2517</ele>
        <time>2026-07-29T08:43:22.716Z</time>
      </trkpt>
      <trkpt lat="45.74424" lon="6.74192">
        <ele>2516</ele>
        <time>2026-07-29T08:43:23.716Z</time>
      </trkpt>
      <trkpt lat="45.74424" lon="6.7419">
        <ele>2516</ele>
        <time>2026-07-29T08:43:24.716Z</time>
      </trkpt>
      <trkpt lat="45.74424" lon="6.74189">
        <ele>2516</ele>
        <time>2026-07-29T08:43:25.716Z</time>
      </trkpt>
      <trkpt lat="45.74424" lon="6.74188">
        <ele>2515</ele>
        <time>2026-07-29T08:43:26.716Z</time>
      </trkpt>
      <trkpt lat="45.74424" lon="6.74187">
        <ele>2515</ele>
        <time>2026-07-29T08:43:27.716Z</time>
      </trkpt>
      <trkpt lat="45.74424" lon="6.74185">
        <ele>2515</ele>
        <time>2026-07-29T08:43:28.716Z</time>
      </trkpt>
      <trkpt lat="45.74424" lon="6.74183">
        <ele>2515</ele>
        <time>2026-07-29T08:43:29.716Z</time>
      </trkpt>
      <trkpt lat="45.74424" lon="6.74182">
        <ele>2515</ele>
        <time>2026-07-29T08:43:30.716Z</time>
      </trkpt>
      <trkpt lat="45.74424" lon="6.74181">
        <ele>2515</ele>
        <time>2026-07-29T08:43:31.716Z</time>
      </trkpt>
      <trkpt lat="45.74424" lon="6.74179">
        <ele>2515</ele>
        <time>2026-07-29T08:43:32.716Z</time>
      </trkpt>
      <trkpt lat="45.74423" lon="6.74178">
        <ele>2515</ele>
        <time>2026-07-29T08:43:33.716Z</time>
      </trkpt>
      <trkpt lat="45.74423" lon="6.74177">
        <ele>2516</ele>
        <time>2026-07-29T08:43:34.716Z</time>
      </trkpt>
      <trkpt lat="45.74423" lon="6.74175">
        <ele>2516</ele>
        <time>2026-07-29T08:43:35.716Z</time>
      </trkpt>
      <trkpt lat="45.74423" lon="6.74173">
        <ele>2517</ele>
        <time>2026-07-29T08:43:36.716Z</time>
      </trkpt>
      <trkpt lat="45.74422" lon="6.74172">
        <ele>2517</ele>
        <time>2026-07-29T08:43:37.716Z</time>
      </trkpt>
      <trkpt lat="45.74422" lon="6.7417">
        <ele>2517</ele>
        <time>2026-07-29T08:43:38.717Z</time>
      </trkpt>
      <trkpt lat="45.74421" lon="6.74168">
        <ele>2517</ele>
        <time>2026-07-29T08:43:39.716Z</time>
      </trkpt>
      <trkpt lat="45.7442" lon="6.74166">
        <ele>2517</ele>
        <time>2026-07-29T08:43:40.716Z</time>
      </trkpt>
      <trkpt lat="45.7442" lon="6.74164">
        <ele>2517</ele>
        <time>2026-07-29T08:43:41.716Z</time>
      </trkpt>
      <trkpt lat="45.74419" lon="6.74163">
        <ele>2517</ele>
        <time>2026-07-29T08:43:42.716Z</time>
      </trkpt>
      <trkpt lat="45.74419" lon="6.74161">
        <ele>2517</ele>
        <time>2026-07-29T08:43:43.716Z</time>
      </trkpt>
      <trkpt lat="45.74418" lon="6.7416">
        <ele>2517</ele>
        <time>2026-07-29T08:43:44.716Z</time>
      </trkpt>
      <trkpt lat="45.74417" lon="6.74159">
        <ele>2517</ele>
        <time>2026-07-29T08:43:45.716Z</time>
      </trkpt>
      <trkpt lat="45.74417" lon="6.74158">
        <ele>2517</ele>
        <time>2026-07-29T08:43:46.716Z</time>
      </trkpt>
      <trkpt lat="45.74416" lon="6.74157">
        <ele>2517</ele>
        <time>2026-07-29T08:43:47.716Z</time>
      </trkpt>
      <trkpt lat="45.74415" lon="6.74156">
        <ele>2517</ele>
        <time>2026-07-29T08:43:48.716Z</time>
      </trkpt>
      <trkpt lat="45.74414" lon="6.74155">
        <ele>2517</ele>
        <time>2026-07-29T08:43:49.716Z</time>
      </trkpt>
      <trkpt lat="45.74414" lon="6.74155">
        <ele>2517</ele>
        <time>2026-07-29T08:43:50.716Z</time>
      </trkpt>
      <trkpt lat="45.74412" lon="6.74154">
        <ele>2517</ele>
        <time>2026-07-29T08:43:51.716Z</time>
      </trkpt>
      <trkpt lat="45.74412" lon="6.74153">
        <ele>2517</ele>
        <time>2026-07-29T08:43:52.716Z</time>
      </trkpt>
      <trkpt lat="45.74411" lon="6.74152">
        <ele>2517</ele>
        <time>2026-07-29T08:43:53.716Z</time>
      </trkpt>
      <trkpt lat="45.74409" lon="6.74151">
        <ele>2517</ele>
        <time>2026-07-29T08:43:54.716Z</time>
      </trkpt>
      <trkpt lat="45.74408" lon="6.74151">
        <ele>2517</ele>
        <time>2026-07-29T08:43:55.716Z</time>
      </trkpt>
      <trkpt lat="45.74407" lon="6.7415">
        <ele>2518</ele>
        <time>2026-07-29T08:43:56.716Z</time>
      </trkpt>
      <trkpt lat="45.74406" lon="6.7415">
        <ele>2518</ele>
        <time>2026-07-29T08:43:57.716Z</time>
      </trkpt>
      <trkpt lat="45.74405" lon="6.7415">
        <ele>2518</ele>
        <time>2026-07-29T08:43:58.716Z</time>
      </trkpt>
      <trkpt lat="45.74404" lon="6.74149">
        <ele>2518</ele>
        <time>2026-07-29T08:43:59.716Z</time>
      </trkpt>
      <trkpt lat="45.74403" lon="6.74148">
        <ele>2518</ele>
        <time>2026-07-29T08:44:00.716Z</time>
      </trkpt>
      <trkpt lat="45.74402" lon="6.74147">
        <ele>2518</ele>
        <time>2026-07-29T08:44:01.716Z</time>
      </trkpt>
      <trkpt lat="45.74401" lon="6.74146">
        <ele>2518</ele>
        <time>2026-07-29T08:44:02.716Z</time>
      </trkpt>
      <trkpt lat="45.74399" lon="6.74144">
        <ele>2518</ele>
        <time>2026-07-29T08:44:03.716Z</time>
      </trkpt>
      <trkpt lat="45.74399" lon="6.74143">
        <ele>2518</ele>
        <time>2026-07-29T08:44:04.716Z</time>
      </trkpt>
      <trkpt lat="45.74398" lon="6.74141">
        <ele>2518</ele>
        <time>2026-07-29T08:44:05.716Z</time>
      </trkpt>
      <trkpt lat="45.74398" lon="6.7414">
        <ele>2518</ele>
        <time>2026-07-29T08:44:06.716Z</time>
      </trkpt>
      <trkpt lat="45.74397" lon="6.74139">
        <ele>2518</ele>
        <time>2026-07-29T08:44:07.716Z</time>
      </trkpt>
      <trkpt lat="45.74396" lon="6.74137">
        <ele>2518</ele>
        <time>2026-07-29T08:44:08.716Z</time>
      </trkpt>
      <trkpt lat="45.74394" lon="6.74137">
        <ele>2519</ele>
        <time>2026-07-29T08:44:09.716Z</time>
      </trkpt>
      <trkpt lat="45.74393" lon="6.74135">
        <ele>2519</ele>
        <time>2026-07-29T08:44:10.716Z</time>
      </trkpt>
      <trkpt lat="45.74392" lon="6.74133">
        <ele>2519</ele>
        <time>2026-07-29T08:44:11.716Z</time>
      </trkpt>
      <trkpt lat="45.74391" lon="6.74132">
        <ele>2519</ele>
        <time>2026-07-29T08:44:12.716Z</time>
      </trkpt>
      <trkpt lat="45.7439" lon="6.74131">
        <ele>2519</ele>
        <time>2026-07-29T08:44:13.716Z</time>
      </trkpt>
      <trkpt lat="45.74389" lon="6.74129">
        <ele>2518</ele>
        <time>2026-07-29T08:44:14.716Z</time>
      </trkpt>
      <trkpt lat="45.74388" lon="6.74128">
        <ele>2518</ele>
        <time>2026-07-29T08:44:15.716Z</time>
      </trkpt>
      <trkpt lat="45.74388" lon="6.74127">
        <ele>2518</ele>
        <time>2026-07-29T08:44:16.716Z</time>
      </trkpt>
      <trkpt lat="45.74387" lon="6.74126">
        <ele>2518</ele>
        <time>2026-07-29T08:44:17.716Z</time>
      </trkpt>
      <trkpt lat="45.74387" lon="6.74125">
        <ele>2517</ele>
        <time>2026-07-29T08:44:18.716Z</time>
      </trkpt>
      <trkpt lat="45.74387" lon="6.74123">
        <ele>2517</ele>
        <time>2026-07-29T08:44:19.716Z</time>
      </trkpt>
      <trkpt lat="45.74386" lon="6.74122">
        <ele>2516</ele>
        <time>2026-07-29T08:44:20.716Z</time>
      </trkpt>
      <trkpt lat="45.74387" lon="6.74121">
        <ele>2516</ele>
        <time>2026-07-29T08:44:21.716Z</time>
      </trkpt>
      <trkpt lat="45.74387" lon="6.7412">
        <ele>2516</ele>
        <time>2026-07-29T08:44:22.716Z</time>
      </trkpt>
      <trkpt lat="45.74386" lon="6.74119">
        <ele>2516</ele>
        <time>2026-07-29T08:44:23.716Z</time>
      </trkpt>
      <trkpt lat="45.74386" lon="6.74118">
        <ele>2516</ele>
        <time>2026-07-29T08:44:24.716Z</time>
      </trkpt>
      <trkpt lat="45.74386" lon="6.74117">
        <ele>2516</ele>
        <time>2026-07-29T08:44:25.716Z</time>
      </trkpt>
      <trkpt lat="45.74386" lon="6.74116">
        <ele>2516</ele>
        <time>2026-07-29T08:44:26.716Z</time>
      </trkpt>
      <trkpt lat="45.74385" lon="6.74116">
        <ele>2516</ele>
        <time>2026-07-29T08:44:27.716Z</time>
      </trkpt>
      <trkpt lat="45.74385" lon="6.74115">
        <ele>2516</ele>
        <time>2026-07-29T08:44:28.716Z</time>
      </trkpt>
      <trkpt lat="45.74385" lon="6.74114">
        <ele>2516</ele>
        <time>2026-07-29T08:44:29.716Z</time>
      </trkpt>
      <trkpt lat="45.74385" lon="6.74114">
        <ele>2516</ele>
        <time>2026-07-29T08:44:30.716Z</time>
      </trkpt>
      <trkpt lat="45.74384" lon="6.74113">
        <ele>2516</ele>
        <time>2026-07-29T08:44:31.716Z</time>
      </trkpt>
      <trkpt lat="45.74383" lon="6.74111">
        <ele>2516</ele>
        <time>2026-07-29T08:44:32.716Z</time>
      </trkpt>
      <trkpt lat="45.74383" lon="6.74109">
        <ele>2516</ele>
        <time>2026-07-29T08:44:33.716Z</time>
      </trkpt>
      <trkpt lat="45.74382" lon="6.74107">
        <ele>2516</ele>
        <time>2026-07-29T08:44:34.716Z</time>
      </trkpt>
      <trkpt lat="45.74381" lon="6.74105">
        <ele>2516</ele>
        <time>2026-07-29T08:44:35.716Z</time>
      </trkpt>
      <trkpt lat="45.7438" lon="6.74103">
        <ele>2516</ele>
        <time>2026-07-29T08:44:36.716Z</time>
      </trkpt>
      <trkpt lat="45.74379" lon="6.74102">
        <ele>2517</ele>
        <time>2026-07-29T08:44:37.716Z</time>
      </trkpt>
      <trkpt lat="45.74378" lon="6.741">
        <ele>2517</ele>
        <time>2026-07-29T08:44:38.716Z</time>
      </trkpt>
      <trkpt lat="45.74377" lon="6.74099">
        <ele>2517</ele>
        <time>2026-07-29T08:44:39.716Z</time>
      </trkpt>
      <trkpt lat="45.74376" lon="6.74098">
        <ele>2517</ele>
        <time>2026-07-29T08:44:40.716Z</time>
      </trkpt>
      <trkpt lat="45.74375" lon="6.74097">
        <ele>2517</ele>
        <time>2026-07-29T08:44:41.716Z</time>
      </trkpt>
      <trkpt lat="45.74373" lon="6.74096">
        <ele>2517</ele>
        <time>2026-07-29T08:44:42.716Z</time>
      </trkpt>
      <trkpt lat="45.74372" lon="6.74096">
        <ele>2517</ele>
        <time>2026-07-29T08:44:43.716Z</time>
      </trkpt>
      <trkpt lat="45.7437" lon="6.74095">
        <ele>2517</ele>
        <time>2026-07-29T08:44:44.716Z</time>
      </trkpt>
      <trkpt lat="45.74369" lon="6.74095">
        <ele>2517</ele>
        <time>2026-07-29T08:44:45.716Z</time>
      </trkpt>
      <trkpt lat="45.74367" lon="6.74095">
        <ele>2517</ele>
        <time>2026-07-29T08:44:46.716Z</time>
      </trkpt>
      <trkpt lat="45.74365" lon="6.74094">
        <ele>2516</ele>
        <time>2026-07-29T08:44:47.716Z</time>
      </trkpt>
      <trkpt lat="45.74363" lon="6.74093">
        <ele>2516</ele>
        <time>2026-07-29T08:44:48.716Z</time>
      </trkpt>
      <trkpt lat="45.74362" lon="6.74092">
        <ele>2516</ele>
        <time>2026-07-29T08:44:49.716Z</time>
      </trkpt>
      <trkpt lat="45.7436" lon="6.74091">
        <ele>2516</ele>
        <time>2026-07-29T08:44:50.716Z</time>
      </trkpt>
      <trkpt lat="45.74359" lon="6.74089">
        <ele>2516</ele>
        <time>2026-07-29T08:44:51.716Z</time>
      </trkpt>
      <trkpt lat="45.74358" lon="6.74088">
        <ele>2516</ele>
        <time>2026-07-29T08:44:52.716Z</time>
      </trkpt>
      <trkpt lat="45.74357" lon="6.74087">
        <ele>2516</ele>
        <time>2026-07-29T08:44:53.716Z</time>
      </trkpt>
      <trkpt lat="45.74356" lon="6.74085">
        <ele>2516</ele>
        <time>2026-07-29T08:44:54.716Z</time>
      </trkpt>
      <trkpt lat="45.74355" lon="6.74084">
        <ele>2516</ele>
        <time>2026-07-29T08:44:55.716Z</time>
      </trkpt>
      <trkpt lat="45.74354" lon="6.74083">
        <ele>2515</ele>
        <time>2026-07-29T08:44:56.716Z</time>
      </trkpt>
      <trkpt lat="45.74353" lon="6.74083">
        <ele>2515</ele>
        <time>2026-07-29T08:44:57.716Z</time>
      </trkpt>
      <trkpt lat="45.74352" lon="6.74082">
        <ele>2515</ele>
        <time>2026-07-29T08:44:58.716Z</time>
      </trkpt>
      <trkpt lat="45.7435" lon="6.74082">
        <ele>2515</ele>
        <time>2026-07-29T08:44:59.716Z</time>
      </trkpt>
      <trkpt lat="45.74349" lon="6.74081">
        <ele>2515</ele>
        <time>2026-07-29T08:45:00.716Z</time>
      </trkpt>
      <trkpt lat="45.74348" lon="6.7408">
        <ele>2515</ele>
        <time>2026-07-29T08:45:01.716Z</time>
      </trkpt>
      <trkpt lat="45.74347" lon="6.74079">
        <ele>2515</ele>
        <time>2026-07-29T08:45:02.716Z</time>
      </trkpt>
      <trkpt lat="45.74346" lon="6.74077">
        <ele>2515</ele>
        <time>2026-07-29T08:45:03.716Z</time>
      </trkpt>
      <trkpt lat="45.74345" lon="6.74075">
        <ele>2514</ele>
        <time>2026-07-29T08:45:04.716Z</time>
      </trkpt>
      <trkpt lat="45.74344" lon="6.74073">
        <ele>2515</ele>
        <time>2026-07-29T08:45:05.716Z</time>
      </trkpt>
      <trkpt lat="45.74344" lon="6.74072">
        <ele>2515</ele>
        <time>2026-07-29T08:45:06.716Z</time>
      </trkpt>
      <trkpt lat="45.74343" lon="6.7407">
        <ele>2515</ele>
        <time>2026-07-29T08:45:07.716Z</time>
      </trkpt>
      <trkpt lat="45.74342" lon="6.74068">
        <ele>2515</ele>
        <time>2026-07-29T08:45:08.716Z</time>
      </trkpt>
      <trkpt lat="45.74341" lon="6.74066">
        <ele>2514</ele>
        <time>2026-07-29T08:45:09.716Z</time>
      </trkpt>
      <trkpt lat="45.74341" lon="6.74064">
        <ele>2514</ele>
        <time>2026-07-29T08:45:10.716Z</time>
      </trkpt>
      <trkpt lat="45.7434" lon="6.74063">
        <ele>2514</ele>
        <time>2026-07-29T08:45:11.716Z</time>
      </trkpt>
      <trkpt lat="45.74339" lon="6.74061">
        <ele>2514</ele>
        <time>2026-07-29T08:45:12.716Z</time>
      </trkpt>
      <trkpt lat="45.74339" lon="6.74059">
        <ele>2514</ele>
        <time>2026-07-29T08:45:13.716Z</time>
      </trkpt>
      <trkpt lat="45.74338" lon="6.74058">
        <ele>2513</ele>
        <time>2026-07-29T08:45:14.716Z</time>
      </trkpt>
      <trkpt lat="45.74337" lon="6.74056">
        <ele>2513</ele>
        <time>2026-07-29T08:45:15.716Z</time>
      </trkpt>
      <trkpt lat="45.74336" lon="6.74055">
        <ele>2513</ele>
        <time>2026-07-29T08:45:16.716Z</time>
      </trkpt>
      <trkpt lat="45.74335" lon="6.74053">
        <ele>2513</ele>
        <time>2026-07-29T08:45:17.716Z</time>
      </trkpt>
      <trkpt lat="45.74335" lon="6.74052">
        <ele>2513</ele>
        <time>2026-07-29T08:45:18.716Z</time>
      </trkpt>
      <trkpt lat="45.74334" lon="6.7405">
        <ele>2513</ele>
        <time>2026-07-29T08:45:19.716Z</time>
      </trkpt>
      <trkpt lat="45.74334" lon="6.74048">
        <ele>2513</ele>
        <time>2026-07-29T08:45:20.716Z</time>
      </trkpt>
      <trkpt lat="45.74334" lon="6.74047">
        <ele>2513</ele>
        <time>2026-07-29T08:45:21.716Z</time>
      </trkpt>
      <trkpt lat="45.74334" lon="6.74046">
        <ele>2513</ele>
        <time>2026-07-29T08:45:22.716Z</time>
      </trkpt>
      <trkpt lat="45.74333" lon="6.74045">
        <ele>2513</ele>
        <time>2026-07-29T08:45:23.716Z</time>
      </trkpt>
      <trkpt lat="45.74332" lon="6.74043">
        <ele>2513</ele>
        <time>2026-07-29T08:45:24.716Z</time>
      </trkpt>
      <trkpt lat="45.74331" lon="6.74041">
        <ele>2514</ele>
        <time>2026-07-29T08:45:25.716Z</time>
      </trkpt>
      <trkpt lat="45.74331" lon="6.7404">
        <ele>2514</ele>
        <time>2026-07-29T08:45:26.716Z</time>
      </trkpt>
      <trkpt lat="45.7433" lon="6.74038">
        <ele>2514</ele>
        <time>2026-07-29T08:45:27.716Z</time>
      </trkpt>
      <trkpt lat="45.74329" lon="6.74036">
        <ele>2514</ele>
        <time>2026-07-29T08:45:28.716Z</time>
      </trkpt>
      <trkpt lat="45.74328" lon="6.74034">
        <ele>2514</ele>
        <time>2026-07-29T08:45:29.716Z</time>
      </trkpt>
      <trkpt lat="45.74327" lon="6.74032">
        <ele>2514</ele>
        <time>2026-07-29T08:45:30.716Z</time>
      </trkpt>
      <trkpt lat="45.74327" lon="6.7403">
        <ele>2514</ele>
        <time>2026-07-29T08:45:31.716Z</time>
      </trkpt>
      <trkpt lat="45.74326" lon="6.74029">
        <ele>2514</ele>
        <time>2026-07-29T08:45:32.716Z</time>
      </trkpt>
      <trkpt lat="45.74325" lon="6.74027">
        <ele>2514</ele>
        <time>2026-07-29T08:45:33.716Z</time>
      </trkpt>
      <trkpt lat="45.74324" lon="6.74025">
        <ele>2514</ele>
        <time>2026-07-29T08:45:34.716Z</time>
      </trkpt>
      <trkpt lat="45.74323" lon="6.74024">
        <ele>2513</ele>
        <time>2026-07-29T08:45:35.716Z</time>
      </trkpt>
      <trkpt lat="45.74322" lon="6.74022">
        <ele>2514</ele>
        <time>2026-07-29T08:45:36.716Z</time>
      </trkpt>
      <trkpt lat="45.74321" lon="6.74021">
        <ele>2514</ele>
        <time>2026-07-29T08:45:37.716Z</time>
      </trkpt>
      <trkpt lat="45.7432" lon="6.7402">
        <ele>2514</ele>
        <time>2026-07-29T08:45:38.716Z</time>
      </trkpt>
      <trkpt lat="45.74319" lon="6.74019">
        <ele>2514</ele>
        <time>2026-07-29T08:45:39.716Z</time>
      </trkpt>
      <trkpt lat="45.74319" lon="6.74018">
        <ele>2514</ele>
        <time>2026-07-29T08:45:40.716Z</time>
      </trkpt>
      <trkpt lat="45.74318" lon="6.74017">
        <ele>2514</ele>
        <time>2026-07-29T08:45:41.716Z</time>
      </trkpt>
      <trkpt lat="45.74317" lon="6.74015">
        <ele>2514</ele>
        <time>2026-07-29T08:45:42.716Z</time>
      </trkpt>
      <trkpt lat="45.74316" lon="6.74014">
        <ele>2514</ele>
        <time>2026-07-29T08:45:43.716Z</time>
      </trkpt>
      <trkpt lat="45.74314" lon="6.74012">
        <ele>2514</ele>
        <time>2026-07-29T08:45:44.716Z</time>
      </trkpt>
      <trkpt lat="45.74313" lon="6.74011">
        <ele>2514</ele>
        <time>2026-07-29T08:45:45.716Z</time>
      </trkpt>
      <trkpt lat="45.74312" lon="6.74009">
        <ele>2514</ele>
        <time>2026-07-29T08:45:46.716Z</time>
      </trkpt>
      <trkpt lat="45.7431" lon="6.74008">
        <ele>2515</ele>
        <time>2026-07-29T08:45:47.716Z</time>
      </trkpt>
      <trkpt lat="45.74309" lon="6.74006">
        <ele>2515</ele>
        <time>2026-07-29T08:45:48.716Z</time>
      </trkpt>
      <trkpt lat="45.74308" lon="6.74005">
        <ele>2515</ele>
        <time>2026-07-29T08:45:49.716Z</time>
      </trkpt>
      <trkpt lat="45.74306" lon="6.74003">
        <ele>2515</ele>
        <time>2026-07-29T08:45:50.716Z</time>
      </trkpt>
      <trkpt lat="45.74305" lon="6.74002">
        <ele>2516</ele>
        <time>2026-07-29T08:45:51.716Z</time>
      </trkpt>
      <trkpt lat="45.74304" lon="6.74">
        <ele>2516</ele>
        <time>2026-07-29T08:45:52.716Z</time>
      </trkpt>
      <trkpt lat="45.74303" lon="6.73998">
        <ele>2517</ele>
        <time>2026-07-29T08:45:53.716Z</time>
      </trkpt>
      <trkpt lat="45.74301" lon="6.73997">
        <ele>2518</ele>
        <time>2026-07-29T08:45:54.716Z</time>
      </trkpt>
      <trkpt lat="45.743" lon="6.73995">
        <ele>2518</ele>
        <time>2026-07-29T08:45:55.716Z</time>
      </trkpt>
      <trkpt lat="45.74298" lon="6.73993">
        <ele>2519</ele>
        <time>2026-07-29T08:45:56.716Z</time>
      </trkpt>
      <trkpt lat="45.74297" lon="6.73992">
        <ele>2519</ele>
        <time>2026-07-29T08:45:57.716Z</time>
      </trkpt>
      <trkpt lat="45.74296" lon="6.73991">
        <ele>2519</ele>
        <time>2026-07-29T08:45:58.716Z</time>
      </trkpt>
      <trkpt lat="45.74294" lon="6.7399">
        <ele>2519</ele>
        <time>2026-07-29T08:45:59.716Z</time>
      </trkpt>
      <trkpt lat="45.74293" lon="6.7399">
        <ele>2519</ele>
        <time>2026-07-29T08:46:00.716Z</time>
      </trkpt>
      <trkpt lat="45.74292" lon="6.73989">
        <ele>2520</ele>
        <time>2026-07-29T08:46:01.716Z</time>
      </trkpt>
      <trkpt lat="45.74291" lon="6.73988">
        <ele>2520</ele>
        <time>2026-07-29T08:46:02.716Z</time>
      </trkpt>
      <trkpt lat="45.7429" lon="6.73987">
        <ele>2520</ele>
        <time>2026-07-29T08:46:03.716Z</time>
      </trkpt>
      <trkpt lat="45.74289" lon="6.73986">
        <ele>2520</ele>
        <time>2026-07-29T08:46:04.716Z</time>
      </trkpt>
      <trkpt lat="45.74289" lon="6.73985">
        <ele>2520</ele>
        <time>2026-07-29T08:46:05.716Z</time>
      </trkpt>
      <trkpt lat="45.74288" lon="6.73984">
        <ele>2519</ele>
        <time>2026-07-29T08:46:06.716Z</time>
      </trkpt>
      <trkpt lat="45.74287" lon="6.73982">
        <ele>2519</ele>
        <time>2026-07-29T08:46:07.716Z</time>
      </trkpt>
      <trkpt lat="45.74286" lon="6.73981">
        <ele>2519</ele>
        <time>2026-07-29T08:46:08.716Z</time>
      </trkpt>
      <trkpt lat="45.74284" lon="6.73979">
        <ele>2520</ele>
        <time>2026-07-29T08:46:09.716Z</time>
      </trkpt>
      <trkpt lat="45.74283" lon="6.73978">
        <ele>2520</ele>
        <time>2026-07-29T08:46:10.716Z</time>
      </trkpt>
      <trkpt lat="45.74283" lon="6.73976">
        <ele>2519</ele>
        <time>2026-07-29T08:46:11.716Z</time>
      </trkpt>
      <trkpt lat="45.74282" lon="6.73975">
        <ele>2519</ele>
        <time>2026-07-29T08:46:12.716Z</time>
      </trkpt>
      <trkpt lat="45.74282" lon="6.73975">
        <ele>2519</ele>
        <time>2026-07-29T08:46:13.716Z</time>
      </trkpt>
      <trkpt lat="45.74281" lon="6.73974">
        <ele>2519</ele>
        <time>2026-07-29T08:46:14.716Z</time>
      </trkpt>
      <trkpt lat="45.74281" lon="6.73974">
        <ele>2519</ele>
        <time>2026-07-29T08:46:15.716Z</time>
      </trkpt>
      <trkpt lat="45.74281" lon="6.73973">
        <ele>2519</ele>
        <time>2026-07-29T08:46:16.716Z</time>
      </trkpt>
      <trkpt lat="45.74281" lon="6.73973">
        <ele>2518</ele>
        <time>2026-07-29T08:46:17.716Z</time>
      </trkpt>
      <trkpt lat="45.7428" lon="6.73973">
        <ele>2518</ele>
        <time>2026-07-29T08:46:18.716Z</time>
      </trkpt>
      <trkpt lat="45.7428" lon="6.73972">
        <ele>2518</ele>
        <time>2026-07-29T08:46:19.716Z</time>
      </trkpt>
      <trkpt lat="45.74279" lon="6.73971">
        <ele>2518</ele>
        <time>2026-07-29T08:46:20.716Z</time>
      </trkpt>
      <trkpt lat="45.74279" lon="6.7397">
        <ele>2518</ele>
        <time>2026-07-29T08:46:21.716Z</time>
      </trkpt>
      <trkpt lat="45.74278" lon="6.73969">
        <ele>2518</ele>
        <time>2026-07-29T08:46:22.716Z</time>
      </trkpt>
      <trkpt lat="45.74277" lon="6.73967">
        <ele>2518</ele>
        <time>2026-07-29T08:46:23.716Z</time>
      </trkpt>
      <trkpt lat="45.74276" lon="6.73966">
        <ele>2518</ele>
        <time>2026-07-29T08:46:24.716Z</time>
      </trkpt>
      <trkpt lat="45.74275" lon="6.73964">
        <ele>2518</ele>
        <time>2026-07-29T08:46:25.716Z</time>
      </trkpt>
      <trkpt lat="45.74274" lon="6.73962">
        <ele>2518</ele>
        <time>2026-07-29T08:46:26.716Z</time>
      </trkpt>
      <trkpt lat="45.74273" lon="6.73961">
        <ele>2518</ele>
        <time>2026-07-29T08:46:27.716Z</time>
      </trkpt>
      <trkpt lat="45.74272" lon="6.7396">
        <ele>2519</ele>
        <time>2026-07-29T08:46:28.716Z</time>
      </trkpt>
      <trkpt lat="45.74271" lon="6.73958">
        <ele>2519</ele>
        <time>2026-07-29T08:46:29.716Z</time>
      </trkpt>
      <trkpt lat="45.7427" lon="6.73957">
        <ele>2519</ele>
        <time>2026-07-29T08:46:30.716Z</time>
      </trkpt>
      <trkpt lat="45.74269" lon="6.73956">
        <ele>2519</ele>
        <time>2026-07-29T08:46:31.716Z</time>
      </trkpt>
      <trkpt lat="45.74268" lon="6.73955">
        <ele>2519</ele>
        <time>2026-07-29T08:46:32.716Z</time>
      </trkpt>
      <trkpt lat="45.74267" lon="6.73954">
        <ele>2520</ele>
        <time>2026-07-29T08:46:33.716Z</time>
      </trkpt>
      <trkpt lat="45.74266" lon="6.73953">
        <ele>2520</ele>
        <time>2026-07-29T08:46:34.716Z</time>
      </trkpt>
      <trkpt lat="45.74265" lon="6.73952">
        <ele>2520</ele>
        <time>2026-07-29T08:46:35.716Z</time>
      </trkpt>
      <trkpt lat="45.74264" lon="6.73951">
        <ele>2520</ele>
        <time>2026-07-29T08:46:36.716Z</time>
      </trkpt>
      <trkpt lat="45.74263" lon="6.7395">
        <ele>2520</ele>
        <time>2026-07-29T08:46:37.716Z</time>
      </trkpt>
      <trkpt lat="45.74262" lon="6.73949">
        <ele>2520</ele>
        <time>2026-07-29T08:46:38.716Z</time>
      </trkpt>
      <trkpt lat="45.74261" lon="6.73948">
        <ele>2519</ele>
        <time>2026-07-29T08:46:39.716Z</time>
      </trkpt>
      <trkpt lat="45.7426" lon="6.73947">
        <ele>2519</ele>
        <time>2026-07-29T08:46:40.716Z</time>
      </trkpt>
      <trkpt lat="45.74258" lon="6.73946">
        <ele>2519</ele>
        <time>2026-07-29T08:46:41.716Z</time>
      </trkpt>
      <trkpt lat="45.74257" lon="6.73945">
        <ele>2519</ele>
        <time>2026-07-29T08:46:42.716Z</time>
      </trkpt>
      <trkpt lat="45.74256" lon="6.73944">
        <ele>2519</ele>
        <time>2026-07-29T08:46:43.716Z</time>
      </trkpt>
      <trkpt lat="45.74254" lon="6.73943">
        <ele>2519</ele>
        <time>2026-07-29T08:46:44.716Z</time>
      </trkpt>
      <trkpt lat="45.74253" lon="6.73942">
        <ele>2519</ele>
        <time>2026-07-29T08:46:45.716Z</time>
      </trkpt>
      <trkpt lat="45.74252" lon="6.7394">
        <ele>2519</ele>
        <time>2026-07-29T08:46:46.716Z</time>
      </trkpt>
      <trkpt lat="45.7425" lon="6.73939">
        <ele>2519</ele>
        <time>2026-07-29T08:46:47.716Z</time>
      </trkpt>
      <trkpt lat="45.74249" lon="6.73937">
        <ele>2520</ele>
        <time>2026-07-29T08:46:48.716Z</time>
      </trkpt>
      <trkpt lat="45.74247" lon="6.73936">
        <ele>2520</ele>
        <time>2026-07-29T08:46:49.716Z</time>
      </trkpt>
      <trkpt lat="45.74246" lon="6.73935">
        <ele>2520</ele>
        <time>2026-07-29T08:46:50.716Z</time>
      </trkpt>
      <trkpt lat="45.74244" lon="6.73935">
        <ele>2519</ele>
        <time>2026-07-29T08:46:51.716Z</time>
      </trkpt>
      <trkpt lat="45.74243" lon="6.73934">
        <ele>2519</ele>
        <time>2026-07-29T08:46:52.716Z</time>
      </trkpt>
      <trkpt lat="45.74241" lon="6.73934">
        <ele>2519</ele>
        <time>2026-07-29T08:46:53.716Z</time>
      </trkpt>
      <trkpt lat="45.7424" lon="6.73933">
        <ele>2519</ele>
        <time>2026-07-29T08:46:54.716Z</time>
      </trkpt>
      <trkpt lat="45.74239" lon="6.73932">
        <ele>2519</ele>
        <time>2026-07-29T08:46:55.716Z</time>
      </trkpt>
      <trkpt lat="45.74237" lon="6.7393">
        <ele>2519</ele>
        <time>2026-07-29T08:46:56.716Z</time>
      </trkpt>
      <trkpt lat="45.74236" lon="6.73929">
        <ele>2519</ele>
        <time>2026-07-29T08:46:57.716Z</time>
      </trkpt>
      <trkpt lat="45.74235" lon="6.73927">
        <ele>2518</ele>
        <time>2026-07-29T08:46:58.716Z</time>
      </trkpt>
      <trkpt lat="45.74234" lon="6.73925">
        <ele>2519</ele>
        <time>2026-07-29T08:46:59.716Z</time>
      </trkpt>
      <trkpt lat="45.74234" lon="6.73923">
        <ele>2519</ele>
        <time>2026-07-29T08:47:00.716Z</time>
      </trkpt>
      <trkpt lat="45.74233" lon="6.73921">
        <ele>2519</ele>
        <time>2026-07-29T08:47:01.716Z</time>
      </trkpt>
      <trkpt lat="45.74232" lon="6.73919">
        <ele>2519</ele>
        <time>2026-07-29T08:47:02.716Z</time>
      </trkpt>
      <trkpt lat="45.74231" lon="6.73917">
        <ele>2519</ele>
        <time>2026-07-29T08:47:03.716Z</time>
      </trkpt>
      <trkpt lat="45.74231" lon="6.73916">
        <ele>2519</ele>
        <time>2026-07-29T08:47:04.716Z</time>
      </trkpt>
      <trkpt lat="45.7423" lon="6.73914">
        <ele>2519</ele>
        <time>2026-07-29T08:47:05.716Z</time>
      </trkpt>
      <trkpt lat="45.74229" lon="6.73912">
        <ele>2519</ele>
        <time>2026-07-29T08:47:06.716Z</time>
      </trkpt>
      <trkpt lat="45.74229" lon="6.7391">
        <ele>2519</ele>
        <time>2026-07-29T08:47:07.716Z</time>
      </trkpt>
      <trkpt lat="45.74228" lon="6.73908">
        <ele>2519</ele>
        <time>2026-07-29T08:47:08.716Z</time>
      </trkpt>
      <trkpt lat="45.74227" lon="6.73906">
        <ele>2519</ele>
        <time>2026-07-29T08:47:09.716Z</time>
      </trkpt>
      <trkpt lat="45.74226" lon="6.73904">
        <ele>2519</ele>
        <time>2026-07-29T08:47:10.716Z</time>
      </trkpt>
      <trkpt lat="45.74224" lon="6.73902">
        <ele>2519</ele>
        <time>2026-07-29T08:47:11.716Z</time>
      </trkpt>
      <trkpt lat="45.74223" lon="6.739">
        <ele>2519</ele>
        <time>2026-07-29T08:47:12.716Z</time>
      </trkpt>
      <trkpt lat="45.74222" lon="6.73898">
        <ele>2518</ele>
        <time>2026-07-29T08:47:13.716Z</time>
      </trkpt>
      <trkpt lat="45.74221" lon="6.73896">
        <ele>2518</ele>
        <time>2026-07-29T08:47:14.716Z</time>
      </trkpt>
      <trkpt lat="45.74219" lon="6.73894">
        <ele>2518</ele>
        <time>2026-07-29T08:47:15.716Z</time>
      </trkpt>
      <trkpt lat="45.74218" lon="6.73892">
        <ele>2517</ele>
        <time>2026-07-29T08:47:16.716Z</time>
      </trkpt>
      <trkpt lat="45.74217" lon="6.7389">
        <ele>2517</ele>
        <time>2026-07-29T08:47:17.716Z</time>
      </trkpt>
      <trkpt lat="45.74216" lon="6.73889">
        <ele>2517</ele>
        <time>2026-07-29T08:47:18.716Z</time>
      </trkpt>
      <trkpt lat="45.74214" lon="6.73887">
        <ele>2517</ele>
        <time>2026-07-29T08:47:19.716Z</time>
      </trkpt>
      <trkpt lat="45.74213" lon="6.73885">
        <ele>2517</ele>
        <time>2026-07-29T08:47:20.716Z</time>
      </trkpt>
      <trkpt lat="45.74212" lon="6.73884">
        <ele>2517</ele>
        <time>2026-07-29T08:47:21.716Z</time>
      </trkpt>
      <trkpt lat="45.74211" lon="6.73882">
        <ele>2517</ele>
        <time>2026-07-29T08:47:22.716Z</time>
      </trkpt>
      <trkpt lat="45.7421" lon="6.7388">
        <ele>2517</ele>
        <time>2026-07-29T08:47:23.716Z</time>
      </trkpt>
      <trkpt lat="45.74209" lon="6.73879">
        <ele>2517</ele>
        <time>2026-07-29T08:47:24.716Z</time>
      </trkpt>
      <trkpt lat="45.74207" lon="6.73877">
        <ele>2517</ele>
        <time>2026-07-29T08:47:25.716Z</time>
      </trkpt>
      <trkpt lat="45.74206" lon="6.73876">
        <ele>2517</ele>
        <time>2026-07-29T08:47:26.716Z</time>
      </trkpt>
      <trkpt lat="45.74205" lon="6.73875">
        <ele>2517</ele>
        <time>2026-07-29T08:47:27.716Z</time>
      </trkpt>
      <trkpt lat="45.74204" lon="6.73874">
        <ele>2517</ele>
        <time>2026-07-29T08:47:28.716Z</time>
      </trkpt>
      <trkpt lat="45.74202" lon="6.73873">
        <ele>2517</ele>
        <time>2026-07-29T08:47:29.716Z</time>
      </trkpt>
      <trkpt lat="45.74201" lon="6.73872">
        <ele>2518</ele>
        <time>2026-07-29T08:47:30.716Z</time>
      </trkpt>
      <trkpt lat="45.742" lon="6.73871">
        <ele>2518</ele>
        <time>2026-07-29T08:47:31.716Z</time>
      </trkpt>
      <trkpt lat="45.742" lon="6.73871">
        <ele>2518</ele>
        <time>2026-07-29T08:47:32.716Z</time>
      </trkpt>
      <trkpt lat="45.74199" lon="6.7387">
        <ele>2518</ele>
        <time>2026-07-29T08:47:33.716Z</time>
      </trkpt>
      <trkpt lat="45.74199" lon="6.7387">
        <ele>2517</ele>
        <time>2026-07-29T08:47:34.716Z</time>
      </trkpt>
      <trkpt lat="45.74199" lon="6.7387">
        <ele>2517</ele>
        <time>2026-07-29T08:47:35.716Z</time>
      </trkpt>
      <trkpt lat="45.74199" lon="6.7387">
        <ele>2517</ele>
        <time>2026-07-29T08:47:36.716Z</time>
      </trkpt>
      <trkpt lat="45.742" lon="6.7387">
        <ele>2517</ele>
        <time>2026-07-29T08:47:37.716Z</time>
      </trkpt>
      <trkpt lat="45.742" lon="6.7387">
        <ele>2517</ele>
        <time>2026-07-29T08:47:38.716Z</time>
      </trkpt>
      <trkpt lat="45.742" lon="6.73871">
        <ele>2517</ele>
        <time>2026-07-29T08:47:39.716Z</time>
      </trkpt>
      <trkpt lat="45.742" lon="6.73871">
        <ele>2517</ele>
        <time>2026-07-29T08:47:40.716Z</time>
      </trkpt>
      <trkpt lat="45.742" lon="6.73871">
        <ele>2517</ele>
        <time>2026-07-29T08:47:41.716Z</time>
      </trkpt>
      <trkpt lat="45.742" lon="6.73871">
        <ele>2517</ele>
        <time>2026-07-29T08:47:42.716Z</time>
      </trkpt>
      <trkpt lat="45.742" lon="6.73871">
        <ele>2517</ele>
        <time>2026-07-29T08:47:43.716Z</time>
      </trkpt>
      <trkpt lat="45.742" lon="6.73871">
        <ele>2517</ele>
        <time>2026-07-29T08:47:44.716Z</time>
      </trkpt>
      <trkpt lat="45.742" lon="6.73871">
        <ele>2517</ele>
        <time>2026-07-29T08:47:45.716Z</time>
      </trkpt>
      <trkpt lat="45.742" lon="6.73871">
        <ele>2517</ele>
        <time>2026-07-29T08:47:46.716Z</time>
      </trkpt>
      <trkpt lat="45.742" lon="6.73871">
        <ele>2517</ele>
        <time>2026-07-29T08:47:47.716Z</time>
      </trkpt>
      <trkpt lat="45.742" lon="6.73871">
        <ele>2517</ele>
        <time>2026-07-29T08:47:48.716Z</time>
      </trkpt>
      <trkpt lat="45.742" lon="6.73871">
        <ele>2516</ele>
        <time>2026-07-29T08:47:49.716Z</time>
      </trkpt>
      <trkpt lat="45.742" lon="6.73871">
        <ele>2516</ele>
        <time>2026-07-29T08:47:50.716Z</time>
      </trkpt>
      <trkpt lat="45.742" lon="6.73871">
        <ele>2516</ele>
        <time>2026-07-29T08:47:51.716Z</time>
      </trkpt>
      <trkpt lat="45.742" lon="6.73871">
        <ele>2516</ele>
        <time>2026-07-29T08:47:52.716Z</time>
      </trkpt>
      <trkpt lat="45.742" lon="6.73871">
        <ele>2516</ele>
        <time>2026-07-29T08:47:53.716Z</time>
      </trkpt>
      <trkpt lat="45.742" lon="6.73871">
        <ele>2515</ele>
        <time>2026-07-29T08:47:54.716Z</time>
      </trkpt>
      <trkpt lat="45.742" lon="6.73871">
        <ele>2515</ele>
        <time>2026-07-29T08:47:55.716Z</time>
      </trkpt>
      <trkpt lat="45.742" lon="6.73871">
        <ele>2515</ele>
        <time>2026-07-29T08:47:56.716Z</time>
      </trkpt>
      <trkpt lat="45.742" lon="6.73871">
        <ele>2515</ele>
        <time>2026-07-29T08:47:57.716Z</time>
      </trkpt>
      <trkpt lat="45.742" lon="6.73871">
        <ele>2515</ele>
        <time>2026-07-29T08:47:58.716Z</time>
      </trkpt>
      <trkpt lat="45.742" lon="6.73871">
        <ele>2515</ele>
        <time>2026-07-29T08:47:59.716Z</time>
      </trkpt>
      <trkpt lat="45.742" lon="6.73871">
        <ele>2515</ele>
        <time>2026-07-29T08:48:00.716Z</time>
      </trkpt>
      <trkpt lat="45.742" lon="6.73871">
        <ele>2515</ele>
        <time>2026-07-29T08:48:01.716Z</time>
      </trkpt>
      <trkpt lat="45.742" lon="6.73871">
        <ele>2515</ele>
        <time>2026-07-29T08:48:02.716Z</time>
      </trkpt>
      <trkpt lat="45.742" lon="6.73871">
        <ele>2516</ele>
        <time>2026-07-29T08:48:03.716Z</time>
      </trkpt>
      <trkpt lat="45.742" lon="6.73871">
        <ele>2516</ele>
        <time>2026-07-29T08:48:04.716Z</time>
      </trkpt>
      <trkpt lat="45.742" lon="6.73871">
        <ele>2516</ele>
        <time>2026-07-29T08:48:05.716Z</time>
      </trkpt>
      <trkpt lat="45.742" lon="6.73871">
        <ele>2516</ele>
        <time>2026-07-29T08:48:06.716Z</time>
      </trkpt>
      <trkpt lat="45.742" lon="6.73871">
        <ele>2516</ele>
        <time>2026-07-29T08:48:07.716Z</time>
      </trkpt>
      <trkpt lat="45.742" lon="6.7387">
        <ele>2516</ele>
        <time>2026-07-29T08:48:08.716Z</time>
      </trkpt>
      <trkpt lat="45.74199" lon="6.73869">
        <ele>2516</ele>
        <time>2026-07-29T08:48:09.716Z</time>
      </trkpt>
      <trkpt lat="45.74198" lon="6.73868">
        <ele>2516</ele>
        <time>2026-07-29T08:48:10.716Z</time>
      </trkpt>
      <trkpt lat="45.74196" lon="6.73867">
        <ele>2516</ele>
        <time>2026-07-29T08:48:11.716Z</time>
      </trkpt>
      <trkpt lat="45.74195" lon="6.73865">
        <ele>2516</ele>
        <time>2026-07-29T08:48:12.716Z</time>
      </trkpt>
      <trkpt lat="45.74194" lon="6.73864">
        <ele>2517</ele>
        <time>2026-07-29T08:48:13.716Z</time>
      </trkpt>
      <trkpt lat="45.74193" lon="6.73862">
        <ele>2517</ele>
        <time>2026-07-29T08:48:14.716Z</time>
      </trkpt>
      <trkpt lat="45.74191" lon="6.73861">
        <ele>2517</ele>
        <time>2026-07-29T08:48:15.716Z</time>
      </trkpt>
      <trkpt lat="45.7419" lon="6.7386">
        <ele>2518</ele>
        <time>2026-07-29T08:48:16.716Z</time>
      </trkpt>
      <trkpt lat="45.74189" lon="6.73858">
        <ele>2518</ele>
        <time>2026-07-29T08:48:17.716Z</time>
      </trkpt>
      <trkpt lat="45.74188" lon="6.73858">
        <ele>2518</ele>
        <time>2026-07-29T08:48:18.716Z</time>
      </trkpt>
      <trkpt lat="45.74187" lon="6.73858">
        <ele>2518</ele>
        <time>2026-07-29T08:48:19.716Z</time>
      </trkpt>
      <trkpt lat="45.74186" lon="6.73859">
        <ele>2518</ele>
        <time>2026-07-29T08:48:20.716Z</time>
      </trkpt>
      <trkpt lat="45.74185" lon="6.73859">
        <ele>2519</ele>
        <time>2026-07-29T08:48:21.716Z</time>
      </trkpt>
      <trkpt lat="45.74184" lon="6.73859">
        <ele>2518</ele>
        <time>2026-07-29T08:48:22.716Z</time>
      </trkpt>
      <trkpt lat="45.74183" lon="6.73859">
        <ele>2518</ele>
        <time>2026-07-29T08:48:23.716Z</time>
      </trkpt>
      <trkpt lat="45.74182" lon="6.7386">
        <ele>2518</ele>
        <time>2026-07-29T08:48:24.716Z</time>
      </trkpt>
      <trkpt lat="45.74181" lon="6.7386">
        <ele>2518</ele>
        <time>2026-07-29T08:48:25.716Z</time>
      </trkpt>
      <trkpt lat="45.74179" lon="6.7386">
        <ele>2518</ele>
        <time>2026-07-29T08:48:26.716Z</time>
      </trkpt>
      <trkpt lat="45.74179" lon="6.7386">
        <ele>2518</ele>
        <time>2026-07-29T08:48:27.716Z</time>
      </trkpt>
      <trkpt lat="45.74178" lon="6.7386">
        <ele>2518</ele>
        <time>2026-07-29T08:48:28.716Z</time>
      </trkpt>
      <trkpt lat="45.74177" lon="6.73859">
        <ele>2518</ele>
        <time>2026-07-29T08:48:29.716Z</time>
      </trkpt>
      <trkpt lat="45.74177" lon="6.73858">
        <ele>2518</ele>
        <time>2026-07-29T08:48:30.716Z</time>
      </trkpt>
      <trkpt lat="45.74176" lon="6.73857">
        <ele>2518</ele>
        <time>2026-07-29T08:48:31.716Z</time>
      </trkpt>
      <trkpt lat="45.74176" lon="6.73855">
        <ele>2518</ele>
        <time>2026-07-29T08:48:32.716Z</time>
      </trkpt>
      <trkpt lat="45.74176" lon="6.73854">
        <ele>2518</ele>
        <time>2026-07-29T08:48:33.716Z</time>
      </trkpt>
      <trkpt lat="45.74175" lon="6.73853">
        <ele>2518</ele>
        <time>2026-07-29T08:48:34.716Z</time>
      </trkpt>
      <trkpt lat="45.74175" lon="6.73852">
        <ele>2518</ele>
        <time>2026-07-29T08:48:35.716Z</time>
      </trkpt>
      <trkpt lat="45.74175" lon="6.73852">
        <ele>2518</ele>
        <time>2026-07-29T08:48:36.716Z</time>
      </trkpt>
      <trkpt lat="45.74174" lon="6.73851">
        <ele>2518</ele>
        <time>2026-07-29T08:48:37.716Z</time>
      </trkpt>
      <trkpt lat="45.74174" lon="6.7385">
        <ele>2518</ele>
        <time>2026-07-29T08:48:38.716Z</time>
      </trkpt>
      <trkpt lat="45.74173" lon="6.73849">
        <ele>2518</ele>
        <time>2026-07-29T08:48:39.716Z</time>
      </trkpt>
      <trkpt lat="45.74172" lon="6.73848">
        <ele>2519</ele>
        <time>2026-07-29T08:48:40.716Z</time>
      </trkpt>
      <trkpt lat="45.74171" lon="6.73847">
        <ele>2519</ele>
        <time>2026-07-29T08:48:41.716Z</time>
      </trkpt>
      <trkpt lat="45.7417" lon="6.73847">
        <ele>2519</ele>
        <time>2026-07-29T08:48:42.716Z</time>
      </trkpt>
      <trkpt lat="45.74169" lon="6.73846">
        <ele>2519</ele>
        <time>2026-07-29T08:48:43.716Z</time>
      </trkpt>
      <trkpt lat="45.74168" lon="6.73845">
        <ele>2519</ele>
        <time>2026-07-29T08:48:44.716Z</time>
      </trkpt>
      <trkpt lat="45.74167" lon="6.73844">
        <ele>2518</ele>
        <time>2026-07-29T08:48:45.716Z</time>
      </trkpt>
      <trkpt lat="45.74166" lon="6.73843">
        <ele>2518</ele>
        <time>2026-07-29T08:48:46.716Z</time>
      </trkpt>
      <trkpt lat="45.74165" lon="6.73843">
        <ele>2518</ele>
        <time>2026-07-29T08:48:47.716Z</time>
      </trkpt>
      <trkpt lat="45.74164" lon="6.73842">
        <ele>2519</ele>
        <time>2026-07-29T08:48:48.716Z</time>
      </trkpt>
      <trkpt lat="45.74163" lon="6.73842">
        <ele>2519</ele>
        <time>2026-07-29T08:48:49.716Z</time>
      </trkpt>
      <trkpt lat="45.74162" lon="6.73841">
        <ele>2519</ele>
        <time>2026-07-29T08:48:50.716Z</time>
      </trkpt>
      <trkpt lat="45.74161" lon="6.73841">
        <ele>2519</ele>
        <time>2026-07-29T08:48:51.716Z</time>
      </trkpt>
      <trkpt lat="45.7416" lon="6.73841">
        <ele>2520</ele>
        <time>2026-07-29T08:48:52.716Z</time>
      </trkpt>
      <trkpt lat="45.7416" lon="6.7384">
        <ele>2520</ele>
        <time>2026-07-29T08:48:53.716Z</time>
      </trkpt>
      <trkpt lat="45.74159" lon="6.73839">
        <ele>2520</ele>
        <time>2026-07-29T08:48:54.716Z</time>
      </trkpt>
      <trkpt lat="45.74158" lon="6.73839">
        <ele>2520</ele>
        <time>2026-07-29T08:48:55.716Z</time>
      </trkpt>
      <trkpt lat="45.74158" lon="6.73838">
        <ele>2521</ele>
        <time>2026-07-29T08:48:56.716Z</time>
      </trkpt>
      <trkpt lat="45.74157" lon="6.73837">
        <ele>2521</ele>
        <time>2026-07-29T08:48:57.716Z</time>
      </trkpt>
      <trkpt lat="45.74156" lon="6.73837">
        <ele>2521</ele>
        <time>2026-07-29T08:48:58.716Z</time>
      </trkpt>
      <trkpt lat="45.74156" lon="6.73836">
        <ele>2522</ele>
        <time>2026-07-29T08:48:59.716Z</time>
      </trkpt>
      <trkpt lat="45.74155" lon="6.73835">
        <ele>2522</ele>
        <time>2026-07-29T08:49:00.716Z</time>
      </trkpt>
      <trkpt lat="45.74154" lon="6.73834">
        <ele>2523</ele>
        <time>2026-07-29T08:49:01.716Z</time>
      </trkpt>
      <trkpt lat="45.74153" lon="6.73834">
        <ele>2523</ele>
        <time>2026-07-29T08:49:02.716Z</time>
      </trkpt>
      <trkpt lat="45.74152" lon="6.73833">
        <ele>2523</ele>
        <time>2026-07-29T08:49:03.716Z</time>
      </trkpt>
      <trkpt lat="45.74152" lon="6.73833">
        <ele>2523</ele>
        <time>2026-07-29T08:49:04.716Z</time>
      </trkpt>
      <trkpt lat="45.74151" lon="6.73831">
        <ele>2523</ele>
        <time>2026-07-29T08:49:05.716Z</time>
      </trkpt>
      <trkpt lat="45.7415" lon="6.73831">
        <ele>2524</ele>
        <time>2026-07-29T08:49:06.716Z</time>
      </trkpt>
      <trkpt lat="45.74149" lon="6.7383">
        <ele>2524</ele>
        <time>2026-07-29T08:49:07.716Z</time>
      </trkpt>
      <trkpt lat="45.74149" lon="6.73828">
        <ele>2524</ele>
        <time>2026-07-29T08:49:08.716Z</time>
      </trkpt>
      <trkpt lat="45.74148" lon="6.73828">
        <ele>2524</ele>
        <time>2026-07-29T08:49:09.716Z</time>
      </trkpt>
      <trkpt lat="45.74147" lon="6.73828">
        <ele>2524</ele>
        <time>2026-07-29T08:49:10.716Z</time>
      </trkpt>
      <trkpt lat="45.74146" lon="6.73829">
        <ele>2524</ele>
        <time>2026-07-29T08:49:11.716Z</time>
      </trkpt>
      <trkpt lat="45.74145" lon="6.73829">
        <ele>2524</ele>
        <time>2026-07-29T08:49:12.716Z</time>
      </trkpt>
      <trkpt lat="45.74144" lon="6.73828">
        <ele>2524</ele>
        <time>2026-07-29T08:49:13.716Z</time>
      </trkpt>
      <trkpt lat="45.74143" lon="6.73828">
        <ele>2524</ele>
        <time>2026-07-29T08:49:14.716Z</time>
      </trkpt>
      <trkpt lat="45.74143" lon="6.73828">
        <ele>2525</ele>
        <time>2026-07-29T08:49:15.716Z</time>
      </trkpt>
      <trkpt lat="45.74142" lon="6.73828">
        <ele>2525</ele>
        <time>2026-07-29T08:49:16.716Z</time>
      </trkpt>
      <trkpt lat="45.74141" lon="6.73828">
        <ele>2525</ele>
        <time>2026-07-29T08:49:17.716Z</time>
      </trkpt>
      <trkpt lat="45.7414" lon="6.73828">
        <ele>2525</ele>
        <time>2026-07-29T08:49:18.716Z</time>
      </trkpt>
      <trkpt lat="45.74139" lon="6.73828">
        <ele>2526</ele>
        <time>2026-07-29T08:49:19.716Z</time>
      </trkpt>
      <trkpt lat="45.74137" lon="6.73828">
        <ele>2526</ele>
        <time>2026-07-29T08:49:20.716Z</time>
      </trkpt>
      <trkpt lat="45.74137" lon="6.73827">
        <ele>2526</ele>
        <time>2026-07-29T08:49:21.716Z</time>
      </trkpt>
      <trkpt lat="45.74136" lon="6.73827">
        <ele>2526</ele>
        <time>2026-07-29T08:49:22.716Z</time>
      </trkpt>
      <trkpt lat="45.74135" lon="6.73827">
        <ele>2526</ele>
        <time>2026-07-29T08:49:23.716Z</time>
      </trkpt>
      <trkpt lat="45.74134" lon="6.73827">
        <ele>2527</ele>
        <time>2026-07-29T08:49:24.716Z</time>
      </trkpt>
      <trkpt lat="45.74134" lon="6.73827">
        <ele>2527</ele>
        <time>2026-07-29T08:49:25.716Z</time>
      </trkpt>
      <trkpt lat="45.74133" lon="6.73828">
        <ele>2528</ele>
        <time>2026-07-29T08:49:26.716Z</time>
      </trkpt>
      <trkpt lat="45.74133" lon="6.73829">
        <ele>2528</ele>
        <time>2026-07-29T08:49:27.716Z</time>
      </trkpt>
      <trkpt lat="45.74132" lon="6.73829">
        <ele>2528</ele>
        <time>2026-07-29T08:49:28.716Z</time>
      </trkpt>
      <trkpt lat="45.74132" lon="6.7383">
        <ele>2529</ele>
        <time>2026-07-29T08:49:29.716Z</time>
      </trkpt>
      <trkpt lat="45.74131" lon="6.7383">
        <ele>2529</ele>
        <time>2026-07-29T08:49:30.716Z</time>
      </trkpt>
      <trkpt lat="45.7413" lon="6.73831">
        <ele>2529</ele>
        <time>2026-07-29T08:49:31.716Z</time>
      </trkpt>
      <trkpt lat="45.7413" lon="6.73831">
        <ele>2529</ele>
        <time>2026-07-29T08:49:32.716Z</time>
      </trkpt>
      <trkpt lat="45.74129" lon="6.73832">
        <ele>2530</ele>
        <time>2026-07-29T08:49:33.716Z</time>
      </trkpt>
      <trkpt lat="45.74128" lon="6.73832">
        <ele>2530</ele>
        <time>2026-07-29T08:49:34.716Z</time>
      </trkpt>
      <trkpt lat="45.74128" lon="6.73833">
        <ele>2530</ele>
        <time>2026-07-29T08:49:35.716Z</time>
      </trkpt>
      <trkpt lat="45.74127" lon="6.73832">
        <ele>2531</ele>
        <time>2026-07-29T08:49:36.716Z</time>
      </trkpt>
      <trkpt lat="45.74127" lon="6.73832">
        <ele>2531</ele>
        <time>2026-07-29T08:49:37.716Z</time>
      </trkpt>
      <trkpt lat="45.74126" lon="6.73831">
        <ele>2531</ele>
        <time>2026-07-29T08:49:38.716Z</time>
      </trkpt>
      <trkpt lat="45.74126" lon="6.7383">
        <ele>2531</ele>
        <time>2026-07-29T08:49:39.716Z</time>
      </trkpt>
      <trkpt lat="45.74125" lon="6.73829">
        <ele>2532</ele>
        <time>2026-07-29T08:49:40.716Z</time>
      </trkpt>
      <trkpt lat="45.74124" lon="6.73829">
        <ele>2532</ele>
        <time>2026-07-29T08:49:41.716Z</time>
      </trkpt>
      <trkpt lat="45.74124" lon="6.73829">
        <ele>2532</ele>
        <time>2026-07-29T08:49:42.716Z</time>
      </trkpt>
      <trkpt lat="45.74123" lon="6.73829">
        <ele>2533</ele>
        <time>2026-07-29T08:49:43.716Z</time>
      </trkpt>
      <trkpt lat="45.74123" lon="6.73829">
        <ele>2533</ele>
        <time>2026-07-29T08:49:44.716Z</time>
      </trkpt>
      <trkpt lat="45.74122" lon="6.7383">
        <ele>2533</ele>
        <time>2026-07-29T08:49:45.716Z</time>
      </trkpt>
      <trkpt lat="45.74122" lon="6.7383">
        <ele>2533</ele>
        <time>2026-07-29T08:49:46.716Z</time>
      </trkpt>
      <trkpt lat="45.74122" lon="6.7383">
        <ele>2533</ele>
        <time>2026-07-29T08:49:47.716Z</time>
      </trkpt>
      <trkpt lat="45.74122" lon="6.73831">
        <ele>2534</ele>
        <time>2026-07-29T08:49:48.716Z</time>
      </trkpt>
      <trkpt lat="45.74122" lon="6.73833">
        <ele>2534</ele>
        <time>2026-07-29T08:49:49.716Z</time>
      </trkpt>
      <trkpt lat="45.74122" lon="6.73834">
        <ele>2534</ele>
        <time>2026-07-29T08:49:50.716Z</time>
      </trkpt>
      <trkpt lat="45.74122" lon="6.73834">
        <ele>2535</ele>
        <time>2026-07-29T08:49:51.716Z</time>
      </trkpt>
      <trkpt lat="45.74122" lon="6.73835">
        <ele>2535</ele>
        <time>2026-07-29T08:49:52.716Z</time>
      </trkpt>
      <trkpt lat="45.74122" lon="6.73835">
        <ele>2535</ele>
        <time>2026-07-29T08:49:53.716Z</time>
      </trkpt>
      <trkpt lat="45.74122" lon="6.73835">
        <ele>2534</ele>
        <time>2026-07-29T08:49:54.716Z</time>
      </trkpt>
      <trkpt lat="45.74122" lon="6.73835">
        <ele>2534</ele>
        <time>2026-07-29T08:49:55.716Z</time>
      </trkpt>
      <trkpt lat="45.74122" lon="6.73835">
        <ele>2534</ele>
        <time>2026-07-29T08:49:56.716Z</time>
      </trkpt>
      <trkpt lat="45.74122" lon="6.73835">
        <ele>2534</ele>
        <time>2026-07-29T08:49:57.716Z</time>
      </trkpt>
      <trkpt lat="45.74122" lon="6.73835">
        <ele>2534</ele>
        <time>2026-07-29T08:49:58.716Z</time>
      </trkpt>
      <trkpt lat="45.74122" lon="6.73835">
        <ele>2534</ele>
        <time>2026-07-29T08:49:59.716Z</time>
      </trkpt>
      <trkpt lat="45.74122" lon="6.73835">
        <ele>2534</ele>
        <time>2026-07-29T08:50:00.716Z</time>
      </trkpt>
      <trkpt lat="45.74122" lon="6.73835">
        <ele>2533</ele>
        <time>2026-07-29T08:50:01.716Z</time>
      </trkpt>
      <trkpt lat="45.74122" lon="6.73835">
        <ele>2533</ele>
        <time>2026-07-29T08:50:02.716Z</time>
      </trkpt>
      <trkpt lat="45.74122" lon="6.73835">
        <ele>2533</ele>
        <time>2026-07-29T08:50:03.716Z</time>
      </trkpt>
      <trkpt lat="45.74122" lon="6.73835">
        <ele>2533</ele>
        <time>2026-07-29T08:50:04.716Z</time>
      </trkpt>
      <trkpt lat="45.74122" lon="6.73835">
        <ele>2533</ele>
        <time>2026-07-29T08:50:05.716Z</time>
      </trkpt>
      <trkpt lat="45.74122" lon="6.73835">
        <ele>2533</ele>
        <time>2026-07-29T08:50:06.716Z</time>
      </trkpt>
      <trkpt lat="45.74122" lon="6.73835">
        <ele>2533</ele>
        <time>2026-07-29T08:50:07.716Z</time>
      </trkpt>
      <trkpt lat="45.74122" lon="6.73835">
        <ele>2533</ele>
        <time>2026-07-29T08:50:08.716Z</time>
      </trkpt>
      <trkpt lat="45.74122" lon="6.73835">
        <ele>2534</ele>
        <time>2026-07-29T08:50:09.716Z</time>
      </trkpt>
      <trkpt lat="45.74122" lon="6.73835">
        <ele>2534</ele>
        <time>2026-07-29T08:50:10.716Z</time>
      </trkpt>
      <trkpt lat="45.74122" lon="6.73835">
        <ele>2534</ele>
        <time>2026-07-29T08:50:11.716Z</time>
      </trkpt>
      <trkpt lat="45.74122" lon="6.73835">
        <ele>2534</ele>
        <time>2026-07-29T08:50:12.716Z</time>
      </trkpt>
      <trkpt lat="45.74122" lon="6.73835">
        <ele>2534</ele>
        <time>2026-07-29T08:50:13.716Z</time>
      </trkpt>
      <trkpt lat="45.74121" lon="6.73835">
        <ele>2534</ele>
        <time>2026-07-29T08:50:14.716Z</time>
      </trkpt>
      <trkpt lat="45.74121" lon="6.73835">
        <ele>2534</ele>
        <time>2026-07-29T08:50:15.716Z</time>
      </trkpt>
      <trkpt lat="45.74121" lon="6.73835">
        <ele>2534</ele>
        <time>2026-07-29T08:50:16.716Z</time>
      </trkpt>
      <trkpt lat="45.74121" lon="6.73835">
        <ele>2534</ele>
        <time>2026-07-29T08:50:17.716Z</time>
      </trkpt>
      <trkpt lat="45.74121" lon="6.73835">
        <ele>2534</ele>
        <time>2026-07-29T08:50:18.716Z</time>
      </trkpt>
      <trkpt lat="45.74121" lon="6.73835">
        <ele>2534</ele>
        <time>2026-07-29T08:50:19.716Z</time>
      </trkpt>
      <trkpt lat="45.7412" lon="6.73833">
        <ele>2534</ele>
        <time>2026-07-29T08:50:20.716Z</time>
      </trkpt>
      <trkpt lat="45.74119" lon="6.73832">
        <ele>2534</ele>
        <time>2026-07-29T08:50:21.716Z</time>
      </trkpt>
      <trkpt lat="45.74117" lon="6.7383">
        <ele>2533</ele>
        <time>2026-07-29T08:50:22.716Z</time>
      </trkpt>
      <trkpt lat="45.74116" lon="6.73829">
        <ele>2533</ele>
        <time>2026-07-29T08:50:23.716Z</time>
      </trkpt>
      <trkpt lat="45.74115" lon="6.73828">
        <ele>2533</ele>
        <time>2026-07-29T08:50:24.716Z</time>
      </trkpt>
      <trkpt lat="45.74114" lon="6.73827">
        <ele>2532</ele>
        <time>2026-07-29T08:50:25.716Z</time>
      </trkpt>
      <trkpt lat="45.74113" lon="6.73826">
        <ele>2532</ele>
        <time>2026-07-29T08:50:26.716Z</time>
      </trkpt>
      <trkpt lat="45.74112" lon="6.73824">
        <ele>2532</ele>
        <time>2026-07-29T08:50:27.716Z</time>
      </trkpt>
      <trkpt lat="45.74112" lon="6.73822">
        <ele>2532</ele>
        <time>2026-07-29T08:50:28.716Z</time>
      </trkpt>
      <trkpt lat="45.74111" lon="6.73821">
        <ele>2531</ele>
        <time>2026-07-29T08:50:29.716Z</time>
      </trkpt>
      <trkpt lat="45.74111" lon="6.73821">
        <ele>2531</ele>
        <time>2026-07-29T08:50:30.716Z</time>
      </trkpt>
      <trkpt lat="45.7411" lon="6.7382">
        <ele>2531</ele>
        <time>2026-07-29T08:50:31.716Z</time>
      </trkpt>
      <trkpt lat="45.7411" lon="6.73819">
        <ele>2531</ele>
        <time>2026-07-29T08:50:32.716Z</time>
      </trkpt>
      <trkpt lat="45.74109" lon="6.73818">
        <ele>2531</ele>
        <time>2026-07-29T08:50:33.716Z</time>
      </trkpt>
      <trkpt lat="45.74109" lon="6.73817">
        <ele>2532</ele>
        <time>2026-07-29T08:50:34.716Z</time>
      </trkpt>
      <trkpt lat="45.74108" lon="6.73817">
        <ele>2532</ele>
        <time>2026-07-29T08:50:35.716Z</time>
      </trkpt>
      <trkpt lat="45.74108" lon="6.73816">
        <ele>2532</ele>
        <time>2026-07-29T08:50:36.716Z</time>
      </trkpt>
      <trkpt lat="45.74107" lon="6.73816">
        <ele>2532</ele>
        <time>2026-07-29T08:50:37.716Z</time>
      </trkpt>
      <trkpt lat="45.74107" lon="6.73816">
        <ele>2532</ele>
        <time>2026-07-29T08:50:38.716Z</time>
      </trkpt>
      <trkpt lat="45.74107" lon="6.73815">
        <ele>2531</ele>
        <time>2026-07-29T08:50:39.716Z</time>
      </trkpt>
      <trkpt lat="45.74106" lon="6.73815">
        <ele>2531</ele>
        <time>2026-07-29T08:50:40.716Z</time>
      </trkpt>
      <trkpt lat="45.74105" lon="6.73814">
        <ele>2531</ele>
        <time>2026-07-29T08:50:41.716Z</time>
      </trkpt>
      <trkpt lat="45.74105" lon="6.73814">
        <ele>2531</ele>
        <time>2026-07-29T08:50:42.716Z</time>
      </trkpt>
      <trkpt lat="45.74104" lon="6.73814">
        <ele>2531</ele>
        <time>2026-07-29T08:50:43.716Z</time>
      </trkpt>
      <trkpt lat="45.74103" lon="6.73814">
        <ele>2531</ele>
        <time>2026-07-29T08:50:44.716Z</time>
      </trkpt>
      <trkpt lat="45.74102" lon="6.73814">
        <ele>2531</ele>
        <time>2026-07-29T08:50:45.716Z</time>
      </trkpt>
      <trkpt lat="45.74101" lon="6.73814">
        <ele>2531</ele>
        <time>2026-07-29T08:50:46.716Z</time>
      </trkpt>
      <trkpt lat="45.741" lon="6.73813">
        <ele>2531</ele>
        <time>2026-07-29T08:50:47.716Z</time>
      </trkpt>
      <trkpt lat="45.74099" lon="6.73813">
        <ele>2531</ele>
        <time>2026-07-29T08:50:48.716Z</time>
      </trkpt>
      <trkpt lat="45.74098" lon="6.73813">
        <ele>2531</ele>
        <time>2026-07-29T08:50:49.716Z</time>
      </trkpt>
      <trkpt lat="45.74097" lon="6.73812">
        <ele>2531</ele>
        <time>2026-07-29T08:50:50.716Z</time>
      </trkpt>
      <trkpt lat="45.74096" lon="6.73811">
        <ele>2531</ele>
        <time>2026-07-29T08:50:51.716Z</time>
      </trkpt>
      <trkpt lat="45.74096" lon="6.7381">
        <ele>2531</ele>
        <time>2026-07-29T08:50:52.716Z</time>
      </trkpt>
      <trkpt lat="45.74095" lon="6.73809">
        <ele>2531</ele>
        <time>2026-07-29T08:50:53.716Z</time>
      </trkpt>
      <trkpt lat="45.74095" lon="6.73809">
        <ele>2531</ele>
        <time>2026-07-29T08:50:54.716Z</time>
      </trkpt>
      <trkpt lat="45.74094" lon="6.73809">
        <ele>2531</ele>
        <time>2026-07-29T08:50:55.716Z</time>
      </trkpt>
      <trkpt lat="45.74094" lon="6.73809">
        <ele>2531</ele>
        <time>2026-07-29T08:50:56.716Z</time>
      </trkpt>
      <trkpt lat="45.74094" lon="6.73809">
        <ele>2531</ele>
        <time>2026-07-29T08:50:57.716Z</time>
      </trkpt>
      <trkpt lat="45.74094" lon="6.7381">
        <ele>2531</ele>
        <time>2026-07-29T08:50:58.716Z</time>
      </trkpt>
      <trkpt lat="45.74093" lon="6.7381">
        <ele>2531</ele>
        <time>2026-07-29T08:50:59.716Z</time>
      </trkpt>
      <trkpt lat="45.74093" lon="6.7381">
        <ele>2531</ele>
        <time>2026-07-29T08:51:00.716Z</time>
      </trkpt>
      <trkpt lat="45.74093" lon="6.7381">
        <ele>2531</ele>
        <time>2026-07-29T08:51:01.716Z</time>
      </trkpt>
      <trkpt lat="45.74092" lon="6.7381">
        <ele>2531</ele>
        <time>2026-07-29T08:51:02.716Z</time>
      </trkpt>
      <trkpt lat="45.74092" lon="6.73809">
        <ele>2530</ele>
        <time>2026-07-29T08:51:03.716Z</time>
      </trkpt>
      <trkpt lat="45.74091" lon="6.73809">
        <ele>2530</ele>
        <time>2026-07-29T08:51:04.716Z</time>
      </trkpt>
      <trkpt lat="45.74091" lon="6.73808">
        <ele>2530</ele>
        <time>2026-07-29T08:51:05.716Z</time>
      </trkpt>
      <trkpt lat="45.74091" lon="6.73807">
        <ele>2530</ele>
        <time>2026-07-29T08:51:06.716Z</time>
      </trkpt>
      <trkpt lat="45.7409" lon="6.73806">
        <ele>2530</ele>
        <time>2026-07-29T08:51:07.716Z</time>
      </trkpt>
      <trkpt lat="45.7409" lon="6.73805">
        <ele>2530</ele>
        <time>2026-07-29T08:51:08.716Z</time>
      </trkpt>
      <trkpt lat="45.74089" lon="6.73803">
        <ele>2531</ele>
        <time>2026-07-29T08:51:09.716Z</time>
      </trkpt>
      <trkpt lat="45.74089" lon="6.73802">
        <ele>2531</ele>
        <time>2026-07-29T08:51:10.716Z</time>
      </trkpt>
      <trkpt lat="45.74088" lon="6.73801">
        <ele>2531</ele>
        <time>2026-07-29T08:51:11.716Z</time>
      </trkpt>
      <trkpt lat="45.74088" lon="6.73801">
        <ele>2531</ele>
        <time>2026-07-29T08:51:12.716Z</time>
      </trkpt>
      <trkpt lat="45.74087" lon="6.73801">
        <ele>2531</ele>
        <time>2026-07-29T08:51:13.716Z</time>
      </trkpt>
      <trkpt lat="45.74086" lon="6.73801">
        <ele>2531</ele>
        <time>2026-07-29T08:51:14.716Z</time>
      </trkpt>
      <trkpt lat="45.74086" lon="6.738">
        <ele>2531</ele>
        <time>2026-07-29T08:51:15.716Z</time>
      </trkpt>
      <trkpt lat="45.74085" lon="6.73799">
        <ele>2531</ele>
        <time>2026-07-29T08:51:16.716Z</time>
      </trkpt>
      <trkpt lat="45.74085" lon="6.73799">
        <ele>2531</ele>
        <time>2026-07-29T08:51:17.716Z</time>
      </trkpt>
      <trkpt lat="45.74084" lon="6.73798">
        <ele>2531</ele>
        <time>2026-07-29T08:51:18.716Z</time>
      </trkpt>
      <trkpt lat="45.74083" lon="6.73797">
        <ele>2532</ele>
        <time>2026-07-29T08:51:19.716Z</time>
      </trkpt>
      <trkpt lat="45.74082" lon="6.73796">
        <ele>2532</ele>
        <time>2026-07-29T08:51:20.716Z</time>
      </trkpt>
      <trkpt lat="45.74081" lon="6.73795">
        <ele>2532</ele>
        <time>2026-07-29T08:51:21.716Z</time>
      </trkpt>
      <trkpt lat="45.7408" lon="6.73794">
        <ele>2532</ele>
        <time>2026-07-29T08:51:22.716Z</time>
      </trkpt>
      <trkpt lat="45.74078" lon="6.73793">
        <ele>2532</ele>
        <time>2026-07-29T08:51:23.716Z</time>
      </trkpt>
      <trkpt lat="45.74077" lon="6.73792">
        <ele>2532</ele>
        <time>2026-07-29T08:51:24.716Z</time>
      </trkpt>
      <trkpt lat="45.74075" lon="6.73792">
        <ele>2532</ele>
        <time>2026-07-29T08:51:25.716Z</time>
      </trkpt>
      <trkpt lat="45.74074" lon="6.73792">
        <ele>2532</ele>
        <time>2026-07-29T08:51:26.716Z</time>
      </trkpt>
      <trkpt lat="45.74073" lon="6.73792">
        <ele>2532</ele>
        <time>2026-07-29T08:51:27.716Z</time>
      </trkpt>
      <trkpt lat="45.74072" lon="6.73792">
        <ele>2532</ele>
        <time>2026-07-29T08:51:28.716Z</time>
      </trkpt>
      <trkpt lat="45.74072" lon="6.73793">
        <ele>2532</ele>
        <time>2026-07-29T08:51:29.716Z</time>
      </trkpt>
      <trkpt lat="45.7407" lon="6.73793">
        <ele>2532</ele>
        <time>2026-07-29T08:51:30.716Z</time>
      </trkpt>
      <trkpt lat="45.74069" lon="6.73793">
        <ele>2532</ele>
        <time>2026-07-29T08:51:31.716Z</time>
      </trkpt>
      <trkpt lat="45.74068" lon="6.73793">
        <ele>2532</ele>
        <time>2026-07-29T08:51:32.716Z</time>
      </trkpt>
      <trkpt lat="45.74067" lon="6.73793">
        <ele>2533</ele>
        <time>2026-07-29T08:51:33.716Z</time>
      </trkpt>
      <trkpt lat="45.74066" lon="6.73792">
        <ele>2533</ele>
        <time>2026-07-29T08:51:34.716Z</time>
      </trkpt>
      <trkpt lat="45.74065" lon="6.73792">
        <ele>2533</ele>
        <time>2026-07-29T08:51:35.716Z</time>
      </trkpt>
      <trkpt lat="45.74065" lon="6.73791">
        <ele>2533</ele>
        <time>2026-07-29T08:51:36.716Z</time>
      </trkpt>
      <trkpt lat="45.74064" lon="6.73789">
        <ele>2534</ele>
        <time>2026-07-29T08:51:37.716Z</time>
      </trkpt>
      <trkpt lat="45.74063" lon="6.73788">
        <ele>2534</ele>
        <time>2026-07-29T08:51:38.716Z</time>
      </trkpt>
      <trkpt lat="45.74063" lon="6.73787">
        <ele>2534</ele>
        <time>2026-07-29T08:51:39.716Z</time>
      </trkpt>
      <trkpt lat="45.74062" lon="6.73785">
        <ele>2534</ele>
        <time>2026-07-29T08:51:40.716Z</time>
      </trkpt>
      <trkpt lat="45.74062" lon="6.73783">
        <ele>2533</ele>
        <time>2026-07-29T08:51:41.716Z</time>
      </trkpt>
      <trkpt lat="45.74061" lon="6.73782">
        <ele>2534</ele>
        <time>2026-07-29T08:51:42.716Z</time>
      </trkpt>
      <trkpt lat="45.7406" lon="6.7378">
        <ele>2534</ele>
        <time>2026-07-29T08:51:43.716Z</time>
      </trkpt>
      <trkpt lat="45.74059" lon="6.73779">
        <ele>2534</ele>
        <time>2026-07-29T08:51:44.716Z</time>
      </trkpt>
      <trkpt lat="45.74058" lon="6.73778">
        <ele>2534</ele>
        <time>2026-07-29T08:51:45.716Z</time>
      </trkpt>
      <trkpt lat="45.74057" lon="6.73778">
        <ele>2534</ele>
        <time>2026-07-29T08:51:46.716Z</time>
      </trkpt>
      <trkpt lat="45.74056" lon="6.73777">
        <ele>2534</ele>
        <time>2026-07-29T08:51:47.716Z</time>
      </trkpt>
      <trkpt lat="45.74055" lon="6.73777">
        <ele>2534</ele>
        <time>2026-07-29T08:51:48.716Z</time>
      </trkpt>
      <trkpt lat="45.74054" lon="6.73777">
        <ele>2535</ele>
        <time>2026-07-29T08:51:49.716Z</time>
      </trkpt>
      <trkpt lat="45.74053" lon="6.73777">
        <ele>2535</ele>
        <time>2026-07-29T08:51:50.716Z</time>
      </trkpt>
      <trkpt lat="45.74052" lon="6.73776">
        <ele>2535</ele>
        <time>2026-07-29T08:51:51.716Z</time>
      </trkpt>
      <trkpt lat="45.74051" lon="6.73775">
        <ele>2536</ele>
        <time>2026-07-29T08:51:52.716Z</time>
      </trkpt>
      <trkpt lat="45.7405" lon="6.73774">
        <ele>2536</ele>
        <time>2026-07-29T08:51:53.716Z</time>
      </trkpt>
      <trkpt lat="45.74049" lon="6.73774">
        <ele>2536</ele>
        <time>2026-07-29T08:51:54.716Z</time>
      </trkpt>
      <trkpt lat="45.74048" lon="6.73773">
        <ele>2536</ele>
        <time>2026-07-29T08:51:55.716Z</time>
      </trkpt>
      <trkpt lat="45.74047" lon="6.73773">
        <ele>2537</ele>
        <time>2026-07-29T08:51:56.716Z</time>
      </trkpt>
      <trkpt lat="45.74045" lon="6.73772">
        <ele>2537</ele>
        <time>2026-07-29T08:51:57.716Z</time>
      </trkpt>
      <trkpt lat="45.74044" lon="6.73771">
        <ele>2537</ele>
        <time>2026-07-29T08:51:58.716Z</time>
      </trkpt>
      <trkpt lat="45.74042" lon="6.7377">
        <ele>2537</ele>
        <time>2026-07-29T08:51:59.716Z</time>
      </trkpt>
      <trkpt lat="45.7404" lon="6.73769">
        <ele>2537</ele>
        <time>2026-07-29T08:52:00.716Z</time>
      </trkpt>
      <trkpt lat="45.74039" lon="6.73768">
        <ele>2537</ele>
        <time>2026-07-29T08:52:01.716Z</time>
      </trkpt>
      <trkpt lat="45.74037" lon="6.73767">
        <ele>2538</ele>
        <time>2026-07-29T08:52:02.716Z</time>
      </trkpt>
      <trkpt lat="45.74035" lon="6.73766">
        <ele>2538</ele>
        <time>2026-07-29T08:52:03.716Z</time>
      </trkpt>
      <trkpt lat="45.74034" lon="6.73765">
        <ele>2538</ele>
        <time>2026-07-29T08:52:04.716Z</time>
      </trkpt>
      <trkpt lat="45.74033" lon="6.73764">
        <ele>2538</ele>
        <time>2026-07-29T08:52:05.716Z</time>
      </trkpt>
      <trkpt lat="45.74032" lon="6.73762">
        <ele>2538</ele>
        <time>2026-07-29T08:52:06.716Z</time>
      </trkpt>
      <trkpt lat="45.74032" lon="6.73761">
        <ele>2538</ele>
        <time>2026-07-29T08:52:07.716Z</time>
      </trkpt>
      <trkpt lat="45.74032" lon="6.7376">
        <ele>2538</ele>
        <time>2026-07-29T08:52:08.716Z</time>
      </trkpt>
      <trkpt lat="45.74031" lon="6.73759">
        <ele>2538</ele>
        <time>2026-07-29T08:52:09.716Z</time>
      </trkpt>
      <trkpt lat="45.74031" lon="6.73759">
        <ele>2538</ele>
        <time>2026-07-29T08:52:10.716Z</time>
      </trkpt>
      <trkpt lat="45.7403" lon="6.73759">
        <ele>2539</ele>
        <time>2026-07-29T08:52:11.716Z</time>
      </trkpt>
      <trkpt lat="45.74029" lon="6.73758">
        <ele>2539</ele>
        <time>2026-07-29T08:52:12.716Z</time>
      </trkpt>
      <trkpt lat="45.74029" lon="6.73758">
        <ele>2538</ele>
        <time>2026-07-29T08:52:13.716Z</time>
      </trkpt>
      <trkpt lat="45.74028" lon="6.73757">
        <ele>2539</ele>
        <time>2026-07-29T08:52:14.716Z</time>
      </trkpt>
      <trkpt lat="45.74027" lon="6.73756">
        <ele>2539</ele>
        <time>2026-07-29T08:52:15.716Z</time>
      </trkpt>
      <trkpt lat="45.74027" lon="6.73755">
        <ele>2539</ele>
        <time>2026-07-29T08:52:16.716Z</time>
      </trkpt>
      <trkpt lat="45.74026" lon="6.73754">
        <ele>2539</ele>
        <time>2026-07-29T08:52:17.716Z</time>
      </trkpt>
      <trkpt lat="45.74025" lon="6.73753">
        <ele>2539</ele>
        <time>2026-07-29T08:52:18.716Z</time>
      </trkpt>
      <trkpt lat="45.74025" lon="6.73752">
        <ele>2539</ele>
        <time>2026-07-29T08:52:19.716Z</time>
      </trkpt>
      <trkpt lat="45.74024" lon="6.73751">
        <ele>2539</ele>
        <time>2026-07-29T08:52:20.716Z</time>
      </trkpt>
      <trkpt lat="45.74024" lon="6.73749">
        <ele>2539</ele>
        <time>2026-07-29T08:52:21.716Z</time>
      </trkpt>
      <trkpt lat="45.74023" lon="6.73748">
        <ele>2539</ele>
        <time>2026-07-29T08:52:22.716Z</time>
      </trkpt>
      <trkpt lat="45.74022" lon="6.73748">
        <ele>2539</ele>
        <time>2026-07-29T08:52:23.716Z</time>
      </trkpt>
      <trkpt lat="45.74022" lon="6.73747">
        <ele>2539</ele>
        <time>2026-07-29T08:52:24.716Z</time>
      </trkpt>
      <trkpt lat="45.74021" lon="6.73746">
        <ele>2539</ele>
        <time>2026-07-29T08:52:25.716Z</time>
      </trkpt>
      <trkpt lat="45.7402" lon="6.73745">
        <ele>2538</ele>
        <time>2026-07-29T08:52:26.716Z</time>
      </trkpt>
      <trkpt lat="45.74019" lon="6.73743">
        <ele>2538</ele>
        <time>2026-07-29T08:52:27.716Z</time>
      </trkpt>
      <trkpt lat="45.74018" lon="6.73742">
        <ele>2538</ele>
        <time>2026-07-29T08:52:28.716Z</time>
      </trkpt>
      <trkpt lat="45.74018" lon="6.7374">
        <ele>2538</ele>
        <time>2026-07-29T08:52:29.716Z</time>
      </trkpt>
      <trkpt lat="45.74017" lon="6.73739">
        <ele>2537</ele>
        <time>2026-07-29T08:52:30.716Z</time>
      </trkpt>
      <trkpt lat="45.74016" lon="6.73738">
        <ele>2537</ele>
        <time>2026-07-29T08:52:31.716Z</time>
      </trkpt>
      <trkpt lat="45.74015" lon="6.73737">
        <ele>2536</ele>
        <time>2026-07-29T08:52:32.716Z</time>
      </trkpt>
      <trkpt lat="45.74013" lon="6.73737">
        <ele>2536</ele>
        <time>2026-07-29T08:52:33.716Z</time>
      </trkpt>
      <trkpt lat="45.74012" lon="6.73737">
        <ele>2536</ele>
        <time>2026-07-29T08:52:34.716Z</time>
      </trkpt>
      <trkpt lat="45.74011" lon="6.73738">
        <ele>2536</ele>
        <time>2026-07-29T08:52:35.716Z</time>
      </trkpt>
      <trkpt lat="45.74009" lon="6.73739">
        <ele>2536</ele>
        <time>2026-07-29T08:52:36.716Z</time>
      </trkpt>
      <trkpt lat="45.74007" lon="6.7374">
        <ele>2536</ele>
        <time>2026-07-29T08:52:37.716Z</time>
      </trkpt>
      <trkpt lat="45.74006" lon="6.73741">
        <ele>2536</ele>
        <time>2026-07-29T08:52:38.716Z</time>
      </trkpt>
      <trkpt lat="45.74005" lon="6.73741">
        <ele>2536</ele>
        <time>2026-07-29T08:52:39.716Z</time>
      </trkpt>
      <trkpt lat="45.74004" lon="6.73741">
        <ele>2536</ele>
        <time>2026-07-29T08:52:40.716Z</time>
      </trkpt>
      <trkpt lat="45.74003" lon="6.73742">
        <ele>2536</ele>
        <time>2026-07-29T08:52:41.716Z</time>
      </trkpt>
      <trkpt lat="45.74003" lon="6.73741">
        <ele>2537</ele>
        <time>2026-07-29T08:52:42.716Z</time>
      </trkpt>
      <trkpt lat="45.74003" lon="6.73741">
        <ele>2537</ele>
        <time>2026-07-29T08:52:43.716Z</time>
      </trkpt>
      <trkpt lat="45.74002" lon="6.73741">
        <ele>2537</ele>
        <time>2026-07-29T08:52:44.716Z</time>
      </trkpt>
      <trkpt lat="45.74002" lon="6.7374">
        <ele>2537</ele>
        <time>2026-07-29T08:52:45.716Z</time>
      </trkpt>
      <trkpt lat="45.74001" lon="6.7374">
        <ele>2538</ele>
        <time>2026-07-29T08:52:46.716Z</time>
      </trkpt>
      <trkpt lat="45.74001" lon="6.73739">
        <ele>2538</ele>
        <time>2026-07-29T08:52:47.716Z</time>
      </trkpt>
      <trkpt lat="45.74001" lon="6.73738">
        <ele>2538</ele>
        <time>2026-07-29T08:52:48.716Z</time>
      </trkpt>
      <trkpt lat="45.74001" lon="6.73738">
        <ele>2539</ele>
        <time>2026-07-29T08:52:49.716Z</time>
      </trkpt>
      <trkpt lat="45.74001" lon="6.73737">
        <ele>2539</ele>
        <time>2026-07-29T08:52:50.716Z</time>
      </trkpt>
      <trkpt lat="45.74" lon="6.73737">
        <ele>2540</ele>
        <time>2026-07-29T08:52:51.716Z</time>
      </trkpt>
      <trkpt lat="45.74" lon="6.73736">
        <ele>2540</ele>
        <time>2026-07-29T08:52:52.716Z</time>
      </trkpt>
      <trkpt lat="45.74" lon="6.73736">
        <ele>2540</ele>
        <time>2026-07-29T08:52:53.716Z</time>
      </trkpt>
      <trkpt lat="45.73999" lon="6.73734">
        <ele>2540</ele>
        <time>2026-07-29T08:52:54.716Z</time>
      </trkpt>
      <trkpt lat="45.73999" lon="6.73733">
        <ele>2540</ele>
        <time>2026-07-29T08:52:55.716Z</time>
      </trkpt>
      <trkpt lat="45.73998" lon="6.73731">
        <ele>2540</ele>
        <time>2026-07-29T08:52:56.716Z</time>
      </trkpt>
      <trkpt lat="45.73998" lon="6.7373">
        <ele>2540</ele>
        <time>2026-07-29T08:52:57.716Z</time>
      </trkpt>
      <trkpt lat="45.73998" lon="6.73729">
        <ele>2540</ele>
        <time>2026-07-29T08:52:58.716Z</time>
      </trkpt>
      <trkpt lat="45.73997" lon="6.73728">
        <ele>2540</ele>
        <time>2026-07-29T08:52:59.716Z</time>
      </trkpt>
      <trkpt lat="45.73997" lon="6.73726">
        <ele>2541</ele>
        <time>2026-07-29T08:53:00.716Z</time>
      </trkpt>
      <trkpt lat="45.73997" lon="6.73725">
        <ele>2541</ele>
        <time>2026-07-29T08:53:01.716Z</time>
      </trkpt>
      <trkpt lat="45.73996" lon="6.73724">
        <ele>2541</ele>
        <time>2026-07-29T08:53:02.716Z</time>
      </trkpt>
      <trkpt lat="45.73995" lon="6.73723">
        <ele>2542</ele>
        <time>2026-07-29T08:53:03.716Z</time>
      </trkpt>
      <trkpt lat="45.73995" lon="6.73722">
        <ele>2542</ele>
        <time>2026-07-29T08:53:04.716Z</time>
      </trkpt>
      <trkpt lat="45.73994" lon="6.73721">
        <ele>2543</ele>
        <time>2026-07-29T08:53:05.716Z</time>
      </trkpt>
      <trkpt lat="45.73993" lon="6.7372">
        <ele>2543</ele>
        <time>2026-07-29T08:53:06.716Z</time>
      </trkpt>
      <trkpt lat="45.73992" lon="6.7372">
        <ele>2544</ele>
        <time>2026-07-29T08:53:07.716Z</time>
      </trkpt>
      <trkpt lat="45.73992" lon="6.73719">
        <ele>2544</ele>
        <time>2026-07-29T08:53:08.716Z</time>
      </trkpt>
      <trkpt lat="45.73991" lon="6.73719">
        <ele>2544</ele>
        <time>2026-07-29T08:53:09.716Z</time>
      </trkpt>
      <trkpt lat="45.73991" lon="6.73719">
        <ele>2544</ele>
        <time>2026-07-29T08:53:10.716Z</time>
      </trkpt>
      <trkpt lat="45.73991" lon="6.73718">
        <ele>2544</ele>
        <time>2026-07-29T08:53:11.716Z</time>
      </trkpt>
      <trkpt lat="45.7399" lon="6.73718">
        <ele>2544</ele>
        <time>2026-07-29T08:53:12.716Z</time>
      </trkpt>
      <trkpt lat="45.73989" lon="6.73717">
        <ele>2544</ele>
        <time>2026-07-29T08:53:13.716Z</time>
      </trkpt>
      <trkpt lat="45.73989" lon="6.73716">
        <ele>2544</ele>
        <time>2026-07-29T08:53:14.716Z</time>
      </trkpt>
      <trkpt lat="45.73989" lon="6.73715">
        <ele>2544</ele>
        <time>2026-07-29T08:53:15.716Z</time>
      </trkpt>
      <trkpt lat="45.73988" lon="6.73713">
        <ele>2544</ele>
        <time>2026-07-29T08:53:16.716Z</time>
      </trkpt>
      <trkpt lat="45.73987" lon="6.73712">
        <ele>2545</ele>
        <time>2026-07-29T08:53:17.716Z</time>
      </trkpt>
      <trkpt lat="45.73987" lon="6.73711">
        <ele>2545</ele>
        <time>2026-07-29T08:53:18.716Z</time>
      </trkpt>
      <trkpt lat="45.73987" lon="6.73709">
        <ele>2546</ele>
        <time>2026-07-29T08:53:19.716Z</time>
      </trkpt>
      <trkpt lat="45.73986" lon="6.73708">
        <ele>2546</ele>
        <time>2026-07-29T08:53:20.716Z</time>
      </trkpt>
      <trkpt lat="45.73986" lon="6.73707">
        <ele>2546</ele>
        <time>2026-07-29T08:53:21.716Z</time>
      </trkpt>
      <trkpt lat="45.73986" lon="6.73706">
        <ele>2547</ele>
        <time>2026-07-29T08:53:22.716Z</time>
      </trkpt>
      <trkpt lat="45.73986" lon="6.73706">
        <ele>2547</ele>
        <time>2026-07-29T08:53:23.716Z</time>
      </trkpt>
      <trkpt lat="45.73986" lon="6.73705">
        <ele>2547</ele>
        <time>2026-07-29T08:53:24.716Z</time>
      </trkpt>
      <trkpt lat="45.73985" lon="6.73705">
        <ele>2547</ele>
        <time>2026-07-29T08:53:25.716Z</time>
      </trkpt>
      <trkpt lat="45.73984" lon="6.73706">
        <ele>2547</ele>
        <time>2026-07-29T08:53:26.716Z</time>
      </trkpt>
      <trkpt lat="45.73983" lon="6.73706">
        <ele>2547</ele>
        <time>2026-07-29T08:53:27.716Z</time>
      </trkpt>
      <trkpt lat="45.73983" lon="6.73705">
        <ele>2548</ele>
        <time>2026-07-29T08:53:28.716Z</time>
      </trkpt>
      <trkpt lat="45.73982" lon="6.73705">
        <ele>2548</ele>
        <time>2026-07-29T08:53:29.716Z</time>
      </trkpt>
      <trkpt lat="45.73982" lon="6.73704">
        <ele>2548</ele>
        <time>2026-07-29T08:53:30.716Z</time>
      </trkpt>
      <trkpt lat="45.73981" lon="6.73703">
        <ele>2548</ele>
        <time>2026-07-29T08:53:31.716Z</time>
      </trkpt>
      <trkpt lat="45.7398" lon="6.73702">
        <ele>2548</ele>
        <time>2026-07-29T08:53:32.716Z</time>
      </trkpt>
      <trkpt lat="45.7398" lon="6.73701">
        <ele>2548</ele>
        <time>2026-07-29T08:53:33.716Z</time>
      </trkpt>
      <trkpt lat="45.7398" lon="6.73699">
        <ele>2548</ele>
        <time>2026-07-29T08:53:34.716Z</time>
      </trkpt>
      <trkpt lat="45.73979" lon="6.73698">
        <ele>2548</ele>
        <time>2026-07-29T08:53:35.716Z</time>
      </trkpt>
      <trkpt lat="45.73979" lon="6.73697">
        <ele>2548</ele>
        <time>2026-07-29T08:53:36.716Z</time>
      </trkpt>
      <trkpt lat="45.73979" lon="6.73697">
        <ele>2549</ele>
        <time>2026-07-29T08:53:37.716Z</time>
      </trkpt>
      <trkpt lat="45.73978" lon="6.73696">
        <ele>2549</ele>
        <time>2026-07-29T08:53:38.716Z</time>
      </trkpt>
      <trkpt lat="45.73977" lon="6.73695">
        <ele>2549</ele>
        <time>2026-07-29T08:53:39.716Z</time>
      </trkpt>
      <trkpt lat="45.73977" lon="6.73694">
        <ele>2549</ele>
        <time>2026-07-29T08:53:40.716Z</time>
      </trkpt>
      <trkpt lat="45.73976" lon="6.73694">
        <ele>2550</ele>
        <time>2026-07-29T08:53:41.716Z</time>
      </trkpt>
      <trkpt lat="45.73975" lon="6.73693">
        <ele>2550</ele>
        <time>2026-07-29T08:53:42.716Z</time>
      </trkpt>
      <trkpt lat="45.73975" lon="6.73692">
        <ele>2550</ele>
        <time>2026-07-29T08:53:43.716Z</time>
      </trkpt>
      <trkpt lat="45.73975" lon="6.73692">
        <ele>2550</ele>
        <time>2026-07-29T08:53:44.716Z</time>
      </trkpt>
      <trkpt lat="45.73974" lon="6.73691">
        <ele>2550</ele>
        <time>2026-07-29T08:53:45.716Z</time>
      </trkpt>
      <trkpt lat="45.73974" lon="6.7369">
        <ele>2550</ele>
        <time>2026-07-29T08:53:46.716Z</time>
      </trkpt>
      <trkpt lat="45.73973" lon="6.73689">
        <ele>2551</ele>
        <time>2026-07-29T08:53:47.716Z</time>
      </trkpt>
      <trkpt lat="45.73973" lon="6.73689">
        <ele>2551</ele>
        <time>2026-07-29T08:53:48.716Z</time>
      </trkpt>
      <trkpt lat="45.73972" lon="6.73689">
        <ele>2552</ele>
        <time>2026-07-29T08:53:49.716Z</time>
      </trkpt>
      <trkpt lat="45.73971" lon="6.73688">
        <ele>2552</ele>
        <time>2026-07-29T08:53:50.716Z</time>
      </trkpt>
      <trkpt lat="45.73971" lon="6.73688">
        <ele>2552</ele>
        <time>2026-07-29T08:53:51.716Z</time>
      </trkpt>
      <trkpt lat="45.7397" lon="6.73687">
        <ele>2552</ele>
        <time>2026-07-29T08:53:52.716Z</time>
      </trkpt>
      <trkpt lat="45.7397" lon="6.73686">
        <ele>2551</ele>
        <time>2026-07-29T08:53:53.716Z</time>
      </trkpt>
      <trkpt lat="45.73969" lon="6.73686">
        <ele>2551</ele>
        <time>2026-07-29T08:53:54.716Z</time>
      </trkpt>
      <trkpt lat="45.73969" lon="6.73686">
        <ele>2551</ele>
        <time>2026-07-29T08:53:55.716Z</time>
      </trkpt>
      <trkpt lat="45.73969" lon="6.73686">
        <ele>2552</ele>
        <time>2026-07-29T08:53:56.716Z</time>
      </trkpt>
      <trkpt lat="45.73968" lon="6.73686">
        <ele>2552</ele>
        <time>2026-07-29T08:53:57.716Z</time>
      </trkpt>
      <trkpt lat="45.73968" lon="6.73685">
        <ele>2552</ele>
        <time>2026-07-29T08:53:58.716Z</time>
      </trkpt>
      <trkpt lat="45.73968" lon="6.73685">
        <ele>2552</ele>
        <time>2026-07-29T08:53:59.716Z</time>
      </trkpt>
      <trkpt lat="45.73968" lon="6.73685">
        <ele>2552</ele>
        <time>2026-07-29T08:54:00.716Z</time>
      </trkpt>
      <trkpt lat="45.73968" lon="6.73685">
        <ele>2553</ele>
        <time>2026-07-29T08:54:01.716Z</time>
      </trkpt>
      <trkpt lat="45.73968" lon="6.73685">
        <ele>2554</ele>
        <time>2026-07-29T08:54:02.716Z</time>
      </trkpt>
      <trkpt lat="45.73968" lon="6.73685">
        <ele>2555</ele>
        <time>2026-07-29T08:54:03.716Z</time>
      </trkpt>
      <trkpt lat="45.73968" lon="6.73685">
        <ele>2556</ele>
        <time>2026-07-29T08:54:04.716Z</time>
      </trkpt>
      <trkpt lat="45.73968" lon="6.73685">
        <ele>2557</ele>
        <time>2026-07-29T08:54:05.716Z</time>
      </trkpt>
      <trkpt lat="45.73968" lon="6.73685">
        <ele>2557</ele>
        <time>2026-07-29T08:54:06.716Z</time>
      </trkpt>
      <trkpt lat="45.73968" lon="6.73684">
        <ele>2558</ele>
        <time>2026-07-29T08:54:07.716Z</time>
      </trkpt>
      <trkpt lat="45.73968" lon="6.73684">
        <ele>2558</ele>
        <time>2026-07-29T08:54:08.716Z</time>
      </trkpt>
      <trkpt lat="45.73968" lon="6.73683">
        <ele>2559</ele>
        <time>2026-07-29T08:54:09.716Z</time>
      </trkpt>
      <trkpt lat="45.73968" lon="6.73682">
        <ele>2559</ele>
        <time>2026-07-29T08:54:10.716Z</time>
      </trkpt>
      <trkpt lat="45.73968" lon="6.73682">
        <ele>2560</ele>
        <time>2026-07-29T08:54:11.716Z</time>
      </trkpt>
      <trkpt lat="45.73967" lon="6.73681">
        <ele>2560</ele>
        <time>2026-07-29T08:54:12.716Z</time>
      </trkpt>
      <trkpt lat="45.73967" lon="6.73681">
        <ele>2560</ele>
        <time>2026-07-29T08:54:13.716Z</time>
      </trkpt>
      <trkpt lat="45.73967" lon="6.7368">
        <ele>2561</ele>
        <time>2026-07-29T08:54:14.716Z</time>
      </trkpt>
      <trkpt lat="45.73967" lon="6.7368">
        <ele>2561</ele>
        <time>2026-07-29T08:54:15.716Z</time>
      </trkpt>
      <trkpt lat="45.73967" lon="6.73679">
        <ele>2561</ele>
        <time>2026-07-29T08:54:16.716Z</time>
      </trkpt>
      <trkpt lat="45.73966" lon="6.73679">
        <ele>2561</ele>
        <time>2026-07-29T08:54:17.716Z</time>
      </trkpt>
      <trkpt lat="45.73966" lon="6.73679">
        <ele>2562</ele>
        <time>2026-07-29T08:54:18.716Z</time>
      </trkpt>
      <trkpt lat="45.73965" lon="6.73679">
        <ele>2562</ele>
        <time>2026-07-29T08:54:19.716Z</time>
      </trkpt>
      <trkpt lat="45.73965" lon="6.73678">
        <ele>2562</ele>
        <time>2026-07-29T08:54:20.716Z</time>
      </trkpt>
      <trkpt lat="45.73965" lon="6.73677">
        <ele>2562</ele>
        <time>2026-07-29T08:54:21.716Z</time>
      </trkpt>
      <trkpt lat="45.73965" lon="6.73677">
        <ele>2562</ele>
        <time>2026-07-29T08:54:22.716Z</time>
      </trkpt>
      <trkpt lat="45.73965" lon="6.73676">
        <ele>2562</ele>
        <time>2026-07-29T08:54:23.716Z</time>
      </trkpt>
      <trkpt lat="45.73965" lon="6.73675">
        <ele>2563</ele>
        <time>2026-07-29T08:54:24.716Z</time>
      </trkpt>
      <trkpt lat="45.73964" lon="6.73675">
        <ele>2563</ele>
        <time>2026-07-29T08:54:25.716Z</time>
      </trkpt>
      <trkpt lat="45.73963" lon="6.73674">
        <ele>2563</ele>
        <time>2026-07-29T08:54:26.716Z</time>
      </trkpt>
      <trkpt lat="45.73963" lon="6.73674">
        <ele>2563</ele>
        <time>2026-07-29T08:54:27.716Z</time>
      </trkpt>
      <trkpt lat="45.73962" lon="6.73673">
        <ele>2564</ele>
        <time>2026-07-29T08:54:28.716Z</time>
      </trkpt>
      <trkpt lat="45.73961" lon="6.73672">
        <ele>2564</ele>
        <time>2026-07-29T08:54:29.716Z</time>
      </trkpt>
      <trkpt lat="45.73961" lon="6.7367">
        <ele>2564</ele>
        <time>2026-07-29T08:54:30.716Z</time>
      </trkpt>
      <trkpt lat="45.7396" lon="6.73669">
        <ele>2565</ele>
        <time>2026-07-29T08:54:31.716Z</time>
      </trkpt>
      <trkpt lat="45.7396" lon="6.73668">
        <ele>2565</ele>
        <time>2026-07-29T08:54:32.716Z</time>
      </trkpt>
      <trkpt lat="45.7396" lon="6.73668">
        <ele>2565</ele>
        <time>2026-07-29T08:54:33.716Z</time>
      </trkpt>
      <trkpt lat="45.7396" lon="6.73666">
        <ele>2565</ele>
        <time>2026-07-29T08:54:34.716Z</time>
      </trkpt>
      <trkpt lat="45.73961" lon="6.73666">
        <ele>2566</ele>
        <time>2026-07-29T08:54:35.716Z</time>
      </trkpt>
      <trkpt lat="45.73961" lon="6.73665">
        <ele>2566</ele>
        <time>2026-07-29T08:54:36.716Z</time>
      </trkpt>
      <trkpt lat="45.73961" lon="6.73665">
        <ele>2566</ele>
        <time>2026-07-29T08:54:37.716Z</time>
      </trkpt>
      <trkpt lat="45.73961" lon="6.73665">
        <ele>2567</ele>
        <time>2026-07-29T08:54:38.716Z</time>
      </trkpt>
      <trkpt lat="45.73962" lon="6.73665">
        <ele>2567</ele>
        <time>2026-07-29T08:54:39.716Z</time>
      </trkpt>
      <trkpt lat="45.73962" lon="6.73665">
        <ele>2568</ele>
        <time>2026-07-29T08:54:40.716Z</time>
      </trkpt>
      <trkpt lat="45.73962" lon="6.73665">
        <ele>2568</ele>
        <time>2026-07-29T08:54:41.716Z</time>
      </trkpt>
      <trkpt lat="45.73962" lon="6.73664">
        <ele>2569</ele>
        <time>2026-07-29T08:54:42.716Z</time>
      </trkpt>
      <trkpt lat="45.73962" lon="6.73664">
        <ele>2569</ele>
        <time>2026-07-29T08:54:43.716Z</time>
      </trkpt>
      <trkpt lat="45.73962" lon="6.73664">
        <ele>2569</ele>
        <time>2026-07-29T08:54:44.716Z</time>
      </trkpt>
      <trkpt lat="45.73962" lon="6.73663">
        <ele>2569</ele>
        <time>2026-07-29T08:54:45.716Z</time>
      </trkpt>
      <trkpt lat="45.73962" lon="6.73663">
        <ele>2570</ele>
        <time>2026-07-29T08:54:46.716Z</time>
      </trkpt>
      <trkpt lat="45.73962" lon="6.73662">
        <ele>2570</ele>
        <time>2026-07-29T08:54:47.716Z</time>
      </trkpt>
      <trkpt lat="45.73962" lon="6.73662">
        <ele>2570</ele>
        <time>2026-07-29T08:54:48.716Z</time>
      </trkpt>
      <trkpt lat="45.73962" lon="6.73661">
        <ele>2569</ele>
        <time>2026-07-29T08:54:49.716Z</time>
      </trkpt>
      <trkpt lat="45.73962" lon="6.7366">
        <ele>2570</ele>
        <time>2026-07-29T08:54:50.716Z</time>
      </trkpt>
      <trkpt lat="45.73962" lon="6.7366">
        <ele>2570</ele>
        <time>2026-07-29T08:54:51.716Z</time>
      </trkpt>
      <trkpt lat="45.73963" lon="6.73659">
        <ele>2569</ele>
        <time>2026-07-29T08:54:52.716Z</time>
      </trkpt>
      <trkpt lat="45.73963" lon="6.73658">
        <ele>2569</ele>
        <time>2026-07-29T08:54:53.716Z</time>
      </trkpt>
      <trkpt lat="45.73964" lon="6.73657">
        <ele>2568</ele>
        <time>2026-07-29T08:54:54.716Z</time>
      </trkpt>
      <trkpt lat="45.73964" lon="6.73656">
        <ele>2568</ele>
        <time>2026-07-29T08:54:55.716Z</time>
      </trkpt>
      <trkpt lat="45.73964" lon="6.73654">
        <ele>2567</ele>
        <time>2026-07-29T08:54:56.716Z</time>
      </trkpt>
      <trkpt lat="45.73964" lon="6.73653">
        <ele>2567</ele>
        <time>2026-07-29T08:54:57.716Z</time>
      </trkpt>
      <trkpt lat="45.73963" lon="6.73652">
        <ele>2567</ele>
        <time>2026-07-29T08:54:58.716Z</time>
      </trkpt>
      <trkpt lat="45.73963" lon="6.73651">
        <ele>2567</ele>
        <time>2026-07-29T08:54:59.716Z</time>
      </trkpt>
      <trkpt lat="45.73962" lon="6.7365">
        <ele>2566</ele>
        <time>2026-07-29T08:55:00.716Z</time>
      </trkpt>
      <trkpt lat="45.73961" lon="6.73649">
        <ele>2566</ele>
        <time>2026-07-29T08:55:01.716Z</time>
      </trkpt>
      <trkpt lat="45.73961" lon="6.73648">
        <ele>2566</ele>
        <time>2026-07-29T08:55:02.716Z</time>
      </trkpt>
      <trkpt lat="45.7396" lon="6.73648">
        <ele>2566</ele>
        <time>2026-07-29T08:55:03.716Z</time>
      </trkpt>
      <trkpt lat="45.73959" lon="6.73647">
        <ele>2567</ele>
        <time>2026-07-29T08:55:04.716Z</time>
      </trkpt>
      <trkpt lat="45.73959" lon="6.73647">
        <ele>2567</ele>
        <time>2026-07-29T08:55:05.716Z</time>
      </trkpt>
      <trkpt lat="45.73958" lon="6.73646">
        <ele>2567</ele>
        <time>2026-07-29T08:55:06.716Z</time>
      </trkpt>
      <trkpt lat="45.73958" lon="6.73644">
        <ele>2567</ele>
        <time>2026-07-29T08:55:07.716Z</time>
      </trkpt>
      <trkpt lat="45.73958" lon="6.73643">
        <ele>2567</ele>
        <time>2026-07-29T08:55:08.716Z</time>
      </trkpt>
      <trkpt lat="45.73957" lon="6.73642">
        <ele>2567</ele>
        <time>2026-07-29T08:55:09.716Z</time>
      </trkpt>
      <trkpt lat="45.73957" lon="6.73641">
        <ele>2567</ele>
        <time>2026-07-29T08:55:10.716Z</time>
      </trkpt>
      <trkpt lat="45.73956" lon="6.7364">
        <ele>2568</ele>
        <time>2026-07-29T08:55:11.716Z</time>
      </trkpt>
      <trkpt lat="45.73956" lon="6.73638">
        <ele>2568</ele>
        <time>2026-07-29T08:55:12.716Z</time>
      </trkpt>
      <trkpt lat="45.73955" lon="6.73637">
        <ele>2568</ele>
        <time>2026-07-29T08:55:13.716Z</time>
      </trkpt>
      <trkpt lat="45.73955" lon="6.73635">
        <ele>2569</ele>
        <time>2026-07-29T08:55:14.716Z</time>
      </trkpt>
      <trkpt lat="45.73954" lon="6.73633">
        <ele>2569</ele>
        <time>2026-07-29T08:55:15.716Z</time>
      </trkpt>
      <trkpt lat="45.73954" lon="6.73632">
        <ele>2569</ele>
        <time>2026-07-29T08:55:16.716Z</time>
      </trkpt>
      <trkpt lat="45.73955" lon="6.7363">
        <ele>2569</ele>
        <time>2026-07-29T08:55:17.716Z</time>
      </trkpt>
      <trkpt lat="45.73955" lon="6.73629">
        <ele>2569</ele>
        <time>2026-07-29T08:55:18.716Z</time>
      </trkpt>
      <trkpt lat="45.73956" lon="6.73628">
        <ele>2570</ele>
        <time>2026-07-29T08:55:19.716Z</time>
      </trkpt>
      <trkpt lat="45.73957" lon="6.73627">
        <ele>2570</ele>
        <time>2026-07-29T08:55:20.716Z</time>
      </trkpt>
      <trkpt lat="45.73957" lon="6.73626">
        <ele>2570</ele>
        <time>2026-07-29T08:55:21.716Z</time>
      </trkpt>
      <trkpt lat="45.73957" lon="6.73625">
        <ele>2570</ele>
        <time>2026-07-29T08:55:22.716Z</time>
      </trkpt>
      <trkpt lat="45.73958" lon="6.73624">
        <ele>2570</ele>
        <time>2026-07-29T08:55:23.716Z</time>
      </trkpt>
      <trkpt lat="45.73958" lon="6.73622">
        <ele>2570</ele>
        <time>2026-07-29T08:55:24.716Z</time>
      </trkpt>
      <trkpt lat="45.73959" lon="6.73621">
        <ele>2569</ele>
        <time>2026-07-29T08:55:25.716Z</time>
      </trkpt>
      <trkpt lat="45.73959" lon="6.73619">
        <ele>2570</ele>
        <time>2026-07-29T08:55:26.716Z</time>
      </trkpt>
      <trkpt lat="45.7396" lon="6.73617">
        <ele>2570</ele>
        <time>2026-07-29T08:55:27.716Z</time>
      </trkpt>
      <trkpt lat="45.73961" lon="6.73615">
        <ele>2570</ele>
        <time>2026-07-29T08:55:28.716Z</time>
      </trkpt>
      <trkpt lat="45.73962" lon="6.73613">
        <ele>2570</ele>
        <time>2026-07-29T08:55:29.716Z</time>
      </trkpt>
      <trkpt lat="45.73962" lon="6.73611">
        <ele>2570</ele>
        <time>2026-07-29T08:55:30.716Z</time>
      </trkpt>
      <trkpt lat="45.73962" lon="6.7361">
        <ele>2570</ele>
        <time>2026-07-29T08:55:31.716Z</time>
      </trkpt>
      <trkpt lat="45.73962" lon="6.73609">
        <ele>2571</ele>
        <time>2026-07-29T08:55:32.716Z</time>
      </trkpt>
      <trkpt lat="45.73962" lon="6.73608">
        <ele>2571</ele>
        <time>2026-07-29T08:55:33.716Z</time>
      </trkpt>
      <trkpt lat="45.73962" lon="6.73607">
        <ele>2572</ele>
        <time>2026-07-29T08:55:34.716Z</time>
      </trkpt>
      <trkpt lat="45.73962" lon="6.73606">
        <ele>2572</ele>
        <time>2026-07-29T08:55:35.717Z</time>
      </trkpt>
      <trkpt lat="45.73962" lon="6.73606">
        <ele>2572</ele>
        <time>2026-07-29T08:55:36.716Z</time>
      </trkpt>
      <trkpt lat="45.73962" lon="6.73605">
        <ele>2572</ele>
        <time>2026-07-29T08:55:37.716Z</time>
      </trkpt>
      <trkpt lat="45.73962" lon="6.73605">
        <ele>2573</ele>
        <time>2026-07-29T08:55:38.716Z</time>
      </trkpt>
      <trkpt lat="45.73961" lon="6.73604">
        <ele>2573</ele>
        <time>2026-07-29T08:55:39.716Z</time>
      </trkpt>
      <trkpt lat="45.73961" lon="6.73603">
        <ele>2573</ele>
        <time>2026-07-29T08:55:40.716Z</time>
      </trkpt>
      <trkpt lat="45.73961" lon="6.73602">
        <ele>2573</ele>
        <time>2026-07-29T08:55:41.716Z</time>
      </trkpt>
      <trkpt lat="45.73962" lon="6.73601">
        <ele>2573</ele>
        <time>2026-07-29T08:55:42.716Z</time>
      </trkpt>
      <trkpt lat="45.73962" lon="6.73599">
        <ele>2573</ele>
        <time>2026-07-29T08:55:43.716Z</time>
      </trkpt>
      <trkpt lat="45.73962" lon="6.73598">
        <ele>2573</ele>
        <time>2026-07-29T08:55:44.716Z</time>
      </trkpt>
      <trkpt lat="45.73962" lon="6.73597">
        <ele>2573</ele>
        <time>2026-07-29T08:55:45.716Z</time>
      </trkpt>
      <trkpt lat="45.73962" lon="6.73596">
        <ele>2572</ele>
        <time>2026-07-29T08:55:46.716Z</time>
      </trkpt>
      <trkpt lat="45.73963" lon="6.73595">
        <ele>2572</ele>
        <time>2026-07-29T08:55:47.716Z</time>
      </trkpt>
      <trkpt lat="45.73964" lon="6.73594">
        <ele>2572</ele>
        <time>2026-07-29T08:55:48.716Z</time>
      </trkpt>
      <trkpt lat="45.73964" lon="6.73592">
        <ele>2572</ele>
        <time>2026-07-29T08:55:49.716Z</time>
      </trkpt>
      <trkpt lat="45.73964" lon="6.73592">
        <ele>2572</ele>
        <time>2026-07-29T08:55:50.716Z</time>
      </trkpt>
      <trkpt lat="45.73964" lon="6.73591">
        <ele>2572</ele>
        <time>2026-07-29T08:55:51.716Z</time>
      </trkpt>
      <trkpt lat="45.73965" lon="6.73589">
        <ele>2572</ele>
        <time>2026-07-29T08:55:52.716Z</time>
      </trkpt>
      <trkpt lat="45.73965" lon="6.73588">
        <ele>2572</ele>
        <time>2026-07-29T08:55:53.716Z</time>
      </trkpt>
      <trkpt lat="45.73965" lon="6.73587">
        <ele>2572</ele>
        <time>2026-07-29T08:55:54.716Z</time>
      </trkpt>
      <trkpt lat="45.73965" lon="6.73586">
        <ele>2572</ele>
        <time>2026-07-29T08:55:55.716Z</time>
      </trkpt>
      <trkpt lat="45.73965" lon="6.73585">
        <ele>2573</ele>
        <time>2026-07-29T08:55:56.716Z</time>
      </trkpt>
      <trkpt lat="45.73965" lon="6.73585">
        <ele>2573</ele>
        <time>2026-07-29T08:55:57.716Z</time>
      </trkpt>
      <trkpt lat="45.73966" lon="6.73584">
        <ele>2573</ele>
        <time>2026-07-29T08:55:58.716Z</time>
      </trkpt>
      <trkpt lat="45.73966" lon="6.73584">
        <ele>2573</ele>
        <time>2026-07-29T08:55:59.716Z</time>
      </trkpt>
      <trkpt lat="45.73967" lon="6.73583">
        <ele>2573</ele>
        <time>2026-07-29T08:56:00.716Z</time>
      </trkpt>
      <trkpt lat="45.73967" lon="6.73583">
        <ele>2573</ele>
        <time>2026-07-29T08:56:01.716Z</time>
      </trkpt>
      <trkpt lat="45.73967" lon="6.73582">
        <ele>2573</ele>
        <time>2026-07-29T08:56:02.716Z</time>
      </trkpt>
      <trkpt lat="45.73968" lon="6.73581">
        <ele>2573</ele>
        <time>2026-07-29T08:56:03.716Z</time>
      </trkpt>
      <trkpt lat="45.73968" lon="6.73581">
        <ele>2572</ele>
        <time>2026-07-29T08:56:04.716Z</time>
      </trkpt>
      <trkpt lat="45.73969" lon="6.7358">
        <ele>2572</ele>
        <time>2026-07-29T08:56:05.716Z</time>
      </trkpt>
      <trkpt lat="45.73969" lon="6.73579">
        <ele>2572</ele>
        <time>2026-07-29T08:56:06.716Z</time>
      </trkpt>
      <trkpt lat="45.7397" lon="6.73579">
        <ele>2572</ele>
        <time>2026-07-29T08:56:07.716Z</time>
      </trkpt>
      <trkpt lat="45.73971" lon="6.73578">
        <ele>2572</ele>
        <time>2026-07-29T08:56:08.716Z</time>
      </trkpt>
      <trkpt lat="45.73971" lon="6.73577">
        <ele>2572</ele>
        <time>2026-07-29T08:56:09.716Z</time>
      </trkpt>
      <trkpt lat="45.73971" lon="6.73576">
        <ele>2572</ele>
        <time>2026-07-29T08:56:10.716Z</time>
      </trkpt>
      <trkpt lat="45.73972" lon="6.73575">
        <ele>2572</ele>
        <time>2026-07-29T08:56:11.716Z</time>
      </trkpt>
      <trkpt lat="45.73972" lon="6.73574">
        <ele>2572</ele>
        <time>2026-07-29T08:56:12.716Z</time>
      </trkpt>
      <trkpt lat="45.73972" lon="6.73573">
        <ele>2573</ele>
        <time>2026-07-29T08:56:13.716Z</time>
      </trkpt>
      <trkpt lat="45.73972" lon="6.73571">
        <ele>2572</ele>
        <time>2026-07-29T08:56:14.716Z</time>
      </trkpt>
      <trkpt lat="45.73973" lon="6.7357">
        <ele>2572</ele>
        <time>2026-07-29T08:56:15.716Z</time>
      </trkpt>
      <trkpt lat="45.73973" lon="6.73569">
        <ele>2572</ele>
        <time>2026-07-29T08:56:16.716Z</time>
      </trkpt>
      <trkpt lat="45.73974" lon="6.73569">
        <ele>2572</ele>
        <time>2026-07-29T08:56:17.716Z</time>
      </trkpt>
      <trkpt lat="45.73974" lon="6.73569">
        <ele>2573</ele>
        <time>2026-07-29T08:56:18.716Z</time>
      </trkpt>
      <trkpt lat="45.73974" lon="6.73569">
        <ele>2573</ele>
        <time>2026-07-29T08:56:19.716Z</time>
      </trkpt>
      <trkpt lat="45.73975" lon="6.7357">
        <ele>2573</ele>
        <time>2026-07-29T08:56:20.716Z</time>
      </trkpt>
      <trkpt lat="45.73976" lon="6.7357">
        <ele>2573</ele>
        <time>2026-07-29T08:56:21.716Z</time>
      </trkpt>
      <trkpt lat="45.73976" lon="6.73571">
        <ele>2573</ele>
        <time>2026-07-29T08:56:22.716Z</time>
      </trkpt>
      <trkpt lat="45.73977" lon="6.73571">
        <ele>2573</ele>
        <time>2026-07-29T08:56:23.716Z</time>
      </trkpt>
      <trkpt lat="45.73977" lon="6.73571">
        <ele>2573</ele>
        <time>2026-07-29T08:56:24.716Z</time>
      </trkpt>
      <trkpt lat="45.73978" lon="6.73571">
        <ele>2573</ele>
        <time>2026-07-29T08:56:25.716Z</time>
      </trkpt>
      <trkpt lat="45.73979" lon="6.73572">
        <ele>2573</ele>
        <time>2026-07-29T08:56:26.716Z</time>
      </trkpt>
      <trkpt lat="45.73979" lon="6.73572">
        <ele>2574</ele>
        <time>2026-07-29T08:56:27.716Z</time>
      </trkpt>
      <trkpt lat="45.7398" lon="6.73573">
        <ele>2574</ele>
        <time>2026-07-29T08:56:28.716Z</time>
      </trkpt>
      <trkpt lat="45.73981" lon="6.73574">
        <ele>2574</ele>
        <time>2026-07-29T08:56:29.716Z</time>
      </trkpt>
      <trkpt lat="45.73981" lon="6.73575">
        <ele>2574</ele>
        <time>2026-07-29T08:56:30.716Z</time>
      </trkpt>
      <trkpt lat="45.73983" lon="6.73576">
        <ele>2574</ele>
        <time>2026-07-29T08:56:31.716Z</time>
      </trkpt>
      <trkpt lat="45.73984" lon="6.73576">
        <ele>2574</ele>
        <time>2026-07-29T08:56:32.716Z</time>
      </trkpt>
      <trkpt lat="45.73985" lon="6.73577">
        <ele>2575</ele>
        <time>2026-07-29T08:56:33.716Z</time>
      </trkpt>
      <trkpt lat="45.73986" lon="6.73577">
        <ele>2575</ele>
        <time>2026-07-29T08:56:34.716Z</time>
      </trkpt>
      <trkpt lat="45.73987" lon="6.73578">
        <ele>2575</ele>
        <time>2026-07-29T08:56:35.716Z</time>
      </trkpt>
      <trkpt lat="45.73988" lon="6.73579">
        <ele>2575</ele>
        <time>2026-07-29T08:56:36.716Z</time>
      </trkpt>
      <trkpt lat="45.73989" lon="6.73579">
        <ele>2576</ele>
        <time>2026-07-29T08:56:37.716Z</time>
      </trkpt>
      <trkpt lat="45.73989" lon="6.7358">
        <ele>2576</ele>
        <time>2026-07-29T08:56:38.716Z</time>
      </trkpt>
      <trkpt lat="45.7399" lon="6.73581">
        <ele>2575</ele>
        <time>2026-07-29T08:56:39.716Z</time>
      </trkpt>
      <trkpt lat="45.73991" lon="6.73582">
        <ele>2576</ele>
        <time>2026-07-29T08:56:40.716Z</time>
      </trkpt>
      <trkpt lat="45.73992" lon="6.73582">
        <ele>2576</ele>
        <time>2026-07-29T08:56:41.716Z</time>
      </trkpt>
      <trkpt lat="45.73993" lon="6.73583">
        <ele>2576</ele>
        <time>2026-07-29T08:56:42.716Z</time>
      </trkpt>
      <trkpt lat="45.73994" lon="6.73583">
        <ele>2577</ele>
        <time>2026-07-29T08:56:43.716Z</time>
      </trkpt>
      <trkpt lat="45.73995" lon="6.73583">
        <ele>2577</ele>
        <time>2026-07-29T08:56:44.716Z</time>
      </trkpt>
      <trkpt lat="45.73996" lon="6.73584">
        <ele>2577</ele>
        <time>2026-07-29T08:56:45.716Z</time>
      </trkpt>
      <trkpt lat="45.73997" lon="6.73584">
        <ele>2577</ele>
        <time>2026-07-29T08:56:46.716Z</time>
      </trkpt>
      <trkpt lat="45.73997" lon="6.73585">
        <ele>2577</ele>
        <time>2026-07-29T08:56:47.716Z</time>
      </trkpt>
      <trkpt lat="45.73998" lon="6.73584">
        <ele>2577</ele>
        <time>2026-07-29T08:56:48.716Z</time>
      </trkpt>
      <trkpt lat="45.73998" lon="6.73584">
        <ele>2577</ele>
        <time>2026-07-29T08:56:49.716Z</time>
      </trkpt>
      <trkpt lat="45.73999" lon="6.73584">
        <ele>2577</ele>
        <time>2026-07-29T08:56:50.716Z</time>
      </trkpt>
      <trkpt lat="45.73999" lon="6.73584">
        <ele>2577</ele>
        <time>2026-07-29T08:56:51.716Z</time>
      </trkpt>
      <trkpt lat="45.74" lon="6.73583">
        <ele>2577</ele>
        <time>2026-07-29T08:56:52.716Z</time>
      </trkpt>
      <trkpt lat="45.74001" lon="6.73583">
        <ele>2577</ele>
        <time>2026-07-29T08:56:53.716Z</time>
      </trkpt>
      <trkpt lat="45.74002" lon="6.73583">
        <ele>2577</ele>
        <time>2026-07-29T08:56:54.716Z</time>
      </trkpt>
      <trkpt lat="45.74002" lon="6.73582">
        <ele>2577</ele>
        <time>2026-07-29T08:56:55.716Z</time>
      </trkpt>
      <trkpt lat="45.74003" lon="6.73582">
        <ele>2577</ele>
        <time>2026-07-29T08:56:56.716Z</time>
      </trkpt>
      <trkpt lat="45.74003" lon="6.73581">
        <ele>2578</ele>
        <time>2026-07-29T08:56:57.716Z</time>
      </trkpt>
      <trkpt lat="45.74003" lon="6.7358">
        <ele>2578</ele>
        <time>2026-07-29T08:56:58.716Z</time>
      </trkpt>
      <trkpt lat="45.74003" lon="6.73579">
        <ele>2578</ele>
        <time>2026-07-29T08:56:59.716Z</time>
      </trkpt>
      <trkpt lat="45.74003" lon="6.73579">
        <ele>2578</ele>
        <time>2026-07-29T08:57:00.716Z</time>
      </trkpt>
      <trkpt lat="45.74003" lon="6.73578">
        <ele>2578</ele>
        <time>2026-07-29T08:57:01.716Z</time>
      </trkpt>
      <trkpt lat="45.74003" lon="6.73577">
        <ele>2578</ele>
        <time>2026-07-29T08:57:02.716Z</time>
      </trkpt>
      <trkpt lat="45.74003" lon="6.73576">
        <ele>2578</ele>
        <time>2026-07-29T08:57:03.716Z</time>
      </trkpt>
      <trkpt lat="45.74002" lon="6.73575">
        <ele>2579</ele>
        <time>2026-07-29T08:57:04.716Z</time>
      </trkpt>
      <trkpt lat="45.74002" lon="6.73574">
        <ele>2580</ele>
        <time>2026-07-29T08:57:05.716Z</time>
      </trkpt>
      <trkpt lat="45.74002" lon="6.73573">
        <ele>2580</ele>
        <time>2026-07-29T08:57:06.716Z</time>
      </trkpt>
      <trkpt lat="45.74002" lon="6.73572">
        <ele>2580</ele>
        <time>2026-07-29T08:57:07.716Z</time>
      </trkpt>
      <trkpt lat="45.74001" lon="6.73571">
        <ele>2581</ele>
        <time>2026-07-29T08:57:08.716Z</time>
      </trkpt>
      <trkpt lat="45.74001" lon="6.7357">
        <ele>2581</ele>
        <time>2026-07-29T08:57:09.716Z</time>
      </trkpt>
      <trkpt lat="45.74" lon="6.73569">
        <ele>2581</ele>
        <time>2026-07-29T08:57:10.716Z</time>
      </trkpt>
      <trkpt lat="45.74" lon="6.73567">
        <ele>2581</ele>
        <time>2026-07-29T08:57:11.716Z</time>
      </trkpt>
      <trkpt lat="45.73999" lon="6.73565">
        <ele>2580</ele>
        <time>2026-07-29T08:57:12.716Z</time>
      </trkpt>
      <trkpt lat="45.73999" lon="6.73564">
        <ele>2580</ele>
        <time>2026-07-29T08:57:13.716Z</time>
      </trkpt>
      <trkpt lat="45.74" lon="6.73563">
        <ele>2580</ele>
        <time>2026-07-29T08:57:14.716Z</time>
      </trkpt>
      <trkpt lat="45.74" lon="6.73562">
        <ele>2581</ele>
        <time>2026-07-29T08:57:15.716Z</time>
      </trkpt>
      <trkpt lat="45.74" lon="6.73561">
        <ele>2581</ele>
        <time>2026-07-29T08:57:16.716Z</time>
      </trkpt>
      <trkpt lat="45.74" lon="6.7356">
        <ele>2581</ele>
        <time>2026-07-29T08:57:17.716Z</time>
      </trkpt>
      <trkpt lat="45.73999" lon="6.7356">
        <ele>2581</ele>
        <time>2026-07-29T08:57:18.716Z</time>
      </trkpt>
      <trkpt lat="45.73999" lon="6.7356">
        <ele>2580</ele>
        <time>2026-07-29T08:57:19.716Z</time>
      </trkpt>
      <trkpt lat="45.73998" lon="6.7356">
        <ele>2580</ele>
        <time>2026-07-29T08:57:20.716Z</time>
      </trkpt>
      <trkpt lat="45.73997" lon="6.73559">
        <ele>2580</ele>
        <time>2026-07-29T08:57:21.716Z</time>
      </trkpt>
      <trkpt lat="45.73997" lon="6.73558">
        <ele>2580</ele>
        <time>2026-07-29T08:57:22.716Z</time>
      </trkpt>
      <trkpt lat="45.73997" lon="6.73557">
        <ele>2580</ele>
        <time>2026-07-29T08:57:23.716Z</time>
      </trkpt>
      <trkpt lat="45.73996" lon="6.73556">
        <ele>2580</ele>
        <time>2026-07-29T08:57:24.716Z</time>
      </trkpt>
      <trkpt lat="45.73997" lon="6.73555">
        <ele>2580</ele>
        <time>2026-07-29T08:57:25.716Z</time>
      </trkpt>
      <trkpt lat="45.73997" lon="6.73555">
        <ele>2580</ele>
        <time>2026-07-29T08:57:26.716Z</time>
      </trkpt>
      <trkpt lat="45.73997" lon="6.73554">
        <ele>2580</ele>
        <time>2026-07-29T08:57:27.716Z</time>
      </trkpt>
      <trkpt lat="45.73997" lon="6.73553">
        <ele>2580</ele>
        <time>2026-07-29T08:57:28.716Z</time>
      </trkpt>
      <trkpt lat="45.73997" lon="6.73552">
        <ele>2580</ele>
        <time>2026-07-29T08:57:29.716Z</time>
      </trkpt>
      <trkpt lat="45.73997" lon="6.73551">
        <ele>2580</ele>
        <time>2026-07-29T08:57:30.716Z</time>
      </trkpt>
      <trkpt lat="45.73997" lon="6.73551">
        <ele>2580</ele>
        <time>2026-07-29T08:57:31.716Z</time>
      </trkpt>
      <trkpt lat="45.73997" lon="6.7355">
        <ele>2580</ele>
        <time>2026-07-29T08:57:32.716Z</time>
      </trkpt>
      <trkpt lat="45.73997" lon="6.7355">
        <ele>2580</ele>
        <time>2026-07-29T08:57:33.716Z</time>
      </trkpt>
      <trkpt lat="45.73997" lon="6.7355">
        <ele>2580</ele>
        <time>2026-07-29T08:57:34.716Z</time>
      </trkpt>
      <trkpt lat="45.73997" lon="6.7355">
        <ele>2579</ele>
        <time>2026-07-29T08:57:35.716Z</time>
      </trkpt>
      <trkpt lat="45.73997" lon="6.7355">
        <ele>2579</ele>
        <time>2026-07-29T08:57:36.716Z</time>
      </trkpt>
      <trkpt lat="45.73997" lon="6.7355">
        <ele>2580</ele>
        <time>2026-07-29T08:57:37.716Z</time>
      </trkpt>
      <trkpt lat="45.73997" lon="6.7355">
        <ele>2580</ele>
        <time>2026-07-29T08:57:38.716Z</time>
      </trkpt>
      <trkpt lat="45.73997" lon="6.7355">
        <ele>2581</ele>
        <time>2026-07-29T08:57:39.716Z</time>
      </trkpt>
      <trkpt lat="45.73997" lon="6.7355">
        <ele>2581</ele>
        <time>2026-07-29T08:57:40.716Z</time>
      </trkpt>
      <trkpt lat="45.73998" lon="6.73549">
        <ele>2582</ele>
        <time>2026-07-29T08:57:41.716Z</time>
      </trkpt>
      <trkpt lat="45.73999" lon="6.73549">
        <ele>2582</ele>
        <time>2026-07-29T08:57:42.716Z</time>
      </trkpt>
      <trkpt lat="45.74" lon="6.73549">
        <ele>2583</ele>
        <time>2026-07-29T08:57:43.716Z</time>
      </trkpt>
      <trkpt lat="45.74002" lon="6.73549">
        <ele>2583</ele>
        <time>2026-07-29T08:57:44.716Z</time>
      </trkpt>
      <trkpt lat="45.74003" lon="6.73549">
        <ele>2584</ele>
        <time>2026-07-29T08:57:45.716Z</time>
      </trkpt>
      <trkpt lat="45.74004" lon="6.73549">
        <ele>2584</ele>
        <time>2026-07-29T08:57:46.716Z</time>
      </trkpt>
      <trkpt lat="45.74004" lon="6.73549">
        <ele>2584</ele>
        <time>2026-07-29T08:57:47.716Z</time>
      </trkpt>
      <trkpt lat="45.74005" lon="6.73548">
        <ele>2584</ele>
        <time>2026-07-29T08:57:48.716Z</time>
      </trkpt>
      <trkpt lat="45.74006" lon="6.73548">
        <ele>2585</ele>
        <time>2026-07-29T08:57:49.716Z</time>
      </trkpt>
      <trkpt lat="45.74006" lon="6.73547">
        <ele>2585</ele>
        <time>2026-07-29T08:57:50.716Z</time>
      </trkpt>
      <trkpt lat="45.74007" lon="6.73546">
        <ele>2586</ele>
        <time>2026-07-29T08:57:51.716Z</time>
      </trkpt>
      <trkpt lat="45.74007" lon="6.73546">
        <ele>2586</ele>
        <time>2026-07-29T08:57:52.716Z</time>
      </trkpt>
      <trkpt lat="45.74007" lon="6.73545">
        <ele>2586</ele>
        <time>2026-07-29T08:57:53.716Z</time>
      </trkpt>
      <trkpt lat="45.74008" lon="6.73544">
        <ele>2587</ele>
        <time>2026-07-29T08:57:54.716Z</time>
      </trkpt>
      <trkpt lat="45.74008" lon="6.73544">
        <ele>2587</ele>
        <time>2026-07-29T08:57:55.716Z</time>
      </trkpt>
      <trkpt lat="45.74009" lon="6.73543">
        <ele>2587</ele>
        <time>2026-07-29T08:57:56.716Z</time>
      </trkpt>
      <trkpt lat="45.74009" lon="6.73543">
        <ele>2587</ele>
        <time>2026-07-29T08:57:57.716Z</time>
      </trkpt>
      <trkpt lat="45.74009" lon="6.73543">
        <ele>2587</ele>
        <time>2026-07-29T08:57:58.716Z</time>
      </trkpt>
      <trkpt lat="45.7401" lon="6.73542">
        <ele>2587</ele>
        <time>2026-07-29T08:57:59.716Z</time>
      </trkpt>
      <trkpt lat="45.7401" lon="6.73542">
        <ele>2587</ele>
        <time>2026-07-29T08:58:00.716Z</time>
      </trkpt>
      <trkpt lat="45.74011" lon="6.73542">
        <ele>2587</ele>
        <time>2026-07-29T08:58:01.716Z</time>
      </trkpt>
      <trkpt lat="45.74011" lon="6.73542">
        <ele>2588</ele>
        <time>2026-07-29T08:58:02.716Z</time>
      </trkpt>
      <trkpt lat="45.74011" lon="6.73541">
        <ele>2588</ele>
        <time>2026-07-29T08:58:03.716Z</time>
      </trkpt>
      <trkpt lat="45.7401" lon="6.73541">
        <ele>2588</ele>
        <time>2026-07-29T08:58:04.716Z</time>
      </trkpt>
      <trkpt lat="45.7401" lon="6.7354">
        <ele>2589</ele>
        <time>2026-07-29T08:58:05.716Z</time>
      </trkpt>
      <trkpt lat="45.7401" lon="6.7354">
        <ele>2589</ele>
        <time>2026-07-29T08:58:06.716Z</time>
      </trkpt>
      <trkpt lat="45.74009" lon="6.73539">
        <ele>2589</ele>
        <time>2026-07-29T08:58:07.716Z</time>
      </trkpt>
      <trkpt lat="45.74008" lon="6.73538">
        <ele>2589</ele>
        <time>2026-07-29T08:58:08.716Z</time>
      </trkpt>
      <trkpt lat="45.74007" lon="6.73538">
        <ele>2589</ele>
        <time>2026-07-29T08:58:09.716Z</time>
      </trkpt>
      <trkpt lat="45.74007" lon="6.73537">
        <ele>2589</ele>
        <time>2026-07-29T08:58:10.716Z</time>
      </trkpt>
      <trkpt lat="45.74006" lon="6.73536">
        <ele>2589</ele>
        <time>2026-07-29T08:58:11.716Z</time>
      </trkpt>
      <trkpt lat="45.74005" lon="6.73535">
        <ele>2589</ele>
        <time>2026-07-29T08:58:12.716Z</time>
      </trkpt>
      <trkpt lat="45.74005" lon="6.73535">
        <ele>2590</ele>
        <time>2026-07-29T08:58:13.716Z</time>
      </trkpt>
      <trkpt lat="45.74004" lon="6.73534">
        <ele>2590</ele>
        <time>2026-07-29T08:58:14.716Z</time>
      </trkpt>
      <trkpt lat="45.74004" lon="6.73533">
        <ele>2590</ele>
        <time>2026-07-29T08:58:15.716Z</time>
      </trkpt>
      <trkpt lat="45.74003" lon="6.73532">
        <ele>2590</ele>
        <time>2026-07-29T08:58:16.716Z</time>
      </trkpt>
      <trkpt lat="45.74002" lon="6.73531">
        <ele>2590</ele>
        <time>2026-07-29T08:58:17.716Z</time>
      </trkpt>
      <trkpt lat="45.74001" lon="6.7353">
        <ele>2590</ele>
        <time>2026-07-29T08:58:18.716Z</time>
      </trkpt>
      <trkpt lat="45.74" lon="6.73529">
        <ele>2590</ele>
        <time>2026-07-29T08:58:19.716Z</time>
      </trkpt>
      <trkpt lat="45.73999" lon="6.73528">
        <ele>2590</ele>
        <time>2026-07-29T08:58:20.716Z</time>
      </trkpt>
      <trkpt lat="45.73998" lon="6.73527">
        <ele>2590</ele>
        <time>2026-07-29T08:58:21.716Z</time>
      </trkpt>
      <trkpt lat="45.73998" lon="6.73527">
        <ele>2590</ele>
        <time>2026-07-29T08:58:22.716Z</time>
      </trkpt>
      <trkpt lat="45.73997" lon="6.73526">
        <ele>2591</ele>
        <time>2026-07-29T08:58:23.716Z</time>
      </trkpt>
      <trkpt lat="45.73997" lon="6.73525">
        <ele>2591</ele>
        <time>2026-07-29T08:58:24.716Z</time>
      </trkpt>
      <trkpt lat="45.73996" lon="6.73525">
        <ele>2591</ele>
        <time>2026-07-29T08:58:25.716Z</time>
      </trkpt>
      <trkpt lat="45.73995" lon="6.73525">
        <ele>2591</ele>
        <time>2026-07-29T08:58:26.716Z</time>
      </trkpt>
      <trkpt lat="45.73994" lon="6.73524">
        <ele>2591</ele>
        <time>2026-07-29T08:58:27.716Z</time>
      </trkpt>
      <trkpt lat="45.73993" lon="6.73524">
        <ele>2591</ele>
        <time>2026-07-29T08:58:28.716Z</time>
      </trkpt>
      <trkpt lat="45.73992" lon="6.73523">
        <ele>2591</ele>
        <time>2026-07-29T08:58:29.716Z</time>
      </trkpt>
      <trkpt lat="45.7399" lon="6.73523">
        <ele>2591</ele>
        <time>2026-07-29T08:58:30.716Z</time>
      </trkpt>
      <trkpt lat="45.73989" lon="6.73523">
        <ele>2591</ele>
        <time>2026-07-29T08:58:31.716Z</time>
      </trkpt>
      <trkpt lat="45.73988" lon="6.73523">
        <ele>2592</ele>
        <time>2026-07-29T08:58:32.716Z</time>
      </trkpt>
      <trkpt lat="45.73988" lon="6.73523">
        <ele>2592</ele>
        <time>2026-07-29T08:58:33.716Z</time>
      </trkpt>
      <trkpt lat="45.73987" lon="6.73523">
        <ele>2592</ele>
        <time>2026-07-29T08:58:34.716Z</time>
      </trkpt>
      <trkpt lat="45.73986" lon="6.73523">
        <ele>2592</ele>
        <time>2026-07-29T08:58:35.716Z</time>
      </trkpt>
      <trkpt lat="45.73985" lon="6.73523">
        <ele>2593</ele>
        <time>2026-07-29T08:58:36.716Z</time>
      </trkpt>
      <trkpt lat="45.73984" lon="6.73523">
        <ele>2593</ele>
        <time>2026-07-29T08:58:37.716Z</time>
      </trkpt>
      <trkpt lat="45.73984" lon="6.73523">
        <ele>2593</ele>
        <time>2026-07-29T08:58:38.716Z</time>
      </trkpt>
      <trkpt lat="45.73983" lon="6.73522">
        <ele>2592</ele>
        <time>2026-07-29T08:58:39.716Z</time>
      </trkpt>
      <trkpt lat="45.73982" lon="6.73522">
        <ele>2592</ele>
        <time>2026-07-29T08:58:40.716Z</time>
      </trkpt>
      <trkpt lat="45.73982" lon="6.73522">
        <ele>2593</ele>
        <time>2026-07-29T08:58:41.716Z</time>
      </trkpt>
      <trkpt lat="45.73981" lon="6.73522">
        <ele>2593</ele>
        <time>2026-07-29T08:58:42.716Z</time>
      </trkpt>
      <trkpt lat="45.7398" lon="6.73522">
        <ele>2592</ele>
        <time>2026-07-29T08:58:43.716Z</time>
      </trkpt>
      <trkpt lat="45.73979" lon="6.73522">
        <ele>2592</ele>
        <time>2026-07-29T08:58:44.716Z</time>
      </trkpt>
      <trkpt lat="45.73979" lon="6.73521">
        <ele>2592</ele>
        <time>2026-07-29T08:58:45.716Z</time>
      </trkpt>
      <trkpt lat="45.73978" lon="6.73521">
        <ele>2592</ele>
        <time>2026-07-29T08:58:46.716Z</time>
      </trkpt>
      <trkpt lat="45.73977" lon="6.73521">
        <ele>2592</ele>
        <time>2026-07-29T08:58:47.716Z</time>
      </trkpt>
      <trkpt lat="45.73977" lon="6.7352">
        <ele>2592</ele>
        <time>2026-07-29T08:58:48.716Z</time>
      </trkpt>
      <trkpt lat="45.73976" lon="6.73519">
        <ele>2592</ele>
        <time>2026-07-29T08:58:49.716Z</time>
      </trkpt>
      <trkpt lat="45.73975" lon="6.73518">
        <ele>2592</ele>
        <time>2026-07-29T08:58:50.716Z</time>
      </trkpt>
      <trkpt lat="45.73975" lon="6.73518">
        <ele>2592</ele>
        <time>2026-07-29T08:58:51.716Z</time>
      </trkpt>
      <trkpt lat="45.73974" lon="6.73518">
        <ele>2592</ele>
        <time>2026-07-29T08:58:52.716Z</time>
      </trkpt>
      <trkpt lat="45.73973" lon="6.73519">
        <ele>2592</ele>
        <time>2026-07-29T08:58:53.716Z</time>
      </trkpt>
      <trkpt lat="45.73972" lon="6.73519">
        <ele>2592</ele>
        <time>2026-07-29T08:58:54.716Z</time>
      </trkpt>
      <trkpt lat="45.73971" lon="6.73519">
        <ele>2592</ele>
        <time>2026-07-29T08:58:55.716Z</time>
      </trkpt>
      <trkpt lat="45.73971" lon="6.73518">
        <ele>2593</ele>
        <time>2026-07-29T08:58:56.716Z</time>
      </trkpt>
      <trkpt lat="45.7397" lon="6.73517">
        <ele>2593</ele>
        <time>2026-07-29T08:58:57.716Z</time>
      </trkpt>
      <trkpt lat="45.73969" lon="6.73517">
        <ele>2593</ele>
        <time>2026-07-29T08:58:58.716Z</time>
      </trkpt>
      <trkpt lat="45.73969" lon="6.73516">
        <ele>2593</ele>
        <time>2026-07-29T08:58:59.716Z</time>
      </trkpt>
      <trkpt lat="45.73969" lon="6.73515">
        <ele>2593</ele>
        <time>2026-07-29T08:59:00.716Z</time>
      </trkpt>
      <trkpt lat="45.73969" lon="6.73514">
        <ele>2593</ele>
        <time>2026-07-29T08:59:01.716Z</time>
      </trkpt>
      <trkpt lat="45.73969" lon="6.73513">
        <ele>2593</ele>
        <time>2026-07-29T08:59:02.716Z</time>
      </trkpt>
      <trkpt lat="45.73969" lon="6.73512">
        <ele>2593</ele>
        <time>2026-07-29T08:59:03.716Z</time>
      </trkpt>
      <trkpt lat="45.73968" lon="6.73511">
        <ele>2593</ele>
        <time>2026-07-29T08:59:04.716Z</time>
      </trkpt>
      <trkpt lat="45.73968" lon="6.7351">
        <ele>2593</ele>
        <time>2026-07-29T08:59:05.716Z</time>
      </trkpt>
      <trkpt lat="45.73967" lon="6.73509">
        <ele>2593</ele>
        <time>2026-07-29T08:59:06.716Z</time>
      </trkpt>
      <trkpt lat="45.73967" lon="6.73508">
        <ele>2594</ele>
        <time>2026-07-29T08:59:07.716Z</time>
      </trkpt>
      <trkpt lat="45.73966" lon="6.73507">
        <ele>2594</ele>
        <time>2026-07-29T08:59:08.716Z</time>
      </trkpt>
      <trkpt lat="45.73966" lon="6.73505">
        <ele>2594</ele>
        <time>2026-07-29T08:59:09.716Z</time>
      </trkpt>
      <trkpt lat="45.73966" lon="6.73504">
        <ele>2595</ele>
        <time>2026-07-29T08:59:10.716Z</time>
      </trkpt>
      <trkpt lat="45.73965" lon="6.73503">
        <ele>2595</ele>
        <time>2026-07-29T08:59:11.716Z</time>
      </trkpt>
      <trkpt lat="45.73965" lon="6.73502">
        <ele>2595</ele>
        <time>2026-07-29T08:59:12.716Z</time>
      </trkpt>
      <trkpt lat="45.73965" lon="6.73501">
        <ele>2596</ele>
        <time>2026-07-29T08:59:13.716Z</time>
      </trkpt>
      <trkpt lat="45.73965" lon="6.735">
        <ele>2596</ele>
        <time>2026-07-29T08:59:14.716Z</time>
      </trkpt>
      <trkpt lat="45.73965" lon="6.73499">
        <ele>2596</ele>
        <time>2026-07-29T08:59:15.716Z</time>
      </trkpt>
      <trkpt lat="45.73965" lon="6.73497">
        <ele>2596</ele>
        <time>2026-07-29T08:59:16.716Z</time>
      </trkpt>
      <trkpt lat="45.73965" lon="6.73496">
        <ele>2596</ele>
        <time>2026-07-29T08:59:17.716Z</time>
      </trkpt>
      <trkpt lat="45.73965" lon="6.73495">
        <ele>2596</ele>
        <time>2026-07-29T08:59:18.716Z</time>
      </trkpt>
      <trkpt lat="45.73965" lon="6.73494">
        <ele>2596</ele>
        <time>2026-07-29T08:59:19.716Z</time>
      </trkpt>
      <trkpt lat="45.73964" lon="6.73492">
        <ele>2596</ele>
        <time>2026-07-29T08:59:20.716Z</time>
      </trkpt>
      <trkpt lat="45.73964" lon="6.73491">
        <ele>2597</ele>
        <time>2026-07-29T08:59:21.716Z</time>
      </trkpt>
      <trkpt lat="45.73964" lon="6.7349">
        <ele>2597</ele>
        <time>2026-07-29T08:59:22.716Z</time>
      </trkpt>
      <trkpt lat="45.73964" lon="6.73489">
        <ele>2597</ele>
        <time>2026-07-29T08:59:23.716Z</time>
      </trkpt>
      <trkpt lat="45.73964" lon="6.73489">
        <ele>2597</ele>
        <time>2026-07-29T08:59:24.716Z</time>
      </trkpt>
      <trkpt lat="45.73963" lon="6.73489">
        <ele>2597</ele>
        <time>2026-07-29T08:59:25.716Z</time>
      </trkpt>
      <trkpt lat="45.73963" lon="6.73488">
        <ele>2598</ele>
        <time>2026-07-29T08:59:26.716Z</time>
      </trkpt>
      <trkpt lat="45.73962" lon="6.73487">
        <ele>2598</ele>
        <time>2026-07-29T08:59:27.716Z</time>
      </trkpt>
      <trkpt lat="45.73962" lon="6.73486">
        <ele>2598</ele>
        <time>2026-07-29T08:59:28.716Z</time>
      </trkpt>
      <trkpt lat="45.73961" lon="6.73486">
        <ele>2598</ele>
        <time>2026-07-29T08:59:29.716Z</time>
      </trkpt>
      <trkpt lat="45.73961" lon="6.73485">
        <ele>2598</ele>
        <time>2026-07-29T08:59:30.716Z</time>
      </trkpt>
      <trkpt lat="45.7396" lon="6.73484">
        <ele>2598</ele>
        <time>2026-07-29T08:59:31.716Z</time>
      </trkpt>
      <trkpt lat="45.73959" lon="6.73484">
        <ele>2599</ele>
        <time>2026-07-29T08:59:32.716Z</time>
      </trkpt>
      <trkpt lat="45.73959" lon="6.73483">
        <ele>2599</ele>
        <time>2026-07-29T08:59:33.716Z</time>
      </trkpt>
      <trkpt lat="45.73958" lon="6.73483">
        <ele>2599</ele>
        <time>2026-07-29T08:59:34.716Z</time>
      </trkpt>
      <trkpt lat="45.73958" lon="6.73482">
        <ele>2600</ele>
        <time>2026-07-29T08:59:35.716Z</time>
      </trkpt>
      <trkpt lat="45.73957" lon="6.73482">
        <ele>2600</ele>
        <time>2026-07-29T08:59:36.716Z</time>
      </trkpt>
      <trkpt lat="45.73957" lon="6.73481">
        <ele>2600</ele>
        <time>2026-07-29T08:59:37.716Z</time>
      </trkpt>
      <trkpt lat="45.73956" lon="6.73481">
        <ele>2600</ele>
        <time>2026-07-29T08:59:38.716Z</time>
      </trkpt>
      <trkpt lat="45.73956" lon="6.73481">
        <ele>2600</ele>
        <time>2026-07-29T08:59:39.716Z</time>
      </trkpt>
      <trkpt lat="45.73955" lon="6.73481">
        <ele>2600</ele>
        <time>2026-07-29T08:59:40.716Z</time>
      </trkpt>
      <trkpt lat="45.73954" lon="6.73481">
        <ele>2600</ele>
        <time>2026-07-29T08:59:41.716Z</time>
      </trkpt>
      <trkpt lat="45.73954" lon="6.7348">
        <ele>2600</ele>
        <time>2026-07-29T08:59:42.716Z</time>
      </trkpt>
      <trkpt lat="45.73953" lon="6.7348">
        <ele>2601</ele>
        <time>2026-07-29T08:59:43.716Z</time>
      </trkpt>
      <trkpt lat="45.73952" lon="6.73479">
        <ele>2602</ele>
        <time>2026-07-29T08:59:44.716Z</time>
      </trkpt>
      <trkpt lat="45.73952" lon="6.73478">
        <ele>2602</ele>
        <time>2026-07-29T08:59:45.716Z</time>
      </trkpt>
      <trkpt lat="45.73952" lon="6.73477">
        <ele>2602</ele>
        <time>2026-07-29T08:59:46.716Z</time>
      </trkpt>
      <trkpt lat="45.73951" lon="6.73476">
        <ele>2603</ele>
        <time>2026-07-29T08:59:47.716Z</time>
      </trkpt>
      <trkpt lat="45.73951" lon="6.73475">
        <ele>2603</ele>
        <time>2026-07-29T08:59:48.716Z</time>
      </trkpt>
      <trkpt lat="45.7395" lon="6.73474">
        <ele>2603</ele>
        <time>2026-07-29T08:59:49.716Z</time>
      </trkpt>
      <trkpt lat="45.7395" lon="6.73472">
        <ele>2603</ele>
        <time>2026-07-29T08:59:50.716Z</time>
      </trkpt>
      <trkpt lat="45.7395" lon="6.73471">
        <ele>2604</ele>
        <time>2026-07-29T08:59:51.716Z</time>
      </trkpt>
      <trkpt lat="45.7395" lon="6.73469">
        <ele>2604</ele>
        <time>2026-07-29T08:59:52.716Z</time>
      </trkpt>
      <trkpt lat="45.7395" lon="6.73468">
        <ele>2605</ele>
        <time>2026-07-29T08:59:53.716Z</time>
      </trkpt>
      <trkpt lat="45.73949" lon="6.73467">
        <ele>2605</ele>
        <time>2026-07-29T08:59:54.716Z</time>
      </trkpt>
      <trkpt lat="45.73949" lon="6.73466">
        <ele>2606</ele>
        <time>2026-07-29T08:59:55.716Z</time>
      </trkpt>
      <trkpt lat="45.73949" lon="6.73465">
        <ele>2606</ele>
        <time>2026-07-29T08:59:56.716Z</time>
      </trkpt>
      <trkpt lat="45.73949" lon="6.73464">
        <ele>2606</ele>
        <time>2026-07-29T08:59:57.716Z</time>
      </trkpt>
      <trkpt lat="45.73948" lon="6.73464">
        <ele>2606</ele>
        <time>2026-07-29T08:59:58.716Z</time>
      </trkpt>
      <trkpt lat="45.73948" lon="6.73464">
        <ele>2607</ele>
        <time>2026-07-29T08:59:59.716Z</time>
      </trkpt>
      <trkpt lat="45.73947" lon="6.73465">
        <ele>2607</ele>
        <time>2026-07-29T09:00:00.716Z</time>
      </trkpt>
      <trkpt lat="45.73946" lon="6.73465">
        <ele>2607</ele>
        <time>2026-07-29T09:00:01.716Z</time>
      </trkpt>
      <trkpt lat="45.73945" lon="6.73464">
        <ele>2607</ele>
        <time>2026-07-29T09:00:02.716Z</time>
      </trkpt>
      <trkpt lat="45.73944" lon="6.73464">
        <ele>2607</ele>
        <time>2026-07-29T09:00:03.716Z</time>
      </trkpt>
      <trkpt lat="45.73943" lon="6.73463">
        <ele>2607</ele>
        <time>2026-07-29T09:00:04.716Z</time>
      </trkpt>
      <trkpt lat="45.73943" lon="6.73463">
        <ele>2607</ele>
        <time>2026-07-29T09:00:05.716Z</time>
      </trkpt>
      <trkpt lat="45.73942" lon="6.73463">
        <ele>2607</ele>
        <time>2026-07-29T09:00:06.716Z</time>
      </trkpt>
      <trkpt lat="45.73942" lon="6.73462">
        <ele>2607</ele>
        <time>2026-07-29T09:00:07.716Z</time>
      </trkpt>
      <trkpt lat="45.73942" lon="6.73462">
        <ele>2608</ele>
        <time>2026-07-29T09:00:08.716Z</time>
      </trkpt>
      <trkpt lat="45.73941" lon="6.73462">
        <ele>2608</ele>
        <time>2026-07-29T09:00:09.716Z</time>
      </trkpt>
      <trkpt lat="45.73941" lon="6.73461">
        <ele>2608</ele>
        <time>2026-07-29T09:00:10.716Z</time>
      </trkpt>
      <trkpt lat="45.7394" lon="6.7346">
        <ele>2609</ele>
        <time>2026-07-29T09:00:11.716Z</time>
      </trkpt>
      <trkpt lat="45.7394" lon="6.73459">
        <ele>2609</ele>
        <time>2026-07-29T09:00:12.716Z</time>
      </trkpt>
      <trkpt lat="45.7394" lon="6.73459">
        <ele>2610</ele>
        <time>2026-07-29T09:00:13.716Z</time>
      </trkpt>
      <trkpt lat="45.73939" lon="6.73458">
        <ele>2610</ele>
        <time>2026-07-29T09:00:14.716Z</time>
      </trkpt>
      <trkpt lat="45.73939" lon="6.73457">
        <ele>2610</ele>
        <time>2026-07-29T09:00:15.716Z</time>
      </trkpt>
      <trkpt lat="45.73938" lon="6.73456">
        <ele>2611</ele>
        <time>2026-07-29T09:00:16.716Z</time>
      </trkpt>
      <trkpt lat="45.73938" lon="6.73455">
        <ele>2611</ele>
        <time>2026-07-29T09:00:17.716Z</time>
      </trkpt>
      <trkpt lat="45.73938" lon="6.73455">
        <ele>2611</ele>
        <time>2026-07-29T09:00:18.716Z</time>
      </trkpt>
      <trkpt lat="45.73938" lon="6.73455">
        <ele>2611</ele>
        <time>2026-07-29T09:00:19.716Z</time>
      </trkpt>
      <trkpt lat="45.73937" lon="6.73455">
        <ele>2611</ele>
        <time>2026-07-29T09:00:20.716Z</time>
      </trkpt>
      <trkpt lat="45.73937" lon="6.73455">
        <ele>2611</ele>
        <time>2026-07-29T09:00:21.716Z</time>
      </trkpt>
      <trkpt lat="45.73937" lon="6.73456">
        <ele>2611</ele>
        <time>2026-07-29T09:00:22.716Z</time>
      </trkpt>
      <trkpt lat="45.73937" lon="6.73457">
        <ele>2611</ele>
        <time>2026-07-29T09:00:23.716Z</time>
      </trkpt>
      <trkpt lat="45.73936" lon="6.73457">
        <ele>2611</ele>
        <time>2026-07-29T09:00:24.716Z</time>
      </trkpt>
      <trkpt lat="45.73936" lon="6.73457">
        <ele>2611</ele>
        <time>2026-07-29T09:00:25.716Z</time>
      </trkpt>
      <trkpt lat="45.73935" lon="6.73457">
        <ele>2612</ele>
        <time>2026-07-29T09:00:26.716Z</time>
      </trkpt>
      <trkpt lat="45.73935" lon="6.73457">
        <ele>2612</ele>
        <time>2026-07-29T09:00:27.716Z</time>
      </trkpt>
      <trkpt lat="45.73936" lon="6.73456">
        <ele>2613</ele>
        <time>2026-07-29T09:00:28.716Z</time>
      </trkpt>
      <trkpt lat="45.73936" lon="6.73455">
        <ele>2613</ele>
        <time>2026-07-29T09:00:29.716Z</time>
      </trkpt>
      <trkpt lat="45.73935" lon="6.73453">
        <ele>2613</ele>
        <time>2026-07-29T09:00:30.716Z</time>
      </trkpt>
      <trkpt lat="45.73935" lon="6.73452">
        <ele>2613</ele>
        <time>2026-07-29T09:00:31.716Z</time>
      </trkpt>
      <trkpt lat="45.73935" lon="6.73451">
        <ele>2613</ele>
        <time>2026-07-29T09:00:32.716Z</time>
      </trkpt>
      <trkpt lat="45.73934" lon="6.73451">
        <ele>2613</ele>
        <time>2026-07-29T09:00:33.716Z</time>
      </trkpt>
      <trkpt lat="45.73934" lon="6.7345">
        <ele>2613</ele>
        <time>2026-07-29T09:00:34.716Z</time>
      </trkpt>
      <trkpt lat="45.73933" lon="6.73451">
        <ele>2613</ele>
        <time>2026-07-29T09:00:35.716Z</time>
      </trkpt>
      <trkpt lat="45.73932" lon="6.73451">
        <ele>2613</ele>
        <time>2026-07-29T09:00:36.716Z</time>
      </trkpt>
      <trkpt lat="45.73932" lon="6.73451">
        <ele>2613</ele>
        <time>2026-07-29T09:00:37.716Z</time>
      </trkpt>
      <trkpt lat="45.73931" lon="6.73451">
        <ele>2614</ele>
        <time>2026-07-29T09:00:38.716Z</time>
      </trkpt>
      <trkpt lat="45.73931" lon="6.73451">
        <ele>2614</ele>
        <time>2026-07-29T09:00:39.716Z</time>
      </trkpt>
      <trkpt lat="45.73931" lon="6.73451">
        <ele>2615</ele>
        <time>2026-07-29T09:00:40.716Z</time>
      </trkpt>
      <trkpt lat="45.7393" lon="6.73451">
        <ele>2615</ele>
        <time>2026-07-29T09:00:41.716Z</time>
      </trkpt>
      <trkpt lat="45.7393" lon="6.73451">
        <ele>2615</ele>
        <time>2026-07-29T09:00:42.716Z</time>
      </trkpt>
      <trkpt lat="45.73929" lon="6.73451">
        <ele>2615</ele>
        <time>2026-07-29T09:00:43.716Z</time>
      </trkpt>
      <trkpt lat="45.73928" lon="6.73451">
        <ele>2616</ele>
        <time>2026-07-29T09:00:44.716Z</time>
      </trkpt>
      <trkpt lat="45.73927" lon="6.73452">
        <ele>2616</ele>
        <time>2026-07-29T09:00:45.716Z</time>
      </trkpt>
      <trkpt lat="45.73927" lon="6.73451">
        <ele>2615</ele>
        <time>2026-07-29T09:00:46.716Z</time>
      </trkpt>
      <trkpt lat="45.73926" lon="6.73451">
        <ele>2616</ele>
        <time>2026-07-29T09:00:47.716Z</time>
      </trkpt>
      <trkpt lat="45.73926" lon="6.7345">
        <ele>2616</ele>
        <time>2026-07-29T09:00:48.716Z</time>
      </trkpt>
      <trkpt lat="45.73925" lon="6.7345">
        <ele>2616</ele>
        <time>2026-07-29T09:00:49.716Z</time>
      </trkpt>
      <trkpt lat="45.73925" lon="6.73449">
        <ele>2616</ele>
        <time>2026-07-29T09:00:50.716Z</time>
      </trkpt>
      <trkpt lat="45.73925" lon="6.73448">
        <ele>2616</ele>
        <time>2026-07-29T09:00:51.716Z</time>
      </trkpt>
      <trkpt lat="45.73924" lon="6.73448">
        <ele>2616</ele>
        <time>2026-07-29T09:00:52.716Z</time>
      </trkpt>
      <trkpt lat="45.73924" lon="6.73447">
        <ele>2616</ele>
        <time>2026-07-29T09:00:53.716Z</time>
      </trkpt>
      <trkpt lat="45.73923" lon="6.73447">
        <ele>2616</ele>
        <time>2026-07-29T09:00:54.716Z</time>
      </trkpt>
      <trkpt lat="45.73922" lon="6.73447">
        <ele>2616</ele>
        <time>2026-07-29T09:00:55.716Z</time>
      </trkpt>
      <trkpt lat="45.73921" lon="6.73447">
        <ele>2616</ele>
        <time>2026-07-29T09:00:56.716Z</time>
      </trkpt>
      <trkpt lat="45.7392" lon="6.73448">
        <ele>2616</ele>
        <time>2026-07-29T09:00:57.716Z</time>
      </trkpt>
      <trkpt lat="45.7392" lon="6.73448">
        <ele>2616</ele>
        <time>2026-07-29T09:00:58.716Z</time>
      </trkpt>
      <trkpt lat="45.73919" lon="6.73448">
        <ele>2617</ele>
        <time>2026-07-29T09:00:59.716Z</time>
      </trkpt>
      <trkpt lat="45.73919" lon="6.73449">
        <ele>2617</ele>
        <time>2026-07-29T09:01:00.716Z</time>
      </trkpt>
      <trkpt lat="45.73919" lon="6.73449">
        <ele>2617</ele>
        <time>2026-07-29T09:01:01.716Z</time>
      </trkpt>
      <trkpt lat="45.73918" lon="6.73449">
        <ele>2618</ele>
        <time>2026-07-29T09:01:02.716Z</time>
      </trkpt>
      <trkpt lat="45.73918" lon="6.7345">
        <ele>2618</ele>
        <time>2026-07-29T09:01:03.716Z</time>
      </trkpt>
      <trkpt lat="45.73918" lon="6.7345">
        <ele>2618</ele>
        <time>2026-07-29T09:01:04.716Z</time>
      </trkpt>
      <trkpt lat="45.73918" lon="6.7345">
        <ele>2618</ele>
        <time>2026-07-29T09:01:05.716Z</time>
      </trkpt>
      <trkpt lat="45.73917" lon="6.73451">
        <ele>2618</ele>
        <time>2026-07-29T09:01:06.716Z</time>
      </trkpt>
      <trkpt lat="45.73916" lon="6.73451">
        <ele>2617</ele>
        <time>2026-07-29T09:01:07.716Z</time>
      </trkpt>
      <trkpt lat="45.73915" lon="6.73451">
        <ele>2617</ele>
        <time>2026-07-29T09:01:08.716Z</time>
      </trkpt>
      <trkpt lat="45.73914" lon="6.73451">
        <ele>2617</ele>
        <time>2026-07-29T09:01:09.716Z</time>
      </trkpt>
      <trkpt lat="45.73913" lon="6.73451">
        <ele>2617</ele>
        <time>2026-07-29T09:01:10.716Z</time>
      </trkpt>
      <trkpt lat="45.73913" lon="6.7345">
        <ele>2618</ele>
        <time>2026-07-29T09:01:11.716Z</time>
      </trkpt>
      <trkpt lat="45.73913" lon="6.73449">
        <ele>2618</ele>
        <time>2026-07-29T09:01:12.716Z</time>
      </trkpt>
      <trkpt lat="45.73913" lon="6.73448">
        <ele>2618</ele>
        <time>2026-07-29T09:01:13.716Z</time>
      </trkpt>
      <trkpt lat="45.73913" lon="6.73447">
        <ele>2619</ele>
        <time>2026-07-29T09:01:14.716Z</time>
      </trkpt>
      <trkpt lat="45.73913" lon="6.73446">
        <ele>2619</ele>
        <time>2026-07-29T09:01:15.716Z</time>
      </trkpt>
      <trkpt lat="45.73913" lon="6.73445">
        <ele>2620</ele>
        <time>2026-07-29T09:01:16.716Z</time>
      </trkpt>
      <trkpt lat="45.73914" lon="6.73444">
        <ele>2620</ele>
        <time>2026-07-29T09:01:17.716Z</time>
      </trkpt>
      <trkpt lat="45.73914" lon="6.73442">
        <ele>2620</ele>
        <time>2026-07-29T09:01:18.716Z</time>
      </trkpt>
      <trkpt lat="45.73914" lon="6.73442">
        <ele>2620</ele>
        <time>2026-07-29T09:01:19.716Z</time>
      </trkpt>
      <trkpt lat="45.73914" lon="6.73441">
        <ele>2621</ele>
        <time>2026-07-29T09:01:20.716Z</time>
      </trkpt>
      <trkpt lat="45.73914" lon="6.7344">
        <ele>2621</ele>
        <time>2026-07-29T09:01:21.716Z</time>
      </trkpt>
      <trkpt lat="45.73914" lon="6.73439">
        <ele>2621</ele>
        <time>2026-07-29T09:01:22.716Z</time>
      </trkpt>
      <trkpt lat="45.73914" lon="6.73438">
        <ele>2621</ele>
        <time>2026-07-29T09:01:23.716Z</time>
      </trkpt>
      <trkpt lat="45.73914" lon="6.73436">
        <ele>2621</ele>
        <time>2026-07-29T09:01:24.716Z</time>
      </trkpt>
      <trkpt lat="45.73914" lon="6.73435">
        <ele>2621</ele>
        <time>2026-07-29T09:01:25.716Z</time>
      </trkpt>
      <trkpt lat="45.73913" lon="6.73434">
        <ele>2621</ele>
        <time>2026-07-29T09:01:26.716Z</time>
      </trkpt>
      <trkpt lat="45.73913" lon="6.73433">
        <ele>2621</ele>
        <time>2026-07-29T09:01:27.716Z</time>
      </trkpt>
      <trkpt lat="45.73912" lon="6.73432">
        <ele>2622</ele>
        <time>2026-07-29T09:01:28.716Z</time>
      </trkpt>
      <trkpt lat="45.73912" lon="6.73432">
        <ele>2622</ele>
        <time>2026-07-29T09:01:29.716Z</time>
      </trkpt>
      <trkpt lat="45.73912" lon="6.73431">
        <ele>2622</ele>
        <time>2026-07-29T09:01:30.716Z</time>
      </trkpt>
      <trkpt lat="45.73912" lon="6.73431">
        <ele>2623</ele>
        <time>2026-07-29T09:01:31.716Z</time>
      </trkpt>
      <trkpt lat="45.73912" lon="6.73431">
        <ele>2623</ele>
        <time>2026-07-29T09:01:32.716Z</time>
      </trkpt>
      <trkpt lat="45.73912" lon="6.73431">
        <ele>2624</ele>
        <time>2026-07-29T09:01:33.716Z</time>
      </trkpt>
      <trkpt lat="45.73912" lon="6.73431">
        <ele>2624</ele>
        <time>2026-07-29T09:01:34.716Z</time>
      </trkpt>
      <trkpt lat="45.73912" lon="6.73431">
        <ele>2625</ele>
        <time>2026-07-29T09:01:35.716Z</time>
      </trkpt>
      <trkpt lat="45.73911" lon="6.73431">
        <ele>2625</ele>
        <time>2026-07-29T09:01:36.716Z</time>
      </trkpt>
      <trkpt lat="45.73911" lon="6.73432">
        <ele>2625</ele>
        <time>2026-07-29T09:01:37.716Z</time>
      </trkpt>
      <trkpt lat="45.7391" lon="6.73432">
        <ele>2626</ele>
        <time>2026-07-29T09:01:38.716Z</time>
      </trkpt>
      <trkpt lat="45.7391" lon="6.73433">
        <ele>2626</ele>
        <time>2026-07-29T09:01:39.716Z</time>
      </trkpt>
      <trkpt lat="45.73909" lon="6.73434">
        <ele>2627</ele>
        <time>2026-07-29T09:01:40.716Z</time>
      </trkpt>
      <trkpt lat="45.73909" lon="6.73435">
        <ele>2627</ele>
        <time>2026-07-29T09:01:41.716Z</time>
      </trkpt>
      <trkpt lat="45.73909" lon="6.73436">
        <ele>2627</ele>
        <time>2026-07-29T09:01:42.716Z</time>
      </trkpt>
      <trkpt lat="45.73908" lon="6.73437">
        <ele>2628</ele>
        <time>2026-07-29T09:01:43.716Z</time>
      </trkpt>
      <trkpt lat="45.73908" lon="6.73438">
        <ele>2628</ele>
        <time>2026-07-29T09:01:44.716Z</time>
      </trkpt>
      <trkpt lat="45.73907" lon="6.73438">
        <ele>2628</ele>
        <time>2026-07-29T09:01:45.716Z</time>
      </trkpt>
      <trkpt lat="45.73906" lon="6.73438">
        <ele>2628</ele>
        <time>2026-07-29T09:01:46.716Z</time>
      </trkpt>
      <trkpt lat="45.73906" lon="6.73438">
        <ele>2628</ele>
        <time>2026-07-29T09:01:47.716Z</time>
      </trkpt>
      <trkpt lat="45.73905" lon="6.73437">
        <ele>2628</ele>
        <time>2026-07-29T09:01:48.716Z</time>
      </trkpt>
      <trkpt lat="45.73904" lon="6.73436">
        <ele>2628</ele>
        <time>2026-07-29T09:01:49.716Z</time>
      </trkpt>
      <trkpt lat="45.73904" lon="6.73436">
        <ele>2628</ele>
        <time>2026-07-29T09:01:50.716Z</time>
      </trkpt>
      <trkpt lat="45.73903" lon="6.73434">
        <ele>2627</ele>
        <time>2026-07-29T09:01:51.716Z</time>
      </trkpt>
      <trkpt lat="45.73902" lon="6.73433">
        <ele>2627</ele>
        <time>2026-07-29T09:01:52.716Z</time>
      </trkpt>
      <trkpt lat="45.73902" lon="6.73432">
        <ele>2628</ele>
        <time>2026-07-29T09:01:53.716Z</time>
      </trkpt>
      <trkpt lat="45.73902" lon="6.73431">
        <ele>2628</ele>
        <time>2026-07-29T09:01:54.716Z</time>
      </trkpt>
      <trkpt lat="45.73901" lon="6.73431">
        <ele>2628</ele>
        <time>2026-07-29T09:01:55.716Z</time>
      </trkpt>
      <trkpt lat="45.73901" lon="6.7343">
        <ele>2628</ele>
        <time>2026-07-29T09:01:56.716Z</time>
      </trkpt>
      <trkpt lat="45.739" lon="6.73429">
        <ele>2628</ele>
        <time>2026-07-29T09:01:57.716Z</time>
      </trkpt>
      <trkpt lat="45.739" lon="6.73428">
        <ele>2628</ele>
        <time>2026-07-29T09:01:58.716Z</time>
      </trkpt>
      <trkpt lat="45.73899" lon="6.73427">
        <ele>2628</ele>
        <time>2026-07-29T09:01:59.716Z</time>
      </trkpt>
      <trkpt lat="45.73899" lon="6.73426">
        <ele>2628</ele>
        <time>2026-07-29T09:02:00.716Z</time>
      </trkpt>
      <trkpt lat="45.73899" lon="6.73425">
        <ele>2629</ele>
        <time>2026-07-29T09:02:01.716Z</time>
      </trkpt>
      <trkpt lat="45.73898" lon="6.73424">
        <ele>2629</ele>
        <time>2026-07-29T09:02:02.716Z</time>
      </trkpt>
      <trkpt lat="45.73898" lon="6.73424">
        <ele>2629</ele>
        <time>2026-07-29T09:02:03.716Z</time>
      </trkpt>
      <trkpt lat="45.73897" lon="6.73423">
        <ele>2630</ele>
        <time>2026-07-29T09:02:04.716Z</time>
      </trkpt>
      <trkpt lat="45.73897" lon="6.73423">
        <ele>2630</ele>
        <time>2026-07-29T09:02:05.716Z</time>
      </trkpt>
      <trkpt lat="45.73896" lon="6.73421">
        <ele>2630</ele>
        <time>2026-07-29T09:02:06.716Z</time>
      </trkpt>
      <trkpt lat="45.73896" lon="6.7342">
        <ele>2631</ele>
        <time>2026-07-29T09:02:07.716Z</time>
      </trkpt>
      <trkpt lat="45.73895" lon="6.73419">
        <ele>2631</ele>
        <time>2026-07-29T09:02:08.716Z</time>
      </trkpt>
      <trkpt lat="45.73895" lon="6.73419">
        <ele>2631</ele>
        <time>2026-07-29T09:02:09.716Z</time>
      </trkpt>
      <trkpt lat="45.73895" lon="6.73418">
        <ele>2632</ele>
        <time>2026-07-29T09:02:10.716Z</time>
      </trkpt>
      <trkpt lat="45.73895" lon="6.73417">
        <ele>2632</ele>
        <time>2026-07-29T09:02:11.716Z</time>
      </trkpt>
      <trkpt lat="45.73895" lon="6.73417">
        <ele>2633</ele>
        <time>2026-07-29T09:02:12.716Z</time>
      </trkpt>
      <trkpt lat="45.73895" lon="6.73416">
        <ele>2633</ele>
        <time>2026-07-29T09:02:13.716Z</time>
      </trkpt>
      <trkpt lat="45.73895" lon="6.73416">
        <ele>2633</ele>
        <time>2026-07-29T09:02:14.716Z</time>
      </trkpt>
      <trkpt lat="45.73895" lon="6.73415">
        <ele>2634</ele>
        <time>2026-07-29T09:02:15.716Z</time>
      </trkpt>
      <trkpt lat="45.73895" lon="6.73414">
        <ele>2634</ele>
        <time>2026-07-29T09:02:16.716Z</time>
      </trkpt>
      <trkpt lat="45.73894" lon="6.73413">
        <ele>2634</ele>
        <time>2026-07-29T09:02:17.716Z</time>
      </trkpt>
      <trkpt lat="45.73894" lon="6.73412">
        <ele>2634</ele>
        <time>2026-07-29T09:02:18.716Z</time>
      </trkpt>
      <trkpt lat="45.73894" lon="6.7341">
        <ele>2634</ele>
        <time>2026-07-29T09:02:19.716Z</time>
      </trkpt>
      <trkpt lat="45.73894" lon="6.73409">
        <ele>2633</ele>
        <time>2026-07-29T09:02:20.716Z</time>
      </trkpt>
      <trkpt lat="45.73894" lon="6.73408">
        <ele>2633</ele>
        <time>2026-07-29T09:02:21.716Z</time>
      </trkpt>
      <trkpt lat="45.73893" lon="6.73407">
        <ele>2633</ele>
        <time>2026-07-29T09:02:22.716Z</time>
      </trkpt>
      <trkpt lat="45.73893" lon="6.73406">
        <ele>2633</ele>
        <time>2026-07-29T09:02:23.716Z</time>
      </trkpt>
      <trkpt lat="45.73892" lon="6.73405">
        <ele>2633</ele>
        <time>2026-07-29T09:02:24.716Z</time>
      </trkpt>
      <trkpt lat="45.73891" lon="6.73405">
        <ele>2633</ele>
        <time>2026-07-29T09:02:25.716Z</time>
      </trkpt>
      <trkpt lat="45.7389" lon="6.73404">
        <ele>2633</ele>
        <time>2026-07-29T09:02:26.716Z</time>
      </trkpt>
      <trkpt lat="45.7389" lon="6.73403">
        <ele>2633</ele>
        <time>2026-07-29T09:02:27.716Z</time>
      </trkpt>
      <trkpt lat="45.73889" lon="6.73402">
        <ele>2633</ele>
        <time>2026-07-29T09:02:28.716Z</time>
      </trkpt>
      <trkpt lat="45.73889" lon="6.73402">
        <ele>2633</ele>
        <time>2026-07-29T09:02:29.716Z</time>
      </trkpt>
      <trkpt lat="45.73889" lon="6.73401">
        <ele>2633</ele>
        <time>2026-07-29T09:02:30.716Z</time>
      </trkpt>
      <trkpt lat="45.73888" lon="6.734">
        <ele>2633</ele>
        <time>2026-07-29T09:02:31.716Z</time>
      </trkpt>
      <trkpt lat="45.73888" lon="6.73399">
        <ele>2633</ele>
        <time>2026-07-29T09:02:32.716Z</time>
      </trkpt>
      <trkpt lat="45.73888" lon="6.73398">
        <ele>2633</ele>
        <time>2026-07-29T09:02:33.716Z</time>
      </trkpt>
      <trkpt lat="45.73887" lon="6.73397">
        <ele>2633</ele>
        <time>2026-07-29T09:02:34.716Z</time>
      </trkpt>
      <trkpt lat="45.73887" lon="6.73395">
        <ele>2634</ele>
        <time>2026-07-29T09:02:35.716Z</time>
      </trkpt>
      <trkpt lat="45.73887" lon="6.73394">
        <ele>2634</ele>
        <time>2026-07-29T09:02:36.716Z</time>
      </trkpt>
      <trkpt lat="45.73886" lon="6.73392">
        <ele>2634</ele>
        <time>2026-07-29T09:02:37.716Z</time>
      </trkpt>
      <trkpt lat="45.73886" lon="6.73391">
        <ele>2634</ele>
        <time>2026-07-29T09:02:38.716Z</time>
      </trkpt>
      <trkpt lat="45.73886" lon="6.73389">
        <ele>2634</ele>
        <time>2026-07-29T09:02:39.716Z</time>
      </trkpt>
      <trkpt lat="45.73885" lon="6.73388">
        <ele>2634</ele>
        <time>2026-07-29T09:02:40.716Z</time>
      </trkpt>
      <trkpt lat="45.73885" lon="6.73387">
        <ele>2634</ele>
        <time>2026-07-29T09:02:41.716Z</time>
      </trkpt>
      <trkpt lat="45.73884" lon="6.73386">
        <ele>2634</ele>
        <time>2026-07-29T09:02:42.716Z</time>
      </trkpt>
      <trkpt lat="45.73883" lon="6.73385">
        <ele>2634</ele>
        <time>2026-07-29T09:02:43.716Z</time>
      </trkpt>
      <trkpt lat="45.73883" lon="6.73384">
        <ele>2635</ele>
        <time>2026-07-29T09:02:44.716Z</time>
      </trkpt>
      <trkpt lat="45.73883" lon="6.73383">
        <ele>2634</ele>
        <time>2026-07-29T09:02:45.716Z</time>
      </trkpt>
      <trkpt lat="45.73882" lon="6.73383">
        <ele>2634</ele>
        <time>2026-07-29T09:02:46.716Z</time>
      </trkpt>
      <trkpt lat="45.73882" lon="6.73383">
        <ele>2635</ele>
        <time>2026-07-29T09:02:47.716Z</time>
      </trkpt>
      <trkpt lat="45.73882" lon="6.73383">
        <ele>2634</ele>
        <time>2026-07-29T09:02:48.716Z</time>
      </trkpt>
      <trkpt lat="45.73882" lon="6.73383">
        <ele>2634</ele>
        <time>2026-07-29T09:02:49.716Z</time>
      </trkpt>
      <trkpt lat="45.73881" lon="6.73383">
        <ele>2634</ele>
        <time>2026-07-29T09:02:50.716Z</time>
      </trkpt>
      <trkpt lat="45.7388" lon="6.73382">
        <ele>2633</ele>
        <time>2026-07-29T09:02:51.716Z</time>
      </trkpt>
      <trkpt lat="45.7388" lon="6.73382">
        <ele>2633</ele>
        <time>2026-07-29T09:02:52.716Z</time>
      </trkpt>
      <trkpt lat="45.73879" lon="6.73382">
        <ele>2633</ele>
        <time>2026-07-29T09:02:53.716Z</time>
      </trkpt>
      <trkpt lat="45.73879" lon="6.73381">
        <ele>2633</ele>
        <time>2026-07-29T09:02:54.716Z</time>
      </trkpt>
      <trkpt lat="45.73878" lon="6.73381">
        <ele>2633</ele>
        <time>2026-07-29T09:02:55.716Z</time>
      </trkpt>
      <trkpt lat="45.73877" lon="6.73381">
        <ele>2633</ele>
        <time>2026-07-29T09:02:56.716Z</time>
      </trkpt>
      <trkpt lat="45.73876" lon="6.73381">
        <ele>2634</ele>
        <time>2026-07-29T09:02:57.716Z</time>
      </trkpt>
      <trkpt lat="45.73876" lon="6.7338">
        <ele>2634</ele>
        <time>2026-07-29T09:02:58.716Z</time>
      </trkpt>
      <trkpt lat="45.73875" lon="6.73379">
        <ele>2634</ele>
        <time>2026-07-29T09:02:59.716Z</time>
      </trkpt>
      <trkpt lat="45.73875" lon="6.73378">
        <ele>2634</ele>
        <time>2026-07-29T09:03:00.716Z</time>
      </trkpt>
      <trkpt lat="45.73874" lon="6.73377">
        <ele>2634</ele>
        <time>2026-07-29T09:03:01.716Z</time>
      </trkpt>
      <trkpt lat="45.73874" lon="6.73376">
        <ele>2634</ele>
        <time>2026-07-29T09:03:02.716Z</time>
      </trkpt>
      <trkpt lat="45.73874" lon="6.73375">
        <ele>2635</ele>
        <time>2026-07-29T09:03:03.716Z</time>
      </trkpt>
      <trkpt lat="45.73873" lon="6.73374">
        <ele>2635</ele>
        <time>2026-07-29T09:03:04.716Z</time>
      </trkpt>
      <trkpt lat="45.73873" lon="6.73372">
        <ele>2635</ele>
        <time>2026-07-29T09:03:05.716Z</time>
      </trkpt>
      <trkpt lat="45.73873" lon="6.73371">
        <ele>2635</ele>
        <time>2026-07-29T09:03:06.716Z</time>
      </trkpt>
      <trkpt lat="45.73872" lon="6.7337">
        <ele>2635</ele>
        <time>2026-07-29T09:03:07.716Z</time>
      </trkpt>
      <trkpt lat="45.73872" lon="6.73369">
        <ele>2635</ele>
        <time>2026-07-29T09:03:08.716Z</time>
      </trkpt>
      <trkpt lat="45.73872" lon="6.73369">
        <ele>2635</ele>
        <time>2026-07-29T09:03:09.716Z</time>
      </trkpt>
      <trkpt lat="45.73872" lon="6.73368">
        <ele>2635</ele>
        <time>2026-07-29T09:03:10.716Z</time>
      </trkpt>
      <trkpt lat="45.73872" lon="6.73367">
        <ele>2636</ele>
        <time>2026-07-29T09:03:11.716Z</time>
      </trkpt>
      <trkpt lat="45.73872" lon="6.73367">
        <ele>2636</ele>
        <time>2026-07-29T09:03:12.716Z</time>
      </trkpt>
      <trkpt lat="45.73872" lon="6.73366">
        <ele>2636</ele>
        <time>2026-07-29T09:03:13.716Z</time>
      </trkpt>
      <trkpt lat="45.73872" lon="6.73366">
        <ele>2636</ele>
        <time>2026-07-29T09:03:14.716Z</time>
      </trkpt>
      <trkpt lat="45.73872" lon="6.73366">
        <ele>2636</ele>
        <time>2026-07-29T09:03:15.716Z</time>
      </trkpt>
      <trkpt lat="45.73871" lon="6.73366">
        <ele>2636</ele>
        <time>2026-07-29T09:03:16.716Z</time>
      </trkpt>
      <trkpt lat="45.73871" lon="6.73366">
        <ele>2636</ele>
        <time>2026-07-29T09:03:17.716Z</time>
      </trkpt>
      <trkpt lat="45.7387" lon="6.73367">
        <ele>2636</ele>
        <time>2026-07-29T09:03:18.716Z</time>
      </trkpt>
      <trkpt lat="45.73869" lon="6.73367">
        <ele>2636</ele>
        <time>2026-07-29T09:03:19.716Z</time>
      </trkpt>
      <trkpt lat="45.73869" lon="6.73368">
        <ele>2636</ele>
        <time>2026-07-29T09:03:20.716Z</time>
      </trkpt>
      <trkpt lat="45.73868" lon="6.73368">
        <ele>2636</ele>
        <time>2026-07-29T09:03:21.716Z</time>
      </trkpt>
      <trkpt lat="45.73868" lon="6.73368">
        <ele>2636</ele>
        <time>2026-07-29T09:03:22.716Z</time>
      </trkpt>
      <trkpt lat="45.73868" lon="6.73367">
        <ele>2636</ele>
        <time>2026-07-29T09:03:23.717Z</time>
      </trkpt>
      <trkpt lat="45.73867" lon="6.73366">
        <ele>2636</ele>
        <time>2026-07-29T09:03:24.716Z</time>
      </trkpt>
      <trkpt lat="45.73867" lon="6.73365">
        <ele>2636</ele>
        <time>2026-07-29T09:03:25.716Z</time>
      </trkpt>
      <trkpt lat="45.73868" lon="6.73364">
        <ele>2637</ele>
        <time>2026-07-29T09:03:26.716Z</time>
      </trkpt>
      <trkpt lat="45.73868" lon="6.73363">
        <ele>2637</ele>
        <time>2026-07-29T09:03:27.716Z</time>
      </trkpt>
      <trkpt lat="45.73868" lon="6.73362">
        <ele>2637</ele>
        <time>2026-07-29T09:03:28.716Z</time>
      </trkpt>
      <trkpt lat="45.73868" lon="6.73361">
        <ele>2637</ele>
        <time>2026-07-29T09:03:29.716Z</time>
      </trkpt>
      <trkpt lat="45.73868" lon="6.73361">
        <ele>2638</ele>
        <time>2026-07-29T09:03:30.716Z</time>
      </trkpt>
      <trkpt lat="45.73868" lon="6.7336">
        <ele>2638</ele>
        <time>2026-07-29T09:03:31.716Z</time>
      </trkpt>
      <trkpt lat="45.73868" lon="6.73359">
        <ele>2638</ele>
        <time>2026-07-29T09:03:32.716Z</time>
      </trkpt>
      <trkpt lat="45.73868" lon="6.73358">
        <ele>2638</ele>
        <time>2026-07-29T09:03:33.716Z</time>
      </trkpt>
      <trkpt lat="45.73868" lon="6.73357">
        <ele>2639</ele>
        <time>2026-07-29T09:03:34.716Z</time>
      </trkpt>
      <trkpt lat="45.73867" lon="6.73356">
        <ele>2639</ele>
        <time>2026-07-29T09:03:35.716Z</time>
      </trkpt>
      <trkpt lat="45.73867" lon="6.73356">
        <ele>2639</ele>
        <time>2026-07-29T09:03:36.716Z</time>
      </trkpt>
      <trkpt lat="45.73867" lon="6.73355">
        <ele>2639</ele>
        <time>2026-07-29T09:03:37.716Z</time>
      </trkpt>
      <trkpt lat="45.73867" lon="6.73355">
        <ele>2640</ele>
        <time>2026-07-29T09:03:38.716Z</time>
      </trkpt>
      <trkpt lat="45.73866" lon="6.73355">
        <ele>2640</ele>
        <time>2026-07-29T09:03:39.716Z</time>
      </trkpt>
      <trkpt lat="45.73865" lon="6.73354">
        <ele>2640</ele>
        <time>2026-07-29T09:03:40.716Z</time>
      </trkpt>
      <trkpt lat="45.73865" lon="6.73353">
        <ele>2640</ele>
        <time>2026-07-29T09:03:41.716Z</time>
      </trkpt>
      <trkpt lat="45.73864" lon="6.73352">
        <ele>2641</ele>
        <time>2026-07-29T09:03:42.716Z</time>
      </trkpt>
      <trkpt lat="45.73864" lon="6.73351">
        <ele>2640</ele>
        <time>2026-07-29T09:03:43.716Z</time>
      </trkpt>
      <trkpt lat="45.73864" lon="6.7335">
        <ele>2641</ele>
        <time>2026-07-29T09:03:44.716Z</time>
      </trkpt>
      <trkpt lat="45.73865" lon="6.73349">
        <ele>2641</ele>
        <time>2026-07-29T09:03:45.716Z</time>
      </trkpt>
      <trkpt lat="45.73865" lon="6.73348">
        <ele>2641</ele>
        <time>2026-07-29T09:03:46.716Z</time>
      </trkpt>
      <trkpt lat="45.73865" lon="6.73348">
        <ele>2641</ele>
        <time>2026-07-29T09:03:47.716Z</time>
      </trkpt>
      <trkpt lat="45.73865" lon="6.73347">
        <ele>2642</ele>
        <time>2026-07-29T09:03:48.716Z</time>
      </trkpt>
      <trkpt lat="45.73865" lon="6.73346">
        <ele>2642</ele>
        <time>2026-07-29T09:03:49.716Z</time>
      </trkpt>
      <trkpt lat="45.73865" lon="6.73346">
        <ele>2642</ele>
        <time>2026-07-29T09:03:50.716Z</time>
      </trkpt>
      <trkpt lat="45.73865" lon="6.73345">
        <ele>2643</ele>
        <time>2026-07-29T09:03:51.716Z</time>
      </trkpt>
      <trkpt lat="45.73865" lon="6.73344">
        <ele>2643</ele>
        <time>2026-07-29T09:03:52.716Z</time>
      </trkpt>
      <trkpt lat="45.73865" lon="6.73343">
        <ele>2643</ele>
        <time>2026-07-29T09:03:53.716Z</time>
      </trkpt>
      <trkpt lat="45.73865" lon="6.73342">
        <ele>2643</ele>
        <time>2026-07-29T09:03:54.716Z</time>
      </trkpt>
      <trkpt lat="45.73864" lon="6.7334">
        <ele>2643</ele>
        <time>2026-07-29T09:03:55.716Z</time>
      </trkpt>
      <trkpt lat="45.73864" lon="6.73339">
        <ele>2644</ele>
        <time>2026-07-29T09:03:56.716Z</time>
      </trkpt>
      <trkpt lat="45.73864" lon="6.73338">
        <ele>2644</ele>
        <time>2026-07-29T09:03:57.716Z</time>
      </trkpt>
      <trkpt lat="45.73864" lon="6.73336">
        <ele>2644</ele>
        <time>2026-07-29T09:03:58.716Z</time>
      </trkpt>
      <trkpt lat="45.73863" lon="6.73335">
        <ele>2645</ele>
        <time>2026-07-29T09:03:59.716Z</time>
      </trkpt>
      <trkpt lat="45.73863" lon="6.73334">
        <ele>2645</ele>
        <time>2026-07-29T09:04:00.716Z</time>
      </trkpt>
      <trkpt lat="45.73863" lon="6.73333">
        <ele>2645</ele>
        <time>2026-07-29T09:04:01.716Z</time>
      </trkpt>
      <trkpt lat="45.73862" lon="6.73332">
        <ele>2645</ele>
        <time>2026-07-29T09:04:02.716Z</time>
      </trkpt>
      <trkpt lat="45.73862" lon="6.73331">
        <ele>2645</ele>
        <time>2026-07-29T09:04:03.716Z</time>
      </trkpt>
      <trkpt lat="45.73862" lon="6.7333">
        <ele>2645</ele>
        <time>2026-07-29T09:04:04.716Z</time>
      </trkpt>
      <trkpt lat="45.73861" lon="6.73329">
        <ele>2645</ele>
        <time>2026-07-29T09:04:05.716Z</time>
      </trkpt>
      <trkpt lat="45.73861" lon="6.73327">
        <ele>2645</ele>
        <time>2026-07-29T09:04:06.716Z</time>
      </trkpt>
      <trkpt lat="45.73861" lon="6.73326">
        <ele>2646</ele>
        <time>2026-07-29T09:04:07.716Z</time>
      </trkpt>
      <trkpt lat="45.73861" lon="6.73326">
        <ele>2646</ele>
        <time>2026-07-29T09:04:08.716Z</time>
      </trkpt>
      <trkpt lat="45.73862" lon="6.73325">
        <ele>2646</ele>
        <time>2026-07-29T09:04:09.716Z</time>
      </trkpt>
      <trkpt lat="45.73861" lon="6.73324">
        <ele>2647</ele>
        <time>2026-07-29T09:04:10.716Z</time>
      </trkpt>
      <trkpt lat="45.73861" lon="6.73324">
        <ele>2647</ele>
        <time>2026-07-29T09:04:11.716Z</time>
      </trkpt>
      <trkpt lat="45.73861" lon="6.73323">
        <ele>2648</ele>
        <time>2026-07-29T09:04:12.716Z</time>
      </trkpt>
      <trkpt lat="45.7386" lon="6.73322">
        <ele>2649</ele>
        <time>2026-07-29T09:04:13.716Z</time>
      </trkpt>
      <trkpt lat="45.7386" lon="6.73322">
        <ele>2649</ele>
        <time>2026-07-29T09:04:14.716Z</time>
      </trkpt>
      <trkpt lat="45.73859" lon="6.73321">
        <ele>2650</ele>
        <time>2026-07-29T09:04:15.716Z</time>
      </trkpt>
      <trkpt lat="45.73859" lon="6.7332">
        <ele>2651</ele>
        <time>2026-07-29T09:04:16.716Z</time>
      </trkpt>
      <trkpt lat="45.73858" lon="6.7332">
        <ele>2651</ele>
        <time>2026-07-29T09:04:17.716Z</time>
      </trkpt>
      <trkpt lat="45.73858" lon="6.7332">
        <ele>2651</ele>
        <time>2026-07-29T09:04:18.716Z</time>
      </trkpt>
      <trkpt lat="45.73858" lon="6.7332">
        <ele>2651</ele>
        <time>2026-07-29T09:04:19.716Z</time>
      </trkpt>
      <trkpt lat="45.73857" lon="6.7332">
        <ele>2651</ele>
        <time>2026-07-29T09:04:20.716Z</time>
      </trkpt>
      <trkpt lat="45.73856" lon="6.73321">
        <ele>2651</ele>
        <time>2026-07-29T09:04:21.716Z</time>
      </trkpt>
      <trkpt lat="45.73856" lon="6.73321">
        <ele>2651</ele>
        <time>2026-07-29T09:04:22.716Z</time>
      </trkpt>
      <trkpt lat="45.73855" lon="6.73321">
        <ele>2651</ele>
        <time>2026-07-29T09:04:23.716Z</time>
      </trkpt>
      <trkpt lat="45.73855" lon="6.73321">
        <ele>2651</ele>
        <time>2026-07-29T09:04:24.716Z</time>
      </trkpt>
      <trkpt lat="45.73854" lon="6.73321">
        <ele>2651</ele>
        <time>2026-07-29T09:04:25.716Z</time>
      </trkpt>
      <trkpt lat="45.73854" lon="6.73321">
        <ele>2650</ele>
        <time>2026-07-29T09:04:26.716Z</time>
      </trkpt>
      <trkpt lat="45.73853" lon="6.73321">
        <ele>2650</ele>
        <time>2026-07-29T09:04:27.716Z</time>
      </trkpt>
      <trkpt lat="45.73852" lon="6.73321">
        <ele>2650</ele>
        <time>2026-07-29T09:04:28.716Z</time>
      </trkpt>
      <trkpt lat="45.73852" lon="6.73321">
        <ele>2651</ele>
        <time>2026-07-29T09:04:29.716Z</time>
      </trkpt>
      <trkpt lat="45.73851" lon="6.7332">
        <ele>2651</ele>
        <time>2026-07-29T09:04:30.716Z</time>
      </trkpt>
      <trkpt lat="45.73851" lon="6.7332">
        <ele>2651</ele>
        <time>2026-07-29T09:04:31.716Z</time>
      </trkpt>
      <trkpt lat="45.7385" lon="6.73319">
        <ele>2651</ele>
        <time>2026-07-29T09:04:32.716Z</time>
      </trkpt>
      <trkpt lat="45.7385" lon="6.73318">
        <ele>2652</ele>
        <time>2026-07-29T09:04:33.716Z</time>
      </trkpt>
      <trkpt lat="45.73849" lon="6.73317">
        <ele>2652</ele>
        <time>2026-07-29T09:04:34.716Z</time>
      </trkpt>
      <trkpt lat="45.73849" lon="6.73316">
        <ele>2651</ele>
        <time>2026-07-29T09:04:35.716Z</time>
      </trkpt>
      <trkpt lat="45.73848" lon="6.73316">
        <ele>2651</ele>
        <time>2026-07-29T09:04:36.716Z</time>
      </trkpt>
      <trkpt lat="45.73848" lon="6.73315">
        <ele>2651</ele>
        <time>2026-07-29T09:04:37.716Z</time>
      </trkpt>
      <trkpt lat="45.73847" lon="6.73315">
        <ele>2651</ele>
        <time>2026-07-29T09:04:38.716Z</time>
      </trkpt>
      <trkpt lat="45.73847" lon="6.73314">
        <ele>2652</ele>
        <time>2026-07-29T09:04:39.716Z</time>
      </trkpt>
      <trkpt lat="45.73847" lon="6.73314">
        <ele>2652</ele>
        <time>2026-07-29T09:04:40.716Z</time>
      </trkpt>
      <trkpt lat="45.73846" lon="6.73314">
        <ele>2652</ele>
        <time>2026-07-29T09:04:41.716Z</time>
      </trkpt>
      <trkpt lat="45.73846" lon="6.73314">
        <ele>2653</ele>
        <time>2026-07-29T09:04:42.716Z</time>
      </trkpt>
      <trkpt lat="45.73846" lon="6.73314">
        <ele>2653</ele>
        <time>2026-07-29T09:04:43.716Z</time>
      </trkpt>
      <trkpt lat="45.73846" lon="6.73314">
        <ele>2654</ele>
        <time>2026-07-29T09:04:44.716Z</time>
      </trkpt>
      <trkpt lat="45.73846" lon="6.73314">
        <ele>2655</ele>
        <time>2026-07-29T09:04:45.716Z</time>
      </trkpt>
      <trkpt lat="45.73846" lon="6.73314">
        <ele>2655</ele>
        <time>2026-07-29T09:04:46.716Z</time>
      </trkpt>
      <trkpt lat="45.73846" lon="6.73314">
        <ele>2656</ele>
        <time>2026-07-29T09:04:47.716Z</time>
      </trkpt>
      <trkpt lat="45.73846" lon="6.73314">
        <ele>2656</ele>
        <time>2026-07-29T09:04:48.716Z</time>
      </trkpt>
      <trkpt lat="45.73846" lon="6.73314">
        <ele>2656</ele>
        <time>2026-07-29T09:04:49.716Z</time>
      </trkpt>
      <trkpt lat="45.73846" lon="6.73314">
        <ele>2656</ele>
        <time>2026-07-29T09:04:50.716Z</time>
      </trkpt>
      <trkpt lat="45.73846" lon="6.73315">
        <ele>2656</ele>
        <time>2026-07-29T09:04:51.716Z</time>
      </trkpt>
      <trkpt lat="45.73846" lon="6.73315">
        <ele>2656</ele>
        <time>2026-07-29T09:04:52.716Z</time>
      </trkpt>
      <trkpt lat="45.73846" lon="6.73315">
        <ele>2656</ele>
        <time>2026-07-29T09:04:53.716Z</time>
      </trkpt>
      <trkpt lat="45.73846" lon="6.73315">
        <ele>2657</ele>
        <time>2026-07-29T09:04:54.716Z</time>
      </trkpt>
      <trkpt lat="45.73846" lon="6.73315">
        <ele>2657</ele>
        <time>2026-07-29T09:04:55.716Z</time>
      </trkpt>
      <trkpt lat="45.73846" lon="6.73315">
        <ele>2657</ele>
        <time>2026-07-29T09:04:56.716Z</time>
      </trkpt>
      <trkpt lat="45.73846" lon="6.73315">
        <ele>2657</ele>
        <time>2026-07-29T09:04:57.716Z</time>
      </trkpt>
      <trkpt lat="45.73846" lon="6.73315">
        <ele>2657</ele>
        <time>2026-07-29T09:04:58.716Z</time>
      </trkpt>
      <trkpt lat="45.73846" lon="6.73315">
        <ele>2657</ele>
        <time>2026-07-29T09:04:59.716Z</time>
      </trkpt>
      <trkpt lat="45.73846" lon="6.73315">
        <ele>2657</ele>
        <time>2026-07-29T09:05:00.716Z</time>
      </trkpt>
      <trkpt lat="45.73846" lon="6.73315">
        <ele>2657</ele>
        <time>2026-07-29T09:05:01.716Z</time>
      </trkpt>
      <trkpt lat="45.73846" lon="6.73315">
        <ele>2657</ele>
        <time>2026-07-29T09:05:02.716Z</time>
      </trkpt>
      <trkpt lat="45.73846" lon="6.73315">
        <ele>2657</ele>
        <time>2026-07-29T09:05:03.716Z</time>
      </trkpt>
      <trkpt lat="45.73846" lon="6.73315">
        <ele>2657</ele>
        <time>2026-07-29T09:05:04.716Z</time>
      </trkpt>
      <trkpt lat="45.73846" lon="6.73315">
        <ele>2657</ele>
        <time>2026-07-29T09:05:05.716Z</time>
      </trkpt>
      <trkpt lat="45.73846" lon="6.73315">
        <ele>2657</ele>
        <time>2026-07-29T09:05:06.716Z</time>
      </trkpt>
      <trkpt lat="45.73846" lon="6.73315">
        <ele>2657</ele>
        <time>2026-07-29T09:05:07.716Z</time>
      </trkpt>
      <trkpt lat="45.73846" lon="6.73315">
        <ele>2657</ele>
        <time>2026-07-29T09:05:08.716Z</time>
      </trkpt>
      <trkpt lat="45.73846" lon="6.73315">
        <ele>2657</ele>
        <time>2026-07-29T09:05:09.716Z</time>
      </trkpt>
      <trkpt lat="45.73846" lon="6.73315">
        <ele>2657</ele>
        <time>2026-07-29T09:05:10.716Z</time>
      </trkpt>
      <trkpt lat="45.73846" lon="6.73315">
        <ele>2657</ele>
        <time>2026-07-29T09:05:11.716Z</time>
      </trkpt>
      <trkpt lat="45.73846" lon="6.73315">
        <ele>2657</ele>
        <time>2026-07-29T09:05:12.716Z</time>
      </trkpt>
      <trkpt lat="45.73846" lon="6.73315">
        <ele>2657</ele>
        <time>2026-07-29T09:05:13.716Z</time>
      </trkpt>
      <trkpt lat="45.73846" lon="6.73315">
        <ele>2657</ele>
        <time>2026-07-29T09:05:14.716Z</time>
      </trkpt>
      <trkpt lat="45.73846" lon="6.73315">
        <ele>2657</ele>
        <time>2026-07-29T09:05:15.716Z</time>
      </trkpt>
      <trkpt lat="45.73846" lon="6.73315">
        <ele>2657</ele>
        <time>2026-07-29T09:05:16.716Z</time>
      </trkpt>
      <trkpt lat="45.73846" lon="6.73315">
        <ele>2657</ele>
        <time>2026-07-29T09:05:17.716Z</time>
      </trkpt>
      <trkpt lat="45.73846" lon="6.73315">
        <ele>2657</ele>
        <time>2026-07-29T09:05:18.716Z</time>
      </trkpt>
      <trkpt lat="45.73846" lon="6.73315">
        <ele>2657</ele>
        <time>2026-07-29T09:05:19.716Z</time>
      </trkpt>
      <trkpt lat="45.73846" lon="6.73315">
        <ele>2657</ele>
        <time>2026-07-29T09:05:20.716Z</time>
      </trkpt>
      <trkpt lat="45.73846" lon="6.73315">
        <ele>2657</ele>
        <time>2026-07-29T09:05:21.716Z</time>
      </trkpt>
      <trkpt lat="45.73846" lon="6.73315">
        <ele>2657</ele>
        <time>2026-07-29T09:05:22.716Z</time>
      </trkpt>
      <trkpt lat="45.73846" lon="6.73315">
        <ele>2657</ele>
        <time>2026-07-29T09:05:23.716Z</time>
      </trkpt>
      <trkpt lat="45.73846" lon="6.73315">
        <ele>2657</ele>
        <time>2026-07-29T09:05:24.716Z</time>
      </trkpt>
      <trkpt lat="45.73846" lon="6.73315">
        <ele>2657</ele>
        <time>2026-07-29T09:05:25.716Z</time>
      </trkpt>
      <trkpt lat="45.73846" lon="6.73315">
        <ele>2657</ele>
        <time>2026-07-29T09:05:26.716Z</time>
      </trkpt>
      <trkpt lat="45.73846" lon="6.73315">
        <ele>2657</ele>
        <time>2026-07-29T09:05:27.716Z</time>
      </trkpt>
      <trkpt lat="45.73846" lon="6.73315">
        <ele>2657</ele>
        <time>2026-07-29T09:05:28.716Z</time>
      </trkpt>
      <trkpt lat="45.73846" lon="6.73315">
        <ele>2657</ele>
        <time>2026-07-29T09:05:29.716Z</time>
      </trkpt>
      <trkpt lat="45.73846" lon="6.73315">
        <ele>2657</ele>
        <time>2026-07-29T09:05:30.716Z</time>
      </trkpt>
      <trkpt lat="45.73846" lon="6.73315">
        <ele>2657</ele>
        <time>2026-07-29T09:05:31.716Z</time>
      </trkpt>
      <trkpt lat="45.73846" lon="6.73315">
        <ele>2657</ele>
        <time>2026-07-29T09:05:32.716Z</time>
      </trkpt>
      <trkpt lat="45.73846" lon="6.73315">
        <ele>2657</ele>
        <time>2026-07-29T09:05:33.716Z</time>
      </trkpt>
      <trkpt lat="45.73846" lon="6.73315">
        <ele>2657</ele>
        <time>2026-07-29T09:05:34.716Z</time>
      </trkpt>
      <trkpt lat="45.73846" lon="6.73315">
        <ele>2657</ele>
        <time>2026-07-29T09:05:35.716Z</time>
      </trkpt>
      <trkpt lat="45.73846" lon="6.73315">
        <ele>2657</ele>
        <time>2026-07-29T09:05:36.716Z</time>
      </trkpt>
      <trkpt lat="45.73846" lon="6.73315">
        <ele>2657</ele>
        <time>2026-07-29T09:05:37.716Z</time>
      </trkpt>
      <trkpt lat="45.73846" lon="6.73315">
        <ele>2657</ele>
        <time>2026-07-29T09:05:38.716Z</time>
      </trkpt>
      <trkpt lat="45.73846" lon="6.73315">
        <ele>2657</ele>
        <time>2026-07-29T09:05:39.716Z</time>
      </trkpt>
      <trkpt lat="45.73846" lon="6.73315">
        <ele>2657</ele>
        <time>2026-07-29T09:05:40.716Z</time>
      </trkpt>
      <trkpt lat="45.73846" lon="6.73314">
        <ele>2657</ele>
        <time>2026-07-29T09:05:41.716Z</time>
      </trkpt>
      <trkpt lat="45.73846" lon="6.73311">
        <ele>2657</ele>
        <time>2026-07-29T09:05:42.716Z</time>
      </trkpt>
      <trkpt lat="45.73846" lon="6.73309">
        <ele>2657</ele>
        <time>2026-07-29T09:05:43.716Z</time>
      </trkpt>
      <trkpt lat="45.73845" lon="6.73306">
        <ele>2657</ele>
        <time>2026-07-29T09:05:44.716Z</time>
      </trkpt>
      <trkpt lat="45.73845" lon="6.73304">
        <ele>2657</ele>
        <time>2026-07-29T09:05:45.716Z</time>
      </trkpt>
      <trkpt lat="45.73844" lon="6.73301">
        <ele>2657</ele>
        <time>2026-07-29T09:05:46.716Z</time>
      </trkpt>
      <trkpt lat="45.73844" lon="6.73299">
        <ele>2657</ele>
        <time>2026-07-29T09:05:47.716Z</time>
      </trkpt>
      <trkpt lat="45.73844" lon="6.73297">
        <ele>2657</ele>
        <time>2026-07-29T09:05:48.716Z</time>
      </trkpt>
      <trkpt lat="45.73844" lon="6.73294">
        <ele>2657</ele>
        <time>2026-07-29T09:05:49.716Z</time>
      </trkpt>
      <trkpt lat="45.73844" lon="6.73292">
        <ele>2657</ele>
        <time>2026-07-29T09:05:50.716Z</time>
      </trkpt>
      <trkpt lat="45.73844" lon="6.73292">
        <ele>2657</ele>
        <time>2026-07-29T09:05:51.716Z</time>
      </trkpt>
      <trkpt lat="45.73844" lon="6.73291">
        <ele>2658</ele>
        <time>2026-07-29T09:05:52.716Z</time>
      </trkpt>
      <trkpt lat="45.73844" lon="6.7329">
        <ele>2658</ele>
        <time>2026-07-29T09:05:53.716Z</time>
      </trkpt>
      <trkpt lat="45.73843" lon="6.73289">
        <ele>2658</ele>
        <time>2026-07-29T09:05:54.716Z</time>
      </trkpt>
      <trkpt lat="45.73843" lon="6.73288">
        <ele>2658</ele>
        <time>2026-07-29T09:05:55.716Z</time>
      </trkpt>
      <trkpt lat="45.73842" lon="6.73288">
        <ele>2658</ele>
        <time>2026-07-29T09:05:56.716Z</time>
      </trkpt>
      <trkpt lat="45.73841" lon="6.73287">
        <ele>2658</ele>
        <time>2026-07-29T09:05:57.716Z</time>
      </trkpt>
      <trkpt lat="45.7384" lon="6.73287">
        <ele>2658</ele>
        <time>2026-07-29T09:05:58.716Z</time>
      </trkpt>
      <trkpt lat="45.73839" lon="6.73286">
        <ele>2658</ele>
        <time>2026-07-29T09:05:59.716Z</time>
      </trkpt>
      <trkpt lat="45.73838" lon="6.73286">
        <ele>2658</ele>
        <time>2026-07-29T09:06:00.716Z</time>
      </trkpt>
      <trkpt lat="45.73837" lon="6.73285">
        <ele>2658</ele>
        <time>2026-07-29T09:06:01.716Z</time>
      </trkpt>
      <trkpt lat="45.73836" lon="6.73285">
        <ele>2658</ele>
        <time>2026-07-29T09:06:02.716Z</time>
      </trkpt>
      <trkpt lat="45.73835" lon="6.73284">
        <ele>2658</ele>
        <time>2026-07-29T09:06:03.716Z</time>
      </trkpt>
      <trkpt lat="45.73835" lon="6.73284">
        <ele>2659</ele>
        <time>2026-07-29T09:06:04.716Z</time>
      </trkpt>
      <trkpt lat="45.73834" lon="6.73283">
        <ele>2659</ele>
        <time>2026-07-29T09:06:05.716Z</time>
      </trkpt>
      <trkpt lat="45.73833" lon="6.73283">
        <ele>2659</ele>
        <time>2026-07-29T09:06:06.716Z</time>
      </trkpt>
      <trkpt lat="45.73832" lon="6.73282">
        <ele>2659</ele>
        <time>2026-07-29T09:06:07.716Z</time>
      </trkpt>
      <trkpt lat="45.73831" lon="6.73281">
        <ele>2659</ele>
        <time>2026-07-29T09:06:08.716Z</time>
      </trkpt>
      <trkpt lat="45.7383" lon="6.73281">
        <ele>2659</ele>
        <time>2026-07-29T09:06:09.716Z</time>
      </trkpt>
      <trkpt lat="45.7383" lon="6.7328">
        <ele>2659</ele>
        <time>2026-07-29T09:06:10.716Z</time>
      </trkpt>
      <trkpt lat="45.73829" lon="6.73279">
        <ele>2659</ele>
        <time>2026-07-29T09:06:11.716Z</time>
      </trkpt>
      <trkpt lat="45.73829" lon="6.73278">
        <ele>2659</ele>
        <time>2026-07-29T09:06:12.716Z</time>
      </trkpt>
      <trkpt lat="45.73829" lon="6.73277">
        <ele>2660</ele>
        <time>2026-07-29T09:06:13.716Z</time>
      </trkpt>
      <trkpt lat="45.73829" lon="6.73276">
        <ele>2660</ele>
        <time>2026-07-29T09:06:14.716Z</time>
      </trkpt>
      <trkpt lat="45.73829" lon="6.73276">
        <ele>2660</ele>
        <time>2026-07-29T09:06:15.716Z</time>
      </trkpt>
      <trkpt lat="45.7383" lon="6.73276">
        <ele>2661</ele>
        <time>2026-07-29T09:06:16.716Z</time>
      </trkpt>
      <trkpt lat="45.73831" lon="6.73275">
        <ele>2661</ele>
        <time>2026-07-29T09:06:17.716Z</time>
      </trkpt>
      <trkpt lat="45.73832" lon="6.73275">
        <ele>2661</ele>
        <time>2026-07-29T09:06:18.716Z</time>
      </trkpt>
      <trkpt lat="45.73833" lon="6.73275">
        <ele>2662</ele>
        <time>2026-07-29T09:06:19.716Z</time>
      </trkpt>
      <trkpt lat="45.73834" lon="6.73275">
        <ele>2662</ele>
        <time>2026-07-29T09:06:20.716Z</time>
      </trkpt>
      <trkpt lat="45.73835" lon="6.73275">
        <ele>2663</ele>
        <time>2026-07-29T09:06:21.716Z</time>
      </trkpt>
      <trkpt lat="45.73835" lon="6.73274">
        <ele>2663</ele>
        <time>2026-07-29T09:06:22.716Z</time>
      </trkpt>
      <trkpt lat="45.73836" lon="6.73274">
        <ele>2664</ele>
        <time>2026-07-29T09:06:23.716Z</time>
      </trkpt>
      <trkpt lat="45.73837" lon="6.73274">
        <ele>2664</ele>
        <time>2026-07-29T09:06:24.716Z</time>
      </trkpt>
      <trkpt lat="45.73838" lon="6.73274">
        <ele>2665</ele>
        <time>2026-07-29T09:06:25.716Z</time>
      </trkpt>
      <trkpt lat="45.73838" lon="6.73273">
        <ele>2665</ele>
        <time>2026-07-29T09:06:26.716Z</time>
      </trkpt>
      <trkpt lat="45.73838" lon="6.73273">
        <ele>2665</ele>
        <time>2026-07-29T09:06:27.716Z</time>
      </trkpt>
      <trkpt lat="45.7384" lon="6.73272">
        <ele>2666</ele>
        <time>2026-07-29T09:06:28.716Z</time>
      </trkpt>
      <trkpt lat="45.7384" lon="6.73271">
        <ele>2666</ele>
        <time>2026-07-29T09:06:29.716Z</time>
      </trkpt>
      <trkpt lat="45.73841" lon="6.73271">
        <ele>2666</ele>
        <time>2026-07-29T09:06:30.716Z</time>
      </trkpt>
      <trkpt lat="45.73841" lon="6.73271">
        <ele>2666</ele>
        <time>2026-07-29T09:06:31.716Z</time>
      </trkpt>
      <trkpt lat="45.73842" lon="6.73271">
        <ele>2667</ele>
        <time>2026-07-29T09:06:32.716Z</time>
      </trkpt>
      <trkpt lat="45.73842" lon="6.73271">
        <ele>2667</ele>
        <time>2026-07-29T09:06:33.716Z</time>
      </trkpt>
      <trkpt lat="45.73843" lon="6.7327">
        <ele>2668</ele>
        <time>2026-07-29T09:06:34.716Z</time>
      </trkpt>
      <trkpt lat="45.73843" lon="6.73271">
        <ele>2668</ele>
        <time>2026-07-29T09:06:35.716Z</time>
      </trkpt>
      <trkpt lat="45.73844" lon="6.7327">
        <ele>2668</ele>
        <time>2026-07-29T09:06:36.716Z</time>
      </trkpt>
      <trkpt lat="45.73844" lon="6.7327">
        <ele>2668</ele>
        <time>2026-07-29T09:06:37.716Z</time>
      </trkpt>
      <trkpt lat="45.73845" lon="6.7327">
        <ele>2668</ele>
        <time>2026-07-29T09:06:38.716Z</time>
      </trkpt>
      <trkpt lat="45.73845" lon="6.73269">
        <ele>2668</ele>
        <time>2026-07-29T09:06:39.716Z</time>
      </trkpt>
      <trkpt lat="45.73845" lon="6.73269">
        <ele>2668</ele>
        <time>2026-07-29T09:06:40.716Z</time>
      </trkpt>
      <trkpt lat="45.73846" lon="6.73269">
        <ele>2668</ele>
        <time>2026-07-29T09:06:41.716Z</time>
      </trkpt>
      <trkpt lat="45.73847" lon="6.73268">
        <ele>2668</ele>
        <time>2026-07-29T09:06:42.716Z</time>
      </trkpt>
      <trkpt lat="45.73848" lon="6.73269">
        <ele>2668</ele>
        <time>2026-07-29T09:06:43.716Z</time>
      </trkpt>
      <trkpt lat="45.73849" lon="6.73269">
        <ele>2669</ele>
        <time>2026-07-29T09:06:44.716Z</time>
      </trkpt>
      <trkpt lat="45.7385" lon="6.73269">
        <ele>2669</ele>
        <time>2026-07-29T09:06:45.716Z</time>
      </trkpt>
      <trkpt lat="45.7385" lon="6.73268">
        <ele>2669</ele>
        <time>2026-07-29T09:06:46.716Z</time>
      </trkpt>
      <trkpt lat="45.7385" lon="6.73268">
        <ele>2669</ele>
        <time>2026-07-29T09:06:47.716Z</time>
      </trkpt>
      <trkpt lat="45.7385" lon="6.73268">
        <ele>2669</ele>
        <time>2026-07-29T09:06:48.716Z</time>
      </trkpt>
      <trkpt lat="45.73849" lon="6.73267">
        <ele>2669</ele>
        <time>2026-07-29T09:06:49.716Z</time>
      </trkpt>
      <trkpt lat="45.73848" lon="6.73267">
        <ele>2669</ele>
        <time>2026-07-29T09:06:50.716Z</time>
      </trkpt>
      <trkpt lat="45.73847" lon="6.73266">
        <ele>2669</ele>
        <time>2026-07-29T09:06:51.716Z</time>
      </trkpt>
      <trkpt lat="45.73846" lon="6.73266">
        <ele>2669</ele>
        <time>2026-07-29T09:06:52.716Z</time>
      </trkpt>
      <trkpt lat="45.73846" lon="6.73265">
        <ele>2668</ele>
        <time>2026-07-29T09:06:53.716Z</time>
      </trkpt>
      <trkpt lat="45.73845" lon="6.73264">
        <ele>2669</ele>
        <time>2026-07-29T09:06:54.716Z</time>
      </trkpt>
      <trkpt lat="45.73844" lon="6.73263">
        <ele>2669</ele>
        <time>2026-07-29T09:06:55.716Z</time>
      </trkpt>
      <trkpt lat="45.73844" lon="6.73263">
        <ele>2669</ele>
        <time>2026-07-29T09:06:56.716Z</time>
      </trkpt>
      <trkpt lat="45.73843" lon="6.73262">
        <ele>2670</ele>
        <time>2026-07-29T09:06:57.716Z</time>
      </trkpt>
      <trkpt lat="45.73843" lon="6.73261">
        <ele>2670</ele>
        <time>2026-07-29T09:06:58.716Z</time>
      </trkpt>
      <trkpt lat="45.73842" lon="6.7326">
        <ele>2670</ele>
        <time>2026-07-29T09:06:59.716Z</time>
      </trkpt>
      <trkpt lat="45.73842" lon="6.7326">
        <ele>2670</ele>
        <time>2026-07-29T09:07:00.716Z</time>
      </trkpt>
      <trkpt lat="45.73841" lon="6.73259">
        <ele>2670</ele>
        <time>2026-07-29T09:07:01.716Z</time>
      </trkpt>
      <trkpt lat="45.73841" lon="6.73259">
        <ele>2670</ele>
        <time>2026-07-29T09:07:02.716Z</time>
      </trkpt>
      <trkpt lat="45.7384" lon="6.73258">
        <ele>2671</ele>
        <time>2026-07-29T09:07:03.716Z</time>
      </trkpt>
      <trkpt lat="45.73839" lon="6.73257">
        <ele>2671</ele>
        <time>2026-07-29T09:07:04.716Z</time>
      </trkpt>
      <trkpt lat="45.73838" lon="6.73256">
        <ele>2671</ele>
        <time>2026-07-29T09:07:05.716Z</time>
      </trkpt>
      <trkpt lat="45.73837" lon="6.73254">
        <ele>2671</ele>
        <time>2026-07-29T09:07:06.716Z</time>
      </trkpt>
      <trkpt lat="45.73837" lon="6.73253">
        <ele>2671</ele>
        <time>2026-07-29T09:07:07.716Z</time>
      </trkpt>
      <trkpt lat="45.73836" lon="6.73252">
        <ele>2671</ele>
        <time>2026-07-29T09:07:08.716Z</time>
      </trkpt>
      <trkpt lat="45.73835" lon="6.73251">
        <ele>2672</ele>
        <time>2026-07-29T09:07:09.716Z</time>
      </trkpt>
      <trkpt lat="45.73834" lon="6.7325">
        <ele>2672</ele>
        <time>2026-07-29T09:07:10.716Z</time>
      </trkpt>
      <trkpt lat="45.73833" lon="6.73249">
        <ele>2673</ele>
        <time>2026-07-29T09:07:11.716Z</time>
      </trkpt>
      <trkpt lat="45.73833" lon="6.73248">
        <ele>2673</ele>
        <time>2026-07-29T09:07:12.716Z</time>
      </trkpt>
      <trkpt lat="45.73832" lon="6.73247">
        <ele>2673</ele>
        <time>2026-07-29T09:07:13.716Z</time>
      </trkpt>
      <trkpt lat="45.73831" lon="6.73247">
        <ele>2673</ele>
        <time>2026-07-29T09:07:14.716Z</time>
      </trkpt>
      <trkpt lat="45.7383" lon="6.73247">
        <ele>2673</ele>
        <time>2026-07-29T09:07:15.716Z</time>
      </trkpt>
      <trkpt lat="45.73829" lon="6.73248">
        <ele>2673</ele>
        <time>2026-07-29T09:07:16.716Z</time>
      </trkpt>
      <trkpt lat="45.73827" lon="6.73248">
        <ele>2673</ele>
        <time>2026-07-29T09:07:17.716Z</time>
      </trkpt>
      <trkpt lat="45.73826" lon="6.73249">
        <ele>2673</ele>
        <time>2026-07-29T09:07:18.716Z</time>
      </trkpt>
      <trkpt lat="45.73825" lon="6.73249">
        <ele>2673</ele>
        <time>2026-07-29T09:07:19.716Z</time>
      </trkpt>
      <trkpt lat="45.73824" lon="6.7325">
        <ele>2672</ele>
        <time>2026-07-29T09:07:20.716Z</time>
      </trkpt>
      <trkpt lat="45.73823" lon="6.7325">
        <ele>2672</ele>
        <time>2026-07-29T09:07:21.716Z</time>
      </trkpt>
      <trkpt lat="45.73822" lon="6.7325">
        <ele>2672</ele>
        <time>2026-07-29T09:07:22.716Z</time>
      </trkpt>
      <trkpt lat="45.73822" lon="6.7325">
        <ele>2672</ele>
        <time>2026-07-29T09:07:23.716Z</time>
      </trkpt>
      <trkpt lat="45.73821" lon="6.7325">
        <ele>2672</ele>
        <time>2026-07-29T09:07:24.716Z</time>
      </trkpt>
      <trkpt lat="45.7382" lon="6.7325">
        <ele>2672</ele>
        <time>2026-07-29T09:07:25.716Z</time>
      </trkpt>
      <trkpt lat="45.73819" lon="6.73251">
        <ele>2672</ele>
        <time>2026-07-29T09:07:26.716Z</time>
      </trkpt>
      <trkpt lat="45.73819" lon="6.73252">
        <ele>2672</ele>
        <time>2026-07-29T09:07:27.716Z</time>
      </trkpt>
      <trkpt lat="45.73818" lon="6.73253">
        <ele>2672</ele>
        <time>2026-07-29T09:07:28.716Z</time>
      </trkpt>
      <trkpt lat="45.73817" lon="6.73253">
        <ele>2672</ele>
        <time>2026-07-29T09:07:29.716Z</time>
      </trkpt>
      <trkpt lat="45.73816" lon="6.73253">
        <ele>2672</ele>
        <time>2026-07-29T09:07:30.716Z</time>
      </trkpt>
      <trkpt lat="45.73815" lon="6.73253">
        <ele>2672</ele>
        <time>2026-07-29T09:07:31.716Z</time>
      </trkpt>
      <trkpt lat="45.73815" lon="6.73254">
        <ele>2672</ele>
        <time>2026-07-29T09:07:32.716Z</time>
      </trkpt>
      <trkpt lat="45.73814" lon="6.73254">
        <ele>2672</ele>
        <time>2026-07-29T09:07:33.716Z</time>
      </trkpt>
      <trkpt lat="45.73813" lon="6.73255">
        <ele>2672</ele>
        <time>2026-07-29T09:07:34.716Z</time>
      </trkpt>
      <trkpt lat="45.73812" lon="6.73255">
        <ele>2673</ele>
        <time>2026-07-29T09:07:35.716Z</time>
      </trkpt>
      <trkpt lat="45.73811" lon="6.73255">
        <ele>2673</ele>
        <time>2026-07-29T09:07:36.716Z</time>
      </trkpt>
      <trkpt lat="45.7381" lon="6.73255">
        <ele>2673</ele>
        <time>2026-07-29T09:07:37.716Z</time>
      </trkpt>
      <trkpt lat="45.7381" lon="6.73255">
        <ele>2673</ele>
        <time>2026-07-29T09:07:38.716Z</time>
      </trkpt>
      <trkpt lat="45.73809" lon="6.73255">
        <ele>2673</ele>
        <time>2026-07-29T09:07:39.716Z</time>
      </trkpt>
      <trkpt lat="45.73809" lon="6.73254">
        <ele>2674</ele>
        <time>2026-07-29T09:07:40.716Z</time>
      </trkpt>
      <trkpt lat="45.73809" lon="6.73252">
        <ele>2674</ele>
        <time>2026-07-29T09:07:41.716Z</time>
      </trkpt>
      <trkpt lat="45.73809" lon="6.73251">
        <ele>2674</ele>
        <time>2026-07-29T09:07:42.716Z</time>
      </trkpt>
      <trkpt lat="45.7381" lon="6.7325">
        <ele>2675</ele>
        <time>2026-07-29T09:07:43.716Z</time>
      </trkpt>
      <trkpt lat="45.7381" lon="6.73249">
        <ele>2676</ele>
        <time>2026-07-29T09:07:44.716Z</time>
      </trkpt>
      <trkpt lat="45.7381" lon="6.73248">
        <ele>2676</ele>
        <time>2026-07-29T09:07:45.716Z</time>
      </trkpt>
      <trkpt lat="45.7381" lon="6.73246">
        <ele>2676</ele>
        <time>2026-07-29T09:07:46.716Z</time>
      </trkpt>
      <trkpt lat="45.73811" lon="6.73245">
        <ele>2676</ele>
        <time>2026-07-29T09:07:47.716Z</time>
      </trkpt>
      <trkpt lat="45.73811" lon="6.73244">
        <ele>2676</ele>
        <time>2026-07-29T09:07:48.716Z</time>
      </trkpt>
      <trkpt lat="45.73811" lon="6.73243">
        <ele>2676</ele>
        <time>2026-07-29T09:07:49.716Z</time>
      </trkpt>
      <trkpt lat="45.73811" lon="6.73242">
        <ele>2676</ele>
        <time>2026-07-29T09:07:50.716Z</time>
      </trkpt>
      <trkpt lat="45.73811" lon="6.73241">
        <ele>2677</ele>
        <time>2026-07-29T09:07:51.716Z</time>
      </trkpt>
      <trkpt lat="45.73811" lon="6.7324">
        <ele>2677</ele>
        <time>2026-07-29T09:07:52.716Z</time>
      </trkpt>
      <trkpt lat="45.73811" lon="6.73238">
        <ele>2678</ele>
        <time>2026-07-29T09:07:53.716Z</time>
      </trkpt>
      <trkpt lat="45.73811" lon="6.73237">
        <ele>2678</ele>
        <time>2026-07-29T09:07:54.716Z</time>
      </trkpt>
      <trkpt lat="45.73811" lon="6.73236">
        <ele>2679</ele>
        <time>2026-07-29T09:07:55.716Z</time>
      </trkpt>
      <trkpt lat="45.73811" lon="6.73235">
        <ele>2679</ele>
        <time>2026-07-29T09:07:56.716Z</time>
      </trkpt>
      <trkpt lat="45.73811" lon="6.73234">
        <ele>2680</ele>
        <time>2026-07-29T09:07:57.716Z</time>
      </trkpt>
      <trkpt lat="45.73811" lon="6.73232">
        <ele>2680</ele>
        <time>2026-07-29T09:07:58.716Z</time>
      </trkpt>
      <trkpt lat="45.73811" lon="6.73231">
        <ele>2681</ele>
        <time>2026-07-29T09:07:59.716Z</time>
      </trkpt>
      <trkpt lat="45.73811" lon="6.7323">
        <ele>2682</ele>
        <time>2026-07-29T09:08:00.716Z</time>
      </trkpt>
      <trkpt lat="45.73811" lon="6.73228">
        <ele>2682</ele>
        <time>2026-07-29T09:08:01.716Z</time>
      </trkpt>
      <trkpt lat="45.73811" lon="6.73227">
        <ele>2682</ele>
        <time>2026-07-29T09:08:02.716Z</time>
      </trkpt>
      <trkpt lat="45.73812" lon="6.73226">
        <ele>2682</ele>
        <time>2026-07-29T09:08:03.716Z</time>
      </trkpt>
      <trkpt lat="45.73812" lon="6.73225">
        <ele>2683</ele>
        <time>2026-07-29T09:08:04.716Z</time>
      </trkpt>
      <trkpt lat="45.73812" lon="6.73224">
        <ele>2683</ele>
        <time>2026-07-29T09:08:05.716Z</time>
      </trkpt>
      <trkpt lat="45.73811" lon="6.73224">
        <ele>2683</ele>
        <time>2026-07-29T09:08:06.716Z</time>
      </trkpt>
      <trkpt lat="45.73811" lon="6.73223">
        <ele>2683</ele>
        <time>2026-07-29T09:08:07.716Z</time>
      </trkpt>
      <trkpt lat="45.73811" lon="6.73223">
        <ele>2683</ele>
        <time>2026-07-29T09:08:08.716Z</time>
      </trkpt>
      <trkpt lat="45.7381" lon="6.73223">
        <ele>2683</ele>
        <time>2026-07-29T09:08:09.716Z</time>
      </trkpt>
      <trkpt lat="45.73809" lon="6.73223">
        <ele>2683</ele>
        <time>2026-07-29T09:08:10.716Z</time>
      </trkpt>
      <trkpt lat="45.73808" lon="6.73224">
        <ele>2683</ele>
        <time>2026-07-29T09:08:11.716Z</time>
      </trkpt>
      <trkpt lat="45.73808" lon="6.73224">
        <ele>2683</ele>
        <time>2026-07-29T09:08:12.716Z</time>
      </trkpt>
      <trkpt lat="45.73807" lon="6.73224">
        <ele>2683</ele>
        <time>2026-07-29T09:08:13.716Z</time>
      </trkpt>
      <trkpt lat="45.73806" lon="6.73224">
        <ele>2683</ele>
        <time>2026-07-29T09:08:14.716Z</time>
      </trkpt>
      <trkpt lat="45.73805" lon="6.73224">
        <ele>2683</ele>
        <time>2026-07-29T09:08:15.716Z</time>
      </trkpt>
      <trkpt lat="45.73804" lon="6.73224">
        <ele>2684</ele>
        <time>2026-07-29T09:08:16.716Z</time>
      </trkpt>
      <trkpt lat="45.73804" lon="6.73224">
        <ele>2684</ele>
        <time>2026-07-29T09:08:17.716Z</time>
      </trkpt>
      <trkpt lat="45.73803" lon="6.73224">
        <ele>2684</ele>
        <time>2026-07-29T09:08:18.716Z</time>
      </trkpt>
      <trkpt lat="45.73803" lon="6.73224">
        <ele>2684</ele>
        <time>2026-07-29T09:08:19.716Z</time>
      </trkpt>
      <trkpt lat="45.73802" lon="6.73223">
        <ele>2684</ele>
        <time>2026-07-29T09:08:20.716Z</time>
      </trkpt>
      <trkpt lat="45.73801" lon="6.73223">
        <ele>2684</ele>
        <time>2026-07-29T09:08:21.716Z</time>
      </trkpt>
      <trkpt lat="45.73801" lon="6.73222">
        <ele>2685</ele>
        <time>2026-07-29T09:08:22.716Z</time>
      </trkpt>
      <trkpt lat="45.738" lon="6.73222">
        <ele>2685</ele>
        <time>2026-07-29T09:08:23.716Z</time>
      </trkpt>
      <trkpt lat="45.738" lon="6.73221">
        <ele>2685</ele>
        <time>2026-07-29T09:08:24.716Z</time>
      </trkpt>
      <trkpt lat="45.738" lon="6.73221">
        <ele>2685</ele>
        <time>2026-07-29T09:08:25.716Z</time>
      </trkpt>
      <trkpt lat="45.738" lon="6.73221">
        <ele>2685</ele>
        <time>2026-07-29T09:08:26.716Z</time>
      </trkpt>
      <trkpt lat="45.738" lon="6.73221">
        <ele>2685</ele>
        <time>2026-07-29T09:08:27.716Z</time>
      </trkpt>
      <trkpt lat="45.73799" lon="6.73221">
        <ele>2685</ele>
        <time>2026-07-29T09:08:28.716Z</time>
      </trkpt>
      <trkpt lat="45.73799" lon="6.73222">
        <ele>2685</ele>
        <time>2026-07-29T09:08:29.716Z</time>
      </trkpt>
      <trkpt lat="45.73798" lon="6.73223">
        <ele>2686</ele>
        <time>2026-07-29T09:08:30.716Z</time>
      </trkpt>
      <trkpt lat="45.73798" lon="6.73224">
        <ele>2686</ele>
        <time>2026-07-29T09:08:31.716Z</time>
      </trkpt>
      <trkpt lat="45.73797" lon="6.73225">
        <ele>2686</ele>
        <time>2026-07-29T09:08:32.716Z</time>
      </trkpt>
      <trkpt lat="45.73797" lon="6.73226">
        <ele>2686</ele>
        <time>2026-07-29T09:08:33.716Z</time>
      </trkpt>
      <trkpt lat="45.73796" lon="6.73226">
        <ele>2686</ele>
        <time>2026-07-29T09:08:34.716Z</time>
      </trkpt>
      <trkpt lat="45.73795" lon="6.73227">
        <ele>2685</ele>
        <time>2026-07-29T09:08:35.716Z</time>
      </trkpt>
      <trkpt lat="45.73795" lon="6.73228">
        <ele>2685</ele>
        <time>2026-07-29T09:08:36.716Z</time>
      </trkpt>
      <trkpt lat="45.73794" lon="6.73229">
        <ele>2685</ele>
        <time>2026-07-29T09:08:37.716Z</time>
      </trkpt>
      <trkpt lat="45.73794" lon="6.73229">
        <ele>2685</ele>
        <time>2026-07-29T09:08:38.716Z</time>
      </trkpt>
      <trkpt lat="45.73794" lon="6.73229">
        <ele>2684</ele>
        <time>2026-07-29T09:08:39.716Z</time>
      </trkpt>
      <trkpt lat="45.73794" lon="6.7323">
        <ele>2684</ele>
        <time>2026-07-29T09:08:40.716Z</time>
      </trkpt>
      <trkpt lat="45.73794" lon="6.7323">
        <ele>2684</ele>
        <time>2026-07-29T09:08:41.716Z</time>
      </trkpt>
      <trkpt lat="45.73794" lon="6.7323">
        <ele>2684</ele>
        <time>2026-07-29T09:08:42.716Z</time>
      </trkpt>
      <trkpt lat="45.73794" lon="6.7323">
        <ele>2685</ele>
        <time>2026-07-29T09:08:43.716Z</time>
      </trkpt>
      <trkpt lat="45.73794" lon="6.7323">
        <ele>2685</ele>
        <time>2026-07-29T09:08:44.716Z</time>
      </trkpt>
      <trkpt lat="45.73794" lon="6.7323">
        <ele>2685</ele>
        <time>2026-07-29T09:08:45.716Z</time>
      </trkpt>
      <trkpt lat="45.73794" lon="6.7323">
        <ele>2685</ele>
        <time>2026-07-29T09:08:46.716Z</time>
      </trkpt>
      <trkpt lat="45.73794" lon="6.73229">
        <ele>2685</ele>
        <time>2026-07-29T09:08:47.716Z</time>
      </trkpt>
      <trkpt lat="45.73794" lon="6.73229">
        <ele>2685</ele>
        <time>2026-07-29T09:08:48.716Z</time>
      </trkpt>
      <trkpt lat="45.73794" lon="6.73229">
        <ele>2686</ele>
        <time>2026-07-29T09:08:49.716Z</time>
      </trkpt>
      <trkpt lat="45.73794" lon="6.73229">
        <ele>2686</ele>
        <time>2026-07-29T09:08:50.716Z</time>
      </trkpt>
      <trkpt lat="45.73794" lon="6.73229">
        <ele>2686</ele>
        <time>2026-07-29T09:08:51.716Z</time>
      </trkpt>
      <trkpt lat="45.73794" lon="6.73229">
        <ele>2686</ele>
        <time>2026-07-29T09:08:52.716Z</time>
      </trkpt>
      <trkpt lat="45.73794" lon="6.73229">
        <ele>2686</ele>
        <time>2026-07-29T09:08:53.716Z</time>
      </trkpt>
      <trkpt lat="45.73794" lon="6.73229">
        <ele>2686</ele>
        <time>2026-07-29T09:08:54.716Z</time>
      </trkpt>
      <trkpt lat="45.73794" lon="6.73229">
        <ele>2686</ele>
        <time>2026-07-29T09:08:55.716Z</time>
      </trkpt>
      <trkpt lat="45.73794" lon="6.73229">
        <ele>2686</ele>
        <time>2026-07-29T09:08:56.716Z</time>
      </trkpt>
      <trkpt lat="45.73794" lon="6.73229">
        <ele>2687</ele>
        <time>2026-07-29T09:08:57.716Z</time>
      </trkpt>
      <trkpt lat="45.73794" lon="6.73229">
        <ele>2687</ele>
        <time>2026-07-29T09:08:58.716Z</time>
      </trkpt>
      <trkpt lat="45.73794" lon="6.73229">
        <ele>2687</ele>
        <time>2026-07-29T09:08:59.716Z</time>
      </trkpt>
      <trkpt lat="45.73794" lon="6.73229">
        <ele>2687</ele>
        <time>2026-07-29T09:09:00.716Z</time>
      </trkpt>
      <trkpt lat="45.73794" lon="6.73229">
        <ele>2687</ele>
        <time>2026-07-29T09:09:01.716Z</time>
      </trkpt>
      <trkpt lat="45.73794" lon="6.73229">
        <ele>2688</ele>
        <time>2026-07-29T09:09:02.716Z</time>
      </trkpt>
      <trkpt lat="45.73794" lon="6.73229">
        <ele>2688</ele>
        <time>2026-07-29T09:09:03.716Z</time>
      </trkpt>
      <trkpt lat="45.73794" lon="6.73229">
        <ele>2688</ele>
        <time>2026-07-29T09:09:04.716Z</time>
      </trkpt>
      <trkpt lat="45.73794" lon="6.73229">
        <ele>2688</ele>
        <time>2026-07-29T09:09:05.716Z</time>
      </trkpt>
      <trkpt lat="45.73795" lon="6.73228">
        <ele>2688</ele>
        <time>2026-07-29T09:09:06.716Z</time>
      </trkpt>
      <trkpt lat="45.73796" lon="6.73226">
        <ele>2688</ele>
        <time>2026-07-29T09:09:07.716Z</time>
      </trkpt>
      <trkpt lat="45.73796" lon="6.73225">
        <ele>2688</ele>
        <time>2026-07-29T09:09:08.716Z</time>
      </trkpt>
      <trkpt lat="45.73797" lon="6.73224">
        <ele>2688</ele>
        <time>2026-07-29T09:09:09.716Z</time>
      </trkpt>
      <trkpt lat="45.73797" lon="6.73222">
        <ele>2688</ele>
        <time>2026-07-29T09:09:10.716Z</time>
      </trkpt>
      <trkpt lat="45.73797" lon="6.7322">
        <ele>2688</ele>
        <time>2026-07-29T09:09:11.716Z</time>
      </trkpt>
      <trkpt lat="45.73797" lon="6.73218">
        <ele>2687</ele>
        <time>2026-07-29T09:09:12.716Z</time>
      </trkpt>
      <trkpt lat="45.73797" lon="6.73216">
        <ele>2687</ele>
        <time>2026-07-29T09:09:13.716Z</time>
      </trkpt>
      <trkpt lat="45.73796" lon="6.73214">
        <ele>2687</ele>
        <time>2026-07-29T09:09:14.716Z</time>
      </trkpt>
      <trkpt lat="45.73796" lon="6.73213">
        <ele>2687</ele>
        <time>2026-07-29T09:09:15.716Z</time>
      </trkpt>
      <trkpt lat="45.73795" lon="6.73211">
        <ele>2686</ele>
        <time>2026-07-29T09:09:16.716Z</time>
      </trkpt>
      <trkpt lat="45.73794" lon="6.7321">
        <ele>2686</ele>
        <time>2026-07-29T09:09:17.716Z</time>
      </trkpt>
      <trkpt lat="45.73793" lon="6.73209">
        <ele>2686</ele>
        <time>2026-07-29T09:09:18.716Z</time>
      </trkpt>
      <trkpt lat="45.73792" lon="6.73208">
        <ele>2686</ele>
        <time>2026-07-29T09:09:19.716Z</time>
      </trkpt>
      <trkpt lat="45.73792" lon="6.73207">
        <ele>2686</ele>
        <time>2026-07-29T09:09:20.716Z</time>
      </trkpt>
      <trkpt lat="45.73791" lon="6.73206">
        <ele>2686</ele>
        <time>2026-07-29T09:09:21.716Z</time>
      </trkpt>
      <trkpt lat="45.7379" lon="6.73205">
        <ele>2686</ele>
        <time>2026-07-29T09:09:22.716Z</time>
      </trkpt>
      <trkpt lat="45.73789" lon="6.73204">
        <ele>2686</ele>
        <time>2026-07-29T09:09:23.716Z</time>
      </trkpt>
      <trkpt lat="45.73788" lon="6.73204">
        <ele>2686</ele>
        <time>2026-07-29T09:09:24.716Z</time>
      </trkpt>
      <trkpt lat="45.73787" lon="6.73203">
        <ele>2686</ele>
        <time>2026-07-29T09:09:25.716Z</time>
      </trkpt>
      <trkpt lat="45.73786" lon="6.73202">
        <ele>2686</ele>
        <time>2026-07-29T09:09:26.716Z</time>
      </trkpt>
      <trkpt lat="45.73785" lon="6.73201">
        <ele>2686</ele>
        <time>2026-07-29T09:09:27.716Z</time>
      </trkpt>
      <trkpt lat="45.73784" lon="6.732">
        <ele>2686</ele>
        <time>2026-07-29T09:09:28.716Z</time>
      </trkpt>
      <trkpt lat="45.73784" lon="6.73199">
        <ele>2686</ele>
        <time>2026-07-29T09:09:29.716Z</time>
      </trkpt>
      <trkpt lat="45.73783" lon="6.73198">
        <ele>2686</ele>
        <time>2026-07-29T09:09:30.716Z</time>
      </trkpt>
      <trkpt lat="45.73782" lon="6.73197">
        <ele>2686</ele>
        <time>2026-07-29T09:09:31.716Z</time>
      </trkpt>
      <trkpt lat="45.73781" lon="6.73195">
        <ele>2686</ele>
        <time>2026-07-29T09:09:32.716Z</time>
      </trkpt>
      <trkpt lat="45.73781" lon="6.73194">
        <ele>2686</ele>
        <time>2026-07-29T09:09:33.716Z</time>
      </trkpt>
      <trkpt lat="45.7378" lon="6.73192">
        <ele>2686</ele>
        <time>2026-07-29T09:09:34.716Z</time>
      </trkpt>
      <trkpt lat="45.73779" lon="6.73191">
        <ele>2686</ele>
        <time>2026-07-29T09:09:35.716Z</time>
      </trkpt>
      <trkpt lat="45.73778" lon="6.7319">
        <ele>2686</ele>
        <time>2026-07-29T09:09:36.716Z</time>
      </trkpt>
      <trkpt lat="45.73778" lon="6.73189">
        <ele>2687</ele>
        <time>2026-07-29T09:09:37.716Z</time>
      </trkpt>
      <trkpt lat="45.73777" lon="6.73188">
        <ele>2687</ele>
        <time>2026-07-29T09:09:38.716Z</time>
      </trkpt>
      <trkpt lat="45.73776" lon="6.73187">
        <ele>2687</ele>
        <time>2026-07-29T09:09:39.716Z</time>
      </trkpt>
      <trkpt lat="45.73775" lon="6.73186">
        <ele>2687</ele>
        <time>2026-07-29T09:09:40.716Z</time>
      </trkpt>
      <trkpt lat="45.73775" lon="6.73185">
        <ele>2687</ele>
        <time>2026-07-29T09:09:41.716Z</time>
      </trkpt>
      <trkpt lat="45.73774" lon="6.73183">
        <ele>2687</ele>
        <time>2026-07-29T09:09:42.716Z</time>
      </trkpt>
      <trkpt lat="45.73773" lon="6.73182">
        <ele>2687</ele>
        <time>2026-07-29T09:09:43.716Z</time>
      </trkpt>
      <trkpt lat="45.73773" lon="6.73181">
        <ele>2687</ele>
        <time>2026-07-29T09:09:44.716Z</time>
      </trkpt>
      <trkpt lat="45.73772" lon="6.7318">
        <ele>2687</ele>
        <time>2026-07-29T09:09:45.716Z</time>
      </trkpt>
      <trkpt lat="45.73771" lon="6.73179">
        <ele>2687</ele>
        <time>2026-07-29T09:09:46.716Z</time>
      </trkpt>
      <trkpt lat="45.73771" lon="6.73178">
        <ele>2687</ele>
        <time>2026-07-29T09:09:47.716Z</time>
      </trkpt>
      <trkpt lat="45.7377" lon="6.73178">
        <ele>2688</ele>
        <time>2026-07-29T09:09:48.716Z</time>
      </trkpt>
      <trkpt lat="45.73769" lon="6.73177">
        <ele>2688</ele>
        <time>2026-07-29T09:09:49.716Z</time>
      </trkpt>
      <trkpt lat="45.73769" lon="6.73175">
        <ele>2688</ele>
        <time>2026-07-29T09:09:50.716Z</time>
      </trkpt>
      <trkpt lat="45.73768" lon="6.73174">
        <ele>2688</ele>
        <time>2026-07-29T09:09:51.716Z</time>
      </trkpt>
      <trkpt lat="45.73768" lon="6.73173">
        <ele>2689</ele>
        <time>2026-07-29T09:09:52.716Z</time>
      </trkpt>
      <trkpt lat="45.73767" lon="6.73171">
        <ele>2689</ele>
        <time>2026-07-29T09:09:53.716Z</time>
      </trkpt>
      <trkpt lat="45.73767" lon="6.73169">
        <ele>2690</ele>
        <time>2026-07-29T09:09:54.716Z</time>
      </trkpt>
      <trkpt lat="45.73766" lon="6.73167">
        <ele>2690</ele>
        <time>2026-07-29T09:09:55.716Z</time>
      </trkpt>
      <trkpt lat="45.73766" lon="6.73166">
        <ele>2691</ele>
        <time>2026-07-29T09:09:56.716Z</time>
      </trkpt>
      <trkpt lat="45.73766" lon="6.73164">
        <ele>2691</ele>
        <time>2026-07-29T09:09:57.716Z</time>
      </trkpt>
      <trkpt lat="45.73766" lon="6.73163">
        <ele>2692</ele>
        <time>2026-07-29T09:09:58.716Z</time>
      </trkpt>
      <trkpt lat="45.73766" lon="6.73162">
        <ele>2692</ele>
        <time>2026-07-29T09:09:59.716Z</time>
      </trkpt>
      <trkpt lat="45.73765" lon="6.73161">
        <ele>2693</ele>
        <time>2026-07-29T09:10:00.716Z</time>
      </trkpt>
      <trkpt lat="45.73765" lon="6.7316">
        <ele>2693</ele>
        <time>2026-07-29T09:10:01.716Z</time>
      </trkpt>
      <trkpt lat="45.73764" lon="6.73159">
        <ele>2693</ele>
        <time>2026-07-29T09:10:02.716Z</time>
      </trkpt>
      <trkpt lat="45.73764" lon="6.73158">
        <ele>2693</ele>
        <time>2026-07-29T09:10:03.716Z</time>
      </trkpt>
      <trkpt lat="45.73763" lon="6.73157">
        <ele>2693</ele>
        <time>2026-07-29T09:10:04.716Z</time>
      </trkpt>
      <trkpt lat="45.73763" lon="6.73156">
        <ele>2693</ele>
        <time>2026-07-29T09:10:05.716Z</time>
      </trkpt>
      <trkpt lat="45.73763" lon="6.73155">
        <ele>2693</ele>
        <time>2026-07-29T09:10:06.716Z</time>
      </trkpt>
      <trkpt lat="45.73762" lon="6.73154">
        <ele>2693</ele>
        <time>2026-07-29T09:10:07.716Z</time>
      </trkpt>
      <trkpt lat="45.73762" lon="6.73153">
        <ele>2692</ele>
        <time>2026-07-29T09:10:08.716Z</time>
      </trkpt>
      <trkpt lat="45.73762" lon="6.73153">
        <ele>2692</ele>
        <time>2026-07-29T09:10:09.716Z</time>
      </trkpt>
      <trkpt lat="45.73761" lon="6.73152">
        <ele>2692</ele>
        <time>2026-07-29T09:10:10.716Z</time>
      </trkpt>
      <trkpt lat="45.73761" lon="6.73152">
        <ele>2692</ele>
        <time>2026-07-29T09:10:11.716Z</time>
      </trkpt>
      <trkpt lat="45.7376" lon="6.73152">
        <ele>2692</ele>
        <time>2026-07-29T09:10:12.716Z</time>
      </trkpt>
      <trkpt lat="45.7376" lon="6.73151">
        <ele>2692</ele>
        <time>2026-07-29T09:10:13.716Z</time>
      </trkpt>
      <trkpt lat="45.7376" lon="6.7315">
        <ele>2693</ele>
        <time>2026-07-29T09:10:14.716Z</time>
      </trkpt>
      <trkpt lat="45.73759" lon="6.7315">
        <ele>2693</ele>
        <time>2026-07-29T09:10:15.716Z</time>
      </trkpt>
      <trkpt lat="45.73759" lon="6.73149">
        <ele>2693</ele>
        <time>2026-07-29T09:10:16.716Z</time>
      </trkpt>
      <trkpt lat="45.73758" lon="6.73148">
        <ele>2693</ele>
        <time>2026-07-29T09:10:17.716Z</time>
      </trkpt>
      <trkpt lat="45.73758" lon="6.73147">
        <ele>2694</ele>
        <time>2026-07-29T09:10:18.716Z</time>
      </trkpt>
      <trkpt lat="45.73757" lon="6.73146">
        <ele>2694</ele>
        <time>2026-07-29T09:10:19.716Z</time>
      </trkpt>
      <trkpt lat="45.73757" lon="6.73145">
        <ele>2694</ele>
        <time>2026-07-29T09:10:20.716Z</time>
      </trkpt>
      <trkpt lat="45.73756" lon="6.73144">
        <ele>2694</ele>
        <time>2026-07-29T09:10:21.716Z</time>
      </trkpt>
      <trkpt lat="45.73755" lon="6.73143">
        <ele>2695</ele>
        <time>2026-07-29T09:10:22.716Z</time>
      </trkpt>
      <trkpt lat="45.73755" lon="6.73142">
        <ele>2695</ele>
        <time>2026-07-29T09:10:23.716Z</time>
      </trkpt>
      <trkpt lat="45.73754" lon="6.73141">
        <ele>2696</ele>
        <time>2026-07-29T09:10:24.716Z</time>
      </trkpt>
      <trkpt lat="45.73753" lon="6.7314">
        <ele>2696</ele>
        <time>2026-07-29T09:10:25.716Z</time>
      </trkpt>
      <trkpt lat="45.73752" lon="6.73139">
        <ele>2696</ele>
        <time>2026-07-29T09:10:26.716Z</time>
      </trkpt>
      <trkpt lat="45.73752" lon="6.73137">
        <ele>2696</ele>
        <time>2026-07-29T09:10:27.716Z</time>
      </trkpt>
      <trkpt lat="45.73751" lon="6.73136">
        <ele>2697</ele>
        <time>2026-07-29T09:10:28.716Z</time>
      </trkpt>
      <trkpt lat="45.7375" lon="6.73136">
        <ele>2697</ele>
        <time>2026-07-29T09:10:29.716Z</time>
      </trkpt>
      <trkpt lat="45.7375" lon="6.73135">
        <ele>2698</ele>
        <time>2026-07-29T09:10:30.716Z</time>
      </trkpt>
      <trkpt lat="45.7375" lon="6.73135">
        <ele>2698</ele>
        <time>2026-07-29T09:10:31.716Z</time>
      </trkpt>
      <trkpt lat="45.7375" lon="6.73135">
        <ele>2698</ele>
        <time>2026-07-29T09:10:32.716Z</time>
      </trkpt>
      <trkpt lat="45.7375" lon="6.73135">
        <ele>2699</ele>
        <time>2026-07-29T09:10:33.716Z</time>
      </trkpt>
      <trkpt lat="45.7375" lon="6.73135">
        <ele>2699</ele>
        <time>2026-07-29T09:10:34.716Z</time>
      </trkpt>
      <trkpt lat="45.7375" lon="6.73135">
        <ele>2699</ele>
        <time>2026-07-29T09:10:35.716Z</time>
      </trkpt>
      <trkpt lat="45.7375" lon="6.73134">
        <ele>2699</ele>
        <time>2026-07-29T09:10:36.716Z</time>
      </trkpt>
      <trkpt lat="45.7375" lon="6.73134">
        <ele>2699</ele>
        <time>2026-07-29T09:10:37.716Z</time>
      </trkpt>
      <trkpt lat="45.7375" lon="6.73134">
        <ele>2699</ele>
        <time>2026-07-29T09:10:38.716Z</time>
      </trkpt>
      <trkpt lat="45.7375" lon="6.73133">
        <ele>2699</ele>
        <time>2026-07-29T09:10:39.716Z</time>
      </trkpt>
      <trkpt lat="45.73749" lon="6.73133">
        <ele>2699</ele>
        <time>2026-07-29T09:10:40.716Z</time>
      </trkpt>
      <trkpt lat="45.73749" lon="6.73133">
        <ele>2699</ele>
        <time>2026-07-29T09:10:41.716Z</time>
      </trkpt>
      <trkpt lat="45.7375" lon="6.73133">
        <ele>2700</ele>
        <time>2026-07-29T09:10:42.716Z</time>
      </trkpt>
      <trkpt lat="45.7375" lon="6.73132">
        <ele>2699</ele>
        <time>2026-07-29T09:10:43.716Z</time>
      </trkpt>
      <trkpt lat="45.7375" lon="6.73131">
        <ele>2699</ele>
        <time>2026-07-29T09:10:44.716Z</time>
      </trkpt>
      <trkpt lat="45.73749" lon="6.73131">
        <ele>2699</ele>
        <time>2026-07-29T09:10:45.716Z</time>
      </trkpt>
      <trkpt lat="45.73749" lon="6.73129">
        <ele>2699</ele>
        <time>2026-07-29T09:10:46.716Z</time>
      </trkpt>
      <trkpt lat="45.73749" lon="6.73128">
        <ele>2699</ele>
        <time>2026-07-29T09:10:47.716Z</time>
      </trkpt>
      <trkpt lat="45.73749" lon="6.73126">
        <ele>2699</ele>
        <time>2026-07-29T09:10:48.716Z</time>
      </trkpt>
      <trkpt lat="45.7375" lon="6.73125">
        <ele>2699</ele>
        <time>2026-07-29T09:10:49.716Z</time>
      </trkpt>
      <trkpt lat="45.7375" lon="6.73124">
        <ele>2699</ele>
        <time>2026-07-29T09:10:50.716Z</time>
      </trkpt>
      <trkpt lat="45.73751" lon="6.73122">
        <ele>2699</ele>
        <time>2026-07-29T09:10:51.716Z</time>
      </trkpt>
      <trkpt lat="45.73752" lon="6.73121">
        <ele>2699</ele>
        <time>2026-07-29T09:10:52.716Z</time>
      </trkpt>
      <trkpt lat="45.73752" lon="6.7312">
        <ele>2699</ele>
        <time>2026-07-29T09:10:53.716Z</time>
      </trkpt>
      <trkpt lat="45.73753" lon="6.73119">
        <ele>2700</ele>
        <time>2026-07-29T09:10:54.716Z</time>
      </trkpt>
      <trkpt lat="45.73753" lon="6.73117">
        <ele>2700</ele>
        <time>2026-07-29T09:10:55.716Z</time>
      </trkpt>
      <trkpt lat="45.73753" lon="6.73116">
        <ele>2701</ele>
        <time>2026-07-29T09:10:56.716Z</time>
      </trkpt>
      <trkpt lat="45.73754" lon="6.73114">
        <ele>2701</ele>
        <time>2026-07-29T09:10:57.716Z</time>
      </trkpt>
      <trkpt lat="45.73754" lon="6.73113">
        <ele>2701</ele>
        <time>2026-07-29T09:10:58.716Z</time>
      </trkpt>
      <trkpt lat="45.73755" lon="6.73111">
        <ele>2702</ele>
        <time>2026-07-29T09:10:59.716Z</time>
      </trkpt>
      <trkpt lat="45.73755" lon="6.73111">
        <ele>2702</ele>
        <time>2026-07-29T09:11:00.716Z</time>
      </trkpt>
      <trkpt lat="45.73756" lon="6.7311">
        <ele>2702</ele>
        <time>2026-07-29T09:11:01.716Z</time>
      </trkpt>
      <trkpt lat="45.73756" lon="6.73109">
        <ele>2702</ele>
        <time>2026-07-29T09:11:02.716Z</time>
      </trkpt>
      <trkpt lat="45.73757" lon="6.73108">
        <ele>2702</ele>
        <time>2026-07-29T09:11:03.716Z</time>
      </trkpt>
      <trkpt lat="45.73757" lon="6.73107">
        <ele>2703</ele>
        <time>2026-07-29T09:11:04.716Z</time>
      </trkpt>
      <trkpt lat="45.73757" lon="6.73106">
        <ele>2702</ele>
        <time>2026-07-29T09:11:05.716Z</time>
      </trkpt>
      <trkpt lat="45.73757" lon="6.73105">
        <ele>2702</ele>
        <time>2026-07-29T09:11:06.716Z</time>
      </trkpt>
      <trkpt lat="45.73758" lon="6.73104">
        <ele>2702</ele>
        <time>2026-07-29T09:11:07.716Z</time>
      </trkpt>
      <trkpt lat="45.73758" lon="6.73102">
        <ele>2703</ele>
        <time>2026-07-29T09:11:08.716Z</time>
      </trkpt>
      <trkpt lat="45.73758" lon="6.73101">
        <ele>2703</ele>
        <time>2026-07-29T09:11:09.716Z</time>
      </trkpt>
      <trkpt lat="45.73759" lon="6.731">
        <ele>2703</ele>
        <time>2026-07-29T09:11:10.716Z</time>
      </trkpt>
      <trkpt lat="45.73759" lon="6.73099">
        <ele>2703</ele>
        <time>2026-07-29T09:11:11.716Z</time>
      </trkpt>
      <trkpt lat="45.7376" lon="6.73098">
        <ele>2703</ele>
        <time>2026-07-29T09:11:12.716Z</time>
      </trkpt>
      <trkpt lat="45.73761" lon="6.73097">
        <ele>2703</ele>
        <time>2026-07-29T09:11:13.716Z</time>
      </trkpt>
      <trkpt lat="45.73761" lon="6.73097">
        <ele>2703</ele>
        <time>2026-07-29T09:11:14.716Z</time>
      </trkpt>
      <trkpt lat="45.73762" lon="6.73096">
        <ele>2703</ele>
        <time>2026-07-29T09:11:15.716Z</time>
      </trkpt>
      <trkpt lat="45.73762" lon="6.73096">
        <ele>2703</ele>
        <time>2026-07-29T09:11:16.716Z</time>
      </trkpt>
      <trkpt lat="45.73763" lon="6.73096">
        <ele>2703</ele>
        <time>2026-07-29T09:11:17.716Z</time>
      </trkpt>
      <trkpt lat="45.73764" lon="6.73095">
        <ele>2703</ele>
        <time>2026-07-29T09:11:18.716Z</time>
      </trkpt>
      <trkpt lat="45.73764" lon="6.73095">
        <ele>2703</ele>
        <time>2026-07-29T09:11:19.716Z</time>
      </trkpt>
      <trkpt lat="45.73764" lon="6.73095">
        <ele>2703</ele>
        <time>2026-07-29T09:11:20.716Z</time>
      </trkpt>
      <trkpt lat="45.73765" lon="6.73094">
        <ele>2704</ele>
        <time>2026-07-29T09:11:21.716Z</time>
      </trkpt>
      <trkpt lat="45.73766" lon="6.73094">
        <ele>2704</ele>
        <time>2026-07-29T09:11:22.716Z</time>
      </trkpt>
      <trkpt lat="45.73767" lon="6.73094">
        <ele>2704</ele>
        <time>2026-07-29T09:11:23.716Z</time>
      </trkpt>
      <trkpt lat="45.73768" lon="6.73093">
        <ele>2704</ele>
        <time>2026-07-29T09:11:24.716Z</time>
      </trkpt>
      <trkpt lat="45.73768" lon="6.73093">
        <ele>2705</ele>
        <time>2026-07-29T09:11:25.716Z</time>
      </trkpt>
      <trkpt lat="45.73769" lon="6.73092">
        <ele>2705</ele>
        <time>2026-07-29T09:11:26.716Z</time>
      </trkpt>
      <trkpt lat="45.73769" lon="6.73092">
        <ele>2706</ele>
        <time>2026-07-29T09:11:27.716Z</time>
      </trkpt>
      <trkpt lat="45.7377" lon="6.73091">
        <ele>2706</ele>
        <time>2026-07-29T09:11:28.716Z</time>
      </trkpt>
      <trkpt lat="45.7377" lon="6.7309">
        <ele>2706</ele>
        <time>2026-07-29T09:11:29.716Z</time>
      </trkpt>
      <trkpt lat="45.73771" lon="6.73089">
        <ele>2707</ele>
        <time>2026-07-29T09:11:30.716Z</time>
      </trkpt>
      <trkpt lat="45.73771" lon="6.73088">
        <ele>2707</ele>
        <time>2026-07-29T09:11:31.716Z</time>
      </trkpt>
      <trkpt lat="45.73771" lon="6.73087">
        <ele>2707</ele>
        <time>2026-07-29T09:11:32.716Z</time>
      </trkpt>
      <trkpt lat="45.73772" lon="6.73086">
        <ele>2707</ele>
        <time>2026-07-29T09:11:33.716Z</time>
      </trkpt>
      <trkpt lat="45.73772" lon="6.73085">
        <ele>2708</ele>
        <time>2026-07-29T09:11:34.716Z</time>
      </trkpt>
      <trkpt lat="45.73772" lon="6.73084">
        <ele>2708</ele>
        <time>2026-07-29T09:11:35.716Z</time>
      </trkpt>
      <trkpt lat="45.73772" lon="6.73083">
        <ele>2709</ele>
        <time>2026-07-29T09:11:36.716Z</time>
      </trkpt>
      <trkpt lat="45.73772" lon="6.73082">
        <ele>2709</ele>
        <time>2026-07-29T09:11:37.716Z</time>
      </trkpt>
      <trkpt lat="45.73772" lon="6.73081">
        <ele>2710</ele>
        <time>2026-07-29T09:11:38.716Z</time>
      </trkpt>
      <trkpt lat="45.73771" lon="6.7308">
        <ele>2710</ele>
        <time>2026-07-29T09:11:39.716Z</time>
      </trkpt>
      <trkpt lat="45.73771" lon="6.73078">
        <ele>2710</ele>
        <time>2026-07-29T09:11:40.716Z</time>
      </trkpt>
      <trkpt lat="45.73771" lon="6.73076">
        <ele>2710</ele>
        <time>2026-07-29T09:11:41.716Z</time>
      </trkpt>
      <trkpt lat="45.7377" lon="6.73075">
        <ele>2711</ele>
        <time>2026-07-29T09:11:42.716Z</time>
      </trkpt>
      <trkpt lat="45.7377" lon="6.73073">
        <ele>2711</ele>
        <time>2026-07-29T09:11:43.716Z</time>
      </trkpt>
      <trkpt lat="45.7377" lon="6.73072">
        <ele>2711</ele>
        <time>2026-07-29T09:11:44.716Z</time>
      </trkpt>
      <trkpt lat="45.7377" lon="6.7307">
        <ele>2710</ele>
        <time>2026-07-29T09:11:45.716Z</time>
      </trkpt>
      <trkpt lat="45.7377" lon="6.73069">
        <ele>2710</ele>
        <time>2026-07-29T09:11:46.716Z</time>
      </trkpt>
      <trkpt lat="45.73769" lon="6.73067">
        <ele>2709</ele>
        <time>2026-07-29T09:11:47.716Z</time>
      </trkpt>
      <trkpt lat="45.7377" lon="6.73065">
        <ele>2709</ele>
        <time>2026-07-29T09:11:48.716Z</time>
      </trkpt>
      <trkpt lat="45.7377" lon="6.73064">
        <ele>2709</ele>
        <time>2026-07-29T09:11:49.716Z</time>
      </trkpt>
      <trkpt lat="45.7377" lon="6.73062">
        <ele>2710</ele>
        <time>2026-07-29T09:11:50.716Z</time>
      </trkpt>
      <trkpt lat="45.7377" lon="6.7306">
        <ele>2710</ele>
        <time>2026-07-29T09:11:51.716Z</time>
      </trkpt>
      <trkpt lat="45.7377" lon="6.73059">
        <ele>2710</ele>
        <time>2026-07-29T09:11:52.716Z</time>
      </trkpt>
      <trkpt lat="45.73771" lon="6.73057">
        <ele>2710</ele>
        <time>2026-07-29T09:11:53.716Z</time>
      </trkpt>
      <trkpt lat="45.73771" lon="6.73056">
        <ele>2710</ele>
        <time>2026-07-29T09:11:54.716Z</time>
      </trkpt>
      <trkpt lat="45.73771" lon="6.73055">
        <ele>2710</ele>
        <time>2026-07-29T09:11:55.716Z</time>
      </trkpt>
      <trkpt lat="45.73771" lon="6.73054">
        <ele>2710</ele>
        <time>2026-07-29T09:11:56.716Z</time>
      </trkpt>
      <trkpt lat="45.73771" lon="6.73053">
        <ele>2711</ele>
        <time>2026-07-29T09:11:57.716Z</time>
      </trkpt>
      <trkpt lat="45.73771" lon="6.73052">
        <ele>2711</ele>
        <time>2026-07-29T09:11:58.716Z</time>
      </trkpt>
      <trkpt lat="45.73771" lon="6.73051">
        <ele>2711</ele>
        <time>2026-07-29T09:11:59.716Z</time>
      </trkpt>
      <trkpt lat="45.73771" lon="6.73051">
        <ele>2712</ele>
        <time>2026-07-29T09:12:00.716Z</time>
      </trkpt>
      <trkpt lat="45.73771" lon="6.73049">
        <ele>2713</ele>
        <time>2026-07-29T09:12:01.716Z</time>
      </trkpt>
      <trkpt lat="45.73771" lon="6.73048">
        <ele>2713</ele>
        <time>2026-07-29T09:12:02.716Z</time>
      </trkpt>
      <trkpt lat="45.73771" lon="6.73048">
        <ele>2713</ele>
        <time>2026-07-29T09:12:03.716Z</time>
      </trkpt>
      <trkpt lat="45.73771" lon="6.73045">
        <ele>2715</ele>
        <time>2026-07-29T09:12:04.716Z</time>
      </trkpt>
      <trkpt lat="45.73771" lon="6.73043">
        <ele>2715</ele>
        <time>2026-07-29T09:12:05.716Z</time>
      </trkpt>
      <trkpt lat="45.73771" lon="6.73041">
        <ele>2715</ele>
        <time>2026-07-29T09:12:06.716Z</time>
      </trkpt>
      <trkpt lat="45.73771" lon="6.73039">
        <ele>2715</ele>
        <time>2026-07-29T09:12:07.716Z</time>
      </trkpt>
      <trkpt lat="45.73771" lon="6.73037">
        <ele>2715</ele>
        <time>2026-07-29T09:12:08.716Z</time>
      </trkpt>
      <trkpt lat="45.73771" lon="6.73035">
        <ele>2715</ele>
        <time>2026-07-29T09:12:09.716Z</time>
      </trkpt>
      <trkpt lat="45.73771" lon="6.73034">
        <ele>2715</ele>
        <time>2026-07-29T09:12:10.716Z</time>
      </trkpt>
      <trkpt lat="45.73771" lon="6.73033">
        <ele>2715</ele>
        <time>2026-07-29T09:12:11.716Z</time>
      </trkpt>
      <trkpt lat="45.73771" lon="6.73033">
        <ele>2715</ele>
        <time>2026-07-29T09:12:12.716Z</time>
      </trkpt>
      <trkpt lat="45.73771" lon="6.73033">
        <ele>2715</ele>
        <time>2026-07-29T09:12:13.716Z</time>
      </trkpt>
      <trkpt lat="45.73772" lon="6.73033">
        <ele>2715</ele>
        <time>2026-07-29T09:12:14.716Z</time>
      </trkpt>
      <trkpt lat="45.73772" lon="6.73034">
        <ele>2716</ele>
        <time>2026-07-29T09:12:15.716Z</time>
      </trkpt>
      <trkpt lat="45.73772" lon="6.73034">
        <ele>2716</ele>
        <time>2026-07-29T09:12:16.716Z</time>
      </trkpt>
      <trkpt lat="45.73773" lon="6.73035">
        <ele>2716</ele>
        <time>2026-07-29T09:12:17.716Z</time>
      </trkpt>
      <trkpt lat="45.73774" lon="6.73037">
        <ele>2716</ele>
        <time>2026-07-29T09:12:18.716Z</time>
      </trkpt>
      <trkpt lat="45.73774" lon="6.73038">
        <ele>2717</ele>
        <time>2026-07-29T09:12:19.716Z</time>
      </trkpt>
      <trkpt lat="45.73775" lon="6.73039">
        <ele>2717</ele>
        <time>2026-07-29T09:12:20.716Z</time>
      </trkpt>
      <trkpt lat="45.73776" lon="6.7304">
        <ele>2717</ele>
        <time>2026-07-29T09:12:21.716Z</time>
      </trkpt>
      <trkpt lat="45.73776" lon="6.73041">
        <ele>2717</ele>
        <time>2026-07-29T09:12:22.716Z</time>
      </trkpt>
      <trkpt lat="45.73776" lon="6.73043">
        <ele>2717</ele>
        <time>2026-07-29T09:12:23.716Z</time>
      </trkpt>
      <trkpt lat="45.73777" lon="6.73043">
        <ele>2717</ele>
        <time>2026-07-29T09:12:24.716Z</time>
      </trkpt>
      <trkpt lat="45.73778" lon="6.73043">
        <ele>2717</ele>
        <time>2026-07-29T09:12:25.716Z</time>
      </trkpt>
      <trkpt lat="45.73778" lon="6.73043">
        <ele>2717</ele>
        <time>2026-07-29T09:12:26.716Z</time>
      </trkpt>
      <trkpt lat="45.73779" lon="6.73043">
        <ele>2717</ele>
        <time>2026-07-29T09:12:27.716Z</time>
      </trkpt>
      <trkpt lat="45.7378" lon="6.73043">
        <ele>2717</ele>
        <time>2026-07-29T09:12:28.716Z</time>
      </trkpt>
      <trkpt lat="45.7378" lon="6.73043">
        <ele>2717</ele>
        <time>2026-07-29T09:12:29.716Z</time>
      </trkpt>
      <trkpt lat="45.7378" lon="6.73043">
        <ele>2717</ele>
        <time>2026-07-29T09:12:30.716Z</time>
      </trkpt>
      <trkpt lat="45.7378" lon="6.73043">
        <ele>2717</ele>
        <time>2026-07-29T09:12:31.716Z</time>
      </trkpt>
      <trkpt lat="45.73781" lon="6.73043">
        <ele>2717</ele>
        <time>2026-07-29T09:12:32.716Z</time>
      </trkpt>
      <trkpt lat="45.73781" lon="6.73043">
        <ele>2718</ele>
        <time>2026-07-29T09:12:33.716Z</time>
      </trkpt>
      <trkpt lat="45.73781" lon="6.73043">
        <ele>2718</ele>
        <time>2026-07-29T09:12:34.716Z</time>
      </trkpt>
      <trkpt lat="45.73781" lon="6.73043">
        <ele>2718</ele>
        <time>2026-07-29T09:12:35.716Z</time>
      </trkpt>
      <trkpt lat="45.73781" lon="6.73043">
        <ele>2718</ele>
        <time>2026-07-29T09:12:36.716Z</time>
      </trkpt>
      <trkpt lat="45.73781" lon="6.73043">
        <ele>2719</ele>
        <time>2026-07-29T09:12:37.716Z</time>
      </trkpt>
      <trkpt lat="45.73781" lon="6.73044">
        <ele>2719</ele>
        <time>2026-07-29T09:12:38.716Z</time>
      </trkpt>
      <trkpt lat="45.73781" lon="6.73044">
        <ele>2719</ele>
        <time>2026-07-29T09:12:39.716Z</time>
      </trkpt>
      <trkpt lat="45.73781" lon="6.73044">
        <ele>2719</ele>
        <time>2026-07-29T09:12:40.716Z</time>
      </trkpt>
      <trkpt lat="45.73781" lon="6.73044">
        <ele>2719</ele>
        <time>2026-07-29T09:12:41.716Z</time>
      </trkpt>
      <trkpt lat="45.73781" lon="6.73044">
        <ele>2719</ele>
        <time>2026-07-29T09:12:42.716Z</time>
      </trkpt>
      <trkpt lat="45.73781" lon="6.73044">
        <ele>2719</ele>
        <time>2026-07-29T09:12:43.716Z</time>
      </trkpt>
      <trkpt lat="45.73781" lon="6.73044">
        <ele>2719</ele>
        <time>2026-07-29T09:12:44.716Z</time>
      </trkpt>
      <trkpt lat="45.73781" lon="6.73044">
        <ele>2719</ele>
        <time>2026-07-29T09:12:45.716Z</time>
      </trkpt>
      <trkpt lat="45.73781" lon="6.73044">
        <ele>2719</ele>
        <time>2026-07-29T09:12:46.716Z</time>
      </trkpt>
      <trkpt lat="45.73781" lon="6.73044">
        <ele>2719</ele>
        <time>2026-07-29T09:12:47.716Z</time>
      </trkpt>
      <trkpt lat="45.73781" lon="6.73044">
        <ele>2719</ele>
        <time>2026-07-29T09:12:48.716Z</time>
      </trkpt>
      <trkpt lat="45.73781" lon="6.73044">
        <ele>2719</ele>
        <time>2026-07-29T09:12:49.716Z</time>
      </trkpt>
      <trkpt lat="45.73781" lon="6.73044">
        <ele>2719</ele>
        <time>2026-07-29T09:12:50.716Z</time>
      </trkpt>
      <trkpt lat="45.73781" lon="6.73044">
        <ele>2718</ele>
        <time>2026-07-29T09:12:51.716Z</time>
      </trkpt>
      <trkpt lat="45.73781" lon="6.73043">
        <ele>2718</ele>
        <time>2026-07-29T09:12:52.716Z</time>
      </trkpt>
      <trkpt lat="45.73781" lon="6.73043">
        <ele>2718</ele>
        <time>2026-07-29T09:12:53.716Z</time>
      </trkpt>
      <trkpt lat="45.73781" lon="6.73043">
        <ele>2718</ele>
        <time>2026-07-29T09:12:54.716Z</time>
      </trkpt>
      <trkpt lat="45.73781" lon="6.73043">
        <ele>2718</ele>
        <time>2026-07-29T09:12:55.716Z</time>
      </trkpt>
      <trkpt lat="45.73781" lon="6.73043">
        <ele>2718</ele>
        <time>2026-07-29T09:12:56.716Z</time>
      </trkpt>
      <trkpt lat="45.73781" lon="6.73043">
        <ele>2718</ele>
        <time>2026-07-29T09:12:57.716Z</time>
      </trkpt>
      <trkpt lat="45.73781" lon="6.73043">
        <ele>2718</ele>
        <time>2026-07-29T09:12:58.716Z</time>
      </trkpt>
      <trkpt lat="45.73782" lon="6.73043">
        <ele>2718</ele>
        <time>2026-07-29T09:12:59.716Z</time>
      </trkpt>
      <trkpt lat="45.73783" lon="6.73043">
        <ele>2718</ele>
        <time>2026-07-29T09:13:00.716Z</time>
      </trkpt>
      <trkpt lat="45.73783" lon="6.73043">
        <ele>2718</ele>
        <time>2026-07-29T09:13:01.716Z</time>
      </trkpt>
      <trkpt lat="45.73784" lon="6.73043">
        <ele>2718</ele>
        <time>2026-07-29T09:13:02.716Z</time>
      </trkpt>
      <trkpt lat="45.73784" lon="6.73043">
        <ele>2718</ele>
        <time>2026-07-29T09:13:03.716Z</time>
      </trkpt>
      <trkpt lat="45.73784" lon="6.73043">
        <ele>2718</ele>
        <time>2026-07-29T09:13:04.716Z</time>
      </trkpt>
      <trkpt lat="45.73784" lon="6.73043">
        <ele>2718</ele>
        <time>2026-07-29T09:13:05.716Z</time>
      </trkpt>
      <trkpt lat="45.73784" lon="6.73043">
        <ele>2719</ele>
        <time>2026-07-29T09:13:06.716Z</time>
      </trkpt>
      <trkpt lat="45.73784" lon="6.73043">
        <ele>2719</ele>
        <time>2026-07-29T09:13:07.716Z</time>
      </trkpt>
      <trkpt lat="45.73784" lon="6.73043">
        <ele>2719</ele>
        <time>2026-07-29T09:13:08.716Z</time>
      </trkpt>
      <trkpt lat="45.73785" lon="6.73043">
        <ele>2719</ele>
        <time>2026-07-29T09:13:09.716Z</time>
      </trkpt>
      <trkpt lat="45.73785" lon="6.73043">
        <ele>2719</ele>
        <time>2026-07-29T09:13:10.716Z</time>
      </trkpt>
      <trkpt lat="45.73785" lon="6.73043">
        <ele>2719</ele>
        <time>2026-07-29T09:13:11.716Z</time>
      </trkpt>
      <trkpt lat="45.73786" lon="6.73043">
        <ele>2719</ele>
        <time>2026-07-29T09:13:12.716Z</time>
      </trkpt>
      <trkpt lat="45.73787" lon="6.73042">
        <ele>2719</ele>
        <time>2026-07-29T09:13:13.716Z</time>
      </trkpt>
      <trkpt lat="45.73788" lon="6.73041">
        <ele>2719</ele>
        <time>2026-07-29T09:13:14.716Z</time>
      </trkpt>
      <trkpt lat="45.73789" lon="6.7304">
        <ele>2719</ele>
        <time>2026-07-29T09:13:15.716Z</time>
      </trkpt>
      <trkpt lat="45.7379" lon="6.73038">
        <ele>2719</ele>
        <time>2026-07-29T09:13:16.716Z</time>
      </trkpt>
      <trkpt lat="45.73791" lon="6.73036">
        <ele>2719</ele>
        <time>2026-07-29T09:13:17.716Z</time>
      </trkpt>
      <trkpt lat="45.73792" lon="6.73035">
        <ele>2719</ele>
        <time>2026-07-29T09:13:18.716Z</time>
      </trkpt>
      <trkpt lat="45.73792" lon="6.73034">
        <ele>2719</ele>
        <time>2026-07-29T09:13:19.716Z</time>
      </trkpt>
      <trkpt lat="45.73793" lon="6.73033">
        <ele>2718</ele>
        <time>2026-07-29T09:13:20.716Z</time>
      </trkpt>
      <trkpt lat="45.73794" lon="6.73033">
        <ele>2719</ele>
        <time>2026-07-29T09:13:21.716Z</time>
      </trkpt>
      <trkpt lat="45.73793" lon="6.73032">
        <ele>2718</ele>
        <time>2026-07-29T09:13:22.716Z</time>
      </trkpt>
      <trkpt lat="45.73793" lon="6.73032">
        <ele>2718</ele>
        <time>2026-07-29T09:13:23.716Z</time>
      </trkpt>
      <trkpt lat="45.73793" lon="6.73032">
        <ele>2718</ele>
        <time>2026-07-29T09:13:24.716Z</time>
      </trkpt>
      <trkpt lat="45.73792" lon="6.7303">
        <ele>2719</ele>
        <time>2026-07-29T09:13:25.716Z</time>
      </trkpt>
      <trkpt lat="45.73791" lon="6.73029">
        <ele>2719</ele>
        <time>2026-07-29T09:13:26.716Z</time>
      </trkpt>
      <trkpt lat="45.73791" lon="6.73028">
        <ele>2719</ele>
        <time>2026-07-29T09:13:27.716Z</time>
      </trkpt>
      <trkpt lat="45.73791" lon="6.73027">
        <ele>2719</ele>
        <time>2026-07-29T09:13:28.716Z</time>
      </trkpt>
      <trkpt lat="45.7379" lon="6.73025">
        <ele>2719</ele>
        <time>2026-07-29T09:13:29.716Z</time>
      </trkpt>
      <trkpt lat="45.7379" lon="6.73024">
        <ele>2718</ele>
        <time>2026-07-29T09:13:30.716Z</time>
      </trkpt>
      <trkpt lat="45.7379" lon="6.73023">
        <ele>2718</ele>
        <time>2026-07-29T09:13:31.716Z</time>
      </trkpt>
      <trkpt lat="45.7379" lon="6.73023">
        <ele>2718</ele>
        <time>2026-07-29T09:13:32.716Z</time>
      </trkpt>
      <trkpt lat="45.73789" lon="6.7302">
        <ele>2718</ele>
        <time>2026-07-29T09:13:33.716Z</time>
      </trkpt>
      <trkpt lat="45.73789" lon="6.73019">
        <ele>2718</ele>
        <time>2026-07-29T09:13:34.716Z</time>
      </trkpt>
      <trkpt lat="45.73788" lon="6.73018">
        <ele>2717</ele>
        <time>2026-07-29T09:13:35.716Z</time>
      </trkpt>
      <trkpt lat="45.73788" lon="6.73017">
        <ele>2717</ele>
        <time>2026-07-29T09:13:36.716Z</time>
      </trkpt>
      <trkpt lat="45.73787" lon="6.73016">
        <ele>2717</ele>
        <time>2026-07-29T09:13:37.716Z</time>
      </trkpt>
      <trkpt lat="45.73787" lon="6.73015">
        <ele>2717</ele>
        <time>2026-07-29T09:13:38.716Z</time>
      </trkpt>
      <trkpt lat="45.73787" lon="6.73014">
        <ele>2717</ele>
        <time>2026-07-29T09:13:39.716Z</time>
      </trkpt>
      <trkpt lat="45.73787" lon="6.73012">
        <ele>2717</ele>
        <time>2026-07-29T09:13:40.716Z</time>
      </trkpt>
      <trkpt lat="45.73787" lon="6.73012">
        <ele>2717</ele>
        <time>2026-07-29T09:13:41.716Z</time>
      </trkpt>
      <trkpt lat="45.73787" lon="6.73011">
        <ele>2717</ele>
        <time>2026-07-29T09:13:42.716Z</time>
      </trkpt>
      <trkpt lat="45.73787" lon="6.7301">
        <ele>2717</ele>
        <time>2026-07-29T09:13:43.716Z</time>
      </trkpt>
      <trkpt lat="45.73787" lon="6.7301">
        <ele>2717</ele>
        <time>2026-07-29T09:13:44.716Z</time>
      </trkpt>
      <trkpt lat="45.73787" lon="6.73009">
        <ele>2717</ele>
        <time>2026-07-29T09:13:45.716Z</time>
      </trkpt>
      <trkpt lat="45.73787" lon="6.73008">
        <ele>2717</ele>
        <time>2026-07-29T09:13:46.716Z</time>
      </trkpt>
      <trkpt lat="45.73787" lon="6.73008">
        <ele>2717</ele>
        <time>2026-07-29T09:13:47.716Z</time>
      </trkpt>
      <trkpt lat="45.73787" lon="6.73007">
        <ele>2717</ele>
        <time>2026-07-29T09:13:48.716Z</time>
      </trkpt>
      <trkpt lat="45.73788" lon="6.73006">
        <ele>2717</ele>
        <time>2026-07-29T09:13:49.716Z</time>
      </trkpt>
      <trkpt lat="45.73788" lon="6.73005">
        <ele>2717</ele>
        <time>2026-07-29T09:13:50.716Z</time>
      </trkpt>
      <trkpt lat="45.73788" lon="6.73005">
        <ele>2717</ele>
        <time>2026-07-29T09:13:51.716Z</time>
      </trkpt>
      <trkpt lat="45.73788" lon="6.73005">
        <ele>2717</ele>
        <time>2026-07-29T09:13:52.716Z</time>
      </trkpt>
      <trkpt lat="45.73788" lon="6.73005">
        <ele>2717</ele>
        <time>2026-07-29T09:13:53.716Z</time>
      </trkpt>
      <trkpt lat="45.73787" lon="6.73005">
        <ele>2717</ele>
        <time>2026-07-29T09:13:54.716Z</time>
      </trkpt>
      <trkpt lat="45.73787" lon="6.73004">
        <ele>2716</ele>
        <time>2026-07-29T09:13:55.716Z</time>
      </trkpt>
      <trkpt lat="45.73787" lon="6.73004">
        <ele>2716</ele>
        <time>2026-07-29T09:13:56.716Z</time>
      </trkpt>
      <trkpt lat="45.73787" lon="6.73003">
        <ele>2716</ele>
        <time>2026-07-29T09:13:57.716Z</time>
      </trkpt>
      <trkpt lat="45.73786" lon="6.73002">
        <ele>2716</ele>
        <time>2026-07-29T09:13:58.716Z</time>
      </trkpt>
      <trkpt lat="45.73786" lon="6.73002">
        <ele>2716</ele>
        <time>2026-07-29T09:13:59.716Z</time>
      </trkpt>
      <trkpt lat="45.73786" lon="6.73001">
        <ele>2716</ele>
        <time>2026-07-29T09:14:00.716Z</time>
      </trkpt>
      <trkpt lat="45.73785" lon="6.73">
        <ele>2716</ele>
        <time>2026-07-29T09:14:01.716Z</time>
      </trkpt>
      <trkpt lat="45.73785" lon="6.73">
        <ele>2715</ele>
        <time>2026-07-29T09:14:02.716Z</time>
      </trkpt>
      <trkpt lat="45.73785" lon="6.72999">
        <ele>2715</ele>
        <time>2026-07-29T09:14:03.716Z</time>
      </trkpt>
      <trkpt lat="45.73784" lon="6.72999">
        <ele>2715</ele>
        <time>2026-07-29T09:14:04.716Z</time>
      </trkpt>
      <trkpt lat="45.73784" lon="6.72998">
        <ele>2715</ele>
        <time>2026-07-29T09:14:05.716Z</time>
      </trkpt>
      <trkpt lat="45.73784" lon="6.72998">
        <ele>2715</ele>
        <time>2026-07-29T09:14:06.716Z</time>
      </trkpt>
      <trkpt lat="45.73784" lon="6.72997">
        <ele>2715</ele>
        <time>2026-07-29T09:14:07.716Z</time>
      </trkpt>
      <trkpt lat="45.73784" lon="6.72997">
        <ele>2715</ele>
        <time>2026-07-29T09:14:08.716Z</time>
      </trkpt>
      <trkpt lat="45.73784" lon="6.72996">
        <ele>2715</ele>
        <time>2026-07-29T09:14:09.716Z</time>
      </trkpt>
      <trkpt lat="45.73784" lon="6.72996">
        <ele>2715</ele>
        <time>2026-07-29T09:14:10.716Z</time>
      </trkpt>
      <trkpt lat="45.73783" lon="6.72996">
        <ele>2715</ele>
        <time>2026-07-29T09:14:11.716Z</time>
      </trkpt>
      <trkpt lat="45.73783" lon="6.72996">
        <ele>2715</ele>
        <time>2026-07-29T09:14:12.716Z</time>
      </trkpt>
      <trkpt lat="45.73783" lon="6.72996">
        <ele>2715</ele>
        <time>2026-07-29T09:14:13.716Z</time>
      </trkpt>
      <trkpt lat="45.73783" lon="6.72995">
        <ele>2715</ele>
        <time>2026-07-29T09:14:14.716Z</time>
      </trkpt>
      <trkpt lat="45.73782" lon="6.72995">
        <ele>2715</ele>
        <time>2026-07-29T09:14:15.716Z</time>
      </trkpt>
      <trkpt lat="45.73782" lon="6.72994">
        <ele>2715</ele>
        <time>2026-07-29T09:14:16.716Z</time>
      </trkpt>
      <trkpt lat="45.73781" lon="6.72993">
        <ele>2715</ele>
        <time>2026-07-29T09:14:17.716Z</time>
      </trkpt>
      <trkpt lat="45.73781" lon="6.72992">
        <ele>2715</ele>
        <time>2026-07-29T09:14:18.716Z</time>
      </trkpt>
      <trkpt lat="45.7378" lon="6.7299">
        <ele>2715</ele>
        <time>2026-07-29T09:14:19.716Z</time>
      </trkpt>
      <trkpt lat="45.7378" lon="6.72989">
        <ele>2715</ele>
        <time>2026-07-29T09:14:20.716Z</time>
      </trkpt>
      <trkpt lat="45.73779" lon="6.72989">
        <ele>2715</ele>
        <time>2026-07-29T09:14:21.716Z</time>
      </trkpt>
      <trkpt lat="45.73779" lon="6.72988">
        <ele>2714</ele>
        <time>2026-07-29T09:14:22.716Z</time>
      </trkpt>
      <trkpt lat="45.73778" lon="6.72989">
        <ele>2714</ele>
        <time>2026-07-29T09:14:23.716Z</time>
      </trkpt>
      <trkpt lat="45.73777" lon="6.72989">
        <ele>2714</ele>
        <time>2026-07-29T09:14:24.716Z</time>
      </trkpt>
      <trkpt lat="45.73777" lon="6.72989">
        <ele>2713</ele>
        <time>2026-07-29T09:14:25.716Z</time>
      </trkpt>
      <trkpt lat="45.73776" lon="6.72989">
        <ele>2713</ele>
        <time>2026-07-29T09:14:26.716Z</time>
      </trkpt>
      <trkpt lat="45.73776" lon="6.72989">
        <ele>2713</ele>
        <time>2026-07-29T09:14:27.716Z</time>
      </trkpt>
      <trkpt lat="45.73776" lon="6.72988">
        <ele>2713</ele>
        <time>2026-07-29T09:14:28.716Z</time>
      </trkpt>
      <trkpt lat="45.73775" lon="6.72987">
        <ele>2712</ele>
        <time>2026-07-29T09:14:29.716Z</time>
      </trkpt>
      <trkpt lat="45.73774" lon="6.72986">
        <ele>2712</ele>
        <time>2026-07-29T09:14:30.716Z</time>
      </trkpt>
      <trkpt lat="45.73773" lon="6.72985">
        <ele>2712</ele>
        <time>2026-07-29T09:14:31.716Z</time>
      </trkpt>
      <trkpt lat="45.73773" lon="6.72985">
        <ele>2712</ele>
        <time>2026-07-29T09:14:32.716Z</time>
      </trkpt>
      <trkpt lat="45.73772" lon="6.72983">
        <ele>2712</ele>
        <time>2026-07-29T09:14:33.716Z</time>
      </trkpt>
      <trkpt lat="45.73771" lon="6.72982">
        <ele>2712</ele>
        <time>2026-07-29T09:14:34.716Z</time>
      </trkpt>
      <trkpt lat="45.7377" lon="6.72981">
        <ele>2712</ele>
        <time>2026-07-29T09:14:35.716Z</time>
      </trkpt>
      <trkpt lat="45.7377" lon="6.72981">
        <ele>2712</ele>
        <time>2026-07-29T09:14:36.716Z</time>
      </trkpt>
      <trkpt lat="45.73769" lon="6.7298">
        <ele>2712</ele>
        <time>2026-07-29T09:14:37.716Z</time>
      </trkpt>
      <trkpt lat="45.73768" lon="6.72977">
        <ele>2711</ele>
        <time>2026-07-29T09:14:38.716Z</time>
      </trkpt>
      <trkpt lat="45.73767" lon="6.72976">
        <ele>2711</ele>
        <time>2026-07-29T09:14:39.716Z</time>
      </trkpt>
      <trkpt lat="45.73766" lon="6.72974">
        <ele>2711</ele>
        <time>2026-07-29T09:14:40.716Z</time>
      </trkpt>
      <trkpt lat="45.73765" lon="6.72972">
        <ele>2711</ele>
        <time>2026-07-29T09:14:41.716Z</time>
      </trkpt>
      <trkpt lat="45.73765" lon="6.72971">
        <ele>2712</ele>
        <time>2026-07-29T09:14:42.716Z</time>
      </trkpt>
      <trkpt lat="45.73765" lon="6.72969">
        <ele>2712</ele>
        <time>2026-07-29T09:14:43.716Z</time>
      </trkpt>
      <trkpt lat="45.73764" lon="6.72966">
        <ele>2712</ele>
        <time>2026-07-29T09:14:44.716Z</time>
      </trkpt>
      <trkpt lat="45.73764" lon="6.72966">
        <ele>2712</ele>
        <time>2026-07-29T09:14:45.716Z</time>
      </trkpt>
      <trkpt lat="45.73763" lon="6.72962">
        <ele>2712</ele>
        <time>2026-07-29T09:14:46.716Z</time>
      </trkpt>
      <trkpt lat="45.73762" lon="6.7296">
        <ele>2711</ele>
        <time>2026-07-29T09:14:47.716Z</time>
      </trkpt>
      <trkpt lat="45.73761" lon="6.72958">
        <ele>2711</ele>
        <time>2026-07-29T09:14:48.716Z</time>
      </trkpt>
      <trkpt lat="45.73761" lon="6.72958">
        <ele>2711</ele>
        <time>2026-07-29T09:14:49.716Z</time>
      </trkpt>
      <trkpt lat="45.73759" lon="6.72953">
        <ele>2710</ele>
        <time>2026-07-29T09:14:50.716Z</time>
      </trkpt>
      <trkpt lat="45.73758" lon="6.72951">
        <ele>2710</ele>
        <time>2026-07-29T09:14:51.716Z</time>
      </trkpt>
      <trkpt lat="45.73757" lon="6.72949">
        <ele>2709</ele>
        <time>2026-07-29T09:14:52.716Z</time>
      </trkpt>
      <trkpt lat="45.73756" lon="6.72947">
        <ele>2709</ele>
        <time>2026-07-29T09:14:53.716Z</time>
      </trkpt>
      <trkpt lat="45.73755" lon="6.72945">
        <ele>2709</ele>
        <time>2026-07-29T09:14:54.716Z</time>
      </trkpt>
      <trkpt lat="45.73754" lon="6.72943">
        <ele>2708</ele>
        <time>2026-07-29T09:14:55.716Z</time>
      </trkpt>
      <trkpt lat="45.73753" lon="6.72941">
        <ele>2708</ele>
        <time>2026-07-29T09:14:56.716Z</time>
      </trkpt>
      <trkpt lat="45.73751" lon="6.72939">
        <ele>2708</ele>
        <time>2026-07-29T09:14:57.716Z</time>
      </trkpt>
      <trkpt lat="45.7375" lon="6.72937">
        <ele>2708</ele>
        <time>2026-07-29T09:14:58.716Z</time>
      </trkpt>
      <trkpt lat="45.73748" lon="6.72935">
        <ele>2708</ele>
        <time>2026-07-29T09:14:59.716Z</time>
      </trkpt>
      <trkpt lat="45.73747" lon="6.72933">
        <ele>2708</ele>
        <time>2026-07-29T09:15:00.716Z</time>
      </trkpt>
      <trkpt lat="45.73745" lon="6.72932">
        <ele>2708</ele>
        <time>2026-07-29T09:15:01.716Z</time>
      </trkpt>
      <trkpt lat="45.73744" lon="6.7293">
        <ele>2707</ele>
        <time>2026-07-29T09:15:02.716Z</time>
      </trkpt>
      <trkpt lat="45.73743" lon="6.7293">
        <ele>2707</ele>
        <time>2026-07-29T09:15:03.716Z</time>
      </trkpt>
      <trkpt lat="45.73743" lon="6.72929">
        <ele>2707</ele>
        <time>2026-07-29T09:15:04.716Z</time>
      </trkpt>
      <trkpt lat="45.73742" lon="6.72929">
        <ele>2707</ele>
        <time>2026-07-29T09:15:05.716Z</time>
      </trkpt>
      <trkpt lat="45.73741" lon="6.72929">
        <ele>2707</ele>
        <time>2026-07-29T09:15:06.716Z</time>
      </trkpt>
      <trkpt lat="45.7374" lon="6.72928">
        <ele>2707</ele>
        <time>2026-07-29T09:15:07.716Z</time>
      </trkpt>
      <trkpt lat="45.7374" lon="6.72927">
        <ele>2707</ele>
        <time>2026-07-29T09:15:08.716Z</time>
      </trkpt>
      <trkpt lat="45.73739" lon="6.72925">
        <ele>2707</ele>
        <time>2026-07-29T09:15:09.716Z</time>
      </trkpt>
      <trkpt lat="45.73738" lon="6.72923">
        <ele>2706</ele>
        <time>2026-07-29T09:15:10.716Z</time>
      </trkpt>
      <trkpt lat="45.73738" lon="6.72923">
        <ele>2706</ele>
        <time>2026-07-29T09:15:11.716Z</time>
      </trkpt>
      <trkpt lat="45.73736" lon="6.72919">
        <ele>2706</ele>
        <time>2026-07-29T09:15:12.716Z</time>
      </trkpt>
      <trkpt lat="45.73735" lon="6.72917">
        <ele>2706</ele>
        <time>2026-07-29T09:15:13.716Z</time>
      </trkpt>
      <trkpt lat="45.73734" lon="6.72915">
        <ele>2706</ele>
        <time>2026-07-29T09:15:14.716Z</time>
      </trkpt>
      <trkpt lat="45.73733" lon="6.72913">
        <ele>2705</ele>
        <time>2026-07-29T09:15:15.716Z</time>
      </trkpt>
      <trkpt lat="45.73732" lon="6.72911">
        <ele>2705</ele>
        <time>2026-07-29T09:15:16.716Z</time>
      </trkpt>
      <trkpt lat="45.73732" lon="6.72909">
        <ele>2705</ele>
        <time>2026-07-29T09:15:17.716Z</time>
      </trkpt>
      <trkpt lat="45.73731" lon="6.72907">
        <ele>2705</ele>
        <time>2026-07-29T09:15:18.716Z</time>
      </trkpt>
      <trkpt lat="45.73731" lon="6.72907">
        <ele>2705</ele>
        <time>2026-07-29T09:15:19.716Z</time>
      </trkpt>
      <trkpt lat="45.7373" lon="6.72904">
        <ele>2706</ele>
        <time>2026-07-29T09:15:20.716Z</time>
      </trkpt>
      <trkpt lat="45.7373" lon="6.72902">
        <ele>2706</ele>
        <time>2026-07-29T09:15:21.716Z</time>
      </trkpt>
      <trkpt lat="45.73729" lon="6.729">
        <ele>2706</ele>
        <time>2026-07-29T09:15:22.716Z</time>
      </trkpt>
      <trkpt lat="45.73729" lon="6.72898">
        <ele>2707</ele>
        <time>2026-07-29T09:15:23.716Z</time>
      </trkpt>
      <trkpt lat="45.73729" lon="6.72898">
        <ele>2707</ele>
        <time>2026-07-29T09:15:24.716Z</time>
      </trkpt>
      <trkpt lat="45.73728" lon="6.72894">
        <ele>2707</ele>
        <time>2026-07-29T09:15:25.716Z</time>
      </trkpt>
      <trkpt lat="45.73728" lon="6.72892">
        <ele>2707</ele>
        <time>2026-07-29T09:15:26.716Z</time>
      </trkpt>
      <trkpt lat="45.73728" lon="6.7289">
        <ele>2707</ele>
        <time>2026-07-29T09:15:27.716Z</time>
      </trkpt>
      <trkpt lat="45.73728" lon="6.7289">
        <ele>2707</ele>
        <time>2026-07-29T09:15:28.716Z</time>
      </trkpt>
      <trkpt lat="45.73727" lon="6.72888">
        <ele>2707</ele>
        <time>2026-07-29T09:15:29.716Z</time>
      </trkpt>
      <trkpt lat="45.73726" lon="6.72884">
        <ele>2707</ele>
        <time>2026-07-29T09:15:30.716Z</time>
      </trkpt>
      <trkpt lat="45.73726" lon="6.72882">
        <ele>2707</ele>
        <time>2026-07-29T09:15:31.716Z</time>
      </trkpt>
      <trkpt lat="45.73727" lon="6.72881">
        <ele>2707</ele>
        <time>2026-07-29T09:15:32.716Z</time>
      </trkpt>
      <trkpt lat="45.73727" lon="6.72879">
        <ele>2707</ele>
        <time>2026-07-29T09:15:33.716Z</time>
      </trkpt>
      <trkpt lat="45.73728" lon="6.72878">
        <ele>2707</ele>
        <time>2026-07-29T09:15:34.716Z</time>
      </trkpt>
      <trkpt lat="45.73729" lon="6.72877">
        <ele>2707</ele>
        <time>2026-07-29T09:15:35.716Z</time>
      </trkpt>
      <trkpt lat="45.73729" lon="6.72877">
        <ele>2707</ele>
        <time>2026-07-29T09:15:36.716Z</time>
      </trkpt>
      <trkpt lat="45.7373" lon="6.72876">
        <ele>2707</ele>
        <time>2026-07-29T09:15:37.716Z</time>
      </trkpt>
      <trkpt lat="45.73731" lon="6.72875">
        <ele>2707</ele>
        <time>2026-07-29T09:15:38.716Z</time>
      </trkpt>
      <trkpt lat="45.73731" lon="6.72875">
        <ele>2708</ele>
        <time>2026-07-29T09:15:39.716Z</time>
      </trkpt>
      <trkpt lat="45.73731" lon="6.72876">
        <ele>2708</ele>
        <time>2026-07-29T09:15:40.716Z</time>
      </trkpt>
      <trkpt lat="45.73731" lon="6.72876">
        <ele>2709</ele>
        <time>2026-07-29T09:15:41.716Z</time>
      </trkpt>
      <trkpt lat="45.73731" lon="6.72876">
        <ele>2709</ele>
        <time>2026-07-29T09:15:42.716Z</time>
      </trkpt>
      <trkpt lat="45.73731" lon="6.72876">
        <ele>2709</ele>
        <time>2026-07-29T09:15:43.716Z</time>
      </trkpt>
      <trkpt lat="45.73731" lon="6.72876">
        <ele>2710</ele>
        <time>2026-07-29T09:15:44.716Z</time>
      </trkpt>
      <trkpt lat="45.7373" lon="6.72877">
        <ele>2710</ele>
        <time>2026-07-29T09:15:45.716Z</time>
      </trkpt>
      <trkpt lat="45.7373" lon="6.72877">
        <ele>2710</ele>
        <time>2026-07-29T09:15:46.716Z</time>
      </trkpt>
      <trkpt lat="45.73728" lon="6.72879">
        <ele>2709</ele>
        <time>2026-07-29T09:15:47.716Z</time>
      </trkpt>
      <trkpt lat="45.73727" lon="6.72879">
        <ele>2709</ele>
        <time>2026-07-29T09:15:48.716Z</time>
      </trkpt>
      <trkpt lat="45.73725" lon="6.7288">
        <ele>2709</ele>
        <time>2026-07-29T09:15:49.716Z</time>
      </trkpt>
      <trkpt lat="45.73724" lon="6.7288">
        <ele>2709</ele>
        <time>2026-07-29T09:15:50.716Z</time>
      </trkpt>
      <trkpt lat="45.73722" lon="6.72879">
        <ele>2709</ele>
        <time>2026-07-29T09:15:51.716Z</time>
      </trkpt>
      <trkpt lat="45.7372" lon="6.72879">
        <ele>2708</ele>
        <time>2026-07-29T09:15:52.716Z</time>
      </trkpt>
      <trkpt lat="45.73719" lon="6.72878">
        <ele>2708</ele>
        <time>2026-07-29T09:15:53.716Z</time>
      </trkpt>
      <trkpt lat="45.73718" lon="6.72878">
        <ele>2708</ele>
        <time>2026-07-29T09:15:54.716Z</time>
      </trkpt>
      <trkpt lat="45.73716" lon="6.72877">
        <ele>2708</ele>
        <time>2026-07-29T09:15:55.716Z</time>
      </trkpt>
      <trkpt lat="45.73715" lon="6.72877">
        <ele>2708</ele>
        <time>2026-07-29T09:15:56.716Z</time>
      </trkpt>
      <trkpt lat="45.73714" lon="6.72878">
        <ele>2708</ele>
        <time>2026-07-29T09:15:57.716Z</time>
      </trkpt>
      <trkpt lat="45.73712" lon="6.72878">
        <ele>2708</ele>
        <time>2026-07-29T09:15:58.716Z</time>
      </trkpt>
      <trkpt lat="45.73711" lon="6.72877">
        <ele>2708</ele>
        <time>2026-07-29T09:15:59.716Z</time>
      </trkpt>
      <trkpt lat="45.73711" lon="6.72877">
        <ele>2708</ele>
        <time>2026-07-29T09:16:00.716Z</time>
      </trkpt>
      <trkpt lat="45.7371" lon="6.72875">
        <ele>2708</ele>
        <time>2026-07-29T09:16:01.716Z</time>
      </trkpt>
      <trkpt lat="45.7371" lon="6.72875">
        <ele>2708</ele>
        <time>2026-07-29T09:16:02.716Z</time>
      </trkpt>
      <trkpt lat="45.73711" lon="6.72872">
        <ele>2709</ele>
        <time>2026-07-29T09:16:03.716Z</time>
      </trkpt>
      <trkpt lat="45.73712" lon="6.72871">
        <ele>2709</ele>
        <time>2026-07-29T09:16:04.716Z</time>
      </trkpt>
      <trkpt lat="45.73712" lon="6.72871">
        <ele>2709</ele>
        <time>2026-07-29T09:16:05.716Z</time>
      </trkpt>
      <trkpt lat="45.73713" lon="6.72868">
        <ele>2710</ele>
        <time>2026-07-29T09:16:06.716Z</time>
      </trkpt>
      <trkpt lat="45.73714" lon="6.72867">
        <ele>2710</ele>
        <time>2026-07-29T09:16:07.716Z</time>
      </trkpt>
      <trkpt lat="45.73715" lon="6.72865">
        <ele>2710</ele>
        <time>2026-07-29T09:16:08.716Z</time>
      </trkpt>
      <trkpt lat="45.73715" lon="6.72865">
        <ele>2710</ele>
        <time>2026-07-29T09:16:09.716Z</time>
      </trkpt>
      <trkpt lat="45.73716" lon="6.72862">
        <ele>2712</ele>
        <time>2026-07-29T09:16:10.716Z</time>
      </trkpt>
      <trkpt lat="45.73716" lon="6.72861">
        <ele>2713</ele>
        <time>2026-07-29T09:16:11.716Z</time>
      </trkpt>
      <trkpt lat="45.73717" lon="6.72859">
        <ele>2714</ele>
        <time>2026-07-29T09:16:12.716Z</time>
      </trkpt>
      <trkpt lat="45.73717" lon="6.72858">
        <ele>2714</ele>
        <time>2026-07-29T09:16:13.716Z</time>
      </trkpt>
      <trkpt lat="45.73717" lon="6.72858">
        <ele>2714</ele>
        <time>2026-07-29T09:16:14.716Z</time>
      </trkpt>
      <trkpt lat="45.73719" lon="6.72856">
        <ele>2715</ele>
        <time>2026-07-29T09:16:15.716Z</time>
      </trkpt>
      <trkpt lat="45.73719" lon="6.72856">
        <ele>2715</ele>
        <time>2026-07-29T09:16:16.716Z</time>
      </trkpt>
      <trkpt lat="45.73719" lon="6.72856">
        <ele>2715</ele>
        <time>2026-07-29T09:16:17.716Z</time>
      </trkpt>
      <trkpt lat="45.7372" lon="6.72854">
        <ele>2715</ele>
        <time>2026-07-29T09:16:18.716Z</time>
      </trkpt>
      <trkpt lat="45.7372" lon="6.72854">
        <ele>2715</ele>
        <time>2026-07-29T09:16:19.716Z</time>
      </trkpt>
      <trkpt lat="45.73721" lon="6.72853">
        <ele>2715</ele>
        <time>2026-07-29T09:16:20.716Z</time>
      </trkpt>
      <trkpt lat="45.73721" lon="6.72851">
        <ele>2714</ele>
        <time>2026-07-29T09:16:21.716Z</time>
      </trkpt>
      <trkpt lat="45.73721" lon="6.7285">
        <ele>2714</ele>
        <time>2026-07-29T09:16:22.716Z</time>
      </trkpt>
      <trkpt lat="45.73722" lon="6.72849">
        <ele>2714</ele>
        <time>2026-07-29T09:16:23.716Z</time>
      </trkpt>
      <trkpt lat="45.73722" lon="6.72849">
        <ele>2714</ele>
        <time>2026-07-29T09:16:24.716Z</time>
      </trkpt>
      <trkpt lat="45.73721" lon="6.72847">
        <ele>2715</ele>
        <time>2026-07-29T09:16:25.716Z</time>
      </trkpt>
      <trkpt lat="45.7372" lon="6.72847">
        <ele>2715</ele>
        <time>2026-07-29T09:16:26.716Z</time>
      </trkpt>
      <trkpt lat="45.7372" lon="6.72847">
        <ele>2715</ele>
        <time>2026-07-29T09:16:27.716Z</time>
      </trkpt>
      <trkpt lat="45.7372" lon="6.72847">
        <ele>2715</ele>
        <time>2026-07-29T09:16:28.716Z</time>
      </trkpt>
      <trkpt lat="45.73718" lon="6.72847">
        <ele>2715</ele>
        <time>2026-07-29T09:16:29.716Z</time>
      </trkpt>
      <trkpt lat="45.73717" lon="6.72847">
        <ele>2715</ele>
        <time>2026-07-29T09:16:30.716Z</time>
      </trkpt>
      <trkpt lat="45.73717" lon="6.72847">
        <ele>2715</ele>
        <time>2026-07-29T09:16:31.716Z</time>
      </trkpt>
      <trkpt lat="45.73714" lon="6.72848">
        <ele>2716</ele>
        <time>2026-07-29T09:16:32.716Z</time>
      </trkpt>
      <trkpt lat="45.73714" lon="6.72848">
        <ele>2716</ele>
        <time>2026-07-29T09:16:33.716Z</time>
      </trkpt>
      <trkpt lat="45.73713" lon="6.72848">
        <ele>2717</ele>
        <time>2026-07-29T09:16:34.716Z</time>
      </trkpt>
      <trkpt lat="45.73713" lon="6.72848">
        <ele>2717</ele>
        <time>2026-07-29T09:16:35.716Z</time>
      </trkpt>
      <trkpt lat="45.73712" lon="6.72848">
        <ele>2717</ele>
        <time>2026-07-29T09:16:36.716Z</time>
      </trkpt>
      <trkpt lat="45.73711" lon="6.72849">
        <ele>2718</ele>
        <time>2026-07-29T09:16:37.716Z</time>
      </trkpt>
      <trkpt lat="45.7371" lon="6.72849">
        <ele>2718</ele>
        <time>2026-07-29T09:16:38.716Z</time>
      </trkpt>
      <trkpt lat="45.73709" lon="6.72849">
        <ele>2718</ele>
        <time>2026-07-29T09:16:39.716Z</time>
      </trkpt>
      <trkpt lat="45.73708" lon="6.72849">
        <ele>2718</ele>
        <time>2026-07-29T09:16:40.716Z</time>
      </trkpt>
      <trkpt lat="45.73707" lon="6.7285">
        <ele>2719</ele>
        <time>2026-07-29T09:16:41.716Z</time>
      </trkpt>
      <trkpt lat="45.73707" lon="6.7285">
        <ele>2719</ele>
        <time>2026-07-29T09:16:42.716Z</time>
      </trkpt>
      <trkpt lat="45.73707" lon="6.7285">
        <ele>2719</ele>
        <time>2026-07-29T09:16:43.716Z</time>
      </trkpt>
      <trkpt lat="45.73705" lon="6.72851">
        <ele>2719</ele>
        <time>2026-07-29T09:16:44.716Z</time>
      </trkpt>
      <trkpt lat="45.73704" lon="6.72851">
        <ele>2719</ele>
        <time>2026-07-29T09:16:45.716Z</time>
      </trkpt>
      <trkpt lat="45.73703" lon="6.72851">
        <ele>2719</ele>
        <time>2026-07-29T09:16:46.716Z</time>
      </trkpt>
      <trkpt lat="45.73702" lon="6.72851">
        <ele>2719</ele>
        <time>2026-07-29T09:16:47.716Z</time>
      </trkpt>
      <trkpt lat="45.73702" lon="6.72851">
        <ele>2719</ele>
        <time>2026-07-29T09:16:48.716Z</time>
      </trkpt>
      <trkpt lat="45.73701" lon="6.72851">
        <ele>2719</ele>
        <time>2026-07-29T09:16:49.716Z</time>
      </trkpt>
      <trkpt lat="45.73699" lon="6.72851">
        <ele>2719</ele>
        <time>2026-07-29T09:16:50.716Z</time>
      </trkpt>
      <trkpt lat="45.73699" lon="6.7285">
        <ele>2719</ele>
        <time>2026-07-29T09:16:51.716Z</time>
      </trkpt>
      <trkpt lat="45.73698" lon="6.7285">
        <ele>2719</ele>
        <time>2026-07-29T09:16:52.716Z</time>
      </trkpt>
      <trkpt lat="45.73698" lon="6.7285">
        <ele>2719</ele>
        <time>2026-07-29T09:16:53.716Z</time>
      </trkpt>
      <trkpt lat="45.73697" lon="6.7285">
        <ele>2720</ele>
        <time>2026-07-29T09:16:54.716Z</time>
      </trkpt>
      <trkpt lat="45.73696" lon="6.72851">
        <ele>2720</ele>
        <time>2026-07-29T09:16:55.716Z</time>
      </trkpt>
      <trkpt lat="45.73696" lon="6.72851">
        <ele>2720</ele>
        <time>2026-07-29T09:16:56.716Z</time>
      </trkpt>
      <trkpt lat="45.73695" lon="6.72851">
        <ele>2720</ele>
        <time>2026-07-29T09:16:57.716Z</time>
      </trkpt>
      <trkpt lat="45.73694" lon="6.72851">
        <ele>2721</ele>
        <time>2026-07-29T09:16:58.716Z</time>
      </trkpt>
      <trkpt lat="45.73692" lon="6.72851">
        <ele>2721</ele>
        <time>2026-07-29T09:16:59.716Z</time>
      </trkpt>
      <trkpt lat="45.73691" lon="6.72852">
        <ele>2721</ele>
        <time>2026-07-29T09:17:00.716Z</time>
      </trkpt>
      <trkpt lat="45.73691" lon="6.72852">
        <ele>2721</ele>
        <time>2026-07-29T09:17:01.716Z</time>
      </trkpt>
      <trkpt lat="45.73691" lon="6.72852">
        <ele>2721</ele>
        <time>2026-07-29T09:17:02.716Z</time>
      </trkpt>
      <trkpt lat="45.73689" lon="6.72852">
        <ele>2721</ele>
        <time>2026-07-29T09:17:03.716Z</time>
      </trkpt>
      <trkpt lat="45.73689" lon="6.72852">
        <ele>2721</ele>
        <time>2026-07-29T09:17:04.716Z</time>
      </trkpt>
      <trkpt lat="45.73688" lon="6.72852">
        <ele>2722</ele>
        <time>2026-07-29T09:17:05.716Z</time>
      </trkpt>
      <trkpt lat="45.73687" lon="6.72853">
        <ele>2722</ele>
        <time>2026-07-29T09:17:06.716Z</time>
      </trkpt>
      <trkpt lat="45.73686" lon="6.72853">
        <ele>2722</ele>
        <time>2026-07-29T09:17:07.716Z</time>
      </trkpt>
      <trkpt lat="45.73686" lon="6.72852">
        <ele>2722</ele>
        <time>2026-07-29T09:17:08.716Z</time>
      </trkpt>
      <trkpt lat="45.73686" lon="6.72852">
        <ele>2722</ele>
        <time>2026-07-29T09:17:09.716Z</time>
      </trkpt>
      <trkpt lat="45.73685" lon="6.7285">
        <ele>2722</ele>
        <time>2026-07-29T09:17:10.716Z</time>
      </trkpt>
      <trkpt lat="45.73685" lon="6.7285">
        <ele>2723</ele>
        <time>2026-07-29T09:17:11.716Z</time>
      </trkpt>
      <trkpt lat="45.73684" lon="6.72849">
        <ele>2723</ele>
        <time>2026-07-29T09:17:12.716Z</time>
      </trkpt>
      <trkpt lat="45.73684" lon="6.72849">
        <ele>2723</ele>
        <time>2026-07-29T09:17:13.716Z</time>
      </trkpt>
      <trkpt lat="45.73682" lon="6.72847">
        <ele>2724</ele>
        <time>2026-07-29T09:17:14.716Z</time>
      </trkpt>
      <trkpt lat="45.73682" lon="6.72847">
        <ele>2724</ele>
        <time>2026-07-29T09:17:15.716Z</time>
      </trkpt>
      <trkpt lat="45.73682" lon="6.72846">
        <ele>2724</ele>
        <time>2026-07-29T09:17:16.716Z</time>
      </trkpt>
      <trkpt lat="45.73681" lon="6.72844">
        <ele>2725</ele>
        <time>2026-07-29T09:17:17.716Z</time>
      </trkpt>
      <trkpt lat="45.7368" lon="6.72843">
        <ele>2725</ele>
        <time>2026-07-29T09:17:18.716Z</time>
      </trkpt>
      <trkpt lat="45.7368" lon="6.72843">
        <ele>2725</ele>
        <time>2026-07-29T09:17:19.716Z</time>
      </trkpt>
      <trkpt lat="45.73679" lon="6.7284">
        <ele>2726</ele>
        <time>2026-07-29T09:17:20.716Z</time>
      </trkpt>
      <trkpt lat="45.73679" lon="6.72839">
        <ele>2726</ele>
        <time>2026-07-29T09:17:21.716Z</time>
      </trkpt>
      <trkpt lat="45.73679" lon="6.72839">
        <ele>2726</ele>
        <time>2026-07-29T09:17:22.716Z</time>
      </trkpt>
      <trkpt lat="45.73678" lon="6.72837">
        <ele>2727</ele>
        <time>2026-07-29T09:17:23.716Z</time>
      </trkpt>
      <trkpt lat="45.73678" lon="6.72837">
        <ele>2727</ele>
        <time>2026-07-29T09:17:24.716Z</time>
      </trkpt>
      <trkpt lat="45.73678" lon="6.72837">
        <ele>2727</ele>
        <time>2026-07-29T09:17:25.716Z</time>
      </trkpt>
      <trkpt lat="45.73677" lon="6.72836">
        <ele>2727</ele>
        <time>2026-07-29T09:17:26.716Z</time>
      </trkpt>
      <trkpt lat="45.73677" lon="6.72836">
        <ele>2728</ele>
        <time>2026-07-29T09:17:27.716Z</time>
      </trkpt>
      <trkpt lat="45.73677" lon="6.72836">
        <ele>2728</ele>
        <time>2026-07-29T09:17:28.716Z</time>
      </trkpt>
      <trkpt lat="45.73678" lon="6.72836">
        <ele>2728</ele>
        <time>2026-07-29T09:17:29.716Z</time>
      </trkpt>
      <trkpt lat="45.73677" lon="6.72836">
        <ele>2728</ele>
        <time>2026-07-29T09:17:30.716Z</time>
      </trkpt>
      <trkpt lat="45.73677" lon="6.72836">
        <ele>2728</ele>
        <time>2026-07-29T09:17:31.716Z</time>
      </trkpt>
      <trkpt lat="45.73677" lon="6.72835">
        <ele>2728</ele>
        <time>2026-07-29T09:17:32.716Z</time>
      </trkpt>
      <trkpt lat="45.73677" lon="6.72835">
        <ele>2728</ele>
        <time>2026-07-29T09:17:33.716Z</time>
      </trkpt>
      <trkpt lat="45.73676" lon="6.72834">
        <ele>2728</ele>
        <time>2026-07-29T09:17:34.716Z</time>
      </trkpt>
      <trkpt lat="45.73677" lon="6.72833">
        <ele>2729</ele>
        <time>2026-07-29T09:17:35.716Z</time>
      </trkpt>
      <trkpt lat="45.73678" lon="6.72833">
        <ele>2729</ele>
        <time>2026-07-29T09:17:36.716Z</time>
      </trkpt>
      <trkpt lat="45.73678" lon="6.72833">
        <ele>2729</ele>
        <time>2026-07-29T09:17:37.716Z</time>
      </trkpt>
      <trkpt lat="45.73678" lon="6.72833">
        <ele>2729</ele>
        <time>2026-07-29T09:17:38.716Z</time>
      </trkpt>
      <trkpt lat="45.73681" lon="6.72833">
        <ele>2729</ele>
        <time>2026-07-29T09:17:39.716Z</time>
      </trkpt>
      <trkpt lat="45.73682" lon="6.72834">
        <ele>2729</ele>
        <time>2026-07-29T09:17:40.716Z</time>
      </trkpt>
      <trkpt lat="45.73682" lon="6.72834">
        <ele>2729</ele>
        <time>2026-07-29T09:17:41.716Z</time>
      </trkpt>
      <trkpt lat="45.73684" lon="6.72833">
        <ele>2730</ele>
        <time>2026-07-29T09:17:42.716Z</time>
      </trkpt>
      <trkpt lat="45.73685" lon="6.72833">
        <ele>2730</ele>
        <time>2026-07-29T09:17:43.716Z</time>
      </trkpt>
      <trkpt lat="45.73685" lon="6.72833">
        <ele>2730</ele>
        <time>2026-07-29T09:17:44.716Z</time>
      </trkpt>
      <trkpt lat="45.73687" lon="6.72833">
        <ele>2731</ele>
        <time>2026-07-29T09:17:45.716Z</time>
      </trkpt>
      <trkpt lat="45.73687" lon="6.72833">
        <ele>2731</ele>
        <time>2026-07-29T09:17:46.716Z</time>
      </trkpt>
      <trkpt lat="45.73689" lon="6.72833">
        <ele>2732</ele>
        <time>2026-07-29T09:17:47.716Z</time>
      </trkpt>
      <trkpt lat="45.73689" lon="6.72833">
        <ele>2732</ele>
        <time>2026-07-29T09:17:48.716Z</time>
      </trkpt>
      <trkpt lat="45.73689" lon="6.72833">
        <ele>2733</ele>
        <time>2026-07-29T09:17:49.716Z</time>
      </trkpt>
      <trkpt lat="45.73689" lon="6.72833">
        <ele>2733</ele>
        <time>2026-07-29T09:17:50.716Z</time>
      </trkpt>
      <trkpt lat="45.73689" lon="6.72833">
        <ele>2733</ele>
        <time>2026-07-29T09:17:51.716Z</time>
      </trkpt>
      <trkpt lat="45.73689" lon="6.72833">
        <ele>2734</ele>
        <time>2026-07-29T09:17:52.716Z</time>
      </trkpt>
      <trkpt lat="45.73689" lon="6.72833">
        <ele>2734</ele>
        <time>2026-07-29T09:17:53.716Z</time>
      </trkpt>
      <trkpt lat="45.73689" lon="6.72832">
        <ele>2735</ele>
        <time>2026-07-29T09:17:54.716Z</time>
      </trkpt>
      <trkpt lat="45.73689" lon="6.72832">
        <ele>2735</ele>
        <time>2026-07-29T09:17:55.716Z</time>
      </trkpt>
      <trkpt lat="45.73688" lon="6.72831">
        <ele>2735</ele>
        <time>2026-07-29T09:17:56.716Z</time>
      </trkpt>
      <trkpt lat="45.73688" lon="6.72828">
        <ele>2735</ele>
        <time>2026-07-29T09:17:57.716Z</time>
      </trkpt>
      <trkpt lat="45.73688" lon="6.72826">
        <ele>2735</ele>
        <time>2026-07-29T09:17:58.716Z</time>
      </trkpt>
      <trkpt lat="45.73687" lon="6.72825">
        <ele>2734</ele>
        <time>2026-07-29T09:17:59.716Z</time>
      </trkpt>
      <trkpt lat="45.73687" lon="6.72824">
        <ele>2734</ele>
        <time>2026-07-29T09:18:00.716Z</time>
      </trkpt>
      <trkpt lat="45.73687" lon="6.72824">
        <ele>2734</ele>
        <time>2026-07-29T09:18:01.716Z</time>
      </trkpt>
      <trkpt lat="45.73686" lon="6.72822">
        <ele>2734</ele>
        <time>2026-07-29T09:18:02.716Z</time>
      </trkpt>
      <trkpt lat="45.73685" lon="6.72821">
        <ele>2734</ele>
        <time>2026-07-29T09:18:03.716Z</time>
      </trkpt>
      <trkpt lat="45.73685" lon="6.72821">
        <ele>2734</ele>
        <time>2026-07-29T09:18:04.716Z</time>
      </trkpt>
      <trkpt lat="45.73684" lon="6.7282">
        <ele>2734</ele>
        <time>2026-07-29T09:18:05.716Z</time>
      </trkpt>
      <trkpt lat="45.73683" lon="6.72818">
        <ele>2734</ele>
        <time>2026-07-29T09:18:06.716Z</time>
      </trkpt>
      <trkpt lat="45.73683" lon="6.72817">
        <ele>2734</ele>
        <time>2026-07-29T09:18:07.716Z</time>
      </trkpt>
      <trkpt lat="45.73683" lon="6.72817">
        <ele>2734</ele>
        <time>2026-07-29T09:18:08.716Z</time>
      </trkpt>
      <trkpt lat="45.73682" lon="6.72816">
        <ele>2734</ele>
        <time>2026-07-29T09:18:09.716Z</time>
      </trkpt>
      <trkpt lat="45.73681" lon="6.72814">
        <ele>2734</ele>
        <time>2026-07-29T09:18:10.716Z</time>
      </trkpt>
      <trkpt lat="45.7368" lon="6.72812">
        <ele>2733</ele>
        <time>2026-07-29T09:18:11.716Z</time>
      </trkpt>
      <trkpt lat="45.73679" lon="6.7281">
        <ele>2734</ele>
        <time>2026-07-29T09:18:12.716Z</time>
      </trkpt>
      <trkpt lat="45.73679" lon="6.7281">
        <ele>2734</ele>
        <time>2026-07-29T09:18:13.716Z</time>
      </trkpt>
      <trkpt lat="45.73678" lon="6.72809">
        <ele>2734</ele>
        <time>2026-07-29T09:18:14.716Z</time>
      </trkpt>
      <trkpt lat="45.73676" lon="6.72805">
        <ele>2735</ele>
        <time>2026-07-29T09:18:15.716Z</time>
      </trkpt>
      <trkpt lat="45.73675" lon="6.72802">
        <ele>2736</ele>
        <time>2026-07-29T09:18:16.716Z</time>
      </trkpt>
      <trkpt lat="45.73674" lon="6.728">
        <ele>2736</ele>
        <time>2026-07-29T09:18:17.716Z</time>
      </trkpt>
      <trkpt lat="45.73674" lon="6.72799">
        <ele>2737</ele>
        <time>2026-07-29T09:18:18.716Z</time>
      </trkpt>
      <trkpt lat="45.73674" lon="6.72799">
        <ele>2737</ele>
        <time>2026-07-29T09:18:19.716Z</time>
      </trkpt>
      <trkpt lat="45.73674" lon="6.72797">
        <ele>2737</ele>
        <time>2026-07-29T09:18:20.716Z</time>
      </trkpt>
      <trkpt lat="45.73673" lon="6.72796">
        <ele>2737</ele>
        <time>2026-07-29T09:18:21.716Z</time>
      </trkpt>
      <trkpt lat="45.73672" lon="6.72795">
        <ele>2736</ele>
        <time>2026-07-29T09:18:22.716Z</time>
      </trkpt>
      <trkpt lat="45.73672" lon="6.72794">
        <ele>2736</ele>
        <time>2026-07-29T09:18:23.716Z</time>
      </trkpt>
      <trkpt lat="45.73671" lon="6.72792">
        <ele>2736</ele>
        <time>2026-07-29T09:18:24.716Z</time>
      </trkpt>
      <trkpt lat="45.73671" lon="6.72792">
        <ele>2736</ele>
        <time>2026-07-29T09:18:25.716Z</time>
      </trkpt>
      <trkpt lat="45.73669" lon="6.72789">
        <ele>2736</ele>
        <time>2026-07-29T09:18:26.716Z</time>
      </trkpt>
      <trkpt lat="45.73669" lon="6.72788">
        <ele>2736</ele>
        <time>2026-07-29T09:18:27.716Z</time>
      </trkpt>
      <trkpt lat="45.73668" lon="6.72787">
        <ele>2736</ele>
        <time>2026-07-29T09:18:28.716Z</time>
      </trkpt>
      <trkpt lat="45.73668" lon="6.72786">
        <ele>2736</ele>
        <time>2026-07-29T09:18:29.716Z</time>
      </trkpt>
      <trkpt lat="45.73668" lon="6.72786">
        <ele>2736</ele>
        <time>2026-07-29T09:18:30.716Z</time>
      </trkpt>
      <trkpt lat="45.73667" lon="6.72785">
        <ele>2737</ele>
        <time>2026-07-29T09:18:31.716Z</time>
      </trkpt>
      <trkpt lat="45.73666" lon="6.72783">
        <ele>2737</ele>
        <time>2026-07-29T09:18:32.716Z</time>
      </trkpt>
      <trkpt lat="45.73666" lon="6.72783">
        <ele>2737</ele>
        <time>2026-07-29T09:18:33.716Z</time>
      </trkpt>
      <trkpt lat="45.73666" lon="6.72783">
        <ele>2737</ele>
        <time>2026-07-29T09:18:34.716Z</time>
      </trkpt>
      <trkpt lat="45.73665" lon="6.72781">
        <ele>2738</ele>
        <time>2026-07-29T09:18:35.716Z</time>
      </trkpt>
      <trkpt lat="45.73665" lon="6.72781">
        <ele>2738</ele>
        <time>2026-07-29T09:18:36.716Z</time>
      </trkpt>
      <trkpt lat="45.73664" lon="6.7278">
        <ele>2738</ele>
        <time>2026-07-29T09:18:37.716Z</time>
      </trkpt>
      <trkpt lat="45.73664" lon="6.72778">
        <ele>2738</ele>
        <time>2026-07-29T09:18:38.716Z</time>
      </trkpt>
      <trkpt lat="45.73664" lon="6.72777">
        <ele>2738</ele>
        <time>2026-07-29T09:18:39.716Z</time>
      </trkpt>
      <trkpt lat="45.73664" lon="6.72777">
        <ele>2738</ele>
        <time>2026-07-29T09:18:40.716Z</time>
      </trkpt>
      <trkpt lat="45.73664" lon="6.72777">
        <ele>2739</ele>
        <time>2026-07-29T09:18:41.716Z</time>
      </trkpt>
      <trkpt lat="45.73663" lon="6.72776">
        <ele>2739</ele>
        <time>2026-07-29T09:18:42.716Z</time>
      </trkpt>
      <trkpt lat="45.73663" lon="6.72776">
        <ele>2739</ele>
        <time>2026-07-29T09:18:43.716Z</time>
      </trkpt>
      <trkpt lat="45.73663" lon="6.72775">
        <ele>2739</ele>
        <time>2026-07-29T09:18:44.716Z</time>
      </trkpt>
      <trkpt lat="45.73663" lon="6.72775">
        <ele>2739</ele>
        <time>2026-07-29T09:18:45.716Z</time>
      </trkpt>
      <trkpt lat="45.73663" lon="6.72776">
        <ele>2739</ele>
        <time>2026-07-29T09:18:46.716Z</time>
      </trkpt>
      <trkpt lat="45.73663" lon="6.72775">
        <ele>2739</ele>
        <time>2026-07-29T09:18:47.716Z</time>
      </trkpt>
      <trkpt lat="45.73664" lon="6.72775">
        <ele>2739</ele>
        <time>2026-07-29T09:18:48.716Z</time>
      </trkpt>
      <trkpt lat="45.73664" lon="6.72775">
        <ele>2739</ele>
        <time>2026-07-29T09:18:49.716Z</time>
      </trkpt>
      <trkpt lat="45.73664" lon="6.72775">
        <ele>2739</ele>
        <time>2026-07-29T09:18:50.716Z</time>
      </trkpt>
      <trkpt lat="45.73664" lon="6.72775">
        <ele>2739</ele>
        <time>2026-07-29T09:18:51.716Z</time>
      </trkpt>
      <trkpt lat="45.73664" lon="6.72774">
        <ele>2739</ele>
        <time>2026-07-29T09:18:52.716Z</time>
      </trkpt>
      <trkpt lat="45.73664" lon="6.72774">
        <ele>2739</ele>
        <time>2026-07-29T09:18:53.716Z</time>
      </trkpt>
      <trkpt lat="45.73664" lon="6.72774">
        <ele>2739</ele>
        <time>2026-07-29T09:18:54.716Z</time>
      </trkpt>
      <trkpt lat="45.73665" lon="6.72774">
        <ele>2739</ele>
        <time>2026-07-29T09:18:55.716Z</time>
      </trkpt>
      <trkpt lat="45.73666" lon="6.72774">
        <ele>2740</ele>
        <time>2026-07-29T09:18:56.716Z</time>
      </trkpt>
      <trkpt lat="45.73666" lon="6.72774">
        <ele>2740</ele>
        <time>2026-07-29T09:18:57.716Z</time>
      </trkpt>
      <trkpt lat="45.73666" lon="6.72774">
        <ele>2740</ele>
        <time>2026-07-29T09:18:58.716Z</time>
      </trkpt>
      <trkpt lat="45.73666" lon="6.72774">
        <ele>2741</ele>
        <time>2026-07-29T09:18:59.716Z</time>
      </trkpt>
      <trkpt lat="45.73667" lon="6.72773">
        <ele>2742</ele>
        <time>2026-07-29T09:19:00.716Z</time>
      </trkpt>
      <trkpt lat="45.73667" lon="6.72773">
        <ele>2742</ele>
        <time>2026-07-29T09:19:01.716Z</time>
      </trkpt>
      <trkpt lat="45.73667" lon="6.72773">
        <ele>2742</ele>
        <time>2026-07-29T09:19:02.716Z</time>
      </trkpt>
      <trkpt lat="45.73667" lon="6.72772">
        <ele>2742</ele>
        <time>2026-07-29T09:19:03.716Z</time>
      </trkpt>
      <trkpt lat="45.73666" lon="6.72771">
        <ele>2742</ele>
        <time>2026-07-29T09:19:04.716Z</time>
      </trkpt>
      <trkpt lat="45.73666" lon="6.7277">
        <ele>2742</ele>
        <time>2026-07-29T09:19:05.716Z</time>
      </trkpt>
      <trkpt lat="45.73666" lon="6.7277">
        <ele>2742</ele>
        <time>2026-07-29T09:19:06.716Z</time>
      </trkpt>
      <trkpt lat="45.73666" lon="6.72769">
        <ele>2742</ele>
        <time>2026-07-29T09:19:07.716Z</time>
      </trkpt>
      <trkpt lat="45.73666" lon="6.72768">
        <ele>2743</ele>
        <time>2026-07-29T09:19:08.716Z</time>
      </trkpt>
      <trkpt lat="45.73666" lon="6.72767">
        <ele>2743</ele>
        <time>2026-07-29T09:19:09.716Z</time>
      </trkpt>
      <trkpt lat="45.73666" lon="6.72765">
        <ele>2744</ele>
        <time>2026-07-29T09:19:10.716Z</time>
      </trkpt>
      <trkpt lat="45.73666" lon="6.72765">
        <ele>2744</ele>
        <time>2026-07-29T09:19:11.716Z</time>
      </trkpt>
      <trkpt lat="45.73666" lon="6.72764">
        <ele>2744</ele>
        <time>2026-07-29T09:19:12.716Z</time>
      </trkpt>
      <trkpt lat="45.73666" lon="6.72763">
        <ele>2744</ele>
        <time>2026-07-29T09:19:13.716Z</time>
      </trkpt>
      <trkpt lat="45.73666" lon="6.72763">
        <ele>2745</ele>
        <time>2026-07-29T09:19:14.716Z</time>
      </trkpt>
      <trkpt lat="45.73666" lon="6.72763">
        <ele>2745</ele>
        <time>2026-07-29T09:19:15.716Z</time>
      </trkpt>
      <trkpt lat="45.73667" lon="6.72764">
        <ele>2745</ele>
        <time>2026-07-29T09:19:16.716Z</time>
      </trkpt>
      <trkpt lat="45.73668" lon="6.72765">
        <ele>2745</ele>
        <time>2026-07-29T09:19:17.716Z</time>
      </trkpt>
      <trkpt lat="45.73669" lon="6.72765">
        <ele>2745</ele>
        <time>2026-07-29T09:19:18.716Z</time>
      </trkpt>
      <trkpt lat="45.7367" lon="6.72766">
        <ele>2746</ele>
        <time>2026-07-29T09:19:19.716Z</time>
      </trkpt>
      <trkpt lat="45.7367" lon="6.72766">
        <ele>2746</ele>
        <time>2026-07-29T09:19:20.716Z</time>
      </trkpt>
      <trkpt lat="45.73672" lon="6.72767">
        <ele>2746</ele>
        <time>2026-07-29T09:19:21.716Z</time>
      </trkpt>
      <trkpt lat="45.73672" lon="6.72768">
        <ele>2746</ele>
        <time>2026-07-29T09:19:22.716Z</time>
      </trkpt>
      <trkpt lat="45.73672" lon="6.72768">
        <ele>2746</ele>
        <time>2026-07-29T09:19:23.716Z</time>
      </trkpt>
      <trkpt lat="45.73672" lon="6.72769">
        <ele>2746</ele>
        <time>2026-07-29T09:19:24.716Z</time>
      </trkpt>
      <trkpt lat="45.73673" lon="6.72769">
        <ele>2747</ele>
        <time>2026-07-29T09:19:25.716Z</time>
      </trkpt>
      <trkpt lat="45.73673" lon="6.72769">
        <ele>2747</ele>
        <time>2026-07-29T09:19:26.716Z</time>
      </trkpt>
      <trkpt lat="45.73674" lon="6.72769">
        <ele>2747</ele>
        <time>2026-07-29T09:19:27.716Z</time>
      </trkpt>
      <trkpt lat="45.73675" lon="6.72768">
        <ele>2748</ele>
        <time>2026-07-29T09:19:28.716Z</time>
      </trkpt>
      <trkpt lat="45.73675" lon="6.72768">
        <ele>2748</ele>
        <time>2026-07-29T09:19:29.716Z</time>
      </trkpt>
      <trkpt lat="45.73677" lon="6.72768">
        <ele>2749</ele>
        <time>2026-07-29T09:19:30.716Z</time>
      </trkpt>
      <trkpt lat="45.73677" lon="6.72768">
        <ele>2749</ele>
        <time>2026-07-29T09:19:31.716Z</time>
      </trkpt>
      <trkpt lat="45.73678" lon="6.72768">
        <ele>2749</ele>
        <time>2026-07-29T09:19:32.716Z</time>
      </trkpt>
      <trkpt lat="45.73681" lon="6.72771">
        <ele>2750</ele>
        <time>2026-07-29T09:19:33.716Z</time>
      </trkpt>
      <trkpt lat="45.73682" lon="6.72772">
        <ele>2750</ele>
        <time>2026-07-29T09:19:34.716Z</time>
      </trkpt>
      <trkpt lat="45.73682" lon="6.72772">
        <ele>2750</ele>
        <time>2026-07-29T09:19:35.716Z</time>
      </trkpt>
      <trkpt lat="45.73683" lon="6.72773">
        <ele>2751</ele>
        <time>2026-07-29T09:19:36.716Z</time>
      </trkpt>
      <trkpt lat="45.73683" lon="6.72774">
        <ele>2751</ele>
        <time>2026-07-29T09:19:37.716Z</time>
      </trkpt>
      <trkpt lat="45.73684" lon="6.72774">
        <ele>2751</ele>
        <time>2026-07-29T09:19:38.716Z</time>
      </trkpt>
      <trkpt lat="45.73684" lon="6.72774">
        <ele>2751</ele>
        <time>2026-07-29T09:19:39.716Z</time>
      </trkpt>
      <trkpt lat="45.73684" lon="6.72774">
        <ele>2752</ele>
        <time>2026-07-29T09:19:40.716Z</time>
      </trkpt>
      <trkpt lat="45.73684" lon="6.72774">
        <ele>2752</ele>
        <time>2026-07-29T09:19:41.716Z</time>
      </trkpt>
      <trkpt lat="45.73684" lon="6.72774">
        <ele>2752</ele>
        <time>2026-07-29T09:19:42.716Z</time>
      </trkpt>
      <trkpt lat="45.73684" lon="6.72773">
        <ele>2752</ele>
        <time>2026-07-29T09:19:43.716Z</time>
      </trkpt>
      <trkpt lat="45.73683" lon="6.72774">
        <ele>2753</ele>
        <time>2026-07-29T09:19:44.716Z</time>
      </trkpt>
      <trkpt lat="45.73683" lon="6.72774">
        <ele>2753</ele>
        <time>2026-07-29T09:19:45.716Z</time>
      </trkpt>
      <trkpt lat="45.73684" lon="6.72774">
        <ele>2753</ele>
        <time>2026-07-29T09:19:46.716Z</time>
      </trkpt>
      <trkpt lat="45.73684" lon="6.72774">
        <ele>2753</ele>
        <time>2026-07-29T09:19:47.716Z</time>
      </trkpt>
      <trkpt lat="45.73684" lon="6.72775">
        <ele>2753</ele>
        <time>2026-07-29T09:19:48.716Z</time>
      </trkpt>
      <trkpt lat="45.73684" lon="6.72775">
        <ele>2753</ele>
        <time>2026-07-29T09:19:49.716Z</time>
      </trkpt>
      <trkpt lat="45.73684" lon="6.72775">
        <ele>2753</ele>
        <time>2026-07-29T09:19:50.716Z</time>
      </trkpt>
      <trkpt lat="45.73684" lon="6.72775">
        <ele>2753</ele>
        <time>2026-07-29T09:19:51.716Z</time>
      </trkpt>
      <trkpt lat="45.73684" lon="6.72775">
        <ele>2753</ele>
        <time>2026-07-29T09:19:52.716Z</time>
      </trkpt>
      <trkpt lat="45.73683" lon="6.72775">
        <ele>2754</ele>
        <time>2026-07-29T09:19:53.716Z</time>
      </trkpt>
      <trkpt lat="45.73683" lon="6.72775">
        <ele>2755</ele>
        <time>2026-07-29T09:19:54.716Z</time>
      </trkpt>
      <trkpt lat="45.73683" lon="6.72775">
        <ele>2755</ele>
        <time>2026-07-29T09:19:55.716Z</time>
      </trkpt>
      <trkpt lat="45.73683" lon="6.72775">
        <ele>2756</ele>
        <time>2026-07-29T09:19:56.716Z</time>
      </trkpt>
      <trkpt lat="45.73683" lon="6.72775">
        <ele>2756</ele>
        <time>2026-07-29T09:19:57.716Z</time>
      </trkpt>
      <trkpt lat="45.73683" lon="6.72775">
        <ele>2756</ele>
        <time>2026-07-29T09:19:58.716Z</time>
      </trkpt>
      <trkpt lat="45.73683" lon="6.72775">
        <ele>2757</ele>
        <time>2026-07-29T09:19:59.716Z</time>
      </trkpt>
      <trkpt lat="45.73683" lon="6.72775">
        <ele>2757</ele>
        <time>2026-07-29T09:20:00.716Z</time>
      </trkpt>
      <trkpt lat="45.73683" lon="6.72775">
        <ele>2757</ele>
        <time>2026-07-29T09:20:01.716Z</time>
      </trkpt>
      <trkpt lat="45.73683" lon="6.72775">
        <ele>2757</ele>
        <time>2026-07-29T09:20:02.716Z</time>
      </trkpt>
      <trkpt lat="45.73683" lon="6.72775">
        <ele>2757</ele>
        <time>2026-07-29T09:20:03.716Z</time>
      </trkpt>
      <trkpt lat="45.73683" lon="6.72775">
        <ele>2757</ele>
        <time>2026-07-29T09:20:04.716Z</time>
      </trkpt>
      <trkpt lat="45.73683" lon="6.72775">
        <ele>2757</ele>
        <time>2026-07-29T09:20:05.716Z</time>
      </trkpt>
      <trkpt lat="45.73683" lon="6.72775">
        <ele>2757</ele>
        <time>2026-07-29T09:20:06.716Z</time>
      </trkpt>
      <trkpt lat="45.73683" lon="6.72775">
        <ele>2757</ele>
        <time>2026-07-29T09:20:07.716Z</time>
      </trkpt>
      <trkpt lat="45.73683" lon="6.72775">
        <ele>2758</ele>
        <time>2026-07-29T09:20:08.716Z</time>
      </trkpt>
      <trkpt lat="45.73683" lon="6.72775">
        <ele>2758</ele>
        <time>2026-07-29T09:20:09.716Z</time>
      </trkpt>
      <trkpt lat="45.73683" lon="6.72775">
        <ele>2758</ele>
        <time>2026-07-29T09:20:10.716Z</time>
      </trkpt>
      <trkpt lat="45.73684" lon="6.72775">
        <ele>2758</ele>
        <time>2026-07-29T09:20:11.716Z</time>
      </trkpt>
      <trkpt lat="45.73684" lon="6.72775">
        <ele>2758</ele>
        <time>2026-07-29T09:20:12.716Z</time>
      </trkpt>
      <trkpt lat="45.73684" lon="6.72775">
        <ele>2758</ele>
        <time>2026-07-29T09:20:13.716Z</time>
      </trkpt>
      <trkpt lat="45.73684" lon="6.72775">
        <ele>2758</ele>
        <time>2026-07-29T09:20:14.716Z</time>
      </trkpt>
      <trkpt lat="45.73684" lon="6.72775">
        <ele>2758</ele>
        <time>2026-07-29T09:20:15.716Z</time>
      </trkpt>
      <trkpt lat="45.73684" lon="6.72775">
        <ele>2758</ele>
        <time>2026-07-29T09:20:16.716Z</time>
      </trkpt>
      <trkpt lat="45.73684" lon="6.72775">
        <ele>2758</ele>
        <time>2026-07-29T09:20:17.716Z</time>
      </trkpt>
      <trkpt lat="45.73684" lon="6.72775">
        <ele>2758</ele>
        <time>2026-07-29T09:20:18.716Z</time>
      </trkpt>
      <trkpt lat="45.73684" lon="6.72775">
        <ele>2758</ele>
        <time>2026-07-29T09:20:19.716Z</time>
      </trkpt>
      <trkpt lat="45.73684" lon="6.72775">
        <ele>2758</ele>
        <time>2026-07-29T09:20:20.716Z</time>
      </trkpt>
      <trkpt lat="45.73684" lon="6.72775">
        <ele>2758</ele>
        <time>2026-07-29T09:20:21.716Z</time>
      </trkpt>
      <trkpt lat="45.73684" lon="6.72775">
        <ele>2758</ele>
        <time>2026-07-29T09:20:22.716Z</time>
      </trkpt>
      <trkpt lat="45.73684" lon="6.72775">
        <ele>2758</ele>
        <time>2026-07-29T09:20:23.716Z</time>
      </trkpt>
      <trkpt lat="45.73684" lon="6.72775">
        <ele>2758</ele>
        <time>2026-07-29T09:20:24.716Z</time>
      </trkpt>
      <trkpt lat="45.73684" lon="6.72775">
        <ele>2758</ele>
        <time>2026-07-29T09:20:25.716Z</time>
      </trkpt>
      <trkpt lat="45.73684" lon="6.72775">
        <ele>2758</ele>
        <time>2026-07-29T09:20:26.716Z</time>
      </trkpt>
      <trkpt lat="45.73684" lon="6.72775">
        <ele>2758</ele>
        <time>2026-07-29T09:20:27.716Z</time>
      </trkpt>
      <trkpt lat="45.73684" lon="6.72775">
        <ele>2758</ele>
        <time>2026-07-29T09:20:28.716Z</time>
      </trkpt>
      <trkpt lat="45.73684" lon="6.72775">
        <ele>2758</ele>
        <time>2026-07-29T09:20:29.716Z</time>
      </trkpt>
      <trkpt lat="45.73684" lon="6.72775">
        <ele>2758</ele>
        <time>2026-07-29T09:20:30.716Z</time>
      </trkpt>
      <trkpt lat="45.73684" lon="6.72775">
        <ele>2758</ele>
        <time>2026-07-29T09:20:31.716Z</time>
      </trkpt>
      <trkpt lat="45.73684" lon="6.72775">
        <ele>2758</ele>
        <time>2026-07-29T09:20:32.716Z</time>
      </trkpt>
      <trkpt lat="45.73684" lon="6.72775">
        <ele>2758</ele>
        <time>2026-07-29T09:20:33.716Z</time>
      </trkpt>
      <trkpt lat="45.73684" lon="6.72775">
        <ele>2758</ele>
        <time>2026-07-29T09:20:34.716Z</time>
      </trkpt>
      <trkpt lat="45.73684" lon="6.72775">
        <ele>2757</ele>
        <time>2026-07-29T09:20:35.716Z</time>
      </trkpt>
      <trkpt lat="45.73684" lon="6.72775">
        <ele>2757</ele>
        <time>2026-07-29T09:20:36.716Z</time>
      </trkpt>
      <trkpt lat="45.73684" lon="6.72775">
        <ele>2757</ele>
        <time>2026-07-29T09:20:37.716Z</time>
      </trkpt>
      <trkpt lat="45.73684" lon="6.72775">
        <ele>2757</ele>
        <time>2026-07-29T09:20:38.716Z</time>
      </trkpt>
      <trkpt lat="45.73684" lon="6.72775">
        <ele>2757</ele>
        <time>2026-07-29T09:20:39.716Z</time>
      </trkpt>
      <trkpt lat="45.73684" lon="6.72775">
        <ele>2757</ele>
        <time>2026-07-29T09:20:40.716Z</time>
      </trkpt>
      <trkpt lat="45.73684" lon="6.72775">
        <ele>2757</ele>
        <time>2026-07-29T09:20:41.716Z</time>
      </trkpt>
      <trkpt lat="45.73685" lon="6.72775">
        <ele>2757</ele>
        <time>2026-07-29T09:20:42.716Z</time>
      </trkpt>
      <trkpt lat="45.73685" lon="6.72775">
        <ele>2757</ele>
        <time>2026-07-29T09:20:43.716Z</time>
      </trkpt>
      <trkpt lat="45.73685" lon="6.72775">
        <ele>2757</ele>
        <time>2026-07-29T09:20:44.716Z</time>
      </trkpt>
      <trkpt lat="45.73685" lon="6.72775">
        <ele>2757</ele>
        <time>2026-07-29T09:20:45.716Z</time>
      </trkpt>
      <trkpt lat="45.73685" lon="6.72775">
        <ele>2757</ele>
        <time>2026-07-29T09:20:46.716Z</time>
      </trkpt>
      <trkpt lat="45.73685" lon="6.72775">
        <ele>2757</ele>
        <time>2026-07-29T09:20:47.716Z</time>
      </trkpt>
      <trkpt lat="45.73685" lon="6.72775">
        <ele>2757</ele>
        <time>2026-07-29T09:20:48.716Z</time>
      </trkpt>
      <trkpt lat="45.73685" lon="6.72775">
        <ele>2757</ele>
        <time>2026-07-29T09:20:49.716Z</time>
      </trkpt>
      <trkpt lat="45.73685" lon="6.72775">
        <ele>2757</ele>
        <time>2026-07-29T09:20:50.716Z</time>
      </trkpt>
      <trkpt lat="45.73685" lon="6.72775">
        <ele>2757</ele>
        <time>2026-07-29T09:20:51.716Z</time>
      </trkpt>
      <trkpt lat="45.73685" lon="6.72775">
        <ele>2757</ele>
        <time>2026-07-29T09:20:52.716Z</time>
      </trkpt>
      <trkpt lat="45.73685" lon="6.72775">
        <ele>2757</ele>
        <time>2026-07-29T09:20:53.716Z</time>
      </trkpt>
      <trkpt lat="45.73685" lon="6.72775">
        <ele>2757</ele>
        <time>2026-07-29T09:20:54.716Z</time>
      </trkpt>
      <trkpt lat="45.73685" lon="6.72775">
        <ele>2757</ele>
        <time>2026-07-29T09:20:55.716Z</time>
      </trkpt>
      <trkpt lat="45.73685" lon="6.72775">
        <ele>2757</ele>
        <time>2026-07-29T09:20:56.716Z</time>
      </trkpt>
      <trkpt lat="45.73685" lon="6.72775">
        <ele>2757</ele>
        <time>2026-07-29T09:20:57.716Z</time>
      </trkpt>
      <trkpt lat="45.73685" lon="6.72775">
        <ele>2757</ele>
        <time>2026-07-29T09:20:58.716Z</time>
      </trkpt>
      <trkpt lat="45.73685" lon="6.72775">
        <ele>2757</ele>
        <time>2026-07-29T09:20:59.716Z</time>
      </trkpt>
      <trkpt lat="45.73685" lon="6.72775">
        <ele>2757</ele>
        <time>2026-07-29T09:21:00.716Z</time>
      </trkpt>
      <trkpt lat="45.73685" lon="6.72775">
        <ele>2757</ele>
        <time>2026-07-29T09:21:01.716Z</time>
      </trkpt>
      <trkpt lat="45.73685" lon="6.72775">
        <ele>2757</ele>
        <time>2026-07-29T09:21:02.716Z</time>
      </trkpt>
      <trkpt lat="45.73685" lon="6.72775">
        <ele>2757</ele>
        <time>2026-07-29T09:21:03.716Z</time>
      </trkpt>
      <trkpt lat="45.73685" lon="6.72775">
        <ele>2757</ele>
        <time>2026-07-29T09:21:04.716Z</time>
      </trkpt>
      <trkpt lat="45.73685" lon="6.72775">
        <ele>2757</ele>
        <time>2026-07-29T09:21:05.716Z</time>
      </trkpt>
      <trkpt lat="45.73685" lon="6.72775">
        <ele>2757</ele>
        <time>2026-07-29T09:21:06.716Z</time>
      </trkpt>
      <trkpt lat="45.73685" lon="6.72775">
        <ele>2757</ele>
        <time>2026-07-29T09:21:07.716Z</time>
      </trkpt>
      <trkpt lat="45.73685" lon="6.72775">
        <ele>2757</ele>
        <time>2026-07-29T09:21:08.716Z</time>
      </trkpt>
      <trkpt lat="45.73685" lon="6.72775">
        <ele>2757</ele>
        <time>2026-07-29T09:21:09.716Z</time>
      </trkpt>
      <trkpt lat="45.73685" lon="6.72775">
        <ele>2757</ele>
        <time>2026-07-29T09:21:10.716Z</time>
      </trkpt>
      <trkpt lat="45.73685" lon="6.72775">
        <ele>2757</ele>
        <time>2026-07-29T09:21:11.716Z</time>
      </trkpt>
      <trkpt lat="45.73685" lon="6.72775">
        <ele>2757</ele>
        <time>2026-07-29T09:21:12.716Z</time>
      </trkpt>
      <trkpt lat="45.73685" lon="6.72775">
        <ele>2757</ele>
        <time>2026-07-29T09:21:13.716Z</time>
      </trkpt>
      <trkpt lat="45.73685" lon="6.72775">
        <ele>2757</ele>
        <time>2026-07-29T09:21:14.716Z</time>
      </trkpt>
      <trkpt lat="45.73685" lon="6.72775">
        <ele>2757</ele>
        <time>2026-07-29T09:21:15.716Z</time>
      </trkpt>
      <trkpt lat="45.73685" lon="6.72775">
        <ele>2757</ele>
        <time>2026-07-29T09:21:16.716Z</time>
      </trkpt>
      <trkpt lat="45.73685" lon="6.72775">
        <ele>2757</ele>
        <time>2026-07-29T09:21:17.716Z</time>
      </trkpt>
      <trkpt lat="45.73685" lon="6.72775">
        <ele>2757</ele>
        <time>2026-07-29T09:21:18.716Z</time>
      </trkpt>
      <trkpt lat="45.73683" lon="6.72772">
        <ele>2757</ele>
        <time>2026-07-29T09:21:19.716Z</time>
      </trkpt>
      <trkpt lat="45.73683" lon="6.72772">
        <ele>2757</ele>
        <time>2026-07-29T09:21:20.716Z</time>
      </trkpt>
      <trkpt lat="45.73682" lon="6.72769">
        <ele>2757</ele>
        <time>2026-07-29T09:21:21.716Z</time>
      </trkpt>
      <trkpt lat="45.7368" lon="6.72767">
        <ele>2757</ele>
        <time>2026-07-29T09:21:22.716Z</time>
      </trkpt>
      <trkpt lat="45.73678" lon="6.72761">
        <ele>2756</ele>
        <time>2026-07-29T09:21:23.716Z</time>
      </trkpt>
      <trkpt lat="45.73676" lon="6.72759">
        <ele>2756</ele>
        <time>2026-07-29T09:21:24.716Z</time>
      </trkpt>
      <trkpt lat="45.73676" lon="6.72759">
        <ele>2756</ele>
        <time>2026-07-29T09:21:25.716Z</time>
      </trkpt>
      <trkpt lat="45.73673" lon="6.72754">
        <ele>2755</ele>
        <time>2026-07-29T09:21:26.716Z</time>
      </trkpt>
      <trkpt lat="45.73671" lon="6.72751">
        <ele>2755</ele>
        <time>2026-07-29T09:21:27.716Z</time>
      </trkpt>
      <trkpt lat="45.7367" lon="6.72749">
        <ele>2755</ele>
        <time>2026-07-29T09:21:28.716Z</time>
      </trkpt>
      <trkpt lat="45.7367" lon="6.72749">
        <ele>2755</ele>
        <time>2026-07-29T09:21:29.716Z</time>
      </trkpt>
      <trkpt lat="45.73669" lon="6.72747">
        <ele>2755</ele>
        <time>2026-07-29T09:21:30.716Z</time>
      </trkpt>
      <trkpt lat="45.73666" lon="6.72744">
        <ele>2755</ele>
        <time>2026-07-29T09:21:31.716Z</time>
      </trkpt>
      <trkpt lat="45.73664" lon="6.72742">
        <ele>2754</ele>
        <time>2026-07-29T09:21:32.716Z</time>
      </trkpt>
      <trkpt lat="45.73664" lon="6.72742">
        <ele>2754</ele>
        <time>2026-07-29T09:21:33.716Z</time>
      </trkpt>
      <trkpt lat="45.73663" lon="6.7274">
        <ele>2754</ele>
        <time>2026-07-29T09:21:34.716Z</time>
      </trkpt>
      <trkpt lat="45.73661" lon="6.72738">
        <ele>2754</ele>
        <time>2026-07-29T09:21:35.716Z</time>
      </trkpt>
      <trkpt lat="45.7366" lon="6.72736">
        <ele>2754</ele>
        <time>2026-07-29T09:21:36.716Z</time>
      </trkpt>
      <trkpt lat="45.73657" lon="6.72731">
        <ele>2753</ele>
        <time>2026-07-29T09:21:37.716Z</time>
      </trkpt>
      <trkpt lat="45.73657" lon="6.72731">
        <ele>2753</ele>
        <time>2026-07-29T09:21:38.716Z</time>
      </trkpt>
      <trkpt lat="45.73655" lon="6.72729">
        <ele>2753</ele>
        <time>2026-07-29T09:21:39.716Z</time>
      </trkpt>
      <trkpt lat="45.73653" lon="6.72724">
        <ele>2752</ele>
        <time>2026-07-29T09:21:40.716Z</time>
      </trkpt>
      <trkpt lat="45.73651" lon="6.72722">
        <ele>2752</ele>
        <time>2026-07-29T09:21:41.716Z</time>
      </trkpt>
      <trkpt lat="45.73651" lon="6.72722">
        <ele>2752</ele>
        <time>2026-07-29T09:21:42.716Z</time>
      </trkpt>
      <trkpt lat="45.7365" lon="6.7272">
        <ele>2751</ele>
        <time>2026-07-29T09:21:43.716Z</time>
      </trkpt>
      <trkpt lat="45.73647" lon="6.72716">
        <ele>2750</ele>
        <time>2026-07-29T09:21:44.716Z</time>
      </trkpt>
      <trkpt lat="45.73647" lon="6.72716">
        <ele>2750</ele>
        <time>2026-07-29T09:21:45.716Z</time>
      </trkpt>
      <trkpt lat="45.73645" lon="6.72714">
        <ele>2750</ele>
        <time>2026-07-29T09:21:46.716Z</time>
      </trkpt>
      <trkpt lat="45.73644" lon="6.72712">
        <ele>2750</ele>
        <time>2026-07-29T09:21:47.716Z</time>
      </trkpt>
      <trkpt lat="45.73641" lon="6.72708">
        <ele>2750</ele>
        <time>2026-07-29T09:21:48.716Z</time>
      </trkpt>
      <trkpt lat="45.7364" lon="6.72706">
        <ele>2750</ele>
        <time>2026-07-29T09:21:49.716Z</time>
      </trkpt>
      <trkpt lat="45.73639" lon="6.72704">
        <ele>2750</ele>
        <time>2026-07-29T09:21:50.716Z</time>
      </trkpt>
      <trkpt lat="45.73638" lon="6.72702">
        <ele>2749</ele>
        <time>2026-07-29T09:21:51.716Z</time>
      </trkpt>
      <trkpt lat="45.73636" lon="6.727">
        <ele>2749</ele>
        <time>2026-07-29T09:21:52.716Z</time>
      </trkpt>
      <trkpt lat="45.73635" lon="6.72698">
        <ele>2749</ele>
        <time>2026-07-29T09:21:53.716Z</time>
      </trkpt>
      <trkpt lat="45.73634" lon="6.72696">
        <ele>2749</ele>
        <time>2026-07-29T09:21:54.716Z</time>
      </trkpt>
      <trkpt lat="45.73632" lon="6.72694">
        <ele>2749</ele>
        <time>2026-07-29T09:21:55.716Z</time>
      </trkpt>
      <trkpt lat="45.73631" lon="6.72692">
        <ele>2749</ele>
        <time>2026-07-29T09:21:56.716Z</time>
      </trkpt>
      <trkpt lat="45.7363" lon="6.7269">
        <ele>2749</ele>
        <time>2026-07-29T09:21:57.716Z</time>
      </trkpt>
      <trkpt lat="45.73629" lon="6.72688">
        <ele>2749</ele>
        <time>2026-07-29T09:21:58.716Z</time>
      </trkpt>
      <trkpt lat="45.73627" lon="6.72687">
        <ele>2749</ele>
        <time>2026-07-29T09:21:59.716Z</time>
      </trkpt>
      <trkpt lat="45.73626" lon="6.72685">
        <ele>2749</ele>
        <time>2026-07-29T09:22:00.716Z</time>
      </trkpt>
      <trkpt lat="45.73624" lon="6.72683">
        <ele>2749</ele>
        <time>2026-07-29T09:22:01.716Z</time>
      </trkpt>
      <trkpt lat="45.73623" lon="6.72682">
        <ele>2749</ele>
        <time>2026-07-29T09:22:02.716Z</time>
      </trkpt>
      <trkpt lat="45.73621" lon="6.72681">
        <ele>2749</ele>
        <time>2026-07-29T09:22:03.716Z</time>
      </trkpt>
      <trkpt lat="45.7362" lon="6.72679">
        <ele>2749</ele>
        <time>2026-07-29T09:22:04.716Z</time>
      </trkpt>
      <trkpt lat="45.73619" lon="6.72678">
        <ele>2749</ele>
        <time>2026-07-29T09:22:05.716Z</time>
      </trkpt>
      <trkpt lat="45.73617" lon="6.72676">
        <ele>2748</ele>
        <time>2026-07-29T09:22:06.716Z</time>
      </trkpt>
      <trkpt lat="45.73616" lon="6.72675">
        <ele>2748</ele>
        <time>2026-07-29T09:22:07.716Z</time>
      </trkpt>
      <trkpt lat="45.73615" lon="6.72674">
        <ele>2749</ele>
        <time>2026-07-29T09:22:08.716Z</time>
      </trkpt>
      <trkpt lat="45.73613" lon="6.72672">
        <ele>2749</ele>
        <time>2026-07-29T09:22:09.716Z</time>
      </trkpt>
      <trkpt lat="45.73612" lon="6.72671">
        <ele>2749</ele>
        <time>2026-07-29T09:22:10.716Z</time>
      </trkpt>
      <trkpt lat="45.7361" lon="6.7267">
        <ele>2749</ele>
        <time>2026-07-29T09:22:11.716Z</time>
      </trkpt>
      <trkpt lat="45.73609" lon="6.72668">
        <ele>2749</ele>
        <time>2026-07-29T09:22:12.716Z</time>
      </trkpt>
      <trkpt lat="45.73609" lon="6.72668">
        <ele>2749</ele>
        <time>2026-07-29T09:22:13.716Z</time>
      </trkpt>
      <trkpt lat="45.73607" lon="6.72666">
        <ele>2750</ele>
        <time>2026-07-29T09:22:14.716Z</time>
      </trkpt>
      <trkpt lat="45.73606" lon="6.72664">
        <ele>2750</ele>
        <time>2026-07-29T09:22:15.716Z</time>
      </trkpt>
      <trkpt lat="45.73605" lon="6.72662">
        <ele>2750</ele>
        <time>2026-07-29T09:22:16.716Z</time>
      </trkpt>
      <trkpt lat="45.73604" lon="6.7266">
        <ele>2750</ele>
        <time>2026-07-29T09:22:17.716Z</time>
      </trkpt>
      <trkpt lat="45.73602" lon="6.72658">
        <ele>2750</ele>
        <time>2026-07-29T09:22:18.716Z</time>
      </trkpt>
      <trkpt lat="45.73601" lon="6.72657">
        <ele>2750</ele>
        <time>2026-07-29T09:22:19.716Z</time>
      </trkpt>
      <trkpt lat="45.73599" lon="6.72655">
        <ele>2751</ele>
        <time>2026-07-29T09:22:20.716Z</time>
      </trkpt>
      <trkpt lat="45.73598" lon="6.72652">
        <ele>2751</ele>
        <time>2026-07-29T09:22:21.716Z</time>
      </trkpt>
      <trkpt lat="45.73597" lon="6.7265">
        <ele>2751</ele>
        <time>2026-07-29T09:22:22.716Z</time>
      </trkpt>
      <trkpt lat="45.73595" lon="6.72648">
        <ele>2751</ele>
        <time>2026-07-29T09:22:23.716Z</time>
      </trkpt>
      <trkpt lat="45.73594" lon="6.72647">
        <ele>2751</ele>
        <time>2026-07-29T09:22:24.716Z</time>
      </trkpt>
      <trkpt lat="45.73593" lon="6.72646">
        <ele>2751</ele>
        <time>2026-07-29T09:22:25.716Z</time>
      </trkpt>
      <trkpt lat="45.73592" lon="6.72645">
        <ele>2751</ele>
        <time>2026-07-29T09:22:26.716Z</time>
      </trkpt>
      <trkpt lat="45.73591" lon="6.72644">
        <ele>2751</ele>
        <time>2026-07-29T09:22:27.716Z</time>
      </trkpt>
      <trkpt lat="45.7359" lon="6.72643">
        <ele>2751</ele>
        <time>2026-07-29T09:22:28.716Z</time>
      </trkpt>
      <trkpt lat="45.73589" lon="6.72643">
        <ele>2751</ele>
        <time>2026-07-29T09:22:29.716Z</time>
      </trkpt>
      <trkpt lat="45.73589" lon="6.72642">
        <ele>2751</ele>
        <time>2026-07-29T09:22:30.716Z</time>
      </trkpt>
      <trkpt lat="45.73588" lon="6.72642">
        <ele>2751</ele>
        <time>2026-07-29T09:22:31.716Z</time>
      </trkpt>
      <trkpt lat="45.73588" lon="6.72641">
        <ele>2751</ele>
        <time>2026-07-29T09:22:32.716Z</time>
      </trkpt>
      <trkpt lat="45.73587" lon="6.7264">
        <ele>2751</ele>
        <time>2026-07-29T09:22:33.716Z</time>
      </trkpt>
      <trkpt lat="45.73586" lon="6.7264">
        <ele>2751</ele>
        <time>2026-07-29T09:22:34.716Z</time>
      </trkpt>
      <trkpt lat="45.73586" lon="6.72639">
        <ele>2751</ele>
        <time>2026-07-29T09:22:35.716Z</time>
      </trkpt>
      <trkpt lat="45.73585" lon="6.72638">
        <ele>2751</ele>
        <time>2026-07-29T09:22:36.716Z</time>
      </trkpt>
      <trkpt lat="45.73585" lon="6.72637">
        <ele>2751</ele>
        <time>2026-07-29T09:22:37.716Z</time>
      </trkpt>
      <trkpt lat="45.73584" lon="6.72636">
        <ele>2752</ele>
        <time>2026-07-29T09:22:38.716Z</time>
      </trkpt>
      <trkpt lat="45.73583" lon="6.72636">
        <ele>2752</ele>
        <time>2026-07-29T09:22:39.716Z</time>
      </trkpt>
      <trkpt lat="45.73582" lon="6.72635">
        <ele>2753</ele>
        <time>2026-07-29T09:22:40.716Z</time>
      </trkpt>
      <trkpt lat="45.73581" lon="6.72634">
        <ele>2753</ele>
        <time>2026-07-29T09:22:41.716Z</time>
      </trkpt>
      <trkpt lat="45.7358" lon="6.72634">
        <ele>2753</ele>
        <time>2026-07-29T09:22:42.716Z</time>
      </trkpt>
      <trkpt lat="45.73579" lon="6.72633">
        <ele>2753</ele>
        <time>2026-07-29T09:22:43.716Z</time>
      </trkpt>
      <trkpt lat="45.73578" lon="6.72632">
        <ele>2753</ele>
        <time>2026-07-29T09:22:44.716Z</time>
      </trkpt>
      <trkpt lat="45.73576" lon="6.72632">
        <ele>2753</ele>
        <time>2026-07-29T09:22:45.716Z</time>
      </trkpt>
      <trkpt lat="45.73575" lon="6.72631">
        <ele>2753</ele>
        <time>2026-07-29T09:22:46.716Z</time>
      </trkpt>
      <trkpt lat="45.73574" lon="6.7263">
        <ele>2753</ele>
        <time>2026-07-29T09:22:47.716Z</time>
      </trkpt>
      <trkpt lat="45.73573" lon="6.72629">
        <ele>2753</ele>
        <time>2026-07-29T09:22:48.716Z</time>
      </trkpt>
      <trkpt lat="45.73572" lon="6.72629">
        <ele>2753</ele>
        <time>2026-07-29T09:22:49.716Z</time>
      </trkpt>
      <trkpt lat="45.73571" lon="6.72628">
        <ele>2753</ele>
        <time>2026-07-29T09:22:50.716Z</time>
      </trkpt>
      <trkpt lat="45.7357" lon="6.72626">
        <ele>2754</ele>
        <time>2026-07-29T09:22:51.716Z</time>
      </trkpt>
      <trkpt lat="45.73569" lon="6.72625">
        <ele>2754</ele>
        <time>2026-07-29T09:22:52.716Z</time>
      </trkpt>
      <trkpt lat="45.73568" lon="6.72624">
        <ele>2754</ele>
        <time>2026-07-29T09:22:53.716Z</time>
      </trkpt>
      <trkpt lat="45.73567" lon="6.72623">
        <ele>2754</ele>
        <time>2026-07-29T09:22:54.716Z</time>
      </trkpt>
      <trkpt lat="45.73566" lon="6.72622">
        <ele>2754</ele>
        <time>2026-07-29T09:22:55.716Z</time>
      </trkpt>
      <trkpt lat="45.73565" lon="6.72621">
        <ele>2754</ele>
        <time>2026-07-29T09:22:56.716Z</time>
      </trkpt>
      <trkpt lat="45.73563" lon="6.72621">
        <ele>2754</ele>
        <time>2026-07-29T09:22:57.716Z</time>
      </trkpt>
      <trkpt lat="45.73562" lon="6.7262">
        <ele>2754</ele>
        <time>2026-07-29T09:22:58.716Z</time>
      </trkpt>
      <trkpt lat="45.73561" lon="6.72619">
        <ele>2755</ele>
        <time>2026-07-29T09:22:59.716Z</time>
      </trkpt>
      <trkpt lat="45.73561" lon="6.72618">
        <ele>2755</ele>
        <time>2026-07-29T09:23:00.716Z</time>
      </trkpt>
      <trkpt lat="45.7356" lon="6.72616">
        <ele>2755</ele>
        <time>2026-07-29T09:23:01.716Z</time>
      </trkpt>
      <trkpt lat="45.73559" lon="6.72615">
        <ele>2755</ele>
        <time>2026-07-29T09:23:02.716Z</time>
      </trkpt>
      <trkpt lat="45.73558" lon="6.72614">
        <ele>2756</ele>
        <time>2026-07-29T09:23:03.716Z</time>
      </trkpt>
      <trkpt lat="45.73557" lon="6.72612">
        <ele>2756</ele>
        <time>2026-07-29T09:23:04.716Z</time>
      </trkpt>
      <trkpt lat="45.73556" lon="6.72611">
        <ele>2756</ele>
        <time>2026-07-29T09:23:05.716Z</time>
      </trkpt>
      <trkpt lat="45.73555" lon="6.7261">
        <ele>2756</ele>
        <time>2026-07-29T09:23:06.716Z</time>
      </trkpt>
      <trkpt lat="45.73555" lon="6.72609">
        <ele>2756</ele>
        <time>2026-07-29T09:23:07.716Z</time>
      </trkpt>
      <trkpt lat="45.73554" lon="6.72607">
        <ele>2756</ele>
        <time>2026-07-29T09:23:08.716Z</time>
      </trkpt>
      <trkpt lat="45.73553" lon="6.72606">
        <ele>2756</ele>
        <time>2026-07-29T09:23:09.716Z</time>
      </trkpt>
      <trkpt lat="45.73551" lon="6.72605">
        <ele>2756</ele>
        <time>2026-07-29T09:23:10.716Z</time>
      </trkpt>
      <trkpt lat="45.7355" lon="6.72604">
        <ele>2756</ele>
        <time>2026-07-29T09:23:11.716Z</time>
      </trkpt>
      <trkpt lat="45.73549" lon="6.72603">
        <ele>2756</ele>
        <time>2026-07-29T09:23:12.716Z</time>
      </trkpt>
      <trkpt lat="45.73549" lon="6.72602">
        <ele>2757</ele>
        <time>2026-07-29T09:23:13.716Z</time>
      </trkpt>
      <trkpt lat="45.73548" lon="6.726">
        <ele>2757</ele>
        <time>2026-07-29T09:23:14.716Z</time>
      </trkpt>
      <trkpt lat="45.73548" lon="6.72598">
        <ele>2757</ele>
        <time>2026-07-29T09:23:15.716Z</time>
      </trkpt>
      <trkpt lat="45.73547" lon="6.72597">
        <ele>2757</ele>
        <time>2026-07-29T09:23:16.716Z</time>
      </trkpt>
      <trkpt lat="45.73547" lon="6.72597">
        <ele>2757</ele>
        <time>2026-07-29T09:23:17.716Z</time>
      </trkpt>
      <trkpt lat="45.73547" lon="6.72596">
        <ele>2757</ele>
        <time>2026-07-29T09:23:18.716Z</time>
      </trkpt>
      <trkpt lat="45.73547" lon="6.72596">
        <ele>2756</ele>
        <time>2026-07-29T09:23:19.716Z</time>
      </trkpt>
      <trkpt lat="45.73547" lon="6.72596">
        <ele>2757</ele>
        <time>2026-07-29T09:23:20.716Z</time>
      </trkpt>
      <trkpt lat="45.73547" lon="6.72596">
        <ele>2757</ele>
        <time>2026-07-29T09:23:21.716Z</time>
      </trkpt>
      <trkpt lat="45.73547" lon="6.72595">
        <ele>2756</ele>
        <time>2026-07-29T09:23:22.716Z</time>
      </trkpt>
      <trkpt lat="45.73547" lon="6.72595">
        <ele>2756</ele>
        <time>2026-07-29T09:23:23.716Z</time>
      </trkpt>
      <trkpt lat="45.73547" lon="6.72595">
        <ele>2756</ele>
        <time>2026-07-29T09:23:24.716Z</time>
      </trkpt>
      <trkpt lat="45.73547" lon="6.72595">
        <ele>2756</ele>
        <time>2026-07-29T09:23:25.716Z</time>
      </trkpt>
      <trkpt lat="45.73547" lon="6.72595">
        <ele>2756</ele>
        <time>2026-07-29T09:23:26.716Z</time>
      </trkpt>
      <trkpt lat="45.73547" lon="6.72595">
        <ele>2757</ele>
        <time>2026-07-29T09:23:27.716Z</time>
      </trkpt>
      <trkpt lat="45.73547" lon="6.72595">
        <ele>2757</ele>
        <time>2026-07-29T09:23:28.716Z</time>
      </trkpt>
      <trkpt lat="45.73547" lon="6.72595">
        <ele>2757</ele>
        <time>2026-07-29T09:23:29.716Z</time>
      </trkpt>
      <trkpt lat="45.73547" lon="6.72595">
        <ele>2756</ele>
        <time>2026-07-29T09:23:30.716Z</time>
      </trkpt>
      <trkpt lat="45.73547" lon="6.72595">
        <ele>2756</ele>
        <time>2026-07-29T09:23:31.716Z</time>
      </trkpt>
      <trkpt lat="45.73547" lon="6.72595">
        <ele>2756</ele>
        <time>2026-07-29T09:23:32.716Z</time>
      </trkpt>
      <trkpt lat="45.73547" lon="6.72595">
        <ele>2756</ele>
        <time>2026-07-29T09:23:33.716Z</time>
      </trkpt>
      <trkpt lat="45.73547" lon="6.72595">
        <ele>2756</ele>
        <time>2026-07-29T09:23:34.716Z</time>
      </trkpt>
      <trkpt lat="45.73547" lon="6.72595">
        <ele>2756</ele>
        <time>2026-07-29T09:23:35.716Z</time>
      </trkpt>
      <trkpt lat="45.73547" lon="6.72595">
        <ele>2756</ele>
        <time>2026-07-29T09:23:36.716Z</time>
      </trkpt>
      <trkpt lat="45.73547" lon="6.72595">
        <ele>2756</ele>
        <time>2026-07-29T09:23:37.716Z</time>
      </trkpt>
      <trkpt lat="45.73547" lon="6.72595">
        <ele>2756</ele>
        <time>2026-07-29T09:23:38.716Z</time>
      </trkpt>
      <trkpt lat="45.73547" lon="6.72595">
        <ele>2756</ele>
        <time>2026-07-29T09:23:39.716Z</time>
      </trkpt>
      <trkpt lat="45.73547" lon="6.72595">
        <ele>2756</ele>
        <time>2026-07-29T09:23:40.716Z</time>
      </trkpt>
      <trkpt lat="45.73547" lon="6.72595">
        <ele>2756</ele>
        <time>2026-07-29T09:23:41.716Z</time>
      </trkpt>
      <trkpt lat="45.73547" lon="6.72595">
        <ele>2756</ele>
        <time>2026-07-29T09:23:42.716Z</time>
      </trkpt>
      <trkpt lat="45.73547" lon="6.72595">
        <ele>2756</ele>
        <time>2026-07-29T09:23:43.716Z</time>
      </trkpt>
      <trkpt lat="45.73547" lon="6.72595">
        <ele>2756</ele>
        <time>2026-07-29T09:23:44.716Z</time>
      </trkpt>
      <trkpt lat="45.73547" lon="6.72595">
        <ele>2756</ele>
        <time>2026-07-29T09:23:45.716Z</time>
      </trkpt>
      <trkpt lat="45.73547" lon="6.72595">
        <ele>2756</ele>
        <time>2026-07-29T09:23:46.716Z</time>
      </trkpt>
      <trkpt lat="45.73547" lon="6.72595">
        <ele>2756</ele>
        <time>2026-07-29T09:23:47.716Z</time>
      </trkpt>
      <trkpt lat="45.73547" lon="6.72595">
        <ele>2756</ele>
        <time>2026-07-29T09:23:48.716Z</time>
      </trkpt>
      <trkpt lat="45.73547" lon="6.72595">
        <ele>2756</ele>
        <time>2026-07-29T09:23:49.716Z</time>
      </trkpt>
      <trkpt lat="45.73547" lon="6.72595">
        <ele>2756</ele>
        <time>2026-07-29T09:23:50.716Z</time>
      </trkpt>
      <trkpt lat="45.73547" lon="6.72595">
        <ele>2756</ele>
        <time>2026-07-29T09:23:51.716Z</time>
      </trkpt>
      <trkpt lat="45.73547" lon="6.72595">
        <ele>2756</ele>
        <time>2026-07-29T09:23:52.716Z</time>
      </trkpt>
      <trkpt lat="45.73547" lon="6.72595">
        <ele>2756</ele>
        <time>2026-07-29T09:23:53.716Z</time>
      </trkpt>
      <trkpt lat="45.73547" lon="6.72595">
        <ele>2756</ele>
        <time>2026-07-29T09:23:54.716Z</time>
      </trkpt>
      <trkpt lat="45.73547" lon="6.72595">
        <ele>2756</ele>
        <time>2026-07-29T09:23:55.716Z</time>
      </trkpt>
      <trkpt lat="45.73547" lon="6.72595">
        <ele>2756</ele>
        <time>2026-07-29T09:23:56.716Z</time>
      </trkpt>
      <trkpt lat="45.73547" lon="6.72595">
        <ele>2756</ele>
        <time>2026-07-29T09:23:57.716Z</time>
      </trkpt>
      <trkpt lat="45.73547" lon="6.72595">
        <ele>2756</ele>
        <time>2026-07-29T09:23:58.716Z</time>
      </trkpt>
      <trkpt lat="45.73547" lon="6.72595">
        <ele>2756</ele>
        <time>2026-07-29T09:23:59.716Z</time>
      </trkpt>
      <trkpt lat="45.73547" lon="6.72595">
        <ele>2756</ele>
        <time>2026-07-29T09:24:00.716Z</time>
      </trkpt>
      <trkpt lat="45.73547" lon="6.72595">
        <ele>2756</ele>
        <time>2026-07-29T09:24:01.716Z</time>
      </trkpt>
      <trkpt lat="45.73547" lon="6.72595">
        <ele>2756</ele>
        <time>2026-07-29T09:24:02.716Z</time>
      </trkpt>
      <trkpt lat="45.73547" lon="6.72595">
        <ele>2756</ele>
        <time>2026-07-29T09:24:03.716Z</time>
      </trkpt>
      <trkpt lat="45.73547" lon="6.72595">
        <ele>2756</ele>
        <time>2026-07-29T09:24:04.716Z</time>
      </trkpt>
      <trkpt lat="45.73547" lon="6.72594">
        <ele>2756</ele>
        <time>2026-07-29T09:24:05.716Z</time>
      </trkpt>
      <trkpt lat="45.73547" lon="6.72594">
        <ele>2756</ele>
        <time>2026-07-29T09:24:06.716Z</time>
      </trkpt>
      <trkpt lat="45.73547" lon="6.72594">
        <ele>2756</ele>
        <time>2026-07-29T09:24:07.716Z</time>
      </trkpt>
      <trkpt lat="45.73547" lon="6.72594">
        <ele>2756</ele>
        <time>2026-07-29T09:24:08.716Z</time>
      </trkpt>
      <trkpt lat="45.73547" lon="6.72594">
        <ele>2756</ele>
        <time>2026-07-29T09:24:09.716Z</time>
      </trkpt>
      <trkpt lat="45.73547" lon="6.72594">
        <ele>2756</ele>
        <time>2026-07-29T09:24:10.716Z</time>
      </trkpt>
      <trkpt lat="45.73545" lon="6.72593">
        <ele>2756</ele>
        <time>2026-07-29T09:24:11.716Z</time>
      </trkpt>
      <trkpt lat="45.73544" lon="6.72593">
        <ele>2756</ele>
        <time>2026-07-29T09:24:12.716Z</time>
      </trkpt>
      <trkpt lat="45.73543" lon="6.72593">
        <ele>2756</ele>
        <time>2026-07-29T09:24:13.716Z</time>
      </trkpt>
      <trkpt lat="45.73542" lon="6.72592">
        <ele>2756</ele>
        <time>2026-07-29T09:24:14.716Z</time>
      </trkpt>
      <trkpt lat="45.73541" lon="6.72592">
        <ele>2756</ele>
        <time>2026-07-29T09:24:15.716Z</time>
      </trkpt>
      <trkpt lat="45.73539" lon="6.72591">
        <ele>2756</ele>
        <time>2026-07-29T09:24:16.716Z</time>
      </trkpt>
      <trkpt lat="45.73538" lon="6.7259">
        <ele>2756</ele>
        <time>2026-07-29T09:24:17.716Z</time>
      </trkpt>
      <trkpt lat="45.73536" lon="6.72589">
        <ele>2756</ele>
        <time>2026-07-29T09:24:18.716Z</time>
      </trkpt>
      <trkpt lat="45.73535" lon="6.72588">
        <ele>2755</ele>
        <time>2026-07-29T09:24:19.716Z</time>
      </trkpt>
      <trkpt lat="45.73535" lon="6.72587">
        <ele>2755</ele>
        <time>2026-07-29T09:24:20.716Z</time>
      </trkpt>
      <trkpt lat="45.73534" lon="6.72587">
        <ele>2755</ele>
        <time>2026-07-29T09:24:21.716Z</time>
      </trkpt>
      <trkpt lat="45.73533" lon="6.72587">
        <ele>2754</ele>
        <time>2026-07-29T09:24:22.716Z</time>
      </trkpt>
      <trkpt lat="45.73531" lon="6.72586">
        <ele>2754</ele>
        <time>2026-07-29T09:24:23.716Z</time>
      </trkpt>
      <trkpt lat="45.7353" lon="6.72585">
        <ele>2753</ele>
        <time>2026-07-29T09:24:24.716Z</time>
      </trkpt>
      <trkpt lat="45.73529" lon="6.72583">
        <ele>2753</ele>
        <time>2026-07-29T09:24:25.716Z</time>
      </trkpt>
      <trkpt lat="45.73527" lon="6.72582">
        <ele>2753</ele>
        <time>2026-07-29T09:24:26.716Z</time>
      </trkpt>
      <trkpt lat="45.73526" lon="6.7258">
        <ele>2752</ele>
        <time>2026-07-29T09:24:27.716Z</time>
      </trkpt>
      <trkpt lat="45.73525" lon="6.72579">
        <ele>2752</ele>
        <time>2026-07-29T09:24:28.716Z</time>
      </trkpt>
      <trkpt lat="45.73524" lon="6.72578">
        <ele>2752</ele>
        <time>2026-07-29T09:24:29.716Z</time>
      </trkpt>
      <trkpt lat="45.73523" lon="6.72577">
        <ele>2752</ele>
        <time>2026-07-29T09:24:30.716Z</time>
      </trkpt>
      <trkpt lat="45.73522" lon="6.72576">
        <ele>2752</ele>
        <time>2026-07-29T09:24:31.716Z</time>
      </trkpt>
      <trkpt lat="45.73521" lon="6.72574">
        <ele>2751</ele>
        <time>2026-07-29T09:24:32.716Z</time>
      </trkpt>
      <trkpt lat="45.73519" lon="6.72573">
        <ele>2751</ele>
        <time>2026-07-29T09:24:33.716Z</time>
      </trkpt>
      <trkpt lat="45.73518" lon="6.72572">
        <ele>2750</ele>
        <time>2026-07-29T09:24:34.716Z</time>
      </trkpt>
      <trkpt lat="45.73516" lon="6.7257">
        <ele>2750</ele>
        <time>2026-07-29T09:24:35.716Z</time>
      </trkpt>
      <trkpt lat="45.73515" lon="6.72569">
        <ele>2749</ele>
        <time>2026-07-29T09:24:36.716Z</time>
      </trkpt>
      <trkpt lat="45.73514" lon="6.72568">
        <ele>2749</ele>
        <time>2026-07-29T09:24:37.716Z</time>
      </trkpt>
      <trkpt lat="45.73513" lon="6.72566">
        <ele>2749</ele>
        <time>2026-07-29T09:24:38.716Z</time>
      </trkpt>
      <trkpt lat="45.73512" lon="6.72564">
        <ele>2749</ele>
        <time>2026-07-29T09:24:39.716Z</time>
      </trkpt>
      <trkpt lat="45.7351" lon="6.72562">
        <ele>2749</ele>
        <time>2026-07-29T09:24:40.716Z</time>
      </trkpt>
      <trkpt lat="45.73509" lon="6.72559">
        <ele>2748</ele>
        <time>2026-07-29T09:24:41.716Z</time>
      </trkpt>
      <trkpt lat="45.73507" lon="6.72557">
        <ele>2748</ele>
        <time>2026-07-29T09:24:42.716Z</time>
      </trkpt>
      <trkpt lat="45.73506" lon="6.72555">
        <ele>2748</ele>
        <time>2026-07-29T09:24:43.716Z</time>
      </trkpt>
      <trkpt lat="45.73505" lon="6.72553">
        <ele>2747</ele>
        <time>2026-07-29T09:24:44.716Z</time>
      </trkpt>
      <trkpt lat="45.73504" lon="6.72551">
        <ele>2747</ele>
        <time>2026-07-29T09:24:45.716Z</time>
      </trkpt>
      <trkpt lat="45.73503" lon="6.72548">
        <ele>2746</ele>
        <time>2026-07-29T09:24:46.716Z</time>
      </trkpt>
      <trkpt lat="45.73502" lon="6.72546">
        <ele>2745</ele>
        <time>2026-07-29T09:24:47.716Z</time>
      </trkpt>
      <trkpt lat="45.73501" lon="6.72543">
        <ele>2745</ele>
        <time>2026-07-29T09:24:48.716Z</time>
      </trkpt>
      <trkpt lat="45.73501" lon="6.72541">
        <ele>2744</ele>
        <time>2026-07-29T09:24:49.717Z</time>
      </trkpt>
      <trkpt lat="45.735" lon="6.72538">
        <ele>2744</ele>
        <time>2026-07-29T09:24:50.716Z</time>
      </trkpt>
      <trkpt lat="45.735" lon="6.72536">
        <ele>2743</ele>
        <time>2026-07-29T09:24:51.716Z</time>
      </trkpt>
      <trkpt lat="45.735" lon="6.72533">
        <ele>2743</ele>
        <time>2026-07-29T09:24:52.716Z</time>
      </trkpt>
      <trkpt lat="45.735" lon="6.72531">
        <ele>2742</ele>
        <time>2026-07-29T09:24:53.716Z</time>
      </trkpt>
      <trkpt lat="45.735" lon="6.72528">
        <ele>2742</ele>
        <time>2026-07-29T09:24:54.716Z</time>
      </trkpt>
      <trkpt lat="45.735" lon="6.72525">
        <ele>2742</ele>
        <time>2026-07-29T09:24:55.716Z</time>
      </trkpt>
      <trkpt lat="45.73499" lon="6.72523">
        <ele>2741</ele>
        <time>2026-07-29T09:24:56.716Z</time>
      </trkpt>
      <trkpt lat="45.73499" lon="6.7252">
        <ele>2740</ele>
        <time>2026-07-29T09:24:57.716Z</time>
      </trkpt>
      <trkpt lat="45.73499" lon="6.72518">
        <ele>2740</ele>
        <time>2026-07-29T09:24:58.716Z</time>
      </trkpt>
      <trkpt lat="45.73498" lon="6.72515">
        <ele>2740</ele>
        <time>2026-07-29T09:24:59.716Z</time>
      </trkpt>
      <trkpt lat="45.73497" lon="6.72512">
        <ele>2739</ele>
        <time>2026-07-29T09:25:00.716Z</time>
      </trkpt>
      <trkpt lat="45.73496" lon="6.7251">
        <ele>2739</ele>
        <time>2026-07-29T09:25:01.716Z</time>
      </trkpt>
      <trkpt lat="45.73496" lon="6.72507">
        <ele>2738</ele>
        <time>2026-07-29T09:25:02.716Z</time>
      </trkpt>
      <trkpt lat="45.73495" lon="6.72505">
        <ele>2737</ele>
        <time>2026-07-29T09:25:03.716Z</time>
      </trkpt>
      <trkpt lat="45.73494" lon="6.72502">
        <ele>2737</ele>
        <time>2026-07-29T09:25:04.716Z</time>
      </trkpt>
      <trkpt lat="45.73493" lon="6.725">
        <ele>2736</ele>
        <time>2026-07-29T09:25:05.716Z</time>
      </trkpt>
      <trkpt lat="45.73492" lon="6.72498">
        <ele>2736</ele>
        <time>2026-07-29T09:25:06.716Z</time>
      </trkpt>
      <trkpt lat="45.73491" lon="6.72496">
        <ele>2736</ele>
        <time>2026-07-29T09:25:07.716Z</time>
      </trkpt>
      <trkpt lat="45.7349" lon="6.72493">
        <ele>2736</ele>
        <time>2026-07-29T09:25:08.716Z</time>
      </trkpt>
      <trkpt lat="45.73488" lon="6.72491">
        <ele>2735</ele>
        <time>2026-07-29T09:25:09.716Z</time>
      </trkpt>
      <trkpt lat="45.73487" lon="6.7249">
        <ele>2735</ele>
        <time>2026-07-29T09:25:10.716Z</time>
      </trkpt>
      <trkpt lat="45.73485" lon="6.72488">
        <ele>2735</ele>
        <time>2026-07-29T09:25:11.716Z</time>
      </trkpt>
      <trkpt lat="45.73483" lon="6.72486">
        <ele>2735</ele>
        <time>2026-07-29T09:25:12.716Z</time>
      </trkpt>
      <trkpt lat="45.73482" lon="6.72485">
        <ele>2734</ele>
        <time>2026-07-29T09:25:13.716Z</time>
      </trkpt>
      <trkpt lat="45.7348" lon="6.72483">
        <ele>2734</ele>
        <time>2026-07-29T09:25:14.716Z</time>
      </trkpt>
      <trkpt lat="45.73479" lon="6.72482">
        <ele>2734</ele>
        <time>2026-07-29T09:25:15.716Z</time>
      </trkpt>
      <trkpt lat="45.73477" lon="6.7248">
        <ele>2734</ele>
        <time>2026-07-29T09:25:16.716Z</time>
      </trkpt>
      <trkpt lat="45.73476" lon="6.72478">
        <ele>2733</ele>
        <time>2026-07-29T09:25:17.716Z</time>
      </trkpt>
      <trkpt lat="45.73474" lon="6.72476">
        <ele>2733</ele>
        <time>2026-07-29T09:25:18.716Z</time>
      </trkpt>
      <trkpt lat="45.73472" lon="6.72474">
        <ele>2732</ele>
        <time>2026-07-29T09:25:19.716Z</time>
      </trkpt>
      <trkpt lat="45.73471" lon="6.72472">
        <ele>2732</ele>
        <time>2026-07-29T09:25:20.716Z</time>
      </trkpt>
      <trkpt lat="45.73469" lon="6.7247">
        <ele>2731</ele>
        <time>2026-07-29T09:25:21.716Z</time>
      </trkpt>
      <trkpt lat="45.73467" lon="6.72468">
        <ele>2730</ele>
        <time>2026-07-29T09:25:22.716Z</time>
      </trkpt>
      <trkpt lat="45.73465" lon="6.72467">
        <ele>2730</ele>
        <time>2026-07-29T09:25:23.716Z</time>
      </trkpt>
      <trkpt lat="45.73463" lon="6.72465">
        <ele>2730</ele>
        <time>2026-07-29T09:25:24.716Z</time>
      </trkpt>
      <trkpt lat="45.73461" lon="6.72464">
        <ele>2729</ele>
        <time>2026-07-29T09:25:25.716Z</time>
      </trkpt>
      <trkpt lat="45.7346" lon="6.72462">
        <ele>2729</ele>
        <time>2026-07-29T09:25:26.716Z</time>
      </trkpt>
      <trkpt lat="45.73458" lon="6.72461">
        <ele>2728</ele>
        <time>2026-07-29T09:25:27.716Z</time>
      </trkpt>
      <trkpt lat="45.73456" lon="6.72459">
        <ele>2728</ele>
        <time>2026-07-29T09:25:28.716Z</time>
      </trkpt>
      <trkpt lat="45.73455" lon="6.72457">
        <ele>2727</ele>
        <time>2026-07-29T09:25:29.716Z</time>
      </trkpt>
      <trkpt lat="45.73454" lon="6.72455">
        <ele>2727</ele>
        <time>2026-07-29T09:25:30.716Z</time>
      </trkpt>
      <trkpt lat="45.73453" lon="6.72453">
        <ele>2727</ele>
        <time>2026-07-29T09:25:31.716Z</time>
      </trkpt>
      <trkpt lat="45.73452" lon="6.7245">
        <ele>2727</ele>
        <time>2026-07-29T09:25:32.716Z</time>
      </trkpt>
      <trkpt lat="45.7345" lon="6.72448">
        <ele>2727</ele>
        <time>2026-07-29T09:25:33.716Z</time>
      </trkpt>
      <trkpt lat="45.73449" lon="6.72445">
        <ele>2727</ele>
        <time>2026-07-29T09:25:34.716Z</time>
      </trkpt>
      <trkpt lat="45.73447" lon="6.72442">
        <ele>2726</ele>
        <time>2026-07-29T09:25:35.716Z</time>
      </trkpt>
      <trkpt lat="45.73446" lon="6.7244">
        <ele>2726</ele>
        <time>2026-07-29T09:25:36.716Z</time>
      </trkpt>
      <trkpt lat="45.73444" lon="6.72437">
        <ele>2726</ele>
        <time>2026-07-29T09:25:37.716Z</time>
      </trkpt>
      <trkpt lat="45.73443" lon="6.72435">
        <ele>2725</ele>
        <time>2026-07-29T09:25:38.716Z</time>
      </trkpt>
      <trkpt lat="45.73441" lon="6.72432">
        <ele>2725</ele>
        <time>2026-07-29T09:25:39.716Z</time>
      </trkpt>
      <trkpt lat="45.7344" lon="6.7243">
        <ele>2725</ele>
        <time>2026-07-29T09:25:40.716Z</time>
      </trkpt>
      <trkpt lat="45.73438" lon="6.72428">
        <ele>2724</ele>
        <time>2026-07-29T09:25:41.716Z</time>
      </trkpt>
      <trkpt lat="45.73436" lon="6.72426">
        <ele>2724</ele>
        <time>2026-07-29T09:25:42.716Z</time>
      </trkpt>
      <trkpt lat="45.73434" lon="6.72424">
        <ele>2724</ele>
        <time>2026-07-29T09:25:43.716Z</time>
      </trkpt>
      <trkpt lat="45.73433" lon="6.72422">
        <ele>2724</ele>
        <time>2026-07-29T09:25:44.716Z</time>
      </trkpt>
      <trkpt lat="45.73431" lon="6.7242">
        <ele>2724</ele>
        <time>2026-07-29T09:25:45.716Z</time>
      </trkpt>
      <trkpt lat="45.7343" lon="6.72418">
        <ele>2724</ele>
        <time>2026-07-29T09:25:46.716Z</time>
      </trkpt>
      <trkpt lat="45.73429" lon="6.72415">
        <ele>2723</ele>
        <time>2026-07-29T09:25:47.716Z</time>
      </trkpt>
      <trkpt lat="45.73428" lon="6.72413">
        <ele>2723</ele>
        <time>2026-07-29T09:25:48.716Z</time>
      </trkpt>
      <trkpt lat="45.73428" lon="6.7241">
        <ele>2723</ele>
        <time>2026-07-29T09:25:49.716Z</time>
      </trkpt>
      <trkpt lat="45.73427" lon="6.72408">
        <ele>2723</ele>
        <time>2026-07-29T09:25:50.716Z</time>
      </trkpt>
      <trkpt lat="45.73426" lon="6.72405">
        <ele>2722</ele>
        <time>2026-07-29T09:25:51.716Z</time>
      </trkpt>
      <trkpt lat="45.73425" lon="6.72403">
        <ele>2722</ele>
        <time>2026-07-29T09:25:52.716Z</time>
      </trkpt>
      <trkpt lat="45.73424" lon="6.72402">
        <ele>2722</ele>
        <time>2026-07-29T09:25:53.716Z</time>
      </trkpt>
      <trkpt lat="45.73422" lon="6.724">
        <ele>2721</ele>
        <time>2026-07-29T09:25:54.716Z</time>
      </trkpt>
      <trkpt lat="45.73421" lon="6.72398">
        <ele>2721</ele>
        <time>2026-07-29T09:25:55.716Z</time>
      </trkpt>
      <trkpt lat="45.73419" lon="6.72395">
        <ele>2720</ele>
        <time>2026-07-29T09:25:56.716Z</time>
      </trkpt>
      <trkpt lat="45.73418" lon="6.72393">
        <ele>2720</ele>
        <time>2026-07-29T09:25:57.716Z</time>
      </trkpt>
      <trkpt lat="45.73416" lon="6.7239">
        <ele>2720</ele>
        <time>2026-07-29T09:25:58.716Z</time>
      </trkpt>
      <trkpt lat="45.73415" lon="6.72388">
        <ele>2720</ele>
        <time>2026-07-29T09:25:59.716Z</time>
      </trkpt>
      <trkpt lat="45.73413" lon="6.72386">
        <ele>2720</ele>
        <time>2026-07-29T09:26:00.716Z</time>
      </trkpt>
      <trkpt lat="45.73412" lon="6.72384">
        <ele>2719</ele>
        <time>2026-07-29T09:26:01.716Z</time>
      </trkpt>
      <trkpt lat="45.73411" lon="6.72381">
        <ele>2719</ele>
        <time>2026-07-29T09:26:02.716Z</time>
      </trkpt>
      <trkpt lat="45.7341" lon="6.72379">
        <ele>2719</ele>
        <time>2026-07-29T09:26:03.716Z</time>
      </trkpt>
      <trkpt lat="45.73409" lon="6.72378">
        <ele>2719</ele>
        <time>2026-07-29T09:26:04.716Z</time>
      </trkpt>
      <trkpt lat="45.73407" lon="6.72376">
        <ele>2719</ele>
        <time>2026-07-29T09:26:05.716Z</time>
      </trkpt>
      <trkpt lat="45.73406" lon="6.72375">
        <ele>2718</ele>
        <time>2026-07-29T09:26:06.716Z</time>
      </trkpt>
      <trkpt lat="45.73405" lon="6.72373">
        <ele>2718</ele>
        <time>2026-07-29T09:26:07.716Z</time>
      </trkpt>
      <trkpt lat="45.73404" lon="6.72371">
        <ele>2718</ele>
        <time>2026-07-29T09:26:08.716Z</time>
      </trkpt>
      <trkpt lat="45.73403" lon="6.72368">
        <ele>2717</ele>
        <time>2026-07-29T09:26:09.716Z</time>
      </trkpt>
      <trkpt lat="45.73402" lon="6.72367">
        <ele>2717</ele>
        <time>2026-07-29T09:26:10.716Z</time>
      </trkpt>
      <trkpt lat="45.73401" lon="6.72365">
        <ele>2716</ele>
        <time>2026-07-29T09:26:11.716Z</time>
      </trkpt>
      <trkpt lat="45.734" lon="6.72365">
        <ele>2716</ele>
        <time>2026-07-29T09:26:12.716Z</time>
      </trkpt>
      <trkpt lat="45.73398" lon="6.72364">
        <ele>2715</ele>
        <time>2026-07-29T09:26:13.716Z</time>
      </trkpt>
      <trkpt lat="45.73397" lon="6.72362">
        <ele>2715</ele>
        <time>2026-07-29T09:26:14.716Z</time>
      </trkpt>
      <trkpt lat="45.73396" lon="6.72361">
        <ele>2715</ele>
        <time>2026-07-29T09:26:15.716Z</time>
      </trkpt>
      <trkpt lat="45.73394" lon="6.72359">
        <ele>2714</ele>
        <time>2026-07-29T09:26:16.716Z</time>
      </trkpt>
      <trkpt lat="45.73392" lon="6.72358">
        <ele>2714</ele>
        <time>2026-07-29T09:26:17.716Z</time>
      </trkpt>
      <trkpt lat="45.73391" lon="6.72356">
        <ele>2714</ele>
        <time>2026-07-29T09:26:18.716Z</time>
      </trkpt>
      <trkpt lat="45.73389" lon="6.72353">
        <ele>2713</ele>
        <time>2026-07-29T09:26:19.716Z</time>
      </trkpt>
      <trkpt lat="45.73388" lon="6.72351">
        <ele>2712</ele>
        <time>2026-07-29T09:26:20.716Z</time>
      </trkpt>
      <trkpt lat="45.73386" lon="6.72349">
        <ele>2712</ele>
        <time>2026-07-29T09:26:21.716Z</time>
      </trkpt>
      <trkpt lat="45.73384" lon="6.72347">
        <ele>2712</ele>
        <time>2026-07-29T09:26:22.716Z</time>
      </trkpt>
      <trkpt lat="45.73383" lon="6.72345">
        <ele>2711</ele>
        <time>2026-07-29T09:26:23.716Z</time>
      </trkpt>
      <trkpt lat="45.73381" lon="6.72343">
        <ele>2711</ele>
        <time>2026-07-29T09:26:24.716Z</time>
      </trkpt>
      <trkpt lat="45.73379" lon="6.72342">
        <ele>2711</ele>
        <time>2026-07-29T09:26:25.716Z</time>
      </trkpt>
      <trkpt lat="45.73377" lon="6.7234">
        <ele>2711</ele>
        <time>2026-07-29T09:26:26.716Z</time>
      </trkpt>
      <trkpt lat="45.73375" lon="6.72339">
        <ele>2711</ele>
        <time>2026-07-29T09:26:27.716Z</time>
      </trkpt>
      <trkpt lat="45.73373" lon="6.72337">
        <ele>2711</ele>
        <time>2026-07-29T09:26:28.716Z</time>
      </trkpt>
      <trkpt lat="45.73371" lon="6.72336">
        <ele>2711</ele>
        <time>2026-07-29T09:26:29.716Z</time>
      </trkpt>
      <trkpt lat="45.73369" lon="6.72335">
        <ele>2710</ele>
        <time>2026-07-29T09:26:30.716Z</time>
      </trkpt>
      <trkpt lat="45.73367" lon="6.72334">
        <ele>2710</ele>
        <time>2026-07-29T09:26:31.716Z</time>
      </trkpt>
      <trkpt lat="45.73365" lon="6.72333">
        <ele>2709</ele>
        <time>2026-07-29T09:26:32.716Z</time>
      </trkpt>
      <trkpt lat="45.73363" lon="6.72332">
        <ele>2709</ele>
        <time>2026-07-29T09:26:33.716Z</time>
      </trkpt>
      <trkpt lat="45.73361" lon="6.7233">
        <ele>2709</ele>
        <time>2026-07-29T09:26:34.716Z</time>
      </trkpt>
      <trkpt lat="45.73358" lon="6.72329">
        <ele>2709</ele>
        <time>2026-07-29T09:26:35.716Z</time>
      </trkpt>
      <trkpt lat="45.73356" lon="6.72328">
        <ele>2708</ele>
        <time>2026-07-29T09:26:36.716Z</time>
      </trkpt>
      <trkpt lat="45.73355" lon="6.72326">
        <ele>2708</ele>
        <time>2026-07-29T09:26:37.716Z</time>
      </trkpt>
      <trkpt lat="45.73353" lon="6.72325">
        <ele>2708</ele>
        <time>2026-07-29T09:26:38.716Z</time>
      </trkpt>
      <trkpt lat="45.73351" lon="6.72324">
        <ele>2708</ele>
        <time>2026-07-29T09:26:39.716Z</time>
      </trkpt>
      <trkpt lat="45.73349" lon="6.72323">
        <ele>2707</ele>
        <time>2026-07-29T09:26:40.716Z</time>
      </trkpt>
      <trkpt lat="45.73347" lon="6.72322">
        <ele>2707</ele>
        <time>2026-07-29T09:26:41.716Z</time>
      </trkpt>
      <trkpt lat="45.73346" lon="6.72321">
        <ele>2707</ele>
        <time>2026-07-29T09:26:42.716Z</time>
      </trkpt>
      <trkpt lat="45.73344" lon="6.7232">
        <ele>2707</ele>
        <time>2026-07-29T09:26:43.716Z</time>
      </trkpt>
      <trkpt lat="45.73342" lon="6.72319">
        <ele>2707</ele>
        <time>2026-07-29T09:26:44.716Z</time>
      </trkpt>
      <trkpt lat="45.7334" lon="6.72317">
        <ele>2706</ele>
        <time>2026-07-29T09:26:45.716Z</time>
      </trkpt>
      <trkpt lat="45.73338" lon="6.72315">
        <ele>2706</ele>
        <time>2026-07-29T09:26:46.716Z</time>
      </trkpt>
      <trkpt lat="45.73337" lon="6.72314">
        <ele>2706</ele>
        <time>2026-07-29T09:26:47.716Z</time>
      </trkpt>
      <trkpt lat="45.73336" lon="6.72312">
        <ele>2705</ele>
        <time>2026-07-29T09:26:48.716Z</time>
      </trkpt>
      <trkpt lat="45.73335" lon="6.72311">
        <ele>2705</ele>
        <time>2026-07-29T09:26:49.716Z</time>
      </trkpt>
      <trkpt lat="45.73333" lon="6.72311">
        <ele>2705</ele>
        <time>2026-07-29T09:26:50.716Z</time>
      </trkpt>
      <trkpt lat="45.73332" lon="6.72311">
        <ele>2705</ele>
        <time>2026-07-29T09:26:51.716Z</time>
      </trkpt>
      <trkpt lat="45.7333" lon="6.7231">
        <ele>2705</ele>
        <time>2026-07-29T09:26:52.716Z</time>
      </trkpt>
      <trkpt lat="45.73328" lon="6.72309">
        <ele>2704</ele>
        <time>2026-07-29T09:26:53.716Z</time>
      </trkpt>
      <trkpt lat="45.73326" lon="6.72309">
        <ele>2704</ele>
        <time>2026-07-29T09:26:54.716Z</time>
      </trkpt>
      <trkpt lat="45.73324" lon="6.72308">
        <ele>2704</ele>
        <time>2026-07-29T09:26:55.716Z</time>
      </trkpt>
      <trkpt lat="45.73322" lon="6.72308">
        <ele>2703</ele>
        <time>2026-07-29T09:26:56.716Z</time>
      </trkpt>
      <trkpt lat="45.73321" lon="6.72307">
        <ele>2703</ele>
        <time>2026-07-29T09:26:57.716Z</time>
      </trkpt>
      <trkpt lat="45.7332" lon="6.72307">
        <ele>2703</ele>
        <time>2026-07-29T09:26:58.716Z</time>
      </trkpt>
      <trkpt lat="45.73319" lon="6.72307">
        <ele>2702</ele>
        <time>2026-07-29T09:26:59.716Z</time>
      </trkpt>
      <trkpt lat="45.73318" lon="6.72306">
        <ele>2702</ele>
        <time>2026-07-29T09:27:00.716Z</time>
      </trkpt>
      <trkpt lat="45.73316" lon="6.72306">
        <ele>2702</ele>
        <time>2026-07-29T09:27:01.716Z</time>
      </trkpt>
      <trkpt lat="45.73315" lon="6.72305">
        <ele>2702</ele>
        <time>2026-07-29T09:27:02.716Z</time>
      </trkpt>
      <trkpt lat="45.73314" lon="6.72304">
        <ele>2702</ele>
        <time>2026-07-29T09:27:03.716Z</time>
      </trkpt>
      <trkpt lat="45.73313" lon="6.72304">
        <ele>2701</ele>
        <time>2026-07-29T09:27:04.716Z</time>
      </trkpt>
      <trkpt lat="45.73312" lon="6.72303">
        <ele>2701</ele>
        <time>2026-07-29T09:27:05.716Z</time>
      </trkpt>
      <trkpt lat="45.73311" lon="6.72303">
        <ele>2701</ele>
        <time>2026-07-29T09:27:06.716Z</time>
      </trkpt>
      <trkpt lat="45.7331" lon="6.72304">
        <ele>2701</ele>
        <time>2026-07-29T09:27:07.716Z</time>
      </trkpt>
      <trkpt lat="45.73309" lon="6.72305">
        <ele>2701</ele>
        <time>2026-07-29T09:27:08.716Z</time>
      </trkpt>
      <trkpt lat="45.73307" lon="6.72306">
        <ele>2700</ele>
        <time>2026-07-29T09:27:09.716Z</time>
      </trkpt>
      <trkpt lat="45.73306" lon="6.72306">
        <ele>2700</ele>
        <time>2026-07-29T09:27:10.716Z</time>
      </trkpt>
      <trkpt lat="45.73305" lon="6.72306">
        <ele>2700</ele>
        <time>2026-07-29T09:27:11.716Z</time>
      </trkpt>
      <trkpt lat="45.73304" lon="6.72305">
        <ele>2700</ele>
        <time>2026-07-29T09:27:12.716Z</time>
      </trkpt>
      <trkpt lat="45.73304" lon="6.72304">
        <ele>2700</ele>
        <time>2026-07-29T09:27:13.716Z</time>
      </trkpt>
      <trkpt lat="45.73304" lon="6.72301">
        <ele>2700</ele>
        <time>2026-07-29T09:27:14.716Z</time>
      </trkpt>
      <trkpt lat="45.73304" lon="6.72299">
        <ele>2700</ele>
        <time>2026-07-29T09:27:15.716Z</time>
      </trkpt>
      <trkpt lat="45.73303" lon="6.72296">
        <ele>2700</ele>
        <time>2026-07-29T09:27:16.716Z</time>
      </trkpt>
      <trkpt lat="45.73303" lon="6.72294">
        <ele>2700</ele>
        <time>2026-07-29T09:27:17.716Z</time>
      </trkpt>
      <trkpt lat="45.73303" lon="6.72292">
        <ele>2699</ele>
        <time>2026-07-29T09:27:18.716Z</time>
      </trkpt>
      <trkpt lat="45.73302" lon="6.72291">
        <ele>2699</ele>
        <time>2026-07-29T09:27:19.716Z</time>
      </trkpt>
      <trkpt lat="45.73301" lon="6.7229">
        <ele>2699</ele>
        <time>2026-07-29T09:27:20.716Z</time>
      </trkpt>
      <trkpt lat="45.733" lon="6.7229">
        <ele>2699</ele>
        <time>2026-07-29T09:27:21.716Z</time>
      </trkpt>
      <trkpt lat="45.73298" lon="6.7229">
        <ele>2699</ele>
        <time>2026-07-29T09:27:22.716Z</time>
      </trkpt>
      <trkpt lat="45.73296" lon="6.7229">
        <ele>2698</ele>
        <time>2026-07-29T09:27:23.716Z</time>
      </trkpt>
      <trkpt lat="45.73294" lon="6.72289">
        <ele>2698</ele>
        <time>2026-07-29T09:27:24.716Z</time>
      </trkpt>
      <trkpt lat="45.73292" lon="6.72288">
        <ele>2697</ele>
        <time>2026-07-29T09:27:25.716Z</time>
      </trkpt>
      <trkpt lat="45.7329" lon="6.72289">
        <ele>2697</ele>
        <time>2026-07-29T09:27:26.716Z</time>
      </trkpt>
      <trkpt lat="45.73288" lon="6.72289">
        <ele>2697</ele>
        <time>2026-07-29T09:27:27.716Z</time>
      </trkpt>
      <trkpt lat="45.73286" lon="6.7229">
        <ele>2697</ele>
        <time>2026-07-29T09:27:28.716Z</time>
      </trkpt>
      <trkpt lat="45.73284" lon="6.7229">
        <ele>2697</ele>
        <time>2026-07-29T09:27:29.716Z</time>
      </trkpt>
      <trkpt lat="45.73281" lon="6.7229">
        <ele>2697</ele>
        <time>2026-07-29T09:27:30.716Z</time>
      </trkpt>
      <trkpt lat="45.73279" lon="6.7229">
        <ele>2697</ele>
        <time>2026-07-29T09:27:31.716Z</time>
      </trkpt>
      <trkpt lat="45.73278" lon="6.7229">
        <ele>2697</ele>
        <time>2026-07-29T09:27:32.716Z</time>
      </trkpt>
      <trkpt lat="45.73276" lon="6.7229">
        <ele>2697</ele>
        <time>2026-07-29T09:27:33.716Z</time>
      </trkpt>
      <trkpt lat="45.73276" lon="6.7229">
        <ele>2697</ele>
        <time>2026-07-29T09:27:34.716Z</time>
      </trkpt>
      <trkpt lat="45.73275" lon="6.7229">
        <ele>2697</ele>
        <time>2026-07-29T09:27:35.716Z</time>
      </trkpt>
      <trkpt lat="45.73274" lon="6.7229">
        <ele>2697</ele>
        <time>2026-07-29T09:27:36.716Z</time>
      </trkpt>
      <trkpt lat="45.73273" lon="6.72289">
        <ele>2697</ele>
        <time>2026-07-29T09:27:37.716Z</time>
      </trkpt>
      <trkpt lat="45.73272" lon="6.72288">
        <ele>2697</ele>
        <time>2026-07-29T09:27:38.716Z</time>
      </trkpt>
      <trkpt lat="45.73271" lon="6.72287">
        <ele>2697</ele>
        <time>2026-07-29T09:27:39.716Z</time>
      </trkpt>
      <trkpt lat="45.73271" lon="6.72285">
        <ele>2696</ele>
        <time>2026-07-29T09:27:40.716Z</time>
      </trkpt>
      <trkpt lat="45.7327" lon="6.72285">
        <ele>2696</ele>
        <time>2026-07-29T09:27:41.716Z</time>
      </trkpt>
      <trkpt lat="45.73268" lon="6.72285">
        <ele>2696</ele>
        <time>2026-07-29T09:27:42.716Z</time>
      </trkpt>
      <trkpt lat="45.73267" lon="6.72285">
        <ele>2696</ele>
        <time>2026-07-29T09:27:43.716Z</time>
      </trkpt>
      <trkpt lat="45.73266" lon="6.72286">
        <ele>2696</ele>
        <time>2026-07-29T09:27:44.716Z</time>
      </trkpt>
      <trkpt lat="45.73264" lon="6.72288">
        <ele>2696</ele>
        <time>2026-07-29T09:27:45.716Z</time>
      </trkpt>
      <trkpt lat="45.73263" lon="6.7229">
        <ele>2696</ele>
        <time>2026-07-29T09:27:46.716Z</time>
      </trkpt>
      <trkpt lat="45.73261" lon="6.72291">
        <ele>2696</ele>
        <time>2026-07-29T09:27:47.716Z</time>
      </trkpt>
      <trkpt lat="45.73259" lon="6.72292">
        <ele>2695</ele>
        <time>2026-07-29T09:27:48.716Z</time>
      </trkpt>
      <trkpt lat="45.73257" lon="6.72293">
        <ele>2695</ele>
        <time>2026-07-29T09:27:49.716Z</time>
      </trkpt>
      <trkpt lat="45.73255" lon="6.72292">
        <ele>2695</ele>
        <time>2026-07-29T09:27:50.716Z</time>
      </trkpt>
      <trkpt lat="45.73252" lon="6.72292">
        <ele>2695</ele>
        <time>2026-07-29T09:27:51.716Z</time>
      </trkpt>
      <trkpt lat="45.73251" lon="6.72292">
        <ele>2695</ele>
        <time>2026-07-29T09:27:52.716Z</time>
      </trkpt>
      <trkpt lat="45.73249" lon="6.72291">
        <ele>2695</ele>
        <time>2026-07-29T09:27:53.716Z</time>
      </trkpt>
      <trkpt lat="45.73247" lon="6.72291">
        <ele>2694</ele>
        <time>2026-07-29T09:27:54.716Z</time>
      </trkpt>
      <trkpt lat="45.73245" lon="6.7229">
        <ele>2694</ele>
        <time>2026-07-29T09:27:55.716Z</time>
      </trkpt>
      <trkpt lat="45.73244" lon="6.72291">
        <ele>2693</ele>
        <time>2026-07-29T09:27:56.716Z</time>
      </trkpt>
      <trkpt lat="45.73242" lon="6.72292">
        <ele>2693</ele>
        <time>2026-07-29T09:27:57.716Z</time>
      </trkpt>
      <trkpt lat="45.73241" lon="6.72292">
        <ele>2692</ele>
        <time>2026-07-29T09:27:58.716Z</time>
      </trkpt>
      <trkpt lat="45.7324" lon="6.72292">
        <ele>2692</ele>
        <time>2026-07-29T09:27:59.716Z</time>
      </trkpt>
      <trkpt lat="45.73238" lon="6.72292">
        <ele>2691</ele>
        <time>2026-07-29T09:28:00.716Z</time>
      </trkpt>
      <trkpt lat="45.73237" lon="6.72293">
        <ele>2691</ele>
        <time>2026-07-29T09:28:01.716Z</time>
      </trkpt>
      <trkpt lat="45.73236" lon="6.72294">
        <ele>2690</ele>
        <time>2026-07-29T09:28:02.716Z</time>
      </trkpt>
      <trkpt lat="45.73235" lon="6.72296">
        <ele>2690</ele>
        <time>2026-07-29T09:28:03.716Z</time>
      </trkpt>
      <trkpt lat="45.73233" lon="6.72298">
        <ele>2690</ele>
        <time>2026-07-29T09:28:04.716Z</time>
      </trkpt>
      <trkpt lat="45.73232" lon="6.723">
        <ele>2689</ele>
        <time>2026-07-29T09:28:05.716Z</time>
      </trkpt>
      <trkpt lat="45.7323" lon="6.72302">
        <ele>2689</ele>
        <time>2026-07-29T09:28:06.716Z</time>
      </trkpt>
      <trkpt lat="45.73229" lon="6.72305">
        <ele>2688</ele>
        <time>2026-07-29T09:28:07.716Z</time>
      </trkpt>
      <trkpt lat="45.73228" lon="6.72307">
        <ele>2688</ele>
        <time>2026-07-29T09:28:08.716Z</time>
      </trkpt>
      <trkpt lat="45.73228" lon="6.7231">
        <ele>2687</ele>
        <time>2026-07-29T09:28:09.716Z</time>
      </trkpt>
      <trkpt lat="45.73227" lon="6.72312">
        <ele>2687</ele>
        <time>2026-07-29T09:28:10.716Z</time>
      </trkpt>
      <trkpt lat="45.73226" lon="6.72314">
        <ele>2687</ele>
        <time>2026-07-29T09:28:11.716Z</time>
      </trkpt>
      <trkpt lat="45.73225" lon="6.72316">
        <ele>2686</ele>
        <time>2026-07-29T09:28:12.716Z</time>
      </trkpt>
      <trkpt lat="45.73223" lon="6.72317">
        <ele>2686</ele>
        <time>2026-07-29T09:28:13.716Z</time>
      </trkpt>
      <trkpt lat="45.73222" lon="6.72318">
        <ele>2685</ele>
        <time>2026-07-29T09:28:14.716Z</time>
      </trkpt>
      <trkpt lat="45.7322" lon="6.72319">
        <ele>2685</ele>
        <time>2026-07-29T09:28:15.716Z</time>
      </trkpt>
      <trkpt lat="45.73219" lon="6.72321">
        <ele>2684</ele>
        <time>2026-07-29T09:28:16.716Z</time>
      </trkpt>
      <trkpt lat="45.73218" lon="6.72323">
        <ele>2684</ele>
        <time>2026-07-29T09:28:17.716Z</time>
      </trkpt>
      <trkpt lat="45.73217" lon="6.72326">
        <ele>2684</ele>
        <time>2026-07-29T09:28:18.716Z</time>
      </trkpt>
      <trkpt lat="45.73216" lon="6.72329">
        <ele>2683</ele>
        <time>2026-07-29T09:28:19.716Z</time>
      </trkpt>
      <trkpt lat="45.73215" lon="6.72331">
        <ele>2683</ele>
        <time>2026-07-29T09:28:20.716Z</time>
      </trkpt>
      <trkpt lat="45.73214" lon="6.72333">
        <ele>2682</ele>
        <time>2026-07-29T09:28:21.716Z</time>
      </trkpt>
      <trkpt lat="45.73213" lon="6.72334">
        <ele>2682</ele>
        <time>2026-07-29T09:28:22.716Z</time>
      </trkpt>
      <trkpt lat="45.73212" lon="6.72335">
        <ele>2682</ele>
        <time>2026-07-29T09:28:23.716Z</time>
      </trkpt>
      <trkpt lat="45.73212" lon="6.72337">
        <ele>2682</ele>
        <time>2026-07-29T09:28:24.716Z</time>
      </trkpt>
      <trkpt lat="45.73211" lon="6.72337">
        <ele>2681</ele>
        <time>2026-07-29T09:28:25.716Z</time>
      </trkpt>
      <trkpt lat="45.73211" lon="6.72338">
        <ele>2681</ele>
        <time>2026-07-29T09:28:26.716Z</time>
      </trkpt>
      <trkpt lat="45.73211" lon="6.72338">
        <ele>2681</ele>
        <time>2026-07-29T09:28:27.716Z</time>
      </trkpt>
      <trkpt lat="45.73211" lon="6.72338">
        <ele>2682</ele>
        <time>2026-07-29T09:28:28.716Z</time>
      </trkpt>
      <trkpt lat="45.73211" lon="6.72339">
        <ele>2682</ele>
        <time>2026-07-29T09:28:29.716Z</time>
      </trkpt>
      <trkpt lat="45.73211" lon="6.72339">
        <ele>2683</ele>
        <time>2026-07-29T09:28:30.716Z</time>
      </trkpt>
      <trkpt lat="45.73211" lon="6.72339">
        <ele>2684</ele>
        <time>2026-07-29T09:28:31.716Z</time>
      </trkpt>
      <trkpt lat="45.73211" lon="6.72339">
        <ele>2684</ele>
        <time>2026-07-29T09:28:32.716Z</time>
      </trkpt>
      <trkpt lat="45.73211" lon="6.7234">
        <ele>2685</ele>
        <time>2026-07-29T09:28:33.716Z</time>
      </trkpt>
      <trkpt lat="45.73212" lon="6.72341">
        <ele>2685</ele>
        <time>2026-07-29T09:28:34.716Z</time>
      </trkpt>
      <trkpt lat="45.73212" lon="6.72343">
        <ele>2685</ele>
        <time>2026-07-29T09:28:35.716Z</time>
      </trkpt>
      <trkpt lat="45.73213" lon="6.72345">
        <ele>2684</ele>
        <time>2026-07-29T09:28:36.716Z</time>
      </trkpt>
      <trkpt lat="45.73213" lon="6.72348">
        <ele>2684</ele>
        <time>2026-07-29T09:28:37.716Z</time>
      </trkpt>
      <trkpt lat="45.73213" lon="6.7235">
        <ele>2684</ele>
        <time>2026-07-29T09:28:38.716Z</time>
      </trkpt>
      <trkpt lat="45.73213" lon="6.72353">
        <ele>2684</ele>
        <time>2026-07-29T09:28:39.716Z</time>
      </trkpt>
      <trkpt lat="45.73213" lon="6.72355">
        <ele>2683</ele>
        <time>2026-07-29T09:28:40.716Z</time>
      </trkpt>
      <trkpt lat="45.73213" lon="6.72357">
        <ele>2683</ele>
        <time>2026-07-29T09:28:41.716Z</time>
      </trkpt>
      <trkpt lat="45.73213" lon="6.72359">
        <ele>2683</ele>
        <time>2026-07-29T09:28:42.716Z</time>
      </trkpt>
      <trkpt lat="45.73213" lon="6.7236">
        <ele>2683</ele>
        <time>2026-07-29T09:28:43.716Z</time>
      </trkpt>
      <trkpt lat="45.73213" lon="6.72361">
        <ele>2683</ele>
        <time>2026-07-29T09:28:44.716Z</time>
      </trkpt>
      <trkpt lat="45.73213" lon="6.72361">
        <ele>2683</ele>
        <time>2026-07-29T09:28:45.716Z</time>
      </trkpt>
      <trkpt lat="45.73213" lon="6.72361">
        <ele>2683</ele>
        <time>2026-07-29T09:28:46.716Z</time>
      </trkpt>
      <trkpt lat="45.73213" lon="6.72361">
        <ele>2682</ele>
        <time>2026-07-29T09:28:47.716Z</time>
      </trkpt>
      <trkpt lat="45.73213" lon="6.72362">
        <ele>2682</ele>
        <time>2026-07-29T09:28:48.716Z</time>
      </trkpt>
      <trkpt lat="45.73213" lon="6.72362">
        <ele>2682</ele>
        <time>2026-07-29T09:28:49.716Z</time>
      </trkpt>
      <trkpt lat="45.73213" lon="6.72362">
        <ele>2682</ele>
        <time>2026-07-29T09:28:50.716Z</time>
      </trkpt>
      <trkpt lat="45.73213" lon="6.72362">
        <ele>2682</ele>
        <time>2026-07-29T09:28:51.716Z</time>
      </trkpt>
      <trkpt lat="45.73213" lon="6.72362">
        <ele>2681</ele>
        <time>2026-07-29T09:28:52.716Z</time>
      </trkpt>
      <trkpt lat="45.73213" lon="6.72362">
        <ele>2681</ele>
        <time>2026-07-29T09:28:53.716Z</time>
      </trkpt>
      <trkpt lat="45.73213" lon="6.72362">
        <ele>2681</ele>
        <time>2026-07-29T09:28:54.716Z</time>
      </trkpt>
      <trkpt lat="45.73213" lon="6.72362">
        <ele>2681</ele>
        <time>2026-07-29T09:28:55.716Z</time>
      </trkpt>
      <trkpt lat="45.73213" lon="6.72362">
        <ele>2681</ele>
        <time>2026-07-29T09:28:56.716Z</time>
      </trkpt>
      <trkpt lat="45.73213" lon="6.72363">
        <ele>2681</ele>
        <time>2026-07-29T09:28:57.716Z</time>
      </trkpt>
      <trkpt lat="45.73213" lon="6.72364">
        <ele>2682</ele>
        <time>2026-07-29T09:28:58.716Z</time>
      </trkpt>
      <trkpt lat="45.73212" lon="6.72366">
        <ele>2681</ele>
        <time>2026-07-29T09:28:59.716Z</time>
      </trkpt>
      <trkpt lat="45.73212" lon="6.72368">
        <ele>2681</ele>
        <time>2026-07-29T09:29:00.716Z</time>
      </trkpt>
      <trkpt lat="45.73211" lon="6.7237">
        <ele>2681</ele>
        <time>2026-07-29T09:29:01.716Z</time>
      </trkpt>
      <trkpt lat="45.73211" lon="6.72371">
        <ele>2681</ele>
        <time>2026-07-29T09:29:02.716Z</time>
      </trkpt>
      <trkpt lat="45.7321" lon="6.72373">
        <ele>2680</ele>
        <time>2026-07-29T09:29:03.716Z</time>
      </trkpt>
      <trkpt lat="45.7321" lon="6.72375">
        <ele>2680</ele>
        <time>2026-07-29T09:29:04.716Z</time>
      </trkpt>
      <trkpt lat="45.7321" lon="6.72376">
        <ele>2680</ele>
        <time>2026-07-29T09:29:05.716Z</time>
      </trkpt>
      <trkpt lat="45.73209" lon="6.72378">
        <ele>2680</ele>
        <time>2026-07-29T09:29:06.716Z</time>
      </trkpt>
      <trkpt lat="45.73209" lon="6.72378">
        <ele>2680</ele>
        <time>2026-07-29T09:29:07.716Z</time>
      </trkpt>
      <trkpt lat="45.73208" lon="6.72379">
        <ele>2679</ele>
        <time>2026-07-29T09:29:08.716Z</time>
      </trkpt>
      <trkpt lat="45.73207" lon="6.72379">
        <ele>2679</ele>
        <time>2026-07-29T09:29:09.716Z</time>
      </trkpt>
      <trkpt lat="45.73207" lon="6.72378">
        <ele>2679</ele>
        <time>2026-07-29T09:29:10.716Z</time>
      </trkpt>
      <trkpt lat="45.73206" lon="6.72378">
        <ele>2679</ele>
        <time>2026-07-29T09:29:11.716Z</time>
      </trkpt>
      <trkpt lat="45.73206" lon="6.72378">
        <ele>2679</ele>
        <time>2026-07-29T09:29:12.716Z</time>
      </trkpt>
      <trkpt lat="45.73206" lon="6.72378">
        <ele>2679</ele>
        <time>2026-07-29T09:29:13.716Z</time>
      </trkpt>
      <trkpt lat="45.73206" lon="6.72378">
        <ele>2678</ele>
        <time>2026-07-29T09:29:14.716Z</time>
      </trkpt>
      <trkpt lat="45.73206" lon="6.72378">
        <ele>2678</ele>
        <time>2026-07-29T09:29:15.716Z</time>
      </trkpt>
      <trkpt lat="45.73205" lon="6.72378">
        <ele>2678</ele>
        <time>2026-07-29T09:29:16.716Z</time>
      </trkpt>
      <trkpt lat="45.73205" lon="6.72378">
        <ele>2678</ele>
        <time>2026-07-29T09:29:17.716Z</time>
      </trkpt>
      <trkpt lat="45.73205" lon="6.72378">
        <ele>2678</ele>
        <time>2026-07-29T09:29:18.716Z</time>
      </trkpt>
      <trkpt lat="45.73205" lon="6.72378">
        <ele>2677</ele>
        <time>2026-07-29T09:29:19.716Z</time>
      </trkpt>
      <trkpt lat="45.73204" lon="6.72379">
        <ele>2677</ele>
        <time>2026-07-29T09:29:20.716Z</time>
      </trkpt>
      <trkpt lat="45.73203" lon="6.72379">
        <ele>2677</ele>
        <time>2026-07-29T09:29:21.716Z</time>
      </trkpt>
      <trkpt lat="45.73202" lon="6.7238">
        <ele>2677</ele>
        <time>2026-07-29T09:29:22.716Z</time>
      </trkpt>
      <trkpt lat="45.73201" lon="6.72381">
        <ele>2677</ele>
        <time>2026-07-29T09:29:23.716Z</time>
      </trkpt>
      <trkpt lat="45.732" lon="6.72382">
        <ele>2677</ele>
        <time>2026-07-29T09:29:24.716Z</time>
      </trkpt>
      <trkpt lat="45.732" lon="6.72383">
        <ele>2677</ele>
        <time>2026-07-29T09:29:25.716Z</time>
      </trkpt>
      <trkpt lat="45.73199" lon="6.72384">
        <ele>2677</ele>
        <time>2026-07-29T09:29:26.716Z</time>
      </trkpt>
      <trkpt lat="45.73198" lon="6.72385">
        <ele>2676</ele>
        <time>2026-07-29T09:29:27.716Z</time>
      </trkpt>
      <trkpt lat="45.73198" lon="6.72386">
        <ele>2676</ele>
        <time>2026-07-29T09:29:28.716Z</time>
      </trkpt>
      <trkpt lat="45.73197" lon="6.72386">
        <ele>2675</ele>
        <time>2026-07-29T09:29:29.716Z</time>
      </trkpt>
      <trkpt lat="45.73196" lon="6.72387">
        <ele>2675</ele>
        <time>2026-07-29T09:29:30.716Z</time>
      </trkpt>
      <trkpt lat="45.73195" lon="6.72386">
        <ele>2674</ele>
        <time>2026-07-29T09:29:31.716Z</time>
      </trkpt>
      <trkpt lat="45.73194" lon="6.72385">
        <ele>2674</ele>
        <time>2026-07-29T09:29:32.716Z</time>
      </trkpt>
      <trkpt lat="45.73193" lon="6.72384">
        <ele>2674</ele>
        <time>2026-07-29T09:29:33.716Z</time>
      </trkpt>
      <trkpt lat="45.73192" lon="6.72384">
        <ele>2673</ele>
        <time>2026-07-29T09:29:34.716Z</time>
      </trkpt>
      <trkpt lat="45.73191" lon="6.72383">
        <ele>2673</ele>
        <time>2026-07-29T09:29:35.716Z</time>
      </trkpt>
      <trkpt lat="45.7319" lon="6.72382">
        <ele>2673</ele>
        <time>2026-07-29T09:29:36.716Z</time>
      </trkpt>
      <trkpt lat="45.73188" lon="6.72381">
        <ele>2673</ele>
        <time>2026-07-29T09:29:37.716Z</time>
      </trkpt>
      <trkpt lat="45.73186" lon="6.7238">
        <ele>2672</ele>
        <time>2026-07-29T09:29:38.716Z</time>
      </trkpt>
      <trkpt lat="45.73185" lon="6.72379">
        <ele>2672</ele>
        <time>2026-07-29T09:29:39.716Z</time>
      </trkpt>
      <trkpt lat="45.73184" lon="6.72379">
        <ele>2672</ele>
        <time>2026-07-29T09:29:40.716Z</time>
      </trkpt>
      <trkpt lat="45.73182" lon="6.7238">
        <ele>2671</ele>
        <time>2026-07-29T09:29:41.716Z</time>
      </trkpt>
      <trkpt lat="45.73181" lon="6.72381">
        <ele>2671</ele>
        <time>2026-07-29T09:29:42.716Z</time>
      </trkpt>
      <trkpt lat="45.73181" lon="6.72381">
        <ele>2671</ele>
        <time>2026-07-29T09:29:43.716Z</time>
      </trkpt>
      <trkpt lat="45.7318" lon="6.72382">
        <ele>2671</ele>
        <time>2026-07-29T09:29:44.716Z</time>
      </trkpt>
      <trkpt lat="45.7318" lon="6.72382">
        <ele>2671</ele>
        <time>2026-07-29T09:29:45.716Z</time>
      </trkpt>
      <trkpt lat="45.73179" lon="6.72382">
        <ele>2670</ele>
        <time>2026-07-29T09:29:46.716Z</time>
      </trkpt>
      <trkpt lat="45.73178" lon="6.72383">
        <ele>2670</ele>
        <time>2026-07-29T09:29:47.716Z</time>
      </trkpt>
      <trkpt lat="45.73176" lon="6.72383">
        <ele>2670</ele>
        <time>2026-07-29T09:29:48.716Z</time>
      </trkpt>
      <trkpt lat="45.73175" lon="6.72384">
        <ele>2670</ele>
        <time>2026-07-29T09:29:49.716Z</time>
      </trkpt>
      <trkpt lat="45.73174" lon="6.72384">
        <ele>2670</ele>
        <time>2026-07-29T09:29:50.716Z</time>
      </trkpt>
      <trkpt lat="45.73173" lon="6.72385">
        <ele>2670</ele>
        <time>2026-07-29T09:29:51.716Z</time>
      </trkpt>
      <trkpt lat="45.73172" lon="6.72385">
        <ele>2671</ele>
        <time>2026-07-29T09:29:52.716Z</time>
      </trkpt>
      <trkpt lat="45.73171" lon="6.72385">
        <ele>2671</ele>
        <time>2026-07-29T09:29:53.716Z</time>
      </trkpt>
      <trkpt lat="45.73171" lon="6.72385">
        <ele>2671</ele>
        <time>2026-07-29T09:29:54.716Z</time>
      </trkpt>
      <trkpt lat="45.7317" lon="6.72385">
        <ele>2671</ele>
        <time>2026-07-29T09:29:55.716Z</time>
      </trkpt>
      <trkpt lat="45.7317" lon="6.72386">
        <ele>2672</ele>
        <time>2026-07-29T09:29:56.716Z</time>
      </trkpt>
      <trkpt lat="45.73169" lon="6.72386">
        <ele>2672</ele>
        <time>2026-07-29T09:29:57.716Z</time>
      </trkpt>
      <trkpt lat="45.73169" lon="6.72387">
        <ele>2672</ele>
        <time>2026-07-29T09:29:58.716Z</time>
      </trkpt>
      <trkpt lat="45.73169" lon="6.72387">
        <ele>2673</ele>
        <time>2026-07-29T09:29:59.716Z</time>
      </trkpt>
      <trkpt lat="45.73168" lon="6.72387">
        <ele>2673</ele>
        <time>2026-07-29T09:30:00.716Z</time>
      </trkpt>
      <trkpt lat="45.73168" lon="6.72388">
        <ele>2673</ele>
        <time>2026-07-29T09:30:01.716Z</time>
      </trkpt>
      <trkpt lat="45.73167" lon="6.72388">
        <ele>2673</ele>
        <time>2026-07-29T09:30:02.716Z</time>
      </trkpt>
      <trkpt lat="45.73167" lon="6.72388">
        <ele>2673</ele>
        <time>2026-07-29T09:30:03.716Z</time>
      </trkpt>
      <trkpt lat="45.73167" lon="6.72388">
        <ele>2673</ele>
        <time>2026-07-29T09:30:04.716Z</time>
      </trkpt>
      <trkpt lat="45.73167" lon="6.72388">
        <ele>2673</ele>
        <time>2026-07-29T09:30:05.716Z</time>
      </trkpt>
      <trkpt lat="45.73166" lon="6.72387">
        <ele>2673</ele>
        <time>2026-07-29T09:30:06.716Z</time>
      </trkpt>
      <trkpt lat="45.73166" lon="6.72387">
        <ele>2672</ele>
        <time>2026-07-29T09:30:07.716Z</time>
      </trkpt>
      <trkpt lat="45.73165" lon="6.72387">
        <ele>2672</ele>
        <time>2026-07-29T09:30:08.716Z</time>
      </trkpt>
      <trkpt lat="45.73164" lon="6.72386">
        <ele>2672</ele>
        <time>2026-07-29T09:30:09.716Z</time>
      </trkpt>
      <trkpt lat="45.73163" lon="6.72386">
        <ele>2672</ele>
        <time>2026-07-29T09:30:10.716Z</time>
      </trkpt>
      <trkpt lat="45.73162" lon="6.72385">
        <ele>2671</ele>
        <time>2026-07-29T09:30:11.716Z</time>
      </trkpt>
      <trkpt lat="45.73162" lon="6.72385">
        <ele>2671</ele>
        <time>2026-07-29T09:30:12.716Z</time>
      </trkpt>
      <trkpt lat="45.73161" lon="6.72384">
        <ele>2671</ele>
        <time>2026-07-29T09:30:13.716Z</time>
      </trkpt>
      <trkpt lat="45.7316" lon="6.72383">
        <ele>2671</ele>
        <time>2026-07-29T09:30:14.716Z</time>
      </trkpt>
      <trkpt lat="45.73159" lon="6.72381">
        <ele>2671</ele>
        <time>2026-07-29T09:30:15.716Z</time>
      </trkpt>
      <trkpt lat="45.73157" lon="6.72381">
        <ele>2671</ele>
        <time>2026-07-29T09:30:16.716Z</time>
      </trkpt>
      <trkpt lat="45.73156" lon="6.7238">
        <ele>2671</ele>
        <time>2026-07-29T09:30:17.716Z</time>
      </trkpt>
      <trkpt lat="45.73155" lon="6.7238">
        <ele>2671</ele>
        <time>2026-07-29T09:30:18.716Z</time>
      </trkpt>
      <trkpt lat="45.73155" lon="6.72381">
        <ele>2671</ele>
        <time>2026-07-29T09:30:19.716Z</time>
      </trkpt>
      <trkpt lat="45.73154" lon="6.72382">
        <ele>2671</ele>
        <time>2026-07-29T09:30:20.716Z</time>
      </trkpt>
      <trkpt lat="45.73154" lon="6.72384">
        <ele>2671</ele>
        <time>2026-07-29T09:30:21.716Z</time>
      </trkpt>
      <trkpt lat="45.73153" lon="6.72385">
        <ele>2671</ele>
        <time>2026-07-29T09:30:22.716Z</time>
      </trkpt>
      <trkpt lat="45.73152" lon="6.72385">
        <ele>2671</ele>
        <time>2026-07-29T09:30:23.716Z</time>
      </trkpt>
      <trkpt lat="45.73152" lon="6.72384">
        <ele>2672</ele>
        <time>2026-07-29T09:30:24.716Z</time>
      </trkpt>
      <trkpt lat="45.7315" lon="6.72382">
        <ele>2672</ele>
        <time>2026-07-29T09:30:25.716Z</time>
      </trkpt>
      <trkpt lat="45.73149" lon="6.72382">
        <ele>2672</ele>
        <time>2026-07-29T09:30:26.716Z</time>
      </trkpt>
      <trkpt lat="45.73148" lon="6.72381">
        <ele>2672</ele>
        <time>2026-07-29T09:30:27.716Z</time>
      </trkpt>
      <trkpt lat="45.73148" lon="6.72381">
        <ele>2671</ele>
        <time>2026-07-29T09:30:28.716Z</time>
      </trkpt>
      <trkpt lat="45.73147" lon="6.7238">
        <ele>2671</ele>
        <time>2026-07-29T09:30:29.716Z</time>
      </trkpt>
      <trkpt lat="45.73146" lon="6.72379">
        <ele>2670</ele>
        <time>2026-07-29T09:30:30.716Z</time>
      </trkpt>
      <trkpt lat="45.73145" lon="6.72378">
        <ele>2670</ele>
        <time>2026-07-29T09:30:31.716Z</time>
      </trkpt>
      <trkpt lat="45.73145" lon="6.72377">
        <ele>2670</ele>
        <time>2026-07-29T09:30:32.716Z</time>
      </trkpt>
      <trkpt lat="45.73144" lon="6.72377">
        <ele>2670</ele>
        <time>2026-07-29T09:30:33.716Z</time>
      </trkpt>
      <trkpt lat="45.73144" lon="6.72376">
        <ele>2670</ele>
        <time>2026-07-29T09:30:34.716Z</time>
      </trkpt>
      <trkpt lat="45.73144" lon="6.72376">
        <ele>2670</ele>
        <time>2026-07-29T09:30:35.716Z</time>
      </trkpt>
      <trkpt lat="45.73143" lon="6.72376">
        <ele>2670</ele>
        <time>2026-07-29T09:30:36.716Z</time>
      </trkpt>
      <trkpt lat="45.73143" lon="6.72376">
        <ele>2670</ele>
        <time>2026-07-29T09:30:37.716Z</time>
      </trkpt>
      <trkpt lat="45.73142" lon="6.72376">
        <ele>2670</ele>
        <time>2026-07-29T09:30:38.716Z</time>
      </trkpt>
      <trkpt lat="45.73142" lon="6.72376">
        <ele>2670</ele>
        <time>2026-07-29T09:30:39.716Z</time>
      </trkpt>
      <trkpt lat="45.73142" lon="6.72378">
        <ele>2670</ele>
        <time>2026-07-29T09:30:40.716Z</time>
      </trkpt>
      <trkpt lat="45.73141" lon="6.72379">
        <ele>2670</ele>
        <time>2026-07-29T09:30:41.716Z</time>
      </trkpt>
      <trkpt lat="45.7314" lon="6.7238">
        <ele>2669</ele>
        <time>2026-07-29T09:30:42.716Z</time>
      </trkpt>
      <trkpt lat="45.7314" lon="6.72381">
        <ele>2669</ele>
        <time>2026-07-29T09:30:43.716Z</time>
      </trkpt>
      <trkpt lat="45.7314" lon="6.72382">
        <ele>2669</ele>
        <time>2026-07-29T09:30:44.716Z</time>
      </trkpt>
      <trkpt lat="45.73139" lon="6.72383">
        <ele>2669</ele>
        <time>2026-07-29T09:30:45.716Z</time>
      </trkpt>
      <trkpt lat="45.73139" lon="6.72384">
        <ele>2669</ele>
        <time>2026-07-29T09:30:46.716Z</time>
      </trkpt>
      <trkpt lat="45.73139" lon="6.72386">
        <ele>2669</ele>
        <time>2026-07-29T09:30:47.716Z</time>
      </trkpt>
      <trkpt lat="45.73138" lon="6.72387">
        <ele>2669</ele>
        <time>2026-07-29T09:30:48.716Z</time>
      </trkpt>
      <trkpt lat="45.73138" lon="6.72388">
        <ele>2669</ele>
        <time>2026-07-29T09:30:49.716Z</time>
      </trkpt>
      <trkpt lat="45.73137" lon="6.72389">
        <ele>2669</ele>
        <time>2026-07-29T09:30:50.716Z</time>
      </trkpt>
      <trkpt lat="45.73137" lon="6.72389">
        <ele>2668</ele>
        <time>2026-07-29T09:30:51.716Z</time>
      </trkpt>
      <trkpt lat="45.73136" lon="6.7239">
        <ele>2668</ele>
        <time>2026-07-29T09:30:52.716Z</time>
      </trkpt>
      <trkpt lat="45.73136" lon="6.7239">
        <ele>2668</ele>
        <time>2026-07-29T09:30:53.716Z</time>
      </trkpt>
      <trkpt lat="45.73135" lon="6.7239">
        <ele>2667</ele>
        <time>2026-07-29T09:30:54.716Z</time>
      </trkpt>
      <trkpt lat="45.73135" lon="6.7239">
        <ele>2667</ele>
        <time>2026-07-29T09:30:55.716Z</time>
      </trkpt>
      <trkpt lat="45.73134" lon="6.72391">
        <ele>2667</ele>
        <time>2026-07-29T09:30:56.716Z</time>
      </trkpt>
      <trkpt lat="45.73134" lon="6.72392">
        <ele>2666</ele>
        <time>2026-07-29T09:30:57.716Z</time>
      </trkpt>
      <trkpt lat="45.73133" lon="6.72393">
        <ele>2666</ele>
        <time>2026-07-29T09:30:58.716Z</time>
      </trkpt>
      <trkpt lat="45.73133" lon="6.72395">
        <ele>2666</ele>
        <time>2026-07-29T09:30:59.716Z</time>
      </trkpt>
      <trkpt lat="45.73132" lon="6.72396">
        <ele>2666</ele>
        <time>2026-07-29T09:31:00.716Z</time>
      </trkpt>
      <trkpt lat="45.73131" lon="6.72396">
        <ele>2666</ele>
        <time>2026-07-29T09:31:01.716Z</time>
      </trkpt>
      <trkpt lat="45.7313" lon="6.72397">
        <ele>2666</ele>
        <time>2026-07-29T09:31:02.716Z</time>
      </trkpt>
      <trkpt lat="45.7313" lon="6.72397">
        <ele>2665</ele>
        <time>2026-07-29T09:31:03.716Z</time>
      </trkpt>
      <trkpt lat="45.73129" lon="6.72398">
        <ele>2665</ele>
        <time>2026-07-29T09:31:04.716Z</time>
      </trkpt>
      <trkpt lat="45.73128" lon="6.724">
        <ele>2665</ele>
        <time>2026-07-29T09:31:05.716Z</time>
      </trkpt>
      <trkpt lat="45.73127" lon="6.72401">
        <ele>2665</ele>
        <time>2026-07-29T09:31:06.716Z</time>
      </trkpt>
      <trkpt lat="45.73126" lon="6.72402">
        <ele>2665</ele>
        <time>2026-07-29T09:31:07.716Z</time>
      </trkpt>
      <trkpt lat="45.73124" lon="6.72403">
        <ele>2665</ele>
        <time>2026-07-29T09:31:08.716Z</time>
      </trkpt>
      <trkpt lat="45.73123" lon="6.72404">
        <ele>2665</ele>
        <time>2026-07-29T09:31:09.716Z</time>
      </trkpt>
      <trkpt lat="45.73122" lon="6.72405">
        <ele>2665</ele>
        <time>2026-07-29T09:31:10.716Z</time>
      </trkpt>
      <trkpt lat="45.7312" lon="6.72405">
        <ele>2665</ele>
        <time>2026-07-29T09:31:11.716Z</time>
      </trkpt>
      <trkpt lat="45.73119" lon="6.72406">
        <ele>2665</ele>
        <time>2026-07-29T09:31:12.716Z</time>
      </trkpt>
      <trkpt lat="45.73119" lon="6.72406">
        <ele>2665</ele>
        <time>2026-07-29T09:31:13.716Z</time>
      </trkpt>
      <trkpt lat="45.73118" lon="6.72407">
        <ele>2665</ele>
        <time>2026-07-29T09:31:14.716Z</time>
      </trkpt>
      <trkpt lat="45.73117" lon="6.72408">
        <ele>2665</ele>
        <time>2026-07-29T09:31:15.716Z</time>
      </trkpt>
      <trkpt lat="45.73116" lon="6.72409">
        <ele>2665</ele>
        <time>2026-07-29T09:31:16.716Z</time>
      </trkpt>
      <trkpt lat="45.73115" lon="6.7241">
        <ele>2665</ele>
        <time>2026-07-29T09:31:17.716Z</time>
      </trkpt>
      <trkpt lat="45.73115" lon="6.72411">
        <ele>2665</ele>
        <time>2026-07-29T09:31:18.716Z</time>
      </trkpt>
      <trkpt lat="45.73114" lon="6.72412">
        <ele>2665</ele>
        <time>2026-07-29T09:31:19.716Z</time>
      </trkpt>
      <trkpt lat="45.73113" lon="6.72412">
        <ele>2666</ele>
        <time>2026-07-29T09:31:20.716Z</time>
      </trkpt>
      <trkpt lat="45.73113" lon="6.72413">
        <ele>2666</ele>
        <time>2026-07-29T09:31:21.716Z</time>
      </trkpt>
      <trkpt lat="45.73112" lon="6.72414">
        <ele>2666</ele>
        <time>2026-07-29T09:31:22.716Z</time>
      </trkpt>
      <trkpt lat="45.73112" lon="6.72414">
        <ele>2666</ele>
        <time>2026-07-29T09:31:23.716Z</time>
      </trkpt>
      <trkpt lat="45.73111" lon="6.72414">
        <ele>2666</ele>
        <time>2026-07-29T09:31:24.716Z</time>
      </trkpt>
      <trkpt lat="45.73111" lon="6.72415">
        <ele>2666</ele>
        <time>2026-07-29T09:31:25.716Z</time>
      </trkpt>
      <trkpt lat="45.73111" lon="6.72416">
        <ele>2666</ele>
        <time>2026-07-29T09:31:26.716Z</time>
      </trkpt>
      <trkpt lat="45.7311" lon="6.72417">
        <ele>2666</ele>
        <time>2026-07-29T09:31:27.716Z</time>
      </trkpt>
      <trkpt lat="45.73109" lon="6.72417">
        <ele>2666</ele>
        <time>2026-07-29T09:31:28.716Z</time>
      </trkpt>
      <trkpt lat="45.73109" lon="6.72417">
        <ele>2666</ele>
        <time>2026-07-29T09:31:29.716Z</time>
      </trkpt>
      <trkpt lat="45.73108" lon="6.72417">
        <ele>2667</ele>
        <time>2026-07-29T09:31:30.716Z</time>
      </trkpt>
      <trkpt lat="45.73108" lon="6.72417">
        <ele>2667</ele>
        <time>2026-07-29T09:31:31.716Z</time>
      </trkpt>
      <trkpt lat="45.73107" lon="6.72418">
        <ele>2667</ele>
        <time>2026-07-29T09:31:32.716Z</time>
      </trkpt>
      <trkpt lat="45.73106" lon="6.72418">
        <ele>2667</ele>
        <time>2026-07-29T09:31:33.716Z</time>
      </trkpt>
      <trkpt lat="45.73106" lon="6.72418">
        <ele>2668</ele>
        <time>2026-07-29T09:31:34.716Z</time>
      </trkpt>
      <trkpt lat="45.73106" lon="6.72419">
        <ele>2668</ele>
        <time>2026-07-29T09:31:35.716Z</time>
      </trkpt>
      <trkpt lat="45.73105" lon="6.7242">
        <ele>2669</ele>
        <time>2026-07-29T09:31:36.716Z</time>
      </trkpt>
      <trkpt lat="45.73105" lon="6.7242">
        <ele>2669</ele>
        <time>2026-07-29T09:31:37.716Z</time>
      </trkpt>
      <trkpt lat="45.73104" lon="6.7242">
        <ele>2669</ele>
        <time>2026-07-29T09:31:38.716Z</time>
      </trkpt>
      <trkpt lat="45.73103" lon="6.7242">
        <ele>2669</ele>
        <time>2026-07-29T09:31:39.716Z</time>
      </trkpt>
      <trkpt lat="45.73103" lon="6.7242">
        <ele>2669</ele>
        <time>2026-07-29T09:31:40.716Z</time>
      </trkpt>
      <trkpt lat="45.73102" lon="6.7242">
        <ele>2669</ele>
        <time>2026-07-29T09:31:41.716Z</time>
      </trkpt>
      <trkpt lat="45.73101" lon="6.7242">
        <ele>2669</ele>
        <time>2026-07-29T09:31:42.716Z</time>
      </trkpt>
      <trkpt lat="45.731" lon="6.7242">
        <ele>2669</ele>
        <time>2026-07-29T09:31:43.716Z</time>
      </trkpt>
      <trkpt lat="45.731" lon="6.7242">
        <ele>2669</ele>
        <time>2026-07-29T09:31:44.716Z</time>
      </trkpt>
      <trkpt lat="45.73099" lon="6.7242">
        <ele>2669</ele>
        <time>2026-07-29T09:31:45.716Z</time>
      </trkpt>
      <trkpt lat="45.73098" lon="6.7242">
        <ele>2669</ele>
        <time>2026-07-29T09:31:46.716Z</time>
      </trkpt>
      <trkpt lat="45.73098" lon="6.7242">
        <ele>2670</ele>
        <time>2026-07-29T09:31:47.716Z</time>
      </trkpt>
      <trkpt lat="45.73097" lon="6.7242">
        <ele>2670</ele>
        <time>2026-07-29T09:31:48.716Z</time>
      </trkpt>
      <trkpt lat="45.73096" lon="6.72419">
        <ele>2670</ele>
        <time>2026-07-29T09:31:49.716Z</time>
      </trkpt>
      <trkpt lat="45.73096" lon="6.72419">
        <ele>2670</ele>
        <time>2026-07-29T09:31:50.716Z</time>
      </trkpt>
      <trkpt lat="45.73095" lon="6.72419">
        <ele>2671</ele>
        <time>2026-07-29T09:31:51.716Z</time>
      </trkpt>
      <trkpt lat="45.73095" lon="6.72418">
        <ele>2671</ele>
        <time>2026-07-29T09:31:52.716Z</time>
      </trkpt>
      <trkpt lat="45.73094" lon="6.72418">
        <ele>2671</ele>
        <time>2026-07-29T09:31:53.716Z</time>
      </trkpt>
      <trkpt lat="45.73094" lon="6.72418">
        <ele>2672</ele>
        <time>2026-07-29T09:31:54.716Z</time>
      </trkpt>
      <trkpt lat="45.73093" lon="6.72418">
        <ele>2672</ele>
        <time>2026-07-29T09:31:55.716Z</time>
      </trkpt>
      <trkpt lat="45.73092" lon="6.72418">
        <ele>2672</ele>
        <time>2026-07-29T09:31:56.716Z</time>
      </trkpt>
      <trkpt lat="45.73091" lon="6.72418">
        <ele>2672</ele>
        <time>2026-07-29T09:31:57.716Z</time>
      </trkpt>
      <trkpt lat="45.73091" lon="6.72417">
        <ele>2672</ele>
        <time>2026-07-29T09:31:58.716Z</time>
      </trkpt>
      <trkpt lat="45.7309" lon="6.72417">
        <ele>2672</ele>
        <time>2026-07-29T09:31:59.716Z</time>
      </trkpt>
      <trkpt lat="45.7309" lon="6.72417">
        <ele>2673</ele>
        <time>2026-07-29T09:32:00.716Z</time>
      </trkpt>
      <trkpt lat="45.73089" lon="6.72417">
        <ele>2673</ele>
        <time>2026-07-29T09:32:01.716Z</time>
      </trkpt>
      <trkpt lat="45.73088" lon="6.72417">
        <ele>2673</ele>
        <time>2026-07-29T09:32:02.716Z</time>
      </trkpt>
      <trkpt lat="45.73088" lon="6.72417">
        <ele>2674</ele>
        <time>2026-07-29T09:32:03.716Z</time>
      </trkpt>
      <trkpt lat="45.73087" lon="6.72416">
        <ele>2674</ele>
        <time>2026-07-29T09:32:04.716Z</time>
      </trkpt>
      <trkpt lat="45.73086" lon="6.72416">
        <ele>2674</ele>
        <time>2026-07-29T09:32:05.716Z</time>
      </trkpt>
      <trkpt lat="45.73086" lon="6.72416">
        <ele>2675</ele>
        <time>2026-07-29T09:32:06.716Z</time>
      </trkpt>
      <trkpt lat="45.73085" lon="6.72416">
        <ele>2675</ele>
        <time>2026-07-29T09:32:07.716Z</time>
      </trkpt>
      <trkpt lat="45.73084" lon="6.72416">
        <ele>2675</ele>
        <time>2026-07-29T09:32:08.716Z</time>
      </trkpt>
      <trkpt lat="45.73084" lon="6.72417">
        <ele>2675</ele>
        <time>2026-07-29T09:32:09.716Z</time>
      </trkpt>
      <trkpt lat="45.73084" lon="6.72417">
        <ele>2675</ele>
        <time>2026-07-29T09:32:10.716Z</time>
      </trkpt>
      <trkpt lat="45.73084" lon="6.72418">
        <ele>2675</ele>
        <time>2026-07-29T09:32:11.716Z</time>
      </trkpt>
      <trkpt lat="45.73084" lon="6.72418">
        <ele>2676</ele>
        <time>2026-07-29T09:32:12.716Z</time>
      </trkpt>
      <trkpt lat="45.73084" lon="6.72419">
        <ele>2676</ele>
        <time>2026-07-29T09:32:13.716Z</time>
      </trkpt>
      <trkpt lat="45.73084" lon="6.7242">
        <ele>2676</ele>
        <time>2026-07-29T09:32:14.716Z</time>
      </trkpt>
      <trkpt lat="45.73084" lon="6.7242">
        <ele>2676</ele>
        <time>2026-07-29T09:32:15.716Z</time>
      </trkpt>
      <trkpt lat="45.73085" lon="6.72421">
        <ele>2676</ele>
        <time>2026-07-29T09:32:16.716Z</time>
      </trkpt>
      <trkpt lat="45.73085" lon="6.72422">
        <ele>2676</ele>
        <time>2026-07-29T09:32:17.716Z</time>
      </trkpt>
      <trkpt lat="45.73085" lon="6.72423">
        <ele>2676</ele>
        <time>2026-07-29T09:32:18.716Z</time>
      </trkpt>
      <trkpt lat="45.73085" lon="6.72423">
        <ele>2676</ele>
        <time>2026-07-29T09:32:19.716Z</time>
      </trkpt>
      <trkpt lat="45.73085" lon="6.72424">
        <ele>2677</ele>
        <time>2026-07-29T09:32:20.716Z</time>
      </trkpt>
      <trkpt lat="45.73085" lon="6.72424">
        <ele>2677</ele>
        <time>2026-07-29T09:32:21.716Z</time>
      </trkpt>
      <trkpt lat="45.73085" lon="6.72424">
        <ele>2677</ele>
        <time>2026-07-29T09:32:22.716Z</time>
      </trkpt>
      <trkpt lat="45.73085" lon="6.72425">
        <ele>2677</ele>
        <time>2026-07-29T09:32:23.716Z</time>
      </trkpt>
      <trkpt lat="45.73085" lon="6.72425">
        <ele>2678</ele>
        <time>2026-07-29T09:32:24.716Z</time>
      </trkpt>
      <trkpt lat="45.73085" lon="6.72426">
        <ele>2678</ele>
        <time>2026-07-29T09:32:25.716Z</time>
      </trkpt>
      <trkpt lat="45.73085" lon="6.72427">
        <ele>2678</ele>
        <time>2026-07-29T09:32:26.716Z</time>
      </trkpt>
      <trkpt lat="45.73084" lon="6.72428">
        <ele>2679</ele>
        <time>2026-07-29T09:32:27.716Z</time>
      </trkpt>
      <trkpt lat="45.73084" lon="6.72429">
        <ele>2679</ele>
        <time>2026-07-29T09:32:28.716Z</time>
      </trkpt>
      <trkpt lat="45.73083" lon="6.72429">
        <ele>2679</ele>
        <time>2026-07-29T09:32:29.716Z</time>
      </trkpt>
      <trkpt lat="45.73083" lon="6.7243">
        <ele>2680</ele>
        <time>2026-07-29T09:32:30.716Z</time>
      </trkpt>
      <trkpt lat="45.73082" lon="6.72429">
        <ele>2680</ele>
        <time>2026-07-29T09:32:31.716Z</time>
      </trkpt>
      <trkpt lat="45.73081" lon="6.72429">
        <ele>2679</ele>
        <time>2026-07-29T09:32:32.716Z</time>
      </trkpt>
      <trkpt lat="45.7308" lon="6.72429">
        <ele>2680</ele>
        <time>2026-07-29T09:32:33.716Z</time>
      </trkpt>
      <trkpt lat="45.73079" lon="6.72429">
        <ele>2680</ele>
        <time>2026-07-29T09:32:34.716Z</time>
      </trkpt>
      <trkpt lat="45.73078" lon="6.72428">
        <ele>2681</ele>
        <time>2026-07-29T09:32:35.716Z</time>
      </trkpt>
      <trkpt lat="45.73077" lon="6.72428">
        <ele>2681</ele>
        <time>2026-07-29T09:32:36.716Z</time>
      </trkpt>
      <trkpt lat="45.73076" lon="6.72427">
        <ele>2681</ele>
        <time>2026-07-29T09:32:37.716Z</time>
      </trkpt>
      <trkpt lat="45.73075" lon="6.72427">
        <ele>2682</ele>
        <time>2026-07-29T09:32:38.716Z</time>
      </trkpt>
      <trkpt lat="45.73074" lon="6.72427">
        <ele>2682</ele>
        <time>2026-07-29T09:32:39.716Z</time>
      </trkpt>
      <trkpt lat="45.73074" lon="6.72427">
        <ele>2683</ele>
        <time>2026-07-29T09:32:40.716Z</time>
      </trkpt>
      <trkpt lat="45.73073" lon="6.72427">
        <ele>2683</ele>
        <time>2026-07-29T09:32:41.716Z</time>
      </trkpt>
      <trkpt lat="45.73072" lon="6.72428">
        <ele>2683</ele>
        <time>2026-07-29T09:32:42.716Z</time>
      </trkpt>
      <trkpt lat="45.73071" lon="6.72428">
        <ele>2684</ele>
        <time>2026-07-29T09:32:43.716Z</time>
      </trkpt>
      <trkpt lat="45.7307" lon="6.72428">
        <ele>2684</ele>
        <time>2026-07-29T09:32:44.716Z</time>
      </trkpt>
      <trkpt lat="45.73069" lon="6.72429">
        <ele>2684</ele>
        <time>2026-07-29T09:32:45.716Z</time>
      </trkpt>
      <trkpt lat="45.73068" lon="6.72429">
        <ele>2684</ele>
        <time>2026-07-29T09:32:46.716Z</time>
      </trkpt>
      <trkpt lat="45.73067" lon="6.72429">
        <ele>2685</ele>
        <time>2026-07-29T09:32:47.716Z</time>
      </trkpt>
      <trkpt lat="45.73066" lon="6.7243">
        <ele>2685</ele>
        <time>2026-07-29T09:32:48.716Z</time>
      </trkpt>
      <trkpt lat="45.73066" lon="6.7243">
        <ele>2685</ele>
        <time>2026-07-29T09:32:49.716Z</time>
      </trkpt>
      <trkpt lat="45.73065" lon="6.7243">
        <ele>2686</ele>
        <time>2026-07-29T09:32:50.716Z</time>
      </trkpt>
      <trkpt lat="45.73064" lon="6.72431">
        <ele>2686</ele>
        <time>2026-07-29T09:32:51.716Z</time>
      </trkpt>
      <trkpt lat="45.73063" lon="6.72431">
        <ele>2686</ele>
        <time>2026-07-29T09:32:52.716Z</time>
      </trkpt>
      <trkpt lat="45.73063" lon="6.72432">
        <ele>2687</ele>
        <time>2026-07-29T09:32:53.716Z</time>
      </trkpt>
      <trkpt lat="45.73062" lon="6.72432">
        <ele>2687</ele>
        <time>2026-07-29T09:32:54.716Z</time>
      </trkpt>
      <trkpt lat="45.73061" lon="6.72432">
        <ele>2687</ele>
        <time>2026-07-29T09:32:55.716Z</time>
      </trkpt>
      <trkpt lat="45.7306" lon="6.72433">
        <ele>2688</ele>
        <time>2026-07-29T09:32:56.716Z</time>
      </trkpt>
      <trkpt lat="45.73059" lon="6.72433">
        <ele>2688</ele>
        <time>2026-07-29T09:32:57.716Z</time>
      </trkpt>
      <trkpt lat="45.73059" lon="6.72433">
        <ele>2689</ele>
        <time>2026-07-29T09:32:58.716Z</time>
      </trkpt>
      <trkpt lat="45.73058" lon="6.72434">
        <ele>2690</ele>
        <time>2026-07-29T09:32:59.716Z</time>
      </trkpt>
      <trkpt lat="45.73057" lon="6.72435">
        <ele>2690</ele>
        <time>2026-07-29T09:33:00.716Z</time>
      </trkpt>
      <trkpt lat="45.73056" lon="6.72435">
        <ele>2691</ele>
        <time>2026-07-29T09:33:01.716Z</time>
      </trkpt>
      <trkpt lat="45.73055" lon="6.72435">
        <ele>2691</ele>
        <time>2026-07-29T09:33:02.716Z</time>
      </trkpt>
      <trkpt lat="45.73054" lon="6.72435">
        <ele>2692</ele>
        <time>2026-07-29T09:33:03.716Z</time>
      </trkpt>
      <trkpt lat="45.73054" lon="6.72436">
        <ele>2692</ele>
        <time>2026-07-29T09:33:04.716Z</time>
      </trkpt>
      <trkpt lat="45.73053" lon="6.72436">
        <ele>2692</ele>
        <time>2026-07-29T09:33:05.716Z</time>
      </trkpt>
      <trkpt lat="45.73053" lon="6.72437">
        <ele>2692</ele>
        <time>2026-07-29T09:33:06.716Z</time>
      </trkpt>
      <trkpt lat="45.73053" lon="6.72437">
        <ele>2692</ele>
        <time>2026-07-29T09:33:07.716Z</time>
      </trkpt>
      <trkpt lat="45.73053" lon="6.72438">
        <ele>2693</ele>
        <time>2026-07-29T09:33:08.716Z</time>
      </trkpt>
      <trkpt lat="45.73053" lon="6.72438">
        <ele>2693</ele>
        <time>2026-07-29T09:33:09.716Z</time>
      </trkpt>
      <trkpt lat="45.73053" lon="6.72439">
        <ele>2693</ele>
        <time>2026-07-29T09:33:10.716Z</time>
      </trkpt>
      <trkpt lat="45.73053" lon="6.72439">
        <ele>2693</ele>
        <time>2026-07-29T09:33:11.716Z</time>
      </trkpt>
      <trkpt lat="45.73053" lon="6.72439">
        <ele>2693</ele>
        <time>2026-07-29T09:33:12.716Z</time>
      </trkpt>
      <trkpt lat="45.73053" lon="6.72439">
        <ele>2693</ele>
        <time>2026-07-29T09:33:13.716Z</time>
      </trkpt>
      <trkpt lat="45.73053" lon="6.72439">
        <ele>2693</ele>
        <time>2026-07-29T09:33:14.716Z</time>
      </trkpt>
      <trkpt lat="45.73053" lon="6.72439">
        <ele>2693</ele>
        <time>2026-07-29T09:33:15.716Z</time>
      </trkpt>
      <trkpt lat="45.73053" lon="6.72439">
        <ele>2693</ele>
        <time>2026-07-29T09:33:16.716Z</time>
      </trkpt>
      <trkpt lat="45.73053" lon="6.72439">
        <ele>2693</ele>
        <time>2026-07-29T09:33:17.716Z</time>
      </trkpt>
      <trkpt lat="45.73053" lon="6.72439">
        <ele>2693</ele>
        <time>2026-07-29T09:33:18.716Z</time>
      </trkpt>
      <trkpt lat="45.73053" lon="6.72439">
        <ele>2693</ele>
        <time>2026-07-29T09:33:19.716Z</time>
      </trkpt>
      <trkpt lat="45.73053" lon="6.72439">
        <ele>2693</ele>
        <time>2026-07-29T09:33:20.716Z</time>
      </trkpt>
      <trkpt lat="45.73053" lon="6.72439">
        <ele>2693</ele>
        <time>2026-07-29T09:33:21.716Z</time>
      </trkpt>
      <trkpt lat="45.73053" lon="6.72439">
        <ele>2693</ele>
        <time>2026-07-29T09:33:22.716Z</time>
      </trkpt>
      <trkpt lat="45.73053" lon="6.72439">
        <ele>2693</ele>
        <time>2026-07-29T09:33:23.716Z</time>
      </trkpt>
      <trkpt lat="45.73053" lon="6.72439">
        <ele>2693</ele>
        <time>2026-07-29T09:33:24.716Z</time>
      </trkpt>
      <trkpt lat="45.73053" lon="6.72439">
        <ele>2693</ele>
        <time>2026-07-29T09:33:25.716Z</time>
      </trkpt>
      <trkpt lat="45.73053" lon="6.72439">
        <ele>2693</ele>
        <time>2026-07-29T09:33:26.716Z</time>
      </trkpt>
      <trkpt lat="45.73053" lon="6.72439">
        <ele>2693</ele>
        <time>2026-07-29T09:33:27.716Z</time>
      </trkpt>
      <trkpt lat="45.73053" lon="6.72439">
        <ele>2693</ele>
        <time>2026-07-29T09:33:28.716Z</time>
      </trkpt>
      <trkpt lat="45.73053" lon="6.72439">
        <ele>2693</ele>
        <time>2026-07-29T09:33:29.716Z</time>
      </trkpt>
      <trkpt lat="45.73053" lon="6.7244">
        <ele>2693</ele>
        <time>2026-07-29T09:33:30.716Z</time>
      </trkpt>
      <trkpt lat="45.73054" lon="6.72441">
        <ele>2693</ele>
        <time>2026-07-29T09:33:31.716Z</time>
      </trkpt>
      <trkpt lat="45.73055" lon="6.72443">
        <ele>2693</ele>
        <time>2026-07-29T09:33:32.716Z</time>
      </trkpt>
      <trkpt lat="45.73056" lon="6.72444">
        <ele>2693</ele>
        <time>2026-07-29T09:33:33.716Z</time>
      </trkpt>
      <trkpt lat="45.73056" lon="6.72446">
        <ele>2693</ele>
        <time>2026-07-29T09:33:34.716Z</time>
      </trkpt>
      <trkpt lat="45.73056" lon="6.72447">
        <ele>2693</ele>
        <time>2026-07-29T09:33:35.716Z</time>
      </trkpt>
      <trkpt lat="45.73056" lon="6.72448">
        <ele>2694</ele>
        <time>2026-07-29T09:33:36.716Z</time>
      </trkpt>
      <trkpt lat="45.73056" lon="6.72449">
        <ele>2694</ele>
        <time>2026-07-29T09:33:37.716Z</time>
      </trkpt>
      <trkpt lat="45.73056" lon="6.7245">
        <ele>2695</ele>
        <time>2026-07-29T09:33:38.716Z</time>
      </trkpt>
      <trkpt lat="45.73056" lon="6.72452">
        <ele>2695</ele>
        <time>2026-07-29T09:33:39.716Z</time>
      </trkpt>
      <trkpt lat="45.73056" lon="6.72452">
        <ele>2696</ele>
        <time>2026-07-29T09:33:40.716Z</time>
      </trkpt>
      <trkpt lat="45.73056" lon="6.72453">
        <ele>2696</ele>
        <time>2026-07-29T09:33:41.716Z</time>
      </trkpt>
      <trkpt lat="45.73056" lon="6.72453">
        <ele>2696</ele>
        <time>2026-07-29T09:33:42.716Z</time>
      </trkpt>
      <trkpt lat="45.73055" lon="6.72452">
        <ele>2697</ele>
        <time>2026-07-29T09:33:43.717Z</time>
      </trkpt>
      <trkpt lat="45.73055" lon="6.72452">
        <ele>2697</ele>
        <time>2026-07-29T09:33:44.716Z</time>
      </trkpt>
      <trkpt lat="45.73055" lon="6.72452">
        <ele>2697</ele>
        <time>2026-07-29T09:33:45.716Z</time>
      </trkpt>
      <trkpt lat="45.73054" lon="6.72451">
        <ele>2698</ele>
        <time>2026-07-29T09:33:46.716Z</time>
      </trkpt>
      <trkpt lat="45.73054" lon="6.72451">
        <ele>2698</ele>
        <time>2026-07-29T09:33:47.716Z</time>
      </trkpt>
      <trkpt lat="45.73054" lon="6.72451">
        <ele>2698</ele>
        <time>2026-07-29T09:33:48.716Z</time>
      </trkpt>
      <trkpt lat="45.73054" lon="6.72451">
        <ele>2699</ele>
        <time>2026-07-29T09:33:49.716Z</time>
      </trkpt>
      <trkpt lat="45.73054" lon="6.72451">
        <ele>2699</ele>
        <time>2026-07-29T09:33:50.716Z</time>
      </trkpt>
      <trkpt lat="45.73054" lon="6.72451">
        <ele>2699</ele>
        <time>2026-07-29T09:33:51.716Z</time>
      </trkpt>
      <trkpt lat="45.73054" lon="6.72451">
        <ele>2698</ele>
        <time>2026-07-29T09:33:52.716Z</time>
      </trkpt>
      <trkpt lat="45.73054" lon="6.72451">
        <ele>2698</ele>
        <time>2026-07-29T09:33:53.716Z</time>
      </trkpt>
      <trkpt lat="45.73054" lon="6.72451">
        <ele>2697</ele>
        <time>2026-07-29T09:33:54.716Z</time>
      </trkpt>
      <trkpt lat="45.73054" lon="6.72451">
        <ele>2697</ele>
        <time>2026-07-29T09:33:55.716Z</time>
      </trkpt>
      <trkpt lat="45.73054" lon="6.72451">
        <ele>2697</ele>
        <time>2026-07-29T09:33:56.716Z</time>
      </trkpt>
      <trkpt lat="45.73054" lon="6.72451">
        <ele>2697</ele>
        <time>2026-07-29T09:33:57.716Z</time>
      </trkpt>
      <trkpt lat="45.73054" lon="6.72451">
        <ele>2697</ele>
        <time>2026-07-29T09:33:58.716Z</time>
      </trkpt>
      <trkpt lat="45.73054" lon="6.72451">
        <ele>2697</ele>
        <time>2026-07-29T09:33:59.716Z</time>
      </trkpt>
      <trkpt lat="45.73054" lon="6.72451">
        <ele>2697</ele>
        <time>2026-07-29T09:34:00.716Z</time>
      </trkpt>
      <trkpt lat="45.73054" lon="6.72451">
        <ele>2697</ele>
        <time>2026-07-29T09:34:01.716Z</time>
      </trkpt>
      <trkpt lat="45.73054" lon="6.72451">
        <ele>2698</ele>
        <time>2026-07-29T09:34:02.716Z</time>
      </trkpt>
      <trkpt lat="45.73054" lon="6.72451">
        <ele>2698</ele>
        <time>2026-07-29T09:34:03.716Z</time>
      </trkpt>
      <trkpt lat="45.73054" lon="6.72451">
        <ele>2698</ele>
        <time>2026-07-29T09:34:04.716Z</time>
      </trkpt>
      <trkpt lat="45.73054" lon="6.72451">
        <ele>2698</ele>
        <time>2026-07-29T09:34:05.716Z</time>
      </trkpt>
      <trkpt lat="45.73054" lon="6.72451">
        <ele>2698</ele>
        <time>2026-07-29T09:34:06.716Z</time>
      </trkpt>
      <trkpt lat="45.73054" lon="6.72451">
        <ele>2698</ele>
        <time>2026-07-29T09:34:07.716Z</time>
      </trkpt>
      <trkpt lat="45.73054" lon="6.72451">
        <ele>2698</ele>
        <time>2026-07-29T09:34:08.716Z</time>
      </trkpt>
      <trkpt lat="45.73054" lon="6.72451">
        <ele>2698</ele>
        <time>2026-07-29T09:34:09.716Z</time>
      </trkpt>
      <trkpt lat="45.73056" lon="6.72452">
        <ele>2698</ele>
        <time>2026-07-29T09:34:10.716Z</time>
      </trkpt>
      <trkpt lat="45.73056" lon="6.72452">
        <ele>2698</ele>
        <time>2026-07-29T09:34:11.716Z</time>
      </trkpt>
      <trkpt lat="45.73057" lon="6.72454">
        <ele>2699</ele>
        <time>2026-07-29T09:34:12.716Z</time>
      </trkpt>
      <trkpt lat="45.73057" lon="6.72454">
        <ele>2699</ele>
        <time>2026-07-29T09:34:13.716Z</time>
      </trkpt>
      <trkpt lat="45.73058" lon="6.72453">
        <ele>2699</ele>
        <time>2026-07-29T09:34:14.716Z</time>
      </trkpt>
      <trkpt lat="45.73058" lon="6.72451">
        <ele>2699</ele>
        <time>2026-07-29T09:34:15.716Z</time>
      </trkpt>
      <trkpt lat="45.73058" lon="6.72451">
        <ele>2699</ele>
        <time>2026-07-29T09:34:16.716Z</time>
      </trkpt>
      <trkpt lat="45.73057" lon="6.7245">
        <ele>2698</ele>
        <time>2026-07-29T09:34:17.716Z</time>
      </trkpt>
      <trkpt lat="45.73057" lon="6.72448">
        <ele>2698</ele>
        <time>2026-07-29T09:34:18.716Z</time>
      </trkpt>
      <trkpt lat="45.73056" lon="6.72448">
        <ele>2698</ele>
        <time>2026-07-29T09:34:19.716Z</time>
      </trkpt>
      <trkpt lat="45.73055" lon="6.72447">
        <ele>2698</ele>
        <time>2026-07-29T09:34:20.716Z</time>
      </trkpt>
      <trkpt lat="45.73055" lon="6.72447">
        <ele>2698</ele>
        <time>2026-07-29T09:34:21.716Z</time>
      </trkpt>
      <trkpt lat="45.73054" lon="6.72448">
        <ele>2698</ele>
        <time>2026-07-29T09:34:22.716Z</time>
      </trkpt>
      <trkpt lat="45.73053" lon="6.72448">
        <ele>2698</ele>
        <time>2026-07-29T09:34:23.716Z</time>
      </trkpt>
      <trkpt lat="45.73052" lon="6.72447">
        <ele>2698</ele>
        <time>2026-07-29T09:34:24.716Z</time>
      </trkpt>
      <trkpt lat="45.73051" lon="6.72447">
        <ele>2698</ele>
        <time>2026-07-29T09:34:25.716Z</time>
      </trkpt>
      <trkpt lat="45.73051" lon="6.72446">
        <ele>2698</ele>
        <time>2026-07-29T09:34:26.716Z</time>
      </trkpt>
      <trkpt lat="45.7305" lon="6.72446">
        <ele>2698</ele>
        <time>2026-07-29T09:34:27.716Z</time>
      </trkpt>
      <trkpt lat="45.7305" lon="6.72446">
        <ele>2698</ele>
        <time>2026-07-29T09:34:28.716Z</time>
      </trkpt>
      <trkpt lat="45.7305" lon="6.72446">
        <ele>2698</ele>
        <time>2026-07-29T09:34:29.716Z</time>
      </trkpt>
      <trkpt lat="45.7305" lon="6.72445">
        <ele>2698</ele>
        <time>2026-07-29T09:34:30.716Z</time>
      </trkpt>
      <trkpt lat="45.73049" lon="6.72444">
        <ele>2698</ele>
        <time>2026-07-29T09:34:31.716Z</time>
      </trkpt>
      <trkpt lat="45.73049" lon="6.72443">
        <ele>2698</ele>
        <time>2026-07-29T09:34:32.716Z</time>
      </trkpt>
      <trkpt lat="45.73049" lon="6.72442">
        <ele>2698</ele>
        <time>2026-07-29T09:34:33.716Z</time>
      </trkpt>
      <trkpt lat="45.73048" lon="6.72441">
        <ele>2699</ele>
        <time>2026-07-29T09:34:34.716Z</time>
      </trkpt>
      <trkpt lat="45.73047" lon="6.72439">
        <ele>2699</ele>
        <time>2026-07-29T09:34:35.716Z</time>
      </trkpt>
      <trkpt lat="45.73047" lon="6.72439">
        <ele>2699</ele>
        <time>2026-07-29T09:34:36.716Z</time>
      </trkpt>
      <trkpt lat="45.73046" lon="6.72438">
        <ele>2699</ele>
        <time>2026-07-29T09:34:37.716Z</time>
      </trkpt>
      <trkpt lat="45.73045" lon="6.72437">
        <ele>2700</ele>
        <time>2026-07-29T09:34:38.716Z</time>
      </trkpt>
      <trkpt lat="45.73043" lon="6.72436">
        <ele>2700</ele>
        <time>2026-07-29T09:34:39.716Z</time>
      </trkpt>
      <trkpt lat="45.73042" lon="6.72435">
        <ele>2700</ele>
        <time>2026-07-29T09:34:40.716Z</time>
      </trkpt>
      <trkpt lat="45.73039" lon="6.72436">
        <ele>2700</ele>
        <time>2026-07-29T09:34:41.716Z</time>
      </trkpt>
      <trkpt lat="45.73037" lon="6.72436">
        <ele>2700</ele>
        <time>2026-07-29T09:34:42.716Z</time>
      </trkpt>
      <trkpt lat="45.73036" lon="6.72435">
        <ele>2700</ele>
        <time>2026-07-29T09:34:43.716Z</time>
      </trkpt>
      <trkpt lat="45.73034" lon="6.72433">
        <ele>2700</ele>
        <time>2026-07-29T09:34:44.716Z</time>
      </trkpt>
      <trkpt lat="45.73033" lon="6.72433">
        <ele>2700</ele>
        <time>2026-07-29T09:34:45.716Z</time>
      </trkpt>
      <trkpt lat="45.73032" lon="6.72432">
        <ele>2700</ele>
        <time>2026-07-29T09:34:46.716Z</time>
      </trkpt>
      <trkpt lat="45.73031" lon="6.72432">
        <ele>2701</ele>
        <time>2026-07-29T09:34:47.716Z</time>
      </trkpt>
      <trkpt lat="45.73031" lon="6.72431">
        <ele>2701</ele>
        <time>2026-07-29T09:34:48.716Z</time>
      </trkpt>
      <trkpt lat="45.7303" lon="6.7243">
        <ele>2701</ele>
        <time>2026-07-29T09:34:49.716Z</time>
      </trkpt>
      <trkpt lat="45.7303" lon="6.72431">
        <ele>2700</ele>
        <time>2026-07-29T09:34:50.716Z</time>
      </trkpt>
      <trkpt lat="45.7303" lon="6.72431">
        <ele>2700</ele>
        <time>2026-07-29T09:34:51.716Z</time>
      </trkpt>
      <trkpt lat="45.7303" lon="6.72431">
        <ele>2700</ele>
        <time>2026-07-29T09:34:52.716Z</time>
      </trkpt>
      <trkpt lat="45.73029" lon="6.7243">
        <ele>2700</ele>
        <time>2026-07-29T09:34:53.716Z</time>
      </trkpt>
      <trkpt lat="45.73029" lon="6.7243">
        <ele>2700</ele>
        <time>2026-07-29T09:34:54.716Z</time>
      </trkpt>
      <trkpt lat="45.73028" lon="6.7243">
        <ele>2700</ele>
        <time>2026-07-29T09:34:55.716Z</time>
      </trkpt>
      <trkpt lat="45.73028" lon="6.7243">
        <ele>2700</ele>
        <time>2026-07-29T09:34:56.716Z</time>
      </trkpt>
      <trkpt lat="45.73028" lon="6.7243">
        <ele>2700</ele>
        <time>2026-07-29T09:34:57.716Z</time>
      </trkpt>
      <trkpt lat="45.73028" lon="6.72432">
        <ele>2699</ele>
        <time>2026-07-29T09:34:58.716Z</time>
      </trkpt>
      <trkpt lat="45.73028" lon="6.72432">
        <ele>2699</ele>
        <time>2026-07-29T09:34:59.716Z</time>
      </trkpt>
      <trkpt lat="45.73028" lon="6.72432">
        <ele>2699</ele>
        <time>2026-07-29T09:35:00.716Z</time>
      </trkpt>
      <trkpt lat="45.73028" lon="6.72432">
        <ele>2699</ele>
        <time>2026-07-29T09:35:01.716Z</time>
      </trkpt>
      <trkpt lat="45.73028" lon="6.72433">
        <ele>2699</ele>
        <time>2026-07-29T09:35:02.716Z</time>
      </trkpt>
      <trkpt lat="45.73028" lon="6.72433">
        <ele>2698</ele>
        <time>2026-07-29T09:35:03.716Z</time>
      </trkpt>
      <trkpt lat="45.73028" lon="6.72433">
        <ele>2698</ele>
        <time>2026-07-29T09:35:04.716Z</time>
      </trkpt>
      <trkpt lat="45.73028" lon="6.72433">
        <ele>2698</ele>
        <time>2026-07-29T09:35:05.716Z</time>
      </trkpt>
      <trkpt lat="45.73028" lon="6.72433">
        <ele>2697</ele>
        <time>2026-07-29T09:35:06.716Z</time>
      </trkpt>
      <trkpt lat="45.73028" lon="6.72433">
        <ele>2697</ele>
        <time>2026-07-29T09:35:07.716Z</time>
      </trkpt>
      <trkpt lat="45.73028" lon="6.72433">
        <ele>2697</ele>
        <time>2026-07-29T09:35:08.716Z</time>
      </trkpt>
      <trkpt lat="45.73028" lon="6.72433">
        <ele>2696</ele>
        <time>2026-07-29T09:35:09.716Z</time>
      </trkpt>
      <trkpt lat="45.73028" lon="6.72433">
        <ele>2696</ele>
        <time>2026-07-29T09:35:10.716Z</time>
      </trkpt>
      <trkpt lat="45.73028" lon="6.72433">
        <ele>2696</ele>
        <time>2026-07-29T09:35:11.716Z</time>
      </trkpt>
      <trkpt lat="45.73028" lon="6.72433">
        <ele>2696</ele>
        <time>2026-07-29T09:35:12.716Z</time>
      </trkpt>
      <trkpt lat="45.73028" lon="6.72433">
        <ele>2696</ele>
        <time>2026-07-29T09:35:13.716Z</time>
      </trkpt>
      <trkpt lat="45.73028" lon="6.72433">
        <ele>2695</ele>
        <time>2026-07-29T09:35:14.716Z</time>
      </trkpt>
      <trkpt lat="45.73027" lon="6.72433">
        <ele>2695</ele>
        <time>2026-07-29T09:35:15.716Z</time>
      </trkpt>
      <trkpt lat="45.73027" lon="6.72434">
        <ele>2695</ele>
        <time>2026-07-29T09:35:16.716Z</time>
      </trkpt>
      <trkpt lat="45.73026" lon="6.72435">
        <ele>2695</ele>
        <time>2026-07-29T09:35:17.716Z</time>
      </trkpt>
      <trkpt lat="45.73025" lon="6.72436">
        <ele>2695</ele>
        <time>2026-07-29T09:35:18.716Z</time>
      </trkpt>
      <trkpt lat="45.73025" lon="6.72438">
        <ele>2695</ele>
        <time>2026-07-29T09:35:19.716Z</time>
      </trkpt>
      <trkpt lat="45.73024" lon="6.72439">
        <ele>2696</ele>
        <time>2026-07-29T09:35:20.716Z</time>
      </trkpt>
      <trkpt lat="45.73023" lon="6.7244">
        <ele>2696</ele>
        <time>2026-07-29T09:35:21.716Z</time>
      </trkpt>
      <trkpt lat="45.73023" lon="6.72442">
        <ele>2697</ele>
        <time>2026-07-29T09:35:22.716Z</time>
      </trkpt>
      <trkpt lat="45.73022" lon="6.72443">
        <ele>2697</ele>
        <time>2026-07-29T09:35:23.716Z</time>
      </trkpt>
      <trkpt lat="45.73021" lon="6.72444">
        <ele>2698</ele>
        <time>2026-07-29T09:35:24.716Z</time>
      </trkpt>
      <trkpt lat="45.73021" lon="6.72445">
        <ele>2698</ele>
        <time>2026-07-29T09:35:25.716Z</time>
      </trkpt>
      <trkpt lat="45.7302" lon="6.72446">
        <ele>2698</ele>
        <time>2026-07-29T09:35:26.716Z</time>
      </trkpt>
      <trkpt lat="45.73019" lon="6.72446">
        <ele>2699</ele>
        <time>2026-07-29T09:35:27.716Z</time>
      </trkpt>
      <trkpt lat="45.73019" lon="6.72447">
        <ele>2699</ele>
        <time>2026-07-29T09:35:28.716Z</time>
      </trkpt>
      <trkpt lat="45.73018" lon="6.72447">
        <ele>2700</ele>
        <time>2026-07-29T09:35:29.716Z</time>
      </trkpt>
      <trkpt lat="45.73017" lon="6.72447">
        <ele>2700</ele>
        <time>2026-07-29T09:35:30.716Z</time>
      </trkpt>
      <trkpt lat="45.73017" lon="6.72447">
        <ele>2701</ele>
        <time>2026-07-29T09:35:31.716Z</time>
      </trkpt>
      <trkpt lat="45.73017" lon="6.72447">
        <ele>2701</ele>
        <time>2026-07-29T09:35:32.716Z</time>
      </trkpt>
      <trkpt lat="45.73017" lon="6.72447">
        <ele>2702</ele>
        <time>2026-07-29T09:35:33.716Z</time>
      </trkpt>
      <trkpt lat="45.73017" lon="6.72447">
        <ele>2702</ele>
        <time>2026-07-29T09:35:34.716Z</time>
      </trkpt>
      <trkpt lat="45.73017" lon="6.72447">
        <ele>2703</ele>
        <time>2026-07-29T09:35:35.716Z</time>
      </trkpt>
      <trkpt lat="45.73017" lon="6.72447">
        <ele>2703</ele>
        <time>2026-07-29T09:35:36.716Z</time>
      </trkpt>
      <trkpt lat="45.73017" lon="6.72447">
        <ele>2703</ele>
        <time>2026-07-29T09:35:37.716Z</time>
      </trkpt>
      <trkpt lat="45.73016" lon="6.72447">
        <ele>2704</ele>
        <time>2026-07-29T09:35:38.716Z</time>
      </trkpt>
      <trkpt lat="45.73015" lon="6.72447">
        <ele>2704</ele>
        <time>2026-07-29T09:35:39.716Z</time>
      </trkpt>
      <trkpt lat="45.73014" lon="6.72448">
        <ele>2704</ele>
        <time>2026-07-29T09:35:40.716Z</time>
      </trkpt>
      <trkpt lat="45.73013" lon="6.72448">
        <ele>2704</ele>
        <time>2026-07-29T09:35:41.716Z</time>
      </trkpt>
      <trkpt lat="45.73012" lon="6.72448">
        <ele>2704</ele>
        <time>2026-07-29T09:35:42.716Z</time>
      </trkpt>
      <trkpt lat="45.73011" lon="6.72448">
        <ele>2704</ele>
        <time>2026-07-29T09:35:43.716Z</time>
      </trkpt>
      <trkpt lat="45.7301" lon="6.72449">
        <ele>2705</ele>
        <time>2026-07-29T09:35:44.716Z</time>
      </trkpt>
      <trkpt lat="45.73009" lon="6.72449">
        <ele>2705</ele>
        <time>2026-07-29T09:35:45.716Z</time>
      </trkpt>
      <trkpt lat="45.73008" lon="6.7245">
        <ele>2705</ele>
        <time>2026-07-29T09:35:46.716Z</time>
      </trkpt>
      <trkpt lat="45.73007" lon="6.7245">
        <ele>2705</ele>
        <time>2026-07-29T09:35:47.716Z</time>
      </trkpt>
      <trkpt lat="45.73006" lon="6.72451">
        <ele>2705</ele>
        <time>2026-07-29T09:35:48.716Z</time>
      </trkpt>
      <trkpt lat="45.73006" lon="6.72451">
        <ele>2705</ele>
        <time>2026-07-29T09:35:49.716Z</time>
      </trkpt>
      <trkpt lat="45.73005" lon="6.72451">
        <ele>2705</ele>
        <time>2026-07-29T09:35:50.716Z</time>
      </trkpt>
      <trkpt lat="45.73005" lon="6.72452">
        <ele>2705</ele>
        <time>2026-07-29T09:35:51.716Z</time>
      </trkpt>
      <trkpt lat="45.73004" lon="6.72452">
        <ele>2706</ele>
        <time>2026-07-29T09:35:52.716Z</time>
      </trkpt>
      <trkpt lat="45.73004" lon="6.72452">
        <ele>2706</ele>
        <time>2026-07-29T09:35:53.716Z</time>
      </trkpt>
      <trkpt lat="45.73004" lon="6.72453">
        <ele>2706</ele>
        <time>2026-07-29T09:35:54.716Z</time>
      </trkpt>
      <trkpt lat="45.73003" lon="6.72453">
        <ele>2706</ele>
        <time>2026-07-29T09:35:55.716Z</time>
      </trkpt>
      <trkpt lat="45.73003" lon="6.72454">
        <ele>2707</ele>
        <time>2026-07-29T09:35:56.716Z</time>
      </trkpt>
      <trkpt lat="45.73002" lon="6.72454">
        <ele>2707</ele>
        <time>2026-07-29T09:35:57.716Z</time>
      </trkpt>
      <trkpt lat="45.73002" lon="6.72455">
        <ele>2707</ele>
        <time>2026-07-29T09:35:58.716Z</time>
      </trkpt>
      <trkpt lat="45.73001" lon="6.72455">
        <ele>2708</ele>
        <time>2026-07-29T09:35:59.716Z</time>
      </trkpt>
      <trkpt lat="45.73001" lon="6.72456">
        <ele>2708</ele>
        <time>2026-07-29T09:36:00.716Z</time>
      </trkpt>
      <trkpt lat="45.73" lon="6.72456">
        <ele>2708</ele>
        <time>2026-07-29T09:36:01.716Z</time>
      </trkpt>
      <trkpt lat="45.73" lon="6.72456">
        <ele>2709</ele>
        <time>2026-07-29T09:36:02.716Z</time>
      </trkpt>
      <trkpt lat="45.73" lon="6.72456">
        <ele>2709</ele>
        <time>2026-07-29T09:36:03.716Z</time>
      </trkpt>
      <trkpt lat="45.73" lon="6.72456">
        <ele>2709</ele>
        <time>2026-07-29T09:36:04.716Z</time>
      </trkpt>
      <trkpt lat="45.73" lon="6.72456">
        <ele>2708</ele>
        <time>2026-07-29T09:36:05.716Z</time>
      </trkpt>
      <trkpt lat="45.72999" lon="6.72456">
        <ele>2708</ele>
        <time>2026-07-29T09:36:06.716Z</time>
      </trkpt>
      <trkpt lat="45.72999" lon="6.72457">
        <ele>2708</ele>
        <time>2026-07-29T09:36:07.716Z</time>
      </trkpt>
      <trkpt lat="45.72999" lon="6.72457">
        <ele>2708</ele>
        <time>2026-07-29T09:36:08.716Z</time>
      </trkpt>
      <trkpt lat="45.72999" lon="6.72457">
        <ele>2708</ele>
        <time>2026-07-29T09:36:09.716Z</time>
      </trkpt>
      <trkpt lat="45.72999" lon="6.72457">
        <ele>2708</ele>
        <time>2026-07-29T09:36:10.716Z</time>
      </trkpt>
      <trkpt lat="45.72998" lon="6.72457">
        <ele>2708</ele>
        <time>2026-07-29T09:36:11.716Z</time>
      </trkpt>
      <trkpt lat="45.72998" lon="6.72457">
        <ele>2708</ele>
        <time>2026-07-29T09:36:12.716Z</time>
      </trkpt>
      <trkpt lat="45.72998" lon="6.72457">
        <ele>2707</ele>
        <time>2026-07-29T09:36:13.716Z</time>
      </trkpt>
      <trkpt lat="45.72998" lon="6.72457">
        <ele>2707</ele>
        <time>2026-07-29T09:36:14.716Z</time>
      </trkpt>
      <trkpt lat="45.72998" lon="6.72457">
        <ele>2707</ele>
        <time>2026-07-29T09:36:15.716Z</time>
      </trkpt>
      <trkpt lat="45.72998" lon="6.72457">
        <ele>2707</ele>
        <time>2026-07-29T09:36:16.716Z</time>
      </trkpt>
      <trkpt lat="45.72998" lon="6.72457">
        <ele>2707</ele>
        <time>2026-07-29T09:36:17.716Z</time>
      </trkpt>
      <trkpt lat="45.72998" lon="6.72457">
        <ele>2707</ele>
        <time>2026-07-29T09:36:18.716Z</time>
      </trkpt>
      <trkpt lat="45.72998" lon="6.72457">
        <ele>2707</ele>
        <time>2026-07-29T09:36:19.716Z</time>
      </trkpt>
      <trkpt lat="45.72998" lon="6.72457">
        <ele>2707</ele>
        <time>2026-07-29T09:36:20.716Z</time>
      </trkpt>
      <trkpt lat="45.72999" lon="6.72457">
        <ele>2707</ele>
        <time>2026-07-29T09:36:21.716Z</time>
      </trkpt>
      <trkpt lat="45.72999" lon="6.72457">
        <ele>2707</ele>
        <time>2026-07-29T09:36:22.716Z</time>
      </trkpt>
      <trkpt lat="45.72999" lon="6.72457">
        <ele>2707</ele>
        <time>2026-07-29T09:36:23.716Z</time>
      </trkpt>
      <trkpt lat="45.72999" lon="6.72457">
        <ele>2707</ele>
        <time>2026-07-29T09:36:24.716Z</time>
      </trkpt>
      <trkpt lat="45.73" lon="6.72459">
        <ele>2707</ele>
        <time>2026-07-29T09:36:25.716Z</time>
      </trkpt>
      <trkpt lat="45.73001" lon="6.7246">
        <ele>2708</ele>
        <time>2026-07-29T09:36:26.716Z</time>
      </trkpt>
      <trkpt lat="45.73002" lon="6.72462">
        <ele>2708</ele>
        <time>2026-07-29T09:36:27.716Z</time>
      </trkpt>
      <trkpt lat="45.73002" lon="6.72463">
        <ele>2708</ele>
        <time>2026-07-29T09:36:28.716Z</time>
      </trkpt>
      <trkpt lat="45.73003" lon="6.72464">
        <ele>2708</ele>
        <time>2026-07-29T09:36:29.716Z</time>
      </trkpt>
      <trkpt lat="45.73004" lon="6.72465">
        <ele>2709</ele>
        <time>2026-07-29T09:36:30.716Z</time>
      </trkpt>
      <trkpt lat="45.73005" lon="6.72467">
        <ele>2709</ele>
        <time>2026-07-29T09:36:31.716Z</time>
      </trkpt>
      <trkpt lat="45.73006" lon="6.72469">
        <ele>2709</ele>
        <time>2026-07-29T09:36:32.716Z</time>
      </trkpt>
      <trkpt lat="45.73006" lon="6.7247">
        <ele>2710</ele>
        <time>2026-07-29T09:36:33.716Z</time>
      </trkpt>
      <trkpt lat="45.73006" lon="6.72472">
        <ele>2710</ele>
        <time>2026-07-29T09:36:34.716Z</time>
      </trkpt>
      <trkpt lat="45.73007" lon="6.72473">
        <ele>2711</ele>
        <time>2026-07-29T09:36:35.716Z</time>
      </trkpt>
      <trkpt lat="45.73007" lon="6.72475">
        <ele>2711</ele>
        <time>2026-07-29T09:36:36.716Z</time>
      </trkpt>
      <trkpt lat="45.73008" lon="6.72476">
        <ele>2711</ele>
        <time>2026-07-29T09:36:37.716Z</time>
      </trkpt>
      <trkpt lat="45.73008" lon="6.72477">
        <ele>2712</ele>
        <time>2026-07-29T09:36:38.716Z</time>
      </trkpt>
      <trkpt lat="45.73009" lon="6.72478">
        <ele>2712</ele>
        <time>2026-07-29T09:36:39.716Z</time>
      </trkpt>
      <trkpt lat="45.7301" lon="6.72479">
        <ele>2713</ele>
        <time>2026-07-29T09:36:40.716Z</time>
      </trkpt>
      <trkpt lat="45.7301" lon="6.7248">
        <ele>2713</ele>
        <time>2026-07-29T09:36:41.716Z</time>
      </trkpt>
      <trkpt lat="45.73011" lon="6.72481">
        <ele>2713</ele>
        <time>2026-07-29T09:36:42.716Z</time>
      </trkpt>
      <trkpt lat="45.73012" lon="6.72481">
        <ele>2714</ele>
        <time>2026-07-29T09:36:43.716Z</time>
      </trkpt>
      <trkpt lat="45.73013" lon="6.72482">
        <ele>2714</ele>
        <time>2026-07-29T09:36:44.716Z</time>
      </trkpt>
      <trkpt lat="45.73015" lon="6.72482">
        <ele>2715</ele>
        <time>2026-07-29T09:36:45.716Z</time>
      </trkpt>
      <trkpt lat="45.73016" lon="6.72482">
        <ele>2715</ele>
        <time>2026-07-29T09:36:46.716Z</time>
      </trkpt>
      <trkpt lat="45.73016" lon="6.72483">
        <ele>2715</ele>
        <time>2026-07-29T09:36:47.716Z</time>
      </trkpt>
      <trkpt lat="45.73017" lon="6.72483">
        <ele>2714</ele>
        <time>2026-07-29T09:36:48.716Z</time>
      </trkpt>
      <trkpt lat="45.73017" lon="6.72484">
        <ele>2714</ele>
        <time>2026-07-29T09:36:49.716Z</time>
      </trkpt>
      <trkpt lat="45.73018" lon="6.72484">
        <ele>2714</ele>
        <time>2026-07-29T09:36:50.716Z</time>
      </trkpt>
      <trkpt lat="45.73019" lon="6.72485">
        <ele>2714</ele>
        <time>2026-07-29T09:36:51.716Z</time>
      </trkpt>
      <trkpt lat="45.73019" lon="6.72485">
        <ele>2714</ele>
        <time>2026-07-29T09:36:52.716Z</time>
      </trkpt>
      <trkpt lat="45.7302" lon="6.72486">
        <ele>2714</ele>
        <time>2026-07-29T09:36:53.716Z</time>
      </trkpt>
      <trkpt lat="45.73021" lon="6.72487">
        <ele>2714</ele>
        <time>2026-07-29T09:36:54.716Z</time>
      </trkpt>
      <trkpt lat="45.73022" lon="6.72487">
        <ele>2714</ele>
        <time>2026-07-29T09:36:55.716Z</time>
      </trkpt>
      <trkpt lat="45.73023" lon="6.72488">
        <ele>2715</ele>
        <time>2026-07-29T09:36:56.716Z</time>
      </trkpt>
      <trkpt lat="45.73024" lon="6.72489">
        <ele>2715</ele>
        <time>2026-07-29T09:36:57.716Z</time>
      </trkpt>
      <trkpt lat="45.73025" lon="6.72489">
        <ele>2715</ele>
        <time>2026-07-29T09:36:58.716Z</time>
      </trkpt>
      <trkpt lat="45.73026" lon="6.7249">
        <ele>2715</ele>
        <time>2026-07-29T09:36:59.716Z</time>
      </trkpt>
      <trkpt lat="45.73027" lon="6.7249">
        <ele>2716</ele>
        <time>2026-07-29T09:37:00.716Z</time>
      </trkpt>
      <trkpt lat="45.73027" lon="6.7249">
        <ele>2716</ele>
        <time>2026-07-29T09:37:01.716Z</time>
      </trkpt>
      <trkpt lat="45.73028" lon="6.7249">
        <ele>2716</ele>
        <time>2026-07-29T09:37:02.716Z</time>
      </trkpt>
      <trkpt lat="45.73028" lon="6.7249">
        <ele>2717</ele>
        <time>2026-07-29T09:37:03.716Z</time>
      </trkpt>
      <trkpt lat="45.73029" lon="6.7249">
        <ele>2717</ele>
        <time>2026-07-29T09:37:04.716Z</time>
      </trkpt>
      <trkpt lat="45.73029" lon="6.7249">
        <ele>2718</ele>
        <time>2026-07-29T09:37:05.716Z</time>
      </trkpt>
      <trkpt lat="45.73029" lon="6.7249">
        <ele>2718</ele>
        <time>2026-07-29T09:37:06.716Z</time>
      </trkpt>
      <trkpt lat="45.73029" lon="6.7249">
        <ele>2719</ele>
        <time>2026-07-29T09:37:07.716Z</time>
      </trkpt>
      <trkpt lat="45.73029" lon="6.7249">
        <ele>2719</ele>
        <time>2026-07-29T09:37:08.716Z</time>
      </trkpt>
      <trkpt lat="45.73029" lon="6.7249">
        <ele>2719</ele>
        <time>2026-07-29T09:37:09.716Z</time>
      </trkpt>
      <trkpt lat="45.73029" lon="6.7249">
        <ele>2720</ele>
        <time>2026-07-29T09:37:10.716Z</time>
      </trkpt>
      <trkpt lat="45.73029" lon="6.7249">
        <ele>2720</ele>
        <time>2026-07-29T09:37:11.716Z</time>
      </trkpt>
      <trkpt lat="45.73029" lon="6.7249">
        <ele>2720</ele>
        <time>2026-07-29T09:37:12.716Z</time>
      </trkpt>
      <trkpt lat="45.73028" lon="6.7249">
        <ele>2720</ele>
        <time>2026-07-29T09:37:13.716Z</time>
      </trkpt>
      <trkpt lat="45.73028" lon="6.7249">
        <ele>2720</ele>
        <time>2026-07-29T09:37:14.716Z</time>
      </trkpt>
      <trkpt lat="45.73028" lon="6.7249">
        <ele>2720</ele>
        <time>2026-07-29T09:37:15.716Z</time>
      </trkpt>
      <trkpt lat="45.73028" lon="6.7249">
        <ele>2720</ele>
        <time>2026-07-29T09:37:16.716Z</time>
      </trkpt>
      <trkpt lat="45.73028" lon="6.7249">
        <ele>2720</ele>
        <time>2026-07-29T09:37:17.716Z</time>
      </trkpt>
      <trkpt lat="45.73028" lon="6.7249">
        <ele>2720</ele>
        <time>2026-07-29T09:37:18.716Z</time>
      </trkpt>
      <trkpt lat="45.73028" lon="6.7249">
        <ele>2720</ele>
        <time>2026-07-29T09:37:19.716Z</time>
      </trkpt>
      <trkpt lat="45.73028" lon="6.7249">
        <ele>2720</ele>
        <time>2026-07-29T09:37:20.716Z</time>
      </trkpt>
      <trkpt lat="45.73028" lon="6.7249">
        <ele>2721</ele>
        <time>2026-07-29T09:37:21.716Z</time>
      </trkpt>
      <trkpt lat="45.73028" lon="6.7249">
        <ele>2721</ele>
        <time>2026-07-29T09:37:22.716Z</time>
      </trkpt>
      <trkpt lat="45.73028" lon="6.7249">
        <ele>2721</ele>
        <time>2026-07-29T09:37:23.716Z</time>
      </trkpt>
      <trkpt lat="45.73028" lon="6.7249">
        <ele>2721</ele>
        <time>2026-07-29T09:37:24.716Z</time>
      </trkpt>
      <trkpt lat="45.73028" lon="6.7249">
        <ele>2721</ele>
        <time>2026-07-29T09:37:25.716Z</time>
      </trkpt>
      <trkpt lat="45.73028" lon="6.7249">
        <ele>2721</ele>
        <time>2026-07-29T09:37:26.716Z</time>
      </trkpt>
      <trkpt lat="45.73028" lon="6.7249">
        <ele>2721</ele>
        <time>2026-07-29T09:37:27.716Z</time>
      </trkpt>
      <trkpt lat="45.73028" lon="6.7249">
        <ele>2721</ele>
        <time>2026-07-29T09:37:28.716Z</time>
      </trkpt>
      <trkpt lat="45.73028" lon="6.7249">
        <ele>2721</ele>
        <time>2026-07-29T09:37:29.716Z</time>
      </trkpt>
      <trkpt lat="45.73028" lon="6.7249">
        <ele>2721</ele>
        <time>2026-07-29T09:37:30.716Z</time>
      </trkpt>
      <trkpt lat="45.73028" lon="6.7249">
        <ele>2721</ele>
        <time>2026-07-29T09:37:31.716Z</time>
      </trkpt>
      <trkpt lat="45.73029" lon="6.7249">
        <ele>2721</ele>
        <time>2026-07-29T09:37:32.716Z</time>
      </trkpt>
      <trkpt lat="45.73029" lon="6.7249">
        <ele>2721</ele>
        <time>2026-07-29T09:37:33.716Z</time>
      </trkpt>
      <trkpt lat="45.73029" lon="6.7249">
        <ele>2721</ele>
        <time>2026-07-29T09:37:34.716Z</time>
      </trkpt>
      <trkpt lat="45.73029" lon="6.7249">
        <ele>2721</ele>
        <time>2026-07-29T09:37:35.716Z</time>
      </trkpt>
      <trkpt lat="45.73029" lon="6.72489">
        <ele>2721</ele>
        <time>2026-07-29T09:37:36.716Z</time>
      </trkpt>
      <trkpt lat="45.73029" lon="6.72489">
        <ele>2721</ele>
        <time>2026-07-29T09:37:37.716Z</time>
      </trkpt>
      <trkpt lat="45.73029" lon="6.72489">
        <ele>2721</ele>
        <time>2026-07-29T09:37:38.716Z</time>
      </trkpt>
      <trkpt lat="45.73029" lon="6.72489">
        <ele>2721</ele>
        <time>2026-07-29T09:37:39.716Z</time>
      </trkpt>
      <trkpt lat="45.73029" lon="6.72489">
        <ele>2721</ele>
        <time>2026-07-29T09:37:40.716Z</time>
      </trkpt>
      <trkpt lat="45.73029" lon="6.72489">
        <ele>2721</ele>
        <time>2026-07-29T09:37:41.716Z</time>
      </trkpt>
      <trkpt lat="45.73029" lon="6.72489">
        <ele>2721</ele>
        <time>2026-07-29T09:37:42.716Z</time>
      </trkpt>
      <trkpt lat="45.73029" lon="6.72489">
        <ele>2721</ele>
        <time>2026-07-29T09:37:43.716Z</time>
      </trkpt>
      <trkpt lat="45.73029" lon="6.72489">
        <ele>2721</ele>
        <time>2026-07-29T09:37:44.716Z</time>
      </trkpt>
      <trkpt lat="45.73029" lon="6.72489">
        <ele>2721</ele>
        <time>2026-07-29T09:37:45.716Z</time>
      </trkpt>
      <trkpt lat="45.73029" lon="6.72489">
        <ele>2721</ele>
        <time>2026-07-29T09:37:46.716Z</time>
      </trkpt>
      <trkpt lat="45.73029" lon="6.72489">
        <ele>2721</ele>
        <time>2026-07-29T09:37:47.716Z</time>
      </trkpt>
      <trkpt lat="45.73029" lon="6.72489">
        <ele>2721</ele>
        <time>2026-07-29T09:37:48.716Z</time>
      </trkpt>
      <trkpt lat="45.73029" lon="6.72489">
        <ele>2721</ele>
        <time>2026-07-29T09:37:49.716Z</time>
      </trkpt>
      <trkpt lat="45.73029" lon="6.72489">
        <ele>2721</ele>
        <time>2026-07-29T09:37:50.716Z</time>
      </trkpt>
      <trkpt lat="45.73029" lon="6.72489">
        <ele>2721</ele>
        <time>2026-07-29T09:37:51.716Z</time>
      </trkpt>
      <trkpt lat="45.73029" lon="6.72489">
        <ele>2721</ele>
        <time>2026-07-29T09:37:52.716Z</time>
      </trkpt>
      <trkpt lat="45.73029" lon="6.72489">
        <ele>2721</ele>
        <time>2026-07-29T09:37:53.716Z</time>
      </trkpt>
      <trkpt lat="45.73029" lon="6.72489">
        <ele>2721</ele>
        <time>2026-07-29T09:37:54.716Z</time>
      </trkpt>
      <trkpt lat="45.73029" lon="6.72489">
        <ele>2721</ele>
        <time>2026-07-29T09:37:55.716Z</time>
      </trkpt>
      <trkpt lat="45.73029" lon="6.72489">
        <ele>2721</ele>
        <time>2026-07-29T09:37:56.716Z</time>
      </trkpt>
      <trkpt lat="45.73029" lon="6.72489">
        <ele>2721</ele>
        <time>2026-07-29T09:37:57.716Z</time>
      </trkpt>
      <trkpt lat="45.73029" lon="6.72489">
        <ele>2721</ele>
        <time>2026-07-29T09:37:58.716Z</time>
      </trkpt>
      <trkpt lat="45.73029" lon="6.72489">
        <ele>2721</ele>
        <time>2026-07-29T09:37:59.716Z</time>
      </trkpt>
      <trkpt lat="45.73029" lon="6.72489">
        <ele>2721</ele>
        <time>2026-07-29T09:38:00.716Z</time>
      </trkpt>
      <trkpt lat="45.73029" lon="6.72489">
        <ele>2721</ele>
        <time>2026-07-29T09:38:01.716Z</time>
      </trkpt>
      <trkpt lat="45.73029" lon="6.72489">
        <ele>2721</ele>
        <time>2026-07-29T09:38:02.716Z</time>
      </trkpt>
      <trkpt lat="45.73029" lon="6.72489">
        <ele>2721</ele>
        <time>2026-07-29T09:38:03.716Z</time>
      </trkpt>
      <trkpt lat="45.73029" lon="6.72489">
        <ele>2721</ele>
        <time>2026-07-29T09:38:04.716Z</time>
      </trkpt>
      <trkpt lat="45.73029" lon="6.72489">
        <ele>2721</ele>
        <time>2026-07-29T09:38:05.716Z</time>
      </trkpt>
      <trkpt lat="45.73029" lon="6.72489">
        <ele>2721</ele>
        <time>2026-07-29T09:38:06.716Z</time>
      </trkpt>
      <trkpt lat="45.73029" lon="6.72489">
        <ele>2721</ele>
        <time>2026-07-29T09:38:07.716Z</time>
      </trkpt>
      <trkpt lat="45.73029" lon="6.7249">
        <ele>2721</ele>
        <time>2026-07-29T09:38:08.716Z</time>
      </trkpt>
      <trkpt lat="45.73029" lon="6.7249">
        <ele>2721</ele>
        <time>2026-07-29T09:38:09.716Z</time>
      </trkpt>
      <trkpt lat="45.73029" lon="6.7249">
        <ele>2721</ele>
        <time>2026-07-29T09:38:10.716Z</time>
      </trkpt>
      <trkpt lat="45.73029" lon="6.7249">
        <ele>2721</ele>
        <time>2026-07-29T09:38:11.716Z</time>
      </trkpt>
      <trkpt lat="45.73029" lon="6.7249">
        <ele>2721</ele>
        <time>2026-07-29T09:38:12.716Z</time>
      </trkpt>
      <trkpt lat="45.73029" lon="6.7249">
        <ele>2721</ele>
        <time>2026-07-29T09:38:13.716Z</time>
      </trkpt>
      <trkpt lat="45.73029" lon="6.7249">
        <ele>2721</ele>
        <time>2026-07-29T09:38:14.716Z</time>
      </trkpt>
      <trkpt lat="45.73029" lon="6.7249">
        <ele>2721</ele>
        <time>2026-07-29T09:38:15.716Z</time>
      </trkpt>
      <trkpt lat="45.73029" lon="6.7249">
        <ele>2721</ele>
        <time>2026-07-29T09:38:16.716Z</time>
      </trkpt>
      <trkpt lat="45.73029" lon="6.7249">
        <ele>2721</ele>
        <time>2026-07-29T09:38:17.716Z</time>
      </trkpt>
      <trkpt lat="45.73029" lon="6.7249">
        <ele>2721</ele>
        <time>2026-07-29T09:38:18.716Z</time>
      </trkpt>
      <trkpt lat="45.73029" lon="6.7249">
        <ele>2721</ele>
        <time>2026-07-29T09:38:19.716Z</time>
      </trkpt>
      <trkpt lat="45.73029" lon="6.7249">
        <ele>2721</ele>
        <time>2026-07-29T09:38:20.716Z</time>
      </trkpt>
      <trkpt lat="45.73029" lon="6.7249">
        <ele>2721</ele>
        <time>2026-07-29T09:38:21.716Z</time>
      </trkpt>
      <trkpt lat="45.73029" lon="6.7249">
        <ele>2721</ele>
        <time>2026-07-29T09:38:22.716Z</time>
      </trkpt>
      <trkpt lat="45.73029" lon="6.7249">
        <ele>2721</ele>
        <time>2026-07-29T09:38:23.716Z</time>
      </trkpt>
      <trkpt lat="45.73029" lon="6.7249">
        <ele>2721</ele>
        <time>2026-07-29T09:38:24.716Z</time>
      </trkpt>
      <trkpt lat="45.73029" lon="6.7249">
        <ele>2721</ele>
        <time>2026-07-29T09:38:25.716Z</time>
      </trkpt>
      <trkpt lat="45.73029" lon="6.7249">
        <ele>2721</ele>
        <time>2026-07-29T09:38:26.716Z</time>
      </trkpt>
      <trkpt lat="45.73028" lon="6.72489">
        <ele>2721</ele>
        <time>2026-07-29T09:38:27.716Z</time>
      </trkpt>
      <trkpt lat="45.73028" lon="6.72489">
        <ele>2721</ele>
        <time>2026-07-29T09:38:28.716Z</time>
      </trkpt>
      <trkpt lat="45.73028" lon="6.72488">
        <ele>2720</ele>
        <time>2026-07-29T09:38:29.716Z</time>
      </trkpt>
      <trkpt lat="45.73028" lon="6.72487">
        <ele>2720</ele>
        <time>2026-07-29T09:38:30.716Z</time>
      </trkpt>
      <trkpt lat="45.73029" lon="6.72486">
        <ele>2720</ele>
        <time>2026-07-29T09:38:31.716Z</time>
      </trkpt>
      <trkpt lat="45.73029" lon="6.72486">
        <ele>2719</ele>
        <time>2026-07-29T09:38:32.716Z</time>
      </trkpt>
      <trkpt lat="45.73029" lon="6.72485">
        <ele>2719</ele>
        <time>2026-07-29T09:38:33.716Z</time>
      </trkpt>
      <trkpt lat="45.73029" lon="6.72485">
        <ele>2719</ele>
        <time>2026-07-29T09:38:34.716Z</time>
      </trkpt>
      <trkpt lat="45.7303" lon="6.72486">
        <ele>2719</ele>
        <time>2026-07-29T09:38:35.716Z</time>
      </trkpt>
      <trkpt lat="45.7303" lon="6.72486">
        <ele>2719</ele>
        <time>2026-07-29T09:38:36.716Z</time>
      </trkpt>
      <trkpt lat="45.7303" lon="6.72486">
        <ele>2719</ele>
        <time>2026-07-29T09:38:37.716Z</time>
      </trkpt>
      <trkpt lat="45.7303" lon="6.72486">
        <ele>2719</ele>
        <time>2026-07-29T09:38:38.716Z</time>
      </trkpt>
      <trkpt lat="45.7303" lon="6.72486">
        <ele>2719</ele>
        <time>2026-07-29T09:38:39.716Z</time>
      </trkpt>
      <trkpt lat="45.7303" lon="6.72486">
        <ele>2720</ele>
        <time>2026-07-29T09:38:40.716Z</time>
      </trkpt>
      <trkpt lat="45.7303" lon="6.72486">
        <ele>2719</ele>
        <time>2026-07-29T09:38:41.716Z</time>
      </trkpt>
      <trkpt lat="45.7303" lon="6.72486">
        <ele>2720</ele>
        <time>2026-07-29T09:38:42.716Z</time>
      </trkpt>
      <trkpt lat="45.7303" lon="6.72486">
        <ele>2720</ele>
        <time>2026-07-29T09:38:43.716Z</time>
      </trkpt>
      <trkpt lat="45.7303" lon="6.72486">
        <ele>2720</ele>
        <time>2026-07-29T09:38:44.716Z</time>
      </trkpt>
      <trkpt lat="45.7303" lon="6.72486">
        <ele>2720</ele>
        <time>2026-07-29T09:38:45.716Z</time>
      </trkpt>
      <trkpt lat="45.7303" lon="6.72486">
        <ele>2720</ele>
        <time>2026-07-29T09:38:46.716Z</time>
      </trkpt>
      <trkpt lat="45.7303" lon="6.72486">
        <ele>2720</ele>
        <time>2026-07-29T09:38:47.716Z</time>
      </trkpt>
      <trkpt lat="45.7303" lon="6.72486">
        <ele>2720</ele>
        <time>2026-07-29T09:38:48.716Z</time>
      </trkpt>
      <trkpt lat="45.7303" lon="6.72486">
        <ele>2720</ele>
        <time>2026-07-29T09:38:49.716Z</time>
      </trkpt>
      <trkpt lat="45.7303" lon="6.72486">
        <ele>2720</ele>
        <time>2026-07-29T09:38:50.716Z</time>
      </trkpt>
      <trkpt lat="45.7303" lon="6.72486">
        <ele>2720</ele>
        <time>2026-07-29T09:38:51.716Z</time>
      </trkpt>
      <trkpt lat="45.7303" lon="6.72486">
        <ele>2720</ele>
        <time>2026-07-29T09:38:52.716Z</time>
      </trkpt>
      <trkpt lat="45.7303" lon="6.72485">
        <ele>2720</ele>
        <time>2026-07-29T09:38:53.716Z</time>
      </trkpt>
      <trkpt lat="45.7303" lon="6.72485">
        <ele>2720</ele>
        <time>2026-07-29T09:38:54.716Z</time>
      </trkpt>
      <trkpt lat="45.7303" lon="6.72485">
        <ele>2720</ele>
        <time>2026-07-29T09:38:55.716Z</time>
      </trkpt>
      <trkpt lat="45.7303" lon="6.72485">
        <ele>2720</ele>
        <time>2026-07-29T09:38:56.716Z</time>
      </trkpt>
      <trkpt lat="45.7303" lon="6.72485">
        <ele>2720</ele>
        <time>2026-07-29T09:38:57.716Z</time>
      </trkpt>
      <trkpt lat="45.7303" lon="6.72485">
        <ele>2720</ele>
        <time>2026-07-29T09:38:58.716Z</time>
      </trkpt>
      <trkpt lat="45.7303" lon="6.72485">
        <ele>2720</ele>
        <time>2026-07-29T09:38:59.716Z</time>
      </trkpt>
      <trkpt lat="45.7303" lon="6.72485">
        <ele>2720</ele>
        <time>2026-07-29T09:39:00.716Z</time>
      </trkpt>
      <trkpt lat="45.7303" lon="6.72485">
        <ele>2720</ele>
        <time>2026-07-29T09:39:01.717Z</time>
      </trkpt>
      <trkpt lat="45.7303" lon="6.72485">
        <ele>2720</ele>
        <time>2026-07-29T09:39:02.716Z</time>
      </trkpt>
      <trkpt lat="45.7303" lon="6.72485">
        <ele>2720</ele>
        <time>2026-07-29T09:39:03.716Z</time>
      </trkpt>
      <trkpt lat="45.7303" lon="6.72485">
        <ele>2720</ele>
        <time>2026-07-29T09:39:04.716Z</time>
      </trkpt>
      <trkpt lat="45.7303" lon="6.72485">
        <ele>2720</ele>
        <time>2026-07-29T09:39:05.716Z</time>
      </trkpt>
      <trkpt lat="45.7303" lon="6.72485">
        <ele>2720</ele>
        <time>2026-07-29T09:39:06.716Z</time>
      </trkpt>
      <trkpt lat="45.7303" lon="6.72485">
        <ele>2720</ele>
        <time>2026-07-29T09:39:07.716Z</time>
      </trkpt>
      <trkpt lat="45.7303" lon="6.72485">
        <ele>2720</ele>
        <time>2026-07-29T09:39:08.716Z</time>
      </trkpt>
      <trkpt lat="45.7303" lon="6.72484">
        <ele>2720</ele>
        <time>2026-07-29T09:39:09.716Z</time>
      </trkpt>
      <trkpt lat="45.7303" lon="6.72484">
        <ele>2720</ele>
        <time>2026-07-29T09:39:10.716Z</time>
      </trkpt>
      <trkpt lat="45.7303" lon="6.72484">
        <ele>2720</ele>
        <time>2026-07-29T09:39:11.716Z</time>
      </trkpt>
      <trkpt lat="45.7303" lon="6.72484">
        <ele>2720</ele>
        <time>2026-07-29T09:39:12.716Z</time>
      </trkpt>
      <trkpt lat="45.7303" lon="6.72484">
        <ele>2720</ele>
        <time>2026-07-29T09:39:13.716Z</time>
      </trkpt>
      <trkpt lat="45.7303" lon="6.72484">
        <ele>2720</ele>
        <time>2026-07-29T09:39:14.716Z</time>
      </trkpt>
      <trkpt lat="45.7303" lon="6.72484">
        <ele>2720</ele>
        <time>2026-07-29T09:39:15.716Z</time>
      </trkpt>
      <trkpt lat="45.7303" lon="6.72484">
        <ele>2720</ele>
        <time>2026-07-29T09:39:16.716Z</time>
      </trkpt>
      <trkpt lat="45.7303" lon="6.72484">
        <ele>2720</ele>
        <time>2026-07-29T09:39:17.716Z</time>
      </trkpt>
      <trkpt lat="45.7303" lon="6.72484">
        <ele>2720</ele>
        <time>2026-07-29T09:39:18.716Z</time>
      </trkpt>
      <trkpt lat="45.7303" lon="6.72484">
        <ele>2720</ele>
        <time>2026-07-29T09:39:19.716Z</time>
      </trkpt>
      <trkpt lat="45.7303" lon="6.72484">
        <ele>2720</ele>
        <time>2026-07-29T09:39:20.716Z</time>
      </trkpt>
      <trkpt lat="45.7303" lon="6.72484">
        <ele>2720</ele>
        <time>2026-07-29T09:39:21.716Z</time>
      </trkpt>
      <trkpt lat="45.7303" lon="6.72484">
        <ele>2720</ele>
        <time>2026-07-29T09:39:22.716Z</time>
      </trkpt>
      <trkpt lat="45.7303" lon="6.72484">
        <ele>2720</ele>
        <time>2026-07-29T09:39:23.716Z</time>
      </trkpt>
      <trkpt lat="45.7303" lon="6.72484">
        <ele>2720</ele>
        <time>2026-07-29T09:39:24.716Z</time>
      </trkpt>
      <trkpt lat="45.7303" lon="6.72484">
        <ele>2720</ele>
        <time>2026-07-29T09:39:25.716Z</time>
      </trkpt>
      <trkpt lat="45.7303" lon="6.72484">
        <ele>2720</ele>
        <time>2026-07-29T09:39:26.716Z</time>
      </trkpt>
      <trkpt lat="45.7303" lon="6.72484">
        <ele>2720</ele>
        <time>2026-07-29T09:39:27.716Z</time>
      </trkpt>
      <trkpt lat="45.7303" lon="6.72484">
        <ele>2720</ele>
        <time>2026-07-29T09:39:28.716Z</time>
      </trkpt>
      <trkpt lat="45.7303" lon="6.72484">
        <ele>2720</ele>
        <time>2026-07-29T09:39:29.716Z</time>
      </trkpt>
      <trkpt lat="45.7303" lon="6.72484">
        <ele>2720</ele>
        <time>2026-07-29T09:39:30.716Z</time>
      </trkpt>
      <trkpt lat="45.7303" lon="6.72484">
        <ele>2720</ele>
        <time>2026-07-29T09:39:31.716Z</time>
      </trkpt>
      <trkpt lat="45.7303" lon="6.72484">
        <ele>2720</ele>
        <time>2026-07-29T09:39:32.716Z</time>
      </trkpt>
      <trkpt lat="45.7303" lon="6.72484">
        <ele>2720</ele>
        <time>2026-07-29T09:39:33.716Z</time>
      </trkpt>
      <trkpt lat="45.73029" lon="6.72484">
        <ele>2720</ele>
        <time>2026-07-29T09:39:34.716Z</time>
      </trkpt>
      <trkpt lat="45.73029" lon="6.72484">
        <ele>2720</ele>
        <time>2026-07-29T09:39:35.716Z</time>
      </trkpt>
      <trkpt lat="45.73029" lon="6.72484">
        <ele>2720</ele>
        <time>2026-07-29T09:39:36.716Z</time>
      </trkpt>
      <trkpt lat="45.73029" lon="6.72484">
        <ele>2720</ele>
        <time>2026-07-29T09:39:37.716Z</time>
      </trkpt>
      <trkpt lat="45.73029" lon="6.72484">
        <ele>2720</ele>
        <time>2026-07-29T09:39:38.716Z</time>
      </trkpt>
      <trkpt lat="45.73029" lon="6.72484">
        <ele>2720</ele>
        <time>2026-07-29T09:39:39.716Z</time>
      </trkpt>
      <trkpt lat="45.73029" lon="6.72484">
        <ele>2720</ele>
        <time>2026-07-29T09:39:40.716Z</time>
      </trkpt>
      <trkpt lat="45.73029" lon="6.72484">
        <ele>2720</ele>
        <time>2026-07-29T09:39:41.716Z</time>
      </trkpt>
      <trkpt lat="45.73029" lon="6.72484">
        <ele>2720</ele>
        <time>2026-07-29T09:39:42.716Z</time>
      </trkpt>
      <trkpt lat="45.73029" lon="6.72484">
        <ele>2720</ele>
        <time>2026-07-29T09:39:43.716Z</time>
      </trkpt>
      <trkpt lat="45.73029" lon="6.72484">
        <ele>2720</ele>
        <time>2026-07-29T09:39:44.716Z</time>
      </trkpt>
      <trkpt lat="45.73029" lon="6.72484">
        <ele>2720</ele>
        <time>2026-07-29T09:39:45.716Z</time>
      </trkpt>
      <trkpt lat="45.73029" lon="6.72484">
        <ele>2720</ele>
        <time>2026-07-29T09:39:46.716Z</time>
      </trkpt>
      <trkpt lat="45.73029" lon="6.72484">
        <ele>2719</ele>
        <time>2026-07-29T09:39:47.716Z</time>
      </trkpt>
      <trkpt lat="45.73027" lon="6.72484">
        <ele>2719</ele>
        <time>2026-07-29T09:39:48.716Z</time>
      </trkpt>
      <trkpt lat="45.73026" lon="6.72483">
        <ele>2719</ele>
        <time>2026-07-29T09:39:49.716Z</time>
      </trkpt>
      <trkpt lat="45.73025" lon="6.72483">
        <ele>2719</ele>
        <time>2026-07-29T09:39:50.716Z</time>
      </trkpt>
      <trkpt lat="45.73025" lon="6.72483">
        <ele>2719</ele>
        <time>2026-07-29T09:39:51.716Z</time>
      </trkpt>
      <trkpt lat="45.73024" lon="6.72482">
        <ele>2719</ele>
        <time>2026-07-29T09:39:52.716Z</time>
      </trkpt>
      <trkpt lat="45.73023" lon="6.72482">
        <ele>2719</ele>
        <time>2026-07-29T09:39:53.716Z</time>
      </trkpt>
      <trkpt lat="45.73023" lon="6.72482">
        <ele>2719</ele>
        <time>2026-07-29T09:39:54.716Z</time>
      </trkpt>
      <trkpt lat="45.73022" lon="6.72481">
        <ele>2719</ele>
        <time>2026-07-29T09:39:55.716Z</time>
      </trkpt>
      <trkpt lat="45.73022" lon="6.72481">
        <ele>2719</ele>
        <time>2026-07-29T09:39:56.716Z</time>
      </trkpt>
      <trkpt lat="45.73022" lon="6.72481">
        <ele>2719</ele>
        <time>2026-07-29T09:39:57.716Z</time>
      </trkpt>
      <trkpt lat="45.73022" lon="6.72481">
        <ele>2719</ele>
        <time>2026-07-29T09:39:58.716Z</time>
      </trkpt>
      <trkpt lat="45.73022" lon="6.72481">
        <ele>2719</ele>
        <time>2026-07-29T09:39:59.716Z</time>
      </trkpt>
      <trkpt lat="45.73021" lon="6.72481">
        <ele>2719</ele>
        <time>2026-07-29T09:40:00.716Z</time>
      </trkpt>
      <trkpt lat="45.73021" lon="6.72482">
        <ele>2719</ele>
        <time>2026-07-29T09:40:01.716Z</time>
      </trkpt>
      <trkpt lat="45.73021" lon="6.72482">
        <ele>2718</ele>
        <time>2026-07-29T09:40:02.716Z</time>
      </trkpt>
      <trkpt lat="45.73021" lon="6.72481">
        <ele>2718</ele>
        <time>2026-07-29T09:40:03.716Z</time>
      </trkpt>
      <trkpt lat="45.7302" lon="6.72481">
        <ele>2718</ele>
        <time>2026-07-29T09:40:04.716Z</time>
      </trkpt>
      <trkpt lat="45.73019" lon="6.7248">
        <ele>2718</ele>
        <time>2026-07-29T09:40:05.716Z</time>
      </trkpt>
      <trkpt lat="45.73019" lon="6.72479">
        <ele>2718</ele>
        <time>2026-07-29T09:40:06.716Z</time>
      </trkpt>
      <trkpt lat="45.73018" lon="6.72479">
        <ele>2717</ele>
        <time>2026-07-29T09:40:07.716Z</time>
      </trkpt>
      <trkpt lat="45.73017" lon="6.72478">
        <ele>2717</ele>
        <time>2026-07-29T09:40:08.716Z</time>
      </trkpt>
      <trkpt lat="45.73016" lon="6.72478">
        <ele>2717</ele>
        <time>2026-07-29T09:40:09.716Z</time>
      </trkpt>
      <trkpt lat="45.73016" lon="6.72477">
        <ele>2717</ele>
        <time>2026-07-29T09:40:10.716Z</time>
      </trkpt>
      <trkpt lat="45.73015" lon="6.72476">
        <ele>2717</ele>
        <time>2026-07-29T09:40:11.716Z</time>
      </trkpt>
      <trkpt lat="45.73014" lon="6.72475">
        <ele>2716</ele>
        <time>2026-07-29T09:40:12.716Z</time>
      </trkpt>
      <trkpt lat="45.73013" lon="6.72475">
        <ele>2716</ele>
        <time>2026-07-29T09:40:13.716Z</time>
      </trkpt>
      <trkpt lat="45.73012" lon="6.72474">
        <ele>2716</ele>
        <time>2026-07-29T09:40:14.716Z</time>
      </trkpt>
      <trkpt lat="45.73012" lon="6.72474">
        <ele>2716</ele>
        <time>2026-07-29T09:40:15.716Z</time>
      </trkpt>
      <trkpt lat="45.73011" lon="6.72473">
        <ele>2716</ele>
        <time>2026-07-29T09:40:16.716Z</time>
      </trkpt>
      <trkpt lat="45.7301" lon="6.72473">
        <ele>2716</ele>
        <time>2026-07-29T09:40:17.716Z</time>
      </trkpt>
      <trkpt lat="45.73009" lon="6.72472">
        <ele>2716</ele>
        <time>2026-07-29T09:40:18.716Z</time>
      </trkpt>
      <trkpt lat="45.73009" lon="6.72471">
        <ele>2715</ele>
        <time>2026-07-29T09:40:19.716Z</time>
      </trkpt>
      <trkpt lat="45.73008" lon="6.72471">
        <ele>2715</ele>
        <time>2026-07-29T09:40:20.716Z</time>
      </trkpt>
      <trkpt lat="45.73007" lon="6.7247">
        <ele>2715</ele>
        <time>2026-07-29T09:40:21.716Z</time>
      </trkpt>
      <trkpt lat="45.73007" lon="6.72469">
        <ele>2715</ele>
        <time>2026-07-29T09:40:22.716Z</time>
      </trkpt>
      <trkpt lat="45.73007" lon="6.72469">
        <ele>2715</ele>
        <time>2026-07-29T09:40:23.716Z</time>
      </trkpt>
      <trkpt lat="45.73007" lon="6.72468">
        <ele>2715</ele>
        <time>2026-07-29T09:40:24.716Z</time>
      </trkpt>
      <trkpt lat="45.73007" lon="6.72468">
        <ele>2714</ele>
        <time>2026-07-29T09:40:25.716Z</time>
      </trkpt>
      <trkpt lat="45.73007" lon="6.72468">
        <ele>2714</ele>
        <time>2026-07-29T09:40:26.716Z</time>
      </trkpt>
      <trkpt lat="45.73007" lon="6.72467">
        <ele>2714</ele>
        <time>2026-07-29T09:40:27.716Z</time>
      </trkpt>
      <trkpt lat="45.73007" lon="6.72467">
        <ele>2714</ele>
        <time>2026-07-29T09:40:28.716Z</time>
      </trkpt>
      <trkpt lat="45.73007" lon="6.72467">
        <ele>2714</ele>
        <time>2026-07-29T09:40:29.716Z</time>
      </trkpt>
      <trkpt lat="45.73007" lon="6.72467">
        <ele>2714</ele>
        <time>2026-07-29T09:40:30.716Z</time>
      </trkpt>
      <trkpt lat="45.73007" lon="6.72467">
        <ele>2714</ele>
        <time>2026-07-29T09:40:31.716Z</time>
      </trkpt>
      <trkpt lat="45.73007" lon="6.72467">
        <ele>2713</ele>
        <time>2026-07-29T09:40:32.716Z</time>
      </trkpt>
      <trkpt lat="45.73006" lon="6.72467">
        <ele>2713</ele>
        <time>2026-07-29T09:40:33.716Z</time>
      </trkpt>
      <trkpt lat="45.73006" lon="6.72466">
        <ele>2713</ele>
        <time>2026-07-29T09:40:34.716Z</time>
      </trkpt>
      <trkpt lat="45.73006" lon="6.72466">
        <ele>2713</ele>
        <time>2026-07-29T09:40:35.716Z</time>
      </trkpt>
      <trkpt lat="45.73006" lon="6.72465">
        <ele>2713</ele>
        <time>2026-07-29T09:40:36.716Z</time>
      </trkpt>
      <trkpt lat="45.73005" lon="6.72464">
        <ele>2713</ele>
        <time>2026-07-29T09:40:37.716Z</time>
      </trkpt>
      <trkpt lat="45.73004" lon="6.72464">
        <ele>2712</ele>
        <time>2026-07-29T09:40:38.716Z</time>
      </trkpt>
      <trkpt lat="45.73004" lon="6.72463">
        <ele>2712</ele>
        <time>2026-07-29T09:40:39.716Z</time>
      </trkpt>
      <trkpt lat="45.73003" lon="6.72463">
        <ele>2712</ele>
        <time>2026-07-29T09:40:40.716Z</time>
      </trkpt>
      <trkpt lat="45.73003" lon="6.72462">
        <ele>2712</ele>
        <time>2026-07-29T09:40:41.716Z</time>
      </trkpt>
      <trkpt lat="45.73003" lon="6.72461">
        <ele>2712</ele>
        <time>2026-07-29T09:40:42.716Z</time>
      </trkpt>
      <trkpt lat="45.73002" lon="6.72461">
        <ele>2712</ele>
        <time>2026-07-29T09:40:43.716Z</time>
      </trkpt>
      <trkpt lat="45.73002" lon="6.7246">
        <ele>2712</ele>
        <time>2026-07-29T09:40:44.716Z</time>
      </trkpt>
      <trkpt lat="45.73002" lon="6.72459">
        <ele>2711</ele>
        <time>2026-07-29T09:40:45.716Z</time>
      </trkpt>
      <trkpt lat="45.73002" lon="6.72458">
        <ele>2711</ele>
        <time>2026-07-29T09:40:46.716Z</time>
      </trkpt>
      <trkpt lat="45.73002" lon="6.72458">
        <ele>2711</ele>
        <time>2026-07-29T09:40:47.716Z</time>
      </trkpt>
      <trkpt lat="45.73002" lon="6.72457">
        <ele>2711</ele>
        <time>2026-07-29T09:40:48.716Z</time>
      </trkpt>
      <trkpt lat="45.73001" lon="6.72456">
        <ele>2711</ele>
        <time>2026-07-29T09:40:49.716Z</time>
      </trkpt>
      <trkpt lat="45.73001" lon="6.72455">
        <ele>2710</ele>
        <time>2026-07-29T09:40:50.716Z</time>
      </trkpt>
      <trkpt lat="45.73" lon="6.72455">
        <ele>2710</ele>
        <time>2026-07-29T09:40:51.716Z</time>
      </trkpt>
      <trkpt lat="45.73" lon="6.72454">
        <ele>2710</ele>
        <time>2026-07-29T09:40:52.716Z</time>
      </trkpt>
      <trkpt lat="45.73" lon="6.72454">
        <ele>2710</ele>
        <time>2026-07-29T09:40:53.716Z</time>
      </trkpt>
      <trkpt lat="45.73" lon="6.72454">
        <ele>2709</ele>
        <time>2026-07-29T09:40:54.716Z</time>
      </trkpt>
      <trkpt lat="45.73" lon="6.72454">
        <ele>2709</ele>
        <time>2026-07-29T09:40:55.716Z</time>
      </trkpt>
      <trkpt lat="45.73" lon="6.72454">
        <ele>2708</ele>
        <time>2026-07-29T09:40:56.716Z</time>
      </trkpt>
      <trkpt lat="45.73" lon="6.72454">
        <ele>2708</ele>
        <time>2026-07-29T09:40:57.716Z</time>
      </trkpt>
      <trkpt lat="45.73001" lon="6.72454">
        <ele>2708</ele>
        <time>2026-07-29T09:40:58.716Z</time>
      </trkpt>
      <trkpt lat="45.73001" lon="6.72454">
        <ele>2708</ele>
        <time>2026-07-29T09:40:59.716Z</time>
      </trkpt>
      <trkpt lat="45.73001" lon="6.72454">
        <ele>2708</ele>
        <time>2026-07-29T09:41:00.716Z</time>
      </trkpt>
      <trkpt lat="45.73001" lon="6.72453">
        <ele>2708</ele>
        <time>2026-07-29T09:41:01.716Z</time>
      </trkpt>
      <trkpt lat="45.73001" lon="6.72453">
        <ele>2708</ele>
        <time>2026-07-29T09:41:02.716Z</time>
      </trkpt>
      <trkpt lat="45.73001" lon="6.72453">
        <ele>2708</ele>
        <time>2026-07-29T09:41:03.716Z</time>
      </trkpt>
      <trkpt lat="45.73001" lon="6.72453">
        <ele>2709</ele>
        <time>2026-07-29T09:41:04.716Z</time>
      </trkpt>
      <trkpt lat="45.73001" lon="6.72453">
        <ele>2709</ele>
        <time>2026-07-29T09:41:05.716Z</time>
      </trkpt>
      <trkpt lat="45.73001" lon="6.72453">
        <ele>2709</ele>
        <time>2026-07-29T09:41:06.716Z</time>
      </trkpt>
      <trkpt lat="45.73001" lon="6.72453">
        <ele>2709</ele>
        <time>2026-07-29T09:41:07.716Z</time>
      </trkpt>
      <trkpt lat="45.73001" lon="6.72453">
        <ele>2709</ele>
        <time>2026-07-29T09:41:08.716Z</time>
      </trkpt>
      <trkpt lat="45.73001" lon="6.72453">
        <ele>2709</ele>
        <time>2026-07-29T09:41:09.716Z</time>
      </trkpt>
      <trkpt lat="45.73001" lon="6.72453">
        <ele>2709</ele>
        <time>2026-07-29T09:41:10.716Z</time>
      </trkpt>
      <trkpt lat="45.73001" lon="6.72453">
        <ele>2709</ele>
        <time>2026-07-29T09:41:11.716Z</time>
      </trkpt>
      <trkpt lat="45.73001" lon="6.72453">
        <ele>2709</ele>
        <time>2026-07-29T09:41:12.716Z</time>
      </trkpt>
      <trkpt lat="45.73001" lon="6.72453">
        <ele>2710</ele>
        <time>2026-07-29T09:41:13.716Z</time>
      </trkpt>
      <trkpt lat="45.73001" lon="6.72453">
        <ele>2710</ele>
        <time>2026-07-29T09:41:14.716Z</time>
      </trkpt>
      <trkpt lat="45.73002" lon="6.72452">
        <ele>2710</ele>
        <time>2026-07-29T09:41:15.716Z</time>
      </trkpt>
      <trkpt lat="45.73003" lon="6.72451">
        <ele>2710</ele>
        <time>2026-07-29T09:41:16.716Z</time>
      </trkpt>
      <trkpt lat="45.73004" lon="6.7245">
        <ele>2710</ele>
        <time>2026-07-29T09:41:17.716Z</time>
      </trkpt>
      <trkpt lat="45.73004" lon="6.72449">
        <ele>2710</ele>
        <time>2026-07-29T09:41:18.716Z</time>
      </trkpt>
      <trkpt lat="45.73005" lon="6.72448">
        <ele>2710</ele>
        <time>2026-07-29T09:41:19.716Z</time>
      </trkpt>
      <trkpt lat="45.73006" lon="6.72447">
        <ele>2709</ele>
        <time>2026-07-29T09:41:20.716Z</time>
      </trkpt>
      <trkpt lat="45.73007" lon="6.72447">
        <ele>2709</ele>
        <time>2026-07-29T09:41:21.716Z</time>
      </trkpt>
      <trkpt lat="45.73007" lon="6.72446">
        <ele>2708</ele>
        <time>2026-07-29T09:41:22.716Z</time>
      </trkpt>
      <trkpt lat="45.73007" lon="6.72446">
        <ele>2708</ele>
        <time>2026-07-29T09:41:23.716Z</time>
      </trkpt>
      <trkpt lat="45.73007" lon="6.72446">
        <ele>2708</ele>
        <time>2026-07-29T09:41:24.716Z</time>
      </trkpt>
      <trkpt lat="45.73008" lon="6.72446">
        <ele>2708</ele>
        <time>2026-07-29T09:41:25.716Z</time>
      </trkpt>
      <trkpt lat="45.73008" lon="6.72446">
        <ele>2708</ele>
        <time>2026-07-29T09:41:26.716Z</time>
      </trkpt>
      <trkpt lat="45.73009" lon="6.72445">
        <ele>2708</ele>
        <time>2026-07-29T09:41:27.716Z</time>
      </trkpt>
      <trkpt lat="45.7301" lon="6.72445">
        <ele>2708</ele>
        <time>2026-07-29T09:41:28.716Z</time>
      </trkpt>
      <trkpt lat="45.73011" lon="6.72444">
        <ele>2708</ele>
        <time>2026-07-29T09:41:29.716Z</time>
      </trkpt>
      <trkpt lat="45.73012" lon="6.72443">
        <ele>2708</ele>
        <time>2026-07-29T09:41:30.716Z</time>
      </trkpt>
      <trkpt lat="45.73013" lon="6.72443">
        <ele>2708</ele>
        <time>2026-07-29T09:41:31.716Z</time>
      </trkpt>
      <trkpt lat="45.73015" lon="6.72442">
        <ele>2708</ele>
        <time>2026-07-29T09:41:32.716Z</time>
      </trkpt>
      <trkpt lat="45.73016" lon="6.72442">
        <ele>2708</ele>
        <time>2026-07-29T09:41:33.716Z</time>
      </trkpt>
      <trkpt lat="45.73017" lon="6.72441">
        <ele>2707</ele>
        <time>2026-07-29T09:41:34.716Z</time>
      </trkpt>
      <trkpt lat="45.73018" lon="6.7244">
        <ele>2707</ele>
        <time>2026-07-29T09:41:35.716Z</time>
      </trkpt>
      <trkpt lat="45.73019" lon="6.72439">
        <ele>2706</ele>
        <time>2026-07-29T09:41:36.716Z</time>
      </trkpt>
      <trkpt lat="45.7302" lon="6.72438">
        <ele>2706</ele>
        <time>2026-07-29T09:41:37.716Z</time>
      </trkpt>
      <trkpt lat="45.7302" lon="6.72437">
        <ele>2705</ele>
        <time>2026-07-29T09:41:38.716Z</time>
      </trkpt>
      <trkpt lat="45.73021" lon="6.72437">
        <ele>2705</ele>
        <time>2026-07-29T09:41:39.716Z</time>
      </trkpt>
      <trkpt lat="45.73021" lon="6.72436">
        <ele>2705</ele>
        <time>2026-07-29T09:41:40.716Z</time>
      </trkpt>
      <trkpt lat="45.73022" lon="6.72436">
        <ele>2704</ele>
        <time>2026-07-29T09:41:41.716Z</time>
      </trkpt>
      <trkpt lat="45.73022" lon="6.72436">
        <ele>2704</ele>
        <time>2026-07-29T09:41:42.716Z</time>
      </trkpt>
      <trkpt lat="45.73023" lon="6.72435">
        <ele>2704</ele>
        <time>2026-07-29T09:41:43.716Z</time>
      </trkpt>
      <trkpt lat="45.73023" lon="6.72434">
        <ele>2704</ele>
        <time>2026-07-29T09:41:44.716Z</time>
      </trkpt>
      <trkpt lat="45.73024" lon="6.72432">
        <ele>2703</ele>
        <time>2026-07-29T09:41:45.716Z</time>
      </trkpt>
      <trkpt lat="45.73025" lon="6.72431">
        <ele>2703</ele>
        <time>2026-07-29T09:41:46.716Z</time>
      </trkpt>
      <trkpt lat="45.73026" lon="6.72429">
        <ele>2703</ele>
        <time>2026-07-29T09:41:47.716Z</time>
      </trkpt>
      <trkpt lat="45.73026" lon="6.72428">
        <ele>2703</ele>
        <time>2026-07-29T09:41:48.716Z</time>
      </trkpt>
      <trkpt lat="45.73026" lon="6.72427">
        <ele>2702</ele>
        <time>2026-07-29T09:41:49.716Z</time>
      </trkpt>
      <trkpt lat="45.73026" lon="6.72426">
        <ele>2702</ele>
        <time>2026-07-29T09:41:50.716Z</time>
      </trkpt>
      <trkpt lat="45.73026" lon="6.72425">
        <ele>2702</ele>
        <time>2026-07-29T09:41:51.716Z</time>
      </trkpt>
      <trkpt lat="45.73026" lon="6.72425">
        <ele>2701</ele>
        <time>2026-07-29T09:41:52.716Z</time>
      </trkpt>
      <trkpt lat="45.73026" lon="6.72425">
        <ele>2701</ele>
        <time>2026-07-29T09:41:53.716Z</time>
      </trkpt>
      <trkpt lat="45.73026" lon="6.72425">
        <ele>2700</ele>
        <time>2026-07-29T09:41:54.716Z</time>
      </trkpt>
      <trkpt lat="45.73027" lon="6.72425">
        <ele>2700</ele>
        <time>2026-07-29T09:41:55.716Z</time>
      </trkpt>
      <trkpt lat="45.73027" lon="6.72424">
        <ele>2700</ele>
        <time>2026-07-29T09:41:56.716Z</time>
      </trkpt>
      <trkpt lat="45.73027" lon="6.72424">
        <ele>2700</ele>
        <time>2026-07-29T09:41:57.716Z</time>
      </trkpt>
      <trkpt lat="45.73027" lon="6.72424">
        <ele>2700</ele>
        <time>2026-07-29T09:41:58.716Z</time>
      </trkpt>
      <trkpt lat="45.73027" lon="6.72424">
        <ele>2700</ele>
        <time>2026-07-29T09:41:59.716Z</time>
      </trkpt>
      <trkpt lat="45.73028" lon="6.72424">
        <ele>2700</ele>
        <time>2026-07-29T09:42:00.716Z</time>
      </trkpt>
      <trkpt lat="45.73028" lon="6.72424">
        <ele>2700</ele>
        <time>2026-07-29T09:42:01.716Z</time>
      </trkpt>
      <trkpt lat="45.73028" lon="6.72424">
        <ele>2700</ele>
        <time>2026-07-29T09:42:02.716Z</time>
      </trkpt>
      <trkpt lat="45.73028" lon="6.72424">
        <ele>2699</ele>
        <time>2026-07-29T09:42:03.716Z</time>
      </trkpt>
      <trkpt lat="45.73028" lon="6.72424">
        <ele>2699</ele>
        <time>2026-07-29T09:42:04.716Z</time>
      </trkpt>
      <trkpt lat="45.73028" lon="6.72424">
        <ele>2699</ele>
        <time>2026-07-29T09:42:05.716Z</time>
      </trkpt>
      <trkpt lat="45.73028" lon="6.72424">
        <ele>2699</ele>
        <time>2026-07-29T09:42:06.716Z</time>
      </trkpt>
      <trkpt lat="45.73028" lon="6.72424">
        <ele>2699</ele>
        <time>2026-07-29T09:42:07.716Z</time>
      </trkpt>
      <trkpt lat="45.73028" lon="6.72424">
        <ele>2699</ele>
        <time>2026-07-29T09:42:08.716Z</time>
      </trkpt>
      <trkpt lat="45.73028" lon="6.72424">
        <ele>2699</ele>
        <time>2026-07-29T09:42:09.716Z</time>
      </trkpt>
      <trkpt lat="45.73028" lon="6.72424">
        <ele>2699</ele>
        <time>2026-07-29T09:42:10.716Z</time>
      </trkpt>
      <trkpt lat="45.73028" lon="6.72424">
        <ele>2699</ele>
        <time>2026-07-29T09:42:11.716Z</time>
      </trkpt>
      <trkpt lat="45.73028" lon="6.72424">
        <ele>2699</ele>
        <time>2026-07-29T09:42:12.716Z</time>
      </trkpt>
      <trkpt lat="45.73028" lon="6.72424">
        <ele>2700</ele>
        <time>2026-07-29T09:42:13.716Z</time>
      </trkpt>
      <trkpt lat="45.73028" lon="6.72424">
        <ele>2700</ele>
        <time>2026-07-29T09:42:14.716Z</time>
      </trkpt>
      <trkpt lat="45.73028" lon="6.72424">
        <ele>2700</ele>
        <time>2026-07-29T09:42:15.716Z</time>
      </trkpt>
      <trkpt lat="45.73028" lon="6.72424">
        <ele>2700</ele>
        <time>2026-07-29T09:42:16.716Z</time>
      </trkpt>
      <trkpt lat="45.73028" lon="6.72424">
        <ele>2700</ele>
        <time>2026-07-29T09:42:17.716Z</time>
      </trkpt>
      <trkpt lat="45.73028" lon="6.72424">
        <ele>2700</ele>
        <time>2026-07-29T09:42:18.716Z</time>
      </trkpt>
      <trkpt lat="45.73028" lon="6.72424">
        <ele>2700</ele>
        <time>2026-07-29T09:42:19.716Z</time>
      </trkpt>
      <trkpt lat="45.73028" lon="6.72424">
        <ele>2700</ele>
        <time>2026-07-29T09:42:20.716Z</time>
      </trkpt>
      <trkpt lat="45.73028" lon="6.72424">
        <ele>2700</ele>
        <time>2026-07-29T09:42:21.716Z</time>
      </trkpt>
      <trkpt lat="45.73028" lon="6.72424">
        <ele>2700</ele>
        <time>2026-07-29T09:42:22.716Z</time>
      </trkpt>
      <trkpt lat="45.73028" lon="6.72424">
        <ele>2700</ele>
        <time>2026-07-29T09:42:23.716Z</time>
      </trkpt>
      <trkpt lat="45.73028" lon="6.72424">
        <ele>2700</ele>
        <time>2026-07-29T09:42:24.716Z</time>
      </trkpt>
      <trkpt lat="45.73028" lon="6.72424">
        <ele>2700</ele>
        <time>2026-07-29T09:42:25.716Z</time>
      </trkpt>
      <trkpt lat="45.73028" lon="6.72424">
        <ele>2700</ele>
        <time>2026-07-29T09:42:26.716Z</time>
      </trkpt>
      <trkpt lat="45.73028" lon="6.72424">
        <ele>2700</ele>
        <time>2026-07-29T09:42:27.716Z</time>
      </trkpt>
      <trkpt lat="45.73029" lon="6.72424">
        <ele>2700</ele>
        <time>2026-07-29T09:42:28.716Z</time>
      </trkpt>
      <trkpt lat="45.73029" lon="6.72424">
        <ele>2700</ele>
        <time>2026-07-29T09:42:29.716Z</time>
      </trkpt>
      <trkpt lat="45.73029" lon="6.72425">
        <ele>2700</ele>
        <time>2026-07-29T09:42:30.716Z</time>
      </trkpt>
      <trkpt lat="45.73031" lon="6.72426">
        <ele>2700</ele>
        <time>2026-07-29T09:42:31.716Z</time>
      </trkpt>
      <trkpt lat="45.73033" lon="6.72428">
        <ele>2700</ele>
        <time>2026-07-29T09:42:32.716Z</time>
      </trkpt>
      <trkpt lat="45.73035" lon="6.72429">
        <ele>2701</ele>
        <time>2026-07-29T09:42:33.716Z</time>
      </trkpt>
      <trkpt lat="45.73036" lon="6.72431">
        <ele>2701</ele>
        <time>2026-07-29T09:42:34.716Z</time>
      </trkpt>
      <trkpt lat="45.73038" lon="6.72432">
        <ele>2701</ele>
        <time>2026-07-29T09:42:35.716Z</time>
      </trkpt>
      <trkpt lat="45.7304" lon="6.72433">
        <ele>2701</ele>
        <time>2026-07-29T09:42:36.716Z</time>
      </trkpt>
      <trkpt lat="45.73041" lon="6.72434">
        <ele>2701</ele>
        <time>2026-07-29T09:42:37.716Z</time>
      </trkpt>
      <trkpt lat="45.73043" lon="6.72435">
        <ele>2701</ele>
        <time>2026-07-29T09:42:38.716Z</time>
      </trkpt>
      <trkpt lat="45.73045" lon="6.72435">
        <ele>2701</ele>
        <time>2026-07-29T09:42:39.716Z</time>
      </trkpt>
      <trkpt lat="45.73046" lon="6.72435">
        <ele>2701</ele>
        <time>2026-07-29T09:42:40.716Z</time>
      </trkpt>
      <trkpt lat="45.73046" lon="6.72436">
        <ele>2701</ele>
        <time>2026-07-29T09:42:41.716Z</time>
      </trkpt>
      <trkpt lat="45.73047" lon="6.72436">
        <ele>2701</ele>
        <time>2026-07-29T09:42:42.716Z</time>
      </trkpt>
      <trkpt lat="45.73048" lon="6.72436">
        <ele>2701</ele>
        <time>2026-07-29T09:42:43.716Z</time>
      </trkpt>
      <trkpt lat="45.73049" lon="6.72436">
        <ele>2701</ele>
        <time>2026-07-29T09:42:44.716Z</time>
      </trkpt>
      <trkpt lat="45.73049" lon="6.72436">
        <ele>2700</ele>
        <time>2026-07-29T09:42:45.716Z</time>
      </trkpt>
      <trkpt lat="45.73049" lon="6.72436">
        <ele>2700</ele>
        <time>2026-07-29T09:42:46.716Z</time>
      </trkpt>
      <trkpt lat="45.7305" lon="6.72436">
        <ele>2699</ele>
        <time>2026-07-29T09:42:47.716Z</time>
      </trkpt>
      <trkpt lat="45.73051" lon="6.72435">
        <ele>2699</ele>
        <time>2026-07-29T09:42:48.716Z</time>
      </trkpt>
      <trkpt lat="45.73052" lon="6.72435">
        <ele>2699</ele>
        <time>2026-07-29T09:42:49.716Z</time>
      </trkpt>
      <trkpt lat="45.73053" lon="6.72435">
        <ele>2698</ele>
        <time>2026-07-29T09:42:50.716Z</time>
      </trkpt>
      <trkpt lat="45.73054" lon="6.72434">
        <ele>2698</ele>
        <time>2026-07-29T09:42:51.716Z</time>
      </trkpt>
      <trkpt lat="45.73055" lon="6.72434">
        <ele>2698</ele>
        <time>2026-07-29T09:42:52.716Z</time>
      </trkpt>
      <trkpt lat="45.73057" lon="6.72433">
        <ele>2697</ele>
        <time>2026-07-29T09:42:53.716Z</time>
      </trkpt>
      <trkpt lat="45.73058" lon="6.72433">
        <ele>2697</ele>
        <time>2026-07-29T09:42:54.716Z</time>
      </trkpt>
      <trkpt lat="45.73059" lon="6.72432">
        <ele>2697</ele>
        <time>2026-07-29T09:42:55.716Z</time>
      </trkpt>
      <trkpt lat="45.7306" lon="6.72432">
        <ele>2696</ele>
        <time>2026-07-29T09:42:56.716Z</time>
      </trkpt>
      <trkpt lat="45.73062" lon="6.72431">
        <ele>2696</ele>
        <time>2026-07-29T09:42:57.716Z</time>
      </trkpt>
      <trkpt lat="45.73063" lon="6.72431">
        <ele>2695</ele>
        <time>2026-07-29T09:42:58.716Z</time>
      </trkpt>
      <trkpt lat="45.73064" lon="6.72431">
        <ele>2695</ele>
        <time>2026-07-29T09:42:59.716Z</time>
      </trkpt>
      <trkpt lat="45.73065" lon="6.7243">
        <ele>2695</ele>
        <time>2026-07-29T09:43:00.716Z</time>
      </trkpt>
      <trkpt lat="45.73066" lon="6.7243">
        <ele>2694</ele>
        <time>2026-07-29T09:43:01.716Z</time>
      </trkpt>
      <trkpt lat="45.73067" lon="6.7243">
        <ele>2694</ele>
        <time>2026-07-29T09:43:02.716Z</time>
      </trkpt>
      <trkpt lat="45.73069" lon="6.72429">
        <ele>2694</ele>
        <time>2026-07-29T09:43:03.716Z</time>
      </trkpt>
      <trkpt lat="45.7307" lon="6.72429">
        <ele>2693</ele>
        <time>2026-07-29T09:43:04.716Z</time>
      </trkpt>
      <trkpt lat="45.73071" lon="6.72429">
        <ele>2692</ele>
        <time>2026-07-29T09:43:05.716Z</time>
      </trkpt>
      <trkpt lat="45.73072" lon="6.72428">
        <ele>2692</ele>
        <time>2026-07-29T09:43:06.716Z</time>
      </trkpt>
      <trkpt lat="45.73073" lon="6.72428">
        <ele>2691</ele>
        <time>2026-07-29T09:43:07.716Z</time>
      </trkpt>
      <trkpt lat="45.73074" lon="6.72428">
        <ele>2691</ele>
        <time>2026-07-29T09:43:08.716Z</time>
      </trkpt>
      <trkpt lat="45.73076" lon="6.72428">
        <ele>2691</ele>
        <time>2026-07-29T09:43:09.716Z</time>
      </trkpt>
      <trkpt lat="45.73077" lon="6.72428">
        <ele>2690</ele>
        <time>2026-07-29T09:43:10.716Z</time>
      </trkpt>
      <trkpt lat="45.73078" lon="6.72429">
        <ele>2690</ele>
        <time>2026-07-29T09:43:11.716Z</time>
      </trkpt>
      <trkpt lat="45.7308" lon="6.72429">
        <ele>2690</ele>
        <time>2026-07-29T09:43:12.716Z</time>
      </trkpt>
      <trkpt lat="45.73081" lon="6.7243">
        <ele>2689</ele>
        <time>2026-07-29T09:43:13.716Z</time>
      </trkpt>
      <trkpt lat="45.73082" lon="6.7243">
        <ele>2689</ele>
        <time>2026-07-29T09:43:14.716Z</time>
      </trkpt>
      <trkpt lat="45.73083" lon="6.7243">
        <ele>2689</ele>
        <time>2026-07-29T09:43:15.716Z</time>
      </trkpt>
      <trkpt lat="45.73084" lon="6.7243">
        <ele>2688</ele>
        <time>2026-07-29T09:43:16.716Z</time>
      </trkpt>
      <trkpt lat="45.73085" lon="6.7243">
        <ele>2688</ele>
        <time>2026-07-29T09:43:17.716Z</time>
      </trkpt>
      <trkpt lat="45.73087" lon="6.72431">
        <ele>2687</ele>
        <time>2026-07-29T09:43:18.716Z</time>
      </trkpt>
      <trkpt lat="45.73087" lon="6.72431">
        <ele>2687</ele>
        <time>2026-07-29T09:43:19.716Z</time>
      </trkpt>
      <trkpt lat="45.73088" lon="6.72431">
        <ele>2687</ele>
        <time>2026-07-29T09:43:20.716Z</time>
      </trkpt>
      <trkpt lat="45.73089" lon="6.72431">
        <ele>2687</ele>
        <time>2026-07-29T09:43:21.716Z</time>
      </trkpt>
      <trkpt lat="45.7309" lon="6.7243">
        <ele>2687</ele>
        <time>2026-07-29T09:43:22.716Z</time>
      </trkpt>
      <trkpt lat="45.73091" lon="6.7243">
        <ele>2687</ele>
        <time>2026-07-29T09:43:23.716Z</time>
      </trkpt>
      <trkpt lat="45.73092" lon="6.72429">
        <ele>2686</ele>
        <time>2026-07-29T09:43:24.716Z</time>
      </trkpt>
      <trkpt lat="45.73093" lon="6.72428">
        <ele>2686</ele>
        <time>2026-07-29T09:43:25.716Z</time>
      </trkpt>
      <trkpt lat="45.73094" lon="6.72428">
        <ele>2686</ele>
        <time>2026-07-29T09:43:26.716Z</time>
      </trkpt>
      <trkpt lat="45.73094" lon="6.72427">
        <ele>2685</ele>
        <time>2026-07-29T09:43:27.716Z</time>
      </trkpt>
      <trkpt lat="45.73096" lon="6.72427">
        <ele>2685</ele>
        <time>2026-07-29T09:43:28.716Z</time>
      </trkpt>
      <trkpt lat="45.73097" lon="6.72426">
        <ele>2685</ele>
        <time>2026-07-29T09:43:29.716Z</time>
      </trkpt>
      <trkpt lat="45.73098" lon="6.72425">
        <ele>2684</ele>
        <time>2026-07-29T09:43:30.716Z</time>
      </trkpt>
      <trkpt lat="45.73099" lon="6.72425">
        <ele>2683</ele>
        <time>2026-07-29T09:43:31.716Z</time>
      </trkpt>
      <trkpt lat="45.731" lon="6.72425">
        <ele>2683</ele>
        <time>2026-07-29T09:43:32.716Z</time>
      </trkpt>
      <trkpt lat="45.731" lon="6.72423">
        <ele>2682</ele>
        <time>2026-07-29T09:43:33.716Z</time>
      </trkpt>
      <trkpt lat="45.73101" lon="6.72422">
        <ele>2681</ele>
        <time>2026-07-29T09:43:34.716Z</time>
      </trkpt>
      <trkpt lat="45.73102" lon="6.72421">
        <ele>2681</ele>
        <time>2026-07-29T09:43:35.716Z</time>
      </trkpt>
      <trkpt lat="45.73103" lon="6.7242">
        <ele>2680</ele>
        <time>2026-07-29T09:43:36.716Z</time>
      </trkpt>
      <trkpt lat="45.73104" lon="6.7242">
        <ele>2679</ele>
        <time>2026-07-29T09:43:37.716Z</time>
      </trkpt>
      <trkpt lat="45.73105" lon="6.72419">
        <ele>2679</ele>
        <time>2026-07-29T09:43:38.716Z</time>
      </trkpt>
      <trkpt lat="45.73106" lon="6.72419">
        <ele>2678</ele>
        <time>2026-07-29T09:43:39.716Z</time>
      </trkpt>
      <trkpt lat="45.73106" lon="6.72418">
        <ele>2677</ele>
        <time>2026-07-29T09:43:40.716Z</time>
      </trkpt>
      <trkpt lat="45.73107" lon="6.72417">
        <ele>2677</ele>
        <time>2026-07-29T09:43:41.716Z</time>
      </trkpt>
      <trkpt lat="45.73108" lon="6.72417">
        <ele>2676</ele>
        <time>2026-07-29T09:43:42.716Z</time>
      </trkpt>
      <trkpt lat="45.73109" lon="6.72416">
        <ele>2676</ele>
        <time>2026-07-29T09:43:43.716Z</time>
      </trkpt>
      <trkpt lat="45.7311" lon="6.72415">
        <ele>2676</ele>
        <time>2026-07-29T09:43:44.716Z</time>
      </trkpt>
      <trkpt lat="45.73111" lon="6.72415">
        <ele>2675</ele>
        <time>2026-07-29T09:43:45.716Z</time>
      </trkpt>
      <trkpt lat="45.73112" lon="6.72414">
        <ele>2675</ele>
        <time>2026-07-29T09:43:46.716Z</time>
      </trkpt>
      <trkpt lat="45.73113" lon="6.72413">
        <ele>2674</ele>
        <time>2026-07-29T09:43:47.716Z</time>
      </trkpt>
      <trkpt lat="45.73114" lon="6.72412">
        <ele>2674</ele>
        <time>2026-07-29T09:43:48.716Z</time>
      </trkpt>
      <trkpt lat="45.73115" lon="6.72411">
        <ele>2673</ele>
        <time>2026-07-29T09:43:49.716Z</time>
      </trkpt>
      <trkpt lat="45.73116" lon="6.7241">
        <ele>2672</ele>
        <time>2026-07-29T09:43:50.716Z</time>
      </trkpt>
      <trkpt lat="45.73117" lon="6.7241">
        <ele>2672</ele>
        <time>2026-07-29T09:43:51.716Z</time>
      </trkpt>
      <trkpt lat="45.73118" lon="6.72409">
        <ele>2671</ele>
        <time>2026-07-29T09:43:52.716Z</time>
      </trkpt>
      <trkpt lat="45.73119" lon="6.72407">
        <ele>2671</ele>
        <time>2026-07-29T09:43:53.716Z</time>
      </trkpt>
      <trkpt lat="45.7312" lon="6.72405">
        <ele>2671</ele>
        <time>2026-07-29T09:43:54.716Z</time>
      </trkpt>
      <trkpt lat="45.7312" lon="6.72403">
        <ele>2671</ele>
        <time>2026-07-29T09:43:55.716Z</time>
      </trkpt>
      <trkpt lat="45.73121" lon="6.724">
        <ele>2670</ele>
        <time>2026-07-29T09:43:56.716Z</time>
      </trkpt>
      <trkpt lat="45.7312" lon="6.72397">
        <ele>2670</ele>
        <time>2026-07-29T09:43:57.716Z</time>
      </trkpt>
      <trkpt lat="45.7312" lon="6.72395">
        <ele>2670</ele>
        <time>2026-07-29T09:43:58.716Z</time>
      </trkpt>
      <trkpt lat="45.7312" lon="6.72392">
        <ele>2669</ele>
        <time>2026-07-29T09:43:59.716Z</time>
      </trkpt>
      <trkpt lat="45.73119" lon="6.72389">
        <ele>2669</ele>
        <time>2026-07-29T09:44:00.716Z</time>
      </trkpt>
      <trkpt lat="45.73118" lon="6.72387">
        <ele>2668</ele>
        <time>2026-07-29T09:44:01.716Z</time>
      </trkpt>
      <trkpt lat="45.73116" lon="6.72385">
        <ele>2667</ele>
        <time>2026-07-29T09:44:02.716Z</time>
      </trkpt>
      <trkpt lat="45.73115" lon="6.72382">
        <ele>2667</ele>
        <time>2026-07-29T09:44:03.716Z</time>
      </trkpt>
      <trkpt lat="45.73115" lon="6.7238">
        <ele>2667</ele>
        <time>2026-07-29T09:44:04.716Z</time>
      </trkpt>
      <trkpt lat="45.73115" lon="6.72378">
        <ele>2666</ele>
        <time>2026-07-29T09:44:05.716Z</time>
      </trkpt>
      <trkpt lat="45.73115" lon="6.72375">
        <ele>2666</ele>
        <time>2026-07-29T09:44:06.716Z</time>
      </trkpt>
      <trkpt lat="45.73114" lon="6.72373">
        <ele>2665</ele>
        <time>2026-07-29T09:44:07.716Z</time>
      </trkpt>
      <trkpt lat="45.73113" lon="6.72371">
        <ele>2665</ele>
        <time>2026-07-29T09:44:08.716Z</time>
      </trkpt>
      <trkpt lat="45.73112" lon="6.7237">
        <ele>2665</ele>
        <time>2026-07-29T09:44:09.716Z</time>
      </trkpt>
      <trkpt lat="45.73111" lon="6.72368">
        <ele>2664</ele>
        <time>2026-07-29T09:44:10.717Z</time>
      </trkpt>
      <trkpt lat="45.7311" lon="6.72367">
        <ele>2664</ele>
        <time>2026-07-29T09:44:11.716Z</time>
      </trkpt>
      <trkpt lat="45.7311" lon="6.72366">
        <ele>2664</ele>
        <time>2026-07-29T09:44:12.716Z</time>
      </trkpt>
      <trkpt lat="45.73109" lon="6.72365">
        <ele>2663</ele>
        <time>2026-07-29T09:44:13.716Z</time>
      </trkpt>
      <trkpt lat="45.73109" lon="6.72365">
        <ele>2663</ele>
        <time>2026-07-29T09:44:14.716Z</time>
      </trkpt>
      <trkpt lat="45.73109" lon="6.72365">
        <ele>2663</ele>
        <time>2026-07-29T09:44:15.716Z</time>
      </trkpt>
      <trkpt lat="45.73109" lon="6.72365">
        <ele>2662</ele>
        <time>2026-07-29T09:44:16.716Z</time>
      </trkpt>
      <trkpt lat="45.73109" lon="6.72365">
        <ele>2662</ele>
        <time>2026-07-29T09:44:17.716Z</time>
      </trkpt>
      <trkpt lat="45.73109" lon="6.72365">
        <ele>2662</ele>
        <time>2026-07-29T09:44:18.716Z</time>
      </trkpt>
      <trkpt lat="45.73109" lon="6.72365">
        <ele>2662</ele>
        <time>2026-07-29T09:44:19.716Z</time>
      </trkpt>
      <trkpt lat="45.73109" lon="6.72365">
        <ele>2661</ele>
        <time>2026-07-29T09:44:20.716Z</time>
      </trkpt>
      <trkpt lat="45.73109" lon="6.72365">
        <ele>2661</ele>
        <time>2026-07-29T09:44:21.716Z</time>
      </trkpt>
      <trkpt lat="45.73109" lon="6.72365">
        <ele>2661</ele>
        <time>2026-07-29T09:44:22.716Z</time>
      </trkpt>
      <trkpt lat="45.73109" lon="6.72365">
        <ele>2661</ele>
        <time>2026-07-29T09:44:23.716Z</time>
      </trkpt>
      <trkpt lat="45.73109" lon="6.72365">
        <ele>2660</ele>
        <time>2026-07-29T09:44:24.716Z</time>
      </trkpt>
      <trkpt lat="45.73109" lon="6.72365">
        <ele>2660</ele>
        <time>2026-07-29T09:44:25.716Z</time>
      </trkpt>
      <trkpt lat="45.73109" lon="6.72365">
        <ele>2660</ele>
        <time>2026-07-29T09:44:26.716Z</time>
      </trkpt>
      <trkpt lat="45.73109" lon="6.72365">
        <ele>2661</ele>
        <time>2026-07-29T09:44:27.716Z</time>
      </trkpt>
      <trkpt lat="45.73109" lon="6.72365">
        <ele>2660</ele>
        <time>2026-07-29T09:44:28.716Z</time>
      </trkpt>
      <trkpt lat="45.73109" lon="6.72365">
        <ele>2660</ele>
        <time>2026-07-29T09:44:29.716Z</time>
      </trkpt>
      <trkpt lat="45.73109" lon="6.72365">
        <ele>2660</ele>
        <time>2026-07-29T09:44:30.716Z</time>
      </trkpt>
      <trkpt lat="45.73109" lon="6.72365">
        <ele>2660</ele>
        <time>2026-07-29T09:44:31.716Z</time>
      </trkpt>
      <trkpt lat="45.73109" lon="6.72365">
        <ele>2660</ele>
        <time>2026-07-29T09:44:32.716Z</time>
      </trkpt>
      <trkpt lat="45.73109" lon="6.72365">
        <ele>2660</ele>
        <time>2026-07-29T09:44:33.716Z</time>
      </trkpt>
      <trkpt lat="45.73109" lon="6.72365">
        <ele>2660</ele>
        <time>2026-07-29T09:44:34.716Z</time>
      </trkpt>
      <trkpt lat="45.73109" lon="6.72365">
        <ele>2660</ele>
        <time>2026-07-29T09:44:35.716Z</time>
      </trkpt>
      <trkpt lat="45.73109" lon="6.72365">
        <ele>2660</ele>
        <time>2026-07-29T09:44:36.716Z</time>
      </trkpt>
      <trkpt lat="45.73109" lon="6.72365">
        <ele>2660</ele>
        <time>2026-07-29T09:44:37.716Z</time>
      </trkpt>
      <trkpt lat="45.73109" lon="6.72365">
        <ele>2660</ele>
        <time>2026-07-29T09:44:38.716Z</time>
      </trkpt>
      <trkpt lat="45.73108" lon="6.72364">
        <ele>2660</ele>
        <time>2026-07-29T09:44:39.716Z</time>
      </trkpt>
      <trkpt lat="45.73106" lon="6.72363">
        <ele>2660</ele>
        <time>2026-07-29T09:44:40.716Z</time>
      </trkpt>
      <trkpt lat="45.73105" lon="6.72361">
        <ele>2660</ele>
        <time>2026-07-29T09:44:41.716Z</time>
      </trkpt>
      <trkpt lat="45.73104" lon="6.7236">
        <ele>2660</ele>
        <time>2026-07-29T09:44:42.716Z</time>
      </trkpt>
      <trkpt lat="45.73102" lon="6.72358">
        <ele>2660</ele>
        <time>2026-07-29T09:44:43.716Z</time>
      </trkpt>
      <trkpt lat="45.731" lon="6.72356">
        <ele>2660</ele>
        <time>2026-07-29T09:44:44.716Z</time>
      </trkpt>
      <trkpt lat="45.73098" lon="6.72354">
        <ele>2660</ele>
        <time>2026-07-29T09:44:45.716Z</time>
      </trkpt>
      <trkpt lat="45.73097" lon="6.72352">
        <ele>2660</ele>
        <time>2026-07-29T09:44:46.716Z</time>
      </trkpt>
      <trkpt lat="45.73094" lon="6.72351">
        <ele>2660</ele>
        <time>2026-07-29T09:44:47.716Z</time>
      </trkpt>
      <trkpt lat="45.73092" lon="6.7235">
        <ele>2659</ele>
        <time>2026-07-29T09:44:48.716Z</time>
      </trkpt>
      <trkpt lat="45.7309" lon="6.72349">
        <ele>2659</ele>
        <time>2026-07-29T09:44:49.716Z</time>
      </trkpt>
      <trkpt lat="45.73088" lon="6.72349">
        <ele>2658</ele>
        <time>2026-07-29T09:44:50.716Z</time>
      </trkpt>
      <trkpt lat="45.73086" lon="6.72348">
        <ele>2658</ele>
        <time>2026-07-29T09:44:51.716Z</time>
      </trkpt>
      <trkpt lat="45.73084" lon="6.72346">
        <ele>2658</ele>
        <time>2026-07-29T09:44:52.716Z</time>
      </trkpt>
      <trkpt lat="45.73082" lon="6.72345">
        <ele>2657</ele>
        <time>2026-07-29T09:44:53.716Z</time>
      </trkpt>
      <trkpt lat="45.73081" lon="6.72344">
        <ele>2657</ele>
        <time>2026-07-29T09:44:54.716Z</time>
      </trkpt>
      <trkpt lat="45.73079" lon="6.72343">
        <ele>2657</ele>
        <time>2026-07-29T09:44:55.716Z</time>
      </trkpt>
      <trkpt lat="45.73078" lon="6.72341">
        <ele>2657</ele>
        <time>2026-07-29T09:44:56.716Z</time>
      </trkpt>
      <trkpt lat="45.73076" lon="6.7234">
        <ele>2656</ele>
        <time>2026-07-29T09:44:57.716Z</time>
      </trkpt>
      <trkpt lat="45.73074" lon="6.72339">
        <ele>2656</ele>
        <time>2026-07-29T09:44:58.716Z</time>
      </trkpt>
      <trkpt lat="45.73073" lon="6.72338">
        <ele>2655</ele>
        <time>2026-07-29T09:44:59.716Z</time>
      </trkpt>
      <trkpt lat="45.7307" lon="6.72337">
        <ele>2655</ele>
        <time>2026-07-29T09:45:00.716Z</time>
      </trkpt>
      <trkpt lat="45.73068" lon="6.72335">
        <ele>2655</ele>
        <time>2026-07-29T09:45:01.716Z</time>
      </trkpt>
      <trkpt lat="45.73067" lon="6.72333">
        <ele>2655</ele>
        <time>2026-07-29T09:45:02.716Z</time>
      </trkpt>
      <trkpt lat="45.73065" lon="6.72331">
        <ele>2655</ele>
        <time>2026-07-29T09:45:03.716Z</time>
      </trkpt>
      <trkpt lat="45.73063" lon="6.72329">
        <ele>2655</ele>
        <time>2026-07-29T09:45:04.716Z</time>
      </trkpt>
      <trkpt lat="45.73062" lon="6.72327">
        <ele>2654</ele>
        <time>2026-07-29T09:45:05.716Z</time>
      </trkpt>
      <trkpt lat="45.73061" lon="6.72324">
        <ele>2654</ele>
        <time>2026-07-29T09:45:06.716Z</time>
      </trkpt>
      <trkpt lat="45.7306" lon="6.72322">
        <ele>2654</ele>
        <time>2026-07-29T09:45:07.716Z</time>
      </trkpt>
      <trkpt lat="45.73058" lon="6.7232">
        <ele>2654</ele>
        <time>2026-07-29T09:45:08.716Z</time>
      </trkpt>
      <trkpt lat="45.73057" lon="6.72318">
        <ele>2654</ele>
        <time>2026-07-29T09:45:09.716Z</time>
      </trkpt>
      <trkpt lat="45.73055" lon="6.72317">
        <ele>2653</ele>
        <time>2026-07-29T09:45:10.716Z</time>
      </trkpt>
      <trkpt lat="45.73054" lon="6.72315">
        <ele>2653</ele>
        <time>2026-07-29T09:45:11.716Z</time>
      </trkpt>
      <trkpt lat="45.73052" lon="6.72314">
        <ele>2653</ele>
        <time>2026-07-29T09:45:12.716Z</time>
      </trkpt>
      <trkpt lat="45.7305" lon="6.72313">
        <ele>2653</ele>
        <time>2026-07-29T09:45:13.716Z</time>
      </trkpt>
      <trkpt lat="45.73048" lon="6.72312">
        <ele>2652</ele>
        <time>2026-07-29T09:45:14.716Z</time>
      </trkpt>
      <trkpt lat="45.73047" lon="6.7231">
        <ele>2652</ele>
        <time>2026-07-29T09:45:15.716Z</time>
      </trkpt>
      <trkpt lat="45.73045" lon="6.72309">
        <ele>2652</ele>
        <time>2026-07-29T09:45:16.716Z</time>
      </trkpt>
      <trkpt lat="45.73044" lon="6.72308">
        <ele>2651</ele>
        <time>2026-07-29T09:45:17.716Z</time>
      </trkpt>
      <trkpt lat="45.73042" lon="6.72306">
        <ele>2651</ele>
        <time>2026-07-29T09:45:18.716Z</time>
      </trkpt>
      <trkpt lat="45.7304" lon="6.72305">
        <ele>2650</ele>
        <time>2026-07-29T09:45:19.716Z</time>
      </trkpt>
      <trkpt lat="45.73038" lon="6.72304">
        <ele>2650</ele>
        <time>2026-07-29T09:45:20.716Z</time>
      </trkpt>
      <trkpt lat="45.73035" lon="6.72303">
        <ele>2650</ele>
        <time>2026-07-29T09:45:21.716Z</time>
      </trkpt>
      <trkpt lat="45.73033" lon="6.72302">
        <ele>2649</ele>
        <time>2026-07-29T09:45:22.716Z</time>
      </trkpt>
      <trkpt lat="45.73031" lon="6.72302">
        <ele>2649</ele>
        <time>2026-07-29T09:45:23.716Z</time>
      </trkpt>
      <trkpt lat="45.73028" lon="6.723">
        <ele>2648</ele>
        <time>2026-07-29T09:45:24.716Z</time>
      </trkpt>
      <trkpt lat="45.73026" lon="6.72299">
        <ele>2648</ele>
        <time>2026-07-29T09:45:25.716Z</time>
      </trkpt>
      <trkpt lat="45.73023" lon="6.72297">
        <ele>2647</ele>
        <time>2026-07-29T09:45:26.716Z</time>
      </trkpt>
      <trkpt lat="45.73021" lon="6.72296">
        <ele>2647</ele>
        <time>2026-07-29T09:45:27.716Z</time>
      </trkpt>
      <trkpt lat="45.73018" lon="6.72294">
        <ele>2647</ele>
        <time>2026-07-29T09:45:28.716Z</time>
      </trkpt>
      <trkpt lat="45.73016" lon="6.72293">
        <ele>2646</ele>
        <time>2026-07-29T09:45:29.716Z</time>
      </trkpt>
      <trkpt lat="45.73014" lon="6.72291">
        <ele>2646</ele>
        <time>2026-07-29T09:45:30.716Z</time>
      </trkpt>
      <trkpt lat="45.73011" lon="6.7229">
        <ele>2646</ele>
        <time>2026-07-29T09:45:31.716Z</time>
      </trkpt>
      <trkpt lat="45.73009" lon="6.72289">
        <ele>2645</ele>
        <time>2026-07-29T09:45:32.716Z</time>
      </trkpt>
      <trkpt lat="45.73007" lon="6.72287">
        <ele>2645</ele>
        <time>2026-07-29T09:45:33.716Z</time>
      </trkpt>
      <trkpt lat="45.73004" lon="6.72286">
        <ele>2645</ele>
        <time>2026-07-29T09:45:34.716Z</time>
      </trkpt>
      <trkpt lat="45.73002" lon="6.72285">
        <ele>2646</ele>
        <time>2026-07-29T09:45:35.716Z</time>
      </trkpt>
      <trkpt lat="45.73" lon="6.72284">
        <ele>2646</ele>
        <time>2026-07-29T09:45:36.716Z</time>
      </trkpt>
      <trkpt lat="45.72998" lon="6.72282">
        <ele>2646</ele>
        <time>2026-07-29T09:45:37.716Z</time>
      </trkpt>
      <trkpt lat="45.72996" lon="6.72281">
        <ele>2646</ele>
        <time>2026-07-29T09:45:38.716Z</time>
      </trkpt>
      <trkpt lat="45.72993" lon="6.72279">
        <ele>2646</ele>
        <time>2026-07-29T09:45:39.716Z</time>
      </trkpt>
      <trkpt lat="45.72991" lon="6.72278">
        <ele>2646</ele>
        <time>2026-07-29T09:45:40.716Z</time>
      </trkpt>
      <trkpt lat="45.7299" lon="6.72276">
        <ele>2645</ele>
        <time>2026-07-29T09:45:41.716Z</time>
      </trkpt>
      <trkpt lat="45.72988" lon="6.72274">
        <ele>2645</ele>
        <time>2026-07-29T09:45:42.716Z</time>
      </trkpt>
      <trkpt lat="45.72987" lon="6.72272">
        <ele>2644</ele>
        <time>2026-07-29T09:45:43.716Z</time>
      </trkpt>
      <trkpt lat="45.72985" lon="6.7227">
        <ele>2644</ele>
        <time>2026-07-29T09:45:44.716Z</time>
      </trkpt>
      <trkpt lat="45.72983" lon="6.72269">
        <ele>2643</ele>
        <time>2026-07-29T09:45:45.716Z</time>
      </trkpt>
      <trkpt lat="45.72981" lon="6.72267">
        <ele>2642</ele>
        <time>2026-07-29T09:45:46.716Z</time>
      </trkpt>
      <trkpt lat="45.72979" lon="6.72265">
        <ele>2642</ele>
        <time>2026-07-29T09:45:47.716Z</time>
      </trkpt>
      <trkpt lat="45.72977" lon="6.72263">
        <ele>2641</ele>
        <time>2026-07-29T09:45:48.716Z</time>
      </trkpt>
      <trkpt lat="45.72975" lon="6.72261">
        <ele>2641</ele>
        <time>2026-07-29T09:45:49.716Z</time>
      </trkpt>
      <trkpt lat="45.72973" lon="6.72258">
        <ele>2640</ele>
        <time>2026-07-29T09:45:50.716Z</time>
      </trkpt>
      <trkpt lat="45.72971" lon="6.72256">
        <ele>2640</ele>
        <time>2026-07-29T09:45:51.716Z</time>
      </trkpt>
      <trkpt lat="45.7297" lon="6.72254">
        <ele>2639</ele>
        <time>2026-07-29T09:45:52.716Z</time>
      </trkpt>
      <trkpt lat="45.72968" lon="6.72252">
        <ele>2639</ele>
        <time>2026-07-29T09:45:53.716Z</time>
      </trkpt>
      <trkpt lat="45.72967" lon="6.7225">
        <ele>2639</ele>
        <time>2026-07-29T09:45:54.716Z</time>
      </trkpt>
      <trkpt lat="45.72965" lon="6.72249">
        <ele>2638</ele>
        <time>2026-07-29T09:45:55.716Z</time>
      </trkpt>
      <trkpt lat="45.72964" lon="6.72248">
        <ele>2638</ele>
        <time>2026-07-29T09:45:56.716Z</time>
      </trkpt>
      <trkpt lat="45.72962" lon="6.72248">
        <ele>2638</ele>
        <time>2026-07-29T09:45:57.716Z</time>
      </trkpt>
      <trkpt lat="45.72959" lon="6.72247">
        <ele>2638</ele>
        <time>2026-07-29T09:45:58.716Z</time>
      </trkpt>
      <trkpt lat="45.72957" lon="6.72247">
        <ele>2637</ele>
        <time>2026-07-29T09:45:59.716Z</time>
      </trkpt>
      <trkpt lat="45.72955" lon="6.72247">
        <ele>2637</ele>
        <time>2026-07-29T09:46:00.716Z</time>
      </trkpt>
      <trkpt lat="45.72953" lon="6.72247">
        <ele>2637</ele>
        <time>2026-07-29T09:46:01.716Z</time>
      </trkpt>
      <trkpt lat="45.72951" lon="6.72246">
        <ele>2636</ele>
        <time>2026-07-29T09:46:02.716Z</time>
      </trkpt>
      <trkpt lat="45.72949" lon="6.72245">
        <ele>2636</ele>
        <time>2026-07-29T09:46:03.716Z</time>
      </trkpt>
      <trkpt lat="45.72947" lon="6.72244">
        <ele>2636</ele>
        <time>2026-07-29T09:46:04.716Z</time>
      </trkpt>
      <trkpt lat="45.72944" lon="6.72243">
        <ele>2635</ele>
        <time>2026-07-29T09:46:05.716Z</time>
      </trkpt>
      <trkpt lat="45.72942" lon="6.72243">
        <ele>2635</ele>
        <time>2026-07-29T09:46:06.716Z</time>
      </trkpt>
      <trkpt lat="45.7294" lon="6.72242">
        <ele>2634</ele>
        <time>2026-07-29T09:46:07.716Z</time>
      </trkpt>
      <trkpt lat="45.72937" lon="6.7224">
        <ele>2634</ele>
        <time>2026-07-29T09:46:08.716Z</time>
      </trkpt>
      <trkpt lat="45.72935" lon="6.72239">
        <ele>2633</ele>
        <time>2026-07-29T09:46:09.716Z</time>
      </trkpt>
      <trkpt lat="45.72933" lon="6.72237">
        <ele>2632</ele>
        <time>2026-07-29T09:46:10.716Z</time>
      </trkpt>
      <trkpt lat="45.7293" lon="6.72236">
        <ele>2632</ele>
        <time>2026-07-29T09:46:11.716Z</time>
      </trkpt>
      <trkpt lat="45.72928" lon="6.72234">
        <ele>2631</ele>
        <time>2026-07-29T09:46:12.716Z</time>
      </trkpt>
      <trkpt lat="45.72926" lon="6.72233">
        <ele>2631</ele>
        <time>2026-07-29T09:46:13.716Z</time>
      </trkpt>
      <trkpt lat="45.72925" lon="6.72231">
        <ele>2630</ele>
        <time>2026-07-29T09:46:14.716Z</time>
      </trkpt>
      <trkpt lat="45.72923" lon="6.72229">
        <ele>2630</ele>
        <time>2026-07-29T09:46:15.716Z</time>
      </trkpt>
      <trkpt lat="45.7292" lon="6.72228">
        <ele>2629</ele>
        <time>2026-07-29T09:46:16.716Z</time>
      </trkpt>
      <trkpt lat="45.72918" lon="6.72226">
        <ele>2629</ele>
        <time>2026-07-29T09:46:17.716Z</time>
      </trkpt>
      <trkpt lat="45.72915" lon="6.72224">
        <ele>2628</ele>
        <time>2026-07-29T09:46:18.716Z</time>
      </trkpt>
      <trkpt lat="45.72913" lon="6.72221">
        <ele>2628</ele>
        <time>2026-07-29T09:46:19.716Z</time>
      </trkpt>
      <trkpt lat="45.72912" lon="6.7222">
        <ele>2628</ele>
        <time>2026-07-29T09:46:20.716Z</time>
      </trkpt>
      <trkpt lat="45.7291" lon="6.72218">
        <ele>2627</ele>
        <time>2026-07-29T09:46:21.716Z</time>
      </trkpt>
      <trkpt lat="45.72909" lon="6.72217">
        <ele>2627</ele>
        <time>2026-07-29T09:46:22.716Z</time>
      </trkpt>
      <trkpt lat="45.72907" lon="6.72216">
        <ele>2626</ele>
        <time>2026-07-29T09:46:23.716Z</time>
      </trkpt>
      <trkpt lat="45.72906" lon="6.72215">
        <ele>2625</ele>
        <time>2026-07-29T09:46:24.716Z</time>
      </trkpt>
      <trkpt lat="45.72904" lon="6.72213">
        <ele>2624</ele>
        <time>2026-07-29T09:46:25.716Z</time>
      </trkpt>
      <trkpt lat="45.72902" lon="6.72212">
        <ele>2623</ele>
        <time>2026-07-29T09:46:26.716Z</time>
      </trkpt>
      <trkpt lat="45.729" lon="6.7221">
        <ele>2623</ele>
        <time>2026-07-29T09:46:27.716Z</time>
      </trkpt>
      <trkpt lat="45.72898" lon="6.72209">
        <ele>2622</ele>
        <time>2026-07-29T09:46:28.716Z</time>
      </trkpt>
      <trkpt lat="45.72896" lon="6.72208">
        <ele>2622</ele>
        <time>2026-07-29T09:46:29.716Z</time>
      </trkpt>
      <trkpt lat="45.72894" lon="6.72206">
        <ele>2621</ele>
        <time>2026-07-29T09:46:30.716Z</time>
      </trkpt>
      <trkpt lat="45.72892" lon="6.72204">
        <ele>2621</ele>
        <time>2026-07-29T09:46:31.716Z</time>
      </trkpt>
      <trkpt lat="45.7289" lon="6.72203">
        <ele>2621</ele>
        <time>2026-07-29T09:46:32.716Z</time>
      </trkpt>
      <trkpt lat="45.72888" lon="6.72201">
        <ele>2620</ele>
        <time>2026-07-29T09:46:33.716Z</time>
      </trkpt>
      <trkpt lat="45.72886" lon="6.72199">
        <ele>2620</ele>
        <time>2026-07-29T09:46:34.716Z</time>
      </trkpt>
      <trkpt lat="45.72884" lon="6.72198">
        <ele>2619</ele>
        <time>2026-07-29T09:46:35.716Z</time>
      </trkpt>
      <trkpt lat="45.72882" lon="6.72196">
        <ele>2619</ele>
        <time>2026-07-29T09:46:36.716Z</time>
      </trkpt>
      <trkpt lat="45.7288" lon="6.72194">
        <ele>2618</ele>
        <time>2026-07-29T09:46:37.716Z</time>
      </trkpt>
      <trkpt lat="45.72878" lon="6.72193">
        <ele>2618</ele>
        <time>2026-07-29T09:46:38.716Z</time>
      </trkpt>
      <trkpt lat="45.72876" lon="6.72191">
        <ele>2617</ele>
        <time>2026-07-29T09:46:39.716Z</time>
      </trkpt>
      <trkpt lat="45.72875" lon="6.7219">
        <ele>2616</ele>
        <time>2026-07-29T09:46:40.716Z</time>
      </trkpt>
      <trkpt lat="45.72874" lon="6.72188">
        <ele>2616</ele>
        <time>2026-07-29T09:46:41.716Z</time>
      </trkpt>
      <trkpt lat="45.72872" lon="6.72187">
        <ele>2615</ele>
        <time>2026-07-29T09:46:42.716Z</time>
      </trkpt>
      <trkpt lat="45.72871" lon="6.72186">
        <ele>2615</ele>
        <time>2026-07-29T09:46:43.716Z</time>
      </trkpt>
      <trkpt lat="45.7287" lon="6.72185">
        <ele>2614</ele>
        <time>2026-07-29T09:46:44.716Z</time>
      </trkpt>
      <trkpt lat="45.72868" lon="6.72184">
        <ele>2614</ele>
        <time>2026-07-29T09:46:45.716Z</time>
      </trkpt>
      <trkpt lat="45.72866" lon="6.72184">
        <ele>2613</ele>
        <time>2026-07-29T09:46:46.716Z</time>
      </trkpt>
      <trkpt lat="45.72865" lon="6.72183">
        <ele>2613</ele>
        <time>2026-07-29T09:46:47.716Z</time>
      </trkpt>
      <trkpt lat="45.72863" lon="6.72182">
        <ele>2613</ele>
        <time>2026-07-29T09:46:48.716Z</time>
      </trkpt>
      <trkpt lat="45.72861" lon="6.72182">
        <ele>2612</ele>
        <time>2026-07-29T09:46:49.716Z</time>
      </trkpt>
      <trkpt lat="45.72859" lon="6.72182">
        <ele>2612</ele>
        <time>2026-07-29T09:46:50.716Z</time>
      </trkpt>
      <trkpt lat="45.72857" lon="6.72182">
        <ele>2611</ele>
        <time>2026-07-29T09:46:51.716Z</time>
      </trkpt>
      <trkpt lat="45.72855" lon="6.72183">
        <ele>2611</ele>
        <time>2026-07-29T09:46:52.716Z</time>
      </trkpt>
      <trkpt lat="45.72853" lon="6.72184">
        <ele>2610</ele>
        <time>2026-07-29T09:46:53.716Z</time>
      </trkpt>
      <trkpt lat="45.72851" lon="6.72185">
        <ele>2610</ele>
        <time>2026-07-29T09:46:54.716Z</time>
      </trkpt>
      <trkpt lat="45.72849" lon="6.72185">
        <ele>2609</ele>
        <time>2026-07-29T09:46:55.716Z</time>
      </trkpt>
      <trkpt lat="45.72847" lon="6.72185">
        <ele>2609</ele>
        <time>2026-07-29T09:46:56.716Z</time>
      </trkpt>
      <trkpt lat="45.72846" lon="6.72184">
        <ele>2608</ele>
        <time>2026-07-29T09:46:57.716Z</time>
      </trkpt>
      <trkpt lat="45.72844" lon="6.72182">
        <ele>2608</ele>
        <time>2026-07-29T09:46:58.716Z</time>
      </trkpt>
      <trkpt lat="45.72842" lon="6.72181">
        <ele>2608</ele>
        <time>2026-07-29T09:46:59.716Z</time>
      </trkpt>
      <trkpt lat="45.7284" lon="6.72178">
        <ele>2607</ele>
        <time>2026-07-29T09:47:00.716Z</time>
      </trkpt>
      <trkpt lat="45.72839" lon="6.72176">
        <ele>2607</ele>
        <time>2026-07-29T09:47:01.716Z</time>
      </trkpt>
      <trkpt lat="45.72837" lon="6.72174">
        <ele>2606</ele>
        <time>2026-07-29T09:47:02.716Z</time>
      </trkpt>
      <trkpt lat="45.72835" lon="6.72172">
        <ele>2605</ele>
        <time>2026-07-29T09:47:03.716Z</time>
      </trkpt>
      <trkpt lat="45.72834" lon="6.7217">
        <ele>2604</ele>
        <time>2026-07-29T09:47:04.716Z</time>
      </trkpt>
      <trkpt lat="45.72832" lon="6.72167">
        <ele>2603</ele>
        <time>2026-07-29T09:47:05.716Z</time>
      </trkpt>
      <trkpt lat="45.72831" lon="6.72165">
        <ele>2603</ele>
        <time>2026-07-29T09:47:06.716Z</time>
      </trkpt>
      <trkpt lat="45.72829" lon="6.72162">
        <ele>2602</ele>
        <time>2026-07-29T09:47:07.716Z</time>
      </trkpt>
      <trkpt lat="45.72828" lon="6.7216">
        <ele>2602</ele>
        <time>2026-07-29T09:47:08.716Z</time>
      </trkpt>
      <trkpt lat="45.72826" lon="6.72158">
        <ele>2602</ele>
        <time>2026-07-29T09:47:09.716Z</time>
      </trkpt>
      <trkpt lat="45.72824" lon="6.72156">
        <ele>2602</ele>
        <time>2026-07-29T09:47:10.716Z</time>
      </trkpt>
      <trkpt lat="45.72822" lon="6.72154">
        <ele>2602</ele>
        <time>2026-07-29T09:47:11.716Z</time>
      </trkpt>
      <trkpt lat="45.7282" lon="6.72153">
        <ele>2601</ele>
        <time>2026-07-29T09:47:12.716Z</time>
      </trkpt>
      <trkpt lat="45.72818" lon="6.72152">
        <ele>2601</ele>
        <time>2026-07-29T09:47:13.716Z</time>
      </trkpt>
      <trkpt lat="45.72816" lon="6.72152">
        <ele>2600</ele>
        <time>2026-07-29T09:47:14.716Z</time>
      </trkpt>
      <trkpt lat="45.72814" lon="6.72151">
        <ele>2600</ele>
        <time>2026-07-29T09:47:15.716Z</time>
      </trkpt>
      <trkpt lat="45.72812" lon="6.72151">
        <ele>2600</ele>
        <time>2026-07-29T09:47:16.716Z</time>
      </trkpt>
      <trkpt lat="45.7281" lon="6.72151">
        <ele>2600</ele>
        <time>2026-07-29T09:47:17.716Z</time>
      </trkpt>
      <trkpt lat="45.72808" lon="6.72151">
        <ele>2600</ele>
        <time>2026-07-29T09:47:18.716Z</time>
      </trkpt>
      <trkpt lat="45.72806" lon="6.7215">
        <ele>2600</ele>
        <time>2026-07-29T09:47:19.716Z</time>
      </trkpt>
      <trkpt lat="45.72805" lon="6.7215">
        <ele>2600</ele>
        <time>2026-07-29T09:47:20.716Z</time>
      </trkpt>
      <trkpt lat="45.72803" lon="6.7215">
        <ele>2600</ele>
        <time>2026-07-29T09:47:21.716Z</time>
      </trkpt>
      <trkpt lat="45.728" lon="6.72149">
        <ele>2599</ele>
        <time>2026-07-29T09:47:22.716Z</time>
      </trkpt>
      <trkpt lat="45.72798" lon="6.72149">
        <ele>2599</ele>
        <time>2026-07-29T09:47:23.716Z</time>
      </trkpt>
      <trkpt lat="45.72796" lon="6.72149">
        <ele>2599</ele>
        <time>2026-07-29T09:47:24.716Z</time>
      </trkpt>
      <trkpt lat="45.72794" lon="6.72149">
        <ele>2598</ele>
        <time>2026-07-29T09:47:25.716Z</time>
      </trkpt>
      <trkpt lat="45.72792" lon="6.72149">
        <ele>2598</ele>
        <time>2026-07-29T09:47:26.716Z</time>
      </trkpt>
      <trkpt lat="45.7279" lon="6.72149">
        <ele>2598</ele>
        <time>2026-07-29T09:47:27.716Z</time>
      </trkpt>
      <trkpt lat="45.72788" lon="6.7215">
        <ele>2597</ele>
        <time>2026-07-29T09:47:28.716Z</time>
      </trkpt>
      <trkpt lat="45.72786" lon="6.7215">
        <ele>2597</ele>
        <time>2026-07-29T09:47:29.716Z</time>
      </trkpt>
      <trkpt lat="45.72784" lon="6.7215">
        <ele>2597</ele>
        <time>2026-07-29T09:47:30.716Z</time>
      </trkpt>
      <trkpt lat="45.72783" lon="6.72149">
        <ele>2596</ele>
        <time>2026-07-29T09:47:31.716Z</time>
      </trkpt>
      <trkpt lat="45.72781" lon="6.72148">
        <ele>2596</ele>
        <time>2026-07-29T09:47:32.716Z</time>
      </trkpt>
      <trkpt lat="45.72779" lon="6.72147">
        <ele>2596</ele>
        <time>2026-07-29T09:47:33.716Z</time>
      </trkpt>
      <trkpt lat="45.72777" lon="6.72146">
        <ele>2595</ele>
        <time>2026-07-29T09:47:34.716Z</time>
      </trkpt>
      <trkpt lat="45.72774" lon="6.72144">
        <ele>2595</ele>
        <time>2026-07-29T09:47:35.716Z</time>
      </trkpt>
      <trkpt lat="45.72773" lon="6.72142">
        <ele>2594</ele>
        <time>2026-07-29T09:47:36.716Z</time>
      </trkpt>
      <trkpt lat="45.72771" lon="6.72139">
        <ele>2594</ele>
        <time>2026-07-29T09:47:37.716Z</time>
      </trkpt>
      <trkpt lat="45.72769" lon="6.72137">
        <ele>2593</ele>
        <time>2026-07-29T09:47:38.716Z</time>
      </trkpt>
      <trkpt lat="45.72767" lon="6.72134">
        <ele>2593</ele>
        <time>2026-07-29T09:47:39.716Z</time>
      </trkpt>
      <trkpt lat="45.72765" lon="6.72132">
        <ele>2592</ele>
        <time>2026-07-29T09:47:40.716Z</time>
      </trkpt>
      <trkpt lat="45.72763" lon="6.7213">
        <ele>2592</ele>
        <time>2026-07-29T09:47:41.716Z</time>
      </trkpt>
      <trkpt lat="45.72761" lon="6.72128">
        <ele>2591</ele>
        <time>2026-07-29T09:47:42.716Z</time>
      </trkpt>
      <trkpt lat="45.72759" lon="6.72127">
        <ele>2591</ele>
        <time>2026-07-29T09:47:43.716Z</time>
      </trkpt>
      <trkpt lat="45.72758" lon="6.72125">
        <ele>2590</ele>
        <time>2026-07-29T09:47:44.716Z</time>
      </trkpt>
      <trkpt lat="45.72756" lon="6.72124">
        <ele>2590</ele>
        <time>2026-07-29T09:47:45.716Z</time>
      </trkpt>
      <trkpt lat="45.72754" lon="6.72122">
        <ele>2589</ele>
        <time>2026-07-29T09:47:46.716Z</time>
      </trkpt>
      <trkpt lat="45.72752" lon="6.72121">
        <ele>2589</ele>
        <time>2026-07-29T09:47:47.716Z</time>
      </trkpt>
      <trkpt lat="45.72749" lon="6.7212">
        <ele>2588</ele>
        <time>2026-07-29T09:47:48.716Z</time>
      </trkpt>
      <trkpt lat="45.72747" lon="6.72118">
        <ele>2588</ele>
        <time>2026-07-29T09:47:49.716Z</time>
      </trkpt>
      <trkpt lat="45.72745" lon="6.72116">
        <ele>2588</ele>
        <time>2026-07-29T09:47:50.716Z</time>
      </trkpt>
      <trkpt lat="45.72743" lon="6.72114">
        <ele>2587</ele>
        <time>2026-07-29T09:47:51.716Z</time>
      </trkpt>
      <trkpt lat="45.72741" lon="6.72112">
        <ele>2587</ele>
        <time>2026-07-29T09:47:52.716Z</time>
      </trkpt>
      <trkpt lat="45.72739" lon="6.7211">
        <ele>2587</ele>
        <time>2026-07-29T09:47:53.716Z</time>
      </trkpt>
      <trkpt lat="45.72737" lon="6.72108">
        <ele>2586</ele>
        <time>2026-07-29T09:47:54.716Z</time>
      </trkpt>
      <trkpt lat="45.72735" lon="6.72106">
        <ele>2586</ele>
        <time>2026-07-29T09:47:55.716Z</time>
      </trkpt>
      <trkpt lat="45.72733" lon="6.72104">
        <ele>2586</ele>
        <time>2026-07-29T09:47:56.716Z</time>
      </trkpt>
      <trkpt lat="45.72731" lon="6.72102">
        <ele>2586</ele>
        <time>2026-07-29T09:47:57.716Z</time>
      </trkpt>
      <trkpt lat="45.7273" lon="6.721">
        <ele>2585</ele>
        <time>2026-07-29T09:47:58.716Z</time>
      </trkpt>
      <trkpt lat="45.72728" lon="6.72098">
        <ele>2585</ele>
        <time>2026-07-29T09:47:59.716Z</time>
      </trkpt>
      <trkpt lat="45.72727" lon="6.72096">
        <ele>2585</ele>
        <time>2026-07-29T09:48:00.716Z</time>
      </trkpt>
      <trkpt lat="45.72725" lon="6.72095">
        <ele>2585</ele>
        <time>2026-07-29T09:48:01.716Z</time>
      </trkpt>
      <trkpt lat="45.72723" lon="6.72093">
        <ele>2585</ele>
        <time>2026-07-29T09:48:02.716Z</time>
      </trkpt>
      <trkpt lat="45.72722" lon="6.72092">
        <ele>2585</ele>
        <time>2026-07-29T09:48:03.716Z</time>
      </trkpt>
      <trkpt lat="45.7272" lon="6.7209">
        <ele>2585</ele>
        <time>2026-07-29T09:48:04.716Z</time>
      </trkpt>
      <trkpt lat="45.72718" lon="6.72089">
        <ele>2584</ele>
        <time>2026-07-29T09:48:05.716Z</time>
      </trkpt>
      <trkpt lat="45.72716" lon="6.72088">
        <ele>2584</ele>
        <time>2026-07-29T09:48:06.716Z</time>
      </trkpt>
      <trkpt lat="45.72714" lon="6.72086">
        <ele>2583</ele>
        <time>2026-07-29T09:48:07.716Z</time>
      </trkpt>
      <trkpt lat="45.72713" lon="6.72084">
        <ele>2583</ele>
        <time>2026-07-29T09:48:08.716Z</time>
      </trkpt>
      <trkpt lat="45.72711" lon="6.72083">
        <ele>2582</ele>
        <time>2026-07-29T09:48:09.716Z</time>
      </trkpt>
      <trkpt lat="45.7271" lon="6.72081">
        <ele>2582</ele>
        <time>2026-07-29T09:48:10.716Z</time>
      </trkpt>
      <trkpt lat="45.72709" lon="6.72079">
        <ele>2581</ele>
        <time>2026-07-29T09:48:11.716Z</time>
      </trkpt>
      <trkpt lat="45.72708" lon="6.72077">
        <ele>2581</ele>
        <time>2026-07-29T09:48:12.716Z</time>
      </trkpt>
      <trkpt lat="45.72707" lon="6.72075">
        <ele>2581</ele>
        <time>2026-07-29T09:48:13.716Z</time>
      </trkpt>
      <trkpt lat="45.72706" lon="6.72073">
        <ele>2581</ele>
        <time>2026-07-29T09:48:14.716Z</time>
      </trkpt>
      <trkpt lat="45.72704" lon="6.72072">
        <ele>2581</ele>
        <time>2026-07-29T09:48:15.716Z</time>
      </trkpt>
      <trkpt lat="45.72702" lon="6.72071">
        <ele>2580</ele>
        <time>2026-07-29T09:48:16.716Z</time>
      </trkpt>
      <trkpt lat="45.727" lon="6.7207">
        <ele>2580</ele>
        <time>2026-07-29T09:48:17.716Z</time>
      </trkpt>
      <trkpt lat="45.72699" lon="6.72069">
        <ele>2579</ele>
        <time>2026-07-29T09:48:18.716Z</time>
      </trkpt>
      <trkpt lat="45.72697" lon="6.72068">
        <ele>2578</ele>
        <time>2026-07-29T09:48:19.716Z</time>
      </trkpt>
      <trkpt lat="45.72696" lon="6.72066">
        <ele>2578</ele>
        <time>2026-07-29T09:48:20.716Z</time>
      </trkpt>
      <trkpt lat="45.72695" lon="6.72064">
        <ele>2577</ele>
        <time>2026-07-29T09:48:21.716Z</time>
      </trkpt>
      <trkpt lat="45.72695" lon="6.72062">
        <ele>2576</ele>
        <time>2026-07-29T09:48:22.716Z</time>
      </trkpt>
      <trkpt lat="45.72694" lon="6.7206">
        <ele>2575</ele>
        <time>2026-07-29T09:48:23.716Z</time>
      </trkpt>
      <trkpt lat="45.72694" lon="6.72058">
        <ele>2574</ele>
        <time>2026-07-29T09:48:24.716Z</time>
      </trkpt>
      <trkpt lat="45.72693" lon="6.72055">
        <ele>2574</ele>
        <time>2026-07-29T09:48:25.716Z</time>
      </trkpt>
      <trkpt lat="45.72693" lon="6.72052">
        <ele>2573</ele>
        <time>2026-07-29T09:48:26.716Z</time>
      </trkpt>
      <trkpt lat="45.72692" lon="6.72049">
        <ele>2572</ele>
        <time>2026-07-29T09:48:27.716Z</time>
      </trkpt>
      <trkpt lat="45.72691" lon="6.72046">
        <ele>2572</ele>
        <time>2026-07-29T09:48:28.716Z</time>
      </trkpt>
      <trkpt lat="45.72691" lon="6.72043">
        <ele>2572</ele>
        <time>2026-07-29T09:48:29.716Z</time>
      </trkpt>
      <trkpt lat="45.7269" lon="6.7204">
        <ele>2571</ele>
        <time>2026-07-29T09:48:30.716Z</time>
      </trkpt>
      <trkpt lat="45.72689" lon="6.72037">
        <ele>2571</ele>
        <time>2026-07-29T09:48:31.716Z</time>
      </trkpt>
      <trkpt lat="45.72687" lon="6.72034">
        <ele>2571</ele>
        <time>2026-07-29T09:48:32.716Z</time>
      </trkpt>
      <trkpt lat="45.72686" lon="6.72032">
        <ele>2570</ele>
        <time>2026-07-29T09:48:33.716Z</time>
      </trkpt>
      <trkpt lat="45.72684" lon="6.7203">
        <ele>2570</ele>
        <time>2026-07-29T09:48:34.716Z</time>
      </trkpt>
      <trkpt lat="45.72683" lon="6.72028">
        <ele>2570</ele>
        <time>2026-07-29T09:48:35.716Z</time>
      </trkpt>
      <trkpt lat="45.72681" lon="6.72026">
        <ele>2569</ele>
        <time>2026-07-29T09:48:36.716Z</time>
      </trkpt>
      <trkpt lat="45.7268" lon="6.72024">
        <ele>2569</ele>
        <time>2026-07-29T09:48:37.716Z</time>
      </trkpt>
      <trkpt lat="45.72679" lon="6.72023">
        <ele>2568</ele>
        <time>2026-07-29T09:48:38.716Z</time>
      </trkpt>
      <trkpt lat="45.72677" lon="6.72022">
        <ele>2568</ele>
        <time>2026-07-29T09:48:39.716Z</time>
      </trkpt>
      <trkpt lat="45.72676" lon="6.72021">
        <ele>2567</ele>
        <time>2026-07-29T09:48:40.716Z</time>
      </trkpt>
      <trkpt lat="45.72675" lon="6.7202">
        <ele>2567</ele>
        <time>2026-07-29T09:48:41.716Z</time>
      </trkpt>
      <trkpt lat="45.72674" lon="6.72019">
        <ele>2567</ele>
        <time>2026-07-29T09:48:42.717Z</time>
      </trkpt>
      <trkpt lat="45.72673" lon="6.72018">
        <ele>2566</ele>
        <time>2026-07-29T09:48:43.716Z</time>
      </trkpt>
      <trkpt lat="45.72672" lon="6.72017">
        <ele>2566</ele>
        <time>2026-07-29T09:48:44.716Z</time>
      </trkpt>
      <trkpt lat="45.72671" lon="6.72016">
        <ele>2566</ele>
        <time>2026-07-29T09:48:45.716Z</time>
      </trkpt>
      <trkpt lat="45.7267" lon="6.72015">
        <ele>2565</ele>
        <time>2026-07-29T09:48:46.716Z</time>
      </trkpt>
      <trkpt lat="45.72669" lon="6.72013">
        <ele>2565</ele>
        <time>2026-07-29T09:48:47.716Z</time>
      </trkpt>
      <trkpt lat="45.72668" lon="6.72012">
        <ele>2564</ele>
        <time>2026-07-29T09:48:48.716Z</time>
      </trkpt>
      <trkpt lat="45.72667" lon="6.7201">
        <ele>2563</ele>
        <time>2026-07-29T09:48:49.716Z</time>
      </trkpt>
      <trkpt lat="45.72666" lon="6.72009">
        <ele>2563</ele>
        <time>2026-07-29T09:48:50.716Z</time>
      </trkpt>
      <trkpt lat="45.72665" lon="6.72008">
        <ele>2562</ele>
        <time>2026-07-29T09:48:51.716Z</time>
      </trkpt>
      <trkpt lat="45.72663" lon="6.72006">
        <ele>2562</ele>
        <time>2026-07-29T09:48:52.716Z</time>
      </trkpt>
      <trkpt lat="45.72663" lon="6.72004">
        <ele>2561</ele>
        <time>2026-07-29T09:48:53.716Z</time>
      </trkpt>
      <trkpt lat="45.72662" lon="6.72002">
        <ele>2561</ele>
        <time>2026-07-29T09:48:54.716Z</time>
      </trkpt>
      <trkpt lat="45.72661" lon="6.72">
        <ele>2561</ele>
        <time>2026-07-29T09:48:55.716Z</time>
      </trkpt>
      <trkpt lat="45.72661" lon="6.71997">
        <ele>2561</ele>
        <time>2026-07-29T09:48:56.716Z</time>
      </trkpt>
      <trkpt lat="45.72661" lon="6.71994">
        <ele>2561</ele>
        <time>2026-07-29T09:48:57.716Z</time>
      </trkpt>
      <trkpt lat="45.72661" lon="6.71991">
        <ele>2561</ele>
        <time>2026-07-29T09:48:58.716Z</time>
      </trkpt>
      <trkpt lat="45.7266" lon="6.71988">
        <ele>2560</ele>
        <time>2026-07-29T09:48:59.716Z</time>
      </trkpt>
      <trkpt lat="45.7266" lon="6.71985">
        <ele>2560</ele>
        <time>2026-07-29T09:49:00.716Z</time>
      </trkpt>
      <trkpt lat="45.7266" lon="6.71982">
        <ele>2560</ele>
        <time>2026-07-29T09:49:01.716Z</time>
      </trkpt>
      <trkpt lat="45.72659" lon="6.71979">
        <ele>2560</ele>
        <time>2026-07-29T09:49:02.716Z</time>
      </trkpt>
      <trkpt lat="45.72659" lon="6.71976">
        <ele>2559</ele>
        <time>2026-07-29T09:49:03.716Z</time>
      </trkpt>
      <trkpt lat="45.72659" lon="6.71973">
        <ele>2559</ele>
        <time>2026-07-29T09:49:04.716Z</time>
      </trkpt>
      <trkpt lat="45.72659" lon="6.7197">
        <ele>2559</ele>
        <time>2026-07-29T09:49:05.716Z</time>
      </trkpt>
      <trkpt lat="45.72659" lon="6.71967">
        <ele>2558</ele>
        <time>2026-07-29T09:49:06.717Z</time>
      </trkpt>
      <trkpt lat="45.72659" lon="6.71964">
        <ele>2558</ele>
        <time>2026-07-29T09:49:07.716Z</time>
      </trkpt>
      <trkpt lat="45.72658" lon="6.71961">
        <ele>2558</ele>
        <time>2026-07-29T09:49:08.716Z</time>
      </trkpt>
      <trkpt lat="45.72658" lon="6.71958">
        <ele>2558</ele>
        <time>2026-07-29T09:49:09.716Z</time>
      </trkpt>
      <trkpt lat="45.72657" lon="6.71955">
        <ele>2558</ele>
        <time>2026-07-29T09:49:10.716Z</time>
      </trkpt>
      <trkpt lat="45.72656" lon="6.71954">
        <ele>2558</ele>
        <time>2026-07-29T09:49:11.716Z</time>
      </trkpt>
      <trkpt lat="45.72654" lon="6.71953">
        <ele>2557</ele>
        <time>2026-07-29T09:49:12.716Z</time>
      </trkpt>
      <trkpt lat="45.72652" lon="6.71954">
        <ele>2557</ele>
        <time>2026-07-29T09:49:13.716Z</time>
      </trkpt>
      <trkpt lat="45.72651" lon="6.71955">
        <ele>2557</ele>
        <time>2026-07-29T09:49:14.716Z</time>
      </trkpt>
      <trkpt lat="45.7265" lon="6.71958">
        <ele>2557</ele>
        <time>2026-07-29T09:49:15.716Z</time>
      </trkpt>
      <trkpt lat="45.72649" lon="6.71961">
        <ele>2557</ele>
        <time>2026-07-29T09:49:16.716Z</time>
      </trkpt>
      <trkpt lat="45.72647" lon="6.71964">
        <ele>2557</ele>
        <time>2026-07-29T09:49:17.716Z</time>
      </trkpt>
      <trkpt lat="45.72646" lon="6.71968">
        <ele>2556</ele>
        <time>2026-07-29T09:49:18.716Z</time>
      </trkpt>
      <trkpt lat="45.72645" lon="6.71971">
        <ele>2556</ele>
        <time>2026-07-29T09:49:19.716Z</time>
      </trkpt>
      <trkpt lat="45.72643" lon="6.71973">
        <ele>2556</ele>
        <time>2026-07-29T09:49:20.716Z</time>
      </trkpt>
      <trkpt lat="45.72641" lon="6.71975">
        <ele>2556</ele>
        <time>2026-07-29T09:49:21.716Z</time>
      </trkpt>
      <trkpt lat="45.72639" lon="6.71976">
        <ele>2556</ele>
        <time>2026-07-29T09:49:22.716Z</time>
      </trkpt>
      <trkpt lat="45.72637" lon="6.71978">
        <ele>2555</ele>
        <time>2026-07-29T09:49:23.716Z</time>
      </trkpt>
      <trkpt lat="45.72636" lon="6.7198">
        <ele>2555</ele>
        <time>2026-07-29T09:49:24.716Z</time>
      </trkpt>
      <trkpt lat="45.72635" lon="6.71982">
        <ele>2555</ele>
        <time>2026-07-29T09:49:25.716Z</time>
      </trkpt>
      <trkpt lat="45.72634" lon="6.71985">
        <ele>2554</ele>
        <time>2026-07-29T09:49:26.716Z</time>
      </trkpt>
      <trkpt lat="45.72633" lon="6.71988">
        <ele>2554</ele>
        <time>2026-07-29T09:49:27.716Z</time>
      </trkpt>
      <trkpt lat="45.72632" lon="6.71991">
        <ele>2554</ele>
        <time>2026-07-29T09:49:28.716Z</time>
      </trkpt>
      <trkpt lat="45.72631" lon="6.71994">
        <ele>2553</ele>
        <time>2026-07-29T09:49:29.716Z</time>
      </trkpt>
      <trkpt lat="45.72629" lon="6.71997">
        <ele>2553</ele>
        <time>2026-07-29T09:49:30.716Z</time>
      </trkpt>
      <trkpt lat="45.72628" lon="6.72">
        <ele>2553</ele>
        <time>2026-07-29T09:49:31.716Z</time>
      </trkpt>
      <trkpt lat="45.72626" lon="6.72002">
        <ele>2553</ele>
        <time>2026-07-29T09:49:32.716Z</time>
      </trkpt>
      <trkpt lat="45.72625" lon="6.72003">
        <ele>2552</ele>
        <time>2026-07-29T09:49:33.716Z</time>
      </trkpt>
      <trkpt lat="45.72623" lon="6.72004">
        <ele>2552</ele>
        <time>2026-07-29T09:49:34.716Z</time>
      </trkpt>
      <trkpt lat="45.7262" lon="6.72005">
        <ele>2552</ele>
        <time>2026-07-29T09:49:35.716Z</time>
      </trkpt>
      <trkpt lat="45.72618" lon="6.72005">
        <ele>2551</ele>
        <time>2026-07-29T09:49:36.716Z</time>
      </trkpt>
      <trkpt lat="45.72616" lon="6.72004">
        <ele>2551</ele>
        <time>2026-07-29T09:49:37.716Z</time>
      </trkpt>
      <trkpt lat="45.72614" lon="6.72003">
        <ele>2551</ele>
        <time>2026-07-29T09:49:38.716Z</time>
      </trkpt>
      <trkpt lat="45.72611" lon="6.72002">
        <ele>2550</ele>
        <time>2026-07-29T09:49:39.716Z</time>
      </trkpt>
      <trkpt lat="45.72609" lon="6.72">
        <ele>2550</ele>
        <time>2026-07-29T09:49:40.716Z</time>
      </trkpt>
      <trkpt lat="45.72607" lon="6.71999">
        <ele>2550</ele>
        <time>2026-07-29T09:49:41.716Z</time>
      </trkpt>
      <trkpt lat="45.72604" lon="6.71997">
        <ele>2550</ele>
        <time>2026-07-29T09:49:42.716Z</time>
      </trkpt>
      <trkpt lat="45.72602" lon="6.71996">
        <ele>2549</ele>
        <time>2026-07-29T09:49:43.716Z</time>
      </trkpt>
      <trkpt lat="45.726" lon="6.71995">
        <ele>2549</ele>
        <time>2026-07-29T09:49:44.716Z</time>
      </trkpt>
      <trkpt lat="45.72598" lon="6.71993">
        <ele>2549</ele>
        <time>2026-07-29T09:49:45.716Z</time>
      </trkpt>
      <trkpt lat="45.72596" lon="6.71993">
        <ele>2549</ele>
        <time>2026-07-29T09:49:46.716Z</time>
      </trkpt>
      <trkpt lat="45.72593" lon="6.71992">
        <ele>2548</ele>
        <time>2026-07-29T09:49:47.716Z</time>
      </trkpt>
      <trkpt lat="45.72591" lon="6.71991">
        <ele>2548</ele>
        <time>2026-07-29T09:49:48.716Z</time>
      </trkpt>
      <trkpt lat="45.72589" lon="6.7199">
        <ele>2548</ele>
        <time>2026-07-29T09:49:49.716Z</time>
      </trkpt>
      <trkpt lat="45.72587" lon="6.71989">
        <ele>2548</ele>
        <time>2026-07-29T09:49:50.716Z</time>
      </trkpt>
      <trkpt lat="45.72584" lon="6.71989">
        <ele>2548</ele>
        <time>2026-07-29T09:49:51.716Z</time>
      </trkpt>
      <trkpt lat="45.72582" lon="6.71988">
        <ele>2547</ele>
        <time>2026-07-29T09:49:52.716Z</time>
      </trkpt>
      <trkpt lat="45.7258" lon="6.71987">
        <ele>2547</ele>
        <time>2026-07-29T09:49:53.716Z</time>
      </trkpt>
      <trkpt lat="45.72578" lon="6.71986">
        <ele>2547</ele>
        <time>2026-07-29T09:49:54.716Z</time>
      </trkpt>
      <trkpt lat="45.72576" lon="6.71984">
        <ele>2546</ele>
        <time>2026-07-29T09:49:55.716Z</time>
      </trkpt>
      <trkpt lat="45.72575" lon="6.71983">
        <ele>2545</ele>
        <time>2026-07-29T09:49:56.716Z</time>
      </trkpt>
      <trkpt lat="45.72573" lon="6.71981">
        <ele>2545</ele>
        <time>2026-07-29T09:49:57.716Z</time>
      </trkpt>
      <trkpt lat="45.72572" lon="6.71979">
        <ele>2545</ele>
        <time>2026-07-29T09:49:58.716Z</time>
      </trkpt>
      <trkpt lat="45.7257" lon="6.71977">
        <ele>2544</ele>
        <time>2026-07-29T09:49:59.716Z</time>
      </trkpt>
      <trkpt lat="45.72569" lon="6.71975">
        <ele>2544</ele>
        <time>2026-07-29T09:50:00.716Z</time>
      </trkpt>
      <trkpt lat="45.72568" lon="6.71973">
        <ele>2543</ele>
        <time>2026-07-29T09:50:01.716Z</time>
      </trkpt>
      <trkpt lat="45.72566" lon="6.71971">
        <ele>2543</ele>
        <time>2026-07-29T09:50:02.716Z</time>
      </trkpt>
      <trkpt lat="45.72565" lon="6.7197">
        <ele>2543</ele>
        <time>2026-07-29T09:50:03.716Z</time>
      </trkpt>
      <trkpt lat="45.72563" lon="6.71969">
        <ele>2542</ele>
        <time>2026-07-29T09:50:04.716Z</time>
      </trkpt>
      <trkpt lat="45.72561" lon="6.71967">
        <ele>2542</ele>
        <time>2026-07-29T09:50:05.716Z</time>
      </trkpt>
      <trkpt lat="45.72559" lon="6.71966">
        <ele>2542</ele>
        <time>2026-07-29T09:50:06.716Z</time>
      </trkpt>
      <trkpt lat="45.72557" lon="6.71964">
        <ele>2541</ele>
        <time>2026-07-29T09:50:07.716Z</time>
      </trkpt>
      <trkpt lat="45.72556" lon="6.71962">
        <ele>2541</ele>
        <time>2026-07-29T09:50:08.716Z</time>
      </trkpt>
      <trkpt lat="45.72555" lon="6.71959">
        <ele>2540</ele>
        <time>2026-07-29T09:50:09.716Z</time>
      </trkpt>
      <trkpt lat="45.72555" lon="6.71956">
        <ele>2540</ele>
        <time>2026-07-29T09:50:10.716Z</time>
      </trkpt>
      <trkpt lat="45.72554" lon="6.71953">
        <ele>2539</ele>
        <time>2026-07-29T09:50:11.716Z</time>
      </trkpt>
      <trkpt lat="45.72553" lon="6.7195">
        <ele>2539</ele>
        <time>2026-07-29T09:50:12.716Z</time>
      </trkpt>
      <trkpt lat="45.72551" lon="6.71947">
        <ele>2539</ele>
        <time>2026-07-29T09:50:13.716Z</time>
      </trkpt>
      <trkpt lat="45.7255" lon="6.71944">
        <ele>2538</ele>
        <time>2026-07-29T09:50:14.716Z</time>
      </trkpt>
      <trkpt lat="45.72549" lon="6.71941">
        <ele>2538</ele>
        <time>2026-07-29T09:50:15.716Z</time>
      </trkpt>
      <trkpt lat="45.72548" lon="6.71939">
        <ele>2537</ele>
        <time>2026-07-29T09:50:16.716Z</time>
      </trkpt>
      <trkpt lat="45.72547" lon="6.71936">
        <ele>2537</ele>
        <time>2026-07-29T09:50:17.716Z</time>
      </trkpt>
      <trkpt lat="45.72546" lon="6.71932">
        <ele>2537</ele>
        <time>2026-07-29T09:50:18.716Z</time>
      </trkpt>
      <trkpt lat="45.72545" lon="6.71929">
        <ele>2536</ele>
        <time>2026-07-29T09:50:19.716Z</time>
      </trkpt>
      <trkpt lat="45.72544" lon="6.71926">
        <ele>2535</ele>
        <time>2026-07-29T09:50:20.716Z</time>
      </trkpt>
      <trkpt lat="45.72543" lon="6.71923">
        <ele>2535</ele>
        <time>2026-07-29T09:50:21.716Z</time>
      </trkpt>
      <trkpt lat="45.72542" lon="6.71918">
        <ele>2534</ele>
        <time>2026-07-29T09:50:22.716Z</time>
      </trkpt>
      <trkpt lat="45.72542" lon="6.71914">
        <ele>2533</ele>
        <time>2026-07-29T09:50:23.716Z</time>
      </trkpt>
      <trkpt lat="45.72543" lon="6.71911">
        <ele>2533</ele>
        <time>2026-07-29T09:50:24.716Z</time>
      </trkpt>
      <trkpt lat="45.72543" lon="6.71907">
        <ele>2532</ele>
        <time>2026-07-29T09:50:25.716Z</time>
      </trkpt>
      <trkpt lat="45.72544" lon="6.71904">
        <ele>2532</ele>
        <time>2026-07-29T09:50:26.716Z</time>
      </trkpt>
      <trkpt lat="45.72545" lon="6.719">
        <ele>2532</ele>
        <time>2026-07-29T09:50:27.716Z</time>
      </trkpt>
      <trkpt lat="45.72546" lon="6.71897">
        <ele>2531</ele>
        <time>2026-07-29T09:50:28.716Z</time>
      </trkpt>
      <trkpt lat="45.72547" lon="6.71894">
        <ele>2531</ele>
        <time>2026-07-29T09:50:29.716Z</time>
      </trkpt>
      <trkpt lat="45.72549" lon="6.71891">
        <ele>2531</ele>
        <time>2026-07-29T09:50:30.716Z</time>
      </trkpt>
      <trkpt lat="45.7255" lon="6.71889">
        <ele>2531</ele>
        <time>2026-07-29T09:50:31.716Z</time>
      </trkpt>
      <trkpt lat="45.72551" lon="6.71886">
        <ele>2531</ele>
        <time>2026-07-29T09:50:32.716Z</time>
      </trkpt>
      <trkpt lat="45.72552" lon="6.71883">
        <ele>2531</ele>
        <time>2026-07-29T09:50:33.716Z</time>
      </trkpt>
      <trkpt lat="45.72552" lon="6.7188">
        <ele>2531</ele>
        <time>2026-07-29T09:50:34.716Z</time>
      </trkpt>
      <trkpt lat="45.72553" lon="6.71876">
        <ele>2531</ele>
        <time>2026-07-29T09:50:35.716Z</time>
      </trkpt>
      <trkpt lat="45.72553" lon="6.71873">
        <ele>2530</ele>
        <time>2026-07-29T09:50:36.716Z</time>
      </trkpt>
      <trkpt lat="45.72553" lon="6.71869">
        <ele>2530</ele>
        <time>2026-07-29T09:50:37.716Z</time>
      </trkpt>
      <trkpt lat="45.72553" lon="6.71865">
        <ele>2530</ele>
        <time>2026-07-29T09:50:38.716Z</time>
      </trkpt>
      <trkpt lat="45.72553" lon="6.71862">
        <ele>2529</ele>
        <time>2026-07-29T09:50:39.716Z</time>
      </trkpt>
      <trkpt lat="45.72552" lon="6.71859">
        <ele>2529</ele>
        <time>2026-07-29T09:50:40.716Z</time>
      </trkpt>
      <trkpt lat="45.72551" lon="6.71856">
        <ele>2528</ele>
        <time>2026-07-29T09:50:41.716Z</time>
      </trkpt>
      <trkpt lat="45.7255" lon="6.71853">
        <ele>2528</ele>
        <time>2026-07-29T09:50:42.716Z</time>
      </trkpt>
      <trkpt lat="45.72548" lon="6.71851">
        <ele>2527</ele>
        <time>2026-07-29T09:50:43.716Z</time>
      </trkpt>
      <trkpt lat="45.72546" lon="6.71848">
        <ele>2527</ele>
        <time>2026-07-29T09:50:44.716Z</time>
      </trkpt>
      <trkpt lat="45.72544" lon="6.71846">
        <ele>2526</ele>
        <time>2026-07-29T09:50:45.716Z</time>
      </trkpt>
      <trkpt lat="45.72542" lon="6.71843">
        <ele>2526</ele>
        <time>2026-07-29T09:50:46.716Z</time>
      </trkpt>
      <trkpt lat="45.7254" lon="6.71841">
        <ele>2525</ele>
        <time>2026-07-29T09:50:47.716Z</time>
      </trkpt>
      <trkpt lat="45.72538" lon="6.71839">
        <ele>2525</ele>
        <time>2026-07-29T09:50:48.716Z</time>
      </trkpt>
      <trkpt lat="45.72536" lon="6.71837">
        <ele>2525</ele>
        <time>2026-07-29T09:50:49.716Z</time>
      </trkpt>
      <trkpt lat="45.72534" lon="6.71836">
        <ele>2524</ele>
        <time>2026-07-29T09:50:50.716Z</time>
      </trkpt>
      <trkpt lat="45.72532" lon="6.71835">
        <ele>2524</ele>
        <time>2026-07-29T09:50:51.716Z</time>
      </trkpt>
      <trkpt lat="45.72529" lon="6.71834">
        <ele>2523</ele>
        <time>2026-07-29T09:50:52.716Z</time>
      </trkpt>
      <trkpt lat="45.72527" lon="6.71833">
        <ele>2523</ele>
        <time>2026-07-29T09:50:53.716Z</time>
      </trkpt>
      <trkpt lat="45.72525" lon="6.71832">
        <ele>2523</ele>
        <time>2026-07-29T09:50:54.716Z</time>
      </trkpt>
      <trkpt lat="45.72524" lon="6.7183">
        <ele>2522</ele>
        <time>2026-07-29T09:50:55.716Z</time>
      </trkpt>
      <trkpt lat="45.72522" lon="6.71829">
        <ele>2522</ele>
        <time>2026-07-29T09:50:56.716Z</time>
      </trkpt>
      <trkpt lat="45.72521" lon="6.71827">
        <ele>2521</ele>
        <time>2026-07-29T09:50:57.716Z</time>
      </trkpt>
      <trkpt lat="45.72519" lon="6.71825">
        <ele>2521</ele>
        <time>2026-07-29T09:50:58.716Z</time>
      </trkpt>
      <trkpt lat="45.72517" lon="6.71824">
        <ele>2520</ele>
        <time>2026-07-29T09:50:59.716Z</time>
      </trkpt>
      <trkpt lat="45.72515" lon="6.71823">
        <ele>2520</ele>
        <time>2026-07-29T09:51:00.716Z</time>
      </trkpt>
      <trkpt lat="45.72513" lon="6.71822">
        <ele>2519</ele>
        <time>2026-07-29T09:51:01.716Z</time>
      </trkpt>
      <trkpt lat="45.72511" lon="6.7182">
        <ele>2518</ele>
        <time>2026-07-29T09:51:02.716Z</time>
      </trkpt>
      <trkpt lat="45.72508" lon="6.71818">
        <ele>2518</ele>
        <time>2026-07-29T09:51:03.716Z</time>
      </trkpt>
      <trkpt lat="45.72506" lon="6.71815">
        <ele>2517</ele>
        <time>2026-07-29T09:51:04.716Z</time>
      </trkpt>
      <trkpt lat="45.72503" lon="6.71813">
        <ele>2517</ele>
        <time>2026-07-29T09:51:05.716Z</time>
      </trkpt>
      <trkpt lat="45.72501" lon="6.71811">
        <ele>2516</ele>
        <time>2026-07-29T09:51:06.716Z</time>
      </trkpt>
      <trkpt lat="45.72499" lon="6.71809">
        <ele>2516</ele>
        <time>2026-07-29T09:51:07.716Z</time>
      </trkpt>
      <trkpt lat="45.72497" lon="6.71806">
        <ele>2516</ele>
        <time>2026-07-29T09:51:08.716Z</time>
      </trkpt>
      <trkpt lat="45.72496" lon="6.71804">
        <ele>2516</ele>
        <time>2026-07-29T09:51:09.716Z</time>
      </trkpt>
      <trkpt lat="45.72495" lon="6.71801">
        <ele>2515</ele>
        <time>2026-07-29T09:51:10.716Z</time>
      </trkpt>
      <trkpt lat="45.72493" lon="6.71798">
        <ele>2515</ele>
        <time>2026-07-29T09:51:11.716Z</time>
      </trkpt>
      <trkpt lat="45.72492" lon="6.71796">
        <ele>2515</ele>
        <time>2026-07-29T09:51:12.716Z</time>
      </trkpt>
      <trkpt lat="45.7249" lon="6.71793">
        <ele>2514</ele>
        <time>2026-07-29T09:51:13.716Z</time>
      </trkpt>
      <trkpt lat="45.72488" lon="6.71791">
        <ele>2514</ele>
        <time>2026-07-29T09:51:14.716Z</time>
      </trkpt>
      <trkpt lat="45.72487" lon="6.71789">
        <ele>2514</ele>
        <time>2026-07-29T09:51:15.716Z</time>
      </trkpt>
      <trkpt lat="45.72485" lon="6.71787">
        <ele>2514</ele>
        <time>2026-07-29T09:51:16.716Z</time>
      </trkpt>
      <trkpt lat="45.72483" lon="6.71785">
        <ele>2513</ele>
        <time>2026-07-29T09:51:17.716Z</time>
      </trkpt>
      <trkpt lat="45.72482" lon="6.71782">
        <ele>2513</ele>
        <time>2026-07-29T09:51:18.716Z</time>
      </trkpt>
      <trkpt lat="45.7248" lon="6.7178">
        <ele>2512</ele>
        <time>2026-07-29T09:51:19.716Z</time>
      </trkpt>
      <trkpt lat="45.72478" lon="6.71779">
        <ele>2512</ele>
        <time>2026-07-29T09:51:20.716Z</time>
      </trkpt>
      <trkpt lat="45.72477" lon="6.71777">
        <ele>2511</ele>
        <time>2026-07-29T09:51:21.716Z</time>
      </trkpt>
      <trkpt lat="45.72475" lon="6.71775">
        <ele>2511</ele>
        <time>2026-07-29T09:51:22.716Z</time>
      </trkpt>
      <trkpt lat="45.72474" lon="6.71774">
        <ele>2511</ele>
        <time>2026-07-29T09:51:23.716Z</time>
      </trkpt>
      <trkpt lat="45.72473" lon="6.71772">
        <ele>2510</ele>
        <time>2026-07-29T09:51:24.716Z</time>
      </trkpt>
      <trkpt lat="45.72471" lon="6.7177">
        <ele>2510</ele>
        <time>2026-07-29T09:51:25.716Z</time>
      </trkpt>
      <trkpt lat="45.7247" lon="6.71769">
        <ele>2509</ele>
        <time>2026-07-29T09:51:26.716Z</time>
      </trkpt>
      <trkpt lat="45.72468" lon="6.71768">
        <ele>2509</ele>
        <time>2026-07-29T09:51:27.716Z</time>
      </trkpt>
      <trkpt lat="45.72467" lon="6.71766">
        <ele>2509</ele>
        <time>2026-07-29T09:51:28.716Z</time>
      </trkpt>
      <trkpt lat="45.72467" lon="6.71763">
        <ele>2509</ele>
        <time>2026-07-29T09:51:29.716Z</time>
      </trkpt>
      <trkpt lat="45.72466" lon="6.71761">
        <ele>2508</ele>
        <time>2026-07-29T09:51:30.716Z</time>
      </trkpt>
      <trkpt lat="45.72466" lon="6.71758">
        <ele>2508</ele>
        <time>2026-07-29T09:51:31.716Z</time>
      </trkpt>
      <trkpt lat="45.72466" lon="6.71755">
        <ele>2507</ele>
        <time>2026-07-29T09:51:32.716Z</time>
      </trkpt>
      <trkpt lat="45.72466" lon="6.71751">
        <ele>2507</ele>
        <time>2026-07-29T09:51:33.716Z</time>
      </trkpt>
      <trkpt lat="45.72465" lon="6.71748">
        <ele>2506</ele>
        <time>2026-07-29T09:51:34.716Z</time>
      </trkpt>
      <trkpt lat="45.72465" lon="6.71745">
        <ele>2506</ele>
        <time>2026-07-29T09:51:35.716Z</time>
      </trkpt>
      <trkpt lat="45.72464" lon="6.71741">
        <ele>2506</ele>
        <time>2026-07-29T09:51:36.716Z</time>
      </trkpt>
      <trkpt lat="45.72464" lon="6.71738">
        <ele>2506</ele>
        <time>2026-07-29T09:51:37.716Z</time>
      </trkpt>
      <trkpt lat="45.72464" lon="6.71734">
        <ele>2505</ele>
        <time>2026-07-29T09:51:38.716Z</time>
      </trkpt>
      <trkpt lat="45.72464" lon="6.71731">
        <ele>2505</ele>
        <time>2026-07-29T09:51:39.716Z</time>
      </trkpt>
      <trkpt lat="45.72463" lon="6.71728">
        <ele>2505</ele>
        <time>2026-07-29T09:51:40.716Z</time>
      </trkpt>
      <trkpt lat="45.72463" lon="6.71725">
        <ele>2504</ele>
        <time>2026-07-29T09:51:41.716Z</time>
      </trkpt>
      <trkpt lat="45.72462" lon="6.71721">
        <ele>2504</ele>
        <time>2026-07-29T09:51:42.716Z</time>
      </trkpt>
      <trkpt lat="45.72462" lon="6.71718">
        <ele>2504</ele>
        <time>2026-07-29T09:51:43.716Z</time>
      </trkpt>
      <trkpt lat="45.72461" lon="6.71715">
        <ele>2504</ele>
        <time>2026-07-29T09:51:44.716Z</time>
      </trkpt>
      <trkpt lat="45.72461" lon="6.71711">
        <ele>2504</ele>
        <time>2026-07-29T09:51:45.716Z</time>
      </trkpt>
      <trkpt lat="45.7246" lon="6.71709">
        <ele>2503</ele>
        <time>2026-07-29T09:51:46.716Z</time>
      </trkpt>
      <trkpt lat="45.7246" lon="6.71706">
        <ele>2503</ele>
        <time>2026-07-29T09:51:47.716Z</time>
      </trkpt>
      <trkpt lat="45.72459" lon="6.71703">
        <ele>2502</ele>
        <time>2026-07-29T09:51:48.716Z</time>
      </trkpt>
      <trkpt lat="45.72459" lon="6.717">
        <ele>2502</ele>
        <time>2026-07-29T09:51:49.716Z</time>
      </trkpt>
      <trkpt lat="45.72458" lon="6.71697">
        <ele>2502</ele>
        <time>2026-07-29T09:51:50.716Z</time>
      </trkpt>
      <trkpt lat="45.72457" lon="6.71694">
        <ele>2502</ele>
        <time>2026-07-29T09:51:51.716Z</time>
      </trkpt>
      <trkpt lat="45.72456" lon="6.71691">
        <ele>2501</ele>
        <time>2026-07-29T09:51:52.716Z</time>
      </trkpt>
      <trkpt lat="45.72456" lon="6.71688">
        <ele>2501</ele>
        <time>2026-07-29T09:51:53.716Z</time>
      </trkpt>
      <trkpt lat="45.72455" lon="6.71686">
        <ele>2500</ele>
        <time>2026-07-29T09:51:54.716Z</time>
      </trkpt>
      <trkpt lat="45.72454" lon="6.71684">
        <ele>2500</ele>
        <time>2026-07-29T09:51:55.716Z</time>
      </trkpt>
      <trkpt lat="45.72453" lon="6.71683">
        <ele>2499</ele>
        <time>2026-07-29T09:51:56.716Z</time>
      </trkpt>
      <trkpt lat="45.72452" lon="6.71682">
        <ele>2499</ele>
        <time>2026-07-29T09:51:57.716Z</time>
      </trkpt>
      <trkpt lat="45.72451" lon="6.71681">
        <ele>2499</ele>
        <time>2026-07-29T09:51:58.716Z</time>
      </trkpt>
      <trkpt lat="45.72451" lon="6.71681">
        <ele>2499</ele>
        <time>2026-07-29T09:51:59.716Z</time>
      </trkpt>
      <trkpt lat="45.72451" lon="6.71681">
        <ele>2498</ele>
        <time>2026-07-29T09:52:00.716Z</time>
      </trkpt>
      <trkpt lat="45.72451" lon="6.7168">
        <ele>2498</ele>
        <time>2026-07-29T09:52:01.716Z</time>
      </trkpt>
      <trkpt lat="45.72451" lon="6.7168">
        <ele>2498</ele>
        <time>2026-07-29T09:52:02.716Z</time>
      </trkpt>
      <trkpt lat="45.72451" lon="6.7168">
        <ele>2498</ele>
        <time>2026-07-29T09:52:03.716Z</time>
      </trkpt>
      <trkpt lat="45.72452" lon="6.71679">
        <ele>2498</ele>
        <time>2026-07-29T09:52:04.716Z</time>
      </trkpt>
      <trkpt lat="45.72453" lon="6.71678">
        <ele>2498</ele>
        <time>2026-07-29T09:52:05.716Z</time>
      </trkpt>
      <trkpt lat="45.72453" lon="6.71678">
        <ele>2498</ele>
        <time>2026-07-29T09:52:06.716Z</time>
      </trkpt>
      <trkpt lat="45.72454" lon="6.71679">
        <ele>2498</ele>
        <time>2026-07-29T09:52:07.716Z</time>
      </trkpt>
      <trkpt lat="45.72454" lon="6.7168">
        <ele>2498</ele>
        <time>2026-07-29T09:52:08.716Z</time>
      </trkpt>
      <trkpt lat="45.72453" lon="6.71681">
        <ele>2498</ele>
        <time>2026-07-29T09:52:09.716Z</time>
      </trkpt>
      <trkpt lat="45.72453" lon="6.71683">
        <ele>2498</ele>
        <time>2026-07-29T09:52:10.716Z</time>
      </trkpt>
      <trkpt lat="45.72453" lon="6.71684">
        <ele>2498</ele>
        <time>2026-07-29T09:52:11.716Z</time>
      </trkpt>
      <trkpt lat="45.72452" lon="6.71684">
        <ele>2498</ele>
        <time>2026-07-29T09:52:12.716Z</time>
      </trkpt>
      <trkpt lat="45.72452" lon="6.71685">
        <ele>2498</ele>
        <time>2026-07-29T09:52:13.716Z</time>
      </trkpt>
      <trkpt lat="45.72452" lon="6.71685">
        <ele>2497</ele>
        <time>2026-07-29T09:52:14.716Z</time>
      </trkpt>
      <trkpt lat="45.72452" lon="6.71685">
        <ele>2497</ele>
        <time>2026-07-29T09:52:15.716Z</time>
      </trkpt>
      <trkpt lat="45.72452" lon="6.71685">
        <ele>2497</ele>
        <time>2026-07-29T09:52:16.716Z</time>
      </trkpt>
      <trkpt lat="45.72452" lon="6.71685">
        <ele>2497</ele>
        <time>2026-07-29T09:52:17.716Z</time>
      </trkpt>
      <trkpt lat="45.72452" lon="6.71685">
        <ele>2497</ele>
        <time>2026-07-29T09:52:18.716Z</time>
      </trkpt>
      <trkpt lat="45.72452" lon="6.71685">
        <ele>2497</ele>
        <time>2026-07-29T09:52:19.716Z</time>
      </trkpt>
      <trkpt lat="45.72452" lon="6.71685">
        <ele>2497</ele>
        <time>2026-07-29T09:52:20.716Z</time>
      </trkpt>
      <trkpt lat="45.72452" lon="6.71685">
        <ele>2497</ele>
        <time>2026-07-29T09:52:21.716Z</time>
      </trkpt>
      <trkpt lat="45.72452" lon="6.71685">
        <ele>2497</ele>
        <time>2026-07-29T09:52:22.716Z</time>
      </trkpt>
      <trkpt lat="45.72452" lon="6.71685">
        <ele>2497</ele>
        <time>2026-07-29T09:52:23.716Z</time>
      </trkpt>
      <trkpt lat="45.72452" lon="6.71685">
        <ele>2497</ele>
        <time>2026-07-29T09:52:24.716Z</time>
      </trkpt>
      <trkpt lat="45.72452" lon="6.71685">
        <ele>2497</ele>
        <time>2026-07-29T09:52:25.716Z</time>
      </trkpt>
      <trkpt lat="45.72452" lon="6.71684">
        <ele>2497</ele>
        <time>2026-07-29T09:52:26.716Z</time>
      </trkpt>
      <trkpt lat="45.72454" lon="6.71682">
        <ele>2497</ele>
        <time>2026-07-29T09:52:27.716Z</time>
      </trkpt>
      <trkpt lat="45.72456" lon="6.71681">
        <ele>2497</ele>
        <time>2026-07-29T09:52:28.716Z</time>
      </trkpt>
      <trkpt lat="45.72458" lon="6.71679">
        <ele>2496</ele>
        <time>2026-07-29T09:52:29.716Z</time>
      </trkpt>
      <trkpt lat="45.72459" lon="6.71678">
        <ele>2496</ele>
        <time>2026-07-29T09:52:30.716Z</time>
      </trkpt>
      <trkpt lat="45.72461" lon="6.71676">
        <ele>2496</ele>
        <time>2026-07-29T09:52:31.716Z</time>
      </trkpt>
      <trkpt lat="45.72463" lon="6.71675">
        <ele>2496</ele>
        <time>2026-07-29T09:52:32.716Z</time>
      </trkpt>
      <trkpt lat="45.72465" lon="6.71673">
        <ele>2496</ele>
        <time>2026-07-29T09:52:33.716Z</time>
      </trkpt>
      <trkpt lat="45.72468" lon="6.71672">
        <ele>2496</ele>
        <time>2026-07-29T09:52:34.716Z</time>
      </trkpt>
      <trkpt lat="45.7247" lon="6.71671">
        <ele>2496</ele>
        <time>2026-07-29T09:52:35.716Z</time>
      </trkpt>
      <trkpt lat="45.72473" lon="6.7167">
        <ele>2496</ele>
        <time>2026-07-29T09:52:36.716Z</time>
      </trkpt>
      <trkpt lat="45.72475" lon="6.71669">
        <ele>2496</ele>
        <time>2026-07-29T09:52:37.716Z</time>
      </trkpt>
      <trkpt lat="45.72477" lon="6.71668">
        <ele>2495</ele>
        <time>2026-07-29T09:52:38.716Z</time>
      </trkpt>
      <trkpt lat="45.7248" lon="6.71668">
        <ele>2495</ele>
        <time>2026-07-29T09:52:39.716Z</time>
      </trkpt>
      <trkpt lat="45.72482" lon="6.71667">
        <ele>2495</ele>
        <time>2026-07-29T09:52:40.716Z</time>
      </trkpt>
      <trkpt lat="45.72484" lon="6.71666">
        <ele>2494</ele>
        <time>2026-07-29T09:52:41.716Z</time>
      </trkpt>
      <trkpt lat="45.72486" lon="6.71666">
        <ele>2494</ele>
        <time>2026-07-29T09:52:42.716Z</time>
      </trkpt>
      <trkpt lat="45.72488" lon="6.71666">
        <ele>2494</ele>
        <time>2026-07-29T09:52:43.716Z</time>
      </trkpt>
      <trkpt lat="45.7249" lon="6.71666">
        <ele>2493</ele>
        <time>2026-07-29T09:52:44.716Z</time>
      </trkpt>
      <trkpt lat="45.72492" lon="6.71666">
        <ele>2493</ele>
        <time>2026-07-29T09:52:45.716Z</time>
      </trkpt>
      <trkpt lat="45.72494" lon="6.71665">
        <ele>2493</ele>
        <time>2026-07-29T09:52:46.716Z</time>
      </trkpt>
      <trkpt lat="45.72496" lon="6.71665">
        <ele>2492</ele>
        <time>2026-07-29T09:52:47.716Z</time>
      </trkpt>
      <trkpt lat="45.72498" lon="6.71665">
        <ele>2491</ele>
        <time>2026-07-29T09:52:48.716Z</time>
      </trkpt>
      <trkpt lat="45.725" lon="6.71664">
        <ele>2491</ele>
        <time>2026-07-29T09:52:49.716Z</time>
      </trkpt>
      <trkpt lat="45.72502" lon="6.71663">
        <ele>2490</ele>
        <time>2026-07-29T09:52:50.716Z</time>
      </trkpt>
      <trkpt lat="45.72503" lon="6.71661">
        <ele>2490</ele>
        <time>2026-07-29T09:52:51.716Z</time>
      </trkpt>
      <trkpt lat="45.72504" lon="6.71658">
        <ele>2490</ele>
        <time>2026-07-29T09:52:52.716Z</time>
      </trkpt>
      <trkpt lat="45.72505" lon="6.71656">
        <ele>2490</ele>
        <time>2026-07-29T09:52:53.716Z</time>
      </trkpt>
      <trkpt lat="45.72506" lon="6.71653">
        <ele>2489</ele>
        <time>2026-07-29T09:52:54.716Z</time>
      </trkpt>
      <trkpt lat="45.72507" lon="6.71651">
        <ele>2489</ele>
        <time>2026-07-29T09:52:55.716Z</time>
      </trkpt>
      <trkpt lat="45.72509" lon="6.71649">
        <ele>2489</ele>
        <time>2026-07-29T09:52:56.716Z</time>
      </trkpt>
      <trkpt lat="45.7251" lon="6.71646">
        <ele>2489</ele>
        <time>2026-07-29T09:52:57.716Z</time>
      </trkpt>
      <trkpt lat="45.72511" lon="6.71644">
        <ele>2489</ele>
        <time>2026-07-29T09:52:58.716Z</time>
      </trkpt>
      <trkpt lat="45.72512" lon="6.71641">
        <ele>2489</ele>
        <time>2026-07-29T09:52:59.716Z</time>
      </trkpt>
      <trkpt lat="45.72513" lon="6.71638">
        <ele>2488</ele>
        <time>2026-07-29T09:53:00.716Z</time>
      </trkpt>
      <trkpt lat="45.72514" lon="6.71636">
        <ele>2488</ele>
        <time>2026-07-29T09:53:01.716Z</time>
      </trkpt>
      <trkpt lat="45.72516" lon="6.71634">
        <ele>2487</ele>
        <time>2026-07-29T09:53:02.716Z</time>
      </trkpt>
      <trkpt lat="45.72517" lon="6.71631">
        <ele>2487</ele>
        <time>2026-07-29T09:53:03.716Z</time>
      </trkpt>
      <trkpt lat="45.72518" lon="6.71629">
        <ele>2486</ele>
        <time>2026-07-29T09:53:04.716Z</time>
      </trkpt>
      <trkpt lat="45.72519" lon="6.71626">
        <ele>2486</ele>
        <time>2026-07-29T09:53:05.716Z</time>
      </trkpt>
      <trkpt lat="45.7252" lon="6.71624">
        <ele>2486</ele>
        <time>2026-07-29T09:53:06.716Z</time>
      </trkpt>
      <trkpt lat="45.72521" lon="6.71622">
        <ele>2485</ele>
        <time>2026-07-29T09:53:07.716Z</time>
      </trkpt>
      <trkpt lat="45.72522" lon="6.71621">
        <ele>2485</ele>
        <time>2026-07-29T09:53:08.716Z</time>
      </trkpt>
      <trkpt lat="45.72522" lon="6.71618">
        <ele>2484</ele>
        <time>2026-07-29T09:53:09.716Z</time>
      </trkpt>
      <trkpt lat="45.72522" lon="6.71616">
        <ele>2484</ele>
        <time>2026-07-29T09:53:10.716Z</time>
      </trkpt>
      <trkpt lat="45.72523" lon="6.71614">
        <ele>2484</ele>
        <time>2026-07-29T09:53:11.716Z</time>
      </trkpt>
      <trkpt lat="45.72523" lon="6.71613">
        <ele>2484</ele>
        <time>2026-07-29T09:53:12.716Z</time>
      </trkpt>
      <trkpt lat="45.72523" lon="6.71612">
        <ele>2483</ele>
        <time>2026-07-29T09:53:13.716Z</time>
      </trkpt>
      <trkpt lat="45.72523" lon="6.71611">
        <ele>2483</ele>
        <time>2026-07-29T09:53:14.716Z</time>
      </trkpt>
      <trkpt lat="45.72523" lon="6.7161">
        <ele>2483</ele>
        <time>2026-07-29T09:53:15.716Z</time>
      </trkpt>
      <trkpt lat="45.72522" lon="6.71609">
        <ele>2483</ele>
        <time>2026-07-29T09:53:16.716Z</time>
      </trkpt>
      <trkpt lat="45.72521" lon="6.71609">
        <ele>2483</ele>
        <time>2026-07-29T09:53:17.716Z</time>
      </trkpt>
      <trkpt lat="45.7252" lon="6.71609">
        <ele>2483</ele>
        <time>2026-07-29T09:53:18.716Z</time>
      </trkpt>
      <trkpt lat="45.72519" lon="6.71609">
        <ele>2483</ele>
        <time>2026-07-29T09:53:19.716Z</time>
      </trkpt>
      <trkpt lat="45.72518" lon="6.71609">
        <ele>2482</ele>
        <time>2026-07-29T09:53:20.716Z</time>
      </trkpt>
      <trkpt lat="45.72517" lon="6.7161">
        <ele>2482</ele>
        <time>2026-07-29T09:53:21.716Z</time>
      </trkpt>
      <trkpt lat="45.72515" lon="6.71612">
        <ele>2482</ele>
        <time>2026-07-29T09:53:22.716Z</time>
      </trkpt>
      <trkpt lat="45.72513" lon="6.71613">
        <ele>2482</ele>
        <time>2026-07-29T09:53:23.716Z</time>
      </trkpt>
      <trkpt lat="45.72512" lon="6.71615">
        <ele>2482</ele>
        <time>2026-07-29T09:53:24.716Z</time>
      </trkpt>
      <trkpt lat="45.72511" lon="6.71617">
        <ele>2482</ele>
        <time>2026-07-29T09:53:25.716Z</time>
      </trkpt>
      <trkpt lat="45.7251" lon="6.7162">
        <ele>2481</ele>
        <time>2026-07-29T09:53:26.716Z</time>
      </trkpt>
      <trkpt lat="45.72509" lon="6.71622">
        <ele>2481</ele>
        <time>2026-07-29T09:53:27.716Z</time>
      </trkpt>
      <trkpt lat="45.72508" lon="6.71623">
        <ele>2480</ele>
        <time>2026-07-29T09:53:28.716Z</time>
      </trkpt>
      <trkpt lat="45.72506" lon="6.71626">
        <ele>2480</ele>
        <time>2026-07-29T09:53:29.716Z</time>
      </trkpt>
      <trkpt lat="45.72505" lon="6.71629">
        <ele>2480</ele>
        <time>2026-07-29T09:53:30.716Z</time>
      </trkpt>
      <trkpt lat="45.72503" lon="6.71631">
        <ele>2480</ele>
        <time>2026-07-29T09:53:31.716Z</time>
      </trkpt>
      <trkpt lat="45.72501" lon="6.71632">
        <ele>2480</ele>
        <time>2026-07-29T09:53:32.716Z</time>
      </trkpt>
      <trkpt lat="45.725" lon="6.71631">
        <ele>2480</ele>
        <time>2026-07-29T09:53:33.716Z</time>
      </trkpt>
      <trkpt lat="45.72499" lon="6.71631">
        <ele>2480</ele>
        <time>2026-07-29T09:53:34.716Z</time>
      </trkpt>
      <trkpt lat="45.72497" lon="6.71629">
        <ele>2480</ele>
        <time>2026-07-29T09:53:35.716Z</time>
      </trkpt>
      <trkpt lat="45.72495" lon="6.71627">
        <ele>2480</ele>
        <time>2026-07-29T09:53:36.716Z</time>
      </trkpt>
      <trkpt lat="45.72493" lon="6.71626">
        <ele>2479</ele>
        <time>2026-07-29T09:53:37.716Z</time>
      </trkpt>
      <trkpt lat="45.72491" lon="6.71624">
        <ele>2479</ele>
        <time>2026-07-29T09:53:38.716Z</time>
      </trkpt>
      <trkpt lat="45.7249" lon="6.71623">
        <ele>2479</ele>
        <time>2026-07-29T09:53:39.716Z</time>
      </trkpt>
      <trkpt lat="45.72488" lon="6.71621">
        <ele>2479</ele>
        <time>2026-07-29T09:53:40.716Z</time>
      </trkpt>
      <trkpt lat="45.72486" lon="6.7162">
        <ele>2478</ele>
        <time>2026-07-29T09:53:41.716Z</time>
      </trkpt>
      <trkpt lat="45.72485" lon="6.71619">
        <ele>2478</ele>
        <time>2026-07-29T09:53:42.716Z</time>
      </trkpt>
      <trkpt lat="45.72483" lon="6.71618">
        <ele>2479</ele>
        <time>2026-07-29T09:53:43.716Z</time>
      </trkpt>
      <trkpt lat="45.72481" lon="6.71617">
        <ele>2479</ele>
        <time>2026-07-29T09:53:44.716Z</time>
      </trkpt>
      <trkpt lat="45.72479" lon="6.71617">
        <ele>2479</ele>
        <time>2026-07-29T09:53:45.716Z</time>
      </trkpt>
      <trkpt lat="45.72477" lon="6.71616">
        <ele>2479</ele>
        <time>2026-07-29T09:53:46.716Z</time>
      </trkpt>
      <trkpt lat="45.72475" lon="6.71616">
        <ele>2478</ele>
        <time>2026-07-29T09:53:47.716Z</time>
      </trkpt>
      <trkpt lat="45.72473" lon="6.71616">
        <ele>2479</ele>
        <time>2026-07-29T09:53:48.716Z</time>
      </trkpt>
      <trkpt lat="45.72471" lon="6.71616">
        <ele>2478</ele>
        <time>2026-07-29T09:53:49.716Z</time>
      </trkpt>
      <trkpt lat="45.72469" lon="6.71616">
        <ele>2478</ele>
        <time>2026-07-29T09:53:50.716Z</time>
      </trkpt>
      <trkpt lat="45.72468" lon="6.71616">
        <ele>2478</ele>
        <time>2026-07-29T09:53:51.716Z</time>
      </trkpt>
      <trkpt lat="45.72466" lon="6.71616">
        <ele>2478</ele>
        <time>2026-07-29T09:53:52.716Z</time>
      </trkpt>
      <trkpt lat="45.72464" lon="6.71617">
        <ele>2478</ele>
        <time>2026-07-29T09:53:53.716Z</time>
      </trkpt>
      <trkpt lat="45.72462" lon="6.71617">
        <ele>2477</ele>
        <time>2026-07-29T09:53:54.716Z</time>
      </trkpt>
      <trkpt lat="45.7246" lon="6.71618">
        <ele>2477</ele>
        <time>2026-07-29T09:53:55.716Z</time>
      </trkpt>
      <trkpt lat="45.72459" lon="6.71618">
        <ele>2477</ele>
        <time>2026-07-29T09:53:56.716Z</time>
      </trkpt>
      <trkpt lat="45.72457" lon="6.71618">
        <ele>2477</ele>
        <time>2026-07-29T09:53:57.716Z</time>
      </trkpt>
      <trkpt lat="45.72455" lon="6.71619">
        <ele>2477</ele>
        <time>2026-07-29T09:53:58.716Z</time>
      </trkpt>
      <trkpt lat="45.72454" lon="6.71619">
        <ele>2478</ele>
        <time>2026-07-29T09:53:59.716Z</time>
      </trkpt>
      <trkpt lat="45.72452" lon="6.71619">
        <ele>2478</ele>
        <time>2026-07-29T09:54:00.716Z</time>
      </trkpt>
      <trkpt lat="45.7245" lon="6.7162">
        <ele>2478</ele>
        <time>2026-07-29T09:54:01.716Z</time>
      </trkpt>
      <trkpt lat="45.72448" lon="6.71621">
        <ele>2478</ele>
        <time>2026-07-29T09:54:02.716Z</time>
      </trkpt>
      <trkpt lat="45.72446" lon="6.71622">
        <ele>2478</ele>
        <time>2026-07-29T09:54:03.716Z</time>
      </trkpt>
      <trkpt lat="45.72445" lon="6.71624">
        <ele>2479</ele>
        <time>2026-07-29T09:54:04.716Z</time>
      </trkpt>
      <trkpt lat="45.72443" lon="6.71626">
        <ele>2479</ele>
        <time>2026-07-29T09:54:05.716Z</time>
      </trkpt>
      <trkpt lat="45.72441" lon="6.71628">
        <ele>2479</ele>
        <time>2026-07-29T09:54:06.716Z</time>
      </trkpt>
      <trkpt lat="45.72439" lon="6.71629">
        <ele>2479</ele>
        <time>2026-07-29T09:54:07.716Z</time>
      </trkpt>
      <trkpt lat="45.72437" lon="6.71631">
        <ele>2479</ele>
        <time>2026-07-29T09:54:08.716Z</time>
      </trkpt>
      <trkpt lat="45.72434" lon="6.71633">
        <ele>2480</ele>
        <time>2026-07-29T09:54:09.716Z</time>
      </trkpt>
      <trkpt lat="45.72432" lon="6.71634">
        <ele>2480</ele>
        <time>2026-07-29T09:54:10.716Z</time>
      </trkpt>
      <trkpt lat="45.7243" lon="6.71635">
        <ele>2480</ele>
        <time>2026-07-29T09:54:11.716Z</time>
      </trkpt>
      <trkpt lat="45.72428" lon="6.71635">
        <ele>2480</ele>
        <time>2026-07-29T09:54:12.716Z</time>
      </trkpt>
      <trkpt lat="45.72425" lon="6.71635">
        <ele>2480</ele>
        <time>2026-07-29T09:54:13.716Z</time>
      </trkpt>
      <trkpt lat="45.72423" lon="6.71635">
        <ele>2480</ele>
        <time>2026-07-29T09:54:14.716Z</time>
      </trkpt>
      <trkpt lat="45.72421" lon="6.71636">
        <ele>2480</ele>
        <time>2026-07-29T09:54:15.716Z</time>
      </trkpt>
      <trkpt lat="45.72419" lon="6.71636">
        <ele>2480</ele>
        <time>2026-07-29T09:54:16.716Z</time>
      </trkpt>
      <trkpt lat="45.72417" lon="6.71637">
        <ele>2480</ele>
        <time>2026-07-29T09:54:17.716Z</time>
      </trkpt>
      <trkpt lat="45.72415" lon="6.71638">
        <ele>2480</ele>
        <time>2026-07-29T09:54:18.716Z</time>
      </trkpt>
      <trkpt lat="45.72413" lon="6.71639">
        <ele>2480</ele>
        <time>2026-07-29T09:54:19.716Z</time>
      </trkpt>
      <trkpt lat="45.72411" lon="6.7164">
        <ele>2480</ele>
        <time>2026-07-29T09:54:20.716Z</time>
      </trkpt>
      <trkpt lat="45.72409" lon="6.71642">
        <ele>2480</ele>
        <time>2026-07-29T09:54:21.716Z</time>
      </trkpt>
      <trkpt lat="45.72408" lon="6.71643">
        <ele>2480</ele>
        <time>2026-07-29T09:54:22.716Z</time>
      </trkpt>
      <trkpt lat="45.72406" lon="6.71644">
        <ele>2480</ele>
        <time>2026-07-29T09:54:23.716Z</time>
      </trkpt>
      <trkpt lat="45.72404" lon="6.71646">
        <ele>2480</ele>
        <time>2026-07-29T09:54:24.716Z</time>
      </trkpt>
      <trkpt lat="45.72402" lon="6.71647">
        <ele>2480</ele>
        <time>2026-07-29T09:54:25.716Z</time>
      </trkpt>
      <trkpt lat="45.724" lon="6.71648">
        <ele>2480</ele>
        <time>2026-07-29T09:54:26.716Z</time>
      </trkpt>
      <trkpt lat="45.72398" lon="6.7165">
        <ele>2479</ele>
        <time>2026-07-29T09:54:27.716Z</time>
      </trkpt>
      <trkpt lat="45.72396" lon="6.71652">
        <ele>2479</ele>
        <time>2026-07-29T09:54:28.716Z</time>
      </trkpt>
      <trkpt lat="45.72395" lon="6.71654">
        <ele>2479</ele>
        <time>2026-07-29T09:54:29.716Z</time>
      </trkpt>
      <trkpt lat="45.72393" lon="6.71656">
        <ele>2479</ele>
        <time>2026-07-29T09:54:30.716Z</time>
      </trkpt>
      <trkpt lat="45.72392" lon="6.71659">
        <ele>2478</ele>
        <time>2026-07-29T09:54:31.716Z</time>
      </trkpt>
      <trkpt lat="45.7239" lon="6.71662">
        <ele>2478</ele>
        <time>2026-07-29T09:54:32.716Z</time>
      </trkpt>
      <trkpt lat="45.72389" lon="6.71665">
        <ele>2478</ele>
        <time>2026-07-29T09:54:33.716Z</time>
      </trkpt>
      <trkpt lat="45.72387" lon="6.71668">
        <ele>2478</ele>
        <time>2026-07-29T09:54:34.716Z</time>
      </trkpt>
      <trkpt lat="45.72386" lon="6.71671">
        <ele>2478</ele>
        <time>2026-07-29T09:54:35.716Z</time>
      </trkpt>
      <trkpt lat="45.72385" lon="6.71674">
        <ele>2478</ele>
        <time>2026-07-29T09:54:36.716Z</time>
      </trkpt>
      <trkpt lat="45.72384" lon="6.71678">
        <ele>2477</ele>
        <time>2026-07-29T09:54:37.716Z</time>
      </trkpt>
      <trkpt lat="45.72383" lon="6.7168">
        <ele>2477</ele>
        <time>2026-07-29T09:54:38.716Z</time>
      </trkpt>
      <trkpt lat="45.72381" lon="6.71683">
        <ele>2477</ele>
        <time>2026-07-29T09:54:39.716Z</time>
      </trkpt>
      <trkpt lat="45.72379" lon="6.71685">
        <ele>2476</ele>
        <time>2026-07-29T09:54:40.716Z</time>
      </trkpt>
      <trkpt lat="45.72377" lon="6.71686">
        <ele>2476</ele>
        <time>2026-07-29T09:54:41.716Z</time>
      </trkpt>
      <trkpt lat="45.72375" lon="6.71687">
        <ele>2475</ele>
        <time>2026-07-29T09:54:42.716Z</time>
      </trkpt>
      <trkpt lat="45.72373" lon="6.71689">
        <ele>2475</ele>
        <time>2026-07-29T09:54:43.716Z</time>
      </trkpt>
      <trkpt lat="45.72371" lon="6.7169">
        <ele>2475</ele>
        <time>2026-07-29T09:54:44.716Z</time>
      </trkpt>
      <trkpt lat="45.72368" lon="6.71691">
        <ele>2475</ele>
        <time>2026-07-29T09:54:45.716Z</time>
      </trkpt>
      <trkpt lat="45.72366" lon="6.71692">
        <ele>2475</ele>
        <time>2026-07-29T09:54:46.716Z</time>
      </trkpt>
      <trkpt lat="45.72365" lon="6.71694">
        <ele>2475</ele>
        <time>2026-07-29T09:54:47.716Z</time>
      </trkpt>
      <trkpt lat="45.72363" lon="6.71696">
        <ele>2475</ele>
        <time>2026-07-29T09:54:48.716Z</time>
      </trkpt>
      <trkpt lat="45.72361" lon="6.71697">
        <ele>2475</ele>
        <time>2026-07-29T09:54:49.716Z</time>
      </trkpt>
      <trkpt lat="45.72359" lon="6.71698">
        <ele>2474</ele>
        <time>2026-07-29T09:54:50.716Z</time>
      </trkpt>
      <trkpt lat="45.72357" lon="6.717">
        <ele>2474</ele>
        <time>2026-07-29T09:54:51.716Z</time>
      </trkpt>
      <trkpt lat="45.72356" lon="6.71701">
        <ele>2474</ele>
        <time>2026-07-29T09:54:52.716Z</time>
      </trkpt>
      <trkpt lat="45.72354" lon="6.71702">
        <ele>2474</ele>
        <time>2026-07-29T09:54:53.716Z</time>
      </trkpt>
      <trkpt lat="45.72352" lon="6.71704">
        <ele>2474</ele>
        <time>2026-07-29T09:54:54.716Z</time>
      </trkpt>
      <trkpt lat="45.72351" lon="6.71705">
        <ele>2474</ele>
        <time>2026-07-29T09:54:55.716Z</time>
      </trkpt>
      <trkpt lat="45.72349" lon="6.71706">
        <ele>2474</ele>
        <time>2026-07-29T09:54:56.716Z</time>
      </trkpt>
      <trkpt lat="45.72348" lon="6.71707">
        <ele>2474</ele>
        <time>2026-07-29T09:54:57.716Z</time>
      </trkpt>
      <trkpt lat="45.72346" lon="6.71708">
        <ele>2474</ele>
        <time>2026-07-29T09:54:58.716Z</time>
      </trkpt>
      <trkpt lat="45.72344" lon="6.71709">
        <ele>2474</ele>
        <time>2026-07-29T09:54:59.716Z</time>
      </trkpt>
      <trkpt lat="45.72342" lon="6.7171">
        <ele>2474</ele>
        <time>2026-07-29T09:55:00.716Z</time>
      </trkpt>
      <trkpt lat="45.7234" lon="6.7171">
        <ele>2474</ele>
        <time>2026-07-29T09:55:01.716Z</time>
      </trkpt>
      <trkpt lat="45.72338" lon="6.7171">
        <ele>2473</ele>
        <time>2026-07-29T09:55:02.716Z</time>
      </trkpt>
      <trkpt lat="45.72336" lon="6.7171">
        <ele>2473</ele>
        <time>2026-07-29T09:55:03.716Z</time>
      </trkpt>
      <trkpt lat="45.72334" lon="6.71711">
        <ele>2473</ele>
        <time>2026-07-29T09:55:04.716Z</time>
      </trkpt>
      <trkpt lat="45.72332" lon="6.71711">
        <ele>2473</ele>
        <time>2026-07-29T09:55:05.716Z</time>
      </trkpt>
      <trkpt lat="45.72329" lon="6.71712">
        <ele>2473</ele>
        <time>2026-07-29T09:55:06.716Z</time>
      </trkpt>
      <trkpt lat="45.72327" lon="6.71713">
        <ele>2473</ele>
        <time>2026-07-29T09:55:07.716Z</time>
      </trkpt>
      <trkpt lat="45.72324" lon="6.71714">
        <ele>2473</ele>
        <time>2026-07-29T09:55:08.716Z</time>
      </trkpt>
      <trkpt lat="45.72322" lon="6.71714">
        <ele>2473</ele>
        <time>2026-07-29T09:55:09.716Z</time>
      </trkpt>
      <trkpt lat="45.7232" lon="6.71715">
        <ele>2473</ele>
        <time>2026-07-29T09:55:10.716Z</time>
      </trkpt>
      <trkpt lat="45.72317" lon="6.71715">
        <ele>2473</ele>
        <time>2026-07-29T09:55:11.716Z</time>
      </trkpt>
      <trkpt lat="45.72315" lon="6.71714">
        <ele>2472</ele>
        <time>2026-07-29T09:55:12.716Z</time>
      </trkpt>
      <trkpt lat="45.72313" lon="6.71714">
        <ele>2472</ele>
        <time>2026-07-29T09:55:13.716Z</time>
      </trkpt>
      <trkpt lat="45.7231" lon="6.71714">
        <ele>2472</ele>
        <time>2026-07-29T09:55:14.716Z</time>
      </trkpt>
      <trkpt lat="45.72308" lon="6.71714">
        <ele>2471</ele>
        <time>2026-07-29T09:55:15.716Z</time>
      </trkpt>
      <trkpt lat="45.72306" lon="6.71714">
        <ele>2471</ele>
        <time>2026-07-29T09:55:16.716Z</time>
      </trkpt>
      <trkpt lat="45.72304" lon="6.71713">
        <ele>2470</ele>
        <time>2026-07-29T09:55:17.716Z</time>
      </trkpt>
      <trkpt lat="45.72303" lon="6.71713">
        <ele>2470</ele>
        <time>2026-07-29T09:55:18.716Z</time>
      </trkpt>
      <trkpt lat="45.723" lon="6.71712">
        <ele>2469</ele>
        <time>2026-07-29T09:55:19.716Z</time>
      </trkpt>
      <trkpt lat="45.72298" lon="6.71712">
        <ele>2469</ele>
        <time>2026-07-29T09:55:20.716Z</time>
      </trkpt>
      <trkpt lat="45.72296" lon="6.71713">
        <ele>2468</ele>
        <time>2026-07-29T09:55:21.716Z</time>
      </trkpt>
      <trkpt lat="45.72294" lon="6.71713">
        <ele>2467</ele>
        <time>2026-07-29T09:55:22.716Z</time>
      </trkpt>
      <trkpt lat="45.72292" lon="6.71714">
        <ele>2467</ele>
        <time>2026-07-29T09:55:23.716Z</time>
      </trkpt>
      <trkpt lat="45.7229" lon="6.71715">
        <ele>2467</ele>
        <time>2026-07-29T09:55:24.716Z</time>
      </trkpt>
      <trkpt lat="45.72288" lon="6.71716">
        <ele>2466</ele>
        <time>2026-07-29T09:55:25.716Z</time>
      </trkpt>
      <trkpt lat="45.72286" lon="6.71717">
        <ele>2466</ele>
        <time>2026-07-29T09:55:26.716Z</time>
      </trkpt>
      <trkpt lat="45.72284" lon="6.71718">
        <ele>2466</ele>
        <time>2026-07-29T09:55:27.716Z</time>
      </trkpt>
      <trkpt lat="45.72282" lon="6.71718">
        <ele>2465</ele>
        <time>2026-07-29T09:55:28.716Z</time>
      </trkpt>
      <trkpt lat="45.72281" lon="6.71719">
        <ele>2465</ele>
        <time>2026-07-29T09:55:29.716Z</time>
      </trkpt>
      <trkpt lat="45.72279" lon="6.7172">
        <ele>2465</ele>
        <time>2026-07-29T09:55:30.716Z</time>
      </trkpt>
      <trkpt lat="45.72277" lon="6.7172">
        <ele>2465</ele>
        <time>2026-07-29T09:55:31.716Z</time>
      </trkpt>
      <trkpt lat="45.72275" lon="6.7172">
        <ele>2465</ele>
        <time>2026-07-29T09:55:32.716Z</time>
      </trkpt>
      <trkpt lat="45.72273" lon="6.71721">
        <ele>2464</ele>
        <time>2026-07-29T09:55:33.716Z</time>
      </trkpt>
      <trkpt lat="45.72271" lon="6.71721">
        <ele>2464</ele>
        <time>2026-07-29T09:55:34.716Z</time>
      </trkpt>
      <trkpt lat="45.72268" lon="6.71722">
        <ele>2464</ele>
        <time>2026-07-29T09:55:35.716Z</time>
      </trkpt>
      <trkpt lat="45.72265" lon="6.71723">
        <ele>2463</ele>
        <time>2026-07-29T09:55:36.716Z</time>
      </trkpt>
      <trkpt lat="45.72262" lon="6.71724">
        <ele>2463</ele>
        <time>2026-07-29T09:55:37.716Z</time>
      </trkpt>
      <trkpt lat="45.7226" lon="6.71726">
        <ele>2462</ele>
        <time>2026-07-29T09:55:38.716Z</time>
      </trkpt>
      <trkpt lat="45.72257" lon="6.71727">
        <ele>2462</ele>
        <time>2026-07-29T09:55:39.716Z</time>
      </trkpt>
      <trkpt lat="45.72254" lon="6.71728">
        <ele>2462</ele>
        <time>2026-07-29T09:55:40.716Z</time>
      </trkpt>
      <trkpt lat="45.72252" lon="6.7173">
        <ele>2461</ele>
        <time>2026-07-29T09:55:41.716Z</time>
      </trkpt>
      <trkpt lat="45.7225" lon="6.71731">
        <ele>2461</ele>
        <time>2026-07-29T09:55:42.716Z</time>
      </trkpt>
      <trkpt lat="45.72247" lon="6.71733">
        <ele>2461</ele>
        <time>2026-07-29T09:55:43.716Z</time>
      </trkpt>
      <trkpt lat="45.72246" lon="6.71735">
        <ele>2460</ele>
        <time>2026-07-29T09:55:44.716Z</time>
      </trkpt>
      <trkpt lat="45.72244" lon="6.71736">
        <ele>2460</ele>
        <time>2026-07-29T09:55:45.716Z</time>
      </trkpt>
      <trkpt lat="45.72242" lon="6.71738">
        <ele>2460</ele>
        <time>2026-07-29T09:55:46.716Z</time>
      </trkpt>
      <trkpt lat="45.7224" lon="6.71739">
        <ele>2459</ele>
        <time>2026-07-29T09:55:47.716Z</time>
      </trkpt>
      <trkpt lat="45.72238" lon="6.71741">
        <ele>2459</ele>
        <time>2026-07-29T09:55:48.716Z</time>
      </trkpt>
      <trkpt lat="45.72236" lon="6.71743">
        <ele>2459</ele>
        <time>2026-07-29T09:55:49.716Z</time>
      </trkpt>
      <trkpt lat="45.72234" lon="6.71744">
        <ele>2458</ele>
        <time>2026-07-29T09:55:50.716Z</time>
      </trkpt>
      <trkpt lat="45.72232" lon="6.71746">
        <ele>2458</ele>
        <time>2026-07-29T09:55:51.716Z</time>
      </trkpt>
      <trkpt lat="45.7223" lon="6.71748">
        <ele>2457</ele>
        <time>2026-07-29T09:55:52.716Z</time>
      </trkpt>
      <trkpt lat="45.72229" lon="6.71749">
        <ele>2457</ele>
        <time>2026-07-29T09:55:53.716Z</time>
      </trkpt>
      <trkpt lat="45.72227" lon="6.71751">
        <ele>2457</ele>
        <time>2026-07-29T09:55:54.716Z</time>
      </trkpt>
      <trkpt lat="45.72226" lon="6.71753">
        <ele>2456</ele>
        <time>2026-07-29T09:55:55.716Z</time>
      </trkpt>
      <trkpt lat="45.72224" lon="6.71754">
        <ele>2456</ele>
        <time>2026-07-29T09:55:56.716Z</time>
      </trkpt>
      <trkpt lat="45.72223" lon="6.71756">
        <ele>2455</ele>
        <time>2026-07-29T09:55:57.716Z</time>
      </trkpt>
      <trkpt lat="45.72222" lon="6.71757">
        <ele>2455</ele>
        <time>2026-07-29T09:55:58.716Z</time>
      </trkpt>
      <trkpt lat="45.7222" lon="6.71758">
        <ele>2454</ele>
        <time>2026-07-29T09:55:59.716Z</time>
      </trkpt>
      <trkpt lat="45.72219" lon="6.7176">
        <ele>2454</ele>
        <time>2026-07-29T09:56:00.716Z</time>
      </trkpt>
      <trkpt lat="45.72217" lon="6.7176">
        <ele>2454</ele>
        <time>2026-07-29T09:56:01.716Z</time>
      </trkpt>
      <trkpt lat="45.72215" lon="6.71761">
        <ele>2453</ele>
        <time>2026-07-29T09:56:02.716Z</time>
      </trkpt>
      <trkpt lat="45.72214" lon="6.71762">
        <ele>2453</ele>
        <time>2026-07-29T09:56:03.716Z</time>
      </trkpt>
      <trkpt lat="45.72212" lon="6.71763">
        <ele>2453</ele>
        <time>2026-07-29T09:56:04.716Z</time>
      </trkpt>
      <trkpt lat="45.72211" lon="6.71764">
        <ele>2453</ele>
        <time>2026-07-29T09:56:05.716Z</time>
      </trkpt>
      <trkpt lat="45.7221" lon="6.71766">
        <ele>2452</ele>
        <time>2026-07-29T09:56:06.716Z</time>
      </trkpt>
      <trkpt lat="45.72208" lon="6.71768">
        <ele>2452</ele>
        <time>2026-07-29T09:56:07.716Z</time>
      </trkpt>
      <trkpt lat="45.72207" lon="6.7177">
        <ele>2452</ele>
        <time>2026-07-29T09:56:08.716Z</time>
      </trkpt>
      <trkpt lat="45.72206" lon="6.71772">
        <ele>2451</ele>
        <time>2026-07-29T09:56:09.716Z</time>
      </trkpt>
      <trkpt lat="45.72205" lon="6.71774">
        <ele>2451</ele>
        <time>2026-07-29T09:56:10.716Z</time>
      </trkpt>
      <trkpt lat="45.72204" lon="6.71776">
        <ele>2451</ele>
        <time>2026-07-29T09:56:11.716Z</time>
      </trkpt>
      <trkpt lat="45.72203" lon="6.71779">
        <ele>2451</ele>
        <time>2026-07-29T09:56:12.716Z</time>
      </trkpt>
      <trkpt lat="45.72202" lon="6.71781">
        <ele>2451</ele>
        <time>2026-07-29T09:56:13.716Z</time>
      </trkpt>
      <trkpt lat="45.72201" lon="6.71783">
        <ele>2450</ele>
        <time>2026-07-29T09:56:14.716Z</time>
      </trkpt>
      <trkpt lat="45.722" lon="6.71785">
        <ele>2450</ele>
        <time>2026-07-29T09:56:15.716Z</time>
      </trkpt>
      <trkpt lat="45.72198" lon="6.71786">
        <ele>2450</ele>
        <time>2026-07-29T09:56:16.716Z</time>
      </trkpt>
      <trkpt lat="45.72197" lon="6.71787">
        <ele>2450</ele>
        <time>2026-07-29T09:56:17.716Z</time>
      </trkpt>
      <trkpt lat="45.72195" lon="6.71788">
        <ele>2450</ele>
        <time>2026-07-29T09:56:18.716Z</time>
      </trkpt>
      <trkpt lat="45.72194" lon="6.71787">
        <ele>2449</ele>
        <time>2026-07-29T09:56:19.716Z</time>
      </trkpt>
      <trkpt lat="45.72194" lon="6.71785">
        <ele>2449</ele>
        <time>2026-07-29T09:56:20.716Z</time>
      </trkpt>
      <trkpt lat="45.72194" lon="6.71783">
        <ele>2449</ele>
        <time>2026-07-29T09:56:21.716Z</time>
      </trkpt>
      <trkpt lat="45.72194" lon="6.7178">
        <ele>2449</ele>
        <time>2026-07-29T09:56:22.716Z</time>
      </trkpt>
      <trkpt lat="45.72194" lon="6.71777">
        <ele>2449</ele>
        <time>2026-07-29T09:56:23.716Z</time>
      </trkpt>
      <trkpt lat="45.72195" lon="6.71774">
        <ele>2449</ele>
        <time>2026-07-29T09:56:24.716Z</time>
      </trkpt>
      <trkpt lat="45.72195" lon="6.7177">
        <ele>2448</ele>
        <time>2026-07-29T09:56:25.716Z</time>
      </trkpt>
      <trkpt lat="45.72195" lon="6.71767">
        <ele>2448</ele>
        <time>2026-07-29T09:56:26.716Z</time>
      </trkpt>
      <trkpt lat="45.72194" lon="6.71764">
        <ele>2448</ele>
        <time>2026-07-29T09:56:27.716Z</time>
      </trkpt>
      <trkpt lat="45.72194" lon="6.71761">
        <ele>2448</ele>
        <time>2026-07-29T09:56:28.716Z</time>
      </trkpt>
      <trkpt lat="45.72193" lon="6.71758">
        <ele>2448</ele>
        <time>2026-07-29T09:56:29.716Z</time>
      </trkpt>
      <trkpt lat="45.72192" lon="6.71754">
        <ele>2448</ele>
        <time>2026-07-29T09:56:30.716Z</time>
      </trkpt>
      <trkpt lat="45.72192" lon="6.71751">
        <ele>2448</ele>
        <time>2026-07-29T09:56:31.716Z</time>
      </trkpt>
      <trkpt lat="45.72191" lon="6.71748">
        <ele>2447</ele>
        <time>2026-07-29T09:56:32.716Z</time>
      </trkpt>
      <trkpt lat="45.7219" lon="6.71744">
        <ele>2447</ele>
        <time>2026-07-29T09:56:33.716Z</time>
      </trkpt>
      <trkpt lat="45.7219" lon="6.71741">
        <ele>2447</ele>
        <time>2026-07-29T09:56:34.716Z</time>
      </trkpt>
      <trkpt lat="45.72189" lon="6.71738">
        <ele>2447</ele>
        <time>2026-07-29T09:56:35.716Z</time>
      </trkpt>
      <trkpt lat="45.72188" lon="6.71734">
        <ele>2447</ele>
        <time>2026-07-29T09:56:36.716Z</time>
      </trkpt>
      <trkpt lat="45.72188" lon="6.71731">
        <ele>2446</ele>
        <time>2026-07-29T09:56:37.716Z</time>
      </trkpt>
      <trkpt lat="45.72188" lon="6.71727">
        <ele>2446</ele>
        <time>2026-07-29T09:56:38.716Z</time>
      </trkpt>
      <trkpt lat="45.72189" lon="6.71724">
        <ele>2446</ele>
        <time>2026-07-29T09:56:39.716Z</time>
      </trkpt>
      <trkpt lat="45.72189" lon="6.71721">
        <ele>2446</ele>
        <time>2026-07-29T09:56:40.716Z</time>
      </trkpt>
      <trkpt lat="45.7219" lon="6.71719">
        <ele>2445</ele>
        <time>2026-07-29T09:56:41.716Z</time>
      </trkpt>
      <trkpt lat="45.7219" lon="6.71716">
        <ele>2445</ele>
        <time>2026-07-29T09:56:42.716Z</time>
      </trkpt>
      <trkpt lat="45.72191" lon="6.71714">
        <ele>2445</ele>
        <time>2026-07-29T09:56:43.716Z</time>
      </trkpt>
      <trkpt lat="45.72192" lon="6.71712">
        <ele>2445</ele>
        <time>2026-07-29T09:56:44.716Z</time>
      </trkpt>
      <trkpt lat="45.72194" lon="6.7171">
        <ele>2445</ele>
        <time>2026-07-29T09:56:45.716Z</time>
      </trkpt>
      <trkpt lat="45.72195" lon="6.71708">
        <ele>2445</ele>
        <time>2026-07-29T09:56:46.716Z</time>
      </trkpt>
      <trkpt lat="45.72197" lon="6.71707">
        <ele>2445</ele>
        <time>2026-07-29T09:56:47.716Z</time>
      </trkpt>
      <trkpt lat="45.72199" lon="6.71705">
        <ele>2444</ele>
        <time>2026-07-29T09:56:48.716Z</time>
      </trkpt>
      <trkpt lat="45.722" lon="6.71703">
        <ele>2444</ele>
        <time>2026-07-29T09:56:49.716Z</time>
      </trkpt>
      <trkpt lat="45.72202" lon="6.71701">
        <ele>2444</ele>
        <time>2026-07-29T09:56:50.716Z</time>
      </trkpt>
      <trkpt lat="45.72203" lon="6.71698">
        <ele>2444</ele>
        <time>2026-07-29T09:56:51.716Z</time>
      </trkpt>
      <trkpt lat="45.72204" lon="6.71696">
        <ele>2443</ele>
        <time>2026-07-29T09:56:52.716Z</time>
      </trkpt>
      <trkpt lat="45.72205" lon="6.71693">
        <ele>2443</ele>
        <time>2026-07-29T09:56:53.716Z</time>
      </trkpt>
      <trkpt lat="45.72206" lon="6.7169">
        <ele>2443</ele>
        <time>2026-07-29T09:56:54.716Z</time>
      </trkpt>
      <trkpt lat="45.72206" lon="6.71688">
        <ele>2443</ele>
        <time>2026-07-29T09:56:55.716Z</time>
      </trkpt>
      <trkpt lat="45.72207" lon="6.71686">
        <ele>2443</ele>
        <time>2026-07-29T09:56:56.716Z</time>
      </trkpt>
      <trkpt lat="45.72208" lon="6.71684">
        <ele>2444</ele>
        <time>2026-07-29T09:56:57.716Z</time>
      </trkpt>
      <trkpt lat="45.72209" lon="6.71682">
        <ele>2444</ele>
        <time>2026-07-29T09:56:58.716Z</time>
      </trkpt>
      <trkpt lat="45.7221" lon="6.7168">
        <ele>2443</ele>
        <time>2026-07-29T09:56:59.716Z</time>
      </trkpt>
      <trkpt lat="45.72211" lon="6.71677">
        <ele>2443</ele>
        <time>2026-07-29T09:57:00.716Z</time>
      </trkpt>
      <trkpt lat="45.72212" lon="6.71673">
        <ele>2443</ele>
        <time>2026-07-29T09:57:01.716Z</time>
      </trkpt>
      <trkpt lat="45.72213" lon="6.7167">
        <ele>2443</ele>
        <time>2026-07-29T09:57:02.716Z</time>
      </trkpt>
      <trkpt lat="45.72213" lon="6.71666">
        <ele>2443</ele>
        <time>2026-07-29T09:57:03.716Z</time>
      </trkpt>
      <trkpt lat="45.72213" lon="6.71663">
        <ele>2443</ele>
        <time>2026-07-29T09:57:04.716Z</time>
      </trkpt>
      <trkpt lat="45.72213" lon="6.71659">
        <ele>2443</ele>
        <time>2026-07-29T09:57:05.716Z</time>
      </trkpt>
      <trkpt lat="45.72214" lon="6.71656">
        <ele>2442</ele>
        <time>2026-07-29T09:57:06.716Z</time>
      </trkpt>
      <trkpt lat="45.72214" lon="6.71653">
        <ele>2442</ele>
        <time>2026-07-29T09:57:07.716Z</time>
      </trkpt>
      <trkpt lat="45.72214" lon="6.7165">
        <ele>2442</ele>
        <time>2026-07-29T09:57:08.716Z</time>
      </trkpt>
      <trkpt lat="45.72213" lon="6.71646">
        <ele>2442</ele>
        <time>2026-07-29T09:57:09.716Z</time>
      </trkpt>
      <trkpt lat="45.72213" lon="6.71643">
        <ele>2442</ele>
        <time>2026-07-29T09:57:10.716Z</time>
      </trkpt>
      <trkpt lat="45.72212" lon="6.7164">
        <ele>2441</ele>
        <time>2026-07-29T09:57:11.716Z</time>
      </trkpt>
      <trkpt lat="45.72212" lon="6.71637">
        <ele>2441</ele>
        <time>2026-07-29T09:57:12.716Z</time>
      </trkpt>
      <trkpt lat="45.72211" lon="6.71634">
        <ele>2441</ele>
        <time>2026-07-29T09:57:13.716Z</time>
      </trkpt>
      <trkpt lat="45.72211" lon="6.71631">
        <ele>2441</ele>
        <time>2026-07-29T09:57:14.716Z</time>
      </trkpt>
      <trkpt lat="45.7221" lon="6.71628">
        <ele>2441</ele>
        <time>2026-07-29T09:57:15.716Z</time>
      </trkpt>
      <trkpt lat="45.72209" lon="6.71625">
        <ele>2441</ele>
        <time>2026-07-29T09:57:16.716Z</time>
      </trkpt>
      <trkpt lat="45.72208" lon="6.71623">
        <ele>2440</ele>
        <time>2026-07-29T09:57:17.716Z</time>
      </trkpt>
      <trkpt lat="45.72208" lon="6.71621">
        <ele>2440</ele>
        <time>2026-07-29T09:57:18.716Z</time>
      </trkpt>
      <trkpt lat="45.72207" lon="6.71619">
        <ele>2440</ele>
        <time>2026-07-29T09:57:19.716Z</time>
      </trkpt>
      <trkpt lat="45.72205" lon="6.71618">
        <ele>2439</ele>
        <time>2026-07-29T09:57:20.716Z</time>
      </trkpt>
      <trkpt lat="45.72204" lon="6.71617">
        <ele>2439</ele>
        <time>2026-07-29T09:57:21.716Z</time>
      </trkpt>
      <trkpt lat="45.72203" lon="6.71616">
        <ele>2439</ele>
        <time>2026-07-29T09:57:22.716Z</time>
      </trkpt>
      <trkpt lat="45.72203" lon="6.71615">
        <ele>2438</ele>
        <time>2026-07-29T09:57:23.716Z</time>
      </trkpt>
      <trkpt lat="45.72203" lon="6.71615">
        <ele>2438</ele>
        <time>2026-07-29T09:57:24.716Z</time>
      </trkpt>
      <trkpt lat="45.72204" lon="6.71614">
        <ele>2438</ele>
        <time>2026-07-29T09:57:25.716Z</time>
      </trkpt>
      <trkpt lat="45.72203" lon="6.71612">
        <ele>2437</ele>
        <time>2026-07-29T09:57:26.716Z</time>
      </trkpt>
      <trkpt lat="45.72202" lon="6.7161">
        <ele>2437</ele>
        <time>2026-07-29T09:57:27.716Z</time>
      </trkpt>
      <trkpt lat="45.72201" lon="6.71608">
        <ele>2436</ele>
        <time>2026-07-29T09:57:28.716Z</time>
      </trkpt>
      <trkpt lat="45.72199" lon="6.71605">
        <ele>2436</ele>
        <time>2026-07-29T09:57:29.716Z</time>
      </trkpt>
      <trkpt lat="45.72196" lon="6.71603">
        <ele>2436</ele>
        <time>2026-07-29T09:57:30.716Z</time>
      </trkpt>
      <trkpt lat="45.72194" lon="6.71601">
        <ele>2435</ele>
        <time>2026-07-29T09:57:31.716Z</time>
      </trkpt>
      <trkpt lat="45.72192" lon="6.71599">
        <ele>2435</ele>
        <time>2026-07-29T09:57:32.716Z</time>
      </trkpt>
      <trkpt lat="45.7219" lon="6.71597">
        <ele>2434</ele>
        <time>2026-07-29T09:57:33.716Z</time>
      </trkpt>
      <trkpt lat="45.72188" lon="6.71594">
        <ele>2434</ele>
        <time>2026-07-29T09:57:34.716Z</time>
      </trkpt>
      <trkpt lat="45.72186" lon="6.71593">
        <ele>2434</ele>
        <time>2026-07-29T09:57:35.716Z</time>
      </trkpt>
      <trkpt lat="45.72184" lon="6.71591">
        <ele>2434</ele>
        <time>2026-07-29T09:57:36.716Z</time>
      </trkpt>
      <trkpt lat="45.72181" lon="6.71589">
        <ele>2434</ele>
        <time>2026-07-29T09:57:37.716Z</time>
      </trkpt>
      <trkpt lat="45.72179" lon="6.71587">
        <ele>2434</ele>
        <time>2026-07-29T09:57:38.716Z</time>
      </trkpt>
      <trkpt lat="45.72177" lon="6.71586">
        <ele>2434</ele>
        <time>2026-07-29T09:57:39.716Z</time>
      </trkpt>
      <trkpt lat="45.72174" lon="6.71584">
        <ele>2433</ele>
        <time>2026-07-29T09:57:40.716Z</time>
      </trkpt>
      <trkpt lat="45.72172" lon="6.71583">
        <ele>2433</ele>
        <time>2026-07-29T09:57:41.716Z</time>
      </trkpt>
      <trkpt lat="45.7217" lon="6.71581">
        <ele>2433</ele>
        <time>2026-07-29T09:57:42.716Z</time>
      </trkpt>
      <trkpt lat="45.72167" lon="6.7158">
        <ele>2433</ele>
        <time>2026-07-29T09:57:43.716Z</time>
      </trkpt>
      <trkpt lat="45.72165" lon="6.71578">
        <ele>2433</ele>
        <time>2026-07-29T09:57:44.716Z</time>
      </trkpt>
      <trkpt lat="45.72162" lon="6.71577">
        <ele>2432</ele>
        <time>2026-07-29T09:57:45.716Z</time>
      </trkpt>
      <trkpt lat="45.72159" lon="6.71575">
        <ele>2432</ele>
        <time>2026-07-29T09:57:46.716Z</time>
      </trkpt>
      <trkpt lat="45.72157" lon="6.71573">
        <ele>2431</ele>
        <time>2026-07-29T09:57:47.716Z</time>
      </trkpt>
      <trkpt lat="45.72154" lon="6.71571">
        <ele>2431</ele>
        <time>2026-07-29T09:57:48.716Z</time>
      </trkpt>
      <trkpt lat="45.72152" lon="6.7157">
        <ele>2431</ele>
        <time>2026-07-29T09:57:49.716Z</time>
      </trkpt>
      <trkpt lat="45.72149" lon="6.7157">
        <ele>2430</ele>
        <time>2026-07-29T09:57:50.716Z</time>
      </trkpt>
      <trkpt lat="45.72147" lon="6.7157">
        <ele>2430</ele>
        <time>2026-07-29T09:57:51.716Z</time>
      </trkpt>
      <trkpt lat="45.72144" lon="6.71569">
        <ele>2430</ele>
        <time>2026-07-29T09:57:52.716Z</time>
      </trkpt>
      <trkpt lat="45.72142" lon="6.71569">
        <ele>2430</ele>
        <time>2026-07-29T09:57:53.716Z</time>
      </trkpt>
      <trkpt lat="45.7214" lon="6.71568">
        <ele>2430</ele>
        <time>2026-07-29T09:57:54.716Z</time>
      </trkpt>
      <trkpt lat="45.72138" lon="6.71567">
        <ele>2430</ele>
        <time>2026-07-29T09:57:55.716Z</time>
      </trkpt>
      <trkpt lat="45.72136" lon="6.71566">
        <ele>2430</ele>
        <time>2026-07-29T09:57:56.716Z</time>
      </trkpt>
      <trkpt lat="45.72134" lon="6.71565">
        <ele>2430</ele>
        <time>2026-07-29T09:57:57.716Z</time>
      </trkpt>
      <trkpt lat="45.72132" lon="6.71564">
        <ele>2430</ele>
        <time>2026-07-29T09:57:58.716Z</time>
      </trkpt>
      <trkpt lat="45.72129" lon="6.71563">
        <ele>2430</ele>
        <time>2026-07-29T09:57:59.716Z</time>
      </trkpt>
      <trkpt lat="45.72127" lon="6.71561">
        <ele>2430</ele>
        <time>2026-07-29T09:58:00.716Z</time>
      </trkpt>
      <trkpt lat="45.72125" lon="6.71559">
        <ele>2429</ele>
        <time>2026-07-29T09:58:01.716Z</time>
      </trkpt>
      <trkpt lat="45.72123" lon="6.71558">
        <ele>2429</ele>
        <time>2026-07-29T09:58:02.716Z</time>
      </trkpt>
      <trkpt lat="45.7212" lon="6.71557">
        <ele>2429</ele>
        <time>2026-07-29T09:58:03.716Z</time>
      </trkpt>
      <trkpt lat="45.72118" lon="6.71555">
        <ele>2429</ele>
        <time>2026-07-29T09:58:04.716Z</time>
      </trkpt>
      <trkpt lat="45.72116" lon="6.71553">
        <ele>2429</ele>
        <time>2026-07-29T09:58:05.716Z</time>
      </trkpt>
      <trkpt lat="45.72114" lon="6.71551">
        <ele>2429</ele>
        <time>2026-07-29T09:58:06.716Z</time>
      </trkpt>
      <trkpt lat="45.72112" lon="6.7155">
        <ele>2429</ele>
        <time>2026-07-29T09:58:07.716Z</time>
      </trkpt>
      <trkpt lat="45.7211" lon="6.71548">
        <ele>2428</ele>
        <time>2026-07-29T09:58:08.716Z</time>
      </trkpt>
      <trkpt lat="45.72108" lon="6.71546">
        <ele>2428</ele>
        <time>2026-07-29T09:58:09.716Z</time>
      </trkpt>
      <trkpt lat="45.72106" lon="6.71544">
        <ele>2428</ele>
        <time>2026-07-29T09:58:10.716Z</time>
      </trkpt>
      <trkpt lat="45.72105" lon="6.71543">
        <ele>2428</ele>
        <time>2026-07-29T09:58:11.716Z</time>
      </trkpt>
      <trkpt lat="45.72103" lon="6.71541">
        <ele>2428</ele>
        <time>2026-07-29T09:58:12.716Z</time>
      </trkpt>
      <trkpt lat="45.72102" lon="6.71539">
        <ele>2428</ele>
        <time>2026-07-29T09:58:13.716Z</time>
      </trkpt>
      <trkpt lat="45.72101" lon="6.71537">
        <ele>2428</ele>
        <time>2026-07-29T09:58:14.716Z</time>
      </trkpt>
      <trkpt lat="45.721" lon="6.71534">
        <ele>2428</ele>
        <time>2026-07-29T09:58:15.716Z</time>
      </trkpt>
      <trkpt lat="45.72099" lon="6.71532">
        <ele>2427</ele>
        <time>2026-07-29T09:58:16.716Z</time>
      </trkpt>
      <trkpt lat="45.72098" lon="6.7153">
        <ele>2427</ele>
        <time>2026-07-29T09:58:17.716Z</time>
      </trkpt>
      <trkpt lat="45.72097" lon="6.71528">
        <ele>2427</ele>
        <time>2026-07-29T09:58:18.716Z</time>
      </trkpt>
      <trkpt lat="45.72096" lon="6.71526">
        <ele>2427</ele>
        <time>2026-07-29T09:58:19.716Z</time>
      </trkpt>
      <trkpt lat="45.72095" lon="6.71524">
        <ele>2427</ele>
        <time>2026-07-29T09:58:20.716Z</time>
      </trkpt>
      <trkpt lat="45.72093" lon="6.71522">
        <ele>2427</ele>
        <time>2026-07-29T09:58:21.716Z</time>
      </trkpt>
      <trkpt lat="45.72092" lon="6.71521">
        <ele>2427</ele>
        <time>2026-07-29T09:58:22.716Z</time>
      </trkpt>
      <trkpt lat="45.7209" lon="6.71518">
        <ele>2426</ele>
        <time>2026-07-29T09:58:23.716Z</time>
      </trkpt>
      <trkpt lat="45.72089" lon="6.71516">
        <ele>2426</ele>
        <time>2026-07-29T09:58:24.716Z</time>
      </trkpt>
      <trkpt lat="45.72088" lon="6.71514">
        <ele>2426</ele>
        <time>2026-07-29T09:58:25.716Z</time>
      </trkpt>
      <trkpt lat="45.72087" lon="6.71512">
        <ele>2426</ele>
        <time>2026-07-29T09:58:26.716Z</time>
      </trkpt>
      <trkpt lat="45.72086" lon="6.7151">
        <ele>2426</ele>
        <time>2026-07-29T09:58:27.716Z</time>
      </trkpt>
      <trkpt lat="45.72085" lon="6.71507">
        <ele>2426</ele>
        <time>2026-07-29T09:58:28.716Z</time>
      </trkpt>
      <trkpt lat="45.72084" lon="6.71505">
        <ele>2426</ele>
        <time>2026-07-29T09:58:29.716Z</time>
      </trkpt>
      <trkpt lat="45.72083" lon="6.71504">
        <ele>2425</ele>
        <time>2026-07-29T09:58:30.716Z</time>
      </trkpt>
      <trkpt lat="45.72081" lon="6.71501">
        <ele>2425</ele>
        <time>2026-07-29T09:58:31.716Z</time>
      </trkpt>
      <trkpt lat="45.7208" lon="6.71499">
        <ele>2424</ele>
        <time>2026-07-29T09:58:32.716Z</time>
      </trkpt>
      <trkpt lat="45.7208" lon="6.71496">
        <ele>2424</ele>
        <time>2026-07-29T09:58:33.716Z</time>
      </trkpt>
      <trkpt lat="45.72079" lon="6.71494">
        <ele>2424</ele>
        <time>2026-07-29T09:58:34.716Z</time>
      </trkpt>
      <trkpt lat="45.72079" lon="6.71491">
        <ele>2424</ele>
        <time>2026-07-29T09:58:35.716Z</time>
      </trkpt>
      <trkpt lat="45.72078" lon="6.71488">
        <ele>2424</ele>
        <time>2026-07-29T09:58:36.716Z</time>
      </trkpt>
      <trkpt lat="45.72077" lon="6.71485">
        <ele>2423</ele>
        <time>2026-07-29T09:58:37.716Z</time>
      </trkpt>
      <trkpt lat="45.72076" lon="6.71483">
        <ele>2423</ele>
        <time>2026-07-29T09:58:38.716Z</time>
      </trkpt>
      <trkpt lat="45.72074" lon="6.7148">
        <ele>2423</ele>
        <time>2026-07-29T09:58:39.716Z</time>
      </trkpt>
      <trkpt lat="45.72072" lon="6.71478">
        <ele>2422</ele>
        <time>2026-07-29T09:58:40.716Z</time>
      </trkpt>
      <trkpt lat="45.72071" lon="6.71476">
        <ele>2422</ele>
        <time>2026-07-29T09:58:41.716Z</time>
      </trkpt>
      <trkpt lat="45.72069" lon="6.71473">
        <ele>2422</ele>
        <time>2026-07-29T09:58:42.716Z</time>
      </trkpt>
      <trkpt lat="45.72067" lon="6.71471">
        <ele>2422</ele>
        <time>2026-07-29T09:58:43.716Z</time>
      </trkpt>
      <trkpt lat="45.72066" lon="6.71469">
        <ele>2422</ele>
        <time>2026-07-29T09:58:44.716Z</time>
      </trkpt>
      <trkpt lat="45.72064" lon="6.71467">
        <ele>2422</ele>
        <time>2026-07-29T09:58:45.716Z</time>
      </trkpt>
      <trkpt lat="45.72063" lon="6.71465">
        <ele>2422</ele>
        <time>2026-07-29T09:58:46.716Z</time>
      </trkpt>
      <trkpt lat="45.72061" lon="6.71463">
        <ele>2422</ele>
        <time>2026-07-29T09:58:47.716Z</time>
      </trkpt>
      <trkpt lat="45.7206" lon="6.71462">
        <ele>2421</ele>
        <time>2026-07-29T09:58:48.716Z</time>
      </trkpt>
      <trkpt lat="45.72059" lon="6.7146">
        <ele>2421</ele>
        <time>2026-07-29T09:58:49.716Z</time>
      </trkpt>
      <trkpt lat="45.72058" lon="6.71457">
        <ele>2421</ele>
        <time>2026-07-29T09:58:50.716Z</time>
      </trkpt>
      <trkpt lat="45.72056" lon="6.71455">
        <ele>2421</ele>
        <time>2026-07-29T09:58:51.716Z</time>
      </trkpt>
      <trkpt lat="45.72055" lon="6.71453">
        <ele>2421</ele>
        <time>2026-07-29T09:58:52.716Z</time>
      </trkpt>
      <trkpt lat="45.72054" lon="6.71451">
        <ele>2421</ele>
        <time>2026-07-29T09:58:53.716Z</time>
      </trkpt>
      <trkpt lat="45.72053" lon="6.7145">
        <ele>2420</ele>
        <time>2026-07-29T09:58:54.716Z</time>
      </trkpt>
      <trkpt lat="45.72051" lon="6.7145">
        <ele>2420</ele>
        <time>2026-07-29T09:58:55.716Z</time>
      </trkpt>
      <trkpt lat="45.72049" lon="6.7145">
        <ele>2420</ele>
        <time>2026-07-29T09:58:56.716Z</time>
      </trkpt>
      <trkpt lat="45.72048" lon="6.7145">
        <ele>2420</ele>
        <time>2026-07-29T09:58:57.716Z</time>
      </trkpt>
      <trkpt lat="45.72046" lon="6.7145">
        <ele>2420</ele>
        <time>2026-07-29T09:58:58.716Z</time>
      </trkpt>
      <trkpt lat="45.72044" lon="6.7145">
        <ele>2420</ele>
        <time>2026-07-29T09:58:59.716Z</time>
      </trkpt>
      <trkpt lat="45.72041" lon="6.71449">
        <ele>2419</ele>
        <time>2026-07-29T09:59:00.716Z</time>
      </trkpt>
      <trkpt lat="45.72039" lon="6.71449">
        <ele>2419</ele>
        <time>2026-07-29T09:59:01.716Z</time>
      </trkpt>
      <trkpt lat="45.72036" lon="6.7145">
        <ele>2418</ele>
        <time>2026-07-29T09:59:02.716Z</time>
      </trkpt>
      <trkpt lat="45.72034" lon="6.7145">
        <ele>2418</ele>
        <time>2026-07-29T09:59:03.716Z</time>
      </trkpt>
      <trkpt lat="45.72032" lon="6.71451">
        <ele>2417</ele>
        <time>2026-07-29T09:59:04.716Z</time>
      </trkpt>
      <trkpt lat="45.72029" lon="6.71451">
        <ele>2417</ele>
        <time>2026-07-29T09:59:05.716Z</time>
      </trkpt>
      <trkpt lat="45.72027" lon="6.71451">
        <ele>2416</ele>
        <time>2026-07-29T09:59:06.716Z</time>
      </trkpt>
      <trkpt lat="45.72024" lon="6.71451">
        <ele>2416</ele>
        <time>2026-07-29T09:59:07.716Z</time>
      </trkpt>
      <trkpt lat="45.72022" lon="6.71452">
        <ele>2415</ele>
        <time>2026-07-29T09:59:08.716Z</time>
      </trkpt>
      <trkpt lat="45.72019" lon="6.71452">
        <ele>2415</ele>
        <time>2026-07-29T09:59:09.716Z</time>
      </trkpt>
      <trkpt lat="45.72017" lon="6.71453">
        <ele>2414</ele>
        <time>2026-07-29T09:59:10.716Z</time>
      </trkpt>
      <trkpt lat="45.72015" lon="6.71455">
        <ele>2414</ele>
        <time>2026-07-29T09:59:11.716Z</time>
      </trkpt>
      <trkpt lat="45.72012" lon="6.71456">
        <ele>2414</ele>
        <time>2026-07-29T09:59:12.716Z</time>
      </trkpt>
      <trkpt lat="45.7201" lon="6.71457">
        <ele>2414</ele>
        <time>2026-07-29T09:59:13.716Z</time>
      </trkpt>
      <trkpt lat="45.72008" lon="6.71459">
        <ele>2414</ele>
        <time>2026-07-29T09:59:14.716Z</time>
      </trkpt>
      <trkpt lat="45.72005" lon="6.7146">
        <ele>2413</ele>
        <time>2026-07-29T09:59:15.716Z</time>
      </trkpt>
      <trkpt lat="45.72003" lon="6.71461">
        <ele>2413</ele>
        <time>2026-07-29T09:59:16.716Z</time>
      </trkpt>
      <trkpt lat="45.72001" lon="6.71461">
        <ele>2413</ele>
        <time>2026-07-29T09:59:17.716Z</time>
      </trkpt>
      <trkpt lat="45.71998" lon="6.71462">
        <ele>2412</ele>
        <time>2026-07-29T09:59:18.716Z</time>
      </trkpt>
      <trkpt lat="45.71996" lon="6.71464">
        <ele>2412</ele>
        <time>2026-07-29T09:59:19.716Z</time>
      </trkpt>
      <trkpt lat="45.71994" lon="6.71466">
        <ele>2411</ele>
        <time>2026-07-29T09:59:20.716Z</time>
      </trkpt>
      <trkpt lat="45.71992" lon="6.71468">
        <ele>2411</ele>
        <time>2026-07-29T09:59:21.716Z</time>
      </trkpt>
      <trkpt lat="45.7199" lon="6.7147">
        <ele>2411</ele>
        <time>2026-07-29T09:59:22.716Z</time>
      </trkpt>
      <trkpt lat="45.71987" lon="6.71472">
        <ele>2411</ele>
        <time>2026-07-29T09:59:23.716Z</time>
      </trkpt>
      <trkpt lat="45.71985" lon="6.71474">
        <ele>2410</ele>
        <time>2026-07-29T09:59:24.716Z</time>
      </trkpt>
      <trkpt lat="45.71984" lon="6.71475">
        <ele>2410</ele>
        <time>2026-07-29T09:59:25.716Z</time>
      </trkpt>
      <trkpt lat="45.71981" lon="6.71477">
        <ele>2410</ele>
        <time>2026-07-29T09:59:26.716Z</time>
      </trkpt>
      <trkpt lat="45.71979" lon="6.71478">
        <ele>2411</ele>
        <time>2026-07-29T09:59:27.716Z</time>
      </trkpt>
      <trkpt lat="45.71977" lon="6.7148">
        <ele>2411</ele>
        <time>2026-07-29T09:59:28.716Z</time>
      </trkpt>
      <trkpt lat="45.71975" lon="6.71481">
        <ele>2411</ele>
        <time>2026-07-29T09:59:29.716Z</time>
      </trkpt>
      <trkpt lat="45.71974" lon="6.71483">
        <ele>2410</ele>
        <time>2026-07-29T09:59:30.716Z</time>
      </trkpt>
      <trkpt lat="45.71973" lon="6.71485">
        <ele>2411</ele>
        <time>2026-07-29T09:59:31.716Z</time>
      </trkpt>
      <trkpt lat="45.71971" lon="6.71487">
        <ele>2411</ele>
        <time>2026-07-29T09:59:32.716Z</time>
      </trkpt>
      <trkpt lat="45.7197" lon="6.71489">
        <ele>2411</ele>
        <time>2026-07-29T09:59:33.716Z</time>
      </trkpt>
      <trkpt lat="45.71968" lon="6.71491">
        <ele>2411</ele>
        <time>2026-07-29T09:59:34.716Z</time>
      </trkpt>
      <trkpt lat="45.71966" lon="6.71492">
        <ele>2411</ele>
        <time>2026-07-29T09:59:35.716Z</time>
      </trkpt>
      <trkpt lat="45.71965" lon="6.71494">
        <ele>2411</ele>
        <time>2026-07-29T09:59:36.716Z</time>
      </trkpt>
      <trkpt lat="45.71963" lon="6.71495">
        <ele>2412</ele>
        <time>2026-07-29T09:59:37.716Z</time>
      </trkpt>
      <trkpt lat="45.71961" lon="6.71496">
        <ele>2412</ele>
        <time>2026-07-29T09:59:38.716Z</time>
      </trkpt>
      <trkpt lat="45.7196" lon="6.71497">
        <ele>2412</ele>
        <time>2026-07-29T09:59:39.716Z</time>
      </trkpt>
      <trkpt lat="45.71958" lon="6.71497">
        <ele>2413</ele>
        <time>2026-07-29T09:59:40.716Z</time>
      </trkpt>
      <trkpt lat="45.71957" lon="6.71498">
        <ele>2413</ele>
        <time>2026-07-29T09:59:41.716Z</time>
      </trkpt>
      <trkpt lat="45.71955" lon="6.71498">
        <ele>2413</ele>
        <time>2026-07-29T09:59:42.716Z</time>
      </trkpt>
      <trkpt lat="45.71954" lon="6.71498">
        <ele>2413</ele>
        <time>2026-07-29T09:59:43.716Z</time>
      </trkpt>
      <trkpt lat="45.71952" lon="6.71499">
        <ele>2413</ele>
        <time>2026-07-29T09:59:44.716Z</time>
      </trkpt>
      <trkpt lat="45.71951" lon="6.71499">
        <ele>2413</ele>
        <time>2026-07-29T09:59:45.716Z</time>
      </trkpt>
      <trkpt lat="45.7195" lon="6.71499">
        <ele>2413</ele>
        <time>2026-07-29T09:59:46.716Z</time>
      </trkpt>
      <trkpt lat="45.71948" lon="6.715">
        <ele>2413</ele>
        <time>2026-07-29T09:59:47.716Z</time>
      </trkpt>
      <trkpt lat="45.71947" lon="6.715">
        <ele>2414</ele>
        <time>2026-07-29T09:59:48.716Z</time>
      </trkpt>
      <trkpt lat="45.71946" lon="6.715">
        <ele>2414</ele>
        <time>2026-07-29T09:59:49.716Z</time>
      </trkpt>
      <trkpt lat="45.71944" lon="6.715">
        <ele>2414</ele>
        <time>2026-07-29T09:59:50.716Z</time>
      </trkpt>
      <trkpt lat="45.71943" lon="6.71501">
        <ele>2414</ele>
        <time>2026-07-29T09:59:51.716Z</time>
      </trkpt>
      <trkpt lat="45.71942" lon="6.71501">
        <ele>2414</ele>
        <time>2026-07-29T09:59:52.716Z</time>
      </trkpt>
      <trkpt lat="45.71941" lon="6.71501">
        <ele>2415</ele>
        <time>2026-07-29T09:59:53.716Z</time>
      </trkpt>
      <trkpt lat="45.7194" lon="6.71501">
        <ele>2415</ele>
        <time>2026-07-29T09:59:54.716Z</time>
      </trkpt>
      <trkpt lat="45.71939" lon="6.71502">
        <ele>2415</ele>
        <time>2026-07-29T09:59:55.716Z</time>
      </trkpt>
      <trkpt lat="45.71938" lon="6.71502">
        <ele>2415</ele>
        <time>2026-07-29T09:59:56.716Z</time>
      </trkpt>
      <trkpt lat="45.71936" lon="6.71502">
        <ele>2415</ele>
        <time>2026-07-29T09:59:57.716Z</time>
      </trkpt>
      <trkpt lat="45.71936" lon="6.71502">
        <ele>2415</ele>
        <time>2026-07-29T09:59:58.716Z</time>
      </trkpt>
      <trkpt lat="45.71935" lon="6.71502">
        <ele>2415</ele>
        <time>2026-07-29T09:59:59.716Z</time>
      </trkpt>
      <trkpt lat="45.71934" lon="6.71502">
        <ele>2415</ele>
        <time>2026-07-29T10:00:00.716Z</time>
      </trkpt>
      <trkpt lat="45.71933" lon="6.71502">
        <ele>2415</ele>
        <time>2026-07-29T10:00:01.716Z</time>
      </trkpt>
      <trkpt lat="45.71932" lon="6.71502">
        <ele>2415</ele>
        <time>2026-07-29T10:00:02.716Z</time>
      </trkpt>
      <trkpt lat="45.7193" lon="6.71502">
        <ele>2416</ele>
        <time>2026-07-29T10:00:03.716Z</time>
      </trkpt>
      <trkpt lat="45.71929" lon="6.71502">
        <ele>2416</ele>
        <time>2026-07-29T10:00:04.716Z</time>
      </trkpt>
      <trkpt lat="45.71928" lon="6.71502">
        <ele>2417</ele>
        <time>2026-07-29T10:00:05.716Z</time>
      </trkpt>
      <trkpt lat="45.71927" lon="6.71502">
        <ele>2417</ele>
        <time>2026-07-29T10:00:06.716Z</time>
      </trkpt>
      <trkpt lat="45.71926" lon="6.71502">
        <ele>2417</ele>
        <time>2026-07-29T10:00:07.716Z</time>
      </trkpt>
      <trkpt lat="45.71925" lon="6.71501">
        <ele>2417</ele>
        <time>2026-07-29T10:00:08.716Z</time>
      </trkpt>
      <trkpt lat="45.71924" lon="6.71501">
        <ele>2418</ele>
        <time>2026-07-29T10:00:09.716Z</time>
      </trkpt>
      <trkpt lat="45.71923" lon="6.71501">
        <ele>2418</ele>
        <time>2026-07-29T10:00:10.716Z</time>
      </trkpt>
      <trkpt lat="45.71922" lon="6.715">
        <ele>2418</ele>
        <time>2026-07-29T10:00:11.716Z</time>
      </trkpt>
      <trkpt lat="45.71921" lon="6.715">
        <ele>2419</ele>
        <time>2026-07-29T10:00:12.716Z</time>
      </trkpt>
      <trkpt lat="45.7192" lon="6.71499">
        <ele>2419</ele>
        <time>2026-07-29T10:00:13.716Z</time>
      </trkpt>
      <trkpt lat="45.71919" lon="6.71498">
        <ele>2419</ele>
        <time>2026-07-29T10:00:14.716Z</time>
      </trkpt>
      <trkpt lat="45.71918" lon="6.71497">
        <ele>2419</ele>
        <time>2026-07-29T10:00:15.716Z</time>
      </trkpt>
      <trkpt lat="45.71917" lon="6.71496">
        <ele>2419</ele>
        <time>2026-07-29T10:00:16.716Z</time>
      </trkpt>
      <trkpt lat="45.71916" lon="6.71496">
        <ele>2420</ele>
        <time>2026-07-29T10:00:17.716Z</time>
      </trkpt>
      <trkpt lat="45.71915" lon="6.71496">
        <ele>2420</ele>
        <time>2026-07-29T10:00:18.716Z</time>
      </trkpt>
      <trkpt lat="45.71914" lon="6.71495">
        <ele>2420</ele>
        <time>2026-07-29T10:00:19.716Z</time>
      </trkpt>
      <trkpt lat="45.71913" lon="6.71495">
        <ele>2420</ele>
        <time>2026-07-29T10:00:20.716Z</time>
      </trkpt>
      <trkpt lat="45.71912" lon="6.71495">
        <ele>2421</ele>
        <time>2026-07-29T10:00:21.716Z</time>
      </trkpt>
      <trkpt lat="45.71911" lon="6.71495">
        <ele>2422</ele>
        <time>2026-07-29T10:00:22.716Z</time>
      </trkpt>
      <trkpt lat="45.7191" lon="6.71494">
        <ele>2422</ele>
        <time>2026-07-29T10:00:23.716Z</time>
      </trkpt>
      <trkpt lat="45.71909" lon="6.71494">
        <ele>2423</ele>
        <time>2026-07-29T10:00:24.716Z</time>
      </trkpt>
      <trkpt lat="45.71908" lon="6.71494">
        <ele>2423</ele>
        <time>2026-07-29T10:00:25.716Z</time>
      </trkpt>
      <trkpt lat="45.71907" lon="6.71493">
        <ele>2423</ele>
        <time>2026-07-29T10:00:26.716Z</time>
      </trkpt>
      <trkpt lat="45.71906" lon="6.71493">
        <ele>2423</ele>
        <time>2026-07-29T10:00:27.716Z</time>
      </trkpt>
      <trkpt lat="45.71905" lon="6.71492">
        <ele>2423</ele>
        <time>2026-07-29T10:00:28.716Z</time>
      </trkpt>
      <trkpt lat="45.71904" lon="6.71491">
        <ele>2424</ele>
        <time>2026-07-29T10:00:29.716Z</time>
      </trkpt>
      <trkpt lat="45.71903" lon="6.71491">
        <ele>2424</ele>
        <time>2026-07-29T10:00:30.716Z</time>
      </trkpt>
      <trkpt lat="45.71902" lon="6.7149">
        <ele>2424</ele>
        <time>2026-07-29T10:00:31.716Z</time>
      </trkpt>
      <trkpt lat="45.71901" lon="6.7149">
        <ele>2425</ele>
        <time>2026-07-29T10:00:32.716Z</time>
      </trkpt>
      <trkpt lat="45.71901" lon="6.71489">
        <ele>2425</ele>
        <time>2026-07-29T10:00:33.716Z</time>
      </trkpt>
      <trkpt lat="45.719" lon="6.71489">
        <ele>2425</ele>
        <time>2026-07-29T10:00:34.716Z</time>
      </trkpt>
      <trkpt lat="45.71899" lon="6.71488">
        <ele>2425</ele>
        <time>2026-07-29T10:00:35.716Z</time>
      </trkpt>
      <trkpt lat="45.71898" lon="6.71487">
        <ele>2426</ele>
        <time>2026-07-29T10:00:36.716Z</time>
      </trkpt>
      <trkpt lat="45.71897" lon="6.71487">
        <ele>2426</ele>
        <time>2026-07-29T10:00:37.716Z</time>
      </trkpt>
      <trkpt lat="45.71896" lon="6.71486">
        <ele>2427</ele>
        <time>2026-07-29T10:00:38.716Z</time>
      </trkpt>
      <trkpt lat="45.71895" lon="6.71486">
        <ele>2427</ele>
        <time>2026-07-29T10:00:39.716Z</time>
      </trkpt>
      <trkpt lat="45.71894" lon="6.71486">
        <ele>2428</ele>
        <time>2026-07-29T10:00:40.716Z</time>
      </trkpt>
      <trkpt lat="45.71892" lon="6.71485">
        <ele>2429</ele>
        <time>2026-07-29T10:00:41.716Z</time>
      </trkpt>
      <trkpt lat="45.71891" lon="6.71485">
        <ele>2429</ele>
        <time>2026-07-29T10:00:42.716Z</time>
      </trkpt>
      <trkpt lat="45.7189" lon="6.71484">
        <ele>2429</ele>
        <time>2026-07-29T10:00:43.716Z</time>
      </trkpt>
      <trkpt lat="45.71889" lon="6.71483">
        <ele>2429</ele>
        <time>2026-07-29T10:00:44.716Z</time>
      </trkpt>
      <trkpt lat="45.71889" lon="6.71483">
        <ele>2429</ele>
        <time>2026-07-29T10:00:45.716Z</time>
      </trkpt>
      <trkpt lat="45.71887" lon="6.71482">
        <ele>2429</ele>
        <time>2026-07-29T10:00:46.716Z</time>
      </trkpt>
      <trkpt lat="45.71886" lon="6.71482">
        <ele>2430</ele>
        <time>2026-07-29T10:00:47.716Z</time>
      </trkpt>
      <trkpt lat="45.71885" lon="6.71481">
        <ele>2430</ele>
        <time>2026-07-29T10:00:48.716Z</time>
      </trkpt>
      <trkpt lat="45.71884" lon="6.71481">
        <ele>2430</ele>
        <time>2026-07-29T10:00:49.716Z</time>
      </trkpt>
      <trkpt lat="45.71883" lon="6.7148">
        <ele>2430</ele>
        <time>2026-07-29T10:00:50.716Z</time>
      </trkpt>
      <trkpt lat="45.71883" lon="6.7148">
        <ele>2430</ele>
        <time>2026-07-29T10:00:51.716Z</time>
      </trkpt>
      <trkpt lat="45.71882" lon="6.71479">
        <ele>2430</ele>
        <time>2026-07-29T10:00:52.716Z</time>
      </trkpt>
      <trkpt lat="45.71881" lon="6.71479">
        <ele>2431</ele>
        <time>2026-07-29T10:00:53.716Z</time>
      </trkpt>
      <trkpt lat="45.7188" lon="6.71478">
        <ele>2431</ele>
        <time>2026-07-29T10:00:54.716Z</time>
      </trkpt>
      <trkpt lat="45.71879" lon="6.71477">
        <ele>2432</ele>
        <time>2026-07-29T10:00:55.716Z</time>
      </trkpt>
      <trkpt lat="45.71878" lon="6.71477">
        <ele>2432</ele>
        <time>2026-07-29T10:00:56.716Z</time>
      </trkpt>
      <trkpt lat="45.71877" lon="6.71476">
        <ele>2432</ele>
        <time>2026-07-29T10:00:57.716Z</time>
      </trkpt>
      <trkpt lat="45.71876" lon="6.71475">
        <ele>2432</ele>
        <time>2026-07-29T10:00:58.716Z</time>
      </trkpt>
      <trkpt lat="45.71875" lon="6.71474">
        <ele>2432</ele>
        <time>2026-07-29T10:00:59.716Z</time>
      </trkpt>
      <trkpt lat="45.71873" lon="6.71474">
        <ele>2433</ele>
        <time>2026-07-29T10:01:00.716Z</time>
      </trkpt>
      <trkpt lat="45.71872" lon="6.71473">
        <ele>2433</ele>
        <time>2026-07-29T10:01:01.716Z</time>
      </trkpt>
      <trkpt lat="45.71871" lon="6.71473">
        <ele>2433</ele>
        <time>2026-07-29T10:01:02.716Z</time>
      </trkpt>
      <trkpt lat="45.7187" lon="6.71472">
        <ele>2433</ele>
        <time>2026-07-29T10:01:03.716Z</time>
      </trkpt>
      <trkpt lat="45.71869" lon="6.71471">
        <ele>2433</ele>
        <time>2026-07-29T10:01:04.716Z</time>
      </trkpt>
      <trkpt lat="45.71868" lon="6.7147">
        <ele>2433</ele>
        <time>2026-07-29T10:01:05.716Z</time>
      </trkpt>
      <trkpt lat="45.71867" lon="6.71469">
        <ele>2434</ele>
        <time>2026-07-29T10:01:06.716Z</time>
      </trkpt>
      <trkpt lat="45.71866" lon="6.71468">
        <ele>2434</ele>
        <time>2026-07-29T10:01:07.716Z</time>
      </trkpt>
      <trkpt lat="45.71865" lon="6.71468">
        <ele>2434</ele>
        <time>2026-07-29T10:01:08.716Z</time>
      </trkpt>
      <trkpt lat="45.71864" lon="6.71467">
        <ele>2434</ele>
        <time>2026-07-29T10:01:09.716Z</time>
      </trkpt>
      <trkpt lat="45.71862" lon="6.71467">
        <ele>2435</ele>
        <time>2026-07-29T10:01:10.716Z</time>
      </trkpt>
      <trkpt lat="45.71861" lon="6.71467">
        <ele>2436</ele>
        <time>2026-07-29T10:01:11.716Z</time>
      </trkpt>
      <trkpt lat="45.7186" lon="6.71466">
        <ele>2436</ele>
        <time>2026-07-29T10:01:12.716Z</time>
      </trkpt>
      <trkpt lat="45.71859" lon="6.71466">
        <ele>2436</ele>
        <time>2026-07-29T10:01:13.716Z</time>
      </trkpt>
      <trkpt lat="45.71858" lon="6.71466">
        <ele>2437</ele>
        <time>2026-07-29T10:01:14.716Z</time>
      </trkpt>
      <trkpt lat="45.71856" lon="6.71466">
        <ele>2437</ele>
        <time>2026-07-29T10:01:15.716Z</time>
      </trkpt>
      <trkpt lat="45.71855" lon="6.71466">
        <ele>2438</ele>
        <time>2026-07-29T10:01:16.716Z</time>
      </trkpt>
      <trkpt lat="45.71854" lon="6.71465">
        <ele>2438</ele>
        <time>2026-07-29T10:01:17.716Z</time>
      </trkpt>
      <trkpt lat="45.71852" lon="6.71464">
        <ele>2438</ele>
        <time>2026-07-29T10:01:18.716Z</time>
      </trkpt>
      <trkpt lat="45.71851" lon="6.71464">
        <ele>2439</ele>
        <time>2026-07-29T10:01:19.716Z</time>
      </trkpt>
      <trkpt lat="45.7185" lon="6.71464">
        <ele>2439</ele>
        <time>2026-07-29T10:01:20.716Z</time>
      </trkpt>
      <trkpt lat="45.71849" lon="6.71464">
        <ele>2439</ele>
        <time>2026-07-29T10:01:21.716Z</time>
      </trkpt>
      <trkpt lat="45.71847" lon="6.71463">
        <ele>2439</ele>
        <time>2026-07-29T10:01:22.716Z</time>
      </trkpt>
      <trkpt lat="45.71846" lon="6.71463">
        <ele>2439</ele>
        <time>2026-07-29T10:01:23.716Z</time>
      </trkpt>
      <trkpt lat="45.71845" lon="6.71463">
        <ele>2439</ele>
        <time>2026-07-29T10:01:24.716Z</time>
      </trkpt>
      <trkpt lat="45.71844" lon="6.71462">
        <ele>2439</ele>
        <time>2026-07-29T10:01:25.716Z</time>
      </trkpt>
      <trkpt lat="45.71843" lon="6.71461">
        <ele>2439</ele>
        <time>2026-07-29T10:01:26.716Z</time>
      </trkpt>
      <trkpt lat="45.71842" lon="6.71461">
        <ele>2439</ele>
        <time>2026-07-29T10:01:27.716Z</time>
      </trkpt>
      <trkpt lat="45.71841" lon="6.7146">
        <ele>2439</ele>
        <time>2026-07-29T10:01:28.716Z</time>
      </trkpt>
      <trkpt lat="45.7184" lon="6.7146">
        <ele>2439</ele>
        <time>2026-07-29T10:01:29.716Z</time>
      </trkpt>
      <trkpt lat="45.71839" lon="6.7146">
        <ele>2439</ele>
        <time>2026-07-29T10:01:30.716Z</time>
      </trkpt>
      <trkpt lat="45.71838" lon="6.7146">
        <ele>2440</ele>
        <time>2026-07-29T10:01:31.716Z</time>
      </trkpt>
      <trkpt lat="45.71837" lon="6.7146">
        <ele>2441</ele>
        <time>2026-07-29T10:01:32.716Z</time>
      </trkpt>
      <trkpt lat="45.71836" lon="6.7146">
        <ele>2441</ele>
        <time>2026-07-29T10:01:33.716Z</time>
      </trkpt>
      <trkpt lat="45.71835" lon="6.7146">
        <ele>2442</ele>
        <time>2026-07-29T10:01:34.716Z</time>
      </trkpt>
      <trkpt lat="45.71834" lon="6.7146">
        <ele>2442</ele>
        <time>2026-07-29T10:01:35.716Z</time>
      </trkpt>
      <trkpt lat="45.71832" lon="6.7146">
        <ele>2442</ele>
        <time>2026-07-29T10:01:36.716Z</time>
      </trkpt>
      <trkpt lat="45.71831" lon="6.71459">
        <ele>2442</ele>
        <time>2026-07-29T10:01:37.716Z</time>
      </trkpt>
      <trkpt lat="45.7183" lon="6.71459">
        <ele>2442</ele>
        <time>2026-07-29T10:01:38.716Z</time>
      </trkpt>
      <trkpt lat="45.71829" lon="6.71459">
        <ele>2442</ele>
        <time>2026-07-29T10:01:39.716Z</time>
      </trkpt>
      <trkpt lat="45.71828" lon="6.71459">
        <ele>2442</ele>
        <time>2026-07-29T10:01:40.716Z</time>
      </trkpt>
      <trkpt lat="45.71826" lon="6.71459">
        <ele>2442</ele>
        <time>2026-07-29T10:01:41.716Z</time>
      </trkpt>
      <trkpt lat="45.71825" lon="6.71458">
        <ele>2442</ele>
        <time>2026-07-29T10:01:42.716Z</time>
      </trkpt>
      <trkpt lat="45.71823" lon="6.71457">
        <ele>2442</ele>
        <time>2026-07-29T10:01:43.716Z</time>
      </trkpt>
      <trkpt lat="45.71821" lon="6.71457">
        <ele>2443</ele>
        <time>2026-07-29T10:01:44.716Z</time>
      </trkpt>
      <trkpt lat="45.7182" lon="6.71456">
        <ele>2443</ele>
        <time>2026-07-29T10:01:45.716Z</time>
      </trkpt>
      <trkpt lat="45.71818" lon="6.71454">
        <ele>2443</ele>
        <time>2026-07-29T10:01:46.716Z</time>
      </trkpt>
      <trkpt lat="45.71817" lon="6.71453">
        <ele>2443</ele>
        <time>2026-07-29T10:01:47.716Z</time>
      </trkpt>
      <trkpt lat="45.71816" lon="6.71452">
        <ele>2442</ele>
        <time>2026-07-29T10:01:48.716Z</time>
      </trkpt>
      <trkpt lat="45.71815" lon="6.71451">
        <ele>2442</ele>
        <time>2026-07-29T10:01:49.716Z</time>
      </trkpt>
      <trkpt lat="45.71814" lon="6.7145">
        <ele>2442</ele>
        <time>2026-07-29T10:01:50.716Z</time>
      </trkpt>
      <trkpt lat="45.71813" lon="6.71449">
        <ele>2442</ele>
        <time>2026-07-29T10:01:51.716Z</time>
      </trkpt>
      <trkpt lat="45.71812" lon="6.71449">
        <ele>2442</ele>
        <time>2026-07-29T10:01:52.716Z</time>
      </trkpt>
      <trkpt lat="45.71811" lon="6.71448">
        <ele>2442</ele>
        <time>2026-07-29T10:01:53.716Z</time>
      </trkpt>
      <trkpt lat="45.7181" lon="6.71448">
        <ele>2443</ele>
        <time>2026-07-29T10:01:54.716Z</time>
      </trkpt>
      <trkpt lat="45.71809" lon="6.71447">
        <ele>2443</ele>
        <time>2026-07-29T10:01:55.716Z</time>
      </trkpt>
      <trkpt lat="45.71808" lon="6.71446">
        <ele>2443</ele>
        <time>2026-07-29T10:01:56.716Z</time>
      </trkpt>
      <trkpt lat="45.71807" lon="6.71446">
        <ele>2444</ele>
        <time>2026-07-29T10:01:57.716Z</time>
      </trkpt>
      <trkpt lat="45.71806" lon="6.71445">
        <ele>2444</ele>
        <time>2026-07-29T10:01:58.716Z</time>
      </trkpt>
      <trkpt lat="45.71806" lon="6.71445">
        <ele>2444</ele>
        <time>2026-07-29T10:01:59.716Z</time>
      </trkpt>
      <trkpt lat="45.71805" lon="6.71444">
        <ele>2444</ele>
        <time>2026-07-29T10:02:00.716Z</time>
      </trkpt>
      <trkpt lat="45.71804" lon="6.71444">
        <ele>2444</ele>
        <time>2026-07-29T10:02:01.716Z</time>
      </trkpt>
      <trkpt lat="45.71803" lon="6.71443">
        <ele>2445</ele>
        <time>2026-07-29T10:02:02.716Z</time>
      </trkpt>
      <trkpt lat="45.71802" lon="6.71443">
        <ele>2445</ele>
        <time>2026-07-29T10:02:03.716Z</time>
      </trkpt>
      <trkpt lat="45.71801" lon="6.71442">
        <ele>2446</ele>
        <time>2026-07-29T10:02:04.716Z</time>
      </trkpt>
      <trkpt lat="45.718" lon="6.71441">
        <ele>2446</ele>
        <time>2026-07-29T10:02:05.716Z</time>
      </trkpt>
      <trkpt lat="45.718" lon="6.7144">
        <ele>2447</ele>
        <time>2026-07-29T10:02:06.716Z</time>
      </trkpt>
      <trkpt lat="45.718" lon="6.71439">
        <ele>2448</ele>
        <time>2026-07-29T10:02:07.716Z</time>
      </trkpt>
      <trkpt lat="45.718" lon="6.71439">
        <ele>2448</ele>
        <time>2026-07-29T10:02:08.716Z</time>
      </trkpt>
      <trkpt lat="45.71801" lon="6.71438">
        <ele>2448</ele>
        <time>2026-07-29T10:02:09.716Z</time>
      </trkpt>
      <trkpt lat="45.71802" lon="6.71438">
        <ele>2448</ele>
        <time>2026-07-29T10:02:10.716Z</time>
      </trkpt>
      <trkpt lat="45.71803" lon="6.71438">
        <ele>2448</ele>
        <time>2026-07-29T10:02:11.716Z</time>
      </trkpt>
      <trkpt lat="45.71804" lon="6.71438">
        <ele>2448</ele>
        <time>2026-07-29T10:02:12.716Z</time>
      </trkpt>
      <trkpt lat="45.71805" lon="6.71438">
        <ele>2448</ele>
        <time>2026-07-29T10:02:13.716Z</time>
      </trkpt>
      <trkpt lat="45.71806" lon="6.71438">
        <ele>2448</ele>
        <time>2026-07-29T10:02:14.716Z</time>
      </trkpt>
      <trkpt lat="45.71808" lon="6.71438">
        <ele>2449</ele>
        <time>2026-07-29T10:02:15.716Z</time>
      </trkpt>
      <trkpt lat="45.71809" lon="6.71438">
        <ele>2449</ele>
        <time>2026-07-29T10:02:16.716Z</time>
      </trkpt>
      <trkpt lat="45.7181" lon="6.71438">
        <ele>2449</ele>
        <time>2026-07-29T10:02:17.716Z</time>
      </trkpt>
      <trkpt lat="45.71811" lon="6.71438">
        <ele>2449</ele>
        <time>2026-07-29T10:02:18.716Z</time>
      </trkpt>
      <trkpt lat="45.71813" lon="6.71439">
        <ele>2449</ele>
        <time>2026-07-29T10:02:19.716Z</time>
      </trkpt>
      <trkpt lat="45.71814" lon="6.71438">
        <ele>2450</ele>
        <time>2026-07-29T10:02:20.716Z</time>
      </trkpt>
      <trkpt lat="45.71815" lon="6.71439">
        <ele>2450</ele>
        <time>2026-07-29T10:02:21.716Z</time>
      </trkpt>
      <trkpt lat="45.71816" lon="6.71439">
        <ele>2450</ele>
        <time>2026-07-29T10:02:22.716Z</time>
      </trkpt>
      <trkpt lat="45.71817" lon="6.71439">
        <ele>2450</ele>
        <time>2026-07-29T10:02:23.716Z</time>
      </trkpt>
      <trkpt lat="45.71818" lon="6.71438">
        <ele>2450</ele>
        <time>2026-07-29T10:02:24.716Z</time>
      </trkpt>
      <trkpt lat="45.7182" lon="6.71439">
        <ele>2450</ele>
        <time>2026-07-29T10:02:25.716Z</time>
      </trkpt>
      <trkpt lat="45.71821" lon="6.71439">
        <ele>2450</ele>
        <time>2026-07-29T10:02:26.716Z</time>
      </trkpt>
      <trkpt lat="45.71822" lon="6.71439">
        <ele>2450</ele>
        <time>2026-07-29T10:02:27.716Z</time>
      </trkpt>
      <trkpt lat="45.71823" lon="6.71439">
        <ele>2450</ele>
        <time>2026-07-29T10:02:28.716Z</time>
      </trkpt>
      <trkpt lat="45.71824" lon="6.71439">
        <ele>2451</ele>
        <time>2026-07-29T10:02:29.716Z</time>
      </trkpt>
      <trkpt lat="45.71824" lon="6.71439">
        <ele>2451</ele>
        <time>2026-07-29T10:02:30.716Z</time>
      </trkpt>
      <trkpt lat="45.71825" lon="6.71438">
        <ele>2452</ele>
        <time>2026-07-29T10:02:31.716Z</time>
      </trkpt>
      <trkpt lat="45.71824" lon="6.71437">
        <ele>2452</ele>
        <time>2026-07-29T10:02:32.716Z</time>
      </trkpt>
      <trkpt lat="45.71823" lon="6.71436">
        <ele>2453</ele>
        <time>2026-07-29T10:02:33.716Z</time>
      </trkpt>
      <trkpt lat="45.71823" lon="6.71435">
        <ele>2453</ele>
        <time>2026-07-29T10:02:34.716Z</time>
      </trkpt>
      <trkpt lat="45.71822" lon="6.71434">
        <ele>2454</ele>
        <time>2026-07-29T10:02:35.716Z</time>
      </trkpt>
      <trkpt lat="45.71821" lon="6.71433">
        <ele>2454</ele>
        <time>2026-07-29T10:02:36.716Z</time>
      </trkpt>
      <trkpt lat="45.71821" lon="6.71432">
        <ele>2454</ele>
        <time>2026-07-29T10:02:37.716Z</time>
      </trkpt>
      <trkpt lat="45.7182" lon="6.71431">
        <ele>2454</ele>
        <time>2026-07-29T10:02:38.716Z</time>
      </trkpt>
      <trkpt lat="45.7182" lon="6.7143">
        <ele>2454</ele>
        <time>2026-07-29T10:02:39.716Z</time>
      </trkpt>
      <trkpt lat="45.71819" lon="6.71428">
        <ele>2455</ele>
        <time>2026-07-29T10:02:40.716Z</time>
      </trkpt>
      <trkpt lat="45.71819" lon="6.71427">
        <ele>2455</ele>
        <time>2026-07-29T10:02:41.716Z</time>
      </trkpt>
      <trkpt lat="45.71818" lon="6.71425">
        <ele>2455</ele>
        <time>2026-07-29T10:02:42.716Z</time>
      </trkpt>
      <trkpt lat="45.71817" lon="6.71424">
        <ele>2455</ele>
        <time>2026-07-29T10:02:43.716Z</time>
      </trkpt>
      <trkpt lat="45.71816" lon="6.71422">
        <ele>2456</ele>
        <time>2026-07-29T10:02:44.716Z</time>
      </trkpt>
      <trkpt lat="45.71815" lon="6.71421">
        <ele>2456</ele>
        <time>2026-07-29T10:02:45.716Z</time>
      </trkpt>
      <trkpt lat="45.71815" lon="6.71419">
        <ele>2457</ele>
        <time>2026-07-29T10:02:46.716Z</time>
      </trkpt>
      <trkpt lat="45.71814" lon="6.71418">
        <ele>2457</ele>
        <time>2026-07-29T10:02:47.716Z</time>
      </trkpt>
      <trkpt lat="45.71813" lon="6.71416">
        <ele>2457</ele>
        <time>2026-07-29T10:02:48.716Z</time>
      </trkpt>
      <trkpt lat="45.71813" lon="6.71415">
        <ele>2457</ele>
        <time>2026-07-29T10:02:49.716Z</time>
      </trkpt>
      <trkpt lat="45.71812" lon="6.71414">
        <ele>2457</ele>
        <time>2026-07-29T10:02:50.716Z</time>
      </trkpt>
      <trkpt lat="45.71812" lon="6.71413">
        <ele>2457</ele>
        <time>2026-07-29T10:02:51.716Z</time>
      </trkpt>
      <trkpt lat="45.71811" lon="6.71412">
        <ele>2457</ele>
        <time>2026-07-29T10:02:52.716Z</time>
      </trkpt>
      <trkpt lat="45.7181" lon="6.71411">
        <ele>2458</ele>
        <time>2026-07-29T10:02:53.716Z</time>
      </trkpt>
      <trkpt lat="45.71809" lon="6.7141">
        <ele>2458</ele>
        <time>2026-07-29T10:02:54.716Z</time>
      </trkpt>
      <trkpt lat="45.71809" lon="6.71409">
        <ele>2458</ele>
        <time>2026-07-29T10:02:55.716Z</time>
      </trkpt>
      <trkpt lat="45.71808" lon="6.71407">
        <ele>2458</ele>
        <time>2026-07-29T10:02:56.716Z</time>
      </trkpt>
      <trkpt lat="45.71807" lon="6.71406">
        <ele>2459</ele>
        <time>2026-07-29T10:02:57.716Z</time>
      </trkpt>
      <trkpt lat="45.71806" lon="6.71404">
        <ele>2459</ele>
        <time>2026-07-29T10:02:58.716Z</time>
      </trkpt>
      <trkpt lat="45.71805" lon="6.71403">
        <ele>2459</ele>
        <time>2026-07-29T10:02:59.716Z</time>
      </trkpt>
      <trkpt lat="45.71804" lon="6.71402">
        <ele>2459</ele>
        <time>2026-07-29T10:03:00.716Z</time>
      </trkpt>
      <trkpt lat="45.71803" lon="6.71401">
        <ele>2459</ele>
        <time>2026-07-29T10:03:01.716Z</time>
      </trkpt>
      <trkpt lat="45.71802" lon="6.714">
        <ele>2459</ele>
        <time>2026-07-29T10:03:02.716Z</time>
      </trkpt>
      <trkpt lat="45.71801" lon="6.71399">
        <ele>2460</ele>
        <time>2026-07-29T10:03:03.716Z</time>
      </trkpt>
      <trkpt lat="45.718" lon="6.71398">
        <ele>2460</ele>
        <time>2026-07-29T10:03:04.716Z</time>
      </trkpt>
      <trkpt lat="45.71799" lon="6.71397">
        <ele>2460</ele>
        <time>2026-07-29T10:03:05.716Z</time>
      </trkpt>
      <trkpt lat="45.71798" lon="6.71396">
        <ele>2461</ele>
        <time>2026-07-29T10:03:06.716Z</time>
      </trkpt>
      <trkpt lat="45.71798" lon="6.71394">
        <ele>2461</ele>
        <time>2026-07-29T10:03:07.716Z</time>
      </trkpt>
      <trkpt lat="45.71797" lon="6.71392">
        <ele>2461</ele>
        <time>2026-07-29T10:03:08.716Z</time>
      </trkpt>
      <trkpt lat="45.71796" lon="6.71391">
        <ele>2461</ele>
        <time>2026-07-29T10:03:09.716Z</time>
      </trkpt>
      <trkpt lat="45.71795" lon="6.71391">
        <ele>2462</ele>
        <time>2026-07-29T10:03:10.716Z</time>
      </trkpt>
      <trkpt lat="45.71794" lon="6.7139">
        <ele>2462</ele>
        <time>2026-07-29T10:03:11.716Z</time>
      </trkpt>
      <trkpt lat="45.71793" lon="6.71388">
        <ele>2462</ele>
        <time>2026-07-29T10:03:12.716Z</time>
      </trkpt>
      <trkpt lat="45.71792" lon="6.71387">
        <ele>2463</ele>
        <time>2026-07-29T10:03:13.716Z</time>
      </trkpt>
      <trkpt lat="45.71791" lon="6.71386">
        <ele>2463</ele>
        <time>2026-07-29T10:03:14.716Z</time>
      </trkpt>
      <trkpt lat="45.7179" lon="6.71386">
        <ele>2464</ele>
        <time>2026-07-29T10:03:15.716Z</time>
      </trkpt>
      <trkpt lat="45.7179" lon="6.71385">
        <ele>2464</ele>
        <time>2026-07-29T10:03:16.716Z</time>
      </trkpt>
      <trkpt lat="45.71789" lon="6.71384">
        <ele>2465</ele>
        <time>2026-07-29T10:03:17.716Z</time>
      </trkpt>
      <trkpt lat="45.71788" lon="6.71384">
        <ele>2465</ele>
        <time>2026-07-29T10:03:18.716Z</time>
      </trkpt>
      <trkpt lat="45.71787" lon="6.71382">
        <ele>2465</ele>
        <time>2026-07-29T10:03:19.716Z</time>
      </trkpt>
      <trkpt lat="45.71786" lon="6.71381">
        <ele>2465</ele>
        <time>2026-07-29T10:03:20.716Z</time>
      </trkpt>
      <trkpt lat="45.71785" lon="6.7138">
        <ele>2465</ele>
        <time>2026-07-29T10:03:21.716Z</time>
      </trkpt>
      <trkpt lat="45.71785" lon="6.71379">
        <ele>2465</ele>
        <time>2026-07-29T10:03:22.716Z</time>
      </trkpt>
      <trkpt lat="45.71784" lon="6.71377">
        <ele>2465</ele>
        <time>2026-07-29T10:03:23.716Z</time>
      </trkpt>
      <trkpt lat="45.71783" lon="6.71376">
        <ele>2465</ele>
        <time>2026-07-29T10:03:24.716Z</time>
      </trkpt>
      <trkpt lat="45.71782" lon="6.71375">
        <ele>2465</ele>
        <time>2026-07-29T10:03:25.716Z</time>
      </trkpt>
      <trkpt lat="45.71781" lon="6.71374">
        <ele>2465</ele>
        <time>2026-07-29T10:03:26.716Z</time>
      </trkpt>
      <trkpt lat="45.7178" lon="6.71373">
        <ele>2465</ele>
        <time>2026-07-29T10:03:27.716Z</time>
      </trkpt>
      <trkpt lat="45.7178" lon="6.71372">
        <ele>2464</ele>
        <time>2026-07-29T10:03:28.716Z</time>
      </trkpt>
      <trkpt lat="45.71779" lon="6.7137">
        <ele>2464</ele>
        <time>2026-07-29T10:03:29.716Z</time>
      </trkpt>
      <trkpt lat="45.71778" lon="6.7137">
        <ele>2464</ele>
        <time>2026-07-29T10:03:30.716Z</time>
      </trkpt>
      <trkpt lat="45.71777" lon="6.71369">
        <ele>2465</ele>
        <time>2026-07-29T10:03:31.716Z</time>
      </trkpt>
      <trkpt lat="45.71777" lon="6.71368">
        <ele>2465</ele>
        <time>2026-07-29T10:03:32.716Z</time>
      </trkpt>
      <trkpt lat="45.71776" lon="6.71367">
        <ele>2465</ele>
        <time>2026-07-29T10:03:33.716Z</time>
      </trkpt>
      <trkpt lat="45.71775" lon="6.71366">
        <ele>2465</ele>
        <time>2026-07-29T10:03:34.716Z</time>
      </trkpt>
      <trkpt lat="45.71774" lon="6.71365">
        <ele>2465</ele>
        <time>2026-07-29T10:03:35.716Z</time>
      </trkpt>
      <trkpt lat="45.71773" lon="6.71365">
        <ele>2465</ele>
        <time>2026-07-29T10:03:36.716Z</time>
      </trkpt>
      <trkpt lat="45.71772" lon="6.71364">
        <ele>2466</ele>
        <time>2026-07-29T10:03:37.716Z</time>
      </trkpt>
      <trkpt lat="45.71771" lon="6.71363">
        <ele>2466</ele>
        <time>2026-07-29T10:03:38.716Z</time>
      </trkpt>
      <trkpt lat="45.71771" lon="6.71362">
        <ele>2466</ele>
        <time>2026-07-29T10:03:39.716Z</time>
      </trkpt>
      <trkpt lat="45.7177" lon="6.71361">
        <ele>2467</ele>
        <time>2026-07-29T10:03:40.716Z</time>
      </trkpt>
      <trkpt lat="45.71769" lon="6.7136">
        <ele>2467</ele>
        <time>2026-07-29T10:03:41.716Z</time>
      </trkpt>
      <trkpt lat="45.71768" lon="6.71359">
        <ele>2467</ele>
        <time>2026-07-29T10:03:42.716Z</time>
      </trkpt>
      <trkpt lat="45.71767" lon="6.71358">
        <ele>2468</ele>
        <time>2026-07-29T10:03:43.716Z</time>
      </trkpt>
      <trkpt lat="45.71766" lon="6.71357">
        <ele>2468</ele>
        <time>2026-07-29T10:03:44.716Z</time>
      </trkpt>
      <trkpt lat="45.71765" lon="6.71356">
        <ele>2468</ele>
        <time>2026-07-29T10:03:45.716Z</time>
      </trkpt>
      <trkpt lat="45.71765" lon="6.71355">
        <ele>2468</ele>
        <time>2026-07-29T10:03:46.716Z</time>
      </trkpt>
      <trkpt lat="45.71764" lon="6.71355">
        <ele>2469</ele>
        <time>2026-07-29T10:03:47.716Z</time>
      </trkpt>
      <trkpt lat="45.71763" lon="6.71354">
        <ele>2469</ele>
        <time>2026-07-29T10:03:48.716Z</time>
      </trkpt>
      <trkpt lat="45.71762" lon="6.71353">
        <ele>2469</ele>
        <time>2026-07-29T10:03:49.716Z</time>
      </trkpt>
      <trkpt lat="45.71761" lon="6.71352">
        <ele>2469</ele>
        <time>2026-07-29T10:03:50.716Z</time>
      </trkpt>
      <trkpt lat="45.71761" lon="6.71351">
        <ele>2469</ele>
        <time>2026-07-29T10:03:51.716Z</time>
      </trkpt>
      <trkpt lat="45.7176" lon="6.71351">
        <ele>2470</ele>
        <time>2026-07-29T10:03:52.716Z</time>
      </trkpt>
      <trkpt lat="45.71759" lon="6.7135">
        <ele>2470</ele>
        <time>2026-07-29T10:03:53.716Z</time>
      </trkpt>
      <trkpt lat="45.71759" lon="6.71349">
        <ele>2470</ele>
        <time>2026-07-29T10:03:54.716Z</time>
      </trkpt>
      <trkpt lat="45.71758" lon="6.71348">
        <ele>2470</ele>
        <time>2026-07-29T10:03:55.716Z</time>
      </trkpt>
      <trkpt lat="45.71757" lon="6.71347">
        <ele>2470</ele>
        <time>2026-07-29T10:03:56.716Z</time>
      </trkpt>
      <trkpt lat="45.71757" lon="6.71347">
        <ele>2470</ele>
        <time>2026-07-29T10:03:57.716Z</time>
      </trkpt>
      <trkpt lat="45.71756" lon="6.71346">
        <ele>2471</ele>
        <time>2026-07-29T10:03:58.716Z</time>
      </trkpt>
      <trkpt lat="45.71755" lon="6.71346">
        <ele>2471</ele>
        <time>2026-07-29T10:03:59.716Z</time>
      </trkpt>
      <trkpt lat="45.71754" lon="6.71346">
        <ele>2471</ele>
        <time>2026-07-29T10:04:00.716Z</time>
      </trkpt>
      <trkpt lat="45.71753" lon="6.71346">
        <ele>2471</ele>
        <time>2026-07-29T10:04:01.716Z</time>
      </trkpt>
      <trkpt lat="45.71752" lon="6.71346">
        <ele>2472</ele>
        <time>2026-07-29T10:04:02.716Z</time>
      </trkpt>
      <trkpt lat="45.71751" lon="6.71347">
        <ele>2472</ele>
        <time>2026-07-29T10:04:03.716Z</time>
      </trkpt>
      <trkpt lat="45.7175" lon="6.71347">
        <ele>2472</ele>
        <time>2026-07-29T10:04:04.716Z</time>
      </trkpt>
      <trkpt lat="45.71749" lon="6.71348">
        <ele>2472</ele>
        <time>2026-07-29T10:04:05.716Z</time>
      </trkpt>
      <trkpt lat="45.71749" lon="6.71348">
        <ele>2473</ele>
        <time>2026-07-29T10:04:06.716Z</time>
      </trkpt>
      <trkpt lat="45.71748" lon="6.71349">
        <ele>2473</ele>
        <time>2026-07-29T10:04:07.716Z</time>
      </trkpt>
      <trkpt lat="45.71747" lon="6.7135">
        <ele>2474</ele>
        <time>2026-07-29T10:04:08.716Z</time>
      </trkpt>
      <trkpt lat="45.71747" lon="6.7135">
        <ele>2474</ele>
        <time>2026-07-29T10:04:09.716Z</time>
      </trkpt>
      <trkpt lat="45.71746" lon="6.71351">
        <ele>2474</ele>
        <time>2026-07-29T10:04:10.716Z</time>
      </trkpt>
      <trkpt lat="45.71746" lon="6.71351">
        <ele>2474</ele>
        <time>2026-07-29T10:04:11.716Z</time>
      </trkpt>
      <trkpt lat="45.71745" lon="6.71351">
        <ele>2474</ele>
        <time>2026-07-29T10:04:12.716Z</time>
      </trkpt>
      <trkpt lat="45.71744" lon="6.7135">
        <ele>2474</ele>
        <time>2026-07-29T10:04:13.716Z</time>
      </trkpt>
      <trkpt lat="45.71743" lon="6.71349">
        <ele>2475</ele>
        <time>2026-07-29T10:04:14.716Z</time>
      </trkpt>
      <trkpt lat="45.71741" lon="6.71348">
        <ele>2475</ele>
        <time>2026-07-29T10:04:15.716Z</time>
      </trkpt>
      <trkpt lat="45.7174" lon="6.71347">
        <ele>2475</ele>
        <time>2026-07-29T10:04:16.716Z</time>
      </trkpt>
      <trkpt lat="45.71739" lon="6.71346">
        <ele>2475</ele>
        <time>2026-07-29T10:04:17.716Z</time>
      </trkpt>
      <trkpt lat="45.71737" lon="6.71345">
        <ele>2475</ele>
        <time>2026-07-29T10:04:18.716Z</time>
      </trkpt>
      <trkpt lat="45.71736" lon="6.71345">
        <ele>2475</ele>
        <time>2026-07-29T10:04:19.716Z</time>
      </trkpt>
      <trkpt lat="45.71735" lon="6.71344">
        <ele>2475</ele>
        <time>2026-07-29T10:04:20.716Z</time>
      </trkpt>
      <trkpt lat="45.71734" lon="6.71343">
        <ele>2476</ele>
        <time>2026-07-29T10:04:21.717Z</time>
      </trkpt>
      <trkpt lat="45.71733" lon="6.71341">
        <ele>2476</ele>
        <time>2026-07-29T10:04:22.716Z</time>
      </trkpt>
      <trkpt lat="45.71732" lon="6.7134">
        <ele>2476</ele>
        <time>2026-07-29T10:04:23.716Z</time>
      </trkpt>
      <trkpt lat="45.71731" lon="6.71339">
        <ele>2476</ele>
        <time>2026-07-29T10:04:24.716Z</time>
      </trkpt>
      <trkpt lat="45.7173" lon="6.71338">
        <ele>2477</ele>
        <time>2026-07-29T10:04:25.716Z</time>
      </trkpt>
      <trkpt lat="45.71729" lon="6.71336">
        <ele>2477</ele>
        <time>2026-07-29T10:04:26.716Z</time>
      </trkpt>
      <trkpt lat="45.71728" lon="6.71335">
        <ele>2477</ele>
        <time>2026-07-29T10:04:27.716Z</time>
      </trkpt>
      <trkpt lat="45.71727" lon="6.71334">
        <ele>2477</ele>
        <time>2026-07-29T10:04:28.716Z</time>
      </trkpt>
      <trkpt lat="45.71726" lon="6.71332">
        <ele>2477</ele>
        <time>2026-07-29T10:04:29.716Z</time>
      </trkpt>
      <trkpt lat="45.71725" lon="6.7133">
        <ele>2477</ele>
        <time>2026-07-29T10:04:30.716Z</time>
      </trkpt>
      <trkpt lat="45.71724" lon="6.71329">
        <ele>2477</ele>
        <time>2026-07-29T10:04:31.716Z</time>
      </trkpt>
      <trkpt lat="45.71723" lon="6.71328">
        <ele>2477</ele>
        <time>2026-07-29T10:04:32.716Z</time>
      </trkpt>
      <trkpt lat="45.71722" lon="6.71327">
        <ele>2477</ele>
        <time>2026-07-29T10:04:33.716Z</time>
      </trkpt>
      <trkpt lat="45.71721" lon="6.71326">
        <ele>2477</ele>
        <time>2026-07-29T10:04:34.716Z</time>
      </trkpt>
      <trkpt lat="45.71721" lon="6.71325">
        <ele>2477</ele>
        <time>2026-07-29T10:04:35.716Z</time>
      </trkpt>
      <trkpt lat="45.7172" lon="6.71323">
        <ele>2478</ele>
        <time>2026-07-29T10:04:36.716Z</time>
      </trkpt>
      <trkpt lat="45.71719" lon="6.71322">
        <ele>2478</ele>
        <time>2026-07-29T10:04:37.716Z</time>
      </trkpt>
      <trkpt lat="45.71719" lon="6.71321">
        <ele>2478</ele>
        <time>2026-07-29T10:04:38.716Z</time>
      </trkpt>
      <trkpt lat="45.71718" lon="6.7132">
        <ele>2479</ele>
        <time>2026-07-29T10:04:39.716Z</time>
      </trkpt>
      <trkpt lat="45.71717" lon="6.71318">
        <ele>2479</ele>
        <time>2026-07-29T10:04:40.716Z</time>
      </trkpt>
      <trkpt lat="45.71717" lon="6.71317">
        <ele>2479</ele>
        <time>2026-07-29T10:04:41.716Z</time>
      </trkpt>
      <trkpt lat="45.71716" lon="6.71316">
        <ele>2480</ele>
        <time>2026-07-29T10:04:42.716Z</time>
      </trkpt>
      <trkpt lat="45.71716" lon="6.71314">
        <ele>2480</ele>
        <time>2026-07-29T10:04:43.716Z</time>
      </trkpt>
      <trkpt lat="45.71715" lon="6.71312">
        <ele>2481</ele>
        <time>2026-07-29T10:04:44.716Z</time>
      </trkpt>
      <trkpt lat="45.71715" lon="6.71311">
        <ele>2481</ele>
        <time>2026-07-29T10:04:45.716Z</time>
      </trkpt>
      <trkpt lat="45.71714" lon="6.7131">
        <ele>2481</ele>
        <time>2026-07-29T10:04:46.716Z</time>
      </trkpt>
      <trkpt lat="45.71713" lon="6.71308">
        <ele>2481</ele>
        <time>2026-07-29T10:04:47.716Z</time>
      </trkpt>
      <trkpt lat="45.71713" lon="6.71307">
        <ele>2481</ele>
        <time>2026-07-29T10:04:48.716Z</time>
      </trkpt>
      <trkpt lat="45.71712" lon="6.71306">
        <ele>2481</ele>
        <time>2026-07-29T10:04:49.716Z</time>
      </trkpt>
      <trkpt lat="45.71712" lon="6.71304">
        <ele>2481</ele>
        <time>2026-07-29T10:04:50.716Z</time>
      </trkpt>
      <trkpt lat="45.71711" lon="6.71303">
        <ele>2482</ele>
        <time>2026-07-29T10:04:51.716Z</time>
      </trkpt>
      <trkpt lat="45.71711" lon="6.71302">
        <ele>2482</ele>
        <time>2026-07-29T10:04:52.716Z</time>
      </trkpt>
      <trkpt lat="45.7171" lon="6.71301">
        <ele>2482</ele>
        <time>2026-07-29T10:04:53.716Z</time>
      </trkpt>
      <trkpt lat="45.71709" lon="6.71299">
        <ele>2482</ele>
        <time>2026-07-29T10:04:54.716Z</time>
      </trkpt>
      <trkpt lat="45.71708" lon="6.71298">
        <ele>2482</ele>
        <time>2026-07-29T10:04:55.716Z</time>
      </trkpt>
      <trkpt lat="45.71707" lon="6.71296">
        <ele>2482</ele>
        <time>2026-07-29T10:04:56.716Z</time>
      </trkpt>
      <trkpt lat="45.71706" lon="6.71295">
        <ele>2483</ele>
        <time>2026-07-29T10:04:57.716Z</time>
      </trkpt>
      <trkpt lat="45.71705" lon="6.71293">
        <ele>2483</ele>
        <time>2026-07-29T10:04:58.716Z</time>
      </trkpt>
      <trkpt lat="45.71704" lon="6.71291">
        <ele>2483</ele>
        <time>2026-07-29T10:04:59.716Z</time>
      </trkpt>
      <trkpt lat="45.71703" lon="6.7129">
        <ele>2483</ele>
        <time>2026-07-29T10:05:00.716Z</time>
      </trkpt>
      <trkpt lat="45.71702" lon="6.71288">
        <ele>2483</ele>
        <time>2026-07-29T10:05:01.716Z</time>
      </trkpt>
      <trkpt lat="45.71701" lon="6.71286">
        <ele>2483</ele>
        <time>2026-07-29T10:05:02.716Z</time>
      </trkpt>
      <trkpt lat="45.717" lon="6.71284">
        <ele>2483</ele>
        <time>2026-07-29T10:05:03.716Z</time>
      </trkpt>
      <trkpt lat="45.71699" lon="6.71282">
        <ele>2483</ele>
        <time>2026-07-29T10:05:04.716Z</time>
      </trkpt>
      <trkpt lat="45.71698" lon="6.71279">
        <ele>2483</ele>
        <time>2026-07-29T10:05:05.716Z</time>
      </trkpt>
      <trkpt lat="45.71697" lon="6.71277">
        <ele>2483</ele>
        <time>2026-07-29T10:05:06.716Z</time>
      </trkpt>
      <trkpt lat="45.71696" lon="6.71274">
        <ele>2483</ele>
        <time>2026-07-29T10:05:07.716Z</time>
      </trkpt>
      <trkpt lat="45.71695" lon="6.71272">
        <ele>2483</ele>
        <time>2026-07-29T10:05:08.716Z</time>
      </trkpt>
      <trkpt lat="45.71694" lon="6.71269">
        <ele>2483</ele>
        <time>2026-07-29T10:05:09.716Z</time>
      </trkpt>
      <trkpt lat="45.71693" lon="6.71267">
        <ele>2484</ele>
        <time>2026-07-29T10:05:10.716Z</time>
      </trkpt>
      <trkpt lat="45.71692" lon="6.71264">
        <ele>2484</ele>
        <time>2026-07-29T10:05:11.716Z</time>
      </trkpt>
      <trkpt lat="45.71691" lon="6.71262">
        <ele>2484</ele>
        <time>2026-07-29T10:05:12.716Z</time>
      </trkpt>
      <trkpt lat="45.71689" lon="6.71259">
        <ele>2484</ele>
        <time>2026-07-29T10:05:13.716Z</time>
      </trkpt>
      <trkpt lat="45.71688" lon="6.71257">
        <ele>2484</ele>
        <time>2026-07-29T10:05:14.716Z</time>
      </trkpt>
      <trkpt lat="45.71687" lon="6.71254">
        <ele>2484</ele>
        <time>2026-07-29T10:05:15.716Z</time>
      </trkpt>
      <trkpt lat="45.71686" lon="6.71252">
        <ele>2484</ele>
        <time>2026-07-29T10:05:16.716Z</time>
      </trkpt>
      <trkpt lat="45.71685" lon="6.71249">
        <ele>2484</ele>
        <time>2026-07-29T10:05:17.716Z</time>
      </trkpt>
      <trkpt lat="45.71684" lon="6.71246">
        <ele>2484</ele>
        <time>2026-07-29T10:05:18.716Z</time>
      </trkpt>
      <trkpt lat="45.71683" lon="6.71243">
        <ele>2484</ele>
        <time>2026-07-29T10:05:19.716Z</time>
      </trkpt>
      <trkpt lat="45.71683" lon="6.7124">
        <ele>2484</ele>
        <time>2026-07-29T10:05:20.716Z</time>
      </trkpt>
      <trkpt lat="45.71682" lon="6.71237">
        <ele>2484</ele>
        <time>2026-07-29T10:05:21.716Z</time>
      </trkpt>
      <trkpt lat="45.71681" lon="6.71235">
        <ele>2484</ele>
        <time>2026-07-29T10:05:22.716Z</time>
      </trkpt>
      <trkpt lat="45.71681" lon="6.71233">
        <ele>2484</ele>
        <time>2026-07-29T10:05:23.716Z</time>
      </trkpt>
      <trkpt lat="45.7168" lon="6.7123">
        <ele>2484</ele>
        <time>2026-07-29T10:05:24.716Z</time>
      </trkpt>
      <trkpt lat="45.71679" lon="6.71228">
        <ele>2484</ele>
        <time>2026-07-29T10:05:25.716Z</time>
      </trkpt>
      <trkpt lat="45.71678" lon="6.71226">
        <ele>2485</ele>
        <time>2026-07-29T10:05:26.716Z</time>
      </trkpt>
      <trkpt lat="45.71678" lon="6.71224">
        <ele>2485</ele>
        <time>2026-07-29T10:05:27.716Z</time>
      </trkpt>
      <trkpt lat="45.71677" lon="6.71221">
        <ele>2485</ele>
        <time>2026-07-29T10:05:28.716Z</time>
      </trkpt>
      <trkpt lat="45.71677" lon="6.71218">
        <ele>2486</ele>
        <time>2026-07-29T10:05:29.716Z</time>
      </trkpt>
      <trkpt lat="45.71677" lon="6.71216">
        <ele>2486</ele>
        <time>2026-07-29T10:05:30.716Z</time>
      </trkpt>
      <trkpt lat="45.71676" lon="6.71214">
        <ele>2486</ele>
        <time>2026-07-29T10:05:31.716Z</time>
      </trkpt>
      <trkpt lat="45.71675" lon="6.71211">
        <ele>2487</ele>
        <time>2026-07-29T10:05:32.716Z</time>
      </trkpt>
      <trkpt lat="45.71674" lon="6.71209">
        <ele>2487</ele>
        <time>2026-07-29T10:05:33.716Z</time>
      </trkpt>
      <trkpt lat="45.71674" lon="6.71207">
        <ele>2487</ele>
        <time>2026-07-29T10:05:34.716Z</time>
      </trkpt>
      <trkpt lat="45.71673" lon="6.71205">
        <ele>2488</ele>
        <time>2026-07-29T10:05:35.716Z</time>
      </trkpt>
      <trkpt lat="45.71672" lon="6.71202">
        <ele>2488</ele>
        <time>2026-07-29T10:05:36.716Z</time>
      </trkpt>
      <trkpt lat="45.71671" lon="6.712">
        <ele>2488</ele>
        <time>2026-07-29T10:05:37.716Z</time>
      </trkpt>
      <trkpt lat="45.71669" lon="6.71198">
        <ele>2488</ele>
        <time>2026-07-29T10:05:38.716Z</time>
      </trkpt>
      <trkpt lat="45.71668" lon="6.71195">
        <ele>2488</ele>
        <time>2026-07-29T10:05:39.716Z</time>
      </trkpt>
      <trkpt lat="45.71667" lon="6.71193">
        <ele>2488</ele>
        <time>2026-07-29T10:05:40.716Z</time>
      </trkpt>
      <trkpt lat="45.71665" lon="6.71191">
        <ele>2488</ele>
        <time>2026-07-29T10:05:41.716Z</time>
      </trkpt>
      <trkpt lat="45.71664" lon="6.7119">
        <ele>2488</ele>
        <time>2026-07-29T10:05:42.716Z</time>
      </trkpt>
      <trkpt lat="45.71662" lon="6.71187">
        <ele>2488</ele>
        <time>2026-07-29T10:05:43.716Z</time>
      </trkpt>
      <trkpt lat="45.71661" lon="6.71186">
        <ele>2488</ele>
        <time>2026-07-29T10:05:44.716Z</time>
      </trkpt>
      <trkpt lat="45.71659" lon="6.71184">
        <ele>2488</ele>
        <time>2026-07-29T10:05:45.716Z</time>
      </trkpt>
      <trkpt lat="45.71657" lon="6.71183">
        <ele>2488</ele>
        <time>2026-07-29T10:05:46.716Z</time>
      </trkpt>
      <trkpt lat="45.71655" lon="6.71182">
        <ele>2488</ele>
        <time>2026-07-29T10:05:47.716Z</time>
      </trkpt>
      <trkpt lat="45.71654" lon="6.71181">
        <ele>2488</ele>
        <time>2026-07-29T10:05:48.716Z</time>
      </trkpt>
      <trkpt lat="45.71651" lon="6.7118">
        <ele>2488</ele>
        <time>2026-07-29T10:05:49.716Z</time>
      </trkpt>
      <trkpt lat="45.7165" lon="6.71179">
        <ele>2488</ele>
        <time>2026-07-29T10:05:50.716Z</time>
      </trkpt>
      <trkpt lat="45.71647" lon="6.71178">
        <ele>2488</ele>
        <time>2026-07-29T10:05:51.716Z</time>
      </trkpt>
      <trkpt lat="45.71645" lon="6.71178">
        <ele>2488</ele>
        <time>2026-07-29T10:05:52.716Z</time>
      </trkpt>
      <trkpt lat="45.71643" lon="6.71178">
        <ele>2488</ele>
        <time>2026-07-29T10:05:53.716Z</time>
      </trkpt>
      <trkpt lat="45.71641" lon="6.71177">
        <ele>2488</ele>
        <time>2026-07-29T10:05:54.716Z</time>
      </trkpt>
      <trkpt lat="45.71639" lon="6.71176">
        <ele>2488</ele>
        <time>2026-07-29T10:05:55.716Z</time>
      </trkpt>
      <trkpt lat="45.71636" lon="6.71174">
        <ele>2488</ele>
        <time>2026-07-29T10:05:56.716Z</time>
      </trkpt>
      <trkpt lat="45.71635" lon="6.71173">
        <ele>2488</ele>
        <time>2026-07-29T10:05:57.716Z</time>
      </trkpt>
      <trkpt lat="45.71632" lon="6.71172">
        <ele>2488</ele>
        <time>2026-07-29T10:05:58.716Z</time>
      </trkpt>
      <trkpt lat="45.7163" lon="6.7117">
        <ele>2488</ele>
        <time>2026-07-29T10:05:59.716Z</time>
      </trkpt>
      <trkpt lat="45.71628" lon="6.71169">
        <ele>2488</ele>
        <time>2026-07-29T10:06:00.716Z</time>
      </trkpt>
      <trkpt lat="45.71627" lon="6.71168">
        <ele>2488</ele>
        <time>2026-07-29T10:06:01.716Z</time>
      </trkpt>
      <trkpt lat="45.71625" lon="6.71167">
        <ele>2488</ele>
        <time>2026-07-29T10:06:02.716Z</time>
      </trkpt>
      <trkpt lat="45.71623" lon="6.71166">
        <ele>2488</ele>
        <time>2026-07-29T10:06:03.716Z</time>
      </trkpt>
      <trkpt lat="45.71622" lon="6.71165">
        <ele>2488</ele>
        <time>2026-07-29T10:06:04.716Z</time>
      </trkpt>
      <trkpt lat="45.7162" lon="6.71164">
        <ele>2488</ele>
        <time>2026-07-29T10:06:05.716Z</time>
      </trkpt>
      <trkpt lat="45.71618" lon="6.71162">
        <ele>2489</ele>
        <time>2026-07-29T10:06:06.716Z</time>
      </trkpt>
      <trkpt lat="45.71617" lon="6.71161">
        <ele>2489</ele>
        <time>2026-07-29T10:06:07.716Z</time>
      </trkpt>
      <trkpt lat="45.71615" lon="6.7116">
        <ele>2489</ele>
        <time>2026-07-29T10:06:08.716Z</time>
      </trkpt>
      <trkpt lat="45.71614" lon="6.71159">
        <ele>2489</ele>
        <time>2026-07-29T10:06:09.716Z</time>
      </trkpt>
      <trkpt lat="45.71612" lon="6.71157">
        <ele>2489</ele>
        <time>2026-07-29T10:06:10.716Z</time>
      </trkpt>
      <trkpt lat="45.7161" lon="6.71155">
        <ele>2490</ele>
        <time>2026-07-29T10:06:11.716Z</time>
      </trkpt>
      <trkpt lat="45.71609" lon="6.71154">
        <ele>2489</ele>
        <time>2026-07-29T10:06:12.716Z</time>
      </trkpt>
      <trkpt lat="45.71608" lon="6.71152">
        <ele>2489</ele>
        <time>2026-07-29T10:06:13.716Z</time>
      </trkpt>
      <trkpt lat="45.71606" lon="6.7115">
        <ele>2489</ele>
        <time>2026-07-29T10:06:14.716Z</time>
      </trkpt>
      <trkpt lat="45.71604" lon="6.71148">
        <ele>2490</ele>
        <time>2026-07-29T10:06:15.716Z</time>
      </trkpt>
      <trkpt lat="45.71603" lon="6.71146">
        <ele>2490</ele>
        <time>2026-07-29T10:06:16.716Z</time>
      </trkpt>
      <trkpt lat="45.71602" lon="6.71144">
        <ele>2490</ele>
        <time>2026-07-29T10:06:17.716Z</time>
      </trkpt>
      <trkpt lat="45.716" lon="6.71142">
        <ele>2490</ele>
        <time>2026-07-29T10:06:18.716Z</time>
      </trkpt>
      <trkpt lat="45.71599" lon="6.7114">
        <ele>2490</ele>
        <time>2026-07-29T10:06:19.716Z</time>
      </trkpt>
      <trkpt lat="45.71597" lon="6.71139">
        <ele>2490</ele>
        <time>2026-07-29T10:06:20.716Z</time>
      </trkpt>
      <trkpt lat="45.71596" lon="6.71137">
        <ele>2489</ele>
        <time>2026-07-29T10:06:21.716Z</time>
      </trkpt>
      <trkpt lat="45.71594" lon="6.71136">
        <ele>2490</ele>
        <time>2026-07-29T10:06:22.716Z</time>
      </trkpt>
      <trkpt lat="45.71593" lon="6.71134">
        <ele>2490</ele>
        <time>2026-07-29T10:06:23.716Z</time>
      </trkpt>
      <trkpt lat="45.71591" lon="6.71132">
        <ele>2490</ele>
        <time>2026-07-29T10:06:24.716Z</time>
      </trkpt>
      <trkpt lat="45.7159" lon="6.7113">
        <ele>2490</ele>
        <time>2026-07-29T10:06:25.716Z</time>
      </trkpt>
      <trkpt lat="45.71588" lon="6.71129">
        <ele>2490</ele>
        <time>2026-07-29T10:06:26.716Z</time>
      </trkpt>
      <trkpt lat="45.71588" lon="6.71128">
        <ele>2491</ele>
        <time>2026-07-29T10:06:27.716Z</time>
      </trkpt>
      <trkpt lat="45.71587" lon="6.71128">
        <ele>2491</ele>
        <time>2026-07-29T10:06:28.716Z</time>
      </trkpt>
      <trkpt lat="45.71586" lon="6.71127">
        <ele>2491</ele>
        <time>2026-07-29T10:06:29.716Z</time>
      </trkpt>
      <trkpt lat="45.71585" lon="6.71126">
        <ele>2491</ele>
        <time>2026-07-29T10:06:30.716Z</time>
      </trkpt>
      <trkpt lat="45.71583" lon="6.71125">
        <ele>2492</ele>
        <time>2026-07-29T10:06:31.716Z</time>
      </trkpt>
      <trkpt lat="45.71582" lon="6.71124">
        <ele>2492</ele>
        <time>2026-07-29T10:06:32.716Z</time>
      </trkpt>
      <trkpt lat="45.71581" lon="6.71123">
        <ele>2492</ele>
        <time>2026-07-29T10:06:33.716Z</time>
      </trkpt>
      <trkpt lat="45.7158" lon="6.71123">
        <ele>2492</ele>
        <time>2026-07-29T10:06:34.716Z</time>
      </trkpt>
      <trkpt lat="45.71579" lon="6.71122">
        <ele>2491</ele>
        <time>2026-07-29T10:06:35.716Z</time>
      </trkpt>
      <trkpt lat="45.71578" lon="6.71121">
        <ele>2491</ele>
        <time>2026-07-29T10:06:36.716Z</time>
      </trkpt>
      <trkpt lat="45.71577" lon="6.7112">
        <ele>2491</ele>
        <time>2026-07-29T10:06:37.716Z</time>
      </trkpt>
      <trkpt lat="45.71576" lon="6.71119">
        <ele>2491</ele>
        <time>2026-07-29T10:06:38.716Z</time>
      </trkpt>
      <trkpt lat="45.71575" lon="6.71118">
        <ele>2491</ele>
        <time>2026-07-29T10:06:39.716Z</time>
      </trkpt>
      <trkpt lat="45.71574" lon="6.71117">
        <ele>2491</ele>
        <time>2026-07-29T10:06:40.716Z</time>
      </trkpt>
      <trkpt lat="45.71573" lon="6.71116">
        <ele>2491</ele>
        <time>2026-07-29T10:06:41.716Z</time>
      </trkpt>
      <trkpt lat="45.71572" lon="6.71115">
        <ele>2491</ele>
        <time>2026-07-29T10:06:42.716Z</time>
      </trkpt>
      <trkpt lat="45.7157" lon="6.71114">
        <ele>2491</ele>
        <time>2026-07-29T10:06:43.716Z</time>
      </trkpt>
      <trkpt lat="45.71569" lon="6.71114">
        <ele>2491</ele>
        <time>2026-07-29T10:06:44.716Z</time>
      </trkpt>
      <trkpt lat="45.71568" lon="6.71113">
        <ele>2491</ele>
        <time>2026-07-29T10:06:45.716Z</time>
      </trkpt>
      <trkpt lat="45.71567" lon="6.71113">
        <ele>2491</ele>
        <time>2026-07-29T10:06:46.716Z</time>
      </trkpt>
      <trkpt lat="45.71566" lon="6.71112">
        <ele>2491</ele>
        <time>2026-07-29T10:06:47.716Z</time>
      </trkpt>
      <trkpt lat="45.71565" lon="6.71112">
        <ele>2491</ele>
        <time>2026-07-29T10:06:48.716Z</time>
      </trkpt>
      <trkpt lat="45.71564" lon="6.71112">
        <ele>2492</ele>
        <time>2026-07-29T10:06:49.716Z</time>
      </trkpt>
      <trkpt lat="45.71563" lon="6.71111">
        <ele>2492</ele>
        <time>2026-07-29T10:06:50.716Z</time>
      </trkpt>
      <trkpt lat="45.71562" lon="6.71111">
        <ele>2492</ele>
        <time>2026-07-29T10:06:51.716Z</time>
      </trkpt>
      <trkpt lat="45.71561" lon="6.71111">
        <ele>2493</ele>
        <time>2026-07-29T10:06:52.716Z</time>
      </trkpt>
      <trkpt lat="45.71559" lon="6.7111">
        <ele>2493</ele>
        <time>2026-07-29T10:06:53.716Z</time>
      </trkpt>
      <trkpt lat="45.71558" lon="6.7111">
        <ele>2493</ele>
        <time>2026-07-29T10:06:54.716Z</time>
      </trkpt>
      <trkpt lat="45.71557" lon="6.71109">
        <ele>2493</ele>
        <time>2026-07-29T10:06:55.716Z</time>
      </trkpt>
      <trkpt lat="45.71555" lon="6.71108">
        <ele>2494</ele>
        <time>2026-07-29T10:06:56.716Z</time>
      </trkpt>
      <trkpt lat="45.71554" lon="6.71108">
        <ele>2494</ele>
        <time>2026-07-29T10:06:57.716Z</time>
      </trkpt>
      <trkpt lat="45.71553" lon="6.71108">
        <ele>2494</ele>
        <time>2026-07-29T10:06:58.716Z</time>
      </trkpt>
      <trkpt lat="45.71552" lon="6.71107">
        <ele>2494</ele>
        <time>2026-07-29T10:06:59.716Z</time>
      </trkpt>
      <trkpt lat="45.71551" lon="6.71106">
        <ele>2495</ele>
        <time>2026-07-29T10:07:00.716Z</time>
      </trkpt>
      <trkpt lat="45.7155" lon="6.71105">
        <ele>2495</ele>
        <time>2026-07-29T10:07:01.716Z</time>
      </trkpt>
      <trkpt lat="45.7155" lon="6.71104">
        <ele>2495</ele>
        <time>2026-07-29T10:07:02.716Z</time>
      </trkpt>
      <trkpt lat="45.71549" lon="6.71104">
        <ele>2495</ele>
        <time>2026-07-29T10:07:03.716Z</time>
      </trkpt>
      <trkpt lat="45.71548" lon="6.71103">
        <ele>2495</ele>
        <time>2026-07-29T10:07:04.716Z</time>
      </trkpt>
      <trkpt lat="45.71547" lon="6.71102">
        <ele>2496</ele>
        <time>2026-07-29T10:07:05.716Z</time>
      </trkpt>
      <trkpt lat="45.71546" lon="6.71101">
        <ele>2496</ele>
        <time>2026-07-29T10:07:06.716Z</time>
      </trkpt>
      <trkpt lat="45.71545" lon="6.711">
        <ele>2496</ele>
        <time>2026-07-29T10:07:07.716Z</time>
      </trkpt>
      <trkpt lat="45.71543" lon="6.71099">
        <ele>2497</ele>
        <time>2026-07-29T10:07:08.716Z</time>
      </trkpt>
      <trkpt lat="45.71543" lon="6.71099">
        <ele>2497</ele>
        <time>2026-07-29T10:07:09.716Z</time>
      </trkpt>
      <trkpt lat="45.71541" lon="6.71097">
        <ele>2497</ele>
        <time>2026-07-29T10:07:10.716Z</time>
      </trkpt>
      <trkpt lat="45.7154" lon="6.71097">
        <ele>2497</ele>
        <time>2026-07-29T10:07:11.716Z</time>
      </trkpt>
      <trkpt lat="45.71539" lon="6.71096">
        <ele>2498</ele>
        <time>2026-07-29T10:07:12.716Z</time>
      </trkpt>
      <trkpt lat="45.71538" lon="6.71095">
        <ele>2498</ele>
        <time>2026-07-29T10:07:13.716Z</time>
      </trkpt>
      <trkpt lat="45.71537" lon="6.71094">
        <ele>2498</ele>
        <time>2026-07-29T10:07:14.716Z</time>
      </trkpt>
      <trkpt lat="45.71536" lon="6.71093">
        <ele>2498</ele>
        <time>2026-07-29T10:07:15.716Z</time>
      </trkpt>
      <trkpt lat="45.71534" lon="6.71092">
        <ele>2498</ele>
        <time>2026-07-29T10:07:16.716Z</time>
      </trkpt>
      <trkpt lat="45.71533" lon="6.71091">
        <ele>2498</ele>
        <time>2026-07-29T10:07:17.716Z</time>
      </trkpt>
      <trkpt lat="45.71532" lon="6.7109">
        <ele>2499</ele>
        <time>2026-07-29T10:07:18.716Z</time>
      </trkpt>
      <trkpt lat="45.71531" lon="6.71089">
        <ele>2499</ele>
        <time>2026-07-29T10:07:19.716Z</time>
      </trkpt>
      <trkpt lat="45.7153" lon="6.71088">
        <ele>2499</ele>
        <time>2026-07-29T10:07:20.716Z</time>
      </trkpt>
      <trkpt lat="45.71529" lon="6.71087">
        <ele>2500</ele>
        <time>2026-07-29T10:07:21.716Z</time>
      </trkpt>
      <trkpt lat="45.71528" lon="6.71085">
        <ele>2500</ele>
        <time>2026-07-29T10:07:22.716Z</time>
      </trkpt>
      <trkpt lat="45.71526" lon="6.71084">
        <ele>2501</ele>
        <time>2026-07-29T10:07:23.716Z</time>
      </trkpt>
      <trkpt lat="45.71525" lon="6.71083">
        <ele>2501</ele>
        <time>2026-07-29T10:07:24.716Z</time>
      </trkpt>
      <trkpt lat="45.71524" lon="6.71083">
        <ele>2502</ele>
        <time>2026-07-29T10:07:25.716Z</time>
      </trkpt>
      <trkpt lat="45.71522" lon="6.71082">
        <ele>2502</ele>
        <time>2026-07-29T10:07:26.716Z</time>
      </trkpt>
      <trkpt lat="45.71522" lon="6.71082">
        <ele>2502</ele>
        <time>2026-07-29T10:07:27.716Z</time>
      </trkpt>
      <trkpt lat="45.71521" lon="6.71082">
        <ele>2503</ele>
        <time>2026-07-29T10:07:28.716Z</time>
      </trkpt>
      <trkpt lat="45.7152" lon="6.71082">
        <ele>2503</ele>
        <time>2026-07-29T10:07:29.716Z</time>
      </trkpt>
      <trkpt lat="45.71519" lon="6.71083">
        <ele>2503</ele>
        <time>2026-07-29T10:07:30.716Z</time>
      </trkpt>
      <trkpt lat="45.71518" lon="6.71083">
        <ele>2503</ele>
        <time>2026-07-29T10:07:31.716Z</time>
      </trkpt>
      <trkpt lat="45.71517" lon="6.71083">
        <ele>2503</ele>
        <time>2026-07-29T10:07:32.716Z</time>
      </trkpt>
      <trkpt lat="45.71516" lon="6.71083">
        <ele>2503</ele>
        <time>2026-07-29T10:07:33.716Z</time>
      </trkpt>
      <trkpt lat="45.71514" lon="6.71082">
        <ele>2503</ele>
        <time>2026-07-29T10:07:34.716Z</time>
      </trkpt>
      <trkpt lat="45.71513" lon="6.71081">
        <ele>2503</ele>
        <time>2026-07-29T10:07:35.716Z</time>
      </trkpt>
      <trkpt lat="45.71512" lon="6.71081">
        <ele>2503</ele>
        <time>2026-07-29T10:07:36.716Z</time>
      </trkpt>
      <trkpt lat="45.71511" lon="6.7108">
        <ele>2503</ele>
        <time>2026-07-29T10:07:37.716Z</time>
      </trkpt>
      <trkpt lat="45.7151" lon="6.7108">
        <ele>2504</ele>
        <time>2026-07-29T10:07:38.716Z</time>
      </trkpt>
      <trkpt lat="45.71508" lon="6.71079">
        <ele>2504</ele>
        <time>2026-07-29T10:07:39.716Z</time>
      </trkpt>
      <trkpt lat="45.71507" lon="6.71079">
        <ele>2504</ele>
        <time>2026-07-29T10:07:40.716Z</time>
      </trkpt>
      <trkpt lat="45.71506" lon="6.71078">
        <ele>2504</ele>
        <time>2026-07-29T10:07:41.716Z</time>
      </trkpt>
      <trkpt lat="45.71505" lon="6.71078">
        <ele>2504</ele>
        <time>2026-07-29T10:07:42.716Z</time>
      </trkpt>
      <trkpt lat="45.71504" lon="6.71077">
        <ele>2504</ele>
        <time>2026-07-29T10:07:43.716Z</time>
      </trkpt>
      <trkpt lat="45.71503" lon="6.71076">
        <ele>2504</ele>
        <time>2026-07-29T10:07:44.716Z</time>
      </trkpt>
      <trkpt lat="45.71501" lon="6.71076">
        <ele>2504</ele>
        <time>2026-07-29T10:07:45.716Z</time>
      </trkpt>
      <trkpt lat="45.715" lon="6.71075">
        <ele>2505</ele>
        <time>2026-07-29T10:07:46.716Z</time>
      </trkpt>
      <trkpt lat="45.71499" lon="6.71075">
        <ele>2505</ele>
        <time>2026-07-29T10:07:47.716Z</time>
      </trkpt>
      <trkpt lat="45.71498" lon="6.71074">
        <ele>2506</ele>
        <time>2026-07-29T10:07:48.716Z</time>
      </trkpt>
      <trkpt lat="45.71497" lon="6.71073">
        <ele>2506</ele>
        <time>2026-07-29T10:07:49.716Z</time>
      </trkpt>
      <trkpt lat="45.71496" lon="6.71073">
        <ele>2506</ele>
        <time>2026-07-29T10:07:50.716Z</time>
      </trkpt>
      <trkpt lat="45.71495" lon="6.71073">
        <ele>2507</ele>
        <time>2026-07-29T10:07:51.716Z</time>
      </trkpt>
      <trkpt lat="45.71493" lon="6.71072">
        <ele>2507</ele>
        <time>2026-07-29T10:07:52.716Z</time>
      </trkpt>
      <trkpt lat="45.71492" lon="6.71071">
        <ele>2507</ele>
        <time>2026-07-29T10:07:53.716Z</time>
      </trkpt>
      <trkpt lat="45.71491" lon="6.71071">
        <ele>2507</ele>
        <time>2026-07-29T10:07:54.716Z</time>
      </trkpt>
      <trkpt lat="45.71491" lon="6.71071">
        <ele>2507</ele>
        <time>2026-07-29T10:07:55.716Z</time>
      </trkpt>
      <trkpt lat="45.7149" lon="6.7107">
        <ele>2507</ele>
        <time>2026-07-29T10:07:56.716Z</time>
      </trkpt>
      <trkpt lat="45.71489" lon="6.7107">
        <ele>2508</ele>
        <time>2026-07-29T10:07:57.716Z</time>
      </trkpt>
      <trkpt lat="45.71488" lon="6.71069">
        <ele>2508</ele>
        <time>2026-07-29T10:07:58.716Z</time>
      </trkpt>
      <trkpt lat="45.71487" lon="6.71069">
        <ele>2508</ele>
        <time>2026-07-29T10:07:59.716Z</time>
      </trkpt>
      <trkpt lat="45.71486" lon="6.71069">
        <ele>2508</ele>
        <time>2026-07-29T10:08:00.716Z</time>
      </trkpt>
      <trkpt lat="45.71484" lon="6.71068">
        <ele>2509</ele>
        <time>2026-07-29T10:08:01.716Z</time>
      </trkpt>
      <trkpt lat="45.71483" lon="6.71068">
        <ele>2509</ele>
        <time>2026-07-29T10:08:02.716Z</time>
      </trkpt>
      <trkpt lat="45.71482" lon="6.71068">
        <ele>2509</ele>
        <time>2026-07-29T10:08:03.716Z</time>
      </trkpt>
      <trkpt lat="45.7148" lon="6.71068">
        <ele>2509</ele>
        <time>2026-07-29T10:08:04.716Z</time>
      </trkpt>
      <trkpt lat="45.71479" lon="6.71068">
        <ele>2510</ele>
        <time>2026-07-29T10:08:05.716Z</time>
      </trkpt>
      <trkpt lat="45.71478" lon="6.71068">
        <ele>2510</ele>
        <time>2026-07-29T10:08:06.716Z</time>
      </trkpt>
      <trkpt lat="45.71477" lon="6.71069">
        <ele>2510</ele>
        <time>2026-07-29T10:08:07.716Z</time>
      </trkpt>
      <trkpt lat="45.71476" lon="6.71069">
        <ele>2510</ele>
        <time>2026-07-29T10:08:08.716Z</time>
      </trkpt>
      <trkpt lat="45.71475" lon="6.7107">
        <ele>2511</ele>
        <time>2026-07-29T10:08:09.716Z</time>
      </trkpt>
      <trkpt lat="45.71474" lon="6.71071">
        <ele>2511</ele>
        <time>2026-07-29T10:08:10.716Z</time>
      </trkpt>
      <trkpt lat="45.71473" lon="6.71071">
        <ele>2511</ele>
        <time>2026-07-29T10:08:11.716Z</time>
      </trkpt>
      <trkpt lat="45.71471" lon="6.7107">
        <ele>2511</ele>
        <time>2026-07-29T10:08:12.716Z</time>
      </trkpt>
      <trkpt lat="45.7147" lon="6.7107">
        <ele>2511</ele>
        <time>2026-07-29T10:08:13.716Z</time>
      </trkpt>
      <trkpt lat="45.71468" lon="6.71069">
        <ele>2511</ele>
        <time>2026-07-29T10:08:14.716Z</time>
      </trkpt>
      <trkpt lat="45.71467" lon="6.71068">
        <ele>2511</ele>
        <time>2026-07-29T10:08:15.716Z</time>
      </trkpt>
      <trkpt lat="45.71466" lon="6.71067">
        <ele>2512</ele>
        <time>2026-07-29T10:08:16.716Z</time>
      </trkpt>
      <trkpt lat="45.71465" lon="6.71067">
        <ele>2512</ele>
        <time>2026-07-29T10:08:17.716Z</time>
      </trkpt>
      <trkpt lat="45.71464" lon="6.71066">
        <ele>2513</ele>
        <time>2026-07-29T10:08:18.716Z</time>
      </trkpt>
      <trkpt lat="45.71462" lon="6.71066">
        <ele>2513</ele>
        <time>2026-07-29T10:08:19.716Z</time>
      </trkpt>
      <trkpt lat="45.71461" lon="6.71066">
        <ele>2513</ele>
        <time>2026-07-29T10:08:20.716Z</time>
      </trkpt>
      <trkpt lat="45.7146" lon="6.71066">
        <ele>2514</ele>
        <time>2026-07-29T10:08:21.716Z</time>
      </trkpt>
      <trkpt lat="45.71458" lon="6.71065">
        <ele>2514</ele>
        <time>2026-07-29T10:08:22.716Z</time>
      </trkpt>
      <trkpt lat="45.71457" lon="6.71065">
        <ele>2514</ele>
        <time>2026-07-29T10:08:23.716Z</time>
      </trkpt>
      <trkpt lat="45.71455" lon="6.71064">
        <ele>2515</ele>
        <time>2026-07-29T10:08:24.716Z</time>
      </trkpt>
      <trkpt lat="45.71454" lon="6.71064">
        <ele>2515</ele>
        <time>2026-07-29T10:08:25.716Z</time>
      </trkpt>
      <trkpt lat="45.71453" lon="6.71063">
        <ele>2515</ele>
        <time>2026-07-29T10:08:26.716Z</time>
      </trkpt>
      <trkpt lat="45.71451" lon="6.71062">
        <ele>2515</ele>
        <time>2026-07-29T10:08:27.716Z</time>
      </trkpt>
      <trkpt lat="45.7145" lon="6.71061">
        <ele>2515</ele>
        <time>2026-07-29T10:08:28.716Z</time>
      </trkpt>
      <trkpt lat="45.71449" lon="6.71061">
        <ele>2515</ele>
        <time>2026-07-29T10:08:29.716Z</time>
      </trkpt>
      <trkpt lat="45.71447" lon="6.7106">
        <ele>2515</ele>
        <time>2026-07-29T10:08:30.716Z</time>
      </trkpt>
      <trkpt lat="45.71446" lon="6.7106">
        <ele>2515</ele>
        <time>2026-07-29T10:08:31.716Z</time>
      </trkpt>
      <trkpt lat="45.71445" lon="6.71059">
        <ele>2515</ele>
        <time>2026-07-29T10:08:32.716Z</time>
      </trkpt>
      <trkpt lat="45.71443" lon="6.71059">
        <ele>2515</ele>
        <time>2026-07-29T10:08:33.716Z</time>
      </trkpt>
      <trkpt lat="45.71441" lon="6.71059">
        <ele>2515</ele>
        <time>2026-07-29T10:08:34.716Z</time>
      </trkpt>
      <trkpt lat="45.7144" lon="6.71059">
        <ele>2515</ele>
        <time>2026-07-29T10:08:35.716Z</time>
      </trkpt>
      <trkpt lat="45.71439" lon="6.71059">
        <ele>2515</ele>
        <time>2026-07-29T10:08:36.716Z</time>
      </trkpt>
      <trkpt lat="45.71437" lon="6.71059">
        <ele>2514</ele>
        <time>2026-07-29T10:08:37.716Z</time>
      </trkpt>
      <trkpt lat="45.71436" lon="6.71059">
        <ele>2515</ele>
        <time>2026-07-29T10:08:38.716Z</time>
      </trkpt>
      <trkpt lat="45.71435" lon="6.71059">
        <ele>2515</ele>
        <time>2026-07-29T10:08:39.716Z</time>
      </trkpt>
      <trkpt lat="45.71433" lon="6.71059">
        <ele>2515</ele>
        <time>2026-07-29T10:08:40.716Z</time>
      </trkpt>
      <trkpt lat="45.71432" lon="6.71058">
        <ele>2515</ele>
        <time>2026-07-29T10:08:41.716Z</time>
      </trkpt>
      <trkpt lat="45.71431" lon="6.71057">
        <ele>2515</ele>
        <time>2026-07-29T10:08:42.716Z</time>
      </trkpt>
      <trkpt lat="45.71431" lon="6.71056">
        <ele>2515</ele>
        <time>2026-07-29T10:08:43.716Z</time>
      </trkpt>
      <trkpt lat="45.71431" lon="6.71055">
        <ele>2515</ele>
        <time>2026-07-29T10:08:44.716Z</time>
      </trkpt>
      <trkpt lat="45.71432" lon="6.71054">
        <ele>2515</ele>
        <time>2026-07-29T10:08:45.716Z</time>
      </trkpt>
      <trkpt lat="45.71433" lon="6.71054">
        <ele>2516</ele>
        <time>2026-07-29T10:08:46.716Z</time>
      </trkpt>
      <trkpt lat="45.71434" lon="6.71053">
        <ele>2516</ele>
        <time>2026-07-29T10:08:47.716Z</time>
      </trkpt>
      <trkpt lat="45.71435" lon="6.71053">
        <ele>2517</ele>
        <time>2026-07-29T10:08:48.716Z</time>
      </trkpt>
      <trkpt lat="45.71437" lon="6.71053">
        <ele>2517</ele>
        <time>2026-07-29T10:08:49.716Z</time>
      </trkpt>
      <trkpt lat="45.71438" lon="6.71052">
        <ele>2517</ele>
        <time>2026-07-29T10:08:50.716Z</time>
      </trkpt>
      <trkpt lat="45.7144" lon="6.71052">
        <ele>2517</ele>
        <time>2026-07-29T10:08:51.716Z</time>
      </trkpt>
      <trkpt lat="45.71441" lon="6.71052">
        <ele>2518</ele>
        <time>2026-07-29T10:08:52.716Z</time>
      </trkpt>
      <trkpt lat="45.71442" lon="6.71051">
        <ele>2518</ele>
        <time>2026-07-29T10:08:53.716Z</time>
      </trkpt>
      <trkpt lat="45.71444" lon="6.71051">
        <ele>2518</ele>
        <time>2026-07-29T10:08:54.716Z</time>
      </trkpt>
      <trkpt lat="45.71445" lon="6.7105">
        <ele>2518</ele>
        <time>2026-07-29T10:08:55.716Z</time>
      </trkpt>
      <trkpt lat="45.71446" lon="6.7105">
        <ele>2518</ele>
        <time>2026-07-29T10:08:56.716Z</time>
      </trkpt>
      <trkpt lat="45.71448" lon="6.7105">
        <ele>2519</ele>
        <time>2026-07-29T10:08:57.716Z</time>
      </trkpt>
      <trkpt lat="45.71449" lon="6.7105">
        <ele>2519</ele>
        <time>2026-07-29T10:08:58.716Z</time>
      </trkpt>
      <trkpt lat="45.7145" lon="6.71049">
        <ele>2520</ele>
        <time>2026-07-29T10:08:59.716Z</time>
      </trkpt>
      <trkpt lat="45.71451" lon="6.71048">
        <ele>2520</ele>
        <time>2026-07-29T10:09:00.716Z</time>
      </trkpt>
      <trkpt lat="45.71451" lon="6.71047">
        <ele>2521</ele>
        <time>2026-07-29T10:09:01.716Z</time>
      </trkpt>
      <trkpt lat="45.71451" lon="6.71046">
        <ele>2521</ele>
        <time>2026-07-29T10:09:02.716Z</time>
      </trkpt>
      <trkpt lat="45.7145" lon="6.71045">
        <ele>2521</ele>
        <time>2026-07-29T10:09:03.716Z</time>
      </trkpt>
      <trkpt lat="45.71449" lon="6.71044">
        <ele>2522</ele>
        <time>2026-07-29T10:09:04.716Z</time>
      </trkpt>
      <trkpt lat="45.71449" lon="6.71044">
        <ele>2521</ele>
        <time>2026-07-29T10:09:05.716Z</time>
      </trkpt>
      <trkpt lat="45.71448" lon="6.71042">
        <ele>2521</ele>
        <time>2026-07-29T10:09:06.716Z</time>
      </trkpt>
      <trkpt lat="45.71447" lon="6.71041">
        <ele>2522</ele>
        <time>2026-07-29T10:09:07.716Z</time>
      </trkpt>
      <trkpt lat="45.71445" lon="6.7104">
        <ele>2522</ele>
        <time>2026-07-29T10:09:08.716Z</time>
      </trkpt>
      <trkpt lat="45.71445" lon="6.71039">
        <ele>2522</ele>
        <time>2026-07-29T10:09:09.716Z</time>
      </trkpt>
      <trkpt lat="45.71443" lon="6.71038">
        <ele>2522</ele>
        <time>2026-07-29T10:09:10.716Z</time>
      </trkpt>
      <trkpt lat="45.71442" lon="6.71036">
        <ele>2522</ele>
        <time>2026-07-29T10:09:11.716Z</time>
      </trkpt>
      <trkpt lat="45.71441" lon="6.71034">
        <ele>2523</ele>
        <time>2026-07-29T10:09:12.716Z</time>
      </trkpt>
      <trkpt lat="45.7144" lon="6.71033">
        <ele>2523</ele>
        <time>2026-07-29T10:09:13.716Z</time>
      </trkpt>
      <trkpt lat="45.71439" lon="6.71032">
        <ele>2523</ele>
        <time>2026-07-29T10:09:14.716Z</time>
      </trkpt>
      <trkpt lat="45.71437" lon="6.7103">
        <ele>2523</ele>
        <time>2026-07-29T10:09:15.716Z</time>
      </trkpt>
      <trkpt lat="45.71436" lon="6.71029">
        <ele>2523</ele>
        <time>2026-07-29T10:09:16.716Z</time>
      </trkpt>
      <trkpt lat="45.71435" lon="6.71027">
        <ele>2523</ele>
        <time>2026-07-29T10:09:17.716Z</time>
      </trkpt>
      <trkpt lat="45.71434" lon="6.71026">
        <ele>2523</ele>
        <time>2026-07-29T10:09:18.716Z</time>
      </trkpt>
      <trkpt lat="45.71432" lon="6.71024">
        <ele>2524</ele>
        <time>2026-07-29T10:09:19.716Z</time>
      </trkpt>
      <trkpt lat="45.71431" lon="6.71023">
        <ele>2524</ele>
        <time>2026-07-29T10:09:20.716Z</time>
      </trkpt>
      <trkpt lat="45.7143" lon="6.71021">
        <ele>2524</ele>
        <time>2026-07-29T10:09:21.716Z</time>
      </trkpt>
      <trkpt lat="45.71429" lon="6.71019">
        <ele>2524</ele>
        <time>2026-07-29T10:09:22.716Z</time>
      </trkpt>
      <trkpt lat="45.71427" lon="6.71018">
        <ele>2524</ele>
        <time>2026-07-29T10:09:23.716Z</time>
      </trkpt>
      <trkpt lat="45.71426" lon="6.71016">
        <ele>2524</ele>
        <time>2026-07-29T10:09:24.716Z</time>
      </trkpt>
      <trkpt lat="45.71425" lon="6.71014">
        <ele>2524</ele>
        <time>2026-07-29T10:09:25.716Z</time>
      </trkpt>
      <trkpt lat="45.71423" lon="6.71013">
        <ele>2524</ele>
        <time>2026-07-29T10:09:26.716Z</time>
      </trkpt>
      <trkpt lat="45.71422" lon="6.71011">
        <ele>2524</ele>
        <time>2026-07-29T10:09:27.716Z</time>
      </trkpt>
      <trkpt lat="45.71421" lon="6.71009">
        <ele>2524</ele>
        <time>2026-07-29T10:09:28.716Z</time>
      </trkpt>
      <trkpt lat="45.71419" lon="6.71008">
        <ele>2524</ele>
        <time>2026-07-29T10:09:29.716Z</time>
      </trkpt>
      <trkpt lat="45.71417" lon="6.71006">
        <ele>2524</ele>
        <time>2026-07-29T10:09:30.716Z</time>
      </trkpt>
      <trkpt lat="45.71416" lon="6.71005">
        <ele>2524</ele>
        <time>2026-07-29T10:09:31.716Z</time>
      </trkpt>
      <trkpt lat="45.71414" lon="6.71003">
        <ele>2524</ele>
        <time>2026-07-29T10:09:32.716Z</time>
      </trkpt>
      <trkpt lat="45.71412" lon="6.71002">
        <ele>2524</ele>
        <time>2026-07-29T10:09:33.716Z</time>
      </trkpt>
      <trkpt lat="45.7141" lon="6.71">
        <ele>2524</ele>
        <time>2026-07-29T10:09:34.716Z</time>
      </trkpt>
      <trkpt lat="45.71409" lon="6.70999">
        <ele>2524</ele>
        <time>2026-07-29T10:09:35.716Z</time>
      </trkpt>
      <trkpt lat="45.71408" lon="6.70997">
        <ele>2524</ele>
        <time>2026-07-29T10:09:36.716Z</time>
      </trkpt>
      <trkpt lat="45.71406" lon="6.70996">
        <ele>2524</ele>
        <time>2026-07-29T10:09:37.716Z</time>
      </trkpt>
      <trkpt lat="45.71405" lon="6.70994">
        <ele>2524</ele>
        <time>2026-07-29T10:09:38.716Z</time>
      </trkpt>
      <trkpt lat="45.71403" lon="6.70993">
        <ele>2525</ele>
        <time>2026-07-29T10:09:39.716Z</time>
      </trkpt>
      <trkpt lat="45.71402" lon="6.70991">
        <ele>2525</ele>
        <time>2026-07-29T10:09:40.716Z</time>
      </trkpt>
      <trkpt lat="45.714" lon="6.7099">
        <ele>2525</ele>
        <time>2026-07-29T10:09:41.716Z</time>
      </trkpt>
      <trkpt lat="45.71399" lon="6.70989">
        <ele>2526</ele>
        <time>2026-07-29T10:09:42.716Z</time>
      </trkpt>
      <trkpt lat="45.71397" lon="6.70988">
        <ele>2526</ele>
        <time>2026-07-29T10:09:43.716Z</time>
      </trkpt>
      <trkpt lat="45.71395" lon="6.70986">
        <ele>2526</ele>
        <time>2026-07-29T10:09:44.716Z</time>
      </trkpt>
      <trkpt lat="45.71394" lon="6.70985">
        <ele>2526</ele>
        <time>2026-07-29T10:09:45.716Z</time>
      </trkpt>
      <trkpt lat="45.71392" lon="6.70983">
        <ele>2526</ele>
        <time>2026-07-29T10:09:46.716Z</time>
      </trkpt>
      <trkpt lat="45.71391" lon="6.70982">
        <ele>2526</ele>
        <time>2026-07-29T10:09:47.716Z</time>
      </trkpt>
      <trkpt lat="45.71389" lon="6.70981">
        <ele>2526</ele>
        <time>2026-07-29T10:09:48.716Z</time>
      </trkpt>
      <trkpt lat="45.71388" lon="6.70979">
        <ele>2526</ele>
        <time>2026-07-29T10:09:49.716Z</time>
      </trkpt>
      <trkpt lat="45.71386" lon="6.70978">
        <ele>2526</ele>
        <time>2026-07-29T10:09:50.716Z</time>
      </trkpt>
      <trkpt lat="45.71385" lon="6.70977">
        <ele>2526</ele>
        <time>2026-07-29T10:09:51.716Z</time>
      </trkpt>
      <trkpt lat="45.71383" lon="6.70975">
        <ele>2526</ele>
        <time>2026-07-29T10:09:52.716Z</time>
      </trkpt>
      <trkpt lat="45.71382" lon="6.70974">
        <ele>2526</ele>
        <time>2026-07-29T10:09:53.716Z</time>
      </trkpt>
      <trkpt lat="45.71381" lon="6.70973">
        <ele>2526</ele>
        <time>2026-07-29T10:09:54.716Z</time>
      </trkpt>
      <trkpt lat="45.71379" lon="6.70971">
        <ele>2526</ele>
        <time>2026-07-29T10:09:55.716Z</time>
      </trkpt>
      <trkpt lat="45.71377" lon="6.7097">
        <ele>2526</ele>
        <time>2026-07-29T10:09:56.716Z</time>
      </trkpt>
      <trkpt lat="45.71375" lon="6.70968">
        <ele>2526</ele>
        <time>2026-07-29T10:09:57.716Z</time>
      </trkpt>
      <trkpt lat="45.71374" lon="6.70967">
        <ele>2527</ele>
        <time>2026-07-29T10:09:58.716Z</time>
      </trkpt>
      <trkpt lat="45.71372" lon="6.70965">
        <ele>2527</ele>
        <time>2026-07-29T10:09:59.716Z</time>
      </trkpt>
      <trkpt lat="45.71371" lon="6.70963">
        <ele>2527</ele>
        <time>2026-07-29T10:10:00.716Z</time>
      </trkpt>
      <trkpt lat="45.71369" lon="6.70961">
        <ele>2527</ele>
        <time>2026-07-29T10:10:01.716Z</time>
      </trkpt>
      <trkpt lat="45.71368" lon="6.70959">
        <ele>2527</ele>
        <time>2026-07-29T10:10:02.716Z</time>
      </trkpt>
      <trkpt lat="45.71366" lon="6.70958">
        <ele>2527</ele>
        <time>2026-07-29T10:10:03.716Z</time>
      </trkpt>
      <trkpt lat="45.71365" lon="6.70956">
        <ele>2527</ele>
        <time>2026-07-29T10:10:04.716Z</time>
      </trkpt>
      <trkpt lat="45.71363" lon="6.70955">
        <ele>2528</ele>
        <time>2026-07-29T10:10:05.716Z</time>
      </trkpt>
      <trkpt lat="45.71362" lon="6.70953">
        <ele>2528</ele>
        <time>2026-07-29T10:10:06.716Z</time>
      </trkpt>
      <trkpt lat="45.7136" lon="6.70951">
        <ele>2528</ele>
        <time>2026-07-29T10:10:07.716Z</time>
      </trkpt>
      <trkpt lat="45.71359" lon="6.70949">
        <ele>2528</ele>
        <time>2026-07-29T10:10:08.716Z</time>
      </trkpt>
      <trkpt lat="45.71358" lon="6.70948">
        <ele>2528</ele>
        <time>2026-07-29T10:10:09.716Z</time>
      </trkpt>
      <trkpt lat="45.71356" lon="6.70946">
        <ele>2527</ele>
        <time>2026-07-29T10:10:10.716Z</time>
      </trkpt>
      <trkpt lat="45.71355" lon="6.70944">
        <ele>2527</ele>
        <time>2026-07-29T10:10:11.716Z</time>
      </trkpt>
      <trkpt lat="45.71354" lon="6.70942">
        <ele>2527</ele>
        <time>2026-07-29T10:10:12.716Z</time>
      </trkpt>
      <trkpt lat="45.71352" lon="6.7094">
        <ele>2527</ele>
        <time>2026-07-29T10:10:13.716Z</time>
      </trkpt>
      <trkpt lat="45.71351" lon="6.70939">
        <ele>2527</ele>
        <time>2026-07-29T10:10:14.716Z</time>
      </trkpt>
      <trkpt lat="45.7135" lon="6.70937">
        <ele>2527</ele>
        <time>2026-07-29T10:10:15.716Z</time>
      </trkpt>
      <trkpt lat="45.71348" lon="6.70936">
        <ele>2527</ele>
        <time>2026-07-29T10:10:16.716Z</time>
      </trkpt>
      <trkpt lat="45.71346" lon="6.70935">
        <ele>2527</ele>
        <time>2026-07-29T10:10:17.716Z</time>
      </trkpt>
      <trkpt lat="45.71344" lon="6.70933">
        <ele>2527</ele>
        <time>2026-07-29T10:10:18.716Z</time>
      </trkpt>
      <trkpt lat="45.71343" lon="6.70932">
        <ele>2527</ele>
        <time>2026-07-29T10:10:19.716Z</time>
      </trkpt>
      <trkpt lat="45.71341" lon="6.70931">
        <ele>2527</ele>
        <time>2026-07-29T10:10:20.716Z</time>
      </trkpt>
      <trkpt lat="45.71339" lon="6.7093">
        <ele>2527</ele>
        <time>2026-07-29T10:10:21.716Z</time>
      </trkpt>
      <trkpt lat="45.71338" lon="6.70929">
        <ele>2526</ele>
        <time>2026-07-29T10:10:22.716Z</time>
      </trkpt>
      <trkpt lat="45.71336" lon="6.70928">
        <ele>2526</ele>
        <time>2026-07-29T10:10:23.716Z</time>
      </trkpt>
      <trkpt lat="45.71334" lon="6.70927">
        <ele>2526</ele>
        <time>2026-07-29T10:10:24.716Z</time>
      </trkpt>
      <trkpt lat="45.71333" lon="6.70926">
        <ele>2526</ele>
        <time>2026-07-29T10:10:25.716Z</time>
      </trkpt>
      <trkpt lat="45.71331" lon="6.70925">
        <ele>2526</ele>
        <time>2026-07-29T10:10:26.716Z</time>
      </trkpt>
      <trkpt lat="45.71329" lon="6.70924">
        <ele>2526</ele>
        <time>2026-07-29T10:10:27.716Z</time>
      </trkpt>
      <trkpt lat="45.71328" lon="6.70923">
        <ele>2526</ele>
        <time>2026-07-29T10:10:28.716Z</time>
      </trkpt>
      <trkpt lat="45.71326" lon="6.70922">
        <ele>2526</ele>
        <time>2026-07-29T10:10:29.716Z</time>
      </trkpt>
      <trkpt lat="45.71323" lon="6.70921">
        <ele>2525</ele>
        <time>2026-07-29T10:10:30.716Z</time>
      </trkpt>
      <trkpt lat="45.71322" lon="6.7092">
        <ele>2525</ele>
        <time>2026-07-29T10:10:31.716Z</time>
      </trkpt>
      <trkpt lat="45.7132" lon="6.70919">
        <ele>2525</ele>
        <time>2026-07-29T10:10:32.716Z</time>
      </trkpt>
      <trkpt lat="45.71318" lon="6.70918">
        <ele>2525</ele>
        <time>2026-07-29T10:10:33.716Z</time>
      </trkpt>
      <trkpt lat="45.71316" lon="6.70916">
        <ele>2525</ele>
        <time>2026-07-29T10:10:34.716Z</time>
      </trkpt>
      <trkpt lat="45.71313" lon="6.70915">
        <ele>2525</ele>
        <time>2026-07-29T10:10:35.716Z</time>
      </trkpt>
      <trkpt lat="45.71312" lon="6.70914">
        <ele>2525</ele>
        <time>2026-07-29T10:10:36.716Z</time>
      </trkpt>
      <trkpt lat="45.7131" lon="6.70913">
        <ele>2525</ele>
        <time>2026-07-29T10:10:37.716Z</time>
      </trkpt>
      <trkpt lat="45.71308" lon="6.70912">
        <ele>2525</ele>
        <time>2026-07-29T10:10:38.716Z</time>
      </trkpt>
      <trkpt lat="45.71307" lon="6.70911">
        <ele>2524</ele>
        <time>2026-07-29T10:10:39.716Z</time>
      </trkpt>
      <trkpt lat="45.71305" lon="6.7091">
        <ele>2524</ele>
        <time>2026-07-29T10:10:40.716Z</time>
      </trkpt>
      <trkpt lat="45.71303" lon="6.70909">
        <ele>2524</ele>
        <time>2026-07-29T10:10:41.716Z</time>
      </trkpt>
      <trkpt lat="45.71301" lon="6.70908">
        <ele>2524</ele>
        <time>2026-07-29T10:10:42.716Z</time>
      </trkpt>
      <trkpt lat="45.71299" lon="6.70906">
        <ele>2524</ele>
        <time>2026-07-29T10:10:43.716Z</time>
      </trkpt>
      <trkpt lat="45.71297" lon="6.70905">
        <ele>2524</ele>
        <time>2026-07-29T10:10:44.716Z</time>
      </trkpt>
      <trkpt lat="45.71295" lon="6.70904">
        <ele>2524</ele>
        <time>2026-07-29T10:10:45.716Z</time>
      </trkpt>
      <trkpt lat="45.71293" lon="6.70903">
        <ele>2525</ele>
        <time>2026-07-29T10:10:46.716Z</time>
      </trkpt>
      <trkpt lat="45.71291" lon="6.70902">
        <ele>2525</ele>
        <time>2026-07-29T10:10:47.716Z</time>
      </trkpt>
      <trkpt lat="45.7129" lon="6.70901">
        <ele>2525</ele>
        <time>2026-07-29T10:10:48.716Z</time>
      </trkpt>
      <trkpt lat="45.71288" lon="6.709">
        <ele>2525</ele>
        <time>2026-07-29T10:10:49.716Z</time>
      </trkpt>
      <trkpt lat="45.71287" lon="6.70899">
        <ele>2525</ele>
        <time>2026-07-29T10:10:50.716Z</time>
      </trkpt>
      <trkpt lat="45.71285" lon="6.70898">
        <ele>2525</ele>
        <time>2026-07-29T10:10:51.716Z</time>
      </trkpt>
      <trkpt lat="45.71284" lon="6.70897">
        <ele>2525</ele>
        <time>2026-07-29T10:10:52.716Z</time>
      </trkpt>
      <trkpt lat="45.71282" lon="6.70896">
        <ele>2525</ele>
        <time>2026-07-29T10:10:53.716Z</time>
      </trkpt>
      <trkpt lat="45.7128" lon="6.70895">
        <ele>2525</ele>
        <time>2026-07-29T10:10:54.716Z</time>
      </trkpt>
      <trkpt lat="45.71278" lon="6.70895">
        <ele>2525</ele>
        <time>2026-07-29T10:10:55.716Z</time>
      </trkpt>
      <trkpt lat="45.71277" lon="6.70894">
        <ele>2525</ele>
        <time>2026-07-29T10:10:56.716Z</time>
      </trkpt>
      <trkpt lat="45.71275" lon="6.70893">
        <ele>2525</ele>
        <time>2026-07-29T10:10:57.716Z</time>
      </trkpt>
      <trkpt lat="45.71273" lon="6.70892">
        <ele>2526</ele>
        <time>2026-07-29T10:10:58.716Z</time>
      </trkpt>
      <trkpt lat="45.71272" lon="6.7089">
        <ele>2526</ele>
        <time>2026-07-29T10:10:59.716Z</time>
      </trkpt>
      <trkpt lat="45.7127" lon="6.70889">
        <ele>2526</ele>
        <time>2026-07-29T10:11:00.716Z</time>
      </trkpt>
      <trkpt lat="45.71269" lon="6.70887">
        <ele>2526</ele>
        <time>2026-07-29T10:11:01.716Z</time>
      </trkpt>
      <trkpt lat="45.71267" lon="6.70885">
        <ele>2526</ele>
        <time>2026-07-29T10:11:02.716Z</time>
      </trkpt>
      <trkpt lat="45.71266" lon="6.70884">
        <ele>2526</ele>
        <time>2026-07-29T10:11:03.716Z</time>
      </trkpt>
      <trkpt lat="45.71264" lon="6.70883">
        <ele>2526</ele>
        <time>2026-07-29T10:11:04.716Z</time>
      </trkpt>
      <trkpt lat="45.71263" lon="6.70882">
        <ele>2526</ele>
        <time>2026-07-29T10:11:05.716Z</time>
      </trkpt>
      <trkpt lat="45.71262" lon="6.70881">
        <ele>2526</ele>
        <time>2026-07-29T10:11:06.716Z</time>
      </trkpt>
      <trkpt lat="45.71261" lon="6.7088">
        <ele>2526</ele>
        <time>2026-07-29T10:11:07.716Z</time>
      </trkpt>
      <trkpt lat="45.7126" lon="6.7088">
        <ele>2526</ele>
        <time>2026-07-29T10:11:08.716Z</time>
      </trkpt>
      <trkpt lat="45.71259" lon="6.70879">
        <ele>2526</ele>
        <time>2026-07-29T10:11:09.716Z</time>
      </trkpt>
      <trkpt lat="45.71257" lon="6.70879">
        <ele>2526</ele>
        <time>2026-07-29T10:11:10.716Z</time>
      </trkpt>
      <trkpt lat="45.71256" lon="6.70878">
        <ele>2526</ele>
        <time>2026-07-29T10:11:11.716Z</time>
      </trkpt>
      <trkpt lat="45.71255" lon="6.70877">
        <ele>2526</ele>
        <time>2026-07-29T10:11:12.716Z</time>
      </trkpt>
      <trkpt lat="45.71254" lon="6.70876">
        <ele>2527</ele>
        <time>2026-07-29T10:11:13.716Z</time>
      </trkpt>
      <trkpt lat="45.71253" lon="6.70875">
        <ele>2527</ele>
        <time>2026-07-29T10:11:14.716Z</time>
      </trkpt>
      <trkpt lat="45.71252" lon="6.70873">
        <ele>2527</ele>
        <time>2026-07-29T10:11:15.716Z</time>
      </trkpt>
      <trkpt lat="45.71251" lon="6.70872">
        <ele>2527</ele>
        <time>2026-07-29T10:11:16.716Z</time>
      </trkpt>
      <trkpt lat="45.7125" lon="6.70871">
        <ele>2527</ele>
        <time>2026-07-29T10:11:17.716Z</time>
      </trkpt>
      <trkpt lat="45.71249" lon="6.7087">
        <ele>2528</ele>
        <time>2026-07-29T10:11:18.716Z</time>
      </trkpt>
      <trkpt lat="45.71248" lon="6.70869">
        <ele>2528</ele>
        <time>2026-07-29T10:11:19.716Z</time>
      </trkpt>
      <trkpt lat="45.71247" lon="6.70868">
        <ele>2528</ele>
        <time>2026-07-29T10:11:20.716Z</time>
      </trkpt>
      <trkpt lat="45.71246" lon="6.70867">
        <ele>2529</ele>
        <time>2026-07-29T10:11:21.716Z</time>
      </trkpt>
      <trkpt lat="45.71245" lon="6.70866">
        <ele>2529</ele>
        <time>2026-07-29T10:11:22.716Z</time>
      </trkpt>
      <trkpt lat="45.71245" lon="6.70865">
        <ele>2529</ele>
        <time>2026-07-29T10:11:23.716Z</time>
      </trkpt>
      <trkpt lat="45.71244" lon="6.70864">
        <ele>2529</ele>
        <time>2026-07-29T10:11:24.716Z</time>
      </trkpt>
      <trkpt lat="45.71243" lon="6.70862">
        <ele>2529</ele>
        <time>2026-07-29T10:11:25.716Z</time>
      </trkpt>
      <trkpt lat="45.71243" lon="6.70861">
        <ele>2530</ele>
        <time>2026-07-29T10:11:26.716Z</time>
      </trkpt>
      <trkpt lat="45.71242" lon="6.7086">
        <ele>2530</ele>
        <time>2026-07-29T10:11:27.716Z</time>
      </trkpt>
      <trkpt lat="45.71242" lon="6.7086">
        <ele>2530</ele>
        <time>2026-07-29T10:11:28.716Z</time>
      </trkpt>
      <trkpt lat="45.71241" lon="6.70859">
        <ele>2530</ele>
        <time>2026-07-29T10:11:29.716Z</time>
      </trkpt>
      <trkpt lat="45.71241" lon="6.70858">
        <ele>2530</ele>
        <time>2026-07-29T10:11:30.716Z</time>
      </trkpt>
      <trkpt lat="45.7124" lon="6.70857">
        <ele>2531</ele>
        <time>2026-07-29T10:11:31.716Z</time>
      </trkpt>
      <trkpt lat="45.71239" lon="6.70857">
        <ele>2531</ele>
        <time>2026-07-29T10:11:32.716Z</time>
      </trkpt>
      <trkpt lat="45.71238" lon="6.70856">
        <ele>2531</ele>
        <time>2026-07-29T10:11:33.716Z</time>
      </trkpt>
      <trkpt lat="45.71237" lon="6.70855">
        <ele>2531</ele>
        <time>2026-07-29T10:11:34.716Z</time>
      </trkpt>
      <trkpt lat="45.71236" lon="6.70855">
        <ele>2532</ele>
        <time>2026-07-29T10:11:35.716Z</time>
      </trkpt>
      <trkpt lat="45.71236" lon="6.70853">
        <ele>2532</ele>
        <time>2026-07-29T10:11:36.716Z</time>
      </trkpt>
      <trkpt lat="45.71235" lon="6.70853">
        <ele>2532</ele>
        <time>2026-07-29T10:11:37.716Z</time>
      </trkpt>
      <trkpt lat="45.71235" lon="6.70852">
        <ele>2533</ele>
        <time>2026-07-29T10:11:38.716Z</time>
      </trkpt>
      <trkpt lat="45.71235" lon="6.70852">
        <ele>2533</ele>
        <time>2026-07-29T10:11:39.716Z</time>
      </trkpt>
      <trkpt lat="45.71234" lon="6.70851">
        <ele>2534</ele>
        <time>2026-07-29T10:11:40.716Z</time>
      </trkpt>
      <trkpt lat="45.71234" lon="6.7085">
        <ele>2534</ele>
        <time>2026-07-29T10:11:41.716Z</time>
      </trkpt>
      <trkpt lat="45.71233" lon="6.70849">
        <ele>2535</ele>
        <time>2026-07-29T10:11:42.716Z</time>
      </trkpt>
      <trkpt lat="45.71233" lon="6.70848">
        <ele>2536</ele>
        <time>2026-07-29T10:11:43.716Z</time>
      </trkpt>
      <trkpt lat="45.71232" lon="6.70847">
        <ele>2536</ele>
        <time>2026-07-29T10:11:44.716Z</time>
      </trkpt>
      <trkpt lat="45.71232" lon="6.70846">
        <ele>2536</ele>
        <time>2026-07-29T10:11:45.716Z</time>
      </trkpt>
      <trkpt lat="45.71231" lon="6.70846">
        <ele>2537</ele>
        <time>2026-07-29T10:11:46.716Z</time>
      </trkpt>
      <trkpt lat="45.71231" lon="6.70845">
        <ele>2537</ele>
        <time>2026-07-29T10:11:47.716Z</time>
      </trkpt>
      <trkpt lat="45.7123" lon="6.70845">
        <ele>2537</ele>
        <time>2026-07-29T10:11:48.716Z</time>
      </trkpt>
      <trkpt lat="45.71229" lon="6.70844">
        <ele>2538</ele>
        <time>2026-07-29T10:11:49.716Z</time>
      </trkpt>
      <trkpt lat="45.71228" lon="6.70843">
        <ele>2538</ele>
        <time>2026-07-29T10:11:50.716Z</time>
      </trkpt>
      <trkpt lat="45.71228" lon="6.70843">
        <ele>2538</ele>
        <time>2026-07-29T10:11:51.716Z</time>
      </trkpt>
      <trkpt lat="45.71227" lon="6.70842">
        <ele>2538</ele>
        <time>2026-07-29T10:11:52.716Z</time>
      </trkpt>
      <trkpt lat="45.71226" lon="6.70841">
        <ele>2539</ele>
        <time>2026-07-29T10:11:53.716Z</time>
      </trkpt>
      <trkpt lat="45.71225" lon="6.7084">
        <ele>2539</ele>
        <time>2026-07-29T10:11:54.716Z</time>
      </trkpt>
      <trkpt lat="45.71225" lon="6.70839">
        <ele>2539</ele>
        <time>2026-07-29T10:11:55.716Z</time>
      </trkpt>
      <trkpt lat="45.71225" lon="6.70838">
        <ele>2539</ele>
        <time>2026-07-29T10:11:56.716Z</time>
      </trkpt>
      <trkpt lat="45.71225" lon="6.70837">
        <ele>2539</ele>
        <time>2026-07-29T10:11:57.716Z</time>
      </trkpt>
      <trkpt lat="45.71224" lon="6.70836">
        <ele>2540</ele>
        <time>2026-07-29T10:11:58.716Z</time>
      </trkpt>
      <trkpt lat="45.71224" lon="6.70834">
        <ele>2540</ele>
        <time>2026-07-29T10:11:59.716Z</time>
      </trkpt>
      <trkpt lat="45.71224" lon="6.70833">
        <ele>2540</ele>
        <time>2026-07-29T10:12:00.716Z</time>
      </trkpt>
      <trkpt lat="45.71225" lon="6.70831">
        <ele>2540</ele>
        <time>2026-07-29T10:12:01.716Z</time>
      </trkpt>
      <trkpt lat="45.71225" lon="6.7083">
        <ele>2540</ele>
        <time>2026-07-29T10:12:02.716Z</time>
      </trkpt>
      <trkpt lat="45.71224" lon="6.70829">
        <ele>2540</ele>
        <time>2026-07-29T10:12:03.716Z</time>
      </trkpt>
      <trkpt lat="45.71224" lon="6.70827">
        <ele>2540</ele>
        <time>2026-07-29T10:12:04.716Z</time>
      </trkpt>
      <trkpt lat="45.71224" lon="6.70826">
        <ele>2540</ele>
        <time>2026-07-29T10:12:05.716Z</time>
      </trkpt>
      <trkpt lat="45.71224" lon="6.70824">
        <ele>2540</ele>
        <time>2026-07-29T10:12:06.716Z</time>
      </trkpt>
      <trkpt lat="45.71224" lon="6.70822">
        <ele>2540</ele>
        <time>2026-07-29T10:12:07.716Z</time>
      </trkpt>
      <trkpt lat="45.71223" lon="6.70821">
        <ele>2540</ele>
        <time>2026-07-29T10:12:08.716Z</time>
      </trkpt>
      <trkpt lat="45.71223" lon="6.70819">
        <ele>2540</ele>
        <time>2026-07-29T10:12:09.716Z</time>
      </trkpt>
      <trkpt lat="45.71222" lon="6.70818">
        <ele>2540</ele>
        <time>2026-07-29T10:12:10.716Z</time>
      </trkpt>
      <trkpt lat="45.71222" lon="6.70818">
        <ele>2540</ele>
        <time>2026-07-29T10:12:11.716Z</time>
      </trkpt>
      <trkpt lat="45.71222" lon="6.70818">
        <ele>2540</ele>
        <time>2026-07-29T10:12:12.716Z</time>
      </trkpt>
      <trkpt lat="45.71222" lon="6.70818">
        <ele>2540</ele>
        <time>2026-07-29T10:12:13.716Z</time>
      </trkpt>
      <trkpt lat="45.71222" lon="6.70818">
        <ele>2539</ele>
        <time>2026-07-29T10:12:14.716Z</time>
      </trkpt>
      <trkpt lat="45.71222" lon="6.70818">
        <ele>2540</ele>
        <time>2026-07-29T10:12:15.716Z</time>
      </trkpt>
      <trkpt lat="45.71222" lon="6.70818">
        <ele>2539</ele>
        <time>2026-07-29T10:12:16.716Z</time>
      </trkpt>
      <trkpt lat="45.71222" lon="6.70818">
        <ele>2539</ele>
        <time>2026-07-29T10:12:17.716Z</time>
      </trkpt>
      <trkpt lat="45.71222" lon="6.70818">
        <ele>2539</ele>
        <time>2026-07-29T10:12:18.716Z</time>
      </trkpt>
      <trkpt lat="45.71222" lon="6.70818">
        <ele>2539</ele>
        <time>2026-07-29T10:12:19.716Z</time>
      </trkpt>
      <trkpt lat="45.71222" lon="6.70818">
        <ele>2538</ele>
        <time>2026-07-29T10:12:20.716Z</time>
      </trkpt>
      <trkpt lat="45.71222" lon="6.70818">
        <ele>2538</ele>
        <time>2026-07-29T10:12:21.716Z</time>
      </trkpt>
      <trkpt lat="45.71222" lon="6.70818">
        <ele>2539</ele>
        <time>2026-07-29T10:12:22.716Z</time>
      </trkpt>
      <trkpt lat="45.71222" lon="6.70818">
        <ele>2538</ele>
        <time>2026-07-29T10:12:23.716Z</time>
      </trkpt>
      <trkpt lat="45.71222" lon="6.70818">
        <ele>2538</ele>
        <time>2026-07-29T10:12:24.716Z</time>
      </trkpt>
      <trkpt lat="45.71222" lon="6.70818">
        <ele>2538</ele>
        <time>2026-07-29T10:12:25.716Z</time>
      </trkpt>
      <trkpt lat="45.71222" lon="6.70818">
        <ele>2538</ele>
        <time>2026-07-29T10:12:26.716Z</time>
      </trkpt>
      <trkpt lat="45.71222" lon="6.70818">
        <ele>2538</ele>
        <time>2026-07-29T10:12:27.716Z</time>
      </trkpt>
      <trkpt lat="45.71222" lon="6.70818">
        <ele>2538</ele>
        <time>2026-07-29T10:12:28.716Z</time>
      </trkpt>
      <trkpt lat="45.71222" lon="6.70818">
        <ele>2538</ele>
        <time>2026-07-29T10:12:29.716Z</time>
      </trkpt>
      <trkpt lat="45.71222" lon="6.70818">
        <ele>2538</ele>
        <time>2026-07-29T10:12:30.716Z</time>
      </trkpt>
      <trkpt lat="45.71222" lon="6.70818">
        <ele>2538</ele>
        <time>2026-07-29T10:12:31.716Z</time>
      </trkpt>
      <trkpt lat="45.71222" lon="6.70818">
        <ele>2538</ele>
        <time>2026-07-29T10:12:32.716Z</time>
      </trkpt>
      <trkpt lat="45.71222" lon="6.70818">
        <ele>2538</ele>
        <time>2026-07-29T10:12:33.716Z</time>
      </trkpt>
      <trkpt lat="45.71222" lon="6.70818">
        <ele>2538</ele>
        <time>2026-07-29T10:12:34.716Z</time>
      </trkpt>
      <trkpt lat="45.71222" lon="6.70818">
        <ele>2538</ele>
        <time>2026-07-29T10:12:35.716Z</time>
      </trkpt>
      <trkpt lat="45.71222" lon="6.70818">
        <ele>2538</ele>
        <time>2026-07-29T10:12:36.716Z</time>
      </trkpt>
      <trkpt lat="45.71222" lon="6.70818">
        <ele>2538</ele>
        <time>2026-07-29T10:12:37.716Z</time>
      </trkpt>
      <trkpt lat="45.71222" lon="6.70818">
        <ele>2538</ele>
        <time>2026-07-29T10:12:38.716Z</time>
      </trkpt>
      <trkpt lat="45.71222" lon="6.70817">
        <ele>2538</ele>
        <time>2026-07-29T10:12:39.716Z</time>
      </trkpt>
      <trkpt lat="45.71221" lon="6.70815">
        <ele>2538</ele>
        <time>2026-07-29T10:12:40.716Z</time>
      </trkpt>
      <trkpt lat="45.71221" lon="6.70814">
        <ele>2538</ele>
        <time>2026-07-29T10:12:41.716Z</time>
      </trkpt>
      <trkpt lat="45.71221" lon="6.70812">
        <ele>2538</ele>
        <time>2026-07-29T10:12:42.716Z</time>
      </trkpt>
      <trkpt lat="45.71221" lon="6.70811">
        <ele>2538</ele>
        <time>2026-07-29T10:12:43.716Z</time>
      </trkpt>
      <trkpt lat="45.7122" lon="6.7081">
        <ele>2537</ele>
        <time>2026-07-29T10:12:44.716Z</time>
      </trkpt>
      <trkpt lat="45.7122" lon="6.70809">
        <ele>2537</ele>
        <time>2026-07-29T10:12:45.716Z</time>
      </trkpt>
      <trkpt lat="45.7122" lon="6.70808">
        <ele>2538</ele>
        <time>2026-07-29T10:12:46.716Z</time>
      </trkpt>
      <trkpt lat="45.71219" lon="6.70806">
        <ele>2538</ele>
        <time>2026-07-29T10:12:47.716Z</time>
      </trkpt>
      <trkpt lat="45.71219" lon="6.70804">
        <ele>2538</ele>
        <time>2026-07-29T10:12:48.716Z</time>
      </trkpt>
      <trkpt lat="45.71219" lon="6.70803">
        <ele>2538</ele>
        <time>2026-07-29T10:12:49.716Z</time>
      </trkpt>
      <trkpt lat="45.71218" lon="6.70802">
        <ele>2538</ele>
        <time>2026-07-29T10:12:50.716Z</time>
      </trkpt>
      <trkpt lat="45.71218" lon="6.70802">
        <ele>2537</ele>
        <time>2026-07-29T10:12:51.716Z</time>
      </trkpt>
      <trkpt lat="45.71218" lon="6.70801">
        <ele>2537</ele>
        <time>2026-07-29T10:12:52.716Z</time>
      </trkpt>
      <trkpt lat="45.71218" lon="6.708">
        <ele>2537</ele>
        <time>2026-07-29T10:12:53.716Z</time>
      </trkpt>
      <trkpt lat="45.71218" lon="6.70799">
        <ele>2537</ele>
        <time>2026-07-29T10:12:54.716Z</time>
      </trkpt>
      <trkpt lat="45.71218" lon="6.70797">
        <ele>2537</ele>
        <time>2026-07-29T10:12:55.716Z</time>
      </trkpt>
      <trkpt lat="45.71217" lon="6.70796">
        <ele>2536</ele>
        <time>2026-07-29T10:12:56.716Z</time>
      </trkpt>
      <trkpt lat="45.71217" lon="6.70795">
        <ele>2536</ele>
        <time>2026-07-29T10:12:57.716Z</time>
      </trkpt>
      <trkpt lat="45.71216" lon="6.70793">
        <ele>2536</ele>
        <time>2026-07-29T10:12:58.716Z</time>
      </trkpt>
      <trkpt lat="45.71215" lon="6.70791">
        <ele>2535</ele>
        <time>2026-07-29T10:12:59.716Z</time>
      </trkpt>
      <trkpt lat="45.71215" lon="6.70789">
        <ele>2535</ele>
        <time>2026-07-29T10:13:00.716Z</time>
      </trkpt>
      <trkpt lat="45.71214" lon="6.70787">
        <ele>2534</ele>
        <time>2026-07-29T10:13:01.716Z</time>
      </trkpt>
      <trkpt lat="45.71214" lon="6.70786">
        <ele>2534</ele>
        <time>2026-07-29T10:13:02.716Z</time>
      </trkpt>
      <trkpt lat="45.71213" lon="6.70784">
        <ele>2533</ele>
        <time>2026-07-29T10:13:03.716Z</time>
      </trkpt>
      <trkpt lat="45.71213" lon="6.70783">
        <ele>2533</ele>
        <time>2026-07-29T10:13:04.716Z</time>
      </trkpt>
      <trkpt lat="45.71213" lon="6.70782">
        <ele>2532</ele>
        <time>2026-07-29T10:13:05.716Z</time>
      </trkpt>
      <trkpt lat="45.71212" lon="6.70781">
        <ele>2532</ele>
        <time>2026-07-29T10:13:06.716Z</time>
      </trkpt>
      <trkpt lat="45.71212" lon="6.70779">
        <ele>2532</ele>
        <time>2026-07-29T10:13:07.716Z</time>
      </trkpt>
      <trkpt lat="45.71212" lon="6.70778">
        <ele>2532</ele>
        <time>2026-07-29T10:13:08.716Z</time>
      </trkpt>
      <trkpt lat="45.71211" lon="6.70777">
        <ele>2531</ele>
        <time>2026-07-29T10:13:09.716Z</time>
      </trkpt>
      <trkpt lat="45.7121" lon="6.70775">
        <ele>2531</ele>
        <time>2026-07-29T10:13:10.716Z</time>
      </trkpt>
      <trkpt lat="45.7121" lon="6.70774">
        <ele>2531</ele>
        <time>2026-07-29T10:13:11.716Z</time>
      </trkpt>
      <trkpt lat="45.71209" lon="6.70773">
        <ele>2530</ele>
        <time>2026-07-29T10:13:12.716Z</time>
      </trkpt>
      <trkpt lat="45.71208" lon="6.70772">
        <ele>2530</ele>
        <time>2026-07-29T10:13:13.716Z</time>
      </trkpt>
      <trkpt lat="45.71208" lon="6.70771">
        <ele>2530</ele>
        <time>2026-07-29T10:13:14.716Z</time>
      </trkpt>
      <trkpt lat="45.71207" lon="6.7077">
        <ele>2529</ele>
        <time>2026-07-29T10:13:15.716Z</time>
      </trkpt>
      <trkpt lat="45.71207" lon="6.70769">
        <ele>2529</ele>
        <time>2026-07-29T10:13:16.716Z</time>
      </trkpt>
      <trkpt lat="45.71206" lon="6.70768">
        <ele>2528</ele>
        <time>2026-07-29T10:13:17.716Z</time>
      </trkpt>
      <trkpt lat="45.71205" lon="6.70766">
        <ele>2528</ele>
        <time>2026-07-29T10:13:18.716Z</time>
      </trkpt>
      <trkpt lat="45.71204" lon="6.70765">
        <ele>2528</ele>
        <time>2026-07-29T10:13:19.716Z</time>
      </trkpt>
      <trkpt lat="45.71203" lon="6.70763">
        <ele>2527</ele>
        <time>2026-07-29T10:13:20.716Z</time>
      </trkpt>
      <trkpt lat="45.71202" lon="6.70762">
        <ele>2527</ele>
        <time>2026-07-29T10:13:21.716Z</time>
      </trkpt>
      <trkpt lat="45.71202" lon="6.7076">
        <ele>2526</ele>
        <time>2026-07-29T10:13:22.716Z</time>
      </trkpt>
      <trkpt lat="45.71201" lon="6.70759">
        <ele>2526</ele>
        <time>2026-07-29T10:13:23.716Z</time>
      </trkpt>
      <trkpt lat="45.712" lon="6.70757">
        <ele>2525</ele>
        <time>2026-07-29T10:13:24.716Z</time>
      </trkpt>
      <trkpt lat="45.71199" lon="6.70755">
        <ele>2525</ele>
        <time>2026-07-29T10:13:25.716Z</time>
      </trkpt>
      <trkpt lat="45.71198" lon="6.70753">
        <ele>2524</ele>
        <time>2026-07-29T10:13:26.716Z</time>
      </trkpt>
      <trkpt lat="45.71197" lon="6.70751">
        <ele>2523</ele>
        <time>2026-07-29T10:13:27.716Z</time>
      </trkpt>
      <trkpt lat="45.71197" lon="6.70749">
        <ele>2523</ele>
        <time>2026-07-29T10:13:28.716Z</time>
      </trkpt>
      <trkpt lat="45.71196" lon="6.70747">
        <ele>2522</ele>
        <time>2026-07-29T10:13:29.716Z</time>
      </trkpt>
      <trkpt lat="45.71196" lon="6.70745">
        <ele>2522</ele>
        <time>2026-07-29T10:13:30.716Z</time>
      </trkpt>
      <trkpt lat="45.71196" lon="6.70744">
        <ele>2522</ele>
        <time>2026-07-29T10:13:31.716Z</time>
      </trkpt>
      <trkpt lat="45.71195" lon="6.70742">
        <ele>2522</ele>
        <time>2026-07-29T10:13:32.716Z</time>
      </trkpt>
      <trkpt lat="45.71195" lon="6.70741">
        <ele>2522</ele>
        <time>2026-07-29T10:13:33.716Z</time>
      </trkpt>
      <trkpt lat="45.71194" lon="6.7074">
        <ele>2522</ele>
        <time>2026-07-29T10:13:34.716Z</time>
      </trkpt>
      <trkpt lat="45.71193" lon="6.70739">
        <ele>2522</ele>
        <time>2026-07-29T10:13:35.716Z</time>
      </trkpt>
      <trkpt lat="45.71192" lon="6.70737">
        <ele>2521</ele>
        <time>2026-07-29T10:13:36.716Z</time>
      </trkpt>
      <trkpt lat="45.71191" lon="6.70736">
        <ele>2521</ele>
        <time>2026-07-29T10:13:37.716Z</time>
      </trkpt>
      <trkpt lat="45.7119" lon="6.70735">
        <ele>2520</ele>
        <time>2026-07-29T10:13:38.716Z</time>
      </trkpt>
      <trkpt lat="45.71189" lon="6.70733">
        <ele>2519</ele>
        <time>2026-07-29T10:13:39.716Z</time>
      </trkpt>
      <trkpt lat="45.71188" lon="6.70732">
        <ele>2519</ele>
        <time>2026-07-29T10:13:40.716Z</time>
      </trkpt>
      <trkpt lat="45.71187" lon="6.70731">
        <ele>2518</ele>
        <time>2026-07-29T10:13:41.716Z</time>
      </trkpt>
      <trkpt lat="45.71186" lon="6.70729">
        <ele>2518</ele>
        <time>2026-07-29T10:13:42.716Z</time>
      </trkpt>
      <trkpt lat="45.71186" lon="6.70727">
        <ele>2517</ele>
        <time>2026-07-29T10:13:43.716Z</time>
      </trkpt>
      <trkpt lat="45.71185" lon="6.70726">
        <ele>2517</ele>
        <time>2026-07-29T10:13:44.716Z</time>
      </trkpt>
      <trkpt lat="45.71184" lon="6.70724">
        <ele>2517</ele>
        <time>2026-07-29T10:13:45.716Z</time>
      </trkpt>
      <trkpt lat="45.71182" lon="6.70723">
        <ele>2516</ele>
        <time>2026-07-29T10:13:46.716Z</time>
      </trkpt>
      <trkpt lat="45.71181" lon="6.70721">
        <ele>2516</ele>
        <time>2026-07-29T10:13:47.716Z</time>
      </trkpt>
      <trkpt lat="45.71181" lon="6.7072">
        <ele>2515</ele>
        <time>2026-07-29T10:13:48.716Z</time>
      </trkpt>
      <trkpt lat="45.7118" lon="6.70718">
        <ele>2515</ele>
        <time>2026-07-29T10:13:49.716Z</time>
      </trkpt>
      <trkpt lat="45.71179" lon="6.70716">
        <ele>2514</ele>
        <time>2026-07-29T10:13:50.716Z</time>
      </trkpt>
      <trkpt lat="45.71177" lon="6.70714">
        <ele>2514</ele>
        <time>2026-07-29T10:13:51.716Z</time>
      </trkpt>
      <trkpt lat="45.71176" lon="6.70712">
        <ele>2513</ele>
        <time>2026-07-29T10:13:52.716Z</time>
      </trkpt>
      <trkpt lat="45.71175" lon="6.7071">
        <ele>2513</ele>
        <time>2026-07-29T10:13:53.716Z</time>
      </trkpt>
      <trkpt lat="45.71174" lon="6.70708">
        <ele>2513</ele>
        <time>2026-07-29T10:13:54.716Z</time>
      </trkpt>
      <trkpt lat="45.71173" lon="6.70706">
        <ele>2513</ele>
        <time>2026-07-29T10:13:55.716Z</time>
      </trkpt>
      <trkpt lat="45.71172" lon="6.70705">
        <ele>2513</ele>
        <time>2026-07-29T10:13:56.716Z</time>
      </trkpt>
      <trkpt lat="45.71172" lon="6.70704">
        <ele>2513</ele>
        <time>2026-07-29T10:13:57.716Z</time>
      </trkpt>
      <trkpt lat="45.71172" lon="6.70703">
        <ele>2512</ele>
        <time>2026-07-29T10:13:58.716Z</time>
      </trkpt>
      <trkpt lat="45.71172" lon="6.70702">
        <ele>2512</ele>
        <time>2026-07-29T10:13:59.716Z</time>
      </trkpt>
      <trkpt lat="45.71171" lon="6.707">
        <ele>2512</ele>
        <time>2026-07-29T10:14:00.716Z</time>
      </trkpt>
      <trkpt lat="45.71171" lon="6.70699">
        <ele>2512</ele>
        <time>2026-07-29T10:14:01.716Z</time>
      </trkpt>
      <trkpt lat="45.7117" lon="6.70698">
        <ele>2511</ele>
        <time>2026-07-29T10:14:02.716Z</time>
      </trkpt>
      <trkpt lat="45.7117" lon="6.70697">
        <ele>2511</ele>
        <time>2026-07-29T10:14:03.716Z</time>
      </trkpt>
      <trkpt lat="45.71169" lon="6.70695">
        <ele>2510</ele>
        <time>2026-07-29T10:14:04.716Z</time>
      </trkpt>
      <trkpt lat="45.71168" lon="6.70693">
        <ele>2510</ele>
        <time>2026-07-29T10:14:05.716Z</time>
      </trkpt>
      <trkpt lat="45.71167" lon="6.70691">
        <ele>2510</ele>
        <time>2026-07-29T10:14:06.716Z</time>
      </trkpt>
      <trkpt lat="45.71166" lon="6.7069">
        <ele>2509</ele>
        <time>2026-07-29T10:14:07.716Z</time>
      </trkpt>
      <trkpt lat="45.71165" lon="6.70688">
        <ele>2509</ele>
        <time>2026-07-29T10:14:08.716Z</time>
      </trkpt>
      <trkpt lat="45.71163" lon="6.70686">
        <ele>2508</ele>
        <time>2026-07-29T10:14:09.716Z</time>
      </trkpt>
      <trkpt lat="45.71162" lon="6.70683">
        <ele>2508</ele>
        <time>2026-07-29T10:14:10.716Z</time>
      </trkpt>
      <trkpt lat="45.71161" lon="6.70681">
        <ele>2508</ele>
        <time>2026-07-29T10:14:11.716Z</time>
      </trkpt>
      <trkpt lat="45.71161" lon="6.7068">
        <ele>2507</ele>
        <time>2026-07-29T10:14:12.716Z</time>
      </trkpt>
      <trkpt lat="45.7116" lon="6.70678">
        <ele>2507</ele>
        <time>2026-07-29T10:14:13.716Z</time>
      </trkpt>
      <trkpt lat="45.71159" lon="6.70676">
        <ele>2507</ele>
        <time>2026-07-29T10:14:14.716Z</time>
      </trkpt>
      <trkpt lat="45.71158" lon="6.70674">
        <ele>2506</ele>
        <time>2026-07-29T10:14:15.716Z</time>
      </trkpt>
      <trkpt lat="45.71157" lon="6.70672">
        <ele>2506</ele>
        <time>2026-07-29T10:14:16.716Z</time>
      </trkpt>
      <trkpt lat="45.71156" lon="6.70669">
        <ele>2506</ele>
        <time>2026-07-29T10:14:17.716Z</time>
      </trkpt>
      <trkpt lat="45.71156" lon="6.70666">
        <ele>2505</ele>
        <time>2026-07-29T10:14:18.716Z</time>
      </trkpt>
      <trkpt lat="45.71155" lon="6.70664">
        <ele>2505</ele>
        <time>2026-07-29T10:14:19.716Z</time>
      </trkpt>
      <trkpt lat="45.71154" lon="6.70661">
        <ele>2504</ele>
        <time>2026-07-29T10:14:20.716Z</time>
      </trkpt>
      <trkpt lat="45.71154" lon="6.70658">
        <ele>2504</ele>
        <time>2026-07-29T10:14:21.716Z</time>
      </trkpt>
      <trkpt lat="45.71153" lon="6.70655">
        <ele>2503</ele>
        <time>2026-07-29T10:14:22.716Z</time>
      </trkpt>
      <trkpt lat="45.71153" lon="6.70653">
        <ele>2503</ele>
        <time>2026-07-29T10:14:23.716Z</time>
      </trkpt>
      <trkpt lat="45.71152" lon="6.7065">
        <ele>2502</ele>
        <time>2026-07-29T10:14:24.716Z</time>
      </trkpt>
      <trkpt lat="45.71152" lon="6.70648">
        <ele>2502</ele>
        <time>2026-07-29T10:14:25.716Z</time>
      </trkpt>
      <trkpt lat="45.7115" lon="6.70645">
        <ele>2501</ele>
        <time>2026-07-29T10:14:26.716Z</time>
      </trkpt>
      <trkpt lat="45.71149" lon="6.70642">
        <ele>2501</ele>
        <time>2026-07-29T10:14:27.716Z</time>
      </trkpt>
      <trkpt lat="45.71148" lon="6.7064">
        <ele>2501</ele>
        <time>2026-07-29T10:14:28.716Z</time>
      </trkpt>
      <trkpt lat="45.71147" lon="6.70637">
        <ele>2500</ele>
        <time>2026-07-29T10:14:29.716Z</time>
      </trkpt>
      <trkpt lat="45.71145" lon="6.70634">
        <ele>2500</ele>
        <time>2026-07-29T10:14:30.716Z</time>
      </trkpt>
      <trkpt lat="45.71144" lon="6.70631">
        <ele>2500</ele>
        <time>2026-07-29T10:14:31.716Z</time>
      </trkpt>
      <trkpt lat="45.71143" lon="6.70629">
        <ele>2500</ele>
        <time>2026-07-29T10:14:32.716Z</time>
      </trkpt>
      <trkpt lat="45.71142" lon="6.70626">
        <ele>2500</ele>
        <time>2026-07-29T10:14:33.716Z</time>
      </trkpt>
      <trkpt lat="45.71141" lon="6.70624">
        <ele>2500</ele>
        <time>2026-07-29T10:14:34.716Z</time>
      </trkpt>
      <trkpt lat="45.71139" lon="6.70622">
        <ele>2500</ele>
        <time>2026-07-29T10:14:35.716Z</time>
      </trkpt>
      <trkpt lat="45.71138" lon="6.7062">
        <ele>2500</ele>
        <time>2026-07-29T10:14:36.716Z</time>
      </trkpt>
      <trkpt lat="45.71137" lon="6.70618">
        <ele>2500</ele>
        <time>2026-07-29T10:14:37.716Z</time>
      </trkpt>
      <trkpt lat="45.71136" lon="6.70616">
        <ele>2500</ele>
        <time>2026-07-29T10:14:38.716Z</time>
      </trkpt>
      <trkpt lat="45.71135" lon="6.70614">
        <ele>2500</ele>
        <time>2026-07-29T10:14:39.716Z</time>
      </trkpt>
      <trkpt lat="45.71134" lon="6.70612">
        <ele>2500</ele>
        <time>2026-07-29T10:14:40.716Z</time>
      </trkpt>
      <trkpt lat="45.71133" lon="6.70609">
        <ele>2500</ele>
        <time>2026-07-29T10:14:41.716Z</time>
      </trkpt>
      <trkpt lat="45.71132" lon="6.70607">
        <ele>2500</ele>
        <time>2026-07-29T10:14:42.716Z</time>
      </trkpt>
      <trkpt lat="45.71131" lon="6.70604">
        <ele>2500</ele>
        <time>2026-07-29T10:14:43.716Z</time>
      </trkpt>
      <trkpt lat="45.71131" lon="6.70602">
        <ele>2500</ele>
        <time>2026-07-29T10:14:44.716Z</time>
      </trkpt>
      <trkpt lat="45.7113" lon="6.706">
        <ele>2500</ele>
        <time>2026-07-29T10:14:45.716Z</time>
      </trkpt>
      <trkpt lat="45.71129" lon="6.70598">
        <ele>2500</ele>
        <time>2026-07-29T10:14:46.716Z</time>
      </trkpt>
      <trkpt lat="45.71128" lon="6.70596">
        <ele>2500</ele>
        <time>2026-07-29T10:14:47.716Z</time>
      </trkpt>
      <trkpt lat="45.71128" lon="6.70595">
        <ele>2500</ele>
        <time>2026-07-29T10:14:48.716Z</time>
      </trkpt>
      <trkpt lat="45.71127" lon="6.70593">
        <ele>2500</ele>
        <time>2026-07-29T10:14:49.716Z</time>
      </trkpt>
      <trkpt lat="45.71127" lon="6.70592">
        <ele>2501</ele>
        <time>2026-07-29T10:14:50.716Z</time>
      </trkpt>
      <trkpt lat="45.71127" lon="6.7059">
        <ele>2500</ele>
        <time>2026-07-29T10:14:51.716Z</time>
      </trkpt>
      <trkpt lat="45.71127" lon="6.70589">
        <ele>2500</ele>
        <time>2026-07-29T10:14:52.716Z</time>
      </trkpt>
      <trkpt lat="45.71126" lon="6.70588">
        <ele>2500</ele>
        <time>2026-07-29T10:14:53.716Z</time>
      </trkpt>
      <trkpt lat="45.71126" lon="6.70587">
        <ele>2500</ele>
        <time>2026-07-29T10:14:54.716Z</time>
      </trkpt>
      <trkpt lat="45.71126" lon="6.70586">
        <ele>2500</ele>
        <time>2026-07-29T10:14:55.716Z</time>
      </trkpt>
      <trkpt lat="45.71125" lon="6.70585">
        <ele>2500</ele>
        <time>2026-07-29T10:14:56.716Z</time>
      </trkpt>
      <trkpt lat="45.71125" lon="6.70583">
        <ele>2500</ele>
        <time>2026-07-29T10:14:57.716Z</time>
      </trkpt>
      <trkpt lat="45.71125" lon="6.70582">
        <ele>2500</ele>
        <time>2026-07-29T10:14:58.716Z</time>
      </trkpt>
      <trkpt lat="45.71124" lon="6.70581">
        <ele>2500</ele>
        <time>2026-07-29T10:14:59.716Z</time>
      </trkpt>
      <trkpt lat="45.71124" lon="6.7058">
        <ele>2500</ele>
        <time>2026-07-29T10:15:00.716Z</time>
      </trkpt>
      <trkpt lat="45.71123" lon="6.70579">
        <ele>2500</ele>
        <time>2026-07-29T10:15:01.716Z</time>
      </trkpt>
      <trkpt lat="45.71123" lon="6.70577">
        <ele>2500</ele>
        <time>2026-07-29T10:15:02.716Z</time>
      </trkpt>
      <trkpt lat="45.71122" lon="6.70575">
        <ele>2500</ele>
        <time>2026-07-29T10:15:03.716Z</time>
      </trkpt>
      <trkpt lat="45.71121" lon="6.70573">
        <ele>2500</ele>
        <time>2026-07-29T10:15:04.716Z</time>
      </trkpt>
      <trkpt lat="45.7112" lon="6.70571">
        <ele>2500</ele>
        <time>2026-07-29T10:15:05.716Z</time>
      </trkpt>
      <trkpt lat="45.71119" lon="6.70569">
        <ele>2500</ele>
        <time>2026-07-29T10:15:06.716Z</time>
      </trkpt>
      <trkpt lat="45.71119" lon="6.70568">
        <ele>2500</ele>
        <time>2026-07-29T10:15:07.716Z</time>
      </trkpt>
      <trkpt lat="45.71118" lon="6.70566">
        <ele>2500</ele>
        <time>2026-07-29T10:15:08.716Z</time>
      </trkpt>
      <trkpt lat="45.71117" lon="6.70564">
        <ele>2500</ele>
        <time>2026-07-29T10:15:09.716Z</time>
      </trkpt>
      <trkpt lat="45.71116" lon="6.70562">
        <ele>2500</ele>
        <time>2026-07-29T10:15:10.716Z</time>
      </trkpt>
      <trkpt lat="45.71115" lon="6.70561">
        <ele>2500</ele>
        <time>2026-07-29T10:15:11.716Z</time>
      </trkpt>
      <trkpt lat="45.71114" lon="6.7056">
        <ele>2500</ele>
        <time>2026-07-29T10:15:12.716Z</time>
      </trkpt>
      <trkpt lat="45.71113" lon="6.70558">
        <ele>2501</ele>
        <time>2026-07-29T10:15:13.716Z</time>
      </trkpt>
      <trkpt lat="45.71112" lon="6.70557">
        <ele>2501</ele>
        <time>2026-07-29T10:15:14.716Z</time>
      </trkpt>
      <trkpt lat="45.71112" lon="6.70556">
        <ele>2501</ele>
        <time>2026-07-29T10:15:15.716Z</time>
      </trkpt>
      <trkpt lat="45.71112" lon="6.70555">
        <ele>2501</ele>
        <time>2026-07-29T10:15:16.716Z</time>
      </trkpt>
      <trkpt lat="45.71112" lon="6.70553">
        <ele>2501</ele>
        <time>2026-07-29T10:15:17.716Z</time>
      </trkpt>
      <trkpt lat="45.71112" lon="6.70552">
        <ele>2501</ele>
        <time>2026-07-29T10:15:18.716Z</time>
      </trkpt>
      <trkpt lat="45.71111" lon="6.7055">
        <ele>2501</ele>
        <time>2026-07-29T10:15:19.716Z</time>
      </trkpt>
      <trkpt lat="45.71111" lon="6.70548">
        <ele>2501</ele>
        <time>2026-07-29T10:15:20.716Z</time>
      </trkpt>
      <trkpt lat="45.7111" lon="6.70547">
        <ele>2501</ele>
        <time>2026-07-29T10:15:21.716Z</time>
      </trkpt>
      <trkpt lat="45.71109" lon="6.70545">
        <ele>2501</ele>
        <time>2026-07-29T10:15:22.716Z</time>
      </trkpt>
      <trkpt lat="45.71109" lon="6.70543">
        <ele>2501</ele>
        <time>2026-07-29T10:15:23.716Z</time>
      </trkpt>
      <trkpt lat="45.71108" lon="6.70542">
        <ele>2501</ele>
        <time>2026-07-29T10:15:24.716Z</time>
      </trkpt>
      <trkpt lat="45.71107" lon="6.7054">
        <ele>2501</ele>
        <time>2026-07-29T10:15:25.716Z</time>
      </trkpt>
      <trkpt lat="45.71106" lon="6.70539">
        <ele>2500</ele>
        <time>2026-07-29T10:15:26.716Z</time>
      </trkpt>
      <trkpt lat="45.71105" lon="6.70537">
        <ele>2500</ele>
        <time>2026-07-29T10:15:27.716Z</time>
      </trkpt>
      <trkpt lat="45.71104" lon="6.70536">
        <ele>2500</ele>
        <time>2026-07-29T10:15:28.716Z</time>
      </trkpt>
      <trkpt lat="45.71103" lon="6.70535">
        <ele>2500</ele>
        <time>2026-07-29T10:15:29.716Z</time>
      </trkpt>
      <trkpt lat="45.71103" lon="6.70534">
        <ele>2500</ele>
        <time>2026-07-29T10:15:30.716Z</time>
      </trkpt>
      <trkpt lat="45.71101" lon="6.70532">
        <ele>2500</ele>
        <time>2026-07-29T10:15:31.716Z</time>
      </trkpt>
      <trkpt lat="45.711" lon="6.70531">
        <ele>2500</ele>
        <time>2026-07-29T10:15:32.716Z</time>
      </trkpt>
      <trkpt lat="45.71099" lon="6.70529">
        <ele>2500</ele>
        <time>2026-07-29T10:15:33.716Z</time>
      </trkpt>
      <trkpt lat="45.71098" lon="6.70528">
        <ele>2500</ele>
        <time>2026-07-29T10:15:34.716Z</time>
      </trkpt>
      <trkpt lat="45.71097" lon="6.70527">
        <ele>2499</ele>
        <time>2026-07-29T10:15:35.716Z</time>
      </trkpt>
      <trkpt lat="45.71096" lon="6.70525">
        <ele>2499</ele>
        <time>2026-07-29T10:15:36.716Z</time>
      </trkpt>
      <trkpt lat="45.71095" lon="6.70524">
        <ele>2499</ele>
        <time>2026-07-29T10:15:37.716Z</time>
      </trkpt>
      <trkpt lat="45.71093" lon="6.70522">
        <ele>2499</ele>
        <time>2026-07-29T10:15:38.716Z</time>
      </trkpt>
      <trkpt lat="45.71092" lon="6.70521">
        <ele>2499</ele>
        <time>2026-07-29T10:15:39.716Z</time>
      </trkpt>
      <trkpt lat="45.71091" lon="6.70519">
        <ele>2499</ele>
        <time>2026-07-29T10:15:40.716Z</time>
      </trkpt>
      <trkpt lat="45.7109" lon="6.70518">
        <ele>2499</ele>
        <time>2026-07-29T10:15:41.716Z</time>
      </trkpt>
      <trkpt lat="45.71088" lon="6.70516">
        <ele>2499</ele>
        <time>2026-07-29T10:15:42.716Z</time>
      </trkpt>
      <trkpt lat="45.71087" lon="6.70514">
        <ele>2499</ele>
        <time>2026-07-29T10:15:43.716Z</time>
      </trkpt>
      <trkpt lat="45.71085" lon="6.70512">
        <ele>2499</ele>
        <time>2026-07-29T10:15:44.716Z</time>
      </trkpt>
      <trkpt lat="45.71084" lon="6.7051">
        <ele>2499</ele>
        <time>2026-07-29T10:15:45.716Z</time>
      </trkpt>
      <trkpt lat="45.71083" lon="6.70508">
        <ele>2499</ele>
        <time>2026-07-29T10:15:46.716Z</time>
      </trkpt>
      <trkpt lat="45.71081" lon="6.70506">
        <ele>2499</ele>
        <time>2026-07-29T10:15:47.716Z</time>
      </trkpt>
      <trkpt lat="45.7108" lon="6.70504">
        <ele>2499</ele>
        <time>2026-07-29T10:15:48.716Z</time>
      </trkpt>
      <trkpt lat="45.71078" lon="6.70502">
        <ele>2500</ele>
        <time>2026-07-29T10:15:49.716Z</time>
      </trkpt>
      <trkpt lat="45.71077" lon="6.705">
        <ele>2500</ele>
        <time>2026-07-29T10:15:50.716Z</time>
      </trkpt>
      <trkpt lat="45.71075" lon="6.70498">
        <ele>2500</ele>
        <time>2026-07-29T10:15:51.716Z</time>
      </trkpt>
      <trkpt lat="45.71074" lon="6.70496">
        <ele>2500</ele>
        <time>2026-07-29T10:15:52.716Z</time>
      </trkpt>
      <trkpt lat="45.71072" lon="6.70494">
        <ele>2500</ele>
        <time>2026-07-29T10:15:53.716Z</time>
      </trkpt>
      <trkpt lat="45.71071" lon="6.70492">
        <ele>2500</ele>
        <time>2026-07-29T10:15:54.716Z</time>
      </trkpt>
      <trkpt lat="45.7107" lon="6.7049">
        <ele>2500</ele>
        <time>2026-07-29T10:15:55.716Z</time>
      </trkpt>
      <trkpt lat="45.71068" lon="6.70488">
        <ele>2500</ele>
        <time>2026-07-29T10:15:56.716Z</time>
      </trkpt>
      <trkpt lat="45.71067" lon="6.70486">
        <ele>2500</ele>
        <time>2026-07-29T10:15:57.716Z</time>
      </trkpt>
      <trkpt lat="45.71065" lon="6.70484">
        <ele>2500</ele>
        <time>2026-07-29T10:15:58.716Z</time>
      </trkpt>
      <trkpt lat="45.71064" lon="6.70482">
        <ele>2500</ele>
        <time>2026-07-29T10:15:59.716Z</time>
      </trkpt>
      <trkpt lat="45.71062" lon="6.7048">
        <ele>2500</ele>
        <time>2026-07-29T10:16:00.716Z</time>
      </trkpt>
      <trkpt lat="45.71061" lon="6.70478">
        <ele>2500</ele>
        <time>2026-07-29T10:16:01.716Z</time>
      </trkpt>
      <trkpt lat="45.71059" lon="6.70476">
        <ele>2500</ele>
        <time>2026-07-29T10:16:02.716Z</time>
      </trkpt>
      <trkpt lat="45.71058" lon="6.70474">
        <ele>2500</ele>
        <time>2026-07-29T10:16:03.716Z</time>
      </trkpt>
      <trkpt lat="45.71057" lon="6.70472">
        <ele>2500</ele>
        <time>2026-07-29T10:16:04.716Z</time>
      </trkpt>
      <trkpt lat="45.71056" lon="6.70471">
        <ele>2501</ele>
        <time>2026-07-29T10:16:05.716Z</time>
      </trkpt>
      <trkpt lat="45.71055" lon="6.70469">
        <ele>2501</ele>
        <time>2026-07-29T10:16:06.716Z</time>
      </trkpt>
      <trkpt lat="45.71055" lon="6.70468">
        <ele>2500</ele>
        <time>2026-07-29T10:16:07.716Z</time>
      </trkpt>
      <trkpt lat="45.71055" lon="6.70466">
        <ele>2500</ele>
        <time>2026-07-29T10:16:08.716Z</time>
      </trkpt>
      <trkpt lat="45.71055" lon="6.70465">
        <ele>2500</ele>
        <time>2026-07-29T10:16:09.716Z</time>
      </trkpt>
      <trkpt lat="45.71055" lon="6.70463">
        <ele>2500</ele>
        <time>2026-07-29T10:16:10.716Z</time>
      </trkpt>
      <trkpt lat="45.71055" lon="6.70462">
        <ele>2499</ele>
        <time>2026-07-29T10:16:11.716Z</time>
      </trkpt>
      <trkpt lat="45.71055" lon="6.70461">
        <ele>2499</ele>
        <time>2026-07-29T10:16:12.716Z</time>
      </trkpt>
      <trkpt lat="45.71055" lon="6.7046">
        <ele>2499</ele>
        <time>2026-07-29T10:16:13.716Z</time>
      </trkpt>
      <trkpt lat="45.71055" lon="6.70459">
        <ele>2498</ele>
        <time>2026-07-29T10:16:14.716Z</time>
      </trkpt>
      <trkpt lat="45.71055" lon="6.70457">
        <ele>2497</ele>
        <time>2026-07-29T10:16:15.716Z</time>
      </trkpt>
      <trkpt lat="45.71055" lon="6.70456">
        <ele>2497</ele>
        <time>2026-07-29T10:16:16.716Z</time>
      </trkpt>
      <trkpt lat="45.71055" lon="6.70455">
        <ele>2497</ele>
        <time>2026-07-29T10:16:17.716Z</time>
      </trkpt>
      <trkpt lat="45.71054" lon="6.70454">
        <ele>2496</ele>
        <time>2026-07-29T10:16:18.716Z</time>
      </trkpt>
      <trkpt lat="45.71054" lon="6.70454">
        <ele>2496</ele>
        <time>2026-07-29T10:16:19.716Z</time>
      </trkpt>
      <trkpt lat="45.71054" lon="6.70453">
        <ele>2495</ele>
        <time>2026-07-29T10:16:20.716Z</time>
      </trkpt>
      <trkpt lat="45.71054" lon="6.70452">
        <ele>2495</ele>
        <time>2026-07-29T10:16:21.716Z</time>
      </trkpt>
      <trkpt lat="45.71055" lon="6.70451">
        <ele>2495</ele>
        <time>2026-07-29T10:16:22.716Z</time>
      </trkpt>
      <trkpt lat="45.71054" lon="6.70451">
        <ele>2494</ele>
        <time>2026-07-29T10:16:23.716Z</time>
      </trkpt>
      <trkpt lat="45.71054" lon="6.7045">
        <ele>2494</ele>
        <time>2026-07-29T10:16:24.716Z</time>
      </trkpt>
      <trkpt lat="45.71054" lon="6.70448">
        <ele>2494</ele>
        <time>2026-07-29T10:16:25.716Z</time>
      </trkpt>
      <trkpt lat="45.71054" lon="6.70448">
        <ele>2494</ele>
        <time>2026-07-29T10:16:26.716Z</time>
      </trkpt>
      <trkpt lat="45.71055" lon="6.70448">
        <ele>2494</ele>
        <time>2026-07-29T10:16:27.716Z</time>
      </trkpt>
      <trkpt lat="45.71056" lon="6.70448">
        <ele>2494</ele>
        <time>2026-07-29T10:16:28.716Z</time>
      </trkpt>
      <trkpt lat="45.71056" lon="6.70449">
        <ele>2493</ele>
        <time>2026-07-29T10:16:29.716Z</time>
      </trkpt>
      <trkpt lat="45.71057" lon="6.7045">
        <ele>2493</ele>
        <time>2026-07-29T10:16:30.716Z</time>
      </trkpt>
      <trkpt lat="45.71057" lon="6.7045">
        <ele>2492</ele>
        <time>2026-07-29T10:16:31.716Z</time>
      </trkpt>
      <trkpt lat="45.71058" lon="6.7045">
        <ele>2492</ele>
        <time>2026-07-29T10:16:32.716Z</time>
      </trkpt>
      <trkpt lat="45.71057" lon="6.70449">
        <ele>2492</ele>
        <time>2026-07-29T10:16:33.716Z</time>
      </trkpt>
      <trkpt lat="45.71057" lon="6.70449">
        <ele>2491</ele>
        <time>2026-07-29T10:16:34.716Z</time>
      </trkpt>
      <trkpt lat="45.71057" lon="6.70448">
        <ele>2491</ele>
        <time>2026-07-29T10:16:35.716Z</time>
      </trkpt>
      <trkpt lat="45.71057" lon="6.70447">
        <ele>2491</ele>
        <time>2026-07-29T10:16:36.716Z</time>
      </trkpt>
      <trkpt lat="45.71057" lon="6.70446">
        <ele>2491</ele>
        <time>2026-07-29T10:16:37.716Z</time>
      </trkpt>
      <trkpt lat="45.71057" lon="6.70445">
        <ele>2490</ele>
        <time>2026-07-29T10:16:38.716Z</time>
      </trkpt>
      <trkpt lat="45.71057" lon="6.70444">
        <ele>2490</ele>
        <time>2026-07-29T10:16:39.716Z</time>
      </trkpt>
      <trkpt lat="45.71057" lon="6.70443">
        <ele>2490</ele>
        <time>2026-07-29T10:16:40.716Z</time>
      </trkpt>
      <trkpt lat="45.71056" lon="6.70442">
        <ele>2490</ele>
        <time>2026-07-29T10:16:41.716Z</time>
      </trkpt>
      <trkpt lat="45.71056" lon="6.70441">
        <ele>2490</ele>
        <time>2026-07-29T10:16:42.716Z</time>
      </trkpt>
      <trkpt lat="45.71055" lon="6.70439">
        <ele>2490</ele>
        <time>2026-07-29T10:16:43.716Z</time>
      </trkpt>
      <trkpt lat="45.71055" lon="6.70438">
        <ele>2490</ele>
        <time>2026-07-29T10:16:44.716Z</time>
      </trkpt>
      <trkpt lat="45.71054" lon="6.70436">
        <ele>2490</ele>
        <time>2026-07-29T10:16:45.716Z</time>
      </trkpt>
      <trkpt lat="45.71054" lon="6.70435">
        <ele>2490</ele>
        <time>2026-07-29T10:16:46.716Z</time>
      </trkpt>
      <trkpt lat="45.71053" lon="6.70434">
        <ele>2489</ele>
        <time>2026-07-29T10:16:47.716Z</time>
      </trkpt>
      <trkpt lat="45.71053" lon="6.70433">
        <ele>2489</ele>
        <time>2026-07-29T10:16:48.716Z</time>
      </trkpt>
      <trkpt lat="45.71052" lon="6.70432">
        <ele>2489</ele>
        <time>2026-07-29T10:16:49.716Z</time>
      </trkpt>
      <trkpt lat="45.71052" lon="6.7043">
        <ele>2488</ele>
        <time>2026-07-29T10:16:50.716Z</time>
      </trkpt>
      <trkpt lat="45.71052" lon="6.70429">
        <ele>2488</ele>
        <time>2026-07-29T10:16:51.716Z</time>
      </trkpt>
      <trkpt lat="45.71051" lon="6.70428">
        <ele>2487</ele>
        <time>2026-07-29T10:16:52.716Z</time>
      </trkpt>
      <trkpt lat="45.71051" lon="6.70427">
        <ele>2487</ele>
        <time>2026-07-29T10:16:53.716Z</time>
      </trkpt>
      <trkpt lat="45.71052" lon="6.70426">
        <ele>2486</ele>
        <time>2026-07-29T10:16:54.716Z</time>
      </trkpt>
      <trkpt lat="45.71053" lon="6.70426">
        <ele>2486</ele>
        <time>2026-07-29T10:16:55.716Z</time>
      </trkpt>
      <trkpt lat="45.71054" lon="6.70427">
        <ele>2486</ele>
        <time>2026-07-29T10:16:56.716Z</time>
      </trkpt>
      <trkpt lat="45.71054" lon="6.70427">
        <ele>2486</ele>
        <time>2026-07-29T10:16:57.716Z</time>
      </trkpt>
      <trkpt lat="45.71054" lon="6.70427">
        <ele>2485</ele>
        <time>2026-07-29T10:16:58.716Z</time>
      </trkpt>
      <trkpt lat="45.71054" lon="6.70425">
        <ele>2485</ele>
        <time>2026-07-29T10:16:59.716Z</time>
      </trkpt>
      <trkpt lat="45.71053" lon="6.70423">
        <ele>2484</ele>
        <time>2026-07-29T10:17:00.716Z</time>
      </trkpt>
      <trkpt lat="45.71052" lon="6.70422">
        <ele>2484</ele>
        <time>2026-07-29T10:17:01.716Z</time>
      </trkpt>
      <trkpt lat="45.71052" lon="6.7042">
        <ele>2484</ele>
        <time>2026-07-29T10:17:02.716Z</time>
      </trkpt>
      <trkpt lat="45.71051" lon="6.70418">
        <ele>2483</ele>
        <time>2026-07-29T10:17:03.716Z</time>
      </trkpt>
      <trkpt lat="45.71051" lon="6.70416">
        <ele>2482</ele>
        <time>2026-07-29T10:17:04.716Z</time>
      </trkpt>
      <trkpt lat="45.7105" lon="6.70414">
        <ele>2482</ele>
        <time>2026-07-29T10:17:05.716Z</time>
      </trkpt>
      <trkpt lat="45.7105" lon="6.70413">
        <ele>2482</ele>
        <time>2026-07-29T10:17:06.716Z</time>
      </trkpt>
      <trkpt lat="45.71049" lon="6.70412">
        <ele>2481</ele>
        <time>2026-07-29T10:17:07.716Z</time>
      </trkpt>
      <trkpt lat="45.71049" lon="6.70411">
        <ele>2481</ele>
        <time>2026-07-29T10:17:08.716Z</time>
      </trkpt>
      <trkpt lat="45.71048" lon="6.70409">
        <ele>2481</ele>
        <time>2026-07-29T10:17:09.716Z</time>
      </trkpt>
      <trkpt lat="45.71048" lon="6.70406">
        <ele>2480</ele>
        <time>2026-07-29T10:17:10.716Z</time>
      </trkpt>
      <trkpt lat="45.71047" lon="6.70404">
        <ele>2480</ele>
        <time>2026-07-29T10:17:11.716Z</time>
      </trkpt>
      <trkpt lat="45.71047" lon="6.70401">
        <ele>2479</ele>
        <time>2026-07-29T10:17:12.716Z</time>
      </trkpt>
      <trkpt lat="45.71046" lon="6.70398">
        <ele>2479</ele>
        <time>2026-07-29T10:17:13.716Z</time>
      </trkpt>
      <trkpt lat="45.71045" lon="6.70396">
        <ele>2479</ele>
        <time>2026-07-29T10:17:14.716Z</time>
      </trkpt>
      <trkpt lat="45.71044" lon="6.70393">
        <ele>2478</ele>
        <time>2026-07-29T10:17:15.716Z</time>
      </trkpt>
      <trkpt lat="45.71044" lon="6.70391">
        <ele>2478</ele>
        <time>2026-07-29T10:17:16.716Z</time>
      </trkpt>
      <trkpt lat="45.71043" lon="6.70389">
        <ele>2478</ele>
        <time>2026-07-29T10:17:17.716Z</time>
      </trkpt>
      <trkpt lat="45.71042" lon="6.70388">
        <ele>2478</ele>
        <time>2026-07-29T10:17:18.716Z</time>
      </trkpt>
      <trkpt lat="45.71042" lon="6.70386">
        <ele>2477</ele>
        <time>2026-07-29T10:17:19.716Z</time>
      </trkpt>
      <trkpt lat="45.71041" lon="6.70385">
        <ele>2477</ele>
        <time>2026-07-29T10:17:20.716Z</time>
      </trkpt>
      <trkpt lat="45.71041" lon="6.70383">
        <ele>2476</ele>
        <time>2026-07-29T10:17:21.716Z</time>
      </trkpt>
      <trkpt lat="45.7104" lon="6.70382">
        <ele>2475</ele>
        <time>2026-07-29T10:17:22.716Z</time>
      </trkpt>
      <trkpt lat="45.71039" lon="6.7038">
        <ele>2475</ele>
        <time>2026-07-29T10:17:23.716Z</time>
      </trkpt>
      <trkpt lat="45.71039" lon="6.70378">
        <ele>2475</ele>
        <time>2026-07-29T10:17:24.716Z</time>
      </trkpt>
      <trkpt lat="45.71038" lon="6.70377">
        <ele>2474</ele>
        <time>2026-07-29T10:17:25.716Z</time>
      </trkpt>
      <trkpt lat="45.71038" lon="6.70375">
        <ele>2474</ele>
        <time>2026-07-29T10:17:26.716Z</time>
      </trkpt>
      <trkpt lat="45.71037" lon="6.70373">
        <ele>2474</ele>
        <time>2026-07-29T10:17:27.716Z</time>
      </trkpt>
      <trkpt lat="45.71037" lon="6.70371">
        <ele>2473</ele>
        <time>2026-07-29T10:17:28.716Z</time>
      </trkpt>
      <trkpt lat="45.71037" lon="6.7037">
        <ele>2473</ele>
        <time>2026-07-29T10:17:29.716Z</time>
      </trkpt>
      <trkpt lat="45.71037" lon="6.70368">
        <ele>2472</ele>
        <time>2026-07-29T10:17:30.716Z</time>
      </trkpt>
      <trkpt lat="45.71038" lon="6.70367">
        <ele>2472</ele>
        <time>2026-07-29T10:17:31.716Z</time>
      </trkpt>
      <trkpt lat="45.71038" lon="6.70367">
        <ele>2472</ele>
        <time>2026-07-29T10:17:32.716Z</time>
      </trkpt>
      <trkpt lat="45.71039" lon="6.70367">
        <ele>2471</ele>
        <time>2026-07-29T10:17:33.716Z</time>
      </trkpt>
      <trkpt lat="45.71039" lon="6.70367">
        <ele>2471</ele>
        <time>2026-07-29T10:17:34.716Z</time>
      </trkpt>
      <trkpt lat="45.7104" lon="6.70367">
        <ele>2470</ele>
        <time>2026-07-29T10:17:35.716Z</time>
      </trkpt>
      <trkpt lat="45.71041" lon="6.70367">
        <ele>2470</ele>
        <time>2026-07-29T10:17:36.716Z</time>
      </trkpt>
      <trkpt lat="45.71041" lon="6.70367">
        <ele>2470</ele>
        <time>2026-07-29T10:17:37.716Z</time>
      </trkpt>
      <trkpt lat="45.71042" lon="6.70367">
        <ele>2469</ele>
        <time>2026-07-29T10:17:38.716Z</time>
      </trkpt>
      <trkpt lat="45.71042" lon="6.70367">
        <ele>2469</ele>
        <time>2026-07-29T10:17:39.716Z</time>
      </trkpt>
      <trkpt lat="45.71042" lon="6.70366">
        <ele>2468</ele>
        <time>2026-07-29T10:17:40.716Z</time>
      </trkpt>
      <trkpt lat="45.71042" lon="6.70365">
        <ele>2468</ele>
        <time>2026-07-29T10:17:41.716Z</time>
      </trkpt>
      <trkpt lat="45.71042" lon="6.70364">
        <ele>2468</ele>
        <time>2026-07-29T10:17:42.716Z</time>
      </trkpt>
      <trkpt lat="45.71042" lon="6.70363">
        <ele>2467</ele>
        <time>2026-07-29T10:17:43.716Z</time>
      </trkpt>
      <trkpt lat="45.71041" lon="6.70361">
        <ele>2467</ele>
        <time>2026-07-29T10:17:44.716Z</time>
      </trkpt>
      <trkpt lat="45.71041" lon="6.7036">
        <ele>2466</ele>
        <time>2026-07-29T10:17:45.716Z</time>
      </trkpt>
      <trkpt lat="45.71041" lon="6.70358">
        <ele>2466</ele>
        <time>2026-07-29T10:17:46.716Z</time>
      </trkpt>
      <trkpt lat="45.7104" lon="6.70356">
        <ele>2465</ele>
        <time>2026-07-29T10:17:47.716Z</time>
      </trkpt>
      <trkpt lat="45.7104" lon="6.70355">
        <ele>2465</ele>
        <time>2026-07-29T10:17:48.716Z</time>
      </trkpt>
      <trkpt lat="45.7104" lon="6.70353">
        <ele>2465</ele>
        <time>2026-07-29T10:17:49.716Z</time>
      </trkpt>
      <trkpt lat="45.71039" lon="6.70352">
        <ele>2465</ele>
        <time>2026-07-29T10:17:50.716Z</time>
      </trkpt>
      <trkpt lat="45.71039" lon="6.7035">
        <ele>2464</ele>
        <time>2026-07-29T10:17:51.716Z</time>
      </trkpt>
      <trkpt lat="45.71039" lon="6.70349">
        <ele>2464</ele>
        <time>2026-07-29T10:17:52.716Z</time>
      </trkpt>
      <trkpt lat="45.71039" lon="6.70347">
        <ele>2464</ele>
        <time>2026-07-29T10:17:53.716Z</time>
      </trkpt>
      <trkpt lat="45.71038" lon="6.70345">
        <ele>2463</ele>
        <time>2026-07-29T10:17:54.716Z</time>
      </trkpt>
      <trkpt lat="45.71038" lon="6.70343">
        <ele>2463</ele>
        <time>2026-07-29T10:17:55.716Z</time>
      </trkpt>
      <trkpt lat="45.71037" lon="6.70342">
        <ele>2463</ele>
        <time>2026-07-29T10:17:56.716Z</time>
      </trkpt>
      <trkpt lat="45.71037" lon="6.7034">
        <ele>2462</ele>
        <time>2026-07-29T10:17:57.716Z</time>
      </trkpt>
      <trkpt lat="45.71036" lon="6.70338">
        <ele>2462</ele>
        <time>2026-07-29T10:17:58.716Z</time>
      </trkpt>
      <trkpt lat="45.71035" lon="6.70336">
        <ele>2461</ele>
        <time>2026-07-29T10:17:59.716Z</time>
      </trkpt>
      <trkpt lat="45.71035" lon="6.70334">
        <ele>2461</ele>
        <time>2026-07-29T10:18:00.716Z</time>
      </trkpt>
      <trkpt lat="45.71035" lon="6.70332">
        <ele>2461</ele>
        <time>2026-07-29T10:18:01.716Z</time>
      </trkpt>
      <trkpt lat="45.71034" lon="6.70331">
        <ele>2460</ele>
        <time>2026-07-29T10:18:02.716Z</time>
      </trkpt>
      <trkpt lat="45.71033" lon="6.70329">
        <ele>2460</ele>
        <time>2026-07-29T10:18:03.716Z</time>
      </trkpt>
      <trkpt lat="45.71033" lon="6.70327">
        <ele>2459</ele>
        <time>2026-07-29T10:18:04.716Z</time>
      </trkpt>
      <trkpt lat="45.71032" lon="6.70326">
        <ele>2459</ele>
        <time>2026-07-29T10:18:05.716Z</time>
      </trkpt>
      <trkpt lat="45.71031" lon="6.70324">
        <ele>2459</ele>
        <time>2026-07-29T10:18:06.716Z</time>
      </trkpt>
      <trkpt lat="45.7103" lon="6.70322">
        <ele>2459</ele>
        <time>2026-07-29T10:18:07.716Z</time>
      </trkpt>
      <trkpt lat="45.71029" lon="6.70321">
        <ele>2459</ele>
        <time>2026-07-29T10:18:08.716Z</time>
      </trkpt>
      <trkpt lat="45.71029" lon="6.70319">
        <ele>2458</ele>
        <time>2026-07-29T10:18:09.716Z</time>
      </trkpt>
      <trkpt lat="45.71028" lon="6.70318">
        <ele>2458</ele>
        <time>2026-07-29T10:18:10.716Z</time>
      </trkpt>
      <trkpt lat="45.71027" lon="6.70317">
        <ele>2458</ele>
        <time>2026-07-29T10:18:11.716Z</time>
      </trkpt>
      <trkpt lat="45.71026" lon="6.70315">
        <ele>2458</ele>
        <time>2026-07-29T10:18:12.716Z</time>
      </trkpt>
      <trkpt lat="45.71026" lon="6.70313">
        <ele>2458</ele>
        <time>2026-07-29T10:18:13.716Z</time>
      </trkpt>
      <trkpt lat="45.71025" lon="6.70312">
        <ele>2457</ele>
        <time>2026-07-29T10:18:14.716Z</time>
      </trkpt>
      <trkpt lat="45.71025" lon="6.7031">
        <ele>2457</ele>
        <time>2026-07-29T10:18:15.716Z</time>
      </trkpt>
      <trkpt lat="45.71024" lon="6.70309">
        <ele>2457</ele>
        <time>2026-07-29T10:18:16.716Z</time>
      </trkpt>
      <trkpt lat="45.71023" lon="6.70308">
        <ele>2457</ele>
        <time>2026-07-29T10:18:17.716Z</time>
      </trkpt>
      <trkpt lat="45.71023" lon="6.70306">
        <ele>2457</ele>
        <time>2026-07-29T10:18:18.716Z</time>
      </trkpt>
      <trkpt lat="45.71023" lon="6.70305">
        <ele>2456</ele>
        <time>2026-07-29T10:18:19.716Z</time>
      </trkpt>
      <trkpt lat="45.71023" lon="6.70304">
        <ele>2456</ele>
        <time>2026-07-29T10:18:20.716Z</time>
      </trkpt>
      <trkpt lat="45.71023" lon="6.70302">
        <ele>2456</ele>
        <time>2026-07-29T10:18:21.716Z</time>
      </trkpt>
      <trkpt lat="45.71023" lon="6.70301">
        <ele>2455</ele>
        <time>2026-07-29T10:18:22.716Z</time>
      </trkpt>
      <trkpt lat="45.71022" lon="6.703">
        <ele>2455</ele>
        <time>2026-07-29T10:18:23.716Z</time>
      </trkpt>
      <trkpt lat="45.71022" lon="6.70298">
        <ele>2455</ele>
        <time>2026-07-29T10:18:24.716Z</time>
      </trkpt>
      <trkpt lat="45.71022" lon="6.70297">
        <ele>2455</ele>
        <time>2026-07-29T10:18:25.716Z</time>
      </trkpt>
      <trkpt lat="45.71022" lon="6.70295">
        <ele>2454</ele>
        <time>2026-07-29T10:18:26.716Z</time>
      </trkpt>
      <trkpt lat="45.71021" lon="6.70294">
        <ele>2454</ele>
        <time>2026-07-29T10:18:27.716Z</time>
      </trkpt>
      <trkpt lat="45.71021" lon="6.70293">
        <ele>2453</ele>
        <time>2026-07-29T10:18:28.716Z</time>
      </trkpt>
      <trkpt lat="45.71021" lon="6.70291">
        <ele>2453</ele>
        <time>2026-07-29T10:18:29.716Z</time>
      </trkpt>
      <trkpt lat="45.7102" lon="6.7029">
        <ele>2453</ele>
        <time>2026-07-29T10:18:30.716Z</time>
      </trkpt>
      <trkpt lat="45.7102" lon="6.70289">
        <ele>2452</ele>
        <time>2026-07-29T10:18:31.716Z</time>
      </trkpt>
      <trkpt lat="45.71019" lon="6.70288">
        <ele>2452</ele>
        <time>2026-07-29T10:18:32.716Z</time>
      </trkpt>
      <trkpt lat="45.71019" lon="6.70287">
        <ele>2451</ele>
        <time>2026-07-29T10:18:33.716Z</time>
      </trkpt>
      <trkpt lat="45.71019" lon="6.70286">
        <ele>2451</ele>
        <time>2026-07-29T10:18:34.716Z</time>
      </trkpt>
      <trkpt lat="45.71018" lon="6.70284">
        <ele>2450</ele>
        <time>2026-07-29T10:18:35.716Z</time>
      </trkpt>
      <trkpt lat="45.71018" lon="6.70283">
        <ele>2450</ele>
        <time>2026-07-29T10:18:36.716Z</time>
      </trkpt>
      <trkpt lat="45.71017" lon="6.70282">
        <ele>2449</ele>
        <time>2026-07-29T10:18:37.716Z</time>
      </trkpt>
      <trkpt lat="45.71017" lon="6.7028">
        <ele>2449</ele>
        <time>2026-07-29T10:18:38.716Z</time>
      </trkpt>
      <trkpt lat="45.71017" lon="6.70279">
        <ele>2449</ele>
        <time>2026-07-29T10:18:39.716Z</time>
      </trkpt>
      <trkpt lat="45.71017" lon="6.70278">
        <ele>2449</ele>
        <time>2026-07-29T10:18:40.716Z</time>
      </trkpt>
      <trkpt lat="45.71017" lon="6.70276">
        <ele>2449</ele>
        <time>2026-07-29T10:18:41.716Z</time>
      </trkpt>
      <trkpt lat="45.71016" lon="6.70275">
        <ele>2448</ele>
        <time>2026-07-29T10:18:42.716Z</time>
      </trkpt>
      <trkpt lat="45.71016" lon="6.70273">
        <ele>2448</ele>
        <time>2026-07-29T10:18:43.716Z</time>
      </trkpt>
      <trkpt lat="45.71015" lon="6.70271">
        <ele>2448</ele>
        <time>2026-07-29T10:18:44.716Z</time>
      </trkpt>
      <trkpt lat="45.71015" lon="6.70269">
        <ele>2448</ele>
        <time>2026-07-29T10:18:45.716Z</time>
      </trkpt>
      <trkpt lat="45.71014" lon="6.70267">
        <ele>2447</ele>
        <time>2026-07-29T10:18:46.716Z</time>
      </trkpt>
      <trkpt lat="45.71014" lon="6.70265">
        <ele>2447</ele>
        <time>2026-07-29T10:18:47.716Z</time>
      </trkpt>
      <trkpt lat="45.71013" lon="6.70262">
        <ele>2447</ele>
        <time>2026-07-29T10:18:48.716Z</time>
      </trkpt>
      <trkpt lat="45.71013" lon="6.7026">
        <ele>2446</ele>
        <time>2026-07-29T10:18:49.716Z</time>
      </trkpt>
      <trkpt lat="45.71012" lon="6.70259">
        <ele>2446</ele>
        <time>2026-07-29T10:18:50.716Z</time>
      </trkpt>
      <trkpt lat="45.71012" lon="6.70257">
        <ele>2445</ele>
        <time>2026-07-29T10:18:51.716Z</time>
      </trkpt>
      <trkpt lat="45.71012" lon="6.70255">
        <ele>2445</ele>
        <time>2026-07-29T10:18:52.716Z</time>
      </trkpt>
      <trkpt lat="45.71011" lon="6.70254">
        <ele>2445</ele>
        <time>2026-07-29T10:18:53.716Z</time>
      </trkpt>
      <trkpt lat="45.71011" lon="6.70252">
        <ele>2444</ele>
        <time>2026-07-29T10:18:54.716Z</time>
      </trkpt>
      <trkpt lat="45.71011" lon="6.7025">
        <ele>2444</ele>
        <time>2026-07-29T10:18:55.716Z</time>
      </trkpt>
      <trkpt lat="45.7101" lon="6.70248">
        <ele>2443</ele>
        <time>2026-07-29T10:18:56.716Z</time>
      </trkpt>
      <trkpt lat="45.71009" lon="6.70247">
        <ele>2443</ele>
        <time>2026-07-29T10:18:57.716Z</time>
      </trkpt>
      <trkpt lat="45.71009" lon="6.70245">
        <ele>2442</ele>
        <time>2026-07-29T10:18:58.716Z</time>
      </trkpt>
      <trkpt lat="45.71008" lon="6.70243">
        <ele>2442</ele>
        <time>2026-07-29T10:18:59.716Z</time>
      </trkpt>
      <trkpt lat="45.71008" lon="6.70242">
        <ele>2441</ele>
        <time>2026-07-29T10:19:00.716Z</time>
      </trkpt>
      <trkpt lat="45.71008" lon="6.7024">
        <ele>2441</ele>
        <time>2026-07-29T10:19:01.716Z</time>
      </trkpt>
      <trkpt lat="45.71008" lon="6.70238">
        <ele>2441</ele>
        <time>2026-07-29T10:19:02.716Z</time>
      </trkpt>
      <trkpt lat="45.71008" lon="6.70237">
        <ele>2440</ele>
        <time>2026-07-29T10:19:03.716Z</time>
      </trkpt>
      <trkpt lat="45.71007" lon="6.70236">
        <ele>2440</ele>
        <time>2026-07-29T10:19:04.716Z</time>
      </trkpt>
      <trkpt lat="45.71007" lon="6.70235">
        <ele>2439</ele>
        <time>2026-07-29T10:19:05.716Z</time>
      </trkpt>
      <trkpt lat="45.71006" lon="6.70235">
        <ele>2439</ele>
        <time>2026-07-29T10:19:06.716Z</time>
      </trkpt>
      <trkpt lat="45.71006" lon="6.70237">
        <ele>2438</ele>
        <time>2026-07-29T10:19:07.716Z</time>
      </trkpt>
      <trkpt lat="45.71006" lon="6.70239">
        <ele>2437</ele>
        <time>2026-07-29T10:19:08.716Z</time>
      </trkpt>
      <trkpt lat="45.71006" lon="6.70242">
        <ele>2437</ele>
        <time>2026-07-29T10:19:09.716Z</time>
      </trkpt>
      <trkpt lat="45.71005" lon="6.70244">
        <ele>2437</ele>
        <time>2026-07-29T10:19:10.716Z</time>
      </trkpt>
      <trkpt lat="45.71005" lon="6.70246">
        <ele>2437</ele>
        <time>2026-07-29T10:19:11.716Z</time>
      </trkpt>
      <trkpt lat="45.71005" lon="6.70249">
        <ele>2436</ele>
        <time>2026-07-29T10:19:12.716Z</time>
      </trkpt>
      <trkpt lat="45.71005" lon="6.7025">
        <ele>2436</ele>
        <time>2026-07-29T10:19:13.716Z</time>
      </trkpt>
      <trkpt lat="45.71004" lon="6.70251">
        <ele>2436</ele>
        <time>2026-07-29T10:19:14.716Z</time>
      </trkpt>
      <trkpt lat="45.71003" lon="6.70251">
        <ele>2435</ele>
        <time>2026-07-29T10:19:15.716Z</time>
      </trkpt>
      <trkpt lat="45.71002" lon="6.7025">
        <ele>2434</ele>
        <time>2026-07-29T10:19:16.716Z</time>
      </trkpt>
      <trkpt lat="45.71001" lon="6.70249">
        <ele>2434</ele>
        <time>2026-07-29T10:19:17.716Z</time>
      </trkpt>
      <trkpt lat="45.71" lon="6.70247">
        <ele>2434</ele>
        <time>2026-07-29T10:19:18.716Z</time>
      </trkpt>
      <trkpt lat="45.70999" lon="6.70244">
        <ele>2434</ele>
        <time>2026-07-29T10:19:19.716Z</time>
      </trkpt>
      <trkpt lat="45.70999" lon="6.70241">
        <ele>2434</ele>
        <time>2026-07-29T10:19:20.716Z</time>
      </trkpt>
      <trkpt lat="45.70999" lon="6.70238">
        <ele>2433</ele>
        <time>2026-07-29T10:19:21.716Z</time>
      </trkpt>
      <trkpt lat="45.70999" lon="6.70234">
        <ele>2433</ele>
        <time>2026-07-29T10:19:22.716Z</time>
      </trkpt>
      <trkpt lat="45.70999" lon="6.70231">
        <ele>2433</ele>
        <time>2026-07-29T10:19:23.716Z</time>
      </trkpt>
      <trkpt lat="45.70999" lon="6.70228">
        <ele>2433</ele>
        <time>2026-07-29T10:19:24.716Z</time>
      </trkpt>
      <trkpt lat="45.71" lon="6.70225">
        <ele>2432</ele>
        <time>2026-07-29T10:19:25.716Z</time>
      </trkpt>
      <trkpt lat="45.71" lon="6.70222">
        <ele>2432</ele>
        <time>2026-07-29T10:19:26.716Z</time>
      </trkpt>
      <trkpt lat="45.71" lon="6.70219">
        <ele>2432</ele>
        <time>2026-07-29T10:19:27.716Z</time>
      </trkpt>
      <trkpt lat="45.71" lon="6.70217">
        <ele>2431</ele>
        <time>2026-07-29T10:19:28.716Z</time>
      </trkpt>
      <trkpt lat="45.70999" lon="6.70215">
        <ele>2431</ele>
        <time>2026-07-29T10:19:29.716Z</time>
      </trkpt>
      <trkpt lat="45.70998" lon="6.70213">
        <ele>2430</ele>
        <time>2026-07-29T10:19:30.716Z</time>
      </trkpt>
      <trkpt lat="45.70998" lon="6.70211">
        <ele>2430</ele>
        <time>2026-07-29T10:19:31.716Z</time>
      </trkpt>
      <trkpt lat="45.70997" lon="6.70208">
        <ele>2429</ele>
        <time>2026-07-29T10:19:32.716Z</time>
      </trkpt>
      <trkpt lat="45.70997" lon="6.70206">
        <ele>2429</ele>
        <time>2026-07-29T10:19:33.716Z</time>
      </trkpt>
      <trkpt lat="45.70996" lon="6.70203">
        <ele>2428</ele>
        <time>2026-07-29T10:19:34.716Z</time>
      </trkpt>
      <trkpt lat="45.70995" lon="6.702">
        <ele>2428</ele>
        <time>2026-07-29T10:19:35.716Z</time>
      </trkpt>
      <trkpt lat="45.70995" lon="6.70198">
        <ele>2428</ele>
        <time>2026-07-29T10:19:36.716Z</time>
      </trkpt>
      <trkpt lat="45.70995" lon="6.70195">
        <ele>2427</ele>
        <time>2026-07-29T10:19:37.716Z</time>
      </trkpt>
      <trkpt lat="45.70994" lon="6.70193">
        <ele>2427</ele>
        <time>2026-07-29T10:19:38.716Z</time>
      </trkpt>
      <trkpt lat="45.70994" lon="6.70191">
        <ele>2427</ele>
        <time>2026-07-29T10:19:39.716Z</time>
      </trkpt>
      <trkpt lat="45.70993" lon="6.70188">
        <ele>2426</ele>
        <time>2026-07-29T10:19:40.716Z</time>
      </trkpt>
      <trkpt lat="45.70992" lon="6.70185">
        <ele>2426</ele>
        <time>2026-07-29T10:19:41.716Z</time>
      </trkpt>
      <trkpt lat="45.70992" lon="6.70183">
        <ele>2425</ele>
        <time>2026-07-29T10:19:42.716Z</time>
      </trkpt>
      <trkpt lat="45.70991" lon="6.7018">
        <ele>2425</ele>
        <time>2026-07-29T10:19:43.716Z</time>
      </trkpt>
      <trkpt lat="45.7099" lon="6.70178">
        <ele>2425</ele>
        <time>2026-07-29T10:19:44.716Z</time>
      </trkpt>
      <trkpt lat="45.70989" lon="6.70175">
        <ele>2424</ele>
        <time>2026-07-29T10:19:45.716Z</time>
      </trkpt>
      <trkpt lat="45.70989" lon="6.70172">
        <ele>2424</ele>
        <time>2026-07-29T10:19:46.716Z</time>
      </trkpt>
      <trkpt lat="45.70988" lon="6.7017">
        <ele>2423</ele>
        <time>2026-07-29T10:19:47.716Z</time>
      </trkpt>
      <trkpt lat="45.70987" lon="6.70167">
        <ele>2423</ele>
        <time>2026-07-29T10:19:48.716Z</time>
      </trkpt>
      <trkpt lat="45.70986" lon="6.70164">
        <ele>2422</ele>
        <time>2026-07-29T10:19:49.716Z</time>
      </trkpt>
      <trkpt lat="45.70985" lon="6.70161">
        <ele>2422</ele>
        <time>2026-07-29T10:19:50.716Z</time>
      </trkpt>
      <trkpt lat="45.70984" lon="6.70158">
        <ele>2421</ele>
        <time>2026-07-29T10:19:51.716Z</time>
      </trkpt>
      <trkpt lat="45.70982" lon="6.70155">
        <ele>2421</ele>
        <time>2026-07-29T10:19:52.716Z</time>
      </trkpt>
      <trkpt lat="45.70981" lon="6.70151">
        <ele>2421</ele>
        <time>2026-07-29T10:19:53.716Z</time>
      </trkpt>
      <trkpt lat="45.7098" lon="6.70148">
        <ele>2420</ele>
        <time>2026-07-29T10:19:54.716Z</time>
      </trkpt>
      <trkpt lat="45.70979" lon="6.70144">
        <ele>2420</ele>
        <time>2026-07-29T10:19:55.716Z</time>
      </trkpt>
      <trkpt lat="45.70978" lon="6.70141">
        <ele>2420</ele>
        <time>2026-07-29T10:19:56.716Z</time>
      </trkpt>
      <trkpt lat="45.70977" lon="6.70138">
        <ele>2420</ele>
        <time>2026-07-29T10:19:57.716Z</time>
      </trkpt>
      <trkpt lat="45.70976" lon="6.70134">
        <ele>2419</ele>
        <time>2026-07-29T10:19:58.716Z</time>
      </trkpt>
      <trkpt lat="45.70975" lon="6.70131">
        <ele>2419</ele>
        <time>2026-07-29T10:19:59.716Z</time>
      </trkpt>
      <trkpt lat="45.70974" lon="6.70127">
        <ele>2419</ele>
        <time>2026-07-29T10:20:00.716Z</time>
      </trkpt>
      <trkpt lat="45.70974" lon="6.70124">
        <ele>2418</ele>
        <time>2026-07-29T10:20:01.716Z</time>
      </trkpt>
      <trkpt lat="45.70973" lon="6.70121">
        <ele>2418</ele>
        <time>2026-07-29T10:20:02.716Z</time>
      </trkpt>
      <trkpt lat="45.70972" lon="6.70118">
        <ele>2418</ele>
        <time>2026-07-29T10:20:03.716Z</time>
      </trkpt>
      <trkpt lat="45.70971" lon="6.70115">
        <ele>2418</ele>
        <time>2026-07-29T10:20:04.716Z</time>
      </trkpt>
      <trkpt lat="45.70971" lon="6.70111">
        <ele>2418</ele>
        <time>2026-07-29T10:20:05.716Z</time>
      </trkpt>
      <trkpt lat="45.7097" lon="6.70109">
        <ele>2418</ele>
        <time>2026-07-29T10:20:06.716Z</time>
      </trkpt>
      <trkpt lat="45.70969" lon="6.70105">
        <ele>2418</ele>
        <time>2026-07-29T10:20:07.716Z</time>
      </trkpt>
      <trkpt lat="45.70969" lon="6.70103">
        <ele>2418</ele>
        <time>2026-07-29T10:20:08.716Z</time>
      </trkpt>
      <trkpt lat="45.70968" lon="6.701">
        <ele>2418</ele>
        <time>2026-07-29T10:20:09.716Z</time>
      </trkpt>
      <trkpt lat="45.70968" lon="6.70097">
        <ele>2418</ele>
        <time>2026-07-29T10:20:10.716Z</time>
      </trkpt>
      <trkpt lat="45.70967" lon="6.70093">
        <ele>2418</ele>
        <time>2026-07-29T10:20:11.716Z</time>
      </trkpt>
      <trkpt lat="45.70967" lon="6.7009">
        <ele>2417</ele>
        <time>2026-07-29T10:20:12.716Z</time>
      </trkpt>
      <trkpt lat="45.70966" lon="6.70088">
        <ele>2417</ele>
        <time>2026-07-29T10:20:13.716Z</time>
      </trkpt>
      <trkpt lat="45.70966" lon="6.70085">
        <ele>2418</ele>
        <time>2026-07-29T10:20:14.716Z</time>
      </trkpt>
      <trkpt lat="45.70965" lon="6.70082">
        <ele>2418</ele>
        <time>2026-07-29T10:20:15.716Z</time>
      </trkpt>
      <trkpt lat="45.70964" lon="6.70079">
        <ele>2418</ele>
        <time>2026-07-29T10:20:16.716Z</time>
      </trkpt>
      <trkpt lat="45.70964" lon="6.70076">
        <ele>2418</ele>
        <time>2026-07-29T10:20:17.716Z</time>
      </trkpt>
      <trkpt lat="45.70963" lon="6.70073">
        <ele>2418</ele>
        <time>2026-07-29T10:20:18.716Z</time>
      </trkpt>
      <trkpt lat="45.70962" lon="6.7007">
        <ele>2417</ele>
        <time>2026-07-29T10:20:19.716Z</time>
      </trkpt>
      <trkpt lat="45.70961" lon="6.70067">
        <ele>2418</ele>
        <time>2026-07-29T10:20:20.716Z</time>
      </trkpt>
      <trkpt lat="45.7096" lon="6.70065">
        <ele>2418</ele>
        <time>2026-07-29T10:20:21.716Z</time>
      </trkpt>
      <trkpt lat="45.70959" lon="6.70062">
        <ele>2418</ele>
        <time>2026-07-29T10:20:22.716Z</time>
      </trkpt>
      <trkpt lat="45.70958" lon="6.70059">
        <ele>2418</ele>
        <time>2026-07-29T10:20:23.716Z</time>
      </trkpt>
      <trkpt lat="45.70958" lon="6.70056">
        <ele>2419</ele>
        <time>2026-07-29T10:20:24.716Z</time>
      </trkpt>
      <trkpt lat="45.70957" lon="6.70054">
        <ele>2419</ele>
        <time>2026-07-29T10:20:25.716Z</time>
      </trkpt>
      <trkpt lat="45.70955" lon="6.70051">
        <ele>2419</ele>
        <time>2026-07-29T10:20:26.716Z</time>
      </trkpt>
      <trkpt lat="45.70955" lon="6.70048">
        <ele>2419</ele>
        <time>2026-07-29T10:20:27.716Z</time>
      </trkpt>
      <trkpt lat="45.70954" lon="6.70045">
        <ele>2419</ele>
        <time>2026-07-29T10:20:28.716Z</time>
      </trkpt>
      <trkpt lat="45.70953" lon="6.70042">
        <ele>2419</ele>
        <time>2026-07-29T10:20:29.716Z</time>
      </trkpt>
      <trkpt lat="45.70952" lon="6.70039">
        <ele>2419</ele>
        <time>2026-07-29T10:20:30.716Z</time>
      </trkpt>
      <trkpt lat="45.70952" lon="6.70036">
        <ele>2419</ele>
        <time>2026-07-29T10:20:31.716Z</time>
      </trkpt>
      <trkpt lat="45.70951" lon="6.70033">
        <ele>2419</ele>
        <time>2026-07-29T10:20:32.716Z</time>
      </trkpt>
      <trkpt lat="45.7095" lon="6.70031">
        <ele>2419</ele>
        <time>2026-07-29T10:20:33.716Z</time>
      </trkpt>
      <trkpt lat="45.70949" lon="6.70028">
        <ele>2419</ele>
        <time>2026-07-29T10:20:34.716Z</time>
      </trkpt>
      <trkpt lat="45.70948" lon="6.70026">
        <ele>2419</ele>
        <time>2026-07-29T10:20:35.716Z</time>
      </trkpt>
      <trkpt lat="45.70948" lon="6.70023">
        <ele>2419</ele>
        <time>2026-07-29T10:20:36.716Z</time>
      </trkpt>
      <trkpt lat="45.70947" lon="6.70021">
        <ele>2419</ele>
        <time>2026-07-29T10:20:37.716Z</time>
      </trkpt>
      <trkpt lat="45.70947" lon="6.70019">
        <ele>2419</ele>
        <time>2026-07-29T10:20:38.716Z</time>
      </trkpt>
      <trkpt lat="45.70946" lon="6.70017">
        <ele>2419</ele>
        <time>2026-07-29T10:20:39.716Z</time>
      </trkpt>
      <trkpt lat="45.70945" lon="6.70015">
        <ele>2419</ele>
        <time>2026-07-29T10:20:40.716Z</time>
      </trkpt>
      <trkpt lat="45.70944" lon="6.70013">
        <ele>2419</ele>
        <time>2026-07-29T10:20:41.716Z</time>
      </trkpt>
      <trkpt lat="45.70944" lon="6.70011">
        <ele>2419</ele>
        <time>2026-07-29T10:20:42.716Z</time>
      </trkpt>
      <trkpt lat="45.70943" lon="6.70008">
        <ele>2420</ele>
        <time>2026-07-29T10:20:43.716Z</time>
      </trkpt>
      <trkpt lat="45.70942" lon="6.70006">
        <ele>2420</ele>
        <time>2026-07-29T10:20:44.716Z</time>
      </trkpt>
      <trkpt lat="45.70941" lon="6.70004">
        <ele>2421</ele>
        <time>2026-07-29T10:20:45.716Z</time>
      </trkpt>
      <trkpt lat="45.70941" lon="6.70001">
        <ele>2421</ele>
        <time>2026-07-29T10:20:46.716Z</time>
      </trkpt>
      <trkpt lat="45.7094" lon="6.69998">
        <ele>2421</ele>
        <time>2026-07-29T10:20:47.716Z</time>
      </trkpt>
      <trkpt lat="45.70939" lon="6.69996">
        <ele>2421</ele>
        <time>2026-07-29T10:20:48.716Z</time>
      </trkpt>
      <trkpt lat="45.70939" lon="6.69993">
        <ele>2421</ele>
        <time>2026-07-29T10:20:49.716Z</time>
      </trkpt>
      <trkpt lat="45.70938" lon="6.69991">
        <ele>2421</ele>
        <time>2026-07-29T10:20:50.716Z</time>
      </trkpt>
      <trkpt lat="45.70937" lon="6.69989">
        <ele>2421</ele>
        <time>2026-07-29T10:20:51.716Z</time>
      </trkpt>
      <trkpt lat="45.70936" lon="6.69986">
        <ele>2421</ele>
        <time>2026-07-29T10:20:52.716Z</time>
      </trkpt>
      <trkpt lat="45.70936" lon="6.69984">
        <ele>2421</ele>
        <time>2026-07-29T10:20:53.716Z</time>
      </trkpt>
      <trkpt lat="45.70936" lon="6.69981">
        <ele>2421</ele>
        <time>2026-07-29T10:20:54.716Z</time>
      </trkpt>
      <trkpt lat="45.70937" lon="6.69979">
        <ele>2421</ele>
        <time>2026-07-29T10:20:55.716Z</time>
      </trkpt>
      <trkpt lat="45.70938" lon="6.69978">
        <ele>2421</ele>
        <time>2026-07-29T10:20:56.716Z</time>
      </trkpt>
      <trkpt lat="45.70938" lon="6.69977">
        <ele>2421</ele>
        <time>2026-07-29T10:20:57.716Z</time>
      </trkpt>
      <trkpt lat="45.70939" lon="6.69977">
        <ele>2421</ele>
        <time>2026-07-29T10:20:58.716Z</time>
      </trkpt>
      <trkpt lat="45.7094" lon="6.69978">
        <ele>2421</ele>
        <time>2026-07-29T10:20:59.716Z</time>
      </trkpt>
      <trkpt lat="45.7094" lon="6.6998">
        <ele>2421</ele>
        <time>2026-07-29T10:21:00.716Z</time>
      </trkpt>
      <trkpt lat="45.70941" lon="6.69981">
        <ele>2421</ele>
        <time>2026-07-29T10:21:01.716Z</time>
      </trkpt>
      <trkpt lat="45.70941" lon="6.69982">
        <ele>2421</ele>
        <time>2026-07-29T10:21:02.716Z</time>
      </trkpt>
      <trkpt lat="45.70942" lon="6.69981">
        <ele>2421</ele>
        <time>2026-07-29T10:21:03.716Z</time>
      </trkpt>
      <trkpt lat="45.70942" lon="6.69979">
        <ele>2421</ele>
        <time>2026-07-29T10:21:04.716Z</time>
      </trkpt>
      <trkpt lat="45.70942" lon="6.69976">
        <ele>2421</ele>
        <time>2026-07-29T10:21:05.716Z</time>
      </trkpt>
      <trkpt lat="45.70943" lon="6.69974">
        <ele>2421</ele>
        <time>2026-07-29T10:21:06.716Z</time>
      </trkpt>
      <trkpt lat="45.70944" lon="6.69973">
        <ele>2421</ele>
        <time>2026-07-29T10:21:07.716Z</time>
      </trkpt>
      <trkpt lat="45.70944" lon="6.69974">
        <ele>2420</ele>
        <time>2026-07-29T10:21:08.716Z</time>
      </trkpt>
      <trkpt lat="45.70945" lon="6.69975">
        <ele>2420</ele>
        <time>2026-07-29T10:21:09.716Z</time>
      </trkpt>
      <trkpt lat="45.70946" lon="6.69977">
        <ele>2420</ele>
        <time>2026-07-29T10:21:10.716Z</time>
      </trkpt>
      <trkpt lat="45.70946" lon="6.69979">
        <ele>2419</ele>
        <time>2026-07-29T10:21:11.716Z</time>
      </trkpt>
      <trkpt lat="45.70947" lon="6.69981">
        <ele>2419</ele>
        <time>2026-07-29T10:21:12.716Z</time>
      </trkpt>
      <trkpt lat="45.70948" lon="6.69983">
        <ele>2419</ele>
        <time>2026-07-29T10:21:13.716Z</time>
      </trkpt>
      <trkpt lat="45.70948" lon="6.69986">
        <ele>2418</ele>
        <time>2026-07-29T10:21:14.716Z</time>
      </trkpt>
      <trkpt lat="45.70949" lon="6.69988">
        <ele>2417</ele>
        <time>2026-07-29T10:21:15.716Z</time>
      </trkpt>
      <trkpt lat="45.70949" lon="6.69991">
        <ele>2417</ele>
        <time>2026-07-29T10:21:16.716Z</time>
      </trkpt>
      <trkpt lat="45.7095" lon="6.69994">
        <ele>2417</ele>
        <time>2026-07-29T10:21:17.716Z</time>
      </trkpt>
      <trkpt lat="45.7095" lon="6.69996">
        <ele>2416</ele>
        <time>2026-07-29T10:21:18.716Z</time>
      </trkpt>
      <trkpt lat="45.70951" lon="6.69999">
        <ele>2416</ele>
        <time>2026-07-29T10:21:19.716Z</time>
      </trkpt>
      <trkpt lat="45.70952" lon="6.70002">
        <ele>2416</ele>
        <time>2026-07-29T10:21:20.716Z</time>
      </trkpt>
      <trkpt lat="45.70953" lon="6.70005">
        <ele>2415</ele>
        <time>2026-07-29T10:21:21.716Z</time>
      </trkpt>
      <trkpt lat="45.70953" lon="6.70008">
        <ele>2415</ele>
        <time>2026-07-29T10:21:22.716Z</time>
      </trkpt>
      <trkpt lat="45.70953" lon="6.7001">
        <ele>2414</ele>
        <time>2026-07-29T10:21:23.716Z</time>
      </trkpt>
      <trkpt lat="45.70954" lon="6.70013">
        <ele>2413</ele>
        <time>2026-07-29T10:21:24.716Z</time>
      </trkpt>
      <trkpt lat="45.70954" lon="6.70014">
        <ele>2413</ele>
        <time>2026-07-29T10:21:25.716Z</time>
      </trkpt>
      <trkpt lat="45.70955" lon="6.70015">
        <ele>2412</ele>
        <time>2026-07-29T10:21:26.716Z</time>
      </trkpt>
      <trkpt lat="45.70955" lon="6.70015">
        <ele>2412</ele>
        <time>2026-07-29T10:21:27.716Z</time>
      </trkpt>
      <trkpt lat="45.70955" lon="6.70014">
        <ele>2411</ele>
        <time>2026-07-29T10:21:28.716Z</time>
      </trkpt>
      <trkpt lat="45.70955" lon="6.70012">
        <ele>2411</ele>
        <time>2026-07-29T10:21:29.716Z</time>
      </trkpt>
      <trkpt lat="45.70955" lon="6.70009">
        <ele>2410</ele>
        <time>2026-07-29T10:21:30.716Z</time>
      </trkpt>
      <trkpt lat="45.70955" lon="6.70007">
        <ele>2410</ele>
        <time>2026-07-29T10:21:31.716Z</time>
      </trkpt>
      <trkpt lat="45.70955" lon="6.70003">
        <ele>2409</ele>
        <time>2026-07-29T10:21:32.716Z</time>
      </trkpt>
      <trkpt lat="45.70955" lon="6.7">
        <ele>2409</ele>
        <time>2026-07-29T10:21:33.716Z</time>
      </trkpt>
      <trkpt lat="45.70955" lon="6.69996">
        <ele>2409</ele>
        <time>2026-07-29T10:21:34.716Z</time>
      </trkpt>
      <trkpt lat="45.70955" lon="6.69993">
        <ele>2409</ele>
        <time>2026-07-29T10:21:35.716Z</time>
      </trkpt>
      <trkpt lat="45.70955" lon="6.69989">
        <ele>2409</ele>
        <time>2026-07-29T10:21:36.716Z</time>
      </trkpt>
      <trkpt lat="45.70955" lon="6.69986">
        <ele>2409</ele>
        <time>2026-07-29T10:21:37.716Z</time>
      </trkpt>
      <trkpt lat="45.70955" lon="6.69983">
        <ele>2408</ele>
        <time>2026-07-29T10:21:38.716Z</time>
      </trkpt>
      <trkpt lat="45.70955" lon="6.69981">
        <ele>2408</ele>
        <time>2026-07-29T10:21:39.716Z</time>
      </trkpt>
      <trkpt lat="45.70955" lon="6.69978">
        <ele>2408</ele>
        <time>2026-07-29T10:21:40.716Z</time>
      </trkpt>
      <trkpt lat="45.70955" lon="6.69976">
        <ele>2408</ele>
        <time>2026-07-29T10:21:41.716Z</time>
      </trkpt>
      <trkpt lat="45.70955" lon="6.69973">
        <ele>2408</ele>
        <time>2026-07-29T10:21:42.716Z</time>
      </trkpt>
      <trkpt lat="45.70956" lon="6.69971">
        <ele>2407</ele>
        <time>2026-07-29T10:21:43.716Z</time>
      </trkpt>
      <trkpt lat="45.70956" lon="6.69969">
        <ele>2407</ele>
        <time>2026-07-29T10:21:44.716Z</time>
      </trkpt>
      <trkpt lat="45.70956" lon="6.69967">
        <ele>2407</ele>
        <time>2026-07-29T10:21:45.716Z</time>
      </trkpt>
      <trkpt lat="45.70957" lon="6.69964">
        <ele>2407</ele>
        <time>2026-07-29T10:21:46.716Z</time>
      </trkpt>
      <trkpt lat="45.70957" lon="6.69961">
        <ele>2406</ele>
        <time>2026-07-29T10:21:47.716Z</time>
      </trkpt>
      <trkpt lat="45.70958" lon="6.69958">
        <ele>2406</ele>
        <time>2026-07-29T10:21:48.716Z</time>
      </trkpt>
      <trkpt lat="45.70959" lon="6.69955">
        <ele>2406</ele>
        <time>2026-07-29T10:21:49.716Z</time>
      </trkpt>
      <trkpt lat="45.70959" lon="6.69952">
        <ele>2405</ele>
        <time>2026-07-29T10:21:50.716Z</time>
      </trkpt>
      <trkpt lat="45.7096" lon="6.69949">
        <ele>2405</ele>
        <time>2026-07-29T10:21:51.716Z</time>
      </trkpt>
      <trkpt lat="45.70961" lon="6.69946">
        <ele>2405</ele>
        <time>2026-07-29T10:21:52.716Z</time>
      </trkpt>
      <trkpt lat="45.70961" lon="6.69943">
        <ele>2405</ele>
        <time>2026-07-29T10:21:53.716Z</time>
      </trkpt>
      <trkpt lat="45.70962" lon="6.6994">
        <ele>2405</ele>
        <time>2026-07-29T10:21:54.716Z</time>
      </trkpt>
      <trkpt lat="45.70963" lon="6.69937">
        <ele>2405</ele>
        <time>2026-07-29T10:21:55.716Z</time>
      </trkpt>
      <trkpt lat="45.70963" lon="6.69934">
        <ele>2405</ele>
        <time>2026-07-29T10:21:56.716Z</time>
      </trkpt>
      <trkpt lat="45.70963" lon="6.6993">
        <ele>2404</ele>
        <time>2026-07-29T10:21:57.716Z</time>
      </trkpt>
      <trkpt lat="45.70962" lon="6.69927">
        <ele>2404</ele>
        <time>2026-07-29T10:21:58.716Z</time>
      </trkpt>
      <trkpt lat="45.70962" lon="6.69924">
        <ele>2404</ele>
        <time>2026-07-29T10:21:59.716Z</time>
      </trkpt>
      <trkpt lat="45.70962" lon="6.6992">
        <ele>2403</ele>
        <time>2026-07-29T10:22:00.717Z</time>
      </trkpt>
      <trkpt lat="45.70963" lon="6.69918">
        <ele>2402</ele>
        <time>2026-07-29T10:22:01.716Z</time>
      </trkpt>
      <trkpt lat="45.70963" lon="6.69915">
        <ele>2402</ele>
        <time>2026-07-29T10:22:02.716Z</time>
      </trkpt>
      <trkpt lat="45.70964" lon="6.69913">
        <ele>2401</ele>
        <time>2026-07-29T10:22:03.716Z</time>
      </trkpt>
      <trkpt lat="45.70964" lon="6.69911">
        <ele>2400</ele>
        <time>2026-07-29T10:22:04.716Z</time>
      </trkpt>
      <trkpt lat="45.70965" lon="6.69909">
        <ele>2400</ele>
        <time>2026-07-29T10:22:05.716Z</time>
      </trkpt>
      <trkpt lat="45.70966" lon="6.69907">
        <ele>2399</ele>
        <time>2026-07-29T10:22:06.716Z</time>
      </trkpt>
      <trkpt lat="45.70967" lon="6.69905">
        <ele>2398</ele>
        <time>2026-07-29T10:22:07.716Z</time>
      </trkpt>
      <trkpt lat="45.70967" lon="6.69903">
        <ele>2397</ele>
        <time>2026-07-29T10:22:08.716Z</time>
      </trkpt>
      <trkpt lat="45.70968" lon="6.69901">
        <ele>2397</ele>
        <time>2026-07-29T10:22:09.716Z</time>
      </trkpt>
      <trkpt lat="45.70968" lon="6.69898">
        <ele>2396</ele>
        <time>2026-07-29T10:22:10.716Z</time>
      </trkpt>
      <trkpt lat="45.70969" lon="6.69896">
        <ele>2395</ele>
        <time>2026-07-29T10:22:11.716Z</time>
      </trkpt>
      <trkpt lat="45.70969" lon="6.69893">
        <ele>2395</ele>
        <time>2026-07-29T10:22:12.716Z</time>
      </trkpt>
      <trkpt lat="45.7097" lon="6.6989">
        <ele>2394</ele>
        <time>2026-07-29T10:22:13.716Z</time>
      </trkpt>
      <trkpt lat="45.70971" lon="6.69887">
        <ele>2394</ele>
        <time>2026-07-29T10:22:14.716Z</time>
      </trkpt>
      <trkpt lat="45.70972" lon="6.69884">
        <ele>2394</ele>
        <time>2026-07-29T10:22:15.716Z</time>
      </trkpt>
      <trkpt lat="45.70973" lon="6.69881">
        <ele>2393</ele>
        <time>2026-07-29T10:22:16.716Z</time>
      </trkpt>
      <trkpt lat="45.70974" lon="6.69879">
        <ele>2393</ele>
        <time>2026-07-29T10:22:17.716Z</time>
      </trkpt>
      <trkpt lat="45.70976" lon="6.69876">
        <ele>2392</ele>
        <time>2026-07-29T10:22:18.716Z</time>
      </trkpt>
      <trkpt lat="45.70977" lon="6.69874">
        <ele>2392</ele>
        <time>2026-07-29T10:22:19.716Z</time>
      </trkpt>
      <trkpt lat="45.70978" lon="6.69871">
        <ele>2391</ele>
        <time>2026-07-29T10:22:20.716Z</time>
      </trkpt>
      <trkpt lat="45.70979" lon="6.69868">
        <ele>2391</ele>
        <time>2026-07-29T10:22:21.716Z</time>
      </trkpt>
      <trkpt lat="45.70979" lon="6.69865">
        <ele>2391</ele>
        <time>2026-07-29T10:22:22.716Z</time>
      </trkpt>
      <trkpt lat="45.7098" lon="6.69863">
        <ele>2391</ele>
        <time>2026-07-29T10:22:23.716Z</time>
      </trkpt>
      <trkpt lat="45.7098" lon="6.6986">
        <ele>2391</ele>
        <time>2026-07-29T10:22:24.716Z</time>
      </trkpt>
      <trkpt lat="45.7098" lon="6.69857">
        <ele>2391</ele>
        <time>2026-07-29T10:22:25.716Z</time>
      </trkpt>
      <trkpt lat="45.7098" lon="6.69854">
        <ele>2392</ele>
        <time>2026-07-29T10:22:26.716Z</time>
      </trkpt>
      <trkpt lat="45.70979" lon="6.69851">
        <ele>2392</ele>
        <time>2026-07-29T10:22:27.716Z</time>
      </trkpt>
      <trkpt lat="45.70979" lon="6.69848">
        <ele>2392</ele>
        <time>2026-07-29T10:22:28.716Z</time>
      </trkpt>
      <trkpt lat="45.70978" lon="6.69846">
        <ele>2392</ele>
        <time>2026-07-29T10:22:29.716Z</time>
      </trkpt>
      <trkpt lat="45.70976" lon="6.69844">
        <ele>2391</ele>
        <time>2026-07-29T10:22:30.716Z</time>
      </trkpt>
      <trkpt lat="45.70974" lon="6.69842">
        <ele>2391</ele>
        <time>2026-07-29T10:22:31.716Z</time>
      </trkpt>
      <trkpt lat="45.70973" lon="6.69841">
        <ele>2390</ele>
        <time>2026-07-29T10:22:32.716Z</time>
      </trkpt>
      <trkpt lat="45.70971" lon="6.69839">
        <ele>2390</ele>
        <time>2026-07-29T10:22:33.716Z</time>
      </trkpt>
      <trkpt lat="45.7097" lon="6.69836">
        <ele>2390</ele>
        <time>2026-07-29T10:22:34.716Z</time>
      </trkpt>
      <trkpt lat="45.70969" lon="6.69834">
        <ele>2390</ele>
        <time>2026-07-29T10:22:35.716Z</time>
      </trkpt>
      <trkpt lat="45.70967" lon="6.69831">
        <ele>2390</ele>
        <time>2026-07-29T10:22:36.716Z</time>
      </trkpt>
      <trkpt lat="45.70966" lon="6.69829">
        <ele>2390</ele>
        <time>2026-07-29T10:22:37.716Z</time>
      </trkpt>
      <trkpt lat="45.70966" lon="6.69826">
        <ele>2390</ele>
        <time>2026-07-29T10:22:38.716Z</time>
      </trkpt>
      <trkpt lat="45.70964" lon="6.69823">
        <ele>2389</ele>
        <time>2026-07-29T10:22:39.716Z</time>
      </trkpt>
      <trkpt lat="45.70964" lon="6.6982">
        <ele>2389</ele>
        <time>2026-07-29T10:22:40.716Z</time>
      </trkpt>
      <trkpt lat="45.70963" lon="6.69817">
        <ele>2388</ele>
        <time>2026-07-29T10:22:41.716Z</time>
      </trkpt>
      <trkpt lat="45.70963" lon="6.69814">
        <ele>2388</ele>
        <time>2026-07-29T10:22:42.716Z</time>
      </trkpt>
      <trkpt lat="45.70962" lon="6.69811">
        <ele>2387</ele>
        <time>2026-07-29T10:22:43.716Z</time>
      </trkpt>
      <trkpt lat="45.70963" lon="6.69808">
        <ele>2387</ele>
        <time>2026-07-29T10:22:44.716Z</time>
      </trkpt>
      <trkpt lat="45.70963" lon="6.69805">
        <ele>2386</ele>
        <time>2026-07-29T10:22:45.716Z</time>
      </trkpt>
      <trkpt lat="45.70963" lon="6.69802">
        <ele>2385</ele>
        <time>2026-07-29T10:22:46.716Z</time>
      </trkpt>
      <trkpt lat="45.70962" lon="6.69799">
        <ele>2384</ele>
        <time>2026-07-29T10:22:47.716Z</time>
      </trkpt>
      <trkpt lat="45.70962" lon="6.69796">
        <ele>2383</ele>
        <time>2026-07-29T10:22:48.716Z</time>
      </trkpt>
      <trkpt lat="45.70962" lon="6.69793">
        <ele>2383</ele>
        <time>2026-07-29T10:22:49.716Z</time>
      </trkpt>
      <trkpt lat="45.70961" lon="6.6979">
        <ele>2382</ele>
        <time>2026-07-29T10:22:50.716Z</time>
      </trkpt>
      <trkpt lat="45.70961" lon="6.69787">
        <ele>2382</ele>
        <time>2026-07-29T10:22:51.716Z</time>
      </trkpt>
      <trkpt lat="45.70961" lon="6.69784">
        <ele>2381</ele>
        <time>2026-07-29T10:22:52.716Z</time>
      </trkpt>
      <trkpt lat="45.70961" lon="6.6978">
        <ele>2380</ele>
        <time>2026-07-29T10:22:53.716Z</time>
      </trkpt>
      <trkpt lat="45.70961" lon="6.69777">
        <ele>2379</ele>
        <time>2026-07-29T10:22:54.716Z</time>
      </trkpt>
      <trkpt lat="45.70961" lon="6.69774">
        <ele>2379</ele>
        <time>2026-07-29T10:22:55.716Z</time>
      </trkpt>
      <trkpt lat="45.70962" lon="6.69771">
        <ele>2378</ele>
        <time>2026-07-29T10:22:56.716Z</time>
      </trkpt>
      <trkpt lat="45.70962" lon="6.69767">
        <ele>2377</ele>
        <time>2026-07-29T10:22:57.716Z</time>
      </trkpt>
      <trkpt lat="45.70962" lon="6.69764">
        <ele>2377</ele>
        <time>2026-07-29T10:22:58.716Z</time>
      </trkpt>
      <trkpt lat="45.70962" lon="6.69761">
        <ele>2376</ele>
        <time>2026-07-29T10:22:59.716Z</time>
      </trkpt>
      <trkpt lat="45.70962" lon="6.69758">
        <ele>2376</ele>
        <time>2026-07-29T10:23:00.716Z</time>
      </trkpt>
      <trkpt lat="45.70962" lon="6.69755">
        <ele>2375</ele>
        <time>2026-07-29T10:23:01.716Z</time>
      </trkpt>
      <trkpt lat="45.70962" lon="6.69752">
        <ele>2375</ele>
        <time>2026-07-29T10:23:02.716Z</time>
      </trkpt>
      <trkpt lat="45.70963" lon="6.69749">
        <ele>2374</ele>
        <time>2026-07-29T10:23:03.716Z</time>
      </trkpt>
      <trkpt lat="45.70963" lon="6.69746">
        <ele>2374</ele>
        <time>2026-07-29T10:23:04.716Z</time>
      </trkpt>
      <trkpt lat="45.70963" lon="6.69743">
        <ele>2373</ele>
        <time>2026-07-29T10:23:05.716Z</time>
      </trkpt>
      <trkpt lat="45.70963" lon="6.6974">
        <ele>2373</ele>
        <time>2026-07-29T10:23:06.716Z</time>
      </trkpt>
      <trkpt lat="45.70964" lon="6.69737">
        <ele>2372</ele>
        <time>2026-07-29T10:23:07.716Z</time>
      </trkpt>
      <trkpt lat="45.70965" lon="6.69734">
        <ele>2372</ele>
        <time>2026-07-29T10:23:08.716Z</time>
      </trkpt>
      <trkpt lat="45.70965" lon="6.69731">
        <ele>2372</ele>
        <time>2026-07-29T10:23:09.716Z</time>
      </trkpt>
      <trkpt lat="45.70966" lon="6.69728">
        <ele>2371</ele>
        <time>2026-07-29T10:23:10.716Z</time>
      </trkpt>
      <trkpt lat="45.70966" lon="6.69726">
        <ele>2371</ele>
        <time>2026-07-29T10:23:11.716Z</time>
      </trkpt>
      <trkpt lat="45.70966" lon="6.69724">
        <ele>2370</ele>
        <time>2026-07-29T10:23:12.716Z</time>
      </trkpt>
      <trkpt lat="45.70967" lon="6.69723">
        <ele>2369</ele>
        <time>2026-07-29T10:23:13.716Z</time>
      </trkpt>
      <trkpt lat="45.70967" lon="6.69721">
        <ele>2369</ele>
        <time>2026-07-29T10:23:14.716Z</time>
      </trkpt>
      <trkpt lat="45.70968" lon="6.6972">
        <ele>2369</ele>
        <time>2026-07-29T10:23:15.716Z</time>
      </trkpt>
      <trkpt lat="45.70968" lon="6.69719">
        <ele>2369</ele>
        <time>2026-07-29T10:23:16.716Z</time>
      </trkpt>
      <trkpt lat="45.70968" lon="6.69717">
        <ele>2369</ele>
        <time>2026-07-29T10:23:17.716Z</time>
      </trkpt>
      <trkpt lat="45.70969" lon="6.69715">
        <ele>2368</ele>
        <time>2026-07-29T10:23:18.716Z</time>
      </trkpt>
      <trkpt lat="45.70969" lon="6.69712">
        <ele>2368</ele>
        <time>2026-07-29T10:23:19.716Z</time>
      </trkpt>
      <trkpt lat="45.70968" lon="6.6971">
        <ele>2367</ele>
        <time>2026-07-29T10:23:20.716Z</time>
      </trkpt>
      <trkpt lat="45.70968" lon="6.69707">
        <ele>2367</ele>
        <time>2026-07-29T10:23:21.716Z</time>
      </trkpt>
      <trkpt lat="45.70968" lon="6.69705">
        <ele>2367</ele>
        <time>2026-07-29T10:23:22.716Z</time>
      </trkpt>
      <trkpt lat="45.70968" lon="6.69702">
        <ele>2367</ele>
        <time>2026-07-29T10:23:23.716Z</time>
      </trkpt>
      <trkpt lat="45.70968" lon="6.69699">
        <ele>2366</ele>
        <time>2026-07-29T10:23:24.716Z</time>
      </trkpt>
      <trkpt lat="45.70967" lon="6.69696">
        <ele>2366</ele>
        <time>2026-07-29T10:23:25.716Z</time>
      </trkpt>
      <trkpt lat="45.70968" lon="6.69692">
        <ele>2366</ele>
        <time>2026-07-29T10:23:26.716Z</time>
      </trkpt>
      <trkpt lat="45.70968" lon="6.69688">
        <ele>2366</ele>
        <time>2026-07-29T10:23:27.716Z</time>
      </trkpt>
      <trkpt lat="45.70967" lon="6.69685">
        <ele>2365</ele>
        <time>2026-07-29T10:23:28.716Z</time>
      </trkpt>
      <trkpt lat="45.70967" lon="6.69681">
        <ele>2365</ele>
        <time>2026-07-29T10:23:29.716Z</time>
      </trkpt>
      <trkpt lat="45.70967" lon="6.69678">
        <ele>2365</ele>
        <time>2026-07-29T10:23:30.716Z</time>
      </trkpt>
      <trkpt lat="45.70968" lon="6.69674">
        <ele>2364</ele>
        <time>2026-07-29T10:23:31.716Z</time>
      </trkpt>
      <trkpt lat="45.70969" lon="6.6967">
        <ele>2364</ele>
        <time>2026-07-29T10:23:32.717Z</time>
      </trkpt>
      <trkpt lat="45.70969" lon="6.69667">
        <ele>2363</ele>
        <time>2026-07-29T10:23:33.716Z</time>
      </trkpt>
      <trkpt lat="45.7097" lon="6.69664">
        <ele>2363</ele>
        <time>2026-07-29T10:23:34.716Z</time>
      </trkpt>
      <trkpt lat="45.7097" lon="6.6966">
        <ele>2363</ele>
        <time>2026-07-29T10:23:35.716Z</time>
      </trkpt>
      <trkpt lat="45.70971" lon="6.69658">
        <ele>2363</ele>
        <time>2026-07-29T10:23:36.716Z</time>
      </trkpt>
      <trkpt lat="45.70971" lon="6.69655">
        <ele>2363</ele>
        <time>2026-07-29T10:23:37.716Z</time>
      </trkpt>
      <trkpt lat="45.70971" lon="6.69652">
        <ele>2363</ele>
        <time>2026-07-29T10:23:38.716Z</time>
      </trkpt>
      <trkpt lat="45.70971" lon="6.69649">
        <ele>2363</ele>
        <time>2026-07-29T10:23:39.716Z</time>
      </trkpt>
      <trkpt lat="45.70971" lon="6.69645">
        <ele>2363</ele>
        <time>2026-07-29T10:23:40.716Z</time>
      </trkpt>
      <trkpt lat="45.70971" lon="6.69642">
        <ele>2362</ele>
        <time>2026-07-29T10:23:41.716Z</time>
      </trkpt>
      <trkpt lat="45.70971" lon="6.69638">
        <ele>2362</ele>
        <time>2026-07-29T10:23:42.716Z</time>
      </trkpt>
      <trkpt lat="45.70971" lon="6.69635">
        <ele>2362</ele>
        <time>2026-07-29T10:23:43.716Z</time>
      </trkpt>
      <trkpt lat="45.70971" lon="6.69631">
        <ele>2362</ele>
        <time>2026-07-29T10:23:44.716Z</time>
      </trkpt>
      <trkpt lat="45.70972" lon="6.69628">
        <ele>2362</ele>
        <time>2026-07-29T10:23:45.716Z</time>
      </trkpt>
      <trkpt lat="45.70972" lon="6.69625">
        <ele>2361</ele>
        <time>2026-07-29T10:23:46.716Z</time>
      </trkpt>
      <trkpt lat="45.70973" lon="6.69622">
        <ele>2361</ele>
        <time>2026-07-29T10:23:47.716Z</time>
      </trkpt>
      <trkpt lat="45.70973" lon="6.69618">
        <ele>2361</ele>
        <time>2026-07-29T10:23:48.716Z</time>
      </trkpt>
      <trkpt lat="45.70974" lon="6.69615">
        <ele>2360</ele>
        <time>2026-07-29T10:23:49.716Z</time>
      </trkpt>
      <trkpt lat="45.70974" lon="6.69611">
        <ele>2360</ele>
        <time>2026-07-29T10:23:50.716Z</time>
      </trkpt>
      <trkpt lat="45.70975" lon="6.69608">
        <ele>2360</ele>
        <time>2026-07-29T10:23:51.716Z</time>
      </trkpt>
      <trkpt lat="45.70975" lon="6.69604">
        <ele>2360</ele>
        <time>2026-07-29T10:23:52.716Z</time>
      </trkpt>
      <trkpt lat="45.70976" lon="6.69601">
        <ele>2360</ele>
        <time>2026-07-29T10:23:53.716Z</time>
      </trkpt>
      <trkpt lat="45.70976" lon="6.69598">
        <ele>2360</ele>
        <time>2026-07-29T10:23:54.716Z</time>
      </trkpt>
      <trkpt lat="45.70976" lon="6.69595">
        <ele>2359</ele>
        <time>2026-07-29T10:23:55.716Z</time>
      </trkpt>
      <trkpt lat="45.70975" lon="6.69592">
        <ele>2359</ele>
        <time>2026-07-29T10:23:56.716Z</time>
      </trkpt>
      <trkpt lat="45.70974" lon="6.69589">
        <ele>2359</ele>
        <time>2026-07-29T10:23:57.716Z</time>
      </trkpt>
      <trkpt lat="45.70973" lon="6.69587">
        <ele>2358</ele>
        <time>2026-07-29T10:23:58.716Z</time>
      </trkpt>
      <trkpt lat="45.70972" lon="6.69585">
        <ele>2358</ele>
        <time>2026-07-29T10:23:59.716Z</time>
      </trkpt>
      <trkpt lat="45.70972" lon="6.69583">
        <ele>2358</ele>
        <time>2026-07-29T10:24:00.716Z</time>
      </trkpt>
      <trkpt lat="45.70972" lon="6.69582">
        <ele>2358</ele>
        <time>2026-07-29T10:24:01.716Z</time>
      </trkpt>
      <trkpt lat="45.70971" lon="6.6958">
        <ele>2357</ele>
        <time>2026-07-29T10:24:02.716Z</time>
      </trkpt>
      <trkpt lat="45.7097" lon="6.69579">
        <ele>2357</ele>
        <time>2026-07-29T10:24:03.716Z</time>
      </trkpt>
      <trkpt lat="45.70969" lon="6.69578">
        <ele>2357</ele>
        <time>2026-07-29T10:24:04.716Z</time>
      </trkpt>
      <trkpt lat="45.70968" lon="6.69577">
        <ele>2356</ele>
        <time>2026-07-29T10:24:05.716Z</time>
      </trkpt>
      <trkpt lat="45.70967" lon="6.69575">
        <ele>2356</ele>
        <time>2026-07-29T10:24:06.716Z</time>
      </trkpt>
      <trkpt lat="45.70966" lon="6.69574">
        <ele>2356</ele>
        <time>2026-07-29T10:24:07.716Z</time>
      </trkpt>
      <trkpt lat="45.70965" lon="6.69572">
        <ele>2355</ele>
        <time>2026-07-29T10:24:08.716Z</time>
      </trkpt>
      <trkpt lat="45.70965" lon="6.69571">
        <ele>2355</ele>
        <time>2026-07-29T10:24:09.716Z</time>
      </trkpt>
      <trkpt lat="45.70967" lon="6.6957">
        <ele>2355</ele>
        <time>2026-07-29T10:24:10.716Z</time>
      </trkpt>
      <trkpt lat="45.70969" lon="6.6957">
        <ele>2355</ele>
        <time>2026-07-29T10:24:11.716Z</time>
      </trkpt>
      <trkpt lat="45.7097" lon="6.6957">
        <ele>2354</ele>
        <time>2026-07-29T10:24:12.716Z</time>
      </trkpt>
      <trkpt lat="45.70973" lon="6.6957">
        <ele>2354</ele>
        <time>2026-07-29T10:24:13.716Z</time>
      </trkpt>
      <trkpt lat="45.70975" lon="6.69571">
        <ele>2353</ele>
        <time>2026-07-29T10:24:14.716Z</time>
      </trkpt>
      <trkpt lat="45.70976" lon="6.69571">
        <ele>2353</ele>
        <time>2026-07-29T10:24:15.716Z</time>
      </trkpt>
      <trkpt lat="45.70978" lon="6.69573">
        <ele>2352</ele>
        <time>2026-07-29T10:24:16.716Z</time>
      </trkpt>
      <trkpt lat="45.7098" lon="6.69574">
        <ele>2352</ele>
        <time>2026-07-29T10:24:17.716Z</time>
      </trkpt>
      <trkpt lat="45.70981" lon="6.69576">
        <ele>2351</ele>
        <time>2026-07-29T10:24:18.716Z</time>
      </trkpt>
      <trkpt lat="45.70983" lon="6.69578">
        <ele>2351</ele>
        <time>2026-07-29T10:24:19.716Z</time>
      </trkpt>
      <trkpt lat="45.70984" lon="6.6958">
        <ele>2351</ele>
        <time>2026-07-29T10:24:20.716Z</time>
      </trkpt>
      <trkpt lat="45.70986" lon="6.69583">
        <ele>2350</ele>
        <time>2026-07-29T10:24:21.716Z</time>
      </trkpt>
      <trkpt lat="45.70987" lon="6.69585">
        <ele>2350</ele>
        <time>2026-07-29T10:24:22.716Z</time>
      </trkpt>
      <trkpt lat="45.70988" lon="6.69587">
        <ele>2350</ele>
        <time>2026-07-29T10:24:23.716Z</time>
      </trkpt>
      <trkpt lat="45.70989" lon="6.69589">
        <ele>2350</ele>
        <time>2026-07-29T10:24:24.716Z</time>
      </trkpt>
      <trkpt lat="45.7099" lon="6.69591">
        <ele>2350</ele>
        <time>2026-07-29T10:24:25.716Z</time>
      </trkpt>
      <trkpt lat="45.70991" lon="6.69593">
        <ele>2349</ele>
        <time>2026-07-29T10:24:26.716Z</time>
      </trkpt>
      <trkpt lat="45.70992" lon="6.69595">
        <ele>2349</ele>
        <time>2026-07-29T10:24:27.716Z</time>
      </trkpt>
      <trkpt lat="45.70993" lon="6.69598">
        <ele>2348</ele>
        <time>2026-07-29T10:24:28.716Z</time>
      </trkpt>
      <trkpt lat="45.70993" lon="6.69601">
        <ele>2348</ele>
        <time>2026-07-29T10:24:29.716Z</time>
      </trkpt>
      <trkpt lat="45.70994" lon="6.69603">
        <ele>2347</ele>
        <time>2026-07-29T10:24:30.716Z</time>
      </trkpt>
      <trkpt lat="45.70994" lon="6.69604">
        <ele>2347</ele>
        <time>2026-07-29T10:24:31.716Z</time>
      </trkpt>
      <trkpt lat="45.70994" lon="6.69604">
        <ele>2346</ele>
        <time>2026-07-29T10:24:32.716Z</time>
      </trkpt>
      <trkpt lat="45.70995" lon="6.69603">
        <ele>2346</ele>
        <time>2026-07-29T10:24:33.716Z</time>
      </trkpt>
      <trkpt lat="45.70996" lon="6.69602">
        <ele>2346</ele>
        <time>2026-07-29T10:24:34.716Z</time>
      </trkpt>
      <trkpt lat="45.70996" lon="6.69601">
        <ele>2346</ele>
        <time>2026-07-29T10:24:35.716Z</time>
      </trkpt>
      <trkpt lat="45.70997" lon="6.696">
        <ele>2346</ele>
        <time>2026-07-29T10:24:36.716Z</time>
      </trkpt>
      <trkpt lat="45.70997" lon="6.696">
        <ele>2346</ele>
        <time>2026-07-29T10:24:37.716Z</time>
      </trkpt>
      <trkpt lat="45.70997" lon="6.69598">
        <ele>2346</ele>
        <time>2026-07-29T10:24:38.716Z</time>
      </trkpt>
      <trkpt lat="45.70997" lon="6.69597">
        <ele>2346</ele>
        <time>2026-07-29T10:24:39.716Z</time>
      </trkpt>
      <trkpt lat="45.70998" lon="6.69595">
        <ele>2346</ele>
        <time>2026-07-29T10:24:40.716Z</time>
      </trkpt>
      <trkpt lat="45.70998" lon="6.69592">
        <ele>2346</ele>
        <time>2026-07-29T10:24:41.716Z</time>
      </trkpt>
      <trkpt lat="45.70999" lon="6.69591">
        <ele>2346</ele>
        <time>2026-07-29T10:24:42.716Z</time>
      </trkpt>
      <trkpt lat="45.70999" lon="6.69588">
        <ele>2346</ele>
        <time>2026-07-29T10:24:43.716Z</time>
      </trkpt>
      <trkpt lat="45.71" lon="6.69585">
        <ele>2345</ele>
        <time>2026-07-29T10:24:44.716Z</time>
      </trkpt>
      <trkpt lat="45.71" lon="6.69583">
        <ele>2345</ele>
        <time>2026-07-29T10:24:45.716Z</time>
      </trkpt>
      <trkpt lat="45.71001" lon="6.6958">
        <ele>2345</ele>
        <time>2026-07-29T10:24:46.716Z</time>
      </trkpt>
      <trkpt lat="45.71001" lon="6.69578">
        <ele>2344</ele>
        <time>2026-07-29T10:24:47.716Z</time>
      </trkpt>
      <trkpt lat="45.71002" lon="6.69576">
        <ele>2344</ele>
        <time>2026-07-29T10:24:48.716Z</time>
      </trkpt>
      <trkpt lat="45.71002" lon="6.69574">
        <ele>2344</ele>
        <time>2026-07-29T10:24:49.716Z</time>
      </trkpt>
      <trkpt lat="45.71003" lon="6.69571">
        <ele>2343</ele>
        <time>2026-07-29T10:24:50.716Z</time>
      </trkpt>
      <trkpt lat="45.71003" lon="6.69569">
        <ele>2342</ele>
        <time>2026-07-29T10:24:51.716Z</time>
      </trkpt>
      <trkpt lat="45.71003" lon="6.69567">
        <ele>2341</ele>
        <time>2026-07-29T10:24:52.716Z</time>
      </trkpt>
      <trkpt lat="45.71004" lon="6.69566">
        <ele>2341</ele>
        <time>2026-07-29T10:24:53.716Z</time>
      </trkpt>
      <trkpt lat="45.71005" lon="6.69565">
        <ele>2340</ele>
        <time>2026-07-29T10:24:54.716Z</time>
      </trkpt>
      <trkpt lat="45.71006" lon="6.69564">
        <ele>2340</ele>
        <time>2026-07-29T10:24:55.716Z</time>
      </trkpt>
      <trkpt lat="45.71007" lon="6.69563">
        <ele>2339</ele>
        <time>2026-07-29T10:24:56.716Z</time>
      </trkpt>
      <trkpt lat="45.71008" lon="6.69562">
        <ele>2339</ele>
        <time>2026-07-29T10:24:57.716Z</time>
      </trkpt>
      <trkpt lat="45.71009" lon="6.6956">
        <ele>2338</ele>
        <time>2026-07-29T10:24:58.716Z</time>
      </trkpt>
      <trkpt lat="45.7101" lon="6.69558">
        <ele>2338</ele>
        <time>2026-07-29T10:24:59.716Z</time>
      </trkpt>
      <trkpt lat="45.71011" lon="6.69555">
        <ele>2337</ele>
        <time>2026-07-29T10:25:00.716Z</time>
      </trkpt>
      <trkpt lat="45.71012" lon="6.69551">
        <ele>2336</ele>
        <time>2026-07-29T10:25:01.716Z</time>
      </trkpt>
      <trkpt lat="45.71013" lon="6.69548">
        <ele>2336</ele>
        <time>2026-07-29T10:25:02.716Z</time>
      </trkpt>
      <trkpt lat="45.71014" lon="6.69545">
        <ele>2336</ele>
        <time>2026-07-29T10:25:03.716Z</time>
      </trkpt>
      <trkpt lat="45.71014" lon="6.69542">
        <ele>2336</ele>
        <time>2026-07-29T10:25:04.716Z</time>
      </trkpt>
      <trkpt lat="45.71015" lon="6.6954">
        <ele>2336</ele>
        <time>2026-07-29T10:25:05.716Z</time>
      </trkpt>
      <trkpt lat="45.71016" lon="6.69538">
        <ele>2336</ele>
        <time>2026-07-29T10:25:06.716Z</time>
      </trkpt>
      <trkpt lat="45.71016" lon="6.69536">
        <ele>2336</ele>
        <time>2026-07-29T10:25:07.716Z</time>
      </trkpt>
      <trkpt lat="45.71017" lon="6.69533">
        <ele>2336</ele>
        <time>2026-07-29T10:25:08.716Z</time>
      </trkpt>
      <trkpt lat="45.71018" lon="6.69531">
        <ele>2336</ele>
        <time>2026-07-29T10:25:09.716Z</time>
      </trkpt>
      <trkpt lat="45.71019" lon="6.69529">
        <ele>2335</ele>
        <time>2026-07-29T10:25:10.716Z</time>
      </trkpt>
      <trkpt lat="45.7102" lon="6.69527">
        <ele>2335</ele>
        <time>2026-07-29T10:25:11.716Z</time>
      </trkpt>
      <trkpt lat="45.71021" lon="6.69525">
        <ele>2335</ele>
        <time>2026-07-29T10:25:12.716Z</time>
      </trkpt>
      <trkpt lat="45.71022" lon="6.69522">
        <ele>2335</ele>
        <time>2026-07-29T10:25:13.716Z</time>
      </trkpt>
      <trkpt lat="45.71023" lon="6.6952">
        <ele>2334</ele>
        <time>2026-07-29T10:25:14.716Z</time>
      </trkpt>
      <trkpt lat="45.71025" lon="6.69519">
        <ele>2334</ele>
        <time>2026-07-29T10:25:15.716Z</time>
      </trkpt>
      <trkpt lat="45.71027" lon="6.69517">
        <ele>2333</ele>
        <time>2026-07-29T10:25:16.716Z</time>
      </trkpt>
      <trkpt lat="45.71029" lon="6.69516">
        <ele>2333</ele>
        <time>2026-07-29T10:25:17.716Z</time>
      </trkpt>
      <trkpt lat="45.71031" lon="6.69515">
        <ele>2332</ele>
        <time>2026-07-29T10:25:18.716Z</time>
      </trkpt>
      <trkpt lat="45.71033" lon="6.69514">
        <ele>2332</ele>
        <time>2026-07-29T10:25:19.716Z</time>
      </trkpt>
      <trkpt lat="45.71035" lon="6.69514">
        <ele>2332</ele>
        <time>2026-07-29T10:25:20.716Z</time>
      </trkpt>
      <trkpt lat="45.71037" lon="6.69513">
        <ele>2331</ele>
        <time>2026-07-29T10:25:21.716Z</time>
      </trkpt>
      <trkpt lat="45.71039" lon="6.69513">
        <ele>2330</ele>
        <time>2026-07-29T10:25:22.716Z</time>
      </trkpt>
      <trkpt lat="45.71041" lon="6.69513">
        <ele>2330</ele>
        <time>2026-07-29T10:25:23.716Z</time>
      </trkpt>
      <trkpt lat="45.71042" lon="6.69513">
        <ele>2330</ele>
        <time>2026-07-29T10:25:24.716Z</time>
      </trkpt>
      <trkpt lat="45.71044" lon="6.69514">
        <ele>2329</ele>
        <time>2026-07-29T10:25:25.716Z</time>
      </trkpt>
      <trkpt lat="45.71046" lon="6.69514">
        <ele>2329</ele>
        <time>2026-07-29T10:25:26.716Z</time>
      </trkpt>
      <trkpt lat="45.71047" lon="6.69514">
        <ele>2329</ele>
        <time>2026-07-29T10:25:27.716Z</time>
      </trkpt>
      <trkpt lat="45.71049" lon="6.69514">
        <ele>2329</ele>
        <time>2026-07-29T10:25:28.716Z</time>
      </trkpt>
      <trkpt lat="45.71052" lon="6.69514">
        <ele>2328</ele>
        <time>2026-07-29T10:25:29.716Z</time>
      </trkpt>
      <trkpt lat="45.71054" lon="6.69514">
        <ele>2328</ele>
        <time>2026-07-29T10:25:30.716Z</time>
      </trkpt>
      <trkpt lat="45.71057" lon="6.69513">
        <ele>2328</ele>
        <time>2026-07-29T10:25:31.716Z</time>
      </trkpt>
      <trkpt lat="45.71059" lon="6.69513">
        <ele>2328</ele>
        <time>2026-07-29T10:25:32.716Z</time>
      </trkpt>
      <trkpt lat="45.71062" lon="6.69512">
        <ele>2328</ele>
        <time>2026-07-29T10:25:33.716Z</time>
      </trkpt>
      <trkpt lat="45.71065" lon="6.69512">
        <ele>2328</ele>
        <time>2026-07-29T10:25:34.716Z</time>
      </trkpt>
      <trkpt lat="45.71067" lon="6.69511">
        <ele>2328</ele>
        <time>2026-07-29T10:25:35.716Z</time>
      </trkpt>
      <trkpt lat="45.7107" lon="6.6951">
        <ele>2327</ele>
        <time>2026-07-29T10:25:36.716Z</time>
      </trkpt>
      <trkpt lat="45.71072" lon="6.6951">
        <ele>2327</ele>
        <time>2026-07-29T10:25:37.716Z</time>
      </trkpt>
      <trkpt lat="45.71074" lon="6.69509">
        <ele>2327</ele>
        <time>2026-07-29T10:25:38.716Z</time>
      </trkpt>
      <trkpt lat="45.71076" lon="6.69509">
        <ele>2327</ele>
        <time>2026-07-29T10:25:39.716Z</time>
      </trkpt>
      <trkpt lat="45.71078" lon="6.69508">
        <ele>2327</ele>
        <time>2026-07-29T10:25:40.716Z</time>
      </trkpt>
      <trkpt lat="45.7108" lon="6.69508">
        <ele>2327</ele>
        <time>2026-07-29T10:25:41.716Z</time>
      </trkpt>
      <trkpt lat="45.71083" lon="6.69509">
        <ele>2326</ele>
        <time>2026-07-29T10:25:42.716Z</time>
      </trkpt>
      <trkpt lat="45.71085" lon="6.69509">
        <ele>2326</ele>
        <time>2026-07-29T10:25:43.716Z</time>
      </trkpt>
      <trkpt lat="45.71087" lon="6.69509">
        <ele>2325</ele>
        <time>2026-07-29T10:25:44.716Z</time>
      </trkpt>
      <trkpt lat="45.7109" lon="6.69509">
        <ele>2325</ele>
        <time>2026-07-29T10:25:45.716Z</time>
      </trkpt>
      <trkpt lat="45.71092" lon="6.69509">
        <ele>2325</ele>
        <time>2026-07-29T10:25:46.716Z</time>
      </trkpt>
      <trkpt lat="45.71094" lon="6.69509">
        <ele>2324</ele>
        <time>2026-07-29T10:25:47.716Z</time>
      </trkpt>
      <trkpt lat="45.71096" lon="6.69509">
        <ele>2324</ele>
        <time>2026-07-29T10:25:48.716Z</time>
      </trkpt>
      <trkpt lat="45.71097" lon="6.69508">
        <ele>2324</ele>
        <time>2026-07-29T10:25:49.716Z</time>
      </trkpt>
      <trkpt lat="45.71099" lon="6.69505">
        <ele>2324</ele>
        <time>2026-07-29T10:25:50.716Z</time>
      </trkpt>
      <trkpt lat="45.711" lon="6.69503">
        <ele>2324</ele>
        <time>2026-07-29T10:25:51.716Z</time>
      </trkpt>
      <trkpt lat="45.71101" lon="6.695">
        <ele>2324</ele>
        <time>2026-07-29T10:25:52.716Z</time>
      </trkpt>
      <trkpt lat="45.71102" lon="6.69499">
        <ele>2324</ele>
        <time>2026-07-29T10:25:53.716Z</time>
      </trkpt>
      <trkpt lat="45.71104" lon="6.69497">
        <ele>2323</ele>
        <time>2026-07-29T10:25:54.716Z</time>
      </trkpt>
      <trkpt lat="45.71106" lon="6.69497">
        <ele>2323</ele>
        <time>2026-07-29T10:25:55.716Z</time>
      </trkpt>
      <trkpt lat="45.71107" lon="6.69496">
        <ele>2323</ele>
        <time>2026-07-29T10:25:56.716Z</time>
      </trkpt>
      <trkpt lat="45.71109" lon="6.69496">
        <ele>2322</ele>
        <time>2026-07-29T10:25:57.716Z</time>
      </trkpt>
      <trkpt lat="45.71111" lon="6.69495">
        <ele>2322</ele>
        <time>2026-07-29T10:25:58.716Z</time>
      </trkpt>
      <trkpt lat="45.71113" lon="6.69494">
        <ele>2321</ele>
        <time>2026-07-29T10:25:59.716Z</time>
      </trkpt>
      <trkpt lat="45.71114" lon="6.69493">
        <ele>2321</ele>
        <time>2026-07-29T10:26:00.716Z</time>
      </trkpt>
      <trkpt lat="45.71116" lon="6.69492">
        <ele>2321</ele>
        <time>2026-07-29T10:26:01.716Z</time>
      </trkpt>
      <trkpt lat="45.71118" lon="6.6949">
        <ele>2320</ele>
        <time>2026-07-29T10:26:02.716Z</time>
      </trkpt>
      <trkpt lat="45.7112" lon="6.69488">
        <ele>2320</ele>
        <time>2026-07-29T10:26:03.716Z</time>
      </trkpt>
      <trkpt lat="45.71122" lon="6.69486">
        <ele>2320</ele>
        <time>2026-07-29T10:26:04.717Z</time>
      </trkpt>
      <trkpt lat="45.71123" lon="6.69484">
        <ele>2320</ele>
        <time>2026-07-29T10:26:05.716Z</time>
      </trkpt>
      <trkpt lat="45.71124" lon="6.69482">
        <ele>2320</ele>
        <time>2026-07-29T10:26:06.716Z</time>
      </trkpt>
      <trkpt lat="45.71125" lon="6.69479">
        <ele>2320</ele>
        <time>2026-07-29T10:26:07.716Z</time>
      </trkpt>
      <trkpt lat="45.71127" lon="6.69477">
        <ele>2319</ele>
        <time>2026-07-29T10:26:08.716Z</time>
      </trkpt>
      <trkpt lat="45.71128" lon="6.69475">
        <ele>2319</ele>
        <time>2026-07-29T10:26:09.716Z</time>
      </trkpt>
      <trkpt lat="45.7113" lon="6.69472">
        <ele>2319</ele>
        <time>2026-07-29T10:26:10.716Z</time>
      </trkpt>
      <trkpt lat="45.71132" lon="6.6947">
        <ele>2319</ele>
        <time>2026-07-29T10:26:11.716Z</time>
      </trkpt>
      <trkpt lat="45.71134" lon="6.69468">
        <ele>2318</ele>
        <time>2026-07-29T10:26:12.716Z</time>
      </trkpt>
      <trkpt lat="45.71136" lon="6.69467">
        <ele>2317</ele>
        <time>2026-07-29T10:26:13.716Z</time>
      </trkpt>
      <trkpt lat="45.71138" lon="6.69466">
        <ele>2316</ele>
        <time>2026-07-29T10:26:14.716Z</time>
      </trkpt>
      <trkpt lat="45.7114" lon="6.69465">
        <ele>2316</ele>
        <time>2026-07-29T10:26:15.716Z</time>
      </trkpt>
      <trkpt lat="45.71142" lon="6.69463">
        <ele>2315</ele>
        <time>2026-07-29T10:26:16.716Z</time>
      </trkpt>
      <trkpt lat="45.71144" lon="6.69461">
        <ele>2315</ele>
        <time>2026-07-29T10:26:17.716Z</time>
      </trkpt>
      <trkpt lat="45.71146" lon="6.6946">
        <ele>2314</ele>
        <time>2026-07-29T10:26:18.716Z</time>
      </trkpt>
      <trkpt lat="45.71148" lon="6.69458">
        <ele>2314</ele>
        <time>2026-07-29T10:26:19.716Z</time>
      </trkpt>
      <trkpt lat="45.7115" lon="6.69456">
        <ele>2314</ele>
        <time>2026-07-29T10:26:20.716Z</time>
      </trkpt>
      <trkpt lat="45.71152" lon="6.69453">
        <ele>2314</ele>
        <time>2026-07-29T10:26:21.716Z</time>
      </trkpt>
      <trkpt lat="45.71154" lon="6.69451">
        <ele>2314</ele>
        <time>2026-07-29T10:26:22.716Z</time>
      </trkpt>
      <trkpt lat="45.71156" lon="6.6945">
        <ele>2314</ele>
        <time>2026-07-29T10:26:23.716Z</time>
      </trkpt>
      <trkpt lat="45.71159" lon="6.69448">
        <ele>2314</ele>
        <time>2026-07-29T10:26:24.716Z</time>
      </trkpt>
      <trkpt lat="45.71161" lon="6.69447">
        <ele>2314</ele>
        <time>2026-07-29T10:26:25.716Z</time>
      </trkpt>
      <trkpt lat="45.71163" lon="6.69446">
        <ele>2313</ele>
        <time>2026-07-29T10:26:26.716Z</time>
      </trkpt>
      <trkpt lat="45.71165" lon="6.69445">
        <ele>2313</ele>
        <time>2026-07-29T10:26:27.716Z</time>
      </trkpt>
      <trkpt lat="45.71167" lon="6.69444">
        <ele>2312</ele>
        <time>2026-07-29T10:26:28.716Z</time>
      </trkpt>
      <trkpt lat="45.71168" lon="6.69443">
        <ele>2312</ele>
        <time>2026-07-29T10:26:29.716Z</time>
      </trkpt>
      <trkpt lat="45.71169" lon="6.69442">
        <ele>2312</ele>
        <time>2026-07-29T10:26:30.716Z</time>
      </trkpt>
      <trkpt lat="45.7117" lon="6.69443">
        <ele>2312</ele>
        <time>2026-07-29T10:26:31.716Z</time>
      </trkpt>
      <trkpt lat="45.7117" lon="6.69442">
        <ele>2312</ele>
        <time>2026-07-29T10:26:32.716Z</time>
      </trkpt>
      <trkpt lat="45.71171" lon="6.69442">
        <ele>2311</ele>
        <time>2026-07-29T10:26:33.716Z</time>
      </trkpt>
      <trkpt lat="45.71171" lon="6.69443">
        <ele>2311</ele>
        <time>2026-07-29T10:26:34.716Z</time>
      </trkpt>
      <trkpt lat="45.7117" lon="6.69443">
        <ele>2311</ele>
        <time>2026-07-29T10:26:35.716Z</time>
      </trkpt>
      <trkpt lat="45.7117" lon="6.69443">
        <ele>2311</ele>
        <time>2026-07-29T10:26:36.716Z</time>
      </trkpt>
      <trkpt lat="45.7117" lon="6.69444">
        <ele>2311</ele>
        <time>2026-07-29T10:26:37.716Z</time>
      </trkpt>
      <trkpt lat="45.7117" lon="6.69444">
        <ele>2311</ele>
        <time>2026-07-29T10:26:38.716Z</time>
      </trkpt>
      <trkpt lat="45.7117" lon="6.69443">
        <ele>2311</ele>
        <time>2026-07-29T10:26:39.716Z</time>
      </trkpt>
      <trkpt lat="45.7117" lon="6.69443">
        <ele>2311</ele>
        <time>2026-07-29T10:26:40.716Z</time>
      </trkpt>
      <trkpt lat="45.7117" lon="6.69443">
        <ele>2311</ele>
        <time>2026-07-29T10:26:41.716Z</time>
      </trkpt>
      <trkpt lat="45.7117" lon="6.69443">
        <ele>2311</ele>
        <time>2026-07-29T10:26:42.716Z</time>
      </trkpt>
      <trkpt lat="45.7117" lon="6.69442">
        <ele>2311</ele>
        <time>2026-07-29T10:26:43.716Z</time>
      </trkpt>
      <trkpt lat="45.71171" lon="6.69441">
        <ele>2311</ele>
        <time>2026-07-29T10:26:44.716Z</time>
      </trkpt>
      <trkpt lat="45.71172" lon="6.6944">
        <ele>2311</ele>
        <time>2026-07-29T10:26:45.716Z</time>
      </trkpt>
      <trkpt lat="45.71173" lon="6.69439">
        <ele>2311</ele>
        <time>2026-07-29T10:26:46.716Z</time>
      </trkpt>
      <trkpt lat="45.71174" lon="6.69437">
        <ele>2312</ele>
        <time>2026-07-29T10:26:47.716Z</time>
      </trkpt>
      <trkpt lat="45.71176" lon="6.69436">
        <ele>2312</ele>
        <time>2026-07-29T10:26:48.716Z</time>
      </trkpt>
      <trkpt lat="45.71177" lon="6.69435">
        <ele>2312</ele>
        <time>2026-07-29T10:26:49.716Z</time>
      </trkpt>
      <trkpt lat="45.71179" lon="6.69434">
        <ele>2312</ele>
        <time>2026-07-29T10:26:50.716Z</time>
      </trkpt>
      <trkpt lat="45.71181" lon="6.69433">
        <ele>2312</ele>
        <time>2026-07-29T10:26:51.716Z</time>
      </trkpt>
      <trkpt lat="45.71183" lon="6.69432">
        <ele>2312</ele>
        <time>2026-07-29T10:26:52.716Z</time>
      </trkpt>
      <trkpt lat="45.71185" lon="6.69431">
        <ele>2312</ele>
        <time>2026-07-29T10:26:53.716Z</time>
      </trkpt>
      <trkpt lat="45.71187" lon="6.69431">
        <ele>2313</ele>
        <time>2026-07-29T10:26:54.716Z</time>
      </trkpt>
      <trkpt lat="45.71189" lon="6.6943">
        <ele>2313</ele>
        <time>2026-07-29T10:26:55.716Z</time>
      </trkpt>
      <trkpt lat="45.71191" lon="6.6943">
        <ele>2313</ele>
        <time>2026-07-29T10:26:56.716Z</time>
      </trkpt>
      <trkpt lat="45.71192" lon="6.69429">
        <ele>2313</ele>
        <time>2026-07-29T10:26:57.716Z</time>
      </trkpt>
      <trkpt lat="45.71194" lon="6.69427">
        <ele>2314</ele>
        <time>2026-07-29T10:26:58.716Z</time>
      </trkpt>
      <trkpt lat="45.71195" lon="6.69427">
        <ele>2314</ele>
        <time>2026-07-29T10:26:59.716Z</time>
      </trkpt>
      <trkpt lat="45.71195" lon="6.69426">
        <ele>2314</ele>
        <time>2026-07-29T10:27:00.716Z</time>
      </trkpt>
      <trkpt lat="45.71196" lon="6.69426">
        <ele>2314</ele>
        <time>2026-07-29T10:27:01.716Z</time>
      </trkpt>
      <trkpt lat="45.71196" lon="6.69426">
        <ele>2314</ele>
        <time>2026-07-29T10:27:02.716Z</time>
      </trkpt>
      <trkpt lat="45.71196" lon="6.69426">
        <ele>2313</ele>
        <time>2026-07-29T10:27:03.716Z</time>
      </trkpt>
      <trkpt lat="45.71195" lon="6.69427">
        <ele>2313</ele>
        <time>2026-07-29T10:27:04.716Z</time>
      </trkpt>
      <trkpt lat="45.71193" lon="6.69428">
        <ele>2313</ele>
        <time>2026-07-29T10:27:05.716Z</time>
      </trkpt>
      <trkpt lat="45.71192" lon="6.69429">
        <ele>2313</ele>
        <time>2026-07-29T10:27:06.716Z</time>
      </trkpt>
      <trkpt lat="45.71189" lon="6.6943">
        <ele>2313</ele>
        <time>2026-07-29T10:27:07.716Z</time>
      </trkpt>
      <trkpt lat="45.71188" lon="6.69431">
        <ele>2313</ele>
        <time>2026-07-29T10:27:08.716Z</time>
      </trkpt>
      <trkpt lat="45.71186" lon="6.69431">
        <ele>2314</ele>
        <time>2026-07-29T10:27:09.716Z</time>
      </trkpt>
      <trkpt lat="45.71184" lon="6.69432">
        <ele>2314</ele>
        <time>2026-07-29T10:27:10.716Z</time>
      </trkpt>
      <trkpt lat="45.71182" lon="6.69433">
        <ele>2314</ele>
        <time>2026-07-29T10:27:11.716Z</time>
      </trkpt>
      <trkpt lat="45.7118" lon="6.69434">
        <ele>2314</ele>
        <time>2026-07-29T10:27:12.716Z</time>
      </trkpt>
      <trkpt lat="45.71178" lon="6.69435">
        <ele>2314</ele>
        <time>2026-07-29T10:27:13.716Z</time>
      </trkpt>
      <trkpt lat="45.71176" lon="6.69436">
        <ele>2314</ele>
        <time>2026-07-29T10:27:14.716Z</time>
      </trkpt>
      <trkpt lat="45.71174" lon="6.69436">
        <ele>2314</ele>
        <time>2026-07-29T10:27:15.716Z</time>
      </trkpt>
      <trkpt lat="45.71172" lon="6.69438">
        <ele>2313</ele>
        <time>2026-07-29T10:27:16.716Z</time>
      </trkpt>
      <trkpt lat="45.71172" lon="6.6944">
        <ele>2313</ele>
        <time>2026-07-29T10:27:17.716Z</time>
      </trkpt>
      <trkpt lat="45.71171" lon="6.69441">
        <ele>2313</ele>
        <time>2026-07-29T10:27:18.716Z</time>
      </trkpt>
      <trkpt lat="45.71171" lon="6.69444">
        <ele>2312</ele>
        <time>2026-07-29T10:27:19.716Z</time>
      </trkpt>
      <trkpt lat="45.71172" lon="6.69446">
        <ele>2312</ele>
        <time>2026-07-29T10:27:20.716Z</time>
      </trkpt>
      <trkpt lat="45.71173" lon="6.69448">
        <ele>2312</ele>
        <time>2026-07-29T10:27:21.716Z</time>
      </trkpt>
      <trkpt lat="45.71173" lon="6.6945">
        <ele>2312</ele>
        <time>2026-07-29T10:27:22.716Z</time>
      </trkpt>
      <trkpt lat="45.71173" lon="6.69453">
        <ele>2313</ele>
        <time>2026-07-29T10:27:23.716Z</time>
      </trkpt>
      <trkpt lat="45.71172" lon="6.69454">
        <ele>2313</ele>
        <time>2026-07-29T10:27:24.716Z</time>
      </trkpt>
      <trkpt lat="45.71171" lon="6.69456">
        <ele>2313</ele>
        <time>2026-07-29T10:27:25.716Z</time>
      </trkpt>
      <trkpt lat="45.7117" lon="6.69458">
        <ele>2313</ele>
        <time>2026-07-29T10:27:26.716Z</time>
      </trkpt>
      <trkpt lat="45.71169" lon="6.6946">
        <ele>2313</ele>
        <time>2026-07-29T10:27:27.716Z</time>
      </trkpt>
      <trkpt lat="45.71167" lon="6.69462">
        <ele>2313</ele>
        <time>2026-07-29T10:27:28.716Z</time>
      </trkpt>
      <trkpt lat="45.71166" lon="6.69465">
        <ele>2313</ele>
        <time>2026-07-29T10:27:29.716Z</time>
      </trkpt>
      <trkpt lat="45.71166" lon="6.69468">
        <ele>2313</ele>
        <time>2026-07-29T10:27:30.716Z</time>
      </trkpt>
      <trkpt lat="45.71167" lon="6.6947">
        <ele>2312</ele>
        <time>2026-07-29T10:27:31.716Z</time>
      </trkpt>
      <trkpt lat="45.71168" lon="6.69471">
        <ele>2312</ele>
        <time>2026-07-29T10:27:32.716Z</time>
      </trkpt>
      <trkpt lat="45.71169" lon="6.69472">
        <ele>2312</ele>
        <time>2026-07-29T10:27:33.716Z</time>
      </trkpt>
      <trkpt lat="45.7117" lon="6.69473">
        <ele>2312</ele>
        <time>2026-07-29T10:27:34.716Z</time>
      </trkpt>
      <trkpt lat="45.71172" lon="6.69474">
        <ele>2312</ele>
        <time>2026-07-29T10:27:35.716Z</time>
      </trkpt>
      <trkpt lat="45.71174" lon="6.69475">
        <ele>2312</ele>
        <time>2026-07-29T10:27:36.716Z</time>
      </trkpt>
      <trkpt lat="45.71175" lon="6.69477">
        <ele>2311</ele>
        <time>2026-07-29T10:27:37.716Z</time>
      </trkpt>
      <trkpt lat="45.71177" lon="6.69479">
        <ele>2311</ele>
        <time>2026-07-29T10:27:38.716Z</time>
      </trkpt>
      <trkpt lat="45.71179" lon="6.69481">
        <ele>2311</ele>
        <time>2026-07-29T10:27:39.716Z</time>
      </trkpt>
      <trkpt lat="45.7118" lon="6.69482">
        <ele>2312</ele>
        <time>2026-07-29T10:27:40.716Z</time>
      </trkpt>
      <trkpt lat="45.71181" lon="6.69484">
        <ele>2312</ele>
        <time>2026-07-29T10:27:41.716Z</time>
      </trkpt>
      <trkpt lat="45.71183" lon="6.69486">
        <ele>2312</ele>
        <time>2026-07-29T10:27:42.716Z</time>
      </trkpt>
      <trkpt lat="45.71185" lon="6.69487">
        <ele>2312</ele>
        <time>2026-07-29T10:27:43.716Z</time>
      </trkpt>
      <trkpt lat="45.71187" lon="6.69488">
        <ele>2312</ele>
        <time>2026-07-29T10:27:44.716Z</time>
      </trkpt>
      <trkpt lat="45.71189" lon="6.69489">
        <ele>2312</ele>
        <time>2026-07-29T10:27:45.716Z</time>
      </trkpt>
      <trkpt lat="45.71191" lon="6.69489">
        <ele>2312</ele>
        <time>2026-07-29T10:27:46.716Z</time>
      </trkpt>
      <trkpt lat="45.71192" lon="6.6949">
        <ele>2312</ele>
        <time>2026-07-29T10:27:47.716Z</time>
      </trkpt>
      <trkpt lat="45.71194" lon="6.69491">
        <ele>2312</ele>
        <time>2026-07-29T10:27:48.716Z</time>
      </trkpt>
      <trkpt lat="45.71195" lon="6.69493">
        <ele>2312</ele>
        <time>2026-07-29T10:27:49.716Z</time>
      </trkpt>
      <trkpt lat="45.71196" lon="6.69495">
        <ele>2312</ele>
        <time>2026-07-29T10:27:50.716Z</time>
      </trkpt>
      <trkpt lat="45.71197" lon="6.69497">
        <ele>2312</ele>
        <time>2026-07-29T10:27:51.716Z</time>
      </trkpt>
      <trkpt lat="45.71198" lon="6.69499">
        <ele>2312</ele>
        <time>2026-07-29T10:27:52.716Z</time>
      </trkpt>
      <trkpt lat="45.71199" lon="6.69502">
        <ele>2312</ele>
        <time>2026-07-29T10:27:53.716Z</time>
      </trkpt>
      <trkpt lat="45.712" lon="6.69504">
        <ele>2312</ele>
        <time>2026-07-29T10:27:54.716Z</time>
      </trkpt>
      <trkpt lat="45.71201" lon="6.69506">
        <ele>2312</ele>
        <time>2026-07-29T10:27:55.716Z</time>
      </trkpt>
      <trkpt lat="45.71202" lon="6.69508">
        <ele>2312</ele>
        <time>2026-07-29T10:27:56.716Z</time>
      </trkpt>
      <trkpt lat="45.71203" lon="6.6951">
        <ele>2312</ele>
        <time>2026-07-29T10:27:57.716Z</time>
      </trkpt>
      <trkpt lat="45.71205" lon="6.69512">
        <ele>2311</ele>
        <time>2026-07-29T10:27:58.716Z</time>
      </trkpt>
      <trkpt lat="45.71206" lon="6.69514">
        <ele>2311</ele>
        <time>2026-07-29T10:27:59.716Z</time>
      </trkpt>
      <trkpt lat="45.71208" lon="6.69516">
        <ele>2311</ele>
        <time>2026-07-29T10:28:00.716Z</time>
      </trkpt>
      <trkpt lat="45.71209" lon="6.69518">
        <ele>2311</ele>
        <time>2026-07-29T10:28:01.716Z</time>
      </trkpt>
      <trkpt lat="45.7121" lon="6.69519">
        <ele>2311</ele>
        <time>2026-07-29T10:28:02.716Z</time>
      </trkpt>
      <trkpt lat="45.71211" lon="6.6952">
        <ele>2310</ele>
        <time>2026-07-29T10:28:03.716Z</time>
      </trkpt>
      <trkpt lat="45.71212" lon="6.69521">
        <ele>2310</ele>
        <time>2026-07-29T10:28:04.716Z</time>
      </trkpt>
      <trkpt lat="45.71212" lon="6.69523">
        <ele>2311</ele>
        <time>2026-07-29T10:28:05.716Z</time>
      </trkpt>
      <trkpt lat="45.71213" lon="6.69524">
        <ele>2311</ele>
        <time>2026-07-29T10:28:06.716Z</time>
      </trkpt>
      <trkpt lat="45.71213" lon="6.69525">
        <ele>2311</ele>
        <time>2026-07-29T10:28:07.716Z</time>
      </trkpt>
      <trkpt lat="45.71214" lon="6.69525">
        <ele>2312</ele>
        <time>2026-07-29T10:28:08.716Z</time>
      </trkpt>
      <trkpt lat="45.71214" lon="6.69526">
        <ele>2312</ele>
        <time>2026-07-29T10:28:09.716Z</time>
      </trkpt>
      <trkpt lat="45.71214" lon="6.69526">
        <ele>2312</ele>
        <time>2026-07-29T10:28:10.716Z</time>
      </trkpt>
      <trkpt lat="45.71214" lon="6.69526">
        <ele>2312</ele>
        <time>2026-07-29T10:28:11.716Z</time>
      </trkpt>
      <trkpt lat="45.71214" lon="6.69526">
        <ele>2312</ele>
        <time>2026-07-29T10:28:12.716Z</time>
      </trkpt>
      <trkpt lat="45.71214" lon="6.69526">
        <ele>2312</ele>
        <time>2026-07-29T10:28:13.716Z</time>
      </trkpt>
      <trkpt lat="45.71214" lon="6.69526">
        <ele>2312</ele>
        <time>2026-07-29T10:28:14.716Z</time>
      </trkpt>
      <trkpt lat="45.71214" lon="6.69527">
        <ele>2312</ele>
        <time>2026-07-29T10:28:15.716Z</time>
      </trkpt>
      <trkpt lat="45.71214" lon="6.69527">
        <ele>2312</ele>
        <time>2026-07-29T10:28:16.716Z</time>
      </trkpt>
      <trkpt lat="45.71214" lon="6.69527">
        <ele>2312</ele>
        <time>2026-07-29T10:28:17.716Z</time>
      </trkpt>
      <trkpt lat="45.71214" lon="6.69527">
        <ele>2312</ele>
        <time>2026-07-29T10:28:18.716Z</time>
      </trkpt>
      <trkpt lat="45.71214" lon="6.69527">
        <ele>2312</ele>
        <time>2026-07-29T10:28:19.716Z</time>
      </trkpt>
      <trkpt lat="45.71214" lon="6.69527">
        <ele>2312</ele>
        <time>2026-07-29T10:28:20.716Z</time>
      </trkpt>
      <trkpt lat="45.71214" lon="6.69527">
        <ele>2312</ele>
        <time>2026-07-29T10:28:21.716Z</time>
      </trkpt>
      <trkpt lat="45.71214" lon="6.69527">
        <ele>2311</ele>
        <time>2026-07-29T10:28:22.716Z</time>
      </trkpt>
      <trkpt lat="45.71214" lon="6.69527">
        <ele>2311</ele>
        <time>2026-07-29T10:28:23.716Z</time>
      </trkpt>
      <trkpt lat="45.71214" lon="6.69527">
        <ele>2311</ele>
        <time>2026-07-29T10:28:24.716Z</time>
      </trkpt>
      <trkpt lat="45.71214" lon="6.69527">
        <ele>2311</ele>
        <time>2026-07-29T10:28:25.716Z</time>
      </trkpt>
      <trkpt lat="45.71214" lon="6.69527">
        <ele>2311</ele>
        <time>2026-07-29T10:28:26.716Z</time>
      </trkpt>
      <trkpt lat="45.71214" lon="6.69527">
        <ele>2311</ele>
        <time>2026-07-29T10:28:27.716Z</time>
      </trkpt>
      <trkpt lat="45.71214" lon="6.69527">
        <ele>2311</ele>
        <time>2026-07-29T10:28:28.716Z</time>
      </trkpt>
      <trkpt lat="45.71216" lon="6.69528">
        <ele>2311</ele>
        <time>2026-07-29T10:28:29.716Z</time>
      </trkpt>
      <trkpt lat="45.71217" lon="6.6953">
        <ele>2310</ele>
        <time>2026-07-29T10:28:30.716Z</time>
      </trkpt>
      <trkpt lat="45.71218" lon="6.69532">
        <ele>2310</ele>
        <time>2026-07-29T10:28:31.716Z</time>
      </trkpt>
      <trkpt lat="45.7122" lon="6.69534">
        <ele>2310</ele>
        <time>2026-07-29T10:28:32.716Z</time>
      </trkpt>
      <trkpt lat="45.71221" lon="6.69536">
        <ele>2309</ele>
        <time>2026-07-29T10:28:33.716Z</time>
      </trkpt>
      <trkpt lat="45.71223" lon="6.69537">
        <ele>2309</ele>
        <time>2026-07-29T10:28:34.716Z</time>
      </trkpt>
      <trkpt lat="45.71225" lon="6.69539">
        <ele>2308</ele>
        <time>2026-07-29T10:28:35.716Z</time>
      </trkpt>
      <trkpt lat="45.71226" lon="6.6954">
        <ele>2308</ele>
        <time>2026-07-29T10:28:36.716Z</time>
      </trkpt>
      <trkpt lat="45.71227" lon="6.69541">
        <ele>2308</ele>
        <time>2026-07-29T10:28:37.716Z</time>
      </trkpt>
      <trkpt lat="45.71228" lon="6.69541">
        <ele>2308</ele>
        <time>2026-07-29T10:28:38.716Z</time>
      </trkpt>
      <trkpt lat="45.71228" lon="6.69542">
        <ele>2308</ele>
        <time>2026-07-29T10:28:39.716Z</time>
      </trkpt>
      <trkpt lat="45.71228" lon="6.69542">
        <ele>2308</ele>
        <time>2026-07-29T10:28:40.716Z</time>
      </trkpt>
      <trkpt lat="45.71228" lon="6.69542">
        <ele>2308</ele>
        <time>2026-07-29T10:28:41.716Z</time>
      </trkpt>
      <trkpt lat="45.71228" lon="6.69542">
        <ele>2308</ele>
        <time>2026-07-29T10:28:42.716Z</time>
      </trkpt>
      <trkpt lat="45.71227" lon="6.69542">
        <ele>2308</ele>
        <time>2026-07-29T10:28:43.716Z</time>
      </trkpt>
      <trkpt lat="45.71227" lon="6.69542">
        <ele>2308</ele>
        <time>2026-07-29T10:28:44.716Z</time>
      </trkpt>
      <trkpt lat="45.71227" lon="6.69542">
        <ele>2309</ele>
        <time>2026-07-29T10:28:45.716Z</time>
      </trkpt>
      <trkpt lat="45.71227" lon="6.69542">
        <ele>2309</ele>
        <time>2026-07-29T10:28:46.716Z</time>
      </trkpt>
      <trkpt lat="45.71227" lon="6.69543">
        <ele>2309</ele>
        <time>2026-07-29T10:28:47.716Z</time>
      </trkpt>
      <trkpt lat="45.71227" lon="6.69543">
        <ele>2309</ele>
        <time>2026-07-29T10:28:48.716Z</time>
      </trkpt>
      <trkpt lat="45.71227" lon="6.69543">
        <ele>2309</ele>
        <time>2026-07-29T10:28:49.716Z</time>
      </trkpt>
      <trkpt lat="45.71227" lon="6.69543">
        <ele>2309</ele>
        <time>2026-07-29T10:28:50.716Z</time>
      </trkpt>
      <trkpt lat="45.71227" lon="6.69543">
        <ele>2309</ele>
        <time>2026-07-29T10:28:51.716Z</time>
      </trkpt>
      <trkpt lat="45.71227" lon="6.69543">
        <ele>2310</ele>
        <time>2026-07-29T10:28:52.716Z</time>
      </trkpt>
      <trkpt lat="45.71227" lon="6.69543">
        <ele>2310</ele>
        <time>2026-07-29T10:28:53.716Z</time>
      </trkpt>
      <trkpt lat="45.71227" lon="6.69543">
        <ele>2310</ele>
        <time>2026-07-29T10:28:54.716Z</time>
      </trkpt>
      <trkpt lat="45.71227" lon="6.69543">
        <ele>2310</ele>
        <time>2026-07-29T10:28:55.716Z</time>
      </trkpt>
      <trkpt lat="45.71227" lon="6.69543">
        <ele>2310</ele>
        <time>2026-07-29T10:28:56.716Z</time>
      </trkpt>
      <trkpt lat="45.71227" lon="6.69543">
        <ele>2310</ele>
        <time>2026-07-29T10:28:57.716Z</time>
      </trkpt>
      <trkpt lat="45.71227" lon="6.69543">
        <ele>2310</ele>
        <time>2026-07-29T10:28:58.716Z</time>
      </trkpt>
      <trkpt lat="45.71227" lon="6.69543">
        <ele>2310</ele>
        <time>2026-07-29T10:28:59.716Z</time>
      </trkpt>
      <trkpt lat="45.71227" lon="6.69543">
        <ele>2310</ele>
        <time>2026-07-29T10:29:00.716Z</time>
      </trkpt>
      <trkpt lat="45.71227" lon="6.69543">
        <ele>2310</ele>
        <time>2026-07-29T10:29:01.716Z</time>
      </trkpt>
      <trkpt lat="45.71227" lon="6.69543">
        <ele>2310</ele>
        <time>2026-07-29T10:29:02.716Z</time>
      </trkpt>
      <trkpt lat="45.71227" lon="6.69543">
        <ele>2310</ele>
        <time>2026-07-29T10:29:03.716Z</time>
      </trkpt>
      <trkpt lat="45.71227" lon="6.69543">
        <ele>2310</ele>
        <time>2026-07-29T10:29:04.716Z</time>
      </trkpt>
      <trkpt lat="45.71227" lon="6.69543">
        <ele>2310</ele>
        <time>2026-07-29T10:29:05.716Z</time>
      </trkpt>
      <trkpt lat="45.71227" lon="6.69543">
        <ele>2310</ele>
        <time>2026-07-29T10:29:06.716Z</time>
      </trkpt>
      <trkpt lat="45.71227" lon="6.69543">
        <ele>2310</ele>
        <time>2026-07-29T10:29:07.716Z</time>
      </trkpt>
      <trkpt lat="45.71227" lon="6.69543">
        <ele>2310</ele>
        <time>2026-07-29T10:29:08.716Z</time>
      </trkpt>
      <trkpt lat="45.71227" lon="6.69543">
        <ele>2310</ele>
        <time>2026-07-29T10:29:09.716Z</time>
      </trkpt>
      <trkpt lat="45.71227" lon="6.69543">
        <ele>2310</ele>
        <time>2026-07-29T10:29:10.716Z</time>
      </trkpt>
      <trkpt lat="45.71227" lon="6.69543">
        <ele>2310</ele>
        <time>2026-07-29T10:29:11.716Z</time>
      </trkpt>
      <trkpt lat="45.71227" lon="6.69543">
        <ele>2310</ele>
        <time>2026-07-29T10:29:12.716Z</time>
      </trkpt>
      <trkpt lat="45.71227" lon="6.69543">
        <ele>2310</ele>
        <time>2026-07-29T10:29:13.716Z</time>
      </trkpt>
      <trkpt lat="45.71227" lon="6.69543">
        <ele>2310</ele>
        <time>2026-07-29T10:29:14.716Z</time>
      </trkpt>
      <trkpt lat="45.71227" lon="6.69543">
        <ele>2310</ele>
        <time>2026-07-29T10:29:15.716Z</time>
      </trkpt>
      <trkpt lat="45.71227" lon="6.69543">
        <ele>2310</ele>
        <time>2026-07-29T10:29:16.716Z</time>
      </trkpt>
      <trkpt lat="45.71227" lon="6.69543">
        <ele>2310</ele>
        <time>2026-07-29T10:29:17.716Z</time>
      </trkpt>
      <trkpt lat="45.71227" lon="6.69543">
        <ele>2310</ele>
        <time>2026-07-29T10:29:18.716Z</time>
      </trkpt>
      <trkpt lat="45.71227" lon="6.69543">
        <ele>2310</ele>
        <time>2026-07-29T10:29:19.716Z</time>
      </trkpt>
      <trkpt lat="45.71227" lon="6.69543">
        <ele>2310</ele>
        <time>2026-07-29T10:29:20.716Z</time>
      </trkpt>
      <trkpt lat="45.71227" lon="6.69543">
        <ele>2310</ele>
        <time>2026-07-29T10:29:21.716Z</time>
      </trkpt>
      <trkpt lat="45.71228" lon="6.69543">
        <ele>2310</ele>
        <time>2026-07-29T10:29:22.716Z</time>
      </trkpt>
      <trkpt lat="45.71228" lon="6.69546">
        <ele>2310</ele>
        <time>2026-07-29T10:29:23.716Z</time>
      </trkpt>
      <trkpt lat="45.71229" lon="6.69549">
        <ele>2310</ele>
        <time>2026-07-29T10:29:24.716Z</time>
      </trkpt>
      <trkpt lat="45.71229" lon="6.69552">
        <ele>2310</ele>
        <time>2026-07-29T10:29:25.716Z</time>
      </trkpt>
      <trkpt lat="45.7123" lon="6.69554">
        <ele>2309</ele>
        <time>2026-07-29T10:29:26.716Z</time>
      </trkpt>
      <trkpt lat="45.71231" lon="6.69556">
        <ele>2309</ele>
        <time>2026-07-29T10:29:27.716Z</time>
      </trkpt>
      <trkpt lat="45.71231" lon="6.69558">
        <ele>2309</ele>
        <time>2026-07-29T10:29:28.716Z</time>
      </trkpt>
      <trkpt lat="45.71232" lon="6.69561">
        <ele>2308</ele>
        <time>2026-07-29T10:29:29.716Z</time>
      </trkpt>
      <trkpt lat="45.71232" lon="6.69563">
        <ele>2308</ele>
        <time>2026-07-29T10:29:30.716Z</time>
      </trkpt>
      <trkpt lat="45.71233" lon="6.69566">
        <ele>2308</ele>
        <time>2026-07-29T10:29:31.716Z</time>
      </trkpt>
      <trkpt lat="45.71234" lon="6.69569">
        <ele>2308</ele>
        <time>2026-07-29T10:29:32.716Z</time>
      </trkpt>
      <trkpt lat="45.71235" lon="6.69571">
        <ele>2307</ele>
        <time>2026-07-29T10:29:33.716Z</time>
      </trkpt>
      <trkpt lat="45.71236" lon="6.69573">
        <ele>2307</ele>
        <time>2026-07-29T10:29:34.716Z</time>
      </trkpt>
      <trkpt lat="45.71237" lon="6.69575">
        <ele>2307</ele>
        <time>2026-07-29T10:29:35.716Z</time>
      </trkpt>
      <trkpt lat="45.71238" lon="6.69578">
        <ele>2307</ele>
        <time>2026-07-29T10:29:36.716Z</time>
      </trkpt>
      <trkpt lat="45.7124" lon="6.6958">
        <ele>2307</ele>
        <time>2026-07-29T10:29:37.716Z</time>
      </trkpt>
      <trkpt lat="45.71241" lon="6.69582">
        <ele>2306</ele>
        <time>2026-07-29T10:29:38.716Z</time>
      </trkpt>
      <trkpt lat="45.71242" lon="6.69585">
        <ele>2306</ele>
        <time>2026-07-29T10:29:39.716Z</time>
      </trkpt>
      <trkpt lat="45.71243" lon="6.69587">
        <ele>2306</ele>
        <time>2026-07-29T10:29:40.716Z</time>
      </trkpt>
      <trkpt lat="45.71244" lon="6.6959">
        <ele>2305</ele>
        <time>2026-07-29T10:29:41.716Z</time>
      </trkpt>
      <trkpt lat="45.71245" lon="6.69592">
        <ele>2305</ele>
        <time>2026-07-29T10:29:42.716Z</time>
      </trkpt>
      <trkpt lat="45.71246" lon="6.69594">
        <ele>2305</ele>
        <time>2026-07-29T10:29:43.716Z</time>
      </trkpt>
      <trkpt lat="45.71247" lon="6.69597">
        <ele>2305</ele>
        <time>2026-07-29T10:29:44.716Z</time>
      </trkpt>
      <trkpt lat="45.71249" lon="6.69599">
        <ele>2305</ele>
        <time>2026-07-29T10:29:45.716Z</time>
      </trkpt>
      <trkpt lat="45.7125" lon="6.69602">
        <ele>2306</ele>
        <time>2026-07-29T10:29:46.716Z</time>
      </trkpt>
      <trkpt lat="45.71251" lon="6.69604">
        <ele>2306</ele>
        <time>2026-07-29T10:29:47.716Z</time>
      </trkpt>
      <trkpt lat="45.71252" lon="6.69607">
        <ele>2306</ele>
        <time>2026-07-29T10:29:48.716Z</time>
      </trkpt>
      <trkpt lat="45.71252" lon="6.69609">
        <ele>2306</ele>
        <time>2026-07-29T10:29:49.716Z</time>
      </trkpt>
      <trkpt lat="45.71253" lon="6.69611">
        <ele>2307</ele>
        <time>2026-07-29T10:29:50.716Z</time>
      </trkpt>
      <trkpt lat="45.71253" lon="6.69614">
        <ele>2307</ele>
        <time>2026-07-29T10:29:51.716Z</time>
      </trkpt>
      <trkpt lat="45.71254" lon="6.69616">
        <ele>2307</ele>
        <time>2026-07-29T10:29:52.716Z</time>
      </trkpt>
      <trkpt lat="45.71255" lon="6.69618">
        <ele>2306</ele>
        <time>2026-07-29T10:29:53.716Z</time>
      </trkpt>
      <trkpt lat="45.71255" lon="6.69621">
        <ele>2306</ele>
        <time>2026-07-29T10:29:54.716Z</time>
      </trkpt>
      <trkpt lat="45.71256" lon="6.69623">
        <ele>2305</ele>
        <time>2026-07-29T10:29:55.716Z</time>
      </trkpt>
      <trkpt lat="45.71258" lon="6.69625">
        <ele>2304</ele>
        <time>2026-07-29T10:29:56.717Z</time>
      </trkpt>
      <trkpt lat="45.71259" lon="6.69627">
        <ele>2304</ele>
        <time>2026-07-29T10:29:57.716Z</time>
      </trkpt>
      <trkpt lat="45.71261" lon="6.69629">
        <ele>2303</ele>
        <time>2026-07-29T10:29:58.716Z</time>
      </trkpt>
      <trkpt lat="45.71262" lon="6.69631">
        <ele>2303</ele>
        <time>2026-07-29T10:29:59.716Z</time>
      </trkpt>
      <trkpt lat="45.71264" lon="6.69633">
        <ele>2303</ele>
        <time>2026-07-29T10:30:00.716Z</time>
      </trkpt>
      <trkpt lat="45.71265" lon="6.69636">
        <ele>2302</ele>
        <time>2026-07-29T10:30:01.716Z</time>
      </trkpt>
      <trkpt lat="45.71266" lon="6.69638">
        <ele>2302</ele>
        <time>2026-07-29T10:30:02.716Z</time>
      </trkpt>
      <trkpt lat="45.71267" lon="6.69641">
        <ele>2302</ele>
        <time>2026-07-29T10:30:03.716Z</time>
      </trkpt>
      <trkpt lat="45.71268" lon="6.69643">
        <ele>2301</ele>
        <time>2026-07-29T10:30:04.716Z</time>
      </trkpt>
      <trkpt lat="45.71269" lon="6.69646">
        <ele>2301</ele>
        <time>2026-07-29T10:30:05.716Z</time>
      </trkpt>
      <trkpt lat="45.7127" lon="6.69647">
        <ele>2301</ele>
        <time>2026-07-29T10:30:06.716Z</time>
      </trkpt>
      <trkpt lat="45.71271" lon="6.6965">
        <ele>2300</ele>
        <time>2026-07-29T10:30:07.716Z</time>
      </trkpt>
      <trkpt lat="45.71273" lon="6.69652">
        <ele>2300</ele>
        <time>2026-07-29T10:30:08.716Z</time>
      </trkpt>
      <trkpt lat="45.71274" lon="6.69654">
        <ele>2300</ele>
        <time>2026-07-29T10:30:09.716Z</time>
      </trkpt>
      <trkpt lat="45.71275" lon="6.69657">
        <ele>2299</ele>
        <time>2026-07-29T10:30:10.716Z</time>
      </trkpt>
      <trkpt lat="45.71276" lon="6.69659">
        <ele>2299</ele>
        <time>2026-07-29T10:30:11.716Z</time>
      </trkpt>
      <trkpt lat="45.71277" lon="6.69661">
        <ele>2299</ele>
        <time>2026-07-29T10:30:12.716Z</time>
      </trkpt>
      <trkpt lat="45.71278" lon="6.69663">
        <ele>2299</ele>
        <time>2026-07-29T10:30:13.716Z</time>
      </trkpt>
      <trkpt lat="45.7128" lon="6.69666">
        <ele>2299</ele>
        <time>2026-07-29T10:30:14.716Z</time>
      </trkpt>
      <trkpt lat="45.71281" lon="6.69668">
        <ele>2299</ele>
        <time>2026-07-29T10:30:15.716Z</time>
      </trkpt>
      <trkpt lat="45.71283" lon="6.6967">
        <ele>2298</ele>
        <time>2026-07-29T10:30:16.716Z</time>
      </trkpt>
      <trkpt lat="45.71284" lon="6.69672">
        <ele>2298</ele>
        <time>2026-07-29T10:30:17.716Z</time>
      </trkpt>
      <trkpt lat="45.71286" lon="6.69674">
        <ele>2298</ele>
        <time>2026-07-29T10:30:18.716Z</time>
      </trkpt>
      <trkpt lat="45.71288" lon="6.69676">
        <ele>2298</ele>
        <time>2026-07-29T10:30:19.716Z</time>
      </trkpt>
      <trkpt lat="45.71289" lon="6.69679">
        <ele>2298</ele>
        <time>2026-07-29T10:30:20.716Z</time>
      </trkpt>
      <trkpt lat="45.7129" lon="6.69681">
        <ele>2298</ele>
        <time>2026-07-29T10:30:21.716Z</time>
      </trkpt>
      <trkpt lat="45.71291" lon="6.69684">
        <ele>2298</ele>
        <time>2026-07-29T10:30:22.716Z</time>
      </trkpt>
      <trkpt lat="45.71293" lon="6.69686">
        <ele>2298</ele>
        <time>2026-07-29T10:30:23.716Z</time>
      </trkpt>
      <trkpt lat="45.71294" lon="6.69687">
        <ele>2298</ele>
        <time>2026-07-29T10:30:24.716Z</time>
      </trkpt>
      <trkpt lat="45.71296" lon="6.69688">
        <ele>2297</ele>
        <time>2026-07-29T10:30:25.716Z</time>
      </trkpt>
      <trkpt lat="45.71298" lon="6.69689">
        <ele>2297</ele>
        <time>2026-07-29T10:30:26.716Z</time>
      </trkpt>
      <trkpt lat="45.71299" lon="6.69691">
        <ele>2297</ele>
        <time>2026-07-29T10:30:27.716Z</time>
      </trkpt>
      <trkpt lat="45.71301" lon="6.69692">
        <ele>2297</ele>
        <time>2026-07-29T10:30:28.716Z</time>
      </trkpt>
      <trkpt lat="45.71302" lon="6.69694">
        <ele>2296</ele>
        <time>2026-07-29T10:30:29.716Z</time>
      </trkpt>
      <trkpt lat="45.71303" lon="6.69696">
        <ele>2296</ele>
        <time>2026-07-29T10:30:30.716Z</time>
      </trkpt>
      <trkpt lat="45.71305" lon="6.69699">
        <ele>2295</ele>
        <time>2026-07-29T10:30:31.716Z</time>
      </trkpt>
      <trkpt lat="45.71306" lon="6.69701">
        <ele>2295</ele>
        <time>2026-07-29T10:30:32.716Z</time>
      </trkpt>
      <trkpt lat="45.71306" lon="6.69704">
        <ele>2294</ele>
        <time>2026-07-29T10:30:33.716Z</time>
      </trkpt>
      <trkpt lat="45.71307" lon="6.69706">
        <ele>2294</ele>
        <time>2026-07-29T10:30:34.716Z</time>
      </trkpt>
      <trkpt lat="45.71307" lon="6.69708">
        <ele>2293</ele>
        <time>2026-07-29T10:30:35.716Z</time>
      </trkpt>
      <trkpt lat="45.71308" lon="6.6971">
        <ele>2293</ele>
        <time>2026-07-29T10:30:36.716Z</time>
      </trkpt>
      <trkpt lat="45.71308" lon="6.69712">
        <ele>2293</ele>
        <time>2026-07-29T10:30:37.716Z</time>
      </trkpt>
      <trkpt lat="45.71309" lon="6.69713">
        <ele>2292</ele>
        <time>2026-07-29T10:30:38.716Z</time>
      </trkpt>
      <trkpt lat="45.7131" lon="6.69715">
        <ele>2292</ele>
        <time>2026-07-29T10:30:39.716Z</time>
      </trkpt>
      <trkpt lat="45.7131" lon="6.69717">
        <ele>2291</ele>
        <time>2026-07-29T10:30:40.716Z</time>
      </trkpt>
      <trkpt lat="45.71311" lon="6.69719">
        <ele>2291</ele>
        <time>2026-07-29T10:30:41.716Z</time>
      </trkpt>
      <trkpt lat="45.71312" lon="6.69721">
        <ele>2290</ele>
        <time>2026-07-29T10:30:42.716Z</time>
      </trkpt>
      <trkpt lat="45.71313" lon="6.69723">
        <ele>2290</ele>
        <time>2026-07-29T10:30:43.716Z</time>
      </trkpt>
      <trkpt lat="45.71313" lon="6.69725">
        <ele>2289</ele>
        <time>2026-07-29T10:30:44.716Z</time>
      </trkpt>
      <trkpt lat="45.71314" lon="6.69727">
        <ele>2289</ele>
        <time>2026-07-29T10:30:45.716Z</time>
      </trkpt>
      <trkpt lat="45.71315" lon="6.69729">
        <ele>2289</ele>
        <time>2026-07-29T10:30:46.716Z</time>
      </trkpt>
      <trkpt lat="45.71316" lon="6.69731">
        <ele>2288</ele>
        <time>2026-07-29T10:30:47.716Z</time>
      </trkpt>
      <trkpt lat="45.71317" lon="6.69732">
        <ele>2288</ele>
        <time>2026-07-29T10:30:48.716Z</time>
      </trkpt>
      <trkpt lat="45.71319" lon="6.69734">
        <ele>2287</ele>
        <time>2026-07-29T10:30:49.716Z</time>
      </trkpt>
      <trkpt lat="45.7132" lon="6.69735">
        <ele>2287</ele>
        <time>2026-07-29T10:30:50.716Z</time>
      </trkpt>
      <trkpt lat="45.71321" lon="6.69736">
        <ele>2286</ele>
        <time>2026-07-29T10:30:51.716Z</time>
      </trkpt>
      <trkpt lat="45.71322" lon="6.69738">
        <ele>2286</ele>
        <time>2026-07-29T10:30:52.716Z</time>
      </trkpt>
      <trkpt lat="45.71323" lon="6.69739">
        <ele>2285</ele>
        <time>2026-07-29T10:30:53.716Z</time>
      </trkpt>
      <trkpt lat="45.71324" lon="6.6974">
        <ele>2285</ele>
        <time>2026-07-29T10:30:54.716Z</time>
      </trkpt>
      <trkpt lat="45.71326" lon="6.69742">
        <ele>2284</ele>
        <time>2026-07-29T10:30:55.716Z</time>
      </trkpt>
      <trkpt lat="45.71327" lon="6.69744">
        <ele>2284</ele>
        <time>2026-07-29T10:30:56.716Z</time>
      </trkpt>
      <trkpt lat="45.71328" lon="6.69746">
        <ele>2283</ele>
        <time>2026-07-29T10:30:57.716Z</time>
      </trkpt>
      <trkpt lat="45.71329" lon="6.69748">
        <ele>2283</ele>
        <time>2026-07-29T10:30:58.716Z</time>
      </trkpt>
      <trkpt lat="45.71331" lon="6.6975">
        <ele>2282</ele>
        <time>2026-07-29T10:30:59.716Z</time>
      </trkpt>
      <trkpt lat="45.71331" lon="6.69752">
        <ele>2282</ele>
        <time>2026-07-29T10:31:00.716Z</time>
      </trkpt>
      <trkpt lat="45.71332" lon="6.69754">
        <ele>2282</ele>
        <time>2026-07-29T10:31:01.716Z</time>
      </trkpt>
      <trkpt lat="45.71333" lon="6.69756">
        <ele>2282</ele>
        <time>2026-07-29T10:31:02.716Z</time>
      </trkpt>
      <trkpt lat="45.71334" lon="6.69757">
        <ele>2282</ele>
        <time>2026-07-29T10:31:03.716Z</time>
      </trkpt>
      <trkpt lat="45.71335" lon="6.69759">
        <ele>2282</ele>
        <time>2026-07-29T10:31:04.716Z</time>
      </trkpt>
      <trkpt lat="45.71336" lon="6.69759">
        <ele>2281</ele>
        <time>2026-07-29T10:31:05.716Z</time>
      </trkpt>
      <trkpt lat="45.71338" lon="6.6976">
        <ele>2282</ele>
        <time>2026-07-29T10:31:06.716Z</time>
      </trkpt>
      <trkpt lat="45.71339" lon="6.69761">
        <ele>2282</ele>
        <time>2026-07-29T10:31:07.716Z</time>
      </trkpt>
      <trkpt lat="45.7134" lon="6.69762">
        <ele>2281</ele>
        <time>2026-07-29T10:31:08.716Z</time>
      </trkpt>
      <trkpt lat="45.71342" lon="6.69764">
        <ele>2281</ele>
        <time>2026-07-29T10:31:09.716Z</time>
      </trkpt>
      <trkpt lat="45.71343" lon="6.69766">
        <ele>2281</ele>
        <time>2026-07-29T10:31:10.716Z</time>
      </trkpt>
      <trkpt lat="45.71344" lon="6.69768">
        <ele>2280</ele>
        <time>2026-07-29T10:31:11.716Z</time>
      </trkpt>
      <trkpt lat="45.71345" lon="6.6977">
        <ele>2280</ele>
        <time>2026-07-29T10:31:12.716Z</time>
      </trkpt>
      <trkpt lat="45.71347" lon="6.69772">
        <ele>2279</ele>
        <time>2026-07-29T10:31:13.716Z</time>
      </trkpt>
      <trkpt lat="45.71348" lon="6.69774">
        <ele>2278</ele>
        <time>2026-07-29T10:31:14.716Z</time>
      </trkpt>
      <trkpt lat="45.71349" lon="6.69776">
        <ele>2278</ele>
        <time>2026-07-29T10:31:15.716Z</time>
      </trkpt>
      <trkpt lat="45.7135" lon="6.69779">
        <ele>2277</ele>
        <time>2026-07-29T10:31:16.716Z</time>
      </trkpt>
      <trkpt lat="45.71351" lon="6.69781">
        <ele>2277</ele>
        <time>2026-07-29T10:31:17.716Z</time>
      </trkpt>
      <trkpt lat="45.71352" lon="6.69783">
        <ele>2276</ele>
        <time>2026-07-29T10:31:18.716Z</time>
      </trkpt>
      <trkpt lat="45.71352" lon="6.69785">
        <ele>2276</ele>
        <time>2026-07-29T10:31:19.716Z</time>
      </trkpt>
      <trkpt lat="45.71353" lon="6.69787">
        <ele>2276</ele>
        <time>2026-07-29T10:31:20.716Z</time>
      </trkpt>
      <trkpt lat="45.71352" lon="6.69789">
        <ele>2276</ele>
        <time>2026-07-29T10:31:21.716Z</time>
      </trkpt>
      <trkpt lat="45.71352" lon="6.69791">
        <ele>2275</ele>
        <time>2026-07-29T10:31:22.716Z</time>
      </trkpt>
      <trkpt lat="45.71351" lon="6.69793">
        <ele>2275</ele>
        <time>2026-07-29T10:31:23.716Z</time>
      </trkpt>
      <trkpt lat="45.7135" lon="6.69795">
        <ele>2274</ele>
        <time>2026-07-29T10:31:24.716Z</time>
      </trkpt>
      <trkpt lat="45.7135" lon="6.69796">
        <ele>2274</ele>
        <time>2026-07-29T10:31:25.716Z</time>
      </trkpt>
      <trkpt lat="45.71349" lon="6.69797">
        <ele>2273</ele>
        <time>2026-07-29T10:31:26.716Z</time>
      </trkpt>
      <trkpt lat="45.71348" lon="6.69799">
        <ele>2273</ele>
        <time>2026-07-29T10:31:27.716Z</time>
      </trkpt>
      <trkpt lat="45.71347" lon="6.698">
        <ele>2273</ele>
        <time>2026-07-29T10:31:28.716Z</time>
      </trkpt>
      <trkpt lat="45.71347" lon="6.69801">
        <ele>2272</ele>
        <time>2026-07-29T10:31:29.716Z</time>
      </trkpt>
      <trkpt lat="45.71346" lon="6.69802">
        <ele>2272</ele>
        <time>2026-07-29T10:31:30.716Z</time>
      </trkpt>
      <trkpt lat="45.71346" lon="6.69803">
        <ele>2272</ele>
        <time>2026-07-29T10:31:31.716Z</time>
      </trkpt>
      <trkpt lat="45.71347" lon="6.69803">
        <ele>2271</ele>
        <time>2026-07-29T10:31:32.716Z</time>
      </trkpt>
      <trkpt lat="45.71347" lon="6.69804">
        <ele>2271</ele>
        <time>2026-07-29T10:31:33.716Z</time>
      </trkpt>
      <trkpt lat="45.71348" lon="6.69805">
        <ele>2271</ele>
        <time>2026-07-29T10:31:34.716Z</time>
      </trkpt>
      <trkpt lat="45.71349" lon="6.69806">
        <ele>2271</ele>
        <time>2026-07-29T10:31:35.716Z</time>
      </trkpt>
      <trkpt lat="45.7135" lon="6.69806">
        <ele>2271</ele>
        <time>2026-07-29T10:31:36.716Z</time>
      </trkpt>
      <trkpt lat="45.7135" lon="6.69807">
        <ele>2271</ele>
        <time>2026-07-29T10:31:37.716Z</time>
      </trkpt>
      <trkpt lat="45.71351" lon="6.69807">
        <ele>2271</ele>
        <time>2026-07-29T10:31:38.716Z</time>
      </trkpt>
      <trkpt lat="45.71352" lon="6.69808">
        <ele>2270</ele>
        <time>2026-07-29T10:31:39.716Z</time>
      </trkpt>
      <trkpt lat="45.71352" lon="6.6981">
        <ele>2270</ele>
        <time>2026-07-29T10:31:40.716Z</time>
      </trkpt>
      <trkpt lat="45.71353" lon="6.69811">
        <ele>2270</ele>
        <time>2026-07-29T10:31:41.716Z</time>
      </trkpt>
      <trkpt lat="45.71353" lon="6.69812">
        <ele>2269</ele>
        <time>2026-07-29T10:31:42.716Z</time>
      </trkpt>
      <trkpt lat="45.71354" lon="6.69813">
        <ele>2269</ele>
        <time>2026-07-29T10:31:43.716Z</time>
      </trkpt>
      <trkpt lat="45.71356" lon="6.69814">
        <ele>2269</ele>
        <time>2026-07-29T10:31:44.716Z</time>
      </trkpt>
      <trkpt lat="45.71357" lon="6.69815">
        <ele>2268</ele>
        <time>2026-07-29T10:31:45.716Z</time>
      </trkpt>
      <trkpt lat="45.71358" lon="6.69817">
        <ele>2268</ele>
        <time>2026-07-29T10:31:46.716Z</time>
      </trkpt>
      <trkpt lat="45.71359" lon="6.69818">
        <ele>2267</ele>
        <time>2026-07-29T10:31:47.716Z</time>
      </trkpt>
      <trkpt lat="45.71359" lon="6.69819">
        <ele>2266</ele>
        <time>2026-07-29T10:31:48.716Z</time>
      </trkpt>
      <trkpt lat="45.71359" lon="6.69821">
        <ele>2266</ele>
        <time>2026-07-29T10:31:49.716Z</time>
      </trkpt>
      <trkpt lat="45.7136" lon="6.69822">
        <ele>2265</ele>
        <time>2026-07-29T10:31:50.716Z</time>
      </trkpt>
      <trkpt lat="45.71361" lon="6.69823">
        <ele>2265</ele>
        <time>2026-07-29T10:31:51.716Z</time>
      </trkpt>
      <trkpt lat="45.71362" lon="6.69825">
        <ele>2264</ele>
        <time>2026-07-29T10:31:52.716Z</time>
      </trkpt>
      <trkpt lat="45.71363" lon="6.69826">
        <ele>2264</ele>
        <time>2026-07-29T10:31:53.716Z</time>
      </trkpt>
      <trkpt lat="45.71363" lon="6.69828">
        <ele>2263</ele>
        <time>2026-07-29T10:31:54.716Z</time>
      </trkpt>
      <trkpt lat="45.71364" lon="6.6983">
        <ele>2262</ele>
        <time>2026-07-29T10:31:55.716Z</time>
      </trkpt>
      <trkpt lat="45.71365" lon="6.69831">
        <ele>2262</ele>
        <time>2026-07-29T10:31:56.716Z</time>
      </trkpt>
      <trkpt lat="45.71366" lon="6.69833">
        <ele>2261</ele>
        <time>2026-07-29T10:31:57.716Z</time>
      </trkpt>
      <trkpt lat="45.71366" lon="6.69835">
        <ele>2260</ele>
        <time>2026-07-29T10:31:58.716Z</time>
      </trkpt>
      <trkpt lat="45.71367" lon="6.69836">
        <ele>2260</ele>
        <time>2026-07-29T10:31:59.716Z</time>
      </trkpt>
      <trkpt lat="45.71367" lon="6.69838">
        <ele>2259</ele>
        <time>2026-07-29T10:32:00.717Z</time>
      </trkpt>
      <trkpt lat="45.71367" lon="6.6984">
        <ele>2258</ele>
        <time>2026-07-29T10:32:01.716Z</time>
      </trkpt>
      <trkpt lat="45.71368" lon="6.69842">
        <ele>2258</ele>
        <time>2026-07-29T10:32:02.716Z</time>
      </trkpt>
      <trkpt lat="45.71368" lon="6.69844">
        <ele>2257</ele>
        <time>2026-07-29T10:32:03.716Z</time>
      </trkpt>
      <trkpt lat="45.71369" lon="6.69846">
        <ele>2256</ele>
        <time>2026-07-29T10:32:04.716Z</time>
      </trkpt>
      <trkpt lat="45.7137" lon="6.69847">
        <ele>2256</ele>
        <time>2026-07-29T10:32:05.716Z</time>
      </trkpt>
      <trkpt lat="45.71371" lon="6.69848">
        <ele>2255</ele>
        <time>2026-07-29T10:32:06.716Z</time>
      </trkpt>
      <trkpt lat="45.71372" lon="6.69848">
        <ele>2254</ele>
        <time>2026-07-29T10:32:07.716Z</time>
      </trkpt>
      <trkpt lat="45.71374" lon="6.69849">
        <ele>2254</ele>
        <time>2026-07-29T10:32:08.716Z</time>
      </trkpt>
      <trkpt lat="45.71375" lon="6.6985">
        <ele>2253</ele>
        <time>2026-07-29T10:32:09.716Z</time>
      </trkpt>
      <trkpt lat="45.71376" lon="6.6985">
        <ele>2253</ele>
        <time>2026-07-29T10:32:10.716Z</time>
      </trkpt>
      <trkpt lat="45.71377" lon="6.69851">
        <ele>2253</ele>
        <time>2026-07-29T10:32:11.716Z</time>
      </trkpt>
      <trkpt lat="45.71378" lon="6.6985">
        <ele>2253</ele>
        <time>2026-07-29T10:32:12.716Z</time>
      </trkpt>
      <trkpt lat="45.71379" lon="6.6985">
        <ele>2252</ele>
        <time>2026-07-29T10:32:13.716Z</time>
      </trkpt>
      <trkpt lat="45.71381" lon="6.6985">
        <ele>2252</ele>
        <time>2026-07-29T10:32:14.716Z</time>
      </trkpt>
      <trkpt lat="45.71382" lon="6.6985">
        <ele>2252</ele>
        <time>2026-07-29T10:32:15.716Z</time>
      </trkpt>
      <trkpt lat="45.71383" lon="6.6985">
        <ele>2252</ele>
        <time>2026-07-29T10:32:16.716Z</time>
      </trkpt>
      <trkpt lat="45.71384" lon="6.69851">
        <ele>2251</ele>
        <time>2026-07-29T10:32:17.716Z</time>
      </trkpt>
      <trkpt lat="45.71385" lon="6.69851">
        <ele>2251</ele>
        <time>2026-07-29T10:32:18.716Z</time>
      </trkpt>
      <trkpt lat="45.71387" lon="6.69852">
        <ele>2251</ele>
        <time>2026-07-29T10:32:19.716Z</time>
      </trkpt>
      <trkpt lat="45.71388" lon="6.69854">
        <ele>2251</ele>
        <time>2026-07-29T10:32:20.716Z</time>
      </trkpt>
      <trkpt lat="45.7139" lon="6.69855">
        <ele>2250</ele>
        <time>2026-07-29T10:32:21.716Z</time>
      </trkpt>
      <trkpt lat="45.71391" lon="6.69857">
        <ele>2250</ele>
        <time>2026-07-29T10:32:22.716Z</time>
      </trkpt>
      <trkpt lat="45.71393" lon="6.69857">
        <ele>2249</ele>
        <time>2026-07-29T10:32:23.716Z</time>
      </trkpt>
      <trkpt lat="45.71395" lon="6.69858">
        <ele>2249</ele>
        <time>2026-07-29T10:32:24.716Z</time>
      </trkpt>
      <trkpt lat="45.71397" lon="6.69857">
        <ele>2249</ele>
        <time>2026-07-29T10:32:25.716Z</time>
      </trkpt>
      <trkpt lat="45.71399" lon="6.69857">
        <ele>2249</ele>
        <time>2026-07-29T10:32:26.716Z</time>
      </trkpt>
      <trkpt lat="45.71401" lon="6.69857">
        <ele>2249</ele>
        <time>2026-07-29T10:32:27.716Z</time>
      </trkpt>
      <trkpt lat="45.71403" lon="6.69857">
        <ele>2249</ele>
        <time>2026-07-29T10:32:28.716Z</time>
      </trkpt>
      <trkpt lat="45.71405" lon="6.69857">
        <ele>2249</ele>
        <time>2026-07-29T10:32:29.716Z</time>
      </trkpt>
      <trkpt lat="45.71408" lon="6.69856">
        <ele>2249</ele>
        <time>2026-07-29T10:32:30.716Z</time>
      </trkpt>
      <trkpt lat="45.7141" lon="6.69856">
        <ele>2248</ele>
        <time>2026-07-29T10:32:31.716Z</time>
      </trkpt>
      <trkpt lat="45.71412" lon="6.69855">
        <ele>2248</ele>
        <time>2026-07-29T10:32:32.716Z</time>
      </trkpt>
      <trkpt lat="45.71414" lon="6.69854">
        <ele>2248</ele>
        <time>2026-07-29T10:32:33.716Z</time>
      </trkpt>
      <trkpt lat="45.71416" lon="6.69853">
        <ele>2248</ele>
        <time>2026-07-29T10:32:34.716Z</time>
      </trkpt>
      <trkpt lat="45.71418" lon="6.69852">
        <ele>2248</ele>
        <time>2026-07-29T10:32:35.716Z</time>
      </trkpt>
      <trkpt lat="45.7142" lon="6.69852">
        <ele>2248</ele>
        <time>2026-07-29T10:32:36.716Z</time>
      </trkpt>
      <trkpt lat="45.71421" lon="6.69851">
        <ele>2248</ele>
        <time>2026-07-29T10:32:37.716Z</time>
      </trkpt>
      <trkpt lat="45.71422" lon="6.69851">
        <ele>2248</ele>
        <time>2026-07-29T10:32:38.716Z</time>
      </trkpt>
      <trkpt lat="45.71424" lon="6.69851">
        <ele>2248</ele>
        <time>2026-07-29T10:32:39.716Z</time>
      </trkpt>
      <trkpt lat="45.71425" lon="6.69851">
        <ele>2248</ele>
        <time>2026-07-29T10:32:40.716Z</time>
      </trkpt>
      <trkpt lat="45.71425" lon="6.6985">
        <ele>2248</ele>
        <time>2026-07-29T10:32:41.716Z</time>
      </trkpt>
      <trkpt lat="45.71426" lon="6.6985">
        <ele>2247</ele>
        <time>2026-07-29T10:32:42.716Z</time>
      </trkpt>
      <trkpt lat="45.71426" lon="6.69849">
        <ele>2247</ele>
        <time>2026-07-29T10:32:43.716Z</time>
      </trkpt>
      <trkpt lat="45.71426" lon="6.69849">
        <ele>2247</ele>
        <time>2026-07-29T10:32:44.716Z</time>
      </trkpt>
      <trkpt lat="45.71426" lon="6.69849">
        <ele>2246</ele>
        <time>2026-07-29T10:32:45.716Z</time>
      </trkpt>
      <trkpt lat="45.71426" lon="6.69849">
        <ele>2246</ele>
        <time>2026-07-29T10:32:46.716Z</time>
      </trkpt>
      <trkpt lat="45.71426" lon="6.69849">
        <ele>2246</ele>
        <time>2026-07-29T10:32:47.716Z</time>
      </trkpt>
      <trkpt lat="45.71427" lon="6.69849">
        <ele>2246</ele>
        <time>2026-07-29T10:32:48.716Z</time>
      </trkpt>
      <trkpt lat="45.71427" lon="6.6985">
        <ele>2246</ele>
        <time>2026-07-29T10:32:49.716Z</time>
      </trkpt>
      <trkpt lat="45.71427" lon="6.6985">
        <ele>2245</ele>
        <time>2026-07-29T10:32:50.716Z</time>
      </trkpt>
      <trkpt lat="45.71428" lon="6.6985">
        <ele>2245</ele>
        <time>2026-07-29T10:32:51.716Z</time>
      </trkpt>
      <trkpt lat="45.71428" lon="6.6985">
        <ele>2245</ele>
        <time>2026-07-29T10:32:52.716Z</time>
      </trkpt>
      <trkpt lat="45.71428" lon="6.69849">
        <ele>2245</ele>
        <time>2026-07-29T10:32:53.716Z</time>
      </trkpt>
      <trkpt lat="45.71428" lon="6.69849">
        <ele>2245</ele>
        <time>2026-07-29T10:32:54.716Z</time>
      </trkpt>
      <trkpt lat="45.71428" lon="6.69849">
        <ele>2244</ele>
        <time>2026-07-29T10:32:55.716Z</time>
      </trkpt>
      <trkpt lat="45.71428" lon="6.69848">
        <ele>2244</ele>
        <time>2026-07-29T10:32:56.716Z</time>
      </trkpt>
      <trkpt lat="45.71429" lon="6.69847">
        <ele>2244</ele>
        <time>2026-07-29T10:32:57.716Z</time>
      </trkpt>
      <trkpt lat="45.71429" lon="6.69847">
        <ele>2244</ele>
        <time>2026-07-29T10:32:58.716Z</time>
      </trkpt>
      <trkpt lat="45.7143" lon="6.69845">
        <ele>2244</ele>
        <time>2026-07-29T10:32:59.716Z</time>
      </trkpt>
      <trkpt lat="45.7143" lon="6.69844">
        <ele>2244</ele>
        <time>2026-07-29T10:33:00.716Z</time>
      </trkpt>
      <trkpt lat="45.71431" lon="6.69842">
        <ele>2244</ele>
        <time>2026-07-29T10:33:01.716Z</time>
      </trkpt>
      <trkpt lat="45.71431" lon="6.6984">
        <ele>2244</ele>
        <time>2026-07-29T10:33:02.716Z</time>
      </trkpt>
      <trkpt lat="45.71432" lon="6.69838">
        <ele>2245</ele>
        <time>2026-07-29T10:33:03.716Z</time>
      </trkpt>
      <trkpt lat="45.71432" lon="6.69836">
        <ele>2245</ele>
        <time>2026-07-29T10:33:04.716Z</time>
      </trkpt>
      <trkpt lat="45.71434" lon="6.69834">
        <ele>2245</ele>
        <time>2026-07-29T10:33:05.716Z</time>
      </trkpt>
      <trkpt lat="45.71435" lon="6.69833">
        <ele>2244</ele>
        <time>2026-07-29T10:33:06.716Z</time>
      </trkpt>
      <trkpt lat="45.71437" lon="6.69833">
        <ele>2244</ele>
        <time>2026-07-29T10:33:07.716Z</time>
      </trkpt>
      <trkpt lat="45.71439" lon="6.69833">
        <ele>2244</ele>
        <time>2026-07-29T10:33:08.716Z</time>
      </trkpt>
      <trkpt lat="45.7144" lon="6.69833">
        <ele>2244</ele>
        <time>2026-07-29T10:33:09.716Z</time>
      </trkpt>
      <trkpt lat="45.71441" lon="6.69834">
        <ele>2243</ele>
        <time>2026-07-29T10:33:10.716Z</time>
      </trkpt>
      <trkpt lat="45.71443" lon="6.69834">
        <ele>2243</ele>
        <time>2026-07-29T10:33:11.716Z</time>
      </trkpt>
      <trkpt lat="45.71445" lon="6.69834">
        <ele>2243</ele>
        <time>2026-07-29T10:33:12.716Z</time>
      </trkpt>
      <trkpt lat="45.71446" lon="6.69834">
        <ele>2243</ele>
        <time>2026-07-29T10:33:13.716Z</time>
      </trkpt>
      <trkpt lat="45.71448" lon="6.69834">
        <ele>2242</ele>
        <time>2026-07-29T10:33:14.716Z</time>
      </trkpt>
      <trkpt lat="45.7145" lon="6.69833">
        <ele>2242</ele>
        <time>2026-07-29T10:33:15.716Z</time>
      </trkpt>
      <trkpt lat="45.71451" lon="6.69833">
        <ele>2241</ele>
        <time>2026-07-29T10:33:16.716Z</time>
      </trkpt>
      <trkpt lat="45.71453" lon="6.69832">
        <ele>2241</ele>
        <time>2026-07-29T10:33:17.716Z</time>
      </trkpt>
      <trkpt lat="45.71455" lon="6.69832">
        <ele>2241</ele>
        <time>2026-07-29T10:33:18.716Z</time>
      </trkpt>
      <trkpt lat="45.71456" lon="6.69832">
        <ele>2241</ele>
        <time>2026-07-29T10:33:19.716Z</time>
      </trkpt>
      <trkpt lat="45.71458" lon="6.69832">
        <ele>2241</ele>
        <time>2026-07-29T10:33:20.716Z</time>
      </trkpt>
      <trkpt lat="45.7146" lon="6.69833">
        <ele>2240</ele>
        <time>2026-07-29T10:33:21.716Z</time>
      </trkpt>
      <trkpt lat="45.71462" lon="6.69834">
        <ele>2240</ele>
        <time>2026-07-29T10:33:22.716Z</time>
      </trkpt>
      <trkpt lat="45.71464" lon="6.69834">
        <ele>2239</ele>
        <time>2026-07-29T10:33:23.716Z</time>
      </trkpt>
      <trkpt lat="45.71465" lon="6.69834">
        <ele>2238</ele>
        <time>2026-07-29T10:33:24.716Z</time>
      </trkpt>
      <trkpt lat="45.71467" lon="6.69834">
        <ele>2237</ele>
        <time>2026-07-29T10:33:25.716Z</time>
      </trkpt>
      <trkpt lat="45.71468" lon="6.69835">
        <ele>2237</ele>
        <time>2026-07-29T10:33:26.716Z</time>
      </trkpt>
      <trkpt lat="45.7147" lon="6.69835">
        <ele>2237</ele>
        <time>2026-07-29T10:33:27.716Z</time>
      </trkpt>
      <trkpt lat="45.71471" lon="6.69837">
        <ele>2237</ele>
        <time>2026-07-29T10:33:28.716Z</time>
      </trkpt>
      <trkpt lat="45.71473" lon="6.69838">
        <ele>2237</ele>
        <time>2026-07-29T10:33:29.716Z</time>
      </trkpt>
      <trkpt lat="45.71474" lon="6.6984">
        <ele>2237</ele>
        <time>2026-07-29T10:33:30.716Z</time>
      </trkpt>
      <trkpt lat="45.71476" lon="6.69842">
        <ele>2236</ele>
        <time>2026-07-29T10:33:31.716Z</time>
      </trkpt>
      <trkpt lat="45.71477" lon="6.69843">
        <ele>2236</ele>
        <time>2026-07-29T10:33:32.716Z</time>
      </trkpt>
      <trkpt lat="45.71478" lon="6.69844">
        <ele>2235</ele>
        <time>2026-07-29T10:33:33.716Z</time>
      </trkpt>
      <trkpt lat="45.71479" lon="6.69843">
        <ele>2235</ele>
        <time>2026-07-29T10:33:34.716Z</time>
      </trkpt>
      <trkpt lat="45.7148" lon="6.69842">
        <ele>2234</ele>
        <time>2026-07-29T10:33:35.716Z</time>
      </trkpt>
      <trkpt lat="45.71481" lon="6.6984">
        <ele>2234</ele>
        <time>2026-07-29T10:33:36.716Z</time>
      </trkpt>
      <trkpt lat="45.71482" lon="6.69838">
        <ele>2234</ele>
        <time>2026-07-29T10:33:37.716Z</time>
      </trkpt>
      <trkpt lat="45.71483" lon="6.69837">
        <ele>2233</ele>
        <time>2026-07-29T10:33:38.716Z</time>
      </trkpt>
      <trkpt lat="45.71484" lon="6.69835">
        <ele>2233</ele>
        <time>2026-07-29T10:33:39.716Z</time>
      </trkpt>
      <trkpt lat="45.71485" lon="6.69833">
        <ele>2233</ele>
        <time>2026-07-29T10:33:40.716Z</time>
      </trkpt>
      <trkpt lat="45.71486" lon="6.69831">
        <ele>2233</ele>
        <time>2026-07-29T10:33:41.716Z</time>
      </trkpt>
      <trkpt lat="45.71487" lon="6.69829">
        <ele>2232</ele>
        <time>2026-07-29T10:33:42.716Z</time>
      </trkpt>
      <trkpt lat="45.71488" lon="6.69827">
        <ele>2232</ele>
        <time>2026-07-29T10:33:43.716Z</time>
      </trkpt>
      <trkpt lat="45.7149" lon="6.69825">
        <ele>2232</ele>
        <time>2026-07-29T10:33:44.716Z</time>
      </trkpt>
      <trkpt lat="45.71491" lon="6.69824">
        <ele>2231</ele>
        <time>2026-07-29T10:33:45.716Z</time>
      </trkpt>
      <trkpt lat="45.71492" lon="6.69823">
        <ele>2230</ele>
        <time>2026-07-29T10:33:46.716Z</time>
      </trkpt>
      <trkpt lat="45.71493" lon="6.69822">
        <ele>2230</ele>
        <time>2026-07-29T10:33:47.716Z</time>
      </trkpt>
      <trkpt lat="45.71493" lon="6.69822">
        <ele>2230</ele>
        <time>2026-07-29T10:33:48.716Z</time>
      </trkpt>
      <trkpt lat="45.71494" lon="6.69822">
        <ele>2230</ele>
        <time>2026-07-29T10:33:49.716Z</time>
      </trkpt>
      <trkpt lat="45.71495" lon="6.69821">
        <ele>2230</ele>
        <time>2026-07-29T10:33:50.716Z</time>
      </trkpt>
      <trkpt lat="45.71497" lon="6.69821">
        <ele>2229</ele>
        <time>2026-07-29T10:33:51.716Z</time>
      </trkpt>
      <trkpt lat="45.71499" lon="6.6982">
        <ele>2229</ele>
        <time>2026-07-29T10:33:52.716Z</time>
      </trkpt>
      <trkpt lat="45.715" lon="6.69819">
        <ele>2228</ele>
        <time>2026-07-29T10:33:53.716Z</time>
      </trkpt>
      <trkpt lat="45.71502" lon="6.69818">
        <ele>2228</ele>
        <time>2026-07-29T10:33:54.716Z</time>
      </trkpt>
      <trkpt lat="45.71503" lon="6.69817">
        <ele>2228</ele>
        <time>2026-07-29T10:33:55.716Z</time>
      </trkpt>
      <trkpt lat="45.71504" lon="6.69815">
        <ele>2227</ele>
        <time>2026-07-29T10:33:56.716Z</time>
      </trkpt>
      <trkpt lat="45.71506" lon="6.69812">
        <ele>2227</ele>
        <time>2026-07-29T10:33:57.716Z</time>
      </trkpt>
      <trkpt lat="45.71507" lon="6.69811">
        <ele>2227</ele>
        <time>2026-07-29T10:33:58.716Z</time>
      </trkpt>
      <trkpt lat="45.71509" lon="6.6981">
        <ele>2226</ele>
        <time>2026-07-29T10:33:59.716Z</time>
      </trkpt>
      <trkpt lat="45.7151" lon="6.69809">
        <ele>2226</ele>
        <time>2026-07-29T10:34:00.716Z</time>
      </trkpt>
      <trkpt lat="45.71512" lon="6.69809">
        <ele>2226</ele>
        <time>2026-07-29T10:34:01.716Z</time>
      </trkpt>
      <trkpt lat="45.71514" lon="6.69809">
        <ele>2227</ele>
        <time>2026-07-29T10:34:02.716Z</time>
      </trkpt>
      <trkpt lat="45.71515" lon="6.6981">
        <ele>2227</ele>
        <time>2026-07-29T10:34:03.716Z</time>
      </trkpt>
      <trkpt lat="45.71517" lon="6.6981">
        <ele>2227</ele>
        <time>2026-07-29T10:34:04.716Z</time>
      </trkpt>
      <trkpt lat="45.71519" lon="6.6981">
        <ele>2227</ele>
        <time>2026-07-29T10:34:05.716Z</time>
      </trkpt>
      <trkpt lat="45.7152" lon="6.69809">
        <ele>2227</ele>
        <time>2026-07-29T10:34:06.716Z</time>
      </trkpt>
      <trkpt lat="45.71522" lon="6.69809">
        <ele>2227</ele>
        <time>2026-07-29T10:34:07.716Z</time>
      </trkpt>
      <trkpt lat="45.71523" lon="6.69808">
        <ele>2227</ele>
        <time>2026-07-29T10:34:08.716Z</time>
      </trkpt>
      <trkpt lat="45.71525" lon="6.69808">
        <ele>2227</ele>
        <time>2026-07-29T10:34:09.716Z</time>
      </trkpt>
      <trkpt lat="45.71527" lon="6.69808">
        <ele>2227</ele>
        <time>2026-07-29T10:34:10.716Z</time>
      </trkpt>
      <trkpt lat="45.71529" lon="6.69809">
        <ele>2227</ele>
        <time>2026-07-29T10:34:11.716Z</time>
      </trkpt>
      <trkpt lat="45.7153" lon="6.6981">
        <ele>2227</ele>
        <time>2026-07-29T10:34:12.716Z</time>
      </trkpt>
      <trkpt lat="45.71532" lon="6.69811">
        <ele>2227</ele>
        <time>2026-07-29T10:34:13.716Z</time>
      </trkpt>
      <trkpt lat="45.71534" lon="6.69811">
        <ele>2227</ele>
        <time>2026-07-29T10:34:14.716Z</time>
      </trkpt>
      <trkpt lat="45.71536" lon="6.69812">
        <ele>2227</ele>
        <time>2026-07-29T10:34:15.716Z</time>
      </trkpt>
      <trkpt lat="45.71537" lon="6.69813">
        <ele>2227</ele>
        <time>2026-07-29T10:34:16.716Z</time>
      </trkpt>
      <trkpt lat="45.71539" lon="6.69813">
        <ele>2227</ele>
        <time>2026-07-29T10:34:17.716Z</time>
      </trkpt>
      <trkpt lat="45.71541" lon="6.69813">
        <ele>2227</ele>
        <time>2026-07-29T10:34:18.716Z</time>
      </trkpt>
      <trkpt lat="45.71543" lon="6.69814">
        <ele>2227</ele>
        <time>2026-07-29T10:34:19.716Z</time>
      </trkpt>
      <trkpt lat="45.71545" lon="6.69814">
        <ele>2226</ele>
        <time>2026-07-29T10:34:20.716Z</time>
      </trkpt>
      <trkpt lat="45.71547" lon="6.69814">
        <ele>2226</ele>
        <time>2026-07-29T10:34:21.716Z</time>
      </trkpt>
      <trkpt lat="45.71549" lon="6.69813">
        <ele>2226</ele>
        <time>2026-07-29T10:34:22.716Z</time>
      </trkpt>
      <trkpt lat="45.71551" lon="6.69812">
        <ele>2226</ele>
        <time>2026-07-29T10:34:23.716Z</time>
      </trkpt>
      <trkpt lat="45.71552" lon="6.6981">
        <ele>2226</ele>
        <time>2026-07-29T10:34:24.716Z</time>
      </trkpt>
      <trkpt lat="45.71554" lon="6.69807">
        <ele>2226</ele>
        <time>2026-07-29T10:34:25.716Z</time>
      </trkpt>
      <trkpt lat="45.71555" lon="6.69805">
        <ele>2226</ele>
        <time>2026-07-29T10:34:26.716Z</time>
      </trkpt>
      <trkpt lat="45.71556" lon="6.69802">
        <ele>2226</ele>
        <time>2026-07-29T10:34:27.716Z</time>
      </trkpt>
      <trkpt lat="45.71557" lon="6.698">
        <ele>2226</ele>
        <time>2026-07-29T10:34:28.716Z</time>
      </trkpt>
      <trkpt lat="45.71559" lon="6.69798">
        <ele>2226</ele>
        <time>2026-07-29T10:34:29.716Z</time>
      </trkpt>
      <trkpt lat="45.7156" lon="6.69795">
        <ele>2226</ele>
        <time>2026-07-29T10:34:30.716Z</time>
      </trkpt>
      <trkpt lat="45.71561" lon="6.69795">
        <ele>2226</ele>
        <time>2026-07-29T10:34:31.716Z</time>
      </trkpt>
      <trkpt lat="45.71563" lon="6.69794">
        <ele>2226</ele>
        <time>2026-07-29T10:34:32.716Z</time>
      </trkpt>
      <trkpt lat="45.71565" lon="6.69793">
        <ele>2225</ele>
        <time>2026-07-29T10:34:33.716Z</time>
      </trkpt>
      <trkpt lat="45.71566" lon="6.69792">
        <ele>2225</ele>
        <time>2026-07-29T10:34:34.716Z</time>
      </trkpt>
      <trkpt lat="45.71568" lon="6.69791">
        <ele>2225</ele>
        <time>2026-07-29T10:34:35.716Z</time>
      </trkpt>
      <trkpt lat="45.71569" lon="6.69791">
        <ele>2224</ele>
        <time>2026-07-29T10:34:36.716Z</time>
      </trkpt>
      <trkpt lat="45.71571" lon="6.69791">
        <ele>2224</ele>
        <time>2026-07-29T10:34:37.716Z</time>
      </trkpt>
      <trkpt lat="45.71573" lon="6.69792">
        <ele>2223</ele>
        <time>2026-07-29T10:34:38.716Z</time>
      </trkpt>
      <trkpt lat="45.71574" lon="6.69792">
        <ele>2223</ele>
        <time>2026-07-29T10:34:39.716Z</time>
      </trkpt>
      <trkpt lat="45.71575" lon="6.69792">
        <ele>2223</ele>
        <time>2026-07-29T10:34:40.716Z</time>
      </trkpt>
      <trkpt lat="45.71576" lon="6.69791">
        <ele>2222</ele>
        <time>2026-07-29T10:34:41.716Z</time>
      </trkpt>
      <trkpt lat="45.71577" lon="6.69791">
        <ele>2221</ele>
        <time>2026-07-29T10:34:42.716Z</time>
      </trkpt>
      <trkpt lat="45.71578" lon="6.6979">
        <ele>2221</ele>
        <time>2026-07-29T10:34:43.716Z</time>
      </trkpt>
      <trkpt lat="45.71579" lon="6.69789">
        <ele>2221</ele>
        <time>2026-07-29T10:34:44.716Z</time>
      </trkpt>
      <trkpt lat="45.7158" lon="6.69789">
        <ele>2220</ele>
        <time>2026-07-29T10:34:45.716Z</time>
      </trkpt>
      <trkpt lat="45.71581" lon="6.69788">
        <ele>2220</ele>
        <time>2026-07-29T10:34:46.716Z</time>
      </trkpt>
      <trkpt lat="45.71582" lon="6.69788">
        <ele>2220</ele>
        <time>2026-07-29T10:34:47.716Z</time>
      </trkpt>
      <trkpt lat="45.71583" lon="6.69787">
        <ele>2220</ele>
        <time>2026-07-29T10:34:48.716Z</time>
      </trkpt>
      <trkpt lat="45.71585" lon="6.69786">
        <ele>2220</ele>
        <time>2026-07-29T10:34:49.716Z</time>
      </trkpt>
      <trkpt lat="45.71587" lon="6.69786">
        <ele>2220</ele>
        <time>2026-07-29T10:34:50.716Z</time>
      </trkpt>
      <trkpt lat="45.71588" lon="6.69786">
        <ele>2220</ele>
        <time>2026-07-29T10:34:51.716Z</time>
      </trkpt>
      <trkpt lat="45.7159" lon="6.69785">
        <ele>2220</ele>
        <time>2026-07-29T10:34:52.717Z</time>
      </trkpt>
      <trkpt lat="45.71591" lon="6.69785">
        <ele>2220</ele>
        <time>2026-07-29T10:34:53.716Z</time>
      </trkpt>
      <trkpt lat="45.71592" lon="6.69784">
        <ele>2220</ele>
        <time>2026-07-29T10:34:54.716Z</time>
      </trkpt>
      <trkpt lat="45.71594" lon="6.69784">
        <ele>2219</ele>
        <time>2026-07-29T10:34:55.716Z</time>
      </trkpt>
      <trkpt lat="45.71596" lon="6.69784">
        <ele>2219</ele>
        <time>2026-07-29T10:34:56.716Z</time>
      </trkpt>
      <trkpt lat="45.71597" lon="6.69784">
        <ele>2219</ele>
        <time>2026-07-29T10:34:57.716Z</time>
      </trkpt>
      <trkpt lat="45.71599" lon="6.69784">
        <ele>2219</ele>
        <time>2026-07-29T10:34:58.716Z</time>
      </trkpt>
      <trkpt lat="45.716" lon="6.69784">
        <ele>2219</ele>
        <time>2026-07-29T10:34:59.716Z</time>
      </trkpt>
      <trkpt lat="45.71602" lon="6.69785">
        <ele>2218</ele>
        <time>2026-07-29T10:35:00.716Z</time>
      </trkpt>
      <trkpt lat="45.71604" lon="6.69786">
        <ele>2218</ele>
        <time>2026-07-29T10:35:01.716Z</time>
      </trkpt>
      <trkpt lat="45.71605" lon="6.69786">
        <ele>2218</ele>
        <time>2026-07-29T10:35:02.716Z</time>
      </trkpt>
      <trkpt lat="45.71607" lon="6.69787">
        <ele>2218</ele>
        <time>2026-07-29T10:35:03.716Z</time>
      </trkpt>
      <trkpt lat="45.71609" lon="6.69787">
        <ele>2218</ele>
        <time>2026-07-29T10:35:04.716Z</time>
      </trkpt>
      <trkpt lat="45.71611" lon="6.69788">
        <ele>2218</ele>
        <time>2026-07-29T10:35:05.716Z</time>
      </trkpt>
      <trkpt lat="45.71612" lon="6.69787">
        <ele>2217</ele>
        <time>2026-07-29T10:35:06.716Z</time>
      </trkpt>
      <trkpt lat="45.71613" lon="6.69787">
        <ele>2217</ele>
        <time>2026-07-29T10:35:07.716Z</time>
      </trkpt>
      <trkpt lat="45.71615" lon="6.69787">
        <ele>2216</ele>
        <time>2026-07-29T10:35:08.716Z</time>
      </trkpt>
      <trkpt lat="45.71617" lon="6.69787">
        <ele>2216</ele>
        <time>2026-07-29T10:35:09.716Z</time>
      </trkpt>
      <trkpt lat="45.71619" lon="6.69786">
        <ele>2216</ele>
        <time>2026-07-29T10:35:10.716Z</time>
      </trkpt>
      <trkpt lat="45.7162" lon="6.69786">
        <ele>2216</ele>
        <time>2026-07-29T10:35:11.716Z</time>
      </trkpt>
      <trkpt lat="45.71622" lon="6.69786">
        <ele>2216</ele>
        <time>2026-07-29T10:35:12.716Z</time>
      </trkpt>
      <trkpt lat="45.71624" lon="6.69786">
        <ele>2215</ele>
        <time>2026-07-29T10:35:13.716Z</time>
      </trkpt>
      <trkpt lat="45.71626" lon="6.69786">
        <ele>2215</ele>
        <time>2026-07-29T10:35:14.716Z</time>
      </trkpt>
      <trkpt lat="45.71628" lon="6.69785">
        <ele>2214</ele>
        <time>2026-07-29T10:35:15.716Z</time>
      </trkpt>
      <trkpt lat="45.7163" lon="6.69784">
        <ele>2214</ele>
        <time>2026-07-29T10:35:16.716Z</time>
      </trkpt>
      <trkpt lat="45.71633" lon="6.69783">
        <ele>2214</ele>
        <time>2026-07-29T10:35:17.716Z</time>
      </trkpt>
      <trkpt lat="45.71635" lon="6.69783">
        <ele>2213</ele>
        <time>2026-07-29T10:35:18.716Z</time>
      </trkpt>
      <trkpt lat="45.71637" lon="6.69783">
        <ele>2213</ele>
        <time>2026-07-29T10:35:19.716Z</time>
      </trkpt>
      <trkpt lat="45.71639" lon="6.69784">
        <ele>2213</ele>
        <time>2026-07-29T10:35:20.716Z</time>
      </trkpt>
      <trkpt lat="45.7164" lon="6.69784">
        <ele>2213</ele>
        <time>2026-07-29T10:35:21.716Z</time>
      </trkpt>
      <trkpt lat="45.71642" lon="6.69786">
        <ele>2213</ele>
        <time>2026-07-29T10:35:22.716Z</time>
      </trkpt>
      <trkpt lat="45.71643" lon="6.69787">
        <ele>2213</ele>
        <time>2026-07-29T10:35:23.716Z</time>
      </trkpt>
      <trkpt lat="45.71645" lon="6.69787">
        <ele>2212</ele>
        <time>2026-07-29T10:35:24.716Z</time>
      </trkpt>
      <trkpt lat="45.71646" lon="6.69788">
        <ele>2212</ele>
        <time>2026-07-29T10:35:25.716Z</time>
      </trkpt>
      <trkpt lat="45.71647" lon="6.69789">
        <ele>2213</ele>
        <time>2026-07-29T10:35:26.716Z</time>
      </trkpt>
      <trkpt lat="45.71649" lon="6.69789">
        <ele>2213</ele>
        <time>2026-07-29T10:35:27.716Z</time>
      </trkpt>
      <trkpt lat="45.71651" lon="6.6979">
        <ele>2213</ele>
        <time>2026-07-29T10:35:28.716Z</time>
      </trkpt>
      <trkpt lat="45.71652" lon="6.69791">
        <ele>2213</ele>
        <time>2026-07-29T10:35:29.716Z</time>
      </trkpt>
      <trkpt lat="45.71654" lon="6.69792">
        <ele>2214</ele>
        <time>2026-07-29T10:35:30.716Z</time>
      </trkpt>
      <trkpt lat="45.71655" lon="6.69793">
        <ele>2214</ele>
        <time>2026-07-29T10:35:31.716Z</time>
      </trkpt>
      <trkpt lat="45.71656" lon="6.69793">
        <ele>2214</ele>
        <time>2026-07-29T10:35:32.716Z</time>
      </trkpt>
      <trkpt lat="45.71657" lon="6.69793">
        <ele>2214</ele>
        <time>2026-07-29T10:35:33.716Z</time>
      </trkpt>
      <trkpt lat="45.71659" lon="6.69793">
        <ele>2214</ele>
        <time>2026-07-29T10:35:34.716Z</time>
      </trkpt>
      <trkpt lat="45.71661" lon="6.69793">
        <ele>2214</ele>
        <time>2026-07-29T10:35:35.716Z</time>
      </trkpt>
      <trkpt lat="45.71662" lon="6.69793">
        <ele>2214</ele>
        <time>2026-07-29T10:35:36.716Z</time>
      </trkpt>
      <trkpt lat="45.71664" lon="6.69793">
        <ele>2214</ele>
        <time>2026-07-29T10:35:37.716Z</time>
      </trkpt>
      <trkpt lat="45.71665" lon="6.69794">
        <ele>2214</ele>
        <time>2026-07-29T10:35:38.716Z</time>
      </trkpt>
      <trkpt lat="45.71667" lon="6.69794">
        <ele>2215</ele>
        <time>2026-07-29T10:35:39.716Z</time>
      </trkpt>
      <trkpt lat="45.71669" lon="6.69795">
        <ele>2215</ele>
        <time>2026-07-29T10:35:40.716Z</time>
      </trkpt>
      <trkpt lat="45.7167" lon="6.69795">
        <ele>2215</ele>
        <time>2026-07-29T10:35:41.716Z</time>
      </trkpt>
      <trkpt lat="45.71671" lon="6.69795">
        <ele>2215</ele>
        <time>2026-07-29T10:35:42.716Z</time>
      </trkpt>
      <trkpt lat="45.71672" lon="6.69795">
        <ele>2215</ele>
        <time>2026-07-29T10:35:43.716Z</time>
      </trkpt>
      <trkpt lat="45.71673" lon="6.69796">
        <ele>2215</ele>
        <time>2026-07-29T10:35:44.716Z</time>
      </trkpt>
      <trkpt lat="45.71675" lon="6.69796">
        <ele>2215</ele>
        <time>2026-07-29T10:35:45.716Z</time>
      </trkpt>
      <trkpt lat="45.71676" lon="6.69797">
        <ele>2215</ele>
        <time>2026-07-29T10:35:46.716Z</time>
      </trkpt>
      <trkpt lat="45.71677" lon="6.69799">
        <ele>2214</ele>
        <time>2026-07-29T10:35:47.716Z</time>
      </trkpt>
      <trkpt lat="45.71678" lon="6.69799">
        <ele>2214</ele>
        <time>2026-07-29T10:35:48.716Z</time>
      </trkpt>
      <trkpt lat="45.7168" lon="6.698">
        <ele>2214</ele>
        <time>2026-07-29T10:35:49.716Z</time>
      </trkpt>
      <trkpt lat="45.71682" lon="6.698">
        <ele>2213</ele>
        <time>2026-07-29T10:35:50.716Z</time>
      </trkpt>
      <trkpt lat="45.71684" lon="6.69801">
        <ele>2213</ele>
        <time>2026-07-29T10:35:51.716Z</time>
      </trkpt>
      <trkpt lat="45.71686" lon="6.69801">
        <ele>2212</ele>
        <time>2026-07-29T10:35:52.716Z</time>
      </trkpt>
      <trkpt lat="45.71688" lon="6.69802">
        <ele>2211</ele>
        <time>2026-07-29T10:35:53.716Z</time>
      </trkpt>
      <trkpt lat="45.7169" lon="6.69803">
        <ele>2211</ele>
        <time>2026-07-29T10:35:54.716Z</time>
      </trkpt>
      <trkpt lat="45.71691" lon="6.69803">
        <ele>2210</ele>
        <time>2026-07-29T10:35:55.716Z</time>
      </trkpt>
      <trkpt lat="45.71693" lon="6.69805">
        <ele>2210</ele>
        <time>2026-07-29T10:35:56.716Z</time>
      </trkpt>
      <trkpt lat="45.71694" lon="6.69806">
        <ele>2210</ele>
        <time>2026-07-29T10:35:57.716Z</time>
      </trkpt>
      <trkpt lat="45.71696" lon="6.69807">
        <ele>2210</ele>
        <time>2026-07-29T10:35:58.716Z</time>
      </trkpt>
      <trkpt lat="45.71697" lon="6.69808">
        <ele>2210</ele>
        <time>2026-07-29T10:35:59.716Z</time>
      </trkpt>
      <trkpt lat="45.71698" lon="6.69809">
        <ele>2209</ele>
        <time>2026-07-29T10:36:00.716Z</time>
      </trkpt>
      <trkpt lat="45.717" lon="6.6981">
        <ele>2209</ele>
        <time>2026-07-29T10:36:01.716Z</time>
      </trkpt>
      <trkpt lat="45.71701" lon="6.69811">
        <ele>2209</ele>
        <time>2026-07-29T10:36:02.716Z</time>
      </trkpt>
      <trkpt lat="45.71703" lon="6.69812">
        <ele>2208</ele>
        <time>2026-07-29T10:36:03.716Z</time>
      </trkpt>
      <trkpt lat="45.71705" lon="6.69812">
        <ele>2208</ele>
        <time>2026-07-29T10:36:04.716Z</time>
      </trkpt>
      <trkpt lat="45.71707" lon="6.69813">
        <ele>2207</ele>
        <time>2026-07-29T10:36:05.716Z</time>
      </trkpt>
      <trkpt lat="45.71709" lon="6.69813">
        <ele>2207</ele>
        <time>2026-07-29T10:36:06.716Z</time>
      </trkpt>
      <trkpt lat="45.71711" lon="6.69813">
        <ele>2206</ele>
        <time>2026-07-29T10:36:07.716Z</time>
      </trkpt>
      <trkpt lat="45.71713" lon="6.69813">
        <ele>2206</ele>
        <time>2026-07-29T10:36:08.716Z</time>
      </trkpt>
      <trkpt lat="45.71716" lon="6.69813">
        <ele>2206</ele>
        <time>2026-07-29T10:36:09.716Z</time>
      </trkpt>
      <trkpt lat="45.71719" lon="6.69813">
        <ele>2205</ele>
        <time>2026-07-29T10:36:10.716Z</time>
      </trkpt>
      <trkpt lat="45.71721" lon="6.69813">
        <ele>2205</ele>
        <time>2026-07-29T10:36:11.716Z</time>
      </trkpt>
      <trkpt lat="45.71723" lon="6.69813">
        <ele>2204</ele>
        <time>2026-07-29T10:36:12.716Z</time>
      </trkpt>
      <trkpt lat="45.71725" lon="6.69813">
        <ele>2204</ele>
        <time>2026-07-29T10:36:13.716Z</time>
      </trkpt>
      <trkpt lat="45.71727" lon="6.69814">
        <ele>2204</ele>
        <time>2026-07-29T10:36:14.716Z</time>
      </trkpt>
      <trkpt lat="45.71729" lon="6.69815">
        <ele>2204</ele>
        <time>2026-07-29T10:36:15.716Z</time>
      </trkpt>
      <trkpt lat="45.71731" lon="6.69816">
        <ele>2204</ele>
        <time>2026-07-29T10:36:16.716Z</time>
      </trkpt>
      <trkpt lat="45.71732" lon="6.69816">
        <ele>2203</ele>
        <time>2026-07-29T10:36:17.716Z</time>
      </trkpt>
      <trkpt lat="45.71734" lon="6.69817">
        <ele>2203</ele>
        <time>2026-07-29T10:36:18.716Z</time>
      </trkpt>
      <trkpt lat="45.71735" lon="6.69816">
        <ele>2203</ele>
        <time>2026-07-29T10:36:19.716Z</time>
      </trkpt>
      <trkpt lat="45.71737" lon="6.69814">
        <ele>2203</ele>
        <time>2026-07-29T10:36:20.716Z</time>
      </trkpt>
      <trkpt lat="45.71738" lon="6.69813">
        <ele>2203</ele>
        <time>2026-07-29T10:36:21.716Z</time>
      </trkpt>
      <trkpt lat="45.7174" lon="6.69811">
        <ele>2203</ele>
        <time>2026-07-29T10:36:22.716Z</time>
      </trkpt>
      <trkpt lat="45.71741" lon="6.69809">
        <ele>2203</ele>
        <time>2026-07-29T10:36:23.716Z</time>
      </trkpt>
      <trkpt lat="45.71743" lon="6.69807">
        <ele>2203</ele>
        <time>2026-07-29T10:36:24.716Z</time>
      </trkpt>
      <trkpt lat="45.71744" lon="6.69806">
        <ele>2202</ele>
        <time>2026-07-29T10:36:25.716Z</time>
      </trkpt>
      <trkpt lat="45.71745" lon="6.69805">
        <ele>2202</ele>
        <time>2026-07-29T10:36:26.716Z</time>
      </trkpt>
      <trkpt lat="45.71746" lon="6.69804">
        <ele>2202</ele>
        <time>2026-07-29T10:36:27.716Z</time>
      </trkpt>
      <trkpt lat="45.71746" lon="6.69804">
        <ele>2201</ele>
        <time>2026-07-29T10:36:28.716Z</time>
      </trkpt>
      <trkpt lat="45.71747" lon="6.69802">
        <ele>2200</ele>
        <time>2026-07-29T10:36:29.716Z</time>
      </trkpt>
      <trkpt lat="45.71748" lon="6.69801">
        <ele>2199</ele>
        <time>2026-07-29T10:36:30.716Z</time>
      </trkpt>
      <trkpt lat="45.71749" lon="6.698">
        <ele>2199</ele>
        <time>2026-07-29T10:36:31.716Z</time>
      </trkpt>
      <trkpt lat="45.7175" lon="6.69799">
        <ele>2199</ele>
        <time>2026-07-29T10:36:32.716Z</time>
      </trkpt>
      <trkpt lat="45.71751" lon="6.69797">
        <ele>2198</ele>
        <time>2026-07-29T10:36:33.716Z</time>
      </trkpt>
      <trkpt lat="45.71753" lon="6.69795">
        <ele>2198</ele>
        <time>2026-07-29T10:36:34.716Z</time>
      </trkpt>
      <trkpt lat="45.71755" lon="6.69794">
        <ele>2198</ele>
        <time>2026-07-29T10:36:35.716Z</time>
      </trkpt>
      <trkpt lat="45.71756" lon="6.69792">
        <ele>2198</ele>
        <time>2026-07-29T10:36:36.716Z</time>
      </trkpt>
      <trkpt lat="45.71758" lon="6.6979">
        <ele>2197</ele>
        <time>2026-07-29T10:36:37.716Z</time>
      </trkpt>
      <trkpt lat="45.71759" lon="6.69789">
        <ele>2197</ele>
        <time>2026-07-29T10:36:38.716Z</time>
      </trkpt>
      <trkpt lat="45.71761" lon="6.69788">
        <ele>2196</ele>
        <time>2026-07-29T10:36:39.716Z</time>
      </trkpt>
      <trkpt lat="45.71763" lon="6.69788">
        <ele>2196</ele>
        <time>2026-07-29T10:36:40.716Z</time>
      </trkpt>
      <trkpt lat="45.71765" lon="6.69788">
        <ele>2195</ele>
        <time>2026-07-29T10:36:41.716Z</time>
      </trkpt>
      <trkpt lat="45.71767" lon="6.69787">
        <ele>2194</ele>
        <time>2026-07-29T10:36:42.716Z</time>
      </trkpt>
      <trkpt lat="45.71769" lon="6.69786">
        <ele>2194</ele>
        <time>2026-07-29T10:36:43.716Z</time>
      </trkpt>
      <trkpt lat="45.71771" lon="6.69786">
        <ele>2194</ele>
        <time>2026-07-29T10:36:44.716Z</time>
      </trkpt>
      <trkpt lat="45.71773" lon="6.69785">
        <ele>2194</ele>
        <time>2026-07-29T10:36:45.716Z</time>
      </trkpt>
      <trkpt lat="45.71775" lon="6.69785">
        <ele>2193</ele>
        <time>2026-07-29T10:36:46.716Z</time>
      </trkpt>
      <trkpt lat="45.71777" lon="6.69784">
        <ele>2193</ele>
        <time>2026-07-29T10:36:47.716Z</time>
      </trkpt>
      <trkpt lat="45.71778" lon="6.69784">
        <ele>2192</ele>
        <time>2026-07-29T10:36:48.716Z</time>
      </trkpt>
      <trkpt lat="45.71779" lon="6.69785">
        <ele>2192</ele>
        <time>2026-07-29T10:36:49.716Z</time>
      </trkpt>
      <trkpt lat="45.71779" lon="6.69787">
        <ele>2191</ele>
        <time>2026-07-29T10:36:50.716Z</time>
      </trkpt>
      <trkpt lat="45.71779" lon="6.69789">
        <ele>2190</ele>
        <time>2026-07-29T10:36:51.716Z</time>
      </trkpt>
      <trkpt lat="45.71779" lon="6.69792">
        <ele>2189</ele>
        <time>2026-07-29T10:36:52.716Z</time>
      </trkpt>
      <trkpt lat="45.71779" lon="6.69795">
        <ele>2189</ele>
        <time>2026-07-29T10:36:53.716Z</time>
      </trkpt>
      <trkpt lat="45.71779" lon="6.69798">
        <ele>2189</ele>
        <time>2026-07-29T10:36:54.716Z</time>
      </trkpt>
      <trkpt lat="45.71778" lon="6.69801">
        <ele>2188</ele>
        <time>2026-07-29T10:36:55.716Z</time>
      </trkpt>
      <trkpt lat="45.71778" lon="6.69804">
        <ele>2187</ele>
        <time>2026-07-29T10:36:56.716Z</time>
      </trkpt>
      <trkpt lat="45.71778" lon="6.69807">
        <ele>2187</ele>
        <time>2026-07-29T10:36:57.716Z</time>
      </trkpt>
      <trkpt lat="45.71777" lon="6.6981">
        <ele>2186</ele>
        <time>2026-07-29T10:36:58.716Z</time>
      </trkpt>
      <trkpt lat="45.71777" lon="6.69813">
        <ele>2185</ele>
        <time>2026-07-29T10:36:59.716Z</time>
      </trkpt>
      <trkpt lat="45.71777" lon="6.69816">
        <ele>2184</ele>
        <time>2026-07-29T10:37:00.716Z</time>
      </trkpt>
      <trkpt lat="45.71777" lon="6.69819">
        <ele>2183</ele>
        <time>2026-07-29T10:37:01.716Z</time>
      </trkpt>
      <trkpt lat="45.71777" lon="6.69822">
        <ele>2182</ele>
        <time>2026-07-29T10:37:02.716Z</time>
      </trkpt>
      <trkpt lat="45.71777" lon="6.69826">
        <ele>2182</ele>
        <time>2026-07-29T10:37:03.716Z</time>
      </trkpt>
      <trkpt lat="45.71777" lon="6.69829">
        <ele>2181</ele>
        <time>2026-07-29T10:37:04.716Z</time>
      </trkpt>
      <trkpt lat="45.71776" lon="6.69832">
        <ele>2180</ele>
        <time>2026-07-29T10:37:05.716Z</time>
      </trkpt>
      <trkpt lat="45.71776" lon="6.69835">
        <ele>2180</ele>
        <time>2026-07-29T10:37:06.716Z</time>
      </trkpt>
      <trkpt lat="45.71776" lon="6.69838">
        <ele>2179</ele>
        <time>2026-07-29T10:37:07.716Z</time>
      </trkpt>
      <trkpt lat="45.71776" lon="6.69842">
        <ele>2178</ele>
        <time>2026-07-29T10:37:08.716Z</time>
      </trkpt>
      <trkpt lat="45.71775" lon="6.69845">
        <ele>2177</ele>
        <time>2026-07-29T10:37:09.716Z</time>
      </trkpt>
      <trkpt lat="45.71775" lon="6.69849">
        <ele>2177</ele>
        <time>2026-07-29T10:37:10.716Z</time>
      </trkpt>
      <trkpt lat="45.71775" lon="6.69852">
        <ele>2176</ele>
        <time>2026-07-29T10:37:11.716Z</time>
      </trkpt>
      <trkpt lat="45.71774" lon="6.69855">
        <ele>2175</ele>
        <time>2026-07-29T10:37:12.716Z</time>
      </trkpt>
      <trkpt lat="45.71774" lon="6.69859">
        <ele>2174</ele>
        <time>2026-07-29T10:37:13.716Z</time>
      </trkpt>
      <trkpt lat="45.71773" lon="6.69862">
        <ele>2174</ele>
        <time>2026-07-29T10:37:14.716Z</time>
      </trkpt>
      <trkpt lat="45.71772" lon="6.69865">
        <ele>2173</ele>
        <time>2026-07-29T10:37:15.716Z</time>
      </trkpt>
      <trkpt lat="45.71772" lon="6.69868">
        <ele>2173</ele>
        <time>2026-07-29T10:37:16.716Z</time>
      </trkpt>
      <trkpt lat="45.71771" lon="6.69871">
        <ele>2172</ele>
        <time>2026-07-29T10:37:17.716Z</time>
      </trkpt>
      <trkpt lat="45.71771" lon="6.69872">
        <ele>2172</ele>
        <time>2026-07-29T10:37:18.716Z</time>
      </trkpt>
      <trkpt lat="45.71772" lon="6.69874">
        <ele>2171</ele>
        <time>2026-07-29T10:37:19.716Z</time>
      </trkpt>
      <trkpt lat="45.71772" lon="6.69875">
        <ele>2171</ele>
        <time>2026-07-29T10:37:20.716Z</time>
      </trkpt>
      <trkpt lat="45.71773" lon="6.69874">
        <ele>2170</ele>
        <time>2026-07-29T10:37:21.716Z</time>
      </trkpt>
      <trkpt lat="45.71775" lon="6.69873">
        <ele>2169</ele>
        <time>2026-07-29T10:37:22.716Z</time>
      </trkpt>
      <trkpt lat="45.71776" lon="6.69873">
        <ele>2169</ele>
        <time>2026-07-29T10:37:23.716Z</time>
      </trkpt>
      <trkpt lat="45.71777" lon="6.69873">
        <ele>2169</ele>
        <time>2026-07-29T10:37:24.716Z</time>
      </trkpt>
      <trkpt lat="45.71777" lon="6.69875">
        <ele>2168</ele>
        <time>2026-07-29T10:37:25.716Z</time>
      </trkpt>
      <trkpt lat="45.71777" lon="6.69877">
        <ele>2168</ele>
        <time>2026-07-29T10:37:26.716Z</time>
      </trkpt>
      <trkpt lat="45.71777" lon="6.69879">
        <ele>2167</ele>
        <time>2026-07-29T10:37:27.716Z</time>
      </trkpt>
      <trkpt lat="45.71777" lon="6.69881">
        <ele>2167</ele>
        <time>2026-07-29T10:37:28.716Z</time>
      </trkpt>
      <trkpt lat="45.71777" lon="6.69883">
        <ele>2166</ele>
        <time>2026-07-29T10:37:29.716Z</time>
      </trkpt>
      <trkpt lat="45.71777" lon="6.69886">
        <ele>2166</ele>
        <time>2026-07-29T10:37:30.716Z</time>
      </trkpt>
      <trkpt lat="45.71777" lon="6.69888">
        <ele>2165</ele>
        <time>2026-07-29T10:37:31.716Z</time>
      </trkpt>
      <trkpt lat="45.71777" lon="6.69891">
        <ele>2164</ele>
        <time>2026-07-29T10:37:32.716Z</time>
      </trkpt>
      <trkpt lat="45.71778" lon="6.69894">
        <ele>2164</ele>
        <time>2026-07-29T10:37:33.716Z</time>
      </trkpt>
      <trkpt lat="45.71778" lon="6.69897">
        <ele>2164</ele>
        <time>2026-07-29T10:37:34.716Z</time>
      </trkpt>
      <trkpt lat="45.71778" lon="6.69899">
        <ele>2163</ele>
        <time>2026-07-29T10:37:35.716Z</time>
      </trkpt>
      <trkpt lat="45.71778" lon="6.69902">
        <ele>2163</ele>
        <time>2026-07-29T10:37:36.716Z</time>
      </trkpt>
      <trkpt lat="45.71778" lon="6.69905">
        <ele>2162</ele>
        <time>2026-07-29T10:37:37.716Z</time>
      </trkpt>
      <trkpt lat="45.71778" lon="6.69908">
        <ele>2162</ele>
        <time>2026-07-29T10:37:38.716Z</time>
      </trkpt>
      <trkpt lat="45.71778" lon="6.69911">
        <ele>2162</ele>
        <time>2026-07-29T10:37:39.716Z</time>
      </trkpt>
      <trkpt lat="45.71778" lon="6.69914">
        <ele>2161</ele>
        <time>2026-07-29T10:37:40.716Z</time>
      </trkpt>
      <trkpt lat="45.71777" lon="6.69916">
        <ele>2161</ele>
        <time>2026-07-29T10:37:41.716Z</time>
      </trkpt>
      <trkpt lat="45.71777" lon="6.69919">
        <ele>2160</ele>
        <time>2026-07-29T10:37:42.716Z</time>
      </trkpt>
      <trkpt lat="45.71776" lon="6.69922">
        <ele>2160</ele>
        <time>2026-07-29T10:37:43.716Z</time>
      </trkpt>
      <trkpt lat="45.71776" lon="6.69925">
        <ele>2159</ele>
        <time>2026-07-29T10:37:44.716Z</time>
      </trkpt>
      <trkpt lat="45.71776" lon="6.69928">
        <ele>2158</ele>
        <time>2026-07-29T10:37:45.716Z</time>
      </trkpt>
      <trkpt lat="45.71776" lon="6.6993">
        <ele>2158</ele>
        <time>2026-07-29T10:37:46.716Z</time>
      </trkpt>
      <trkpt lat="45.71777" lon="6.69932">
        <ele>2157</ele>
        <time>2026-07-29T10:37:47.716Z</time>
      </trkpt>
      <trkpt lat="45.71778" lon="6.69932">
        <ele>2157</ele>
        <time>2026-07-29T10:37:48.716Z</time>
      </trkpt>
      <trkpt lat="45.71779" lon="6.69933">
        <ele>2157</ele>
        <time>2026-07-29T10:37:49.716Z</time>
      </trkpt>
      <trkpt lat="45.71781" lon="6.69932">
        <ele>2157</ele>
        <time>2026-07-29T10:37:50.716Z</time>
      </trkpt>
      <trkpt lat="45.71783" lon="6.69932">
        <ele>2157</ele>
        <time>2026-07-29T10:37:51.716Z</time>
      </trkpt>
      <trkpt lat="45.71784" lon="6.69932">
        <ele>2156</ele>
        <time>2026-07-29T10:37:52.716Z</time>
      </trkpt>
      <trkpt lat="45.71786" lon="6.69932">
        <ele>2156</ele>
        <time>2026-07-29T10:37:53.716Z</time>
      </trkpt>
      <trkpt lat="45.71787" lon="6.69931">
        <ele>2155</ele>
        <time>2026-07-29T10:37:54.716Z</time>
      </trkpt>
      <trkpt lat="45.71789" lon="6.6993">
        <ele>2155</ele>
        <time>2026-07-29T10:37:55.716Z</time>
      </trkpt>
      <trkpt lat="45.7179" lon="6.69929">
        <ele>2154</ele>
        <time>2026-07-29T10:37:56.716Z</time>
      </trkpt>
      <trkpt lat="45.71792" lon="6.69928">
        <ele>2154</ele>
        <time>2026-07-29T10:37:57.716Z</time>
      </trkpt>
      <trkpt lat="45.71794" lon="6.69927">
        <ele>2153</ele>
        <time>2026-07-29T10:37:58.716Z</time>
      </trkpt>
      <trkpt lat="45.71795" lon="6.69925">
        <ele>2153</ele>
        <time>2026-07-29T10:37:59.716Z</time>
      </trkpt>
      <trkpt lat="45.71797" lon="6.69923">
        <ele>2152</ele>
        <time>2026-07-29T10:38:00.716Z</time>
      </trkpt>
      <trkpt lat="45.71799" lon="6.69922">
        <ele>2151</ele>
        <time>2026-07-29T10:38:01.716Z</time>
      </trkpt>
      <trkpt lat="45.71801" lon="6.69921">
        <ele>2151</ele>
        <time>2026-07-29T10:38:02.716Z</time>
      </trkpt>
      <trkpt lat="45.71802" lon="6.69919">
        <ele>2150</ele>
        <time>2026-07-29T10:38:03.716Z</time>
      </trkpt>
      <trkpt lat="45.71804" lon="6.69917">
        <ele>2150</ele>
        <time>2026-07-29T10:38:04.716Z</time>
      </trkpt>
      <trkpt lat="45.71805" lon="6.69915">
        <ele>2149</ele>
        <time>2026-07-29T10:38:05.716Z</time>
      </trkpt>
      <trkpt lat="45.71807" lon="6.69913">
        <ele>2148</ele>
        <time>2026-07-29T10:38:06.716Z</time>
      </trkpt>
      <trkpt lat="45.71808" lon="6.69912">
        <ele>2148</ele>
        <time>2026-07-29T10:38:07.716Z</time>
      </trkpt>
      <trkpt lat="45.71809" lon="6.69913">
        <ele>2147</ele>
        <time>2026-07-29T10:38:08.716Z</time>
      </trkpt>
      <trkpt lat="45.7181" lon="6.69915">
        <ele>2147</ele>
        <time>2026-07-29T10:38:09.716Z</time>
      </trkpt>
      <trkpt lat="45.71811" lon="6.69917">
        <ele>2146</ele>
        <time>2026-07-29T10:38:10.716Z</time>
      </trkpt>
      <trkpt lat="45.71811" lon="6.6992">
        <ele>2145</ele>
        <time>2026-07-29T10:38:11.716Z</time>
      </trkpt>
      <trkpt lat="45.71812" lon="6.69923">
        <ele>2144</ele>
        <time>2026-07-29T10:38:12.716Z</time>
      </trkpt>
      <trkpt lat="45.71812" lon="6.69925">
        <ele>2144</ele>
        <time>2026-07-29T10:38:13.716Z</time>
      </trkpt>
      <trkpt lat="45.71812" lon="6.69928">
        <ele>2143</ele>
        <time>2026-07-29T10:38:14.716Z</time>
      </trkpt>
      <trkpt lat="45.71812" lon="6.69929">
        <ele>2142</ele>
        <time>2026-07-29T10:38:15.716Z</time>
      </trkpt>
      <trkpt lat="45.71813" lon="6.69929">
        <ele>2142</ele>
        <time>2026-07-29T10:38:16.716Z</time>
      </trkpt>
      <trkpt lat="45.71815" lon="6.69929">
        <ele>2142</ele>
        <time>2026-07-29T10:38:17.716Z</time>
      </trkpt>
      <trkpt lat="45.71816" lon="6.69927">
        <ele>2142</ele>
        <time>2026-07-29T10:38:18.716Z</time>
      </trkpt>
      <trkpt lat="45.71817" lon="6.69926">
        <ele>2142</ele>
        <time>2026-07-29T10:38:19.716Z</time>
      </trkpt>
      <trkpt lat="45.71819" lon="6.69924">
        <ele>2142</ele>
        <time>2026-07-29T10:38:20.716Z</time>
      </trkpt>
      <trkpt lat="45.71819" lon="6.69921">
        <ele>2141</ele>
        <time>2026-07-29T10:38:21.716Z</time>
      </trkpt>
      <trkpt lat="45.7182" lon="6.69919">
        <ele>2141</ele>
        <time>2026-07-29T10:38:22.716Z</time>
      </trkpt>
      <trkpt lat="45.71821" lon="6.69917">
        <ele>2140</ele>
        <time>2026-07-29T10:38:23.716Z</time>
      </trkpt>
      <trkpt lat="45.71822" lon="6.69914">
        <ele>2140</ele>
        <time>2026-07-29T10:38:24.716Z</time>
      </trkpt>
      <trkpt lat="45.71823" lon="6.69911">
        <ele>2139</ele>
        <time>2026-07-29T10:38:25.716Z</time>
      </trkpt>
      <trkpt lat="45.71824" lon="6.69909">
        <ele>2139</ele>
        <time>2026-07-29T10:38:26.716Z</time>
      </trkpt>
      <trkpt lat="45.71825" lon="6.69907">
        <ele>2138</ele>
        <time>2026-07-29T10:38:27.716Z</time>
      </trkpt>
      <trkpt lat="45.71827" lon="6.69905">
        <ele>2137</ele>
        <time>2026-07-29T10:38:28.716Z</time>
      </trkpt>
      <trkpt lat="45.71828" lon="6.69903">
        <ele>2137</ele>
        <time>2026-07-29T10:38:29.716Z</time>
      </trkpt>
      <trkpt lat="45.7183" lon="6.69902">
        <ele>2136</ele>
        <time>2026-07-29T10:38:30.716Z</time>
      </trkpt>
      <trkpt lat="45.71832" lon="6.699">
        <ele>2136</ele>
        <time>2026-07-29T10:38:31.716Z</time>
      </trkpt>
      <trkpt lat="45.71834" lon="6.69898">
        <ele>2135</ele>
        <time>2026-07-29T10:38:32.716Z</time>
      </trkpt>
      <trkpt lat="45.71835" lon="6.69897">
        <ele>2134</ele>
        <time>2026-07-29T10:38:33.716Z</time>
      </trkpt>
      <trkpt lat="45.71836" lon="6.69896">
        <ele>2134</ele>
        <time>2026-07-29T10:38:34.716Z</time>
      </trkpt>
      <trkpt lat="45.71838" lon="6.69895">
        <ele>2133</ele>
        <time>2026-07-29T10:38:35.716Z</time>
      </trkpt>
      <trkpt lat="45.71839" lon="6.69894">
        <ele>2133</ele>
        <time>2026-07-29T10:38:36.716Z</time>
      </trkpt>
      <trkpt lat="45.7184" lon="6.69893">
        <ele>2133</ele>
        <time>2026-07-29T10:38:37.716Z</time>
      </trkpt>
      <trkpt lat="45.71842" lon="6.69892">
        <ele>2133</ele>
        <time>2026-07-29T10:38:38.716Z</time>
      </trkpt>
      <trkpt lat="45.71844" lon="6.69891">
        <ele>2132</ele>
        <time>2026-07-29T10:38:39.716Z</time>
      </trkpt>
      <trkpt lat="45.71846" lon="6.6989">
        <ele>2132</ele>
        <time>2026-07-29T10:38:40.716Z</time>
      </trkpt>
      <trkpt lat="45.71848" lon="6.69888">
        <ele>2131</ele>
        <time>2026-07-29T10:38:41.716Z</time>
      </trkpt>
      <trkpt lat="45.7185" lon="6.69887">
        <ele>2131</ele>
        <time>2026-07-29T10:38:42.716Z</time>
      </trkpt>
      <trkpt lat="45.71852" lon="6.69885">
        <ele>2131</ele>
        <time>2026-07-29T10:38:43.716Z</time>
      </trkpt>
      <trkpt lat="45.71854" lon="6.69884">
        <ele>2130</ele>
        <time>2026-07-29T10:38:44.716Z</time>
      </trkpt>
      <trkpt lat="45.71855" lon="6.69883">
        <ele>2130</ele>
        <time>2026-07-29T10:38:45.716Z</time>
      </trkpt>
      <trkpt lat="45.71857" lon="6.69881">
        <ele>2129</ele>
        <time>2026-07-29T10:38:46.716Z</time>
      </trkpt>
      <trkpt lat="45.71859" lon="6.6988">
        <ele>2129</ele>
        <time>2026-07-29T10:38:47.716Z</time>
      </trkpt>
      <trkpt lat="45.7186" lon="6.69878">
        <ele>2129</ele>
        <time>2026-07-29T10:38:48.716Z</time>
      </trkpt>
      <trkpt lat="45.71861" lon="6.69876">
        <ele>2128</ele>
        <time>2026-07-29T10:38:49.716Z</time>
      </trkpt>
      <trkpt lat="45.71863" lon="6.69874">
        <ele>2128</ele>
        <time>2026-07-29T10:38:50.716Z</time>
      </trkpt>
      <trkpt lat="45.71864" lon="6.69872">
        <ele>2128</ele>
        <time>2026-07-29T10:38:51.716Z</time>
      </trkpt>
      <trkpt lat="45.71865" lon="6.69869">
        <ele>2127</ele>
        <time>2026-07-29T10:38:52.716Z</time>
      </trkpt>
      <trkpt lat="45.71866" lon="6.69866">
        <ele>2126</ele>
        <time>2026-07-29T10:38:53.716Z</time>
      </trkpt>
      <trkpt lat="45.71866" lon="6.69864">
        <ele>2125</ele>
        <time>2026-07-29T10:38:54.716Z</time>
      </trkpt>
      <trkpt lat="45.71867" lon="6.69861">
        <ele>2124</ele>
        <time>2026-07-29T10:38:55.716Z</time>
      </trkpt>
      <trkpt lat="45.71868" lon="6.69859">
        <ele>2124</ele>
        <time>2026-07-29T10:38:56.716Z</time>
      </trkpt>
      <trkpt lat="45.71869" lon="6.69857">
        <ele>2123</ele>
        <time>2026-07-29T10:38:57.716Z</time>
      </trkpt>
      <trkpt lat="45.71871" lon="6.69855">
        <ele>2123</ele>
        <time>2026-07-29T10:38:58.716Z</time>
      </trkpt>
      <trkpt lat="45.71872" lon="6.69853">
        <ele>2123</ele>
        <time>2026-07-29T10:38:59.716Z</time>
      </trkpt>
      <trkpt lat="45.71873" lon="6.69851">
        <ele>2123</ele>
        <time>2026-07-29T10:39:00.716Z</time>
      </trkpt>
      <trkpt lat="45.71875" lon="6.69849">
        <ele>2123</ele>
        <time>2026-07-29T10:39:01.716Z</time>
      </trkpt>
      <trkpt lat="45.71876" lon="6.69847">
        <ele>2123</ele>
        <time>2026-07-29T10:39:02.716Z</time>
      </trkpt>
      <trkpt lat="45.71877" lon="6.69846">
        <ele>2122</ele>
        <time>2026-07-29T10:39:03.716Z</time>
      </trkpt>
      <trkpt lat="45.71879" lon="6.69846">
        <ele>2122</ele>
        <time>2026-07-29T10:39:04.716Z</time>
      </trkpt>
      <trkpt lat="45.71879" lon="6.69847">
        <ele>2121</ele>
        <time>2026-07-29T10:39:05.716Z</time>
      </trkpt>
      <trkpt lat="45.7188" lon="6.6985">
        <ele>2121</ele>
        <time>2026-07-29T10:39:06.716Z</time>
      </trkpt>
      <trkpt lat="45.7188" lon="6.69853">
        <ele>2121</ele>
        <time>2026-07-29T10:39:07.716Z</time>
      </trkpt>
      <trkpt lat="45.7188" lon="6.69856">
        <ele>2120</ele>
        <time>2026-07-29T10:39:08.716Z</time>
      </trkpt>
      <trkpt lat="45.7188" lon="6.6986">
        <ele>2119</ele>
        <time>2026-07-29T10:39:09.716Z</time>
      </trkpt>
      <trkpt lat="45.71879" lon="6.69863">
        <ele>2119</ele>
        <time>2026-07-29T10:39:10.716Z</time>
      </trkpt>
      <trkpt lat="45.71879" lon="6.69866">
        <ele>2118</ele>
        <time>2026-07-29T10:39:11.716Z</time>
      </trkpt>
      <trkpt lat="45.71879" lon="6.6987">
        <ele>2118</ele>
        <time>2026-07-29T10:39:12.716Z</time>
      </trkpt>
      <trkpt lat="45.71878" lon="6.69872">
        <ele>2117</ele>
        <time>2026-07-29T10:39:13.716Z</time>
      </trkpt>
      <trkpt lat="45.71878" lon="6.69875">
        <ele>2116</ele>
        <time>2026-07-29T10:39:14.716Z</time>
      </trkpt>
      <trkpt lat="45.71877" lon="6.69878">
        <ele>2115</ele>
        <time>2026-07-29T10:39:15.716Z</time>
      </trkpt>
      <trkpt lat="45.71877" lon="6.69882">
        <ele>2114</ele>
        <time>2026-07-29T10:39:16.716Z</time>
      </trkpt>
      <trkpt lat="45.71877" lon="6.69885">
        <ele>2114</ele>
        <time>2026-07-29T10:39:17.716Z</time>
      </trkpt>
      <trkpt lat="45.71877" lon="6.69888">
        <ele>2113</ele>
        <time>2026-07-29T10:39:18.716Z</time>
      </trkpt>
      <trkpt lat="45.71877" lon="6.69891">
        <ele>2113</ele>
        <time>2026-07-29T10:39:19.716Z</time>
      </trkpt>
      <trkpt lat="45.71877" lon="6.69895">
        <ele>2112</ele>
        <time>2026-07-29T10:39:20.716Z</time>
      </trkpt>
      <trkpt lat="45.71877" lon="6.69898">
        <ele>2112</ele>
        <time>2026-07-29T10:39:21.716Z</time>
      </trkpt>
      <trkpt lat="45.71876" lon="6.699">
        <ele>2111</ele>
        <time>2026-07-29T10:39:22.716Z</time>
      </trkpt>
      <trkpt lat="45.71876" lon="6.69901">
        <ele>2111</ele>
        <time>2026-07-29T10:39:23.716Z</time>
      </trkpt>
      <trkpt lat="45.71877" lon="6.69902">
        <ele>2111</ele>
        <time>2026-07-29T10:39:24.716Z</time>
      </trkpt>
      <trkpt lat="45.71878" lon="6.699">
        <ele>2110</ele>
        <time>2026-07-29T10:39:25.716Z</time>
      </trkpt>
      <trkpt lat="45.71879" lon="6.69898">
        <ele>2110</ele>
        <time>2026-07-29T10:39:26.716Z</time>
      </trkpt>
      <trkpt lat="45.7188" lon="6.69896">
        <ele>2109</ele>
        <time>2026-07-29T10:39:27.716Z</time>
      </trkpt>
      <trkpt lat="45.71882" lon="6.69895">
        <ele>2109</ele>
        <time>2026-07-29T10:39:28.716Z</time>
      </trkpt>
      <trkpt lat="45.71883" lon="6.69893">
        <ele>2108</ele>
        <time>2026-07-29T10:39:29.716Z</time>
      </trkpt>
      <trkpt lat="45.71885" lon="6.69892">
        <ele>2107</ele>
        <time>2026-07-29T10:39:30.716Z</time>
      </trkpt>
      <trkpt lat="45.71887" lon="6.6989">
        <ele>2107</ele>
        <time>2026-07-29T10:39:31.716Z</time>
      </trkpt>
      <trkpt lat="45.71888" lon="6.69889">
        <ele>2106</ele>
        <time>2026-07-29T10:39:32.716Z</time>
      </trkpt>
      <trkpt lat="45.7189" lon="6.69887">
        <ele>2106</ele>
        <time>2026-07-29T10:39:33.716Z</time>
      </trkpt>
      <trkpt lat="45.71892" lon="6.69885">
        <ele>2105</ele>
        <time>2026-07-29T10:39:34.716Z</time>
      </trkpt>
      <trkpt lat="45.71893" lon="6.69883">
        <ele>2105</ele>
        <time>2026-07-29T10:39:35.716Z</time>
      </trkpt>
      <trkpt lat="45.71895" lon="6.69883">
        <ele>2104</ele>
        <time>2026-07-29T10:39:36.716Z</time>
      </trkpt>
      <trkpt lat="45.71897" lon="6.69883">
        <ele>2104</ele>
        <time>2026-07-29T10:39:37.716Z</time>
      </trkpt>
      <trkpt lat="45.71898" lon="6.69885">
        <ele>2103</ele>
        <time>2026-07-29T10:39:38.716Z</time>
      </trkpt>
      <trkpt lat="45.71898" lon="6.69887">
        <ele>2103</ele>
        <time>2026-07-29T10:39:39.716Z</time>
      </trkpt>
      <trkpt lat="45.71898" lon="6.6989">
        <ele>2103</ele>
        <time>2026-07-29T10:39:40.716Z</time>
      </trkpt>
      <trkpt lat="45.71898" lon="6.69893">
        <ele>2102</ele>
        <time>2026-07-29T10:39:41.716Z</time>
      </trkpt>
      <trkpt lat="45.71898" lon="6.69895">
        <ele>2102</ele>
        <time>2026-07-29T10:39:42.716Z</time>
      </trkpt>
      <trkpt lat="45.71898" lon="6.69898">
        <ele>2101</ele>
        <time>2026-07-29T10:39:43.716Z</time>
      </trkpt>
      <trkpt lat="45.71898" lon="6.699">
        <ele>2100</ele>
        <time>2026-07-29T10:39:44.716Z</time>
      </trkpt>
      <trkpt lat="45.71898" lon="6.69902">
        <ele>2099</ele>
        <time>2026-07-29T10:39:45.716Z</time>
      </trkpt>
      <trkpt lat="45.71899" lon="6.69904">
        <ele>2099</ele>
        <time>2026-07-29T10:39:46.716Z</time>
      </trkpt>
      <trkpt lat="45.71899" lon="6.69907">
        <ele>2098</ele>
        <time>2026-07-29T10:39:47.716Z</time>
      </trkpt>
      <trkpt lat="45.71898" lon="6.69909">
        <ele>2097</ele>
        <time>2026-07-29T10:39:48.716Z</time>
      </trkpt>
      <trkpt lat="45.71898" lon="6.69911">
        <ele>2097</ele>
        <time>2026-07-29T10:39:49.716Z</time>
      </trkpt>
      <trkpt lat="45.71898" lon="6.69913">
        <ele>2096</ele>
        <time>2026-07-29T10:39:50.716Z</time>
      </trkpt>
      <trkpt lat="45.71898" lon="6.69915">
        <ele>2096</ele>
        <time>2026-07-29T10:39:51.716Z</time>
      </trkpt>
      <trkpt lat="45.71898" lon="6.69917">
        <ele>2095</ele>
        <time>2026-07-29T10:39:52.716Z</time>
      </trkpt>
      <trkpt lat="45.71898" lon="6.69919">
        <ele>2095</ele>
        <time>2026-07-29T10:39:53.716Z</time>
      </trkpt>
      <trkpt lat="45.71898" lon="6.69921">
        <ele>2094</ele>
        <time>2026-07-29T10:39:54.716Z</time>
      </trkpt>
      <trkpt lat="45.71898" lon="6.69923">
        <ele>2094</ele>
        <time>2026-07-29T10:39:55.716Z</time>
      </trkpt>
      <trkpt lat="45.71897" lon="6.69925">
        <ele>2093</ele>
        <time>2026-07-29T10:39:56.716Z</time>
      </trkpt>
      <trkpt lat="45.71897" lon="6.69926">
        <ele>2093</ele>
        <time>2026-07-29T10:39:57.716Z</time>
      </trkpt>
      <trkpt lat="45.71897" lon="6.69928">
        <ele>2092</ele>
        <time>2026-07-29T10:39:58.716Z</time>
      </trkpt>
      <trkpt lat="45.71897" lon="6.69928">
        <ele>2092</ele>
        <time>2026-07-29T10:39:59.716Z</time>
      </trkpt>
      <trkpt lat="45.71897" lon="6.69928">
        <ele>2091</ele>
        <time>2026-07-29T10:40:00.716Z</time>
      </trkpt>
      <trkpt lat="45.71899" lon="6.69927">
        <ele>2091</ele>
        <time>2026-07-29T10:40:01.716Z</time>
      </trkpt>
      <trkpt lat="45.71901" lon="6.69926">
        <ele>2091</ele>
        <time>2026-07-29T10:40:02.716Z</time>
      </trkpt>
      <trkpt lat="45.71902" lon="6.69924">
        <ele>2090</ele>
        <time>2026-07-29T10:40:03.716Z</time>
      </trkpt>
      <trkpt lat="45.71904" lon="6.69923">
        <ele>2090</ele>
        <time>2026-07-29T10:40:04.716Z</time>
      </trkpt>
      <trkpt lat="45.71906" lon="6.69922">
        <ele>2089</ele>
        <time>2026-07-29T10:40:05.716Z</time>
      </trkpt>
      <trkpt lat="45.71907" lon="6.69922">
        <ele>2089</ele>
        <time>2026-07-29T10:40:06.716Z</time>
      </trkpt>
      <trkpt lat="45.71908" lon="6.69923">
        <ele>2089</ele>
        <time>2026-07-29T10:40:07.716Z</time>
      </trkpt>
      <trkpt lat="45.71909" lon="6.69925">
        <ele>2088</ele>
        <time>2026-07-29T10:40:08.716Z</time>
      </trkpt>
      <trkpt lat="45.71908" lon="6.69928">
        <ele>2088</ele>
        <time>2026-07-29T10:40:09.716Z</time>
      </trkpt>
      <trkpt lat="45.71908" lon="6.69931">
        <ele>2087</ele>
        <time>2026-07-29T10:40:10.716Z</time>
      </trkpt>
      <trkpt lat="45.71907" lon="6.69934">
        <ele>2087</ele>
        <time>2026-07-29T10:40:11.716Z</time>
      </trkpt>
      <trkpt lat="45.71907" lon="6.69937">
        <ele>2086</ele>
        <time>2026-07-29T10:40:12.716Z</time>
      </trkpt>
      <trkpt lat="45.71906" lon="6.6994">
        <ele>2085</ele>
        <time>2026-07-29T10:40:13.716Z</time>
      </trkpt>
      <trkpt lat="45.71905" lon="6.69943">
        <ele>2085</ele>
        <time>2026-07-29T10:40:14.716Z</time>
      </trkpt>
      <trkpt lat="45.71905" lon="6.69946">
        <ele>2084</ele>
        <time>2026-07-29T10:40:15.716Z</time>
      </trkpt>
      <trkpt lat="45.71905" lon="6.69948">
        <ele>2084</ele>
        <time>2026-07-29T10:40:16.716Z</time>
      </trkpt>
      <trkpt lat="45.71906" lon="6.69948">
        <ele>2084</ele>
        <time>2026-07-29T10:40:17.716Z</time>
      </trkpt>
      <trkpt lat="45.71907" lon="6.69947">
        <ele>2084</ele>
        <time>2026-07-29T10:40:18.716Z</time>
      </trkpt>
      <trkpt lat="45.71908" lon="6.69945">
        <ele>2084</ele>
        <time>2026-07-29T10:40:19.716Z</time>
      </trkpt>
      <trkpt lat="45.7191" lon="6.69944">
        <ele>2084</ele>
        <time>2026-07-29T10:40:20.716Z</time>
      </trkpt>
      <trkpt lat="45.71911" lon="6.69945">
        <ele>2084</ele>
        <time>2026-07-29T10:40:21.716Z</time>
      </trkpt>
      <trkpt lat="45.71911" lon="6.69947">
        <ele>2083</ele>
        <time>2026-07-29T10:40:22.716Z</time>
      </trkpt>
      <trkpt lat="45.71911" lon="6.69949">
        <ele>2083</ele>
        <time>2026-07-29T10:40:23.716Z</time>
      </trkpt>
      <trkpt lat="45.71911" lon="6.69952">
        <ele>2082</ele>
        <time>2026-07-29T10:40:24.716Z</time>
      </trkpt>
      <trkpt lat="45.7191" lon="6.69954">
        <ele>2082</ele>
        <time>2026-07-29T10:40:25.716Z</time>
      </trkpt>
      <trkpt lat="45.7191" lon="6.69957">
        <ele>2081</ele>
        <time>2026-07-29T10:40:26.716Z</time>
      </trkpt>
      <trkpt lat="45.71909" lon="6.69959">
        <ele>2080</ele>
        <time>2026-07-29T10:40:27.716Z</time>
      </trkpt>
      <trkpt lat="45.71908" lon="6.69961">
        <ele>2080</ele>
        <time>2026-07-29T10:40:28.716Z</time>
      </trkpt>
      <trkpt lat="45.71907" lon="6.69963">
        <ele>2079</ele>
        <time>2026-07-29T10:40:29.716Z</time>
      </trkpt>
      <trkpt lat="45.71907" lon="6.69965">
        <ele>2078</ele>
        <time>2026-07-29T10:40:30.716Z</time>
      </trkpt>
      <trkpt lat="45.71906" lon="6.69967">
        <ele>2078</ele>
        <time>2026-07-29T10:40:31.716Z</time>
      </trkpt>
      <trkpt lat="45.71906" lon="6.69969">
        <ele>2077</ele>
        <time>2026-07-29T10:40:32.716Z</time>
      </trkpt>
      <trkpt lat="45.71907" lon="6.69971">
        <ele>2076</ele>
        <time>2026-07-29T10:40:33.716Z</time>
      </trkpt>
      <trkpt lat="45.71907" lon="6.69973">
        <ele>2075</ele>
        <time>2026-07-29T10:40:34.716Z</time>
      </trkpt>
      <trkpt lat="45.71908" lon="6.69975">
        <ele>2074</ele>
        <time>2026-07-29T10:40:35.716Z</time>
      </trkpt>
      <trkpt lat="45.71909" lon="6.69977">
        <ele>2074</ele>
        <time>2026-07-29T10:40:36.716Z</time>
      </trkpt>
      <trkpt lat="45.71909" lon="6.69979">
        <ele>2073</ele>
        <time>2026-07-29T10:40:37.716Z</time>
      </trkpt>
      <trkpt lat="45.7191" lon="6.69982">
        <ele>2073</ele>
        <time>2026-07-29T10:40:38.716Z</time>
      </trkpt>
      <trkpt lat="45.7191" lon="6.69984">
        <ele>2072</ele>
        <time>2026-07-29T10:40:39.716Z</time>
      </trkpt>
      <trkpt lat="45.7191" lon="6.69986">
        <ele>2072</ele>
        <time>2026-07-29T10:40:40.716Z</time>
      </trkpt>
      <trkpt lat="45.71911" lon="6.69987">
        <ele>2071</ele>
        <time>2026-07-29T10:40:41.716Z</time>
      </trkpt>
      <trkpt lat="45.71912" lon="6.69987">
        <ele>2070</ele>
        <time>2026-07-29T10:40:42.716Z</time>
      </trkpt>
      <trkpt lat="45.71914" lon="6.69987">
        <ele>2070</ele>
        <time>2026-07-29T10:40:43.716Z</time>
      </trkpt>
      <trkpt lat="45.71915" lon="6.69987">
        <ele>2069</ele>
        <time>2026-07-29T10:40:44.716Z</time>
      </trkpt>
      <trkpt lat="45.71916" lon="6.69988">
        <ele>2069</ele>
        <time>2026-07-29T10:40:45.716Z</time>
      </trkpt>
      <trkpt lat="45.71916" lon="6.6999">
        <ele>2068</ele>
        <time>2026-07-29T10:40:46.716Z</time>
      </trkpt>
      <trkpt lat="45.71916" lon="6.69992">
        <ele>2068</ele>
        <time>2026-07-29T10:40:47.716Z</time>
      </trkpt>
      <trkpt lat="45.71915" lon="6.69994">
        <ele>2067</ele>
        <time>2026-07-29T10:40:48.716Z</time>
      </trkpt>
      <trkpt lat="45.71915" lon="6.69997">
        <ele>2066</ele>
        <time>2026-07-29T10:40:49.716Z</time>
      </trkpt>
      <trkpt lat="45.71915" lon="6.69999">
        <ele>2065</ele>
        <time>2026-07-29T10:40:50.716Z</time>
      </trkpt>
      <trkpt lat="45.71914" lon="6.70002">
        <ele>2065</ele>
        <time>2026-07-29T10:40:51.716Z</time>
      </trkpt>
      <trkpt lat="45.71914" lon="6.70005">
        <ele>2064</ele>
        <time>2026-07-29T10:40:52.716Z</time>
      </trkpt>
      <trkpt lat="45.71913" lon="6.70008">
        <ele>2064</ele>
        <time>2026-07-29T10:40:53.716Z</time>
      </trkpt>
      <trkpt lat="45.71913" lon="6.70011">
        <ele>2063</ele>
        <time>2026-07-29T10:40:54.716Z</time>
      </trkpt>
      <trkpt lat="45.71912" lon="6.70014">
        <ele>2063</ele>
        <time>2026-07-29T10:40:55.716Z</time>
      </trkpt>
      <trkpt lat="45.71912" lon="6.70016">
        <ele>2062</ele>
        <time>2026-07-29T10:40:56.716Z</time>
      </trkpt>
      <trkpt lat="45.71911" lon="6.70018">
        <ele>2062</ele>
        <time>2026-07-29T10:40:57.716Z</time>
      </trkpt>
      <trkpt lat="45.71911" lon="6.7002">
        <ele>2062</ele>
        <time>2026-07-29T10:40:58.716Z</time>
      </trkpt>
      <trkpt lat="45.71912" lon="6.70022">
        <ele>2062</ele>
        <time>2026-07-29T10:40:59.716Z</time>
      </trkpt>
      <trkpt lat="45.71913" lon="6.70023">
        <ele>2062</ele>
        <time>2026-07-29T10:41:00.716Z</time>
      </trkpt>
      <trkpt lat="45.71913" lon="6.70024">
        <ele>2061</ele>
        <time>2026-07-29T10:41:01.716Z</time>
      </trkpt>
      <trkpt lat="45.71913" lon="6.70026">
        <ele>2061</ele>
        <time>2026-07-29T10:41:02.716Z</time>
      </trkpt>
      <trkpt lat="45.71913" lon="6.70028">
        <ele>2060</ele>
        <time>2026-07-29T10:41:03.716Z</time>
      </trkpt>
      <trkpt lat="45.71914" lon="6.7003">
        <ele>2060</ele>
        <time>2026-07-29T10:41:04.716Z</time>
      </trkpt>
      <trkpt lat="45.71914" lon="6.70033">
        <ele>2059</ele>
        <time>2026-07-29T10:41:05.716Z</time>
      </trkpt>
      <trkpt lat="45.71915" lon="6.70036">
        <ele>2059</ele>
        <time>2026-07-29T10:41:06.716Z</time>
      </trkpt>
      <trkpt lat="45.71916" lon="6.70039">
        <ele>2058</ele>
        <time>2026-07-29T10:41:07.716Z</time>
      </trkpt>
      <trkpt lat="45.71916" lon="6.70042">
        <ele>2058</ele>
        <time>2026-07-29T10:41:08.716Z</time>
      </trkpt>
      <trkpt lat="45.71918" lon="6.70045">
        <ele>2057</ele>
        <time>2026-07-29T10:41:09.716Z</time>
      </trkpt>
      <trkpt lat="45.71919" lon="6.70048">
        <ele>2056</ele>
        <time>2026-07-29T10:41:10.716Z</time>
      </trkpt>
      <trkpt lat="45.7192" lon="6.70051">
        <ele>2056</ele>
        <time>2026-07-29T10:41:11.716Z</time>
      </trkpt>
      <trkpt lat="45.71921" lon="6.70054">
        <ele>2055</ele>
        <time>2026-07-29T10:41:12.716Z</time>
      </trkpt>
      <trkpt lat="45.71922" lon="6.70057">
        <ele>2054</ele>
        <time>2026-07-29T10:41:13.716Z</time>
      </trkpt>
      <trkpt lat="45.71923" lon="6.7006">
        <ele>2054</ele>
        <time>2026-07-29T10:41:14.716Z</time>
      </trkpt>
      <trkpt lat="45.71925" lon="6.70063">
        <ele>2054</ele>
        <time>2026-07-29T10:41:15.716Z</time>
      </trkpt>
      <trkpt lat="45.71926" lon="6.70066">
        <ele>2053</ele>
        <time>2026-07-29T10:41:16.716Z</time>
      </trkpt>
      <trkpt lat="45.71928" lon="6.70068">
        <ele>2053</ele>
        <time>2026-07-29T10:41:17.716Z</time>
      </trkpt>
      <trkpt lat="45.71929" lon="6.70071">
        <ele>2053</ele>
        <time>2026-07-29T10:41:18.716Z</time>
      </trkpt>
      <trkpt lat="45.7193" lon="6.70074">
        <ele>2052</ele>
        <time>2026-07-29T10:41:19.716Z</time>
      </trkpt>
      <trkpt lat="45.7193" lon="6.70077">
        <ele>2052</ele>
        <time>2026-07-29T10:41:20.716Z</time>
      </trkpt>
      <trkpt lat="45.71931" lon="6.70081">
        <ele>2052</ele>
        <time>2026-07-29T10:41:21.716Z</time>
      </trkpt>
      <trkpt lat="45.71932" lon="6.70084">
        <ele>2052</ele>
        <time>2026-07-29T10:41:22.716Z</time>
      </trkpt>
      <trkpt lat="45.71932" lon="6.70087">
        <ele>2051</ele>
        <time>2026-07-29T10:41:23.716Z</time>
      </trkpt>
      <trkpt lat="45.71933" lon="6.7009">
        <ele>2051</ele>
        <time>2026-07-29T10:41:24.716Z</time>
      </trkpt>
      <trkpt lat="45.71934" lon="6.70093">
        <ele>2050</ele>
        <time>2026-07-29T10:41:25.716Z</time>
      </trkpt>
      <trkpt lat="45.71934" lon="6.70095">
        <ele>2050</ele>
        <time>2026-07-29T10:41:26.716Z</time>
      </trkpt>
      <trkpt lat="45.71934" lon="6.70098">
        <ele>2050</ele>
        <time>2026-07-29T10:41:27.716Z</time>
      </trkpt>
      <trkpt lat="45.71934" lon="6.70101">
        <ele>2049</ele>
        <time>2026-07-29T10:41:28.716Z</time>
      </trkpt>
      <trkpt lat="45.71935" lon="6.70103">
        <ele>2049</ele>
        <time>2026-07-29T10:41:29.716Z</time>
      </trkpt>
      <trkpt lat="45.71935" lon="6.70106">
        <ele>2048</ele>
        <time>2026-07-29T10:41:30.716Z</time>
      </trkpt>
      <trkpt lat="45.71936" lon="6.70109">
        <ele>2048</ele>
        <time>2026-07-29T10:41:31.716Z</time>
      </trkpt>
      <trkpt lat="45.71937" lon="6.70111">
        <ele>2048</ele>
        <time>2026-07-29T10:41:32.716Z</time>
      </trkpt>
      <trkpt lat="45.71938" lon="6.70114">
        <ele>2047</ele>
        <time>2026-07-29T10:41:33.716Z</time>
      </trkpt>
      <trkpt lat="45.71938" lon="6.70118">
        <ele>2047</ele>
        <time>2026-07-29T10:41:34.716Z</time>
      </trkpt>
      <trkpt lat="45.71939" lon="6.70121">
        <ele>2046</ele>
        <time>2026-07-29T10:41:35.716Z</time>
      </trkpt>
      <trkpt lat="45.71939" lon="6.70124">
        <ele>2045</ele>
        <time>2026-07-29T10:41:36.716Z</time>
      </trkpt>
      <trkpt lat="45.7194" lon="6.70127">
        <ele>2044</ele>
        <time>2026-07-29T10:41:37.716Z</time>
      </trkpt>
      <trkpt lat="45.7194" lon="6.70129">
        <ele>2044</ele>
        <time>2026-07-29T10:41:38.716Z</time>
      </trkpt>
      <trkpt lat="45.71941" lon="6.70132">
        <ele>2043</ele>
        <time>2026-07-29T10:41:39.716Z</time>
      </trkpt>
      <trkpt lat="45.71942" lon="6.70134">
        <ele>2043</ele>
        <time>2026-07-29T10:41:40.716Z</time>
      </trkpt>
      <trkpt lat="45.71943" lon="6.70136">
        <ele>2042</ele>
        <time>2026-07-29T10:41:41.716Z</time>
      </trkpt>
      <trkpt lat="45.71944" lon="6.70139">
        <ele>2042</ele>
        <time>2026-07-29T10:41:42.716Z</time>
      </trkpt>
      <trkpt lat="45.71945" lon="6.70141">
        <ele>2041</ele>
        <time>2026-07-29T10:41:43.716Z</time>
      </trkpt>
      <trkpt lat="45.71947" lon="6.70144">
        <ele>2040</ele>
        <time>2026-07-29T10:41:44.716Z</time>
      </trkpt>
      <trkpt lat="45.71948" lon="6.70146">
        <ele>2040</ele>
        <time>2026-07-29T10:41:45.716Z</time>
      </trkpt>
      <trkpt lat="45.7195" lon="6.70148">
        <ele>2039</ele>
        <time>2026-07-29T10:41:46.716Z</time>
      </trkpt>
      <trkpt lat="45.71952" lon="6.70149">
        <ele>2039</ele>
        <time>2026-07-29T10:41:47.716Z</time>
      </trkpt>
      <trkpt lat="45.71953" lon="6.7015">
        <ele>2038</ele>
        <time>2026-07-29T10:41:48.716Z</time>
      </trkpt>
      <trkpt lat="45.71955" lon="6.70151">
        <ele>2037</ele>
        <time>2026-07-29T10:41:49.716Z</time>
      </trkpt>
      <trkpt lat="45.71957" lon="6.70151">
        <ele>2037</ele>
        <time>2026-07-29T10:41:50.716Z</time>
      </trkpt>
      <trkpt lat="45.7196" lon="6.70151">
        <ele>2037</ele>
        <time>2026-07-29T10:41:51.716Z</time>
      </trkpt>
      <trkpt lat="45.71961" lon="6.70153">
        <ele>2037</ele>
        <time>2026-07-29T10:41:52.716Z</time>
      </trkpt>
      <trkpt lat="45.71963" lon="6.70155">
        <ele>2037</ele>
        <time>2026-07-29T10:41:53.716Z</time>
      </trkpt>
      <trkpt lat="45.71963" lon="6.70157">
        <ele>2037</ele>
        <time>2026-07-29T10:41:54.716Z</time>
      </trkpt>
      <trkpt lat="45.71963" lon="6.70159">
        <ele>2037</ele>
        <time>2026-07-29T10:41:55.716Z</time>
      </trkpt>
      <trkpt lat="45.71963" lon="6.70161">
        <ele>2036</ele>
        <time>2026-07-29T10:41:56.716Z</time>
      </trkpt>
      <trkpt lat="45.71963" lon="6.70163">
        <ele>2036</ele>
        <time>2026-07-29T10:41:57.716Z</time>
      </trkpt>
      <trkpt lat="45.71964" lon="6.70165">
        <ele>2036</ele>
        <time>2026-07-29T10:41:58.716Z</time>
      </trkpt>
      <trkpt lat="45.71964" lon="6.70168">
        <ele>2035</ele>
        <time>2026-07-29T10:41:59.716Z</time>
      </trkpt>
      <trkpt lat="45.71964" lon="6.7017">
        <ele>2035</ele>
        <time>2026-07-29T10:42:00.716Z</time>
      </trkpt>
      <trkpt lat="45.71965" lon="6.70172">
        <ele>2035</ele>
        <time>2026-07-29T10:42:01.716Z</time>
      </trkpt>
      <trkpt lat="45.71966" lon="6.70174">
        <ele>2034</ele>
        <time>2026-07-29T10:42:02.717Z</time>
      </trkpt>
      <trkpt lat="45.71967" lon="6.70176">
        <ele>2034</ele>
        <time>2026-07-29T10:42:03.716Z</time>
      </trkpt>
      <trkpt lat="45.71969" lon="6.70177">
        <ele>2033</ele>
        <time>2026-07-29T10:42:04.716Z</time>
      </trkpt>
      <trkpt lat="45.7197" lon="6.70179">
        <ele>2032</ele>
        <time>2026-07-29T10:42:05.716Z</time>
      </trkpt>
      <trkpt lat="45.7197" lon="6.7018">
        <ele>2032</ele>
        <time>2026-07-29T10:42:06.716Z</time>
      </trkpt>
      <trkpt lat="45.71969" lon="6.70182">
        <ele>2031</ele>
        <time>2026-07-29T10:42:07.716Z</time>
      </trkpt>
      <trkpt lat="45.71969" lon="6.70185">
        <ele>2031</ele>
        <time>2026-07-29T10:42:08.716Z</time>
      </trkpt>
      <trkpt lat="45.71968" lon="6.70186">
        <ele>2030</ele>
        <time>2026-07-29T10:42:09.716Z</time>
      </trkpt>
      <trkpt lat="45.71968" lon="6.70188">
        <ele>2030</ele>
        <time>2026-07-29T10:42:10.716Z</time>
      </trkpt>
      <trkpt lat="45.71969" lon="6.70189">
        <ele>2030</ele>
        <time>2026-07-29T10:42:11.716Z</time>
      </trkpt>
      <trkpt lat="45.71969" lon="6.70189">
        <ele>2029</ele>
        <time>2026-07-29T10:42:12.716Z</time>
      </trkpt>
      <trkpt lat="45.7197" lon="6.70191">
        <ele>2029</ele>
        <time>2026-07-29T10:42:13.716Z</time>
      </trkpt>
      <trkpt lat="45.71972" lon="6.70192">
        <ele>2028</ele>
        <time>2026-07-29T10:42:14.716Z</time>
      </trkpt>
      <trkpt lat="45.71973" lon="6.70194">
        <ele>2028</ele>
        <time>2026-07-29T10:42:15.716Z</time>
      </trkpt>
      <trkpt lat="45.71974" lon="6.70196">
        <ele>2027</ele>
        <time>2026-07-29T10:42:16.716Z</time>
      </trkpt>
      <trkpt lat="45.71976" lon="6.70198">
        <ele>2027</ele>
        <time>2026-07-29T10:42:17.716Z</time>
      </trkpt>
      <trkpt lat="45.71977" lon="6.702">
        <ele>2027</ele>
        <time>2026-07-29T10:42:18.716Z</time>
      </trkpt>
      <trkpt lat="45.71978" lon="6.70202">
        <ele>2027</ele>
        <time>2026-07-29T10:42:19.716Z</time>
      </trkpt>
      <trkpt lat="45.71978" lon="6.70204">
        <ele>2026</ele>
        <time>2026-07-29T10:42:20.716Z</time>
      </trkpt>
      <trkpt lat="45.71979" lon="6.70206">
        <ele>2026</ele>
        <time>2026-07-29T10:42:21.716Z</time>
      </trkpt>
      <trkpt lat="45.7198" lon="6.70208">
        <ele>2025</ele>
        <time>2026-07-29T10:42:22.716Z</time>
      </trkpt>
      <trkpt lat="45.7198" lon="6.7021">
        <ele>2025</ele>
        <time>2026-07-29T10:42:23.716Z</time>
      </trkpt>
      <trkpt lat="45.71981" lon="6.70212">
        <ele>2025</ele>
        <time>2026-07-29T10:42:24.716Z</time>
      </trkpt>
      <trkpt lat="45.71982" lon="6.70213">
        <ele>2024</ele>
        <time>2026-07-29T10:42:25.716Z</time>
      </trkpt>
      <trkpt lat="45.71983" lon="6.70214">
        <ele>2024</ele>
        <time>2026-07-29T10:42:26.716Z</time>
      </trkpt>
      <trkpt lat="45.71985" lon="6.70215">
        <ele>2024</ele>
        <time>2026-07-29T10:42:27.716Z</time>
      </trkpt>
      <trkpt lat="45.71986" lon="6.70216">
        <ele>2023</ele>
        <time>2026-07-29T10:42:28.716Z</time>
      </trkpt>
      <trkpt lat="45.71988" lon="6.70218">
        <ele>2023</ele>
        <time>2026-07-29T10:42:29.716Z</time>
      </trkpt>
      <trkpt lat="45.7199" lon="6.70219">
        <ele>2022</ele>
        <time>2026-07-29T10:42:30.716Z</time>
      </trkpt>
      <trkpt lat="45.71991" lon="6.70221">
        <ele>2022</ele>
        <time>2026-07-29T10:42:31.716Z</time>
      </trkpt>
      <trkpt lat="45.71992" lon="6.70223">
        <ele>2022</ele>
        <time>2026-07-29T10:42:32.716Z</time>
      </trkpt>
      <trkpt lat="45.71993" lon="6.70225">
        <ele>2022</ele>
        <time>2026-07-29T10:42:33.716Z</time>
      </trkpt>
      <trkpt lat="45.71994" lon="6.70227">
        <ele>2022</ele>
        <time>2026-07-29T10:42:34.716Z</time>
      </trkpt>
      <trkpt lat="45.71996" lon="6.70228">
        <ele>2022</ele>
        <time>2026-07-29T10:42:35.716Z</time>
      </trkpt>
      <trkpt lat="45.71997" lon="6.70229">
        <ele>2022</ele>
        <time>2026-07-29T10:42:36.716Z</time>
      </trkpt>
      <trkpt lat="45.71998" lon="6.7023">
        <ele>2022</ele>
        <time>2026-07-29T10:42:37.716Z</time>
      </trkpt>
      <trkpt lat="45.72" lon="6.7023">
        <ele>2022</ele>
        <time>2026-07-29T10:42:38.716Z</time>
      </trkpt>
      <trkpt lat="45.72001" lon="6.70231">
        <ele>2022</ele>
        <time>2026-07-29T10:42:39.716Z</time>
      </trkpt>
      <trkpt lat="45.72002" lon="6.70231">
        <ele>2022</ele>
        <time>2026-07-29T10:42:40.716Z</time>
      </trkpt>
      <trkpt lat="45.72004" lon="6.70231">
        <ele>2022</ele>
        <time>2026-07-29T10:42:41.716Z</time>
      </trkpt>
      <trkpt lat="45.72005" lon="6.70231">
        <ele>2022</ele>
        <time>2026-07-29T10:42:42.716Z</time>
      </trkpt>
      <trkpt lat="45.72006" lon="6.7023">
        <ele>2022</ele>
        <time>2026-07-29T10:42:43.716Z</time>
      </trkpt>
      <trkpt lat="45.72008" lon="6.7023">
        <ele>2022</ele>
        <time>2026-07-29T10:42:44.716Z</time>
      </trkpt>
      <trkpt lat="45.7201" lon="6.70229">
        <ele>2022</ele>
        <time>2026-07-29T10:42:45.716Z</time>
      </trkpt>
      <trkpt lat="45.72012" lon="6.70228">
        <ele>2022</ele>
        <time>2026-07-29T10:42:46.716Z</time>
      </trkpt>
      <trkpt lat="45.72013" lon="6.70226">
        <ele>2022</ele>
        <time>2026-07-29T10:42:47.716Z</time>
      </trkpt>
      <trkpt lat="45.72015" lon="6.70225">
        <ele>2021</ele>
        <time>2026-07-29T10:42:48.716Z</time>
      </trkpt>
      <trkpt lat="45.72017" lon="6.70224">
        <ele>2021</ele>
        <time>2026-07-29T10:42:49.716Z</time>
      </trkpt>
      <trkpt lat="45.7202" lon="6.70222">
        <ele>2021</ele>
        <time>2026-07-29T10:42:50.716Z</time>
      </trkpt>
      <trkpt lat="45.72022" lon="6.70221">
        <ele>2021</ele>
        <time>2026-07-29T10:42:51.716Z</time>
      </trkpt>
      <trkpt lat="45.72024" lon="6.7022">
        <ele>2021</ele>
        <time>2026-07-29T10:42:52.716Z</time>
      </trkpt>
      <trkpt lat="45.72027" lon="6.70219">
        <ele>2021</ele>
        <time>2026-07-29T10:42:53.716Z</time>
      </trkpt>
      <trkpt lat="45.72029" lon="6.70217">
        <ele>2021</ele>
        <time>2026-07-29T10:42:54.716Z</time>
      </trkpt>
      <trkpt lat="45.72031" lon="6.70216">
        <ele>2021</ele>
        <time>2026-07-29T10:42:55.716Z</time>
      </trkpt>
      <trkpt lat="45.72033" lon="6.70215">
        <ele>2021</ele>
        <time>2026-07-29T10:42:56.716Z</time>
      </trkpt>
      <trkpt lat="45.72035" lon="6.70214">
        <ele>2021</ele>
        <time>2026-07-29T10:42:57.716Z</time>
      </trkpt>
      <trkpt lat="45.72037" lon="6.70213">
        <ele>2021</ele>
        <time>2026-07-29T10:42:58.716Z</time>
      </trkpt>
      <trkpt lat="45.72039" lon="6.70212">
        <ele>2021</ele>
        <time>2026-07-29T10:42:59.716Z</time>
      </trkpt>
      <trkpt lat="45.72042" lon="6.70212">
        <ele>2021</ele>
        <time>2026-07-29T10:43:00.716Z</time>
      </trkpt>
      <trkpt lat="45.72044" lon="6.70211">
        <ele>2021</ele>
        <time>2026-07-29T10:43:01.716Z</time>
      </trkpt>
      <trkpt lat="45.72046" lon="6.70211">
        <ele>2020</ele>
        <time>2026-07-29T10:43:02.716Z</time>
      </trkpt>
      <trkpt lat="45.72049" lon="6.70211">
        <ele>2021</ele>
        <time>2026-07-29T10:43:03.716Z</time>
      </trkpt>
      <trkpt lat="45.72051" lon="6.70211">
        <ele>2021</ele>
        <time>2026-07-29T10:43:04.716Z</time>
      </trkpt>
      <trkpt lat="45.72053" lon="6.70211">
        <ele>2022</ele>
        <time>2026-07-29T10:43:05.716Z</time>
      </trkpt>
      <trkpt lat="45.72055" lon="6.7021">
        <ele>2022</ele>
        <time>2026-07-29T10:43:06.716Z</time>
      </trkpt>
      <trkpt lat="45.72058" lon="6.70209">
        <ele>2022</ele>
        <time>2026-07-29T10:43:07.716Z</time>
      </trkpt>
      <trkpt lat="45.7206" lon="6.70208">
        <ele>2022</ele>
        <time>2026-07-29T10:43:08.716Z</time>
      </trkpt>
      <trkpt lat="45.72063" lon="6.70208">
        <ele>2021</ele>
        <time>2026-07-29T10:43:09.716Z</time>
      </trkpt>
      <trkpt lat="45.72066" lon="6.70207">
        <ele>2021</ele>
        <time>2026-07-29T10:43:10.716Z</time>
      </trkpt>
      <trkpt lat="45.72068" lon="6.70207">
        <ele>2020</ele>
        <time>2026-07-29T10:43:11.716Z</time>
      </trkpt>
      <trkpt lat="45.72071" lon="6.70207">
        <ele>2020</ele>
        <time>2026-07-29T10:43:12.716Z</time>
      </trkpt>
      <trkpt lat="45.72073" lon="6.70207">
        <ele>2019</ele>
        <time>2026-07-29T10:43:13.716Z</time>
      </trkpt>
      <trkpt lat="45.72075" lon="6.70208">
        <ele>2019</ele>
        <time>2026-07-29T10:43:14.716Z</time>
      </trkpt>
      <trkpt lat="45.72077" lon="6.70208">
        <ele>2018</ele>
        <time>2026-07-29T10:43:15.716Z</time>
      </trkpt>
      <trkpt lat="45.72079" lon="6.70208">
        <ele>2018</ele>
        <time>2026-07-29T10:43:16.716Z</time>
      </trkpt>
      <trkpt lat="45.72081" lon="6.70208">
        <ele>2017</ele>
        <time>2026-07-29T10:43:17.716Z</time>
      </trkpt>
      <trkpt lat="45.72083" lon="6.70208">
        <ele>2017</ele>
        <time>2026-07-29T10:43:18.716Z</time>
      </trkpt>
      <trkpt lat="45.72085" lon="6.70207">
        <ele>2016</ele>
        <time>2026-07-29T10:43:19.716Z</time>
      </trkpt>
      <trkpt lat="45.72087" lon="6.70206">
        <ele>2016</ele>
        <time>2026-07-29T10:43:20.716Z</time>
      </trkpt>
      <trkpt lat="45.72089" lon="6.70205">
        <ele>2017</ele>
        <time>2026-07-29T10:43:21.716Z</time>
      </trkpt>
      <trkpt lat="45.72091" lon="6.70204">
        <ele>2016</ele>
        <time>2026-07-29T10:43:22.716Z</time>
      </trkpt>
      <trkpt lat="45.72093" lon="6.70203">
        <ele>2016</ele>
        <time>2026-07-29T10:43:23.716Z</time>
      </trkpt>
      <trkpt lat="45.72095" lon="6.70203">
        <ele>2016</ele>
        <time>2026-07-29T10:43:24.716Z</time>
      </trkpt>
      <trkpt lat="45.72097" lon="6.70202">
        <ele>2016</ele>
        <time>2026-07-29T10:43:25.716Z</time>
      </trkpt>
      <trkpt lat="45.721" lon="6.70201">
        <ele>2015</ele>
        <time>2026-07-29T10:43:26.716Z</time>
      </trkpt>
      <trkpt lat="45.72102" lon="6.70201">
        <ele>2015</ele>
        <time>2026-07-29T10:43:27.716Z</time>
      </trkpt>
      <trkpt lat="45.72104" lon="6.702">
        <ele>2015</ele>
        <time>2026-07-29T10:43:28.716Z</time>
      </trkpt>
      <trkpt lat="45.72107" lon="6.70199">
        <ele>2015</ele>
        <time>2026-07-29T10:43:29.716Z</time>
      </trkpt>
      <trkpt lat="45.72109" lon="6.70198">
        <ele>2015</ele>
        <time>2026-07-29T10:43:30.716Z</time>
      </trkpt>
      <trkpt lat="45.72111" lon="6.70197">
        <ele>2015</ele>
        <time>2026-07-29T10:43:31.716Z</time>
      </trkpt>
      <trkpt lat="45.72114" lon="6.70195">
        <ele>2014</ele>
        <time>2026-07-29T10:43:32.716Z</time>
      </trkpt>
      <trkpt lat="45.72116" lon="6.70195">
        <ele>2014</ele>
        <time>2026-07-29T10:43:33.716Z</time>
      </trkpt>
      <trkpt lat="45.72118" lon="6.70194">
        <ele>2014</ele>
        <time>2026-07-29T10:43:34.716Z</time>
      </trkpt>
      <trkpt lat="45.72121" lon="6.70193">
        <ele>2013</ele>
        <time>2026-07-29T10:43:35.716Z</time>
      </trkpt>
      <trkpt lat="45.72123" lon="6.70192">
        <ele>2013</ele>
        <time>2026-07-29T10:43:36.716Z</time>
      </trkpt>
      <trkpt lat="45.72126" lon="6.70192">
        <ele>2012</ele>
        <time>2026-07-29T10:43:37.716Z</time>
      </trkpt>
      <trkpt lat="45.72128" lon="6.70191">
        <ele>2012</ele>
        <time>2026-07-29T10:43:38.716Z</time>
      </trkpt>
      <trkpt lat="45.7213" lon="6.70191">
        <ele>2012</ele>
        <time>2026-07-29T10:43:39.716Z</time>
      </trkpt>
      <trkpt lat="45.72133" lon="6.70191">
        <ele>2012</ele>
        <time>2026-07-29T10:43:40.716Z</time>
      </trkpt>
      <trkpt lat="45.72135" lon="6.70191">
        <ele>2012</ele>
        <time>2026-07-29T10:43:41.716Z</time>
      </trkpt>
      <trkpt lat="45.72138" lon="6.7019">
        <ele>2013</ele>
        <time>2026-07-29T10:43:42.716Z</time>
      </trkpt>
      <trkpt lat="45.7214" lon="6.7019">
        <ele>2012</ele>
        <time>2026-07-29T10:43:43.716Z</time>
      </trkpt>
      <trkpt lat="45.72143" lon="6.7019">
        <ele>2012</ele>
        <time>2026-07-29T10:43:44.716Z</time>
      </trkpt>
      <trkpt lat="45.72145" lon="6.7019">
        <ele>2011</ele>
        <time>2026-07-29T10:43:45.716Z</time>
      </trkpt>
      <trkpt lat="45.72147" lon="6.7019">
        <ele>2011</ele>
        <time>2026-07-29T10:43:46.716Z</time>
      </trkpt>
      <trkpt lat="45.7215" lon="6.70189">
        <ele>2011</ele>
        <time>2026-07-29T10:43:47.716Z</time>
      </trkpt>
      <trkpt lat="45.72152" lon="6.70189">
        <ele>2011</ele>
        <time>2026-07-29T10:43:48.716Z</time>
      </trkpt>
      <trkpt lat="45.72154" lon="6.70188">
        <ele>2011</ele>
        <time>2026-07-29T10:43:49.716Z</time>
      </trkpt>
      <trkpt lat="45.72157" lon="6.70187">
        <ele>2011</ele>
        <time>2026-07-29T10:43:50.716Z</time>
      </trkpt>
      <trkpt lat="45.72159" lon="6.70186">
        <ele>2011</ele>
        <time>2026-07-29T10:43:51.716Z</time>
      </trkpt>
      <trkpt lat="45.72161" lon="6.70185">
        <ele>2011</ele>
        <time>2026-07-29T10:43:52.716Z</time>
      </trkpt>
      <trkpt lat="45.72164" lon="6.70184">
        <ele>2011</ele>
        <time>2026-07-29T10:43:53.716Z</time>
      </trkpt>
      <trkpt lat="45.72166" lon="6.70182">
        <ele>2011</ele>
        <time>2026-07-29T10:43:54.716Z</time>
      </trkpt>
      <trkpt lat="45.72168" lon="6.70181">
        <ele>2011</ele>
        <time>2026-07-29T10:43:55.716Z</time>
      </trkpt>
      <trkpt lat="45.72171" lon="6.70179">
        <ele>2011</ele>
        <time>2026-07-29T10:43:56.716Z</time>
      </trkpt>
      <trkpt lat="45.72173" lon="6.70178">
        <ele>2011</ele>
        <time>2026-07-29T10:43:57.716Z</time>
      </trkpt>
      <trkpt lat="45.72175" lon="6.70176">
        <ele>2010</ele>
        <time>2026-07-29T10:43:58.716Z</time>
      </trkpt>
      <trkpt lat="45.72177" lon="6.70175">
        <ele>2010</ele>
        <time>2026-07-29T10:43:59.716Z</time>
      </trkpt>
      <trkpt lat="45.7218" lon="6.70174">
        <ele>2010</ele>
        <time>2026-07-29T10:44:00.716Z</time>
      </trkpt>
      <trkpt lat="45.72182" lon="6.70173">
        <ele>2009</ele>
        <time>2026-07-29T10:44:01.716Z</time>
      </trkpt>
      <trkpt lat="45.72184" lon="6.70171">
        <ele>2009</ele>
        <time>2026-07-29T10:44:02.716Z</time>
      </trkpt>
      <trkpt lat="45.72186" lon="6.7017">
        <ele>2008</ele>
        <time>2026-07-29T10:44:03.716Z</time>
      </trkpt>
      <trkpt lat="45.72189" lon="6.70168">
        <ele>2008</ele>
        <time>2026-07-29T10:44:04.716Z</time>
      </trkpt>
      <trkpt lat="45.7219" lon="6.70166">
        <ele>2007</ele>
        <time>2026-07-29T10:44:05.716Z</time>
      </trkpt>
      <trkpt lat="45.72192" lon="6.70163">
        <ele>2007</ele>
        <time>2026-07-29T10:44:06.716Z</time>
      </trkpt>
      <trkpt lat="45.72193" lon="6.70161">
        <ele>2007</ele>
        <time>2026-07-29T10:44:07.716Z</time>
      </trkpt>
      <trkpt lat="45.72195" lon="6.70159">
        <ele>2007</ele>
        <time>2026-07-29T10:44:08.716Z</time>
      </trkpt>
      <trkpt lat="45.72197" lon="6.70156">
        <ele>2007</ele>
        <time>2026-07-29T10:44:09.716Z</time>
      </trkpt>
      <trkpt lat="45.72198" lon="6.70154">
        <ele>2007</ele>
        <time>2026-07-29T10:44:10.716Z</time>
      </trkpt>
      <trkpt lat="45.722" lon="6.70151">
        <ele>2007</ele>
        <time>2026-07-29T10:44:11.716Z</time>
      </trkpt>
      <trkpt lat="45.72202" lon="6.70149">
        <ele>2007</ele>
        <time>2026-07-29T10:44:12.716Z</time>
      </trkpt>
      <trkpt lat="45.72203" lon="6.70146">
        <ele>2007</ele>
        <time>2026-07-29T10:44:13.716Z</time>
      </trkpt>
      <trkpt lat="45.72205" lon="6.70143">
        <ele>2007</ele>
        <time>2026-07-29T10:44:14.716Z</time>
      </trkpt>
      <trkpt lat="45.72206" lon="6.70139">
        <ele>2007</ele>
        <time>2026-07-29T10:44:15.716Z</time>
      </trkpt>
      <trkpt lat="45.72208" lon="6.70136">
        <ele>2007</ele>
        <time>2026-07-29T10:44:16.716Z</time>
      </trkpt>
      <trkpt lat="45.72209" lon="6.70134">
        <ele>2006</ele>
        <time>2026-07-29T10:44:17.716Z</time>
      </trkpt>
      <trkpt lat="45.72211" lon="6.70131">
        <ele>2006</ele>
        <time>2026-07-29T10:44:18.716Z</time>
      </trkpt>
      <trkpt lat="45.72213" lon="6.70129">
        <ele>2006</ele>
        <time>2026-07-29T10:44:19.716Z</time>
      </trkpt>
      <trkpt lat="45.72215" lon="6.70126">
        <ele>2006</ele>
        <time>2026-07-29T10:44:20.716Z</time>
      </trkpt>
      <trkpt lat="45.72216" lon="6.70123">
        <ele>2006</ele>
        <time>2026-07-29T10:44:21.716Z</time>
      </trkpt>
      <trkpt lat="45.72218" lon="6.70121">
        <ele>2006</ele>
        <time>2026-07-29T10:44:22.716Z</time>
      </trkpt>
      <trkpt lat="45.7222" lon="6.70118">
        <ele>2006</ele>
        <time>2026-07-29T10:44:23.716Z</time>
      </trkpt>
      <trkpt lat="45.72221" lon="6.70116">
        <ele>2006</ele>
        <time>2026-07-29T10:44:24.716Z</time>
      </trkpt>
      <trkpt lat="45.72223" lon="6.70113">
        <ele>2006</ele>
        <time>2026-07-29T10:44:25.716Z</time>
      </trkpt>
      <trkpt lat="45.72225" lon="6.7011">
        <ele>2006</ele>
        <time>2026-07-29T10:44:26.716Z</time>
      </trkpt>
      <trkpt lat="45.72226" lon="6.70108">
        <ele>2006</ele>
        <time>2026-07-29T10:44:27.716Z</time>
      </trkpt>
      <trkpt lat="45.72228" lon="6.70105">
        <ele>2005</ele>
        <time>2026-07-29T10:44:28.716Z</time>
      </trkpt>
      <trkpt lat="45.7223" lon="6.70103">
        <ele>2005</ele>
        <time>2026-07-29T10:44:29.716Z</time>
      </trkpt>
      <trkpt lat="45.72232" lon="6.70101">
        <ele>2004</ele>
        <time>2026-07-29T10:44:30.716Z</time>
      </trkpt>
      <trkpt lat="45.72234" lon="6.701">
        <ele>2004</ele>
        <time>2026-07-29T10:44:31.716Z</time>
      </trkpt>
      <trkpt lat="45.72236" lon="6.70098">
        <ele>2004</ele>
        <time>2026-07-29T10:44:32.716Z</time>
      </trkpt>
      <trkpt lat="45.72239" lon="6.70096">
        <ele>2003</ele>
        <time>2026-07-29T10:44:33.716Z</time>
      </trkpt>
      <trkpt lat="45.72241" lon="6.70094">
        <ele>2003</ele>
        <time>2026-07-29T10:44:34.716Z</time>
      </trkpt>
      <trkpt lat="45.72242" lon="6.70092">
        <ele>2002</ele>
        <time>2026-07-29T10:44:35.716Z</time>
      </trkpt>
      <trkpt lat="45.72244" lon="6.7009">
        <ele>2002</ele>
        <time>2026-07-29T10:44:36.716Z</time>
      </trkpt>
      <trkpt lat="45.72246" lon="6.70088">
        <ele>2002</ele>
        <time>2026-07-29T10:44:37.716Z</time>
      </trkpt>
      <trkpt lat="45.72247" lon="6.70086">
        <ele>2002</ele>
        <time>2026-07-29T10:44:38.716Z</time>
      </trkpt>
      <trkpt lat="45.72249" lon="6.70084">
        <ele>2002</ele>
        <time>2026-07-29T10:44:39.716Z</time>
      </trkpt>
      <trkpt lat="45.72252" lon="6.70082">
        <ele>2002</ele>
        <time>2026-07-29T10:44:40.716Z</time>
      </trkpt>
      <trkpt lat="45.72254" lon="6.7008">
        <ele>2002</ele>
        <time>2026-07-29T10:44:41.716Z</time>
      </trkpt>
      <trkpt lat="45.72255" lon="6.70078">
        <ele>2001</ele>
        <time>2026-07-29T10:44:42.716Z</time>
      </trkpt>
      <trkpt lat="45.72257" lon="6.70076">
        <ele>2002</ele>
        <time>2026-07-29T10:44:43.716Z</time>
      </trkpt>
      <trkpt lat="45.72259" lon="6.70074">
        <ele>2002</ele>
        <time>2026-07-29T10:44:44.716Z</time>
      </trkpt>
      <trkpt lat="45.72261" lon="6.70072">
        <ele>2002</ele>
        <time>2026-07-29T10:44:45.716Z</time>
      </trkpt>
      <trkpt lat="45.72263" lon="6.7007">
        <ele>2003</ele>
        <time>2026-07-29T10:44:46.716Z</time>
      </trkpt>
      <trkpt lat="45.72265" lon="6.70068">
        <ele>2002</ele>
        <time>2026-07-29T10:44:47.716Z</time>
      </trkpt>
      <trkpt lat="45.72266" lon="6.70066">
        <ele>2002</ele>
        <time>2026-07-29T10:44:48.716Z</time>
      </trkpt>
      <trkpt lat="45.72268" lon="6.70063">
        <ele>2002</ele>
        <time>2026-07-29T10:44:49.716Z</time>
      </trkpt>
      <trkpt lat="45.7227" lon="6.7006">
        <ele>2002</ele>
        <time>2026-07-29T10:44:50.716Z</time>
      </trkpt>
      <trkpt lat="45.72272" lon="6.70058">
        <ele>2001</ele>
        <time>2026-07-29T10:44:51.716Z</time>
      </trkpt>
      <trkpt lat="45.72273" lon="6.70055">
        <ele>2001</ele>
        <time>2026-07-29T10:44:52.716Z</time>
      </trkpt>
      <trkpt lat="45.72275" lon="6.70052">
        <ele>2000</ele>
        <time>2026-07-29T10:44:53.716Z</time>
      </trkpt>
      <trkpt lat="45.72276" lon="6.70048">
        <ele>2000</ele>
        <time>2026-07-29T10:44:54.716Z</time>
      </trkpt>
      <trkpt lat="45.72277" lon="6.70045">
        <ele>2000</ele>
        <time>2026-07-29T10:44:55.716Z</time>
      </trkpt>
      <trkpt lat="45.72278" lon="6.70042">
        <ele>2000</ele>
        <time>2026-07-29T10:44:56.716Z</time>
      </trkpt>
      <trkpt lat="45.72278" lon="6.70039">
        <ele>2000</ele>
        <time>2026-07-29T10:44:57.716Z</time>
      </trkpt>
      <trkpt lat="45.72279" lon="6.70035">
        <ele>2000</ele>
        <time>2026-07-29T10:44:58.716Z</time>
      </trkpt>
      <trkpt lat="45.7228" lon="6.70032">
        <ele>1999</ele>
        <time>2026-07-29T10:44:59.716Z</time>
      </trkpt>
      <trkpt lat="45.72281" lon="6.70029">
        <ele>1999</ele>
        <time>2026-07-29T10:45:00.716Z</time>
      </trkpt>
      <trkpt lat="45.72281" lon="6.70025">
        <ele>1999</ele>
        <time>2026-07-29T10:45:01.716Z</time>
      </trkpt>
      <trkpt lat="45.72281" lon="6.70022">
        <ele>1999</ele>
        <time>2026-07-29T10:45:02.716Z</time>
      </trkpt>
      <trkpt lat="45.72282" lon="6.70018">
        <ele>1999</ele>
        <time>2026-07-29T10:45:03.716Z</time>
      </trkpt>
      <trkpt lat="45.72282" lon="6.70015">
        <ele>1999</ele>
        <time>2026-07-29T10:45:04.716Z</time>
      </trkpt>
      <trkpt lat="45.72283" lon="6.70011">
        <ele>1999</ele>
        <time>2026-07-29T10:45:05.716Z</time>
      </trkpt>
      <trkpt lat="45.72284" lon="6.70008">
        <ele>1998</ele>
        <time>2026-07-29T10:45:06.716Z</time>
      </trkpt>
      <trkpt lat="45.72285" lon="6.70005">
        <ele>1997</ele>
        <time>2026-07-29T10:45:07.716Z</time>
      </trkpt>
      <trkpt lat="45.72286" lon="6.70003">
        <ele>1997</ele>
        <time>2026-07-29T10:45:08.716Z</time>
      </trkpt>
      <trkpt lat="45.72287" lon="6.7">
        <ele>1997</ele>
        <time>2026-07-29T10:45:09.716Z</time>
      </trkpt>
      <trkpt lat="45.72288" lon="6.69997">
        <ele>1996</ele>
        <time>2026-07-29T10:45:10.716Z</time>
      </trkpt>
      <trkpt lat="45.7229" lon="6.69995">
        <ele>1996</ele>
        <time>2026-07-29T10:45:11.716Z</time>
      </trkpt>
      <trkpt lat="45.72291" lon="6.69993">
        <ele>1996</ele>
        <time>2026-07-29T10:45:12.716Z</time>
      </trkpt>
      <trkpt lat="45.72293" lon="6.6999">
        <ele>1996</ele>
        <time>2026-07-29T10:45:13.716Z</time>
      </trkpt>
      <trkpt lat="45.72294" lon="6.69988">
        <ele>1996</ele>
        <time>2026-07-29T10:45:14.716Z</time>
      </trkpt>
      <trkpt lat="45.72296" lon="6.69985">
        <ele>1996</ele>
        <time>2026-07-29T10:45:15.716Z</time>
      </trkpt>
      <trkpt lat="45.72298" lon="6.69983">
        <ele>1995</ele>
        <time>2026-07-29T10:45:16.716Z</time>
      </trkpt>
      <trkpt lat="45.723" lon="6.69981">
        <ele>1995</ele>
        <time>2026-07-29T10:45:17.716Z</time>
      </trkpt>
      <trkpt lat="45.72302" lon="6.69978">
        <ele>1995</ele>
        <time>2026-07-29T10:45:18.716Z</time>
      </trkpt>
      <trkpt lat="45.72303" lon="6.69976">
        <ele>1994</ele>
        <time>2026-07-29T10:45:19.716Z</time>
      </trkpt>
      <trkpt lat="45.72304" lon="6.69974">
        <ele>1994</ele>
        <time>2026-07-29T10:45:20.716Z</time>
      </trkpt>
      <trkpt lat="45.72305" lon="6.69971">
        <ele>1994</ele>
        <time>2026-07-29T10:45:21.716Z</time>
      </trkpt>
      <trkpt lat="45.72306" lon="6.69968">
        <ele>1994</ele>
        <time>2026-07-29T10:45:22.716Z</time>
      </trkpt>
      <trkpt lat="45.72307" lon="6.69965">
        <ele>1994</ele>
        <time>2026-07-29T10:45:23.716Z</time>
      </trkpt>
      <trkpt lat="45.72307" lon="6.69962">
        <ele>1993</ele>
        <time>2026-07-29T10:45:24.716Z</time>
      </trkpt>
      <trkpt lat="45.72308" lon="6.69959">
        <ele>1993</ele>
        <time>2026-07-29T10:45:25.716Z</time>
      </trkpt>
      <trkpt lat="45.7231" lon="6.69956">
        <ele>1993</ele>
        <time>2026-07-29T10:45:26.716Z</time>
      </trkpt>
      <trkpt lat="45.72311" lon="6.69953">
        <ele>1993</ele>
        <time>2026-07-29T10:45:27.716Z</time>
      </trkpt>
      <trkpt lat="45.72312" lon="6.6995">
        <ele>1993</ele>
        <time>2026-07-29T10:45:28.716Z</time>
      </trkpt>
      <trkpt lat="45.72313" lon="6.69947">
        <ele>1994</ele>
        <time>2026-07-29T10:45:29.716Z</time>
      </trkpt>
      <trkpt lat="45.72315" lon="6.69945">
        <ele>1994</ele>
        <time>2026-07-29T10:45:30.716Z</time>
      </trkpt>
      <trkpt lat="45.72317" lon="6.69942">
        <ele>1993</ele>
        <time>2026-07-29T10:45:31.716Z</time>
      </trkpt>
      <trkpt lat="45.72318" lon="6.6994">
        <ele>1993</ele>
        <time>2026-07-29T10:45:32.716Z</time>
      </trkpt>
      <trkpt lat="45.7232" lon="6.69937">
        <ele>1993</ele>
        <time>2026-07-29T10:45:33.716Z</time>
      </trkpt>
      <trkpt lat="45.72321" lon="6.69935">
        <ele>1993</ele>
        <time>2026-07-29T10:45:34.716Z</time>
      </trkpt>
      <trkpt lat="45.72322" lon="6.69933">
        <ele>1993</ele>
        <time>2026-07-29T10:45:35.716Z</time>
      </trkpt>
      <trkpt lat="45.72323" lon="6.69931">
        <ele>1993</ele>
        <time>2026-07-29T10:45:36.716Z</time>
      </trkpt>
      <trkpt lat="45.72325" lon="6.69929">
        <ele>1992</ele>
        <time>2026-07-29T10:45:37.716Z</time>
      </trkpt>
      <trkpt lat="45.72326" lon="6.69928">
        <ele>1992</ele>
        <time>2026-07-29T10:45:38.716Z</time>
      </trkpt>
      <trkpt lat="45.72328" lon="6.69926">
        <ele>1992</ele>
        <time>2026-07-29T10:45:39.716Z</time>
      </trkpt>
      <trkpt lat="45.72329" lon="6.69924">
        <ele>1992</ele>
        <time>2026-07-29T10:45:40.716Z</time>
      </trkpt>
      <trkpt lat="45.7233" lon="6.69923">
        <ele>1992</ele>
        <time>2026-07-29T10:45:41.716Z</time>
      </trkpt>
      <trkpt lat="45.72331" lon="6.69921">
        <ele>1992</ele>
        <time>2026-07-29T10:45:42.716Z</time>
      </trkpt>
      <trkpt lat="45.72331" lon="6.69919">
        <ele>1992</ele>
        <time>2026-07-29T10:45:43.716Z</time>
      </trkpt>
      <trkpt lat="45.72332" lon="6.69918">
        <ele>1992</ele>
        <time>2026-07-29T10:45:44.716Z</time>
      </trkpt>
      <trkpt lat="45.72331" lon="6.69917">
        <ele>1992</ele>
        <time>2026-07-29T10:45:45.716Z</time>
      </trkpt>
      <trkpt lat="45.72331" lon="6.69916">
        <ele>1991</ele>
        <time>2026-07-29T10:45:46.716Z</time>
      </trkpt>
      <trkpt lat="45.72331" lon="6.69914">
        <ele>1991</ele>
        <time>2026-07-29T10:45:47.716Z</time>
      </trkpt>
      <trkpt lat="45.72331" lon="6.69912">
        <ele>1991</ele>
        <time>2026-07-29T10:45:48.716Z</time>
      </trkpt>
      <trkpt lat="45.72331" lon="6.69911">
        <ele>1991</ele>
        <time>2026-07-29T10:45:49.716Z</time>
      </trkpt>
      <trkpt lat="45.72331" lon="6.6991">
        <ele>1991</ele>
        <time>2026-07-29T10:45:50.716Z</time>
      </trkpt>
      <trkpt lat="45.72331" lon="6.69908">
        <ele>1991</ele>
        <time>2026-07-29T10:45:51.716Z</time>
      </trkpt>
      <trkpt lat="45.7233" lon="6.69906">
        <ele>1991</ele>
        <time>2026-07-29T10:45:52.716Z</time>
      </trkpt>
      <trkpt lat="45.7233" lon="6.69904">
        <ele>1991</ele>
        <time>2026-07-29T10:45:53.716Z</time>
      </trkpt>
      <trkpt lat="45.7233" lon="6.69902">
        <ele>1991</ele>
        <time>2026-07-29T10:45:54.716Z</time>
      </trkpt>
      <trkpt lat="45.72329" lon="6.69899">
        <ele>1992</ele>
        <time>2026-07-29T10:45:55.716Z</time>
      </trkpt>
      <trkpt lat="45.72329" lon="6.69897">
        <ele>1992</ele>
        <time>2026-07-29T10:45:56.716Z</time>
      </trkpt>
      <trkpt lat="45.7233" lon="6.69894">
        <ele>1992</ele>
        <time>2026-07-29T10:45:57.716Z</time>
      </trkpt>
      <trkpt lat="45.7233" lon="6.69892">
        <ele>1993</ele>
        <time>2026-07-29T10:45:58.716Z</time>
      </trkpt>
      <trkpt lat="45.7233" lon="6.6989">
        <ele>1994</ele>
        <time>2026-07-29T10:45:59.716Z</time>
      </trkpt>
      <trkpt lat="45.7233" lon="6.69887">
        <ele>1994</ele>
        <time>2026-07-29T10:46:00.716Z</time>
      </trkpt>
      <trkpt lat="45.7233" lon="6.69885">
        <ele>1994</ele>
        <time>2026-07-29T10:46:01.716Z</time>
      </trkpt>
      <trkpt lat="45.7233" lon="6.69882">
        <ele>1994</ele>
        <time>2026-07-29T10:46:02.716Z</time>
      </trkpt>
      <trkpt lat="45.7233" lon="6.6988">
        <ele>1994</ele>
        <time>2026-07-29T10:46:03.716Z</time>
      </trkpt>
      <trkpt lat="45.7233" lon="6.69877">
        <ele>1994</ele>
        <time>2026-07-29T10:46:04.716Z</time>
      </trkpt>
      <trkpt lat="45.7233" lon="6.69875">
        <ele>1994</ele>
        <time>2026-07-29T10:46:05.716Z</time>
      </trkpt>
      <trkpt lat="45.72329" lon="6.69871">
        <ele>1994</ele>
        <time>2026-07-29T10:46:06.716Z</time>
      </trkpt>
      <trkpt lat="45.72329" lon="6.69869">
        <ele>1993</ele>
        <time>2026-07-29T10:46:07.716Z</time>
      </trkpt>
      <trkpt lat="45.72329" lon="6.69866">
        <ele>1993</ele>
        <time>2026-07-29T10:46:08.716Z</time>
      </trkpt>
      <trkpt lat="45.72329" lon="6.69864">
        <ele>1992</ele>
        <time>2026-07-29T10:46:09.716Z</time>
      </trkpt>
      <trkpt lat="45.72329" lon="6.69861">
        <ele>1992</ele>
        <time>2026-07-29T10:46:10.716Z</time>
      </trkpt>
      <trkpt lat="45.7233" lon="6.69859">
        <ele>1992</ele>
        <time>2026-07-29T10:46:11.716Z</time>
      </trkpt>
      <trkpt lat="45.7233" lon="6.69856">
        <ele>1992</ele>
        <time>2026-07-29T10:46:12.716Z</time>
      </trkpt>
      <trkpt lat="45.7233" lon="6.69853">
        <ele>1992</ele>
        <time>2026-07-29T10:46:13.716Z</time>
      </trkpt>
      <trkpt lat="45.72331" lon="6.6985">
        <ele>1992</ele>
        <time>2026-07-29T10:46:14.716Z</time>
      </trkpt>
      <trkpt lat="45.72331" lon="6.69848">
        <ele>1992</ele>
        <time>2026-07-29T10:46:15.716Z</time>
      </trkpt>
      <trkpt lat="45.72331" lon="6.69846">
        <ele>1992</ele>
        <time>2026-07-29T10:46:16.716Z</time>
      </trkpt>
      <trkpt lat="45.72332" lon="6.69844">
        <ele>1992</ele>
        <time>2026-07-29T10:46:17.716Z</time>
      </trkpt>
      <trkpt lat="45.72332" lon="6.69842">
        <ele>1992</ele>
        <time>2026-07-29T10:46:18.716Z</time>
      </trkpt>
      <trkpt lat="45.72333" lon="6.69841">
        <ele>1992</ele>
        <time>2026-07-29T10:46:19.716Z</time>
      </trkpt>
      <trkpt lat="45.72333" lon="6.69839">
        <ele>1991</ele>
        <time>2026-07-29T10:46:20.716Z</time>
      </trkpt>
      <trkpt lat="45.72334" lon="6.69838">
        <ele>1991</ele>
        <time>2026-07-29T10:46:21.716Z</time>
      </trkpt>
      <trkpt lat="45.72334" lon="6.69836">
        <ele>1991</ele>
        <time>2026-07-29T10:46:22.716Z</time>
      </trkpt>
      <trkpt lat="45.72335" lon="6.69834">
        <ele>1991</ele>
        <time>2026-07-29T10:46:23.716Z</time>
      </trkpt>
      <trkpt lat="45.72336" lon="6.69833">
        <ele>1992</ele>
        <time>2026-07-29T10:46:24.716Z</time>
      </trkpt>
      <trkpt lat="45.72336" lon="6.69832">
        <ele>1992</ele>
        <time>2026-07-29T10:46:25.716Z</time>
      </trkpt>
      <trkpt lat="45.72336" lon="6.69832">
        <ele>1992</ele>
        <time>2026-07-29T10:46:26.716Z</time>
      </trkpt>
      <trkpt lat="45.72337" lon="6.69832">
        <ele>1992</ele>
        <time>2026-07-29T10:46:27.716Z</time>
      </trkpt>
      <trkpt lat="45.72337" lon="6.69832">
        <ele>1993</ele>
        <time>2026-07-29T10:46:28.716Z</time>
      </trkpt>
      <trkpt lat="45.72337" lon="6.69832">
        <ele>1993</ele>
        <time>2026-07-29T10:46:29.716Z</time>
      </trkpt>
      <trkpt lat="45.72337" lon="6.69832">
        <ele>1993</ele>
        <time>2026-07-29T10:46:30.716Z</time>
      </trkpt>
      <trkpt lat="45.72337" lon="6.69832">
        <ele>1993</ele>
        <time>2026-07-29T10:46:31.716Z</time>
      </trkpt>
      <trkpt lat="45.72337" lon="6.69832">
        <ele>1993</ele>
        <time>2026-07-29T10:46:32.716Z</time>
      </trkpt>
      <trkpt lat="45.72337" lon="6.69832">
        <ele>1992</ele>
        <time>2026-07-29T10:46:33.716Z</time>
      </trkpt>
      <trkpt lat="45.72337" lon="6.69832">
        <ele>1992</ele>
        <time>2026-07-29T10:46:34.716Z</time>
      </trkpt>
      <trkpt lat="45.72337" lon="6.69832">
        <ele>1991</ele>
        <time>2026-07-29T10:46:35.716Z</time>
      </trkpt>
      <trkpt lat="45.72337" lon="6.69832">
        <ele>1991</ele>
        <time>2026-07-29T10:46:36.716Z</time>
      </trkpt>
      <trkpt lat="45.72337" lon="6.69832">
        <ele>1990</ele>
        <time>2026-07-29T10:46:37.716Z</time>
      </trkpt>
      <trkpt lat="45.72337" lon="6.69832">
        <ele>1990</ele>
        <time>2026-07-29T10:46:38.716Z</time>
      </trkpt>
      <trkpt lat="45.72337" lon="6.69832">
        <ele>1990</ele>
        <time>2026-07-29T10:46:39.716Z</time>
      </trkpt>
      <trkpt lat="45.72337" lon="6.69832">
        <ele>1990</ele>
        <time>2026-07-29T10:46:40.716Z</time>
      </trkpt>
      <trkpt lat="45.72337" lon="6.69832">
        <ele>1990</ele>
        <time>2026-07-29T10:46:41.716Z</time>
      </trkpt>
      <trkpt lat="45.72337" lon="6.69832">
        <ele>1990</ele>
        <time>2026-07-29T10:46:42.716Z</time>
      </trkpt>
      <trkpt lat="45.72337" lon="6.69832">
        <ele>1990</ele>
        <time>2026-07-29T10:46:43.716Z</time>
      </trkpt>
      <trkpt lat="45.72337" lon="6.69832">
        <ele>1990</ele>
        <time>2026-07-29T10:46:44.716Z</time>
      </trkpt>
      <trkpt lat="45.72337" lon="6.69832">
        <ele>1989</ele>
        <time>2026-07-29T10:46:45.716Z</time>
      </trkpt>
      <trkpt lat="45.72337" lon="6.69832">
        <ele>1989</ele>
        <time>2026-07-29T10:46:46.716Z</time>
      </trkpt>
      <trkpt lat="45.72337" lon="6.69832">
        <ele>1989</ele>
        <time>2026-07-29T10:46:47.716Z</time>
      </trkpt>
      <trkpt lat="45.72337" lon="6.69832">
        <ele>1989</ele>
        <time>2026-07-29T10:46:48.716Z</time>
      </trkpt>
      <trkpt lat="45.72337" lon="6.69832">
        <ele>1989</ele>
        <time>2026-07-29T10:46:49.716Z</time>
      </trkpt>
      <trkpt lat="45.72337" lon="6.69832">
        <ele>1989</ele>
        <time>2026-07-29T10:46:50.716Z</time>
      </trkpt>
      <trkpt lat="45.72337" lon="6.69832">
        <ele>1989</ele>
        <time>2026-07-29T10:46:51.716Z</time>
      </trkpt>
      <trkpt lat="45.72337" lon="6.69832">
        <ele>1989</ele>
        <time>2026-07-29T10:46:52.716Z</time>
      </trkpt>
      <trkpt lat="45.72337" lon="6.69832">
        <ele>1989</ele>
        <time>2026-07-29T10:46:53.716Z</time>
      </trkpt>
      <trkpt lat="45.72337" lon="6.69832">
        <ele>1989</ele>
        <time>2026-07-29T10:46:54.716Z</time>
      </trkpt>
      <trkpt lat="45.72337" lon="6.69832">
        <ele>1989</ele>
        <time>2026-07-29T10:46:55.716Z</time>
      </trkpt>
      <trkpt lat="45.72337" lon="6.69832">
        <ele>1989</ele>
        <time>2026-07-29T10:46:56.716Z</time>
      </trkpt>
      <trkpt lat="45.72337" lon="6.69832">
        <ele>1989</ele>
        <time>2026-07-29T10:46:57.716Z</time>
      </trkpt>
      <trkpt lat="45.72337" lon="6.69833">
        <ele>1989</ele>
        <time>2026-07-29T10:46:58.716Z</time>
      </trkpt>
      <trkpt lat="45.72338" lon="6.69836">
        <ele>1989</ele>
        <time>2026-07-29T10:46:59.716Z</time>
      </trkpt>
      <trkpt lat="45.72338" lon="6.69839">
        <ele>1989</ele>
        <time>2026-07-29T10:47:00.716Z</time>
      </trkpt>
      <trkpt lat="45.72338" lon="6.69842">
        <ele>1989</ele>
        <time>2026-07-29T10:47:01.716Z</time>
      </trkpt>
      <trkpt lat="45.72339" lon="6.69844">
        <ele>1989</ele>
        <time>2026-07-29T10:47:02.716Z</time>
      </trkpt>
      <trkpt lat="45.72339" lon="6.69847">
        <ele>1989</ele>
        <time>2026-07-29T10:47:03.716Z</time>
      </trkpt>
      <trkpt lat="45.7234" lon="6.6985">
        <ele>1989</ele>
        <time>2026-07-29T10:47:04.716Z</time>
      </trkpt>
      <trkpt lat="45.72341" lon="6.69852">
        <ele>1990</ele>
        <time>2026-07-29T10:47:05.716Z</time>
      </trkpt>
      <trkpt lat="45.72342" lon="6.69854">
        <ele>1990</ele>
        <time>2026-07-29T10:47:06.716Z</time>
      </trkpt>
      <trkpt lat="45.72343" lon="6.69857">
        <ele>1990</ele>
        <time>2026-07-29T10:47:07.716Z</time>
      </trkpt>
      <trkpt lat="45.72344" lon="6.69858">
        <ele>1991</ele>
        <time>2026-07-29T10:47:08.716Z</time>
      </trkpt>
      <trkpt lat="45.72345" lon="6.69859">
        <ele>1991</ele>
        <time>2026-07-29T10:47:09.716Z</time>
      </trkpt>
      <trkpt lat="45.72346" lon="6.69861">
        <ele>1992</ele>
        <time>2026-07-29T10:47:10.716Z</time>
      </trkpt>
      <trkpt lat="45.72347" lon="6.69862">
        <ele>1992</ele>
        <time>2026-07-29T10:47:11.716Z</time>
      </trkpt>
      <trkpt lat="45.72348" lon="6.69863">
        <ele>1992</ele>
        <time>2026-07-29T10:47:12.716Z</time>
      </trkpt>
      <trkpt lat="45.7235" lon="6.69865">
        <ele>1992</ele>
        <time>2026-07-29T10:47:13.716Z</time>
      </trkpt>
      <trkpt lat="45.72351" lon="6.69866">
        <ele>1992</ele>
        <time>2026-07-29T10:47:14.716Z</time>
      </trkpt>
      <trkpt lat="45.72352" lon="6.69867">
        <ele>1991</ele>
        <time>2026-07-29T10:47:15.716Z</time>
      </trkpt>
      <trkpt lat="45.72352" lon="6.69868">
        <ele>1991</ele>
        <time>2026-07-29T10:47:16.716Z</time>
      </trkpt>
      <trkpt lat="45.72353" lon="6.69869">
        <ele>1991</ele>
        <time>2026-07-29T10:47:17.716Z</time>
      </trkpt>
      <trkpt lat="45.72354" lon="6.6987">
        <ele>1991</ele>
        <time>2026-07-29T10:47:18.716Z</time>
      </trkpt>
      <trkpt lat="45.72355" lon="6.69871">
        <ele>1991</ele>
        <time>2026-07-29T10:47:19.716Z</time>
      </trkpt>
      <trkpt lat="45.72356" lon="6.69872">
        <ele>1991</ele>
        <time>2026-07-29T10:47:20.716Z</time>
      </trkpt>
      <trkpt lat="45.72357" lon="6.69874">
        <ele>1991</ele>
        <time>2026-07-29T10:47:21.716Z</time>
      </trkpt>
      <trkpt lat="45.72357" lon="6.69875">
        <ele>1991</ele>
        <time>2026-07-29T10:47:22.716Z</time>
      </trkpt>
      <trkpt lat="45.72358" lon="6.69876">
        <ele>1991</ele>
        <time>2026-07-29T10:47:23.716Z</time>
      </trkpt>
      <trkpt lat="45.72358" lon="6.69877">
        <ele>1992</ele>
        <time>2026-07-29T10:47:24.716Z</time>
      </trkpt>
      <trkpt lat="45.72359" lon="6.69878">
        <ele>1992</ele>
        <time>2026-07-29T10:47:25.716Z</time>
      </trkpt>
      <trkpt lat="45.72359" lon="6.69879">
        <ele>1992</ele>
        <time>2026-07-29T10:47:26.716Z</time>
      </trkpt>
      <trkpt lat="45.7236" lon="6.6988">
        <ele>1992</ele>
        <time>2026-07-29T10:47:27.716Z</time>
      </trkpt>
      <trkpt lat="45.7236" lon="6.69881">
        <ele>1992</ele>
        <time>2026-07-29T10:47:28.716Z</time>
      </trkpt>
      <trkpt lat="45.72361" lon="6.69882">
        <ele>1993</ele>
        <time>2026-07-29T10:47:29.716Z</time>
      </trkpt>
      <trkpt lat="45.72362" lon="6.69883">
        <ele>1993</ele>
        <time>2026-07-29T10:47:30.716Z</time>
      </trkpt>
      <trkpt lat="45.72363" lon="6.69883">
        <ele>1993</ele>
        <time>2026-07-29T10:47:31.716Z</time>
      </trkpt>
      <trkpt lat="45.72364" lon="6.69883">
        <ele>1993</ele>
        <time>2026-07-29T10:47:32.716Z</time>
      </trkpt>
      <trkpt lat="45.72364" lon="6.69883">
        <ele>1993</ele>
        <time>2026-07-29T10:47:33.716Z</time>
      </trkpt>
      <trkpt lat="45.72366" lon="6.69883">
        <ele>1993</ele>
        <time>2026-07-29T10:47:34.716Z</time>
      </trkpt>
      <trkpt lat="45.72367" lon="6.69883">
        <ele>1993</ele>
        <time>2026-07-29T10:47:35.716Z</time>
      </trkpt>
      <trkpt lat="45.72368" lon="6.69883">
        <ele>1994</ele>
        <time>2026-07-29T10:47:36.716Z</time>
      </trkpt>
      <trkpt lat="45.72369" lon="6.69884">
        <ele>1994</ele>
        <time>2026-07-29T10:47:37.716Z</time>
      </trkpt>
      <trkpt lat="45.7237" lon="6.69885">
        <ele>1994</ele>
        <time>2026-07-29T10:47:38.716Z</time>
      </trkpt>
      <trkpt lat="45.7237" lon="6.69887">
        <ele>1994</ele>
        <time>2026-07-29T10:47:39.716Z</time>
      </trkpt>
      <trkpt lat="45.72371" lon="6.69888">
        <ele>1994</ele>
        <time>2026-07-29T10:47:40.716Z</time>
      </trkpt>
      <trkpt lat="45.72371" lon="6.6989">
        <ele>1994</ele>
        <time>2026-07-29T10:47:41.716Z</time>
      </trkpt>
      <trkpt lat="45.72371" lon="6.69891">
        <ele>1994</ele>
        <time>2026-07-29T10:47:42.716Z</time>
      </trkpt>
      <trkpt lat="45.72371" lon="6.69894">
        <ele>1994</ele>
        <time>2026-07-29T10:47:43.716Z</time>
      </trkpt>
      <trkpt lat="45.72371" lon="6.69895">
        <ele>1994</ele>
        <time>2026-07-29T10:47:44.716Z</time>
      </trkpt>
      <trkpt lat="45.72371" lon="6.69897">
        <ele>1994</ele>
        <time>2026-07-29T10:47:45.716Z</time>
      </trkpt>
      <trkpt lat="45.72371" lon="6.69898">
        <ele>1995</ele>
        <time>2026-07-29T10:47:46.716Z</time>
      </trkpt>
      <trkpt lat="45.72372" lon="6.69898">
        <ele>1995</ele>
        <time>2026-07-29T10:47:47.716Z</time>
      </trkpt>
      <trkpt lat="45.72372" lon="6.69899">
        <ele>1995</ele>
        <time>2026-07-29T10:47:48.716Z</time>
      </trkpt>
      <trkpt lat="45.72373" lon="6.699">
        <ele>1996</ele>
        <time>2026-07-29T10:47:49.717Z</time>
      </trkpt>
      <trkpt lat="45.72374" lon="6.69901">
        <ele>1996</ele>
        <time>2026-07-29T10:47:50.716Z</time>
      </trkpt>
      <trkpt lat="45.72375" lon="6.69902">
        <ele>1996</ele>
        <time>2026-07-29T10:47:51.716Z</time>
      </trkpt>
      <trkpt lat="45.72376" lon="6.69903">
        <ele>1997</ele>
        <time>2026-07-29T10:47:52.716Z</time>
      </trkpt>
      <trkpt lat="45.72377" lon="6.69904">
        <ele>1997</ele>
        <time>2026-07-29T10:47:53.716Z</time>
      </trkpt>
      <trkpt lat="45.72378" lon="6.69905">
        <ele>1998</ele>
        <time>2026-07-29T10:47:54.716Z</time>
      </trkpt>
      <trkpt lat="45.72379" lon="6.69906">
        <ele>1998</ele>
        <time>2026-07-29T10:47:55.716Z</time>
      </trkpt>
      <trkpt lat="45.7238" lon="6.69907">
        <ele>1998</ele>
        <time>2026-07-29T10:47:56.716Z</time>
      </trkpt>
      <trkpt lat="45.72381" lon="6.69907">
        <ele>1998</ele>
        <time>2026-07-29T10:47:57.716Z</time>
      </trkpt>
      <trkpt lat="45.72382" lon="6.69908">
        <ele>1998</ele>
        <time>2026-07-29T10:47:58.716Z</time>
      </trkpt>
      <trkpt lat="45.72382" lon="6.69909">
        <ele>1998</ele>
        <time>2026-07-29T10:47:59.716Z</time>
      </trkpt>
      <trkpt lat="45.72383" lon="6.69909">
        <ele>1998</ele>
        <time>2026-07-29T10:48:00.716Z</time>
      </trkpt>
      <trkpt lat="45.72384" lon="6.69909">
        <ele>1998</ele>
        <time>2026-07-29T10:48:01.716Z</time>
      </trkpt>
      <trkpt lat="45.72385" lon="6.69908">
        <ele>1998</ele>
        <time>2026-07-29T10:48:02.716Z</time>
      </trkpt>
      <trkpt lat="45.72386" lon="6.69908">
        <ele>1998</ele>
        <time>2026-07-29T10:48:03.716Z</time>
      </trkpt>
      <trkpt lat="45.72387" lon="6.69908">
        <ele>1998</ele>
        <time>2026-07-29T10:48:04.716Z</time>
      </trkpt>
      <trkpt lat="45.72388" lon="6.69908">
        <ele>1999</ele>
        <time>2026-07-29T10:48:05.716Z</time>
      </trkpt>
      <trkpt lat="45.7239" lon="6.69909">
        <ele>1999</ele>
        <time>2026-07-29T10:48:06.716Z</time>
      </trkpt>
      <trkpt lat="45.7239" lon="6.6991">
        <ele>1999</ele>
        <time>2026-07-29T10:48:07.716Z</time>
      </trkpt>
      <trkpt lat="45.72391" lon="6.69911">
        <ele>1999</ele>
        <time>2026-07-29T10:48:08.716Z</time>
      </trkpt>
      <trkpt lat="45.72392" lon="6.69912">
        <ele>1999</ele>
        <time>2026-07-29T10:48:09.716Z</time>
      </trkpt>
      <trkpt lat="45.72393" lon="6.69913">
        <ele>1999</ele>
        <time>2026-07-29T10:48:10.716Z</time>
      </trkpt>
      <trkpt lat="45.72394" lon="6.69914">
        <ele>2000</ele>
        <time>2026-07-29T10:48:11.716Z</time>
      </trkpt>
      <trkpt lat="45.72394" lon="6.69915">
        <ele>2000</ele>
        <time>2026-07-29T10:48:12.716Z</time>
      </trkpt>
      <trkpt lat="45.72395" lon="6.69915">
        <ele>2000</ele>
        <time>2026-07-29T10:48:13.716Z</time>
      </trkpt>
      <trkpt lat="45.72397" lon="6.69916">
        <ele>2001</ele>
        <time>2026-07-29T10:48:14.716Z</time>
      </trkpt>
      <trkpt lat="45.72398" lon="6.69917">
        <ele>2001</ele>
        <time>2026-07-29T10:48:15.716Z</time>
      </trkpt>
      <trkpt lat="45.72399" lon="6.69919">
        <ele>2002</ele>
        <time>2026-07-29T10:48:16.716Z</time>
      </trkpt>
      <trkpt lat="45.72399" lon="6.69921">
        <ele>2002</ele>
        <time>2026-07-29T10:48:17.716Z</time>
      </trkpt>
      <trkpt lat="45.724" lon="6.69923">
        <ele>2002</ele>
        <time>2026-07-29T10:48:18.716Z</time>
      </trkpt>
      <trkpt lat="45.724" lon="6.69925">
        <ele>2002</ele>
        <time>2026-07-29T10:48:19.716Z</time>
      </trkpt>
      <trkpt lat="45.724" lon="6.69927">
        <ele>2002</ele>
        <time>2026-07-29T10:48:20.716Z</time>
      </trkpt>
      <trkpt lat="45.724" lon="6.69928">
        <ele>2002</ele>
        <time>2026-07-29T10:48:21.716Z</time>
      </trkpt>
      <trkpt lat="45.724" lon="6.6993">
        <ele>2003</ele>
        <time>2026-07-29T10:48:22.716Z</time>
      </trkpt>
      <trkpt lat="45.72399" lon="6.69931">
        <ele>2003</ele>
        <time>2026-07-29T10:48:23.716Z</time>
      </trkpt>
      <trkpt lat="45.72399" lon="6.69933">
        <ele>2004</ele>
        <time>2026-07-29T10:48:24.716Z</time>
      </trkpt>
      <trkpt lat="45.72398" lon="6.69935">
        <ele>2004</ele>
        <time>2026-07-29T10:48:25.716Z</time>
      </trkpt>
      <trkpt lat="45.72398" lon="6.69936">
        <ele>2005</ele>
        <time>2026-07-29T10:48:26.716Z</time>
      </trkpt>
      <trkpt lat="45.72397" lon="6.69937">
        <ele>2005</ele>
        <time>2026-07-29T10:48:27.716Z</time>
      </trkpt>
      <trkpt lat="45.72397" lon="6.69939">
        <ele>2006</ele>
        <time>2026-07-29T10:48:28.716Z</time>
      </trkpt>
      <trkpt lat="45.72396" lon="6.69941">
        <ele>2007</ele>
        <time>2026-07-29T10:48:29.716Z</time>
      </trkpt>
      <trkpt lat="45.72396" lon="6.69942">
        <ele>2007</ele>
        <time>2026-07-29T10:48:30.716Z</time>
      </trkpt>
      <trkpt lat="45.72395" lon="6.69943">
        <ele>2008</ele>
        <time>2026-07-29T10:48:31.716Z</time>
      </trkpt>
      <trkpt lat="45.72394" lon="6.69945">
        <ele>2008</ele>
        <time>2026-07-29T10:48:32.716Z</time>
      </trkpt>
      <trkpt lat="45.72393" lon="6.69946">
        <ele>2008</ele>
        <time>2026-07-29T10:48:33.716Z</time>
      </trkpt>
      <trkpt lat="45.72393" lon="6.69948">
        <ele>2008</ele>
        <time>2026-07-29T10:48:34.716Z</time>
      </trkpt>
      <trkpt lat="45.72393" lon="6.69949">
        <ele>2008</ele>
        <time>2026-07-29T10:48:35.716Z</time>
      </trkpt>
      <trkpt lat="45.72393" lon="6.6995">
        <ele>2009</ele>
        <time>2026-07-29T10:48:36.716Z</time>
      </trkpt>
      <trkpt lat="45.72393" lon="6.69951">
        <ele>2009</ele>
        <time>2026-07-29T10:48:37.716Z</time>
      </trkpt>
      <trkpt lat="45.72393" lon="6.69951">
        <ele>2010</ele>
        <time>2026-07-29T10:48:38.716Z</time>
      </trkpt>
      <trkpt lat="45.72394" lon="6.69951">
        <ele>2010</ele>
        <time>2026-07-29T10:48:39.716Z</time>
      </trkpt>
      <trkpt lat="45.72394" lon="6.69951">
        <ele>2010</ele>
        <time>2026-07-29T10:48:40.716Z</time>
      </trkpt>
      <trkpt lat="45.72395" lon="6.6995">
        <ele>2010</ele>
        <time>2026-07-29T10:48:41.716Z</time>
      </trkpt>
      <trkpt lat="45.72396" lon="6.6995">
        <ele>2011</ele>
        <time>2026-07-29T10:48:42.716Z</time>
      </trkpt>
      <trkpt lat="45.72396" lon="6.69951">
        <ele>2011</ele>
        <time>2026-07-29T10:48:43.716Z</time>
      </trkpt>
      <trkpt lat="45.72397" lon="6.69951">
        <ele>2011</ele>
        <time>2026-07-29T10:48:44.716Z</time>
      </trkpt>
      <trkpt lat="45.72397" lon="6.69952">
        <ele>2010</ele>
        <time>2026-07-29T10:48:45.716Z</time>
      </trkpt>
      <trkpt lat="45.72398" lon="6.69952">
        <ele>2010</ele>
        <time>2026-07-29T10:48:46.716Z</time>
      </trkpt>
      <trkpt lat="45.72399" lon="6.69953">
        <ele>2009</ele>
        <time>2026-07-29T10:48:47.716Z</time>
      </trkpt>
      <trkpt lat="45.72399" lon="6.69953">
        <ele>2009</ele>
        <time>2026-07-29T10:48:48.716Z</time>
      </trkpt>
      <trkpt lat="45.724" lon="6.69954">
        <ele>2009</ele>
        <time>2026-07-29T10:48:49.716Z</time>
      </trkpt>
      <trkpt lat="45.72401" lon="6.69954">
        <ele>2010</ele>
        <time>2026-07-29T10:48:50.716Z</time>
      </trkpt>
      <trkpt lat="45.72401" lon="6.69955">
        <ele>2010</ele>
        <time>2026-07-29T10:48:51.716Z</time>
      </trkpt>
      <trkpt lat="45.72402" lon="6.69955">
        <ele>2010</ele>
        <time>2026-07-29T10:48:52.716Z</time>
      </trkpt>
      <trkpt lat="45.72403" lon="6.69955">
        <ele>2009</ele>
        <time>2026-07-29T10:48:53.716Z</time>
      </trkpt>
      <trkpt lat="45.72404" lon="6.69956">
        <ele>2009</ele>
        <time>2026-07-29T10:48:54.716Z</time>
      </trkpt>
      <trkpt lat="45.72405" lon="6.69956">
        <ele>2009</ele>
        <time>2026-07-29T10:48:55.716Z</time>
      </trkpt>
      <trkpt lat="45.72406" lon="6.69956">
        <ele>2008</ele>
        <time>2026-07-29T10:48:56.716Z</time>
      </trkpt>
      <trkpt lat="45.72406" lon="6.69956">
        <ele>2008</ele>
        <time>2026-07-29T10:48:57.716Z</time>
      </trkpt>
      <trkpt lat="45.72407" lon="6.69956">
        <ele>2008</ele>
        <time>2026-07-29T10:48:58.716Z</time>
      </trkpt>
      <trkpt lat="45.72408" lon="6.69956">
        <ele>2008</ele>
        <time>2026-07-29T10:48:59.716Z</time>
      </trkpt>
      <trkpt lat="45.72409" lon="6.69956">
        <ele>2008</ele>
        <time>2026-07-29T10:49:00.716Z</time>
      </trkpt>
      <trkpt lat="45.7241" lon="6.69955">
        <ele>2008</ele>
        <time>2026-07-29T10:49:01.716Z</time>
      </trkpt>
      <trkpt lat="45.72411" lon="6.69955">
        <ele>2008</ele>
        <time>2026-07-29T10:49:02.716Z</time>
      </trkpt>
      <trkpt lat="45.72411" lon="6.69955">
        <ele>2008</ele>
        <time>2026-07-29T10:49:03.716Z</time>
      </trkpt>
      <trkpt lat="45.72412" lon="6.69955">
        <ele>2008</ele>
        <time>2026-07-29T10:49:04.716Z</time>
      </trkpt>
      <trkpt lat="45.72413" lon="6.69955">
        <ele>2008</ele>
        <time>2026-07-29T10:49:05.716Z</time>
      </trkpt>
      <trkpt lat="45.72414" lon="6.69955">
        <ele>2009</ele>
        <time>2026-07-29T10:49:06.716Z</time>
      </trkpt>
      <trkpt lat="45.72415" lon="6.69956">
        <ele>2010</ele>
        <time>2026-07-29T10:49:07.716Z</time>
      </trkpt>
      <trkpt lat="45.72416" lon="6.69955">
        <ele>2011</ele>
        <time>2026-07-29T10:49:08.716Z</time>
      </trkpt>
      <trkpt lat="45.72416" lon="6.69955">
        <ele>2011</ele>
        <time>2026-07-29T10:49:09.716Z</time>
      </trkpt>
      <trkpt lat="45.72417" lon="6.69955">
        <ele>2012</ele>
        <time>2026-07-29T10:49:10.716Z</time>
      </trkpt>
      <trkpt lat="45.72418" lon="6.69954">
        <ele>2013</ele>
        <time>2026-07-29T10:49:11.716Z</time>
      </trkpt>
      <trkpt lat="45.72419" lon="6.69954">
        <ele>2013</ele>
        <time>2026-07-29T10:49:12.716Z</time>
      </trkpt>
      <trkpt lat="45.7242" lon="6.69953">
        <ele>2013</ele>
        <time>2026-07-29T10:49:13.716Z</time>
      </trkpt>
      <trkpt lat="45.7242" lon="6.69953">
        <ele>2012</ele>
        <time>2026-07-29T10:49:14.716Z</time>
      </trkpt>
      <trkpt lat="45.72421" lon="6.69952">
        <ele>2012</ele>
        <time>2026-07-29T10:49:15.716Z</time>
      </trkpt>
      <trkpt lat="45.72421" lon="6.69952">
        <ele>2012</ele>
        <time>2026-07-29T10:49:16.717Z</time>
      </trkpt>
      <trkpt lat="45.72422" lon="6.69951">
        <ele>2013</ele>
        <time>2026-07-29T10:49:17.716Z</time>
      </trkpt>
      <trkpt lat="45.72423" lon="6.6995">
        <ele>2013</ele>
        <time>2026-07-29T10:49:18.716Z</time>
      </trkpt>
      <trkpt lat="45.72424" lon="6.6995">
        <ele>2013</ele>
        <time>2026-07-29T10:49:19.716Z</time>
      </trkpt>
      <trkpt lat="45.72425" lon="6.69949">
        <ele>2013</ele>
        <time>2026-07-29T10:49:20.716Z</time>
      </trkpt>
      <trkpt lat="45.72426" lon="6.69948">
        <ele>2013</ele>
        <time>2026-07-29T10:49:21.716Z</time>
      </trkpt>
      <trkpt lat="45.72427" lon="6.69948">
        <ele>2013</ele>
        <time>2026-07-29T10:49:22.716Z</time>
      </trkpt>
      <trkpt lat="45.72428" lon="6.69947">
        <ele>2013</ele>
        <time>2026-07-29T10:49:23.716Z</time>
      </trkpt>
      <trkpt lat="45.72429" lon="6.69946">
        <ele>2013</ele>
        <time>2026-07-29T10:49:24.716Z</time>
      </trkpt>
      <trkpt lat="45.72429" lon="6.69946">
        <ele>2012</ele>
        <time>2026-07-29T10:49:25.716Z</time>
      </trkpt>
      <trkpt lat="45.7243" lon="6.69945">
        <ele>2012</ele>
        <time>2026-07-29T10:49:26.716Z</time>
      </trkpt>
      <trkpt lat="45.7243" lon="6.69943">
        <ele>2013</ele>
        <time>2026-07-29T10:49:27.716Z</time>
      </trkpt>
      <trkpt lat="45.7243" lon="6.69942">
        <ele>2013</ele>
        <time>2026-07-29T10:49:28.716Z</time>
      </trkpt>
      <trkpt lat="45.7243" lon="6.6994">
        <ele>2014</ele>
        <time>2026-07-29T10:49:29.716Z</time>
      </trkpt>
      <trkpt lat="45.7243" lon="6.69939">
        <ele>2015</ele>
        <time>2026-07-29T10:49:30.716Z</time>
      </trkpt>
      <trkpt lat="45.72431" lon="6.69938">
        <ele>2016</ele>
        <time>2026-07-29T10:49:31.716Z</time>
      </trkpt>
      <trkpt lat="45.72432" lon="6.69937">
        <ele>2017</ele>
        <time>2026-07-29T10:49:32.716Z</time>
      </trkpt>
      <trkpt lat="45.72432" lon="6.69936">
        <ele>2017</ele>
        <time>2026-07-29T10:49:33.716Z</time>
      </trkpt>
      <trkpt lat="45.72433" lon="6.69935">
        <ele>2018</ele>
        <time>2026-07-29T10:49:34.716Z</time>
      </trkpt>
      <trkpt lat="45.72434" lon="6.69934">
        <ele>2018</ele>
        <time>2026-07-29T10:49:35.716Z</time>
      </trkpt>
      <trkpt lat="45.72435" lon="6.69934">
        <ele>2018</ele>
        <time>2026-07-29T10:49:36.716Z</time>
      </trkpt>
      <trkpt lat="45.72437" lon="6.69934">
        <ele>2018</ele>
        <time>2026-07-29T10:49:37.716Z</time>
      </trkpt>
      <trkpt lat="45.72437" lon="6.69935">
        <ele>2018</ele>
        <time>2026-07-29T10:49:38.716Z</time>
      </trkpt>
      <trkpt lat="45.72438" lon="6.69936">
        <ele>2018</ele>
        <time>2026-07-29T10:49:39.716Z</time>
      </trkpt>
      <trkpt lat="45.72438" lon="6.69936">
        <ele>2018</ele>
        <time>2026-07-29T10:49:40.716Z</time>
      </trkpt>
      <trkpt lat="45.72439" lon="6.69937">
        <ele>2018</ele>
        <time>2026-07-29T10:49:41.716Z</time>
      </trkpt>
      <trkpt lat="45.72439" lon="6.69938">
        <ele>2018</ele>
        <time>2026-07-29T10:49:42.716Z</time>
      </trkpt>
      <trkpt lat="45.7244" lon="6.69939">
        <ele>2018</ele>
        <time>2026-07-29T10:49:43.716Z</time>
      </trkpt>
      <trkpt lat="45.72441" lon="6.6994">
        <ele>2018</ele>
        <time>2026-07-29T10:49:44.716Z</time>
      </trkpt>
      <trkpt lat="45.72441" lon="6.69942">
        <ele>2018</ele>
        <time>2026-07-29T10:49:45.716Z</time>
      </trkpt>
      <trkpt lat="45.72442" lon="6.69943">
        <ele>2018</ele>
        <time>2026-07-29T10:49:46.716Z</time>
      </trkpt>
      <trkpt lat="45.72442" lon="6.69944">
        <ele>2018</ele>
        <time>2026-07-29T10:49:47.716Z</time>
      </trkpt>
      <trkpt lat="45.72443" lon="6.69946">
        <ele>2019</ele>
        <time>2026-07-29T10:49:48.716Z</time>
      </trkpt>
      <trkpt lat="45.72443" lon="6.69947">
        <ele>2019</ele>
        <time>2026-07-29T10:49:49.716Z</time>
      </trkpt>
      <trkpt lat="45.72444" lon="6.69948">
        <ele>2020</ele>
        <time>2026-07-29T10:49:50.716Z</time>
      </trkpt>
      <trkpt lat="45.72445" lon="6.6995">
        <ele>2020</ele>
        <time>2026-07-29T10:49:51.716Z</time>
      </trkpt>
      <trkpt lat="45.72445" lon="6.69951">
        <ele>2021</ele>
        <time>2026-07-29T10:49:52.716Z</time>
      </trkpt>
      <trkpt lat="45.72445" lon="6.69953">
        <ele>2021</ele>
        <time>2026-07-29T10:49:53.716Z</time>
      </trkpt>
      <trkpt lat="45.72445" lon="6.69955">
        <ele>2022</ele>
        <time>2026-07-29T10:49:54.716Z</time>
      </trkpt>
      <trkpt lat="45.72445" lon="6.69956">
        <ele>2022</ele>
        <time>2026-07-29T10:49:55.716Z</time>
      </trkpt>
      <trkpt lat="45.72445" lon="6.69958">
        <ele>2023</ele>
        <time>2026-07-29T10:49:56.716Z</time>
      </trkpt>
      <trkpt lat="45.72445" lon="6.69959">
        <ele>2023</ele>
        <time>2026-07-29T10:49:57.716Z</time>
      </trkpt>
      <trkpt lat="45.72445" lon="6.6996">
        <ele>2023</ele>
        <time>2026-07-29T10:49:58.716Z</time>
      </trkpt>
      <trkpt lat="45.72445" lon="6.69962">
        <ele>2024</ele>
        <time>2026-07-29T10:49:59.716Z</time>
      </trkpt>
      <trkpt lat="45.72445" lon="6.69963">
        <ele>2024</ele>
        <time>2026-07-29T10:50:00.716Z</time>
      </trkpt>
      <trkpt lat="45.72446" lon="6.69964">
        <ele>2025</ele>
        <time>2026-07-29T10:50:01.716Z</time>
      </trkpt>
      <trkpt lat="45.72446" lon="6.69965">
        <ele>2025</ele>
        <time>2026-07-29T10:50:02.716Z</time>
      </trkpt>
      <trkpt lat="45.72447" lon="6.69966">
        <ele>2026</ele>
        <time>2026-07-29T10:50:03.716Z</time>
      </trkpt>
      <trkpt lat="45.72447" lon="6.69967">
        <ele>2026</ele>
        <time>2026-07-29T10:50:04.716Z</time>
      </trkpt>
      <trkpt lat="45.72448" lon="6.69967">
        <ele>2026</ele>
        <time>2026-07-29T10:50:05.716Z</time>
      </trkpt>
      <trkpt lat="45.72448" lon="6.69968">
        <ele>2026</ele>
        <time>2026-07-29T10:50:06.716Z</time>
      </trkpt>
      <trkpt lat="45.72449" lon="6.69969">
        <ele>2026</ele>
        <time>2026-07-29T10:50:07.716Z</time>
      </trkpt>
      <trkpt lat="45.72449" lon="6.69971">
        <ele>2026</ele>
        <time>2026-07-29T10:50:08.716Z</time>
      </trkpt>
      <trkpt lat="45.72449" lon="6.69972">
        <ele>2026</ele>
        <time>2026-07-29T10:50:09.716Z</time>
      </trkpt>
      <trkpt lat="45.72449" lon="6.69974">
        <ele>2026</ele>
        <time>2026-07-29T10:50:10.716Z</time>
      </trkpt>
      <trkpt lat="45.7245" lon="6.69975">
        <ele>2027</ele>
        <time>2026-07-29T10:50:11.716Z</time>
      </trkpt>
      <trkpt lat="45.7245" lon="6.69976">
        <ele>2027</ele>
        <time>2026-07-29T10:50:12.716Z</time>
      </trkpt>
      <trkpt lat="45.72451" lon="6.69977">
        <ele>2027</ele>
        <time>2026-07-29T10:50:13.716Z</time>
      </trkpt>
      <trkpt lat="45.72451" lon="6.69978">
        <ele>2028</ele>
        <time>2026-07-29T10:50:14.716Z</time>
      </trkpt>
      <trkpt lat="45.72451" lon="6.69979">
        <ele>2028</ele>
        <time>2026-07-29T10:50:15.716Z</time>
      </trkpt>
      <trkpt lat="45.72452" lon="6.6998">
        <ele>2028</ele>
        <time>2026-07-29T10:50:16.716Z</time>
      </trkpt>
      <trkpt lat="45.72452" lon="6.69982">
        <ele>2028</ele>
        <time>2026-07-29T10:50:17.716Z</time>
      </trkpt>
      <trkpt lat="45.72453" lon="6.69983">
        <ele>2027</ele>
        <time>2026-07-29T10:50:18.716Z</time>
      </trkpt>
      <trkpt lat="45.72454" lon="6.69984">
        <ele>2027</ele>
        <time>2026-07-29T10:50:19.716Z</time>
      </trkpt>
      <trkpt lat="45.72455" lon="6.69985">
        <ele>2027</ele>
        <time>2026-07-29T10:50:20.716Z</time>
      </trkpt>
      <trkpt lat="45.72456" lon="6.69986">
        <ele>2027</ele>
        <time>2026-07-29T10:50:21.716Z</time>
      </trkpt>
      <trkpt lat="45.72457" lon="6.69987">
        <ele>2028</ele>
        <time>2026-07-29T10:50:22.716Z</time>
      </trkpt>
      <trkpt lat="45.72458" lon="6.69989">
        <ele>2028</ele>
        <time>2026-07-29T10:50:23.716Z</time>
      </trkpt>
      <trkpt lat="45.72459" lon="6.6999">
        <ele>2028</ele>
        <time>2026-07-29T10:50:24.716Z</time>
      </trkpt>
      <trkpt lat="45.72459" lon="6.69991">
        <ele>2028</ele>
        <time>2026-07-29T10:50:25.716Z</time>
      </trkpt>
      <trkpt lat="45.72461" lon="6.69992">
        <ele>2029</ele>
        <time>2026-07-29T10:50:26.716Z</time>
      </trkpt>
      <trkpt lat="45.72461" lon="6.69992">
        <ele>2029</ele>
        <time>2026-07-29T10:50:27.716Z</time>
      </trkpt>
      <trkpt lat="45.72462" lon="6.69992">
        <ele>2029</ele>
        <time>2026-07-29T10:50:28.716Z</time>
      </trkpt>
      <trkpt lat="45.72462" lon="6.69993">
        <ele>2029</ele>
        <time>2026-07-29T10:50:29.716Z</time>
      </trkpt>
      <trkpt lat="45.72463" lon="6.69993">
        <ele>2029</ele>
        <time>2026-07-29T10:50:30.716Z</time>
      </trkpt>
      <trkpt lat="45.72464" lon="6.69994">
        <ele>2029</ele>
        <time>2026-07-29T10:50:31.716Z</time>
      </trkpt>
      <trkpt lat="45.72465" lon="6.69996">
        <ele>2029</ele>
        <time>2026-07-29T10:50:32.716Z</time>
      </trkpt>
      <trkpt lat="45.72466" lon="6.69997">
        <ele>2030</ele>
        <time>2026-07-29T10:50:33.716Z</time>
      </trkpt>
      <trkpt lat="45.72466" lon="6.69997">
        <ele>2030</ele>
        <time>2026-07-29T10:50:34.716Z</time>
      </trkpt>
      <trkpt lat="45.72466" lon="6.69998">
        <ele>2031</ele>
        <time>2026-07-29T10:50:35.716Z</time>
      </trkpt>
      <trkpt lat="45.72466" lon="6.69998">
        <ele>2032</ele>
        <time>2026-07-29T10:50:36.716Z</time>
      </trkpt>
      <trkpt lat="45.72466" lon="6.69999">
        <ele>2032</ele>
        <time>2026-07-29T10:50:37.716Z</time>
      </trkpt>
      <trkpt lat="45.72466" lon="6.7">
        <ele>2032</ele>
        <time>2026-07-29T10:50:38.716Z</time>
      </trkpt>
      <trkpt lat="45.72466" lon="6.70001">
        <ele>2032</ele>
        <time>2026-07-29T10:50:39.716Z</time>
      </trkpt>
      <trkpt lat="45.72467" lon="6.70003">
        <ele>2032</ele>
        <time>2026-07-29T10:50:40.716Z</time>
      </trkpt>
      <trkpt lat="45.72468" lon="6.70004">
        <ele>2032</ele>
        <time>2026-07-29T10:50:41.716Z</time>
      </trkpt>
      <trkpt lat="45.72468" lon="6.70005">
        <ele>2032</ele>
        <time>2026-07-29T10:50:42.716Z</time>
      </trkpt>
      <trkpt lat="45.72468" lon="6.70005">
        <ele>2032</ele>
        <time>2026-07-29T10:50:43.716Z</time>
      </trkpt>
      <trkpt lat="45.72469" lon="6.70006">
        <ele>2033</ele>
        <time>2026-07-29T10:50:44.716Z</time>
      </trkpt>
      <trkpt lat="45.7247" lon="6.70007">
        <ele>2033</ele>
        <time>2026-07-29T10:50:45.716Z</time>
      </trkpt>
      <trkpt lat="45.72471" lon="6.70008">
        <ele>2033</ele>
        <time>2026-07-29T10:50:46.716Z</time>
      </trkpt>
      <trkpt lat="45.72471" lon="6.70009">
        <ele>2033</ele>
        <time>2026-07-29T10:50:47.716Z</time>
      </trkpt>
      <trkpt lat="45.72471" lon="6.7001">
        <ele>2034</ele>
        <time>2026-07-29T10:50:48.716Z</time>
      </trkpt>
      <trkpt lat="45.72472" lon="6.70011">
        <ele>2034</ele>
        <time>2026-07-29T10:50:49.716Z</time>
      </trkpt>
      <trkpt lat="45.72472" lon="6.70013">
        <ele>2034</ele>
        <time>2026-07-29T10:50:50.716Z</time>
      </trkpt>
      <trkpt lat="45.72472" lon="6.70015">
        <ele>2034</ele>
        <time>2026-07-29T10:50:51.716Z</time>
      </trkpt>
      <trkpt lat="45.72471" lon="6.70016">
        <ele>2035</ele>
        <time>2026-07-29T10:50:52.716Z</time>
      </trkpt>
      <trkpt lat="45.72472" lon="6.70018">
        <ele>2035</ele>
        <time>2026-07-29T10:50:53.716Z</time>
      </trkpt>
      <trkpt lat="45.72472" lon="6.7002">
        <ele>2035</ele>
        <time>2026-07-29T10:50:54.716Z</time>
      </trkpt>
      <trkpt lat="45.72473" lon="6.70021">
        <ele>2035</ele>
        <time>2026-07-29T10:50:55.716Z</time>
      </trkpt>
      <trkpt lat="45.72473" lon="6.70022">
        <ele>2035</ele>
        <time>2026-07-29T10:50:56.716Z</time>
      </trkpt>
      <trkpt lat="45.72474" lon="6.70023">
        <ele>2035</ele>
        <time>2026-07-29T10:50:57.716Z</time>
      </trkpt>
      <trkpt lat="45.72474" lon="6.70024">
        <ele>2036</ele>
        <time>2026-07-29T10:50:58.716Z</time>
      </trkpt>
      <trkpt lat="45.72475" lon="6.70025">
        <ele>2036</ele>
        <time>2026-07-29T10:50:59.716Z</time>
      </trkpt>
      <trkpt lat="45.72475" lon="6.70025">
        <ele>2037</ele>
        <time>2026-07-29T10:51:00.716Z</time>
      </trkpt>
      <trkpt lat="45.72476" lon="6.70026">
        <ele>2037</ele>
        <time>2026-07-29T10:51:01.716Z</time>
      </trkpt>
      <trkpt lat="45.72477" lon="6.70027">
        <ele>2038</ele>
        <time>2026-07-29T10:51:02.716Z</time>
      </trkpt>
      <trkpt lat="45.72476" lon="6.70028">
        <ele>2038</ele>
        <time>2026-07-29T10:51:03.716Z</time>
      </trkpt>
      <trkpt lat="45.72476" lon="6.70029">
        <ele>2039</ele>
        <time>2026-07-29T10:51:04.716Z</time>
      </trkpt>
      <trkpt lat="45.72477" lon="6.70031">
        <ele>2039</ele>
        <time>2026-07-29T10:51:05.716Z</time>
      </trkpt>
      <trkpt lat="45.72477" lon="6.70032">
        <ele>2040</ele>
        <time>2026-07-29T10:51:06.716Z</time>
      </trkpt>
      <trkpt lat="45.72478" lon="6.70033">
        <ele>2040</ele>
        <time>2026-07-29T10:51:07.716Z</time>
      </trkpt>
      <trkpt lat="45.72478" lon="6.70034">
        <ele>2040</ele>
        <time>2026-07-29T10:51:08.716Z</time>
      </trkpt>
      <trkpt lat="45.72479" lon="6.70036">
        <ele>2040</ele>
        <time>2026-07-29T10:51:09.716Z</time>
      </trkpt>
      <trkpt lat="45.7248" lon="6.70037">
        <ele>2041</ele>
        <time>2026-07-29T10:51:10.716Z</time>
      </trkpt>
      <trkpt lat="45.7248" lon="6.70038">
        <ele>2041</ele>
        <time>2026-07-29T10:51:11.716Z</time>
      </trkpt>
      <trkpt lat="45.7248" lon="6.70039">
        <ele>2041</ele>
        <time>2026-07-29T10:51:12.716Z</time>
      </trkpt>
      <trkpt lat="45.72481" lon="6.7004">
        <ele>2041</ele>
        <time>2026-07-29T10:51:13.716Z</time>
      </trkpt>
      <trkpt lat="45.72481" lon="6.7004">
        <ele>2041</ele>
        <time>2026-07-29T10:51:14.716Z</time>
      </trkpt>
      <trkpt lat="45.72482" lon="6.70041">
        <ele>2041</ele>
        <time>2026-07-29T10:51:15.716Z</time>
      </trkpt>
      <trkpt lat="45.72483" lon="6.70042">
        <ele>2041</ele>
        <time>2026-07-29T10:51:16.716Z</time>
      </trkpt>
      <trkpt lat="45.72483" lon="6.70043">
        <ele>2041</ele>
        <time>2026-07-29T10:51:17.716Z</time>
      </trkpt>
      <trkpt lat="45.72483" lon="6.70044">
        <ele>2041</ele>
        <time>2026-07-29T10:51:18.716Z</time>
      </trkpt>
      <trkpt lat="45.72483" lon="6.70045">
        <ele>2042</ele>
        <time>2026-07-29T10:51:19.716Z</time>
      </trkpt>
      <trkpt lat="45.72483" lon="6.70045">
        <ele>2042</ele>
        <time>2026-07-29T10:51:20.716Z</time>
      </trkpt>
      <trkpt lat="45.72484" lon="6.70046">
        <ele>2042</ele>
        <time>2026-07-29T10:51:21.716Z</time>
      </trkpt>
      <trkpt lat="45.72484" lon="6.70047">
        <ele>2043</ele>
        <time>2026-07-29T10:51:22.716Z</time>
      </trkpt>
      <trkpt lat="45.72484" lon="6.70047">
        <ele>2044</ele>
        <time>2026-07-29T10:51:23.716Z</time>
      </trkpt>
      <trkpt lat="45.72484" lon="6.70047">
        <ele>2044</ele>
        <time>2026-07-29T10:51:24.716Z</time>
      </trkpt>
      <trkpt lat="45.72484" lon="6.70047">
        <ele>2045</ele>
        <time>2026-07-29T10:51:25.716Z</time>
      </trkpt>
      <trkpt lat="45.72484" lon="6.70047">
        <ele>2045</ele>
        <time>2026-07-29T10:51:26.716Z</time>
      </trkpt>
      <trkpt lat="45.72484" lon="6.70047">
        <ele>2045</ele>
        <time>2026-07-29T10:51:27.716Z</time>
      </trkpt>
      <trkpt lat="45.72484" lon="6.70047">
        <ele>2045</ele>
        <time>2026-07-29T10:51:28.716Z</time>
      </trkpt>
      <trkpt lat="45.72484" lon="6.70047">
        <ele>2045</ele>
        <time>2026-07-29T10:51:29.716Z</time>
      </trkpt>
      <trkpt lat="45.72484" lon="6.70047">
        <ele>2045</ele>
        <time>2026-07-29T10:51:30.716Z</time>
      </trkpt>
      <trkpt lat="45.72485" lon="6.70047">
        <ele>2046</ele>
        <time>2026-07-29T10:51:31.716Z</time>
      </trkpt>
      <trkpt lat="45.72485" lon="6.70048">
        <ele>2046</ele>
        <time>2026-07-29T10:51:32.716Z</time>
      </trkpt>
      <trkpt lat="45.72486" lon="6.70048">
        <ele>2046</ele>
        <time>2026-07-29T10:51:33.716Z</time>
      </trkpt>
      <trkpt lat="45.72486" lon="6.70049">
        <ele>2047</ele>
        <time>2026-07-29T10:51:34.716Z</time>
      </trkpt>
      <trkpt lat="45.72487" lon="6.7005">
        <ele>2047</ele>
        <time>2026-07-29T10:51:35.716Z</time>
      </trkpt>
      <trkpt lat="45.72487" lon="6.70051">
        <ele>2047</ele>
        <time>2026-07-29T10:51:36.716Z</time>
      </trkpt>
      <trkpt lat="45.72487" lon="6.70052">
        <ele>2048</ele>
        <time>2026-07-29T10:51:37.716Z</time>
      </trkpt>
      <trkpt lat="45.72488" lon="6.70053">
        <ele>2048</ele>
        <time>2026-07-29T10:51:38.716Z</time>
      </trkpt>
      <trkpt lat="45.72488" lon="6.70054">
        <ele>2048</ele>
        <time>2026-07-29T10:51:39.716Z</time>
      </trkpt>
      <trkpt lat="45.72488" lon="6.70055">
        <ele>2049</ele>
        <time>2026-07-29T10:51:40.716Z</time>
      </trkpt>
      <trkpt lat="45.72489" lon="6.70057">
        <ele>2049</ele>
        <time>2026-07-29T10:51:41.716Z</time>
      </trkpt>
      <trkpt lat="45.72489" lon="6.70058">
        <ele>2049</ele>
        <time>2026-07-29T10:51:42.716Z</time>
      </trkpt>
      <trkpt lat="45.72489" lon="6.70059">
        <ele>2050</ele>
        <time>2026-07-29T10:51:43.716Z</time>
      </trkpt>
      <trkpt lat="45.72489" lon="6.7006">
        <ele>2050</ele>
        <time>2026-07-29T10:51:44.716Z</time>
      </trkpt>
      <trkpt lat="45.72489" lon="6.70061">
        <ele>2050</ele>
        <time>2026-07-29T10:51:45.716Z</time>
      </trkpt>
      <trkpt lat="45.7249" lon="6.70061">
        <ele>2050</ele>
        <time>2026-07-29T10:51:46.716Z</time>
      </trkpt>
      <trkpt lat="45.7249" lon="6.70061">
        <ele>2050</ele>
        <time>2026-07-29T10:51:47.716Z</time>
      </trkpt>
      <trkpt lat="45.72491" lon="6.7006">
        <ele>2050</ele>
        <time>2026-07-29T10:51:48.716Z</time>
      </trkpt>
      <trkpt lat="45.72492" lon="6.70059">
        <ele>2050</ele>
        <time>2026-07-29T10:51:49.716Z</time>
      </trkpt>
      <trkpt lat="45.72492" lon="6.70057">
        <ele>2049</ele>
        <time>2026-07-29T10:51:50.716Z</time>
      </trkpt>
      <trkpt lat="45.72493" lon="6.70056">
        <ele>2049</ele>
        <time>2026-07-29T10:51:51.716Z</time>
      </trkpt>
      <trkpt lat="45.72493" lon="6.70055">
        <ele>2049</ele>
        <time>2026-07-29T10:51:52.716Z</time>
      </trkpt>
      <trkpt lat="45.72494" lon="6.70053">
        <ele>2049</ele>
        <time>2026-07-29T10:51:53.716Z</time>
      </trkpt>
      <trkpt lat="45.72494" lon="6.70052">
        <ele>2049</ele>
        <time>2026-07-29T10:51:54.716Z</time>
      </trkpt>
      <trkpt lat="45.72495" lon="6.70051">
        <ele>2049</ele>
        <time>2026-07-29T10:51:55.716Z</time>
      </trkpt>
      <trkpt lat="45.72495" lon="6.7005">
        <ele>2050</ele>
        <time>2026-07-29T10:51:56.716Z</time>
      </trkpt>
      <trkpt lat="45.72495" lon="6.7005">
        <ele>2050</ele>
        <time>2026-07-29T10:51:57.716Z</time>
      </trkpt>
      <trkpt lat="45.72495" lon="6.70049">
        <ele>2051</ele>
        <time>2026-07-29T10:51:58.716Z</time>
      </trkpt>
      <trkpt lat="45.72496" lon="6.70048">
        <ele>2051</ele>
        <time>2026-07-29T10:51:59.716Z</time>
      </trkpt>
      <trkpt lat="45.72496" lon="6.70047">
        <ele>2051</ele>
        <time>2026-07-29T10:52:00.716Z</time>
      </trkpt>
      <trkpt lat="45.72496" lon="6.70046">
        <ele>2052</ele>
        <time>2026-07-29T10:52:01.716Z</time>
      </trkpt>
      <trkpt lat="45.72496" lon="6.70045">
        <ele>2052</ele>
        <time>2026-07-29T10:52:02.716Z</time>
      </trkpt>
      <trkpt lat="45.72496" lon="6.70044">
        <ele>2052</ele>
        <time>2026-07-29T10:52:03.716Z</time>
      </trkpt>
      <trkpt lat="45.72496" lon="6.70042">
        <ele>2053</ele>
        <time>2026-07-29T10:52:04.716Z</time>
      </trkpt>
      <trkpt lat="45.72496" lon="6.70041">
        <ele>2053</ele>
        <time>2026-07-29T10:52:05.716Z</time>
      </trkpt>
      <trkpt lat="45.72496" lon="6.7004">
        <ele>2053</ele>
        <time>2026-07-29T10:52:06.716Z</time>
      </trkpt>
      <trkpt lat="45.72496" lon="6.70039">
        <ele>2054</ele>
        <time>2026-07-29T10:52:07.716Z</time>
      </trkpt>
      <trkpt lat="45.72497" lon="6.70037">
        <ele>2054</ele>
        <time>2026-07-29T10:52:08.716Z</time>
      </trkpt>
      <trkpt lat="45.72496" lon="6.70036">
        <ele>2054</ele>
        <time>2026-07-29T10:52:09.716Z</time>
      </trkpt>
      <trkpt lat="45.72496" lon="6.70034">
        <ele>2054</ele>
        <time>2026-07-29T10:52:10.716Z</time>
      </trkpt>
      <trkpt lat="45.72496" lon="6.70033">
        <ele>2055</ele>
        <time>2026-07-29T10:52:11.716Z</time>
      </trkpt>
      <trkpt lat="45.72497" lon="6.70032">
        <ele>2055</ele>
        <time>2026-07-29T10:52:12.716Z</time>
      </trkpt>
      <trkpt lat="45.72497" lon="6.70031">
        <ele>2056</ele>
        <time>2026-07-29T10:52:13.716Z</time>
      </trkpt>
      <trkpt lat="45.72497" lon="6.7003">
        <ele>2056</ele>
        <time>2026-07-29T10:52:14.716Z</time>
      </trkpt>
      <trkpt lat="45.72498" lon="6.70029">
        <ele>2056</ele>
        <time>2026-07-29T10:52:15.716Z</time>
      </trkpt>
      <trkpt lat="45.72499" lon="6.70029">
        <ele>2056</ele>
        <time>2026-07-29T10:52:16.716Z</time>
      </trkpt>
      <trkpt lat="45.725" lon="6.70029">
        <ele>2056</ele>
        <time>2026-07-29T10:52:17.716Z</time>
      </trkpt>
      <trkpt lat="45.72501" lon="6.70029">
        <ele>2056</ele>
        <time>2026-07-29T10:52:18.716Z</time>
      </trkpt>
      <trkpt lat="45.72501" lon="6.7003">
        <ele>2056</ele>
        <time>2026-07-29T10:52:19.716Z</time>
      </trkpt>
      <trkpt lat="45.72502" lon="6.7003">
        <ele>2056</ele>
        <time>2026-07-29T10:52:20.716Z</time>
      </trkpt>
      <trkpt lat="45.72503" lon="6.70031">
        <ele>2056</ele>
        <time>2026-07-29T10:52:21.716Z</time>
      </trkpt>
      <trkpt lat="45.72503" lon="6.70031">
        <ele>2056</ele>
        <time>2026-07-29T10:52:22.716Z</time>
      </trkpt>
      <trkpt lat="45.72504" lon="6.70032">
        <ele>2056</ele>
        <time>2026-07-29T10:52:23.716Z</time>
      </trkpt>
      <trkpt lat="45.72505" lon="6.70033">
        <ele>2056</ele>
        <time>2026-07-29T10:52:24.716Z</time>
      </trkpt>
      <trkpt lat="45.72505" lon="6.70034">
        <ele>2057</ele>
        <time>2026-07-29T10:52:25.716Z</time>
      </trkpt>
      <trkpt lat="45.72505" lon="6.70036">
        <ele>2056</ele>
        <time>2026-07-29T10:52:26.716Z</time>
      </trkpt>
      <trkpt lat="45.72505" lon="6.70037">
        <ele>2056</ele>
        <time>2026-07-29T10:52:27.716Z</time>
      </trkpt>
      <trkpt lat="45.72506" lon="6.70038">
        <ele>2056</ele>
        <time>2026-07-29T10:52:28.716Z</time>
      </trkpt>
      <trkpt lat="45.72506" lon="6.70039">
        <ele>2056</ele>
        <time>2026-07-29T10:52:29.716Z</time>
      </trkpt>
      <trkpt lat="45.72506" lon="6.70039">
        <ele>2056</ele>
        <time>2026-07-29T10:52:30.716Z</time>
      </trkpt>
      <trkpt lat="45.72506" lon="6.7004">
        <ele>2056</ele>
        <time>2026-07-29T10:52:31.716Z</time>
      </trkpt>
      <trkpt lat="45.72507" lon="6.70041">
        <ele>2056</ele>
        <time>2026-07-29T10:52:32.716Z</time>
      </trkpt>
      <trkpt lat="45.72507" lon="6.70042">
        <ele>2056</ele>
        <time>2026-07-29T10:52:33.716Z</time>
      </trkpt>
      <trkpt lat="45.72508" lon="6.70043">
        <ele>2056</ele>
        <time>2026-07-29T10:52:34.716Z</time>
      </trkpt>
      <trkpt lat="45.72508" lon="6.70044">
        <ele>2057</ele>
        <time>2026-07-29T10:52:35.716Z</time>
      </trkpt>
      <trkpt lat="45.72509" lon="6.70045">
        <ele>2057</ele>
        <time>2026-07-29T10:52:36.716Z</time>
      </trkpt>
      <trkpt lat="45.72509" lon="6.70046">
        <ele>2057</ele>
        <time>2026-07-29T10:52:37.716Z</time>
      </trkpt>
      <trkpt lat="45.72509" lon="6.70046">
        <ele>2058</ele>
        <time>2026-07-29T10:52:38.716Z</time>
      </trkpt>
      <trkpt lat="45.7251" lon="6.70047">
        <ele>2058</ele>
        <time>2026-07-29T10:52:39.716Z</time>
      </trkpt>
      <trkpt lat="45.7251" lon="6.70048">
        <ele>2059</ele>
        <time>2026-07-29T10:52:40.716Z</time>
      </trkpt>
      <trkpt lat="45.7251" lon="6.70048">
        <ele>2059</ele>
        <time>2026-07-29T10:52:41.716Z</time>
      </trkpt>
      <trkpt lat="45.7251" lon="6.70048">
        <ele>2058</ele>
        <time>2026-07-29T10:52:42.716Z</time>
      </trkpt>
      <trkpt lat="45.72511" lon="6.70049">
        <ele>2058</ele>
        <time>2026-07-29T10:52:43.716Z</time>
      </trkpt>
      <trkpt lat="45.72511" lon="6.70049">
        <ele>2058</ele>
        <time>2026-07-29T10:52:44.716Z</time>
      </trkpt>
      <trkpt lat="45.72512" lon="6.70049">
        <ele>2059</ele>
        <time>2026-07-29T10:52:45.716Z</time>
      </trkpt>
      <trkpt lat="45.72512" lon="6.7005">
        <ele>2059</ele>
        <time>2026-07-29T10:52:46.716Z</time>
      </trkpt>
      <trkpt lat="45.72513" lon="6.7005">
        <ele>2060</ele>
        <time>2026-07-29T10:52:47.716Z</time>
      </trkpt>
      <trkpt lat="45.72513" lon="6.70051">
        <ele>2061</ele>
        <time>2026-07-29T10:52:48.716Z</time>
      </trkpt>
      <trkpt lat="45.72513" lon="6.70051">
        <ele>2062</ele>
        <time>2026-07-29T10:52:49.716Z</time>
      </trkpt>
      <trkpt lat="45.72514" lon="6.70051">
        <ele>2063</ele>
        <time>2026-07-29T10:52:50.716Z</time>
      </trkpt>
      <trkpt lat="45.72515" lon="6.70051">
        <ele>2064</ele>
        <time>2026-07-29T10:52:51.716Z</time>
      </trkpt>
      <trkpt lat="45.72515" lon="6.70051">
        <ele>2064</ele>
        <time>2026-07-29T10:52:52.716Z</time>
      </trkpt>
      <trkpt lat="45.72516" lon="6.70051">
        <ele>2065</ele>
        <time>2026-07-29T10:52:53.716Z</time>
      </trkpt>
      <trkpt lat="45.72517" lon="6.70051">
        <ele>2066</ele>
        <time>2026-07-29T10:52:54.716Z</time>
      </trkpt>
      <trkpt lat="45.72518" lon="6.70051">
        <ele>2066</ele>
        <time>2026-07-29T10:52:55.716Z</time>
      </trkpt>
      <trkpt lat="45.72519" lon="6.70051">
        <ele>2067</ele>
        <time>2026-07-29T10:52:56.716Z</time>
      </trkpt>
      <trkpt lat="45.7252" lon="6.70051">
        <ele>2067</ele>
        <time>2026-07-29T10:52:57.716Z</time>
      </trkpt>
      <trkpt lat="45.72521" lon="6.70051">
        <ele>2068</ele>
        <time>2026-07-29T10:52:58.716Z</time>
      </trkpt>
      <trkpt lat="45.72521" lon="6.70052">
        <ele>2068</ele>
        <time>2026-07-29T10:52:59.716Z</time>
      </trkpt>
      <trkpt lat="45.72522" lon="6.70053">
        <ele>2069</ele>
        <time>2026-07-29T10:53:00.716Z</time>
      </trkpt>
      <trkpt lat="45.72522" lon="6.70053">
        <ele>2069</ele>
        <time>2026-07-29T10:53:01.716Z</time>
      </trkpt>
      <trkpt lat="45.72523" lon="6.70054">
        <ele>2069</ele>
        <time>2026-07-29T10:53:02.716Z</time>
      </trkpt>
      <trkpt lat="45.72523" lon="6.70055">
        <ele>2070</ele>
        <time>2026-07-29T10:53:03.716Z</time>
      </trkpt>
      <trkpt lat="45.72524" lon="6.70055">
        <ele>2070</ele>
        <time>2026-07-29T10:53:04.716Z</time>
      </trkpt>
      <trkpt lat="45.72524" lon="6.70056">
        <ele>2070</ele>
        <time>2026-07-29T10:53:05.716Z</time>
      </trkpt>
      <trkpt lat="45.72524" lon="6.70056">
        <ele>2071</ele>
        <time>2026-07-29T10:53:06.716Z</time>
      </trkpt>
      <trkpt lat="45.72525" lon="6.70056">
        <ele>2071</ele>
        <time>2026-07-29T10:53:07.716Z</time>
      </trkpt>
      <trkpt lat="45.72525" lon="6.70056">
        <ele>2072</ele>
        <time>2026-07-29T10:53:08.716Z</time>
      </trkpt>
      <trkpt lat="45.72526" lon="6.70056">
        <ele>2072</ele>
        <time>2026-07-29T10:53:09.716Z</time>
      </trkpt>
      <trkpt lat="45.72526" lon="6.70056">
        <ele>2072</ele>
        <time>2026-07-29T10:53:10.716Z</time>
      </trkpt>
      <trkpt lat="45.72525" lon="6.70056">
        <ele>2072</ele>
        <time>2026-07-29T10:53:11.716Z</time>
      </trkpt>
      <trkpt lat="45.72526" lon="6.70056">
        <ele>2073</ele>
        <time>2026-07-29T10:53:12.716Z</time>
      </trkpt>
      <trkpt lat="45.72526" lon="6.70056">
        <ele>2072</ele>
        <time>2026-07-29T10:53:13.716Z</time>
      </trkpt>
      <trkpt lat="45.72526" lon="6.70056">
        <ele>2072</ele>
        <time>2026-07-29T10:53:14.716Z</time>
      </trkpt>
      <trkpt lat="45.72526" lon="6.70056">
        <ele>2072</ele>
        <time>2026-07-29T10:53:15.716Z</time>
      </trkpt>
      <trkpt lat="45.72526" lon="6.70056">
        <ele>2072</ele>
        <time>2026-07-29T10:53:16.716Z</time>
      </trkpt>
      <trkpt lat="45.72526" lon="6.70056">
        <ele>2072</ele>
        <time>2026-07-29T10:53:17.716Z</time>
      </trkpt>
      <trkpt lat="45.72526" lon="6.70056">
        <ele>2072</ele>
        <time>2026-07-29T10:53:18.716Z</time>
      </trkpt>
      <trkpt lat="45.72526" lon="6.70056">
        <ele>2072</ele>
        <time>2026-07-29T10:53:19.716Z</time>
      </trkpt>
      <trkpt lat="45.72526" lon="6.70056">
        <ele>2072</ele>
        <time>2026-07-29T10:53:20.716Z</time>
      </trkpt>
      <trkpt lat="45.72526" lon="6.70056">
        <ele>2072</ele>
        <time>2026-07-29T10:53:21.716Z</time>
      </trkpt>
      <trkpt lat="45.72526" lon="6.70056">
        <ele>2072</ele>
        <time>2026-07-29T10:53:22.716Z</time>
      </trkpt>
      <trkpt lat="45.72526" lon="6.70056">
        <ele>2073</ele>
        <time>2026-07-29T10:53:23.716Z</time>
      </trkpt>
      <trkpt lat="45.72526" lon="6.70056">
        <ele>2073</ele>
        <time>2026-07-29T10:53:24.716Z</time>
      </trkpt>
      <trkpt lat="45.72526" lon="6.70056">
        <ele>2073</ele>
        <time>2026-07-29T10:53:25.716Z</time>
      </trkpt>
      <trkpt lat="45.72526" lon="6.70056">
        <ele>2073</ele>
        <time>2026-07-29T10:53:26.716Z</time>
      </trkpt>
      <trkpt lat="45.72526" lon="6.70056">
        <ele>2073</ele>
        <time>2026-07-29T10:53:27.716Z</time>
      </trkpt>
      <trkpt lat="45.72526" lon="6.70057">
        <ele>2073</ele>
        <time>2026-07-29T10:53:28.716Z</time>
      </trkpt>
      <trkpt lat="45.72527" lon="6.70058">
        <ele>2073</ele>
        <time>2026-07-29T10:53:29.716Z</time>
      </trkpt>
      <trkpt lat="45.72528" lon="6.7006">
        <ele>2073</ele>
        <time>2026-07-29T10:53:30.716Z</time>
      </trkpt>
      <trkpt lat="45.72529" lon="6.70062">
        <ele>2073</ele>
        <time>2026-07-29T10:53:31.716Z</time>
      </trkpt>
      <trkpt lat="45.72529" lon="6.70064">
        <ele>2074</ele>
        <time>2026-07-29T10:53:32.716Z</time>
      </trkpt>
      <trkpt lat="45.7253" lon="6.70065">
        <ele>2074</ele>
        <time>2026-07-29T10:53:33.716Z</time>
      </trkpt>
      <trkpt lat="45.72531" lon="6.70066">
        <ele>2074</ele>
        <time>2026-07-29T10:53:34.716Z</time>
      </trkpt>
      <trkpt lat="45.72532" lon="6.70067">
        <ele>2074</ele>
        <time>2026-07-29T10:53:35.716Z</time>
      </trkpt>
      <trkpt lat="45.72533" lon="6.70068">
        <ele>2074</ele>
        <time>2026-07-29T10:53:36.716Z</time>
      </trkpt>
      <trkpt lat="45.72534" lon="6.7007">
        <ele>2074</ele>
        <time>2026-07-29T10:53:37.716Z</time>
      </trkpt>
      <trkpt lat="45.72535" lon="6.70071">
        <ele>2074</ele>
        <time>2026-07-29T10:53:38.716Z</time>
      </trkpt>
      <trkpt lat="45.72535" lon="6.70071">
        <ele>2074</ele>
        <time>2026-07-29T10:53:39.716Z</time>
      </trkpt>
      <trkpt lat="45.72535" lon="6.7007">
        <ele>2075</ele>
        <time>2026-07-29T10:53:40.716Z</time>
      </trkpt>
      <trkpt lat="45.72535" lon="6.7007">
        <ele>2076</ele>
        <time>2026-07-29T10:53:41.716Z</time>
      </trkpt>
      <trkpt lat="45.72535" lon="6.70069">
        <ele>2076</ele>
        <time>2026-07-29T10:53:42.716Z</time>
      </trkpt>
      <trkpt lat="45.72536" lon="6.70068">
        <ele>2076</ele>
        <time>2026-07-29T10:53:43.716Z</time>
      </trkpt>
      <trkpt lat="45.72536" lon="6.70067">
        <ele>2076</ele>
        <time>2026-07-29T10:53:44.716Z</time>
      </trkpt>
      <trkpt lat="45.72536" lon="6.70066">
        <ele>2077</ele>
        <time>2026-07-29T10:53:45.716Z</time>
      </trkpt>
      <trkpt lat="45.72537" lon="6.70065">
        <ele>2077</ele>
        <time>2026-07-29T10:53:46.716Z</time>
      </trkpt>
      <trkpt lat="45.72537" lon="6.70064">
        <ele>2077</ele>
        <time>2026-07-29T10:53:47.716Z</time>
      </trkpt>
      <trkpt lat="45.72537" lon="6.70063">
        <ele>2077</ele>
        <time>2026-07-29T10:53:48.716Z</time>
      </trkpt>
      <trkpt lat="45.72537" lon="6.70062">
        <ele>2077</ele>
        <time>2026-07-29T10:53:49.716Z</time>
      </trkpt>
      <trkpt lat="45.72537" lon="6.70061">
        <ele>2078</ele>
        <time>2026-07-29T10:53:50.716Z</time>
      </trkpt>
      <trkpt lat="45.72538" lon="6.70059">
        <ele>2078</ele>
        <time>2026-07-29T10:53:51.716Z</time>
      </trkpt>
      <trkpt lat="45.72538" lon="6.70058">
        <ele>2079</ele>
        <time>2026-07-29T10:53:52.716Z</time>
      </trkpt>
      <trkpt lat="45.72538" lon="6.70058">
        <ele>2079</ele>
        <time>2026-07-29T10:53:53.716Z</time>
      </trkpt>
      <trkpt lat="45.72538" lon="6.70057">
        <ele>2079</ele>
        <time>2026-07-29T10:53:54.716Z</time>
      </trkpt>
      <trkpt lat="45.72538" lon="6.70057">
        <ele>2079</ele>
        <time>2026-07-29T10:53:55.716Z</time>
      </trkpt>
      <trkpt lat="45.72538" lon="6.70056">
        <ele>2080</ele>
        <time>2026-07-29T10:53:56.716Z</time>
      </trkpt>
      <trkpt lat="45.72538" lon="6.70055">
        <ele>2080</ele>
        <time>2026-07-29T10:53:57.716Z</time>
      </trkpt>
      <trkpt lat="45.72537" lon="6.70054">
        <ele>2081</ele>
        <time>2026-07-29T10:53:58.716Z</time>
      </trkpt>
      <trkpt lat="45.72537" lon="6.70053">
        <ele>2081</ele>
        <time>2026-07-29T10:53:59.716Z</time>
      </trkpt>
      <trkpt lat="45.72537" lon="6.70053">
        <ele>2082</ele>
        <time>2026-07-29T10:54:00.716Z</time>
      </trkpt>
      <trkpt lat="45.72537" lon="6.70053">
        <ele>2082</ele>
        <time>2026-07-29T10:54:01.716Z</time>
      </trkpt>
      <trkpt lat="45.72537" lon="6.70053">
        <ele>2082</ele>
        <time>2026-07-29T10:54:02.716Z</time>
      </trkpt>
      <trkpt lat="45.72537" lon="6.70053">
        <ele>2082</ele>
        <time>2026-07-29T10:54:03.716Z</time>
      </trkpt>
      <trkpt lat="45.72536" lon="6.70053">
        <ele>2082</ele>
        <time>2026-07-29T10:54:04.716Z</time>
      </trkpt>
      <trkpt lat="45.72536" lon="6.70053">
        <ele>2082</ele>
        <time>2026-07-29T10:54:05.716Z</time>
      </trkpt>
      <trkpt lat="45.72536" lon="6.70052">
        <ele>2082</ele>
        <time>2026-07-29T10:54:06.716Z</time>
      </trkpt>
      <trkpt lat="45.72536" lon="6.70052">
        <ele>2082</ele>
        <time>2026-07-29T10:54:07.716Z</time>
      </trkpt>
      <trkpt lat="45.72536" lon="6.70052">
        <ele>2082</ele>
        <time>2026-07-29T10:54:08.716Z</time>
      </trkpt>
      <trkpt lat="45.72536" lon="6.70052">
        <ele>2082</ele>
        <time>2026-07-29T10:54:09.716Z</time>
      </trkpt>
      <trkpt lat="45.72536" lon="6.70052">
        <ele>2082</ele>
        <time>2026-07-29T10:54:10.716Z</time>
      </trkpt>
      <trkpt lat="45.72536" lon="6.70052">
        <ele>2082</ele>
        <time>2026-07-29T10:54:11.716Z</time>
      </trkpt>
      <trkpt lat="45.72536" lon="6.70052">
        <ele>2083</ele>
        <time>2026-07-29T10:54:12.716Z</time>
      </trkpt>
      <trkpt lat="45.72536" lon="6.70052">
        <ele>2083</ele>
        <time>2026-07-29T10:54:13.716Z</time>
      </trkpt>
      <trkpt lat="45.72536" lon="6.70052">
        <ele>2082</ele>
        <time>2026-07-29T10:54:14.716Z</time>
      </trkpt>
      <trkpt lat="45.72536" lon="6.70052">
        <ele>2082</ele>
        <time>2026-07-29T10:54:15.716Z</time>
      </trkpt>
      <trkpt lat="45.72536" lon="6.70052">
        <ele>2082</ele>
        <time>2026-07-29T10:54:16.716Z</time>
      </trkpt>
      <trkpt lat="45.72536" lon="6.70052">
        <ele>2082</ele>
        <time>2026-07-29T10:54:17.716Z</time>
      </trkpt>
      <trkpt lat="45.72536" lon="6.70052">
        <ele>2082</ele>
        <time>2026-07-29T10:54:18.716Z</time>
      </trkpt>
      <trkpt lat="45.72536" lon="6.70052">
        <ele>2082</ele>
        <time>2026-07-29T10:54:19.716Z</time>
      </trkpt>
      <trkpt lat="45.72536" lon="6.70053">
        <ele>2082</ele>
        <time>2026-07-29T10:54:20.716Z</time>
      </trkpt>
      <trkpt lat="45.72536" lon="6.70053">
        <ele>2082</ele>
        <time>2026-07-29T10:54:21.716Z</time>
      </trkpt>
      <trkpt lat="45.72537" lon="6.70053">
        <ele>2082</ele>
        <time>2026-07-29T10:54:22.716Z</time>
      </trkpt>
      <trkpt lat="45.72537" lon="6.70053">
        <ele>2082</ele>
        <time>2026-07-29T10:54:23.716Z</time>
      </trkpt>
      <trkpt lat="45.72537" lon="6.70053">
        <ele>2082</ele>
        <time>2026-07-29T10:54:24.716Z</time>
      </trkpt>
      <trkpt lat="45.72537" lon="6.70054">
        <ele>2082</ele>
        <time>2026-07-29T10:54:25.716Z</time>
      </trkpt>
      <trkpt lat="45.72539" lon="6.70055">
        <ele>2082</ele>
        <time>2026-07-29T10:54:26.716Z</time>
      </trkpt>
      <trkpt lat="45.72541" lon="6.70056">
        <ele>2082</ele>
        <time>2026-07-29T10:54:27.716Z</time>
      </trkpt>
      <trkpt lat="45.72542" lon="6.70056">
        <ele>2082</ele>
        <time>2026-07-29T10:54:28.716Z</time>
      </trkpt>
      <trkpt lat="45.72544" lon="6.70057">
        <ele>2083</ele>
        <time>2026-07-29T10:54:29.716Z</time>
      </trkpt>
      <trkpt lat="45.72544" lon="6.70057">
        <ele>2083</ele>
        <time>2026-07-29T10:54:30.716Z</time>
      </trkpt>
      <trkpt lat="45.72545" lon="6.70057">
        <ele>2084</ele>
        <time>2026-07-29T10:54:31.716Z</time>
      </trkpt>
      <trkpt lat="45.72546" lon="6.70056">
        <ele>2084</ele>
        <time>2026-07-29T10:54:32.716Z</time>
      </trkpt>
      <trkpt lat="45.72546" lon="6.70056">
        <ele>2084</ele>
        <time>2026-07-29T10:54:33.716Z</time>
      </trkpt>
      <trkpt lat="45.72546" lon="6.70056">
        <ele>2085</ele>
        <time>2026-07-29T10:54:34.716Z</time>
      </trkpt>
      <trkpt lat="45.72545" lon="6.70055">
        <ele>2085</ele>
        <time>2026-07-29T10:54:35.716Z</time>
      </trkpt>
      <trkpt lat="45.72545" lon="6.70053">
        <ele>2086</ele>
        <time>2026-07-29T10:54:36.716Z</time>
      </trkpt>
      <trkpt lat="45.72545" lon="6.70052">
        <ele>2086</ele>
        <time>2026-07-29T10:54:37.716Z</time>
      </trkpt>
      <trkpt lat="45.72545" lon="6.70051">
        <ele>2087</ele>
        <time>2026-07-29T10:54:38.716Z</time>
      </trkpt>
      <trkpt lat="45.72545" lon="6.7005">
        <ele>2087</ele>
        <time>2026-07-29T10:54:39.716Z</time>
      </trkpt>
      <trkpt lat="45.72545" lon="6.70049">
        <ele>2088</ele>
        <time>2026-07-29T10:54:40.716Z</time>
      </trkpt>
      <trkpt lat="45.72545" lon="6.70048">
        <ele>2088</ele>
        <time>2026-07-29T10:54:41.716Z</time>
      </trkpt>
      <trkpt lat="45.72545" lon="6.70047">
        <ele>2089</ele>
        <time>2026-07-29T10:54:42.716Z</time>
      </trkpt>
      <trkpt lat="45.72545" lon="6.70046">
        <ele>2089</ele>
        <time>2026-07-29T10:54:43.716Z</time>
      </trkpt>
      <trkpt lat="45.72544" lon="6.70045">
        <ele>2089</ele>
        <time>2026-07-29T10:54:44.716Z</time>
      </trkpt>
      <trkpt lat="45.72544" lon="6.70044">
        <ele>2089</ele>
        <time>2026-07-29T10:54:45.716Z</time>
      </trkpt>
      <trkpt lat="45.72544" lon="6.70043">
        <ele>2089</ele>
        <time>2026-07-29T10:54:46.716Z</time>
      </trkpt>
      <trkpt lat="45.72543" lon="6.70042">
        <ele>2090</ele>
        <time>2026-07-29T10:54:47.716Z</time>
      </trkpt>
      <trkpt lat="45.72543" lon="6.70041">
        <ele>2090</ele>
        <time>2026-07-29T10:54:48.716Z</time>
      </trkpt>
      <trkpt lat="45.72543" lon="6.7004">
        <ele>2090</ele>
        <time>2026-07-29T10:54:49.716Z</time>
      </trkpt>
      <trkpt lat="45.72543" lon="6.70039">
        <ele>2091</ele>
        <time>2026-07-29T10:54:50.716Z</time>
      </trkpt>
      <trkpt lat="45.72543" lon="6.70038">
        <ele>2091</ele>
        <time>2026-07-29T10:54:51.716Z</time>
      </trkpt>
      <trkpt lat="45.72543" lon="6.70036">
        <ele>2091</ele>
        <time>2026-07-29T10:54:52.716Z</time>
      </trkpt>
      <trkpt lat="45.72543" lon="6.70035">
        <ele>2092</ele>
        <time>2026-07-29T10:54:53.716Z</time>
      </trkpt>
      <trkpt lat="45.72543" lon="6.70034">
        <ele>2092</ele>
        <time>2026-07-29T10:54:54.716Z</time>
      </trkpt>
      <trkpt lat="45.72544" lon="6.70033">
        <ele>2092</ele>
        <time>2026-07-29T10:54:55.716Z</time>
      </trkpt>
      <trkpt lat="45.72544" lon="6.70032">
        <ele>2093</ele>
        <time>2026-07-29T10:54:56.716Z</time>
      </trkpt>
      <trkpt lat="45.72545" lon="6.70031">
        <ele>2093</ele>
        <time>2026-07-29T10:54:57.716Z</time>
      </trkpt>
      <trkpt lat="45.72546" lon="6.7003">
        <ele>2093</ele>
        <time>2026-07-29T10:54:58.716Z</time>
      </trkpt>
      <trkpt lat="45.72546" lon="6.7003">
        <ele>2093</ele>
        <time>2026-07-29T10:54:59.716Z</time>
      </trkpt>
      <trkpt lat="45.72547" lon="6.7003">
        <ele>2094</ele>
        <time>2026-07-29T10:55:00.716Z</time>
      </trkpt>
      <trkpt lat="45.72548" lon="6.7003">
        <ele>2094</ele>
        <time>2026-07-29T10:55:01.716Z</time>
      </trkpt>
      <trkpt lat="45.72549" lon="6.70031">
        <ele>2094</ele>
        <time>2026-07-29T10:55:02.716Z</time>
      </trkpt>
      <trkpt lat="45.72549" lon="6.70032">
        <ele>2095</ele>
        <time>2026-07-29T10:55:03.716Z</time>
      </trkpt>
      <trkpt lat="45.7255" lon="6.70032">
        <ele>2095</ele>
        <time>2026-07-29T10:55:04.716Z</time>
      </trkpt>
      <trkpt lat="45.7255" lon="6.70033">
        <ele>2095</ele>
        <time>2026-07-29T10:55:05.716Z</time>
      </trkpt>
      <trkpt lat="45.72551" lon="6.70034">
        <ele>2095</ele>
        <time>2026-07-29T10:55:06.716Z</time>
      </trkpt>
      <trkpt lat="45.72552" lon="6.70035">
        <ele>2095</ele>
        <time>2026-07-29T10:55:07.716Z</time>
      </trkpt>
      <trkpt lat="45.72552" lon="6.70036">
        <ele>2095</ele>
        <time>2026-07-29T10:55:08.716Z</time>
      </trkpt>
      <trkpt lat="45.72553" lon="6.70037">
        <ele>2095</ele>
        <time>2026-07-29T10:55:09.716Z</time>
      </trkpt>
      <trkpt lat="45.72554" lon="6.70037">
        <ele>2095</ele>
        <time>2026-07-29T10:55:10.716Z</time>
      </trkpt>
      <trkpt lat="45.72554" lon="6.70038">
        <ele>2095</ele>
        <time>2026-07-29T10:55:11.716Z</time>
      </trkpt>
      <trkpt lat="45.72554" lon="6.70039">
        <ele>2096</ele>
        <time>2026-07-29T10:55:12.716Z</time>
      </trkpt>
      <trkpt lat="45.72555" lon="6.70039">
        <ele>2096</ele>
        <time>2026-07-29T10:55:13.716Z</time>
      </trkpt>
      <trkpt lat="45.72555" lon="6.7004">
        <ele>2096</ele>
        <time>2026-07-29T10:55:14.716Z</time>
      </trkpt>
      <trkpt lat="45.72556" lon="6.70041">
        <ele>2096</ele>
        <time>2026-07-29T10:55:15.716Z</time>
      </trkpt>
      <trkpt lat="45.72556" lon="6.70041">
        <ele>2096</ele>
        <time>2026-07-29T10:55:16.716Z</time>
      </trkpt>
      <trkpt lat="45.72557" lon="6.70042">
        <ele>2097</ele>
        <time>2026-07-29T10:55:17.716Z</time>
      </trkpt>
      <trkpt lat="45.72557" lon="6.70043">
        <ele>2097</ele>
        <time>2026-07-29T10:55:18.716Z</time>
      </trkpt>
      <trkpt lat="45.72558" lon="6.70043">
        <ele>2097</ele>
        <time>2026-07-29T10:55:19.716Z</time>
      </trkpt>
      <trkpt lat="45.72558" lon="6.70044">
        <ele>2098</ele>
        <time>2026-07-29T10:55:20.716Z</time>
      </trkpt>
      <trkpt lat="45.72559" lon="6.70043">
        <ele>2099</ele>
        <time>2026-07-29T10:55:21.716Z</time>
      </trkpt>
      <trkpt lat="45.72559" lon="6.70043">
        <ele>2099</ele>
        <time>2026-07-29T10:55:22.716Z</time>
      </trkpt>
      <trkpt lat="45.72559" lon="6.70042">
        <ele>2100</ele>
        <time>2026-07-29T10:55:23.716Z</time>
      </trkpt>
      <trkpt lat="45.72559" lon="6.70041">
        <ele>2100</ele>
        <time>2026-07-29T10:55:24.716Z</time>
      </trkpt>
      <trkpt lat="45.72559" lon="6.7004">
        <ele>2100</ele>
        <time>2026-07-29T10:55:25.716Z</time>
      </trkpt>
      <trkpt lat="45.72559" lon="6.70039">
        <ele>2100</ele>
        <time>2026-07-29T10:55:26.716Z</time>
      </trkpt>
      <trkpt lat="45.72559" lon="6.70038">
        <ele>2101</ele>
        <time>2026-07-29T10:55:27.716Z</time>
      </trkpt>
      <trkpt lat="45.72559" lon="6.70037">
        <ele>2101</ele>
        <time>2026-07-29T10:55:28.716Z</time>
      </trkpt>
      <trkpt lat="45.72559" lon="6.70036">
        <ele>2102</ele>
        <time>2026-07-29T10:55:29.716Z</time>
      </trkpt>
      <trkpt lat="45.72559" lon="6.70035">
        <ele>2102</ele>
        <time>2026-07-29T10:55:30.716Z</time>
      </trkpt>
      <trkpt lat="45.72559" lon="6.70034">
        <ele>2102</ele>
        <time>2026-07-29T10:55:31.716Z</time>
      </trkpt>
      <trkpt lat="45.72559" lon="6.70032">
        <ele>2102</ele>
        <time>2026-07-29T10:55:32.716Z</time>
      </trkpt>
      <trkpt lat="45.72559" lon="6.70031">
        <ele>2102</ele>
        <time>2026-07-29T10:55:33.716Z</time>
      </trkpt>
      <trkpt lat="45.72559" lon="6.7003">
        <ele>2102</ele>
        <time>2026-07-29T10:55:34.716Z</time>
      </trkpt>
      <trkpt lat="45.72559" lon="6.70029">
        <ele>2103</ele>
        <time>2026-07-29T10:55:35.716Z</time>
      </trkpt>
      <trkpt lat="45.72559" lon="6.70029">
        <ele>2103</ele>
        <time>2026-07-29T10:55:36.716Z</time>
      </trkpt>
      <trkpt lat="45.7256" lon="6.70029">
        <ele>2103</ele>
        <time>2026-07-29T10:55:37.716Z</time>
      </trkpt>
      <trkpt lat="45.7256" lon="6.70029">
        <ele>2103</ele>
        <time>2026-07-29T10:55:38.716Z</time>
      </trkpt>
      <trkpt lat="45.72561" lon="6.70029">
        <ele>2103</ele>
        <time>2026-07-29T10:55:39.716Z</time>
      </trkpt>
      <trkpt lat="45.72562" lon="6.70029">
        <ele>2103</ele>
        <time>2026-07-29T10:55:40.716Z</time>
      </trkpt>
      <trkpt lat="45.72563" lon="6.7003">
        <ele>2103</ele>
        <time>2026-07-29T10:55:41.716Z</time>
      </trkpt>
      <trkpt lat="45.72563" lon="6.70031">
        <ele>2103</ele>
        <time>2026-07-29T10:55:42.716Z</time>
      </trkpt>
      <trkpt lat="45.72564" lon="6.70032">
        <ele>2103</ele>
        <time>2026-07-29T10:55:43.716Z</time>
      </trkpt>
      <trkpt lat="45.72564" lon="6.70033">
        <ele>2104</ele>
        <time>2026-07-29T10:55:44.716Z</time>
      </trkpt>
      <trkpt lat="45.72565" lon="6.70034">
        <ele>2104</ele>
        <time>2026-07-29T10:55:45.716Z</time>
      </trkpt>
      <trkpt lat="45.72566" lon="6.70034">
        <ele>2104</ele>
        <time>2026-07-29T10:55:46.716Z</time>
      </trkpt>
      <trkpt lat="45.72567" lon="6.70035">
        <ele>2104</ele>
        <time>2026-07-29T10:55:47.716Z</time>
      </trkpt>
      <trkpt lat="45.72568" lon="6.70035">
        <ele>2104</ele>
        <time>2026-07-29T10:55:48.716Z</time>
      </trkpt>
      <trkpt lat="45.72569" lon="6.70036">
        <ele>2104</ele>
        <time>2026-07-29T10:55:49.716Z</time>
      </trkpt>
      <trkpt lat="45.72569" lon="6.70036">
        <ele>2104</ele>
        <time>2026-07-29T10:55:50.716Z</time>
      </trkpt>
      <trkpt lat="45.7257" lon="6.70037">
        <ele>2104</ele>
        <time>2026-07-29T10:55:51.716Z</time>
      </trkpt>
      <trkpt lat="45.7257" lon="6.70037">
        <ele>2105</ele>
        <time>2026-07-29T10:55:52.716Z</time>
      </trkpt>
      <trkpt lat="45.72571" lon="6.70038">
        <ele>2106</ele>
        <time>2026-07-29T10:55:53.716Z</time>
      </trkpt>
      <trkpt lat="45.72571" lon="6.70039">
        <ele>2106</ele>
        <time>2026-07-29T10:55:54.716Z</time>
      </trkpt>
      <trkpt lat="45.72571" lon="6.7004">
        <ele>2106</ele>
        <time>2026-07-29T10:55:55.716Z</time>
      </trkpt>
      <trkpt lat="45.72572" lon="6.7004">
        <ele>2106</ele>
        <time>2026-07-29T10:55:56.716Z</time>
      </trkpt>
      <trkpt lat="45.72572" lon="6.70041">
        <ele>2107</ele>
        <time>2026-07-29T10:55:57.716Z</time>
      </trkpt>
      <trkpt lat="45.72573" lon="6.70042">
        <ele>2107</ele>
        <time>2026-07-29T10:55:58.716Z</time>
      </trkpt>
      <trkpt lat="45.72574" lon="6.70043">
        <ele>2108</ele>
        <time>2026-07-29T10:55:59.716Z</time>
      </trkpt>
      <trkpt lat="45.72574" lon="6.70044">
        <ele>2108</ele>
        <time>2026-07-29T10:56:00.716Z</time>
      </trkpt>
      <trkpt lat="45.72575" lon="6.70045">
        <ele>2109</ele>
        <time>2026-07-29T10:56:01.716Z</time>
      </trkpt>
      <trkpt lat="45.72575" lon="6.70045">
        <ele>2109</ele>
        <time>2026-07-29T10:56:02.716Z</time>
      </trkpt>
      <trkpt lat="45.72576" lon="6.70046">
        <ele>2109</ele>
        <time>2026-07-29T10:56:03.716Z</time>
      </trkpt>
      <trkpt lat="45.72577" lon="6.70047">
        <ele>2110</ele>
        <time>2026-07-29T10:56:04.716Z</time>
      </trkpt>
      <trkpt lat="45.72578" lon="6.70047">
        <ele>2110</ele>
        <time>2026-07-29T10:56:05.716Z</time>
      </trkpt>
      <trkpt lat="45.72579" lon="6.70048">
        <ele>2110</ele>
        <time>2026-07-29T10:56:06.716Z</time>
      </trkpt>
      <trkpt lat="45.7258" lon="6.7005">
        <ele>2110</ele>
        <time>2026-07-29T10:56:07.716Z</time>
      </trkpt>
      <trkpt lat="45.72581" lon="6.70051">
        <ele>2111</ele>
        <time>2026-07-29T10:56:08.716Z</time>
      </trkpt>
      <trkpt lat="45.72581" lon="6.70052">
        <ele>2111</ele>
        <time>2026-07-29T10:56:09.716Z</time>
      </trkpt>
      <trkpt lat="45.72582" lon="6.70054">
        <ele>2111</ele>
        <time>2026-07-29T10:56:10.716Z</time>
      </trkpt>
      <trkpt lat="45.72582" lon="6.70055">
        <ele>2111</ele>
        <time>2026-07-29T10:56:11.716Z</time>
      </trkpt>
      <trkpt lat="45.72583" lon="6.70055">
        <ele>2112</ele>
        <time>2026-07-29T10:56:12.716Z</time>
      </trkpt>
      <trkpt lat="45.72583" lon="6.70056">
        <ele>2112</ele>
        <time>2026-07-29T10:56:13.716Z</time>
      </trkpt>
      <trkpt lat="45.72584" lon="6.70057">
        <ele>2112</ele>
        <time>2026-07-29T10:56:14.716Z</time>
      </trkpt>
      <trkpt lat="45.72585" lon="6.70058">
        <ele>2112</ele>
        <time>2026-07-29T10:56:15.716Z</time>
      </trkpt>
      <trkpt lat="45.72585" lon="6.70059">
        <ele>2112</ele>
        <time>2026-07-29T10:56:16.716Z</time>
      </trkpt>
      <trkpt lat="45.72585" lon="6.7006">
        <ele>2112</ele>
        <time>2026-07-29T10:56:17.716Z</time>
      </trkpt>
      <trkpt lat="45.72586" lon="6.70061">
        <ele>2112</ele>
        <time>2026-07-29T10:56:18.716Z</time>
      </trkpt>
      <trkpt lat="45.72587" lon="6.70062">
        <ele>2112</ele>
        <time>2026-07-29T10:56:19.716Z</time>
      </trkpt>
      <trkpt lat="45.72587" lon="6.70063">
        <ele>2112</ele>
        <time>2026-07-29T10:56:20.716Z</time>
      </trkpt>
      <trkpt lat="45.72588" lon="6.70065">
        <ele>2113</ele>
        <time>2026-07-29T10:56:21.716Z</time>
      </trkpt>
      <trkpt lat="45.72588" lon="6.70066">
        <ele>2113</ele>
        <time>2026-07-29T10:56:22.716Z</time>
      </trkpt>
      <trkpt lat="45.72589" lon="6.70067">
        <ele>2113</ele>
        <time>2026-07-29T10:56:23.716Z</time>
      </trkpt>
      <trkpt lat="45.72589" lon="6.70067">
        <ele>2113</ele>
        <time>2026-07-29T10:56:24.716Z</time>
      </trkpt>
      <trkpt lat="45.7259" lon="6.70068">
        <ele>2113</ele>
        <time>2026-07-29T10:56:25.716Z</time>
      </trkpt>
      <trkpt lat="45.72591" lon="6.70068">
        <ele>2113</ele>
        <time>2026-07-29T10:56:26.716Z</time>
      </trkpt>
      <trkpt lat="45.72591" lon="6.70069">
        <ele>2113</ele>
        <time>2026-07-29T10:56:27.716Z</time>
      </trkpt>
      <trkpt lat="45.72592" lon="6.70069">
        <ele>2113</ele>
        <time>2026-07-29T10:56:28.716Z</time>
      </trkpt>
      <trkpt lat="45.72592" lon="6.70069">
        <ele>2113</ele>
        <time>2026-07-29T10:56:29.716Z</time>
      </trkpt>
      <trkpt lat="45.72593" lon="6.70069">
        <ele>2113</ele>
        <time>2026-07-29T10:56:30.716Z</time>
      </trkpt>
      <trkpt lat="45.72593" lon="6.70068">
        <ele>2114</ele>
        <time>2026-07-29T10:56:31.716Z</time>
      </trkpt>
      <trkpt lat="45.72593" lon="6.70067">
        <ele>2114</ele>
        <time>2026-07-29T10:56:32.716Z</time>
      </trkpt>
      <trkpt lat="45.72593" lon="6.70067">
        <ele>2115</ele>
        <time>2026-07-29T10:56:33.716Z</time>
      </trkpt>
      <trkpt lat="45.72593" lon="6.70065">
        <ele>2115</ele>
        <time>2026-07-29T10:56:34.716Z</time>
      </trkpt>
      <trkpt lat="45.72593" lon="6.70064">
        <ele>2115</ele>
        <time>2026-07-29T10:56:35.716Z</time>
      </trkpt>
      <trkpt lat="45.72593" lon="6.70063">
        <ele>2115</ele>
        <time>2026-07-29T10:56:36.716Z</time>
      </trkpt>
      <trkpt lat="45.72593" lon="6.70062">
        <ele>2115</ele>
        <time>2026-07-29T10:56:37.716Z</time>
      </trkpt>
      <trkpt lat="45.72593" lon="6.7006">
        <ele>2115</ele>
        <time>2026-07-29T10:56:38.716Z</time>
      </trkpt>
      <trkpt lat="45.72593" lon="6.7006">
        <ele>2115</ele>
        <time>2026-07-29T10:56:39.716Z</time>
      </trkpt>
      <trkpt lat="45.72593" lon="6.70058">
        <ele>2115</ele>
        <time>2026-07-29T10:56:40.716Z</time>
      </trkpt>
      <trkpt lat="45.72593" lon="6.70057">
        <ele>2116</ele>
        <time>2026-07-29T10:56:41.716Z</time>
      </trkpt>
      <trkpt lat="45.72593" lon="6.70057">
        <ele>2116</ele>
        <time>2026-07-29T10:56:42.716Z</time>
      </trkpt>
      <trkpt lat="45.72593" lon="6.70055">
        <ele>2117</ele>
        <time>2026-07-29T10:56:43.716Z</time>
      </trkpt>
      <trkpt lat="45.72593" lon="6.70054">
        <ele>2117</ele>
        <time>2026-07-29T10:56:44.716Z</time>
      </trkpt>
      <trkpt lat="45.72593" lon="6.70053">
        <ele>2117</ele>
        <time>2026-07-29T10:56:45.716Z</time>
      </trkpt>
      <trkpt lat="45.72594" lon="6.70051">
        <ele>2117</ele>
        <time>2026-07-29T10:56:46.716Z</time>
      </trkpt>
      <trkpt lat="45.72594" lon="6.7005">
        <ele>2118</ele>
        <time>2026-07-29T10:56:47.716Z</time>
      </trkpt>
      <trkpt lat="45.72594" lon="6.70049">
        <ele>2118</ele>
        <time>2026-07-29T10:56:48.716Z</time>
      </trkpt>
      <trkpt lat="45.72594" lon="6.70048">
        <ele>2119</ele>
        <time>2026-07-29T10:56:49.716Z</time>
      </trkpt>
      <trkpt lat="45.72594" lon="6.70047">
        <ele>2119</ele>
        <time>2026-07-29T10:56:50.716Z</time>
      </trkpt>
      <trkpt lat="45.72594" lon="6.70045">
        <ele>2120</ele>
        <time>2026-07-29T10:56:51.716Z</time>
      </trkpt>
      <trkpt lat="45.72595" lon="6.70044">
        <ele>2120</ele>
        <time>2026-07-29T10:56:52.716Z</time>
      </trkpt>
      <trkpt lat="45.72594" lon="6.70042">
        <ele>2121</ele>
        <time>2026-07-29T10:56:53.716Z</time>
      </trkpt>
      <trkpt lat="45.72594" lon="6.70041">
        <ele>2121</ele>
        <time>2026-07-29T10:56:54.716Z</time>
      </trkpt>
      <trkpt lat="45.72593" lon="6.7004">
        <ele>2122</ele>
        <time>2026-07-29T10:56:55.716Z</time>
      </trkpt>
      <trkpt lat="45.72593" lon="6.70039">
        <ele>2122</ele>
        <time>2026-07-29T10:56:56.716Z</time>
      </trkpt>
      <trkpt lat="45.72593" lon="6.70038">
        <ele>2123</ele>
        <time>2026-07-29T10:56:57.716Z</time>
      </trkpt>
      <trkpt lat="45.72592" lon="6.70037">
        <ele>2123</ele>
        <time>2026-07-29T10:56:58.716Z</time>
      </trkpt>
      <trkpt lat="45.72592" lon="6.70036">
        <ele>2124</ele>
        <time>2026-07-29T10:56:59.716Z</time>
      </trkpt>
      <trkpt lat="45.72592" lon="6.70035">
        <ele>2124</ele>
        <time>2026-07-29T10:57:00.716Z</time>
      </trkpt>
      <trkpt lat="45.72592" lon="6.70034">
        <ele>2124</ele>
        <time>2026-07-29T10:57:01.716Z</time>
      </trkpt>
      <trkpt lat="45.72592" lon="6.70033">
        <ele>2124</ele>
        <time>2026-07-29T10:57:02.716Z</time>
      </trkpt>
      <trkpt lat="45.72592" lon="6.70032">
        <ele>2124</ele>
        <time>2026-07-29T10:57:03.716Z</time>
      </trkpt>
      <trkpt lat="45.72593" lon="6.70031">
        <ele>2125</ele>
        <time>2026-07-29T10:57:04.716Z</time>
      </trkpt>
      <trkpt lat="45.72594" lon="6.70031">
        <ele>2125</ele>
        <time>2026-07-29T10:57:05.716Z</time>
      </trkpt>
      <trkpt lat="45.72594" lon="6.7003">
        <ele>2125</ele>
        <time>2026-07-29T10:57:06.716Z</time>
      </trkpt>
      <trkpt lat="45.72595" lon="6.70031">
        <ele>2126</ele>
        <time>2026-07-29T10:57:07.716Z</time>
      </trkpt>
      <trkpt lat="45.72596" lon="6.70031">
        <ele>2126</ele>
        <time>2026-07-29T10:57:08.716Z</time>
      </trkpt>
      <trkpt lat="45.72597" lon="6.70032">
        <ele>2127</ele>
        <time>2026-07-29T10:57:09.716Z</time>
      </trkpt>
      <trkpt lat="45.72598" lon="6.70033">
        <ele>2127</ele>
        <time>2026-07-29T10:57:10.716Z</time>
      </trkpt>
      <trkpt lat="45.72599" lon="6.70034">
        <ele>2127</ele>
        <time>2026-07-29T10:57:11.716Z</time>
      </trkpt>
      <trkpt lat="45.72599" lon="6.70035">
        <ele>2128</ele>
        <time>2026-07-29T10:57:12.716Z</time>
      </trkpt>
      <trkpt lat="45.726" lon="6.70035">
        <ele>2128</ele>
        <time>2026-07-29T10:57:13.716Z</time>
      </trkpt>
      <trkpt lat="45.72601" lon="6.70035">
        <ele>2127</ele>
        <time>2026-07-29T10:57:14.716Z</time>
      </trkpt>
      <trkpt lat="45.72602" lon="6.70036">
        <ele>2127</ele>
        <time>2026-07-29T10:57:15.716Z</time>
      </trkpt>
      <trkpt lat="45.72603" lon="6.70037">
        <ele>2126</ele>
        <time>2026-07-29T10:57:16.716Z</time>
      </trkpt>
      <trkpt lat="45.72604" lon="6.70038">
        <ele>2126</ele>
        <time>2026-07-29T10:57:17.716Z</time>
      </trkpt>
      <trkpt lat="45.72605" lon="6.70038">
        <ele>2125</ele>
        <time>2026-07-29T10:57:18.716Z</time>
      </trkpt>
      <trkpt lat="45.72605" lon="6.70039">
        <ele>2125</ele>
        <time>2026-07-29T10:57:19.716Z</time>
      </trkpt>
      <trkpt lat="45.72606" lon="6.70039">
        <ele>2125</ele>
        <time>2026-07-29T10:57:20.716Z</time>
      </trkpt>
      <trkpt lat="45.72607" lon="6.7004">
        <ele>2124</ele>
        <time>2026-07-29T10:57:21.716Z</time>
      </trkpt>
      <trkpt lat="45.72607" lon="6.7004">
        <ele>2124</ele>
        <time>2026-07-29T10:57:22.716Z</time>
      </trkpt>
      <trkpt lat="45.72608" lon="6.70041">
        <ele>2124</ele>
        <time>2026-07-29T10:57:23.716Z</time>
      </trkpt>
      <trkpt lat="45.72609" lon="6.70042">
        <ele>2124</ele>
        <time>2026-07-29T10:57:24.716Z</time>
      </trkpt>
      <trkpt lat="45.7261" lon="6.70043">
        <ele>2124</ele>
        <time>2026-07-29T10:57:25.716Z</time>
      </trkpt>
      <trkpt lat="45.72611" lon="6.70043">
        <ele>2124</ele>
        <time>2026-07-29T10:57:26.716Z</time>
      </trkpt>
      <trkpt lat="45.72612" lon="6.70043">
        <ele>2125</ele>
        <time>2026-07-29T10:57:27.716Z</time>
      </trkpt>
      <trkpt lat="45.72613" lon="6.70043">
        <ele>2125</ele>
        <time>2026-07-29T10:57:28.716Z</time>
      </trkpt>
      <trkpt lat="45.72614" lon="6.70044">
        <ele>2126</ele>
        <time>2026-07-29T10:57:29.716Z</time>
      </trkpt>
      <trkpt lat="45.72615" lon="6.70045">
        <ele>2126</ele>
        <time>2026-07-29T10:57:30.716Z</time>
      </trkpt>
      <trkpt lat="45.72616" lon="6.70046">
        <ele>2127</ele>
        <time>2026-07-29T10:57:31.716Z</time>
      </trkpt>
      <trkpt lat="45.72617" lon="6.70047">
        <ele>2127</ele>
        <time>2026-07-29T10:57:32.716Z</time>
      </trkpt>
      <trkpt lat="45.72617" lon="6.70048">
        <ele>2127</ele>
        <time>2026-07-29T10:57:33.716Z</time>
      </trkpt>
      <trkpt lat="45.72618" lon="6.70049">
        <ele>2128</ele>
        <time>2026-07-29T10:57:34.716Z</time>
      </trkpt>
      <trkpt lat="45.72619" lon="6.70049">
        <ele>2128</ele>
        <time>2026-07-29T10:57:35.716Z</time>
      </trkpt>
      <trkpt lat="45.7262" lon="6.70049">
        <ele>2129</ele>
        <time>2026-07-29T10:57:36.716Z</time>
      </trkpt>
      <trkpt lat="45.72621" lon="6.70049">
        <ele>2130</ele>
        <time>2026-07-29T10:57:37.716Z</time>
      </trkpt>
      <trkpt lat="45.72622" lon="6.7005">
        <ele>2131</ele>
        <time>2026-07-29T10:57:38.716Z</time>
      </trkpt>
      <trkpt lat="45.72623" lon="6.7005">
        <ele>2132</ele>
        <time>2026-07-29T10:57:39.716Z</time>
      </trkpt>
      <trkpt lat="45.72624" lon="6.7005">
        <ele>2132</ele>
        <time>2026-07-29T10:57:40.716Z</time>
      </trkpt>
      <trkpt lat="45.72625" lon="6.70051">
        <ele>2131</ele>
        <time>2026-07-29T10:57:41.716Z</time>
      </trkpt>
      <trkpt lat="45.72627" lon="6.70052">
        <ele>2131</ele>
        <time>2026-07-29T10:57:42.716Z</time>
      </trkpt>
      <trkpt lat="45.72628" lon="6.70052">
        <ele>2131</ele>
        <time>2026-07-29T10:57:43.716Z</time>
      </trkpt>
      <trkpt lat="45.72629" lon="6.70053">
        <ele>2131</ele>
        <time>2026-07-29T10:57:44.716Z</time>
      </trkpt>
      <trkpt lat="45.7263" lon="6.70053">
        <ele>2132</ele>
        <time>2026-07-29T10:57:45.716Z</time>
      </trkpt>
      <trkpt lat="45.72632" lon="6.70053">
        <ele>2133</ele>
        <time>2026-07-29T10:57:46.716Z</time>
      </trkpt>
      <trkpt lat="45.72633" lon="6.70054">
        <ele>2134</ele>
        <time>2026-07-29T10:57:47.716Z</time>
      </trkpt>
      <trkpt lat="45.72634" lon="6.70054">
        <ele>2134</ele>
        <time>2026-07-29T10:57:48.716Z</time>
      </trkpt>
      <trkpt lat="45.72635" lon="6.70054">
        <ele>2135</ele>
        <time>2026-07-29T10:57:49.716Z</time>
      </trkpt>
      <trkpt lat="45.72635" lon="6.70055">
        <ele>2135</ele>
        <time>2026-07-29T10:57:50.716Z</time>
      </trkpt>
      <trkpt lat="45.72636" lon="6.70054">
        <ele>2135</ele>
        <time>2026-07-29T10:57:51.716Z</time>
      </trkpt>
      <trkpt lat="45.72637" lon="6.70055">
        <ele>2135</ele>
        <time>2026-07-29T10:57:52.716Z</time>
      </trkpt>
      <trkpt lat="45.72638" lon="6.70055">
        <ele>2135</ele>
        <time>2026-07-29T10:57:53.716Z</time>
      </trkpt>
      <trkpt lat="45.72639" lon="6.70056">
        <ele>2135</ele>
        <time>2026-07-29T10:57:54.716Z</time>
      </trkpt>
      <trkpt lat="45.72639" lon="6.70057">
        <ele>2135</ele>
        <time>2026-07-29T10:57:55.716Z</time>
      </trkpt>
      <trkpt lat="45.7264" lon="6.70059">
        <ele>2136</ele>
        <time>2026-07-29T10:57:56.716Z</time>
      </trkpt>
      <trkpt lat="45.7264" lon="6.7006">
        <ele>2136</ele>
        <time>2026-07-29T10:57:57.716Z</time>
      </trkpt>
      <trkpt lat="45.72641" lon="6.70062">
        <ele>2136</ele>
        <time>2026-07-29T10:57:58.716Z</time>
      </trkpt>
      <trkpt lat="45.72641" lon="6.70063">
        <ele>2136</ele>
        <time>2026-07-29T10:57:59.716Z</time>
      </trkpt>
      <trkpt lat="45.72642" lon="6.70065">
        <ele>2137</ele>
        <time>2026-07-29T10:58:00.716Z</time>
      </trkpt>
      <trkpt lat="45.72643" lon="6.70066">
        <ele>2137</ele>
        <time>2026-07-29T10:58:01.716Z</time>
      </trkpt>
      <trkpt lat="45.72643" lon="6.70067">
        <ele>2137</ele>
        <time>2026-07-29T10:58:02.716Z</time>
      </trkpt>
      <trkpt lat="45.72644" lon="6.70068">
        <ele>2137</ele>
        <time>2026-07-29T10:58:03.716Z</time>
      </trkpt>
      <trkpt lat="45.72645" lon="6.70069">
        <ele>2136</ele>
        <time>2026-07-29T10:58:04.716Z</time>
      </trkpt>
      <trkpt lat="45.72646" lon="6.7007">
        <ele>2136</ele>
        <time>2026-07-29T10:58:05.716Z</time>
      </trkpt>
      <trkpt lat="45.72647" lon="6.70071">
        <ele>2136</ele>
        <time>2026-07-29T10:58:06.716Z</time>
      </trkpt>
      <trkpt lat="45.72648" lon="6.70072">
        <ele>2136</ele>
        <time>2026-07-29T10:58:07.716Z</time>
      </trkpt>
      <trkpt lat="45.72649" lon="6.70073">
        <ele>2136</ele>
        <time>2026-07-29T10:58:08.716Z</time>
      </trkpt>
      <trkpt lat="45.7265" lon="6.70074">
        <ele>2136</ele>
        <time>2026-07-29T10:58:09.716Z</time>
      </trkpt>
      <trkpt lat="45.72651" lon="6.70075">
        <ele>2136</ele>
        <time>2026-07-29T10:58:10.716Z</time>
      </trkpt>
      <trkpt lat="45.72652" lon="6.70076">
        <ele>2136</ele>
        <time>2026-07-29T10:58:11.716Z</time>
      </trkpt>
      <trkpt lat="45.72652" lon="6.70077">
        <ele>2136</ele>
        <time>2026-07-29T10:58:12.716Z</time>
      </trkpt>
      <trkpt lat="45.72653" lon="6.70077">
        <ele>2136</ele>
        <time>2026-07-29T10:58:13.716Z</time>
      </trkpt>
      <trkpt lat="45.72654" lon="6.70077">
        <ele>2136</ele>
        <time>2026-07-29T10:58:14.716Z</time>
      </trkpt>
      <trkpt lat="45.72655" lon="6.70077">
        <ele>2136</ele>
        <time>2026-07-29T10:58:15.716Z</time>
      </trkpt>
      <trkpt lat="45.72656" lon="6.70078">
        <ele>2136</ele>
        <time>2026-07-29T10:58:16.716Z</time>
      </trkpt>
      <trkpt lat="45.72657" lon="6.70078">
        <ele>2136</ele>
        <time>2026-07-29T10:58:17.716Z</time>
      </trkpt>
      <trkpt lat="45.72658" lon="6.70078">
        <ele>2137</ele>
        <time>2026-07-29T10:58:18.716Z</time>
      </trkpt>
      <trkpt lat="45.7266" lon="6.70078">
        <ele>2137</ele>
        <time>2026-07-29T10:58:19.716Z</time>
      </trkpt>
      <trkpt lat="45.72661" lon="6.70079">
        <ele>2138</ele>
        <time>2026-07-29T10:58:20.716Z</time>
      </trkpt>
      <trkpt lat="45.72662" lon="6.70079">
        <ele>2139</ele>
        <time>2026-07-29T10:58:21.716Z</time>
      </trkpt>
      <trkpt lat="45.72663" lon="6.7008">
        <ele>2139</ele>
        <time>2026-07-29T10:58:22.716Z</time>
      </trkpt>
      <trkpt lat="45.72664" lon="6.7008">
        <ele>2139</ele>
        <time>2026-07-29T10:58:23.716Z</time>
      </trkpt>
      <trkpt lat="45.72665" lon="6.70081">
        <ele>2139</ele>
        <time>2026-07-29T10:58:24.716Z</time>
      </trkpt>
      <trkpt lat="45.72666" lon="6.70081">
        <ele>2139</ele>
        <time>2026-07-29T10:58:25.716Z</time>
      </trkpt>
      <trkpt lat="45.72667" lon="6.70082">
        <ele>2139</ele>
        <time>2026-07-29T10:58:26.716Z</time>
      </trkpt>
      <trkpt lat="45.72668" lon="6.70083">
        <ele>2138</ele>
        <time>2026-07-29T10:58:27.716Z</time>
      </trkpt>
      <trkpt lat="45.72669" lon="6.70083">
        <ele>2138</ele>
        <time>2026-07-29T10:58:28.716Z</time>
      </trkpt>
      <trkpt lat="45.7267" lon="6.70084">
        <ele>2138</ele>
        <time>2026-07-29T10:58:29.716Z</time>
      </trkpt>
      <trkpt lat="45.72671" lon="6.70085">
        <ele>2139</ele>
        <time>2026-07-29T10:58:30.716Z</time>
      </trkpt>
      <trkpt lat="45.72672" lon="6.70085">
        <ele>2139</ele>
        <time>2026-07-29T10:58:31.716Z</time>
      </trkpt>
      <trkpt lat="45.72672" lon="6.70086">
        <ele>2139</ele>
        <time>2026-07-29T10:58:32.716Z</time>
      </trkpt>
      <trkpt lat="45.72674" lon="6.70086">
        <ele>2139</ele>
        <time>2026-07-29T10:58:33.716Z</time>
      </trkpt>
      <trkpt lat="45.72674" lon="6.70086">
        <ele>2140</ele>
        <time>2026-07-29T10:58:34.716Z</time>
      </trkpt>
      <trkpt lat="45.72675" lon="6.70086">
        <ele>2140</ele>
        <time>2026-07-29T10:58:35.716Z</time>
      </trkpt>
      <trkpt lat="45.72676" lon="6.70087">
        <ele>2140</ele>
        <time>2026-07-29T10:58:36.716Z</time>
      </trkpt>
      <trkpt lat="45.72677" lon="6.70087">
        <ele>2140</ele>
        <time>2026-07-29T10:58:37.716Z</time>
      </trkpt>
      <trkpt lat="45.72678" lon="6.70087">
        <ele>2140</ele>
        <time>2026-07-29T10:58:38.716Z</time>
      </trkpt>
      <trkpt lat="45.72679" lon="6.70088">
        <ele>2140</ele>
        <time>2026-07-29T10:58:39.716Z</time>
      </trkpt>
      <trkpt lat="45.7268" lon="6.70089">
        <ele>2141</ele>
        <time>2026-07-29T10:58:40.716Z</time>
      </trkpt>
      <trkpt lat="45.7268" lon="6.70089">
        <ele>2141</ele>
        <time>2026-07-29T10:58:41.716Z</time>
      </trkpt>
      <trkpt lat="45.72681" lon="6.7009">
        <ele>2141</ele>
        <time>2026-07-29T10:58:42.716Z</time>
      </trkpt>
      <trkpt lat="45.72682" lon="6.7009">
        <ele>2141</ele>
        <time>2026-07-29T10:58:43.716Z</time>
      </trkpt>
      <trkpt lat="45.72683" lon="6.70091">
        <ele>2142</ele>
        <time>2026-07-29T10:58:44.716Z</time>
      </trkpt>
      <trkpt lat="45.72684" lon="6.70092">
        <ele>2143</ele>
        <time>2026-07-29T10:58:45.716Z</time>
      </trkpt>
      <trkpt lat="45.72685" lon="6.70093">
        <ele>2143</ele>
        <time>2026-07-29T10:58:46.716Z</time>
      </trkpt>
      <trkpt lat="45.72686" lon="6.70093">
        <ele>2143</ele>
        <time>2026-07-29T10:58:47.716Z</time>
      </trkpt>
      <trkpt lat="45.72687" lon="6.70094">
        <ele>2144</ele>
        <time>2026-07-29T10:58:48.716Z</time>
      </trkpt>
      <trkpt lat="45.72688" lon="6.70095">
        <ele>2144</ele>
        <time>2026-07-29T10:58:49.716Z</time>
      </trkpt>
      <trkpt lat="45.72689" lon="6.70095">
        <ele>2145</ele>
        <time>2026-07-29T10:58:50.716Z</time>
      </trkpt>
      <trkpt lat="45.7269" lon="6.70095">
        <ele>2145</ele>
        <time>2026-07-29T10:58:51.716Z</time>
      </trkpt>
      <trkpt lat="45.72691" lon="6.70096">
        <ele>2146</ele>
        <time>2026-07-29T10:58:52.716Z</time>
      </trkpt>
      <trkpt lat="45.72692" lon="6.70097">
        <ele>2146</ele>
        <time>2026-07-29T10:58:53.716Z</time>
      </trkpt>
      <trkpt lat="45.72693" lon="6.70098">
        <ele>2147</ele>
        <time>2026-07-29T10:58:54.716Z</time>
      </trkpt>
      <trkpt lat="45.72694" lon="6.70099">
        <ele>2147</ele>
        <time>2026-07-29T10:58:55.716Z</time>
      </trkpt>
      <trkpt lat="45.72695" lon="6.70099">
        <ele>2147</ele>
        <time>2026-07-29T10:58:56.716Z</time>
      </trkpt>
      <trkpt lat="45.72696" lon="6.70099">
        <ele>2148</ele>
        <time>2026-07-29T10:58:57.716Z</time>
      </trkpt>
      <trkpt lat="45.72697" lon="6.701">
        <ele>2148</ele>
        <time>2026-07-29T10:58:58.716Z</time>
      </trkpt>
      <trkpt lat="45.72698" lon="6.701">
        <ele>2148</ele>
        <time>2026-07-29T10:58:59.716Z</time>
      </trkpt>
      <trkpt lat="45.72699" lon="6.701">
        <ele>2148</ele>
        <time>2026-07-29T10:59:00.716Z</time>
      </trkpt>
      <trkpt lat="45.727" lon="6.701">
        <ele>2148</ele>
        <time>2026-07-29T10:59:01.716Z</time>
      </trkpt>
      <trkpt lat="45.727" lon="6.701">
        <ele>2148</ele>
        <time>2026-07-29T10:59:02.716Z</time>
      </trkpt>
      <trkpt lat="45.72701" lon="6.701">
        <ele>2147</ele>
        <time>2026-07-29T10:59:03.716Z</time>
      </trkpt>
      <trkpt lat="45.72702" lon="6.70101">
        <ele>2147</ele>
        <time>2026-07-29T10:59:04.716Z</time>
      </trkpt>
      <trkpt lat="45.72702" lon="6.70101">
        <ele>2147</ele>
        <time>2026-07-29T10:59:05.716Z</time>
      </trkpt>
      <trkpt lat="45.72703" lon="6.70102">
        <ele>2146</ele>
        <time>2026-07-29T10:59:06.716Z</time>
      </trkpt>
      <trkpt lat="45.72704" lon="6.70102">
        <ele>2145</ele>
        <time>2026-07-29T10:59:07.716Z</time>
      </trkpt>
      <trkpt lat="45.72704" lon="6.70103">
        <ele>2145</ele>
        <time>2026-07-29T10:59:08.716Z</time>
      </trkpt>
      <trkpt lat="45.72705" lon="6.70103">
        <ele>2145</ele>
        <time>2026-07-29T10:59:09.716Z</time>
      </trkpt>
      <trkpt lat="45.72705" lon="6.70104">
        <ele>2146</ele>
        <time>2026-07-29T10:59:10.716Z</time>
      </trkpt>
      <trkpt lat="45.72705" lon="6.70104">
        <ele>2146</ele>
        <time>2026-07-29T10:59:11.716Z</time>
      </trkpt>
      <trkpt lat="45.72706" lon="6.70104">
        <ele>2147</ele>
        <time>2026-07-29T10:59:12.716Z</time>
      </trkpt>
      <trkpt lat="45.72706" lon="6.70104">
        <ele>2148</ele>
        <time>2026-07-29T10:59:13.716Z</time>
      </trkpt>
      <trkpt lat="45.72706" lon="6.70104">
        <ele>2148</ele>
        <time>2026-07-29T10:59:14.716Z</time>
      </trkpt>
      <trkpt lat="45.72706" lon="6.70104">
        <ele>2149</ele>
        <time>2026-07-29T10:59:15.716Z</time>
      </trkpt>
      <trkpt lat="45.72706" lon="6.70105">
        <ele>2149</ele>
        <time>2026-07-29T10:59:16.716Z</time>
      </trkpt>
      <trkpt lat="45.72707" lon="6.70106">
        <ele>2149</ele>
        <time>2026-07-29T10:59:17.716Z</time>
      </trkpt>
      <trkpt lat="45.72707" lon="6.70106">
        <ele>2150</ele>
        <time>2026-07-29T10:59:18.716Z</time>
      </trkpt>
      <trkpt lat="45.72708" lon="6.70107">
        <ele>2150</ele>
        <time>2026-07-29T10:59:19.716Z</time>
      </trkpt>
      <trkpt lat="45.72709" lon="6.70108">
        <ele>2151</ele>
        <time>2026-07-29T10:59:20.716Z</time>
      </trkpt>
      <trkpt lat="45.7271" lon="6.70109">
        <ele>2151</ele>
        <time>2026-07-29T10:59:21.716Z</time>
      </trkpt>
      <trkpt lat="45.72711" lon="6.70109">
        <ele>2151</ele>
        <time>2026-07-29T10:59:22.716Z</time>
      </trkpt>
      <trkpt lat="45.72712" lon="6.7011">
        <ele>2152</ele>
        <time>2026-07-29T10:59:23.716Z</time>
      </trkpt>
      <trkpt lat="45.72713" lon="6.7011">
        <ele>2152</ele>
        <time>2026-07-29T10:59:24.716Z</time>
      </trkpt>
      <trkpt lat="45.72714" lon="6.7011">
        <ele>2153</ele>
        <time>2026-07-29T10:59:25.716Z</time>
      </trkpt>
      <trkpt lat="45.72715" lon="6.7011">
        <ele>2154</ele>
        <time>2026-07-29T10:59:26.716Z</time>
      </trkpt>
      <trkpt lat="45.72716" lon="6.70111">
        <ele>2155</ele>
        <time>2026-07-29T10:59:27.716Z</time>
      </trkpt>
      <trkpt lat="45.72717" lon="6.70111">
        <ele>2155</ele>
        <time>2026-07-29T10:59:28.716Z</time>
      </trkpt>
      <trkpt lat="45.72718" lon="6.70112">
        <ele>2156</ele>
        <time>2026-07-29T10:59:29.716Z</time>
      </trkpt>
      <trkpt lat="45.72719" lon="6.70112">
        <ele>2156</ele>
        <time>2026-07-29T10:59:30.716Z</time>
      </trkpt>
      <trkpt lat="45.7272" lon="6.70113">
        <ele>2156</ele>
        <time>2026-07-29T10:59:31.716Z</time>
      </trkpt>
      <trkpt lat="45.72721" lon="6.70113">
        <ele>2157</ele>
        <time>2026-07-29T10:59:32.716Z</time>
      </trkpt>
      <trkpt lat="45.72722" lon="6.70114">
        <ele>2157</ele>
        <time>2026-07-29T10:59:33.716Z</time>
      </trkpt>
      <trkpt lat="45.72723" lon="6.70114">
        <ele>2156</ele>
        <time>2026-07-29T10:59:34.716Z</time>
      </trkpt>
      <trkpt lat="45.72725" lon="6.70114">
        <ele>2156</ele>
        <time>2026-07-29T10:59:35.716Z</time>
      </trkpt>
      <trkpt lat="45.72726" lon="6.70114">
        <ele>2157</ele>
        <time>2026-07-29T10:59:36.716Z</time>
      </trkpt>
      <trkpt lat="45.72727" lon="6.70114">
        <ele>2157</ele>
        <time>2026-07-29T10:59:37.716Z</time>
      </trkpt>
      <trkpt lat="45.72728" lon="6.70114">
        <ele>2157</ele>
        <time>2026-07-29T10:59:38.716Z</time>
      </trkpt>
      <trkpt lat="45.72729" lon="6.70115">
        <ele>2157</ele>
        <time>2026-07-29T10:59:39.716Z</time>
      </trkpt>
      <trkpt lat="45.7273" lon="6.70116">
        <ele>2157</ele>
        <time>2026-07-29T10:59:40.716Z</time>
      </trkpt>
      <trkpt lat="45.72731" lon="6.70117">
        <ele>2157</ele>
        <time>2026-07-29T10:59:41.716Z</time>
      </trkpt>
      <trkpt lat="45.72732" lon="6.70118">
        <ele>2158</ele>
        <time>2026-07-29T10:59:42.716Z</time>
      </trkpt>
      <trkpt lat="45.72732" lon="6.70119">
        <ele>2158</ele>
        <time>2026-07-29T10:59:43.716Z</time>
      </trkpt>
      <trkpt lat="45.72733" lon="6.7012">
        <ele>2158</ele>
        <time>2026-07-29T10:59:44.716Z</time>
      </trkpt>
      <trkpt lat="45.72734" lon="6.70121">
        <ele>2159</ele>
        <time>2026-07-29T10:59:45.716Z</time>
      </trkpt>
      <trkpt lat="45.72735" lon="6.70122">
        <ele>2159</ele>
        <time>2026-07-29T10:59:46.716Z</time>
      </trkpt>
      <trkpt lat="45.72736" lon="6.70123">
        <ele>2160</ele>
        <time>2026-07-29T10:59:47.716Z</time>
      </trkpt>
      <trkpt lat="45.72737" lon="6.70124">
        <ele>2160</ele>
        <time>2026-07-29T10:59:48.716Z</time>
      </trkpt>
      <trkpt lat="45.72738" lon="6.70124">
        <ele>2161</ele>
        <time>2026-07-29T10:59:49.716Z</time>
      </trkpt>
      <trkpt lat="45.72739" lon="6.70125">
        <ele>2161</ele>
        <time>2026-07-29T10:59:50.716Z</time>
      </trkpt>
      <trkpt lat="45.7274" lon="6.70126">
        <ele>2161</ele>
        <time>2026-07-29T10:59:51.716Z</time>
      </trkpt>
      <trkpt lat="45.72741" lon="6.70126">
        <ele>2162</ele>
        <time>2026-07-29T10:59:52.716Z</time>
      </trkpt>
      <trkpt lat="45.72742" lon="6.70127">
        <ele>2162</ele>
        <time>2026-07-29T10:59:53.716Z</time>
      </trkpt>
      <trkpt lat="45.72743" lon="6.70128">
        <ele>2162</ele>
        <time>2026-07-29T10:59:54.716Z</time>
      </trkpt>
      <trkpt lat="45.72744" lon="6.70129">
        <ele>2162</ele>
        <time>2026-07-29T10:59:55.716Z</time>
      </trkpt>
      <trkpt lat="45.72745" lon="6.7013">
        <ele>2163</ele>
        <time>2026-07-29T10:59:56.716Z</time>
      </trkpt>
      <trkpt lat="45.72746" lon="6.70131">
        <ele>2163</ele>
        <time>2026-07-29T10:59:57.716Z</time>
      </trkpt>
      <trkpt lat="45.72747" lon="6.70132">
        <ele>2163</ele>
        <time>2026-07-29T10:59:58.716Z</time>
      </trkpt>
      <trkpt lat="45.72748" lon="6.70132">
        <ele>2163</ele>
        <time>2026-07-29T10:59:59.716Z</time>
      </trkpt>
      <trkpt lat="45.72749" lon="6.70133">
        <ele>2163</ele>
        <time>2026-07-29T11:00:00.716Z</time>
      </trkpt>
      <trkpt lat="45.7275" lon="6.70133">
        <ele>2162</ele>
        <time>2026-07-29T11:00:01.716Z</time>
      </trkpt>
      <trkpt lat="45.72751" lon="6.70134">
        <ele>2162</ele>
        <time>2026-07-29T11:00:02.716Z</time>
      </trkpt>
      <trkpt lat="45.72752" lon="6.70134">
        <ele>2162</ele>
        <time>2026-07-29T11:00:03.716Z</time>
      </trkpt>
      <trkpt lat="45.72753" lon="6.70134">
        <ele>2162</ele>
        <time>2026-07-29T11:00:04.716Z</time>
      </trkpt>
      <trkpt lat="45.72753" lon="6.70135">
        <ele>2162</ele>
        <time>2026-07-29T11:00:05.716Z</time>
      </trkpt>
      <trkpt lat="45.72754" lon="6.70135">
        <ele>2162</ele>
        <time>2026-07-29T11:00:06.716Z</time>
      </trkpt>
      <trkpt lat="45.72755" lon="6.70135">
        <ele>2162</ele>
        <time>2026-07-29T11:00:07.716Z</time>
      </trkpt>
      <trkpt lat="45.72756" lon="6.70135">
        <ele>2162</ele>
        <time>2026-07-29T11:00:08.716Z</time>
      </trkpt>
      <trkpt lat="45.72757" lon="6.70136">
        <ele>2162</ele>
        <time>2026-07-29T11:00:09.716Z</time>
      </trkpt>
      <trkpt lat="45.72758" lon="6.70137">
        <ele>2163</ele>
        <time>2026-07-29T11:00:10.716Z</time>
      </trkpt>
      <trkpt lat="45.72759" lon="6.70137">
        <ele>2163</ele>
        <time>2026-07-29T11:00:11.716Z</time>
      </trkpt>
      <trkpt lat="45.7276" lon="6.70138">
        <ele>2163</ele>
        <time>2026-07-29T11:00:12.716Z</time>
      </trkpt>
      <trkpt lat="45.72761" lon="6.70138">
        <ele>2163</ele>
        <time>2026-07-29T11:00:13.716Z</time>
      </trkpt>
      <trkpt lat="45.72762" lon="6.70139">
        <ele>2164</ele>
        <time>2026-07-29T11:00:14.716Z</time>
      </trkpt>
      <trkpt lat="45.72762" lon="6.70139">
        <ele>2164</ele>
        <time>2026-07-29T11:00:15.716Z</time>
      </trkpt>
      <trkpt lat="45.72763" lon="6.7014">
        <ele>2165</ele>
        <time>2026-07-29T11:00:16.716Z</time>
      </trkpt>
      <trkpt lat="45.72764" lon="6.7014">
        <ele>2166</ele>
        <time>2026-07-29T11:00:17.716Z</time>
      </trkpt>
      <trkpt lat="45.72765" lon="6.70141">
        <ele>2167</ele>
        <time>2026-07-29T11:00:18.716Z</time>
      </trkpt>
      <trkpt lat="45.72765" lon="6.70141">
        <ele>2168</ele>
        <time>2026-07-29T11:00:19.716Z</time>
      </trkpt>
      <trkpt lat="45.72766" lon="6.70142">
        <ele>2168</ele>
        <time>2026-07-29T11:00:20.716Z</time>
      </trkpt>
      <trkpt lat="45.72767" lon="6.70142">
        <ele>2168</ele>
        <time>2026-07-29T11:00:21.716Z</time>
      </trkpt>
      <trkpt lat="45.72768" lon="6.70143">
        <ele>2168</ele>
        <time>2026-07-29T11:00:22.716Z</time>
      </trkpt>
      <trkpt lat="45.72769" lon="6.70144">
        <ele>2168</ele>
        <time>2026-07-29T11:00:23.716Z</time>
      </trkpt>
      <trkpt lat="45.7277" lon="6.70144">
        <ele>2169</ele>
        <time>2026-07-29T11:00:24.716Z</time>
      </trkpt>
      <trkpt lat="45.72771" lon="6.70145">
        <ele>2169</ele>
        <time>2026-07-29T11:00:25.716Z</time>
      </trkpt>
      <trkpt lat="45.72772" lon="6.70146">
        <ele>2170</ele>
        <time>2026-07-29T11:00:26.716Z</time>
      </trkpt>
      <trkpt lat="45.72773" lon="6.70147">
        <ele>2170</ele>
        <time>2026-07-29T11:00:27.716Z</time>
      </trkpt>
      <trkpt lat="45.72774" lon="6.70148">
        <ele>2171</ele>
        <time>2026-07-29T11:00:28.716Z</time>
      </trkpt>
      <trkpt lat="45.72775" lon="6.70149">
        <ele>2171</ele>
        <time>2026-07-29T11:00:29.716Z</time>
      </trkpt>
      <trkpt lat="45.72776" lon="6.7015">
        <ele>2171</ele>
        <time>2026-07-29T11:00:30.716Z</time>
      </trkpt>
      <trkpt lat="45.72777" lon="6.70151">
        <ele>2171</ele>
        <time>2026-07-29T11:00:31.716Z</time>
      </trkpt>
      <trkpt lat="45.72778" lon="6.70151">
        <ele>2171</ele>
        <time>2026-07-29T11:00:32.716Z</time>
      </trkpt>
      <trkpt lat="45.72779" lon="6.70152">
        <ele>2171</ele>
        <time>2026-07-29T11:00:33.716Z</time>
      </trkpt>
      <trkpt lat="45.7278" lon="6.70153">
        <ele>2171</ele>
        <time>2026-07-29T11:00:34.716Z</time>
      </trkpt>
      <trkpt lat="45.72781" lon="6.70154">
        <ele>2171</ele>
        <time>2026-07-29T11:00:35.716Z</time>
      </trkpt>
      <trkpt lat="45.72782" lon="6.70155">
        <ele>2171</ele>
        <time>2026-07-29T11:00:36.716Z</time>
      </trkpt>
      <trkpt lat="45.72782" lon="6.70156">
        <ele>2171</ele>
        <time>2026-07-29T11:00:37.716Z</time>
      </trkpt>
      <trkpt lat="45.72783" lon="6.70157">
        <ele>2171</ele>
        <time>2026-07-29T11:00:38.716Z</time>
      </trkpt>
      <trkpt lat="45.72784" lon="6.70158">
        <ele>2171</ele>
        <time>2026-07-29T11:00:39.716Z</time>
      </trkpt>
      <trkpt lat="45.72785" lon="6.70159">
        <ele>2172</ele>
        <time>2026-07-29T11:00:40.716Z</time>
      </trkpt>
      <trkpt lat="45.72786" lon="6.7016">
        <ele>2172</ele>
        <time>2026-07-29T11:00:41.716Z</time>
      </trkpt>
      <trkpt lat="45.72787" lon="6.70161">
        <ele>2172</ele>
        <time>2026-07-29T11:00:42.716Z</time>
      </trkpt>
      <trkpt lat="45.72788" lon="6.70161">
        <ele>2171</ele>
        <time>2026-07-29T11:00:43.716Z</time>
      </trkpt>
      <trkpt lat="45.72789" lon="6.70162">
        <ele>2171</ele>
        <time>2026-07-29T11:00:44.716Z</time>
      </trkpt>
      <trkpt lat="45.7279" lon="6.70163">
        <ele>2171</ele>
        <time>2026-07-29T11:00:45.716Z</time>
      </trkpt>
      <trkpt lat="45.72791" lon="6.70164">
        <ele>2171</ele>
        <time>2026-07-29T11:00:46.716Z</time>
      </trkpt>
      <trkpt lat="45.72792" lon="6.70165">
        <ele>2171</ele>
        <time>2026-07-29T11:00:47.716Z</time>
      </trkpt>
      <trkpt lat="45.72793" lon="6.70166">
        <ele>2171</ele>
        <time>2026-07-29T11:00:48.716Z</time>
      </trkpt>
      <trkpt lat="45.72794" lon="6.70167">
        <ele>2171</ele>
        <time>2026-07-29T11:00:49.716Z</time>
      </trkpt>
      <trkpt lat="45.72795" lon="6.70168">
        <ele>2171</ele>
        <time>2026-07-29T11:00:50.716Z</time>
      </trkpt>
      <trkpt lat="45.72796" lon="6.70168">
        <ele>2172</ele>
        <time>2026-07-29T11:00:51.716Z</time>
      </trkpt>
      <trkpt lat="45.72797" lon="6.70169">
        <ele>2172</ele>
        <time>2026-07-29T11:00:52.716Z</time>
      </trkpt>
      <trkpt lat="45.72798" lon="6.7017">
        <ele>2173</ele>
        <time>2026-07-29T11:00:53.716Z</time>
      </trkpt>
      <trkpt lat="45.72799" lon="6.7017">
        <ele>2173</ele>
        <time>2026-07-29T11:00:54.716Z</time>
      </trkpt>
      <trkpt lat="45.728" lon="6.70171">
        <ele>2173</ele>
        <time>2026-07-29T11:00:55.716Z</time>
      </trkpt>
      <trkpt lat="45.72801" lon="6.70172">
        <ele>2173</ele>
        <time>2026-07-29T11:00:56.716Z</time>
      </trkpt>
      <trkpt lat="45.72802" lon="6.70173">
        <ele>2173</ele>
        <time>2026-07-29T11:00:57.716Z</time>
      </trkpt>
      <trkpt lat="45.72803" lon="6.70173">
        <ele>2173</ele>
        <time>2026-07-29T11:00:58.716Z</time>
      </trkpt>
      <trkpt lat="45.72804" lon="6.70174">
        <ele>2173</ele>
        <time>2026-07-29T11:00:59.716Z</time>
      </trkpt>
      <trkpt lat="45.72805" lon="6.70175">
        <ele>2173</ele>
        <time>2026-07-29T11:01:00.716Z</time>
      </trkpt>
      <trkpt lat="45.72805" lon="6.70175">
        <ele>2173</ele>
        <time>2026-07-29T11:01:01.716Z</time>
      </trkpt>
      <trkpt lat="45.72804" lon="6.70176">
        <ele>2173</ele>
        <time>2026-07-29T11:01:02.716Z</time>
      </trkpt>
      <trkpt lat="45.72803" lon="6.70176">
        <ele>2173</ele>
        <time>2026-07-29T11:01:03.716Z</time>
      </trkpt>
      <trkpt lat="45.72802" lon="6.70177">
        <ele>2174</ele>
        <time>2026-07-29T11:01:04.716Z</time>
      </trkpt>
      <trkpt lat="45.72801" lon="6.70177">
        <ele>2174</ele>
        <time>2026-07-29T11:01:05.716Z</time>
      </trkpt>
      <trkpt lat="45.728" lon="6.70178">
        <ele>2174</ele>
        <time>2026-07-29T11:01:06.716Z</time>
      </trkpt>
      <trkpt lat="45.72799" lon="6.70177">
        <ele>2175</ele>
        <time>2026-07-29T11:01:07.716Z</time>
      </trkpt>
      <trkpt lat="45.72798" lon="6.70177">
        <ele>2175</ele>
        <time>2026-07-29T11:01:08.716Z</time>
      </trkpt>
      <trkpt lat="45.72797" lon="6.70177">
        <ele>2176</ele>
        <time>2026-07-29T11:01:09.716Z</time>
      </trkpt>
      <trkpt lat="45.72796" lon="6.70177">
        <ele>2176</ele>
        <time>2026-07-29T11:01:10.716Z</time>
      </trkpt>
      <trkpt lat="45.72795" lon="6.70177">
        <ele>2177</ele>
        <time>2026-07-29T11:01:11.716Z</time>
      </trkpt>
      <trkpt lat="45.72794" lon="6.70177">
        <ele>2177</ele>
        <time>2026-07-29T11:01:12.716Z</time>
      </trkpt>
      <trkpt lat="45.72793" lon="6.70178">
        <ele>2177</ele>
        <time>2026-07-29T11:01:13.716Z</time>
      </trkpt>
      <trkpt lat="45.72792" lon="6.70178">
        <ele>2178</ele>
        <time>2026-07-29T11:01:14.716Z</time>
      </trkpt>
      <trkpt lat="45.7279" lon="6.70178">
        <ele>2178</ele>
        <time>2026-07-29T11:01:15.716Z</time>
      </trkpt>
      <trkpt lat="45.72789" lon="6.70178">
        <ele>2178</ele>
        <time>2026-07-29T11:01:16.716Z</time>
      </trkpt>
      <trkpt lat="45.72787" lon="6.70177">
        <ele>2178</ele>
        <time>2026-07-29T11:01:17.716Z</time>
      </trkpt>
      <trkpt lat="45.72786" lon="6.70177">
        <ele>2178</ele>
        <time>2026-07-29T11:01:18.716Z</time>
      </trkpt>
      <trkpt lat="45.72785" lon="6.70177">
        <ele>2178</ele>
        <time>2026-07-29T11:01:19.716Z</time>
      </trkpt>
      <trkpt lat="45.72784" lon="6.70178">
        <ele>2178</ele>
        <time>2026-07-29T11:01:20.716Z</time>
      </trkpt>
      <trkpt lat="45.72783" lon="6.70178">
        <ele>2178</ele>
        <time>2026-07-29T11:01:21.716Z</time>
      </trkpt>
      <trkpt lat="45.72782" lon="6.70178">
        <ele>2178</ele>
        <time>2026-07-29T11:01:22.716Z</time>
      </trkpt>
      <trkpt lat="45.7278" lon="6.70178">
        <ele>2178</ele>
        <time>2026-07-29T11:01:23.716Z</time>
      </trkpt>
      <trkpt lat="45.72779" lon="6.70179">
        <ele>2178</ele>
        <time>2026-07-29T11:01:24.716Z</time>
      </trkpt>
      <trkpt lat="45.72778" lon="6.70179">
        <ele>2178</ele>
        <time>2026-07-29T11:01:25.716Z</time>
      </trkpt>
      <trkpt lat="45.72777" lon="6.70179">
        <ele>2178</ele>
        <time>2026-07-29T11:01:26.716Z</time>
      </trkpt>
      <trkpt lat="45.72776" lon="6.70179">
        <ele>2179</ele>
        <time>2026-07-29T11:01:27.716Z</time>
      </trkpt>
      <trkpt lat="45.72776" lon="6.7018">
        <ele>2179</ele>
        <time>2026-07-29T11:01:28.716Z</time>
      </trkpt>
      <trkpt lat="45.72775" lon="6.7018">
        <ele>2179</ele>
        <time>2026-07-29T11:01:29.716Z</time>
      </trkpt>
      <trkpt lat="45.72774" lon="6.70181">
        <ele>2179</ele>
        <time>2026-07-29T11:01:30.716Z</time>
      </trkpt>
      <trkpt lat="45.72773" lon="6.70182">
        <ele>2180</ele>
        <time>2026-07-29T11:01:31.716Z</time>
      </trkpt>
      <trkpt lat="45.72772" lon="6.70183">
        <ele>2180</ele>
        <time>2026-07-29T11:01:32.716Z</time>
      </trkpt>
      <trkpt lat="45.72772" lon="6.70184">
        <ele>2181</ele>
        <time>2026-07-29T11:01:33.716Z</time>
      </trkpt>
      <trkpt lat="45.72771" lon="6.70185">
        <ele>2181</ele>
        <time>2026-07-29T11:01:34.716Z</time>
      </trkpt>
      <trkpt lat="45.72771" lon="6.70185">
        <ele>2182</ele>
        <time>2026-07-29T11:01:35.716Z</time>
      </trkpt>
      <trkpt lat="45.72771" lon="6.70186">
        <ele>2182</ele>
        <time>2026-07-29T11:01:36.716Z</time>
      </trkpt>
      <trkpt lat="45.72771" lon="6.70187">
        <ele>2182</ele>
        <time>2026-07-29T11:01:37.716Z</time>
      </trkpt>
      <trkpt lat="45.72771" lon="6.70189">
        <ele>2183</ele>
        <time>2026-07-29T11:01:38.716Z</time>
      </trkpt>
      <trkpt lat="45.72772" lon="6.7019">
        <ele>2183</ele>
        <time>2026-07-29T11:01:39.716Z</time>
      </trkpt>
      <trkpt lat="45.72773" lon="6.70191">
        <ele>2184</ele>
        <time>2026-07-29T11:01:40.716Z</time>
      </trkpt>
      <trkpt lat="45.72774" lon="6.70191">
        <ele>2184</ele>
        <time>2026-07-29T11:01:41.716Z</time>
      </trkpt>
      <trkpt lat="45.72775" lon="6.70192">
        <ele>2184</ele>
        <time>2026-07-29T11:01:42.716Z</time>
      </trkpt>
      <trkpt lat="45.72776" lon="6.70193">
        <ele>2184</ele>
        <time>2026-07-29T11:01:43.716Z</time>
      </trkpt>
      <trkpt lat="45.72777" lon="6.70194">
        <ele>2185</ele>
        <time>2026-07-29T11:01:44.716Z</time>
      </trkpt>
      <trkpt lat="45.72778" lon="6.70194">
        <ele>2185</ele>
        <time>2026-07-29T11:01:45.716Z</time>
      </trkpt>
      <trkpt lat="45.72779" lon="6.70195">
        <ele>2185</ele>
        <time>2026-07-29T11:01:46.716Z</time>
      </trkpt>
      <trkpt lat="45.7278" lon="6.70195">
        <ele>2185</ele>
        <time>2026-07-29T11:01:47.716Z</time>
      </trkpt>
      <trkpt lat="45.72781" lon="6.70196">
        <ele>2185</ele>
        <time>2026-07-29T11:01:48.716Z</time>
      </trkpt>
      <trkpt lat="45.72782" lon="6.70196">
        <ele>2185</ele>
        <time>2026-07-29T11:01:49.716Z</time>
      </trkpt>
      <trkpt lat="45.72784" lon="6.70197">
        <ele>2185</ele>
        <time>2026-07-29T11:01:50.716Z</time>
      </trkpt>
      <trkpt lat="45.72784" lon="6.70197">
        <ele>2185</ele>
        <time>2026-07-29T11:01:51.716Z</time>
      </trkpt>
      <trkpt lat="45.72786" lon="6.70196">
        <ele>2185</ele>
        <time>2026-07-29T11:01:52.716Z</time>
      </trkpt>
      <trkpt lat="45.72787" lon="6.70196">
        <ele>2185</ele>
        <time>2026-07-29T11:01:53.716Z</time>
      </trkpt>
      <trkpt lat="45.72788" lon="6.70197">
        <ele>2185</ele>
        <time>2026-07-29T11:01:54.716Z</time>
      </trkpt>
      <trkpt lat="45.72789" lon="6.70197">
        <ele>2185</ele>
        <time>2026-07-29T11:01:55.716Z</time>
      </trkpt>
      <trkpt lat="45.7279" lon="6.70197">
        <ele>2185</ele>
        <time>2026-07-29T11:01:56.716Z</time>
      </trkpt>
      <trkpt lat="45.72791" lon="6.70197">
        <ele>2185</ele>
        <time>2026-07-29T11:01:57.716Z</time>
      </trkpt>
      <trkpt lat="45.72792" lon="6.70197">
        <ele>2185</ele>
        <time>2026-07-29T11:01:58.716Z</time>
      </trkpt>
      <trkpt lat="45.72794" lon="6.70197">
        <ele>2184</ele>
        <time>2026-07-29T11:01:59.716Z</time>
      </trkpt>
      <trkpt lat="45.72795" lon="6.70198">
        <ele>2184</ele>
        <time>2026-07-29T11:02:00.716Z</time>
      </trkpt>
      <trkpt lat="45.72796" lon="6.70199">
        <ele>2184</ele>
        <time>2026-07-29T11:02:01.716Z</time>
      </trkpt>
      <trkpt lat="45.72797" lon="6.702">
        <ele>2184</ele>
        <time>2026-07-29T11:02:02.716Z</time>
      </trkpt>
      <trkpt lat="45.72798" lon="6.70201">
        <ele>2185</ele>
        <time>2026-07-29T11:02:03.716Z</time>
      </trkpt>
      <trkpt lat="45.72799" lon="6.70202">
        <ele>2185</ele>
        <time>2026-07-29T11:02:04.716Z</time>
      </trkpt>
      <trkpt lat="45.728" lon="6.70202">
        <ele>2185</ele>
        <time>2026-07-29T11:02:05.716Z</time>
      </trkpt>
      <trkpt lat="45.72801" lon="6.70203">
        <ele>2186</ele>
        <time>2026-07-29T11:02:06.716Z</time>
      </trkpt>
      <trkpt lat="45.72802" lon="6.70203">
        <ele>2186</ele>
        <time>2026-07-29T11:02:07.716Z</time>
      </trkpt>
      <trkpt lat="45.72803" lon="6.70204">
        <ele>2186</ele>
        <time>2026-07-29T11:02:08.716Z</time>
      </trkpt>
      <trkpt lat="45.72805" lon="6.70205">
        <ele>2186</ele>
        <time>2026-07-29T11:02:09.716Z</time>
      </trkpt>
      <trkpt lat="45.72806" lon="6.70205">
        <ele>2186</ele>
        <time>2026-07-29T11:02:10.716Z</time>
      </trkpt>
      <trkpt lat="45.72808" lon="6.70206">
        <ele>2186</ele>
        <time>2026-07-29T11:02:11.716Z</time>
      </trkpt>
      <trkpt lat="45.72809" lon="6.70206">
        <ele>2186</ele>
        <time>2026-07-29T11:02:12.716Z</time>
      </trkpt>
      <trkpt lat="45.7281" lon="6.70207">
        <ele>2186</ele>
        <time>2026-07-29T11:02:13.716Z</time>
      </trkpt>
      <trkpt lat="45.72811" lon="6.70208">
        <ele>2187</ele>
        <time>2026-07-29T11:02:14.716Z</time>
      </trkpt>
      <trkpt lat="45.72813" lon="6.70209">
        <ele>2188</ele>
        <time>2026-07-29T11:02:15.716Z</time>
      </trkpt>
      <trkpt lat="45.72814" lon="6.70209">
        <ele>2189</ele>
        <time>2026-07-29T11:02:16.716Z</time>
      </trkpt>
      <trkpt lat="45.72815" lon="6.7021">
        <ele>2189</ele>
        <time>2026-07-29T11:02:17.716Z</time>
      </trkpt>
      <trkpt lat="45.72816" lon="6.7021">
        <ele>2189</ele>
        <time>2026-07-29T11:02:18.716Z</time>
      </trkpt>
      <trkpt lat="45.72817" lon="6.70211">
        <ele>2189</ele>
        <time>2026-07-29T11:02:19.716Z</time>
      </trkpt>
      <trkpt lat="45.72818" lon="6.70212">
        <ele>2189</ele>
        <time>2026-07-29T11:02:20.716Z</time>
      </trkpt>
      <trkpt lat="45.72819" lon="6.70213">
        <ele>2190</ele>
        <time>2026-07-29T11:02:21.716Z</time>
      </trkpt>
      <trkpt lat="45.72819" lon="6.70214">
        <ele>2190</ele>
        <time>2026-07-29T11:02:22.716Z</time>
      </trkpt>
      <trkpt lat="45.7282" lon="6.70215">
        <ele>2191</ele>
        <time>2026-07-29T11:02:23.716Z</time>
      </trkpt>
      <trkpt lat="45.72821" lon="6.70215">
        <ele>2191</ele>
        <time>2026-07-29T11:02:24.716Z</time>
      </trkpt>
      <trkpt lat="45.72822" lon="6.70215">
        <ele>2191</ele>
        <time>2026-07-29T11:02:25.716Z</time>
      </trkpt>
      <trkpt lat="45.72822" lon="6.70216">
        <ele>2191</ele>
        <time>2026-07-29T11:02:26.716Z</time>
      </trkpt>
      <trkpt lat="45.72823" lon="6.70217">
        <ele>2191</ele>
        <time>2026-07-29T11:02:27.716Z</time>
      </trkpt>
      <trkpt lat="45.72824" lon="6.70219">
        <ele>2191</ele>
        <time>2026-07-29T11:02:28.716Z</time>
      </trkpt>
      <trkpt lat="45.72824" lon="6.70221">
        <ele>2191</ele>
        <time>2026-07-29T11:02:29.716Z</time>
      </trkpt>
      <trkpt lat="45.72825" lon="6.70222">
        <ele>2191</ele>
        <time>2026-07-29T11:02:30.716Z</time>
      </trkpt>
      <trkpt lat="45.72825" lon="6.70224">
        <ele>2191</ele>
        <time>2026-07-29T11:02:31.716Z</time>
      </trkpt>
      <trkpt lat="45.72826" lon="6.70225">
        <ele>2191</ele>
        <time>2026-07-29T11:02:32.716Z</time>
      </trkpt>
      <trkpt lat="45.72827" lon="6.70225">
        <ele>2191</ele>
        <time>2026-07-29T11:02:33.716Z</time>
      </trkpt>
      <trkpt lat="45.72828" lon="6.70225">
        <ele>2192</ele>
        <time>2026-07-29T11:02:34.716Z</time>
      </trkpt>
      <trkpt lat="45.72829" lon="6.70225">
        <ele>2192</ele>
        <time>2026-07-29T11:02:35.716Z</time>
      </trkpt>
      <trkpt lat="45.72829" lon="6.70224">
        <ele>2192</ele>
        <time>2026-07-29T11:02:36.716Z</time>
      </trkpt>
      <trkpt lat="45.7283" lon="6.70224">
        <ele>2193</ele>
        <time>2026-07-29T11:02:37.716Z</time>
      </trkpt>
      <trkpt lat="45.7283" lon="6.70224">
        <ele>2193</ele>
        <time>2026-07-29T11:02:38.716Z</time>
      </trkpt>
      <trkpt lat="45.72831" lon="6.70225">
        <ele>2193</ele>
        <time>2026-07-29T11:02:39.716Z</time>
      </trkpt>
      <trkpt lat="45.72832" lon="6.70226">
        <ele>2194</ele>
        <time>2026-07-29T11:02:40.716Z</time>
      </trkpt>
      <trkpt lat="45.72833" lon="6.70226">
        <ele>2194</ele>
        <time>2026-07-29T11:02:41.716Z</time>
      </trkpt>
      <trkpt lat="45.72833" lon="6.70227">
        <ele>2194</ele>
        <time>2026-07-29T11:02:42.716Z</time>
      </trkpt>
      <trkpt lat="45.72834" lon="6.70226">
        <ele>2195</ele>
        <time>2026-07-29T11:02:43.716Z</time>
      </trkpt>
      <trkpt lat="45.72834" lon="6.70225">
        <ele>2195</ele>
        <time>2026-07-29T11:02:44.716Z</time>
      </trkpt>
      <trkpt lat="45.72835" lon="6.70224">
        <ele>2195</ele>
        <time>2026-07-29T11:02:45.716Z</time>
      </trkpt>
      <trkpt lat="45.72835" lon="6.70223">
        <ele>2196</ele>
        <time>2026-07-29T11:02:46.716Z</time>
      </trkpt>
      <trkpt lat="45.72836" lon="6.70223">
        <ele>2196</ele>
        <time>2026-07-29T11:02:47.716Z</time>
      </trkpt>
      <trkpt lat="45.72837" lon="6.70223">
        <ele>2196</ele>
        <time>2026-07-29T11:02:48.716Z</time>
      </trkpt>
      <trkpt lat="45.72838" lon="6.70223">
        <ele>2196</ele>
        <time>2026-07-29T11:02:49.716Z</time>
      </trkpt>
      <trkpt lat="45.7284" lon="6.70223">
        <ele>2196</ele>
        <time>2026-07-29T11:02:50.716Z</time>
      </trkpt>
      <trkpt lat="45.7284" lon="6.70224">
        <ele>2197</ele>
        <time>2026-07-29T11:02:51.716Z</time>
      </trkpt>
      <trkpt lat="45.72842" lon="6.70224">
        <ele>2197</ele>
        <time>2026-07-29T11:02:52.716Z</time>
      </trkpt>
      <trkpt lat="45.72843" lon="6.70224">
        <ele>2197</ele>
        <time>2026-07-29T11:02:53.716Z</time>
      </trkpt>
      <trkpt lat="45.72844" lon="6.70225">
        <ele>2197</ele>
        <time>2026-07-29T11:02:54.716Z</time>
      </trkpt>
      <trkpt lat="45.72845" lon="6.70225">
        <ele>2197</ele>
        <time>2026-07-29T11:02:55.716Z</time>
      </trkpt>
      <trkpt lat="45.72847" lon="6.70226">
        <ele>2197</ele>
        <time>2026-07-29T11:02:56.716Z</time>
      </trkpt>
      <trkpt lat="45.72848" lon="6.70226">
        <ele>2197</ele>
        <time>2026-07-29T11:02:57.716Z</time>
      </trkpt>
      <trkpt lat="45.72849" lon="6.70227">
        <ele>2197</ele>
        <time>2026-07-29T11:02:58.716Z</time>
      </trkpt>
      <trkpt lat="45.7285" lon="6.70227">
        <ele>2196</ele>
        <time>2026-07-29T11:02:59.716Z</time>
      </trkpt>
      <trkpt lat="45.72851" lon="6.70228">
        <ele>2196</ele>
        <time>2026-07-29T11:03:00.716Z</time>
      </trkpt>
      <trkpt lat="45.72851" lon="6.70228">
        <ele>2196</ele>
        <time>2026-07-29T11:03:01.716Z</time>
      </trkpt>
      <trkpt lat="45.72852" lon="6.70229">
        <ele>2196</ele>
        <time>2026-07-29T11:03:02.716Z</time>
      </trkpt>
      <trkpt lat="45.72853" lon="6.7023">
        <ele>2197</ele>
        <time>2026-07-29T11:03:03.716Z</time>
      </trkpt>
      <trkpt lat="45.72854" lon="6.7023">
        <ele>2196</ele>
        <time>2026-07-29T11:03:04.716Z</time>
      </trkpt>
      <trkpt lat="45.72855" lon="6.70231">
        <ele>2196</ele>
        <time>2026-07-29T11:03:05.716Z</time>
      </trkpt>
      <trkpt lat="45.72856" lon="6.70232">
        <ele>2196</ele>
        <time>2026-07-29T11:03:06.716Z</time>
      </trkpt>
      <trkpt lat="45.72856" lon="6.70233">
        <ele>2196</ele>
        <time>2026-07-29T11:03:07.716Z</time>
      </trkpt>
      <trkpt lat="45.72857" lon="6.70235">
        <ele>2197</ele>
        <time>2026-07-29T11:03:08.716Z</time>
      </trkpt>
      <trkpt lat="45.72858" lon="6.70236">
        <ele>2197</ele>
        <time>2026-07-29T11:03:09.716Z</time>
      </trkpt>
      <trkpt lat="45.72859" lon="6.70236">
        <ele>2197</ele>
        <time>2026-07-29T11:03:10.716Z</time>
      </trkpt>
      <trkpt lat="45.7286" lon="6.70237">
        <ele>2198</ele>
        <time>2026-07-29T11:03:11.716Z</time>
      </trkpt>
      <trkpt lat="45.72861" lon="6.70237">
        <ele>2198</ele>
        <time>2026-07-29T11:03:12.716Z</time>
      </trkpt>
      <trkpt lat="45.72862" lon="6.70237">
        <ele>2198</ele>
        <time>2026-07-29T11:03:13.716Z</time>
      </trkpt>
      <trkpt lat="45.72863" lon="6.70238">
        <ele>2198</ele>
        <time>2026-07-29T11:03:14.716Z</time>
      </trkpt>
      <trkpt lat="45.72863" lon="6.70238">
        <ele>2198</ele>
        <time>2026-07-29T11:03:15.716Z</time>
      </trkpt>
      <trkpt lat="45.72864" lon="6.70238">
        <ele>2198</ele>
        <time>2026-07-29T11:03:16.716Z</time>
      </trkpt>
      <trkpt lat="45.72864" lon="6.70237">
        <ele>2199</ele>
        <time>2026-07-29T11:03:17.716Z</time>
      </trkpt>
      <trkpt lat="45.72864" lon="6.70238">
        <ele>2199</ele>
        <time>2026-07-29T11:03:18.716Z</time>
      </trkpt>
      <trkpt lat="45.72865" lon="6.70238">
        <ele>2200</ele>
        <time>2026-07-29T11:03:19.716Z</time>
      </trkpt>
      <trkpt lat="45.72867" lon="6.70238">
        <ele>2200</ele>
        <time>2026-07-29T11:03:20.716Z</time>
      </trkpt>
      <trkpt lat="45.72868" lon="6.70238">
        <ele>2200</ele>
        <time>2026-07-29T11:03:21.716Z</time>
      </trkpt>
      <trkpt lat="45.72869" lon="6.70239">
        <ele>2200</ele>
        <time>2026-07-29T11:03:22.716Z</time>
      </trkpt>
      <trkpt lat="45.7287" lon="6.7024">
        <ele>2201</ele>
        <time>2026-07-29T11:03:23.716Z</time>
      </trkpt>
      <trkpt lat="45.72871" lon="6.70241">
        <ele>2202</ele>
        <time>2026-07-29T11:03:24.716Z</time>
      </trkpt>
      <trkpt lat="45.72872" lon="6.70243">
        <ele>2202</ele>
        <time>2026-07-29T11:03:25.716Z</time>
      </trkpt>
      <trkpt lat="45.72874" lon="6.70244">
        <ele>2202</ele>
        <time>2026-07-29T11:03:26.716Z</time>
      </trkpt>
      <trkpt lat="45.72875" lon="6.70245">
        <ele>2203</ele>
        <time>2026-07-29T11:03:27.716Z</time>
      </trkpt>
      <trkpt lat="45.72876" lon="6.70245">
        <ele>2203</ele>
        <time>2026-07-29T11:03:28.716Z</time>
      </trkpt>
      <trkpt lat="45.72877" lon="6.70245">
        <ele>2203</ele>
        <time>2026-07-29T11:03:29.716Z</time>
      </trkpt>
      <trkpt lat="45.72878" lon="6.70245">
        <ele>2203</ele>
        <time>2026-07-29T11:03:30.716Z</time>
      </trkpt>
      <trkpt lat="45.72879" lon="6.70245">
        <ele>2203</ele>
        <time>2026-07-29T11:03:31.716Z</time>
      </trkpt>
      <trkpt lat="45.7288" lon="6.70245">
        <ele>2203</ele>
        <time>2026-07-29T11:03:32.716Z</time>
      </trkpt>
      <trkpt lat="45.7288" lon="6.70245">
        <ele>2203</ele>
        <time>2026-07-29T11:03:33.716Z</time>
      </trkpt>
      <trkpt lat="45.72881" lon="6.70245">
        <ele>2203</ele>
        <time>2026-07-29T11:03:34.716Z</time>
      </trkpt>
      <trkpt lat="45.72882" lon="6.70245">
        <ele>2204</ele>
        <time>2026-07-29T11:03:35.716Z</time>
      </trkpt>
      <trkpt lat="45.72883" lon="6.70245">
        <ele>2204</ele>
        <time>2026-07-29T11:03:36.716Z</time>
      </trkpt>
      <trkpt lat="45.72884" lon="6.70245">
        <ele>2205</ele>
        <time>2026-07-29T11:03:37.716Z</time>
      </trkpt>
      <trkpt lat="45.72886" lon="6.70245">
        <ele>2205</ele>
        <time>2026-07-29T11:03:38.716Z</time>
      </trkpt>
      <trkpt lat="45.72887" lon="6.70245">
        <ele>2205</ele>
        <time>2026-07-29T11:03:39.716Z</time>
      </trkpt>
      <trkpt lat="45.72888" lon="6.70246">
        <ele>2205</ele>
        <time>2026-07-29T11:03:40.716Z</time>
      </trkpt>
      <trkpt lat="45.72888" lon="6.70246">
        <ele>2205</ele>
        <time>2026-07-29T11:03:41.716Z</time>
      </trkpt>
      <trkpt lat="45.72889" lon="6.70246">
        <ele>2205</ele>
        <time>2026-07-29T11:03:42.716Z</time>
      </trkpt>
      <trkpt lat="45.7289" lon="6.70247">
        <ele>2205</ele>
        <time>2026-07-29T11:03:43.716Z</time>
      </trkpt>
      <trkpt lat="45.72891" lon="6.70247">
        <ele>2206</ele>
        <time>2026-07-29T11:03:44.716Z</time>
      </trkpt>
      <trkpt lat="45.72892" lon="6.70247">
        <ele>2206</ele>
        <time>2026-07-29T11:03:45.716Z</time>
      </trkpt>
      <trkpt lat="45.72893" lon="6.70247">
        <ele>2206</ele>
        <time>2026-07-29T11:03:46.716Z</time>
      </trkpt>
      <trkpt lat="45.72894" lon="6.70247">
        <ele>2206</ele>
        <time>2026-07-29T11:03:47.716Z</time>
      </trkpt>
      <trkpt lat="45.72894" lon="6.70247">
        <ele>2206</ele>
        <time>2026-07-29T11:03:48.716Z</time>
      </trkpt>
      <trkpt lat="45.72896" lon="6.70247">
        <ele>2206</ele>
        <time>2026-07-29T11:03:49.716Z</time>
      </trkpt>
      <trkpt lat="45.72897" lon="6.70247">
        <ele>2206</ele>
        <time>2026-07-29T11:03:50.716Z</time>
      </trkpt>
      <trkpt lat="45.72897" lon="6.70248">
        <ele>2205</ele>
        <time>2026-07-29T11:03:51.716Z</time>
      </trkpt>
      <trkpt lat="45.72898" lon="6.70248">
        <ele>2205</ele>
        <time>2026-07-29T11:03:52.716Z</time>
      </trkpt>
      <trkpt lat="45.72899" lon="6.70249">
        <ele>2205</ele>
        <time>2026-07-29T11:03:53.716Z</time>
      </trkpt>
      <trkpt lat="45.729" lon="6.70249">
        <ele>2205</ele>
        <time>2026-07-29T11:03:54.716Z</time>
      </trkpt>
      <trkpt lat="45.729" lon="6.70249">
        <ele>2206</ele>
        <time>2026-07-29T11:03:55.716Z</time>
      </trkpt>
      <trkpt lat="45.72901" lon="6.7025">
        <ele>2207</ele>
        <time>2026-07-29T11:03:56.716Z</time>
      </trkpt>
      <trkpt lat="45.72902" lon="6.7025">
        <ele>2207</ele>
        <time>2026-07-29T11:03:57.716Z</time>
      </trkpt>
      <trkpt lat="45.72903" lon="6.7025">
        <ele>2207</ele>
        <time>2026-07-29T11:03:58.716Z</time>
      </trkpt>
      <trkpt lat="45.72904" lon="6.7025">
        <ele>2208</ele>
        <time>2026-07-29T11:03:59.716Z</time>
      </trkpt>
      <trkpt lat="45.72905" lon="6.7025">
        <ele>2208</ele>
        <time>2026-07-29T11:04:00.716Z</time>
      </trkpt>
      <trkpt lat="45.72906" lon="6.7025">
        <ele>2208</ele>
        <time>2026-07-29T11:04:01.716Z</time>
      </trkpt>
      <trkpt lat="45.72906" lon="6.7025">
        <ele>2208</ele>
        <time>2026-07-29T11:04:02.716Z</time>
      </trkpt>
      <trkpt lat="45.72907" lon="6.70251">
        <ele>2209</ele>
        <time>2026-07-29T11:04:03.716Z</time>
      </trkpt>
      <trkpt lat="45.72908" lon="6.70251">
        <ele>2209</ele>
        <time>2026-07-29T11:04:04.716Z</time>
      </trkpt>
      <trkpt lat="45.72909" lon="6.70252">
        <ele>2209</ele>
        <time>2026-07-29T11:04:05.716Z</time>
      </trkpt>
      <trkpt lat="45.7291" lon="6.70252">
        <ele>2210</ele>
        <time>2026-07-29T11:04:06.716Z</time>
      </trkpt>
      <trkpt lat="45.72911" lon="6.70253">
        <ele>2210</ele>
        <time>2026-07-29T11:04:07.716Z</time>
      </trkpt>
      <trkpt lat="45.72912" lon="6.70253">
        <ele>2211</ele>
        <time>2026-07-29T11:04:08.716Z</time>
      </trkpt>
      <trkpt lat="45.72913" lon="6.70254">
        <ele>2212</ele>
        <time>2026-07-29T11:04:09.716Z</time>
      </trkpt>
      <trkpt lat="45.72914" lon="6.70254">
        <ele>2212</ele>
        <time>2026-07-29T11:04:10.716Z</time>
      </trkpt>
      <trkpt lat="45.72915" lon="6.70254">
        <ele>2212</ele>
        <time>2026-07-29T11:04:11.716Z</time>
      </trkpt>
      <trkpt lat="45.72916" lon="6.70255">
        <ele>2213</ele>
        <time>2026-07-29T11:04:12.716Z</time>
      </trkpt>
      <trkpt lat="45.72917" lon="6.70254">
        <ele>2213</ele>
        <time>2026-07-29T11:04:13.716Z</time>
      </trkpt>
      <trkpt lat="45.72918" lon="6.70254">
        <ele>2214</ele>
        <time>2026-07-29T11:04:14.716Z</time>
      </trkpt>
      <trkpt lat="45.72919" lon="6.70254">
        <ele>2214</ele>
        <time>2026-07-29T11:04:15.716Z</time>
      </trkpt>
      <trkpt lat="45.7292" lon="6.70254">
        <ele>2215</ele>
        <time>2026-07-29T11:04:16.716Z</time>
      </trkpt>
      <trkpt lat="45.7292" lon="6.70254">
        <ele>2215</ele>
        <time>2026-07-29T11:04:17.716Z</time>
      </trkpt>
      <trkpt lat="45.72921" lon="6.70254">
        <ele>2216</ele>
        <time>2026-07-29T11:04:18.716Z</time>
      </trkpt>
      <trkpt lat="45.72922" lon="6.70254">
        <ele>2216</ele>
        <time>2026-07-29T11:04:19.716Z</time>
      </trkpt>
      <trkpt lat="45.72923" lon="6.70255">
        <ele>2216</ele>
        <time>2026-07-29T11:04:20.716Z</time>
      </trkpt>
      <trkpt lat="45.72924" lon="6.70255">
        <ele>2217</ele>
        <time>2026-07-29T11:04:21.716Z</time>
      </trkpt>
      <trkpt lat="45.72925" lon="6.70255">
        <ele>2217</ele>
        <time>2026-07-29T11:04:22.716Z</time>
      </trkpt>
      <trkpt lat="45.72926" lon="6.70255">
        <ele>2217</ele>
        <time>2026-07-29T11:04:23.716Z</time>
      </trkpt>
      <trkpt lat="45.72928" lon="6.70256">
        <ele>2217</ele>
        <time>2026-07-29T11:04:24.716Z</time>
      </trkpt>
      <trkpt lat="45.72929" lon="6.70256">
        <ele>2217</ele>
        <time>2026-07-29T11:04:25.716Z</time>
      </trkpt>
      <trkpt lat="45.7293" lon="6.70256">
        <ele>2218</ele>
        <time>2026-07-29T11:04:26.716Z</time>
      </trkpt>
      <trkpt lat="45.72931" lon="6.70257">
        <ele>2218</ele>
        <time>2026-07-29T11:04:27.716Z</time>
      </trkpt>
      <trkpt lat="45.72932" lon="6.70257">
        <ele>2218</ele>
        <time>2026-07-29T11:04:28.716Z</time>
      </trkpt>
      <trkpt lat="45.72933" lon="6.70258">
        <ele>2218</ele>
        <time>2026-07-29T11:04:29.716Z</time>
      </trkpt>
      <trkpt lat="45.72934" lon="6.70258">
        <ele>2218</ele>
        <time>2026-07-29T11:04:30.716Z</time>
      </trkpt>
      <trkpt lat="45.72935" lon="6.70258">
        <ele>2218</ele>
        <time>2026-07-29T11:04:31.716Z</time>
      </trkpt>
      <trkpt lat="45.72936" lon="6.70259">
        <ele>2219</ele>
        <time>2026-07-29T11:04:32.716Z</time>
      </trkpt>
      <trkpt lat="45.72937" lon="6.70259">
        <ele>2219</ele>
        <time>2026-07-29T11:04:33.716Z</time>
      </trkpt>
      <trkpt lat="45.72938" lon="6.70259">
        <ele>2220</ele>
        <time>2026-07-29T11:04:34.716Z</time>
      </trkpt>
      <trkpt lat="45.72939" lon="6.70259">
        <ele>2220</ele>
        <time>2026-07-29T11:04:35.716Z</time>
      </trkpt>
      <trkpt lat="45.7294" lon="6.70258">
        <ele>2220</ele>
        <time>2026-07-29T11:04:36.716Z</time>
      </trkpt>
      <trkpt lat="45.72941" lon="6.70258">
        <ele>2220</ele>
        <time>2026-07-29T11:04:37.716Z</time>
      </trkpt>
      <trkpt lat="45.72942" lon="6.70258">
        <ele>2220</ele>
        <time>2026-07-29T11:04:38.716Z</time>
      </trkpt>
      <trkpt lat="45.72943" lon="6.70258">
        <ele>2221</ele>
        <time>2026-07-29T11:04:39.716Z</time>
      </trkpt>
      <trkpt lat="45.72945" lon="6.70258">
        <ele>2221</ele>
        <time>2026-07-29T11:04:40.716Z</time>
      </trkpt>
      <trkpt lat="45.72946" lon="6.70258">
        <ele>2221</ele>
        <time>2026-07-29T11:04:41.716Z</time>
      </trkpt>
      <trkpt lat="45.72947" lon="6.70259">
        <ele>2221</ele>
        <time>2026-07-29T11:04:42.716Z</time>
      </trkpt>
      <trkpt lat="45.72948" lon="6.70259">
        <ele>2221</ele>
        <time>2026-07-29T11:04:43.716Z</time>
      </trkpt>
      <trkpt lat="45.72949" lon="6.70259">
        <ele>2222</ele>
        <time>2026-07-29T11:04:44.716Z</time>
      </trkpt>
      <trkpt lat="45.7295" lon="6.70259">
        <ele>2222</ele>
        <time>2026-07-29T11:04:45.716Z</time>
      </trkpt>
      <trkpt lat="45.72951" lon="6.70259">
        <ele>2222</ele>
        <time>2026-07-29T11:04:46.716Z</time>
      </trkpt>
      <trkpt lat="45.72952" lon="6.70259">
        <ele>2222</ele>
        <time>2026-07-29T11:04:47.716Z</time>
      </trkpt>
      <trkpt lat="45.72953" lon="6.70258">
        <ele>2222</ele>
        <time>2026-07-29T11:04:48.716Z</time>
      </trkpt>
      <trkpt lat="45.72954" lon="6.70257">
        <ele>2222</ele>
        <time>2026-07-29T11:04:49.716Z</time>
      </trkpt>
      <trkpt lat="45.72955" lon="6.70257">
        <ele>2222</ele>
        <time>2026-07-29T11:04:50.716Z</time>
      </trkpt>
      <trkpt lat="45.72956" lon="6.70257">
        <ele>2222</ele>
        <time>2026-07-29T11:04:51.716Z</time>
      </trkpt>
      <trkpt lat="45.72957" lon="6.70257">
        <ele>2222</ele>
        <time>2026-07-29T11:04:52.716Z</time>
      </trkpt>
      <trkpt lat="45.72959" lon="6.70258">
        <ele>2223</ele>
        <time>2026-07-29T11:04:53.716Z</time>
      </trkpt>
      <trkpt lat="45.7296" lon="6.70259">
        <ele>2223</ele>
        <time>2026-07-29T11:04:54.716Z</time>
      </trkpt>
      <trkpt lat="45.7296" lon="6.7026">
        <ele>2223</ele>
        <time>2026-07-29T11:04:55.716Z</time>
      </trkpt>
      <trkpt lat="45.72962" lon="6.7026">
        <ele>2222</ele>
        <time>2026-07-29T11:04:56.716Z</time>
      </trkpt>
      <trkpt lat="45.72963" lon="6.70261">
        <ele>2222</ele>
        <time>2026-07-29T11:04:57.716Z</time>
      </trkpt>
      <trkpt lat="45.72964" lon="6.70262">
        <ele>2222</ele>
        <time>2026-07-29T11:04:58.716Z</time>
      </trkpt>
      <trkpt lat="45.72965" lon="6.70262">
        <ele>2221</ele>
        <time>2026-07-29T11:04:59.716Z</time>
      </trkpt>
      <trkpt lat="45.72966" lon="6.70262">
        <ele>2221</ele>
        <time>2026-07-29T11:05:00.716Z</time>
      </trkpt>
      <trkpt lat="45.72967" lon="6.70262">
        <ele>2222</ele>
        <time>2026-07-29T11:05:01.716Z</time>
      </trkpt>
      <trkpt lat="45.72969" lon="6.70262">
        <ele>2222</ele>
        <time>2026-07-29T11:05:02.716Z</time>
      </trkpt>
      <trkpt lat="45.7297" lon="6.70262">
        <ele>2222</ele>
        <time>2026-07-29T11:05:03.716Z</time>
      </trkpt>
      <trkpt lat="45.7297" lon="6.70263">
        <ele>2222</ele>
        <time>2026-07-29T11:05:04.716Z</time>
      </trkpt>
      <trkpt lat="45.72971" lon="6.70264">
        <ele>2222</ele>
        <time>2026-07-29T11:05:05.716Z</time>
      </trkpt>
      <trkpt lat="45.72972" lon="6.70265">
        <ele>2222</ele>
        <time>2026-07-29T11:05:06.716Z</time>
      </trkpt>
      <trkpt lat="45.72973" lon="6.70265">
        <ele>2222</ele>
        <time>2026-07-29T11:05:07.716Z</time>
      </trkpt>
      <trkpt lat="45.72974" lon="6.70266">
        <ele>2223</ele>
        <time>2026-07-29T11:05:08.716Z</time>
      </trkpt>
      <trkpt lat="45.72975" lon="6.70266">
        <ele>2223</ele>
        <time>2026-07-29T11:05:09.716Z</time>
      </trkpt>
      <trkpt lat="45.72976" lon="6.70267">
        <ele>2223</ele>
        <time>2026-07-29T11:05:10.716Z</time>
      </trkpt>
      <trkpt lat="45.72977" lon="6.70267">
        <ele>2224</ele>
        <time>2026-07-29T11:05:11.716Z</time>
      </trkpt>
      <trkpt lat="45.72978" lon="6.70268">
        <ele>2224</ele>
        <time>2026-07-29T11:05:12.716Z</time>
      </trkpt>
      <trkpt lat="45.72979" lon="6.70268">
        <ele>2224</ele>
        <time>2026-07-29T11:05:13.716Z</time>
      </trkpt>
      <trkpt lat="45.7298" lon="6.70268">
        <ele>2224</ele>
        <time>2026-07-29T11:05:14.716Z</time>
      </trkpt>
      <trkpt lat="45.72982" lon="6.70268">
        <ele>2225</ele>
        <time>2026-07-29T11:05:15.716Z</time>
      </trkpt>
      <trkpt lat="45.72983" lon="6.70269">
        <ele>2225</ele>
        <time>2026-07-29T11:05:16.716Z</time>
      </trkpt>
      <trkpt lat="45.72983" lon="6.7027">
        <ele>2225</ele>
        <time>2026-07-29T11:05:17.716Z</time>
      </trkpt>
      <trkpt lat="45.72984" lon="6.7027">
        <ele>2226</ele>
        <time>2026-07-29T11:05:18.716Z</time>
      </trkpt>
      <trkpt lat="45.72984" lon="6.70271">
        <ele>2226</ele>
        <time>2026-07-29T11:05:19.716Z</time>
      </trkpt>
      <trkpt lat="45.72985" lon="6.70271">
        <ele>2227</ele>
        <time>2026-07-29T11:05:20.716Z</time>
      </trkpt>
      <trkpt lat="45.72985" lon="6.70271">
        <ele>2227</ele>
        <time>2026-07-29T11:05:21.716Z</time>
      </trkpt>
      <trkpt lat="45.72985" lon="6.70272">
        <ele>2228</ele>
        <time>2026-07-29T11:05:22.716Z</time>
      </trkpt>
      <trkpt lat="45.72985" lon="6.70272">
        <ele>2228</ele>
        <time>2026-07-29T11:05:23.716Z</time>
      </trkpt>
      <trkpt lat="45.72985" lon="6.70272">
        <ele>2228</ele>
        <time>2026-07-29T11:05:24.716Z</time>
      </trkpt>
      <trkpt lat="45.72985" lon="6.70272">
        <ele>2228</ele>
        <time>2026-07-29T11:05:25.716Z</time>
      </trkpt>
      <trkpt lat="45.72985" lon="6.70272">
        <ele>2229</ele>
        <time>2026-07-29T11:05:26.716Z</time>
      </trkpt>
      <trkpt lat="45.72985" lon="6.70272">
        <ele>2229</ele>
        <time>2026-07-29T11:05:27.716Z</time>
      </trkpt>
      <trkpt lat="45.72986" lon="6.70272">
        <ele>2229</ele>
        <time>2026-07-29T11:05:28.716Z</time>
      </trkpt>
      <trkpt lat="45.72986" lon="6.70272">
        <ele>2229</ele>
        <time>2026-07-29T11:05:29.716Z</time>
      </trkpt>
      <trkpt lat="45.72986" lon="6.70272">
        <ele>2229</ele>
        <time>2026-07-29T11:05:30.716Z</time>
      </trkpt>
      <trkpt lat="45.72986" lon="6.70272">
        <ele>2229</ele>
        <time>2026-07-29T11:05:31.716Z</time>
      </trkpt>
      <trkpt lat="45.72986" lon="6.70272">
        <ele>2228</ele>
        <time>2026-07-29T11:05:32.716Z</time>
      </trkpt>
      <trkpt lat="45.72986" lon="6.70272">
        <ele>2228</ele>
        <time>2026-07-29T11:05:33.716Z</time>
      </trkpt>
      <trkpt lat="45.72986" lon="6.70272">
        <ele>2228</ele>
        <time>2026-07-29T11:05:34.716Z</time>
      </trkpt>
      <trkpt lat="45.72986" lon="6.70272">
        <ele>2228</ele>
        <time>2026-07-29T11:05:35.716Z</time>
      </trkpt>
      <trkpt lat="45.72986" lon="6.70272">
        <ele>2228</ele>
        <time>2026-07-29T11:05:36.716Z</time>
      </trkpt>
      <trkpt lat="45.72986" lon="6.70272">
        <ele>2227</ele>
        <time>2026-07-29T11:05:37.716Z</time>
      </trkpt>
      <trkpt lat="45.72986" lon="6.70272">
        <ele>2227</ele>
        <time>2026-07-29T11:05:38.716Z</time>
      </trkpt>
      <trkpt lat="45.72986" lon="6.70272">
        <ele>2227</ele>
        <time>2026-07-29T11:05:39.716Z</time>
      </trkpt>
      <trkpt lat="45.72986" lon="6.70272">
        <ele>2227</ele>
        <time>2026-07-29T11:05:40.716Z</time>
      </trkpt>
      <trkpt lat="45.72986" lon="6.70272">
        <ele>2227</ele>
        <time>2026-07-29T11:05:41.716Z</time>
      </trkpt>
      <trkpt lat="45.72986" lon="6.70272">
        <ele>2227</ele>
        <time>2026-07-29T11:05:42.716Z</time>
      </trkpt>
      <trkpt lat="45.72986" lon="6.70272">
        <ele>2227</ele>
        <time>2026-07-29T11:05:43.716Z</time>
      </trkpt>
      <trkpt lat="45.72986" lon="6.70272">
        <ele>2227</ele>
        <time>2026-07-29T11:05:44.716Z</time>
      </trkpt>
      <trkpt lat="45.72986" lon="6.70272">
        <ele>2226</ele>
        <time>2026-07-29T11:05:45.716Z</time>
      </trkpt>
      <trkpt lat="45.72986" lon="6.70272">
        <ele>2226</ele>
        <time>2026-07-29T11:05:46.716Z</time>
      </trkpt>
      <trkpt lat="45.72986" lon="6.70272">
        <ele>2226</ele>
        <time>2026-07-29T11:05:47.716Z</time>
      </trkpt>
      <trkpt lat="45.72986" lon="6.70272">
        <ele>2226</ele>
        <time>2026-07-29T11:05:48.716Z</time>
      </trkpt>
      <trkpt lat="45.72986" lon="6.70272">
        <ele>2226</ele>
        <time>2026-07-29T11:05:49.716Z</time>
      </trkpt>
      <trkpt lat="45.72986" lon="6.70272">
        <ele>2226</ele>
        <time>2026-07-29T11:05:50.716Z</time>
      </trkpt>
      <trkpt lat="45.72986" lon="6.70272">
        <ele>2226</ele>
        <time>2026-07-29T11:05:51.716Z</time>
      </trkpt>
      <trkpt lat="45.72986" lon="6.70272">
        <ele>2226</ele>
        <time>2026-07-29T11:05:52.716Z</time>
      </trkpt>
      <trkpt lat="45.72986" lon="6.70272">
        <ele>2226</ele>
        <time>2026-07-29T11:05:53.716Z</time>
      </trkpt>
      <trkpt lat="45.72986" lon="6.70272">
        <ele>2226</ele>
        <time>2026-07-29T11:05:54.716Z</time>
      </trkpt>
      <trkpt lat="45.72986" lon="6.70272">
        <ele>2226</ele>
        <time>2026-07-29T11:05:55.716Z</time>
      </trkpt>
      <trkpt lat="45.72986" lon="6.70272">
        <ele>2226</ele>
        <time>2026-07-29T11:05:56.716Z</time>
      </trkpt>
      <trkpt lat="45.72986" lon="6.70272">
        <ele>2226</ele>
        <time>2026-07-29T11:05:57.716Z</time>
      </trkpt>
      <trkpt lat="45.72987" lon="6.70271">
        <ele>2226</ele>
        <time>2026-07-29T11:05:58.716Z</time>
      </trkpt>
      <trkpt lat="45.72988" lon="6.70271">
        <ele>2226</ele>
        <time>2026-07-29T11:05:59.716Z</time>
      </trkpt>
      <trkpt lat="45.72989" lon="6.70271">
        <ele>2226</ele>
        <time>2026-07-29T11:06:00.716Z</time>
      </trkpt>
      <trkpt lat="45.72991" lon="6.70272">
        <ele>2226</ele>
        <time>2026-07-29T11:06:01.716Z</time>
      </trkpt>
      <trkpt lat="45.72992" lon="6.70273">
        <ele>2226</ele>
        <time>2026-07-29T11:06:02.716Z</time>
      </trkpt>
      <trkpt lat="45.72993" lon="6.70274">
        <ele>2226</ele>
        <time>2026-07-29T11:06:03.716Z</time>
      </trkpt>
      <trkpt lat="45.72993" lon="6.70276">
        <ele>2227</ele>
        <time>2026-07-29T11:06:04.716Z</time>
      </trkpt>
      <trkpt lat="45.72994" lon="6.70277">
        <ele>2227</ele>
        <time>2026-07-29T11:06:05.716Z</time>
      </trkpt>
      <trkpt lat="45.72996" lon="6.70278">
        <ele>2227</ele>
        <time>2026-07-29T11:06:06.717Z</time>
      </trkpt>
      <trkpt lat="45.72997" lon="6.70279">
        <ele>2227</ele>
        <time>2026-07-29T11:06:07.716Z</time>
      </trkpt>
      <trkpt lat="45.72998" lon="6.7028">
        <ele>2228</ele>
        <time>2026-07-29T11:06:08.716Z</time>
      </trkpt>
      <trkpt lat="45.72998" lon="6.70281">
        <ele>2228</ele>
        <time>2026-07-29T11:06:09.716Z</time>
      </trkpt>
      <trkpt lat="45.72999" lon="6.70283">
        <ele>2228</ele>
        <time>2026-07-29T11:06:10.716Z</time>
      </trkpt>
      <trkpt lat="45.73" lon="6.70284">
        <ele>2229</ele>
        <time>2026-07-29T11:06:11.716Z</time>
      </trkpt>
      <trkpt lat="45.73001" lon="6.70285">
        <ele>2229</ele>
        <time>2026-07-29T11:06:12.716Z</time>
      </trkpt>
      <trkpt lat="45.73002" lon="6.70286">
        <ele>2229</ele>
        <time>2026-07-29T11:06:13.716Z</time>
      </trkpt>
      <trkpt lat="45.73003" lon="6.70287">
        <ele>2229</ele>
        <time>2026-07-29T11:06:14.716Z</time>
      </trkpt>
      <trkpt lat="45.73004" lon="6.70288">
        <ele>2229</ele>
        <time>2026-07-29T11:06:15.716Z</time>
      </trkpt>
      <trkpt lat="45.73005" lon="6.70289">
        <ele>2229</ele>
        <time>2026-07-29T11:06:16.716Z</time>
      </trkpt>
      <trkpt lat="45.73006" lon="6.7029">
        <ele>2230</ele>
        <time>2026-07-29T11:06:17.716Z</time>
      </trkpt>
      <trkpt lat="45.73007" lon="6.70291">
        <ele>2230</ele>
        <time>2026-07-29T11:06:18.716Z</time>
      </trkpt>
      <trkpt lat="45.73008" lon="6.70292">
        <ele>2231</ele>
        <time>2026-07-29T11:06:19.716Z</time>
      </trkpt>
      <trkpt lat="45.73008" lon="6.70293">
        <ele>2231</ele>
        <time>2026-07-29T11:06:20.716Z</time>
      </trkpt>
      <trkpt lat="45.73009" lon="6.70294">
        <ele>2231</ele>
        <time>2026-07-29T11:06:21.716Z</time>
      </trkpt>
      <trkpt lat="45.7301" lon="6.70295">
        <ele>2231</ele>
        <time>2026-07-29T11:06:22.716Z</time>
      </trkpt>
      <trkpt lat="45.73011" lon="6.70296">
        <ele>2231</ele>
        <time>2026-07-29T11:06:23.716Z</time>
      </trkpt>
      <trkpt lat="45.73013" lon="6.70296">
        <ele>2231</ele>
        <time>2026-07-29T11:06:24.716Z</time>
      </trkpt>
      <trkpt lat="45.73013" lon="6.70297">
        <ele>2231</ele>
        <time>2026-07-29T11:06:25.716Z</time>
      </trkpt>
      <trkpt lat="45.73014" lon="6.70298">
        <ele>2230</ele>
        <time>2026-07-29T11:06:26.716Z</time>
      </trkpt>
      <trkpt lat="45.73015" lon="6.70299">
        <ele>2230</ele>
        <time>2026-07-29T11:06:27.716Z</time>
      </trkpt>
      <trkpt lat="45.73016" lon="6.70299">
        <ele>2230</ele>
        <time>2026-07-29T11:06:28.716Z</time>
      </trkpt>
      <trkpt lat="45.73017" lon="6.703">
        <ele>2229</ele>
        <time>2026-07-29T11:06:29.716Z</time>
      </trkpt>
      <trkpt lat="45.73018" lon="6.703">
        <ele>2229</ele>
        <time>2026-07-29T11:06:30.716Z</time>
      </trkpt>
      <trkpt lat="45.73019" lon="6.70301">
        <ele>2229</ele>
        <time>2026-07-29T11:06:31.716Z</time>
      </trkpt>
      <trkpt lat="45.7302" lon="6.70301">
        <ele>2230</ele>
        <time>2026-07-29T11:06:32.716Z</time>
      </trkpt>
      <trkpt lat="45.73021" lon="6.70302">
        <ele>2230</ele>
        <time>2026-07-29T11:06:33.716Z</time>
      </trkpt>
      <trkpt lat="45.73023" lon="6.70303">
        <ele>2230</ele>
        <time>2026-07-29T11:06:34.716Z</time>
      </trkpt>
      <trkpt lat="45.73024" lon="6.70303">
        <ele>2230</ele>
        <time>2026-07-29T11:06:35.716Z</time>
      </trkpt>
      <trkpt lat="45.73025" lon="6.70304">
        <ele>2230</ele>
        <time>2026-07-29T11:06:36.716Z</time>
      </trkpt>
      <trkpt lat="45.73026" lon="6.70305">
        <ele>2230</ele>
        <time>2026-07-29T11:06:37.716Z</time>
      </trkpt>
      <trkpt lat="45.73027" lon="6.70307">
        <ele>2230</ele>
        <time>2026-07-29T11:06:38.716Z</time>
      </trkpt>
      <trkpt lat="45.73028" lon="6.70308">
        <ele>2230</ele>
        <time>2026-07-29T11:06:39.716Z</time>
      </trkpt>
      <trkpt lat="45.73029" lon="6.70309">
        <ele>2230</ele>
        <time>2026-07-29T11:06:40.716Z</time>
      </trkpt>
      <trkpt lat="45.7303" lon="6.7031">
        <ele>2230</ele>
        <time>2026-07-29T11:06:41.716Z</time>
      </trkpt>
      <trkpt lat="45.73031" lon="6.70312">
        <ele>2231</ele>
        <time>2026-07-29T11:06:42.716Z</time>
      </trkpt>
      <trkpt lat="45.73032" lon="6.70313">
        <ele>2231</ele>
        <time>2026-07-29T11:06:43.716Z</time>
      </trkpt>
      <trkpt lat="45.73033" lon="6.70314">
        <ele>2231</ele>
        <time>2026-07-29T11:06:44.716Z</time>
      </trkpt>
      <trkpt lat="45.73034" lon="6.70315">
        <ele>2231</ele>
        <time>2026-07-29T11:06:45.716Z</time>
      </trkpt>
      <trkpt lat="45.73035" lon="6.70316">
        <ele>2231</ele>
        <time>2026-07-29T11:06:46.716Z</time>
      </trkpt>
      <trkpt lat="45.73036" lon="6.70317">
        <ele>2231</ele>
        <time>2026-07-29T11:06:47.716Z</time>
      </trkpt>
      <trkpt lat="45.73036" lon="6.70318">
        <ele>2231</ele>
        <time>2026-07-29T11:06:48.716Z</time>
      </trkpt>
      <trkpt lat="45.73037" lon="6.7032">
        <ele>2231</ele>
        <time>2026-07-29T11:06:49.716Z</time>
      </trkpt>
      <trkpt lat="45.73038" lon="6.70321">
        <ele>2231</ele>
        <time>2026-07-29T11:06:50.716Z</time>
      </trkpt>
      <trkpt lat="45.73038" lon="6.70322">
        <ele>2231</ele>
        <time>2026-07-29T11:06:51.716Z</time>
      </trkpt>
      <trkpt lat="45.73039" lon="6.70324">
        <ele>2231</ele>
        <time>2026-07-29T11:06:52.716Z</time>
      </trkpt>
      <trkpt lat="45.7304" lon="6.70325">
        <ele>2231</ele>
        <time>2026-07-29T11:06:53.716Z</time>
      </trkpt>
      <trkpt lat="45.7304" lon="6.70326">
        <ele>2231</ele>
        <time>2026-07-29T11:06:54.716Z</time>
      </trkpt>
      <trkpt lat="45.73041" lon="6.70327">
        <ele>2231</ele>
        <time>2026-07-29T11:06:55.716Z</time>
      </trkpt>
      <trkpt lat="45.73042" lon="6.70328">
        <ele>2231</ele>
        <time>2026-07-29T11:06:56.716Z</time>
      </trkpt>
      <trkpt lat="45.73042" lon="6.70329">
        <ele>2232</ele>
        <time>2026-07-29T11:06:57.716Z</time>
      </trkpt>
      <trkpt lat="45.73043" lon="6.7033">
        <ele>2233</ele>
        <time>2026-07-29T11:06:58.716Z</time>
      </trkpt>
      <trkpt lat="45.73043" lon="6.70331">
        <ele>2233</ele>
        <time>2026-07-29T11:06:59.716Z</time>
      </trkpt>
      <trkpt lat="45.73044" lon="6.70332">
        <ele>2233</ele>
        <time>2026-07-29T11:07:00.716Z</time>
      </trkpt>
      <trkpt lat="45.73044" lon="6.70334">
        <ele>2233</ele>
        <time>2026-07-29T11:07:01.716Z</time>
      </trkpt>
      <trkpt lat="45.73045" lon="6.70335">
        <ele>2234</ele>
        <time>2026-07-29T11:07:02.716Z</time>
      </trkpt>
      <trkpt lat="45.73046" lon="6.70336">
        <ele>2234</ele>
        <time>2026-07-29T11:07:03.716Z</time>
      </trkpt>
      <trkpt lat="45.73046" lon="6.70337">
        <ele>2235</ele>
        <time>2026-07-29T11:07:04.716Z</time>
      </trkpt>
      <trkpt lat="45.73047" lon="6.70338">
        <ele>2236</ele>
        <time>2026-07-29T11:07:05.716Z</time>
      </trkpt>
      <trkpt lat="45.73048" lon="6.70339">
        <ele>2236</ele>
        <time>2026-07-29T11:07:06.716Z</time>
      </trkpt>
      <trkpt lat="45.73049" lon="6.7034">
        <ele>2236</ele>
        <time>2026-07-29T11:07:07.716Z</time>
      </trkpt>
      <trkpt lat="45.7305" lon="6.70341">
        <ele>2236</ele>
        <time>2026-07-29T11:07:08.716Z</time>
      </trkpt>
      <trkpt lat="45.73051" lon="6.70342">
        <ele>2236</ele>
        <time>2026-07-29T11:07:09.716Z</time>
      </trkpt>
      <trkpt lat="45.73052" lon="6.70343">
        <ele>2236</ele>
        <time>2026-07-29T11:07:10.716Z</time>
      </trkpt>
      <trkpt lat="45.73053" lon="6.70343">
        <ele>2236</ele>
        <time>2026-07-29T11:07:11.716Z</time>
      </trkpt>
      <trkpt lat="45.73054" lon="6.70344">
        <ele>2237</ele>
        <time>2026-07-29T11:07:12.716Z</time>
      </trkpt>
      <trkpt lat="45.73054" lon="6.70345">
        <ele>2237</ele>
        <time>2026-07-29T11:07:13.716Z</time>
      </trkpt>
      <trkpt lat="45.73055" lon="6.70345">
        <ele>2237</ele>
        <time>2026-07-29T11:07:14.716Z</time>
      </trkpt>
      <trkpt lat="45.73056" lon="6.70345">
        <ele>2237</ele>
        <time>2026-07-29T11:07:15.716Z</time>
      </trkpt>
      <trkpt lat="45.73056" lon="6.70345">
        <ele>2237</ele>
        <time>2026-07-29T11:07:16.716Z</time>
      </trkpt>
      <trkpt lat="45.73057" lon="6.70345">
        <ele>2237</ele>
        <time>2026-07-29T11:07:17.716Z</time>
      </trkpt>
      <trkpt lat="45.73058" lon="6.70346">
        <ele>2237</ele>
        <time>2026-07-29T11:07:18.716Z</time>
      </trkpt>
      <trkpt lat="45.73059" lon="6.70347">
        <ele>2237</ele>
        <time>2026-07-29T11:07:19.716Z</time>
      </trkpt>
      <trkpt lat="45.7306" lon="6.70347">
        <ele>2237</ele>
        <time>2026-07-29T11:07:20.716Z</time>
      </trkpt>
      <trkpt lat="45.73061" lon="6.70348">
        <ele>2238</ele>
        <time>2026-07-29T11:07:21.716Z</time>
      </trkpt>
      <trkpt lat="45.73062" lon="6.70349">
        <ele>2238</ele>
        <time>2026-07-29T11:07:22.716Z</time>
      </trkpt>
      <trkpt lat="45.73063" lon="6.7035">
        <ele>2239</ele>
        <time>2026-07-29T11:07:23.716Z</time>
      </trkpt>
      <trkpt lat="45.73064" lon="6.70352">
        <ele>2239</ele>
        <time>2026-07-29T11:07:24.716Z</time>
      </trkpt>
      <trkpt lat="45.73065" lon="6.70353">
        <ele>2239</ele>
        <time>2026-07-29T11:07:25.716Z</time>
      </trkpt>
      <trkpt lat="45.73066" lon="6.70355">
        <ele>2239</ele>
        <time>2026-07-29T11:07:26.716Z</time>
      </trkpt>
      <trkpt lat="45.73067" lon="6.70356">
        <ele>2239</ele>
        <time>2026-07-29T11:07:27.716Z</time>
      </trkpt>
      <trkpt lat="45.73068" lon="6.70357">
        <ele>2239</ele>
        <time>2026-07-29T11:07:28.716Z</time>
      </trkpt>
      <trkpt lat="45.73069" lon="6.70358">
        <ele>2239</ele>
        <time>2026-07-29T11:07:29.716Z</time>
      </trkpt>
      <trkpt lat="45.73071" lon="6.7036">
        <ele>2239</ele>
        <time>2026-07-29T11:07:30.716Z</time>
      </trkpt>
      <trkpt lat="45.73072" lon="6.70362">
        <ele>2239</ele>
        <time>2026-07-29T11:07:31.716Z</time>
      </trkpt>
      <trkpt lat="45.73073" lon="6.70364">
        <ele>2239</ele>
        <time>2026-07-29T11:07:32.716Z</time>
      </trkpt>
      <trkpt lat="45.73075" lon="6.70365">
        <ele>2239</ele>
        <time>2026-07-29T11:07:33.716Z</time>
      </trkpt>
      <trkpt lat="45.73076" lon="6.70367">
        <ele>2239</ele>
        <time>2026-07-29T11:07:34.716Z</time>
      </trkpt>
      <trkpt lat="45.73078" lon="6.70368">
        <ele>2239</ele>
        <time>2026-07-29T11:07:35.716Z</time>
      </trkpt>
      <trkpt lat="45.7308" lon="6.7037">
        <ele>2239</ele>
        <time>2026-07-29T11:07:36.716Z</time>
      </trkpt>
      <trkpt lat="45.73082" lon="6.70371">
        <ele>2239</ele>
        <time>2026-07-29T11:07:37.716Z</time>
      </trkpt>
      <trkpt lat="45.73084" lon="6.70373">
        <ele>2239</ele>
        <time>2026-07-29T11:07:38.716Z</time>
      </trkpt>
      <trkpt lat="45.73086" lon="6.70374">
        <ele>2239</ele>
        <time>2026-07-29T11:07:39.716Z</time>
      </trkpt>
      <trkpt lat="45.73087" lon="6.70375">
        <ele>2239</ele>
        <time>2026-07-29T11:07:40.716Z</time>
      </trkpt>
      <trkpt lat="45.73089" lon="6.70376">
        <ele>2239</ele>
        <time>2026-07-29T11:07:41.716Z</time>
      </trkpt>
      <trkpt lat="45.7309" lon="6.70376">
        <ele>2239</ele>
        <time>2026-07-29T11:07:42.716Z</time>
      </trkpt>
      <trkpt lat="45.73091" lon="6.70377">
        <ele>2239</ele>
        <time>2026-07-29T11:07:43.716Z</time>
      </trkpt>
      <trkpt lat="45.73092" lon="6.70378">
        <ele>2239</ele>
        <time>2026-07-29T11:07:44.716Z</time>
      </trkpt>
      <trkpt lat="45.73093" lon="6.70379">
        <ele>2239</ele>
        <time>2026-07-29T11:07:45.716Z</time>
      </trkpt>
      <trkpt lat="45.73094" lon="6.7038">
        <ele>2239</ele>
        <time>2026-07-29T11:07:46.716Z</time>
      </trkpt>
      <trkpt lat="45.73095" lon="6.70381">
        <ele>2239</ele>
        <time>2026-07-29T11:07:47.716Z</time>
      </trkpt>
      <trkpt lat="45.73096" lon="6.70381">
        <ele>2240</ele>
        <time>2026-07-29T11:07:48.716Z</time>
      </trkpt>
      <trkpt lat="45.73097" lon="6.70381">
        <ele>2240</ele>
        <time>2026-07-29T11:07:49.716Z</time>
      </trkpt>
      <trkpt lat="45.73097" lon="6.70381">
        <ele>2240</ele>
        <time>2026-07-29T11:07:50.716Z</time>
      </trkpt>
      <trkpt lat="45.73098" lon="6.70382">
        <ele>2240</ele>
        <time>2026-07-29T11:07:51.716Z</time>
      </trkpt>
      <trkpt lat="45.73099" lon="6.70382">
        <ele>2240</ele>
        <time>2026-07-29T11:07:52.716Z</time>
      </trkpt>
      <trkpt lat="45.73099" lon="6.70383">
        <ele>2240</ele>
        <time>2026-07-29T11:07:53.716Z</time>
      </trkpt>
      <trkpt lat="45.731" lon="6.70383">
        <ele>2240</ele>
        <time>2026-07-29T11:07:54.716Z</time>
      </trkpt>
      <trkpt lat="45.73101" lon="6.70384">
        <ele>2241</ele>
        <time>2026-07-29T11:07:55.716Z</time>
      </trkpt>
      <trkpt lat="45.73102" lon="6.70384">
        <ele>2241</ele>
        <time>2026-07-29T11:07:56.716Z</time>
      </trkpt>
      <trkpt lat="45.73102" lon="6.70385">
        <ele>2241</ele>
        <time>2026-07-29T11:07:57.716Z</time>
      </trkpt>
      <trkpt lat="45.73103" lon="6.70386">
        <ele>2241</ele>
        <time>2026-07-29T11:07:58.716Z</time>
      </trkpt>
      <trkpt lat="45.73104" lon="6.70387">
        <ele>2241</ele>
        <time>2026-07-29T11:07:59.716Z</time>
      </trkpt>
      <trkpt lat="45.73105" lon="6.70388">
        <ele>2241</ele>
        <time>2026-07-29T11:08:00.716Z</time>
      </trkpt>
      <trkpt lat="45.73106" lon="6.70388">
        <ele>2241</ele>
        <time>2026-07-29T11:08:01.716Z</time>
      </trkpt>
      <trkpt lat="45.73107" lon="6.70389">
        <ele>2242</ele>
        <time>2026-07-29T11:08:02.716Z</time>
      </trkpt>
      <trkpt lat="45.73108" lon="6.70391">
        <ele>2242</ele>
        <time>2026-07-29T11:08:03.716Z</time>
      </trkpt>
      <trkpt lat="45.73109" lon="6.70392">
        <ele>2242</ele>
        <time>2026-07-29T11:08:04.716Z</time>
      </trkpt>
      <trkpt lat="45.7311" lon="6.70392">
        <ele>2242</ele>
        <time>2026-07-29T11:08:05.716Z</time>
      </trkpt>
      <trkpt lat="45.73111" lon="6.70393">
        <ele>2243</ele>
        <time>2026-07-29T11:08:06.716Z</time>
      </trkpt>
      <trkpt lat="45.73112" lon="6.70394">
        <ele>2243</ele>
        <time>2026-07-29T11:08:07.716Z</time>
      </trkpt>
      <trkpt lat="45.73113" lon="6.70395">
        <ele>2243</ele>
        <time>2026-07-29T11:08:08.716Z</time>
      </trkpt>
      <trkpt lat="45.73114" lon="6.70396">
        <ele>2243</ele>
        <time>2026-07-29T11:08:09.716Z</time>
      </trkpt>
      <trkpt lat="45.73115" lon="6.70396">
        <ele>2243</ele>
        <time>2026-07-29T11:08:10.716Z</time>
      </trkpt>
      <trkpt lat="45.73116" lon="6.70397">
        <ele>2244</ele>
        <time>2026-07-29T11:08:11.716Z</time>
      </trkpt>
      <trkpt lat="45.73117" lon="6.70398">
        <ele>2244</ele>
        <time>2026-07-29T11:08:12.716Z</time>
      </trkpt>
      <trkpt lat="45.73118" lon="6.70399">
        <ele>2244</ele>
        <time>2026-07-29T11:08:13.716Z</time>
      </trkpt>
      <trkpt lat="45.73119" lon="6.70399">
        <ele>2244</ele>
        <time>2026-07-29T11:08:14.716Z</time>
      </trkpt>
      <trkpt lat="45.7312" lon="6.704">
        <ele>2244</ele>
        <time>2026-07-29T11:08:15.716Z</time>
      </trkpt>
      <trkpt lat="45.73121" lon="6.704">
        <ele>2244</ele>
        <time>2026-07-29T11:08:16.716Z</time>
      </trkpt>
      <trkpt lat="45.73122" lon="6.70401">
        <ele>2244</ele>
        <time>2026-07-29T11:08:17.716Z</time>
      </trkpt>
      <trkpt lat="45.73123" lon="6.70401">
        <ele>2245</ele>
        <time>2026-07-29T11:08:18.716Z</time>
      </trkpt>
      <trkpt lat="45.73124" lon="6.70402">
        <ele>2245</ele>
        <time>2026-07-29T11:08:19.716Z</time>
      </trkpt>
      <trkpt lat="45.73125" lon="6.70403">
        <ele>2245</ele>
        <time>2026-07-29T11:08:20.716Z</time>
      </trkpt>
      <trkpt lat="45.73125" lon="6.70404">
        <ele>2245</ele>
        <time>2026-07-29T11:08:21.716Z</time>
      </trkpt>
      <trkpt lat="45.73126" lon="6.70405">
        <ele>2245</ele>
        <time>2026-07-29T11:08:22.716Z</time>
      </trkpt>
      <trkpt lat="45.73127" lon="6.70406">
        <ele>2245</ele>
        <time>2026-07-29T11:08:23.716Z</time>
      </trkpt>
      <trkpt lat="45.73128" lon="6.70407">
        <ele>2245</ele>
        <time>2026-07-29T11:08:24.716Z</time>
      </trkpt>
      <trkpt lat="45.7313" lon="6.70408">
        <ele>2245</ele>
        <time>2026-07-29T11:08:25.716Z</time>
      </trkpt>
      <trkpt lat="45.73131" lon="6.70408">
        <ele>2245</ele>
        <time>2026-07-29T11:08:26.716Z</time>
      </trkpt>
      <trkpt lat="45.73132" lon="6.70409">
        <ele>2245</ele>
        <time>2026-07-29T11:08:27.716Z</time>
      </trkpt>
      <trkpt lat="45.73133" lon="6.70409">
        <ele>2246</ele>
        <time>2026-07-29T11:08:28.716Z</time>
      </trkpt>
      <trkpt lat="45.73134" lon="6.7041">
        <ele>2246</ele>
        <time>2026-07-29T11:08:29.716Z</time>
      </trkpt>
      <trkpt lat="45.73135" lon="6.7041">
        <ele>2246</ele>
        <time>2026-07-29T11:08:30.716Z</time>
      </trkpt>
      <trkpt lat="45.73136" lon="6.7041">
        <ele>2246</ele>
        <time>2026-07-29T11:08:31.716Z</time>
      </trkpt>
      <trkpt lat="45.73137" lon="6.7041">
        <ele>2246</ele>
        <time>2026-07-29T11:08:32.716Z</time>
      </trkpt>
      <trkpt lat="45.73138" lon="6.70411">
        <ele>2246</ele>
        <time>2026-07-29T11:08:33.716Z</time>
      </trkpt>
      <trkpt lat="45.73139" lon="6.70412">
        <ele>2246</ele>
        <time>2026-07-29T11:08:34.716Z</time>
      </trkpt>
      <trkpt lat="45.7314" lon="6.70413">
        <ele>2246</ele>
        <time>2026-07-29T11:08:35.716Z</time>
      </trkpt>
      <trkpt lat="45.73141" lon="6.70414">
        <ele>2246</ele>
        <time>2026-07-29T11:08:36.716Z</time>
      </trkpt>
      <trkpt lat="45.73142" lon="6.70415">
        <ele>2246</ele>
        <time>2026-07-29T11:08:37.716Z</time>
      </trkpt>
      <trkpt lat="45.73143" lon="6.70416">
        <ele>2246</ele>
        <time>2026-07-29T11:08:38.716Z</time>
      </trkpt>
      <trkpt lat="45.73144" lon="6.70417">
        <ele>2246</ele>
        <time>2026-07-29T11:08:39.716Z</time>
      </trkpt>
      <trkpt lat="45.73145" lon="6.70418">
        <ele>2246</ele>
        <time>2026-07-29T11:08:40.716Z</time>
      </trkpt>
      <trkpt lat="45.73146" lon="6.70419">
        <ele>2246</ele>
        <time>2026-07-29T11:08:41.716Z</time>
      </trkpt>
      <trkpt lat="45.73147" lon="6.7042">
        <ele>2246</ele>
        <time>2026-07-29T11:08:42.716Z</time>
      </trkpt>
      <trkpt lat="45.73148" lon="6.70421">
        <ele>2246</ele>
        <time>2026-07-29T11:08:43.716Z</time>
      </trkpt>
      <trkpt lat="45.73149" lon="6.70421">
        <ele>2247</ele>
        <time>2026-07-29T11:08:44.716Z</time>
      </trkpt>
      <trkpt lat="45.7315" lon="6.70422">
        <ele>2247</ele>
        <time>2026-07-29T11:08:45.716Z</time>
      </trkpt>
      <trkpt lat="45.73151" lon="6.70424">
        <ele>2247</ele>
        <time>2026-07-29T11:08:46.716Z</time>
      </trkpt>
      <trkpt lat="45.73152" lon="6.70425">
        <ele>2247</ele>
        <time>2026-07-29T11:08:47.716Z</time>
      </trkpt>
      <trkpt lat="45.73153" lon="6.70427">
        <ele>2248</ele>
        <time>2026-07-29T11:08:48.716Z</time>
      </trkpt>
      <trkpt lat="45.73154" lon="6.70428">
        <ele>2248</ele>
        <time>2026-07-29T11:08:49.716Z</time>
      </trkpt>
      <trkpt lat="45.73155" lon="6.70429">
        <ele>2249</ele>
        <time>2026-07-29T11:08:50.716Z</time>
      </trkpt>
      <trkpt lat="45.73155" lon="6.70431">
        <ele>2249</ele>
        <time>2026-07-29T11:08:51.716Z</time>
      </trkpt>
      <trkpt lat="45.73156" lon="6.70432">
        <ele>2250</ele>
        <time>2026-07-29T11:08:52.716Z</time>
      </trkpt>
      <trkpt lat="45.73156" lon="6.70433">
        <ele>2251</ele>
        <time>2026-07-29T11:08:53.716Z</time>
      </trkpt>
      <trkpt lat="45.73157" lon="6.70434">
        <ele>2251</ele>
        <time>2026-07-29T11:08:54.716Z</time>
      </trkpt>
      <trkpt lat="45.73158" lon="6.70435">
        <ele>2251</ele>
        <time>2026-07-29T11:08:55.716Z</time>
      </trkpt>
      <trkpt lat="45.73159" lon="6.70435">
        <ele>2252</ele>
        <time>2026-07-29T11:08:56.716Z</time>
      </trkpt>
      <trkpt lat="45.73161" lon="6.70435">
        <ele>2252</ele>
        <time>2026-07-29T11:08:57.716Z</time>
      </trkpt>
      <trkpt lat="45.73162" lon="6.70435">
        <ele>2253</ele>
        <time>2026-07-29T11:08:58.716Z</time>
      </trkpt>
      <trkpt lat="45.73163" lon="6.70436">
        <ele>2253</ele>
        <time>2026-07-29T11:08:59.716Z</time>
      </trkpt>
      <trkpt lat="45.73164" lon="6.70437">
        <ele>2253</ele>
        <time>2026-07-29T11:09:00.716Z</time>
      </trkpt>
      <trkpt lat="45.73165" lon="6.70438">
        <ele>2253</ele>
        <time>2026-07-29T11:09:01.716Z</time>
      </trkpt>
      <trkpt lat="45.73166" lon="6.70439">
        <ele>2253</ele>
        <time>2026-07-29T11:09:02.716Z</time>
      </trkpt>
      <trkpt lat="45.73168" lon="6.70439">
        <ele>2253</ele>
        <time>2026-07-29T11:09:03.716Z</time>
      </trkpt>
      <trkpt lat="45.73169" lon="6.7044">
        <ele>2253</ele>
        <time>2026-07-29T11:09:04.716Z</time>
      </trkpt>
      <trkpt lat="45.7317" lon="6.70441">
        <ele>2253</ele>
        <time>2026-07-29T11:09:05.716Z</time>
      </trkpt>
      <trkpt lat="45.7317" lon="6.70442">
        <ele>2254</ele>
        <time>2026-07-29T11:09:06.716Z</time>
      </trkpt>
      <trkpt lat="45.73171" lon="6.70442">
        <ele>2254</ele>
        <time>2026-07-29T11:09:07.716Z</time>
      </trkpt>
      <trkpt lat="45.73172" lon="6.70442">
        <ele>2254</ele>
        <time>2026-07-29T11:09:08.716Z</time>
      </trkpt>
      <trkpt lat="45.73173" lon="6.70443">
        <ele>2254</ele>
        <time>2026-07-29T11:09:09.716Z</time>
      </trkpt>
      <trkpt lat="45.73174" lon="6.70444">
        <ele>2254</ele>
        <time>2026-07-29T11:09:10.716Z</time>
      </trkpt>
      <trkpt lat="45.73175" lon="6.70444">
        <ele>2254</ele>
        <time>2026-07-29T11:09:11.716Z</time>
      </trkpt>
      <trkpt lat="45.73176" lon="6.70445">
        <ele>2254</ele>
        <time>2026-07-29T11:09:12.716Z</time>
      </trkpt>
      <trkpt lat="45.73177" lon="6.70446">
        <ele>2255</ele>
        <time>2026-07-29T11:09:13.716Z</time>
      </trkpt>
      <trkpt lat="45.73178" lon="6.70446">
        <ele>2255</ele>
        <time>2026-07-29T11:09:14.716Z</time>
      </trkpt>
      <trkpt lat="45.73179" lon="6.70447">
        <ele>2255</ele>
        <time>2026-07-29T11:09:15.716Z</time>
      </trkpt>
      <trkpt lat="45.7318" lon="6.70447">
        <ele>2256</ele>
        <time>2026-07-29T11:09:16.716Z</time>
      </trkpt>
      <trkpt lat="45.73181" lon="6.70448">
        <ele>2256</ele>
        <time>2026-07-29T11:09:17.716Z</time>
      </trkpt>
      <trkpt lat="45.73182" lon="6.70448">
        <ele>2256</ele>
        <time>2026-07-29T11:09:18.716Z</time>
      </trkpt>
      <trkpt lat="45.73183" lon="6.70449">
        <ele>2256</ele>
        <time>2026-07-29T11:09:19.716Z</time>
      </trkpt>
      <trkpt lat="45.73184" lon="6.70449">
        <ele>2256</ele>
        <time>2026-07-29T11:09:20.716Z</time>
      </trkpt>
      <trkpt lat="45.73184" lon="6.70449">
        <ele>2256</ele>
        <time>2026-07-29T11:09:21.716Z</time>
      </trkpt>
      <trkpt lat="45.73185" lon="6.7045">
        <ele>2257</ele>
        <time>2026-07-29T11:09:22.716Z</time>
      </trkpt>
      <trkpt lat="45.73186" lon="6.7045">
        <ele>2257</ele>
        <time>2026-07-29T11:09:23.716Z</time>
      </trkpt>
      <trkpt lat="45.73187" lon="6.70451">
        <ele>2257</ele>
        <time>2026-07-29T11:09:24.716Z</time>
      </trkpt>
      <trkpt lat="45.73188" lon="6.70451">
        <ele>2258</ele>
        <time>2026-07-29T11:09:25.716Z</time>
      </trkpt>
      <trkpt lat="45.73189" lon="6.70452">
        <ele>2258</ele>
        <time>2026-07-29T11:09:26.716Z</time>
      </trkpt>
      <trkpt lat="45.7319" lon="6.70452">
        <ele>2258</ele>
        <time>2026-07-29T11:09:27.716Z</time>
      </trkpt>
      <trkpt lat="45.73191" lon="6.70452">
        <ele>2258</ele>
        <time>2026-07-29T11:09:28.716Z</time>
      </trkpt>
      <trkpt lat="45.73192" lon="6.70453">
        <ele>2258</ele>
        <time>2026-07-29T11:09:29.716Z</time>
      </trkpt>
      <trkpt lat="45.73193" lon="6.70454">
        <ele>2258</ele>
        <time>2026-07-29T11:09:30.716Z</time>
      </trkpt>
      <trkpt lat="45.73194" lon="6.70455">
        <ele>2258</ele>
        <time>2026-07-29T11:09:31.716Z</time>
      </trkpt>
      <trkpt lat="45.73195" lon="6.70456">
        <ele>2258</ele>
        <time>2026-07-29T11:09:32.716Z</time>
      </trkpt>
      <trkpt lat="45.73196" lon="6.70457">
        <ele>2258</ele>
        <time>2026-07-29T11:09:33.716Z</time>
      </trkpt>
      <trkpt lat="45.73197" lon="6.70457">
        <ele>2259</ele>
        <time>2026-07-29T11:09:34.716Z</time>
      </trkpt>
      <trkpt lat="45.73198" lon="6.70458">
        <ele>2259</ele>
        <time>2026-07-29T11:09:35.716Z</time>
      </trkpt>
      <trkpt lat="45.73199" lon="6.70459">
        <ele>2259</ele>
        <time>2026-07-29T11:09:36.716Z</time>
      </trkpt>
      <trkpt lat="45.732" lon="6.7046">
        <ele>2259</ele>
        <time>2026-07-29T11:09:37.716Z</time>
      </trkpt>
      <trkpt lat="45.73201" lon="6.7046">
        <ele>2259</ele>
        <time>2026-07-29T11:09:38.716Z</time>
      </trkpt>
      <trkpt lat="45.73202" lon="6.70461">
        <ele>2259</ele>
        <time>2026-07-29T11:09:39.716Z</time>
      </trkpt>
      <trkpt lat="45.73203" lon="6.70462">
        <ele>2260</ele>
        <time>2026-07-29T11:09:40.716Z</time>
      </trkpt>
      <trkpt lat="45.73204" lon="6.70462">
        <ele>2260</ele>
        <time>2026-07-29T11:09:41.716Z</time>
      </trkpt>
      <trkpt lat="45.73205" lon="6.70462">
        <ele>2261</ele>
        <time>2026-07-29T11:09:42.716Z</time>
      </trkpt>
      <trkpt lat="45.73206" lon="6.70463">
        <ele>2261</ele>
        <time>2026-07-29T11:09:43.716Z</time>
      </trkpt>
      <trkpt lat="45.73207" lon="6.70463">
        <ele>2261</ele>
        <time>2026-07-29T11:09:44.716Z</time>
      </trkpt>
      <trkpt lat="45.73209" lon="6.70464">
        <ele>2262</ele>
        <time>2026-07-29T11:09:45.716Z</time>
      </trkpt>
      <trkpt lat="45.7321" lon="6.70464">
        <ele>2262</ele>
        <time>2026-07-29T11:09:46.716Z</time>
      </trkpt>
      <trkpt lat="45.73211" lon="6.70466">
        <ele>2263</ele>
        <time>2026-07-29T11:09:47.716Z</time>
      </trkpt>
      <trkpt lat="45.73212" lon="6.70467">
        <ele>2262</ele>
        <time>2026-07-29T11:09:48.716Z</time>
      </trkpt>
      <trkpt lat="45.73213" lon="6.70468">
        <ele>2263</ele>
        <time>2026-07-29T11:09:49.716Z</time>
      </trkpt>
      <trkpt lat="45.73214" lon="6.70469">
        <ele>2262</ele>
        <time>2026-07-29T11:09:50.716Z</time>
      </trkpt>
      <trkpt lat="45.73215" lon="6.70469">
        <ele>2262</ele>
        <time>2026-07-29T11:09:51.716Z</time>
      </trkpt>
      <trkpt lat="45.73216" lon="6.7047">
        <ele>2262</ele>
        <time>2026-07-29T11:09:52.716Z</time>
      </trkpt>
      <trkpt lat="45.73216" lon="6.70471">
        <ele>2262</ele>
        <time>2026-07-29T11:09:53.716Z</time>
      </trkpt>
      <trkpt lat="45.73217" lon="6.70471">
        <ele>2262</ele>
        <time>2026-07-29T11:09:54.716Z</time>
      </trkpt>
      <trkpt lat="45.73218" lon="6.70471">
        <ele>2262</ele>
        <time>2026-07-29T11:09:55.716Z</time>
      </trkpt>
      <trkpt lat="45.73218" lon="6.70471">
        <ele>2262</ele>
        <time>2026-07-29T11:09:56.716Z</time>
      </trkpt>
      <trkpt lat="45.73219" lon="6.70472">
        <ele>2262</ele>
        <time>2026-07-29T11:09:57.716Z</time>
      </trkpt>
      <trkpt lat="45.7322" lon="6.70472">
        <ele>2263</ele>
        <time>2026-07-29T11:09:58.716Z</time>
      </trkpt>
      <trkpt lat="45.73221" lon="6.70472">
        <ele>2263</ele>
        <time>2026-07-29T11:09:59.716Z</time>
      </trkpt>
      <trkpt lat="45.73221" lon="6.70473">
        <ele>2263</ele>
        <time>2026-07-29T11:10:00.716Z</time>
      </trkpt>
      <trkpt lat="45.73222" lon="6.70473">
        <ele>2264</ele>
        <time>2026-07-29T11:10:01.716Z</time>
      </trkpt>
      <trkpt lat="45.73223" lon="6.70473">
        <ele>2264</ele>
        <time>2026-07-29T11:10:02.716Z</time>
      </trkpt>
      <trkpt lat="45.73224" lon="6.70473">
        <ele>2264</ele>
        <time>2026-07-29T11:10:03.716Z</time>
      </trkpt>
      <trkpt lat="45.73224" lon="6.70473">
        <ele>2265</ele>
        <time>2026-07-29T11:10:04.716Z</time>
      </trkpt>
      <trkpt lat="45.73225" lon="6.70474">
        <ele>2265</ele>
        <time>2026-07-29T11:10:05.716Z</time>
      </trkpt>
      <trkpt lat="45.73226" lon="6.70474">
        <ele>2265</ele>
        <time>2026-07-29T11:10:06.716Z</time>
      </trkpt>
      <trkpt lat="45.73227" lon="6.70474">
        <ele>2265</ele>
        <time>2026-07-29T11:10:07.716Z</time>
      </trkpt>
      <trkpt lat="45.73228" lon="6.70475">
        <ele>2265</ele>
        <time>2026-07-29T11:10:08.716Z</time>
      </trkpt>
      <trkpt lat="45.73229" lon="6.70475">
        <ele>2265</ele>
        <time>2026-07-29T11:10:09.716Z</time>
      </trkpt>
      <trkpt lat="45.7323" lon="6.70475">
        <ele>2265</ele>
        <time>2026-07-29T11:10:10.716Z</time>
      </trkpt>
      <trkpt lat="45.7323" lon="6.70476">
        <ele>2266</ele>
        <time>2026-07-29T11:10:11.716Z</time>
      </trkpt>
      <trkpt lat="45.73231" lon="6.70476">
        <ele>2266</ele>
        <time>2026-07-29T11:10:12.716Z</time>
      </trkpt>
      <trkpt lat="45.73232" lon="6.70477">
        <ele>2266</ele>
        <time>2026-07-29T11:10:13.716Z</time>
      </trkpt>
      <trkpt lat="45.73233" lon="6.70477">
        <ele>2267</ele>
        <time>2026-07-29T11:10:14.716Z</time>
      </trkpt>
      <trkpt lat="45.73233" lon="6.70477">
        <ele>2267</ele>
        <time>2026-07-29T11:10:15.716Z</time>
      </trkpt>
      <trkpt lat="45.73234" lon="6.70478">
        <ele>2268</ele>
        <time>2026-07-29T11:10:16.716Z</time>
      </trkpt>
      <trkpt lat="45.73235" lon="6.70478">
        <ele>2268</ele>
        <time>2026-07-29T11:10:17.716Z</time>
      </trkpt>
      <trkpt lat="45.73236" lon="6.70479">
        <ele>2268</ele>
        <time>2026-07-29T11:10:18.716Z</time>
      </trkpt>
      <trkpt lat="45.73237" lon="6.70479">
        <ele>2268</ele>
        <time>2026-07-29T11:10:19.716Z</time>
      </trkpt>
      <trkpt lat="45.73238" lon="6.7048">
        <ele>2268</ele>
        <time>2026-07-29T11:10:20.716Z</time>
      </trkpt>
      <trkpt lat="45.73239" lon="6.7048">
        <ele>2268</ele>
        <time>2026-07-29T11:10:21.716Z</time>
      </trkpt>
      <trkpt lat="45.7324" lon="6.70481">
        <ele>2268</ele>
        <time>2026-07-29T11:10:22.716Z</time>
      </trkpt>
      <trkpt lat="45.73241" lon="6.70481">
        <ele>2269</ele>
        <time>2026-07-29T11:10:23.716Z</time>
      </trkpt>
      <trkpt lat="45.73242" lon="6.70482">
        <ele>2269</ele>
        <time>2026-07-29T11:10:24.716Z</time>
      </trkpt>
      <trkpt lat="45.73243" lon="6.70483">
        <ele>2270</ele>
        <time>2026-07-29T11:10:25.716Z</time>
      </trkpt>
      <trkpt lat="45.73244" lon="6.70483">
        <ele>2270</ele>
        <time>2026-07-29T11:10:26.716Z</time>
      </trkpt>
      <trkpt lat="45.73245" lon="6.70484">
        <ele>2270</ele>
        <time>2026-07-29T11:10:27.716Z</time>
      </trkpt>
      <trkpt lat="45.73247" lon="6.70484">
        <ele>2271</ele>
        <time>2026-07-29T11:10:28.716Z</time>
      </trkpt>
      <trkpt lat="45.73248" lon="6.70485">
        <ele>2271</ele>
        <time>2026-07-29T11:10:29.716Z</time>
      </trkpt>
      <trkpt lat="45.73249" lon="6.70485">
        <ele>2272</ele>
        <time>2026-07-29T11:10:30.716Z</time>
      </trkpt>
      <trkpt lat="45.7325" lon="6.70486">
        <ele>2272</ele>
        <time>2026-07-29T11:10:31.716Z</time>
      </trkpt>
      <trkpt lat="45.73251" lon="6.70486">
        <ele>2273</ele>
        <time>2026-07-29T11:10:32.716Z</time>
      </trkpt>
      <trkpt lat="45.73253" lon="6.70487">
        <ele>2273</ele>
        <time>2026-07-29T11:10:33.716Z</time>
      </trkpt>
      <trkpt lat="45.73254" lon="6.70487">
        <ele>2273</ele>
        <time>2026-07-29T11:10:34.716Z</time>
      </trkpt>
      <trkpt lat="45.73255" lon="6.70487">
        <ele>2273</ele>
        <time>2026-07-29T11:10:35.716Z</time>
      </trkpt>
      <trkpt lat="45.73256" lon="6.70488">
        <ele>2273</ele>
        <time>2026-07-29T11:10:36.716Z</time>
      </trkpt>
      <trkpt lat="45.73257" lon="6.70489">
        <ele>2273</ele>
        <time>2026-07-29T11:10:37.716Z</time>
      </trkpt>
      <trkpt lat="45.73258" lon="6.70489">
        <ele>2273</ele>
        <time>2026-07-29T11:10:38.716Z</time>
      </trkpt>
      <trkpt lat="45.73259" lon="6.70489">
        <ele>2274</ele>
        <time>2026-07-29T11:10:39.716Z</time>
      </trkpt>
      <trkpt lat="45.73259" lon="6.7049">
        <ele>2274</ele>
        <time>2026-07-29T11:10:40.716Z</time>
      </trkpt>
      <trkpt lat="45.7326" lon="6.7049">
        <ele>2273</ele>
        <time>2026-07-29T11:10:41.716Z</time>
      </trkpt>
      <trkpt lat="45.73261" lon="6.7049">
        <ele>2273</ele>
        <time>2026-07-29T11:10:42.716Z</time>
      </trkpt>
      <trkpt lat="45.73262" lon="6.70491">
        <ele>2273</ele>
        <time>2026-07-29T11:10:43.716Z</time>
      </trkpt>
      <trkpt lat="45.73262" lon="6.70491">
        <ele>2273</ele>
        <time>2026-07-29T11:10:44.716Z</time>
      </trkpt>
      <trkpt lat="45.73262" lon="6.70491">
        <ele>2273</ele>
        <time>2026-07-29T11:10:45.716Z</time>
      </trkpt>
      <trkpt lat="45.73263" lon="6.70491">
        <ele>2273</ele>
        <time>2026-07-29T11:10:46.716Z</time>
      </trkpt>
      <trkpt lat="45.73263" lon="6.70491">
        <ele>2273</ele>
        <time>2026-07-29T11:10:47.716Z</time>
      </trkpt>
      <trkpt lat="45.73263" lon="6.70492">
        <ele>2273</ele>
        <time>2026-07-29T11:10:48.716Z</time>
      </trkpt>
      <trkpt lat="45.73264" lon="6.70493">
        <ele>2273</ele>
        <time>2026-07-29T11:10:49.716Z</time>
      </trkpt>
      <trkpt lat="45.73265" lon="6.70493">
        <ele>2273</ele>
        <time>2026-07-29T11:10:50.716Z</time>
      </trkpt>
      <trkpt lat="45.73266" lon="6.70494">
        <ele>2273</ele>
        <time>2026-07-29T11:10:51.716Z</time>
      </trkpt>
      <trkpt lat="45.73267" lon="6.70495">
        <ele>2273</ele>
        <time>2026-07-29T11:10:52.716Z</time>
      </trkpt>
      <trkpt lat="45.73268" lon="6.70496">
        <ele>2273</ele>
        <time>2026-07-29T11:10:53.716Z</time>
      </trkpt>
      <trkpt lat="45.73269" lon="6.70497">
        <ele>2273</ele>
        <time>2026-07-29T11:10:54.716Z</time>
      </trkpt>
      <trkpt lat="45.7327" lon="6.70498">
        <ele>2273</ele>
        <time>2026-07-29T11:10:55.716Z</time>
      </trkpt>
      <trkpt lat="45.73271" lon="6.70499">
        <ele>2273</ele>
        <time>2026-07-29T11:10:56.716Z</time>
      </trkpt>
      <trkpt lat="45.73272" lon="6.70499">
        <ele>2273</ele>
        <time>2026-07-29T11:10:57.716Z</time>
      </trkpt>
      <trkpt lat="45.73274" lon="6.705">
        <ele>2274</ele>
        <time>2026-07-29T11:10:58.716Z</time>
      </trkpt>
      <trkpt lat="45.73275" lon="6.70501">
        <ele>2274</ele>
        <time>2026-07-29T11:10:59.716Z</time>
      </trkpt>
      <trkpt lat="45.73276" lon="6.70501">
        <ele>2274</ele>
        <time>2026-07-29T11:11:00.716Z</time>
      </trkpt>
      <trkpt lat="45.73277" lon="6.70501">
        <ele>2274</ele>
        <time>2026-07-29T11:11:01.716Z</time>
      </trkpt>
      <trkpt lat="45.73278" lon="6.70501">
        <ele>2275</ele>
        <time>2026-07-29T11:11:02.716Z</time>
      </trkpt>
      <trkpt lat="45.7328" lon="6.70501">
        <ele>2275</ele>
        <time>2026-07-29T11:11:03.716Z</time>
      </trkpt>
      <trkpt lat="45.73281" lon="6.70502">
        <ele>2276</ele>
        <time>2026-07-29T11:11:04.716Z</time>
      </trkpt>
      <trkpt lat="45.73282" lon="6.70502">
        <ele>2276</ele>
        <time>2026-07-29T11:11:05.716Z</time>
      </trkpt>
      <trkpt lat="45.73283" lon="6.70502">
        <ele>2276</ele>
        <time>2026-07-29T11:11:06.716Z</time>
      </trkpt>
      <trkpt lat="45.73284" lon="6.70503">
        <ele>2276</ele>
        <time>2026-07-29T11:11:07.716Z</time>
      </trkpt>
      <trkpt lat="45.73285" lon="6.70503">
        <ele>2277</ele>
        <time>2026-07-29T11:11:08.716Z</time>
      </trkpt>
      <trkpt lat="45.73286" lon="6.70503">
        <ele>2277</ele>
        <time>2026-07-29T11:11:09.716Z</time>
      </trkpt>
      <trkpt lat="45.73287" lon="6.70504">
        <ele>2278</ele>
        <time>2026-07-29T11:11:10.716Z</time>
      </trkpt>
      <trkpt lat="45.73288" lon="6.70505">
        <ele>2278</ele>
        <time>2026-07-29T11:11:11.716Z</time>
      </trkpt>
      <trkpt lat="45.73288" lon="6.70506">
        <ele>2278</ele>
        <time>2026-07-29T11:11:12.716Z</time>
      </trkpt>
      <trkpt lat="45.73289" lon="6.70506">
        <ele>2278</ele>
        <time>2026-07-29T11:11:13.716Z</time>
      </trkpt>
      <trkpt lat="45.7329" lon="6.70507">
        <ele>2278</ele>
        <time>2026-07-29T11:11:14.716Z</time>
      </trkpt>
      <trkpt lat="45.73291" lon="6.70508">
        <ele>2279</ele>
        <time>2026-07-29T11:11:15.716Z</time>
      </trkpt>
      <trkpt lat="45.73292" lon="6.70508">
        <ele>2279</ele>
        <time>2026-07-29T11:11:16.716Z</time>
      </trkpt>
      <trkpt lat="45.73294" lon="6.70508">
        <ele>2279</ele>
        <time>2026-07-29T11:11:17.716Z</time>
      </trkpt>
      <trkpt lat="45.73295" lon="6.70509">
        <ele>2280</ele>
        <time>2026-07-29T11:11:18.716Z</time>
      </trkpt>
      <trkpt lat="45.73296" lon="6.7051">
        <ele>2280</ele>
        <time>2026-07-29T11:11:19.716Z</time>
      </trkpt>
      <trkpt lat="45.73297" lon="6.70511">
        <ele>2280</ele>
        <time>2026-07-29T11:11:20.716Z</time>
      </trkpt>
      <trkpt lat="45.73297" lon="6.70511">
        <ele>2280</ele>
        <time>2026-07-29T11:11:21.716Z</time>
      </trkpt>
      <trkpt lat="45.73299" lon="6.70512">
        <ele>2280</ele>
        <time>2026-07-29T11:11:22.716Z</time>
      </trkpt>
      <trkpt lat="45.733" lon="6.70512">
        <ele>2280</ele>
        <time>2026-07-29T11:11:23.716Z</time>
      </trkpt>
      <trkpt lat="45.73301" lon="6.70513">
        <ele>2280</ele>
        <time>2026-07-29T11:11:24.716Z</time>
      </trkpt>
      <trkpt lat="45.73302" lon="6.70514">
        <ele>2280</ele>
        <time>2026-07-29T11:11:25.716Z</time>
      </trkpt>
      <trkpt lat="45.73303" lon="6.70515">
        <ele>2281</ele>
        <time>2026-07-29T11:11:26.716Z</time>
      </trkpt>
      <trkpt lat="45.73304" lon="6.70516">
        <ele>2281</ele>
        <time>2026-07-29T11:11:27.716Z</time>
      </trkpt>
      <trkpt lat="45.73305" lon="6.70517">
        <ele>2281</ele>
        <time>2026-07-29T11:11:28.716Z</time>
      </trkpt>
      <trkpt lat="45.73305" lon="6.70518">
        <ele>2281</ele>
        <time>2026-07-29T11:11:29.716Z</time>
      </trkpt>
      <trkpt lat="45.73306" lon="6.70519">
        <ele>2281</ele>
        <time>2026-07-29T11:11:30.716Z</time>
      </trkpt>
      <trkpt lat="45.73306" lon="6.7052">
        <ele>2281</ele>
        <time>2026-07-29T11:11:31.716Z</time>
      </trkpt>
      <trkpt lat="45.73307" lon="6.70521">
        <ele>2281</ele>
        <time>2026-07-29T11:11:32.716Z</time>
      </trkpt>
      <trkpt lat="45.73307" lon="6.70521">
        <ele>2281</ele>
        <time>2026-07-29T11:11:33.716Z</time>
      </trkpt>
      <trkpt lat="45.73308" lon="6.70522">
        <ele>2281</ele>
        <time>2026-07-29T11:11:34.716Z</time>
      </trkpt>
      <trkpt lat="45.73308" lon="6.70522">
        <ele>2281</ele>
        <time>2026-07-29T11:11:35.716Z</time>
      </trkpt>
      <trkpt lat="45.73309" lon="6.70523">
        <ele>2281</ele>
        <time>2026-07-29T11:11:36.716Z</time>
      </trkpt>
      <trkpt lat="45.7331" lon="6.70524">
        <ele>2282</ele>
        <time>2026-07-29T11:11:37.716Z</time>
      </trkpt>
      <trkpt lat="45.73311" lon="6.70525">
        <ele>2282</ele>
        <time>2026-07-29T11:11:38.716Z</time>
      </trkpt>
      <trkpt lat="45.73312" lon="6.70526">
        <ele>2282</ele>
        <time>2026-07-29T11:11:39.716Z</time>
      </trkpt>
      <trkpt lat="45.73313" lon="6.70526">
        <ele>2282</ele>
        <time>2026-07-29T11:11:40.716Z</time>
      </trkpt>
      <trkpt lat="45.73314" lon="6.70527">
        <ele>2282</ele>
        <time>2026-07-29T11:11:41.716Z</time>
      </trkpt>
      <trkpt lat="45.73315" lon="6.70527">
        <ele>2282</ele>
        <time>2026-07-29T11:11:42.716Z</time>
      </trkpt>
      <trkpt lat="45.73316" lon="6.70527">
        <ele>2282</ele>
        <time>2026-07-29T11:11:43.716Z</time>
      </trkpt>
      <trkpt lat="45.73317" lon="6.70527">
        <ele>2282</ele>
        <time>2026-07-29T11:11:44.716Z</time>
      </trkpt>
      <trkpt lat="45.73318" lon="6.70528">
        <ele>2283</ele>
        <time>2026-07-29T11:11:45.716Z</time>
      </trkpt>
      <trkpt lat="45.73319" lon="6.70528">
        <ele>2283</ele>
        <time>2026-07-29T11:11:46.716Z</time>
      </trkpt>
      <trkpt lat="45.7332" lon="6.70529">
        <ele>2284</ele>
        <time>2026-07-29T11:11:47.716Z</time>
      </trkpt>
      <trkpt lat="45.73321" lon="6.70529">
        <ele>2284</ele>
        <time>2026-07-29T11:11:48.716Z</time>
      </trkpt>
      <trkpt lat="45.73322" lon="6.7053">
        <ele>2284</ele>
        <time>2026-07-29T11:11:49.716Z</time>
      </trkpt>
      <trkpt lat="45.73323" lon="6.70531">
        <ele>2285</ele>
        <time>2026-07-29T11:11:50.716Z</time>
      </trkpt>
      <trkpt lat="45.73324" lon="6.70532">
        <ele>2285</ele>
        <time>2026-07-29T11:11:51.716Z</time>
      </trkpt>
      <trkpt lat="45.73325" lon="6.70533">
        <ele>2286</ele>
        <time>2026-07-29T11:11:52.716Z</time>
      </trkpt>
      <trkpt lat="45.73326" lon="6.70534">
        <ele>2286</ele>
        <time>2026-07-29T11:11:53.716Z</time>
      </trkpt>
      <trkpt lat="45.73326" lon="6.70535">
        <ele>2286</ele>
        <time>2026-07-29T11:11:54.716Z</time>
      </trkpt>
      <trkpt lat="45.73327" lon="6.70536">
        <ele>2286</ele>
        <time>2026-07-29T11:11:55.716Z</time>
      </trkpt>
      <trkpt lat="45.73328" lon="6.70537">
        <ele>2286</ele>
        <time>2026-07-29T11:11:56.716Z</time>
      </trkpt>
      <trkpt lat="45.73328" lon="6.70538">
        <ele>2287</ele>
        <time>2026-07-29T11:11:57.716Z</time>
      </trkpt>
      <trkpt lat="45.73329" lon="6.70539">
        <ele>2287</ele>
        <time>2026-07-29T11:11:58.716Z</time>
      </trkpt>
      <trkpt lat="45.7333" lon="6.70539">
        <ele>2288</ele>
        <time>2026-07-29T11:11:59.716Z</time>
      </trkpt>
      <trkpt lat="45.73331" lon="6.7054">
        <ele>2288</ele>
        <time>2026-07-29T11:12:00.716Z</time>
      </trkpt>
      <trkpt lat="45.73331" lon="6.70541">
        <ele>2288</ele>
        <time>2026-07-29T11:12:01.716Z</time>
      </trkpt>
      <trkpt lat="45.73332" lon="6.70542">
        <ele>2288</ele>
        <time>2026-07-29T11:12:02.716Z</time>
      </trkpt>
      <trkpt lat="45.73333" lon="6.70543">
        <ele>2288</ele>
        <time>2026-07-29T11:12:03.716Z</time>
      </trkpt>
      <trkpt lat="45.73334" lon="6.70544">
        <ele>2289</ele>
        <time>2026-07-29T11:12:04.716Z</time>
      </trkpt>
      <trkpt lat="45.73335" lon="6.70545">
        <ele>2289</ele>
        <time>2026-07-29T11:12:05.716Z</time>
      </trkpt>
      <trkpt lat="45.73336" lon="6.70546">
        <ele>2289</ele>
        <time>2026-07-29T11:12:06.716Z</time>
      </trkpt>
      <trkpt lat="45.73337" lon="6.70546">
        <ele>2289</ele>
        <time>2026-07-29T11:12:07.716Z</time>
      </trkpt>
      <trkpt lat="45.73338" lon="6.70546">
        <ele>2289</ele>
        <time>2026-07-29T11:12:08.716Z</time>
      </trkpt>
      <trkpt lat="45.73339" lon="6.70547">
        <ele>2290</ele>
        <time>2026-07-29T11:12:09.716Z</time>
      </trkpt>
      <trkpt lat="45.7334" lon="6.70547">
        <ele>2290</ele>
        <time>2026-07-29T11:12:10.716Z</time>
      </trkpt>
      <trkpt lat="45.73341" lon="6.70548">
        <ele>2290</ele>
        <time>2026-07-29T11:12:11.716Z</time>
      </trkpt>
      <trkpt lat="45.73342" lon="6.70548">
        <ele>2291</ele>
        <time>2026-07-29T11:12:12.716Z</time>
      </trkpt>
      <trkpt lat="45.73343" lon="6.70548">
        <ele>2292</ele>
        <time>2026-07-29T11:12:13.716Z</time>
      </trkpt>
      <trkpt lat="45.73344" lon="6.70548">
        <ele>2292</ele>
        <time>2026-07-29T11:12:14.716Z</time>
      </trkpt>
      <trkpt lat="45.73344" lon="6.70548">
        <ele>2292</ele>
        <time>2026-07-29T11:12:15.716Z</time>
      </trkpt>
      <trkpt lat="45.73345" lon="6.70548">
        <ele>2293</ele>
        <time>2026-07-29T11:12:16.716Z</time>
      </trkpt>
      <trkpt lat="45.73346" lon="6.70547">
        <ele>2293</ele>
        <time>2026-07-29T11:12:17.716Z</time>
      </trkpt>
      <trkpt lat="45.73347" lon="6.70546">
        <ele>2294</ele>
        <time>2026-07-29T11:12:18.716Z</time>
      </trkpt>
      <trkpt lat="45.73348" lon="6.70546">
        <ele>2294</ele>
        <time>2026-07-29T11:12:19.716Z</time>
      </trkpt>
      <trkpt lat="45.73349" lon="6.70546">
        <ele>2294</ele>
        <time>2026-07-29T11:12:20.716Z</time>
      </trkpt>
      <trkpt lat="45.7335" lon="6.70546">
        <ele>2295</ele>
        <time>2026-07-29T11:12:21.716Z</time>
      </trkpt>
      <trkpt lat="45.73351" lon="6.70546">
        <ele>2295</ele>
        <time>2026-07-29T11:12:22.716Z</time>
      </trkpt>
      <trkpt lat="45.73352" lon="6.70546">
        <ele>2295</ele>
        <time>2026-07-29T11:12:23.716Z</time>
      </trkpt>
      <trkpt lat="45.73353" lon="6.70546">
        <ele>2296</ele>
        <time>2026-07-29T11:12:24.716Z</time>
      </trkpt>
      <trkpt lat="45.73355" lon="6.70547">
        <ele>2296</ele>
        <time>2026-07-29T11:12:25.716Z</time>
      </trkpt>
      <trkpt lat="45.73356" lon="6.70547">
        <ele>2296</ele>
        <time>2026-07-29T11:12:26.716Z</time>
      </trkpt>
      <trkpt lat="45.73357" lon="6.70547">
        <ele>2296</ele>
        <time>2026-07-29T11:12:27.716Z</time>
      </trkpt>
      <trkpt lat="45.73358" lon="6.70547">
        <ele>2296</ele>
        <time>2026-07-29T11:12:28.716Z</time>
      </trkpt>
      <trkpt lat="45.73359" lon="6.70547">
        <ele>2296</ele>
        <time>2026-07-29T11:12:29.716Z</time>
      </trkpt>
      <trkpt lat="45.73359" lon="6.70547">
        <ele>2296</ele>
        <time>2026-07-29T11:12:30.716Z</time>
      </trkpt>
      <trkpt lat="45.7336" lon="6.70547">
        <ele>2296</ele>
        <time>2026-07-29T11:12:31.716Z</time>
      </trkpt>
      <trkpt lat="45.7336" lon="6.70547">
        <ele>2297</ele>
        <time>2026-07-29T11:12:32.716Z</time>
      </trkpt>
      <trkpt lat="45.7336" lon="6.70547">
        <ele>2297</ele>
        <time>2026-07-29T11:12:33.716Z</time>
      </trkpt>
      <trkpt lat="45.73361" lon="6.70547">
        <ele>2297</ele>
        <time>2026-07-29T11:12:34.716Z</time>
      </trkpt>
      <trkpt lat="45.73361" lon="6.70547">
        <ele>2297</ele>
        <time>2026-07-29T11:12:35.716Z</time>
      </trkpt>
      <trkpt lat="45.73362" lon="6.70548">
        <ele>2298</ele>
        <time>2026-07-29T11:12:36.716Z</time>
      </trkpt>
      <trkpt lat="45.73363" lon="6.70548">
        <ele>2298</ele>
        <time>2026-07-29T11:12:37.716Z</time>
      </trkpt>
      <trkpt lat="45.73364" lon="6.70549">
        <ele>2298</ele>
        <time>2026-07-29T11:12:38.716Z</time>
      </trkpt>
      <trkpt lat="45.73365" lon="6.7055">
        <ele>2299</ele>
        <time>2026-07-29T11:12:39.716Z</time>
      </trkpt>
      <trkpt lat="45.73366" lon="6.70551">
        <ele>2299</ele>
        <time>2026-07-29T11:12:40.716Z</time>
      </trkpt>
      <trkpt lat="45.73367" lon="6.70551">
        <ele>2299</ele>
        <time>2026-07-29T11:12:41.716Z</time>
      </trkpt>
      <trkpt lat="45.73368" lon="6.70551">
        <ele>2300</ele>
        <time>2026-07-29T11:12:42.716Z</time>
      </trkpt>
      <trkpt lat="45.7337" lon="6.70552">
        <ele>2300</ele>
        <time>2026-07-29T11:12:43.716Z</time>
      </trkpt>
      <trkpt lat="45.73371" lon="6.70553">
        <ele>2300</ele>
        <time>2026-07-29T11:12:44.716Z</time>
      </trkpt>
      <trkpt lat="45.73371" lon="6.70554">
        <ele>2300</ele>
        <time>2026-07-29T11:12:45.716Z</time>
      </trkpt>
      <trkpt lat="45.73372" lon="6.70555">
        <ele>2299</ele>
        <time>2026-07-29T11:12:46.716Z</time>
      </trkpt>
      <trkpt lat="45.73373" lon="6.70556">
        <ele>2299</ele>
        <time>2026-07-29T11:12:47.716Z</time>
      </trkpt>
      <trkpt lat="45.73374" lon="6.70558">
        <ele>2299</ele>
        <time>2026-07-29T11:12:48.716Z</time>
      </trkpt>
      <trkpt lat="45.73374" lon="6.70559">
        <ele>2299</ele>
        <time>2026-07-29T11:12:49.716Z</time>
      </trkpt>
      <trkpt lat="45.73375" lon="6.7056">
        <ele>2298</ele>
        <time>2026-07-29T11:12:50.716Z</time>
      </trkpt>
      <trkpt lat="45.73375" lon="6.70561">
        <ele>2298</ele>
        <time>2026-07-29T11:12:51.716Z</time>
      </trkpt>
      <trkpt lat="45.73375" lon="6.70562">
        <ele>2298</ele>
        <time>2026-07-29T11:12:52.716Z</time>
      </trkpt>
      <trkpt lat="45.73376" lon="6.70563">
        <ele>2298</ele>
        <time>2026-07-29T11:12:53.716Z</time>
      </trkpt>
      <trkpt lat="45.73377" lon="6.70564">
        <ele>2298</ele>
        <time>2026-07-29T11:12:54.716Z</time>
      </trkpt>
      <trkpt lat="45.73378" lon="6.70565">
        <ele>2298</ele>
        <time>2026-07-29T11:12:55.716Z</time>
      </trkpt>
      <trkpt lat="45.73379" lon="6.70565">
        <ele>2299</ele>
        <time>2026-07-29T11:12:56.716Z</time>
      </trkpt>
      <trkpt lat="45.7338" lon="6.70566">
        <ele>2299</ele>
        <time>2026-07-29T11:12:57.716Z</time>
      </trkpt>
      <trkpt lat="45.73381" lon="6.70567">
        <ele>2299</ele>
        <time>2026-07-29T11:12:58.716Z</time>
      </trkpt>
      <trkpt lat="45.73382" lon="6.70568">
        <ele>2299</ele>
        <time>2026-07-29T11:12:59.716Z</time>
      </trkpt>
      <trkpt lat="45.73383" lon="6.70569">
        <ele>2299</ele>
        <time>2026-07-29T11:13:00.716Z</time>
      </trkpt>
      <trkpt lat="45.73384" lon="6.7057">
        <ele>2299</ele>
        <time>2026-07-29T11:13:01.716Z</time>
      </trkpt>
      <trkpt lat="45.73384" lon="6.7057">
        <ele>2300</ele>
        <time>2026-07-29T11:13:02.716Z</time>
      </trkpt>
      <trkpt lat="45.73385" lon="6.70571">
        <ele>2300</ele>
        <time>2026-07-29T11:13:03.716Z</time>
      </trkpt>
      <trkpt lat="45.73386" lon="6.70571">
        <ele>2300</ele>
        <time>2026-07-29T11:13:04.716Z</time>
      </trkpt>
      <trkpt lat="45.73387" lon="6.70572">
        <ele>2300</ele>
        <time>2026-07-29T11:13:05.716Z</time>
      </trkpt>
      <trkpt lat="45.73388" lon="6.70572">
        <ele>2301</ele>
        <time>2026-07-29T11:13:06.716Z</time>
      </trkpt>
      <trkpt lat="45.73389" lon="6.70573">
        <ele>2301</ele>
        <time>2026-07-29T11:13:07.716Z</time>
      </trkpt>
      <trkpt lat="45.7339" lon="6.70573">
        <ele>2302</ele>
        <time>2026-07-29T11:13:08.716Z</time>
      </trkpt>
      <trkpt lat="45.73391" lon="6.70573">
        <ele>2302</ele>
        <time>2026-07-29T11:13:09.716Z</time>
      </trkpt>
      <trkpt lat="45.73392" lon="6.70574">
        <ele>2302</ele>
        <time>2026-07-29T11:13:10.716Z</time>
      </trkpt>
      <trkpt lat="45.73393" lon="6.70574">
        <ele>2303</ele>
        <time>2026-07-29T11:13:11.716Z</time>
      </trkpt>
      <trkpt lat="45.73394" lon="6.70574">
        <ele>2303</ele>
        <time>2026-07-29T11:13:12.716Z</time>
      </trkpt>
      <trkpt lat="45.73395" lon="6.70574">
        <ele>2304</ele>
        <time>2026-07-29T11:13:13.716Z</time>
      </trkpt>
      <trkpt lat="45.73396" lon="6.70574">
        <ele>2304</ele>
        <time>2026-07-29T11:13:14.716Z</time>
      </trkpt>
      <trkpt lat="45.73397" lon="6.70575">
        <ele>2304</ele>
        <time>2026-07-29T11:13:15.716Z</time>
      </trkpt>
      <trkpt lat="45.73398" lon="6.70575">
        <ele>2305</ele>
        <time>2026-07-29T11:13:16.716Z</time>
      </trkpt>
      <trkpt lat="45.73398" lon="6.70576">
        <ele>2305</ele>
        <time>2026-07-29T11:13:17.716Z</time>
      </trkpt>
      <trkpt lat="45.73399" lon="6.70576">
        <ele>2305</ele>
        <time>2026-07-29T11:13:18.716Z</time>
      </trkpt>
      <trkpt lat="45.73399" lon="6.70576">
        <ele>2305</ele>
        <time>2026-07-29T11:13:19.716Z</time>
      </trkpt>
      <trkpt lat="45.734" lon="6.70575">
        <ele>2305</ele>
        <time>2026-07-29T11:13:20.716Z</time>
      </trkpt>
      <trkpt lat="45.73401" lon="6.70575">
        <ele>2306</ele>
        <time>2026-07-29T11:13:21.716Z</time>
      </trkpt>
      <trkpt lat="45.73402" lon="6.70574">
        <ele>2306</ele>
        <time>2026-07-29T11:13:22.716Z</time>
      </trkpt>
      <trkpt lat="45.73403" lon="6.70574">
        <ele>2306</ele>
        <time>2026-07-29T11:13:23.716Z</time>
      </trkpt>
      <trkpt lat="45.73404" lon="6.70574">
        <ele>2306</ele>
        <time>2026-07-29T11:13:24.716Z</time>
      </trkpt>
      <trkpt lat="45.73405" lon="6.70574">
        <ele>2307</ele>
        <time>2026-07-29T11:13:25.716Z</time>
      </trkpt>
      <trkpt lat="45.73406" lon="6.70575">
        <ele>2307</ele>
        <time>2026-07-29T11:13:26.716Z</time>
      </trkpt>
      <trkpt lat="45.73406" lon="6.70576">
        <ele>2308</ele>
        <time>2026-07-29T11:13:27.716Z</time>
      </trkpt>
      <trkpt lat="45.73407" lon="6.70577">
        <ele>2308</ele>
        <time>2026-07-29T11:13:28.716Z</time>
      </trkpt>
      <trkpt lat="45.73407" lon="6.70578">
        <ele>2308</ele>
        <time>2026-07-29T11:13:29.716Z</time>
      </trkpt>
      <trkpt lat="45.73407" lon="6.70579">
        <ele>2308</ele>
        <time>2026-07-29T11:13:30.716Z</time>
      </trkpt>
      <trkpt lat="45.73407" lon="6.7058">
        <ele>2308</ele>
        <time>2026-07-29T11:13:31.716Z</time>
      </trkpt>
      <trkpt lat="45.73408" lon="6.70581">
        <ele>2309</ele>
        <time>2026-07-29T11:13:32.716Z</time>
      </trkpt>
      <trkpt lat="45.73408" lon="6.70583">
        <ele>2309</ele>
        <time>2026-07-29T11:13:33.716Z</time>
      </trkpt>
      <trkpt lat="45.73408" lon="6.70584">
        <ele>2309</ele>
        <time>2026-07-29T11:13:34.716Z</time>
      </trkpt>
      <trkpt lat="45.73409" lon="6.70585">
        <ele>2310</ele>
        <time>2026-07-29T11:13:35.716Z</time>
      </trkpt>
      <trkpt lat="45.73409" lon="6.70587">
        <ele>2310</ele>
        <time>2026-07-29T11:13:36.716Z</time>
      </trkpt>
      <trkpt lat="45.73409" lon="6.70588">
        <ele>2310</ele>
        <time>2026-07-29T11:13:37.716Z</time>
      </trkpt>
      <trkpt lat="45.7341" lon="6.70588">
        <ele>2310</ele>
        <time>2026-07-29T11:13:38.716Z</time>
      </trkpt>
      <trkpt lat="45.73411" lon="6.70589">
        <ele>2310</ele>
        <time>2026-07-29T11:13:39.716Z</time>
      </trkpt>
      <trkpt lat="45.73412" lon="6.7059">
        <ele>2310</ele>
        <time>2026-07-29T11:13:40.716Z</time>
      </trkpt>
      <trkpt lat="45.73412" lon="6.70592">
        <ele>2310</ele>
        <time>2026-07-29T11:13:41.716Z</time>
      </trkpt>
      <trkpt lat="45.73413" lon="6.70592">
        <ele>2310</ele>
        <time>2026-07-29T11:13:42.716Z</time>
      </trkpt>
      <trkpt lat="45.73414" lon="6.70593">
        <ele>2310</ele>
        <time>2026-07-29T11:13:43.716Z</time>
      </trkpt>
      <trkpt lat="45.73415" lon="6.70594">
        <ele>2310</ele>
        <time>2026-07-29T11:13:44.716Z</time>
      </trkpt>
      <trkpt lat="45.73415" lon="6.70596">
        <ele>2310</ele>
        <time>2026-07-29T11:13:45.716Z</time>
      </trkpt>
      <trkpt lat="45.73416" lon="6.70597">
        <ele>2310</ele>
        <time>2026-07-29T11:13:46.716Z</time>
      </trkpt>
      <trkpt lat="45.73417" lon="6.70598">
        <ele>2310</ele>
        <time>2026-07-29T11:13:47.716Z</time>
      </trkpt>
      <trkpt lat="45.73417" lon="6.70599">
        <ele>2311</ele>
        <time>2026-07-29T11:13:48.716Z</time>
      </trkpt>
      <trkpt lat="45.73418" lon="6.70601">
        <ele>2311</ele>
        <time>2026-07-29T11:13:49.716Z</time>
      </trkpt>
      <trkpt lat="45.73419" lon="6.70601">
        <ele>2311</ele>
        <time>2026-07-29T11:13:50.716Z</time>
      </trkpt>
      <trkpt lat="45.73419" lon="6.70602">
        <ele>2312</ele>
        <time>2026-07-29T11:13:51.716Z</time>
      </trkpt>
      <trkpt lat="45.7342" lon="6.70602">
        <ele>2312</ele>
        <time>2026-07-29T11:13:52.716Z</time>
      </trkpt>
      <trkpt lat="45.73421" lon="6.70603">
        <ele>2312</ele>
        <time>2026-07-29T11:13:53.716Z</time>
      </trkpt>
      <trkpt lat="45.73422" lon="6.70603">
        <ele>2313</ele>
        <time>2026-07-29T11:13:54.716Z</time>
      </trkpt>
      <trkpt lat="45.73423" lon="6.70603">
        <ele>2313</ele>
        <time>2026-07-29T11:13:55.716Z</time>
      </trkpt>
      <trkpt lat="45.73424" lon="6.70603">
        <ele>2313</ele>
        <time>2026-07-29T11:13:56.716Z</time>
      </trkpt>
      <trkpt lat="45.73425" lon="6.70604">
        <ele>2313</ele>
        <time>2026-07-29T11:13:57.716Z</time>
      </trkpt>
      <trkpt lat="45.73426" lon="6.70604">
        <ele>2313</ele>
        <time>2026-07-29T11:13:58.716Z</time>
      </trkpt>
      <trkpt lat="45.73426" lon="6.70605">
        <ele>2314</ele>
        <time>2026-07-29T11:13:59.716Z</time>
      </trkpt>
      <trkpt lat="45.73427" lon="6.70606">
        <ele>2314</ele>
        <time>2026-07-29T11:14:00.716Z</time>
      </trkpt>
      <trkpt lat="45.73428" lon="6.70607">
        <ele>2315</ele>
        <time>2026-07-29T11:14:01.716Z</time>
      </trkpt>
      <trkpt lat="45.73429" lon="6.70608">
        <ele>2315</ele>
        <time>2026-07-29T11:14:02.716Z</time>
      </trkpt>
      <trkpt lat="45.73429" lon="6.70609">
        <ele>2315</ele>
        <time>2026-07-29T11:14:03.716Z</time>
      </trkpt>
      <trkpt lat="45.7343" lon="6.7061">
        <ele>2315</ele>
        <time>2026-07-29T11:14:04.716Z</time>
      </trkpt>
      <trkpt lat="45.73431" lon="6.70612">
        <ele>2315</ele>
        <time>2026-07-29T11:14:05.716Z</time>
      </trkpt>
      <trkpt lat="45.73432" lon="6.70612">
        <ele>2315</ele>
        <time>2026-07-29T11:14:06.716Z</time>
      </trkpt>
      <trkpt lat="45.73432" lon="6.70613">
        <ele>2315</ele>
        <time>2026-07-29T11:14:07.716Z</time>
      </trkpt>
      <trkpt lat="45.73433" lon="6.70614">
        <ele>2315</ele>
        <time>2026-07-29T11:14:08.716Z</time>
      </trkpt>
      <trkpt lat="45.73434" lon="6.70615">
        <ele>2315</ele>
        <time>2026-07-29T11:14:09.716Z</time>
      </trkpt>
      <trkpt lat="45.73435" lon="6.70616">
        <ele>2316</ele>
        <time>2026-07-29T11:14:10.716Z</time>
      </trkpt>
      <trkpt lat="45.73436" lon="6.70616">
        <ele>2316</ele>
        <time>2026-07-29T11:14:11.716Z</time>
      </trkpt>
      <trkpt lat="45.73437" lon="6.70617">
        <ele>2316</ele>
        <time>2026-07-29T11:14:12.716Z</time>
      </trkpt>
      <trkpt lat="45.73439" lon="6.70617">
        <ele>2316</ele>
        <time>2026-07-29T11:14:13.716Z</time>
      </trkpt>
      <trkpt lat="45.73439" lon="6.70618">
        <ele>2316</ele>
        <time>2026-07-29T11:14:14.716Z</time>
      </trkpt>
      <trkpt lat="45.7344" lon="6.70619">
        <ele>2316</ele>
        <time>2026-07-29T11:14:15.716Z</time>
      </trkpt>
      <trkpt lat="45.73441" lon="6.7062">
        <ele>2317</ele>
        <time>2026-07-29T11:14:16.716Z</time>
      </trkpt>
      <trkpt lat="45.73442" lon="6.70621">
        <ele>2317</ele>
        <time>2026-07-29T11:14:17.716Z</time>
      </trkpt>
      <trkpt lat="45.73443" lon="6.70621">
        <ele>2317</ele>
        <time>2026-07-29T11:14:18.716Z</time>
      </trkpt>
      <trkpt lat="45.73444" lon="6.70622">
        <ele>2317</ele>
        <time>2026-07-29T11:14:19.716Z</time>
      </trkpt>
      <trkpt lat="45.73445" lon="6.70622">
        <ele>2317</ele>
        <time>2026-07-29T11:14:20.716Z</time>
      </trkpt>
      <trkpt lat="45.73445" lon="6.70622">
        <ele>2318</ele>
        <time>2026-07-29T11:14:21.716Z</time>
      </trkpt>
      <trkpt lat="45.73446" lon="6.70623">
        <ele>2318</ele>
        <time>2026-07-29T11:14:22.716Z</time>
      </trkpt>
      <trkpt lat="45.73447" lon="6.70623">
        <ele>2318</ele>
        <time>2026-07-29T11:14:23.716Z</time>
      </trkpt>
      <trkpt lat="45.73448" lon="6.70624">
        <ele>2318</ele>
        <time>2026-07-29T11:14:24.716Z</time>
      </trkpt>
      <trkpt lat="45.73449" lon="6.70625">
        <ele>2319</ele>
        <time>2026-07-29T11:14:25.716Z</time>
      </trkpt>
      <trkpt lat="45.7345" lon="6.70625">
        <ele>2319</ele>
        <time>2026-07-29T11:14:26.716Z</time>
      </trkpt>
      <trkpt lat="45.73451" lon="6.70626">
        <ele>2319</ele>
        <time>2026-07-29T11:14:27.716Z</time>
      </trkpt>
      <trkpt lat="45.73452" lon="6.70627">
        <ele>2318</ele>
        <time>2026-07-29T11:14:28.716Z</time>
      </trkpt>
      <trkpt lat="45.73453" lon="6.70627">
        <ele>2318</ele>
        <time>2026-07-29T11:14:29.716Z</time>
      </trkpt>
      <trkpt lat="45.73454" lon="6.70628">
        <ele>2319</ele>
        <time>2026-07-29T11:14:30.716Z</time>
      </trkpt>
      <trkpt lat="45.73455" lon="6.70628">
        <ele>2319</ele>
        <time>2026-07-29T11:14:31.716Z</time>
      </trkpt>
      <trkpt lat="45.73456" lon="6.70628">
        <ele>2319</ele>
        <time>2026-07-29T11:14:32.716Z</time>
      </trkpt>
      <trkpt lat="45.73457" lon="6.70628">
        <ele>2319</ele>
        <time>2026-07-29T11:14:33.716Z</time>
      </trkpt>
      <trkpt lat="45.73458" lon="6.70629">
        <ele>2320</ele>
        <time>2026-07-29T11:14:34.716Z</time>
      </trkpt>
      <trkpt lat="45.73459" lon="6.70629">
        <ele>2320</ele>
        <time>2026-07-29T11:14:35.716Z</time>
      </trkpt>
      <trkpt lat="45.7346" lon="6.7063">
        <ele>2320</ele>
        <time>2026-07-29T11:14:36.716Z</time>
      </trkpt>
      <trkpt lat="45.73461" lon="6.7063">
        <ele>2320</ele>
        <time>2026-07-29T11:14:37.716Z</time>
      </trkpt>
      <trkpt lat="45.73462" lon="6.70631">
        <ele>2320</ele>
        <time>2026-07-29T11:14:38.716Z</time>
      </trkpt>
      <trkpt lat="45.73463" lon="6.70631">
        <ele>2320</ele>
        <time>2026-07-29T11:14:39.716Z</time>
      </trkpt>
      <trkpt lat="45.73463" lon="6.70632">
        <ele>2321</ele>
        <time>2026-07-29T11:14:40.716Z</time>
      </trkpt>
      <trkpt lat="45.73464" lon="6.70632">
        <ele>2321</ele>
        <time>2026-07-29T11:14:41.716Z</time>
      </trkpt>
      <trkpt lat="45.73465" lon="6.70633">
        <ele>2321</ele>
        <time>2026-07-29T11:14:42.716Z</time>
      </trkpt>
      <trkpt lat="45.73466" lon="6.70633">
        <ele>2322</ele>
        <time>2026-07-29T11:14:43.716Z</time>
      </trkpt>
      <trkpt lat="45.73467" lon="6.70634">
        <ele>2322</ele>
        <time>2026-07-29T11:14:44.716Z</time>
      </trkpt>
      <trkpt lat="45.73468" lon="6.70635">
        <ele>2322</ele>
        <time>2026-07-29T11:14:45.716Z</time>
      </trkpt>
      <trkpt lat="45.73468" lon="6.70636">
        <ele>2323</ele>
        <time>2026-07-29T11:14:46.716Z</time>
      </trkpt>
      <trkpt lat="45.73469" lon="6.70637">
        <ele>2323</ele>
        <time>2026-07-29T11:14:47.716Z</time>
      </trkpt>
      <trkpt lat="45.73469" lon="6.70637">
        <ele>2323</ele>
        <time>2026-07-29T11:14:48.716Z</time>
      </trkpt>
      <trkpt lat="45.7347" lon="6.70638">
        <ele>2323</ele>
        <time>2026-07-29T11:14:49.716Z</time>
      </trkpt>
      <trkpt lat="45.7347" lon="6.70638">
        <ele>2323</ele>
        <time>2026-07-29T11:14:50.716Z</time>
      </trkpt>
      <trkpt lat="45.73471" lon="6.70639">
        <ele>2324</ele>
        <time>2026-07-29T11:14:51.716Z</time>
      </trkpt>
      <trkpt lat="45.73472" lon="6.70639">
        <ele>2324</ele>
        <time>2026-07-29T11:14:52.716Z</time>
      </trkpt>
      <trkpt lat="45.73473" lon="6.7064">
        <ele>2324</ele>
        <time>2026-07-29T11:14:53.716Z</time>
      </trkpt>
      <trkpt lat="45.73474" lon="6.7064">
        <ele>2325</ele>
        <time>2026-07-29T11:14:54.716Z</time>
      </trkpt>
      <trkpt lat="45.73475" lon="6.70641">
        <ele>2325</ele>
        <time>2026-07-29T11:14:55.716Z</time>
      </trkpt>
      <trkpt lat="45.73476" lon="6.70641">
        <ele>2325</ele>
        <time>2026-07-29T11:14:56.716Z</time>
      </trkpt>
      <trkpt lat="45.73477" lon="6.70642">
        <ele>2325</ele>
        <time>2026-07-29T11:14:57.716Z</time>
      </trkpt>
      <trkpt lat="45.73477" lon="6.70642">
        <ele>2326</ele>
        <time>2026-07-29T11:14:58.716Z</time>
      </trkpt>
      <trkpt lat="45.73478" lon="6.70642">
        <ele>2326</ele>
        <time>2026-07-29T11:14:59.716Z</time>
      </trkpt>
      <trkpt lat="45.73479" lon="6.70643">
        <ele>2326</ele>
        <time>2026-07-29T11:15:00.716Z</time>
      </trkpt>
      <trkpt lat="45.7348" lon="6.70644">
        <ele>2326</ele>
        <time>2026-07-29T11:15:01.716Z</time>
      </trkpt>
      <trkpt lat="45.73481" lon="6.70644">
        <ele>2326</ele>
        <time>2026-07-29T11:15:02.716Z</time>
      </trkpt>
      <trkpt lat="45.73482" lon="6.70645">
        <ele>2327</ele>
        <time>2026-07-29T11:15:03.716Z</time>
      </trkpt>
      <trkpt lat="45.73482" lon="6.70645">
        <ele>2327</ele>
        <time>2026-07-29T11:15:04.716Z</time>
      </trkpt>
      <trkpt lat="45.73482" lon="6.70646">
        <ele>2327</ele>
        <time>2026-07-29T11:15:05.716Z</time>
      </trkpt>
      <trkpt lat="45.73483" lon="6.70646">
        <ele>2327</ele>
        <time>2026-07-29T11:15:06.716Z</time>
      </trkpt>
      <trkpt lat="45.73483" lon="6.70647">
        <ele>2327</ele>
        <time>2026-07-29T11:15:07.716Z</time>
      </trkpt>
      <trkpt lat="45.73483" lon="6.70647">
        <ele>2327</ele>
        <time>2026-07-29T11:15:08.716Z</time>
      </trkpt>
      <trkpt lat="45.73483" lon="6.70647">
        <ele>2328</ele>
        <time>2026-07-29T11:15:09.716Z</time>
      </trkpt>
      <trkpt lat="45.73483" lon="6.70646">
        <ele>2328</ele>
        <time>2026-07-29T11:15:10.716Z</time>
      </trkpt>
      <trkpt lat="45.73483" lon="6.70647">
        <ele>2329</ele>
        <time>2026-07-29T11:15:11.716Z</time>
      </trkpt>
      <trkpt lat="45.73483" lon="6.70647">
        <ele>2330</ele>
        <time>2026-07-29T11:15:12.716Z</time>
      </trkpt>
      <trkpt lat="45.73483" lon="6.70647">
        <ele>2330</ele>
        <time>2026-07-29T11:15:13.716Z</time>
      </trkpt>
      <trkpt lat="45.73483" lon="6.70647">
        <ele>2331</ele>
        <time>2026-07-29T11:15:14.716Z</time>
      </trkpt>
      <trkpt lat="45.73483" lon="6.70647">
        <ele>2331</ele>
        <time>2026-07-29T11:15:15.716Z</time>
      </trkpt>
      <trkpt lat="45.73483" lon="6.70647">
        <ele>2331</ele>
        <time>2026-07-29T11:15:16.716Z</time>
      </trkpt>
      <trkpt lat="45.73483" lon="6.70647">
        <ele>2331</ele>
        <time>2026-07-29T11:15:17.716Z</time>
      </trkpt>
      <trkpt lat="45.73483" lon="6.70647">
        <ele>2331</ele>
        <time>2026-07-29T11:15:18.716Z</time>
      </trkpt>
      <trkpt lat="45.73483" lon="6.70647">
        <ele>2331</ele>
        <time>2026-07-29T11:15:19.716Z</time>
      </trkpt>
      <trkpt lat="45.73483" lon="6.70647">
        <ele>2331</ele>
        <time>2026-07-29T11:15:20.716Z</time>
      </trkpt>
      <trkpt lat="45.73483" lon="6.70647">
        <ele>2331</ele>
        <time>2026-07-29T11:15:21.716Z</time>
      </trkpt>
      <trkpt lat="45.73483" lon="6.70647">
        <ele>2331</ele>
        <time>2026-07-29T11:15:22.716Z</time>
      </trkpt>
      <trkpt lat="45.73483" lon="6.70647">
        <ele>2331</ele>
        <time>2026-07-29T11:15:23.716Z</time>
      </trkpt>
      <trkpt lat="45.73483" lon="6.70647">
        <ele>2331</ele>
        <time>2026-07-29T11:15:24.716Z</time>
      </trkpt>
      <trkpt lat="45.73483" lon="6.70647">
        <ele>2331</ele>
        <time>2026-07-29T11:15:25.716Z</time>
      </trkpt>
      <trkpt lat="45.73483" lon="6.70647">
        <ele>2331</ele>
        <time>2026-07-29T11:15:26.716Z</time>
      </trkpt>
      <trkpt lat="45.73483" lon="6.70647">
        <ele>2331</ele>
        <time>2026-07-29T11:15:27.716Z</time>
      </trkpt>
      <trkpt lat="45.73483" lon="6.70647">
        <ele>2331</ele>
        <time>2026-07-29T11:15:28.716Z</time>
      </trkpt>
      <trkpt lat="45.73485" lon="6.70648">
        <ele>2331</ele>
        <time>2026-07-29T11:15:29.716Z</time>
      </trkpt>
      <trkpt lat="45.73486" lon="6.70649">
        <ele>2331</ele>
        <time>2026-07-29T11:15:30.716Z</time>
      </trkpt>
      <trkpt lat="45.73487" lon="6.7065">
        <ele>2331</ele>
        <time>2026-07-29T11:15:31.716Z</time>
      </trkpt>
      <trkpt lat="45.73488" lon="6.70651">
        <ele>2331</ele>
        <time>2026-07-29T11:15:32.716Z</time>
      </trkpt>
      <trkpt lat="45.73489" lon="6.70652">
        <ele>2331</ele>
        <time>2026-07-29T11:15:33.716Z</time>
      </trkpt>
      <trkpt lat="45.73489" lon="6.70654">
        <ele>2330</ele>
        <time>2026-07-29T11:15:34.716Z</time>
      </trkpt>
      <trkpt lat="45.7349" lon="6.70656">
        <ele>2330</ele>
        <time>2026-07-29T11:15:35.716Z</time>
      </trkpt>
      <trkpt lat="45.73491" lon="6.70657">
        <ele>2330</ele>
        <time>2026-07-29T11:15:36.716Z</time>
      </trkpt>
      <trkpt lat="45.73492" lon="6.70659">
        <ele>2330</ele>
        <time>2026-07-29T11:15:37.716Z</time>
      </trkpt>
      <trkpt lat="45.73493" lon="6.7066">
        <ele>2330</ele>
        <time>2026-07-29T11:15:38.716Z</time>
      </trkpt>
      <trkpt lat="45.73494" lon="6.70661">
        <ele>2330</ele>
        <time>2026-07-29T11:15:39.716Z</time>
      </trkpt>
      <trkpt lat="45.73494" lon="6.70662">
        <ele>2330</ele>
        <time>2026-07-29T11:15:40.716Z</time>
      </trkpt>
      <trkpt lat="45.73495" lon="6.70663">
        <ele>2330</ele>
        <time>2026-07-29T11:15:41.716Z</time>
      </trkpt>
      <trkpt lat="45.73495" lon="6.70664">
        <ele>2330</ele>
        <time>2026-07-29T11:15:42.716Z</time>
      </trkpt>
      <trkpt lat="45.73496" lon="6.70664">
        <ele>2330</ele>
        <time>2026-07-29T11:15:43.716Z</time>
      </trkpt>
      <trkpt lat="45.73496" lon="6.70664">
        <ele>2330</ele>
        <time>2026-07-29T11:15:44.716Z</time>
      </trkpt>
      <trkpt lat="45.73497" lon="6.70664">
        <ele>2330</ele>
        <time>2026-07-29T11:15:45.716Z</time>
      </trkpt>
      <trkpt lat="45.73498" lon="6.70663">
        <ele>2331</ele>
        <time>2026-07-29T11:15:46.716Z</time>
      </trkpt>
      <trkpt lat="45.73499" lon="6.70663">
        <ele>2331</ele>
        <time>2026-07-29T11:15:47.716Z</time>
      </trkpt>
      <trkpt lat="45.73499" lon="6.70662">
        <ele>2332</ele>
        <time>2026-07-29T11:15:48.716Z</time>
      </trkpt>
      <trkpt lat="45.735" lon="6.70661">
        <ele>2332</ele>
        <time>2026-07-29T11:15:49.716Z</time>
      </trkpt>
      <trkpt lat="45.735" lon="6.70659">
        <ele>2333</ele>
        <time>2026-07-29T11:15:50.716Z</time>
      </trkpt>
      <trkpt lat="45.73501" lon="6.70658">
        <ele>2333</ele>
        <time>2026-07-29T11:15:51.716Z</time>
      </trkpt>
      <trkpt lat="45.73502" lon="6.70657">
        <ele>2333</ele>
        <time>2026-07-29T11:15:52.716Z</time>
      </trkpt>
      <trkpt lat="45.73502" lon="6.70657">
        <ele>2334</ele>
        <time>2026-07-29T11:15:53.716Z</time>
      </trkpt>
      <trkpt lat="45.73503" lon="6.70656">
        <ele>2334</ele>
        <time>2026-07-29T11:15:54.716Z</time>
      </trkpt>
      <trkpt lat="45.73503" lon="6.70656">
        <ele>2334</ele>
        <time>2026-07-29T11:15:55.716Z</time>
      </trkpt>
      <trkpt lat="45.73504" lon="6.70656">
        <ele>2334</ele>
        <time>2026-07-29T11:15:56.716Z</time>
      </trkpt>
      <trkpt lat="45.73504" lon="6.70656">
        <ele>2334</ele>
        <time>2026-07-29T11:15:57.716Z</time>
      </trkpt>
      <trkpt lat="45.73505" lon="6.70657">
        <ele>2334</ele>
        <time>2026-07-29T11:15:58.716Z</time>
      </trkpt>
      <trkpt lat="45.73505" lon="6.70657">
        <ele>2334</ele>
        <time>2026-07-29T11:15:59.716Z</time>
      </trkpt>
      <trkpt lat="45.73505" lon="6.70657">
        <ele>2334</ele>
        <time>2026-07-29T11:16:00.716Z</time>
      </trkpt>
      <trkpt lat="45.73505" lon="6.70657">
        <ele>2333</ele>
        <time>2026-07-29T11:16:01.716Z</time>
      </trkpt>
      <trkpt lat="45.73505" lon="6.70657">
        <ele>2333</ele>
        <time>2026-07-29T11:16:02.716Z</time>
      </trkpt>
      <trkpt lat="45.73505" lon="6.70657">
        <ele>2333</ele>
        <time>2026-07-29T11:16:03.716Z</time>
      </trkpt>
      <trkpt lat="45.73505" lon="6.70656">
        <ele>2333</ele>
        <time>2026-07-29T11:16:04.716Z</time>
      </trkpt>
      <trkpt lat="45.73506" lon="6.70656">
        <ele>2333</ele>
        <time>2026-07-29T11:16:05.716Z</time>
      </trkpt>
      <trkpt lat="45.73506" lon="6.70655">
        <ele>2333</ele>
        <time>2026-07-29T11:16:06.716Z</time>
      </trkpt>
      <trkpt lat="45.73507" lon="6.70655">
        <ele>2333</ele>
        <time>2026-07-29T11:16:07.716Z</time>
      </trkpt>
      <trkpt lat="45.73508" lon="6.70655">
        <ele>2333</ele>
        <time>2026-07-29T11:16:08.716Z</time>
      </trkpt>
      <trkpt lat="45.73508" lon="6.70655">
        <ele>2333</ele>
        <time>2026-07-29T11:16:09.716Z</time>
      </trkpt>
      <trkpt lat="45.73508" lon="6.70655">
        <ele>2333</ele>
        <time>2026-07-29T11:16:10.716Z</time>
      </trkpt>
      <trkpt lat="45.73508" lon="6.70655">
        <ele>2333</ele>
        <time>2026-07-29T11:16:11.716Z</time>
      </trkpt>
      <trkpt lat="45.73508" lon="6.70655">
        <ele>2333</ele>
        <time>2026-07-29T11:16:12.716Z</time>
      </trkpt>
      <trkpt lat="45.73508" lon="6.70655">
        <ele>2332</ele>
        <time>2026-07-29T11:16:13.716Z</time>
      </trkpt>
      <trkpt lat="45.73508" lon="6.70655">
        <ele>2332</ele>
        <time>2026-07-29T11:16:14.716Z</time>
      </trkpt>
      <trkpt lat="45.73508" lon="6.70655">
        <ele>2331</ele>
        <time>2026-07-29T11:16:15.716Z</time>
      </trkpt>
      <trkpt lat="45.73508" lon="6.70654">
        <ele>2331</ele>
        <time>2026-07-29T11:16:16.716Z</time>
      </trkpt>
      <trkpt lat="45.73508" lon="6.70654">
        <ele>2330</ele>
        <time>2026-07-29T11:16:17.716Z</time>
      </trkpt>
      <trkpt lat="45.73508" lon="6.70654">
        <ele>2330</ele>
        <time>2026-07-29T11:16:18.716Z</time>
      </trkpt>
      <trkpt lat="45.73508" lon="6.70654">
        <ele>2330</ele>
        <time>2026-07-29T11:16:19.716Z</time>
      </trkpt>
      <trkpt lat="45.73508" lon="6.70654">
        <ele>2330</ele>
        <time>2026-07-29T11:16:20.716Z</time>
      </trkpt>
      <trkpt lat="45.73508" lon="6.70654">
        <ele>2330</ele>
        <time>2026-07-29T11:16:21.716Z</time>
      </trkpt>
      <trkpt lat="45.73508" lon="6.70654">
        <ele>2330</ele>
        <time>2026-07-29T11:16:22.716Z</time>
      </trkpt>
      <trkpt lat="45.73508" lon="6.70654">
        <ele>2330</ele>
        <time>2026-07-29T11:16:23.716Z</time>
      </trkpt>
      <trkpt lat="45.73508" lon="6.70654">
        <ele>2330</ele>
        <time>2026-07-29T11:16:24.716Z</time>
      </trkpt>
      <trkpt lat="45.73508" lon="6.70654">
        <ele>2330</ele>
        <time>2026-07-29T11:16:25.716Z</time>
      </trkpt>
      <trkpt lat="45.73508" lon="6.70654">
        <ele>2330</ele>
        <time>2026-07-29T11:16:26.716Z</time>
      </trkpt>
      <trkpt lat="45.73508" lon="6.70654">
        <ele>2331</ele>
        <time>2026-07-29T11:16:27.716Z</time>
      </trkpt>
      <trkpt lat="45.73508" lon="6.70654">
        <ele>2331</ele>
        <time>2026-07-29T11:16:28.716Z</time>
      </trkpt>
      <trkpt lat="45.73508" lon="6.70654">
        <ele>2331</ele>
        <time>2026-07-29T11:16:29.716Z</time>
      </trkpt>
      <trkpt lat="45.73508" lon="6.70654">
        <ele>2331</ele>
        <time>2026-07-29T11:16:30.716Z</time>
      </trkpt>
      <trkpt lat="45.73508" lon="6.70654">
        <ele>2331</ele>
        <time>2026-07-29T11:16:31.716Z</time>
      </trkpt>
      <trkpt lat="45.73508" lon="6.70654">
        <ele>2331</ele>
        <time>2026-07-29T11:16:32.716Z</time>
      </trkpt>
      <trkpt lat="45.73508" lon="6.70654">
        <ele>2331</ele>
        <time>2026-07-29T11:16:33.716Z</time>
      </trkpt>
      <trkpt lat="45.73508" lon="6.70654">
        <ele>2331</ele>
        <time>2026-07-29T11:16:34.716Z</time>
      </trkpt>
      <trkpt lat="45.73508" lon="6.70654">
        <ele>2331</ele>
        <time>2026-07-29T11:16:35.716Z</time>
      </trkpt>
      <trkpt lat="45.73508" lon="6.70654">
        <ele>2332</ele>
        <time>2026-07-29T11:16:36.716Z</time>
      </trkpt>
      <trkpt lat="45.73508" lon="6.70654">
        <ele>2332</ele>
        <time>2026-07-29T11:16:37.716Z</time>
      </trkpt>
      <trkpt lat="45.73508" lon="6.70654">
        <ele>2332</ele>
        <time>2026-07-29T11:16:38.716Z</time>
      </trkpt>
      <trkpt lat="45.73508" lon="6.70654">
        <ele>2332</ele>
        <time>2026-07-29T11:16:39.716Z</time>
      </trkpt>
      <trkpt lat="45.73508" lon="6.70654">
        <ele>2332</ele>
        <time>2026-07-29T11:16:40.716Z</time>
      </trkpt>
      <trkpt lat="45.73508" lon="6.70654">
        <ele>2332</ele>
        <time>2026-07-29T11:16:41.716Z</time>
      </trkpt>
      <trkpt lat="45.73508" lon="6.70654">
        <ele>2332</ele>
        <time>2026-07-29T11:16:42.716Z</time>
      </trkpt>
      <trkpt lat="45.73508" lon="6.70654">
        <ele>2332</ele>
        <time>2026-07-29T11:16:43.716Z</time>
      </trkpt>
      <trkpt lat="45.73508" lon="6.70654">
        <ele>2332</ele>
        <time>2026-07-29T11:16:44.716Z</time>
      </trkpt>
      <trkpt lat="45.73508" lon="6.70654">
        <ele>2332</ele>
        <time>2026-07-29T11:16:45.716Z</time>
      </trkpt>
      <trkpt lat="45.73508" lon="6.70654">
        <ele>2332</ele>
        <time>2026-07-29T11:16:46.716Z</time>
      </trkpt>
      <trkpt lat="45.73508" lon="6.70654">
        <ele>2332</ele>
        <time>2026-07-29T11:16:47.716Z</time>
      </trkpt>
      <trkpt lat="45.73509" lon="6.70653">
        <ele>2332</ele>
        <time>2026-07-29T11:16:48.716Z</time>
      </trkpt>
      <trkpt lat="45.73509" lon="6.70651">
        <ele>2332</ele>
        <time>2026-07-29T11:16:49.716Z</time>
      </trkpt>
      <trkpt lat="45.73509" lon="6.7065">
        <ele>2332</ele>
        <time>2026-07-29T11:16:50.716Z</time>
      </trkpt>
      <trkpt lat="45.7351" lon="6.70649">
        <ele>2332</ele>
        <time>2026-07-29T11:16:51.716Z</time>
      </trkpt>
      <trkpt lat="45.7351" lon="6.70648">
        <ele>2332</ele>
        <time>2026-07-29T11:16:52.716Z</time>
      </trkpt>
      <trkpt lat="45.73511" lon="6.70647">
        <ele>2332</ele>
        <time>2026-07-29T11:16:53.716Z</time>
      </trkpt>
      <trkpt lat="45.73511" lon="6.70647">
        <ele>2332</ele>
        <time>2026-07-29T11:16:54.716Z</time>
      </trkpt>
      <trkpt lat="45.73512" lon="6.70646">
        <ele>2333</ele>
        <time>2026-07-29T11:16:55.716Z</time>
      </trkpt>
      <trkpt lat="45.73512" lon="6.70646">
        <ele>2333</ele>
        <time>2026-07-29T11:16:56.716Z</time>
      </trkpt>
      <trkpt lat="45.73512" lon="6.70645">
        <ele>2334</ele>
        <time>2026-07-29T11:16:57.716Z</time>
      </trkpt>
      <trkpt lat="45.73513" lon="6.70644">
        <ele>2334</ele>
        <time>2026-07-29T11:16:58.716Z</time>
      </trkpt>
      <trkpt lat="45.73513" lon="6.70644">
        <ele>2334</ele>
        <time>2026-07-29T11:16:59.716Z</time>
      </trkpt>
      <trkpt lat="45.73513" lon="6.70643">
        <ele>2334</ele>
        <time>2026-07-29T11:17:00.716Z</time>
      </trkpt>
      <trkpt lat="45.73514" lon="6.70642">
        <ele>2335</ele>
        <time>2026-07-29T11:17:01.716Z</time>
      </trkpt>
      <trkpt lat="45.73514" lon="6.70642">
        <ele>2335</ele>
        <time>2026-07-29T11:17:02.716Z</time>
      </trkpt>
      <trkpt lat="45.73515" lon="6.70643">
        <ele>2335</ele>
        <time>2026-07-29T11:17:03.716Z</time>
      </trkpt>
      <trkpt lat="45.73514" lon="6.70644">
        <ele>2336</ele>
        <time>2026-07-29T11:17:04.716Z</time>
      </trkpt>
      <trkpt lat="45.73514" lon="6.70645">
        <ele>2335</ele>
        <time>2026-07-29T11:17:05.716Z</time>
      </trkpt>
      <trkpt lat="45.73513" lon="6.70646">
        <ele>2335</ele>
        <time>2026-07-29T11:17:06.716Z</time>
      </trkpt>
      <trkpt lat="45.73513" lon="6.70647">
        <ele>2335</ele>
        <time>2026-07-29T11:17:07.716Z</time>
      </trkpt>
      <trkpt lat="45.73512" lon="6.70649">
        <ele>2335</ele>
        <time>2026-07-29T11:17:08.716Z</time>
      </trkpt>
      <trkpt lat="45.73512" lon="6.7065">
        <ele>2336</ele>
        <time>2026-07-29T11:17:09.716Z</time>
      </trkpt>
      <trkpt lat="45.73511" lon="6.70651">
        <ele>2336</ele>
        <time>2026-07-29T11:17:10.716Z</time>
      </trkpt>
      <trkpt lat="45.7351" lon="6.70653">
        <ele>2336</ele>
        <time>2026-07-29T11:17:11.716Z</time>
      </trkpt>
      <trkpt lat="45.7351" lon="6.70655">
        <ele>2336</ele>
        <time>2026-07-29T11:17:12.716Z</time>
      </trkpt>
      <trkpt lat="45.73509" lon="6.70657">
        <ele>2336</ele>
        <time>2026-07-29T11:17:13.716Z</time>
      </trkpt>
      <trkpt lat="45.73509" lon="6.7066">
        <ele>2336</ele>
        <time>2026-07-29T11:17:14.716Z</time>
      </trkpt>
      <trkpt lat="45.73508" lon="6.70662">
        <ele>2336</ele>
        <time>2026-07-29T11:17:15.716Z</time>
      </trkpt>
      <trkpt lat="45.73508" lon="6.70665">
        <ele>2336</ele>
        <time>2026-07-29T11:17:16.716Z</time>
      </trkpt>
      <trkpt lat="45.73507" lon="6.70667">
        <ele>2336</ele>
        <time>2026-07-29T11:17:17.716Z</time>
      </trkpt>
      <trkpt lat="45.73506" lon="6.70669">
        <ele>2336</ele>
        <time>2026-07-29T11:17:18.716Z</time>
      </trkpt>
      <trkpt lat="45.73506" lon="6.70672">
        <ele>2335</ele>
        <time>2026-07-29T11:17:19.716Z</time>
      </trkpt>
      <trkpt lat="45.73505" lon="6.70675">
        <ele>2335</ele>
        <time>2026-07-29T11:17:20.716Z</time>
      </trkpt>
      <trkpt lat="45.73505" lon="6.70677">
        <ele>2335</ele>
        <time>2026-07-29T11:17:21.716Z</time>
      </trkpt>
      <trkpt lat="45.73506" lon="6.7068">
        <ele>2335</ele>
        <time>2026-07-29T11:17:22.716Z</time>
      </trkpt>
      <trkpt lat="45.73506" lon="6.70682">
        <ele>2334</ele>
        <time>2026-07-29T11:17:23.716Z</time>
      </trkpt>
      <trkpt lat="45.73506" lon="6.70684">
        <ele>2334</ele>
        <time>2026-07-29T11:17:24.716Z</time>
      </trkpt>
      <trkpt lat="45.73506" lon="6.70686">
        <ele>2334</ele>
        <time>2026-07-29T11:17:25.716Z</time>
      </trkpt>
      <trkpt lat="45.73506" lon="6.70688">
        <ele>2334</ele>
        <time>2026-07-29T11:17:26.716Z</time>
      </trkpt>
      <trkpt lat="45.73506" lon="6.7069">
        <ele>2334</ele>
        <time>2026-07-29T11:17:27.716Z</time>
      </trkpt>
      <trkpt lat="45.73505" lon="6.70692">
        <ele>2334</ele>
        <time>2026-07-29T11:17:28.716Z</time>
      </trkpt>
      <trkpt lat="45.73505" lon="6.70694">
        <ele>2334</ele>
        <time>2026-07-29T11:17:29.716Z</time>
      </trkpt>
      <trkpt lat="45.73504" lon="6.70696">
        <ele>2334</ele>
        <time>2026-07-29T11:17:30.716Z</time>
      </trkpt>
      <trkpt lat="45.73504" lon="6.70698">
        <ele>2334</ele>
        <time>2026-07-29T11:17:31.716Z</time>
      </trkpt>
      <trkpt lat="45.73503" lon="6.707">
        <ele>2333</ele>
        <time>2026-07-29T11:17:32.716Z</time>
      </trkpt>
      <trkpt lat="45.73502" lon="6.70701">
        <ele>2333</ele>
        <time>2026-07-29T11:17:33.716Z</time>
      </trkpt>
      <trkpt lat="45.73502" lon="6.70702">
        <ele>2333</ele>
        <time>2026-07-29T11:17:34.716Z</time>
      </trkpt>
      <trkpt lat="45.73501" lon="6.70702">
        <ele>2332</ele>
        <time>2026-07-29T11:17:35.716Z</time>
      </trkpt>
      <trkpt lat="45.735" lon="6.70703">
        <ele>2332</ele>
        <time>2026-07-29T11:17:36.716Z</time>
      </trkpt>
      <trkpt lat="45.735" lon="6.70703">
        <ele>2332</ele>
        <time>2026-07-29T11:17:37.716Z</time>
      </trkpt>
      <trkpt lat="45.735" lon="6.70704">
        <ele>2333</ele>
        <time>2026-07-29T11:17:38.716Z</time>
      </trkpt>
      <trkpt lat="45.735" lon="6.70704">
        <ele>2333</ele>
        <time>2026-07-29T11:17:39.716Z</time>
      </trkpt>
      <trkpt lat="45.735" lon="6.70705">
        <ele>2333</ele>
        <time>2026-07-29T11:17:40.716Z</time>
      </trkpt>
      <trkpt lat="45.735" lon="6.70706">
        <ele>2333</ele>
        <time>2026-07-29T11:17:41.716Z</time>
      </trkpt>
      <trkpt lat="45.73501" lon="6.70706">
        <ele>2333</ele>
        <time>2026-07-29T11:17:42.716Z</time>
      </trkpt>
      <trkpt lat="45.73501" lon="6.70707">
        <ele>2333</ele>
        <time>2026-07-29T11:17:43.716Z</time>
      </trkpt>
      <trkpt lat="45.73502" lon="6.70708">
        <ele>2333</ele>
        <time>2026-07-29T11:17:44.716Z</time>
      </trkpt>
      <trkpt lat="45.73502" lon="6.70709">
        <ele>2333</ele>
        <time>2026-07-29T11:17:45.716Z</time>
      </trkpt>
      <trkpt lat="45.73503" lon="6.70711">
        <ele>2333</ele>
        <time>2026-07-29T11:17:46.716Z</time>
      </trkpt>
      <trkpt lat="45.73503" lon="6.70712">
        <ele>2333</ele>
        <time>2026-07-29T11:17:47.716Z</time>
      </trkpt>
      <trkpt lat="45.73503" lon="6.70713">
        <ele>2333</ele>
        <time>2026-07-29T11:17:48.716Z</time>
      </trkpt>
      <trkpt lat="45.73504" lon="6.70714">
        <ele>2334</ele>
        <time>2026-07-29T11:17:49.716Z</time>
      </trkpt>
      <trkpt lat="45.73505" lon="6.70715">
        <ele>2334</ele>
        <time>2026-07-29T11:17:50.716Z</time>
      </trkpt>
      <trkpt lat="45.73505" lon="6.70716">
        <ele>2334</ele>
        <time>2026-07-29T11:17:51.716Z</time>
      </trkpt>
      <trkpt lat="45.73505" lon="6.70717">
        <ele>2334</ele>
        <time>2026-07-29T11:17:52.716Z</time>
      </trkpt>
      <trkpt lat="45.73506" lon="6.70718">
        <ele>2334</ele>
        <time>2026-07-29T11:17:53.716Z</time>
      </trkpt>
      <trkpt lat="45.73506" lon="6.70719">
        <ele>2334</ele>
        <time>2026-07-29T11:17:54.716Z</time>
      </trkpt>
      <trkpt lat="45.73506" lon="6.7072">
        <ele>2334</ele>
        <time>2026-07-29T11:17:55.716Z</time>
      </trkpt>
      <trkpt lat="45.73506" lon="6.70721">
        <ele>2334</ele>
        <time>2026-07-29T11:17:56.716Z</time>
      </trkpt>
      <trkpt lat="45.73506" lon="6.70722">
        <ele>2334</ele>
        <time>2026-07-29T11:17:57.716Z</time>
      </trkpt>
      <trkpt lat="45.73506" lon="6.70722">
        <ele>2334</ele>
        <time>2026-07-29T11:17:58.716Z</time>
      </trkpt>
      <trkpt lat="45.73507" lon="6.70723">
        <ele>2334</ele>
        <time>2026-07-29T11:17:59.716Z</time>
      </trkpt>
      <trkpt lat="45.73507" lon="6.70723">
        <ele>2335</ele>
        <time>2026-07-29T11:18:00.716Z</time>
      </trkpt>
      <trkpt lat="45.73507" lon="6.70723">
        <ele>2335</ele>
        <time>2026-07-29T11:18:01.716Z</time>
      </trkpt>
      <trkpt lat="45.73507" lon="6.70723">
        <ele>2335</ele>
        <time>2026-07-29T11:18:02.716Z</time>
      </trkpt>
      <trkpt lat="45.73507" lon="6.70723">
        <ele>2335</ele>
        <time>2026-07-29T11:18:03.716Z</time>
      </trkpt>
      <trkpt lat="45.73507" lon="6.70723">
        <ele>2335</ele>
        <time>2026-07-29T11:18:04.716Z</time>
      </trkpt>
      <trkpt lat="45.73507" lon="6.70722">
        <ele>2335</ele>
        <time>2026-07-29T11:18:05.716Z</time>
      </trkpt>
      <trkpt lat="45.73507" lon="6.70722">
        <ele>2334</ele>
        <time>2026-07-29T11:18:06.716Z</time>
      </trkpt>
      <trkpt lat="45.73507" lon="6.70722">
        <ele>2334</ele>
        <time>2026-07-29T11:18:07.716Z</time>
      </trkpt>
      <trkpt lat="45.73507" lon="6.70722">
        <ele>2334</ele>
        <time>2026-07-29T11:18:08.716Z</time>
      </trkpt>
      <trkpt lat="45.73507" lon="6.70722">
        <ele>2334</ele>
        <time>2026-07-29T11:18:09.716Z</time>
      </trkpt>
      <trkpt lat="45.73507" lon="6.70722">
        <ele>2334</ele>
        <time>2026-07-29T11:18:10.716Z</time>
      </trkpt>
      <trkpt lat="45.73507" lon="6.70722">
        <ele>2335</ele>
        <time>2026-07-29T11:18:11.716Z</time>
      </trkpt>
      <trkpt lat="45.73507" lon="6.70722">
        <ele>2335</ele>
        <time>2026-07-29T11:18:12.716Z</time>
      </trkpt>
      <trkpt lat="45.73507" lon="6.70722">
        <ele>2335</ele>
        <time>2026-07-29T11:18:13.716Z</time>
      </trkpt>
      <trkpt lat="45.73507" lon="6.70722">
        <ele>2336</ele>
        <time>2026-07-29T11:18:14.716Z</time>
      </trkpt>
      <trkpt lat="45.73507" lon="6.70722">
        <ele>2336</ele>
        <time>2026-07-29T11:18:15.716Z</time>
      </trkpt>
      <trkpt lat="45.73507" lon="6.70722">
        <ele>2336</ele>
        <time>2026-07-29T11:18:16.716Z</time>
      </trkpt>
      <trkpt lat="45.73507" lon="6.70722">
        <ele>2336</ele>
        <time>2026-07-29T11:18:17.716Z</time>
      </trkpt>
      <trkpt lat="45.73507" lon="6.70722">
        <ele>2337</ele>
        <time>2026-07-29T11:18:18.716Z</time>
      </trkpt>
      <trkpt lat="45.73507" lon="6.70722">
        <ele>2337</ele>
        <time>2026-07-29T11:18:19.716Z</time>
      </trkpt>
      <trkpt lat="45.73507" lon="6.70723">
        <ele>2337</ele>
        <time>2026-07-29T11:18:20.716Z</time>
      </trkpt>
      <trkpt lat="45.73507" lon="6.70723">
        <ele>2337</ele>
        <time>2026-07-29T11:18:21.716Z</time>
      </trkpt>
      <trkpt lat="45.73507" lon="6.70723">
        <ele>2337</ele>
        <time>2026-07-29T11:18:22.716Z</time>
      </trkpt>
      <trkpt lat="45.73507" lon="6.70723">
        <ele>2337</ele>
        <time>2026-07-29T11:18:23.716Z</time>
      </trkpt>
      <trkpt lat="45.73507" lon="6.70723">
        <ele>2337</ele>
        <time>2026-07-29T11:18:24.716Z</time>
      </trkpt>
      <trkpt lat="45.73507" lon="6.70723">
        <ele>2337</ele>
        <time>2026-07-29T11:18:25.716Z</time>
      </trkpt>
      <trkpt lat="45.73508" lon="6.70723">
        <ele>2338</ele>
        <time>2026-07-29T11:18:26.716Z</time>
      </trkpt>
      <trkpt lat="45.73508" lon="6.70724">
        <ele>2338</ele>
        <time>2026-07-29T11:18:27.716Z</time>
      </trkpt>
      <trkpt lat="45.73508" lon="6.70724">
        <ele>2338</ele>
        <time>2026-07-29T11:18:28.716Z</time>
      </trkpt>
      <trkpt lat="45.73508" lon="6.70724">
        <ele>2338</ele>
        <time>2026-07-29T11:18:29.716Z</time>
      </trkpt>
      <trkpt lat="45.73508" lon="6.70724">
        <ele>2338</ele>
        <time>2026-07-29T11:18:30.716Z</time>
      </trkpt>
      <trkpt lat="45.73508" lon="6.70724">
        <ele>2338</ele>
        <time>2026-07-29T11:18:31.716Z</time>
      </trkpt>
      <trkpt lat="45.73508" lon="6.70724">
        <ele>2338</ele>
        <time>2026-07-29T11:18:32.716Z</time>
      </trkpt>
      <trkpt lat="45.73508" lon="6.70724">
        <ele>2338</ele>
        <time>2026-07-29T11:18:33.716Z</time>
      </trkpt>
      <trkpt lat="45.73509" lon="6.70724">
        <ele>2338</ele>
        <time>2026-07-29T11:18:34.716Z</time>
      </trkpt>
      <trkpt lat="45.73509" lon="6.70724">
        <ele>2338</ele>
        <time>2026-07-29T11:18:35.716Z</time>
      </trkpt>
      <trkpt lat="45.73509" lon="6.70724">
        <ele>2338</ele>
        <time>2026-07-29T11:18:36.716Z</time>
      </trkpt>
      <trkpt lat="45.73509" lon="6.70724">
        <ele>2338</ele>
        <time>2026-07-29T11:18:37.716Z</time>
      </trkpt>
      <trkpt lat="45.73509" lon="6.70724">
        <ele>2338</ele>
        <time>2026-07-29T11:18:38.716Z</time>
      </trkpt>
      <trkpt lat="45.73509" lon="6.70724">
        <ele>2338</ele>
        <time>2026-07-29T11:18:39.716Z</time>
      </trkpt>
      <trkpt lat="45.73509" lon="6.70724">
        <ele>2338</ele>
        <time>2026-07-29T11:18:40.716Z</time>
      </trkpt>
      <trkpt lat="45.73509" lon="6.70724">
        <ele>2338</ele>
        <time>2026-07-29T11:18:41.716Z</time>
      </trkpt>
      <trkpt lat="45.73509" lon="6.70724">
        <ele>2338</ele>
        <time>2026-07-29T11:18:42.716Z</time>
      </trkpt>
      <trkpt lat="45.73509" lon="6.70724">
        <ele>2338</ele>
        <time>2026-07-29T11:18:43.716Z</time>
      </trkpt>
      <trkpt lat="45.73509" lon="6.70724">
        <ele>2338</ele>
        <time>2026-07-29T11:18:44.716Z</time>
      </trkpt>
      <trkpt lat="45.73509" lon="6.70724">
        <ele>2338</ele>
        <time>2026-07-29T11:18:45.716Z</time>
      </trkpt>
      <trkpt lat="45.73509" lon="6.70724">
        <ele>2338</ele>
        <time>2026-07-29T11:18:46.716Z</time>
      </trkpt>
      <trkpt lat="45.73509" lon="6.70723">
        <ele>2338</ele>
        <time>2026-07-29T11:18:47.716Z</time>
      </trkpt>
      <trkpt lat="45.73509" lon="6.70723">
        <ele>2338</ele>
        <time>2026-07-29T11:18:48.716Z</time>
      </trkpt>
      <trkpt lat="45.73509" lon="6.70723">
        <ele>2338</ele>
        <time>2026-07-29T11:18:49.716Z</time>
      </trkpt>
      <trkpt lat="45.73509" lon="6.70723">
        <ele>2338</ele>
        <time>2026-07-29T11:18:50.716Z</time>
      </trkpt>
      <trkpt lat="45.73509" lon="6.70723">
        <ele>2338</ele>
        <time>2026-07-29T11:18:51.716Z</time>
      </trkpt>
      <trkpt lat="45.73509" lon="6.70723">
        <ele>2338</ele>
        <time>2026-07-29T11:18:52.716Z</time>
      </trkpt>
      <trkpt lat="45.73509" lon="6.70723">
        <ele>2338</ele>
        <time>2026-07-29T11:18:53.716Z</time>
      </trkpt>
      <trkpt lat="45.73509" lon="6.70723">
        <ele>2338</ele>
        <time>2026-07-29T11:18:54.716Z</time>
      </trkpt>
      <trkpt lat="45.73509" lon="6.70723">
        <ele>2338</ele>
        <time>2026-07-29T11:18:55.716Z</time>
      </trkpt>
      <trkpt lat="45.73509" lon="6.70723">
        <ele>2338</ele>
        <time>2026-07-29T11:18:56.716Z</time>
      </trkpt>
      <trkpt lat="45.73509" lon="6.70723">
        <ele>2338</ele>
        <time>2026-07-29T11:18:57.716Z</time>
      </trkpt>
      <trkpt lat="45.73509" lon="6.70723">
        <ele>2338</ele>
        <time>2026-07-29T11:18:58.716Z</time>
      </trkpt>
      <trkpt lat="45.73509" lon="6.70723">
        <ele>2338</ele>
        <time>2026-07-29T11:18:59.716Z</time>
      </trkpt>
      <trkpt lat="45.73509" lon="6.70723">
        <ele>2338</ele>
        <time>2026-07-29T11:19:00.716Z</time>
      </trkpt>
      <trkpt lat="45.73509" lon="6.70723">
        <ele>2338</ele>
        <time>2026-07-29T11:19:01.716Z</time>
      </trkpt>
      <trkpt lat="45.73509" lon="6.70723">
        <ele>2338</ele>
        <time>2026-07-29T11:19:02.716Z</time>
      </trkpt>
      <trkpt lat="45.73509" lon="6.70723">
        <ele>2338</ele>
        <time>2026-07-29T11:19:03.716Z</time>
      </trkpt>
      <trkpt lat="45.73509" lon="6.70723">
        <ele>2338</ele>
        <time>2026-07-29T11:19:04.716Z</time>
      </trkpt>
      <trkpt lat="45.73509" lon="6.70723">
        <ele>2338</ele>
        <time>2026-07-29T11:19:05.716Z</time>
      </trkpt>
      <trkpt lat="45.73509" lon="6.70723">
        <ele>2338</ele>
        <time>2026-07-29T11:19:06.716Z</time>
      </trkpt>
      <trkpt lat="45.73509" lon="6.70723">
        <ele>2338</ele>
        <time>2026-07-29T11:19:07.716Z</time>
      </trkpt>
      <trkpt lat="45.73509" lon="6.70723">
        <ele>2338</ele>
        <time>2026-07-29T11:19:08.716Z</time>
      </trkpt>
      <trkpt lat="45.73509" lon="6.70723">
        <ele>2338</ele>
        <time>2026-07-29T11:19:09.716Z</time>
      </trkpt>
      <trkpt lat="45.73509" lon="6.70723">
        <ele>2338</ele>
        <time>2026-07-29T11:19:10.716Z</time>
      </trkpt>
      <trkpt lat="45.73509" lon="6.70723">
        <ele>2338</ele>
        <time>2026-07-29T11:19:11.716Z</time>
      </trkpt>
      <trkpt lat="45.73509" lon="6.70723">
        <ele>2338</ele>
        <time>2026-07-29T11:19:12.716Z</time>
      </trkpt>
      <trkpt lat="45.73509" lon="6.70723">
        <ele>2338</ele>
        <time>2026-07-29T11:19:13.716Z</time>
      </trkpt>
      <trkpt lat="45.73509" lon="6.70723">
        <ele>2338</ele>
        <time>2026-07-29T11:19:14.716Z</time>
      </trkpt>
      <trkpt lat="45.73509" lon="6.70723">
        <ele>2338</ele>
        <time>2026-07-29T11:19:15.716Z</time>
      </trkpt>
      <trkpt lat="45.73509" lon="6.70723">
        <ele>2338</ele>
        <time>2026-07-29T11:19:16.716Z</time>
      </trkpt>
      <trkpt lat="45.7351" lon="6.70723">
        <ele>2338</ele>
        <time>2026-07-29T11:19:17.716Z</time>
      </trkpt>
      <trkpt lat="45.7351" lon="6.70723">
        <ele>2338</ele>
        <time>2026-07-29T11:19:18.716Z</time>
      </trkpt>
      <trkpt lat="45.7351" lon="6.70723">
        <ele>2338</ele>
        <time>2026-07-29T11:19:19.716Z</time>
      </trkpt>
      <trkpt lat="45.7351" lon="6.70723">
        <ele>2338</ele>
        <time>2026-07-29T11:19:20.716Z</time>
      </trkpt>
      <trkpt lat="45.7351" lon="6.70723">
        <ele>2338</ele>
        <time>2026-07-29T11:19:21.716Z</time>
      </trkpt>
      <trkpt lat="45.7351" lon="6.70723">
        <ele>2338</ele>
        <time>2026-07-29T11:19:22.716Z</time>
      </trkpt>
      <trkpt lat="45.7351" lon="6.70723">
        <ele>2338</ele>
        <time>2026-07-29T11:19:23.716Z</time>
      </trkpt>
      <trkpt lat="45.7351" lon="6.70723">
        <ele>2338</ele>
        <time>2026-07-29T11:19:24.716Z</time>
      </trkpt>
      <trkpt lat="45.7351" lon="6.70723">
        <ele>2338</ele>
        <time>2026-07-29T11:19:25.716Z</time>
      </trkpt>
      <trkpt lat="45.73509" lon="6.70723">
        <ele>2338</ele>
        <time>2026-07-29T11:19:26.716Z</time>
      </trkpt>
      <trkpt lat="45.73509" lon="6.70723">
        <ele>2338</ele>
        <time>2026-07-29T11:19:27.716Z</time>
      </trkpt>
      <trkpt lat="45.73509" lon="6.70723">
        <ele>2338</ele>
        <time>2026-07-29T11:19:28.716Z</time>
      </trkpt>
      <trkpt lat="45.73509" lon="6.70723">
        <ele>2338</ele>
        <time>2026-07-29T11:19:29.716Z</time>
      </trkpt>
      <trkpt lat="45.73509" lon="6.70723">
        <ele>2338</ele>
        <time>2026-07-29T11:19:30.716Z</time>
      </trkpt>
      <trkpt lat="45.73509" lon="6.70723">
        <ele>2338</ele>
        <time>2026-07-29T11:19:31.716Z</time>
      </trkpt>
      <trkpt lat="45.73509" lon="6.70722">
        <ele>2338</ele>
        <time>2026-07-29T11:19:32.716Z</time>
      </trkpt>
      <trkpt lat="45.73509" lon="6.70722">
        <ele>2338</ele>
        <time>2026-07-29T11:19:33.716Z</time>
      </trkpt>
      <trkpt lat="45.73509" lon="6.70722">
        <ele>2338</ele>
        <time>2026-07-29T11:19:34.716Z</time>
      </trkpt>
      <trkpt lat="45.73509" lon="6.70722">
        <ele>2338</ele>
        <time>2026-07-29T11:19:35.716Z</time>
      </trkpt>
      <trkpt lat="45.73509" lon="6.70722">
        <ele>2338</ele>
        <time>2026-07-29T11:19:36.716Z</time>
      </trkpt>
      <trkpt lat="45.73509" lon="6.70722">
        <ele>2338</ele>
        <time>2026-07-29T11:19:37.716Z</time>
      </trkpt>
      <trkpt lat="45.73509" lon="6.70722">
        <ele>2338</ele>
        <time>2026-07-29T11:19:38.716Z</time>
      </trkpt>
      <trkpt lat="45.73509" lon="6.70722">
        <ele>2338</ele>
        <time>2026-07-29T11:19:39.716Z</time>
      </trkpt>
      <trkpt lat="45.73509" lon="6.70722">
        <ele>2338</ele>
        <time>2026-07-29T11:19:40.716Z</time>
      </trkpt>
      <trkpt lat="45.73509" lon="6.70722">
        <ele>2338</ele>
        <time>2026-07-29T11:19:41.716Z</time>
      </trkpt>
      <trkpt lat="45.73509" lon="6.70722">
        <ele>2338</ele>
        <time>2026-07-29T11:19:42.716Z</time>
      </trkpt>
      <trkpt lat="45.73509" lon="6.70722">
        <ele>2338</ele>
        <time>2026-07-29T11:19:43.716Z</time>
      </trkpt>
      <trkpt lat="45.73509" lon="6.70722">
        <ele>2338</ele>
        <time>2026-07-29T11:19:44.716Z</time>
      </trkpt>
      <trkpt lat="45.73509" lon="6.70722">
        <ele>2338</ele>
        <time>2026-07-29T11:19:45.716Z</time>
      </trkpt>
      <trkpt lat="45.73509" lon="6.70722">
        <ele>2338</ele>
        <time>2026-07-29T11:19:46.716Z</time>
      </trkpt>
      <trkpt lat="45.73509" lon="6.70722">
        <ele>2338</ele>
        <time>2026-07-29T11:19:47.716Z</time>
      </trkpt>
      <trkpt lat="45.73509" lon="6.70722">
        <ele>2338</ele>
        <time>2026-07-29T11:19:48.716Z</time>
      </trkpt>
      <trkpt lat="45.73509" lon="6.70722">
        <ele>2338</ele>
        <time>2026-07-29T11:19:49.716Z</time>
      </trkpt>
      <trkpt lat="45.73509" lon="6.70722">
        <ele>2338</ele>
        <time>2026-07-29T11:19:50.716Z</time>
      </trkpt>
      <trkpt lat="45.73509" lon="6.70722">
        <ele>2338</ele>
        <time>2026-07-29T11:19:51.716Z</time>
      </trkpt>
      <trkpt lat="45.73509" lon="6.70722">
        <ele>2338</ele>
        <time>2026-07-29T11:19:52.716Z</time>
      </trkpt>
      <trkpt lat="45.73509" lon="6.70723">
        <ele>2338</ele>
        <time>2026-07-29T11:19:53.716Z</time>
      </trkpt>
      <trkpt lat="45.73509" lon="6.70723">
        <ele>2338</ele>
        <time>2026-07-29T11:19:54.716Z</time>
      </trkpt>
      <trkpt lat="45.73509" lon="6.70723">
        <ele>2338</ele>
        <time>2026-07-29T11:19:55.716Z</time>
      </trkpt>
      <trkpt lat="45.73509" lon="6.70723">
        <ele>2338</ele>
        <time>2026-07-29T11:19:56.716Z</time>
      </trkpt>
      <trkpt lat="45.73509" lon="6.70723">
        <ele>2338</ele>
        <time>2026-07-29T11:19:57.716Z</time>
      </trkpt>
      <trkpt lat="45.73509" lon="6.70723">
        <ele>2338</ele>
        <time>2026-07-29T11:19:58.716Z</time>
      </trkpt>
      <trkpt lat="45.73509" lon="6.70723">
        <ele>2338</ele>
        <time>2026-07-29T11:19:59.716Z</time>
      </trkpt>
      <trkpt lat="45.73509" lon="6.70723">
        <ele>2338</ele>
        <time>2026-07-29T11:20:00.716Z</time>
      </trkpt>
      <trkpt lat="45.73509" lon="6.70723">
        <ele>2338</ele>
        <time>2026-07-29T11:20:01.716Z</time>
      </trkpt>
      <trkpt lat="45.73509" lon="6.70723">
        <ele>2338</ele>
        <time>2026-07-29T11:20:02.716Z</time>
      </trkpt>
      <trkpt lat="45.73509" lon="6.70723">
        <ele>2338</ele>
        <time>2026-07-29T11:20:03.716Z</time>
      </trkpt>
      <trkpt lat="45.73509" lon="6.70723">
        <ele>2338</ele>
        <time>2026-07-29T11:20:04.716Z</time>
      </trkpt>
      <trkpt lat="45.73509" lon="6.70723">
        <ele>2338</ele>
        <time>2026-07-29T11:20:05.716Z</time>
      </trkpt>
      <trkpt lat="45.73509" lon="6.70723">
        <ele>2338</ele>
        <time>2026-07-29T11:20:06.716Z</time>
      </trkpt>
      <trkpt lat="45.73509" lon="6.70723">
        <ele>2338</ele>
        <time>2026-07-29T11:20:07.716Z</time>
      </trkpt>
      <trkpt lat="45.73509" lon="6.70723">
        <ele>2338</ele>
        <time>2026-07-29T11:20:08.716Z</time>
      </trkpt>
      <trkpt lat="45.73509" lon="6.70723">
        <ele>2338</ele>
        <time>2026-07-29T11:20:09.716Z</time>
      </trkpt>
      <trkpt lat="45.73509" lon="6.70723">
        <ele>2338</ele>
        <time>2026-07-29T11:20:10.716Z</time>
      </trkpt>
      <trkpt lat="45.73509" lon="6.70723">
        <ele>2338</ele>
        <time>2026-07-29T11:20:11.716Z</time>
      </trkpt>
      <trkpt lat="45.73509" lon="6.70723">
        <ele>2338</ele>
        <time>2026-07-29T11:20:12.716Z</time>
      </trkpt>
      <trkpt lat="45.73509" lon="6.70723">
        <ele>2338</ele>
        <time>2026-07-29T11:20:13.716Z</time>
      </trkpt>
      <trkpt lat="45.73509" lon="6.70723">
        <ele>2338</ele>
        <time>2026-07-29T11:20:14.716Z</time>
      </trkpt>
      <trkpt lat="45.73509" lon="6.70723">
        <ele>2338</ele>
        <time>2026-07-29T11:20:15.716Z</time>
      </trkpt>
      <trkpt lat="45.73509" lon="6.70723">
        <ele>2338</ele>
        <time>2026-07-29T11:20:16.716Z</time>
      </trkpt>
      <trkpt lat="45.73509" lon="6.70723">
        <ele>2338</ele>
        <time>2026-07-29T11:20:17.716Z</time>
      </trkpt>
      <trkpt lat="45.73509" lon="6.70722">
        <ele>2338</ele>
        <time>2026-07-29T11:20:18.716Z</time>
      </trkpt>
      <trkpt lat="45.73509" lon="6.70722">
        <ele>2338</ele>
        <time>2026-07-29T11:20:19.716Z</time>
      </trkpt>
      <trkpt lat="45.73509" lon="6.70722">
        <ele>2338</ele>
        <time>2026-07-29T11:20:20.716Z</time>
      </trkpt>
      <trkpt lat="45.73509" lon="6.70722">
        <ele>2338</ele>
        <time>2026-07-29T11:20:21.716Z</time>
      </trkpt>
      <trkpt lat="45.73509" lon="6.70722">
        <ele>2338</ele>
        <time>2026-07-29T11:20:22.716Z</time>
      </trkpt>
      <trkpt lat="45.73509" lon="6.70722">
        <ele>2338</ele>
        <time>2026-07-29T11:20:23.716Z</time>
      </trkpt>
      <trkpt lat="45.73509" lon="6.70722">
        <ele>2338</ele>
        <time>2026-07-29T11:20:24.716Z</time>
      </trkpt>
      <trkpt lat="45.73509" lon="6.70722">
        <ele>2338</ele>
        <time>2026-07-29T11:20:25.716Z</time>
      </trkpt>
      <trkpt lat="45.73509" lon="6.70722">
        <ele>2338</ele>
        <time>2026-07-29T11:20:26.716Z</time>
      </trkpt>
      <trkpt lat="45.73509" lon="6.70722">
        <ele>2338</ele>
        <time>2026-07-29T11:20:27.716Z</time>
      </trkpt>
      <trkpt lat="45.73509" lon="6.70722">
        <ele>2338</ele>
        <time>2026-07-29T11:20:28.716Z</time>
      </trkpt>
      <trkpt lat="45.73509" lon="6.70722">
        <ele>2338</ele>
        <time>2026-07-29T11:20:29.716Z</time>
      </trkpt>
      <trkpt lat="45.73509" lon="6.70722">
        <ele>2338</ele>
        <time>2026-07-29T11:20:30.716Z</time>
      </trkpt>
      <trkpt lat="45.73509" lon="6.70722">
        <ele>2338</ele>
        <time>2026-07-29T11:20:31.716Z</time>
      </trkpt>
      <trkpt lat="45.73509" lon="6.70722">
        <ele>2338</ele>
        <time>2026-07-29T11:20:32.716Z</time>
      </trkpt>
      <trkpt lat="45.73509" lon="6.70722">
        <ele>2338</ele>
        <time>2026-07-29T11:20:33.716Z</time>
      </trkpt>
      <trkpt lat="45.73509" lon="6.70722">
        <ele>2338</ele>
        <time>2026-07-29T11:20:34.716Z</time>
      </trkpt>
      <trkpt lat="45.73509" lon="6.70722">
        <ele>2338</ele>
        <time>2026-07-29T11:20:35.716Z</time>
      </trkpt>
      <trkpt lat="45.73509" lon="6.70722">
        <ele>2338</ele>
        <time>2026-07-29T11:20:36.716Z</time>
      </trkpt>
      <trkpt lat="45.73509" lon="6.70722">
        <ele>2338</ele>
        <time>2026-07-29T11:20:37.716Z</time>
      </trkpt>
      <trkpt lat="45.73509" lon="6.70722">
        <ele>2338</ele>
        <time>2026-07-29T11:20:38.716Z</time>
      </trkpt>
      <trkpt lat="45.73509" lon="6.70722">
        <ele>2338</ele>
        <time>2026-07-29T11:20:39.716Z</time>
      </trkpt>
      <trkpt lat="45.73509" lon="6.70722">
        <ele>2338</ele>
        <time>2026-07-29T11:20:40.716Z</time>
      </trkpt>
      <trkpt lat="45.73509" lon="6.70722">
        <ele>2338</ele>
        <time>2026-07-29T11:20:41.716Z</time>
      </trkpt>
      <trkpt lat="45.73509" lon="6.70722">
        <ele>2338</ele>
        <time>2026-07-29T11:20:42.716Z</time>
      </trkpt>
      <trkpt lat="45.73509" lon="6.70722">
        <ele>2338</ele>
        <time>2026-07-29T11:20:43.716Z</time>
      </trkpt>
      <trkpt lat="45.73509" lon="6.70722">
        <ele>2338</ele>
        <time>2026-07-29T11:20:44.716Z</time>
      </trkpt>
      <trkpt lat="45.73509" lon="6.70721">
        <ele>2338</ele>
        <time>2026-07-29T11:20:45.716Z</time>
      </trkpt>
      <trkpt lat="45.73509" lon="6.70721">
        <ele>2338</ele>
        <time>2026-07-29T11:20:46.716Z</time>
      </trkpt>
      <trkpt lat="45.73509" lon="6.70721">
        <ele>2338</ele>
        <time>2026-07-29T11:20:47.716Z</time>
      </trkpt>
      <trkpt lat="45.73509" lon="6.70721">
        <ele>2338</ele>
        <time>2026-07-29T11:20:48.716Z</time>
      </trkpt>
      <trkpt lat="45.73509" lon="6.70721">
        <ele>2338</ele>
        <time>2026-07-29T11:20:49.716Z</time>
      </trkpt>
      <trkpt lat="45.73509" lon="6.70721">
        <ele>2338</ele>
        <time>2026-07-29T11:20:50.716Z</time>
      </trkpt>
      <trkpt lat="45.73509" lon="6.70721">
        <ele>2338</ele>
        <time>2026-07-29T11:20:51.717Z</time>
      </trkpt>
      <trkpt lat="45.73509" lon="6.70721">
        <ele>2338</ele>
        <time>2026-07-29T11:20:52.716Z</time>
      </trkpt>
      <trkpt lat="45.73509" lon="6.70721">
        <ele>2338</ele>
        <time>2026-07-29T11:20:53.716Z</time>
      </trkpt>
      <trkpt lat="45.73509" lon="6.70721">
        <ele>2338</ele>
        <time>2026-07-29T11:20:54.716Z</time>
      </trkpt>
      <trkpt lat="45.73509" lon="6.70721">
        <ele>2338</ele>
        <time>2026-07-29T11:20:55.716Z</time>
      </trkpt>
      <trkpt lat="45.73509" lon="6.70721">
        <ele>2338</ele>
        <time>2026-07-29T11:20:56.716Z</time>
      </trkpt>
      <trkpt lat="45.73509" lon="6.70721">
        <ele>2338</ele>
        <time>2026-07-29T11:20:57.716Z</time>
      </trkpt>
      <trkpt lat="45.73509" lon="6.70721">
        <ele>2338</ele>
        <time>2026-07-29T11:20:58.716Z</time>
      </trkpt>
      <trkpt lat="45.73509" lon="6.70721">
        <ele>2338</ele>
        <time>2026-07-29T11:20:59.716Z</time>
      </trkpt>
      <trkpt lat="45.73509" lon="6.70721">
        <ele>2338</ele>
        <time>2026-07-29T11:21:00.716Z</time>
      </trkpt>
      <trkpt lat="45.73509" lon="6.70721">
        <ele>2338</ele>
        <time>2026-07-29T11:21:01.716Z</time>
      </trkpt>
      <trkpt lat="45.73509" lon="6.70721">
        <ele>2338</ele>
        <time>2026-07-29T11:21:02.716Z</time>
      </trkpt>
      <trkpt lat="45.73509" lon="6.70721">
        <ele>2338</ele>
        <time>2026-07-29T11:21:03.716Z</time>
      </trkpt>
      <trkpt lat="45.73509" lon="6.70721">
        <ele>2338</ele>
        <time>2026-07-29T11:21:04.716Z</time>
      </trkpt>
      <trkpt lat="45.73509" lon="6.70721">
        <ele>2338</ele>
        <time>2026-07-29T11:21:05.716Z</time>
      </trkpt>
      <trkpt lat="45.73509" lon="6.70721">
        <ele>2338</ele>
        <time>2026-07-29T11:21:06.716Z</time>
      </trkpt>
      <trkpt lat="45.73509" lon="6.70721">
        <ele>2338</ele>
        <time>2026-07-29T11:21:07.716Z</time>
      </trkpt>
      <trkpt lat="45.73509" lon="6.70721">
        <ele>2338</ele>
        <time>2026-07-29T11:21:08.716Z</time>
      </trkpt>
      <trkpt lat="45.73509" lon="6.70721">
        <ele>2338</ele>
        <time>2026-07-29T11:21:09.716Z</time>
      </trkpt>
      <trkpt lat="45.73509" lon="6.70721">
        <ele>2338</ele>
        <time>2026-07-29T11:21:10.716Z</time>
      </trkpt>
      <trkpt lat="45.73509" lon="6.70721">
        <ele>2338</ele>
        <time>2026-07-29T11:21:11.716Z</time>
      </trkpt>
      <trkpt lat="45.73509" lon="6.70721">
        <ele>2338</ele>
        <time>2026-07-29T11:21:12.716Z</time>
      </trkpt>
      <trkpt lat="45.73509" lon="6.70721">
        <ele>2338</ele>
        <time>2026-07-29T11:21:13.716Z</time>
      </trkpt>
      <trkpt lat="45.73509" lon="6.70721">
        <ele>2338</ele>
        <time>2026-07-29T11:21:14.716Z</time>
      </trkpt>
      <trkpt lat="45.73509" lon="6.70721">
        <ele>2338</ele>
        <time>2026-07-29T11:21:15.716Z</time>
      </trkpt>
      <trkpt lat="45.73509" lon="6.70721">
        <ele>2338</ele>
        <time>2026-07-29T11:21:16.716Z</time>
      </trkpt>
      <trkpt lat="45.73509" lon="6.70721">
        <ele>2338</ele>
        <time>2026-07-29T11:21:17.716Z</time>
      </trkpt>
      <trkpt lat="45.73509" lon="6.70721">
        <ele>2338</ele>
        <time>2026-07-29T11:21:18.716Z</time>
      </trkpt>
      <trkpt lat="45.73509" lon="6.70721">
        <ele>2338</ele>
        <time>2026-07-29T11:21:19.716Z</time>
      </trkpt>
      <trkpt lat="45.73509" lon="6.70721">
        <ele>2338</ele>
        <time>2026-07-29T11:21:20.716Z</time>
      </trkpt>
      <trkpt lat="45.73509" lon="6.70721">
        <ele>2338</ele>
        <time>2026-07-29T11:21:21.716Z</time>
      </trkpt>
      <trkpt lat="45.73509" lon="6.70721">
        <ele>2338</ele>
        <time>2026-07-29T11:21:22.716Z</time>
      </trkpt>
      <trkpt lat="45.73509" lon="6.70721">
        <ele>2338</ele>
        <time>2026-07-29T11:21:23.716Z</time>
      </trkpt>
      <trkpt lat="45.73509" lon="6.70721">
        <ele>2338</ele>
        <time>2026-07-29T11:21:24.716Z</time>
      </trkpt>
      <trkpt lat="45.73509" lon="6.70721">
        <ele>2338</ele>
        <time>2026-07-29T11:21:25.716Z</time>
      </trkpt>
      <trkpt lat="45.73509" lon="6.70721">
        <ele>2338</ele>
        <time>2026-07-29T11:21:26.716Z</time>
      </trkpt>
      <trkpt lat="45.73509" lon="6.70721">
        <ele>2338</ele>
        <time>2026-07-29T11:21:27.716Z</time>
      </trkpt>
      <trkpt lat="45.73509" lon="6.70721">
        <ele>2338</ele>
        <time>2026-07-29T11:21:28.716Z</time>
      </trkpt>
      <trkpt lat="45.73509" lon="6.70721">
        <ele>2338</ele>
        <time>2026-07-29T11:21:29.716Z</time>
      </trkpt>
      <trkpt lat="45.73509" lon="6.70721">
        <ele>2338</ele>
        <time>2026-07-29T11:21:30.716Z</time>
      </trkpt>
      <trkpt lat="45.73509" lon="6.70721">
        <ele>2338</ele>
        <time>2026-07-29T11:21:31.716Z</time>
      </trkpt>
      <trkpt lat="45.73509" lon="6.70721">
        <ele>2338</ele>
        <time>2026-07-29T11:21:32.716Z</time>
      </trkpt>
      <trkpt lat="45.73509" lon="6.70721">
        <ele>2338</ele>
        <time>2026-07-29T11:21:33.716Z</time>
      </trkpt>
      <trkpt lat="45.73509" lon="6.70721">
        <ele>2338</ele>
        <time>2026-07-29T11:21:34.716Z</time>
      </trkpt>
      <trkpt lat="45.73509" lon="6.70721">
        <ele>2338</ele>
        <time>2026-07-29T11:21:35.716Z</time>
      </trkpt>
      <trkpt lat="45.73509" lon="6.70721">
        <ele>2338</ele>
        <time>2026-07-29T11:21:36.716Z</time>
      </trkpt>
      <trkpt lat="45.73509" lon="6.70721">
        <ele>2338</ele>
        <time>2026-07-29T11:21:37.716Z</time>
      </trkpt>
      <trkpt lat="45.73509" lon="6.70721">
        <ele>2338</ele>
        <time>2026-07-29T11:21:38.716Z</time>
      </trkpt>
      <trkpt lat="45.73509" lon="6.70721">
        <ele>2338</ele>
        <time>2026-07-29T11:21:39.716Z</time>
      </trkpt>
      <trkpt lat="45.73509" lon="6.70721">
        <ele>2338</ele>
        <time>2026-07-29T11:21:40.716Z</time>
      </trkpt>
      <trkpt lat="45.73509" lon="6.70721">
        <ele>2338</ele>
        <time>2026-07-29T11:21:41.716Z</time>
      </trkpt>
      <trkpt lat="45.73509" lon="6.70721">
        <ele>2338</ele>
        <time>2026-07-29T11:21:42.716Z</time>
      </trkpt>
      <trkpt lat="45.73509" lon="6.70721">
        <ele>2338</ele>
        <time>2026-07-29T11:21:43.716Z</time>
      </trkpt>
      <trkpt lat="45.73509" lon="6.70721">
        <ele>2338</ele>
        <time>2026-07-29T11:21:44.716Z</time>
      </trkpt>
      <trkpt lat="45.73509" lon="6.70721">
        <ele>2338</ele>
        <time>2026-07-29T11:21:45.716Z</time>
      </trkpt>
      <trkpt lat="45.73509" lon="6.70721">
        <ele>2338</ele>
        <time>2026-07-29T11:21:46.716Z</time>
      </trkpt>
      <trkpt lat="45.73509" lon="6.70721">
        <ele>2338</ele>
        <time>2026-07-29T11:21:47.716Z</time>
      </trkpt>
      <trkpt lat="45.73509" lon="6.70721">
        <ele>2338</ele>
        <time>2026-07-29T11:21:48.716Z</time>
      </trkpt>
      <trkpt lat="45.73509" lon="6.70721">
        <ele>2338</ele>
        <time>2026-07-29T11:21:49.716Z</time>
      </trkpt>
      <trkpt lat="45.73509" lon="6.70721">
        <ele>2338</ele>
        <time>2026-07-29T11:21:50.716Z</time>
      </trkpt>
      <trkpt lat="45.73509" lon="6.70721">
        <ele>2338</ele>
        <time>2026-07-29T11:21:51.716Z</time>
      </trkpt>
      <trkpt lat="45.73509" lon="6.70721">
        <ele>2338</ele>
        <time>2026-07-29T11:21:52.716Z</time>
      </trkpt>
      <trkpt lat="45.73509" lon="6.70721">
        <ele>2338</ele>
        <time>2026-07-29T11:21:53.716Z</time>
      </trkpt>
      <trkpt lat="45.73509" lon="6.70721">
        <ele>2338</ele>
        <time>2026-07-29T11:21:54.716Z</time>
      </trkpt>
      <trkpt lat="45.73509" lon="6.70721">
        <ele>2338</ele>
        <time>2026-07-29T11:21:55.716Z</time>
      </trkpt>
      <trkpt lat="45.73509" lon="6.70721">
        <ele>2338</ele>
        <time>2026-07-29T11:21:56.716Z</time>
      </trkpt>
      <trkpt lat="45.73509" lon="6.70721">
        <ele>2338</ele>
        <time>2026-07-29T11:21:57.716Z</time>
      </trkpt>
      <trkpt lat="45.73509" lon="6.70721">
        <ele>2338</ele>
        <time>2026-07-29T11:21:58.716Z</time>
      </trkpt>
      <trkpt lat="45.73509" lon="6.70721">
        <ele>2338</ele>
        <time>2026-07-29T11:21:59.716Z</time>
      </trkpt>
      <trkpt lat="45.73509" lon="6.70721">
        <ele>2338</ele>
        <time>2026-07-29T11:22:00.716Z</time>
      </trkpt>
      <trkpt lat="45.73509" lon="6.70721">
        <ele>2338</ele>
        <time>2026-07-29T11:22:01.716Z</time>
      </trkpt>
      <trkpt lat="45.73509" lon="6.70721">
        <ele>2338</ele>
        <time>2026-07-29T11:22:02.716Z</time>
      </trkpt>
      <trkpt lat="45.73509" lon="6.70721">
        <ele>2338</ele>
        <time>2026-07-29T11:22:03.716Z</time>
      </trkpt>
      <trkpt lat="45.73509" lon="6.70721">
        <ele>2338</ele>
        <time>2026-07-29T11:22:04.716Z</time>
      </trkpt>
      <trkpt lat="45.73509" lon="6.70721">
        <ele>2338</ele>
        <time>2026-07-29T11:22:05.716Z</time>
      </trkpt>
      <trkpt lat="45.73509" lon="6.70721">
        <ele>2338</ele>
        <time>2026-07-29T11:22:06.716Z</time>
      </trkpt>
      <trkpt lat="45.73509" lon="6.70721">
        <ele>2338</ele>
        <time>2026-07-29T11:22:07.716Z</time>
      </trkpt>
      <trkpt lat="45.73509" lon="6.70721">
        <ele>2338</ele>
        <time>2026-07-29T11:22:08.716Z</time>
      </trkpt>
      <trkpt lat="45.73509" lon="6.70721">
        <ele>2338</ele>
        <time>2026-07-29T11:22:09.716Z</time>
      </trkpt>
      <trkpt lat="45.73509" lon="6.70721">
        <ele>2338</ele>
        <time>2026-07-29T11:22:10.716Z</time>
      </trkpt>
      <trkpt lat="45.73509" lon="6.70721">
        <ele>2338</ele>
        <time>2026-07-29T11:22:11.716Z</time>
      </trkpt>
      <trkpt lat="45.73509" lon="6.70721">
        <ele>2338</ele>
        <time>2026-07-29T11:22:12.716Z</time>
      </trkpt>
      <trkpt lat="45.73509" lon="6.70721">
        <ele>2338</ele>
        <time>2026-07-29T11:22:13.716Z</time>
      </trkpt>
      <trkpt lat="45.73509" lon="6.70721">
        <ele>2338</ele>
        <time>2026-07-29T11:22:14.716Z</time>
      </trkpt>
      <trkpt lat="45.73509" lon="6.70721">
        <ele>2338</ele>
        <time>2026-07-29T11:22:15.716Z</time>
      </trkpt>
      <trkpt lat="45.73509" lon="6.70721">
        <ele>2338</ele>
        <time>2026-07-29T11:22:16.716Z</time>
      </trkpt>
      <trkpt lat="45.73509" lon="6.70721">
        <ele>2338</ele>
        <time>2026-07-29T11:22:17.716Z</time>
      </trkpt>
      <trkpt lat="45.73509" lon="6.70721">
        <ele>2338</ele>
        <time>2026-07-29T11:22:18.716Z</time>
      </trkpt>
      <trkpt lat="45.73509" lon="6.70721">
        <ele>2338</ele>
        <time>2026-07-29T11:22:19.716Z</time>
      </trkpt>
      <trkpt lat="45.73509" lon="6.70721">
        <ele>2338</ele>
        <time>2026-07-29T11:22:20.716Z</time>
      </trkpt>
      <trkpt lat="45.73509" lon="6.70721">
        <ele>2337</ele>
        <time>2026-07-29T11:22:21.716Z</time>
      </trkpt>
      <trkpt lat="45.73509" lon="6.70721">
        <ele>2337</ele>
        <time>2026-07-29T11:22:22.716Z</time>
      </trkpt>
      <trkpt lat="45.73509" lon="6.70721">
        <ele>2337</ele>
        <time>2026-07-29T11:22:23.716Z</time>
      </trkpt>
      <trkpt lat="45.73509" lon="6.70721">
        <ele>2337</ele>
        <time>2026-07-29T11:22:24.716Z</time>
      </trkpt>
      <trkpt lat="45.73509" lon="6.70721">
        <ele>2337</ele>
        <time>2026-07-29T11:22:25.716Z</time>
      </trkpt>
      <trkpt lat="45.73509" lon="6.70721">
        <ele>2337</ele>
        <time>2026-07-29T11:22:26.716Z</time>
      </trkpt>
      <trkpt lat="45.73509" lon="6.70721">
        <ele>2337</ele>
        <time>2026-07-29T11:22:27.716Z</time>
      </trkpt>
      <trkpt lat="45.73509" lon="6.70721">
        <ele>2337</ele>
        <time>2026-07-29T11:22:28.716Z</time>
      </trkpt>
      <trkpt lat="45.73509" lon="6.70721">
        <ele>2337</ele>
        <time>2026-07-29T11:22:29.716Z</time>
      </trkpt>
      <trkpt lat="45.73509" lon="6.70721">
        <ele>2337</ele>
        <time>2026-07-29T11:22:30.716Z</time>
      </trkpt>
      <trkpt lat="45.73509" lon="6.70721">
        <ele>2337</ele>
        <time>2026-07-29T11:22:31.716Z</time>
      </trkpt>
      <trkpt lat="45.73509" lon="6.70721">
        <ele>2337</ele>
        <time>2026-07-29T11:22:32.716Z</time>
      </trkpt>
      <trkpt lat="45.73509" lon="6.70721">
        <ele>2337</ele>
        <time>2026-07-29T11:22:33.716Z</time>
      </trkpt>
      <trkpt lat="45.73509" lon="6.70721">
        <ele>2337</ele>
        <time>2026-07-29T11:22:34.716Z</time>
      </trkpt>
      <trkpt lat="45.73509" lon="6.70721">
        <ele>2337</ele>
        <time>2026-07-29T11:22:35.716Z</time>
      </trkpt>
      <trkpt lat="45.73509" lon="6.70721">
        <ele>2337</ele>
        <time>2026-07-29T11:22:36.716Z</time>
      </trkpt>
      <trkpt lat="45.73509" lon="6.70721">
        <ele>2337</ele>
        <time>2026-07-29T11:22:37.716Z</time>
      </trkpt>
      <trkpt lat="45.73509" lon="6.70721">
        <ele>2337</ele>
        <time>2026-07-29T11:22:38.716Z</time>
      </trkpt>
      <trkpt lat="45.73509" lon="6.70721">
        <ele>2337</ele>
        <time>2026-07-29T11:22:39.716Z</time>
      </trkpt>
      <trkpt lat="45.73509" lon="6.70721">
        <ele>2337</ele>
        <time>2026-07-29T11:22:40.716Z</time>
      </trkpt>
      <trkpt lat="45.73509" lon="6.70721">
        <ele>2337</ele>
        <time>2026-07-29T11:22:41.716Z</time>
      </trkpt>
      <trkpt lat="45.73509" lon="6.70721">
        <ele>2337</ele>
        <time>2026-07-29T11:22:42.716Z</time>
      </trkpt>
      <trkpt lat="45.73509" lon="6.70721">
        <ele>2337</ele>
        <time>2026-07-29T11:22:43.716Z</time>
      </trkpt>
      <trkpt lat="45.73509" lon="6.70721">
        <ele>2337</ele>
        <time>2026-07-29T11:22:44.716Z</time>
      </trkpt>
      <trkpt lat="45.73509" lon="6.70721">
        <ele>2337</ele>
        <time>2026-07-29T11:22:45.716Z</time>
      </trkpt>
      <trkpt lat="45.73509" lon="6.70721">
        <ele>2337</ele>
        <time>2026-07-29T11:22:46.716Z</time>
      </trkpt>
      <trkpt lat="45.73509" lon="6.70721">
        <ele>2337</ele>
        <time>2026-07-29T11:22:47.716Z</time>
      </trkpt>
      <trkpt lat="45.73509" lon="6.70721">
        <ele>2337</ele>
        <time>2026-07-29T11:22:48.716Z</time>
      </trkpt>
      <trkpt lat="45.73509" lon="6.70721">
        <ele>2337</ele>
        <time>2026-07-29T11:22:49.716Z</time>
      </trkpt>
      <trkpt lat="45.73509" lon="6.70721">
        <ele>2337</ele>
        <time>2026-07-29T11:22:50.716Z</time>
      </trkpt>
      <trkpt lat="45.73509" lon="6.70721">
        <ele>2337</ele>
        <time>2026-07-29T11:22:51.716Z</time>
      </trkpt>
      <trkpt lat="45.73509" lon="6.70721">
        <ele>2337</ele>
        <time>2026-07-29T11:22:52.716Z</time>
      </trkpt>
      <trkpt lat="45.73509" lon="6.70721">
        <ele>2337</ele>
        <time>2026-07-29T11:22:53.716Z</time>
      </trkpt>
      <trkpt lat="45.73509" lon="6.70721">
        <ele>2337</ele>
        <time>2026-07-29T11:22:54.716Z</time>
      </trkpt>
      <trkpt lat="45.73509" lon="6.70721">
        <ele>2337</ele>
        <time>2026-07-29T11:22:55.716Z</time>
      </trkpt>
      <trkpt lat="45.73509" lon="6.70721">
        <ele>2337</ele>
        <time>2026-07-29T11:22:56.716Z</time>
      </trkpt>
      <trkpt lat="45.73509" lon="6.70721">
        <ele>2337</ele>
        <time>2026-07-29T11:22:57.716Z</time>
      </trkpt>
      <trkpt lat="45.73509" lon="6.70721">
        <ele>2337</ele>
        <time>2026-07-29T11:22:58.716Z</time>
      </trkpt>
      <trkpt lat="45.73509" lon="6.70721">
        <ele>2337</ele>
        <time>2026-07-29T11:22:59.716Z</time>
      </trkpt>
      <trkpt lat="45.73509" lon="6.70721">
        <ele>2337</ele>
        <time>2026-07-29T11:23:00.716Z</time>
      </trkpt>
      <trkpt lat="45.73509" lon="6.70721">
        <ele>2337</ele>
        <time>2026-07-29T11:23:01.716Z</time>
      </trkpt>
      <trkpt lat="45.73509" lon="6.70721">
        <ele>2338</ele>
        <time>2026-07-29T11:23:02.716Z</time>
      </trkpt>
      <trkpt lat="45.73509" lon="6.70721">
        <ele>2338</ele>
        <time>2026-07-29T11:23:03.716Z</time>
      </trkpt>
      <trkpt lat="45.73509" lon="6.70721">
        <ele>2338</ele>
        <time>2026-07-29T11:23:04.716Z</time>
      </trkpt>
      <trkpt lat="45.73509" lon="6.70721">
        <ele>2338</ele>
        <time>2026-07-29T11:23:05.716Z</time>
      </trkpt>
      <trkpt lat="45.73509" lon="6.70721">
        <ele>2338</ele>
        <time>2026-07-29T11:23:06.716Z</time>
      </trkpt>
      <trkpt lat="45.73509" lon="6.70721">
        <ele>2338</ele>
        <time>2026-07-29T11:23:07.716Z</time>
      </trkpt>
      <trkpt lat="45.73509" lon="6.70721">
        <ele>2338</ele>
        <time>2026-07-29T11:23:08.716Z</time>
      </trkpt>
      <trkpt lat="45.73509" lon="6.70721">
        <ele>2338</ele>
        <time>2026-07-29T11:23:09.716Z</time>
      </trkpt>
      <trkpt lat="45.73509" lon="6.70721">
        <ele>2338</ele>
        <time>2026-07-29T11:23:10.716Z</time>
      </trkpt>
      <trkpt lat="45.73509" lon="6.70721">
        <ele>2338</ele>
        <time>2026-07-29T11:23:11.716Z</time>
      </trkpt>
      <trkpt lat="45.73509" lon="6.70721">
        <ele>2338</ele>
        <time>2026-07-29T11:23:12.716Z</time>
      </trkpt>
      <trkpt lat="45.73509" lon="6.70721">
        <ele>2338</ele>
        <time>2026-07-29T11:23:13.716Z</time>
      </trkpt>
      <trkpt lat="45.73508" lon="6.7072">
        <ele>2338</ele>
        <time>2026-07-29T11:23:14.716Z</time>
      </trkpt>
      <trkpt lat="45.73508" lon="6.70719">
        <ele>2338</ele>
        <time>2026-07-29T11:23:15.716Z</time>
      </trkpt>
      <trkpt lat="45.73507" lon="6.70718">
        <ele>2338</ele>
        <time>2026-07-29T11:23:16.716Z</time>
      </trkpt>
      <trkpt lat="45.73506" lon="6.70716">
        <ele>2338</ele>
        <time>2026-07-29T11:23:17.716Z</time>
      </trkpt>
      <trkpt lat="45.73505" lon="6.70714">
        <ele>2338</ele>
        <time>2026-07-29T11:23:18.716Z</time>
      </trkpt>
      <trkpt lat="45.73505" lon="6.70712">
        <ele>2338</ele>
        <time>2026-07-29T11:23:19.716Z</time>
      </trkpt>
      <trkpt lat="45.73504" lon="6.7071">
        <ele>2338</ele>
        <time>2026-07-29T11:23:20.716Z</time>
      </trkpt>
      <trkpt lat="45.73504" lon="6.70709">
        <ele>2338</ele>
        <time>2026-07-29T11:23:21.716Z</time>
      </trkpt>
      <trkpt lat="45.73503" lon="6.70707">
        <ele>2338</ele>
        <time>2026-07-29T11:23:22.716Z</time>
      </trkpt>
      <trkpt lat="45.73503" lon="6.70706">
        <ele>2338</ele>
        <time>2026-07-29T11:23:23.716Z</time>
      </trkpt>
      <trkpt lat="45.73503" lon="6.70705">
        <ele>2337</ele>
        <time>2026-07-29T11:23:24.716Z</time>
      </trkpt>
      <trkpt lat="45.73503" lon="6.70704">
        <ele>2337</ele>
        <time>2026-07-29T11:23:25.716Z</time>
      </trkpt>
      <trkpt lat="45.73503" lon="6.70703">
        <ele>2337</ele>
        <time>2026-07-29T11:23:26.716Z</time>
      </trkpt>
      <trkpt lat="45.73503" lon="6.70702">
        <ele>2337</ele>
        <time>2026-07-29T11:23:27.716Z</time>
      </trkpt>
      <trkpt lat="45.73503" lon="6.70701">
        <ele>2337</ele>
        <time>2026-07-29T11:23:28.716Z</time>
      </trkpt>
      <trkpt lat="45.73503" lon="6.707">
        <ele>2337</ele>
        <time>2026-07-29T11:23:29.716Z</time>
      </trkpt>
      <trkpt lat="45.73504" lon="6.70699">
        <ele>2337</ele>
        <time>2026-07-29T11:23:30.716Z</time>
      </trkpt>
      <trkpt lat="45.73504" lon="6.70698">
        <ele>2337</ele>
        <time>2026-07-29T11:23:31.716Z</time>
      </trkpt>
      <trkpt lat="45.73504" lon="6.70696">
        <ele>2337</ele>
        <time>2026-07-29T11:23:32.716Z</time>
      </trkpt>
      <trkpt lat="45.73504" lon="6.70695">
        <ele>2337</ele>
        <time>2026-07-29T11:23:33.716Z</time>
      </trkpt>
      <trkpt lat="45.73504" lon="6.70694">
        <ele>2336</ele>
        <time>2026-07-29T11:23:34.716Z</time>
      </trkpt>
      <trkpt lat="45.73504" lon="6.70693">
        <ele>2336</ele>
        <time>2026-07-29T11:23:35.716Z</time>
      </trkpt>
      <trkpt lat="45.73504" lon="6.70692">
        <ele>2336</ele>
        <time>2026-07-29T11:23:36.716Z</time>
      </trkpt>
      <trkpt lat="45.73504" lon="6.70692">
        <ele>2336</ele>
        <time>2026-07-29T11:23:37.716Z</time>
      </trkpt>
      <trkpt lat="45.73505" lon="6.70691">
        <ele>2336</ele>
        <time>2026-07-29T11:23:38.716Z</time>
      </trkpt>
      <trkpt lat="45.73505" lon="6.7069">
        <ele>2335</ele>
        <time>2026-07-29T11:23:39.716Z</time>
      </trkpt>
      <trkpt lat="45.73506" lon="6.70688">
        <ele>2335</ele>
        <time>2026-07-29T11:23:40.716Z</time>
      </trkpt>
      <trkpt lat="45.73507" lon="6.70688">
        <ele>2335</ele>
        <time>2026-07-29T11:23:41.716Z</time>
      </trkpt>
      <trkpt lat="45.73508" lon="6.70687">
        <ele>2335</ele>
        <time>2026-07-29T11:23:42.716Z</time>
      </trkpt>
      <trkpt lat="45.73509" lon="6.70687">
        <ele>2335</ele>
        <time>2026-07-29T11:23:43.716Z</time>
      </trkpt>
      <trkpt lat="45.73509" lon="6.70686">
        <ele>2335</ele>
        <time>2026-07-29T11:23:44.716Z</time>
      </trkpt>
      <trkpt lat="45.7351" lon="6.70685">
        <ele>2335</ele>
        <time>2026-07-29T11:23:45.716Z</time>
      </trkpt>
      <trkpt lat="45.73511" lon="6.70685">
        <ele>2335</ele>
        <time>2026-07-29T11:23:46.716Z</time>
      </trkpt>
      <trkpt lat="45.73512" lon="6.70684">
        <ele>2335</ele>
        <time>2026-07-29T11:23:47.716Z</time>
      </trkpt>
      <trkpt lat="45.73512" lon="6.70683">
        <ele>2336</ele>
        <time>2026-07-29T11:23:48.716Z</time>
      </trkpt>
      <trkpt lat="45.73513" lon="6.70682">
        <ele>2336</ele>
        <time>2026-07-29T11:23:49.716Z</time>
      </trkpt>
      <trkpt lat="45.73514" lon="6.70682">
        <ele>2336</ele>
        <time>2026-07-29T11:23:50.716Z</time>
      </trkpt>
      <trkpt lat="45.73515" lon="6.70681">
        <ele>2336</ele>
        <time>2026-07-29T11:23:51.716Z</time>
      </trkpt>
      <trkpt lat="45.73515" lon="6.7068">
        <ele>2336</ele>
        <time>2026-07-29T11:23:52.716Z</time>
      </trkpt>
      <trkpt lat="45.73516" lon="6.7068">
        <ele>2336</ele>
        <time>2026-07-29T11:23:53.716Z</time>
      </trkpt>
      <trkpt lat="45.73517" lon="6.7068">
        <ele>2336</ele>
        <time>2026-07-29T11:23:54.716Z</time>
      </trkpt>
      <trkpt lat="45.73518" lon="6.70681">
        <ele>2336</ele>
        <time>2026-07-29T11:23:55.716Z</time>
      </trkpt>
      <trkpt lat="45.73518" lon="6.70681">
        <ele>2335</ele>
        <time>2026-07-29T11:23:56.716Z</time>
      </trkpt>
      <trkpt lat="45.73519" lon="6.70681">
        <ele>2335</ele>
        <time>2026-07-29T11:23:57.716Z</time>
      </trkpt>
      <trkpt lat="45.7352" lon="6.70681">
        <ele>2334</ele>
        <time>2026-07-29T11:23:58.716Z</time>
      </trkpt>
      <trkpt lat="45.73521" lon="6.7068">
        <ele>2334</ele>
        <time>2026-07-29T11:23:59.716Z</time>
      </trkpt>
      <trkpt lat="45.73523" lon="6.7068">
        <ele>2334</ele>
        <time>2026-07-29T11:24:00.716Z</time>
      </trkpt>
      <trkpt lat="45.73523" lon="6.7068">
        <ele>2334</ele>
        <time>2026-07-29T11:24:01.716Z</time>
      </trkpt>
      <trkpt lat="45.73524" lon="6.70681">
        <ele>2334</ele>
        <time>2026-07-29T11:24:02.716Z</time>
      </trkpt>
      <trkpt lat="45.73525" lon="6.70682">
        <ele>2333</ele>
        <time>2026-07-29T11:24:03.716Z</time>
      </trkpt>
      <trkpt lat="45.73526" lon="6.70683">
        <ele>2333</ele>
        <time>2026-07-29T11:24:04.716Z</time>
      </trkpt>
      <trkpt lat="45.73527" lon="6.70684">
        <ele>2332</ele>
        <time>2026-07-29T11:24:05.716Z</time>
      </trkpt>
      <trkpt lat="45.73527" lon="6.70685">
        <ele>2332</ele>
        <time>2026-07-29T11:24:06.716Z</time>
      </trkpt>
      <trkpt lat="45.73528" lon="6.70685">
        <ele>2332</ele>
        <time>2026-07-29T11:24:07.716Z</time>
      </trkpt>
      <trkpt lat="45.73529" lon="6.70686">
        <ele>2332</ele>
        <time>2026-07-29T11:24:08.716Z</time>
      </trkpt>
      <trkpt lat="45.7353" lon="6.70687">
        <ele>2332</ele>
        <time>2026-07-29T11:24:09.716Z</time>
      </trkpt>
      <trkpt lat="45.7353" lon="6.70688">
        <ele>2332</ele>
        <time>2026-07-29T11:24:10.716Z</time>
      </trkpt>
      <trkpt lat="45.73531" lon="6.70688">
        <ele>2331</ele>
        <time>2026-07-29T11:24:11.716Z</time>
      </trkpt>
      <trkpt lat="45.73532" lon="6.7069">
        <ele>2330</ele>
        <time>2026-07-29T11:24:12.716Z</time>
      </trkpt>
      <trkpt lat="45.73533" lon="6.70691">
        <ele>2330</ele>
        <time>2026-07-29T11:24:13.716Z</time>
      </trkpt>
      <trkpt lat="45.73533" lon="6.70693">
        <ele>2330</ele>
        <time>2026-07-29T11:24:14.716Z</time>
      </trkpt>
      <trkpt lat="45.73534" lon="6.70694">
        <ele>2329</ele>
        <time>2026-07-29T11:24:15.716Z</time>
      </trkpt>
      <trkpt lat="45.73535" lon="6.70695">
        <ele>2329</ele>
        <time>2026-07-29T11:24:16.716Z</time>
      </trkpt>
      <trkpt lat="45.73536" lon="6.70696">
        <ele>2329</ele>
        <time>2026-07-29T11:24:17.716Z</time>
      </trkpt>
      <trkpt lat="45.73537" lon="6.70697">
        <ele>2329</ele>
        <time>2026-07-29T11:24:18.716Z</time>
      </trkpt>
      <trkpt lat="45.73537" lon="6.70699">
        <ele>2329</ele>
        <time>2026-07-29T11:24:19.716Z</time>
      </trkpt>
      <trkpt lat="45.73538" lon="6.70701">
        <ele>2328</ele>
        <time>2026-07-29T11:24:20.716Z</time>
      </trkpt>
      <trkpt lat="45.73539" lon="6.70702">
        <ele>2328</ele>
        <time>2026-07-29T11:24:21.716Z</time>
      </trkpt>
      <trkpt lat="45.73539" lon="6.70703">
        <ele>2328</ele>
        <time>2026-07-29T11:24:22.716Z</time>
      </trkpt>
      <trkpt lat="45.7354" lon="6.70704">
        <ele>2328</ele>
        <time>2026-07-29T11:24:23.716Z</time>
      </trkpt>
      <trkpt lat="45.73541" lon="6.70705">
        <ele>2328</ele>
        <time>2026-07-29T11:24:24.716Z</time>
      </trkpt>
      <trkpt lat="45.73542" lon="6.70706">
        <ele>2328</ele>
        <time>2026-07-29T11:24:25.716Z</time>
      </trkpt>
      <trkpt lat="45.73543" lon="6.70707">
        <ele>2328</ele>
        <time>2026-07-29T11:24:26.716Z</time>
      </trkpt>
      <trkpt lat="45.73544" lon="6.70708">
        <ele>2328</ele>
        <time>2026-07-29T11:24:27.716Z</time>
      </trkpt>
      <trkpt lat="45.73545" lon="6.70709">
        <ele>2327</ele>
        <time>2026-07-29T11:24:28.716Z</time>
      </trkpt>
      <trkpt lat="45.73546" lon="6.7071">
        <ele>2327</ele>
        <time>2026-07-29T11:24:29.716Z</time>
      </trkpt>
      <trkpt lat="45.73547" lon="6.70711">
        <ele>2327</ele>
        <time>2026-07-29T11:24:30.716Z</time>
      </trkpt>
      <trkpt lat="45.73548" lon="6.70713">
        <ele>2326</ele>
        <time>2026-07-29T11:24:31.716Z</time>
      </trkpt>
      <trkpt lat="45.73549" lon="6.70714">
        <ele>2325</ele>
        <time>2026-07-29T11:24:32.716Z</time>
      </trkpt>
      <trkpt lat="45.73549" lon="6.70715">
        <ele>2325</ele>
        <time>2026-07-29T11:24:33.716Z</time>
      </trkpt>
      <trkpt lat="45.73551" lon="6.70715">
        <ele>2324</ele>
        <time>2026-07-29T11:24:34.716Z</time>
      </trkpt>
      <trkpt lat="45.73552" lon="6.70715">
        <ele>2324</ele>
        <time>2026-07-29T11:24:35.716Z</time>
      </trkpt>
      <trkpt lat="45.73553" lon="6.70715">
        <ele>2324</ele>
        <time>2026-07-29T11:24:36.716Z</time>
      </trkpt>
      <trkpt lat="45.73554" lon="6.70715">
        <ele>2324</ele>
        <time>2026-07-29T11:24:37.716Z</time>
      </trkpt>
      <trkpt lat="45.73556" lon="6.70715">
        <ele>2324</ele>
        <time>2026-07-29T11:24:38.716Z</time>
      </trkpt>
      <trkpt lat="45.73557" lon="6.70715">
        <ele>2324</ele>
        <time>2026-07-29T11:24:39.716Z</time>
      </trkpt>
      <trkpt lat="45.73558" lon="6.70715">
        <ele>2324</ele>
        <time>2026-07-29T11:24:40.716Z</time>
      </trkpt>
      <trkpt lat="45.73559" lon="6.70714">
        <ele>2324</ele>
        <time>2026-07-29T11:24:41.716Z</time>
      </trkpt>
      <trkpt lat="45.7356" lon="6.70714">
        <ele>2323</ele>
        <time>2026-07-29T11:24:42.716Z</time>
      </trkpt>
      <trkpt lat="45.73561" lon="6.70714">
        <ele>2323</ele>
        <time>2026-07-29T11:24:43.716Z</time>
      </trkpt>
      <trkpt lat="45.73562" lon="6.70714">
        <ele>2322</ele>
        <time>2026-07-29T11:24:44.716Z</time>
      </trkpt>
      <trkpt lat="45.73563" lon="6.70714">
        <ele>2321</ele>
        <time>2026-07-29T11:24:45.716Z</time>
      </trkpt>
      <trkpt lat="45.73564" lon="6.70714">
        <ele>2321</ele>
        <time>2026-07-29T11:24:46.716Z</time>
      </trkpt>
      <trkpt lat="45.73566" lon="6.70714">
        <ele>2320</ele>
        <time>2026-07-29T11:24:47.716Z</time>
      </trkpt>
      <trkpt lat="45.73567" lon="6.70713">
        <ele>2320</ele>
        <time>2026-07-29T11:24:48.716Z</time>
      </trkpt>
      <trkpt lat="45.73568" lon="6.70714">
        <ele>2320</ele>
        <time>2026-07-29T11:24:49.716Z</time>
      </trkpt>
      <trkpt lat="45.73569" lon="6.70713">
        <ele>2320</ele>
        <time>2026-07-29T11:24:50.716Z</time>
      </trkpt>
      <trkpt lat="45.73571" lon="6.70714">
        <ele>2319</ele>
        <time>2026-07-29T11:24:51.716Z</time>
      </trkpt>
      <trkpt lat="45.73572" lon="6.70715">
        <ele>2319</ele>
        <time>2026-07-29T11:24:52.716Z</time>
      </trkpt>
      <trkpt lat="45.73573" lon="6.70716">
        <ele>2318</ele>
        <time>2026-07-29T11:24:53.716Z</time>
      </trkpt>
      <trkpt lat="45.73575" lon="6.70717">
        <ele>2318</ele>
        <time>2026-07-29T11:24:54.716Z</time>
      </trkpt>
      <trkpt lat="45.73577" lon="6.70718">
        <ele>2317</ele>
        <time>2026-07-29T11:24:55.716Z</time>
      </trkpt>
      <trkpt lat="45.73578" lon="6.70718">
        <ele>2317</ele>
        <time>2026-07-29T11:24:56.716Z</time>
      </trkpt>
      <trkpt lat="45.7358" lon="6.70718">
        <ele>2316</ele>
        <time>2026-07-29T11:24:57.716Z</time>
      </trkpt>
      <trkpt lat="45.73581" lon="6.70719">
        <ele>2316</ele>
        <time>2026-07-29T11:24:58.716Z</time>
      </trkpt>
      <trkpt lat="45.73581" lon="6.70719">
        <ele>2315</ele>
        <time>2026-07-29T11:24:59.716Z</time>
      </trkpt>
      <trkpt lat="45.73583" lon="6.7072">
        <ele>2315</ele>
        <time>2026-07-29T11:25:00.716Z</time>
      </trkpt>
      <trkpt lat="45.73584" lon="6.70721">
        <ele>2314</ele>
        <time>2026-07-29T11:25:01.716Z</time>
      </trkpt>
      <trkpt lat="45.73584" lon="6.70722">
        <ele>2314</ele>
        <time>2026-07-29T11:25:02.716Z</time>
      </trkpt>
      <trkpt lat="45.73586" lon="6.70723">
        <ele>2314</ele>
        <time>2026-07-29T11:25:03.716Z</time>
      </trkpt>
      <trkpt lat="45.73586" lon="6.70724">
        <ele>2314</ele>
        <time>2026-07-29T11:25:04.716Z</time>
      </trkpt>
      <trkpt lat="45.73587" lon="6.70725">
        <ele>2313</ele>
        <time>2026-07-29T11:25:05.716Z</time>
      </trkpt>
      <trkpt lat="45.73588" lon="6.70726">
        <ele>2313</ele>
        <time>2026-07-29T11:25:06.716Z</time>
      </trkpt>
      <trkpt lat="45.73588" lon="6.70728">
        <ele>2313</ele>
        <time>2026-07-29T11:25:07.716Z</time>
      </trkpt>
      <trkpt lat="45.73589" lon="6.70729">
        <ele>2313</ele>
        <time>2026-07-29T11:25:08.716Z</time>
      </trkpt>
      <trkpt lat="45.7359" lon="6.7073">
        <ele>2313</ele>
        <time>2026-07-29T11:25:09.716Z</time>
      </trkpt>
      <trkpt lat="45.7359" lon="6.7073">
        <ele>2312</ele>
        <time>2026-07-29T11:25:10.716Z</time>
      </trkpt>
      <trkpt lat="45.73591" lon="6.70731">
        <ele>2312</ele>
        <time>2026-07-29T11:25:11.716Z</time>
      </trkpt>
      <trkpt lat="45.73592" lon="6.70732">
        <ele>2311</ele>
        <time>2026-07-29T11:25:12.716Z</time>
      </trkpt>
      <trkpt lat="45.73593" lon="6.70733">
        <ele>2311</ele>
        <time>2026-07-29T11:25:13.716Z</time>
      </trkpt>
      <trkpt lat="45.73594" lon="6.70733">
        <ele>2310</ele>
        <time>2026-07-29T11:25:14.716Z</time>
      </trkpt>
      <trkpt lat="45.73595" lon="6.70734">
        <ele>2310</ele>
        <time>2026-07-29T11:25:15.716Z</time>
      </trkpt>
      <trkpt lat="45.73595" lon="6.70734">
        <ele>2309</ele>
        <time>2026-07-29T11:25:16.716Z</time>
      </trkpt>
      <trkpt lat="45.73596" lon="6.70735">
        <ele>2309</ele>
        <time>2026-07-29T11:25:17.716Z</time>
      </trkpt>
      <trkpt lat="45.73597" lon="6.70736">
        <ele>2308</ele>
        <time>2026-07-29T11:25:18.716Z</time>
      </trkpt>
      <trkpt lat="45.73597" lon="6.70736">
        <ele>2308</ele>
        <time>2026-07-29T11:25:19.716Z</time>
      </trkpt>
      <trkpt lat="45.73598" lon="6.70736">
        <ele>2308</ele>
        <time>2026-07-29T11:25:20.716Z</time>
      </trkpt>
      <trkpt lat="45.73598" lon="6.70736">
        <ele>2308</ele>
        <time>2026-07-29T11:25:21.716Z</time>
      </trkpt>
      <trkpt lat="45.73598" lon="6.70736">
        <ele>2308</ele>
        <time>2026-07-29T11:25:22.716Z</time>
      </trkpt>
      <trkpt lat="45.73598" lon="6.70736">
        <ele>2308</ele>
        <time>2026-07-29T11:25:23.716Z</time>
      </trkpt>
      <trkpt lat="45.73599" lon="6.70737">
        <ele>2308</ele>
        <time>2026-07-29T11:25:24.716Z</time>
      </trkpt>
      <trkpt lat="45.73599" lon="6.70737">
        <ele>2308</ele>
        <time>2026-07-29T11:25:25.716Z</time>
      </trkpt>
      <trkpt lat="45.73599" lon="6.70737">
        <ele>2308</ele>
        <time>2026-07-29T11:25:26.716Z</time>
      </trkpt>
      <trkpt lat="45.73599" lon="6.70737">
        <ele>2307</ele>
        <time>2026-07-29T11:25:27.716Z</time>
      </trkpt>
      <trkpt lat="45.73599" lon="6.70737">
        <ele>2307</ele>
        <time>2026-07-29T11:25:28.716Z</time>
      </trkpt>
      <trkpt lat="45.73599" lon="6.70737">
        <ele>2307</ele>
        <time>2026-07-29T11:25:29.716Z</time>
      </trkpt>
      <trkpt lat="45.736" lon="6.70738">
        <ele>2306</ele>
        <time>2026-07-29T11:25:30.716Z</time>
      </trkpt>
      <trkpt lat="45.736" lon="6.70738">
        <ele>2306</ele>
        <time>2026-07-29T11:25:31.716Z</time>
      </trkpt>
      <trkpt lat="45.736" lon="6.70738">
        <ele>2306</ele>
        <time>2026-07-29T11:25:32.716Z</time>
      </trkpt>
      <trkpt lat="45.73601" lon="6.70738">
        <ele>2306</ele>
        <time>2026-07-29T11:25:33.716Z</time>
      </trkpt>
      <trkpt lat="45.73601" lon="6.70739">
        <ele>2306</ele>
        <time>2026-07-29T11:25:34.716Z</time>
      </trkpt>
      <trkpt lat="45.73602" lon="6.70739">
        <ele>2306</ele>
        <time>2026-07-29T11:25:35.716Z</time>
      </trkpt>
      <trkpt lat="45.73603" lon="6.7074">
        <ele>2306</ele>
        <time>2026-07-29T11:25:36.716Z</time>
      </trkpt>
      <trkpt lat="45.73604" lon="6.7074">
        <ele>2306</ele>
        <time>2026-07-29T11:25:37.716Z</time>
      </trkpt>
      <trkpt lat="45.73605" lon="6.7074">
        <ele>2306</ele>
        <time>2026-07-29T11:25:38.716Z</time>
      </trkpt>
      <trkpt lat="45.73606" lon="6.70741">
        <ele>2306</ele>
        <time>2026-07-29T11:25:39.716Z</time>
      </trkpt>
      <trkpt lat="45.73606" lon="6.70742">
        <ele>2305</ele>
        <time>2026-07-29T11:25:40.716Z</time>
      </trkpt>
      <trkpt lat="45.73607" lon="6.70743">
        <ele>2305</ele>
        <time>2026-07-29T11:25:41.716Z</time>
      </trkpt>
      <trkpt lat="45.73608" lon="6.70745">
        <ele>2305</ele>
        <time>2026-07-29T11:25:42.716Z</time>
      </trkpt>
      <trkpt lat="45.73608" lon="6.70746">
        <ele>2304</ele>
        <time>2026-07-29T11:25:43.716Z</time>
      </trkpt>
      <trkpt lat="45.7361" lon="6.70747">
        <ele>2304</ele>
        <time>2026-07-29T11:25:44.716Z</time>
      </trkpt>
      <trkpt lat="45.73611" lon="6.70747">
        <ele>2304</ele>
        <time>2026-07-29T11:25:45.716Z</time>
      </trkpt>
      <trkpt lat="45.73612" lon="6.70747">
        <ele>2304</ele>
        <time>2026-07-29T11:25:46.716Z</time>
      </trkpt>
      <trkpt lat="45.73614" lon="6.70747">
        <ele>2304</ele>
        <time>2026-07-29T11:25:47.716Z</time>
      </trkpt>
      <trkpt lat="45.73615" lon="6.70747">
        <ele>2305</ele>
        <time>2026-07-29T11:25:48.716Z</time>
      </trkpt>
      <trkpt lat="45.73616" lon="6.70748">
        <ele>2305</ele>
        <time>2026-07-29T11:25:49.716Z</time>
      </trkpt>
      <trkpt lat="45.73618" lon="6.70749">
        <ele>2305</ele>
        <time>2026-07-29T11:25:50.716Z</time>
      </trkpt>
      <trkpt lat="45.73619" lon="6.70751">
        <ele>2305</ele>
        <time>2026-07-29T11:25:51.716Z</time>
      </trkpt>
      <trkpt lat="45.7362" lon="6.70752">
        <ele>2304</ele>
        <time>2026-07-29T11:25:52.716Z</time>
      </trkpt>
      <trkpt lat="45.73621" lon="6.70753">
        <ele>2303</ele>
        <time>2026-07-29T11:25:53.716Z</time>
      </trkpt>
      <trkpt lat="45.73622" lon="6.70753">
        <ele>2303</ele>
        <time>2026-07-29T11:25:54.716Z</time>
      </trkpt>
      <trkpt lat="45.73622" lon="6.70754">
        <ele>2302</ele>
        <time>2026-07-29T11:25:55.716Z</time>
      </trkpt>
      <trkpt lat="45.73623" lon="6.70754">
        <ele>2302</ele>
        <time>2026-07-29T11:25:56.716Z</time>
      </trkpt>
      <trkpt lat="45.73623" lon="6.70754">
        <ele>2302</ele>
        <time>2026-07-29T11:25:57.716Z</time>
      </trkpt>
      <trkpt lat="45.73624" lon="6.70754">
        <ele>2302</ele>
        <time>2026-07-29T11:25:58.716Z</time>
      </trkpt>
      <trkpt lat="45.73624" lon="6.70754">
        <ele>2302</ele>
        <time>2026-07-29T11:25:59.716Z</time>
      </trkpt>
      <trkpt lat="45.73625" lon="6.70754">
        <ele>2302</ele>
        <time>2026-07-29T11:26:00.716Z</time>
      </trkpt>
      <trkpt lat="45.73625" lon="6.70755">
        <ele>2302</ele>
        <time>2026-07-29T11:26:01.716Z</time>
      </trkpt>
      <trkpt lat="45.73626" lon="6.70755">
        <ele>2301</ele>
        <time>2026-07-29T11:26:02.716Z</time>
      </trkpt>
      <trkpt lat="45.73627" lon="6.70756">
        <ele>2301</ele>
        <time>2026-07-29T11:26:03.716Z</time>
      </trkpt>
      <trkpt lat="45.73627" lon="6.70756">
        <ele>2301</ele>
        <time>2026-07-29T11:26:04.716Z</time>
      </trkpt>
      <trkpt lat="45.73628" lon="6.70757">
        <ele>2300</ele>
        <time>2026-07-29T11:26:05.716Z</time>
      </trkpt>
      <trkpt lat="45.73629" lon="6.70758">
        <ele>2300</ele>
        <time>2026-07-29T11:26:06.716Z</time>
      </trkpt>
      <trkpt lat="45.7363" lon="6.70758">
        <ele>2299</ele>
        <time>2026-07-29T11:26:07.716Z</time>
      </trkpt>
      <trkpt lat="45.73631" lon="6.70759">
        <ele>2298</ele>
        <time>2026-07-29T11:26:08.716Z</time>
      </trkpt>
      <trkpt lat="45.73632" lon="6.7076">
        <ele>2297</ele>
        <time>2026-07-29T11:26:09.716Z</time>
      </trkpt>
      <trkpt lat="45.73633" lon="6.70761">
        <ele>2296</ele>
        <time>2026-07-29T11:26:10.716Z</time>
      </trkpt>
      <trkpt lat="45.73634" lon="6.70761">
        <ele>2296</ele>
        <time>2026-07-29T11:26:11.716Z</time>
      </trkpt>
      <trkpt lat="45.73635" lon="6.70762">
        <ele>2295</ele>
        <time>2026-07-29T11:26:12.716Z</time>
      </trkpt>
      <trkpt lat="45.73636" lon="6.70763">
        <ele>2295</ele>
        <time>2026-07-29T11:26:13.716Z</time>
      </trkpt>
      <trkpt lat="45.73637" lon="6.70763">
        <ele>2295</ele>
        <time>2026-07-29T11:26:14.716Z</time>
      </trkpt>
      <trkpt lat="45.73638" lon="6.70764">
        <ele>2295</ele>
        <time>2026-07-29T11:26:15.716Z</time>
      </trkpt>
      <trkpt lat="45.73638" lon="6.70764">
        <ele>2294</ele>
        <time>2026-07-29T11:26:16.716Z</time>
      </trkpt>
      <trkpt lat="45.73639" lon="6.70765">
        <ele>2294</ele>
        <time>2026-07-29T11:26:17.716Z</time>
      </trkpt>
      <trkpt lat="45.73641" lon="6.70766">
        <ele>2294</ele>
        <time>2026-07-29T11:26:18.716Z</time>
      </trkpt>
      <trkpt lat="45.73642" lon="6.70766">
        <ele>2293</ele>
        <time>2026-07-29T11:26:19.716Z</time>
      </trkpt>
      <trkpt lat="45.73643" lon="6.70767">
        <ele>2293</ele>
        <time>2026-07-29T11:26:20.716Z</time>
      </trkpt>
      <trkpt lat="45.73643" lon="6.70768">
        <ele>2293</ele>
        <time>2026-07-29T11:26:21.716Z</time>
      </trkpt>
      <trkpt lat="45.73644" lon="6.70768">
        <ele>2292</ele>
        <time>2026-07-29T11:26:22.716Z</time>
      </trkpt>
      <trkpt lat="45.73645" lon="6.70769">
        <ele>2292</ele>
        <time>2026-07-29T11:26:23.716Z</time>
      </trkpt>
      <trkpt lat="45.73647" lon="6.70769">
        <ele>2292</ele>
        <time>2026-07-29T11:26:24.716Z</time>
      </trkpt>
      <trkpt lat="45.73648" lon="6.7077">
        <ele>2291</ele>
        <time>2026-07-29T11:26:25.716Z</time>
      </trkpt>
      <trkpt lat="45.73649" lon="6.70771">
        <ele>2291</ele>
        <time>2026-07-29T11:26:26.716Z</time>
      </trkpt>
      <trkpt lat="45.7365" lon="6.70771">
        <ele>2291</ele>
        <time>2026-07-29T11:26:27.716Z</time>
      </trkpt>
      <trkpt lat="45.73651" lon="6.70772">
        <ele>2291</ele>
        <time>2026-07-29T11:26:28.716Z</time>
      </trkpt>
      <trkpt lat="45.73652" lon="6.70772">
        <ele>2291</ele>
        <time>2026-07-29T11:26:29.716Z</time>
      </trkpt>
      <trkpt lat="45.73653" lon="6.70773">
        <ele>2290</ele>
        <time>2026-07-29T11:26:30.716Z</time>
      </trkpt>
      <trkpt lat="45.73655" lon="6.70774">
        <ele>2290</ele>
        <time>2026-07-29T11:26:31.716Z</time>
      </trkpt>
      <trkpt lat="45.73656" lon="6.70774">
        <ele>2290</ele>
        <time>2026-07-29T11:26:32.716Z</time>
      </trkpt>
      <trkpt lat="45.73657" lon="6.70775">
        <ele>2290</ele>
        <time>2026-07-29T11:26:33.716Z</time>
      </trkpt>
      <trkpt lat="45.73659" lon="6.70775">
        <ele>2289</ele>
        <time>2026-07-29T11:26:34.716Z</time>
      </trkpt>
      <trkpt lat="45.7366" lon="6.70775">
        <ele>2289</ele>
        <time>2026-07-29T11:26:35.716Z</time>
      </trkpt>
      <trkpt lat="45.73661" lon="6.70776">
        <ele>2289</ele>
        <time>2026-07-29T11:26:36.716Z</time>
      </trkpt>
      <trkpt lat="45.73662" lon="6.70776">
        <ele>2288</ele>
        <time>2026-07-29T11:26:37.716Z</time>
      </trkpt>
      <trkpt lat="45.73663" lon="6.70776">
        <ele>2287</ele>
        <time>2026-07-29T11:26:38.716Z</time>
      </trkpt>
      <trkpt lat="45.73665" lon="6.70776">
        <ele>2287</ele>
        <time>2026-07-29T11:26:39.716Z</time>
      </trkpt>
      <trkpt lat="45.73666" lon="6.70777">
        <ele>2286</ele>
        <time>2026-07-29T11:26:40.716Z</time>
      </trkpt>
      <trkpt lat="45.73667" lon="6.70777">
        <ele>2286</ele>
        <time>2026-07-29T11:26:41.716Z</time>
      </trkpt>
      <trkpt lat="45.73669" lon="6.70776">
        <ele>2286</ele>
        <time>2026-07-29T11:26:42.716Z</time>
      </trkpt>
      <trkpt lat="45.7367" lon="6.70776">
        <ele>2286</ele>
        <time>2026-07-29T11:26:43.716Z</time>
      </trkpt>
      <trkpt lat="45.73671" lon="6.70775">
        <ele>2286</ele>
        <time>2026-07-29T11:26:44.716Z</time>
      </trkpt>
      <trkpt lat="45.73673" lon="6.70775">
        <ele>2286</ele>
        <time>2026-07-29T11:26:45.716Z</time>
      </trkpt>
      <trkpt lat="45.73675" lon="6.70774">
        <ele>2286</ele>
        <time>2026-07-29T11:26:46.716Z</time>
      </trkpt>
      <trkpt lat="45.73677" lon="6.70774">
        <ele>2286</ele>
        <time>2026-07-29T11:26:47.716Z</time>
      </trkpt>
      <trkpt lat="45.73679" lon="6.70773">
        <ele>2286</ele>
        <time>2026-07-29T11:26:48.716Z</time>
      </trkpt>
      <trkpt lat="45.73681" lon="6.70773">
        <ele>2286</ele>
        <time>2026-07-29T11:26:49.716Z</time>
      </trkpt>
      <trkpt lat="45.73683" lon="6.70773">
        <ele>2286</ele>
        <time>2026-07-29T11:26:50.716Z</time>
      </trkpt>
      <trkpt lat="45.73684" lon="6.70772">
        <ele>2286</ele>
        <time>2026-07-29T11:26:51.716Z</time>
      </trkpt>
      <trkpt lat="45.73686" lon="6.70772">
        <ele>2286</ele>
        <time>2026-07-29T11:26:52.716Z</time>
      </trkpt>
      <trkpt lat="45.73689" lon="6.70772">
        <ele>2285</ele>
        <time>2026-07-29T11:26:53.716Z</time>
      </trkpt>
      <trkpt lat="45.73691" lon="6.70772">
        <ele>2285</ele>
        <time>2026-07-29T11:26:54.716Z</time>
      </trkpt>
      <trkpt lat="45.73693" lon="6.70771">
        <ele>2285</ele>
        <time>2026-07-29T11:26:55.716Z</time>
      </trkpt>
      <trkpt lat="45.73695" lon="6.70771">
        <ele>2284</ele>
        <time>2026-07-29T11:26:56.716Z</time>
      </trkpt>
      <trkpt lat="45.73697" lon="6.7077">
        <ele>2284</ele>
        <time>2026-07-29T11:26:57.716Z</time>
      </trkpt>
      <trkpt lat="45.73699" lon="6.7077">
        <ele>2284</ele>
        <time>2026-07-29T11:26:58.716Z</time>
      </trkpt>
      <trkpt lat="45.73701" lon="6.70769">
        <ele>2283</ele>
        <time>2026-07-29T11:26:59.716Z</time>
      </trkpt>
      <trkpt lat="45.73703" lon="6.70769">
        <ele>2283</ele>
        <time>2026-07-29T11:27:00.716Z</time>
      </trkpt>
      <trkpt lat="45.73705" lon="6.70768">
        <ele>2282</ele>
        <time>2026-07-29T11:27:01.716Z</time>
      </trkpt>
      <trkpt lat="45.73707" lon="6.70768">
        <ele>2281</ele>
        <time>2026-07-29T11:27:02.716Z</time>
      </trkpt>
      <trkpt lat="45.73709" lon="6.70767">
        <ele>2281</ele>
        <time>2026-07-29T11:27:03.716Z</time>
      </trkpt>
      <trkpt lat="45.73711" lon="6.70766">
        <ele>2280</ele>
        <time>2026-07-29T11:27:04.716Z</time>
      </trkpt>
      <trkpt lat="45.73714" lon="6.70766">
        <ele>2280</ele>
        <time>2026-07-29T11:27:05.716Z</time>
      </trkpt>
      <trkpt lat="45.73715" lon="6.70765">
        <ele>2280</ele>
        <time>2026-07-29T11:27:06.716Z</time>
      </trkpt>
      <trkpt lat="45.73717" lon="6.70764">
        <ele>2280</ele>
        <time>2026-07-29T11:27:07.716Z</time>
      </trkpt>
      <trkpt lat="45.73719" lon="6.70763">
        <ele>2280</ele>
        <time>2026-07-29T11:27:08.716Z</time>
      </trkpt>
      <trkpt lat="45.73721" lon="6.70763">
        <ele>2279</ele>
        <time>2026-07-29T11:27:09.716Z</time>
      </trkpt>
      <trkpt lat="45.73722" lon="6.70762">
        <ele>2279</ele>
        <time>2026-07-29T11:27:10.716Z</time>
      </trkpt>
      <trkpt lat="45.73724" lon="6.70762">
        <ele>2278</ele>
        <time>2026-07-29T11:27:11.716Z</time>
      </trkpt>
      <trkpt lat="45.73726" lon="6.70762">
        <ele>2278</ele>
        <time>2026-07-29T11:27:12.716Z</time>
      </trkpt>
      <trkpt lat="45.73727" lon="6.70762">
        <ele>2278</ele>
        <time>2026-07-29T11:27:13.716Z</time>
      </trkpt>
      <trkpt lat="45.73729" lon="6.70762">
        <ele>2277</ele>
        <time>2026-07-29T11:27:14.716Z</time>
      </trkpt>
      <trkpt lat="45.73731" lon="6.70763">
        <ele>2277</ele>
        <time>2026-07-29T11:27:15.716Z</time>
      </trkpt>
      <trkpt lat="45.73732" lon="6.70764">
        <ele>2277</ele>
        <time>2026-07-29T11:27:16.716Z</time>
      </trkpt>
      <trkpt lat="45.73733" lon="6.70765">
        <ele>2276</ele>
        <time>2026-07-29T11:27:17.716Z</time>
      </trkpt>
      <trkpt lat="45.73734" lon="6.70766">
        <ele>2275</ele>
        <time>2026-07-29T11:27:18.716Z</time>
      </trkpt>
      <trkpt lat="45.73735" lon="6.70767">
        <ele>2275</ele>
        <time>2026-07-29T11:27:19.716Z</time>
      </trkpt>
      <trkpt lat="45.73736" lon="6.70768">
        <ele>2275</ele>
        <time>2026-07-29T11:27:20.716Z</time>
      </trkpt>
      <trkpt lat="45.73738" lon="6.70769">
        <ele>2276</ele>
        <time>2026-07-29T11:27:21.716Z</time>
      </trkpt>
      <trkpt lat="45.73739" lon="6.7077">
        <ele>2276</ele>
        <time>2026-07-29T11:27:22.716Z</time>
      </trkpt>
      <trkpt lat="45.73741" lon="6.70771">
        <ele>2276</ele>
        <time>2026-07-29T11:27:23.716Z</time>
      </trkpt>
      <trkpt lat="45.73742" lon="6.70772">
        <ele>2275</ele>
        <time>2026-07-29T11:27:24.716Z</time>
      </trkpt>
      <trkpt lat="45.73743" lon="6.70773">
        <ele>2274</ele>
        <time>2026-07-29T11:27:25.716Z</time>
      </trkpt>
      <trkpt lat="45.73743" lon="6.70774">
        <ele>2274</ele>
        <time>2026-07-29T11:27:26.716Z</time>
      </trkpt>
      <trkpt lat="45.73744" lon="6.70775">
        <ele>2274</ele>
        <time>2026-07-29T11:27:27.716Z</time>
      </trkpt>
      <trkpt lat="45.73745" lon="6.70776">
        <ele>2273</ele>
        <time>2026-07-29T11:27:28.716Z</time>
      </trkpt>
      <trkpt lat="45.73746" lon="6.70777">
        <ele>2273</ele>
        <time>2026-07-29T11:27:29.716Z</time>
      </trkpt>
      <trkpt lat="45.73747" lon="6.70778">
        <ele>2272</ele>
        <time>2026-07-29T11:27:30.716Z</time>
      </trkpt>
      <trkpt lat="45.73748" lon="6.7078">
        <ele>2272</ele>
        <time>2026-07-29T11:27:31.716Z</time>
      </trkpt>
      <trkpt lat="45.7375" lon="6.70781">
        <ele>2272</ele>
        <time>2026-07-29T11:27:32.716Z</time>
      </trkpt>
      <trkpt lat="45.73751" lon="6.70782">
        <ele>2272</ele>
        <time>2026-07-29T11:27:33.716Z</time>
      </trkpt>
      <trkpt lat="45.73752" lon="6.70783">
        <ele>2271</ele>
        <time>2026-07-29T11:27:34.716Z</time>
      </trkpt>
      <trkpt lat="45.73754" lon="6.70784">
        <ele>2271</ele>
        <time>2026-07-29T11:27:35.716Z</time>
      </trkpt>
      <trkpt lat="45.73755" lon="6.70785">
        <ele>2271</ele>
        <time>2026-07-29T11:27:36.716Z</time>
      </trkpt>
      <trkpt lat="45.73757" lon="6.70786">
        <ele>2270</ele>
        <time>2026-07-29T11:27:37.716Z</time>
      </trkpt>
      <trkpt lat="45.73758" lon="6.70787">
        <ele>2270</ele>
        <time>2026-07-29T11:27:38.716Z</time>
      </trkpt>
      <trkpt lat="45.73759" lon="6.70787">
        <ele>2270</ele>
        <time>2026-07-29T11:27:39.716Z</time>
      </trkpt>
      <trkpt lat="45.7376" lon="6.70786">
        <ele>2270</ele>
        <time>2026-07-29T11:27:40.716Z</time>
      </trkpt>
      <trkpt lat="45.73761" lon="6.70785">
        <ele>2269</ele>
        <time>2026-07-29T11:27:41.716Z</time>
      </trkpt>
      <trkpt lat="45.73762" lon="6.70784">
        <ele>2269</ele>
        <time>2026-07-29T11:27:42.716Z</time>
      </trkpt>
      <trkpt lat="45.73764" lon="6.70783">
        <ele>2268</ele>
        <time>2026-07-29T11:27:43.716Z</time>
      </trkpt>
      <trkpt lat="45.73765" lon="6.70783">
        <ele>2268</ele>
        <time>2026-07-29T11:27:44.716Z</time>
      </trkpt>
      <trkpt lat="45.73766" lon="6.70783">
        <ele>2267</ele>
        <time>2026-07-29T11:27:45.716Z</time>
      </trkpt>
      <trkpt lat="45.73766" lon="6.70783">
        <ele>2266</ele>
        <time>2026-07-29T11:27:46.716Z</time>
      </trkpt>
      <trkpt lat="45.73766" lon="6.70783">
        <ele>2266</ele>
        <time>2026-07-29T11:27:47.716Z</time>
      </trkpt>
      <trkpt lat="45.73766" lon="6.70783">
        <ele>2265</ele>
        <time>2026-07-29T11:27:48.716Z</time>
      </trkpt>
      <trkpt lat="45.73766" lon="6.70783">
        <ele>2265</ele>
        <time>2026-07-29T11:27:49.716Z</time>
      </trkpt>
      <trkpt lat="45.73766" lon="6.70783">
        <ele>2264</ele>
        <time>2026-07-29T11:27:50.716Z</time>
      </trkpt>
      <trkpt lat="45.73766" lon="6.70783">
        <ele>2264</ele>
        <time>2026-07-29T11:27:51.716Z</time>
      </trkpt>
      <trkpt lat="45.73766" lon="6.70783">
        <ele>2264</ele>
        <time>2026-07-29T11:27:52.716Z</time>
      </trkpt>
      <trkpt lat="45.73766" lon="6.70783">
        <ele>2264</ele>
        <time>2026-07-29T11:27:53.716Z</time>
      </trkpt>
      <trkpt lat="45.73766" lon="6.70783">
        <ele>2264</ele>
        <time>2026-07-29T11:27:54.716Z</time>
      </trkpt>
      <trkpt lat="45.73767" lon="6.70783">
        <ele>2264</ele>
        <time>2026-07-29T11:27:55.716Z</time>
      </trkpt>
      <trkpt lat="45.73768" lon="6.70783">
        <ele>2264</ele>
        <time>2026-07-29T11:27:56.716Z</time>
      </trkpt>
      <trkpt lat="45.73769" lon="6.70784">
        <ele>2265</ele>
        <time>2026-07-29T11:27:57.716Z</time>
      </trkpt>
      <trkpt lat="45.7377" lon="6.70786">
        <ele>2265</ele>
        <time>2026-07-29T11:27:58.716Z</time>
      </trkpt>
      <trkpt lat="45.73771" lon="6.70787">
        <ele>2265</ele>
        <time>2026-07-29T11:27:59.716Z</time>
      </trkpt>
      <trkpt lat="45.73772" lon="6.70789">
        <ele>2265</ele>
        <time>2026-07-29T11:28:00.716Z</time>
      </trkpt>
      <trkpt lat="45.73773" lon="6.70791">
        <ele>2265</ele>
        <time>2026-07-29T11:28:01.716Z</time>
      </trkpt>
      <trkpt lat="45.73774" lon="6.70793">
        <ele>2265</ele>
        <time>2026-07-29T11:28:02.716Z</time>
      </trkpt>
      <trkpt lat="45.73774" lon="6.70796">
        <ele>2266</ele>
        <time>2026-07-29T11:28:03.716Z</time>
      </trkpt>
      <trkpt lat="45.73775" lon="6.70797">
        <ele>2266</ele>
        <time>2026-07-29T11:28:04.716Z</time>
      </trkpt>
      <trkpt lat="45.73776" lon="6.70799">
        <ele>2266</ele>
        <time>2026-07-29T11:28:05.716Z</time>
      </trkpt>
      <trkpt lat="45.73777" lon="6.708">
        <ele>2265</ele>
        <time>2026-07-29T11:28:06.716Z</time>
      </trkpt>
      <trkpt lat="45.73778" lon="6.70801">
        <ele>2265</ele>
        <time>2026-07-29T11:28:07.716Z</time>
      </trkpt>
      <trkpt lat="45.73778" lon="6.70803">
        <ele>2265</ele>
        <time>2026-07-29T11:28:08.716Z</time>
      </trkpt>
      <trkpt lat="45.73778" lon="6.70804">
        <ele>2264</ele>
        <time>2026-07-29T11:28:09.716Z</time>
      </trkpt>
      <trkpt lat="45.73779" lon="6.70806">
        <ele>2264</ele>
        <time>2026-07-29T11:28:10.716Z</time>
      </trkpt>
      <trkpt lat="45.7378" lon="6.70807">
        <ele>2263</ele>
        <time>2026-07-29T11:28:11.716Z</time>
      </trkpt>
      <trkpt lat="45.73781" lon="6.70808">
        <ele>2263</ele>
        <time>2026-07-29T11:28:12.716Z</time>
      </trkpt>
      <trkpt lat="45.73782" lon="6.7081">
        <ele>2263</ele>
        <time>2026-07-29T11:28:13.716Z</time>
      </trkpt>
      <trkpt lat="45.73782" lon="6.70811">
        <ele>2262</ele>
        <time>2026-07-29T11:28:14.716Z</time>
      </trkpt>
      <trkpt lat="45.73783" lon="6.70813">
        <ele>2262</ele>
        <time>2026-07-29T11:28:15.716Z</time>
      </trkpt>
      <trkpt lat="45.73784" lon="6.70815">
        <ele>2261</ele>
        <time>2026-07-29T11:28:16.716Z</time>
      </trkpt>
      <trkpt lat="45.73784" lon="6.70817">
        <ele>2261</ele>
        <time>2026-07-29T11:28:17.716Z</time>
      </trkpt>
      <trkpt lat="45.73784" lon="6.70819">
        <ele>2260</ele>
        <time>2026-07-29T11:28:18.716Z</time>
      </trkpt>
      <trkpt lat="45.73785" lon="6.70821">
        <ele>2260</ele>
        <time>2026-07-29T11:28:19.716Z</time>
      </trkpt>
      <trkpt lat="45.73785" lon="6.70823">
        <ele>2260</ele>
        <time>2026-07-29T11:28:20.716Z</time>
      </trkpt>
      <trkpt lat="45.73786" lon="6.70825">
        <ele>2259</ele>
        <time>2026-07-29T11:28:21.716Z</time>
      </trkpt>
      <trkpt lat="45.73786" lon="6.70826">
        <ele>2258</ele>
        <time>2026-07-29T11:28:22.716Z</time>
      </trkpt>
      <trkpt lat="45.73787" lon="6.70828">
        <ele>2258</ele>
        <time>2026-07-29T11:28:23.716Z</time>
      </trkpt>
      <trkpt lat="45.73787" lon="6.7083">
        <ele>2258</ele>
        <time>2026-07-29T11:28:24.716Z</time>
      </trkpt>
      <trkpt lat="45.73787" lon="6.70832">
        <ele>2257</ele>
        <time>2026-07-29T11:28:25.716Z</time>
      </trkpt>
      <trkpt lat="45.73787" lon="6.70833">
        <ele>2257</ele>
        <time>2026-07-29T11:28:26.716Z</time>
      </trkpt>
      <trkpt lat="45.73787" lon="6.70834">
        <ele>2257</ele>
        <time>2026-07-29T11:28:27.716Z</time>
      </trkpt>
      <trkpt lat="45.73786" lon="6.70835">
        <ele>2257</ele>
        <time>2026-07-29T11:28:28.716Z</time>
      </trkpt>
      <trkpt lat="45.73785" lon="6.70837">
        <ele>2257</ele>
        <time>2026-07-29T11:28:29.716Z</time>
      </trkpt>
      <trkpt lat="45.73783" lon="6.70838">
        <ele>2256</ele>
        <time>2026-07-29T11:28:30.716Z</time>
      </trkpt>
      <trkpt lat="45.73782" lon="6.7084">
        <ele>2256</ele>
        <time>2026-07-29T11:28:31.716Z</time>
      </trkpt>
      <trkpt lat="45.73781" lon="6.70841">
        <ele>2255</ele>
        <time>2026-07-29T11:28:32.716Z</time>
      </trkpt>
      <trkpt lat="45.73779" lon="6.70841">
        <ele>2255</ele>
        <time>2026-07-29T11:28:33.716Z</time>
      </trkpt>
      <trkpt lat="45.73778" lon="6.70842">
        <ele>2254</ele>
        <time>2026-07-29T11:28:34.716Z</time>
      </trkpt>
      <trkpt lat="45.73776" lon="6.70842">
        <ele>2254</ele>
        <time>2026-07-29T11:28:35.716Z</time>
      </trkpt>
      <trkpt lat="45.73775" lon="6.70843">
        <ele>2254</ele>
        <time>2026-07-29T11:28:36.716Z</time>
      </trkpt>
      <trkpt lat="45.73773" lon="6.70843">
        <ele>2253</ele>
        <time>2026-07-29T11:28:37.716Z</time>
      </trkpt>
      <trkpt lat="45.73772" lon="6.70843">
        <ele>2253</ele>
        <time>2026-07-29T11:28:38.716Z</time>
      </trkpt>
      <trkpt lat="45.7377" lon="6.70844">
        <ele>2253</ele>
        <time>2026-07-29T11:28:39.716Z</time>
      </trkpt>
      <trkpt lat="45.73769" lon="6.70845">
        <ele>2252</ele>
        <time>2026-07-29T11:28:40.716Z</time>
      </trkpt>
      <trkpt lat="45.73767" lon="6.70846">
        <ele>2252</ele>
        <time>2026-07-29T11:28:41.716Z</time>
      </trkpt>
      <trkpt lat="45.73765" lon="6.70847">
        <ele>2252</ele>
        <time>2026-07-29T11:28:42.716Z</time>
      </trkpt>
      <trkpt lat="45.73764" lon="6.70849">
        <ele>2251</ele>
        <time>2026-07-29T11:28:43.716Z</time>
      </trkpt>
      <trkpt lat="45.73762" lon="6.70851">
        <ele>2251</ele>
        <time>2026-07-29T11:28:44.716Z</time>
      </trkpt>
      <trkpt lat="45.7376" lon="6.70853">
        <ele>2250</ele>
        <time>2026-07-29T11:28:45.716Z</time>
      </trkpt>
      <trkpt lat="45.73759" lon="6.70855">
        <ele>2250</ele>
        <time>2026-07-29T11:28:46.716Z</time>
      </trkpt>
      <trkpt lat="45.73758" lon="6.70857">
        <ele>2250</ele>
        <time>2026-07-29T11:28:47.716Z</time>
      </trkpt>
      <trkpt lat="45.73756" lon="6.70859">
        <ele>2249</ele>
        <time>2026-07-29T11:28:48.716Z</time>
      </trkpt>
      <trkpt lat="45.73755" lon="6.70861">
        <ele>2249</ele>
        <time>2026-07-29T11:28:49.716Z</time>
      </trkpt>
      <trkpt lat="45.73754" lon="6.70863">
        <ele>2248</ele>
        <time>2026-07-29T11:28:50.716Z</time>
      </trkpt>
      <trkpt lat="45.73752" lon="6.70864">
        <ele>2248</ele>
        <time>2026-07-29T11:28:51.716Z</time>
      </trkpt>
      <trkpt lat="45.73752" lon="6.70866">
        <ele>2247</ele>
        <time>2026-07-29T11:28:52.716Z</time>
      </trkpt>
      <trkpt lat="45.73751" lon="6.70867">
        <ele>2247</ele>
        <time>2026-07-29T11:28:53.716Z</time>
      </trkpt>
      <trkpt lat="45.7375" lon="6.70869">
        <ele>2247</ele>
        <time>2026-07-29T11:28:54.716Z</time>
      </trkpt>
      <trkpt lat="45.73748" lon="6.7087">
        <ele>2246</ele>
        <time>2026-07-29T11:28:55.716Z</time>
      </trkpt>
      <trkpt lat="45.73747" lon="6.7087">
        <ele>2246</ele>
        <time>2026-07-29T11:28:56.716Z</time>
      </trkpt>
      <trkpt lat="45.73745" lon="6.7087">
        <ele>2246</ele>
        <time>2026-07-29T11:28:57.716Z</time>
      </trkpt>
      <trkpt lat="45.73743" lon="6.7087">
        <ele>2246</ele>
        <time>2026-07-29T11:28:58.716Z</time>
      </trkpt>
      <trkpt lat="45.73742" lon="6.70871">
        <ele>2246</ele>
        <time>2026-07-29T11:28:59.716Z</time>
      </trkpt>
      <trkpt lat="45.7374" lon="6.70873">
        <ele>2246</ele>
        <time>2026-07-29T11:29:00.716Z</time>
      </trkpt>
      <trkpt lat="45.7374" lon="6.70874">
        <ele>2246</ele>
        <time>2026-07-29T11:29:01.716Z</time>
      </trkpt>
      <trkpt lat="45.7374" lon="6.70875">
        <ele>2245</ele>
        <time>2026-07-29T11:29:02.716Z</time>
      </trkpt>
      <trkpt lat="45.7374" lon="6.70877">
        <ele>2245</ele>
        <time>2026-07-29T11:29:03.716Z</time>
      </trkpt>
      <trkpt lat="45.73741" lon="6.70879">
        <ele>2245</ele>
        <time>2026-07-29T11:29:04.716Z</time>
      </trkpt>
      <trkpt lat="45.73742" lon="6.7088">
        <ele>2244</ele>
        <time>2026-07-29T11:29:05.716Z</time>
      </trkpt>
      <trkpt lat="45.73743" lon="6.70882">
        <ele>2244</ele>
        <time>2026-07-29T11:29:06.716Z</time>
      </trkpt>
      <trkpt lat="45.73744" lon="6.70883">
        <ele>2244</ele>
        <time>2026-07-29T11:29:07.716Z</time>
      </trkpt>
      <trkpt lat="45.73746" lon="6.70884">
        <ele>2243</ele>
        <time>2026-07-29T11:29:08.716Z</time>
      </trkpt>
      <trkpt lat="45.73747" lon="6.70886">
        <ele>2243</ele>
        <time>2026-07-29T11:29:09.716Z</time>
      </trkpt>
      <trkpt lat="45.73749" lon="6.70887">
        <ele>2243</ele>
        <time>2026-07-29T11:29:10.716Z</time>
      </trkpt>
      <trkpt lat="45.7375" lon="6.70889">
        <ele>2243</ele>
        <time>2026-07-29T11:29:11.716Z</time>
      </trkpt>
      <trkpt lat="45.73751" lon="6.70891">
        <ele>2243</ele>
        <time>2026-07-29T11:29:12.716Z</time>
      </trkpt>
      <trkpt lat="45.73752" lon="6.70893">
        <ele>2242</ele>
        <time>2026-07-29T11:29:13.716Z</time>
      </trkpt>
      <trkpt lat="45.73754" lon="6.70895">
        <ele>2242</ele>
        <time>2026-07-29T11:29:14.716Z</time>
      </trkpt>
      <trkpt lat="45.73755" lon="6.70896">
        <ele>2242</ele>
        <time>2026-07-29T11:29:15.716Z</time>
      </trkpt>
      <trkpt lat="45.73756" lon="6.70898">
        <ele>2241</ele>
        <time>2026-07-29T11:29:16.716Z</time>
      </trkpt>
      <trkpt lat="45.73758" lon="6.709">
        <ele>2241</ele>
        <time>2026-07-29T11:29:17.716Z</time>
      </trkpt>
      <trkpt lat="45.73758" lon="6.70901">
        <ele>2240</ele>
        <time>2026-07-29T11:29:18.716Z</time>
      </trkpt>
      <trkpt lat="45.73759" lon="6.70903">
        <ele>2240</ele>
        <time>2026-07-29T11:29:19.716Z</time>
      </trkpt>
      <trkpt lat="45.73759" lon="6.70906">
        <ele>2239</ele>
        <time>2026-07-29T11:29:20.716Z</time>
      </trkpt>
      <trkpt lat="45.73759" lon="6.70908">
        <ele>2239</ele>
        <time>2026-07-29T11:29:21.716Z</time>
      </trkpt>
      <trkpt lat="45.73759" lon="6.7091">
        <ele>2239</ele>
        <time>2026-07-29T11:29:22.716Z</time>
      </trkpt>
      <trkpt lat="45.73759" lon="6.70912">
        <ele>2239</ele>
        <time>2026-07-29T11:29:23.716Z</time>
      </trkpt>
      <trkpt lat="45.7376" lon="6.70914">
        <ele>2238</ele>
        <time>2026-07-29T11:29:24.716Z</time>
      </trkpt>
      <trkpt lat="45.73761" lon="6.70916">
        <ele>2238</ele>
        <time>2026-07-29T11:29:25.716Z</time>
      </trkpt>
      <trkpt lat="45.73761" lon="6.70918">
        <ele>2237</ele>
        <time>2026-07-29T11:29:26.716Z</time>
      </trkpt>
      <trkpt lat="45.73762" lon="6.70919">
        <ele>2237</ele>
        <time>2026-07-29T11:29:27.716Z</time>
      </trkpt>
      <trkpt lat="45.73763" lon="6.7092">
        <ele>2237</ele>
        <time>2026-07-29T11:29:28.716Z</time>
      </trkpt>
      <trkpt lat="45.73764" lon="6.70921">
        <ele>2236</ele>
        <time>2026-07-29T11:29:29.716Z</time>
      </trkpt>
      <trkpt lat="45.73765" lon="6.70922">
        <ele>2236</ele>
        <time>2026-07-29T11:29:30.716Z</time>
      </trkpt>
      <trkpt lat="45.73766" lon="6.70923">
        <ele>2236</ele>
        <time>2026-07-29T11:29:31.716Z</time>
      </trkpt>
      <trkpt lat="45.73768" lon="6.70923">
        <ele>2236</ele>
        <time>2026-07-29T11:29:32.716Z</time>
      </trkpt>
      <trkpt lat="45.73769" lon="6.70924">
        <ele>2236</ele>
        <time>2026-07-29T11:29:33.716Z</time>
      </trkpt>
      <trkpt lat="45.7377" lon="6.70924">
        <ele>2235</ele>
        <time>2026-07-29T11:29:34.716Z</time>
      </trkpt>
      <trkpt lat="45.73772" lon="6.70925">
        <ele>2235</ele>
        <time>2026-07-29T11:29:35.716Z</time>
      </trkpt>
      <trkpt lat="45.73773" lon="6.70926">
        <ele>2235</ele>
        <time>2026-07-29T11:29:36.716Z</time>
      </trkpt>
      <trkpt lat="45.73774" lon="6.70926">
        <ele>2235</ele>
        <time>2026-07-29T11:29:37.716Z</time>
      </trkpt>
      <trkpt lat="45.73775" lon="6.70926">
        <ele>2234</ele>
        <time>2026-07-29T11:29:38.716Z</time>
      </trkpt>
      <trkpt lat="45.73777" lon="6.70927">
        <ele>2234</ele>
        <time>2026-07-29T11:29:39.716Z</time>
      </trkpt>
      <trkpt lat="45.73778" lon="6.70927">
        <ele>2233</ele>
        <time>2026-07-29T11:29:40.716Z</time>
      </trkpt>
      <trkpt lat="45.73778" lon="6.70927">
        <ele>2233</ele>
        <time>2026-07-29T11:29:41.716Z</time>
      </trkpt>
      <trkpt lat="45.73779" lon="6.70928">
        <ele>2233</ele>
        <time>2026-07-29T11:29:42.716Z</time>
      </trkpt>
      <trkpt lat="45.7378" lon="6.70928">
        <ele>2232</ele>
        <time>2026-07-29T11:29:43.716Z</time>
      </trkpt>
      <trkpt lat="45.73781" lon="6.70929">
        <ele>2232</ele>
        <time>2026-07-29T11:29:44.716Z</time>
      </trkpt>
      <trkpt lat="45.73782" lon="6.70931">
        <ele>2231</ele>
        <time>2026-07-29T11:29:45.716Z</time>
      </trkpt>
      <trkpt lat="45.73782" lon="6.70933">
        <ele>2231</ele>
        <time>2026-07-29T11:29:46.716Z</time>
      </trkpt>
      <trkpt lat="45.73782" lon="6.70934">
        <ele>2231</ele>
        <time>2026-07-29T11:29:47.716Z</time>
      </trkpt>
      <trkpt lat="45.73782" lon="6.70935">
        <ele>2230</ele>
        <time>2026-07-29T11:29:48.716Z</time>
      </trkpt>
      <trkpt lat="45.73782" lon="6.70936">
        <ele>2230</ele>
        <time>2026-07-29T11:29:49.716Z</time>
      </trkpt>
      <trkpt lat="45.73782" lon="6.70937">
        <ele>2230</ele>
        <time>2026-07-29T11:29:50.716Z</time>
      </trkpt>
      <trkpt lat="45.73782" lon="6.70939">
        <ele>2229</ele>
        <time>2026-07-29T11:29:51.716Z</time>
      </trkpt>
      <trkpt lat="45.73782" lon="6.7094">
        <ele>2228</ele>
        <time>2026-07-29T11:29:52.716Z</time>
      </trkpt>
      <trkpt lat="45.73783" lon="6.70941">
        <ele>2228</ele>
        <time>2026-07-29T11:29:53.716Z</time>
      </trkpt>
      <trkpt lat="45.73784" lon="6.70941">
        <ele>2228</ele>
        <time>2026-07-29T11:29:54.716Z</time>
      </trkpt>
      <trkpt lat="45.73785" lon="6.7094">
        <ele>2227</ele>
        <time>2026-07-29T11:29:55.716Z</time>
      </trkpt>
      <trkpt lat="45.73786" lon="6.70939">
        <ele>2227</ele>
        <time>2026-07-29T11:29:56.716Z</time>
      </trkpt>
      <trkpt lat="45.73787" lon="6.70939">
        <ele>2227</ele>
        <time>2026-07-29T11:29:57.716Z</time>
      </trkpt>
      <trkpt lat="45.73788" lon="6.70938">
        <ele>2227</ele>
        <time>2026-07-29T11:29:58.716Z</time>
      </trkpt>
      <trkpt lat="45.73789" lon="6.70938">
        <ele>2227</ele>
        <time>2026-07-29T11:29:59.716Z</time>
      </trkpt>
      <trkpt lat="45.7379" lon="6.70938">
        <ele>2227</ele>
        <time>2026-07-29T11:30:00.716Z</time>
      </trkpt>
      <trkpt lat="45.7379" lon="6.70939">
        <ele>2227</ele>
        <time>2026-07-29T11:30:01.716Z</time>
      </trkpt>
      <trkpt lat="45.73791" lon="6.70941">
        <ele>2226</ele>
        <time>2026-07-29T11:30:02.716Z</time>
      </trkpt>
      <trkpt lat="45.73791" lon="6.70942">
        <ele>2226</ele>
        <time>2026-07-29T11:30:03.716Z</time>
      </trkpt>
      <trkpt lat="45.73791" lon="6.70943">
        <ele>2226</ele>
        <time>2026-07-29T11:30:04.716Z</time>
      </trkpt>
      <trkpt lat="45.73791" lon="6.70944">
        <ele>2225</ele>
        <time>2026-07-29T11:30:05.716Z</time>
      </trkpt>
      <trkpt lat="45.7379" lon="6.70945">
        <ele>2224</ele>
        <time>2026-07-29T11:30:06.716Z</time>
      </trkpt>
      <trkpt lat="45.7379" lon="6.70946">
        <ele>2224</ele>
        <time>2026-07-29T11:30:07.716Z</time>
      </trkpt>
      <trkpt lat="45.7379" lon="6.70947">
        <ele>2223</ele>
        <time>2026-07-29T11:30:08.716Z</time>
      </trkpt>
      <trkpt lat="45.7379" lon="6.70948">
        <ele>2223</ele>
        <time>2026-07-29T11:30:09.716Z</time>
      </trkpt>
      <trkpt lat="45.7379" lon="6.7095">
        <ele>2223</ele>
        <time>2026-07-29T11:30:10.716Z</time>
      </trkpt>
      <trkpt lat="45.7379" lon="6.70951">
        <ele>2222</ele>
        <time>2026-07-29T11:30:11.716Z</time>
      </trkpt>
      <trkpt lat="45.7379" lon="6.70952">
        <ele>2222</ele>
        <time>2026-07-29T11:30:12.716Z</time>
      </trkpt>
      <trkpt lat="45.7379" lon="6.70952">
        <ele>2221</ele>
        <time>2026-07-29T11:30:13.716Z</time>
      </trkpt>
      <trkpt lat="45.7379" lon="6.70952">
        <ele>2221</ele>
        <time>2026-07-29T11:30:14.716Z</time>
      </trkpt>
      <trkpt lat="45.73791" lon="6.70951">
        <ele>2221</ele>
        <time>2026-07-29T11:30:15.716Z</time>
      </trkpt>
      <trkpt lat="45.73791" lon="6.70952">
        <ele>2221</ele>
        <time>2026-07-29T11:30:16.716Z</time>
      </trkpt>
      <trkpt lat="45.73791" lon="6.70951">
        <ele>2221</ele>
        <time>2026-07-29T11:30:17.716Z</time>
      </trkpt>
      <trkpt lat="45.73792" lon="6.70951">
        <ele>2221</ele>
        <time>2026-07-29T11:30:18.716Z</time>
      </trkpt>
      <trkpt lat="45.73792" lon="6.70951">
        <ele>2221</ele>
        <time>2026-07-29T11:30:19.716Z</time>
      </trkpt>
      <trkpt lat="45.73793" lon="6.7095">
        <ele>2221</ele>
        <time>2026-07-29T11:30:20.716Z</time>
      </trkpt>
      <trkpt lat="45.73794" lon="6.7095">
        <ele>2220</ele>
        <time>2026-07-29T11:30:21.716Z</time>
      </trkpt>
      <trkpt lat="45.73794" lon="6.7095">
        <ele>2220</ele>
        <time>2026-07-29T11:30:22.716Z</time>
      </trkpt>
      <trkpt lat="45.73795" lon="6.70951">
        <ele>2220</ele>
        <time>2026-07-29T11:30:23.716Z</time>
      </trkpt>
      <trkpt lat="45.73795" lon="6.70951">
        <ele>2220</ele>
        <time>2026-07-29T11:30:24.716Z</time>
      </trkpt>
      <trkpt lat="45.73796" lon="6.70952">
        <ele>2219</ele>
        <time>2026-07-29T11:30:25.716Z</time>
      </trkpt>
      <trkpt lat="45.73797" lon="6.70952">
        <ele>2219</ele>
        <time>2026-07-29T11:30:26.716Z</time>
      </trkpt>
      <trkpt lat="45.73797" lon="6.70952">
        <ele>2219</ele>
        <time>2026-07-29T11:30:27.716Z</time>
      </trkpt>
      <trkpt lat="45.73798" lon="6.70951">
        <ele>2219</ele>
        <time>2026-07-29T11:30:28.716Z</time>
      </trkpt>
      <trkpt lat="45.73799" lon="6.70952">
        <ele>2219</ele>
        <time>2026-07-29T11:30:29.716Z</time>
      </trkpt>
      <trkpt lat="45.73799" lon="6.70952">
        <ele>2218</ele>
        <time>2026-07-29T11:30:30.716Z</time>
      </trkpt>
      <trkpt lat="45.738" lon="6.70952">
        <ele>2218</ele>
        <time>2026-07-29T11:30:31.716Z</time>
      </trkpt>
      <trkpt lat="45.738" lon="6.70953">
        <ele>2217</ele>
        <time>2026-07-29T11:30:32.716Z</time>
      </trkpt>
      <trkpt lat="45.73801" lon="6.70953">
        <ele>2217</ele>
        <time>2026-07-29T11:30:33.716Z</time>
      </trkpt>
      <trkpt lat="45.73801" lon="6.70953">
        <ele>2216</ele>
        <time>2026-07-29T11:30:34.716Z</time>
      </trkpt>
      <trkpt lat="45.73801" lon="6.70954">
        <ele>2215</ele>
        <time>2026-07-29T11:30:35.716Z</time>
      </trkpt>
      <trkpt lat="45.73801" lon="6.70954">
        <ele>2215</ele>
        <time>2026-07-29T11:30:36.716Z</time>
      </trkpt>
      <trkpt lat="45.73801" lon="6.70955">
        <ele>2215</ele>
        <time>2026-07-29T11:30:37.716Z</time>
      </trkpt>
      <trkpt lat="45.73802" lon="6.70956">
        <ele>2215</ele>
        <time>2026-07-29T11:30:38.716Z</time>
      </trkpt>
      <trkpt lat="45.73802" lon="6.70956">
        <ele>2215</ele>
        <time>2026-07-29T11:30:39.716Z</time>
      </trkpt>
      <trkpt lat="45.73802" lon="6.70957">
        <ele>2215</ele>
        <time>2026-07-29T11:30:40.716Z</time>
      </trkpt>
      <trkpt lat="45.73803" lon="6.70957">
        <ele>2215</ele>
        <time>2026-07-29T11:30:41.716Z</time>
      </trkpt>
      <trkpt lat="45.73804" lon="6.70958">
        <ele>2215</ele>
        <time>2026-07-29T11:30:42.716Z</time>
      </trkpt>
      <trkpt lat="45.73804" lon="6.70958">
        <ele>2215</ele>
        <time>2026-07-29T11:30:43.716Z</time>
      </trkpt>
      <trkpt lat="45.73804" lon="6.70959">
        <ele>2215</ele>
        <time>2026-07-29T11:30:44.716Z</time>
      </trkpt>
      <trkpt lat="45.73805" lon="6.7096">
        <ele>2215</ele>
        <time>2026-07-29T11:30:45.716Z</time>
      </trkpt>
      <trkpt lat="45.73805" lon="6.7096">
        <ele>2215</ele>
        <time>2026-07-29T11:30:46.716Z</time>
      </trkpt>
      <trkpt lat="45.73806" lon="6.70961">
        <ele>2215</ele>
        <time>2026-07-29T11:30:47.716Z</time>
      </trkpt>
      <trkpt lat="45.73806" lon="6.7096">
        <ele>2215</ele>
        <time>2026-07-29T11:30:48.716Z</time>
      </trkpt>
      <trkpt lat="45.73807" lon="6.7096">
        <ele>2214</ele>
        <time>2026-07-29T11:30:49.716Z</time>
      </trkpt>
      <trkpt lat="45.73808" lon="6.70961">
        <ele>2214</ele>
        <time>2026-07-29T11:30:50.716Z</time>
      </trkpt>
      <trkpt lat="45.73808" lon="6.70961">
        <ele>2215</ele>
        <time>2026-07-29T11:30:51.716Z</time>
      </trkpt>
      <trkpt lat="45.73809" lon="6.70962">
        <ele>2215</ele>
        <time>2026-07-29T11:30:52.716Z</time>
      </trkpt>
      <trkpt lat="45.7381" lon="6.70963">
        <ele>2215</ele>
        <time>2026-07-29T11:30:53.716Z</time>
      </trkpt>
      <trkpt lat="45.73811" lon="6.70964">
        <ele>2214</ele>
        <time>2026-07-29T11:30:54.716Z</time>
      </trkpt>
      <trkpt lat="45.73811" lon="6.70966">
        <ele>2214</ele>
        <time>2026-07-29T11:30:55.716Z</time>
      </trkpt>
      <trkpt lat="45.73812" lon="6.70967">
        <ele>2214</ele>
        <time>2026-07-29T11:30:56.716Z</time>
      </trkpt>
      <trkpt lat="45.73813" lon="6.70969">
        <ele>2213</ele>
        <time>2026-07-29T11:30:57.716Z</time>
      </trkpt>
      <trkpt lat="45.73814" lon="6.70971">
        <ele>2213</ele>
        <time>2026-07-29T11:30:58.716Z</time>
      </trkpt>
      <trkpt lat="45.73815" lon="6.70972">
        <ele>2212</ele>
        <time>2026-07-29T11:30:59.716Z</time>
      </trkpt>
      <trkpt lat="45.73816" lon="6.70973">
        <ele>2212</ele>
        <time>2026-07-29T11:31:00.716Z</time>
      </trkpt>
      <trkpt lat="45.73817" lon="6.70974">
        <ele>2211</ele>
        <time>2026-07-29T11:31:01.716Z</time>
      </trkpt>
      <trkpt lat="45.73818" lon="6.70974">
        <ele>2211</ele>
        <time>2026-07-29T11:31:02.716Z</time>
      </trkpt>
      <trkpt lat="45.73819" lon="6.70975">
        <ele>2210</ele>
        <time>2026-07-29T11:31:03.716Z</time>
      </trkpt>
      <trkpt lat="45.7382" lon="6.70976">
        <ele>2210</ele>
        <time>2026-07-29T11:31:04.716Z</time>
      </trkpt>
      <trkpt lat="45.7382" lon="6.70977">
        <ele>2210</ele>
        <time>2026-07-29T11:31:05.716Z</time>
      </trkpt>
      <trkpt lat="45.73819" lon="6.70978">
        <ele>2210</ele>
        <time>2026-07-29T11:31:06.716Z</time>
      </trkpt>
      <trkpt lat="45.73819" lon="6.70979">
        <ele>2209</ele>
        <time>2026-07-29T11:31:07.716Z</time>
      </trkpt>
      <trkpt lat="45.73818" lon="6.70979">
        <ele>2209</ele>
        <time>2026-07-29T11:31:08.716Z</time>
      </trkpt>
      <trkpt lat="45.73817" lon="6.70979">
        <ele>2209</ele>
        <time>2026-07-29T11:31:09.716Z</time>
      </trkpt>
      <trkpt lat="45.73816" lon="6.7098">
        <ele>2208</ele>
        <time>2026-07-29T11:31:10.716Z</time>
      </trkpt>
      <trkpt lat="45.73815" lon="6.7098">
        <ele>2208</ele>
        <time>2026-07-29T11:31:11.716Z</time>
      </trkpt>
      <trkpt lat="45.73814" lon="6.7098">
        <ele>2208</ele>
        <time>2026-07-29T11:31:12.716Z</time>
      </trkpt>
      <trkpt lat="45.73813" lon="6.7098">
        <ele>2207</ele>
        <time>2026-07-29T11:31:13.716Z</time>
      </trkpt>
      <trkpt lat="45.73812" lon="6.7098">
        <ele>2206</ele>
        <time>2026-07-29T11:31:14.716Z</time>
      </trkpt>
      <trkpt lat="45.73811" lon="6.70981">
        <ele>2206</ele>
        <time>2026-07-29T11:31:15.716Z</time>
      </trkpt>
      <trkpt lat="45.73811" lon="6.70982">
        <ele>2205</ele>
        <time>2026-07-29T11:31:16.716Z</time>
      </trkpt>
      <trkpt lat="45.73812" lon="6.70983">
        <ele>2205</ele>
        <time>2026-07-29T11:31:17.716Z</time>
      </trkpt>
      <trkpt lat="45.73812" lon="6.70985">
        <ele>2205</ele>
        <time>2026-07-29T11:31:18.716Z</time>
      </trkpt>
      <trkpt lat="45.73812" lon="6.70986">
        <ele>2205</ele>
        <time>2026-07-29T11:31:19.716Z</time>
      </trkpt>
      <trkpt lat="45.73813" lon="6.70987">
        <ele>2205</ele>
        <time>2026-07-29T11:31:20.716Z</time>
      </trkpt>
      <trkpt lat="45.73814" lon="6.70988">
        <ele>2204</ele>
        <time>2026-07-29T11:31:21.716Z</time>
      </trkpt>
      <trkpt lat="45.73815" lon="6.70988">
        <ele>2204</ele>
        <time>2026-07-29T11:31:22.716Z</time>
      </trkpt>
      <trkpt lat="45.73815" lon="6.70989">
        <ele>2204</ele>
        <time>2026-07-29T11:31:23.716Z</time>
      </trkpt>
      <trkpt lat="45.73816" lon="6.7099">
        <ele>2204</ele>
        <time>2026-07-29T11:31:24.716Z</time>
      </trkpt>
      <trkpt lat="45.73817" lon="6.7099">
        <ele>2204</ele>
        <time>2026-07-29T11:31:25.716Z</time>
      </trkpt>
      <trkpt lat="45.73817" lon="6.70991">
        <ele>2204</ele>
        <time>2026-07-29T11:31:26.716Z</time>
      </trkpt>
      <trkpt lat="45.73817" lon="6.70992">
        <ele>2203</ele>
        <time>2026-07-29T11:31:27.716Z</time>
      </trkpt>
      <trkpt lat="45.73817" lon="6.70993">
        <ele>2203</ele>
        <time>2026-07-29T11:31:28.716Z</time>
      </trkpt>
      <trkpt lat="45.73816" lon="6.70994">
        <ele>2203</ele>
        <time>2026-07-29T11:31:29.716Z</time>
      </trkpt>
      <trkpt lat="45.73816" lon="6.70995">
        <ele>2203</ele>
        <time>2026-07-29T11:31:30.716Z</time>
      </trkpt>
      <trkpt lat="45.73816" lon="6.70995">
        <ele>2203</ele>
        <time>2026-07-29T11:31:31.716Z</time>
      </trkpt>
      <trkpt lat="45.73816" lon="6.70996">
        <ele>2204</ele>
        <time>2026-07-29T11:31:32.716Z</time>
      </trkpt>
      <trkpt lat="45.73817" lon="6.70996">
        <ele>2204</ele>
        <time>2026-07-29T11:31:33.716Z</time>
      </trkpt>
      <trkpt lat="45.73817" lon="6.70996">
        <ele>2204</ele>
        <time>2026-07-29T11:31:34.716Z</time>
      </trkpt>
      <trkpt lat="45.73818" lon="6.70996">
        <ele>2204</ele>
        <time>2026-07-29T11:31:35.716Z</time>
      </trkpt>
      <trkpt lat="45.73818" lon="6.70995">
        <ele>2204</ele>
        <time>2026-07-29T11:31:36.716Z</time>
      </trkpt>
      <trkpt lat="45.73819" lon="6.70995">
        <ele>2204</ele>
        <time>2026-07-29T11:31:37.716Z</time>
      </trkpt>
      <trkpt lat="45.73819" lon="6.70995">
        <ele>2204</ele>
        <time>2026-07-29T11:31:38.716Z</time>
      </trkpt>
      <trkpt lat="45.7382" lon="6.70994">
        <ele>2204</ele>
        <time>2026-07-29T11:31:39.716Z</time>
      </trkpt>
      <trkpt lat="45.73821" lon="6.70993">
        <ele>2204</ele>
        <time>2026-07-29T11:31:40.716Z</time>
      </trkpt>
      <trkpt lat="45.73822" lon="6.70993">
        <ele>2204</ele>
        <time>2026-07-29T11:31:41.716Z</time>
      </trkpt>
      <trkpt lat="45.73823" lon="6.70993">
        <ele>2204</ele>
        <time>2026-07-29T11:31:42.716Z</time>
      </trkpt>
      <trkpt lat="45.73824" lon="6.70993">
        <ele>2203</ele>
        <time>2026-07-29T11:31:43.716Z</time>
      </trkpt>
      <trkpt lat="45.73825" lon="6.70992">
        <ele>2203</ele>
        <time>2026-07-29T11:31:44.716Z</time>
      </trkpt>
      <trkpt lat="45.73826" lon="6.70992">
        <ele>2202</ele>
        <time>2026-07-29T11:31:45.716Z</time>
      </trkpt>
      <trkpt lat="45.73827" lon="6.70991">
        <ele>2201</ele>
        <time>2026-07-29T11:31:46.716Z</time>
      </trkpt>
      <trkpt lat="45.73828" lon="6.70991">
        <ele>2201</ele>
        <time>2026-07-29T11:31:47.716Z</time>
      </trkpt>
      <trkpt lat="45.73829" lon="6.7099">
        <ele>2200</ele>
        <time>2026-07-29T11:31:48.716Z</time>
      </trkpt>
      <trkpt lat="45.7383" lon="6.70989">
        <ele>2200</ele>
        <time>2026-07-29T11:31:49.716Z</time>
      </trkpt>
      <trkpt lat="45.7383" lon="6.70988">
        <ele>2199</ele>
        <time>2026-07-29T11:31:50.716Z</time>
      </trkpt>
      <trkpt lat="45.73831" lon="6.70988">
        <ele>2199</ele>
        <time>2026-07-29T11:31:51.716Z</time>
      </trkpt>
      <trkpt lat="45.73831" lon="6.70989">
        <ele>2198</ele>
        <time>2026-07-29T11:31:52.716Z</time>
      </trkpt>
      <trkpt lat="45.73832" lon="6.7099">
        <ele>2198</ele>
        <time>2026-07-29T11:31:53.716Z</time>
      </trkpt>
      <trkpt lat="45.73834" lon="6.70991">
        <ele>2197</ele>
        <time>2026-07-29T11:31:54.716Z</time>
      </trkpt>
      <trkpt lat="45.73835" lon="6.70992">
        <ele>2197</ele>
        <time>2026-07-29T11:31:55.716Z</time>
      </trkpt>
      <trkpt lat="45.73835" lon="6.70994">
        <ele>2197</ele>
        <time>2026-07-29T11:31:56.716Z</time>
      </trkpt>
      <trkpt lat="45.73836" lon="6.70995">
        <ele>2197</ele>
        <time>2026-07-29T11:31:57.716Z</time>
      </trkpt>
      <trkpt lat="45.73836" lon="6.70996">
        <ele>2196</ele>
        <time>2026-07-29T11:31:58.716Z</time>
      </trkpt>
      <trkpt lat="45.73836" lon="6.70997">
        <ele>2196</ele>
        <time>2026-07-29T11:31:59.716Z</time>
      </trkpt>
      <trkpt lat="45.73836" lon="6.70997">
        <ele>2196</ele>
        <time>2026-07-29T11:32:00.716Z</time>
      </trkpt>
      <trkpt lat="45.73836" lon="6.70996">
        <ele>2196</ele>
        <time>2026-07-29T11:32:01.716Z</time>
      </trkpt>
      <trkpt lat="45.73835" lon="6.70996">
        <ele>2195</ele>
        <time>2026-07-29T11:32:02.716Z</time>
      </trkpt>
      <trkpt lat="45.73835" lon="6.70994">
        <ele>2195</ele>
        <time>2026-07-29T11:32:03.716Z</time>
      </trkpt>
      <trkpt lat="45.73835" lon="6.70993">
        <ele>2195</ele>
        <time>2026-07-29T11:32:04.716Z</time>
      </trkpt>
      <trkpt lat="45.73834" lon="6.70992">
        <ele>2194</ele>
        <time>2026-07-29T11:32:05.716Z</time>
      </trkpt>
      <trkpt lat="45.73834" lon="6.70991">
        <ele>2195</ele>
        <time>2026-07-29T11:32:06.716Z</time>
      </trkpt>
      <trkpt lat="45.73833" lon="6.7099">
        <ele>2195</ele>
        <time>2026-07-29T11:32:07.716Z</time>
      </trkpt>
      <trkpt lat="45.73833" lon="6.7099">
        <ele>2195</ele>
        <time>2026-07-29T11:32:08.716Z</time>
      </trkpt>
      <trkpt lat="45.73833" lon="6.70989">
        <ele>2195</ele>
        <time>2026-07-29T11:32:09.716Z</time>
      </trkpt>
      <trkpt lat="45.73833" lon="6.70988">
        <ele>2195</ele>
        <time>2026-07-29T11:32:10.716Z</time>
      </trkpt>
      <trkpt lat="45.73833" lon="6.70987">
        <ele>2195</ele>
        <time>2026-07-29T11:32:11.716Z</time>
      </trkpt>
      <trkpt lat="45.73833" lon="6.70986">
        <ele>2195</ele>
        <time>2026-07-29T11:32:12.716Z</time>
      </trkpt>
      <trkpt lat="45.73833" lon="6.70986">
        <ele>2195</ele>
        <time>2026-07-29T11:32:13.716Z</time>
      </trkpt>
      <trkpt lat="45.73833" lon="6.70986">
        <ele>2196</ele>
        <time>2026-07-29T11:32:14.716Z</time>
      </trkpt>
      <trkpt lat="45.73833" lon="6.70986">
        <ele>2196</ele>
        <time>2026-07-29T11:32:15.716Z</time>
      </trkpt>
      <trkpt lat="45.73833" lon="6.70986">
        <ele>2196</ele>
        <time>2026-07-29T11:32:16.716Z</time>
      </trkpt>
      <trkpt lat="45.73833" lon="6.70986">
        <ele>2196</ele>
        <time>2026-07-29T11:32:17.716Z</time>
      </trkpt>
      <trkpt lat="45.73833" lon="6.70986">
        <ele>2197</ele>
        <time>2026-07-29T11:32:18.716Z</time>
      </trkpt>
      <trkpt lat="45.73833" lon="6.70986">
        <ele>2197</ele>
        <time>2026-07-29T11:32:19.716Z</time>
      </trkpt>
      <trkpt lat="45.73833" lon="6.70986">
        <ele>2197</ele>
        <time>2026-07-29T11:32:20.716Z</time>
      </trkpt>
      <trkpt lat="45.73833" lon="6.70986">
        <ele>2197</ele>
        <time>2026-07-29T11:32:21.716Z</time>
      </trkpt>
      <trkpt lat="45.73833" lon="6.70986">
        <ele>2197</ele>
        <time>2026-07-29T11:32:22.716Z</time>
      </trkpt>
      <trkpt lat="45.73833" lon="6.70986">
        <ele>2198</ele>
        <time>2026-07-29T11:32:23.716Z</time>
      </trkpt>
      <trkpt lat="45.73833" lon="6.70986">
        <ele>2198</ele>
        <time>2026-07-29T11:32:24.716Z</time>
      </trkpt>
      <trkpt lat="45.73833" lon="6.70986">
        <ele>2198</ele>
        <time>2026-07-29T11:32:25.716Z</time>
      </trkpt>
      <trkpt lat="45.73833" lon="6.70987">
        <ele>2198</ele>
        <time>2026-07-29T11:32:26.716Z</time>
      </trkpt>
      <trkpt lat="45.73833" lon="6.70989">
        <ele>2198</ele>
        <time>2026-07-29T11:32:27.716Z</time>
      </trkpt>
      <trkpt lat="45.73834" lon="6.70991">
        <ele>2198</ele>
        <time>2026-07-29T11:32:28.716Z</time>
      </trkpt>
      <trkpt lat="45.73834" lon="6.70992">
        <ele>2198</ele>
        <time>2026-07-29T11:32:29.716Z</time>
      </trkpt>
      <trkpt lat="45.73835" lon="6.70994">
        <ele>2198</ele>
        <time>2026-07-29T11:32:30.716Z</time>
      </trkpt>
      <trkpt lat="45.73836" lon="6.70996">
        <ele>2197</ele>
        <time>2026-07-29T11:32:31.716Z</time>
      </trkpt>
      <trkpt lat="45.73836" lon="6.70998">
        <ele>2197</ele>
        <time>2026-07-29T11:32:32.716Z</time>
      </trkpt>
      <trkpt lat="45.73836" lon="6.71">
        <ele>2197</ele>
        <time>2026-07-29T11:32:33.716Z</time>
      </trkpt>
      <trkpt lat="45.73836" lon="6.71002">
        <ele>2196</ele>
        <time>2026-07-29T11:32:34.716Z</time>
      </trkpt>
      <trkpt lat="45.73837" lon="6.71004">
        <ele>2196</ele>
        <time>2026-07-29T11:32:35.716Z</time>
      </trkpt>
      <trkpt lat="45.73838" lon="6.71005">
        <ele>2195</ele>
        <time>2026-07-29T11:32:36.716Z</time>
      </trkpt>
      <trkpt lat="45.73838" lon="6.71007">
        <ele>2195</ele>
        <time>2026-07-29T11:32:37.716Z</time>
      </trkpt>
      <trkpt lat="45.73839" lon="6.71008">
        <ele>2194</ele>
        <time>2026-07-29T11:32:38.716Z</time>
      </trkpt>
      <trkpt lat="45.73839" lon="6.71009">
        <ele>2194</ele>
        <time>2026-07-29T11:32:39.716Z</time>
      </trkpt>
      <trkpt lat="45.7384" lon="6.7101">
        <ele>2194</ele>
        <time>2026-07-29T11:32:40.716Z</time>
      </trkpt>
      <trkpt lat="45.7384" lon="6.71011">
        <ele>2193</ele>
        <time>2026-07-29T11:32:41.716Z</time>
      </trkpt>
      <trkpt lat="45.73841" lon="6.71011">
        <ele>2193</ele>
        <time>2026-07-29T11:32:42.716Z</time>
      </trkpt>
      <trkpt lat="45.73841" lon="6.71012">
        <ele>2193</ele>
        <time>2026-07-29T11:32:43.716Z</time>
      </trkpt>
      <trkpt lat="45.73842" lon="6.71013">
        <ele>2193</ele>
        <time>2026-07-29T11:32:44.716Z</time>
      </trkpt>
      <trkpt lat="45.73841" lon="6.71013">
        <ele>2192</ele>
        <time>2026-07-29T11:32:45.716Z</time>
      </trkpt>
      <trkpt lat="45.73841" lon="6.71014">
        <ele>2192</ele>
        <time>2026-07-29T11:32:46.716Z</time>
      </trkpt>
      <trkpt lat="45.73841" lon="6.71015">
        <ele>2192</ele>
        <time>2026-07-29T11:32:47.716Z</time>
      </trkpt>
      <trkpt lat="45.73841" lon="6.71016">
        <ele>2193</ele>
        <time>2026-07-29T11:32:48.716Z</time>
      </trkpt>
      <trkpt lat="45.73842" lon="6.71018">
        <ele>2193</ele>
        <time>2026-07-29T11:32:49.716Z</time>
      </trkpt>
      <trkpt lat="45.73842" lon="6.71019">
        <ele>2193</ele>
        <time>2026-07-29T11:32:50.716Z</time>
      </trkpt>
      <trkpt lat="45.73843" lon="6.7102">
        <ele>2193</ele>
        <time>2026-07-29T11:32:51.716Z</time>
      </trkpt>
      <trkpt lat="45.73843" lon="6.7102">
        <ele>2192</ele>
        <time>2026-07-29T11:32:52.716Z</time>
      </trkpt>
      <trkpt lat="45.73844" lon="6.71022">
        <ele>2192</ele>
        <time>2026-07-29T11:32:53.716Z</time>
      </trkpt>
      <trkpt lat="45.73844" lon="6.71023">
        <ele>2191</ele>
        <time>2026-07-29T11:32:54.716Z</time>
      </trkpt>
      <trkpt lat="45.73845" lon="6.71025">
        <ele>2190</ele>
        <time>2026-07-29T11:32:55.716Z</time>
      </trkpt>
      <trkpt lat="45.73846" lon="6.71026">
        <ele>2190</ele>
        <time>2026-07-29T11:32:56.716Z</time>
      </trkpt>
      <trkpt lat="45.73846" lon="6.71027">
        <ele>2189</ele>
        <time>2026-07-29T11:32:57.716Z</time>
      </trkpt>
      <trkpt lat="45.73847" lon="6.71028">
        <ele>2188</ele>
        <time>2026-07-29T11:32:58.716Z</time>
      </trkpt>
      <trkpt lat="45.73847" lon="6.71029">
        <ele>2188</ele>
        <time>2026-07-29T11:32:59.716Z</time>
      </trkpt>
      <trkpt lat="45.73848" lon="6.7103">
        <ele>2187</ele>
        <time>2026-07-29T11:33:00.716Z</time>
      </trkpt>
      <trkpt lat="45.73849" lon="6.71031">
        <ele>2186</ele>
        <time>2026-07-29T11:33:01.716Z</time>
      </trkpt>
      <trkpt lat="45.73849" lon="6.71032">
        <ele>2186</ele>
        <time>2026-07-29T11:33:02.716Z</time>
      </trkpt>
      <trkpt lat="45.7385" lon="6.71033">
        <ele>2186</ele>
        <time>2026-07-29T11:33:03.716Z</time>
      </trkpt>
      <trkpt lat="45.73851" lon="6.71035">
        <ele>2186</ele>
        <time>2026-07-29T11:33:04.716Z</time>
      </trkpt>
      <trkpt lat="45.73851" lon="6.71037">
        <ele>2186</ele>
        <time>2026-07-29T11:33:05.716Z</time>
      </trkpt>
      <trkpt lat="45.73852" lon="6.71039">
        <ele>2185</ele>
        <time>2026-07-29T11:33:06.716Z</time>
      </trkpt>
      <trkpt lat="45.73852" lon="6.71041">
        <ele>2185</ele>
        <time>2026-07-29T11:33:07.716Z</time>
      </trkpt>
      <trkpt lat="45.73853" lon="6.71042">
        <ele>2185</ele>
        <time>2026-07-29T11:33:08.716Z</time>
      </trkpt>
      <trkpt lat="45.73855" lon="6.71044">
        <ele>2185</ele>
        <time>2026-07-29T11:33:09.716Z</time>
      </trkpt>
      <trkpt lat="45.73855" lon="6.71046">
        <ele>2184</ele>
        <time>2026-07-29T11:33:10.716Z</time>
      </trkpt>
      <trkpt lat="45.73856" lon="6.71048">
        <ele>2184</ele>
        <time>2026-07-29T11:33:11.716Z</time>
      </trkpt>
      <trkpt lat="45.73857" lon="6.71049">
        <ele>2184</ele>
        <time>2026-07-29T11:33:12.716Z</time>
      </trkpt>
      <trkpt lat="45.73858" lon="6.71051">
        <ele>2184</ele>
        <time>2026-07-29T11:33:13.716Z</time>
      </trkpt>
      <trkpt lat="45.73858" lon="6.71053">
        <ele>2183</ele>
        <time>2026-07-29T11:33:14.716Z</time>
      </trkpt>
      <trkpt lat="45.73859" lon="6.71055">
        <ele>2183</ele>
        <time>2026-07-29T11:33:15.716Z</time>
      </trkpt>
      <trkpt lat="45.7386" lon="6.71057">
        <ele>2183</ele>
        <time>2026-07-29T11:33:16.716Z</time>
      </trkpt>
      <trkpt lat="45.73861" lon="6.71059">
        <ele>2183</ele>
        <time>2026-07-29T11:33:17.716Z</time>
      </trkpt>
      <trkpt lat="45.73862" lon="6.71061">
        <ele>2182</ele>
        <time>2026-07-29T11:33:18.716Z</time>
      </trkpt>
      <trkpt lat="45.73863" lon="6.71063">
        <ele>2182</ele>
        <time>2026-07-29T11:33:19.716Z</time>
      </trkpt>
      <trkpt lat="45.73864" lon="6.71064">
        <ele>2182</ele>
        <time>2026-07-29T11:33:20.716Z</time>
      </trkpt>
      <trkpt lat="45.73865" lon="6.71065">
        <ele>2182</ele>
        <time>2026-07-29T11:33:21.716Z</time>
      </trkpt>
      <trkpt lat="45.73866" lon="6.71066">
        <ele>2181</ele>
        <time>2026-07-29T11:33:22.716Z</time>
      </trkpt>
      <trkpt lat="45.73867" lon="6.71068">
        <ele>2181</ele>
        <time>2026-07-29T11:33:23.716Z</time>
      </trkpt>
      <trkpt lat="45.73867" lon="6.71069">
        <ele>2181</ele>
        <time>2026-07-29T11:33:24.716Z</time>
      </trkpt>
      <trkpt lat="45.73868" lon="6.71071">
        <ele>2180</ele>
        <time>2026-07-29T11:33:25.716Z</time>
      </trkpt>
      <trkpt lat="45.73868" lon="6.71072">
        <ele>2180</ele>
        <time>2026-07-29T11:33:26.716Z</time>
      </trkpt>
      <trkpt lat="45.73868" lon="6.71074">
        <ele>2180</ele>
        <time>2026-07-29T11:33:27.716Z</time>
      </trkpt>
      <trkpt lat="45.73869" lon="6.71076">
        <ele>2180</ele>
        <time>2026-07-29T11:33:28.716Z</time>
      </trkpt>
      <trkpt lat="45.73869" lon="6.71077">
        <ele>2179</ele>
        <time>2026-07-29T11:33:29.716Z</time>
      </trkpt>
      <trkpt lat="45.73869" lon="6.71079">
        <ele>2179</ele>
        <time>2026-07-29T11:33:30.716Z</time>
      </trkpt>
      <trkpt lat="45.7387" lon="6.7108">
        <ele>2178</ele>
        <time>2026-07-29T11:33:31.716Z</time>
      </trkpt>
      <trkpt lat="45.7387" lon="6.71081">
        <ele>2178</ele>
        <time>2026-07-29T11:33:32.716Z</time>
      </trkpt>
      <trkpt lat="45.73871" lon="6.71082">
        <ele>2178</ele>
        <time>2026-07-29T11:33:33.716Z</time>
      </trkpt>
      <trkpt lat="45.73871" lon="6.71083">
        <ele>2177</ele>
        <time>2026-07-29T11:33:34.716Z</time>
      </trkpt>
      <trkpt lat="45.73872" lon="6.71083">
        <ele>2177</ele>
        <time>2026-07-29T11:33:35.716Z</time>
      </trkpt>
      <trkpt lat="45.73872" lon="6.71083">
        <ele>2177</ele>
        <time>2026-07-29T11:33:36.716Z</time>
      </trkpt>
      <trkpt lat="45.73873" lon="6.71083">
        <ele>2177</ele>
        <time>2026-07-29T11:33:37.716Z</time>
      </trkpt>
      <trkpt lat="45.73873" lon="6.71083">
        <ele>2176</ele>
        <time>2026-07-29T11:33:38.716Z</time>
      </trkpt>
      <trkpt lat="45.73873" lon="6.71083">
        <ele>2176</ele>
        <time>2026-07-29T11:33:39.716Z</time>
      </trkpt>
      <trkpt lat="45.73873" lon="6.71083">
        <ele>2176</ele>
        <time>2026-07-29T11:33:40.716Z</time>
      </trkpt>
      <trkpt lat="45.73873" lon="6.71083">
        <ele>2175</ele>
        <time>2026-07-29T11:33:41.716Z</time>
      </trkpt>
      <trkpt lat="45.73873" lon="6.71084">
        <ele>2175</ele>
        <time>2026-07-29T11:33:42.716Z</time>
      </trkpt>
      <trkpt lat="45.73873" lon="6.71084">
        <ele>2174</ele>
        <time>2026-07-29T11:33:43.716Z</time>
      </trkpt>
      <trkpt lat="45.73873" lon="6.71084">
        <ele>2174</ele>
        <time>2026-07-29T11:33:44.716Z</time>
      </trkpt>
      <trkpt lat="45.73873" lon="6.71084">
        <ele>2174</ele>
        <time>2026-07-29T11:33:45.716Z</time>
      </trkpt>
      <trkpt lat="45.73874" lon="6.71084">
        <ele>2174</ele>
        <time>2026-07-29T11:33:46.716Z</time>
      </trkpt>
      <trkpt lat="45.73874" lon="6.71084">
        <ele>2174</ele>
        <time>2026-07-29T11:33:47.716Z</time>
      </trkpt>
      <trkpt lat="45.73875" lon="6.71085">
        <ele>2174</ele>
        <time>2026-07-29T11:33:48.716Z</time>
      </trkpt>
      <trkpt lat="45.73875" lon="6.71086">
        <ele>2174</ele>
        <time>2026-07-29T11:33:49.716Z</time>
      </trkpt>
      <trkpt lat="45.73875" lon="6.71086">
        <ele>2174</ele>
        <time>2026-07-29T11:33:50.716Z</time>
      </trkpt>
      <trkpt lat="45.73875" lon="6.71087">
        <ele>2173</ele>
        <time>2026-07-29T11:33:51.716Z</time>
      </trkpt>
      <trkpt lat="45.73876" lon="6.71088">
        <ele>2173</ele>
        <time>2026-07-29T11:33:52.716Z</time>
      </trkpt>
      <trkpt lat="45.73876" lon="6.71089">
        <ele>2173</ele>
        <time>2026-07-29T11:33:53.716Z</time>
      </trkpt>
      <trkpt lat="45.73876" lon="6.7109">
        <ele>2173</ele>
        <time>2026-07-29T11:33:54.716Z</time>
      </trkpt>
      <trkpt lat="45.73876" lon="6.71092">
        <ele>2173</ele>
        <time>2026-07-29T11:33:55.716Z</time>
      </trkpt>
      <trkpt lat="45.73876" lon="6.71093">
        <ele>2173</ele>
        <time>2026-07-29T11:33:56.716Z</time>
      </trkpt>
      <trkpt lat="45.73877" lon="6.71095">
        <ele>2173</ele>
        <time>2026-07-29T11:33:57.716Z</time>
      </trkpt>
      <trkpt lat="45.73877" lon="6.71096">
        <ele>2173</ele>
        <time>2026-07-29T11:33:58.716Z</time>
      </trkpt>
      <trkpt lat="45.73878" lon="6.71096">
        <ele>2173</ele>
        <time>2026-07-29T11:33:59.716Z</time>
      </trkpt>
      <trkpt lat="45.7388" lon="6.71097">
        <ele>2172</ele>
        <time>2026-07-29T11:34:00.716Z</time>
      </trkpt>
      <trkpt lat="45.73881" lon="6.71098">
        <ele>2172</ele>
        <time>2026-07-29T11:34:01.716Z</time>
      </trkpt>
      <trkpt lat="45.73882" lon="6.71099">
        <ele>2171</ele>
        <time>2026-07-29T11:34:02.716Z</time>
      </trkpt>
      <trkpt lat="45.73882" lon="6.711">
        <ele>2171</ele>
        <time>2026-07-29T11:34:03.716Z</time>
      </trkpt>
      <trkpt lat="45.73882" lon="6.71101">
        <ele>2171</ele>
        <time>2026-07-29T11:34:04.716Z</time>
      </trkpt>
      <trkpt lat="45.73882" lon="6.71102">
        <ele>2171</ele>
        <time>2026-07-29T11:34:05.716Z</time>
      </trkpt>
      <trkpt lat="45.73882" lon="6.71104">
        <ele>2171</ele>
        <time>2026-07-29T11:34:06.716Z</time>
      </trkpt>
      <trkpt lat="45.73882" lon="6.71105">
        <ele>2171</ele>
        <time>2026-07-29T11:34:07.716Z</time>
      </trkpt>
      <trkpt lat="45.73883" lon="6.71106">
        <ele>2171</ele>
        <time>2026-07-29T11:34:08.716Z</time>
      </trkpt>
      <trkpt lat="45.73883" lon="6.71106">
        <ele>2171</ele>
        <time>2026-07-29T11:34:09.716Z</time>
      </trkpt>
      <trkpt lat="45.73885" lon="6.71107">
        <ele>2170</ele>
        <time>2026-07-29T11:34:10.716Z</time>
      </trkpt>
      <trkpt lat="45.73886" lon="6.71107">
        <ele>2170</ele>
        <time>2026-07-29T11:34:11.716Z</time>
      </trkpt>
      <trkpt lat="45.73887" lon="6.71108">
        <ele>2169</ele>
        <time>2026-07-29T11:34:12.716Z</time>
      </trkpt>
      <trkpt lat="45.73888" lon="6.71108">
        <ele>2169</ele>
        <time>2026-07-29T11:34:13.716Z</time>
      </trkpt>
      <trkpt lat="45.73888" lon="6.71109">
        <ele>2168</ele>
        <time>2026-07-29T11:34:14.716Z</time>
      </trkpt>
      <trkpt lat="45.73888" lon="6.71111">
        <ele>2168</ele>
        <time>2026-07-29T11:34:15.716Z</time>
      </trkpt>
      <trkpt lat="45.73888" lon="6.71113">
        <ele>2167</ele>
        <time>2026-07-29T11:34:16.716Z</time>
      </trkpt>
      <trkpt lat="45.73888" lon="6.71114">
        <ele>2166</ele>
        <time>2026-07-29T11:34:17.716Z</time>
      </trkpt>
      <trkpt lat="45.73889" lon="6.71115">
        <ele>2166</ele>
        <time>2026-07-29T11:34:18.716Z</time>
      </trkpt>
      <trkpt lat="45.73889" lon="6.71116">
        <ele>2165</ele>
        <time>2026-07-29T11:34:19.716Z</time>
      </trkpt>
      <trkpt lat="45.7389" lon="6.71117">
        <ele>2165</ele>
        <time>2026-07-29T11:34:20.716Z</time>
      </trkpt>
      <trkpt lat="45.7389" lon="6.71118">
        <ele>2165</ele>
        <time>2026-07-29T11:34:21.716Z</time>
      </trkpt>
      <trkpt lat="45.73891" lon="6.7112">
        <ele>2164</ele>
        <time>2026-07-29T11:34:22.716Z</time>
      </trkpt>
      <trkpt lat="45.73892" lon="6.71121">
        <ele>2164</ele>
        <time>2026-07-29T11:34:23.716Z</time>
      </trkpt>
      <trkpt lat="45.73893" lon="6.71122">
        <ele>2164</ele>
        <time>2026-07-29T11:34:24.716Z</time>
      </trkpt>
      <trkpt lat="45.73894" lon="6.71124">
        <ele>2164</ele>
        <time>2026-07-29T11:34:25.716Z</time>
      </trkpt>
      <trkpt lat="45.73896" lon="6.71126">
        <ele>2164</ele>
        <time>2026-07-29T11:34:26.716Z</time>
      </trkpt>
      <trkpt lat="45.73897" lon="6.71128">
        <ele>2164</ele>
        <time>2026-07-29T11:34:27.716Z</time>
      </trkpt>
      <trkpt lat="45.73898" lon="6.71129">
        <ele>2163</ele>
        <time>2026-07-29T11:34:28.716Z</time>
      </trkpt>
      <trkpt lat="45.73899" lon="6.71131">
        <ele>2163</ele>
        <time>2026-07-29T11:34:29.716Z</time>
      </trkpt>
      <trkpt lat="45.739" lon="6.71133">
        <ele>2162</ele>
        <time>2026-07-29T11:34:30.716Z</time>
      </trkpt>
      <trkpt lat="45.73901" lon="6.71135">
        <ele>2162</ele>
        <time>2026-07-29T11:34:31.716Z</time>
      </trkpt>
      <trkpt lat="45.73901" lon="6.71137">
        <ele>2161</ele>
        <time>2026-07-29T11:34:32.716Z</time>
      </trkpt>
      <trkpt lat="45.73902" lon="6.71138">
        <ele>2161</ele>
        <time>2026-07-29T11:34:33.716Z</time>
      </trkpt>
      <trkpt lat="45.73903" lon="6.7114">
        <ele>2161</ele>
        <time>2026-07-29T11:34:34.716Z</time>
      </trkpt>
      <trkpt lat="45.73905" lon="6.71141">
        <ele>2161</ele>
        <time>2026-07-29T11:34:35.716Z</time>
      </trkpt>
      <trkpt lat="45.73906" lon="6.71143">
        <ele>2161</ele>
        <time>2026-07-29T11:34:36.716Z</time>
      </trkpt>
      <trkpt lat="45.73907" lon="6.71144">
        <ele>2161</ele>
        <time>2026-07-29T11:34:37.716Z</time>
      </trkpt>
      <trkpt lat="45.73907" lon="6.71146">
        <ele>2161</ele>
        <time>2026-07-29T11:34:38.716Z</time>
      </trkpt>
      <trkpt lat="45.73908" lon="6.71148">
        <ele>2161</ele>
        <time>2026-07-29T11:34:39.716Z</time>
      </trkpt>
      <trkpt lat="45.73908" lon="6.7115">
        <ele>2161</ele>
        <time>2026-07-29T11:34:40.716Z</time>
      </trkpt>
      <trkpt lat="45.73909" lon="6.71151">
        <ele>2161</ele>
        <time>2026-07-29T11:34:41.716Z</time>
      </trkpt>
      <trkpt lat="45.7391" lon="6.71153">
        <ele>2161</ele>
        <time>2026-07-29T11:34:42.716Z</time>
      </trkpt>
      <trkpt lat="45.73911" lon="6.71155">
        <ele>2160</ele>
        <time>2026-07-29T11:34:43.716Z</time>
      </trkpt>
      <trkpt lat="45.73911" lon="6.71157">
        <ele>2159</ele>
        <time>2026-07-29T11:34:44.716Z</time>
      </trkpt>
      <trkpt lat="45.73912" lon="6.71158">
        <ele>2158</ele>
        <time>2026-07-29T11:34:45.716Z</time>
      </trkpt>
      <trkpt lat="45.73913" lon="6.71159">
        <ele>2158</ele>
        <time>2026-07-29T11:34:46.716Z</time>
      </trkpt>
      <trkpt lat="45.73914" lon="6.7116">
        <ele>2157</ele>
        <time>2026-07-29T11:34:47.716Z</time>
      </trkpt>
      <trkpt lat="45.73915" lon="6.71161">
        <ele>2157</ele>
        <time>2026-07-29T11:34:48.716Z</time>
      </trkpt>
      <trkpt lat="45.73916" lon="6.71163">
        <ele>2156</ele>
        <time>2026-07-29T11:34:49.716Z</time>
      </trkpt>
      <trkpt lat="45.73916" lon="6.71164">
        <ele>2156</ele>
        <time>2026-07-29T11:34:50.716Z</time>
      </trkpt>
      <trkpt lat="45.73917" lon="6.71166">
        <ele>2155</ele>
        <time>2026-07-29T11:34:51.716Z</time>
      </trkpt>
      <trkpt lat="45.73917" lon="6.71168">
        <ele>2155</ele>
        <time>2026-07-29T11:34:52.716Z</time>
      </trkpt>
      <trkpt lat="45.73918" lon="6.7117">
        <ele>2155</ele>
        <time>2026-07-29T11:34:53.716Z</time>
      </trkpt>
      <trkpt lat="45.73919" lon="6.71171">
        <ele>2154</ele>
        <time>2026-07-29T11:34:54.716Z</time>
      </trkpt>
      <trkpt lat="45.73919" lon="6.71172">
        <ele>2154</ele>
        <time>2026-07-29T11:34:55.716Z</time>
      </trkpt>
      <trkpt lat="45.73919" lon="6.71174">
        <ele>2153</ele>
        <time>2026-07-29T11:34:56.716Z</time>
      </trkpt>
      <trkpt lat="45.73919" lon="6.71175">
        <ele>2153</ele>
        <time>2026-07-29T11:34:57.716Z</time>
      </trkpt>
      <trkpt lat="45.73919" lon="6.71176">
        <ele>2152</ele>
        <time>2026-07-29T11:34:58.716Z</time>
      </trkpt>
      <trkpt lat="45.73919" lon="6.71177">
        <ele>2152</ele>
        <time>2026-07-29T11:34:59.716Z</time>
      </trkpt>
      <trkpt lat="45.7392" lon="6.71177">
        <ele>2151</ele>
        <time>2026-07-29T11:35:00.716Z</time>
      </trkpt>
      <trkpt lat="45.73921" lon="6.71178">
        <ele>2151</ele>
        <time>2026-07-29T11:35:01.716Z</time>
      </trkpt>
      <trkpt lat="45.73922" lon="6.71178">
        <ele>2151</ele>
        <time>2026-07-29T11:35:02.716Z</time>
      </trkpt>
      <trkpt lat="45.73923" lon="6.71178">
        <ele>2151</ele>
        <time>2026-07-29T11:35:03.716Z</time>
      </trkpt>
      <trkpt lat="45.73925" lon="6.71179">
        <ele>2151</ele>
        <time>2026-07-29T11:35:04.716Z</time>
      </trkpt>
      <trkpt lat="45.73926" lon="6.71179">
        <ele>2151</ele>
        <time>2026-07-29T11:35:05.716Z</time>
      </trkpt>
      <trkpt lat="45.73927" lon="6.7118">
        <ele>2151</ele>
        <time>2026-07-29T11:35:06.716Z</time>
      </trkpt>
      <trkpt lat="45.73928" lon="6.71181">
        <ele>2150</ele>
        <time>2026-07-29T11:35:07.716Z</time>
      </trkpt>
      <trkpt lat="45.73929" lon="6.71181">
        <ele>2151</ele>
        <time>2026-07-29T11:35:08.716Z</time>
      </trkpt>
      <trkpt lat="45.73929" lon="6.71182">
        <ele>2151</ele>
        <time>2026-07-29T11:35:09.716Z</time>
      </trkpt>
      <trkpt lat="45.7393" lon="6.71183">
        <ele>2150</ele>
        <time>2026-07-29T11:35:10.716Z</time>
      </trkpt>
      <trkpt lat="45.73931" lon="6.71184">
        <ele>2150</ele>
        <time>2026-07-29T11:35:11.716Z</time>
      </trkpt>
      <trkpt lat="45.73931" lon="6.71185">
        <ele>2150</ele>
        <time>2026-07-29T11:35:12.716Z</time>
      </trkpt>
      <trkpt lat="45.73932" lon="6.71185">
        <ele>2149</ele>
        <time>2026-07-29T11:35:13.716Z</time>
      </trkpt>
      <trkpt lat="45.73932" lon="6.71185">
        <ele>2149</ele>
        <time>2026-07-29T11:35:14.717Z</time>
      </trkpt>
      <trkpt lat="45.73933" lon="6.71186">
        <ele>2148</ele>
        <time>2026-07-29T11:35:15.716Z</time>
      </trkpt>
      <trkpt lat="45.73934" lon="6.71187">
        <ele>2147</ele>
        <time>2026-07-29T11:35:16.716Z</time>
      </trkpt>
      <trkpt lat="45.73935" lon="6.71188">
        <ele>2147</ele>
        <time>2026-07-29T11:35:17.716Z</time>
      </trkpt>
      <trkpt lat="45.73936" lon="6.71189">
        <ele>2147</ele>
        <time>2026-07-29T11:35:18.716Z</time>
      </trkpt>
      <trkpt lat="45.73936" lon="6.7119">
        <ele>2146</ele>
        <time>2026-07-29T11:35:19.716Z</time>
      </trkpt>
      <trkpt lat="45.73937" lon="6.71191">
        <ele>2146</ele>
        <time>2026-07-29T11:35:20.716Z</time>
      </trkpt>
      <trkpt lat="45.73937" lon="6.71192">
        <ele>2146</ele>
        <time>2026-07-29T11:35:21.716Z</time>
      </trkpt>
      <trkpt lat="45.73938" lon="6.71192">
        <ele>2145</ele>
        <time>2026-07-29T11:35:22.716Z</time>
      </trkpt>
      <trkpt lat="45.73939" lon="6.71191">
        <ele>2145</ele>
        <time>2026-07-29T11:35:23.716Z</time>
      </trkpt>
      <trkpt lat="45.73939" lon="6.71191">
        <ele>2144</ele>
        <time>2026-07-29T11:35:24.716Z</time>
      </trkpt>
      <trkpt lat="45.7394" lon="6.71191">
        <ele>2144</ele>
        <time>2026-07-29T11:35:25.716Z</time>
      </trkpt>
      <trkpt lat="45.7394" lon="6.71191">
        <ele>2144</ele>
        <time>2026-07-29T11:35:26.716Z</time>
      </trkpt>
      <trkpt lat="45.73941" lon="6.7119">
        <ele>2143</ele>
        <time>2026-07-29T11:35:27.716Z</time>
      </trkpt>
      <trkpt lat="45.73941" lon="6.71191">
        <ele>2143</ele>
        <time>2026-07-29T11:35:28.716Z</time>
      </trkpt>
      <trkpt lat="45.73942" lon="6.71191">
        <ele>2143</ele>
        <time>2026-07-29T11:35:29.716Z</time>
      </trkpt>
      <trkpt lat="45.73943" lon="6.71191">
        <ele>2143</ele>
        <time>2026-07-29T11:35:30.716Z</time>
      </trkpt>
      <trkpt lat="45.73945" lon="6.71192">
        <ele>2143</ele>
        <time>2026-07-29T11:35:31.716Z</time>
      </trkpt>
      <trkpt lat="45.73945" lon="6.71193">
        <ele>2143</ele>
        <time>2026-07-29T11:35:32.716Z</time>
      </trkpt>
      <trkpt lat="45.73945" lon="6.71195">
        <ele>2143</ele>
        <time>2026-07-29T11:35:33.716Z</time>
      </trkpt>
      <trkpt lat="45.73946" lon="6.71196">
        <ele>2143</ele>
        <time>2026-07-29T11:35:34.716Z</time>
      </trkpt>
      <trkpt lat="45.73946" lon="6.71197">
        <ele>2142</ele>
        <time>2026-07-29T11:35:35.716Z</time>
      </trkpt>
      <trkpt lat="45.73946" lon="6.71198">
        <ele>2142</ele>
        <time>2026-07-29T11:35:36.716Z</time>
      </trkpt>
      <trkpt lat="45.73946" lon="6.71198">
        <ele>2142</ele>
        <time>2026-07-29T11:35:37.716Z</time>
      </trkpt>
      <trkpt lat="45.73947" lon="6.71199">
        <ele>2141</ele>
        <time>2026-07-29T11:35:38.716Z</time>
      </trkpt>
      <trkpt lat="45.73947" lon="6.71199">
        <ele>2141</ele>
        <time>2026-07-29T11:35:39.716Z</time>
      </trkpt>
      <trkpt lat="45.73948" lon="6.71199">
        <ele>2141</ele>
        <time>2026-07-29T11:35:40.716Z</time>
      </trkpt>
      <trkpt lat="45.73948" lon="6.71199">
        <ele>2141</ele>
        <time>2026-07-29T11:35:41.716Z</time>
      </trkpt>
      <trkpt lat="45.73948" lon="6.712">
        <ele>2141</ele>
        <time>2026-07-29T11:35:42.716Z</time>
      </trkpt>
      <trkpt lat="45.73949" lon="6.712">
        <ele>2141</ele>
        <time>2026-07-29T11:35:43.716Z</time>
      </trkpt>
      <trkpt lat="45.73949" lon="6.71199">
        <ele>2140</ele>
        <time>2026-07-29T11:35:44.716Z</time>
      </trkpt>
      <trkpt lat="45.7395" lon="6.71199">
        <ele>2140</ele>
        <time>2026-07-29T11:35:45.716Z</time>
      </trkpt>
      <trkpt lat="45.7395" lon="6.71198">
        <ele>2140</ele>
        <time>2026-07-29T11:35:46.716Z</time>
      </trkpt>
      <trkpt lat="45.73951" lon="6.71198">
        <ele>2139</ele>
        <time>2026-07-29T11:35:47.716Z</time>
      </trkpt>
      <trkpt lat="45.73952" lon="6.71198">
        <ele>2139</ele>
        <time>2026-07-29T11:35:48.716Z</time>
      </trkpt>
      <trkpt lat="45.73952" lon="6.71198">
        <ele>2139</ele>
        <time>2026-07-29T11:35:49.716Z</time>
      </trkpt>
      <trkpt lat="45.73952" lon="6.71199">
        <ele>2139</ele>
        <time>2026-07-29T11:35:50.716Z</time>
      </trkpt>
      <trkpt lat="45.73952" lon="6.71199">
        <ele>2138</ele>
        <time>2026-07-29T11:35:51.716Z</time>
      </trkpt>
      <trkpt lat="45.73952" lon="6.712">
        <ele>2138</ele>
        <time>2026-07-29T11:35:52.716Z</time>
      </trkpt>
      <trkpt lat="45.73953" lon="6.712">
        <ele>2138</ele>
        <time>2026-07-29T11:35:53.716Z</time>
      </trkpt>
      <trkpt lat="45.73953" lon="6.71201">
        <ele>2138</ele>
        <time>2026-07-29T11:35:54.716Z</time>
      </trkpt>
      <trkpt lat="45.73954" lon="6.71202">
        <ele>2138</ele>
        <time>2026-07-29T11:35:55.716Z</time>
      </trkpt>
      <trkpt lat="45.73954" lon="6.71203">
        <ele>2138</ele>
        <time>2026-07-29T11:35:56.716Z</time>
      </trkpt>
      <trkpt lat="45.73953" lon="6.71204">
        <ele>2138</ele>
        <time>2026-07-29T11:35:57.716Z</time>
      </trkpt>
      <trkpt lat="45.73953" lon="6.71204">
        <ele>2138</ele>
        <time>2026-07-29T11:35:58.716Z</time>
      </trkpt>
      <trkpt lat="45.73952" lon="6.71205">
        <ele>2138</ele>
        <time>2026-07-29T11:35:59.716Z</time>
      </trkpt>
      <trkpt lat="45.73952" lon="6.71207">
        <ele>2138</ele>
        <time>2026-07-29T11:36:00.716Z</time>
      </trkpt>
      <trkpt lat="45.73952" lon="6.71208">
        <ele>2138</ele>
        <time>2026-07-29T11:36:01.716Z</time>
      </trkpt>
      <trkpt lat="45.73951" lon="6.71209">
        <ele>2137</ele>
        <time>2026-07-29T11:36:02.716Z</time>
      </trkpt>
      <trkpt lat="45.7395" lon="6.71209">
        <ele>2137</ele>
        <time>2026-07-29T11:36:03.716Z</time>
      </trkpt>
      <trkpt lat="45.7395" lon="6.7121">
        <ele>2137</ele>
        <time>2026-07-29T11:36:04.716Z</time>
      </trkpt>
      <trkpt lat="45.7395" lon="6.7121">
        <ele>2137</ele>
        <time>2026-07-29T11:36:05.716Z</time>
      </trkpt>
      <trkpt lat="45.73951" lon="6.71211">
        <ele>2137</ele>
        <time>2026-07-29T11:36:06.716Z</time>
      </trkpt>
      <trkpt lat="45.73952" lon="6.71211">
        <ele>2137</ele>
        <time>2026-07-29T11:36:07.716Z</time>
      </trkpt>
      <trkpt lat="45.73953" lon="6.71212">
        <ele>2136</ele>
        <time>2026-07-29T11:36:08.716Z</time>
      </trkpt>
      <trkpt lat="45.73953" lon="6.71213">
        <ele>2136</ele>
        <time>2026-07-29T11:36:09.716Z</time>
      </trkpt>
      <trkpt lat="45.73953" lon="6.71213">
        <ele>2135</ele>
        <time>2026-07-29T11:36:10.716Z</time>
      </trkpt>
      <trkpt lat="45.73953" lon="6.71214">
        <ele>2135</ele>
        <time>2026-07-29T11:36:11.716Z</time>
      </trkpt>
      <trkpt lat="45.73953" lon="6.71214">
        <ele>2135</ele>
        <time>2026-07-29T11:36:12.716Z</time>
      </trkpt>
      <trkpt lat="45.73952" lon="6.71215">
        <ele>2135</ele>
        <time>2026-07-29T11:36:13.716Z</time>
      </trkpt>
      <trkpt lat="45.73952" lon="6.71215">
        <ele>2135</ele>
        <time>2026-07-29T11:36:14.716Z</time>
      </trkpt>
      <trkpt lat="45.73952" lon="6.71216">
        <ele>2135</ele>
        <time>2026-07-29T11:36:15.716Z</time>
      </trkpt>
      <trkpt lat="45.73953" lon="6.71216">
        <ele>2135</ele>
        <time>2026-07-29T11:36:16.716Z</time>
      </trkpt>
      <trkpt lat="45.73953" lon="6.71218">
        <ele>2135</ele>
        <time>2026-07-29T11:36:17.716Z</time>
      </trkpt>
      <trkpt lat="45.73953" lon="6.71219">
        <ele>2134</ele>
        <time>2026-07-29T11:36:18.716Z</time>
      </trkpt>
      <trkpt lat="45.73952" lon="6.71219">
        <ele>2134</ele>
        <time>2026-07-29T11:36:19.716Z</time>
      </trkpt>
      <trkpt lat="45.73952" lon="6.7122">
        <ele>2134</ele>
        <time>2026-07-29T11:36:20.716Z</time>
      </trkpt>
      <trkpt lat="45.73952" lon="6.71221">
        <ele>2133</ele>
        <time>2026-07-29T11:36:21.716Z</time>
      </trkpt>
      <trkpt lat="45.73952" lon="6.71222">
        <ele>2133</ele>
        <time>2026-07-29T11:36:22.716Z</time>
      </trkpt>
      <trkpt lat="45.73952" lon="6.71223">
        <ele>2132</ele>
        <time>2026-07-29T11:36:23.716Z</time>
      </trkpt>
      <trkpt lat="45.73952" lon="6.71224">
        <ele>2132</ele>
        <time>2026-07-29T11:36:24.716Z</time>
      </trkpt>
      <trkpt lat="45.73952" lon="6.71224">
        <ele>2131</ele>
        <time>2026-07-29T11:36:25.716Z</time>
      </trkpt>
      <trkpt lat="45.73952" lon="6.71225">
        <ele>2131</ele>
        <time>2026-07-29T11:36:26.716Z</time>
      </trkpt>
      <trkpt lat="45.73953" lon="6.71225">
        <ele>2130</ele>
        <time>2026-07-29T11:36:27.716Z</time>
      </trkpt>
      <trkpt lat="45.73954" lon="6.71225">
        <ele>2130</ele>
        <time>2026-07-29T11:36:28.716Z</time>
      </trkpt>
      <trkpt lat="45.73955" lon="6.71224">
        <ele>2130</ele>
        <time>2026-07-29T11:36:29.716Z</time>
      </trkpt>
      <trkpt lat="45.73956" lon="6.71224">
        <ele>2130</ele>
        <time>2026-07-29T11:36:30.716Z</time>
      </trkpt>
      <trkpt lat="45.73957" lon="6.71224">
        <ele>2130</ele>
        <time>2026-07-29T11:36:31.716Z</time>
      </trkpt>
      <trkpt lat="45.73957" lon="6.71223">
        <ele>2129</ele>
        <time>2026-07-29T11:36:32.716Z</time>
      </trkpt>
      <trkpt lat="45.73957" lon="6.71223">
        <ele>2129</ele>
        <time>2026-07-29T11:36:33.716Z</time>
      </trkpt>
      <trkpt lat="45.73958" lon="6.71222">
        <ele>2129</ele>
        <time>2026-07-29T11:36:34.716Z</time>
      </trkpt>
      <trkpt lat="45.73959" lon="6.71222">
        <ele>2129</ele>
        <time>2026-07-29T11:36:35.716Z</time>
      </trkpt>
      <trkpt lat="45.73959" lon="6.71222">
        <ele>2129</ele>
        <time>2026-07-29T11:36:36.716Z</time>
      </trkpt>
      <trkpt lat="45.7396" lon="6.71222">
        <ele>2130</ele>
        <time>2026-07-29T11:36:37.716Z</time>
      </trkpt>
      <trkpt lat="45.7396" lon="6.71223">
        <ele>2130</ele>
        <time>2026-07-29T11:36:38.716Z</time>
      </trkpt>
      <trkpt lat="45.73961" lon="6.71223">
        <ele>2130</ele>
        <time>2026-07-29T11:36:39.716Z</time>
      </trkpt>
      <trkpt lat="45.73961" lon="6.71224">
        <ele>2130</ele>
        <time>2026-07-29T11:36:40.716Z</time>
      </trkpt>
      <trkpt lat="45.73961" lon="6.71224">
        <ele>2131</ele>
        <time>2026-07-29T11:36:41.716Z</time>
      </trkpt>
      <trkpt lat="45.73962" lon="6.71224">
        <ele>2131</ele>
        <time>2026-07-29T11:36:42.716Z</time>
      </trkpt>
      <trkpt lat="45.73963" lon="6.71224">
        <ele>2131</ele>
        <time>2026-07-29T11:36:43.716Z</time>
      </trkpt>
      <trkpt lat="45.73963" lon="6.71224">
        <ele>2130</ele>
        <time>2026-07-29T11:36:44.716Z</time>
      </trkpt>
      <trkpt lat="45.73964" lon="6.71223">
        <ele>2130</ele>
        <time>2026-07-29T11:36:45.716Z</time>
      </trkpt>
      <trkpt lat="45.73965" lon="6.71224">
        <ele>2130</ele>
        <time>2026-07-29T11:36:46.716Z</time>
      </trkpt>
      <trkpt lat="45.73966" lon="6.71225">
        <ele>2130</ele>
        <time>2026-07-29T11:36:47.716Z</time>
      </trkpt>
      <trkpt lat="45.73966" lon="6.71226">
        <ele>2130</ele>
        <time>2026-07-29T11:36:48.716Z</time>
      </trkpt>
      <trkpt lat="45.73966" lon="6.71227">
        <ele>2130</ele>
        <time>2026-07-29T11:36:49.716Z</time>
      </trkpt>
      <trkpt lat="45.73967" lon="6.71228">
        <ele>2130</ele>
        <time>2026-07-29T11:36:50.716Z</time>
      </trkpt>
      <trkpt lat="45.73967" lon="6.71228">
        <ele>2129</ele>
        <time>2026-07-29T11:36:51.716Z</time>
      </trkpt>
      <trkpt lat="45.73968" lon="6.71229">
        <ele>2130</ele>
        <time>2026-07-29T11:36:52.716Z</time>
      </trkpt>
      <trkpt lat="45.73969" lon="6.71229">
        <ele>2130</ele>
        <time>2026-07-29T11:36:53.716Z</time>
      </trkpt>
      <trkpt lat="45.73969" lon="6.7123">
        <ele>2130</ele>
        <time>2026-07-29T11:36:54.716Z</time>
      </trkpt>
      <trkpt lat="45.73969" lon="6.71231">
        <ele>2130</ele>
        <time>2026-07-29T11:36:55.716Z</time>
      </trkpt>
      <trkpt lat="45.7397" lon="6.71231">
        <ele>2130</ele>
        <time>2026-07-29T11:36:56.716Z</time>
      </trkpt>
      <trkpt lat="45.7397" lon="6.71231">
        <ele>2130</ele>
        <time>2026-07-29T11:36:57.716Z</time>
      </trkpt>
      <trkpt lat="45.7397" lon="6.71231">
        <ele>2130</ele>
        <time>2026-07-29T11:36:58.716Z</time>
      </trkpt>
      <trkpt lat="45.73971" lon="6.71231">
        <ele>2130</ele>
        <time>2026-07-29T11:36:59.716Z</time>
      </trkpt>
      <trkpt lat="45.73971" lon="6.71232">
        <ele>2130</ele>
        <time>2026-07-29T11:37:00.716Z</time>
      </trkpt>
      <trkpt lat="45.73971" lon="6.71233">
        <ele>2130</ele>
        <time>2026-07-29T11:37:01.716Z</time>
      </trkpt>
      <trkpt lat="45.73971" lon="6.71234">
        <ele>2130</ele>
        <time>2026-07-29T11:37:02.716Z</time>
      </trkpt>
      <trkpt lat="45.73972" lon="6.71236">
        <ele>2130</ele>
        <time>2026-07-29T11:37:03.716Z</time>
      </trkpt>
      <trkpt lat="45.73971" lon="6.71237">
        <ele>2129</ele>
        <time>2026-07-29T11:37:04.716Z</time>
      </trkpt>
      <trkpt lat="45.73972" lon="6.71238">
        <ele>2129</ele>
        <time>2026-07-29T11:37:05.716Z</time>
      </trkpt>
      <trkpt lat="45.73972" lon="6.71239">
        <ele>2128</ele>
        <time>2026-07-29T11:37:06.716Z</time>
      </trkpt>
      <trkpt lat="45.73972" lon="6.7124">
        <ele>2128</ele>
        <time>2026-07-29T11:37:07.716Z</time>
      </trkpt>
      <trkpt lat="45.73972" lon="6.71242">
        <ele>2127</ele>
        <time>2026-07-29T11:37:08.716Z</time>
      </trkpt>
      <trkpt lat="45.73972" lon="6.71243">
        <ele>2127</ele>
        <time>2026-07-29T11:37:09.716Z</time>
      </trkpt>
      <trkpt lat="45.73971" lon="6.71244">
        <ele>2127</ele>
        <time>2026-07-29T11:37:10.716Z</time>
      </trkpt>
      <trkpt lat="45.73971" lon="6.71245">
        <ele>2126</ele>
        <time>2026-07-29T11:37:11.716Z</time>
      </trkpt>
      <trkpt lat="45.7397" lon="6.71246">
        <ele>2126</ele>
        <time>2026-07-29T11:37:12.716Z</time>
      </trkpt>
      <trkpt lat="45.7397" lon="6.71247">
        <ele>2126</ele>
        <time>2026-07-29T11:37:13.716Z</time>
      </trkpt>
      <trkpt lat="45.73969" lon="6.71248">
        <ele>2125</ele>
        <time>2026-07-29T11:37:14.716Z</time>
      </trkpt>
      <trkpt lat="45.73969" lon="6.71249">
        <ele>2125</ele>
        <time>2026-07-29T11:37:15.716Z</time>
      </trkpt>
      <trkpt lat="45.73969" lon="6.7125">
        <ele>2124</ele>
        <time>2026-07-29T11:37:16.716Z</time>
      </trkpt>
      <trkpt lat="45.73969" lon="6.71251">
        <ele>2124</ele>
        <time>2026-07-29T11:37:17.716Z</time>
      </trkpt>
      <trkpt lat="45.73969" lon="6.71253">
        <ele>2124</ele>
        <time>2026-07-29T11:37:18.716Z</time>
      </trkpt>
      <trkpt lat="45.73968" lon="6.71254">
        <ele>2124</ele>
        <time>2026-07-29T11:37:19.716Z</time>
      </trkpt>
      <trkpt lat="45.73968" lon="6.71255">
        <ele>2124</ele>
        <time>2026-07-29T11:37:20.716Z</time>
      </trkpt>
      <trkpt lat="45.73968" lon="6.71256">
        <ele>2124</ele>
        <time>2026-07-29T11:37:21.716Z</time>
      </trkpt>
      <trkpt lat="45.73968" lon="6.71257">
        <ele>2124</ele>
        <time>2026-07-29T11:37:22.716Z</time>
      </trkpt>
      <trkpt lat="45.73967" lon="6.71257">
        <ele>2123</ele>
        <time>2026-07-29T11:37:23.716Z</time>
      </trkpt>
      <trkpt lat="45.73967" lon="6.71257">
        <ele>2123</ele>
        <time>2026-07-29T11:37:24.716Z</time>
      </trkpt>
      <trkpt lat="45.73967" lon="6.71257">
        <ele>2123</ele>
        <time>2026-07-29T11:37:25.716Z</time>
      </trkpt>
      <trkpt lat="45.73967" lon="6.71258">
        <ele>2122</ele>
        <time>2026-07-29T11:37:26.716Z</time>
      </trkpt>
      <trkpt lat="45.73967" lon="6.71259">
        <ele>2122</ele>
        <time>2026-07-29T11:37:27.716Z</time>
      </trkpt>
      <trkpt lat="45.73967" lon="6.71259">
        <ele>2122</ele>
        <time>2026-07-29T11:37:28.716Z</time>
      </trkpt>
      <trkpt lat="45.73967" lon="6.7126">
        <ele>2122</ele>
        <time>2026-07-29T11:37:29.716Z</time>
      </trkpt>
      <trkpt lat="45.73967" lon="6.71261">
        <ele>2122</ele>
        <time>2026-07-29T11:37:30.716Z</time>
      </trkpt>
      <trkpt lat="45.73967" lon="6.71262">
        <ele>2122</ele>
        <time>2026-07-29T11:37:31.716Z</time>
      </trkpt>
      <trkpt lat="45.73966" lon="6.71263">
        <ele>2122</ele>
        <time>2026-07-29T11:37:32.716Z</time>
      </trkpt>
      <trkpt lat="45.73966" lon="6.71264">
        <ele>2122</ele>
        <time>2026-07-29T11:37:33.716Z</time>
      </trkpt>
      <trkpt lat="45.73966" lon="6.71266">
        <ele>2123</ele>
        <time>2026-07-29T11:37:34.716Z</time>
      </trkpt>
      <trkpt lat="45.73966" lon="6.71267">
        <ele>2123</ele>
        <time>2026-07-29T11:37:35.716Z</time>
      </trkpt>
      <trkpt lat="45.73967" lon="6.71267">
        <ele>2123</ele>
        <time>2026-07-29T11:37:36.716Z</time>
      </trkpt>
      <trkpt lat="45.73969" lon="6.71268">
        <ele>2123</ele>
        <time>2026-07-29T11:37:37.716Z</time>
      </trkpt>
      <trkpt lat="45.7397" lon="6.7127">
        <ele>2123</ele>
        <time>2026-07-29T11:37:38.716Z</time>
      </trkpt>
      <trkpt lat="45.73971" lon="6.71271">
        <ele>2124</ele>
        <time>2026-07-29T11:37:39.716Z</time>
      </trkpt>
      <trkpt lat="45.73972" lon="6.71273">
        <ele>2124</ele>
        <time>2026-07-29T11:37:40.716Z</time>
      </trkpt>
      <trkpt lat="45.73973" lon="6.71275">
        <ele>2124</ele>
        <time>2026-07-29T11:37:41.716Z</time>
      </trkpt>
      <trkpt lat="45.73975" lon="6.71276">
        <ele>2124</ele>
        <time>2026-07-29T11:37:42.716Z</time>
      </trkpt>
      <trkpt lat="45.73976" lon="6.71277">
        <ele>2124</ele>
        <time>2026-07-29T11:37:43.716Z</time>
      </trkpt>
      <trkpt lat="45.73977" lon="6.71278">
        <ele>2124</ele>
        <time>2026-07-29T11:37:44.716Z</time>
      </trkpt>
      <trkpt lat="45.73978" lon="6.71279">
        <ele>2123</ele>
        <time>2026-07-29T11:37:45.716Z</time>
      </trkpt>
      <trkpt lat="45.73979" lon="6.7128">
        <ele>2124</ele>
        <time>2026-07-29T11:37:46.716Z</time>
      </trkpt>
      <trkpt lat="45.7398" lon="6.7128">
        <ele>2123</ele>
        <time>2026-07-29T11:37:47.716Z</time>
      </trkpt>
      <trkpt lat="45.73981" lon="6.71281">
        <ele>2124</ele>
        <time>2026-07-29T11:37:48.716Z</time>
      </trkpt>
      <trkpt lat="45.73982" lon="6.71282">
        <ele>2124</ele>
        <time>2026-07-29T11:37:49.716Z</time>
      </trkpt>
      <trkpt lat="45.73983" lon="6.71283">
        <ele>2123</ele>
        <time>2026-07-29T11:37:50.716Z</time>
      </trkpt>
      <trkpt lat="45.73983" lon="6.71285">
        <ele>2123</ele>
        <time>2026-07-29T11:37:51.716Z</time>
      </trkpt>
      <trkpt lat="45.73984" lon="6.71286">
        <ele>2123</ele>
        <time>2026-07-29T11:37:52.716Z</time>
      </trkpt>
      <trkpt lat="45.73985" lon="6.71287">
        <ele>2123</ele>
        <time>2026-07-29T11:37:53.716Z</time>
      </trkpt>
      <trkpt lat="45.73986" lon="6.71288">
        <ele>2123</ele>
        <time>2026-07-29T11:37:54.716Z</time>
      </trkpt>
      <trkpt lat="45.73987" lon="6.71288">
        <ele>2123</ele>
        <time>2026-07-29T11:37:55.716Z</time>
      </trkpt>
      <trkpt lat="45.73988" lon="6.71289">
        <ele>2123</ele>
        <time>2026-07-29T11:37:56.716Z</time>
      </trkpt>
      <trkpt lat="45.73989" lon="6.71288">
        <ele>2123</ele>
        <time>2026-07-29T11:37:57.716Z</time>
      </trkpt>
      <trkpt lat="45.7399" lon="6.71288">
        <ele>2123</ele>
        <time>2026-07-29T11:37:58.716Z</time>
      </trkpt>
      <trkpt lat="45.73991" lon="6.71288">
        <ele>2122</ele>
        <time>2026-07-29T11:37:59.716Z</time>
      </trkpt>
      <trkpt lat="45.73992" lon="6.71287">
        <ele>2123</ele>
        <time>2026-07-29T11:38:00.716Z</time>
      </trkpt>
      <trkpt lat="45.73993" lon="6.71287">
        <ele>2123</ele>
        <time>2026-07-29T11:38:01.716Z</time>
      </trkpt>
      <trkpt lat="45.73994" lon="6.71288">
        <ele>2123</ele>
        <time>2026-07-29T11:38:02.716Z</time>
      </trkpt>
      <trkpt lat="45.73995" lon="6.71288">
        <ele>2122</ele>
        <time>2026-07-29T11:38:03.716Z</time>
      </trkpt>
      <trkpt lat="45.73995" lon="6.71289">
        <ele>2122</ele>
        <time>2026-07-29T11:38:04.716Z</time>
      </trkpt>
      <trkpt lat="45.73996" lon="6.71289">
        <ele>2122</ele>
        <time>2026-07-29T11:38:05.716Z</time>
      </trkpt>
      <trkpt lat="45.73997" lon="6.71289">
        <ele>2121</ele>
        <time>2026-07-29T11:38:06.716Z</time>
      </trkpt>
      <trkpt lat="45.73997" lon="6.71289">
        <ele>2121</ele>
        <time>2026-07-29T11:38:07.716Z</time>
      </trkpt>
      <trkpt lat="45.73998" lon="6.71289">
        <ele>2121</ele>
        <time>2026-07-29T11:38:08.716Z</time>
      </trkpt>
      <trkpt lat="45.73999" lon="6.71289">
        <ele>2121</ele>
        <time>2026-07-29T11:38:09.716Z</time>
      </trkpt>
      <trkpt lat="45.74" lon="6.71289">
        <ele>2121</ele>
        <time>2026-07-29T11:38:10.716Z</time>
      </trkpt>
      <trkpt lat="45.74001" lon="6.71289">
        <ele>2121</ele>
        <time>2026-07-29T11:38:11.716Z</time>
      </trkpt>
      <trkpt lat="45.74002" lon="6.7129">
        <ele>2121</ele>
        <time>2026-07-29T11:38:12.716Z</time>
      </trkpt>
      <trkpt lat="45.74003" lon="6.71289">
        <ele>2121</ele>
        <time>2026-07-29T11:38:13.716Z</time>
      </trkpt>
      <trkpt lat="45.74004" lon="6.71288">
        <ele>2121</ele>
        <time>2026-07-29T11:38:14.716Z</time>
      </trkpt>
      <trkpt lat="45.74005" lon="6.71287">
        <ele>2121</ele>
        <time>2026-07-29T11:38:15.716Z</time>
      </trkpt>
      <trkpt lat="45.74007" lon="6.71286">
        <ele>2121</ele>
        <time>2026-07-29T11:38:16.716Z</time>
      </trkpt>
      <trkpt lat="45.74008" lon="6.71286">
        <ele>2121</ele>
        <time>2026-07-29T11:38:17.716Z</time>
      </trkpt>
      <trkpt lat="45.74009" lon="6.71285">
        <ele>2121</ele>
        <time>2026-07-29T11:38:18.716Z</time>
      </trkpt>
      <trkpt lat="45.7401" lon="6.71285">
        <ele>2121</ele>
        <time>2026-07-29T11:38:19.716Z</time>
      </trkpt>
      <trkpt lat="45.7401" lon="6.71286">
        <ele>2120</ele>
        <time>2026-07-29T11:38:20.716Z</time>
      </trkpt>
      <trkpt lat="45.74011" lon="6.71287">
        <ele>2120</ele>
        <time>2026-07-29T11:38:21.716Z</time>
      </trkpt>
      <trkpt lat="45.74011" lon="6.71288">
        <ele>2120</ele>
        <time>2026-07-29T11:38:22.716Z</time>
      </trkpt>
      <trkpt lat="45.74012" lon="6.71288">
        <ele>2120</ele>
        <time>2026-07-29T11:38:23.716Z</time>
      </trkpt>
      <trkpt lat="45.74014" lon="6.71288">
        <ele>2120</ele>
        <time>2026-07-29T11:38:24.716Z</time>
      </trkpt>
      <trkpt lat="45.74014" lon="6.71289">
        <ele>2120</ele>
        <time>2026-07-29T11:38:25.716Z</time>
      </trkpt>
      <trkpt lat="45.74015" lon="6.71289">
        <ele>2119</ele>
        <time>2026-07-29T11:38:26.716Z</time>
      </trkpt>
      <trkpt lat="45.74016" lon="6.7129">
        <ele>2119</ele>
        <time>2026-07-29T11:38:27.716Z</time>
      </trkpt>
      <trkpt lat="45.74018" lon="6.7129">
        <ele>2119</ele>
        <time>2026-07-29T11:38:28.716Z</time>
      </trkpt>
      <trkpt lat="45.74019" lon="6.71291">
        <ele>2120</ele>
        <time>2026-07-29T11:38:29.716Z</time>
      </trkpt>
      <trkpt lat="45.7402" lon="6.71291">
        <ele>2120</ele>
        <time>2026-07-29T11:38:30.716Z</time>
      </trkpt>
      <trkpt lat="45.74023" lon="6.71292">
        <ele>2121</ele>
        <time>2026-07-29T11:38:31.716Z</time>
      </trkpt>
      <trkpt lat="45.74024" lon="6.71294">
        <ele>2121</ele>
        <time>2026-07-29T11:38:32.716Z</time>
      </trkpt>
      <trkpt lat="45.74026" lon="6.71294">
        <ele>2121</ele>
        <time>2026-07-29T11:38:33.716Z</time>
      </trkpt>
      <trkpt lat="45.74027" lon="6.71296">
        <ele>2120</ele>
        <time>2026-07-29T11:38:34.716Z</time>
      </trkpt>
      <trkpt lat="45.74029" lon="6.71298">
        <ele>2120</ele>
        <time>2026-07-29T11:38:35.716Z</time>
      </trkpt>
      <trkpt lat="45.7403" lon="6.71299">
        <ele>2120</ele>
        <time>2026-07-29T11:38:36.716Z</time>
      </trkpt>
      <trkpt lat="45.74031" lon="6.713">
        <ele>2119</ele>
        <time>2026-07-29T11:38:37.716Z</time>
      </trkpt>
      <trkpt lat="45.74032" lon="6.71301">
        <ele>2119</ele>
        <time>2026-07-29T11:38:38.716Z</time>
      </trkpt>
      <trkpt lat="45.74033" lon="6.71303">
        <ele>2118</ele>
        <time>2026-07-29T11:38:39.716Z</time>
      </trkpt>
      <trkpt lat="45.74034" lon="6.71304">
        <ele>2117</ele>
        <time>2026-07-29T11:38:40.716Z</time>
      </trkpt>
      <trkpt lat="45.74035" lon="6.71305">
        <ele>2117</ele>
        <time>2026-07-29T11:38:41.716Z</time>
      </trkpt>
      <trkpt lat="45.74036" lon="6.71306">
        <ele>2116</ele>
        <time>2026-07-29T11:38:42.716Z</time>
      </trkpt>
      <trkpt lat="45.74037" lon="6.71307">
        <ele>2116</ele>
        <time>2026-07-29T11:38:43.716Z</time>
      </trkpt>
      <trkpt lat="45.74039" lon="6.71308">
        <ele>2116</ele>
        <time>2026-07-29T11:38:44.716Z</time>
      </trkpt>
      <trkpt lat="45.7404" lon="6.71309">
        <ele>2115</ele>
        <time>2026-07-29T11:38:45.716Z</time>
      </trkpt>
      <trkpt lat="45.74041" lon="6.7131">
        <ele>2115</ele>
        <time>2026-07-29T11:38:46.716Z</time>
      </trkpt>
      <trkpt lat="45.74041" lon="6.71311">
        <ele>2115</ele>
        <time>2026-07-29T11:38:47.716Z</time>
      </trkpt>
      <trkpt lat="45.74042" lon="6.71312">
        <ele>2115</ele>
        <time>2026-07-29T11:38:48.716Z</time>
      </trkpt>
      <trkpt lat="45.74043" lon="6.71314">
        <ele>2115</ele>
        <time>2026-07-29T11:38:49.716Z</time>
      </trkpt>
      <trkpt lat="45.74044" lon="6.71315">
        <ele>2115</ele>
        <time>2026-07-29T11:38:50.716Z</time>
      </trkpt>
      <trkpt lat="45.74044" lon="6.71316">
        <ele>2115</ele>
        <time>2026-07-29T11:38:51.716Z</time>
      </trkpt>
      <trkpt lat="45.74045" lon="6.71317">
        <ele>2115</ele>
        <time>2026-07-29T11:38:52.716Z</time>
      </trkpt>
      <trkpt lat="45.74045" lon="6.71318">
        <ele>2115</ele>
        <time>2026-07-29T11:38:53.716Z</time>
      </trkpt>
      <trkpt lat="45.74046" lon="6.7132">
        <ele>2114</ele>
        <time>2026-07-29T11:38:54.716Z</time>
      </trkpt>
      <trkpt lat="45.74047" lon="6.71321">
        <ele>2114</ele>
        <time>2026-07-29T11:38:55.716Z</time>
      </trkpt>
      <trkpt lat="45.74047" lon="6.71322">
        <ele>2114</ele>
        <time>2026-07-29T11:38:56.716Z</time>
      </trkpt>
      <trkpt lat="45.74048" lon="6.71324">
        <ele>2114</ele>
        <time>2026-07-29T11:38:57.716Z</time>
      </trkpt>
      <trkpt lat="45.7405" lon="6.71324">
        <ele>2114</ele>
        <time>2026-07-29T11:38:58.716Z</time>
      </trkpt>
      <trkpt lat="45.74051" lon="6.71325">
        <ele>2114</ele>
        <time>2026-07-29T11:38:59.716Z</time>
      </trkpt>
      <trkpt lat="45.74052" lon="6.71325">
        <ele>2113</ele>
        <time>2026-07-29T11:39:00.716Z</time>
      </trkpt>
      <trkpt lat="45.74053" lon="6.71326">
        <ele>2113</ele>
        <time>2026-07-29T11:39:01.716Z</time>
      </trkpt>
      <trkpt lat="45.74054" lon="6.71328">
        <ele>2113</ele>
        <time>2026-07-29T11:39:02.716Z</time>
      </trkpt>
      <trkpt lat="45.74055" lon="6.7133">
        <ele>2112</ele>
        <time>2026-07-29T11:39:03.716Z</time>
      </trkpt>
      <trkpt lat="45.74055" lon="6.71332">
        <ele>2112</ele>
        <time>2026-07-29T11:39:04.716Z</time>
      </trkpt>
      <trkpt lat="45.74056" lon="6.71334">
        <ele>2112</ele>
        <time>2026-07-29T11:39:05.716Z</time>
      </trkpt>
      <trkpt lat="45.74056" lon="6.71336">
        <ele>2112</ele>
        <time>2026-07-29T11:39:06.716Z</time>
      </trkpt>
      <trkpt lat="45.74057" lon="6.71338">
        <ele>2113</ele>
        <time>2026-07-29T11:39:07.716Z</time>
      </trkpt>
      <trkpt lat="45.74058" lon="6.71339">
        <ele>2113</ele>
        <time>2026-07-29T11:39:08.716Z</time>
      </trkpt>
      <trkpt lat="45.7406" lon="6.7134">
        <ele>2113</ele>
        <time>2026-07-29T11:39:09.716Z</time>
      </trkpt>
      <trkpt lat="45.74061" lon="6.71341">
        <ele>2112</ele>
        <time>2026-07-29T11:39:10.716Z</time>
      </trkpt>
      <trkpt lat="45.74062" lon="6.71343">
        <ele>2112</ele>
        <time>2026-07-29T11:39:11.716Z</time>
      </trkpt>
      <trkpt lat="45.74063" lon="6.71344">
        <ele>2112</ele>
        <time>2026-07-29T11:39:12.716Z</time>
      </trkpt>
      <trkpt lat="45.74064" lon="6.71346">
        <ele>2112</ele>
        <time>2026-07-29T11:39:13.716Z</time>
      </trkpt>
      <trkpt lat="45.74064" lon="6.71348">
        <ele>2112</ele>
        <time>2026-07-29T11:39:14.716Z</time>
      </trkpt>
      <trkpt lat="45.74065" lon="6.71349">
        <ele>2112</ele>
        <time>2026-07-29T11:39:15.716Z</time>
      </trkpt>
      <trkpt lat="45.74066" lon="6.7135">
        <ele>2111</ele>
        <time>2026-07-29T11:39:16.716Z</time>
      </trkpt>
      <trkpt lat="45.74067" lon="6.71352">
        <ele>2111</ele>
        <time>2026-07-29T11:39:17.716Z</time>
      </trkpt>
      <trkpt lat="45.74067" lon="6.71354">
        <ele>2111</ele>
        <time>2026-07-29T11:39:18.716Z</time>
      </trkpt>
      <trkpt lat="45.74067" lon="6.71355">
        <ele>2111</ele>
        <time>2026-07-29T11:39:19.716Z</time>
      </trkpt>
      <trkpt lat="45.74068" lon="6.71356">
        <ele>2111</ele>
        <time>2026-07-29T11:39:20.716Z</time>
      </trkpt>
      <trkpt lat="45.74068" lon="6.71357">
        <ele>2110</ele>
        <time>2026-07-29T11:39:21.716Z</time>
      </trkpt>
      <trkpt lat="45.74069" lon="6.71358">
        <ele>2110</ele>
        <time>2026-07-29T11:39:22.716Z</time>
      </trkpt>
      <trkpt lat="45.74069" lon="6.71359">
        <ele>2110</ele>
        <time>2026-07-29T11:39:23.716Z</time>
      </trkpt>
      <trkpt lat="45.7407" lon="6.7136">
        <ele>2110</ele>
        <time>2026-07-29T11:39:24.716Z</time>
      </trkpt>
      <trkpt lat="45.74071" lon="6.7136">
        <ele>2110</ele>
        <time>2026-07-29T11:39:25.716Z</time>
      </trkpt>
      <trkpt lat="45.74072" lon="6.71361">
        <ele>2109</ele>
        <time>2026-07-29T11:39:26.716Z</time>
      </trkpt>
      <trkpt lat="45.74073" lon="6.71361">
        <ele>2109</ele>
        <time>2026-07-29T11:39:27.716Z</time>
      </trkpt>
      <trkpt lat="45.74073" lon="6.71361">
        <ele>2108</ele>
        <time>2026-07-29T11:39:28.716Z</time>
      </trkpt>
      <trkpt lat="45.74074" lon="6.71362">
        <ele>2108</ele>
        <time>2026-07-29T11:39:29.716Z</time>
      </trkpt>
      <trkpt lat="45.74075" lon="6.71362">
        <ele>2108</ele>
        <time>2026-07-29T11:39:30.716Z</time>
      </trkpt>
      <trkpt lat="45.74075" lon="6.71363">
        <ele>2108</ele>
        <time>2026-07-29T11:39:31.716Z</time>
      </trkpt>
      <trkpt lat="45.74076" lon="6.71363">
        <ele>2108</ele>
        <time>2026-07-29T11:39:32.716Z</time>
      </trkpt>
      <trkpt lat="45.74077" lon="6.71363">
        <ele>2108</ele>
        <time>2026-07-29T11:39:33.716Z</time>
      </trkpt>
      <trkpt lat="45.74078" lon="6.71363">
        <ele>2108</ele>
        <time>2026-07-29T11:39:34.716Z</time>
      </trkpt>
      <trkpt lat="45.74079" lon="6.71363">
        <ele>2107</ele>
        <time>2026-07-29T11:39:35.716Z</time>
      </trkpt>
      <trkpt lat="45.7408" lon="6.71363">
        <ele>2108</ele>
        <time>2026-07-29T11:39:36.716Z</time>
      </trkpt>
      <trkpt lat="45.74081" lon="6.71363">
        <ele>2107</ele>
        <time>2026-07-29T11:39:37.716Z</time>
      </trkpt>
      <trkpt lat="45.74081" lon="6.71364">
        <ele>2107</ele>
        <time>2026-07-29T11:39:38.716Z</time>
      </trkpt>
      <trkpt lat="45.74082" lon="6.71364">
        <ele>2107</ele>
        <time>2026-07-29T11:39:39.716Z</time>
      </trkpt>
      <trkpt lat="45.74083" lon="6.71365">
        <ele>2107</ele>
        <time>2026-07-29T11:39:40.716Z</time>
      </trkpt>
      <trkpt lat="45.74085" lon="6.71366">
        <ele>2107</ele>
        <time>2026-07-29T11:39:41.716Z</time>
      </trkpt>
      <trkpt lat="45.74086" lon="6.71367">
        <ele>2107</ele>
        <time>2026-07-29T11:39:42.716Z</time>
      </trkpt>
      <trkpt lat="45.74087" lon="6.71367">
        <ele>2107</ele>
        <time>2026-07-29T11:39:43.716Z</time>
      </trkpt>
      <trkpt lat="45.74089" lon="6.71368">
        <ele>2107</ele>
        <time>2026-07-29T11:39:44.716Z</time>
      </trkpt>
      <trkpt lat="45.7409" lon="6.71369">
        <ele>2107</ele>
        <time>2026-07-29T11:39:45.716Z</time>
      </trkpt>
      <trkpt lat="45.74092" lon="6.7137">
        <ele>2107</ele>
        <time>2026-07-29T11:39:46.716Z</time>
      </trkpt>
      <trkpt lat="45.74094" lon="6.71371">
        <ele>2106</ele>
        <time>2026-07-29T11:39:47.716Z</time>
      </trkpt>
      <trkpt lat="45.74096" lon="6.71372">
        <ele>2106</ele>
        <time>2026-07-29T11:39:48.716Z</time>
      </trkpt>
      <trkpt lat="45.74097" lon="6.71373">
        <ele>2106</ele>
        <time>2026-07-29T11:39:49.716Z</time>
      </trkpt>
      <trkpt lat="45.74099" lon="6.71374">
        <ele>2106</ele>
        <time>2026-07-29T11:39:50.716Z</time>
      </trkpt>
      <trkpt lat="45.74101" lon="6.71375">
        <ele>2105</ele>
        <time>2026-07-29T11:39:51.716Z</time>
      </trkpt>
      <trkpt lat="45.74103" lon="6.71376">
        <ele>2105</ele>
        <time>2026-07-29T11:39:52.716Z</time>
      </trkpt>
      <trkpt lat="45.74104" lon="6.71377">
        <ele>2105</ele>
        <time>2026-07-29T11:39:53.716Z</time>
      </trkpt>
      <trkpt lat="45.74106" lon="6.71378">
        <ele>2105</ele>
        <time>2026-07-29T11:39:54.716Z</time>
      </trkpt>
      <trkpt lat="45.74107" lon="6.71378">
        <ele>2104</ele>
        <time>2026-07-29T11:39:55.716Z</time>
      </trkpt>
      <trkpt lat="45.74109" lon="6.71379">
        <ele>2104</ele>
        <time>2026-07-29T11:39:56.716Z</time>
      </trkpt>
      <trkpt lat="45.7411" lon="6.71379">
        <ele>2104</ele>
        <time>2026-07-29T11:39:57.716Z</time>
      </trkpt>
      <trkpt lat="45.74112" lon="6.71378">
        <ele>2104</ele>
        <time>2026-07-29T11:39:58.716Z</time>
      </trkpt>
      <trkpt lat="45.74114" lon="6.71379">
        <ele>2104</ele>
        <time>2026-07-29T11:39:59.716Z</time>
      </trkpt>
      <trkpt lat="45.74115" lon="6.7138">
        <ele>2103</ele>
        <time>2026-07-29T11:40:00.716Z</time>
      </trkpt>
      <trkpt lat="45.74116" lon="6.71381">
        <ele>2103</ele>
        <time>2026-07-29T11:40:01.716Z</time>
      </trkpt>
      <trkpt lat="45.74118" lon="6.71381">
        <ele>2103</ele>
        <time>2026-07-29T11:40:02.716Z</time>
      </trkpt>
      <trkpt lat="45.74119" lon="6.71382">
        <ele>2103</ele>
        <time>2026-07-29T11:40:03.716Z</time>
      </trkpt>
      <trkpt lat="45.74121" lon="6.71382">
        <ele>2102</ele>
        <time>2026-07-29T11:40:04.716Z</time>
      </trkpt>
      <trkpt lat="45.74122" lon="6.71383">
        <ele>2102</ele>
        <time>2026-07-29T11:40:05.716Z</time>
      </trkpt>
      <trkpt lat="45.74123" lon="6.71384">
        <ele>2101</ele>
        <time>2026-07-29T11:40:06.716Z</time>
      </trkpt>
      <trkpt lat="45.74125" lon="6.71384">
        <ele>2101</ele>
        <time>2026-07-29T11:40:07.716Z</time>
      </trkpt>
      <trkpt lat="45.74127" lon="6.71385">
        <ele>2100</ele>
        <time>2026-07-29T11:40:08.716Z</time>
      </trkpt>
      <trkpt lat="45.74128" lon="6.71385">
        <ele>2100</ele>
        <time>2026-07-29T11:40:09.716Z</time>
      </trkpt>
      <trkpt lat="45.7413" lon="6.71386">
        <ele>2099</ele>
        <time>2026-07-29T11:40:10.716Z</time>
      </trkpt>
      <trkpt lat="45.74131" lon="6.71387">
        <ele>2099</ele>
        <time>2026-07-29T11:40:11.716Z</time>
      </trkpt>
      <trkpt lat="45.74133" lon="6.71388">
        <ele>2099</ele>
        <time>2026-07-29T11:40:12.716Z</time>
      </trkpt>
      <trkpt lat="45.74134" lon="6.71389">
        <ele>2098</ele>
        <time>2026-07-29T11:40:13.716Z</time>
      </trkpt>
      <trkpt lat="45.74136" lon="6.7139">
        <ele>2098</ele>
        <time>2026-07-29T11:40:14.716Z</time>
      </trkpt>
      <trkpt lat="45.74137" lon="6.71391">
        <ele>2098</ele>
        <time>2026-07-29T11:40:15.716Z</time>
      </trkpt>
      <trkpt lat="45.74138" lon="6.71393">
        <ele>2098</ele>
        <time>2026-07-29T11:40:16.716Z</time>
      </trkpt>
      <trkpt lat="45.7414" lon="6.71394">
        <ele>2098</ele>
        <time>2026-07-29T11:40:17.716Z</time>
      </trkpt>
      <trkpt lat="45.74141" lon="6.71396">
        <ele>2098</ele>
        <time>2026-07-29T11:40:18.716Z</time>
      </trkpt>
      <trkpt lat="45.74143" lon="6.71397">
        <ele>2098</ele>
        <time>2026-07-29T11:40:19.716Z</time>
      </trkpt>
      <trkpt lat="45.74144" lon="6.71398">
        <ele>2097</ele>
        <time>2026-07-29T11:40:20.716Z</time>
      </trkpt>
      <trkpt lat="45.74146" lon="6.71399">
        <ele>2097</ele>
        <time>2026-07-29T11:40:21.716Z</time>
      </trkpt>
      <trkpt lat="45.74148" lon="6.714">
        <ele>2097</ele>
        <time>2026-07-29T11:40:22.716Z</time>
      </trkpt>
      <trkpt lat="45.7415" lon="6.714">
        <ele>2097</ele>
        <time>2026-07-29T11:40:23.716Z</time>
      </trkpt>
      <trkpt lat="45.74152" lon="6.71402">
        <ele>2097</ele>
        <time>2026-07-29T11:40:24.716Z</time>
      </trkpt>
      <trkpt lat="45.74154" lon="6.71403">
        <ele>2096</ele>
        <time>2026-07-29T11:40:25.716Z</time>
      </trkpt>
      <trkpt lat="45.74156" lon="6.71404">
        <ele>2096</ele>
        <time>2026-07-29T11:40:26.716Z</time>
      </trkpt>
      <trkpt lat="45.74158" lon="6.71406">
        <ele>2096</ele>
        <time>2026-07-29T11:40:27.717Z</time>
      </trkpt>
      <trkpt lat="45.7416" lon="6.71408">
        <ele>2096</ele>
        <time>2026-07-29T11:40:28.716Z</time>
      </trkpt>
      <trkpt lat="45.74162" lon="6.71409">
        <ele>2095</ele>
        <time>2026-07-29T11:40:29.716Z</time>
      </trkpt>
      <trkpt lat="45.74164" lon="6.71411">
        <ele>2095</ele>
        <time>2026-07-29T11:40:30.716Z</time>
      </trkpt>
      <trkpt lat="45.74166" lon="6.71412">
        <ele>2095</ele>
        <time>2026-07-29T11:40:31.716Z</time>
      </trkpt>
      <trkpt lat="45.74168" lon="6.71414">
        <ele>2094</ele>
        <time>2026-07-29T11:40:32.716Z</time>
      </trkpt>
      <trkpt lat="45.74169" lon="6.71416">
        <ele>2094</ele>
        <time>2026-07-29T11:40:33.716Z</time>
      </trkpt>
      <trkpt lat="45.7417" lon="6.71418">
        <ele>2094</ele>
        <time>2026-07-29T11:40:34.716Z</time>
      </trkpt>
      <trkpt lat="45.74172" lon="6.7142">
        <ele>2094</ele>
        <time>2026-07-29T11:40:35.716Z</time>
      </trkpt>
      <trkpt lat="45.74173" lon="6.71422">
        <ele>2093</ele>
        <time>2026-07-29T11:40:36.716Z</time>
      </trkpt>
      <trkpt lat="45.74175" lon="6.71425">
        <ele>2093</ele>
        <time>2026-07-29T11:40:37.716Z</time>
      </trkpt>
      <trkpt lat="45.74176" lon="6.71427">
        <ele>2093</ele>
        <time>2026-07-29T11:40:38.716Z</time>
      </trkpt>
      <trkpt lat="45.74178" lon="6.71428">
        <ele>2093</ele>
        <time>2026-07-29T11:40:39.716Z</time>
      </trkpt>
      <trkpt lat="45.7418" lon="6.7143">
        <ele>2092</ele>
        <time>2026-07-29T11:40:40.716Z</time>
      </trkpt>
      <trkpt lat="45.74182" lon="6.71431">
        <ele>2092</ele>
        <time>2026-07-29T11:40:41.716Z</time>
      </trkpt>
      <trkpt lat="45.74184" lon="6.71433">
        <ele>2092</ele>
        <time>2026-07-29T11:40:42.716Z</time>
      </trkpt>
      <trkpt lat="45.74185" lon="6.71434">
        <ele>2092</ele>
        <time>2026-07-29T11:40:43.716Z</time>
      </trkpt>
      <trkpt lat="45.74187" lon="6.71436">
        <ele>2092</ele>
        <time>2026-07-29T11:40:44.716Z</time>
      </trkpt>
      <trkpt lat="45.74189" lon="6.71438">
        <ele>2092</ele>
        <time>2026-07-29T11:40:45.716Z</time>
      </trkpt>
      <trkpt lat="45.7419" lon="6.71439">
        <ele>2092</ele>
        <time>2026-07-29T11:40:46.716Z</time>
      </trkpt>
      <trkpt lat="45.74192" lon="6.71441">
        <ele>2092</ele>
        <time>2026-07-29T11:40:47.716Z</time>
      </trkpt>
      <trkpt lat="45.74193" lon="6.71443">
        <ele>2092</ele>
        <time>2026-07-29T11:40:48.716Z</time>
      </trkpt>
      <trkpt lat="45.74194" lon="6.71444">
        <ele>2093</ele>
        <time>2026-07-29T11:40:49.716Z</time>
      </trkpt>
      <trkpt lat="45.74195" lon="6.71446">
        <ele>2092</ele>
        <time>2026-07-29T11:40:50.716Z</time>
      </trkpt>
      <trkpt lat="45.74195" lon="6.71447">
        <ele>2092</ele>
        <time>2026-07-29T11:40:51.716Z</time>
      </trkpt>
      <trkpt lat="45.74196" lon="6.71448">
        <ele>2092</ele>
        <time>2026-07-29T11:40:52.716Z</time>
      </trkpt>
      <trkpt lat="45.74197" lon="6.71449">
        <ele>2092</ele>
        <time>2026-07-29T11:40:53.716Z</time>
      </trkpt>
      <trkpt lat="45.74198" lon="6.7145">
        <ele>2092</ele>
        <time>2026-07-29T11:40:54.716Z</time>
      </trkpt>
      <trkpt lat="45.74199" lon="6.71451">
        <ele>2092</ele>
        <time>2026-07-29T11:40:55.716Z</time>
      </trkpt>
      <trkpt lat="45.742" lon="6.71453">
        <ele>2092</ele>
        <time>2026-07-29T11:40:56.716Z</time>
      </trkpt>
      <trkpt lat="45.74201" lon="6.71454">
        <ele>2092</ele>
        <time>2026-07-29T11:40:57.716Z</time>
      </trkpt>
      <trkpt lat="45.74202" lon="6.71455">
        <ele>2092</ele>
        <time>2026-07-29T11:40:58.716Z</time>
      </trkpt>
      <trkpt lat="45.74204" lon="6.71455">
        <ele>2092</ele>
        <time>2026-07-29T11:40:59.716Z</time>
      </trkpt>
      <trkpt lat="45.74206" lon="6.71456">
        <ele>2092</ele>
        <time>2026-07-29T11:41:00.716Z</time>
      </trkpt>
      <trkpt lat="45.74208" lon="6.71457">
        <ele>2092</ele>
        <time>2026-07-29T11:41:01.716Z</time>
      </trkpt>
      <trkpt lat="45.7421" lon="6.71457">
        <ele>2091</ele>
        <time>2026-07-29T11:41:02.716Z</time>
      </trkpt>
      <trkpt lat="45.74212" lon="6.71458">
        <ele>2091</ele>
        <time>2026-07-29T11:41:03.716Z</time>
      </trkpt>
      <trkpt lat="45.74214" lon="6.71459">
        <ele>2090</ele>
        <time>2026-07-29T11:41:04.716Z</time>
      </trkpt>
      <trkpt lat="45.74216" lon="6.71459">
        <ele>2090</ele>
        <time>2026-07-29T11:41:05.716Z</time>
      </trkpt>
      <trkpt lat="45.74218" lon="6.7146">
        <ele>2090</ele>
        <time>2026-07-29T11:41:06.716Z</time>
      </trkpt>
      <trkpt lat="45.7422" lon="6.71461">
        <ele>2090</ele>
        <time>2026-07-29T11:41:07.716Z</time>
      </trkpt>
      <trkpt lat="45.74222" lon="6.71463">
        <ele>2090</ele>
        <time>2026-07-29T11:41:08.716Z</time>
      </trkpt>
      <trkpt lat="45.74224" lon="6.71464">
        <ele>2089</ele>
        <time>2026-07-29T11:41:09.716Z</time>
      </trkpt>
      <trkpt lat="45.74226" lon="6.71466">
        <ele>2089</ele>
        <time>2026-07-29T11:41:10.716Z</time>
      </trkpt>
      <trkpt lat="45.74228" lon="6.71467">
        <ele>2089</ele>
        <time>2026-07-29T11:41:11.716Z</time>
      </trkpt>
      <trkpt lat="45.7423" lon="6.71468">
        <ele>2088</ele>
        <time>2026-07-29T11:41:12.716Z</time>
      </trkpt>
      <trkpt lat="45.74232" lon="6.7147">
        <ele>2088</ele>
        <time>2026-07-29T11:41:13.716Z</time>
      </trkpt>
      <trkpt lat="45.74234" lon="6.71472">
        <ele>2088</ele>
        <time>2026-07-29T11:41:14.716Z</time>
      </trkpt>
      <trkpt lat="45.74235" lon="6.71474">
        <ele>2087</ele>
        <time>2026-07-29T11:41:15.716Z</time>
      </trkpt>
      <trkpt lat="45.74237" lon="6.71475">
        <ele>2087</ele>
        <time>2026-07-29T11:41:16.716Z</time>
      </trkpt>
      <trkpt lat="45.74239" lon="6.71477">
        <ele>2087</ele>
        <time>2026-07-29T11:41:17.716Z</time>
      </trkpt>
      <trkpt lat="45.74241" lon="6.7148">
        <ele>2086</ele>
        <time>2026-07-29T11:41:18.716Z</time>
      </trkpt>
      <trkpt lat="45.74243" lon="6.71482">
        <ele>2086</ele>
        <time>2026-07-29T11:41:19.716Z</time>
      </trkpt>
      <trkpt lat="45.74244" lon="6.71483">
        <ele>2086</ele>
        <time>2026-07-29T11:41:20.716Z</time>
      </trkpt>
      <trkpt lat="45.74246" lon="6.71485">
        <ele>2086</ele>
        <time>2026-07-29T11:41:21.716Z</time>
      </trkpt>
      <trkpt lat="45.74248" lon="6.71487">
        <ele>2086</ele>
        <time>2026-07-29T11:41:22.716Z</time>
      </trkpt>
      <trkpt lat="45.74249" lon="6.71489">
        <ele>2085</ele>
        <time>2026-07-29T11:41:23.716Z</time>
      </trkpt>
      <trkpt lat="45.74251" lon="6.71491">
        <ele>2085</ele>
        <time>2026-07-29T11:41:24.716Z</time>
      </trkpt>
      <trkpt lat="45.74252" lon="6.71493">
        <ele>2085</ele>
        <time>2026-07-29T11:41:25.716Z</time>
      </trkpt>
      <trkpt lat="45.74254" lon="6.71495">
        <ele>2085</ele>
        <time>2026-07-29T11:41:26.716Z</time>
      </trkpt>
      <trkpt lat="45.74255" lon="6.71497">
        <ele>2085</ele>
        <time>2026-07-29T11:41:27.716Z</time>
      </trkpt>
      <trkpt lat="45.74257" lon="6.71499">
        <ele>2085</ele>
        <time>2026-07-29T11:41:28.716Z</time>
      </trkpt>
      <trkpt lat="45.74258" lon="6.71501">
        <ele>2085</ele>
        <time>2026-07-29T11:41:29.716Z</time>
      </trkpt>
      <trkpt lat="45.7426" lon="6.71502">
        <ele>2084</ele>
        <time>2026-07-29T11:41:30.716Z</time>
      </trkpt>
      <trkpt lat="45.74262" lon="6.71504">
        <ele>2084</ele>
        <time>2026-07-29T11:41:31.716Z</time>
      </trkpt>
      <trkpt lat="45.74263" lon="6.71505">
        <ele>2084</ele>
        <time>2026-07-29T11:41:32.716Z</time>
      </trkpt>
      <trkpt lat="45.74265" lon="6.71507">
        <ele>2084</ele>
        <time>2026-07-29T11:41:33.716Z</time>
      </trkpt>
      <trkpt lat="45.74267" lon="6.71509">
        <ele>2083</ele>
        <time>2026-07-29T11:41:34.716Z</time>
      </trkpt>
      <trkpt lat="45.74268" lon="6.71511">
        <ele>2083</ele>
        <time>2026-07-29T11:41:35.716Z</time>
      </trkpt>
      <trkpt lat="45.74269" lon="6.71513">
        <ele>2083</ele>
        <time>2026-07-29T11:41:36.716Z</time>
      </trkpt>
      <trkpt lat="45.7427" lon="6.71516">
        <ele>2082</ele>
        <time>2026-07-29T11:41:37.716Z</time>
      </trkpt>
      <trkpt lat="45.74271" lon="6.71518">
        <ele>2082</ele>
        <time>2026-07-29T11:41:38.716Z</time>
      </trkpt>
      <trkpt lat="45.74272" lon="6.71521">
        <ele>2082</ele>
        <time>2026-07-29T11:41:39.716Z</time>
      </trkpt>
      <trkpt lat="45.74273" lon="6.71523">
        <ele>2081</ele>
        <time>2026-07-29T11:41:40.716Z</time>
      </trkpt>
      <trkpt lat="45.74274" lon="6.71526">
        <ele>2081</ele>
        <time>2026-07-29T11:41:41.716Z</time>
      </trkpt>
      <trkpt lat="45.74275" lon="6.71529">
        <ele>2081</ele>
        <time>2026-07-29T11:41:42.716Z</time>
      </trkpt>
      <trkpt lat="45.74276" lon="6.71532">
        <ele>2081</ele>
        <time>2026-07-29T11:41:43.716Z</time>
      </trkpt>
      <trkpt lat="45.74277" lon="6.71535">
        <ele>2080</ele>
        <time>2026-07-29T11:41:44.716Z</time>
      </trkpt>
      <trkpt lat="45.74278" lon="6.71536">
        <ele>2080</ele>
        <time>2026-07-29T11:41:45.716Z</time>
      </trkpt>
      <trkpt lat="45.7428" lon="6.71537">
        <ele>2080</ele>
        <time>2026-07-29T11:41:46.716Z</time>
      </trkpt>
      <trkpt lat="45.74282" lon="6.71538">
        <ele>2079</ele>
        <time>2026-07-29T11:41:47.716Z</time>
      </trkpt>
      <trkpt lat="45.74284" lon="6.71538">
        <ele>2079</ele>
        <time>2026-07-29T11:41:48.716Z</time>
      </trkpt>
      <trkpt lat="45.74286" lon="6.71538">
        <ele>2079</ele>
        <time>2026-07-29T11:41:49.716Z</time>
      </trkpt>
      <trkpt lat="45.74288" lon="6.71539">
        <ele>2079</ele>
        <time>2026-07-29T11:41:50.716Z</time>
      </trkpt>
      <trkpt lat="45.7429" lon="6.71539">
        <ele>2079</ele>
        <time>2026-07-29T11:41:51.716Z</time>
      </trkpt>
      <trkpt lat="45.74292" lon="6.7154">
        <ele>2079</ele>
        <time>2026-07-29T11:41:52.716Z</time>
      </trkpt>
      <trkpt lat="45.74294" lon="6.71542">
        <ele>2079</ele>
        <time>2026-07-29T11:41:53.716Z</time>
      </trkpt>
      <trkpt lat="45.74295" lon="6.71544">
        <ele>2079</ele>
        <time>2026-07-29T11:41:54.716Z</time>
      </trkpt>
      <trkpt lat="45.74297" lon="6.71546">
        <ele>2079</ele>
        <time>2026-07-29T11:41:55.716Z</time>
      </trkpt>
      <trkpt lat="45.74299" lon="6.71547">
        <ele>2079</ele>
        <time>2026-07-29T11:41:56.716Z</time>
      </trkpt>
      <trkpt lat="45.74301" lon="6.71548">
        <ele>2079</ele>
        <time>2026-07-29T11:41:57.716Z</time>
      </trkpt>
      <trkpt lat="45.74302" lon="6.71549">
        <ele>2079</ele>
        <time>2026-07-29T11:41:58.716Z</time>
      </trkpt>
      <trkpt lat="45.74304" lon="6.7155">
        <ele>2079</ele>
        <time>2026-07-29T11:41:59.716Z</time>
      </trkpt>
      <trkpt lat="45.74306" lon="6.71551">
        <ele>2079</ele>
        <time>2026-07-29T11:42:00.716Z</time>
      </trkpt>
      <trkpt lat="45.74308" lon="6.71552">
        <ele>2079</ele>
        <time>2026-07-29T11:42:01.716Z</time>
      </trkpt>
      <trkpt lat="45.7431" lon="6.71553">
        <ele>2079</ele>
        <time>2026-07-29T11:42:02.716Z</time>
      </trkpt>
      <trkpt lat="45.74312" lon="6.71554">
        <ele>2078</ele>
        <time>2026-07-29T11:42:03.716Z</time>
      </trkpt>
      <trkpt lat="45.74314" lon="6.71555">
        <ele>2078</ele>
        <time>2026-07-29T11:42:04.716Z</time>
      </trkpt>
      <trkpt lat="45.74316" lon="6.71556">
        <ele>2078</ele>
        <time>2026-07-29T11:42:05.716Z</time>
      </trkpt>
      <trkpt lat="45.74318" lon="6.71556">
        <ele>2078</ele>
        <time>2026-07-29T11:42:06.716Z</time>
      </trkpt>
      <trkpt lat="45.74321" lon="6.71557">
        <ele>2078</ele>
        <time>2026-07-29T11:42:07.716Z</time>
      </trkpt>
      <trkpt lat="45.74323" lon="6.71557">
        <ele>2077</ele>
        <time>2026-07-29T11:42:08.716Z</time>
      </trkpt>
      <trkpt lat="45.74325" lon="6.71557">
        <ele>2077</ele>
        <time>2026-07-29T11:42:09.716Z</time>
      </trkpt>
      <trkpt lat="45.74327" lon="6.71558">
        <ele>2077</ele>
        <time>2026-07-29T11:42:10.716Z</time>
      </trkpt>
      <trkpt lat="45.74329" lon="6.71558">
        <ele>2077</ele>
        <time>2026-07-29T11:42:11.716Z</time>
      </trkpt>
      <trkpt lat="45.74331" lon="6.71558">
        <ele>2076</ele>
        <time>2026-07-29T11:42:12.716Z</time>
      </trkpt>
      <trkpt lat="45.74333" lon="6.71558">
        <ele>2076</ele>
        <time>2026-07-29T11:42:13.716Z</time>
      </trkpt>
      <trkpt lat="45.74336" lon="6.71558">
        <ele>2077</ele>
        <time>2026-07-29T11:42:14.716Z</time>
      </trkpt>
      <trkpt lat="45.74338" lon="6.71558">
        <ele>2077</ele>
        <time>2026-07-29T11:42:15.716Z</time>
      </trkpt>
      <trkpt lat="45.7434" lon="6.71558">
        <ele>2076</ele>
        <time>2026-07-29T11:42:16.716Z</time>
      </trkpt>
      <trkpt lat="45.74342" lon="6.71558">
        <ele>2076</ele>
        <time>2026-07-29T11:42:17.716Z</time>
      </trkpt>
      <trkpt lat="45.74344" lon="6.71558">
        <ele>2076</ele>
        <time>2026-07-29T11:42:18.716Z</time>
      </trkpt>
      <trkpt lat="45.74346" lon="6.71558">
        <ele>2076</ele>
        <time>2026-07-29T11:42:19.716Z</time>
      </trkpt>
      <trkpt lat="45.74348" lon="6.71557">
        <ele>2076</ele>
        <time>2026-07-29T11:42:20.716Z</time>
      </trkpt>
      <trkpt lat="45.74351" lon="6.71557">
        <ele>2076</ele>
        <time>2026-07-29T11:42:21.716Z</time>
      </trkpt>
      <trkpt lat="45.74353" lon="6.71557">
        <ele>2076</ele>
        <time>2026-07-29T11:42:22.716Z</time>
      </trkpt>
      <trkpt lat="45.74355" lon="6.71557">
        <ele>2076</ele>
        <time>2026-07-29T11:42:23.716Z</time>
      </trkpt>
      <trkpt lat="45.74357" lon="6.71558">
        <ele>2076</ele>
        <time>2026-07-29T11:42:24.716Z</time>
      </trkpt>
      <trkpt lat="45.74359" lon="6.71558">
        <ele>2076</ele>
        <time>2026-07-29T11:42:25.716Z</time>
      </trkpt>
      <trkpt lat="45.74361" lon="6.71559">
        <ele>2076</ele>
        <time>2026-07-29T11:42:26.716Z</time>
      </trkpt>
      <trkpt lat="45.74362" lon="6.7156">
        <ele>2076</ele>
        <time>2026-07-29T11:42:27.716Z</time>
      </trkpt>
      <trkpt lat="45.74364" lon="6.71561">
        <ele>2075</ele>
        <time>2026-07-29T11:42:28.716Z</time>
      </trkpt>
      <trkpt lat="45.74365" lon="6.71562">
        <ele>2075</ele>
        <time>2026-07-29T11:42:29.716Z</time>
      </trkpt>
      <trkpt lat="45.74366" lon="6.71563">
        <ele>2075</ele>
        <time>2026-07-29T11:42:30.716Z</time>
      </trkpt>
      <trkpt lat="45.74367" lon="6.71564">
        <ele>2075</ele>
        <time>2026-07-29T11:42:31.716Z</time>
      </trkpt>
      <trkpt lat="45.74369" lon="6.71565">
        <ele>2075</ele>
        <time>2026-07-29T11:42:32.716Z</time>
      </trkpt>
      <trkpt lat="45.7437" lon="6.71565">
        <ele>2075</ele>
        <time>2026-07-29T11:42:33.716Z</time>
      </trkpt>
      <trkpt lat="45.74372" lon="6.71566">
        <ele>2075</ele>
        <time>2026-07-29T11:42:34.716Z</time>
      </trkpt>
      <trkpt lat="45.74373" lon="6.71568">
        <ele>2074</ele>
        <time>2026-07-29T11:42:35.716Z</time>
      </trkpt>
      <trkpt lat="45.74375" lon="6.71569">
        <ele>2074</ele>
        <time>2026-07-29T11:42:36.716Z</time>
      </trkpt>
      <trkpt lat="45.74377" lon="6.7157">
        <ele>2074</ele>
        <time>2026-07-29T11:42:37.716Z</time>
      </trkpt>
      <trkpt lat="45.74379" lon="6.7157">
        <ele>2073</ele>
        <time>2026-07-29T11:42:38.716Z</time>
      </trkpt>
      <trkpt lat="45.7438" lon="6.71571">
        <ele>2073</ele>
        <time>2026-07-29T11:42:39.716Z</time>
      </trkpt>
      <trkpt lat="45.74382" lon="6.71571">
        <ele>2073</ele>
        <time>2026-07-29T11:42:40.716Z</time>
      </trkpt>
      <trkpt lat="45.74383" lon="6.71571">
        <ele>2073</ele>
        <time>2026-07-29T11:42:41.716Z</time>
      </trkpt>
      <trkpt lat="45.74385" lon="6.71571">
        <ele>2073</ele>
        <time>2026-07-29T11:42:42.716Z</time>
      </trkpt>
      <trkpt lat="45.74386" lon="6.71571">
        <ele>2073</ele>
        <time>2026-07-29T11:42:43.716Z</time>
      </trkpt>
      <trkpt lat="45.74387" lon="6.71572">
        <ele>2073</ele>
        <time>2026-07-29T11:42:44.716Z</time>
      </trkpt>
      <trkpt lat="45.74389" lon="6.71573">
        <ele>2073</ele>
        <time>2026-07-29T11:42:45.716Z</time>
      </trkpt>
      <trkpt lat="45.7439" lon="6.71573">
        <ele>2072</ele>
        <time>2026-07-29T11:42:46.716Z</time>
      </trkpt>
      <trkpt lat="45.74391" lon="6.71573">
        <ele>2072</ele>
        <time>2026-07-29T11:42:47.716Z</time>
      </trkpt>
      <trkpt lat="45.74392" lon="6.71573">
        <ele>2071</ele>
        <time>2026-07-29T11:42:48.716Z</time>
      </trkpt>
      <trkpt lat="45.74393" lon="6.71574">
        <ele>2071</ele>
        <time>2026-07-29T11:42:49.716Z</time>
      </trkpt>
      <trkpt lat="45.74394" lon="6.71574">
        <ele>2071</ele>
        <time>2026-07-29T11:42:50.716Z</time>
      </trkpt>
      <trkpt lat="45.74395" lon="6.71575">
        <ele>2071</ele>
        <time>2026-07-29T11:42:51.716Z</time>
      </trkpt>
      <trkpt lat="45.74396" lon="6.71577">
        <ele>2071</ele>
        <time>2026-07-29T11:42:52.716Z</time>
      </trkpt>
      <trkpt lat="45.74397" lon="6.71578">
        <ele>2071</ele>
        <time>2026-07-29T11:42:53.716Z</time>
      </trkpt>
      <trkpt lat="45.74398" lon="6.71579">
        <ele>2070</ele>
        <time>2026-07-29T11:42:54.716Z</time>
      </trkpt>
      <trkpt lat="45.74399" lon="6.71581">
        <ele>2070</ele>
        <time>2026-07-29T11:42:55.716Z</time>
      </trkpt>
      <trkpt lat="45.744" lon="6.71582">
        <ele>2070</ele>
        <time>2026-07-29T11:42:56.716Z</time>
      </trkpt>
      <trkpt lat="45.74402" lon="6.71583">
        <ele>2069</ele>
        <time>2026-07-29T11:42:57.716Z</time>
      </trkpt>
      <trkpt lat="45.74403" lon="6.71584">
        <ele>2069</ele>
        <time>2026-07-29T11:42:58.716Z</time>
      </trkpt>
      <trkpt lat="45.74404" lon="6.71585">
        <ele>2068</ele>
        <time>2026-07-29T11:42:59.716Z</time>
      </trkpt>
      <trkpt lat="45.74405" lon="6.71586">
        <ele>2068</ele>
        <time>2026-07-29T11:43:00.716Z</time>
      </trkpt>
      <trkpt lat="45.74406" lon="6.71587">
        <ele>2068</ele>
        <time>2026-07-29T11:43:01.716Z</time>
      </trkpt>
      <trkpt lat="45.74407" lon="6.71589">
        <ele>2068</ele>
        <time>2026-07-29T11:43:02.716Z</time>
      </trkpt>
      <trkpt lat="45.74408" lon="6.7159">
        <ele>2067</ele>
        <time>2026-07-29T11:43:03.716Z</time>
      </trkpt>
      <trkpt lat="45.74408" lon="6.71591">
        <ele>2067</ele>
        <time>2026-07-29T11:43:04.716Z</time>
      </trkpt>
      <trkpt lat="45.74409" lon="6.71591">
        <ele>2067</ele>
        <time>2026-07-29T11:43:05.716Z</time>
      </trkpt>
      <trkpt lat="45.74409" lon="6.71591">
        <ele>2067</ele>
        <time>2026-07-29T11:43:06.716Z</time>
      </trkpt>
      <trkpt lat="45.74408" lon="6.71592">
        <ele>2067</ele>
        <time>2026-07-29T11:43:07.716Z</time>
      </trkpt>
      <trkpt lat="45.74409" lon="6.71592">
        <ele>2066</ele>
        <time>2026-07-29T11:43:08.716Z</time>
      </trkpt>
      <trkpt lat="45.74409" lon="6.71592">
        <ele>2066</ele>
        <time>2026-07-29T11:43:09.716Z</time>
      </trkpt>
      <trkpt lat="45.7441" lon="6.71593">
        <ele>2066</ele>
        <time>2026-07-29T11:43:10.716Z</time>
      </trkpt>
      <trkpt lat="45.74411" lon="6.71595">
        <ele>2065</ele>
        <time>2026-07-29T11:43:11.716Z</time>
      </trkpt>
      <trkpt lat="45.74413" lon="6.71596">
        <ele>2065</ele>
        <time>2026-07-29T11:43:12.716Z</time>
      </trkpt>
      <trkpt lat="45.74415" lon="6.71597">
        <ele>2065</ele>
        <time>2026-07-29T11:43:13.716Z</time>
      </trkpt>
      <trkpt lat="45.74416" lon="6.71597">
        <ele>2065</ele>
        <time>2026-07-29T11:43:14.716Z</time>
      </trkpt>
      <trkpt lat="45.74418" lon="6.71598">
        <ele>2065</ele>
        <time>2026-07-29T11:43:15.716Z</time>
      </trkpt>
      <trkpt lat="45.7442" lon="6.71599">
        <ele>2064</ele>
        <time>2026-07-29T11:43:16.716Z</time>
      </trkpt>
      <trkpt lat="45.74422" lon="6.716">
        <ele>2063</ele>
        <time>2026-07-29T11:43:17.716Z</time>
      </trkpt>
      <trkpt lat="45.74423" lon="6.716">
        <ele>2063</ele>
        <time>2026-07-29T11:43:18.716Z</time>
      </trkpt>
      <trkpt lat="45.74425" lon="6.716">
        <ele>2063</ele>
        <time>2026-07-29T11:43:19.716Z</time>
      </trkpt>
      <trkpt lat="45.74426" lon="6.716">
        <ele>2063</ele>
        <time>2026-07-29T11:43:20.716Z</time>
      </trkpt>
      <trkpt lat="45.74426" lon="6.716">
        <ele>2062</ele>
        <time>2026-07-29T11:43:21.716Z</time>
      </trkpt>
      <trkpt lat="45.74427" lon="6.716">
        <ele>2062</ele>
        <time>2026-07-29T11:43:22.716Z</time>
      </trkpt>
      <trkpt lat="45.74428" lon="6.71599">
        <ele>2062</ele>
        <time>2026-07-29T11:43:23.716Z</time>
      </trkpt>
      <trkpt lat="45.74429" lon="6.71598">
        <ele>2062</ele>
        <time>2026-07-29T11:43:24.716Z</time>
      </trkpt>
      <trkpt lat="45.74429" lon="6.71598">
        <ele>2062</ele>
        <time>2026-07-29T11:43:25.716Z</time>
      </trkpt>
      <trkpt lat="45.7443" lon="6.71598">
        <ele>2062</ele>
        <time>2026-07-29T11:43:26.716Z</time>
      </trkpt>
      <trkpt lat="45.7443" lon="6.71598">
        <ele>2062</ele>
        <time>2026-07-29T11:43:27.716Z</time>
      </trkpt>
      <trkpt lat="45.74431" lon="6.71598">
        <ele>2062</ele>
        <time>2026-07-29T11:43:28.716Z</time>
      </trkpt>
      <trkpt lat="45.74431" lon="6.71598">
        <ele>2061</ele>
        <time>2026-07-29T11:43:29.716Z</time>
      </trkpt>
      <trkpt lat="45.74431" lon="6.71598">
        <ele>2061</ele>
        <time>2026-07-29T11:43:30.716Z</time>
      </trkpt>
      <trkpt lat="45.74431" lon="6.71598">
        <ele>2060</ele>
        <time>2026-07-29T11:43:31.716Z</time>
      </trkpt>
      <trkpt lat="45.74431" lon="6.71598">
        <ele>2060</ele>
        <time>2026-07-29T11:43:32.716Z</time>
      </trkpt>
      <trkpt lat="45.74431" lon="6.71598">
        <ele>2060</ele>
        <time>2026-07-29T11:43:33.716Z</time>
      </trkpt>
      <trkpt lat="45.74431" lon="6.71598">
        <ele>2060</ele>
        <time>2026-07-29T11:43:34.716Z</time>
      </trkpt>
      <trkpt lat="45.74431" lon="6.71598">
        <ele>2060</ele>
        <time>2026-07-29T11:43:35.716Z</time>
      </trkpt>
      <trkpt lat="45.74431" lon="6.71598">
        <ele>2060</ele>
        <time>2026-07-29T11:43:36.716Z</time>
      </trkpt>
      <trkpt lat="45.74431" lon="6.71598">
        <ele>2060</ele>
        <time>2026-07-29T11:43:37.716Z</time>
      </trkpt>
      <trkpt lat="45.74432" lon="6.71598">
        <ele>2060</ele>
        <time>2026-07-29T11:43:38.716Z</time>
      </trkpt>
      <trkpt lat="45.74432" lon="6.71598">
        <ele>2060</ele>
        <time>2026-07-29T11:43:39.716Z</time>
      </trkpt>
      <trkpt lat="45.74432" lon="6.71598">
        <ele>2059</ele>
        <time>2026-07-29T11:43:40.716Z</time>
      </trkpt>
      <trkpt lat="45.74433" lon="6.71599">
        <ele>2059</ele>
        <time>2026-07-29T11:43:41.716Z</time>
      </trkpt>
      <trkpt lat="45.74434" lon="6.71599">
        <ele>2058</ele>
        <time>2026-07-29T11:43:42.716Z</time>
      </trkpt>
      <trkpt lat="45.74435" lon="6.71599">
        <ele>2058</ele>
        <time>2026-07-29T11:43:43.716Z</time>
      </trkpt>
      <trkpt lat="45.74436" lon="6.71599">
        <ele>2058</ele>
        <time>2026-07-29T11:43:44.716Z</time>
      </trkpt>
      <trkpt lat="45.74438" lon="6.71599">
        <ele>2058</ele>
        <time>2026-07-29T11:43:45.716Z</time>
      </trkpt>
      <trkpt lat="45.74439" lon="6.71599">
        <ele>2058</ele>
        <time>2026-07-29T11:43:46.716Z</time>
      </trkpt>
      <trkpt lat="45.74441" lon="6.716">
        <ele>2058</ele>
        <time>2026-07-29T11:43:47.716Z</time>
      </trkpt>
      <trkpt lat="45.74443" lon="6.71599">
        <ele>2058</ele>
        <time>2026-07-29T11:43:48.716Z</time>
      </trkpt>
      <trkpt lat="45.74444" lon="6.716">
        <ele>2058</ele>
        <time>2026-07-29T11:43:49.716Z</time>
      </trkpt>
      <trkpt lat="45.74446" lon="6.716">
        <ele>2058</ele>
        <time>2026-07-29T11:43:50.716Z</time>
      </trkpt>
      <trkpt lat="45.74447" lon="6.716">
        <ele>2058</ele>
        <time>2026-07-29T11:43:51.716Z</time>
      </trkpt>
      <trkpt lat="45.74449" lon="6.716">
        <ele>2058</ele>
        <time>2026-07-29T11:43:52.716Z</time>
      </trkpt>
      <trkpt lat="45.7445" lon="6.71599">
        <ele>2058</ele>
        <time>2026-07-29T11:43:53.716Z</time>
      </trkpt>
      <trkpt lat="45.74452" lon="6.71599">
        <ele>2058</ele>
        <time>2026-07-29T11:43:54.716Z</time>
      </trkpt>
      <trkpt lat="45.74453" lon="6.716">
        <ele>2058</ele>
        <time>2026-07-29T11:43:55.716Z</time>
      </trkpt>
      <trkpt lat="45.74455" lon="6.716">
        <ele>2057</ele>
        <time>2026-07-29T11:43:56.716Z</time>
      </trkpt>
      <trkpt lat="45.74457" lon="6.716">
        <ele>2057</ele>
        <time>2026-07-29T11:43:57.716Z</time>
      </trkpt>
      <trkpt lat="45.74458" lon="6.716">
        <ele>2057</ele>
        <time>2026-07-29T11:43:58.716Z</time>
      </trkpt>
      <trkpt lat="45.7446" lon="6.716">
        <ele>2057</ele>
        <time>2026-07-29T11:43:59.716Z</time>
      </trkpt>
      <trkpt lat="45.74461" lon="6.716">
        <ele>2057</ele>
        <time>2026-07-29T11:44:00.716Z</time>
      </trkpt>
      <trkpt lat="45.74463" lon="6.71599">
        <ele>2057</ele>
        <time>2026-07-29T11:44:01.716Z</time>
      </trkpt>
      <trkpt lat="45.74465" lon="6.71598">
        <ele>2056</ele>
        <time>2026-07-29T11:44:02.716Z</time>
      </trkpt>
      <trkpt lat="45.74467" lon="6.71598">
        <ele>2056</ele>
        <time>2026-07-29T11:44:03.716Z</time>
      </trkpt>
      <trkpt lat="45.74469" lon="6.71599">
        <ele>2055</ele>
        <time>2026-07-29T11:44:04.716Z</time>
      </trkpt>
      <trkpt lat="45.7447" lon="6.71599">
        <ele>2055</ele>
        <time>2026-07-29T11:44:05.716Z</time>
      </trkpt>
      <trkpt lat="45.74472" lon="6.71601">
        <ele>2055</ele>
        <time>2026-07-29T11:44:06.716Z</time>
      </trkpt>
      <trkpt lat="45.74473" lon="6.71603">
        <ele>2054</ele>
        <time>2026-07-29T11:44:07.716Z</time>
      </trkpt>
      <trkpt lat="45.74474" lon="6.71605">
        <ele>2054</ele>
        <time>2026-07-29T11:44:08.716Z</time>
      </trkpt>
      <trkpt lat="45.74475" lon="6.71606">
        <ele>2054</ele>
        <time>2026-07-29T11:44:09.716Z</time>
      </trkpt>
      <trkpt lat="45.74476" lon="6.71607">
        <ele>2053</ele>
        <time>2026-07-29T11:44:10.716Z</time>
      </trkpt>
      <trkpt lat="45.74477" lon="6.71609">
        <ele>2053</ele>
        <time>2026-07-29T11:44:11.716Z</time>
      </trkpt>
      <trkpt lat="45.74478" lon="6.71611">
        <ele>2052</ele>
        <time>2026-07-29T11:44:12.716Z</time>
      </trkpt>
      <trkpt lat="45.74479" lon="6.71613">
        <ele>2052</ele>
        <time>2026-07-29T11:44:13.716Z</time>
      </trkpt>
      <trkpt lat="45.74481" lon="6.71615">
        <ele>2051</ele>
        <time>2026-07-29T11:44:14.716Z</time>
      </trkpt>
      <trkpt lat="45.74482" lon="6.71617">
        <ele>2051</ele>
        <time>2026-07-29T11:44:15.716Z</time>
      </trkpt>
      <trkpt lat="45.74483" lon="6.71619">
        <ele>2050</ele>
        <time>2026-07-29T11:44:16.716Z</time>
      </trkpt>
      <trkpt lat="45.74484" lon="6.71621">
        <ele>2050</ele>
        <time>2026-07-29T11:44:17.716Z</time>
      </trkpt>
      <trkpt lat="45.74485" lon="6.71623">
        <ele>2050</ele>
        <time>2026-07-29T11:44:18.716Z</time>
      </trkpt>
      <trkpt lat="45.74487" lon="6.71625">
        <ele>2049</ele>
        <time>2026-07-29T11:44:19.716Z</time>
      </trkpt>
      <trkpt lat="45.74488" lon="6.71627">
        <ele>2049</ele>
        <time>2026-07-29T11:44:20.716Z</time>
      </trkpt>
      <trkpt lat="45.74489" lon="6.71629">
        <ele>2049</ele>
        <time>2026-07-29T11:44:21.716Z</time>
      </trkpt>
      <trkpt lat="45.74489" lon="6.71631">
        <ele>2049</ele>
        <time>2026-07-29T11:44:22.716Z</time>
      </trkpt>
      <trkpt lat="45.7449" lon="6.71633">
        <ele>2049</ele>
        <time>2026-07-29T11:44:23.716Z</time>
      </trkpt>
      <trkpt lat="45.74491" lon="6.71635">
        <ele>2049</ele>
        <time>2026-07-29T11:44:24.716Z</time>
      </trkpt>
      <trkpt lat="45.74492" lon="6.71637">
        <ele>2048</ele>
        <time>2026-07-29T11:44:25.716Z</time>
      </trkpt>
      <trkpt lat="45.74493" lon="6.7164">
        <ele>2048</ele>
        <time>2026-07-29T11:44:26.716Z</time>
      </trkpt>
      <trkpt lat="45.74493" lon="6.71642">
        <ele>2048</ele>
        <time>2026-07-29T11:44:27.716Z</time>
      </trkpt>
      <trkpt lat="45.74494" lon="6.71644">
        <ele>2048</ele>
        <time>2026-07-29T11:44:28.716Z</time>
      </trkpt>
      <trkpt lat="45.74494" lon="6.71646">
        <ele>2048</ele>
        <time>2026-07-29T11:44:29.716Z</time>
      </trkpt>
      <trkpt lat="45.74495" lon="6.71648">
        <ele>2048</ele>
        <time>2026-07-29T11:44:30.716Z</time>
      </trkpt>
      <trkpt lat="45.74496" lon="6.71649">
        <ele>2047</ele>
        <time>2026-07-29T11:44:31.716Z</time>
      </trkpt>
      <trkpt lat="45.74497" lon="6.7165">
        <ele>2047</ele>
        <time>2026-07-29T11:44:32.716Z</time>
      </trkpt>
      <trkpt lat="45.74498" lon="6.71651">
        <ele>2047</ele>
        <time>2026-07-29T11:44:33.716Z</time>
      </trkpt>
      <trkpt lat="45.74499" lon="6.71652">
        <ele>2047</ele>
        <time>2026-07-29T11:44:34.716Z</time>
      </trkpt>
      <trkpt lat="45.745" lon="6.71653">
        <ele>2046</ele>
        <time>2026-07-29T11:44:35.716Z</time>
      </trkpt>
      <trkpt lat="45.74502" lon="6.71654">
        <ele>2046</ele>
        <time>2026-07-29T11:44:36.716Z</time>
      </trkpt>
      <trkpt lat="45.74503" lon="6.71656">
        <ele>2046</ele>
        <time>2026-07-29T11:44:37.716Z</time>
      </trkpt>
      <trkpt lat="45.74503" lon="6.71658">
        <ele>2045</ele>
        <time>2026-07-29T11:44:38.716Z</time>
      </trkpt>
      <trkpt lat="45.74504" lon="6.71661">
        <ele>2045</ele>
        <time>2026-07-29T11:44:39.716Z</time>
      </trkpt>
      <trkpt lat="45.74505" lon="6.71662">
        <ele>2044</ele>
        <time>2026-07-29T11:44:40.716Z</time>
      </trkpt>
      <trkpt lat="45.74505" lon="6.71663">
        <ele>2044</ele>
        <time>2026-07-29T11:44:41.716Z</time>
      </trkpt>
      <trkpt lat="45.74506" lon="6.71664">
        <ele>2044</ele>
        <time>2026-07-29T11:44:42.716Z</time>
      </trkpt>
      <trkpt lat="45.74507" lon="6.71664">
        <ele>2043</ele>
        <time>2026-07-29T11:44:43.716Z</time>
      </trkpt>
      <trkpt lat="45.74509" lon="6.71664">
        <ele>2043</ele>
        <time>2026-07-29T11:44:44.716Z</time>
      </trkpt>
      <trkpt lat="45.7451" lon="6.71664">
        <ele>2042</ele>
        <time>2026-07-29T11:44:45.716Z</time>
      </trkpt>
      <trkpt lat="45.74511" lon="6.71664">
        <ele>2042</ele>
        <time>2026-07-29T11:44:46.716Z</time>
      </trkpt>
      <trkpt lat="45.74512" lon="6.71665">
        <ele>2041</ele>
        <time>2026-07-29T11:44:47.716Z</time>
      </trkpt>
      <trkpt lat="45.74513" lon="6.71666">
        <ele>2041</ele>
        <time>2026-07-29T11:44:48.716Z</time>
      </trkpt>
      <trkpt lat="45.74513" lon="6.71667">
        <ele>2040</ele>
        <time>2026-07-29T11:44:49.716Z</time>
      </trkpt>
      <trkpt lat="45.74514" lon="6.71668">
        <ele>2040</ele>
        <time>2026-07-29T11:44:50.716Z</time>
      </trkpt>
      <trkpt lat="45.74515" lon="6.71669">
        <ele>2039</ele>
        <time>2026-07-29T11:44:51.716Z</time>
      </trkpt>
      <trkpt lat="45.74515" lon="6.7167">
        <ele>2039</ele>
        <time>2026-07-29T11:44:52.716Z</time>
      </trkpt>
      <trkpt lat="45.74516" lon="6.71672">
        <ele>2039</ele>
        <time>2026-07-29T11:44:53.716Z</time>
      </trkpt>
      <trkpt lat="45.74517" lon="6.71673">
        <ele>2038</ele>
        <time>2026-07-29T11:44:54.716Z</time>
      </trkpt>
      <trkpt lat="45.74517" lon="6.71674">
        <ele>2038</ele>
        <time>2026-07-29T11:44:55.716Z</time>
      </trkpt>
      <trkpt lat="45.74518" lon="6.71676">
        <ele>2037</ele>
        <time>2026-07-29T11:44:56.716Z</time>
      </trkpt>
      <trkpt lat="45.74518" lon="6.71676">
        <ele>2037</ele>
        <time>2026-07-29T11:44:57.716Z</time>
      </trkpt>
      <trkpt lat="45.74519" lon="6.71677">
        <ele>2036</ele>
        <time>2026-07-29T11:44:58.716Z</time>
      </trkpt>
      <trkpt lat="45.74519" lon="6.71678">
        <ele>2036</ele>
        <time>2026-07-29T11:44:59.716Z</time>
      </trkpt>
      <trkpt lat="45.7452" lon="6.71679">
        <ele>2036</ele>
        <time>2026-07-29T11:45:00.716Z</time>
      </trkpt>
      <trkpt lat="45.7452" lon="6.71679">
        <ele>2035</ele>
        <time>2026-07-29T11:45:01.716Z</time>
      </trkpt>
      <trkpt lat="45.7452" lon="6.71679">
        <ele>2035</ele>
        <time>2026-07-29T11:45:02.716Z</time>
      </trkpt>
      <trkpt lat="45.7452" lon="6.71679">
        <ele>2035</ele>
        <time>2026-07-29T11:45:03.716Z</time>
      </trkpt>
      <trkpt lat="45.7452" lon="6.71679">
        <ele>2035</ele>
        <time>2026-07-29T11:45:04.716Z</time>
      </trkpt>
      <trkpt lat="45.7452" lon="6.71679">
        <ele>2035</ele>
        <time>2026-07-29T11:45:05.716Z</time>
      </trkpt>
      <trkpt lat="45.7452" lon="6.71679">
        <ele>2035</ele>
        <time>2026-07-29T11:45:06.716Z</time>
      </trkpt>
      <trkpt lat="45.7452" lon="6.7168">
        <ele>2034</ele>
        <time>2026-07-29T11:45:07.716Z</time>
      </trkpt>
      <trkpt lat="45.7452" lon="6.71681">
        <ele>2034</ele>
        <time>2026-07-29T11:45:08.716Z</time>
      </trkpt>
      <trkpt lat="45.7452" lon="6.71682">
        <ele>2033</ele>
        <time>2026-07-29T11:45:09.716Z</time>
      </trkpt>
      <trkpt lat="45.74521" lon="6.71682">
        <ele>2033</ele>
        <time>2026-07-29T11:45:10.716Z</time>
      </trkpt>
      <trkpt lat="45.74521" lon="6.71683">
        <ele>2033</ele>
        <time>2026-07-29T11:45:11.716Z</time>
      </trkpt>
      <trkpt lat="45.74522" lon="6.71683">
        <ele>2033</ele>
        <time>2026-07-29T11:45:12.716Z</time>
      </trkpt>
      <trkpt lat="45.74523" lon="6.71683">
        <ele>2033</ele>
        <time>2026-07-29T11:45:13.716Z</time>
      </trkpt>
      <trkpt lat="45.74524" lon="6.71684">
        <ele>2033</ele>
        <time>2026-07-29T11:45:14.716Z</time>
      </trkpt>
      <trkpt lat="45.74525" lon="6.71684">
        <ele>2033</ele>
        <time>2026-07-29T11:45:15.716Z</time>
      </trkpt>
      <trkpt lat="45.74526" lon="6.71685">
        <ele>2033</ele>
        <time>2026-07-29T11:45:16.716Z</time>
      </trkpt>
      <trkpt lat="45.74526" lon="6.71686">
        <ele>2032</ele>
        <time>2026-07-29T11:45:17.716Z</time>
      </trkpt>
      <trkpt lat="45.74526" lon="6.71687">
        <ele>2032</ele>
        <time>2026-07-29T11:45:18.716Z</time>
      </trkpt>
      <trkpt lat="45.74526" lon="6.71687">
        <ele>2032</ele>
        <time>2026-07-29T11:45:19.716Z</time>
      </trkpt>
      <trkpt lat="45.74527" lon="6.71688">
        <ele>2032</ele>
        <time>2026-07-29T11:45:20.716Z</time>
      </trkpt>
      <trkpt lat="45.74527" lon="6.71689">
        <ele>2031</ele>
        <time>2026-07-29T11:45:21.716Z</time>
      </trkpt>
      <trkpt lat="45.74527" lon="6.7169">
        <ele>2031</ele>
        <time>2026-07-29T11:45:22.716Z</time>
      </trkpt>
      <trkpt lat="45.74527" lon="6.71691">
        <ele>2030</ele>
        <time>2026-07-29T11:45:23.716Z</time>
      </trkpt>
      <trkpt lat="45.74527" lon="6.71692">
        <ele>2030</ele>
        <time>2026-07-29T11:45:24.716Z</time>
      </trkpt>
      <trkpt lat="45.74527" lon="6.71693">
        <ele>2029</ele>
        <time>2026-07-29T11:45:25.716Z</time>
      </trkpt>
      <trkpt lat="45.74527" lon="6.71694">
        <ele>2029</ele>
        <time>2026-07-29T11:45:26.716Z</time>
      </trkpt>
      <trkpt lat="45.74526" lon="6.71695">
        <ele>2029</ele>
        <time>2026-07-29T11:45:27.716Z</time>
      </trkpt>
      <trkpt lat="45.74526" lon="6.71696">
        <ele>2028</ele>
        <time>2026-07-29T11:45:28.716Z</time>
      </trkpt>
      <trkpt lat="45.74526" lon="6.71697">
        <ele>2028</ele>
        <time>2026-07-29T11:45:29.716Z</time>
      </trkpt>
      <trkpt lat="45.74527" lon="6.71698">
        <ele>2028</ele>
        <time>2026-07-29T11:45:30.716Z</time>
      </trkpt>
      <trkpt lat="45.74528" lon="6.71699">
        <ele>2028</ele>
        <time>2026-07-29T11:45:31.716Z</time>
      </trkpt>
      <trkpt lat="45.74529" lon="6.717">
        <ele>2027</ele>
        <time>2026-07-29T11:45:32.716Z</time>
      </trkpt>
      <trkpt lat="45.74529" lon="6.71701">
        <ele>2027</ele>
        <time>2026-07-29T11:45:33.716Z</time>
      </trkpt>
      <trkpt lat="45.7453" lon="6.71702">
        <ele>2027</ele>
        <time>2026-07-29T11:45:34.716Z</time>
      </trkpt>
      <trkpt lat="45.7453" lon="6.71703">
        <ele>2026</ele>
        <time>2026-07-29T11:45:35.716Z</time>
      </trkpt>
      <trkpt lat="45.74531" lon="6.71704">
        <ele>2026</ele>
        <time>2026-07-29T11:45:36.716Z</time>
      </trkpt>
      <trkpt lat="45.74532" lon="6.71705">
        <ele>2026</ele>
        <time>2026-07-29T11:45:37.716Z</time>
      </trkpt>
      <trkpt lat="45.74532" lon="6.71706">
        <ele>2026</ele>
        <time>2026-07-29T11:45:38.716Z</time>
      </trkpt>
      <trkpt lat="45.74532" lon="6.71706">
        <ele>2026</ele>
        <time>2026-07-29T11:45:39.716Z</time>
      </trkpt>
      <trkpt lat="45.74533" lon="6.71707">
        <ele>2025</ele>
        <time>2026-07-29T11:45:40.716Z</time>
      </trkpt>
      <trkpt lat="45.74534" lon="6.71707">
        <ele>2025</ele>
        <time>2026-07-29T11:45:41.716Z</time>
      </trkpt>
      <trkpt lat="45.74534" lon="6.71707">
        <ele>2025</ele>
        <time>2026-07-29T11:45:42.716Z</time>
      </trkpt>
      <trkpt lat="45.74535" lon="6.71708">
        <ele>2024</ele>
        <time>2026-07-29T11:45:43.716Z</time>
      </trkpt>
      <trkpt lat="45.74536" lon="6.71708">
        <ele>2024</ele>
        <time>2026-07-29T11:45:44.716Z</time>
      </trkpt>
      <trkpt lat="45.74536" lon="6.71709">
        <ele>2024</ele>
        <time>2026-07-29T11:45:45.716Z</time>
      </trkpt>
      <trkpt lat="45.74537" lon="6.71709">
        <ele>2024</ele>
        <time>2026-07-29T11:45:46.716Z</time>
      </trkpt>
      <trkpt lat="45.74538" lon="6.7171">
        <ele>2024</ele>
        <time>2026-07-29T11:45:47.716Z</time>
      </trkpt>
      <trkpt lat="45.74538" lon="6.71711">
        <ele>2023</ele>
        <time>2026-07-29T11:45:48.716Z</time>
      </trkpt>
      <trkpt lat="45.74539" lon="6.71711">
        <ele>2023</ele>
        <time>2026-07-29T11:45:49.716Z</time>
      </trkpt>
      <trkpt lat="45.74539" lon="6.71711">
        <ele>2023</ele>
        <time>2026-07-29T11:45:50.716Z</time>
      </trkpt>
      <trkpt lat="45.74539" lon="6.71711">
        <ele>2023</ele>
        <time>2026-07-29T11:45:51.716Z</time>
      </trkpt>
      <trkpt lat="45.7454" lon="6.71711">
        <ele>2023</ele>
        <time>2026-07-29T11:45:52.716Z</time>
      </trkpt>
      <trkpt lat="45.74541" lon="6.7171">
        <ele>2023</ele>
        <time>2026-07-29T11:45:53.716Z</time>
      </trkpt>
      <trkpt lat="45.74541" lon="6.71708">
        <ele>2023</ele>
        <time>2026-07-29T11:45:54.716Z</time>
      </trkpt>
      <trkpt lat="45.74542" lon="6.71708">
        <ele>2023</ele>
        <time>2026-07-29T11:45:55.716Z</time>
      </trkpt>
      <trkpt lat="45.74542" lon="6.71707">
        <ele>2023</ele>
        <time>2026-07-29T11:45:56.716Z</time>
      </trkpt>
      <trkpt lat="45.74543" lon="6.71706">
        <ele>2023</ele>
        <time>2026-07-29T11:45:57.716Z</time>
      </trkpt>
      <trkpt lat="45.74545" lon="6.71705">
        <ele>2023</ele>
        <time>2026-07-29T11:45:58.716Z</time>
      </trkpt>
      <trkpt lat="45.74546" lon="6.71704">
        <ele>2023</ele>
        <time>2026-07-29T11:45:59.716Z</time>
      </trkpt>
      <trkpt lat="45.74547" lon="6.71703">
        <ele>2022</ele>
        <time>2026-07-29T11:46:00.716Z</time>
      </trkpt>
      <trkpt lat="45.74547" lon="6.71702">
        <ele>2022</ele>
        <time>2026-07-29T11:46:01.716Z</time>
      </trkpt>
      <trkpt lat="45.74548" lon="6.71702">
        <ele>2022</ele>
        <time>2026-07-29T11:46:02.716Z</time>
      </trkpt>
      <trkpt lat="45.74549" lon="6.71702">
        <ele>2021</ele>
        <time>2026-07-29T11:46:03.716Z</time>
      </trkpt>
      <trkpt lat="45.7455" lon="6.71703">
        <ele>2020</ele>
        <time>2026-07-29T11:46:04.716Z</time>
      </trkpt>
      <trkpt lat="45.74551" lon="6.71705">
        <ele>2020</ele>
        <time>2026-07-29T11:46:05.716Z</time>
      </trkpt>
      <trkpt lat="45.74551" lon="6.71706">
        <ele>2019</ele>
        <time>2026-07-29T11:46:06.716Z</time>
      </trkpt>
      <trkpt lat="45.74551" lon="6.71707">
        <ele>2019</ele>
        <time>2026-07-29T11:46:07.716Z</time>
      </trkpt>
      <trkpt lat="45.74552" lon="6.71707">
        <ele>2018</ele>
        <time>2026-07-29T11:46:08.716Z</time>
      </trkpt>
      <trkpt lat="45.74552" lon="6.71707">
        <ele>2018</ele>
        <time>2026-07-29T11:46:09.716Z</time>
      </trkpt>
      <trkpt lat="45.74552" lon="6.71708">
        <ele>2018</ele>
        <time>2026-07-29T11:46:10.716Z</time>
      </trkpt>
      <trkpt lat="45.74552" lon="6.71708">
        <ele>2018</ele>
        <time>2026-07-29T11:46:11.716Z</time>
      </trkpt>
      <trkpt lat="45.74552" lon="6.71708">
        <ele>2018</ele>
        <time>2026-07-29T11:46:12.716Z</time>
      </trkpt>
      <trkpt lat="45.74553" lon="6.71708">
        <ele>2018</ele>
        <time>2026-07-29T11:46:13.716Z</time>
      </trkpt>
      <trkpt lat="45.74553" lon="6.71707">
        <ele>2018</ele>
        <time>2026-07-29T11:46:14.716Z</time>
      </trkpt>
      <trkpt lat="45.74553" lon="6.71707">
        <ele>2018</ele>
        <time>2026-07-29T11:46:15.716Z</time>
      </trkpt>
      <trkpt lat="45.74553" lon="6.71706">
        <ele>2017</ele>
        <time>2026-07-29T11:46:16.716Z</time>
      </trkpt>
      <trkpt lat="45.74553" lon="6.71705">
        <ele>2017</ele>
        <time>2026-07-29T11:46:17.716Z</time>
      </trkpt>
      <trkpt lat="45.74554" lon="6.71704">
        <ele>2017</ele>
        <time>2026-07-29T11:46:18.716Z</time>
      </trkpt>
      <trkpt lat="45.74554" lon="6.71704">
        <ele>2017</ele>
        <time>2026-07-29T11:46:19.716Z</time>
      </trkpt>
      <trkpt lat="45.74555" lon="6.71704">
        <ele>2017</ele>
        <time>2026-07-29T11:46:20.716Z</time>
      </trkpt>
      <trkpt lat="45.74556" lon="6.71704">
        <ele>2017</ele>
        <time>2026-07-29T11:46:21.716Z</time>
      </trkpt>
      <trkpt lat="45.74557" lon="6.71705">
        <ele>2016</ele>
        <time>2026-07-29T11:46:22.716Z</time>
      </trkpt>
      <trkpt lat="45.74557" lon="6.71706">
        <ele>2016</ele>
        <time>2026-07-29T11:46:23.716Z</time>
      </trkpt>
      <trkpt lat="45.74558" lon="6.71706">
        <ele>2016</ele>
        <time>2026-07-29T11:46:24.716Z</time>
      </trkpt>
      <trkpt lat="45.74558" lon="6.71706">
        <ele>2015</ele>
        <time>2026-07-29T11:46:25.716Z</time>
      </trkpt>
      <trkpt lat="45.74559" lon="6.71707">
        <ele>2015</ele>
        <time>2026-07-29T11:46:26.716Z</time>
      </trkpt>
      <trkpt lat="45.7456" lon="6.71707">
        <ele>2015</ele>
        <time>2026-07-29T11:46:27.716Z</time>
      </trkpt>
      <trkpt lat="45.7456" lon="6.71708">
        <ele>2015</ele>
        <time>2026-07-29T11:46:28.716Z</time>
      </trkpt>
      <trkpt lat="45.74561" lon="6.71708">
        <ele>2015</ele>
        <time>2026-07-29T11:46:29.716Z</time>
      </trkpt>
      <trkpt lat="45.74561" lon="6.71707">
        <ele>2015</ele>
        <time>2026-07-29T11:46:30.716Z</time>
      </trkpt>
      <trkpt lat="45.74562" lon="6.71706">
        <ele>2015</ele>
        <time>2026-07-29T11:46:31.716Z</time>
      </trkpt>
      <trkpt lat="45.74563" lon="6.71706">
        <ele>2015</ele>
        <time>2026-07-29T11:46:32.716Z</time>
      </trkpt>
      <trkpt lat="45.74563" lon="6.71706">
        <ele>2015</ele>
        <time>2026-07-29T11:46:33.716Z</time>
      </trkpt>
      <trkpt lat="45.74563" lon="6.71706">
        <ele>2015</ele>
        <time>2026-07-29T11:46:34.716Z</time>
      </trkpt>
      <trkpt lat="45.74563" lon="6.71706">
        <ele>2014</ele>
        <time>2026-07-29T11:46:35.716Z</time>
      </trkpt>
      <trkpt lat="45.74563" lon="6.71706">
        <ele>2014</ele>
        <time>2026-07-29T11:46:36.716Z</time>
      </trkpt>
      <trkpt lat="45.74563" lon="6.71706">
        <ele>2014</ele>
        <time>2026-07-29T11:46:37.716Z</time>
      </trkpt>
      <trkpt lat="45.74563" lon="6.71706">
        <ele>2014</ele>
        <time>2026-07-29T11:46:38.716Z</time>
      </trkpt>
      <trkpt lat="45.74563" lon="6.71706">
        <ele>2014</ele>
        <time>2026-07-29T11:46:39.716Z</time>
      </trkpt>
      <trkpt lat="45.74563" lon="6.71706">
        <ele>2014</ele>
        <time>2026-07-29T11:46:40.716Z</time>
      </trkpt>
      <trkpt lat="45.74563" lon="6.71706">
        <ele>2014</ele>
        <time>2026-07-29T11:46:41.716Z</time>
      </trkpt>
      <trkpt lat="45.74563" lon="6.71706">
        <ele>2014</ele>
        <time>2026-07-29T11:46:42.716Z</time>
      </trkpt>
      <trkpt lat="45.74563" lon="6.71706">
        <ele>2015</ele>
        <time>2026-07-29T11:46:43.716Z</time>
      </trkpt>
      <trkpt lat="45.74563" lon="6.71706">
        <ele>2015</ele>
        <time>2026-07-29T11:46:44.716Z</time>
      </trkpt>
      <trkpt lat="45.74563" lon="6.71706">
        <ele>2015</ele>
        <time>2026-07-29T11:46:45.716Z</time>
      </trkpt>
      <trkpt lat="45.74563" lon="6.71706">
        <ele>2015</ele>
        <time>2026-07-29T11:46:46.716Z</time>
      </trkpt>
      <trkpt lat="45.74563" lon="6.71706">
        <ele>2015</ele>
        <time>2026-07-29T11:46:47.716Z</time>
      </trkpt>
      <trkpt lat="45.74563" lon="6.71706">
        <ele>2015</ele>
        <time>2026-07-29T11:46:48.716Z</time>
      </trkpt>
      <trkpt lat="45.74563" lon="6.71706">
        <ele>2015</ele>
        <time>2026-07-29T11:46:49.716Z</time>
      </trkpt>
      <trkpt lat="45.74563" lon="6.71706">
        <ele>2015</ele>
        <time>2026-07-29T11:46:50.716Z</time>
      </trkpt>
      <trkpt lat="45.74563" lon="6.71706">
        <ele>2015</ele>
        <time>2026-07-29T11:46:51.716Z</time>
      </trkpt>
      <trkpt lat="45.74563" lon="6.71706">
        <ele>2015</ele>
        <time>2026-07-29T11:46:52.716Z</time>
      </trkpt>
      <trkpt lat="45.74563" lon="6.71706">
        <ele>2014</ele>
        <time>2026-07-29T11:46:53.716Z</time>
      </trkpt>
      <trkpt lat="45.74563" lon="6.71706">
        <ele>2014</ele>
        <time>2026-07-29T11:46:54.716Z</time>
      </trkpt>
      <trkpt lat="45.74563" lon="6.71706">
        <ele>2014</ele>
        <time>2026-07-29T11:46:55.716Z</time>
      </trkpt>
      <trkpt lat="45.74563" lon="6.71706">
        <ele>2014</ele>
        <time>2026-07-29T11:46:56.716Z</time>
      </trkpt>
      <trkpt lat="45.74563" lon="6.71706">
        <ele>2014</ele>
        <time>2026-07-29T11:46:57.716Z</time>
      </trkpt>
      <trkpt lat="45.74563" lon="6.71706">
        <ele>2014</ele>
        <time>2026-07-29T11:46:58.716Z</time>
      </trkpt>
      <trkpt lat="45.74564" lon="6.71706">
        <ele>2014</ele>
        <time>2026-07-29T11:46:59.716Z</time>
      </trkpt>
      <trkpt lat="45.74565" lon="6.71707">
        <ele>2014</ele>
        <time>2026-07-29T11:47:00.716Z</time>
      </trkpt>
      <trkpt lat="45.74566" lon="6.71708">
        <ele>2014</ele>
        <time>2026-07-29T11:47:01.716Z</time>
      </trkpt>
      <trkpt lat="45.74568" lon="6.71709">
        <ele>2014</ele>
        <time>2026-07-29T11:47:02.716Z</time>
      </trkpt>
      <trkpt lat="45.74569" lon="6.7171">
        <ele>2014</ele>
        <time>2026-07-29T11:47:03.716Z</time>
      </trkpt>
      <trkpt lat="45.74571" lon="6.7171">
        <ele>2014</ele>
        <time>2026-07-29T11:47:04.716Z</time>
      </trkpt>
      <trkpt lat="45.74572" lon="6.71711">
        <ele>2013</ele>
        <time>2026-07-29T11:47:05.716Z</time>
      </trkpt>
      <trkpt lat="45.74573" lon="6.71712">
        <ele>2013</ele>
        <time>2026-07-29T11:47:06.716Z</time>
      </trkpt>
      <trkpt lat="45.74575" lon="6.71713">
        <ele>2012</ele>
        <time>2026-07-29T11:47:07.716Z</time>
      </trkpt>
      <trkpt lat="45.74576" lon="6.71714">
        <ele>2012</ele>
        <time>2026-07-29T11:47:08.716Z</time>
      </trkpt>
      <trkpt lat="45.74577" lon="6.71715">
        <ele>2012</ele>
        <time>2026-07-29T11:47:09.716Z</time>
      </trkpt>
      <trkpt lat="45.74578" lon="6.71716">
        <ele>2012</ele>
        <time>2026-07-29T11:47:10.716Z</time>
      </trkpt>
      <trkpt lat="45.74578" lon="6.71716">
        <ele>2012</ele>
        <time>2026-07-29T11:47:11.716Z</time>
      </trkpt>
      <trkpt lat="45.74579" lon="6.71717">
        <ele>2011</ele>
        <time>2026-07-29T11:47:12.716Z</time>
      </trkpt>
      <trkpt lat="45.7458" lon="6.71717">
        <ele>2011</ele>
        <time>2026-07-29T11:47:13.716Z</time>
      </trkpt>
      <trkpt lat="45.74581" lon="6.71717">
        <ele>2010</ele>
        <time>2026-07-29T11:47:14.716Z</time>
      </trkpt>
      <trkpt lat="45.74582" lon="6.71717">
        <ele>2010</ele>
        <time>2026-07-29T11:47:15.716Z</time>
      </trkpt>
      <trkpt lat="45.74583" lon="6.71717">
        <ele>2010</ele>
        <time>2026-07-29T11:47:16.716Z</time>
      </trkpt>
      <trkpt lat="45.74584" lon="6.71718">
        <ele>2010</ele>
        <time>2026-07-29T11:47:17.716Z</time>
      </trkpt>
      <trkpt lat="45.74585" lon="6.71718">
        <ele>2009</ele>
        <time>2026-07-29T11:47:18.716Z</time>
      </trkpt>
      <trkpt lat="45.74586" lon="6.71719">
        <ele>2009</ele>
        <time>2026-07-29T11:47:19.716Z</time>
      </trkpt>
      <trkpt lat="45.74587" lon="6.71719">
        <ele>2008</ele>
        <time>2026-07-29T11:47:20.716Z</time>
      </trkpt>
      <trkpt lat="45.74588" lon="6.7172">
        <ele>2008</ele>
        <time>2026-07-29T11:47:21.716Z</time>
      </trkpt>
      <trkpt lat="45.74589" lon="6.7172">
        <ele>2008</ele>
        <time>2026-07-29T11:47:22.716Z</time>
      </trkpt>
      <trkpt lat="45.74589" lon="6.71721">
        <ele>2007</ele>
        <time>2026-07-29T11:47:23.716Z</time>
      </trkpt>
      <trkpt lat="45.7459" lon="6.71721">
        <ele>2007</ele>
        <time>2026-07-29T11:47:24.716Z</time>
      </trkpt>
      <trkpt lat="45.74591" lon="6.71722">
        <ele>2007</ele>
        <time>2026-07-29T11:47:25.716Z</time>
      </trkpt>
      <trkpt lat="45.74592" lon="6.71723">
        <ele>2006</ele>
        <time>2026-07-29T11:47:26.716Z</time>
      </trkpt>
      <trkpt lat="45.74593" lon="6.71724">
        <ele>2006</ele>
        <time>2026-07-29T11:47:27.716Z</time>
      </trkpt>
      <trkpt lat="45.74594" lon="6.71725">
        <ele>2005</ele>
        <time>2026-07-29T11:47:28.716Z</time>
      </trkpt>
      <trkpt lat="45.74595" lon="6.71726">
        <ele>2005</ele>
        <time>2026-07-29T11:47:29.716Z</time>
      </trkpt>
      <trkpt lat="45.74597" lon="6.71727">
        <ele>2005</ele>
        <time>2026-07-29T11:47:30.716Z</time>
      </trkpt>
      <trkpt lat="45.74598" lon="6.71729">
        <ele>2004</ele>
        <time>2026-07-29T11:47:31.716Z</time>
      </trkpt>
      <trkpt lat="45.74599" lon="6.71731">
        <ele>2004</ele>
        <time>2026-07-29T11:47:32.716Z</time>
      </trkpt>
      <trkpt lat="45.746" lon="6.71732">
        <ele>2003</ele>
        <time>2026-07-29T11:47:33.716Z</time>
      </trkpt>
      <trkpt lat="45.74601" lon="6.71734">
        <ele>2003</ele>
        <time>2026-07-29T11:47:34.716Z</time>
      </trkpt>
      <trkpt lat="45.74603" lon="6.71735">
        <ele>2003</ele>
        <time>2026-07-29T11:47:35.716Z</time>
      </trkpt>
      <trkpt lat="45.74604" lon="6.71736">
        <ele>2002</ele>
        <time>2026-07-29T11:47:36.716Z</time>
      </trkpt>
      <trkpt lat="45.74605" lon="6.71737">
        <ele>2002</ele>
        <time>2026-07-29T11:47:37.716Z</time>
      </trkpt>
      <trkpt lat="45.74606" lon="6.71739">
        <ele>2002</ele>
        <time>2026-07-29T11:47:38.716Z</time>
      </trkpt>
      <trkpt lat="45.74607" lon="6.7174">
        <ele>2001</ele>
        <time>2026-07-29T11:47:39.716Z</time>
      </trkpt>
      <trkpt lat="45.74608" lon="6.71742">
        <ele>2001</ele>
        <time>2026-07-29T11:47:40.716Z</time>
      </trkpt>
      <trkpt lat="45.7461" lon="6.71743">
        <ele>2001</ele>
        <time>2026-07-29T11:47:41.716Z</time>
      </trkpt>
      <trkpt lat="45.7461" lon="6.71745">
        <ele>2001</ele>
        <time>2026-07-29T11:47:42.716Z</time>
      </trkpt>
      <trkpt lat="45.74611" lon="6.71746">
        <ele>2000</ele>
        <time>2026-07-29T11:47:43.716Z</time>
      </trkpt>
      <trkpt lat="45.74612" lon="6.71747">
        <ele>2000</ele>
        <time>2026-07-29T11:47:44.716Z</time>
      </trkpt>
      <trkpt lat="45.74613" lon="6.71749">
        <ele>1999</ele>
        <time>2026-07-29T11:47:45.716Z</time>
      </trkpt>
      <trkpt lat="45.74614" lon="6.7175">
        <ele>1999</ele>
        <time>2026-07-29T11:47:46.716Z</time>
      </trkpt>
      <trkpt lat="45.74615" lon="6.71751">
        <ele>1999</ele>
        <time>2026-07-29T11:47:47.716Z</time>
      </trkpt>
      <trkpt lat="45.74616" lon="6.71751">
        <ele>1999</ele>
        <time>2026-07-29T11:47:48.716Z</time>
      </trkpt>
      <trkpt lat="45.74617" lon="6.71752">
        <ele>1998</ele>
        <time>2026-07-29T11:47:49.716Z</time>
      </trkpt>
      <trkpt lat="45.74618" lon="6.71754">
        <ele>1998</ele>
        <time>2026-07-29T11:47:50.716Z</time>
      </trkpt>
      <trkpt lat="45.74619" lon="6.71756">
        <ele>1998</ele>
        <time>2026-07-29T11:47:51.716Z</time>
      </trkpt>
      <trkpt lat="45.7462" lon="6.71757">
        <ele>1998</ele>
        <time>2026-07-29T11:47:52.716Z</time>
      </trkpt>
      <trkpt lat="45.74621" lon="6.71758">
        <ele>1998</ele>
        <time>2026-07-29T11:47:53.716Z</time>
      </trkpt>
      <trkpt lat="45.74622" lon="6.71759">
        <ele>1997</ele>
        <time>2026-07-29T11:47:54.716Z</time>
      </trkpt>
      <trkpt lat="45.74623" lon="6.7176">
        <ele>1997</ele>
        <time>2026-07-29T11:47:55.716Z</time>
      </trkpt>
      <trkpt lat="45.74624" lon="6.71761">
        <ele>1996</ele>
        <time>2026-07-29T11:47:56.716Z</time>
      </trkpt>
      <trkpt lat="45.74625" lon="6.71762">
        <ele>1996</ele>
        <time>2026-07-29T11:47:57.716Z</time>
      </trkpt>
      <trkpt lat="45.74626" lon="6.71763">
        <ele>1995</ele>
        <time>2026-07-29T11:47:58.716Z</time>
      </trkpt>
      <trkpt lat="45.74627" lon="6.71764">
        <ele>1995</ele>
        <time>2026-07-29T11:47:59.716Z</time>
      </trkpt>
      <trkpt lat="45.74628" lon="6.71765">
        <ele>1994</ele>
        <time>2026-07-29T11:48:00.716Z</time>
      </trkpt>
      <trkpt lat="45.74629" lon="6.71767">
        <ele>1993</ele>
        <time>2026-07-29T11:48:01.716Z</time>
      </trkpt>
      <trkpt lat="45.7463" lon="6.71768">
        <ele>1992</ele>
        <time>2026-07-29T11:48:02.716Z</time>
      </trkpt>
      <trkpt lat="45.74631" lon="6.71769">
        <ele>1992</ele>
        <time>2026-07-29T11:48:03.716Z</time>
      </trkpt>
      <trkpt lat="45.74633" lon="6.7177">
        <ele>1991</ele>
        <time>2026-07-29T11:48:04.716Z</time>
      </trkpt>
      <trkpt lat="45.74634" lon="6.71771">
        <ele>1991</ele>
        <time>2026-07-29T11:48:05.716Z</time>
      </trkpt>
      <trkpt lat="45.74635" lon="6.71773">
        <ele>1991</ele>
        <time>2026-07-29T11:48:06.716Z</time>
      </trkpt>
      <trkpt lat="45.74636" lon="6.71774">
        <ele>1990</ele>
        <time>2026-07-29T11:48:07.716Z</time>
      </trkpt>
      <trkpt lat="45.74637" lon="6.71776">
        <ele>1990</ele>
        <time>2026-07-29T11:48:08.716Z</time>
      </trkpt>
      <trkpt lat="45.74639" lon="6.71779">
        <ele>1990</ele>
        <time>2026-07-29T11:48:09.716Z</time>
      </trkpt>
      <trkpt lat="45.7464" lon="6.71781">
        <ele>1989</ele>
        <time>2026-07-29T11:48:10.716Z</time>
      </trkpt>
      <trkpt lat="45.74641" lon="6.71783">
        <ele>1989</ele>
        <time>2026-07-29T11:48:11.716Z</time>
      </trkpt>
      <trkpt lat="45.74642" lon="6.71785">
        <ele>1989</ele>
        <time>2026-07-29T11:48:12.716Z</time>
      </trkpt>
      <trkpt lat="45.74643" lon="6.71787">
        <ele>1989</ele>
        <time>2026-07-29T11:48:13.716Z</time>
      </trkpt>
      <trkpt lat="45.74644" lon="6.71789">
        <ele>1989</ele>
        <time>2026-07-29T11:48:14.716Z</time>
      </trkpt>
      <trkpt lat="45.74645" lon="6.71791">
        <ele>1988</ele>
        <time>2026-07-29T11:48:15.716Z</time>
      </trkpt>
      <trkpt lat="45.74646" lon="6.71792">
        <ele>1988</ele>
        <time>2026-07-29T11:48:16.716Z</time>
      </trkpt>
      <trkpt lat="45.74648" lon="6.71792">
        <ele>1988</ele>
        <time>2026-07-29T11:48:17.716Z</time>
      </trkpt>
      <trkpt lat="45.7465" lon="6.71793">
        <ele>1988</ele>
        <time>2026-07-29T11:48:18.716Z</time>
      </trkpt>
      <trkpt lat="45.74651" lon="6.71795">
        <ele>1988</ele>
        <time>2026-07-29T11:48:19.716Z</time>
      </trkpt>
      <trkpt lat="45.74652" lon="6.71796">
        <ele>1987</ele>
        <time>2026-07-29T11:48:20.716Z</time>
      </trkpt>
      <trkpt lat="45.74654" lon="6.71797">
        <ele>1987</ele>
        <time>2026-07-29T11:48:21.716Z</time>
      </trkpt>
      <trkpt lat="45.74655" lon="6.71798">
        <ele>1987</ele>
        <time>2026-07-29T11:48:22.716Z</time>
      </trkpt>
      <trkpt lat="45.74657" lon="6.718">
        <ele>1986</ele>
        <time>2026-07-29T11:48:23.716Z</time>
      </trkpt>
      <trkpt lat="45.74658" lon="6.71801">
        <ele>1985</ele>
        <time>2026-07-29T11:48:24.716Z</time>
      </trkpt>
      <trkpt lat="45.74659" lon="6.71803">
        <ele>1985</ele>
        <time>2026-07-29T11:48:25.716Z</time>
      </trkpt>
      <trkpt lat="45.7466" lon="6.71806">
        <ele>1985</ele>
        <time>2026-07-29T11:48:26.716Z</time>
      </trkpt>
      <trkpt lat="45.74661" lon="6.71808">
        <ele>1985</ele>
        <time>2026-07-29T11:48:27.716Z</time>
      </trkpt>
      <trkpt lat="45.74661" lon="6.71811">
        <ele>1985</ele>
        <time>2026-07-29T11:48:28.716Z</time>
      </trkpt>
      <trkpt lat="45.74662" lon="6.71813">
        <ele>1984</ele>
        <time>2026-07-29T11:48:29.716Z</time>
      </trkpt>
      <trkpt lat="45.74662" lon="6.71816">
        <ele>1984</ele>
        <time>2026-07-29T11:48:30.716Z</time>
      </trkpt>
      <trkpt lat="45.74663" lon="6.71818">
        <ele>1984</ele>
        <time>2026-07-29T11:48:31.716Z</time>
      </trkpt>
      <trkpt lat="45.74664" lon="6.71818">
        <ele>1983</ele>
        <time>2026-07-29T11:48:32.716Z</time>
      </trkpt>
      <trkpt lat="45.74665" lon="6.71819">
        <ele>1983</ele>
        <time>2026-07-29T11:48:33.716Z</time>
      </trkpt>
      <trkpt lat="45.74666" lon="6.71818">
        <ele>1983</ele>
        <time>2026-07-29T11:48:34.716Z</time>
      </trkpt>
      <trkpt lat="45.74667" lon="6.71817">
        <ele>1983</ele>
        <time>2026-07-29T11:48:35.716Z</time>
      </trkpt>
      <trkpt lat="45.74668" lon="6.71815">
        <ele>1983</ele>
        <time>2026-07-29T11:48:36.716Z</time>
      </trkpt>
      <trkpt lat="45.74668" lon="6.71813">
        <ele>1983</ele>
        <time>2026-07-29T11:48:37.716Z</time>
      </trkpt>
      <trkpt lat="45.74668" lon="6.71811">
        <ele>1982</ele>
        <time>2026-07-29T11:48:38.716Z</time>
      </trkpt>
      <trkpt lat="45.74668" lon="6.71808">
        <ele>1982</ele>
        <time>2026-07-29T11:48:39.716Z</time>
      </trkpt>
      <trkpt lat="45.74668" lon="6.71806">
        <ele>1981</ele>
        <time>2026-07-29T11:48:40.716Z</time>
      </trkpt>
      <trkpt lat="45.74667" lon="6.71803">
        <ele>1981</ele>
        <time>2026-07-29T11:48:41.716Z</time>
      </trkpt>
      <trkpt lat="45.74667" lon="6.71801">
        <ele>1980</ele>
        <time>2026-07-29T11:48:42.716Z</time>
      </trkpt>
      <trkpt lat="45.74667" lon="6.71798">
        <ele>1980</ele>
        <time>2026-07-29T11:48:43.716Z</time>
      </trkpt>
      <trkpt lat="45.74667" lon="6.71796">
        <ele>1980</ele>
        <time>2026-07-29T11:48:44.716Z</time>
      </trkpt>
      <trkpt lat="45.74667" lon="6.71794">
        <ele>1979</ele>
        <time>2026-07-29T11:48:45.716Z</time>
      </trkpt>
      <trkpt lat="45.74667" lon="6.71791">
        <ele>1979</ele>
        <time>2026-07-29T11:48:46.716Z</time>
      </trkpt>
      <trkpt lat="45.74667" lon="6.71789">
        <ele>1979</ele>
        <time>2026-07-29T11:48:47.716Z</time>
      </trkpt>
      <trkpt lat="45.74667" lon="6.71786">
        <ele>1979</ele>
        <time>2026-07-29T11:48:48.716Z</time>
      </trkpt>
      <trkpt lat="45.74666" lon="6.71784">
        <ele>1979</ele>
        <time>2026-07-29T11:48:49.716Z</time>
      </trkpt>
      <trkpt lat="45.74665" lon="6.71783">
        <ele>1979</ele>
        <time>2026-07-29T11:48:50.716Z</time>
      </trkpt>
      <trkpt lat="45.74664" lon="6.71781">
        <ele>1979</ele>
        <time>2026-07-29T11:48:51.716Z</time>
      </trkpt>
      <trkpt lat="45.74663" lon="6.71778">
        <ele>1979</ele>
        <time>2026-07-29T11:48:52.716Z</time>
      </trkpt>
      <trkpt lat="45.74662" lon="6.71776">
        <ele>1979</ele>
        <time>2026-07-29T11:48:53.716Z</time>
      </trkpt>
      <trkpt lat="45.74662" lon="6.71773">
        <ele>1979</ele>
        <time>2026-07-29T11:48:54.716Z</time>
      </trkpt>
      <trkpt lat="45.74661" lon="6.7177">
        <ele>1979</ele>
        <time>2026-07-29T11:48:55.716Z</time>
      </trkpt>
      <trkpt lat="45.74661" lon="6.71767">
        <ele>1979</ele>
        <time>2026-07-29T11:48:56.716Z</time>
      </trkpt>
      <trkpt lat="45.7466" lon="6.71764">
        <ele>1979</ele>
        <time>2026-07-29T11:48:57.716Z</time>
      </trkpt>
      <trkpt lat="45.7466" lon="6.71761">
        <ele>1979</ele>
        <time>2026-07-29T11:48:58.716Z</time>
      </trkpt>
      <trkpt lat="45.74659" lon="6.71758">
        <ele>1978</ele>
        <time>2026-07-29T11:48:59.716Z</time>
      </trkpt>
      <trkpt lat="45.7466" lon="6.71755">
        <ele>1978</ele>
        <time>2026-07-29T11:49:00.716Z</time>
      </trkpt>
      <trkpt lat="45.7466" lon="6.71752">
        <ele>1978</ele>
        <time>2026-07-29T11:49:01.716Z</time>
      </trkpt>
      <trkpt lat="45.7466" lon="6.71749">
        <ele>1978</ele>
        <time>2026-07-29T11:49:02.716Z</time>
      </trkpt>
      <trkpt lat="45.74659" lon="6.71747">
        <ele>1977</ele>
        <time>2026-07-29T11:49:03.716Z</time>
      </trkpt>
      <trkpt lat="45.74659" lon="6.71744">
        <ele>1977</ele>
        <time>2026-07-29T11:49:04.716Z</time>
      </trkpt>
      <trkpt lat="45.74658" lon="6.71741">
        <ele>1977</ele>
        <time>2026-07-29T11:49:05.716Z</time>
      </trkpt>
      <trkpt lat="45.74657" lon="6.71739">
        <ele>1977</ele>
        <time>2026-07-29T11:49:06.716Z</time>
      </trkpt>
      <trkpt lat="45.74656" lon="6.71736">
        <ele>1977</ele>
        <time>2026-07-29T11:49:07.716Z</time>
      </trkpt>
      <trkpt lat="45.74656" lon="6.71734">
        <ele>1977</ele>
        <time>2026-07-29T11:49:08.716Z</time>
      </trkpt>
      <trkpt lat="45.74656" lon="6.71731">
        <ele>1977</ele>
        <time>2026-07-29T11:49:09.716Z</time>
      </trkpt>
      <trkpt lat="45.74657" lon="6.71729">
        <ele>1976</ele>
        <time>2026-07-29T11:49:10.716Z</time>
      </trkpt>
      <trkpt lat="45.74658" lon="6.71726">
        <ele>1976</ele>
        <time>2026-07-29T11:49:11.716Z</time>
      </trkpt>
      <trkpt lat="45.74659" lon="6.71724">
        <ele>1976</ele>
        <time>2026-07-29T11:49:12.716Z</time>
      </trkpt>
      <trkpt lat="45.7466" lon="6.71722">
        <ele>1976</ele>
        <time>2026-07-29T11:49:13.716Z</time>
      </trkpt>
      <trkpt lat="45.74661" lon="6.7172">
        <ele>1976</ele>
        <time>2026-07-29T11:49:14.716Z</time>
      </trkpt>
      <trkpt lat="45.74663" lon="6.71719">
        <ele>1976</ele>
        <time>2026-07-29T11:49:15.716Z</time>
      </trkpt>
      <trkpt lat="45.74664" lon="6.71717">
        <ele>1975</ele>
        <time>2026-07-29T11:49:16.716Z</time>
      </trkpt>
      <trkpt lat="45.74665" lon="6.71716">
        <ele>1975</ele>
        <time>2026-07-29T11:49:17.716Z</time>
      </trkpt>
      <trkpt lat="45.74666" lon="6.71715">
        <ele>1975</ele>
        <time>2026-07-29T11:49:18.716Z</time>
      </trkpt>
      <trkpt lat="45.74667" lon="6.71714">
        <ele>1975</ele>
        <time>2026-07-29T11:49:19.716Z</time>
      </trkpt>
      <trkpt lat="45.74668" lon="6.71712">
        <ele>1974</ele>
        <time>2026-07-29T11:49:20.716Z</time>
      </trkpt>
      <trkpt lat="45.74669" lon="6.7171">
        <ele>1974</ele>
        <time>2026-07-29T11:49:21.716Z</time>
      </trkpt>
      <trkpt lat="45.74669" lon="6.71709">
        <ele>1974</ele>
        <time>2026-07-29T11:49:22.716Z</time>
      </trkpt>
      <trkpt lat="45.7467" lon="6.71707">
        <ele>1973</ele>
        <time>2026-07-29T11:49:23.716Z</time>
      </trkpt>
      <trkpt lat="45.74671" lon="6.71705">
        <ele>1973</ele>
        <time>2026-07-29T11:49:24.716Z</time>
      </trkpt>
      <trkpt lat="45.74671" lon="6.71703">
        <ele>1972</ele>
        <time>2026-07-29T11:49:25.716Z</time>
      </trkpt>
      <trkpt lat="45.74672" lon="6.71702">
        <ele>1972</ele>
        <time>2026-07-29T11:49:26.716Z</time>
      </trkpt>
      <trkpt lat="45.74672" lon="6.717">
        <ele>1971</ele>
        <time>2026-07-29T11:49:27.716Z</time>
      </trkpt>
      <trkpt lat="45.74672" lon="6.71698">
        <ele>1971</ele>
        <time>2026-07-29T11:49:28.716Z</time>
      </trkpt>
      <trkpt lat="45.74673" lon="6.71695">
        <ele>1970</ele>
        <time>2026-07-29T11:49:29.716Z</time>
      </trkpt>
      <trkpt lat="45.74673" lon="6.71693">
        <ele>1970</ele>
        <time>2026-07-29T11:49:30.716Z</time>
      </trkpt>
      <trkpt lat="45.74673" lon="6.71691">
        <ele>1970</ele>
        <time>2026-07-29T11:49:31.716Z</time>
      </trkpt>
      <trkpt lat="45.74674" lon="6.71689">
        <ele>1969</ele>
        <time>2026-07-29T11:49:32.716Z</time>
      </trkpt>
      <trkpt lat="45.74675" lon="6.71687">
        <ele>1969</ele>
        <time>2026-07-29T11:49:33.716Z</time>
      </trkpt>
      <trkpt lat="45.74675" lon="6.71684">
        <ele>1968</ele>
        <time>2026-07-29T11:49:34.716Z</time>
      </trkpt>
      <trkpt lat="45.74676" lon="6.71682">
        <ele>1968</ele>
        <time>2026-07-29T11:49:35.716Z</time>
      </trkpt>
      <trkpt lat="45.74677" lon="6.7168">
        <ele>1968</ele>
        <time>2026-07-29T11:49:36.716Z</time>
      </trkpt>
      <trkpt lat="45.74678" lon="6.71678">
        <ele>1968</ele>
        <time>2026-07-29T11:49:37.716Z</time>
      </trkpt>
      <trkpt lat="45.7468" lon="6.71676">
        <ele>1968</ele>
        <time>2026-07-29T11:49:38.716Z</time>
      </trkpt>
      <trkpt lat="45.74681" lon="6.71674">
        <ele>1967</ele>
        <time>2026-07-29T11:49:39.716Z</time>
      </trkpt>
      <trkpt lat="45.74683" lon="6.71672">
        <ele>1967</ele>
        <time>2026-07-29T11:49:40.716Z</time>
      </trkpt>
      <trkpt lat="45.74684" lon="6.7167">
        <ele>1967</ele>
        <time>2026-07-29T11:49:41.716Z</time>
      </trkpt>
      <trkpt lat="45.74685" lon="6.71668">
        <ele>1967</ele>
        <time>2026-07-29T11:49:42.716Z</time>
      </trkpt>
      <trkpt lat="45.74686" lon="6.71666">
        <ele>1967</ele>
        <time>2026-07-29T11:49:43.716Z</time>
      </trkpt>
      <trkpt lat="45.74687" lon="6.71664">
        <ele>1967</ele>
        <time>2026-07-29T11:49:44.716Z</time>
      </trkpt>
      <trkpt lat="45.74688" lon="6.71661">
        <ele>1967</ele>
        <time>2026-07-29T11:49:45.716Z</time>
      </trkpt>
      <trkpt lat="45.74689" lon="6.71658">
        <ele>1967</ele>
        <time>2026-07-29T11:49:46.716Z</time>
      </trkpt>
      <trkpt lat="45.74689" lon="6.71656">
        <ele>1967</ele>
        <time>2026-07-29T11:49:47.716Z</time>
      </trkpt>
      <trkpt lat="45.7469" lon="6.71654">
        <ele>1966</ele>
        <time>2026-07-29T11:49:48.716Z</time>
      </trkpt>
      <trkpt lat="45.74691" lon="6.71651">
        <ele>1966</ele>
        <time>2026-07-29T11:49:49.716Z</time>
      </trkpt>
      <trkpt lat="45.74692" lon="6.71649">
        <ele>1966</ele>
        <time>2026-07-29T11:49:50.716Z</time>
      </trkpt>
      <trkpt lat="45.74693" lon="6.71647">
        <ele>1966</ele>
        <time>2026-07-29T11:49:51.716Z</time>
      </trkpt>
      <trkpt lat="45.74693" lon="6.71644">
        <ele>1966</ele>
        <time>2026-07-29T11:49:52.716Z</time>
      </trkpt>
      <trkpt lat="45.74693" lon="6.71641">
        <ele>1965</ele>
        <time>2026-07-29T11:49:53.716Z</time>
      </trkpt>
      <trkpt lat="45.74693" lon="6.71638">
        <ele>1965</ele>
        <time>2026-07-29T11:49:54.716Z</time>
      </trkpt>
      <trkpt lat="45.74693" lon="6.71635">
        <ele>1964</ele>
        <time>2026-07-29T11:49:55.716Z</time>
      </trkpt>
      <trkpt lat="45.74693" lon="6.71632">
        <ele>1964</ele>
        <time>2026-07-29T11:49:56.716Z</time>
      </trkpt>
      <trkpt lat="45.74693" lon="6.71629">
        <ele>1963</ele>
        <time>2026-07-29T11:49:57.716Z</time>
      </trkpt>
      <trkpt lat="45.74694" lon="6.71627">
        <ele>1963</ele>
        <time>2026-07-29T11:49:58.716Z</time>
      </trkpt>
      <trkpt lat="45.74694" lon="6.71624">
        <ele>1963</ele>
        <time>2026-07-29T11:49:59.716Z</time>
      </trkpt>
      <trkpt lat="45.74694" lon="6.71621">
        <ele>1962</ele>
        <time>2026-07-29T11:50:00.716Z</time>
      </trkpt>
      <trkpt lat="45.74695" lon="6.71619">
        <ele>1962</ele>
        <time>2026-07-29T11:50:01.716Z</time>
      </trkpt>
      <trkpt lat="45.74696" lon="6.71616">
        <ele>1962</ele>
        <time>2026-07-29T11:50:02.716Z</time>
      </trkpt>
      <trkpt lat="45.74697" lon="6.71614">
        <ele>1962</ele>
        <time>2026-07-29T11:50:03.716Z</time>
      </trkpt>
      <trkpt lat="45.74698" lon="6.71611">
        <ele>1961</ele>
        <time>2026-07-29T11:50:04.716Z</time>
      </trkpt>
      <trkpt lat="45.74699" lon="6.7161">
        <ele>1961</ele>
        <time>2026-07-29T11:50:05.716Z</time>
      </trkpt>
      <trkpt lat="45.747" lon="6.71608">
        <ele>1960</ele>
        <time>2026-07-29T11:50:06.716Z</time>
      </trkpt>
      <trkpt lat="45.74701" lon="6.71607">
        <ele>1960</ele>
        <time>2026-07-29T11:50:07.716Z</time>
      </trkpt>
      <trkpt lat="45.74702" lon="6.71605">
        <ele>1959</ele>
        <time>2026-07-29T11:50:08.716Z</time>
      </trkpt>
      <trkpt lat="45.74702" lon="6.71604">
        <ele>1959</ele>
        <time>2026-07-29T11:50:09.716Z</time>
      </trkpt>
      <trkpt lat="45.74703" lon="6.71603">
        <ele>1959</ele>
        <time>2026-07-29T11:50:10.716Z</time>
      </trkpt>
      <trkpt lat="45.74703" lon="6.71601">
        <ele>1959</ele>
        <time>2026-07-29T11:50:11.716Z</time>
      </trkpt>
      <trkpt lat="45.74704" lon="6.716">
        <ele>1959</ele>
        <time>2026-07-29T11:50:12.716Z</time>
      </trkpt>
      <trkpt lat="45.74704" lon="6.71598">
        <ele>1958</ele>
        <time>2026-07-29T11:50:13.716Z</time>
      </trkpt>
      <trkpt lat="45.74705" lon="6.71596">
        <ele>1958</ele>
        <time>2026-07-29T11:50:14.716Z</time>
      </trkpt>
      <trkpt lat="45.74705" lon="6.71594">
        <ele>1958</ele>
        <time>2026-07-29T11:50:15.716Z</time>
      </trkpt>
      <trkpt lat="45.74706" lon="6.71593">
        <ele>1958</ele>
        <time>2026-07-29T11:50:16.716Z</time>
      </trkpt>
      <trkpt lat="45.74707" lon="6.71591">
        <ele>1958</ele>
        <time>2026-07-29T11:50:17.716Z</time>
      </trkpt>
      <trkpt lat="45.74708" lon="6.7159">
        <ele>1958</ele>
        <time>2026-07-29T11:50:18.716Z</time>
      </trkpt>
      <trkpt lat="45.74709" lon="6.71588">
        <ele>1958</ele>
        <time>2026-07-29T11:50:19.716Z</time>
      </trkpt>
      <trkpt lat="45.7471" lon="6.71586">
        <ele>1958</ele>
        <time>2026-07-29T11:50:20.716Z</time>
      </trkpt>
      <trkpt lat="45.74711" lon="6.71585">
        <ele>1958</ele>
        <time>2026-07-29T11:50:21.716Z</time>
      </trkpt>
      <trkpt lat="45.74711" lon="6.71582">
        <ele>1957</ele>
        <time>2026-07-29T11:50:22.716Z</time>
      </trkpt>
      <trkpt lat="45.74711" lon="6.7158">
        <ele>1957</ele>
        <time>2026-07-29T11:50:23.716Z</time>
      </trkpt>
      <trkpt lat="45.74712" lon="6.71578">
        <ele>1957</ele>
        <time>2026-07-29T11:50:24.716Z</time>
      </trkpt>
      <trkpt lat="45.74712" lon="6.71576">
        <ele>1957</ele>
        <time>2026-07-29T11:50:25.716Z</time>
      </trkpt>
      <trkpt lat="45.74712" lon="6.71575">
        <ele>1957</ele>
        <time>2026-07-29T11:50:26.716Z</time>
      </trkpt>
      <trkpt lat="45.74713" lon="6.71574">
        <ele>1957</ele>
        <time>2026-07-29T11:50:27.716Z</time>
      </trkpt>
      <trkpt lat="45.74713" lon="6.71574">
        <ele>1957</ele>
        <time>2026-07-29T11:50:28.716Z</time>
      </trkpt>
      <trkpt lat="45.74713" lon="6.71573">
        <ele>1957</ele>
        <time>2026-07-29T11:50:29.716Z</time>
      </trkpt>
      <trkpt lat="45.74713" lon="6.71572">
        <ele>1956</ele>
        <time>2026-07-29T11:50:30.716Z</time>
      </trkpt>
      <trkpt lat="45.74713" lon="6.7157">
        <ele>1956</ele>
        <time>2026-07-29T11:50:31.716Z</time>
      </trkpt>
      <trkpt lat="45.74714" lon="6.71568">
        <ele>1956</ele>
        <time>2026-07-29T11:50:32.716Z</time>
      </trkpt>
      <trkpt lat="45.74715" lon="6.71566">
        <ele>1956</ele>
        <time>2026-07-29T11:50:33.716Z</time>
      </trkpt>
      <trkpt lat="45.74716" lon="6.71563">
        <ele>1955</ele>
        <time>2026-07-29T11:50:34.716Z</time>
      </trkpt>
      <trkpt lat="45.74716" lon="6.71561">
        <ele>1955</ele>
        <time>2026-07-29T11:50:35.716Z</time>
      </trkpt>
      <trkpt lat="45.74717" lon="6.71559">
        <ele>1955</ele>
        <time>2026-07-29T11:50:36.716Z</time>
      </trkpt>
      <trkpt lat="45.74718" lon="6.71556">
        <ele>1955</ele>
        <time>2026-07-29T11:50:37.716Z</time>
      </trkpt>
      <trkpt lat="45.74718" lon="6.71555">
        <ele>1954</ele>
        <time>2026-07-29T11:50:38.716Z</time>
      </trkpt>
      <trkpt lat="45.74719" lon="6.71553">
        <ele>1954</ele>
        <time>2026-07-29T11:50:39.716Z</time>
      </trkpt>
      <trkpt lat="45.74719" lon="6.71551">
        <ele>1953</ele>
        <time>2026-07-29T11:50:40.716Z</time>
      </trkpt>
      <trkpt lat="45.74719" lon="6.71549">
        <ele>1953</ele>
        <time>2026-07-29T11:50:41.716Z</time>
      </trkpt>
      <trkpt lat="45.74719" lon="6.71547">
        <ele>1953</ele>
        <time>2026-07-29T11:50:42.716Z</time>
      </trkpt>
      <trkpt lat="45.7472" lon="6.71544">
        <ele>1953</ele>
        <time>2026-07-29T11:50:43.716Z</time>
      </trkpt>
      <trkpt lat="45.7472" lon="6.71542">
        <ele>1952</ele>
        <time>2026-07-29T11:50:44.716Z</time>
      </trkpt>
      <trkpt lat="45.7472" lon="6.7154">
        <ele>1952</ele>
        <time>2026-07-29T11:50:45.716Z</time>
      </trkpt>
      <trkpt lat="45.74721" lon="6.71538">
        <ele>1952</ele>
        <time>2026-07-29T11:50:46.716Z</time>
      </trkpt>
      <trkpt lat="45.74722" lon="6.71536">
        <ele>1951</ele>
        <time>2026-07-29T11:50:47.716Z</time>
      </trkpt>
      <trkpt lat="45.74722" lon="6.71534">
        <ele>1951</ele>
        <time>2026-07-29T11:50:48.716Z</time>
      </trkpt>
      <trkpt lat="45.74723" lon="6.71533">
        <ele>1951</ele>
        <time>2026-07-29T11:50:49.716Z</time>
      </trkpt>
      <trkpt lat="45.74724" lon="6.71531">
        <ele>1951</ele>
        <time>2026-07-29T11:50:50.716Z</time>
      </trkpt>
      <trkpt lat="45.74725" lon="6.7153">
        <ele>1950</ele>
        <time>2026-07-29T11:50:51.716Z</time>
      </trkpt>
      <trkpt lat="45.74725" lon="6.71528">
        <ele>1950</ele>
        <time>2026-07-29T11:50:52.716Z</time>
      </trkpt>
      <trkpt lat="45.74726" lon="6.71526">
        <ele>1950</ele>
        <time>2026-07-29T11:50:53.716Z</time>
      </trkpt>
      <trkpt lat="45.74728" lon="6.71526">
        <ele>1950</ele>
        <time>2026-07-29T11:50:54.716Z</time>
      </trkpt>
      <trkpt lat="45.74729" lon="6.71525">
        <ele>1950</ele>
        <time>2026-07-29T11:50:55.716Z</time>
      </trkpt>
      <trkpt lat="45.74731" lon="6.71524">
        <ele>1950</ele>
        <time>2026-07-29T11:50:56.716Z</time>
      </trkpt>
      <trkpt lat="45.74733" lon="6.71522">
        <ele>1950</ele>
        <time>2026-07-29T11:50:57.716Z</time>
      </trkpt>
      <trkpt lat="45.74735" lon="6.71521">
        <ele>1949</ele>
        <time>2026-07-29T11:50:58.716Z</time>
      </trkpt>
      <trkpt lat="45.74737" lon="6.7152">
        <ele>1949</ele>
        <time>2026-07-29T11:50:59.716Z</time>
      </trkpt>
      <trkpt lat="45.74739" lon="6.71519">
        <ele>1949</ele>
        <time>2026-07-29T11:51:00.716Z</time>
      </trkpt>
      <trkpt lat="45.74741" lon="6.71518">
        <ele>1949</ele>
        <time>2026-07-29T11:51:01.716Z</time>
      </trkpt>
      <trkpt lat="45.74743" lon="6.71517">
        <ele>1948</ele>
        <time>2026-07-29T11:51:02.716Z</time>
      </trkpt>
      <trkpt lat="45.74745" lon="6.71517">
        <ele>1948</ele>
        <time>2026-07-29T11:51:03.716Z</time>
      </trkpt>
      <trkpt lat="45.74747" lon="6.71516">
        <ele>1948</ele>
        <time>2026-07-29T11:51:04.716Z</time>
      </trkpt>
      <trkpt lat="45.74748" lon="6.71515">
        <ele>1947</ele>
        <time>2026-07-29T11:51:05.716Z</time>
      </trkpt>
      <trkpt lat="45.74749" lon="6.71514">
        <ele>1947</ele>
        <time>2026-07-29T11:51:06.716Z</time>
      </trkpt>
      <trkpt lat="45.74751" lon="6.71513">
        <ele>1946</ele>
        <time>2026-07-29T11:51:07.716Z</time>
      </trkpt>
      <trkpt lat="45.74752" lon="6.71512">
        <ele>1946</ele>
        <time>2026-07-29T11:51:08.716Z</time>
      </trkpt>
      <trkpt lat="45.74753" lon="6.71511">
        <ele>1946</ele>
        <time>2026-07-29T11:51:09.716Z</time>
      </trkpt>
      <trkpt lat="45.74755" lon="6.7151">
        <ele>1946</ele>
        <time>2026-07-29T11:51:10.716Z</time>
      </trkpt>
      <trkpt lat="45.74757" lon="6.71509">
        <ele>1946</ele>
        <time>2026-07-29T11:51:11.716Z</time>
      </trkpt>
      <trkpt lat="45.74758" lon="6.71508">
        <ele>1946</ele>
        <time>2026-07-29T11:51:12.716Z</time>
      </trkpt>
      <trkpt lat="45.74759" lon="6.71508">
        <ele>1946</ele>
        <time>2026-07-29T11:51:13.716Z</time>
      </trkpt>
      <trkpt lat="45.7476" lon="6.71507">
        <ele>1946</ele>
        <time>2026-07-29T11:51:14.716Z</time>
      </trkpt>
      <trkpt lat="45.7476" lon="6.71506">
        <ele>1945</ele>
        <time>2026-07-29T11:51:15.716Z</time>
      </trkpt>
      <trkpt lat="45.74761" lon="6.71505">
        <ele>1945</ele>
        <time>2026-07-29T11:51:16.716Z</time>
      </trkpt>
      <trkpt lat="45.74761" lon="6.71504">
        <ele>1945</ele>
        <time>2026-07-29T11:51:17.716Z</time>
      </trkpt>
      <trkpt lat="45.74761" lon="6.71504">
        <ele>1945</ele>
        <time>2026-07-29T11:51:18.716Z</time>
      </trkpt>
      <trkpt lat="45.74762" lon="6.71503">
        <ele>1945</ele>
        <time>2026-07-29T11:51:19.716Z</time>
      </trkpt>
      <trkpt lat="45.74762" lon="6.71503">
        <ele>1945</ele>
        <time>2026-07-29T11:51:20.716Z</time>
      </trkpt>
      <trkpt lat="45.74763" lon="6.71502">
        <ele>1944</ele>
        <time>2026-07-29T11:51:21.716Z</time>
      </trkpt>
      <trkpt lat="45.74764" lon="6.71501">
        <ele>1944</ele>
        <time>2026-07-29T11:51:22.716Z</time>
      </trkpt>
      <trkpt lat="45.74765" lon="6.71501">
        <ele>1944</ele>
        <time>2026-07-29T11:51:23.716Z</time>
      </trkpt>
      <trkpt lat="45.74766" lon="6.71501">
        <ele>1944</ele>
        <time>2026-07-29T11:51:24.716Z</time>
      </trkpt>
      <trkpt lat="45.74767" lon="6.715">
        <ele>1944</ele>
        <time>2026-07-29T11:51:25.716Z</time>
      </trkpt>
      <trkpt lat="45.74768" lon="6.71499">
        <ele>1944</ele>
        <time>2026-07-29T11:51:26.716Z</time>
      </trkpt>
      <trkpt lat="45.74769" lon="6.71498">
        <ele>1944</ele>
        <time>2026-07-29T11:51:27.716Z</time>
      </trkpt>
      <trkpt lat="45.7477" lon="6.71497">
        <ele>1945</ele>
        <time>2026-07-29T11:51:28.716Z</time>
      </trkpt>
      <trkpt lat="45.74771" lon="6.71497">
        <ele>1944</ele>
        <time>2026-07-29T11:51:29.716Z</time>
      </trkpt>
      <trkpt lat="45.74772" lon="6.71496">
        <ele>1944</ele>
        <time>2026-07-29T11:51:30.716Z</time>
      </trkpt>
      <trkpt lat="45.74772" lon="6.71495">
        <ele>1944</ele>
        <time>2026-07-29T11:51:31.716Z</time>
      </trkpt>
      <trkpt lat="45.74773" lon="6.71495">
        <ele>1943</ele>
        <time>2026-07-29T11:51:32.716Z</time>
      </trkpt>
      <trkpt lat="45.74773" lon="6.71494">
        <ele>1943</ele>
        <time>2026-07-29T11:51:33.716Z</time>
      </trkpt>
      <trkpt lat="45.74774" lon="6.71494">
        <ele>1942</ele>
        <time>2026-07-29T11:51:34.716Z</time>
      </trkpt>
      <trkpt lat="45.74774" lon="6.71494">
        <ele>1941</ele>
        <time>2026-07-29T11:51:35.716Z</time>
      </trkpt>
      <trkpt lat="45.74775" lon="6.71494">
        <ele>1941</ele>
        <time>2026-07-29T11:51:36.716Z</time>
      </trkpt>
      <trkpt lat="45.74775" lon="6.71494">
        <ele>1940</ele>
        <time>2026-07-29T11:51:37.716Z</time>
      </trkpt>
      <trkpt lat="45.74776" lon="6.71494">
        <ele>1940</ele>
        <time>2026-07-29T11:51:38.716Z</time>
      </trkpt>
      <trkpt lat="45.74776" lon="6.71494">
        <ele>1940</ele>
        <time>2026-07-29T11:51:39.716Z</time>
      </trkpt>
      <trkpt lat="45.74777" lon="6.71495">
        <ele>1940</ele>
        <time>2026-07-29T11:51:40.716Z</time>
      </trkpt>
      <trkpt lat="45.74777" lon="6.71495">
        <ele>1940</ele>
        <time>2026-07-29T11:51:41.716Z</time>
      </trkpt>
      <trkpt lat="45.74778" lon="6.71494">
        <ele>1939</ele>
        <time>2026-07-29T11:51:42.717Z</time>
      </trkpt>
      <trkpt lat="45.74779" lon="6.71494">
        <ele>1939</ele>
        <time>2026-07-29T11:51:43.716Z</time>
      </trkpt>
      <trkpt lat="45.74778" lon="6.71493">
        <ele>1939</ele>
        <time>2026-07-29T11:51:44.716Z</time>
      </trkpt>
      <trkpt lat="45.74778" lon="6.71492">
        <ele>1939</ele>
        <time>2026-07-29T11:51:45.716Z</time>
      </trkpt>
      <trkpt lat="45.74778" lon="6.71492">
        <ele>1938</ele>
        <time>2026-07-29T11:51:46.716Z</time>
      </trkpt>
      <trkpt lat="45.74777" lon="6.71492">
        <ele>1938</ele>
        <time>2026-07-29T11:51:47.716Z</time>
      </trkpt>
      <trkpt lat="45.74777" lon="6.71491">
        <ele>1938</ele>
        <time>2026-07-29T11:51:48.716Z</time>
      </trkpt>
      <trkpt lat="45.74776" lon="6.71491">
        <ele>1937</ele>
        <time>2026-07-29T11:51:49.716Z</time>
      </trkpt>
      <trkpt lat="45.74775" lon="6.71491">
        <ele>1937</ele>
        <time>2026-07-29T11:51:50.716Z</time>
      </trkpt>
      <trkpt lat="45.74774" lon="6.7149">
        <ele>1937</ele>
        <time>2026-07-29T11:51:51.716Z</time>
      </trkpt>
      <trkpt lat="45.74773" lon="6.71489">
        <ele>1937</ele>
        <time>2026-07-29T11:51:52.716Z</time>
      </trkpt>
      <trkpt lat="45.74773" lon="6.71488">
        <ele>1937</ele>
        <time>2026-07-29T11:51:53.716Z</time>
      </trkpt>
      <trkpt lat="45.74771" lon="6.71488">
        <ele>1937</ele>
        <time>2026-07-29T11:51:54.716Z</time>
      </trkpt>
      <trkpt lat="45.7477" lon="6.71487">
        <ele>1936</ele>
        <time>2026-07-29T11:51:55.716Z</time>
      </trkpt>
      <trkpt lat="45.7477" lon="6.71485">
        <ele>1936</ele>
        <time>2026-07-29T11:51:56.716Z</time>
      </trkpt>
      <trkpt lat="45.7477" lon="6.71483">
        <ele>1936</ele>
        <time>2026-07-29T11:51:57.716Z</time>
      </trkpt>
      <trkpt lat="45.74771" lon="6.7148">
        <ele>1936</ele>
        <time>2026-07-29T11:51:58.716Z</time>
      </trkpt>
      <trkpt lat="45.74772" lon="6.71479">
        <ele>1936</ele>
        <time>2026-07-29T11:51:59.716Z</time>
      </trkpt>
      <trkpt lat="45.74773" lon="6.71478">
        <ele>1936</ele>
        <time>2026-07-29T11:52:00.716Z</time>
      </trkpt>
      <trkpt lat="45.74775" lon="6.71478">
        <ele>1936</ele>
        <time>2026-07-29T11:52:01.716Z</time>
      </trkpt>
      <trkpt lat="45.74777" lon="6.71477">
        <ele>1936</ele>
        <time>2026-07-29T11:52:02.716Z</time>
      </trkpt>
      <trkpt lat="45.74778" lon="6.71475">
        <ele>1936</ele>
        <time>2026-07-29T11:52:03.716Z</time>
      </trkpt>
      <trkpt lat="45.74779" lon="6.71474">
        <ele>1935</ele>
        <time>2026-07-29T11:52:04.716Z</time>
      </trkpt>
      <trkpt lat="45.7478" lon="6.71472">
        <ele>1935</ele>
        <time>2026-07-29T11:52:05.716Z</time>
      </trkpt>
      <trkpt lat="45.74781" lon="6.7147">
        <ele>1935</ele>
        <time>2026-07-29T11:52:06.716Z</time>
      </trkpt>
      <trkpt lat="45.74782" lon="6.71468">
        <ele>1935</ele>
        <time>2026-07-29T11:52:07.716Z</time>
      </trkpt>
      <trkpt lat="45.74783" lon="6.71467">
        <ele>1935</ele>
        <time>2026-07-29T11:52:08.716Z</time>
      </trkpt>
      <trkpt lat="45.74784" lon="6.71464">
        <ele>1935</ele>
        <time>2026-07-29T11:52:09.716Z</time>
      </trkpt>
      <trkpt lat="45.74785" lon="6.71462">
        <ele>1935</ele>
        <time>2026-07-29T11:52:10.716Z</time>
      </trkpt>
      <trkpt lat="45.74787" lon="6.71461">
        <ele>1935</ele>
        <time>2026-07-29T11:52:11.716Z</time>
      </trkpt>
      <trkpt lat="45.74788" lon="6.71459">
        <ele>1935</ele>
        <time>2026-07-29T11:52:12.716Z</time>
      </trkpt>
      <trkpt lat="45.7479" lon="6.71457">
        <ele>1935</ele>
        <time>2026-07-29T11:52:13.716Z</time>
      </trkpt>
      <trkpt lat="45.74791" lon="6.71456">
        <ele>1935</ele>
        <time>2026-07-29T11:52:14.716Z</time>
      </trkpt>
      <trkpt lat="45.74793" lon="6.71454">
        <ele>1935</ele>
        <time>2026-07-29T11:52:15.716Z</time>
      </trkpt>
      <trkpt lat="45.74794" lon="6.71453">
        <ele>1935</ele>
        <time>2026-07-29T11:52:16.716Z</time>
      </trkpt>
      <trkpt lat="45.74796" lon="6.71452">
        <ele>1934</ele>
        <time>2026-07-29T11:52:17.716Z</time>
      </trkpt>
      <trkpt lat="45.74797" lon="6.71451">
        <ele>1934</ele>
        <time>2026-07-29T11:52:18.716Z</time>
      </trkpt>
      <trkpt lat="45.74799" lon="6.7145">
        <ele>1934</ele>
        <time>2026-07-29T11:52:19.716Z</time>
      </trkpt>
      <trkpt lat="45.748" lon="6.71449">
        <ele>1934</ele>
        <time>2026-07-29T11:52:20.716Z</time>
      </trkpt>
      <trkpt lat="45.74802" lon="6.71448">
        <ele>1933</ele>
        <time>2026-07-29T11:52:21.716Z</time>
      </trkpt>
      <trkpt lat="45.74804" lon="6.71447">
        <ele>1933</ele>
        <time>2026-07-29T11:52:22.716Z</time>
      </trkpt>
      <trkpt lat="45.74806" lon="6.71445">
        <ele>1933</ele>
        <time>2026-07-29T11:52:23.716Z</time>
      </trkpt>
      <trkpt lat="45.74807" lon="6.71444">
        <ele>1933</ele>
        <time>2026-07-29T11:52:24.716Z</time>
      </trkpt>
      <trkpt lat="45.74809" lon="6.71442">
        <ele>1932</ele>
        <time>2026-07-29T11:52:25.716Z</time>
      </trkpt>
      <trkpt lat="45.7481" lon="6.71441">
        <ele>1932</ele>
        <time>2026-07-29T11:52:26.716Z</time>
      </trkpt>
      <trkpt lat="45.74812" lon="6.71439">
        <ele>1932</ele>
        <time>2026-07-29T11:52:27.716Z</time>
      </trkpt>
      <trkpt lat="45.74814" lon="6.71437">
        <ele>1932</ele>
        <time>2026-07-29T11:52:28.716Z</time>
      </trkpt>
      <trkpt lat="45.74816" lon="6.71436">
        <ele>1933</ele>
        <time>2026-07-29T11:52:29.716Z</time>
      </trkpt>
      <trkpt lat="45.74818" lon="6.71435">
        <ele>1932</ele>
        <time>2026-07-29T11:52:30.716Z</time>
      </trkpt>
      <trkpt lat="45.74819" lon="6.71433">
        <ele>1932</ele>
        <time>2026-07-29T11:52:31.716Z</time>
      </trkpt>
      <trkpt lat="45.74821" lon="6.71432">
        <ele>1932</ele>
        <time>2026-07-29T11:52:32.716Z</time>
      </trkpt>
      <trkpt lat="45.74823" lon="6.71431">
        <ele>1931</ele>
        <time>2026-07-29T11:52:33.716Z</time>
      </trkpt>
      <trkpt lat="45.74825" lon="6.7143">
        <ele>1931</ele>
        <time>2026-07-29T11:52:34.716Z</time>
      </trkpt>
      <trkpt lat="45.74827" lon="6.71429">
        <ele>1931</ele>
        <time>2026-07-29T11:52:35.716Z</time>
      </trkpt>
      <trkpt lat="45.74829" lon="6.71428">
        <ele>1931</ele>
        <time>2026-07-29T11:52:36.716Z</time>
      </trkpt>
      <trkpt lat="45.74831" lon="6.71428">
        <ele>1931</ele>
        <time>2026-07-29T11:52:37.716Z</time>
      </trkpt>
      <trkpt lat="45.74833" lon="6.71427">
        <ele>1931</ele>
        <time>2026-07-29T11:52:38.716Z</time>
      </trkpt>
      <trkpt lat="45.74835" lon="6.71427">
        <ele>1931</ele>
        <time>2026-07-29T11:52:39.716Z</time>
      </trkpt>
      <trkpt lat="45.74837" lon="6.71427">
        <ele>1931</ele>
        <time>2026-07-29T11:52:40.716Z</time>
      </trkpt>
      <trkpt lat="45.7484" lon="6.71426">
        <ele>1931</ele>
        <time>2026-07-29T11:52:41.716Z</time>
      </trkpt>
      <trkpt lat="45.74842" lon="6.71426">
        <ele>1931</ele>
        <time>2026-07-29T11:52:42.716Z</time>
      </trkpt>
      <trkpt lat="45.74844" lon="6.71425">
        <ele>1931</ele>
        <time>2026-07-29T11:52:43.716Z</time>
      </trkpt>
      <trkpt lat="45.74846" lon="6.71425">
        <ele>1931</ele>
        <time>2026-07-29T11:52:44.716Z</time>
      </trkpt>
      <trkpt lat="45.74848" lon="6.71424">
        <ele>1931</ele>
        <time>2026-07-29T11:52:45.716Z</time>
      </trkpt>
      <trkpt lat="45.7485" lon="6.71424">
        <ele>1931</ele>
        <time>2026-07-29T11:52:46.716Z</time>
      </trkpt>
      <trkpt lat="45.74852" lon="6.71423">
        <ele>1931</ele>
        <time>2026-07-29T11:52:47.716Z</time>
      </trkpt>
      <trkpt lat="45.74855" lon="6.71422">
        <ele>1930</ele>
        <time>2026-07-29T11:52:48.716Z</time>
      </trkpt>
      <trkpt lat="45.74857" lon="6.71421">
        <ele>1930</ele>
        <time>2026-07-29T11:52:49.716Z</time>
      </trkpt>
      <trkpt lat="45.74859" lon="6.71419">
        <ele>1931</ele>
        <time>2026-07-29T11:52:50.716Z</time>
      </trkpt>
      <trkpt lat="45.7486" lon="6.71417">
        <ele>1931</ele>
        <time>2026-07-29T11:52:51.716Z</time>
      </trkpt>
      <trkpt lat="45.74862" lon="6.71416">
        <ele>1931</ele>
        <time>2026-07-29T11:52:52.716Z</time>
      </trkpt>
      <trkpt lat="45.74864" lon="6.71414">
        <ele>1931</ele>
        <time>2026-07-29T11:52:53.716Z</time>
      </trkpt>
      <trkpt lat="45.74866" lon="6.71412">
        <ele>1931</ele>
        <time>2026-07-29T11:52:54.716Z</time>
      </trkpt>
      <trkpt lat="45.74867" lon="6.71411">
        <ele>1930</ele>
        <time>2026-07-29T11:52:55.716Z</time>
      </trkpt>
      <trkpt lat="45.74869" lon="6.71409">
        <ele>1930</ele>
        <time>2026-07-29T11:52:56.716Z</time>
      </trkpt>
      <trkpt lat="45.74871" lon="6.71407">
        <ele>1930</ele>
        <time>2026-07-29T11:52:57.716Z</time>
      </trkpt>
      <trkpt lat="45.74872" lon="6.71404">
        <ele>1930</ele>
        <time>2026-07-29T11:52:58.716Z</time>
      </trkpt>
      <trkpt lat="45.74874" lon="6.71403">
        <ele>1931</ele>
        <time>2026-07-29T11:52:59.716Z</time>
      </trkpt>
      <trkpt lat="45.74875" lon="6.714">
        <ele>1930</ele>
        <time>2026-07-29T11:53:00.716Z</time>
      </trkpt>
      <trkpt lat="45.74877" lon="6.71398">
        <ele>1930</ele>
        <time>2026-07-29T11:53:01.716Z</time>
      </trkpt>
      <trkpt lat="45.74878" lon="6.71396">
        <ele>1930</ele>
        <time>2026-07-29T11:53:02.716Z</time>
      </trkpt>
      <trkpt lat="45.7488" lon="6.71393">
        <ele>1929</ele>
        <time>2026-07-29T11:53:03.716Z</time>
      </trkpt>
      <trkpt lat="45.74881" lon="6.71391">
        <ele>1929</ele>
        <time>2026-07-29T11:53:04.716Z</time>
      </trkpt>
      <trkpt lat="45.74883" lon="6.71389">
        <ele>1929</ele>
        <time>2026-07-29T11:53:05.716Z</time>
      </trkpt>
      <trkpt lat="45.74884" lon="6.71387">
        <ele>1929</ele>
        <time>2026-07-29T11:53:06.716Z</time>
      </trkpt>
      <trkpt lat="45.74886" lon="6.71384">
        <ele>1929</ele>
        <time>2026-07-29T11:53:07.716Z</time>
      </trkpt>
      <trkpt lat="45.74887" lon="6.71382">
        <ele>1928</ele>
        <time>2026-07-29T11:53:08.716Z</time>
      </trkpt>
      <trkpt lat="45.74889" lon="6.7138">
        <ele>1928</ele>
        <time>2026-07-29T11:53:09.716Z</time>
      </trkpt>
      <trkpt lat="45.7489" lon="6.71378">
        <ele>1928</ele>
        <time>2026-07-29T11:53:10.716Z</time>
      </trkpt>
      <trkpt lat="45.74892" lon="6.71376">
        <ele>1928</ele>
        <time>2026-07-29T11:53:11.716Z</time>
      </trkpt>
      <trkpt lat="45.74893" lon="6.71374">
        <ele>1928</ele>
        <time>2026-07-29T11:53:12.716Z</time>
      </trkpt>
      <trkpt lat="45.74895" lon="6.71372">
        <ele>1928</ele>
        <time>2026-07-29T11:53:13.716Z</time>
      </trkpt>
      <trkpt lat="45.74896" lon="6.71369">
        <ele>1928</ele>
        <time>2026-07-29T11:53:14.716Z</time>
      </trkpt>
      <trkpt lat="45.74897" lon="6.71367">
        <ele>1928</ele>
        <time>2026-07-29T11:53:15.716Z</time>
      </trkpt>
      <trkpt lat="45.74899" lon="6.71364">
        <ele>1928</ele>
        <time>2026-07-29T11:53:16.716Z</time>
      </trkpt>
      <trkpt lat="45.749" lon="6.71362">
        <ele>1928</ele>
        <time>2026-07-29T11:53:17.716Z</time>
      </trkpt>
      <trkpt lat="45.74901" lon="6.7136">
        <ele>1928</ele>
        <time>2026-07-29T11:53:18.716Z</time>
      </trkpt>
      <trkpt lat="45.74903" lon="6.71357">
        <ele>1928</ele>
        <time>2026-07-29T11:53:19.716Z</time>
      </trkpt>
      <trkpt lat="45.74904" lon="6.71355">
        <ele>1928</ele>
        <time>2026-07-29T11:53:20.716Z</time>
      </trkpt>
      <trkpt lat="45.74905" lon="6.71353">
        <ele>1928</ele>
        <time>2026-07-29T11:53:21.716Z</time>
      </trkpt>
      <trkpt lat="45.74907" lon="6.71351">
        <ele>1927</ele>
        <time>2026-07-29T11:53:22.716Z</time>
      </trkpt>
      <trkpt lat="45.74908" lon="6.7135">
        <ele>1927</ele>
        <time>2026-07-29T11:53:23.716Z</time>
      </trkpt>
      <trkpt lat="45.7491" lon="6.71347">
        <ele>1927</ele>
        <time>2026-07-29T11:53:24.716Z</time>
      </trkpt>
      <trkpt lat="45.74911" lon="6.71346">
        <ele>1927</ele>
        <time>2026-07-29T11:53:25.716Z</time>
      </trkpt>
      <trkpt lat="45.74913" lon="6.71344">
        <ele>1927</ele>
        <time>2026-07-29T11:53:26.716Z</time>
      </trkpt>
      <trkpt lat="45.74914" lon="6.71341">
        <ele>1926</ele>
        <time>2026-07-29T11:53:27.716Z</time>
      </trkpt>
      <trkpt lat="45.74915" lon="6.71339">
        <ele>1926</ele>
        <time>2026-07-29T11:53:28.716Z</time>
      </trkpt>
      <trkpt lat="45.74917" lon="6.71338">
        <ele>1926</ele>
        <time>2026-07-29T11:53:29.716Z</time>
      </trkpt>
      <trkpt lat="45.74918" lon="6.71335">
        <ele>1926</ele>
        <time>2026-07-29T11:53:30.716Z</time>
      </trkpt>
      <trkpt lat="45.7492" lon="6.71333">
        <ele>1926</ele>
        <time>2026-07-29T11:53:31.716Z</time>
      </trkpt>
      <trkpt lat="45.74921" lon="6.71331">
        <ele>1926</ele>
        <time>2026-07-29T11:53:32.716Z</time>
      </trkpt>
      <trkpt lat="45.74922" lon="6.7133">
        <ele>1926</ele>
        <time>2026-07-29T11:53:33.716Z</time>
      </trkpt>
      <trkpt lat="45.74923" lon="6.71328">
        <ele>1926</ele>
        <time>2026-07-29T11:53:34.716Z</time>
      </trkpt>
      <trkpt lat="45.74925" lon="6.71326">
        <ele>1926</ele>
        <time>2026-07-29T11:53:35.716Z</time>
      </trkpt>
      <trkpt lat="45.74926" lon="6.71324">
        <ele>1925</ele>
        <time>2026-07-29T11:53:36.716Z</time>
      </trkpt>
      <trkpt lat="45.74928" lon="6.71321">
        <ele>1925</ele>
        <time>2026-07-29T11:53:37.716Z</time>
      </trkpt>
      <trkpt lat="45.74929" lon="6.71319">
        <ele>1926</ele>
        <time>2026-07-29T11:53:38.716Z</time>
      </trkpt>
      <trkpt lat="45.7493" lon="6.71317">
        <ele>1926</ele>
        <time>2026-07-29T11:53:39.716Z</time>
      </trkpt>
      <trkpt lat="45.74931" lon="6.71315">
        <ele>1925</ele>
        <time>2026-07-29T11:53:40.716Z</time>
      </trkpt>
      <trkpt lat="45.74932" lon="6.71312">
        <ele>1925</ele>
        <time>2026-07-29T11:53:41.716Z</time>
      </trkpt>
      <trkpt lat="45.74933" lon="6.7131">
        <ele>1925</ele>
        <time>2026-07-29T11:53:42.716Z</time>
      </trkpt>
      <trkpt lat="45.74934" lon="6.71307">
        <ele>1925</ele>
        <time>2026-07-29T11:53:43.716Z</time>
      </trkpt>
      <trkpt lat="45.74935" lon="6.71305">
        <ele>1925</ele>
        <time>2026-07-29T11:53:44.716Z</time>
      </trkpt>
      <trkpt lat="45.74935" lon="6.71302">
        <ele>1924</ele>
        <time>2026-07-29T11:53:45.716Z</time>
      </trkpt>
      <trkpt lat="45.74936" lon="6.71299">
        <ele>1924</ele>
        <time>2026-07-29T11:53:46.716Z</time>
      </trkpt>
      <trkpt lat="45.74937" lon="6.71296">
        <ele>1924</ele>
        <time>2026-07-29T11:53:47.716Z</time>
      </trkpt>
      <trkpt lat="45.74939" lon="6.71293">
        <ele>1923</ele>
        <time>2026-07-29T11:53:48.716Z</time>
      </trkpt>
      <trkpt lat="45.7494" lon="6.7129">
        <ele>1923</ele>
        <time>2026-07-29T11:53:49.716Z</time>
      </trkpt>
      <trkpt lat="45.74941" lon="6.71288">
        <ele>1923</ele>
        <time>2026-07-29T11:53:50.717Z</time>
      </trkpt>
      <trkpt lat="45.74941" lon="6.71286">
        <ele>1923</ele>
        <time>2026-07-29T11:53:51.716Z</time>
      </trkpt>
      <trkpt lat="45.74943" lon="6.71282">
        <ele>1923</ele>
        <time>2026-07-29T11:53:52.716Z</time>
      </trkpt>
      <trkpt lat="45.74944" lon="6.71279">
        <ele>1923</ele>
        <time>2026-07-29T11:53:53.716Z</time>
      </trkpt>
      <trkpt lat="45.74944" lon="6.71276">
        <ele>1923</ele>
        <time>2026-07-29T11:53:54.716Z</time>
      </trkpt>
      <trkpt lat="45.74945" lon="6.71273">
        <ele>1922</ele>
        <time>2026-07-29T11:53:55.716Z</time>
      </trkpt>
      <trkpt lat="45.74946" lon="6.7127">
        <ele>1922</ele>
        <time>2026-07-29T11:53:56.716Z</time>
      </trkpt>
      <trkpt lat="45.74946" lon="6.71267">
        <ele>1922</ele>
        <time>2026-07-29T11:53:57.716Z</time>
      </trkpt>
      <trkpt lat="45.74947" lon="6.71264">
        <ele>1922</ele>
        <time>2026-07-29T11:53:58.716Z</time>
      </trkpt>
      <trkpt lat="45.74948" lon="6.7126">
        <ele>1921</ele>
        <time>2026-07-29T11:53:59.716Z</time>
      </trkpt>
      <trkpt lat="45.74948" lon="6.71257">
        <ele>1921</ele>
        <time>2026-07-29T11:54:00.716Z</time>
      </trkpt>
      <trkpt lat="45.74949" lon="6.71254">
        <ele>1921</ele>
        <time>2026-07-29T11:54:01.716Z</time>
      </trkpt>
      <trkpt lat="45.7495" lon="6.71252">
        <ele>1921</ele>
        <time>2026-07-29T11:54:02.716Z</time>
      </trkpt>
      <trkpt lat="45.7495" lon="6.71249">
        <ele>1921</ele>
        <time>2026-07-29T11:54:03.716Z</time>
      </trkpt>
      <trkpt lat="45.74951" lon="6.71246">
        <ele>1921</ele>
        <time>2026-07-29T11:54:04.716Z</time>
      </trkpt>
      <trkpt lat="45.74952" lon="6.71244">
        <ele>1921</ele>
        <time>2026-07-29T11:54:05.716Z</time>
      </trkpt>
      <trkpt lat="45.74952" lon="6.71241">
        <ele>1921</ele>
        <time>2026-07-29T11:54:06.716Z</time>
      </trkpt>
      <trkpt lat="45.74953" lon="6.71238">
        <ele>1921</ele>
        <time>2026-07-29T11:54:07.716Z</time>
      </trkpt>
      <trkpt lat="45.74954" lon="6.71236">
        <ele>1920</ele>
        <time>2026-07-29T11:54:08.716Z</time>
      </trkpt>
      <trkpt lat="45.74955" lon="6.71233">
        <ele>1920</ele>
        <time>2026-07-29T11:54:09.716Z</time>
      </trkpt>
      <trkpt lat="45.74957" lon="6.71231">
        <ele>1920</ele>
        <time>2026-07-29T11:54:10.716Z</time>
      </trkpt>
      <trkpt lat="45.74958" lon="6.71229">
        <ele>1920</ele>
        <time>2026-07-29T11:54:11.716Z</time>
      </trkpt>
      <trkpt lat="45.74959" lon="6.71227">
        <ele>1920</ele>
        <time>2026-07-29T11:54:12.716Z</time>
      </trkpt>
      <trkpt lat="45.7496" lon="6.71224">
        <ele>1920</ele>
        <time>2026-07-29T11:54:13.716Z</time>
      </trkpt>
      <trkpt lat="45.74962" lon="6.71222">
        <ele>1920</ele>
        <time>2026-07-29T11:54:14.716Z</time>
      </trkpt>
      <trkpt lat="45.74963" lon="6.7122">
        <ele>1920</ele>
        <time>2026-07-29T11:54:15.716Z</time>
      </trkpt>
      <trkpt lat="45.74965" lon="6.71218">
        <ele>1920</ele>
        <time>2026-07-29T11:54:16.716Z</time>
      </trkpt>
      <trkpt lat="45.74966" lon="6.71216">
        <ele>1920</ele>
        <time>2026-07-29T11:54:17.716Z</time>
      </trkpt>
      <trkpt lat="45.74968" lon="6.71214">
        <ele>1919</ele>
        <time>2026-07-29T11:54:18.716Z</time>
      </trkpt>
      <trkpt lat="45.7497" lon="6.71213">
        <ele>1919</ele>
        <time>2026-07-29T11:54:19.716Z</time>
      </trkpt>
      <trkpt lat="45.74972" lon="6.71211">
        <ele>1919</ele>
        <time>2026-07-29T11:54:20.716Z</time>
      </trkpt>
      <trkpt lat="45.74974" lon="6.7121">
        <ele>1919</ele>
        <time>2026-07-29T11:54:21.716Z</time>
      </trkpt>
      <trkpt lat="45.74976" lon="6.71208">
        <ele>1919</ele>
        <time>2026-07-29T11:54:22.716Z</time>
      </trkpt>
      <trkpt lat="45.74978" lon="6.71207">
        <ele>1919</ele>
        <time>2026-07-29T11:54:23.716Z</time>
      </trkpt>
      <trkpt lat="45.74979" lon="6.71205">
        <ele>1919</ele>
        <time>2026-07-29T11:54:24.716Z</time>
      </trkpt>
      <trkpt lat="45.74981" lon="6.71203">
        <ele>1918</ele>
        <time>2026-07-29T11:54:25.716Z</time>
      </trkpt>
      <trkpt lat="45.74982" lon="6.712">
        <ele>1918</ele>
        <time>2026-07-29T11:54:26.716Z</time>
      </trkpt>
      <trkpt lat="45.74983" lon="6.71198">
        <ele>1918</ele>
        <time>2026-07-29T11:54:27.716Z</time>
      </trkpt>
      <trkpt lat="45.74984" lon="6.71195">
        <ele>1918</ele>
        <time>2026-07-29T11:54:28.716Z</time>
      </trkpt>
      <trkpt lat="45.74985" lon="6.71193">
        <ele>1918</ele>
        <time>2026-07-29T11:54:29.716Z</time>
      </trkpt>
      <trkpt lat="45.74986" lon="6.7119">
        <ele>1918</ele>
        <time>2026-07-29T11:54:30.716Z</time>
      </trkpt>
      <trkpt lat="45.74987" lon="6.71187">
        <ele>1918</ele>
        <time>2026-07-29T11:54:31.716Z</time>
      </trkpt>
      <trkpt lat="45.74988" lon="6.71185">
        <ele>1918</ele>
        <time>2026-07-29T11:54:32.716Z</time>
      </trkpt>
      <trkpt lat="45.74989" lon="6.71182">
        <ele>1918</ele>
        <time>2026-07-29T11:54:33.716Z</time>
      </trkpt>
      <trkpt lat="45.74991" lon="6.7118">
        <ele>1918</ele>
        <time>2026-07-29T11:54:34.716Z</time>
      </trkpt>
      <trkpt lat="45.74992" lon="6.71178">
        <ele>1918</ele>
        <time>2026-07-29T11:54:35.716Z</time>
      </trkpt>
      <trkpt lat="45.74993" lon="6.71176">
        <ele>1918</ele>
        <time>2026-07-29T11:54:36.716Z</time>
      </trkpt>
      <trkpt lat="45.74995" lon="6.71173">
        <ele>1918</ele>
        <time>2026-07-29T11:54:37.716Z</time>
      </trkpt>
      <trkpt lat="45.74996" lon="6.71171">
        <ele>1918</ele>
        <time>2026-07-29T11:54:38.716Z</time>
      </trkpt>
      <trkpt lat="45.74997" lon="6.71168">
        <ele>1918</ele>
        <time>2026-07-29T11:54:39.716Z</time>
      </trkpt>
      <trkpt lat="45.74999" lon="6.71165">
        <ele>1918</ele>
        <time>2026-07-29T11:54:40.716Z</time>
      </trkpt>
      <trkpt lat="45.75" lon="6.71162">
        <ele>1918</ele>
        <time>2026-07-29T11:54:41.716Z</time>
      </trkpt>
      <trkpt lat="45.75002" lon="6.7116">
        <ele>1918</ele>
        <time>2026-07-29T11:54:42.716Z</time>
      </trkpt>
      <trkpt lat="45.75003" lon="6.71157">
        <ele>1918</ele>
        <time>2026-07-29T11:54:43.716Z</time>
      </trkpt>
      <trkpt lat="45.75004" lon="6.71154">
        <ele>1918</ele>
        <time>2026-07-29T11:54:44.716Z</time>
      </trkpt>
      <trkpt lat="45.75005" lon="6.71152">
        <ele>1918</ele>
        <time>2026-07-29T11:54:45.716Z</time>
      </trkpt>
      <trkpt lat="45.75007" lon="6.71149">
        <ele>1918</ele>
        <time>2026-07-29T11:54:46.716Z</time>
      </trkpt>
      <trkpt lat="45.75008" lon="6.71147">
        <ele>1917</ele>
        <time>2026-07-29T11:54:47.716Z</time>
      </trkpt>
      <trkpt lat="45.75009" lon="6.71144">
        <ele>1917</ele>
        <time>2026-07-29T11:54:48.716Z</time>
      </trkpt>
      <trkpt lat="45.7501" lon="6.71141">
        <ele>1917</ele>
        <time>2026-07-29T11:54:49.716Z</time>
      </trkpt>
      <trkpt lat="45.75012" lon="6.71138">
        <ele>1917</ele>
        <time>2026-07-29T11:54:50.716Z</time>
      </trkpt>
      <trkpt lat="45.75013" lon="6.71136">
        <ele>1916</ele>
        <time>2026-07-29T11:54:51.716Z</time>
      </trkpt>
      <trkpt lat="45.75014" lon="6.71133">
        <ele>1916</ele>
        <time>2026-07-29T11:54:52.716Z</time>
      </trkpt>
      <trkpt lat="45.75014" lon="6.7113">
        <ele>1916</ele>
        <time>2026-07-29T11:54:53.716Z</time>
      </trkpt>
      <trkpt lat="45.75015" lon="6.71128">
        <ele>1916</ele>
        <time>2026-07-29T11:54:54.716Z</time>
      </trkpt>
      <trkpt lat="45.75016" lon="6.71125">
        <ele>1916</ele>
        <time>2026-07-29T11:54:55.716Z</time>
      </trkpt>
      <trkpt lat="45.75017" lon="6.71122">
        <ele>1916</ele>
        <time>2026-07-29T11:54:56.716Z</time>
      </trkpt>
      <trkpt lat="45.75017" lon="6.71119">
        <ele>1916</ele>
        <time>2026-07-29T11:54:57.716Z</time>
      </trkpt>
      <trkpt lat="45.75018" lon="6.71115">
        <ele>1916</ele>
        <time>2026-07-29T11:54:58.716Z</time>
      </trkpt>
      <trkpt lat="45.75018" lon="6.71112">
        <ele>1916</ele>
        <time>2026-07-29T11:54:59.716Z</time>
      </trkpt>
      <trkpt lat="45.75019" lon="6.71109">
        <ele>1917</ele>
        <time>2026-07-29T11:55:00.716Z</time>
      </trkpt>
      <trkpt lat="45.75019" lon="6.71106">
        <ele>1917</ele>
        <time>2026-07-29T11:55:01.716Z</time>
      </trkpt>
      <trkpt lat="45.7502" lon="6.71103">
        <ele>1917</ele>
        <time>2026-07-29T11:55:02.716Z</time>
      </trkpt>
      <trkpt lat="45.75021" lon="6.711">
        <ele>1917</ele>
        <time>2026-07-29T11:55:03.716Z</time>
      </trkpt>
      <trkpt lat="45.75021" lon="6.71097">
        <ele>1917</ele>
        <time>2026-07-29T11:55:04.716Z</time>
      </trkpt>
      <trkpt lat="45.75021" lon="6.71094">
        <ele>1918</ele>
        <time>2026-07-29T11:55:05.716Z</time>
      </trkpt>
      <trkpt lat="45.75022" lon="6.71091">
        <ele>1917</ele>
        <time>2026-07-29T11:55:06.716Z</time>
      </trkpt>
      <trkpt lat="45.75022" lon="6.71088">
        <ele>1917</ele>
        <time>2026-07-29T11:55:07.716Z</time>
      </trkpt>
      <trkpt lat="45.75023" lon="6.71086">
        <ele>1917</ele>
        <time>2026-07-29T11:55:08.716Z</time>
      </trkpt>
      <trkpt lat="45.75025" lon="6.71084">
        <ele>1917</ele>
        <time>2026-07-29T11:55:09.716Z</time>
      </trkpt>
      <trkpt lat="45.75026" lon="6.71083">
        <ele>1917</ele>
        <time>2026-07-29T11:55:10.716Z</time>
      </trkpt>
      <trkpt lat="45.75027" lon="6.71081">
        <ele>1917</ele>
        <time>2026-07-29T11:55:11.716Z</time>
      </trkpt>
      <trkpt lat="45.75029" lon="6.7108">
        <ele>1918</ele>
        <time>2026-07-29T11:55:12.716Z</time>
      </trkpt>
      <trkpt lat="45.75031" lon="6.71078">
        <ele>1918</ele>
        <time>2026-07-29T11:55:13.716Z</time>
      </trkpt>
      <trkpt lat="45.75032" lon="6.71076">
        <ele>1918</ele>
        <time>2026-07-29T11:55:14.716Z</time>
      </trkpt>
      <trkpt lat="45.75034" lon="6.71074">
        <ele>1918</ele>
        <time>2026-07-29T11:55:15.716Z</time>
      </trkpt>
      <trkpt lat="45.75035" lon="6.71072">
        <ele>1918</ele>
        <time>2026-07-29T11:55:16.716Z</time>
      </trkpt>
      <trkpt lat="45.75036" lon="6.71069">
        <ele>1918</ele>
        <time>2026-07-29T11:55:17.716Z</time>
      </trkpt>
      <trkpt lat="45.75037" lon="6.71066">
        <ele>1918</ele>
        <time>2026-07-29T11:55:18.716Z</time>
      </trkpt>
      <trkpt lat="45.75039" lon="6.71063">
        <ele>1918</ele>
        <time>2026-07-29T11:55:19.716Z</time>
      </trkpt>
      <trkpt lat="45.7504" lon="6.7106">
        <ele>1917</ele>
        <time>2026-07-29T11:55:20.716Z</time>
      </trkpt>
      <trkpt lat="45.75041" lon="6.71058">
        <ele>1917</ele>
        <time>2026-07-29T11:55:21.716Z</time>
      </trkpt>
      <trkpt lat="45.75042" lon="6.71055">
        <ele>1917</ele>
        <time>2026-07-29T11:55:22.716Z</time>
      </trkpt>
      <trkpt lat="45.75044" lon="6.71053">
        <ele>1916</ele>
        <time>2026-07-29T11:55:23.716Z</time>
      </trkpt>
      <trkpt lat="45.75045" lon="6.71051">
        <ele>1916</ele>
        <time>2026-07-29T11:55:24.716Z</time>
      </trkpt>
      <trkpt lat="45.75047" lon="6.71049">
        <ele>1916</ele>
        <time>2026-07-29T11:55:25.716Z</time>
      </trkpt>
      <trkpt lat="45.75048" lon="6.71047">
        <ele>1915</ele>
        <time>2026-07-29T11:55:26.716Z</time>
      </trkpt>
      <trkpt lat="45.7505" lon="6.71044">
        <ele>1915</ele>
        <time>2026-07-29T11:55:27.716Z</time>
      </trkpt>
      <trkpt lat="45.75052" lon="6.71042">
        <ele>1915</ele>
        <time>2026-07-29T11:55:28.716Z</time>
      </trkpt>
      <trkpt lat="45.75053" lon="6.71041">
        <ele>1915</ele>
        <time>2026-07-29T11:55:29.716Z</time>
      </trkpt>
      <trkpt lat="45.75055" lon="6.7104">
        <ele>1915</ele>
        <time>2026-07-29T11:55:30.716Z</time>
      </trkpt>
      <trkpt lat="45.75057" lon="6.71039">
        <ele>1915</ele>
        <time>2026-07-29T11:55:31.716Z</time>
      </trkpt>
      <trkpt lat="45.75059" lon="6.71037">
        <ele>1914</ele>
        <time>2026-07-29T11:55:32.716Z</time>
      </trkpt>
      <trkpt lat="45.75061" lon="6.71036">
        <ele>1914</ele>
        <time>2026-07-29T11:55:33.716Z</time>
      </trkpt>
      <trkpt lat="45.75063" lon="6.71034">
        <ele>1914</ele>
        <time>2026-07-29T11:55:34.716Z</time>
      </trkpt>
      <trkpt lat="45.75065" lon="6.71033">
        <ele>1914</ele>
        <time>2026-07-29T11:55:35.716Z</time>
      </trkpt>
      <trkpt lat="45.75067" lon="6.71032">
        <ele>1914</ele>
        <time>2026-07-29T11:55:36.716Z</time>
      </trkpt>
      <trkpt lat="45.75069" lon="6.71031">
        <ele>1914</ele>
        <time>2026-07-29T11:55:37.716Z</time>
      </trkpt>
      <trkpt lat="45.75071" lon="6.71031">
        <ele>1914</ele>
        <time>2026-07-29T11:55:38.716Z</time>
      </trkpt>
      <trkpt lat="45.75073" lon="6.7103">
        <ele>1914</ele>
        <time>2026-07-29T11:55:39.716Z</time>
      </trkpt>
      <trkpt lat="45.75075" lon="6.7103">
        <ele>1914</ele>
        <time>2026-07-29T11:55:40.716Z</time>
      </trkpt>
      <trkpt lat="45.75078" lon="6.71029">
        <ele>1914</ele>
        <time>2026-07-29T11:55:41.716Z</time>
      </trkpt>
      <trkpt lat="45.7508" lon="6.71029">
        <ele>1914</ele>
        <time>2026-07-29T11:55:42.716Z</time>
      </trkpt>
      <trkpt lat="45.75082" lon="6.71028">
        <ele>1914</ele>
        <time>2026-07-29T11:55:43.716Z</time>
      </trkpt>
      <trkpt lat="45.75084" lon="6.71027">
        <ele>1914</ele>
        <time>2026-07-29T11:55:44.716Z</time>
      </trkpt>
      <trkpt lat="45.75086" lon="6.71026">
        <ele>1914</ele>
        <time>2026-07-29T11:55:45.716Z</time>
      </trkpt>
      <trkpt lat="45.75088" lon="6.71026">
        <ele>1914</ele>
        <time>2026-07-29T11:55:46.716Z</time>
      </trkpt>
      <trkpt lat="45.7509" lon="6.71025">
        <ele>1913</ele>
        <time>2026-07-29T11:55:47.716Z</time>
      </trkpt>
      <trkpt lat="45.75091" lon="6.71024">
        <ele>1913</ele>
        <time>2026-07-29T11:55:48.716Z</time>
      </trkpt>
      <trkpt lat="45.75093" lon="6.71022">
        <ele>1912</ele>
        <time>2026-07-29T11:55:49.716Z</time>
      </trkpt>
      <trkpt lat="45.75094" lon="6.71021">
        <ele>1912</ele>
        <time>2026-07-29T11:55:50.716Z</time>
      </trkpt>
      <trkpt lat="45.75096" lon="6.71019">
        <ele>1912</ele>
        <time>2026-07-29T11:55:51.716Z</time>
      </trkpt>
      <trkpt lat="45.75097" lon="6.71018">
        <ele>1912</ele>
        <time>2026-07-29T11:55:52.716Z</time>
      </trkpt>
      <trkpt lat="45.75099" lon="6.71016">
        <ele>1912</ele>
        <time>2026-07-29T11:55:53.716Z</time>
      </trkpt>
      <trkpt lat="45.751" lon="6.71015">
        <ele>1913</ele>
        <time>2026-07-29T11:55:54.716Z</time>
      </trkpt>
      <trkpt lat="45.75102" lon="6.71014">
        <ele>1913</ele>
        <time>2026-07-29T11:55:55.716Z</time>
      </trkpt>
      <trkpt lat="45.75103" lon="6.71012">
        <ele>1913</ele>
        <time>2026-07-29T11:55:56.716Z</time>
      </trkpt>
      <trkpt lat="45.75105" lon="6.71011">
        <ele>1914</ele>
        <time>2026-07-29T11:55:57.716Z</time>
      </trkpt>
      <trkpt lat="45.75107" lon="6.71009">
        <ele>1914</ele>
        <time>2026-07-29T11:55:58.716Z</time>
      </trkpt>
      <trkpt lat="45.75109" lon="6.71008">
        <ele>1915</ele>
        <time>2026-07-29T11:55:59.716Z</time>
      </trkpt>
      <trkpt lat="45.7511" lon="6.71006">
        <ele>1915</ele>
        <time>2026-07-29T11:56:00.716Z</time>
      </trkpt>
      <trkpt lat="45.75111" lon="6.71004">
        <ele>1915</ele>
        <time>2026-07-29T11:56:01.716Z</time>
      </trkpt>
      <trkpt lat="45.75112" lon="6.71003">
        <ele>1915</ele>
        <time>2026-07-29T11:56:02.716Z</time>
      </trkpt>
      <trkpt lat="45.75113" lon="6.71001">
        <ele>1915</ele>
        <time>2026-07-29T11:56:03.716Z</time>
      </trkpt>
      <trkpt lat="45.75115" lon="6.71">
        <ele>1915</ele>
        <time>2026-07-29T11:56:04.716Z</time>
      </trkpt>
      <trkpt lat="45.75116" lon="6.70998">
        <ele>1915</ele>
        <time>2026-07-29T11:56:05.716Z</time>
      </trkpt>
      <trkpt lat="45.75117" lon="6.70997">
        <ele>1916</ele>
        <time>2026-07-29T11:56:06.716Z</time>
      </trkpt>
      <trkpt lat="45.75118" lon="6.70996">
        <ele>1916</ele>
        <time>2026-07-29T11:56:07.716Z</time>
      </trkpt>
      <trkpt lat="45.75119" lon="6.70995">
        <ele>1917</ele>
        <time>2026-07-29T11:56:08.716Z</time>
      </trkpt>
      <trkpt lat="45.7512" lon="6.70995">
        <ele>1917</ele>
        <time>2026-07-29T11:56:09.716Z</time>
      </trkpt>
      <trkpt lat="45.75121" lon="6.70994">
        <ele>1917</ele>
        <time>2026-07-29T11:56:10.716Z</time>
      </trkpt>
      <trkpt lat="45.75122" lon="6.70993">
        <ele>1917</ele>
        <time>2026-07-29T11:56:11.716Z</time>
      </trkpt>
      <trkpt lat="45.75122" lon="6.70992">
        <ele>1917</ele>
        <time>2026-07-29T11:56:12.716Z</time>
      </trkpt>
      <trkpt lat="45.75123" lon="6.70991">
        <ele>1916</ele>
        <time>2026-07-29T11:56:13.716Z</time>
      </trkpt>
      <trkpt lat="45.75124" lon="6.70989">
        <ele>1916</ele>
        <time>2026-07-29T11:56:14.716Z</time>
      </trkpt>
      <trkpt lat="45.75125" lon="6.70988">
        <ele>1916</ele>
        <time>2026-07-29T11:56:15.716Z</time>
      </trkpt>
      <trkpt lat="45.75125" lon="6.70987">
        <ele>1916</ele>
        <time>2026-07-29T11:56:16.716Z</time>
      </trkpt>
      <trkpt lat="45.75126" lon="6.70987">
        <ele>1915</ele>
        <time>2026-07-29T11:56:17.716Z</time>
      </trkpt>
      <trkpt lat="45.75126" lon="6.70986">
        <ele>1915</ele>
        <time>2026-07-29T11:56:18.716Z</time>
      </trkpt>
      <trkpt lat="45.75126" lon="6.70986">
        <ele>1915</ele>
        <time>2026-07-29T11:56:19.716Z</time>
      </trkpt>
      <trkpt lat="45.75126" lon="6.70985">
        <ele>1915</ele>
        <time>2026-07-29T11:56:20.716Z</time>
      </trkpt>
      <trkpt lat="45.75126" lon="6.70985">
        <ele>1915</ele>
        <time>2026-07-29T11:56:21.716Z</time>
      </trkpt>
      <trkpt lat="45.75126" lon="6.70985">
        <ele>1916</ele>
        <time>2026-07-29T11:56:22.716Z</time>
      </trkpt>
      <trkpt lat="45.75125" lon="6.70985">
        <ele>1916</ele>
        <time>2026-07-29T11:56:23.716Z</time>
      </trkpt>
      <trkpt lat="45.75125" lon="6.70985">
        <ele>1916</ele>
        <time>2026-07-29T11:56:24.716Z</time>
      </trkpt>
      <trkpt lat="45.75125" lon="6.70985">
        <ele>1916</ele>
        <time>2026-07-29T11:56:25.716Z</time>
      </trkpt>
      <trkpt lat="45.75125" lon="6.70985">
        <ele>1916</ele>
        <time>2026-07-29T11:56:26.716Z</time>
      </trkpt>
      <trkpt lat="45.75126" lon="6.70985">
        <ele>1916</ele>
        <time>2026-07-29T11:56:27.716Z</time>
      </trkpt>
      <trkpt lat="45.75126" lon="6.70984">
        <ele>1916</ele>
        <time>2026-07-29T11:56:28.716Z</time>
      </trkpt>
      <trkpt lat="45.75127" lon="6.70984">
        <ele>1916</ele>
        <time>2026-07-29T11:56:29.716Z</time>
      </trkpt>
      <trkpt lat="45.75127" lon="6.70984">
        <ele>1916</ele>
        <time>2026-07-29T11:56:30.716Z</time>
      </trkpt>
      <trkpt lat="45.75128" lon="6.70983">
        <ele>1916</ele>
        <time>2026-07-29T11:56:31.716Z</time>
      </trkpt>
      <trkpt lat="45.75129" lon="6.70982">
        <ele>1916</ele>
        <time>2026-07-29T11:56:32.716Z</time>
      </trkpt>
      <trkpt lat="45.75129" lon="6.70982">
        <ele>1916</ele>
        <time>2026-07-29T11:56:33.716Z</time>
      </trkpt>
      <trkpt lat="45.75129" lon="6.70981">
        <ele>1916</ele>
        <time>2026-07-29T11:56:34.716Z</time>
      </trkpt>
      <trkpt lat="45.75129" lon="6.70981">
        <ele>1916</ele>
        <time>2026-07-29T11:56:35.716Z</time>
      </trkpt>
      <trkpt lat="45.7513" lon="6.7098">
        <ele>1915</ele>
        <time>2026-07-29T11:56:36.716Z</time>
      </trkpt>
      <trkpt lat="45.7513" lon="6.7098">
        <ele>1915</ele>
        <time>2026-07-29T11:56:37.716Z</time>
      </trkpt>
      <trkpt lat="45.7513" lon="6.7098">
        <ele>1915</ele>
        <time>2026-07-29T11:56:38.716Z</time>
      </trkpt>
      <trkpt lat="45.75129" lon="6.7098">
        <ele>1915</ele>
        <time>2026-07-29T11:56:39.716Z</time>
      </trkpt>
      <trkpt lat="45.75129" lon="6.70979">
        <ele>1914</ele>
        <time>2026-07-29T11:56:40.716Z</time>
      </trkpt>
      <trkpt lat="45.75128" lon="6.70978">
        <ele>1914</ele>
        <time>2026-07-29T11:56:41.716Z</time>
      </trkpt>
      <trkpt lat="45.75128" lon="6.70976">
        <ele>1913</ele>
        <time>2026-07-29T11:56:42.716Z</time>
      </trkpt>
      <trkpt lat="45.75128" lon="6.70973">
        <ele>1913</ele>
        <time>2026-07-29T11:56:43.716Z</time>
      </trkpt>
      <trkpt lat="45.75127" lon="6.70971">
        <ele>1913</ele>
        <time>2026-07-29T11:56:44.716Z</time>
      </trkpt>
      <trkpt lat="45.75127" lon="6.70968">
        <ele>1912</ele>
        <time>2026-07-29T11:56:45.716Z</time>
      </trkpt>
      <trkpt lat="45.75127" lon="6.70964">
        <ele>1912</ele>
        <time>2026-07-29T11:56:46.716Z</time>
      </trkpt>
      <trkpt lat="45.75127" lon="6.70961">
        <ele>1913</ele>
        <time>2026-07-29T11:56:47.716Z</time>
      </trkpt>
      <trkpt lat="45.75127" lon="6.70958">
        <ele>1913</ele>
        <time>2026-07-29T11:56:48.716Z</time>
      </trkpt>
      <trkpt lat="45.75128" lon="6.70954">
        <ele>1913</ele>
        <time>2026-07-29T11:56:49.716Z</time>
      </trkpt>
      <trkpt lat="45.75129" lon="6.70951">
        <ele>1913</ele>
        <time>2026-07-29T11:56:50.716Z</time>
      </trkpt>
      <trkpt lat="45.75129" lon="6.70948">
        <ele>1913</ele>
        <time>2026-07-29T11:56:51.716Z</time>
      </trkpt>
      <trkpt lat="45.7513" lon="6.70945">
        <ele>1913</ele>
        <time>2026-07-29T11:56:52.716Z</time>
      </trkpt>
      <trkpt lat="45.75131" lon="6.70942">
        <ele>1912</ele>
        <time>2026-07-29T11:56:53.716Z</time>
      </trkpt>
      <trkpt lat="45.75133" lon="6.7094">
        <ele>1912</ele>
        <time>2026-07-29T11:56:54.716Z</time>
      </trkpt>
      <trkpt lat="45.75134" lon="6.70938">
        <ele>1912</ele>
        <time>2026-07-29T11:56:55.716Z</time>
      </trkpt>
      <trkpt lat="45.75136" lon="6.70936">
        <ele>1912</ele>
        <time>2026-07-29T11:56:56.716Z</time>
      </trkpt>
      <trkpt lat="45.75138" lon="6.70934">
        <ele>1912</ele>
        <time>2026-07-29T11:56:57.717Z</time>
      </trkpt>
      <trkpt lat="45.7514" lon="6.70932">
        <ele>1912</ele>
        <time>2026-07-29T11:56:58.716Z</time>
      </trkpt>
      <trkpt lat="45.75142" lon="6.7093">
        <ele>1911</ele>
        <time>2026-07-29T11:56:59.716Z</time>
      </trkpt>
      <trkpt lat="45.75144" lon="6.70928">
        <ele>1911</ele>
        <time>2026-07-29T11:57:00.716Z</time>
      </trkpt>
      <trkpt lat="45.75146" lon="6.70926">
        <ele>1911</ele>
        <time>2026-07-29T11:57:01.716Z</time>
      </trkpt>
      <trkpt lat="45.75147" lon="6.70925">
        <ele>1911</ele>
        <time>2026-07-29T11:57:02.716Z</time>
      </trkpt>
      <trkpt lat="45.75149" lon="6.70923">
        <ele>1911</ele>
        <time>2026-07-29T11:57:03.716Z</time>
      </trkpt>
      <trkpt lat="45.75151" lon="6.70922">
        <ele>1911</ele>
        <time>2026-07-29T11:57:04.716Z</time>
      </trkpt>
      <trkpt lat="45.75152" lon="6.7092">
        <ele>1911</ele>
        <time>2026-07-29T11:57:05.716Z</time>
      </trkpt>
      <trkpt lat="45.75154" lon="6.70918">
        <ele>1911</ele>
        <time>2026-07-29T11:57:06.716Z</time>
      </trkpt>
      <trkpt lat="45.75156" lon="6.70916">
        <ele>1910</ele>
        <time>2026-07-29T11:57:07.716Z</time>
      </trkpt>
      <trkpt lat="45.75157" lon="6.70914">
        <ele>1910</ele>
        <time>2026-07-29T11:57:08.716Z</time>
      </trkpt>
      <trkpt lat="45.75159" lon="6.70912">
        <ele>1909</ele>
        <time>2026-07-29T11:57:09.716Z</time>
      </trkpt>
      <trkpt lat="45.75161" lon="6.7091">
        <ele>1908</ele>
        <time>2026-07-29T11:57:10.716Z</time>
      </trkpt>
      <trkpt lat="45.75162" lon="6.70909">
        <ele>1907</ele>
        <time>2026-07-29T11:57:11.716Z</time>
      </trkpt>
      <trkpt lat="45.75164" lon="6.70907">
        <ele>1907</ele>
        <time>2026-07-29T11:57:12.716Z</time>
      </trkpt>
      <trkpt lat="45.75166" lon="6.70905">
        <ele>1907</ele>
        <time>2026-07-29T11:57:13.716Z</time>
      </trkpt>
      <trkpt lat="45.75167" lon="6.70904">
        <ele>1906</ele>
        <time>2026-07-29T11:57:14.716Z</time>
      </trkpt>
      <trkpt lat="45.75169" lon="6.70902">
        <ele>1906</ele>
        <time>2026-07-29T11:57:15.716Z</time>
      </trkpt>
      <trkpt lat="45.75171" lon="6.70901">
        <ele>1905</ele>
        <time>2026-07-29T11:57:16.716Z</time>
      </trkpt>
      <trkpt lat="45.75173" lon="6.70899">
        <ele>1905</ele>
        <time>2026-07-29T11:57:17.716Z</time>
      </trkpt>
      <trkpt lat="45.75175" lon="6.70898">
        <ele>1905</ele>
        <time>2026-07-29T11:57:18.716Z</time>
      </trkpt>
      <trkpt lat="45.75177" lon="6.70896">
        <ele>1904</ele>
        <time>2026-07-29T11:57:19.716Z</time>
      </trkpt>
      <trkpt lat="45.75179" lon="6.70894">
        <ele>1904</ele>
        <time>2026-07-29T11:57:20.716Z</time>
      </trkpt>
      <trkpt lat="45.75181" lon="6.70893">
        <ele>1904</ele>
        <time>2026-07-29T11:57:21.716Z</time>
      </trkpt>
      <trkpt lat="45.75183" lon="6.70891">
        <ele>1904</ele>
        <time>2026-07-29T11:57:22.716Z</time>
      </trkpt>
      <trkpt lat="45.75185" lon="6.7089">
        <ele>1903</ele>
        <time>2026-07-29T11:57:23.716Z</time>
      </trkpt>
      <trkpt lat="45.75186" lon="6.70888">
        <ele>1903</ele>
        <time>2026-07-29T11:57:24.716Z</time>
      </trkpt>
      <trkpt lat="45.75188" lon="6.70887">
        <ele>1903</ele>
        <time>2026-07-29T11:57:25.716Z</time>
      </trkpt>
      <trkpt lat="45.7519" lon="6.70885">
        <ele>1903</ele>
        <time>2026-07-29T11:57:26.716Z</time>
      </trkpt>
      <trkpt lat="45.75191" lon="6.70884">
        <ele>1902</ele>
        <time>2026-07-29T11:57:27.716Z</time>
      </trkpt>
      <trkpt lat="45.75193" lon="6.70882">
        <ele>1902</ele>
        <time>2026-07-29T11:57:28.716Z</time>
      </trkpt>
      <trkpt lat="45.75194" lon="6.70881">
        <ele>1901</ele>
        <time>2026-07-29T11:57:29.716Z</time>
      </trkpt>
      <trkpt lat="45.75195" lon="6.7088">
        <ele>1901</ele>
        <time>2026-07-29T11:57:30.716Z</time>
      </trkpt>
      <trkpt lat="45.75197" lon="6.70878">
        <ele>1901</ele>
        <time>2026-07-29T11:57:31.716Z</time>
      </trkpt>
      <trkpt lat="45.75198" lon="6.70877">
        <ele>1901</ele>
        <time>2026-07-29T11:57:32.716Z</time>
      </trkpt>
      <trkpt lat="45.75199" lon="6.70875">
        <ele>1900</ele>
        <time>2026-07-29T11:57:33.716Z</time>
      </trkpt>
      <trkpt lat="45.752" lon="6.70874">
        <ele>1899</ele>
        <time>2026-07-29T11:57:34.716Z</time>
      </trkpt>
      <trkpt lat="45.75201" lon="6.70873">
        <ele>1899</ele>
        <time>2026-07-29T11:57:35.716Z</time>
      </trkpt>
      <trkpt lat="45.75202" lon="6.70871">
        <ele>1898</ele>
        <time>2026-07-29T11:57:36.716Z</time>
      </trkpt>
      <trkpt lat="45.75203" lon="6.7087">
        <ele>1898</ele>
        <time>2026-07-29T11:57:37.716Z</time>
      </trkpt>
      <trkpt lat="45.75204" lon="6.70868">
        <ele>1898</ele>
        <time>2026-07-29T11:57:38.716Z</time>
      </trkpt>
      <trkpt lat="45.75206" lon="6.70867">
        <ele>1897</ele>
        <time>2026-07-29T11:57:39.716Z</time>
      </trkpt>
      <trkpt lat="45.75207" lon="6.70866">
        <ele>1897</ele>
        <time>2026-07-29T11:57:40.716Z</time>
      </trkpt>
      <trkpt lat="45.75208" lon="6.70865">
        <ele>1896</ele>
        <time>2026-07-29T11:57:41.716Z</time>
      </trkpt>
      <trkpt lat="45.75209" lon="6.70864">
        <ele>1896</ele>
        <time>2026-07-29T11:57:42.716Z</time>
      </trkpt>
      <trkpt lat="45.7521" lon="6.70863">
        <ele>1895</ele>
        <time>2026-07-29T11:57:43.716Z</time>
      </trkpt>
      <trkpt lat="45.7521" lon="6.70861">
        <ele>1894</ele>
        <time>2026-07-29T11:57:44.716Z</time>
      </trkpt>
      <trkpt lat="45.75211" lon="6.7086">
        <ele>1894</ele>
        <time>2026-07-29T11:57:45.716Z</time>
      </trkpt>
      <trkpt lat="45.75211" lon="6.70858">
        <ele>1893</ele>
        <time>2026-07-29T11:57:46.716Z</time>
      </trkpt>
      <trkpt lat="45.75211" lon="6.70856">
        <ele>1892</ele>
        <time>2026-07-29T11:57:47.716Z</time>
      </trkpt>
      <trkpt lat="45.75211" lon="6.70855">
        <ele>1892</ele>
        <time>2026-07-29T11:57:48.716Z</time>
      </trkpt>
      <trkpt lat="45.75211" lon="6.70853">
        <ele>1891</ele>
        <time>2026-07-29T11:57:49.716Z</time>
      </trkpt>
      <trkpt lat="45.75212" lon="6.70852">
        <ele>1891</ele>
        <time>2026-07-29T11:57:50.716Z</time>
      </trkpt>
      <trkpt lat="45.75212" lon="6.7085">
        <ele>1891</ele>
        <time>2026-07-29T11:57:51.716Z</time>
      </trkpt>
      <trkpt lat="45.75212" lon="6.70849">
        <ele>1891</ele>
        <time>2026-07-29T11:57:52.716Z</time>
      </trkpt>
      <trkpt lat="45.75213" lon="6.70848">
        <ele>1891</ele>
        <time>2026-07-29T11:57:53.716Z</time>
      </trkpt>
      <trkpt lat="45.75213" lon="6.70848">
        <ele>1891</ele>
        <time>2026-07-29T11:57:54.716Z</time>
      </trkpt>
      <trkpt lat="45.75214" lon="6.70847">
        <ele>1891</ele>
        <time>2026-07-29T11:57:55.716Z</time>
      </trkpt>
      <trkpt lat="45.75215" lon="6.70847">
        <ele>1891</ele>
        <time>2026-07-29T11:57:56.716Z</time>
      </trkpt>
      <trkpt lat="45.75215" lon="6.70847">
        <ele>1891</ele>
        <time>2026-07-29T11:57:57.716Z</time>
      </trkpt>
      <trkpt lat="45.75216" lon="6.70847">
        <ele>1891</ele>
        <time>2026-07-29T11:57:58.716Z</time>
      </trkpt>
      <trkpt lat="45.75216" lon="6.70847">
        <ele>1891</ele>
        <time>2026-07-29T11:57:59.716Z</time>
      </trkpt>
      <trkpt lat="45.75216" lon="6.70847">
        <ele>1890</ele>
        <time>2026-07-29T11:58:00.716Z</time>
      </trkpt>
      <trkpt lat="45.75216" lon="6.70847">
        <ele>1890</ele>
        <time>2026-07-29T11:58:01.716Z</time>
      </trkpt>
      <trkpt lat="45.75217" lon="6.70847">
        <ele>1890</ele>
        <time>2026-07-29T11:58:02.716Z</time>
      </trkpt>
      <trkpt lat="45.75217" lon="6.70847">
        <ele>1890</ele>
        <time>2026-07-29T11:58:03.716Z</time>
      </trkpt>
      <trkpt lat="45.75218" lon="6.70848">
        <ele>1891</ele>
        <time>2026-07-29T11:58:04.716Z</time>
      </trkpt>
      <trkpt lat="45.75218" lon="6.70848">
        <ele>1891</ele>
        <time>2026-07-29T11:58:05.716Z</time>
      </trkpt>
      <trkpt lat="45.75218" lon="6.70848">
        <ele>1891</ele>
        <time>2026-07-29T11:58:06.716Z</time>
      </trkpt>
      <trkpt lat="45.75218" lon="6.70848">
        <ele>1891</ele>
        <time>2026-07-29T11:58:07.716Z</time>
      </trkpt>
      <trkpt lat="45.75218" lon="6.70848">
        <ele>1891</ele>
        <time>2026-07-29T11:58:08.716Z</time>
      </trkpt>
      <trkpt lat="45.75218" lon="6.70848">
        <ele>1891</ele>
        <time>2026-07-29T11:58:09.716Z</time>
      </trkpt>
      <trkpt lat="45.75218" lon="6.70848">
        <ele>1891</ele>
        <time>2026-07-29T11:58:10.716Z</time>
      </trkpt>
      <trkpt lat="45.75218" lon="6.70848">
        <ele>1891</ele>
        <time>2026-07-29T11:58:11.716Z</time>
      </trkpt>
      <trkpt lat="45.75218" lon="6.70848">
        <ele>1891</ele>
        <time>2026-07-29T11:58:12.716Z</time>
      </trkpt>
      <trkpt lat="45.75218" lon="6.70848">
        <ele>1891</ele>
        <time>2026-07-29T11:58:13.716Z</time>
      </trkpt>
      <trkpt lat="45.75218" lon="6.70848">
        <ele>1890</ele>
        <time>2026-07-29T11:58:14.716Z</time>
      </trkpt>
      <trkpt lat="45.75218" lon="6.70848">
        <ele>1890</ele>
        <time>2026-07-29T11:58:15.716Z</time>
      </trkpt>
      <trkpt lat="45.75218" lon="6.70848">
        <ele>1890</ele>
        <time>2026-07-29T11:58:16.716Z</time>
      </trkpt>
      <trkpt lat="45.75218" lon="6.70848">
        <ele>1890</ele>
        <time>2026-07-29T11:58:17.716Z</time>
      </trkpt>
      <trkpt lat="45.75218" lon="6.70848">
        <ele>1889</ele>
        <time>2026-07-29T11:58:18.716Z</time>
      </trkpt>
      <trkpt lat="45.75218" lon="6.70848">
        <ele>1889</ele>
        <time>2026-07-29T11:58:19.716Z</time>
      </trkpt>
      <trkpt lat="45.75218" lon="6.70848">
        <ele>1889</ele>
        <time>2026-07-29T11:58:20.716Z</time>
      </trkpt>
      <trkpt lat="45.75218" lon="6.70848">
        <ele>1889</ele>
        <time>2026-07-29T11:58:21.716Z</time>
      </trkpt>
      <trkpt lat="45.75218" lon="6.70848">
        <ele>1889</ele>
        <time>2026-07-29T11:58:22.716Z</time>
      </trkpt>
      <trkpt lat="45.75218" lon="6.70848">
        <ele>1889</ele>
        <time>2026-07-29T11:58:23.716Z</time>
      </trkpt>
      <trkpt lat="45.75218" lon="6.70848">
        <ele>1889</ele>
        <time>2026-07-29T11:58:24.716Z</time>
      </trkpt>
      <trkpt lat="45.75218" lon="6.70848">
        <ele>1889</ele>
        <time>2026-07-29T11:58:25.716Z</time>
      </trkpt>
      <trkpt lat="45.75218" lon="6.70848">
        <ele>1889</ele>
        <time>2026-07-29T11:58:26.716Z</time>
      </trkpt>
      <trkpt lat="45.75218" lon="6.70848">
        <ele>1889</ele>
        <time>2026-07-29T11:58:27.716Z</time>
      </trkpt>
      <trkpt lat="45.75218" lon="6.70848">
        <ele>1889</ele>
        <time>2026-07-29T11:58:28.716Z</time>
      </trkpt>
      <trkpt lat="45.75217" lon="6.70848">
        <ele>1889</ele>
        <time>2026-07-29T11:58:29.716Z</time>
      </trkpt>
      <trkpt lat="45.75217" lon="6.70848">
        <ele>1889</ele>
        <time>2026-07-29T11:58:30.716Z</time>
      </trkpt>
      <trkpt lat="45.75217" lon="6.70848">
        <ele>1889</ele>
        <time>2026-07-29T11:58:31.716Z</time>
      </trkpt>
      <trkpt lat="45.75217" lon="6.70848">
        <ele>1889</ele>
        <time>2026-07-29T11:58:32.716Z</time>
      </trkpt>
      <trkpt lat="45.75217" lon="6.70848">
        <ele>1889</ele>
        <time>2026-07-29T11:58:33.716Z</time>
      </trkpt>
      <trkpt lat="45.75217" lon="6.70848">
        <ele>1889</ele>
        <time>2026-07-29T11:58:34.716Z</time>
      </trkpt>
      <trkpt lat="45.75217" lon="6.70848">
        <ele>1889</ele>
        <time>2026-07-29T11:58:35.716Z</time>
      </trkpt>
      <trkpt lat="45.75217" lon="6.70848">
        <ele>1889</ele>
        <time>2026-07-29T11:58:36.716Z</time>
      </trkpt>
      <trkpt lat="45.75217" lon="6.70848">
        <ele>1889</ele>
        <time>2026-07-29T11:58:37.716Z</time>
      </trkpt>
      <trkpt lat="45.75217" lon="6.70848">
        <ele>1889</ele>
        <time>2026-07-29T11:58:38.716Z</time>
      </trkpt>
      <trkpt lat="45.75217" lon="6.70848">
        <ele>1889</ele>
        <time>2026-07-29T11:58:39.716Z</time>
      </trkpt>
      <trkpt lat="45.75217" lon="6.70848">
        <ele>1889</ele>
        <time>2026-07-29T11:58:40.716Z</time>
      </trkpt>
      <trkpt lat="45.75216" lon="6.70848">
        <ele>1889</ele>
        <time>2026-07-29T11:58:41.716Z</time>
      </trkpt>
      <trkpt lat="45.75216" lon="6.70849">
        <ele>1889</ele>
        <time>2026-07-29T11:58:42.716Z</time>
      </trkpt>
      <trkpt lat="45.75216" lon="6.70849">
        <ele>1889</ele>
        <time>2026-07-29T11:58:43.716Z</time>
      </trkpt>
      <trkpt lat="45.75215" lon="6.70852">
        <ele>1889</ele>
        <time>2026-07-29T11:58:44.716Z</time>
      </trkpt>
      <trkpt lat="45.75214" lon="6.70854">
        <ele>1889</ele>
        <time>2026-07-29T11:58:45.716Z</time>
      </trkpt>
      <trkpt lat="45.75213" lon="6.70856">
        <ele>1889</ele>
        <time>2026-07-29T11:58:46.716Z</time>
      </trkpt>
      <trkpt lat="45.75213" lon="6.70858">
        <ele>1889</ele>
        <time>2026-07-29T11:58:47.716Z</time>
      </trkpt>
      <trkpt lat="45.75212" lon="6.7086">
        <ele>1889</ele>
        <time>2026-07-29T11:58:48.716Z</time>
      </trkpt>
      <trkpt lat="45.75212" lon="6.70862">
        <ele>1889</ele>
        <time>2026-07-29T11:58:49.716Z</time>
      </trkpt>
      <trkpt lat="45.75213" lon="6.70864">
        <ele>1890</ele>
        <time>2026-07-29T11:58:50.716Z</time>
      </trkpt>
      <trkpt lat="45.75214" lon="6.70864">
        <ele>1890</ele>
        <time>2026-07-29T11:58:51.716Z</time>
      </trkpt>
      <trkpt lat="45.75215" lon="6.70865">
        <ele>1890</ele>
        <time>2026-07-29T11:58:52.716Z</time>
      </trkpt>
      <trkpt lat="45.75216" lon="6.70863">
        <ele>1891</ele>
        <time>2026-07-29T11:58:53.716Z</time>
      </trkpt>
      <trkpt lat="45.75217" lon="6.70862">
        <ele>1890</ele>
        <time>2026-07-29T11:58:54.716Z</time>
      </trkpt>
      <trkpt lat="45.75218" lon="6.70861">
        <ele>1890</ele>
        <time>2026-07-29T11:58:55.716Z</time>
      </trkpt>
      <trkpt lat="45.7522" lon="6.70859">
        <ele>1890</ele>
        <time>2026-07-29T11:58:56.716Z</time>
      </trkpt>
      <trkpt lat="45.75221" lon="6.70858">
        <ele>1890</ele>
        <time>2026-07-29T11:58:57.716Z</time>
      </trkpt>
      <trkpt lat="45.75222" lon="6.70856">
        <ele>1890</ele>
        <time>2026-07-29T11:58:58.716Z</time>
      </trkpt>
      <trkpt lat="45.75223" lon="6.70854">
        <ele>1890</ele>
        <time>2026-07-29T11:58:59.716Z</time>
      </trkpt>
      <trkpt lat="45.75224" lon="6.70853">
        <ele>1890</ele>
        <time>2026-07-29T11:59:00.716Z</time>
      </trkpt>
      <trkpt lat="45.75225" lon="6.70851">
        <ele>1889</ele>
        <time>2026-07-29T11:59:01.716Z</time>
      </trkpt>
      <trkpt lat="45.75226" lon="6.7085">
        <ele>1889</ele>
        <time>2026-07-29T11:59:02.716Z</time>
      </trkpt>
      <trkpt lat="45.75227" lon="6.70848">
        <ele>1889</ele>
        <time>2026-07-29T11:59:03.716Z</time>
      </trkpt>
      <trkpt lat="45.75228" lon="6.70846">
        <ele>1889</ele>
        <time>2026-07-29T11:59:04.716Z</time>
      </trkpt>
      <trkpt lat="45.75229" lon="6.70845">
        <ele>1888</ele>
        <time>2026-07-29T11:59:05.716Z</time>
      </trkpt>
      <trkpt lat="45.7523" lon="6.70843">
        <ele>1888</ele>
        <time>2026-07-29T11:59:06.716Z</time>
      </trkpt>
      <trkpt lat="45.75231" lon="6.70842">
        <ele>1888</ele>
        <time>2026-07-29T11:59:07.716Z</time>
      </trkpt>
      <trkpt lat="45.75232" lon="6.70841">
        <ele>1887</ele>
        <time>2026-07-29T11:59:08.716Z</time>
      </trkpt>
      <trkpt lat="45.75233" lon="6.7084">
        <ele>1887</ele>
        <time>2026-07-29T11:59:09.716Z</time>
      </trkpt>
      <trkpt lat="45.75234" lon="6.70839">
        <ele>1887</ele>
        <time>2026-07-29T11:59:10.716Z</time>
      </trkpt>
      <trkpt lat="45.75234" lon="6.70837">
        <ele>1886</ele>
        <time>2026-07-29T11:59:11.716Z</time>
      </trkpt>
      <trkpt lat="45.75235" lon="6.70836">
        <ele>1886</ele>
        <time>2026-07-29T11:59:12.716Z</time>
      </trkpt>
      <trkpt lat="45.75236" lon="6.70834">
        <ele>1885</ele>
        <time>2026-07-29T11:59:13.716Z</time>
      </trkpt>
      <trkpt lat="45.75237" lon="6.70833">
        <ele>1885</ele>
        <time>2026-07-29T11:59:14.716Z</time>
      </trkpt>
      <trkpt lat="45.75237" lon="6.70832">
        <ele>1885</ele>
        <time>2026-07-29T11:59:15.716Z</time>
      </trkpt>
      <trkpt lat="45.75238" lon="6.70832">
        <ele>1885</ele>
        <time>2026-07-29T11:59:16.716Z</time>
      </trkpt>
      <trkpt lat="45.75238" lon="6.70832">
        <ele>1884</ele>
        <time>2026-07-29T11:59:17.716Z</time>
      </trkpt>
      <trkpt lat="45.75239" lon="6.70832">
        <ele>1884</ele>
        <time>2026-07-29T11:59:18.716Z</time>
      </trkpt>
      <trkpt lat="45.75239" lon="6.70833">
        <ele>1884</ele>
        <time>2026-07-29T11:59:19.716Z</time>
      </trkpt>
      <trkpt lat="45.75239" lon="6.70833">
        <ele>1884</ele>
        <time>2026-07-29T11:59:20.716Z</time>
      </trkpt>
      <trkpt lat="45.75239" lon="6.70833">
        <ele>1884</ele>
        <time>2026-07-29T11:59:21.716Z</time>
      </trkpt>
      <trkpt lat="45.75239" lon="6.70833">
        <ele>1884</ele>
        <time>2026-07-29T11:59:22.716Z</time>
      </trkpt>
      <trkpt lat="45.75239" lon="6.70833">
        <ele>1884</ele>
        <time>2026-07-29T11:59:23.716Z</time>
      </trkpt>
      <trkpt lat="45.75239" lon="6.70834">
        <ele>1884</ele>
        <time>2026-07-29T11:59:24.716Z</time>
      </trkpt>
      <trkpt lat="45.75239" lon="6.70834">
        <ele>1884</ele>
        <time>2026-07-29T11:59:25.716Z</time>
      </trkpt>
      <trkpt lat="45.75239" lon="6.70834">
        <ele>1884</ele>
        <time>2026-07-29T11:59:26.716Z</time>
      </trkpt>
      <trkpt lat="45.75239" lon="6.70834">
        <ele>1884</ele>
        <time>2026-07-29T11:59:27.716Z</time>
      </trkpt>
      <trkpt lat="45.75239" lon="6.70834">
        <ele>1884</ele>
        <time>2026-07-29T11:59:28.716Z</time>
      </trkpt>
      <trkpt lat="45.75239" lon="6.70834">
        <ele>1883</ele>
        <time>2026-07-29T11:59:29.716Z</time>
      </trkpt>
      <trkpt lat="45.75239" lon="6.70834">
        <ele>1883</ele>
        <time>2026-07-29T11:59:30.716Z</time>
      </trkpt>
      <trkpt lat="45.75239" lon="6.70834">
        <ele>1883</ele>
        <time>2026-07-29T11:59:31.716Z</time>
      </trkpt>
      <trkpt lat="45.75239" lon="6.70834">
        <ele>1883</ele>
        <time>2026-07-29T11:59:32.716Z</time>
      </trkpt>
      <trkpt lat="45.75239" lon="6.70834">
        <ele>1883</ele>
        <time>2026-07-29T11:59:33.716Z</time>
      </trkpt>
      <trkpt lat="45.75239" lon="6.70834">
        <ele>1884</ele>
        <time>2026-07-29T11:59:34.716Z</time>
      </trkpt>
      <trkpt lat="45.75239" lon="6.70834">
        <ele>1884</ele>
        <time>2026-07-29T11:59:35.716Z</time>
      </trkpt>
      <trkpt lat="45.75239" lon="6.70833">
        <ele>1884</ele>
        <time>2026-07-29T11:59:36.716Z</time>
      </trkpt>
      <trkpt lat="45.75239" lon="6.70832">
        <ele>1884</ele>
        <time>2026-07-29T11:59:37.716Z</time>
      </trkpt>
      <trkpt lat="45.7524" lon="6.7083">
        <ele>1884</ele>
        <time>2026-07-29T11:59:38.716Z</time>
      </trkpt>
      <trkpt lat="45.7524" lon="6.70828">
        <ele>1884</ele>
        <time>2026-07-29T11:59:39.716Z</time>
      </trkpt>
      <trkpt lat="45.75241" lon="6.70826">
        <ele>1884</ele>
        <time>2026-07-29T11:59:40.716Z</time>
      </trkpt>
      <trkpt lat="45.75242" lon="6.70823">
        <ele>1884</ele>
        <time>2026-07-29T11:59:41.716Z</time>
      </trkpt>
      <trkpt lat="45.75243" lon="6.70821">
        <ele>1883</ele>
        <time>2026-07-29T11:59:42.716Z</time>
      </trkpt>
      <trkpt lat="45.75244" lon="6.70819">
        <ele>1883</ele>
        <time>2026-07-29T11:59:43.716Z</time>
      </trkpt>
      <trkpt lat="45.75245" lon="6.70817">
        <ele>1883</ele>
        <time>2026-07-29T11:59:44.716Z</time>
      </trkpt>
      <trkpt lat="45.75246" lon="6.70814">
        <ele>1883</ele>
        <time>2026-07-29T11:59:45.716Z</time>
      </trkpt>
      <trkpt lat="45.75247" lon="6.70812">
        <ele>1883</ele>
        <time>2026-07-29T11:59:46.716Z</time>
      </trkpt>
      <trkpt lat="45.75248" lon="6.70811">
        <ele>1883</ele>
        <time>2026-07-29T11:59:47.716Z</time>
      </trkpt>
      <trkpt lat="45.75249" lon="6.70809">
        <ele>1882</ele>
        <time>2026-07-29T11:59:48.716Z</time>
      </trkpt>
      <trkpt lat="45.7525" lon="6.70808">
        <ele>1882</ele>
        <time>2026-07-29T11:59:49.716Z</time>
      </trkpt>
      <trkpt lat="45.75251" lon="6.70806">
        <ele>1881</ele>
        <time>2026-07-29T11:59:50.716Z</time>
      </trkpt>
      <trkpt lat="45.75252" lon="6.70804">
        <ele>1881</ele>
        <time>2026-07-29T11:59:51.716Z</time>
      </trkpt>
      <trkpt lat="45.75253" lon="6.70802">
        <ele>1881</ele>
        <time>2026-07-29T11:59:52.716Z</time>
      </trkpt>
      <trkpt lat="45.75254" lon="6.708">
        <ele>1881</ele>
        <time>2026-07-29T11:59:53.716Z</time>
      </trkpt>
      <trkpt lat="45.75255" lon="6.70798">
        <ele>1880</ele>
        <time>2026-07-29T11:59:54.716Z</time>
      </trkpt>
      <trkpt lat="45.75256" lon="6.70796">
        <ele>1880</ele>
        <time>2026-07-29T11:59:55.716Z</time>
      </trkpt>
      <trkpt lat="45.75258" lon="6.70796">
        <ele>1879</ele>
        <time>2026-07-29T11:59:56.716Z</time>
      </trkpt>
      <trkpt lat="45.7526" lon="6.70796">
        <ele>1879</ele>
        <time>2026-07-29T11:59:57.716Z</time>
      </trkpt>
      <trkpt lat="45.75262" lon="6.70798">
        <ele>1878</ele>
        <time>2026-07-29T11:59:58.716Z</time>
      </trkpt>
      <trkpt lat="45.75263" lon="6.708">
        <ele>1877</ele>
        <time>2026-07-29T11:59:59.716Z</time>
      </trkpt>
      <trkpt lat="45.75263" lon="6.70803">
        <ele>1877</ele>
        <time>2026-07-29T12:00:00.716Z</time>
      </trkpt>
      <trkpt lat="45.75263" lon="6.70805">
        <ele>1876</ele>
        <time>2026-07-29T12:00:01.716Z</time>
      </trkpt>
      <trkpt lat="45.75263" lon="6.70807">
        <ele>1875</ele>
        <time>2026-07-29T12:00:02.716Z</time>
      </trkpt>
      <trkpt lat="45.75263" lon="6.7081">
        <ele>1874</ele>
        <time>2026-07-29T12:00:03.716Z</time>
      </trkpt>
      <trkpt lat="45.75263" lon="6.70812">
        <ele>1873</ele>
        <time>2026-07-29T12:00:04.716Z</time>
      </trkpt>
      <trkpt lat="45.75263" lon="6.70814">
        <ele>1873</ele>
        <time>2026-07-29T12:00:05.716Z</time>
      </trkpt>
      <trkpt lat="45.75263" lon="6.70816">
        <ele>1872</ele>
        <time>2026-07-29T12:00:06.716Z</time>
      </trkpt>
      <trkpt lat="45.75264" lon="6.70818">
        <ele>1871</ele>
        <time>2026-07-29T12:00:07.716Z</time>
      </trkpt>
      <trkpt lat="45.75264" lon="6.7082">
        <ele>1871</ele>
        <time>2026-07-29T12:00:08.716Z</time>
      </trkpt>
      <trkpt lat="45.75265" lon="6.70822">
        <ele>1870</ele>
        <time>2026-07-29T12:00:09.716Z</time>
      </trkpt>
      <trkpt lat="45.75265" lon="6.70825">
        <ele>1870</ele>
        <time>2026-07-29T12:00:10.716Z</time>
      </trkpt>
      <trkpt lat="45.75266" lon="6.70827">
        <ele>1869</ele>
        <time>2026-07-29T12:00:11.716Z</time>
      </trkpt>
      <trkpt lat="45.75266" lon="6.70829">
        <ele>1869</ele>
        <time>2026-07-29T12:00:12.716Z</time>
      </trkpt>
      <trkpt lat="45.75267" lon="6.70831">
        <ele>1869</ele>
        <time>2026-07-29T12:00:13.716Z</time>
      </trkpt>
      <trkpt lat="45.75267" lon="6.70832">
        <ele>1869</ele>
        <time>2026-07-29T12:00:14.716Z</time>
      </trkpt>
      <trkpt lat="45.75268" lon="6.70835">
        <ele>1868</ele>
        <time>2026-07-29T12:00:15.716Z</time>
      </trkpt>
      <trkpt lat="45.75269" lon="6.70836">
        <ele>1867</ele>
        <time>2026-07-29T12:00:16.716Z</time>
      </trkpt>
      <trkpt lat="45.75269" lon="6.70838">
        <ele>1867</ele>
        <time>2026-07-29T12:00:17.716Z</time>
      </trkpt>
      <trkpt lat="45.7527" lon="6.7084">
        <ele>1867</ele>
        <time>2026-07-29T12:00:18.716Z</time>
      </trkpt>
      <trkpt lat="45.75272" lon="6.70842">
        <ele>1867</ele>
        <time>2026-07-29T12:00:19.716Z</time>
      </trkpt>
      <trkpt lat="45.75273" lon="6.70844">
        <ele>1866</ele>
        <time>2026-07-29T12:00:20.716Z</time>
      </trkpt>
      <trkpt lat="45.75274" lon="6.70847">
        <ele>1866</ele>
        <time>2026-07-29T12:00:21.716Z</time>
      </trkpt>
      <trkpt lat="45.75274" lon="6.70849">
        <ele>1866</ele>
        <time>2026-07-29T12:00:22.716Z</time>
      </trkpt>
      <trkpt lat="45.75275" lon="6.70851">
        <ele>1865</ele>
        <time>2026-07-29T12:00:23.716Z</time>
      </trkpt>
      <trkpt lat="45.75276" lon="6.70852">
        <ele>1865</ele>
        <time>2026-07-29T12:00:24.716Z</time>
      </trkpt>
      <trkpt lat="45.75276" lon="6.70854">
        <ele>1864</ele>
        <time>2026-07-29T12:00:25.716Z</time>
      </trkpt>
      <trkpt lat="45.75277" lon="6.70856">
        <ele>1864</ele>
        <time>2026-07-29T12:00:26.716Z</time>
      </trkpt>
      <trkpt lat="45.75277" lon="6.70858">
        <ele>1863</ele>
        <time>2026-07-29T12:00:27.716Z</time>
      </trkpt>
      <trkpt lat="45.75278" lon="6.7086">
        <ele>1863</ele>
        <time>2026-07-29T12:00:28.716Z</time>
      </trkpt>
      <trkpt lat="45.75279" lon="6.70861">
        <ele>1863</ele>
        <time>2026-07-29T12:00:29.716Z</time>
      </trkpt>
      <trkpt lat="45.75279" lon="6.70862">
        <ele>1862</ele>
        <time>2026-07-29T12:00:30.716Z</time>
      </trkpt>
      <trkpt lat="45.7528" lon="6.70863">
        <ele>1862</ele>
        <time>2026-07-29T12:00:31.716Z</time>
      </trkpt>
      <trkpt lat="45.75281" lon="6.70865">
        <ele>1862</ele>
        <time>2026-07-29T12:00:32.716Z</time>
      </trkpt>
      <trkpt lat="45.75281" lon="6.70866">
        <ele>1862</ele>
        <time>2026-07-29T12:00:33.716Z</time>
      </trkpt>
      <trkpt lat="45.75282" lon="6.70868">
        <ele>1862</ele>
        <time>2026-07-29T12:00:34.716Z</time>
      </trkpt>
      <trkpt lat="45.75283" lon="6.70869">
        <ele>1862</ele>
        <time>2026-07-29T12:00:35.716Z</time>
      </trkpt>
      <trkpt lat="45.75283" lon="6.70871">
        <ele>1862</ele>
        <time>2026-07-29T12:00:36.716Z</time>
      </trkpt>
      <trkpt lat="45.75283" lon="6.70873">
        <ele>1861</ele>
        <time>2026-07-29T12:00:37.716Z</time>
      </trkpt>
      <trkpt lat="45.75284" lon="6.70875">
        <ele>1861</ele>
        <time>2026-07-29T12:00:38.716Z</time>
      </trkpt>
      <trkpt lat="45.75283" lon="6.70877">
        <ele>1860</ele>
        <time>2026-07-29T12:00:39.716Z</time>
      </trkpt>
      <trkpt lat="45.75284" lon="6.70879">
        <ele>1860</ele>
        <time>2026-07-29T12:00:40.716Z</time>
      </trkpt>
      <trkpt lat="45.75284" lon="6.70882">
        <ele>1860</ele>
        <time>2026-07-29T12:00:41.716Z</time>
      </trkpt>
      <trkpt lat="45.75284" lon="6.70885">
        <ele>1859</ele>
        <time>2026-07-29T12:00:42.716Z</time>
      </trkpt>
      <trkpt lat="45.75284" lon="6.70887">
        <ele>1858</ele>
        <time>2026-07-29T12:00:43.716Z</time>
      </trkpt>
      <trkpt lat="45.75284" lon="6.70889">
        <ele>1858</ele>
        <time>2026-07-29T12:00:44.716Z</time>
      </trkpt>
      <trkpt lat="45.75284" lon="6.70891">
        <ele>1857</ele>
        <time>2026-07-29T12:00:45.716Z</time>
      </trkpt>
      <trkpt lat="45.75285" lon="6.70894">
        <ele>1857</ele>
        <time>2026-07-29T12:00:46.716Z</time>
      </trkpt>
      <trkpt lat="45.75286" lon="6.70897">
        <ele>1856</ele>
        <time>2026-07-29T12:00:47.716Z</time>
      </trkpt>
      <trkpt lat="45.75286" lon="6.70899">
        <ele>1856</ele>
        <time>2026-07-29T12:00:48.716Z</time>
      </trkpt>
      <trkpt lat="45.75287" lon="6.70902">
        <ele>1855</ele>
        <time>2026-07-29T12:00:49.716Z</time>
      </trkpt>
      <trkpt lat="45.75287" lon="6.70905">
        <ele>1855</ele>
        <time>2026-07-29T12:00:50.716Z</time>
      </trkpt>
      <trkpt lat="45.75287" lon="6.70908">
        <ele>1854</ele>
        <time>2026-07-29T12:00:51.716Z</time>
      </trkpt>
      <trkpt lat="45.75287" lon="6.70911">
        <ele>1853</ele>
        <time>2026-07-29T12:00:52.716Z</time>
      </trkpt>
      <trkpt lat="45.75287" lon="6.70913">
        <ele>1852</ele>
        <time>2026-07-29T12:00:53.716Z</time>
      </trkpt>
      <trkpt lat="45.75288" lon="6.70916">
        <ele>1852</ele>
        <time>2026-07-29T12:00:54.716Z</time>
      </trkpt>
      <trkpt lat="45.75289" lon="6.70918">
        <ele>1851</ele>
        <time>2026-07-29T12:00:55.716Z</time>
      </trkpt>
      <trkpt lat="45.7529" lon="6.7092">
        <ele>1851</ele>
        <time>2026-07-29T12:00:56.716Z</time>
      </trkpt>
      <trkpt lat="45.75292" lon="6.70921">
        <ele>1851</ele>
        <time>2026-07-29T12:00:57.716Z</time>
      </trkpt>
      <trkpt lat="45.75293" lon="6.70921">
        <ele>1851</ele>
        <time>2026-07-29T12:00:58.716Z</time>
      </trkpt>
      <trkpt lat="45.75295" lon="6.7092">
        <ele>1851</ele>
        <time>2026-07-29T12:00:59.716Z</time>
      </trkpt>
      <trkpt lat="45.75296" lon="6.70918">
        <ele>1850</ele>
        <time>2026-07-29T12:01:00.716Z</time>
      </trkpt>
      <trkpt lat="45.75298" lon="6.70916">
        <ele>1850</ele>
        <time>2026-07-29T12:01:01.716Z</time>
      </trkpt>
      <trkpt lat="45.75299" lon="6.70914">
        <ele>1850</ele>
        <time>2026-07-29T12:01:02.716Z</time>
      </trkpt>
      <trkpt lat="45.75299" lon="6.70912">
        <ele>1850</ele>
        <time>2026-07-29T12:01:03.716Z</time>
      </trkpt>
      <trkpt lat="45.75299" lon="6.7091">
        <ele>1850</ele>
        <time>2026-07-29T12:01:04.716Z</time>
      </trkpt>
      <trkpt lat="45.75298" lon="6.70908">
        <ele>1850</ele>
        <time>2026-07-29T12:01:05.716Z</time>
      </trkpt>
      <trkpt lat="45.75297" lon="6.70906">
        <ele>1850</ele>
        <time>2026-07-29T12:01:06.716Z</time>
      </trkpt>
      <trkpt lat="45.75297" lon="6.70904">
        <ele>1850</ele>
        <time>2026-07-29T12:01:07.716Z</time>
      </trkpt>
      <trkpt lat="45.75297" lon="6.70902">
        <ele>1849</ele>
        <time>2026-07-29T12:01:08.716Z</time>
      </trkpt>
      <trkpt lat="45.75297" lon="6.70899">
        <ele>1849</ele>
        <time>2026-07-29T12:01:09.716Z</time>
      </trkpt>
      <trkpt lat="45.75298" lon="6.70895">
        <ele>1849</ele>
        <time>2026-07-29T12:01:10.716Z</time>
      </trkpt>
      <trkpt lat="45.75299" lon="6.70892">
        <ele>1849</ele>
        <time>2026-07-29T12:01:11.716Z</time>
      </trkpt>
      <trkpt lat="45.75299" lon="6.70889">
        <ele>1849</ele>
        <time>2026-07-29T12:01:12.716Z</time>
      </trkpt>
      <trkpt lat="45.753" lon="6.70886">
        <ele>1849</ele>
        <time>2026-07-29T12:01:13.716Z</time>
      </trkpt>
      <trkpt lat="45.753" lon="6.70882">
        <ele>1848</ele>
        <time>2026-07-29T12:01:14.716Z</time>
      </trkpt>
      <trkpt lat="45.753" lon="6.70879">
        <ele>1848</ele>
        <time>2026-07-29T12:01:15.716Z</time>
      </trkpt>
      <trkpt lat="45.753" lon="6.70875">
        <ele>1847</ele>
        <time>2026-07-29T12:01:16.716Z</time>
      </trkpt>
      <trkpt lat="45.75301" lon="6.70872">
        <ele>1847</ele>
        <time>2026-07-29T12:01:17.716Z</time>
      </trkpt>
      <trkpt lat="45.75302" lon="6.70868">
        <ele>1846</ele>
        <time>2026-07-29T12:01:18.716Z</time>
      </trkpt>
      <trkpt lat="45.75302" lon="6.70866">
        <ele>1846</ele>
        <time>2026-07-29T12:01:19.716Z</time>
      </trkpt>
      <trkpt lat="45.75303" lon="6.70862">
        <ele>1845</ele>
        <time>2026-07-29T12:01:20.716Z</time>
      </trkpt>
      <trkpt lat="45.75304" lon="6.70859">
        <ele>1845</ele>
        <time>2026-07-29T12:01:21.716Z</time>
      </trkpt>
      <trkpt lat="45.75304" lon="6.70855">
        <ele>1844</ele>
        <time>2026-07-29T12:01:22.716Z</time>
      </trkpt>
      <trkpt lat="45.75306" lon="6.70852">
        <ele>1844</ele>
        <time>2026-07-29T12:01:23.716Z</time>
      </trkpt>
      <trkpt lat="45.75307" lon="6.7085">
        <ele>1844</ele>
        <time>2026-07-29T12:01:24.716Z</time>
      </trkpt>
      <trkpt lat="45.75309" lon="6.70848">
        <ele>1843</ele>
        <time>2026-07-29T12:01:25.716Z</time>
      </trkpt>
      <trkpt lat="45.7531" lon="6.70845">
        <ele>1843</ele>
        <time>2026-07-29T12:01:26.716Z</time>
      </trkpt>
      <trkpt lat="45.75311" lon="6.70843">
        <ele>1843</ele>
        <time>2026-07-29T12:01:27.716Z</time>
      </trkpt>
      <trkpt lat="45.75312" lon="6.70841">
        <ele>1842</ele>
        <time>2026-07-29T12:01:28.716Z</time>
      </trkpt>
      <trkpt lat="45.75314" lon="6.70839">
        <ele>1842</ele>
        <time>2026-07-29T12:01:29.716Z</time>
      </trkpt>
      <trkpt lat="45.75316" lon="6.70837">
        <ele>1841</ele>
        <time>2026-07-29T12:01:30.716Z</time>
      </trkpt>
      <trkpt lat="45.75317" lon="6.70835">
        <ele>1841</ele>
        <time>2026-07-29T12:01:31.716Z</time>
      </trkpt>
      <trkpt lat="45.75319" lon="6.70833">
        <ele>1840</ele>
        <time>2026-07-29T12:01:32.716Z</time>
      </trkpt>
      <trkpt lat="45.7532" lon="6.7083">
        <ele>1840</ele>
        <time>2026-07-29T12:01:33.716Z</time>
      </trkpt>
      <trkpt lat="45.75321" lon="6.70828">
        <ele>1839</ele>
        <time>2026-07-29T12:01:34.716Z</time>
      </trkpt>
      <trkpt lat="45.75322" lon="6.70825">
        <ele>1839</ele>
        <time>2026-07-29T12:01:35.716Z</time>
      </trkpt>
      <trkpt lat="45.75323" lon="6.70823">
        <ele>1839</ele>
        <time>2026-07-29T12:01:36.716Z</time>
      </trkpt>
      <trkpt lat="45.75325" lon="6.70821">
        <ele>1839</ele>
        <time>2026-07-29T12:01:37.716Z</time>
      </trkpt>
      <trkpt lat="45.75326" lon="6.70818">
        <ele>1839</ele>
        <time>2026-07-29T12:01:38.716Z</time>
      </trkpt>
      <trkpt lat="45.75327" lon="6.70817">
        <ele>1839</ele>
        <time>2026-07-29T12:01:39.716Z</time>
      </trkpt>
      <trkpt lat="45.75328" lon="6.70815">
        <ele>1838</ele>
        <time>2026-07-29T12:01:40.716Z</time>
      </trkpt>
      <trkpt lat="45.7533" lon="6.70813">
        <ele>1838</ele>
        <time>2026-07-29T12:01:41.716Z</time>
      </trkpt>
      <trkpt lat="45.75331" lon="6.70811">
        <ele>1838</ele>
        <time>2026-07-29T12:01:42.716Z</time>
      </trkpt>
      <trkpt lat="45.75332" lon="6.70809">
        <ele>1838</ele>
        <time>2026-07-29T12:01:43.716Z</time>
      </trkpt>
      <trkpt lat="45.75333" lon="6.70808">
        <ele>1838</ele>
        <time>2026-07-29T12:01:44.716Z</time>
      </trkpt>
      <trkpt lat="45.75334" lon="6.70806">
        <ele>1837</ele>
        <time>2026-07-29T12:01:45.716Z</time>
      </trkpt>
      <trkpt lat="45.75335" lon="6.70804">
        <ele>1836</ele>
        <time>2026-07-29T12:01:46.716Z</time>
      </trkpt>
      <trkpt lat="45.75336" lon="6.70802">
        <ele>1836</ele>
        <time>2026-07-29T12:01:47.716Z</time>
      </trkpt>
      <trkpt lat="45.75338" lon="6.70801">
        <ele>1836</ele>
        <time>2026-07-29T12:01:48.716Z</time>
      </trkpt>
      <trkpt lat="45.7534" lon="6.70799">
        <ele>1836</ele>
        <time>2026-07-29T12:01:49.716Z</time>
      </trkpt>
      <trkpt lat="45.75342" lon="6.70797">
        <ele>1835</ele>
        <time>2026-07-29T12:01:50.716Z</time>
      </trkpt>
      <trkpt lat="45.75343" lon="6.70795">
        <ele>1835</ele>
        <time>2026-07-29T12:01:51.716Z</time>
      </trkpt>
      <trkpt lat="45.75344" lon="6.70794">
        <ele>1835</ele>
        <time>2026-07-29T12:01:52.716Z</time>
      </trkpt>
      <trkpt lat="45.75346" lon="6.70792">
        <ele>1835</ele>
        <time>2026-07-29T12:01:53.716Z</time>
      </trkpt>
      <trkpt lat="45.75347" lon="6.7079">
        <ele>1835</ele>
        <time>2026-07-29T12:01:54.716Z</time>
      </trkpt>
      <trkpt lat="45.75349" lon="6.70788">
        <ele>1835</ele>
        <time>2026-07-29T12:01:55.716Z</time>
      </trkpt>
      <trkpt lat="45.7535" lon="6.70787">
        <ele>1834</ele>
        <time>2026-07-29T12:01:56.716Z</time>
      </trkpt>
      <trkpt lat="45.75352" lon="6.70785">
        <ele>1834</ele>
        <time>2026-07-29T12:01:57.716Z</time>
      </trkpt>
      <trkpt lat="45.75353" lon="6.70783">
        <ele>1833</ele>
        <time>2026-07-29T12:01:58.716Z</time>
      </trkpt>
      <trkpt lat="45.75355" lon="6.70782">
        <ele>1832</ele>
        <time>2026-07-29T12:01:59.716Z</time>
      </trkpt>
      <trkpt lat="45.75356" lon="6.70781">
        <ele>1832</ele>
        <time>2026-07-29T12:02:00.716Z</time>
      </trkpt>
      <trkpt lat="45.75357" lon="6.7078">
        <ele>1831</ele>
        <time>2026-07-29T12:02:01.716Z</time>
      </trkpt>
      <trkpt lat="45.75358" lon="6.70779">
        <ele>1831</ele>
        <time>2026-07-29T12:02:02.716Z</time>
      </trkpt>
      <trkpt lat="45.7536" lon="6.70778">
        <ele>1830</ele>
        <time>2026-07-29T12:02:03.716Z</time>
      </trkpt>
      <trkpt lat="45.75362" lon="6.70777">
        <ele>1830</ele>
        <time>2026-07-29T12:02:04.716Z</time>
      </trkpt>
      <trkpt lat="45.75364" lon="6.70777">
        <ele>1830</ele>
        <time>2026-07-29T12:02:05.716Z</time>
      </trkpt>
      <trkpt lat="45.75365" lon="6.70776">
        <ele>1829</ele>
        <time>2026-07-29T12:02:06.716Z</time>
      </trkpt>
      <trkpt lat="45.75367" lon="6.70776">
        <ele>1829</ele>
        <time>2026-07-29T12:02:07.716Z</time>
      </trkpt>
      <trkpt lat="45.75369" lon="6.70776">
        <ele>1829</ele>
        <time>2026-07-29T12:02:08.716Z</time>
      </trkpt>
      <trkpt lat="45.75371" lon="6.70775">
        <ele>1828</ele>
        <time>2026-07-29T12:02:09.716Z</time>
      </trkpt>
      <trkpt lat="45.75372" lon="6.70775">
        <ele>1828</ele>
        <time>2026-07-29T12:02:10.716Z</time>
      </trkpt>
      <trkpt lat="45.75374" lon="6.70774">
        <ele>1828</ele>
        <time>2026-07-29T12:02:11.716Z</time>
      </trkpt>
      <trkpt lat="45.75376" lon="6.70774">
        <ele>1827</ele>
        <time>2026-07-29T12:02:12.716Z</time>
      </trkpt>
      <trkpt lat="45.75377" lon="6.70774">
        <ele>1827</ele>
        <time>2026-07-29T12:02:13.716Z</time>
      </trkpt>
      <trkpt lat="45.75379" lon="6.70773">
        <ele>1826</ele>
        <time>2026-07-29T12:02:14.716Z</time>
      </trkpt>
      <trkpt lat="45.75381" lon="6.70772">
        <ele>1826</ele>
        <time>2026-07-29T12:02:15.716Z</time>
      </trkpt>
      <trkpt lat="45.75382" lon="6.70771">
        <ele>1825</ele>
        <time>2026-07-29T12:02:16.716Z</time>
      </trkpt>
      <trkpt lat="45.75384" lon="6.70771">
        <ele>1824</ele>
        <time>2026-07-29T12:02:17.716Z</time>
      </trkpt>
      <trkpt lat="45.75386" lon="6.7077">
        <ele>1824</ele>
        <time>2026-07-29T12:02:18.716Z</time>
      </trkpt>
      <trkpt lat="45.75388" lon="6.7077">
        <ele>1823</ele>
        <time>2026-07-29T12:02:19.716Z</time>
      </trkpt>
      <trkpt lat="45.7539" lon="6.70769">
        <ele>1823</ele>
        <time>2026-07-29T12:02:20.716Z</time>
      </trkpt>
      <trkpt lat="45.75392" lon="6.70768">
        <ele>1822</ele>
        <time>2026-07-29T12:02:21.716Z</time>
      </trkpt>
      <trkpt lat="45.75394" lon="6.70766">
        <ele>1822</ele>
        <time>2026-07-29T12:02:22.716Z</time>
      </trkpt>
      <trkpt lat="45.75396" lon="6.70765">
        <ele>1821</ele>
        <time>2026-07-29T12:02:23.716Z</time>
      </trkpt>
      <trkpt lat="45.75397" lon="6.70764">
        <ele>1820</ele>
        <time>2026-07-29T12:02:24.716Z</time>
      </trkpt>
      <trkpt lat="45.75399" lon="6.70763">
        <ele>1820</ele>
        <time>2026-07-29T12:02:25.716Z</time>
      </trkpt>
      <trkpt lat="45.75401" lon="6.70761">
        <ele>1819</ele>
        <time>2026-07-29T12:02:26.716Z</time>
      </trkpt>
      <trkpt lat="45.75402" lon="6.7076">
        <ele>1819</ele>
        <time>2026-07-29T12:02:27.716Z</time>
      </trkpt>
      <trkpt lat="45.75404" lon="6.70758">
        <ele>1819</ele>
        <time>2026-07-29T12:02:28.716Z</time>
      </trkpt>
      <trkpt lat="45.75406" lon="6.70757">
        <ele>1819</ele>
        <time>2026-07-29T12:02:29.716Z</time>
      </trkpt>
      <trkpt lat="45.75407" lon="6.70756">
        <ele>1819</ele>
        <time>2026-07-29T12:02:30.717Z</time>
      </trkpt>
      <trkpt lat="45.75409" lon="6.70755">
        <ele>1819</ele>
        <time>2026-07-29T12:02:31.716Z</time>
      </trkpt>
      <trkpt lat="45.7541" lon="6.70753">
        <ele>1818</ele>
        <time>2026-07-29T12:02:32.716Z</time>
      </trkpt>
      <trkpt lat="45.75412" lon="6.70752">
        <ele>1818</ele>
        <time>2026-07-29T12:02:33.716Z</time>
      </trkpt>
      <trkpt lat="45.75414" lon="6.70751">
        <ele>1818</ele>
        <time>2026-07-29T12:02:34.716Z</time>
      </trkpt>
      <trkpt lat="45.75415" lon="6.70749">
        <ele>1818</ele>
        <time>2026-07-29T12:02:35.716Z</time>
      </trkpt>
      <trkpt lat="45.75417" lon="6.70747">
        <ele>1818</ele>
        <time>2026-07-29T12:02:36.716Z</time>
      </trkpt>
      <trkpt lat="45.75419" lon="6.70746">
        <ele>1817</ele>
        <time>2026-07-29T12:02:37.716Z</time>
      </trkpt>
      <trkpt lat="45.75421" lon="6.70744">
        <ele>1817</ele>
        <time>2026-07-29T12:02:38.716Z</time>
      </trkpt>
      <trkpt lat="45.75422" lon="6.70742">
        <ele>1817</ele>
        <time>2026-07-29T12:02:39.716Z</time>
      </trkpt>
      <trkpt lat="45.75424" lon="6.70741">
        <ele>1817</ele>
        <time>2026-07-29T12:02:40.716Z</time>
      </trkpt>
      <trkpt lat="45.75426" lon="6.7074">
        <ele>1817</ele>
        <time>2026-07-29T12:02:41.716Z</time>
      </trkpt>
      <trkpt lat="45.75427" lon="6.70739">
        <ele>1816</ele>
        <time>2026-07-29T12:02:42.716Z</time>
      </trkpt>
      <trkpt lat="45.75429" lon="6.70738">
        <ele>1815</ele>
        <time>2026-07-29T12:02:43.716Z</time>
      </trkpt>
      <trkpt lat="45.75431" lon="6.70737">
        <ele>1815</ele>
        <time>2026-07-29T12:02:44.716Z</time>
      </trkpt>
      <trkpt lat="45.75433" lon="6.70735">
        <ele>1814</ele>
        <time>2026-07-29T12:02:45.716Z</time>
      </trkpt>
      <trkpt lat="45.75435" lon="6.70735">
        <ele>1813</ele>
        <time>2026-07-29T12:02:46.716Z</time>
      </trkpt>
      <trkpt lat="45.75436" lon="6.70734">
        <ele>1813</ele>
        <time>2026-07-29T12:02:47.716Z</time>
      </trkpt>
      <trkpt lat="45.75438" lon="6.70733">
        <ele>1813</ele>
        <time>2026-07-29T12:02:48.716Z</time>
      </trkpt>
      <trkpt lat="45.7544" lon="6.70732">
        <ele>1812</ele>
        <time>2026-07-29T12:02:49.716Z</time>
      </trkpt>
      <trkpt lat="45.75441" lon="6.70731">
        <ele>1813</ele>
        <time>2026-07-29T12:02:50.716Z</time>
      </trkpt>
      <trkpt lat="45.75443" lon="6.7073">
        <ele>1813</ele>
        <time>2026-07-29T12:02:51.716Z</time>
      </trkpt>
      <trkpt lat="45.75444" lon="6.70729">
        <ele>1813</ele>
        <time>2026-07-29T12:02:52.716Z</time>
      </trkpt>
      <trkpt lat="45.75446" lon="6.70729">
        <ele>1812</ele>
        <time>2026-07-29T12:02:53.716Z</time>
      </trkpt>
      <trkpt lat="45.75447" lon="6.70728">
        <ele>1812</ele>
        <time>2026-07-29T12:02:54.716Z</time>
      </trkpt>
      <trkpt lat="45.75449" lon="6.70727">
        <ele>1811</ele>
        <time>2026-07-29T12:02:55.716Z</time>
      </trkpt>
      <trkpt lat="45.7545" lon="6.70726">
        <ele>1810</ele>
        <time>2026-07-29T12:02:56.716Z</time>
      </trkpt>
      <trkpt lat="45.75452" lon="6.70726">
        <ele>1809</ele>
        <time>2026-07-29T12:02:57.716Z</time>
      </trkpt>
      <trkpt lat="45.75454" lon="6.70725">
        <ele>1808</ele>
        <time>2026-07-29T12:02:58.716Z</time>
      </trkpt>
      <trkpt lat="45.75456" lon="6.70725">
        <ele>1808</ele>
        <time>2026-07-29T12:02:59.716Z</time>
      </trkpt>
      <trkpt lat="45.75457" lon="6.70725">
        <ele>1807</ele>
        <time>2026-07-29T12:03:00.716Z</time>
      </trkpt>
      <trkpt lat="45.75459" lon="6.70724">
        <ele>1807</ele>
        <time>2026-07-29T12:03:01.716Z</time>
      </trkpt>
      <trkpt lat="45.7546" lon="6.70724">
        <ele>1807</ele>
        <time>2026-07-29T12:03:02.716Z</time>
      </trkpt>
      <trkpt lat="45.75461" lon="6.70724">
        <ele>1806</ele>
        <time>2026-07-29T12:03:03.716Z</time>
      </trkpt>
      <trkpt lat="45.75463" lon="6.70725">
        <ele>1806</ele>
        <time>2026-07-29T12:03:04.716Z</time>
      </trkpt>
      <trkpt lat="45.75465" lon="6.70725">
        <ele>1805</ele>
        <time>2026-07-29T12:03:05.716Z</time>
      </trkpt>
      <trkpt lat="45.75466" lon="6.70725">
        <ele>1805</ele>
        <time>2026-07-29T12:03:06.716Z</time>
      </trkpt>
      <trkpt lat="45.75467" lon="6.70725">
        <ele>1804</ele>
        <time>2026-07-29T12:03:07.716Z</time>
      </trkpt>
      <trkpt lat="45.75469" lon="6.70725">
        <ele>1804</ele>
        <time>2026-07-29T12:03:08.716Z</time>
      </trkpt>
      <trkpt lat="45.7547" lon="6.70724">
        <ele>1803</ele>
        <time>2026-07-29T12:03:09.716Z</time>
      </trkpt>
      <trkpt lat="45.75472" lon="6.70724">
        <ele>1803</ele>
        <time>2026-07-29T12:03:10.716Z</time>
      </trkpt>
      <trkpt lat="45.75474" lon="6.70724">
        <ele>1802</ele>
        <time>2026-07-29T12:03:11.716Z</time>
      </trkpt>
      <trkpt lat="45.75476" lon="6.70723">
        <ele>1802</ele>
        <time>2026-07-29T12:03:12.716Z</time>
      </trkpt>
      <trkpt lat="45.75478" lon="6.70723">
        <ele>1802</ele>
        <time>2026-07-29T12:03:13.716Z</time>
      </trkpt>
      <trkpt lat="45.75481" lon="6.70723">
        <ele>1801</ele>
        <time>2026-07-29T12:03:14.716Z</time>
      </trkpt>
      <trkpt lat="45.75483" lon="6.70723">
        <ele>1801</ele>
        <time>2026-07-29T12:03:15.716Z</time>
      </trkpt>
      <trkpt lat="45.75485" lon="6.70723">
        <ele>1801</ele>
        <time>2026-07-29T12:03:16.716Z</time>
      </trkpt>
      <trkpt lat="45.75487" lon="6.70724">
        <ele>1801</ele>
        <time>2026-07-29T12:03:17.716Z</time>
      </trkpt>
      <trkpt lat="45.75489" lon="6.70725">
        <ele>1800</ele>
        <time>2026-07-29T12:03:18.716Z</time>
      </trkpt>
      <trkpt lat="45.75491" lon="6.70726">
        <ele>1800</ele>
        <time>2026-07-29T12:03:19.716Z</time>
      </trkpt>
      <trkpt lat="45.75492" lon="6.70726">
        <ele>1800</ele>
        <time>2026-07-29T12:03:20.716Z</time>
      </trkpt>
      <trkpt lat="45.75494" lon="6.70727">
        <ele>1800</ele>
        <time>2026-07-29T12:03:21.716Z</time>
      </trkpt>
      <trkpt lat="45.75496" lon="6.70728">
        <ele>1799</ele>
        <time>2026-07-29T12:03:22.716Z</time>
      </trkpt>
      <trkpt lat="45.75497" lon="6.70729">
        <ele>1799</ele>
        <time>2026-07-29T12:03:23.716Z</time>
      </trkpt>
      <trkpt lat="45.75499" lon="6.70729">
        <ele>1799</ele>
        <time>2026-07-29T12:03:24.716Z</time>
      </trkpt>
      <trkpt lat="45.75501" lon="6.7073">
        <ele>1798</ele>
        <time>2026-07-29T12:03:25.716Z</time>
      </trkpt>
      <trkpt lat="45.75502" lon="6.7073">
        <ele>1798</ele>
        <time>2026-07-29T12:03:26.716Z</time>
      </trkpt>
      <trkpt lat="45.75504" lon="6.70729">
        <ele>1797</ele>
        <time>2026-07-29T12:03:27.716Z</time>
      </trkpt>
      <trkpt lat="45.75505" lon="6.70729">
        <ele>1797</ele>
        <time>2026-07-29T12:03:28.716Z</time>
      </trkpt>
      <trkpt lat="45.75506" lon="6.70727">
        <ele>1797</ele>
        <time>2026-07-29T12:03:29.716Z</time>
      </trkpt>
      <trkpt lat="45.75507" lon="6.70726">
        <ele>1796</ele>
        <time>2026-07-29T12:03:30.716Z</time>
      </trkpt>
      <trkpt lat="45.75508" lon="6.70724">
        <ele>1795</ele>
        <time>2026-07-29T12:03:31.716Z</time>
      </trkpt>
      <trkpt lat="45.75508" lon="6.70723">
        <ele>1795</ele>
        <time>2026-07-29T12:03:32.716Z</time>
      </trkpt>
      <trkpt lat="45.75508" lon="6.70722">
        <ele>1794</ele>
        <time>2026-07-29T12:03:33.716Z</time>
      </trkpt>
      <trkpt lat="45.75508" lon="6.70722">
        <ele>1794</ele>
        <time>2026-07-29T12:03:34.716Z</time>
      </trkpt>
      <trkpt lat="45.75508" lon="6.70722">
        <ele>1794</ele>
        <time>2026-07-29T12:03:35.716Z</time>
      </trkpt>
      <trkpt lat="45.75509" lon="6.70721">
        <ele>1794</ele>
        <time>2026-07-29T12:03:36.716Z</time>
      </trkpt>
      <trkpt lat="45.75509" lon="6.70721">
        <ele>1794</ele>
        <time>2026-07-29T12:03:37.716Z</time>
      </trkpt>
      <trkpt lat="45.75509" lon="6.70721">
        <ele>1794</ele>
        <time>2026-07-29T12:03:38.716Z</time>
      </trkpt>
      <trkpt lat="45.75509" lon="6.70721">
        <ele>1794</ele>
        <time>2026-07-29T12:03:39.716Z</time>
      </trkpt>
      <trkpt lat="45.75509" lon="6.7072">
        <ele>1794</ele>
        <time>2026-07-29T12:03:40.716Z</time>
      </trkpt>
      <trkpt lat="45.75509" lon="6.7072">
        <ele>1793</ele>
        <time>2026-07-29T12:03:41.716Z</time>
      </trkpt>
      <trkpt lat="45.75509" lon="6.70721">
        <ele>1793</ele>
        <time>2026-07-29T12:03:42.716Z</time>
      </trkpt>
      <trkpt lat="45.75509" lon="6.70721">
        <ele>1793</ele>
        <time>2026-07-29T12:03:43.716Z</time>
      </trkpt>
      <trkpt lat="45.7551" lon="6.70722">
        <ele>1793</ele>
        <time>2026-07-29T12:03:44.716Z</time>
      </trkpt>
      <trkpt lat="45.75511" lon="6.70723">
        <ele>1793</ele>
        <time>2026-07-29T12:03:45.716Z</time>
      </trkpt>
      <trkpt lat="45.75512" lon="6.70724">
        <ele>1793</ele>
        <time>2026-07-29T12:03:46.716Z</time>
      </trkpt>
      <trkpt lat="45.75513" lon="6.70724">
        <ele>1792</ele>
        <time>2026-07-29T12:03:47.716Z</time>
      </trkpt>
      <trkpt lat="45.75514" lon="6.70725">
        <ele>1791</ele>
        <time>2026-07-29T12:03:48.716Z</time>
      </trkpt>
      <trkpt lat="45.75515" lon="6.70726">
        <ele>1791</ele>
        <time>2026-07-29T12:03:49.716Z</time>
      </trkpt>
      <trkpt lat="45.75516" lon="6.70726">
        <ele>1790</ele>
        <time>2026-07-29T12:03:50.716Z</time>
      </trkpt>
      <trkpt lat="45.75518" lon="6.70727">
        <ele>1790</ele>
        <time>2026-07-29T12:03:51.716Z</time>
      </trkpt>
      <trkpt lat="45.7552" lon="6.70728">
        <ele>1790</ele>
        <time>2026-07-29T12:03:52.716Z</time>
      </trkpt>
      <trkpt lat="45.75521" lon="6.70728">
        <ele>1790</ele>
        <time>2026-07-29T12:03:53.716Z</time>
      </trkpt>
      <trkpt lat="45.75523" lon="6.7073">
        <ele>1790</ele>
        <time>2026-07-29T12:03:54.716Z</time>
      </trkpt>
      <trkpt lat="45.75524" lon="6.70732">
        <ele>1790</ele>
        <time>2026-07-29T12:03:55.716Z</time>
      </trkpt>
      <trkpt lat="45.75525" lon="6.70734">
        <ele>1790</ele>
        <time>2026-07-29T12:03:56.716Z</time>
      </trkpt>
      <trkpt lat="45.75526" lon="6.70735">
        <ele>1790</ele>
        <time>2026-07-29T12:03:57.716Z</time>
      </trkpt>
      <trkpt lat="45.75527" lon="6.70736">
        <ele>1790</ele>
        <time>2026-07-29T12:03:58.716Z</time>
      </trkpt>
      <trkpt lat="45.75529" lon="6.70738">
        <ele>1790</ele>
        <time>2026-07-29T12:03:59.716Z</time>
      </trkpt>
      <trkpt lat="45.75529" lon="6.70739">
        <ele>1790</ele>
        <time>2026-07-29T12:04:00.716Z</time>
      </trkpt>
      <trkpt lat="45.7553" lon="6.70739">
        <ele>1790</ele>
        <time>2026-07-29T12:04:01.716Z</time>
      </trkpt>
      <trkpt lat="45.75531" lon="6.7074">
        <ele>1789</ele>
        <time>2026-07-29T12:04:02.716Z</time>
      </trkpt>
      <trkpt lat="45.75531" lon="6.7074">
        <ele>1789</ele>
        <time>2026-07-29T12:04:03.716Z</time>
      </trkpt>
      <trkpt lat="45.75532" lon="6.70739">
        <ele>1788</ele>
        <time>2026-07-29T12:04:04.716Z</time>
      </trkpt>
      <trkpt lat="45.75532" lon="6.70739">
        <ele>1788</ele>
        <time>2026-07-29T12:04:05.716Z</time>
      </trkpt>
      <trkpt lat="45.75533" lon="6.70739">
        <ele>1787</ele>
        <time>2026-07-29T12:04:06.716Z</time>
      </trkpt>
      <trkpt lat="45.75533" lon="6.70739">
        <ele>1787</ele>
        <time>2026-07-29T12:04:07.716Z</time>
      </trkpt>
      <trkpt lat="45.75534" lon="6.70739">
        <ele>1786</ele>
        <time>2026-07-29T12:04:08.716Z</time>
      </trkpt>
      <trkpt lat="45.75534" lon="6.70739">
        <ele>1786</ele>
        <time>2026-07-29T12:04:09.716Z</time>
      </trkpt>
      <trkpt lat="45.75535" lon="6.7074">
        <ele>1786</ele>
        <time>2026-07-29T12:04:10.716Z</time>
      </trkpt>
      <trkpt lat="45.75536" lon="6.70741">
        <ele>1786</ele>
        <time>2026-07-29T12:04:11.716Z</time>
      </trkpt>
      <trkpt lat="45.75536" lon="6.70743">
        <ele>1786</ele>
        <time>2026-07-29T12:04:12.716Z</time>
      </trkpt>
      <trkpt lat="45.75536" lon="6.70744">
        <ele>1786</ele>
        <time>2026-07-29T12:04:13.716Z</time>
      </trkpt>
      <trkpt lat="45.75535" lon="6.70744">
        <ele>1785</ele>
        <time>2026-07-29T12:04:14.716Z</time>
      </trkpt>
      <trkpt lat="45.75533" lon="6.70745">
        <ele>1785</ele>
        <time>2026-07-29T12:04:15.716Z</time>
      </trkpt>
      <trkpt lat="45.75533" lon="6.70745">
        <ele>1784</ele>
        <time>2026-07-29T12:04:16.716Z</time>
      </trkpt>
      <trkpt lat="45.75532" lon="6.70745">
        <ele>1784</ele>
        <time>2026-07-29T12:04:17.716Z</time>
      </trkpt>
      <trkpt lat="45.75532" lon="6.70745">
        <ele>1783</ele>
        <time>2026-07-29T12:04:18.716Z</time>
      </trkpt>
      <trkpt lat="45.75532" lon="6.70745">
        <ele>1783</ele>
        <time>2026-07-29T12:04:19.716Z</time>
      </trkpt>
      <trkpt lat="45.75532" lon="6.70745">
        <ele>1783</ele>
        <time>2026-07-29T12:04:20.716Z</time>
      </trkpt>
      <trkpt lat="45.75532" lon="6.70745">
        <ele>1782</ele>
        <time>2026-07-29T12:04:21.716Z</time>
      </trkpt>
      <trkpt lat="45.75532" lon="6.70745">
        <ele>1782</ele>
        <time>2026-07-29T12:04:22.716Z</time>
      </trkpt>
      <trkpt lat="45.75532" lon="6.70745">
        <ele>1782</ele>
        <time>2026-07-29T12:04:23.716Z</time>
      </trkpt>
      <trkpt lat="45.75532" lon="6.70746">
        <ele>1782</ele>
        <time>2026-07-29T12:04:24.716Z</time>
      </trkpt>
      <trkpt lat="45.75532" lon="6.70747">
        <ele>1783</ele>
        <time>2026-07-29T12:04:25.716Z</time>
      </trkpt>
      <trkpt lat="45.75533" lon="6.70749">
        <ele>1783</ele>
        <time>2026-07-29T12:04:26.716Z</time>
      </trkpt>
      <trkpt lat="45.75534" lon="6.70751">
        <ele>1783</ele>
        <time>2026-07-29T12:04:27.716Z</time>
      </trkpt>
      <trkpt lat="45.75536" lon="6.70753">
        <ele>1783</ele>
        <time>2026-07-29T12:04:28.716Z</time>
      </trkpt>
      <trkpt lat="45.75537" lon="6.70755">
        <ele>1784</ele>
        <time>2026-07-29T12:04:29.716Z</time>
      </trkpt>
      <trkpt lat="45.75538" lon="6.70757">
        <ele>1784</ele>
        <time>2026-07-29T12:04:30.716Z</time>
      </trkpt>
      <trkpt lat="45.7554" lon="6.70759">
        <ele>1784</ele>
        <time>2026-07-29T12:04:31.716Z</time>
      </trkpt>
      <trkpt lat="45.75541" lon="6.70761">
        <ele>1784</ele>
        <time>2026-07-29T12:04:32.716Z</time>
      </trkpt>
      <trkpt lat="45.75542" lon="6.70763">
        <ele>1784</ele>
        <time>2026-07-29T12:04:33.716Z</time>
      </trkpt>
      <trkpt lat="45.75543" lon="6.70766">
        <ele>1784</ele>
        <time>2026-07-29T12:04:34.716Z</time>
      </trkpt>
      <trkpt lat="45.75544" lon="6.70769">
        <ele>1784</ele>
        <time>2026-07-29T12:04:35.716Z</time>
      </trkpt>
      <trkpt lat="45.75544" lon="6.70771">
        <ele>1784</ele>
        <time>2026-07-29T12:04:36.716Z</time>
      </trkpt>
      <trkpt lat="45.75544" lon="6.70774">
        <ele>1784</ele>
        <time>2026-07-29T12:04:37.716Z</time>
      </trkpt>
      <trkpt lat="45.75544" lon="6.70777">
        <ele>1783</ele>
        <time>2026-07-29T12:04:38.716Z</time>
      </trkpt>
      <trkpt lat="45.75544" lon="6.7078">
        <ele>1783</ele>
        <time>2026-07-29T12:04:39.716Z</time>
      </trkpt>
      <trkpt lat="45.75544" lon="6.70782">
        <ele>1783</ele>
        <time>2026-07-29T12:04:40.716Z</time>
      </trkpt>
      <trkpt lat="45.75544" lon="6.70786">
        <ele>1783</ele>
        <time>2026-07-29T12:04:41.716Z</time>
      </trkpt>
      <trkpt lat="45.75544" lon="6.70789">
        <ele>1783</ele>
        <time>2026-07-29T12:04:42.716Z</time>
      </trkpt>
      <trkpt lat="45.75544" lon="6.70792">
        <ele>1782</ele>
        <time>2026-07-29T12:04:43.716Z</time>
      </trkpt>
      <trkpt lat="45.75545" lon="6.70795">
        <ele>1782</ele>
        <time>2026-07-29T12:04:44.716Z</time>
      </trkpt>
      <trkpt lat="45.75545" lon="6.70797">
        <ele>1782</ele>
        <time>2026-07-29T12:04:45.716Z</time>
      </trkpt>
      <trkpt lat="45.75544" lon="6.70799">
        <ele>1782</ele>
        <time>2026-07-29T12:04:46.716Z</time>
      </trkpt>
      <trkpt lat="45.75544" lon="6.70801">
        <ele>1781</ele>
        <time>2026-07-29T12:04:47.716Z</time>
      </trkpt>
      <trkpt lat="45.75544" lon="6.70803">
        <ele>1781</ele>
        <time>2026-07-29T12:04:48.716Z</time>
      </trkpt>
      <trkpt lat="45.75543" lon="6.70804">
        <ele>1781</ele>
        <time>2026-07-29T12:04:49.716Z</time>
      </trkpt>
      <trkpt lat="45.75542" lon="6.70806">
        <ele>1781</ele>
        <time>2026-07-29T12:04:50.716Z</time>
      </trkpt>
      <trkpt lat="45.75542" lon="6.70808">
        <ele>1781</ele>
        <time>2026-07-29T12:04:51.716Z</time>
      </trkpt>
      <trkpt lat="45.75541" lon="6.70809">
        <ele>1780</ele>
        <time>2026-07-29T12:04:52.716Z</time>
      </trkpt>
      <trkpt lat="45.7554" lon="6.70811">
        <ele>1780</ele>
        <time>2026-07-29T12:04:53.716Z</time>
      </trkpt>
      <trkpt lat="45.75539" lon="6.70813">
        <ele>1780</ele>
        <time>2026-07-29T12:04:54.716Z</time>
      </trkpt>
      <trkpt lat="45.75538" lon="6.70814">
        <ele>1780</ele>
        <time>2026-07-29T12:04:55.716Z</time>
      </trkpt>
      <trkpt lat="45.75537" lon="6.70815">
        <ele>1781</ele>
        <time>2026-07-29T12:04:56.716Z</time>
      </trkpt>
      <trkpt lat="45.75536" lon="6.70816">
        <ele>1781</ele>
        <time>2026-07-29T12:04:57.716Z</time>
      </trkpt>
      <trkpt lat="45.75535" lon="6.70817">
        <ele>1780</ele>
        <time>2026-07-29T12:04:58.716Z</time>
      </trkpt>
      <trkpt lat="45.75534" lon="6.70817">
        <ele>1780</ele>
        <time>2026-07-29T12:04:59.716Z</time>
      </trkpt>
      <trkpt lat="45.75534" lon="6.70818">
        <ele>1780</ele>
        <time>2026-07-29T12:05:00.716Z</time>
      </trkpt>
      <trkpt lat="45.75534" lon="6.70819">
        <ele>1780</ele>
        <time>2026-07-29T12:05:01.716Z</time>
      </trkpt>
      <trkpt lat="45.75535" lon="6.70819">
        <ele>1780</ele>
        <time>2026-07-29T12:05:02.716Z</time>
      </trkpt>
      <trkpt lat="45.75536" lon="6.70819">
        <ele>1780</ele>
        <time>2026-07-29T12:05:03.716Z</time>
      </trkpt>
      <trkpt lat="45.75537" lon="6.7082">
        <ele>1780</ele>
        <time>2026-07-29T12:05:04.716Z</time>
      </trkpt>
      <trkpt lat="45.75538" lon="6.7082">
        <ele>1780</ele>
        <time>2026-07-29T12:05:05.716Z</time>
      </trkpt>
      <trkpt lat="45.75539" lon="6.7082">
        <ele>1780</ele>
        <time>2026-07-29T12:05:06.716Z</time>
      </trkpt>
      <trkpt lat="45.75539" lon="6.70821">
        <ele>1780</ele>
        <time>2026-07-29T12:05:07.716Z</time>
      </trkpt>
      <trkpt lat="45.7554" lon="6.70822">
        <ele>1779</ele>
        <time>2026-07-29T12:05:08.716Z</time>
      </trkpt>
      <trkpt lat="45.75541" lon="6.70822">
        <ele>1780</ele>
        <time>2026-07-29T12:05:09.716Z</time>
      </trkpt>
      <trkpt lat="45.75542" lon="6.70822">
        <ele>1779</ele>
        <time>2026-07-29T12:05:10.716Z</time>
      </trkpt>
      <trkpt lat="45.75543" lon="6.70821">
        <ele>1779</ele>
        <time>2026-07-29T12:05:11.716Z</time>
      </trkpt>
      <trkpt lat="45.75544" lon="6.7082">
        <ele>1779</ele>
        <time>2026-07-29T12:05:12.716Z</time>
      </trkpt>
      <trkpt lat="45.75546" lon="6.70819">
        <ele>1779</ele>
        <time>2026-07-29T12:05:13.716Z</time>
      </trkpt>
      <trkpt lat="45.75547" lon="6.70818">
        <ele>1778</ele>
        <time>2026-07-29T12:05:14.716Z</time>
      </trkpt>
      <trkpt lat="45.75548" lon="6.70817">
        <ele>1778</ele>
        <time>2026-07-29T12:05:15.716Z</time>
      </trkpt>
      <trkpt lat="45.7555" lon="6.70816">
        <ele>1778</ele>
        <time>2026-07-29T12:05:16.716Z</time>
      </trkpt>
      <trkpt lat="45.75551" lon="6.70814">
        <ele>1777</ele>
        <time>2026-07-29T12:05:17.716Z</time>
      </trkpt>
      <trkpt lat="45.75553" lon="6.70813">
        <ele>1777</ele>
        <time>2026-07-29T12:05:18.716Z</time>
      </trkpt>
      <trkpt lat="45.75554" lon="6.70812">
        <ele>1776</ele>
        <time>2026-07-29T12:05:19.716Z</time>
      </trkpt>
      <trkpt lat="45.75556" lon="6.7081">
        <ele>1776</ele>
        <time>2026-07-29T12:05:20.716Z</time>
      </trkpt>
      <trkpt lat="45.75557" lon="6.70808">
        <ele>1776</ele>
        <time>2026-07-29T12:05:21.716Z</time>
      </trkpt>
      <trkpt lat="45.75559" lon="6.70807">
        <ele>1775</ele>
        <time>2026-07-29T12:05:22.716Z</time>
      </trkpt>
      <trkpt lat="45.75561" lon="6.70807">
        <ele>1775</ele>
        <time>2026-07-29T12:05:23.716Z</time>
      </trkpt>
      <trkpt lat="45.75563" lon="6.70808">
        <ele>1775</ele>
        <time>2026-07-29T12:05:24.716Z</time>
      </trkpt>
      <trkpt lat="45.75565" lon="6.70809">
        <ele>1774</ele>
        <time>2026-07-29T12:05:25.716Z</time>
      </trkpt>
      <trkpt lat="45.75567" lon="6.70811">
        <ele>1774</ele>
        <time>2026-07-29T12:05:26.716Z</time>
      </trkpt>
      <trkpt lat="45.75569" lon="6.70813">
        <ele>1774</ele>
        <time>2026-07-29T12:05:27.716Z</time>
      </trkpt>
      <trkpt lat="45.75571" lon="6.70815">
        <ele>1773</ele>
        <time>2026-07-29T12:05:28.716Z</time>
      </trkpt>
      <trkpt lat="45.75573" lon="6.70817">
        <ele>1773</ele>
        <time>2026-07-29T12:05:29.716Z</time>
      </trkpt>
      <trkpt lat="45.75575" lon="6.70818">
        <ele>1772</ele>
        <time>2026-07-29T12:05:30.716Z</time>
      </trkpt>
      <trkpt lat="45.75577" lon="6.7082">
        <ele>1772</ele>
        <time>2026-07-29T12:05:31.716Z</time>
      </trkpt>
      <trkpt lat="45.75579" lon="6.70821">
        <ele>1771</ele>
        <time>2026-07-29T12:05:32.716Z</time>
      </trkpt>
      <trkpt lat="45.75581" lon="6.70823">
        <ele>1771</ele>
        <time>2026-07-29T12:05:33.716Z</time>
      </trkpt>
      <trkpt lat="45.75583" lon="6.70825">
        <ele>1771</ele>
        <time>2026-07-29T12:05:34.716Z</time>
      </trkpt>
      <trkpt lat="45.75585" lon="6.70827">
        <ele>1771</ele>
        <time>2026-07-29T12:05:35.716Z</time>
      </trkpt>
      <trkpt lat="45.75587" lon="6.70829">
        <ele>1771</ele>
        <time>2026-07-29T12:05:36.716Z</time>
      </trkpt>
      <trkpt lat="45.75589" lon="6.70831">
        <ele>1770</ele>
        <time>2026-07-29T12:05:37.716Z</time>
      </trkpt>
      <trkpt lat="45.75591" lon="6.70833">
        <ele>1770</ele>
        <time>2026-07-29T12:05:38.716Z</time>
      </trkpt>
      <trkpt lat="45.75593" lon="6.70835">
        <ele>1769</ele>
        <time>2026-07-29T12:05:39.716Z</time>
      </trkpt>
      <trkpt lat="45.75594" lon="6.70836">
        <ele>1769</ele>
        <time>2026-07-29T12:05:40.716Z</time>
      </trkpt>
      <trkpt lat="45.75596" lon="6.70837">
        <ele>1769</ele>
        <time>2026-07-29T12:05:41.716Z</time>
      </trkpt>
      <trkpt lat="45.75598" lon="6.70839">
        <ele>1768</ele>
        <time>2026-07-29T12:05:42.716Z</time>
      </trkpt>
      <trkpt lat="45.756" lon="6.70841">
        <ele>1768</ele>
        <time>2026-07-29T12:05:43.716Z</time>
      </trkpt>
      <trkpt lat="45.75602" lon="6.70844">
        <ele>1768</ele>
        <time>2026-07-29T12:05:44.716Z</time>
      </trkpt>
      <trkpt lat="45.75603" lon="6.70845">
        <ele>1768</ele>
        <time>2026-07-29T12:05:45.716Z</time>
      </trkpt>
      <trkpt lat="45.75605" lon="6.70847">
        <ele>1768</ele>
        <time>2026-07-29T12:05:46.716Z</time>
      </trkpt>
      <trkpt lat="45.75607" lon="6.70849">
        <ele>1768</ele>
        <time>2026-07-29T12:05:47.716Z</time>
      </trkpt>
      <trkpt lat="45.75609" lon="6.70851">
        <ele>1768</ele>
        <time>2026-07-29T12:05:48.716Z</time>
      </trkpt>
      <trkpt lat="45.75611" lon="6.70854">
        <ele>1768</ele>
        <time>2026-07-29T12:05:49.716Z</time>
      </trkpt>
      <trkpt lat="45.75612" lon="6.70856">
        <ele>1768</ele>
        <time>2026-07-29T12:05:50.716Z</time>
      </trkpt>
      <trkpt lat="45.75614" lon="6.70858">
        <ele>1768</ele>
        <time>2026-07-29T12:05:51.716Z</time>
      </trkpt>
      <trkpt lat="45.75616" lon="6.7086">
        <ele>1767</ele>
        <time>2026-07-29T12:05:52.716Z</time>
      </trkpt>
      <trkpt lat="45.75618" lon="6.70862">
        <ele>1767</ele>
        <time>2026-07-29T12:05:53.716Z</time>
      </trkpt>
      <trkpt lat="45.75619" lon="6.70864">
        <ele>1767</ele>
        <time>2026-07-29T12:05:54.716Z</time>
      </trkpt>
      <trkpt lat="45.75621" lon="6.70866">
        <ele>1767</ele>
        <time>2026-07-29T12:05:55.716Z</time>
      </trkpt>
      <trkpt lat="45.75623" lon="6.70868">
        <ele>1766</ele>
        <time>2026-07-29T12:05:56.716Z</time>
      </trkpt>
      <trkpt lat="45.75624" lon="6.7087">
        <ele>1766</ele>
        <time>2026-07-29T12:05:57.716Z</time>
      </trkpt>
      <trkpt lat="45.75626" lon="6.70872">
        <ele>1766</ele>
        <time>2026-07-29T12:05:58.716Z</time>
      </trkpt>
      <trkpt lat="45.75627" lon="6.70875">
        <ele>1766</ele>
        <time>2026-07-29T12:05:59.716Z</time>
      </trkpt>
      <trkpt lat="45.75629" lon="6.70877">
        <ele>1766</ele>
        <time>2026-07-29T12:06:00.716Z</time>
      </trkpt>
      <trkpt lat="45.7563" lon="6.70879">
        <ele>1766</ele>
        <time>2026-07-29T12:06:01.716Z</time>
      </trkpt>
      <trkpt lat="45.75632" lon="6.70881">
        <ele>1765</ele>
        <time>2026-07-29T12:06:02.716Z</time>
      </trkpt>
      <trkpt lat="45.75633" lon="6.70883">
        <ele>1765</ele>
        <time>2026-07-29T12:06:03.716Z</time>
      </trkpt>
      <trkpt lat="45.75634" lon="6.70885">
        <ele>1765</ele>
        <time>2026-07-29T12:06:04.716Z</time>
      </trkpt>
      <trkpt lat="45.75635" lon="6.70887">
        <ele>1765</ele>
        <time>2026-07-29T12:06:05.716Z</time>
      </trkpt>
      <trkpt lat="45.75636" lon="6.70888">
        <ele>1765</ele>
        <time>2026-07-29T12:06:06.716Z</time>
      </trkpt>
      <trkpt lat="45.75637" lon="6.70889">
        <ele>1764</ele>
        <time>2026-07-29T12:06:07.716Z</time>
      </trkpt>
      <trkpt lat="45.75638" lon="6.7089">
        <ele>1764</ele>
        <time>2026-07-29T12:06:08.716Z</time>
      </trkpt>
      <trkpt lat="45.75638" lon="6.7089">
        <ele>1764</ele>
        <time>2026-07-29T12:06:09.716Z</time>
      </trkpt>
      <trkpt lat="45.75638" lon="6.70891">
        <ele>1764</ele>
        <time>2026-07-29T12:06:10.716Z</time>
      </trkpt>
      <trkpt lat="45.75638" lon="6.70891">
        <ele>1764</ele>
        <time>2026-07-29T12:06:11.716Z</time>
      </trkpt>
      <trkpt lat="45.75639" lon="6.70891">
        <ele>1763</ele>
        <time>2026-07-29T12:06:12.716Z</time>
      </trkpt>
      <trkpt lat="45.75639" lon="6.70892">
        <ele>1763</ele>
        <time>2026-07-29T12:06:13.716Z</time>
      </trkpt>
      <trkpt lat="45.75639" lon="6.70892">
        <ele>1763</ele>
        <time>2026-07-29T12:06:14.716Z</time>
      </trkpt>
      <trkpt lat="45.75639" lon="6.70893">
        <ele>1763</ele>
        <time>2026-07-29T12:06:15.716Z</time>
      </trkpt>
      <trkpt lat="45.7564" lon="6.70894">
        <ele>1762</ele>
        <time>2026-07-29T12:06:16.716Z</time>
      </trkpt>
      <trkpt lat="45.7564" lon="6.70895">
        <ele>1762</ele>
        <time>2026-07-29T12:06:17.716Z</time>
      </trkpt>
      <trkpt lat="45.75641" lon="6.70898">
        <ele>1762</ele>
        <time>2026-07-29T12:06:18.716Z</time>
      </trkpt>
      <trkpt lat="45.75641" lon="6.70899">
        <ele>1761</ele>
        <time>2026-07-29T12:06:19.716Z</time>
      </trkpt>
      <trkpt lat="45.75642" lon="6.70901">
        <ele>1761</ele>
        <time>2026-07-29T12:06:20.716Z</time>
      </trkpt>
      <trkpt lat="45.75643" lon="6.70902">
        <ele>1761</ele>
        <time>2026-07-29T12:06:21.716Z</time>
      </trkpt>
      <trkpt lat="45.75643" lon="6.70903">
        <ele>1761</ele>
        <time>2026-07-29T12:06:22.716Z</time>
      </trkpt>
      <trkpt lat="45.75644" lon="6.70904">
        <ele>1761</ele>
        <time>2026-07-29T12:06:23.716Z</time>
      </trkpt>
      <trkpt lat="45.75644" lon="6.70905">
        <ele>1761</ele>
        <time>2026-07-29T12:06:24.716Z</time>
      </trkpt>
      <trkpt lat="45.75645" lon="6.70907">
        <ele>1761</ele>
        <time>2026-07-29T12:06:25.716Z</time>
      </trkpt>
      <trkpt lat="45.75645" lon="6.70908">
        <ele>1760</ele>
        <time>2026-07-29T12:06:26.716Z</time>
      </trkpt>
      <trkpt lat="45.75645" lon="6.70909">
        <ele>1760</ele>
        <time>2026-07-29T12:06:27.717Z</time>
      </trkpt>
      <trkpt lat="45.75646" lon="6.7091">
        <ele>1759</ele>
        <time>2026-07-29T12:06:28.716Z</time>
      </trkpt>
      <trkpt lat="45.75646" lon="6.70911">
        <ele>1759</ele>
        <time>2026-07-29T12:06:29.716Z</time>
      </trkpt>
      <trkpt lat="45.75647" lon="6.70913">
        <ele>1758</ele>
        <time>2026-07-29T12:06:30.716Z</time>
      </trkpt>
      <trkpt lat="45.75648" lon="6.70914">
        <ele>1758</ele>
        <time>2026-07-29T12:06:31.716Z</time>
      </trkpt>
      <trkpt lat="45.75649" lon="6.70915">
        <ele>1758</ele>
        <time>2026-07-29T12:06:32.716Z</time>
      </trkpt>
      <trkpt lat="45.7565" lon="6.70916">
        <ele>1757</ele>
        <time>2026-07-29T12:06:33.716Z</time>
      </trkpt>
      <trkpt lat="45.75651" lon="6.70917">
        <ele>1757</ele>
        <time>2026-07-29T12:06:34.716Z</time>
      </trkpt>
      <trkpt lat="45.75652" lon="6.70919">
        <ele>1757</ele>
        <time>2026-07-29T12:06:35.716Z</time>
      </trkpt>
      <trkpt lat="45.75653" lon="6.7092">
        <ele>1757</ele>
        <time>2026-07-29T12:06:36.716Z</time>
      </trkpt>
      <trkpt lat="45.75654" lon="6.70922">
        <ele>1757</ele>
        <time>2026-07-29T12:06:37.716Z</time>
      </trkpt>
      <trkpt lat="45.75654" lon="6.70923">
        <ele>1756</ele>
        <time>2026-07-29T12:06:38.716Z</time>
      </trkpt>
      <trkpt lat="45.75655" lon="6.70925">
        <ele>1756</ele>
        <time>2026-07-29T12:06:39.716Z</time>
      </trkpt>
      <trkpt lat="45.75655" lon="6.70926">
        <ele>1756</ele>
        <time>2026-07-29T12:06:40.716Z</time>
      </trkpt>
      <trkpt lat="45.75656" lon="6.70927">
        <ele>1755</ele>
        <time>2026-07-29T12:06:41.716Z</time>
      </trkpt>
      <trkpt lat="45.75657" lon="6.70929">
        <ele>1755</ele>
        <time>2026-07-29T12:06:42.716Z</time>
      </trkpt>
      <trkpt lat="45.75658" lon="6.70931">
        <ele>1755</ele>
        <time>2026-07-29T12:06:43.716Z</time>
      </trkpt>
      <trkpt lat="45.75659" lon="6.70932">
        <ele>1755</ele>
        <time>2026-07-29T12:06:44.716Z</time>
      </trkpt>
      <trkpt lat="45.75659" lon="6.70934">
        <ele>1755</ele>
        <time>2026-07-29T12:06:45.716Z</time>
      </trkpt>
      <trkpt lat="45.75659" lon="6.70935">
        <ele>1754</ele>
        <time>2026-07-29T12:06:46.716Z</time>
      </trkpt>
      <trkpt lat="45.7566" lon="6.70936">
        <ele>1754</ele>
        <time>2026-07-29T12:06:47.716Z</time>
      </trkpt>
      <trkpt lat="45.7566" lon="6.70937">
        <ele>1753</ele>
        <time>2026-07-29T12:06:48.716Z</time>
      </trkpt>
      <trkpt lat="45.75661" lon="6.70938">
        <ele>1753</ele>
        <time>2026-07-29T12:06:49.716Z</time>
      </trkpt>
      <trkpt lat="45.75661" lon="6.70939">
        <ele>1753</ele>
        <time>2026-07-29T12:06:50.716Z</time>
      </trkpt>
      <trkpt lat="45.75662" lon="6.7094">
        <ele>1752</ele>
        <time>2026-07-29T12:06:51.716Z</time>
      </trkpt>
      <trkpt lat="45.75663" lon="6.70941">
        <ele>1752</ele>
        <time>2026-07-29T12:06:52.716Z</time>
      </trkpt>
      <trkpt lat="45.75663" lon="6.70942">
        <ele>1752</ele>
        <time>2026-07-29T12:06:53.716Z</time>
      </trkpt>
      <trkpt lat="45.75664" lon="6.70943">
        <ele>1751</ele>
        <time>2026-07-29T12:06:54.716Z</time>
      </trkpt>
      <trkpt lat="45.75664" lon="6.70943">
        <ele>1751</ele>
        <time>2026-07-29T12:06:55.716Z</time>
      </trkpt>
      <trkpt lat="45.75665" lon="6.70944">
        <ele>1751</ele>
        <time>2026-07-29T12:06:56.716Z</time>
      </trkpt>
      <trkpt lat="45.75666" lon="6.70945">
        <ele>1751</ele>
        <time>2026-07-29T12:06:57.716Z</time>
      </trkpt>
      <trkpt lat="45.75666" lon="6.70947">
        <ele>1750</ele>
        <time>2026-07-29T12:06:58.716Z</time>
      </trkpt>
      <trkpt lat="45.75666" lon="6.70948">
        <ele>1750</ele>
        <time>2026-07-29T12:06:59.716Z</time>
      </trkpt>
      <trkpt lat="45.75667" lon="6.70949">
        <ele>1750</ele>
        <time>2026-07-29T12:07:00.716Z</time>
      </trkpt>
      <trkpt lat="45.75667" lon="6.70951">
        <ele>1751</ele>
        <time>2026-07-29T12:07:01.716Z</time>
      </trkpt>
      <trkpt lat="45.75668" lon="6.70952">
        <ele>1750</ele>
        <time>2026-07-29T12:07:02.716Z</time>
      </trkpt>
      <trkpt lat="45.75669" lon="6.70954">
        <ele>1751</ele>
        <time>2026-07-29T12:07:03.716Z</time>
      </trkpt>
      <trkpt lat="45.75669" lon="6.70955">
        <ele>1750</ele>
        <time>2026-07-29T12:07:04.716Z</time>
      </trkpt>
      <trkpt lat="45.7567" lon="6.70957">
        <ele>1750</ele>
        <time>2026-07-29T12:07:05.716Z</time>
      </trkpt>
      <trkpt lat="45.7567" lon="6.70959">
        <ele>1750</ele>
        <time>2026-07-29T12:07:06.716Z</time>
      </trkpt>
      <trkpt lat="45.75671" lon="6.70961">
        <ele>1750</ele>
        <time>2026-07-29T12:07:07.716Z</time>
      </trkpt>
      <trkpt lat="45.75671" lon="6.70962">
        <ele>1750</ele>
        <time>2026-07-29T12:07:08.716Z</time>
      </trkpt>
      <trkpt lat="45.75672" lon="6.70964">
        <ele>1750</ele>
        <time>2026-07-29T12:07:09.716Z</time>
      </trkpt>
      <trkpt lat="45.75672" lon="6.70966">
        <ele>1750</ele>
        <time>2026-07-29T12:07:10.716Z</time>
      </trkpt>
      <trkpt lat="45.75673" lon="6.70967">
        <ele>1750</ele>
        <time>2026-07-29T12:07:11.717Z</time>
      </trkpt>
      <trkpt lat="45.75673" lon="6.70968">
        <ele>1749</ele>
        <time>2026-07-29T12:07:12.716Z</time>
      </trkpt>
      <trkpt lat="45.75674" lon="6.70969">
        <ele>1749</ele>
        <time>2026-07-29T12:07:13.716Z</time>
      </trkpt>
      <trkpt lat="45.75674" lon="6.7097">
        <ele>1748</ele>
        <time>2026-07-29T12:07:14.716Z</time>
      </trkpt>
      <trkpt lat="45.75675" lon="6.70972">
        <ele>1748</ele>
        <time>2026-07-29T12:07:15.716Z</time>
      </trkpt>
      <trkpt lat="45.75675" lon="6.70974">
        <ele>1747</ele>
        <time>2026-07-29T12:07:16.716Z</time>
      </trkpt>
      <trkpt lat="45.75676" lon="6.70975">
        <ele>1747</ele>
        <time>2026-07-29T12:07:17.716Z</time>
      </trkpt>
      <trkpt lat="45.75677" lon="6.70976">
        <ele>1746</ele>
        <time>2026-07-29T12:07:18.716Z</time>
      </trkpt>
      <trkpt lat="45.75677" lon="6.70977">
        <ele>1745</ele>
        <time>2026-07-29T12:07:19.716Z</time>
      </trkpt>
      <trkpt lat="45.75677" lon="6.70979">
        <ele>1745</ele>
        <time>2026-07-29T12:07:20.716Z</time>
      </trkpt>
      <trkpt lat="45.75678" lon="6.7098">
        <ele>1744</ele>
        <time>2026-07-29T12:07:21.716Z</time>
      </trkpt>
      <trkpt lat="45.75678" lon="6.70981">
        <ele>1744</ele>
        <time>2026-07-29T12:07:22.716Z</time>
      </trkpt>
      <trkpt lat="45.75678" lon="6.70982">
        <ele>1743</ele>
        <time>2026-07-29T12:07:23.716Z</time>
      </trkpt>
      <trkpt lat="45.75678" lon="6.70984">
        <ele>1743</ele>
        <time>2026-07-29T12:07:24.716Z</time>
      </trkpt>
      <trkpt lat="45.75678" lon="6.70985">
        <ele>1743</ele>
        <time>2026-07-29T12:07:25.716Z</time>
      </trkpt>
      <trkpt lat="45.75678" lon="6.70986">
        <ele>1742</ele>
        <time>2026-07-29T12:07:26.716Z</time>
      </trkpt>
      <trkpt lat="45.75678" lon="6.70987">
        <ele>1742</ele>
        <time>2026-07-29T12:07:27.716Z</time>
      </trkpt>
      <trkpt lat="45.75679" lon="6.70988">
        <ele>1742</ele>
        <time>2026-07-29T12:07:28.716Z</time>
      </trkpt>
      <trkpt lat="45.75679" lon="6.70989">
        <ele>1741</ele>
        <time>2026-07-29T12:07:29.716Z</time>
      </trkpt>
      <trkpt lat="45.7568" lon="6.70989">
        <ele>1741</ele>
        <time>2026-07-29T12:07:30.716Z</time>
      </trkpt>
      <trkpt lat="45.75681" lon="6.70989">
        <ele>1741</ele>
        <time>2026-07-29T12:07:31.716Z</time>
      </trkpt>
      <trkpt lat="45.75681" lon="6.70989">
        <ele>1740</ele>
        <time>2026-07-29T12:07:32.716Z</time>
      </trkpt>
      <trkpt lat="45.75681" lon="6.70989">
        <ele>1740</ele>
        <time>2026-07-29T12:07:33.716Z</time>
      </trkpt>
      <trkpt lat="45.75682" lon="6.7099">
        <ele>1740</ele>
        <time>2026-07-29T12:07:34.716Z</time>
      </trkpt>
      <trkpt lat="45.75682" lon="6.7099">
        <ele>1740</ele>
        <time>2026-07-29T12:07:35.716Z</time>
      </trkpt>
      <trkpt lat="45.75683" lon="6.70991">
        <ele>1740</ele>
        <time>2026-07-29T12:07:36.716Z</time>
      </trkpt>
      <trkpt lat="45.75683" lon="6.70992">
        <ele>1739</ele>
        <time>2026-07-29T12:07:37.716Z</time>
      </trkpt>
      <trkpt lat="45.75684" lon="6.70993">
        <ele>1739</ele>
        <time>2026-07-29T12:07:38.716Z</time>
      </trkpt>
      <trkpt lat="45.75684" lon="6.70994">
        <ele>1739</ele>
        <time>2026-07-29T12:07:39.716Z</time>
      </trkpt>
      <trkpt lat="45.75684" lon="6.70995">
        <ele>1739</ele>
        <time>2026-07-29T12:07:40.716Z</time>
      </trkpt>
      <trkpt lat="45.75684" lon="6.70996">
        <ele>1738</ele>
        <time>2026-07-29T12:07:41.716Z</time>
      </trkpt>
      <trkpt lat="45.75684" lon="6.70997">
        <ele>1738</ele>
        <time>2026-07-29T12:07:42.716Z</time>
      </trkpt>
      <trkpt lat="45.75685" lon="6.70997">
        <ele>1737</ele>
        <time>2026-07-29T12:07:43.716Z</time>
      </trkpt>
      <trkpt lat="45.75685" lon="6.70998">
        <ele>1737</ele>
        <time>2026-07-29T12:07:44.716Z</time>
      </trkpt>
      <trkpt lat="45.75686" lon="6.70999">
        <ele>1736</ele>
        <time>2026-07-29T12:07:45.716Z</time>
      </trkpt>
      <trkpt lat="45.75686" lon="6.71">
        <ele>1736</ele>
        <time>2026-07-29T12:07:46.716Z</time>
      </trkpt>
      <trkpt lat="45.75687" lon="6.71002">
        <ele>1736</ele>
        <time>2026-07-29T12:07:47.716Z</time>
      </trkpt>
      <trkpt lat="45.75687" lon="6.71003">
        <ele>1735</ele>
        <time>2026-07-29T12:07:48.716Z</time>
      </trkpt>
      <trkpt lat="45.75687" lon="6.71005">
        <ele>1735</ele>
        <time>2026-07-29T12:07:49.716Z</time>
      </trkpt>
      <trkpt lat="45.75686" lon="6.71006">
        <ele>1735</ele>
        <time>2026-07-29T12:07:50.716Z</time>
      </trkpt>
      <trkpt lat="45.75686" lon="6.71007">
        <ele>1734</ele>
        <time>2026-07-29T12:07:51.716Z</time>
      </trkpt>
      <trkpt lat="45.75685" lon="6.71009">
        <ele>1734</ele>
        <time>2026-07-29T12:07:52.716Z</time>
      </trkpt>
      <trkpt lat="45.75684" lon="6.7101">
        <ele>1733</ele>
        <time>2026-07-29T12:07:53.716Z</time>
      </trkpt>
      <trkpt lat="45.75684" lon="6.71012">
        <ele>1732</ele>
        <time>2026-07-29T12:07:54.716Z</time>
      </trkpt>
      <trkpt lat="45.75684" lon="6.71013">
        <ele>1732</ele>
        <time>2026-07-29T12:07:55.716Z</time>
      </trkpt>
      <trkpt lat="45.75684" lon="6.71014">
        <ele>1731</ele>
        <time>2026-07-29T12:07:56.716Z</time>
      </trkpt>
      <trkpt lat="45.75684" lon="6.71017">
        <ele>1731</ele>
        <time>2026-07-29T12:07:57.716Z</time>
      </trkpt>
      <trkpt lat="45.75684" lon="6.71019">
        <ele>1730</ele>
        <time>2026-07-29T12:07:58.716Z</time>
      </trkpt>
      <trkpt lat="45.75684" lon="6.7102">
        <ele>1730</ele>
        <time>2026-07-29T12:07:59.716Z</time>
      </trkpt>
      <trkpt lat="45.75684" lon="6.71021">
        <ele>1730</ele>
        <time>2026-07-29T12:08:00.716Z</time>
      </trkpt>
      <trkpt lat="45.75685" lon="6.71022">
        <ele>1729</ele>
        <time>2026-07-29T12:08:01.716Z</time>
      </trkpt>
      <trkpt lat="45.75685" lon="6.71023">
        <ele>1729</ele>
        <time>2026-07-29T12:08:02.716Z</time>
      </trkpt>
      <trkpt lat="45.75686" lon="6.71023">
        <ele>1729</ele>
        <time>2026-07-29T12:08:03.716Z</time>
      </trkpt>
      <trkpt lat="45.75686" lon="6.71023">
        <ele>1728</ele>
        <time>2026-07-29T12:08:04.716Z</time>
      </trkpt>
      <trkpt lat="45.75687" lon="6.71022">
        <ele>1728</ele>
        <time>2026-07-29T12:08:05.716Z</time>
      </trkpt>
      <trkpt lat="45.75688" lon="6.71022">
        <ele>1728</ele>
        <time>2026-07-29T12:08:06.716Z</time>
      </trkpt>
      <trkpt lat="45.75688" lon="6.71022">
        <ele>1727</ele>
        <time>2026-07-29T12:08:07.716Z</time>
      </trkpt>
      <trkpt lat="45.75689" lon="6.71022">
        <ele>1727</ele>
        <time>2026-07-29T12:08:08.716Z</time>
      </trkpt>
      <trkpt lat="45.75689" lon="6.71022">
        <ele>1727</ele>
        <time>2026-07-29T12:08:09.716Z</time>
      </trkpt>
      <trkpt lat="45.7569" lon="6.71022">
        <ele>1727</ele>
        <time>2026-07-29T12:08:10.716Z</time>
      </trkpt>
      <trkpt lat="45.75691" lon="6.71023">
        <ele>1727</ele>
        <time>2026-07-29T12:08:11.716Z</time>
      </trkpt>
      <trkpt lat="45.75692" lon="6.71023">
        <ele>1727</ele>
        <time>2026-07-29T12:08:12.716Z</time>
      </trkpt>
      <trkpt lat="45.75693" lon="6.71023">
        <ele>1727</ele>
        <time>2026-07-29T12:08:13.716Z</time>
      </trkpt>
      <trkpt lat="45.75694" lon="6.71023">
        <ele>1727</ele>
        <time>2026-07-29T12:08:14.716Z</time>
      </trkpt>
      <trkpt lat="45.75695" lon="6.71023">
        <ele>1727</ele>
        <time>2026-07-29T12:08:15.716Z</time>
      </trkpt>
      <trkpt lat="45.75695" lon="6.71024">
        <ele>1727</ele>
        <time>2026-07-29T12:08:16.716Z</time>
      </trkpt>
      <trkpt lat="45.75696" lon="6.71025">
        <ele>1727</ele>
        <time>2026-07-29T12:08:17.716Z</time>
      </trkpt>
      <trkpt lat="45.75697" lon="6.71026">
        <ele>1727</ele>
        <time>2026-07-29T12:08:18.716Z</time>
      </trkpt>
      <trkpt lat="45.75698" lon="6.71028">
        <ele>1727</ele>
        <time>2026-07-29T12:08:19.716Z</time>
      </trkpt>
      <trkpt lat="45.75699" lon="6.71029">
        <ele>1726</ele>
        <time>2026-07-29T12:08:20.716Z</time>
      </trkpt>
      <trkpt lat="45.757" lon="6.71031">
        <ele>1726</ele>
        <time>2026-07-29T12:08:21.716Z</time>
      </trkpt>
      <trkpt lat="45.75701" lon="6.71033">
        <ele>1726</ele>
        <time>2026-07-29T12:08:22.716Z</time>
      </trkpt>
      <trkpt lat="45.75702" lon="6.71035">
        <ele>1725</ele>
        <time>2026-07-29T12:08:23.716Z</time>
      </trkpt>
      <trkpt lat="45.75703" lon="6.71037">
        <ele>1725</ele>
        <time>2026-07-29T12:08:24.716Z</time>
      </trkpt>
      <trkpt lat="45.75705" lon="6.71038">
        <ele>1725</ele>
        <time>2026-07-29T12:08:25.716Z</time>
      </trkpt>
      <trkpt lat="45.75706" lon="6.7104">
        <ele>1725</ele>
        <time>2026-07-29T12:08:26.716Z</time>
      </trkpt>
      <trkpt lat="45.75707" lon="6.71041">
        <ele>1725</ele>
        <time>2026-07-29T12:08:27.716Z</time>
      </trkpt>
      <trkpt lat="45.75708" lon="6.71043">
        <ele>1725</ele>
        <time>2026-07-29T12:08:28.716Z</time>
      </trkpt>
      <trkpt lat="45.7571" lon="6.71044">
        <ele>1724</ele>
        <time>2026-07-29T12:08:29.716Z</time>
      </trkpt>
      <trkpt lat="45.75711" lon="6.71046">
        <ele>1724</ele>
        <time>2026-07-29T12:08:30.716Z</time>
      </trkpt>
      <trkpt lat="45.75713" lon="6.71047">
        <ele>1724</ele>
        <time>2026-07-29T12:08:31.716Z</time>
      </trkpt>
      <trkpt lat="45.75715" lon="6.71049">
        <ele>1724</ele>
        <time>2026-07-29T12:08:32.716Z</time>
      </trkpt>
      <trkpt lat="45.75716" lon="6.71052">
        <ele>1723</ele>
        <time>2026-07-29T12:08:33.716Z</time>
      </trkpt>
      <trkpt lat="45.75717" lon="6.71054">
        <ele>1723</ele>
        <time>2026-07-29T12:08:34.716Z</time>
      </trkpt>
      <trkpt lat="45.75719" lon="6.71055">
        <ele>1722</ele>
        <time>2026-07-29T12:08:35.716Z</time>
      </trkpt>
      <trkpt lat="45.75721" lon="6.71057">
        <ele>1721</ele>
        <time>2026-07-29T12:08:36.716Z</time>
      </trkpt>
      <trkpt lat="45.75722" lon="6.71059">
        <ele>1720</ele>
        <time>2026-07-29T12:08:37.716Z</time>
      </trkpt>
      <trkpt lat="45.75724" lon="6.71061">
        <ele>1720</ele>
        <time>2026-07-29T12:08:38.716Z</time>
      </trkpt>
      <trkpt lat="45.75726" lon="6.71062">
        <ele>1719</ele>
        <time>2026-07-29T12:08:39.716Z</time>
      </trkpt>
      <trkpt lat="45.75727" lon="6.71062">
        <ele>1718</ele>
        <time>2026-07-29T12:08:40.716Z</time>
      </trkpt>
      <trkpt lat="45.75729" lon="6.71063">
        <ele>1718</ele>
        <time>2026-07-29T12:08:41.716Z</time>
      </trkpt>
      <trkpt lat="45.75731" lon="6.71063">
        <ele>1717</ele>
        <time>2026-07-29T12:08:42.716Z</time>
      </trkpt>
      <trkpt lat="45.75733" lon="6.71064">
        <ele>1717</ele>
        <time>2026-07-29T12:08:43.716Z</time>
      </trkpt>
      <trkpt lat="45.75734" lon="6.71065">
        <ele>1717</ele>
        <time>2026-07-29T12:08:44.716Z</time>
      </trkpt>
      <trkpt lat="45.75736" lon="6.71066">
        <ele>1716</ele>
        <time>2026-07-29T12:08:45.716Z</time>
      </trkpt>
      <trkpt lat="45.75738" lon="6.71067">
        <ele>1716</ele>
        <time>2026-07-29T12:08:46.716Z</time>
      </trkpt>
      <trkpt lat="45.7574" lon="6.71067">
        <ele>1716</ele>
        <time>2026-07-29T12:08:47.716Z</time>
      </trkpt>
      <trkpt lat="45.75741" lon="6.71068">
        <ele>1716</ele>
        <time>2026-07-29T12:08:48.716Z</time>
      </trkpt>
      <trkpt lat="45.75743" lon="6.7107">
        <ele>1716</ele>
        <time>2026-07-29T12:08:49.716Z</time>
      </trkpt>
      <trkpt lat="45.75745" lon="6.71071">
        <ele>1716</ele>
        <time>2026-07-29T12:08:50.716Z</time>
      </trkpt>
      <trkpt lat="45.75747" lon="6.71073">
        <ele>1716</ele>
        <time>2026-07-29T12:08:51.716Z</time>
      </trkpt>
      <trkpt lat="45.75748" lon="6.71074">
        <ele>1716</ele>
        <time>2026-07-29T12:08:52.716Z</time>
      </trkpt>
      <trkpt lat="45.7575" lon="6.71076">
        <ele>1715</ele>
        <time>2026-07-29T12:08:53.716Z</time>
      </trkpt>
      <trkpt lat="45.75751" lon="6.71077">
        <ele>1715</ele>
        <time>2026-07-29T12:08:54.716Z</time>
      </trkpt>
      <trkpt lat="45.75751" lon="6.71079">
        <ele>1715</ele>
        <time>2026-07-29T12:08:55.716Z</time>
      </trkpt>
      <trkpt lat="45.75752" lon="6.71081">
        <ele>1715</ele>
        <time>2026-07-29T12:08:56.716Z</time>
      </trkpt>
      <trkpt lat="45.75753" lon="6.71083">
        <ele>1714</ele>
        <time>2026-07-29T12:08:57.716Z</time>
      </trkpt>
      <trkpt lat="45.75753" lon="6.71084">
        <ele>1714</ele>
        <time>2026-07-29T12:08:58.716Z</time>
      </trkpt>
      <trkpt lat="45.75752" lon="6.71086">
        <ele>1714</ele>
        <time>2026-07-29T12:08:59.716Z</time>
      </trkpt>
      <trkpt lat="45.75752" lon="6.71087">
        <ele>1714</ele>
        <time>2026-07-29T12:09:00.716Z</time>
      </trkpt>
      <trkpt lat="45.75751" lon="6.71089">
        <ele>1713</ele>
        <time>2026-07-29T12:09:01.716Z</time>
      </trkpt>
      <trkpt lat="45.7575" lon="6.7109">
        <ele>1713</ele>
        <time>2026-07-29T12:09:02.716Z</time>
      </trkpt>
      <trkpt lat="45.75749" lon="6.71091">
        <ele>1713</ele>
        <time>2026-07-29T12:09:03.716Z</time>
      </trkpt>
      <trkpt lat="45.75748" lon="6.71092">
        <ele>1713</ele>
        <time>2026-07-29T12:09:04.716Z</time>
      </trkpt>
      <trkpt lat="45.75747" lon="6.71092">
        <ele>1713</ele>
        <time>2026-07-29T12:09:05.716Z</time>
      </trkpt>
      <trkpt lat="45.75745" lon="6.71092">
        <ele>1713</ele>
        <time>2026-07-29T12:09:06.716Z</time>
      </trkpt>
      <trkpt lat="45.75744" lon="6.71092">
        <ele>1713</ele>
        <time>2026-07-29T12:09:07.716Z</time>
      </trkpt>
      <trkpt lat="45.75743" lon="6.71091">
        <ele>1712</ele>
        <time>2026-07-29T12:09:08.716Z</time>
      </trkpt>
      <trkpt lat="45.75743" lon="6.71091">
        <ele>1712</ele>
        <time>2026-07-29T12:09:09.716Z</time>
      </trkpt>
      <trkpt lat="45.75743" lon="6.71091">
        <ele>1712</ele>
        <time>2026-07-29T12:09:10.716Z</time>
      </trkpt>
      <trkpt lat="45.75744" lon="6.71091">
        <ele>1713</ele>
        <time>2026-07-29T12:09:11.716Z</time>
      </trkpt>
      <trkpt lat="45.75744" lon="6.71092">
        <ele>1713</ele>
        <time>2026-07-29T12:09:12.716Z</time>
      </trkpt>
      <trkpt lat="45.75744" lon="6.71092">
        <ele>1713</ele>
        <time>2026-07-29T12:09:13.716Z</time>
      </trkpt>
      <trkpt lat="45.75744" lon="6.71092">
        <ele>1714</ele>
        <time>2026-07-29T12:09:14.716Z</time>
      </trkpt>
      <trkpt lat="45.75744" lon="6.71092">
        <ele>1714</ele>
        <time>2026-07-29T12:09:15.716Z</time>
      </trkpt>
      <trkpt lat="45.75744" lon="6.71092">
        <ele>1714</ele>
        <time>2026-07-29T12:09:16.716Z</time>
      </trkpt>
      <trkpt lat="45.75743" lon="6.71092">
        <ele>1714</ele>
        <time>2026-07-29T12:09:17.716Z</time>
      </trkpt>
      <trkpt lat="45.75743" lon="6.71091">
        <ele>1714</ele>
        <time>2026-07-29T12:09:18.716Z</time>
      </trkpt>
      <trkpt lat="45.75743" lon="6.71091">
        <ele>1714</ele>
        <time>2026-07-29T12:09:19.716Z</time>
      </trkpt>
      <trkpt lat="45.75743" lon="6.71091">
        <ele>1714</ele>
        <time>2026-07-29T12:09:20.716Z</time>
      </trkpt>
      <trkpt lat="45.75743" lon="6.71091">
        <ele>1714</ele>
        <time>2026-07-29T12:09:21.716Z</time>
      </trkpt>
      <trkpt lat="45.75743" lon="6.71091">
        <ele>1714</ele>
        <time>2026-07-29T12:09:22.716Z</time>
      </trkpt>
      <trkpt lat="45.75743" lon="6.71091">
        <ele>1713</ele>
        <time>2026-07-29T12:09:23.716Z</time>
      </trkpt>
      <trkpt lat="45.75743" lon="6.71091">
        <ele>1713</ele>
        <time>2026-07-29T12:09:24.716Z</time>
      </trkpt>
      <trkpt lat="45.75743" lon="6.71091">
        <ele>1713</ele>
        <time>2026-07-29T12:09:25.716Z</time>
      </trkpt>
      <trkpt lat="45.75743" lon="6.71091">
        <ele>1712</ele>
        <time>2026-07-29T12:09:26.716Z</time>
      </trkpt>
      <trkpt lat="45.75743" lon="6.71091">
        <ele>1712</ele>
        <time>2026-07-29T12:09:27.716Z</time>
      </trkpt>
      <trkpt lat="45.75743" lon="6.71091">
        <ele>1712</ele>
        <time>2026-07-29T12:09:28.716Z</time>
      </trkpt>
      <trkpt lat="45.75743" lon="6.71091">
        <ele>1711</ele>
        <time>2026-07-29T12:09:29.716Z</time>
      </trkpt>
      <trkpt lat="45.75743" lon="6.71091">
        <ele>1711</ele>
        <time>2026-07-29T12:09:30.716Z</time>
      </trkpt>
      <trkpt lat="45.75743" lon="6.71091">
        <ele>1711</ele>
        <time>2026-07-29T12:09:31.716Z</time>
      </trkpt>
      <trkpt lat="45.75743" lon="6.71091">
        <ele>1711</ele>
        <time>2026-07-29T12:09:32.716Z</time>
      </trkpt>
      <trkpt lat="45.75743" lon="6.71091">
        <ele>1711</ele>
        <time>2026-07-29T12:09:33.716Z</time>
      </trkpt>
      <trkpt lat="45.75743" lon="6.71091">
        <ele>1710</ele>
        <time>2026-07-29T12:09:34.716Z</time>
      </trkpt>
      <trkpt lat="45.75743" lon="6.71091">
        <ele>1710</ele>
        <time>2026-07-29T12:09:35.716Z</time>
      </trkpt>
      <trkpt lat="45.75743" lon="6.71091">
        <ele>1710</ele>
        <time>2026-07-29T12:09:36.716Z</time>
      </trkpt>
      <trkpt lat="45.75743" lon="6.71091">
        <ele>1710</ele>
        <time>2026-07-29T12:09:37.716Z</time>
      </trkpt>
      <trkpt lat="45.75743" lon="6.71091">
        <ele>1710</ele>
        <time>2026-07-29T12:09:38.717Z</time>
      </trkpt>
      <trkpt lat="45.75743" lon="6.71091">
        <ele>1710</ele>
        <time>2026-07-29T12:09:39.716Z</time>
      </trkpt>
      <trkpt lat="45.75743" lon="6.71091">
        <ele>1710</ele>
        <time>2026-07-29T12:09:40.716Z</time>
      </trkpt>
      <trkpt lat="45.75743" lon="6.71091">
        <ele>1710</ele>
        <time>2026-07-29T12:09:41.716Z</time>
      </trkpt>
      <trkpt lat="45.75743" lon="6.71091">
        <ele>1710</ele>
        <time>2026-07-29T12:09:42.716Z</time>
      </trkpt>
      <trkpt lat="45.75743" lon="6.71091">
        <ele>1710</ele>
        <time>2026-07-29T12:09:43.716Z</time>
      </trkpt>
      <trkpt lat="45.75743" lon="6.71091">
        <ele>1710</ele>
        <time>2026-07-29T12:09:44.716Z</time>
      </trkpt>
      <trkpt lat="45.75743" lon="6.7109">
        <ele>1710</ele>
        <time>2026-07-29T12:09:45.716Z</time>
      </trkpt>
      <trkpt lat="45.75743" lon="6.7109">
        <ele>1710</ele>
        <time>2026-07-29T12:09:46.716Z</time>
      </trkpt>
      <trkpt lat="45.75743" lon="6.7109">
        <ele>1710</ele>
        <time>2026-07-29T12:09:47.716Z</time>
      </trkpt>
      <trkpt lat="45.75743" lon="6.71089">
        <ele>1710</ele>
        <time>2026-07-29T12:09:48.716Z</time>
      </trkpt>
      <trkpt lat="45.75743" lon="6.71089">
        <ele>1710</ele>
        <time>2026-07-29T12:09:49.716Z</time>
      </trkpt>
      <trkpt lat="45.75743" lon="6.71089">
        <ele>1710</ele>
        <time>2026-07-29T12:09:50.716Z</time>
      </trkpt>
      <trkpt lat="45.75743" lon="6.71089">
        <ele>1710</ele>
        <time>2026-07-29T12:09:51.716Z</time>
      </trkpt>
      <trkpt lat="45.75743" lon="6.71089">
        <ele>1710</ele>
        <time>2026-07-29T12:09:52.716Z</time>
      </trkpt>
      <trkpt lat="45.75743" lon="6.71089">
        <ele>1710</ele>
        <time>2026-07-29T12:09:53.716Z</time>
      </trkpt>
      <trkpt lat="45.75743" lon="6.71089">
        <ele>1710</ele>
        <time>2026-07-29T12:09:54.716Z</time>
      </trkpt>
      <trkpt lat="45.75743" lon="6.71089">
        <ele>1710</ele>
        <time>2026-07-29T12:09:55.716Z</time>
      </trkpt>
      <trkpt lat="45.75743" lon="6.71089">
        <ele>1710</ele>
        <time>2026-07-29T12:09:56.716Z</time>
      </trkpt>
      <trkpt lat="45.75743" lon="6.71089">
        <ele>1710</ele>
        <time>2026-07-29T12:09:57.716Z</time>
      </trkpt>
      <trkpt lat="45.75743" lon="6.71089">
        <ele>1710</ele>
        <time>2026-07-29T12:09:58.716Z</time>
      </trkpt>
      <trkpt lat="45.75743" lon="6.71089">
        <ele>1710</ele>
        <time>2026-07-29T12:09:59.716Z</time>
      </trkpt>
      <trkpt lat="45.75743" lon="6.71089">
        <ele>1710</ele>
        <time>2026-07-29T12:10:00.716Z</time>
      </trkpt>
      <trkpt lat="45.75743" lon="6.71089">
        <ele>1710</ele>
        <time>2026-07-29T12:10:01.716Z</time>
      </trkpt>
      <trkpt lat="45.75743" lon="6.71089">
        <ele>1710</ele>
        <time>2026-07-29T12:10:02.716Z</time>
      </trkpt>
      <trkpt lat="45.75743" lon="6.71089">
        <ele>1710</ele>
        <time>2026-07-29T12:10:03.716Z</time>
      </trkpt>
      <trkpt lat="45.75743" lon="6.71089">
        <ele>1710</ele>
        <time>2026-07-29T12:10:04.716Z</time>
      </trkpt>
      <trkpt lat="45.75743" lon="6.71089">
        <ele>1710</ele>
        <time>2026-07-29T12:10:05.716Z</time>
      </trkpt>
      <trkpt lat="45.75743" lon="6.71089">
        <ele>1710</ele>
        <time>2026-07-29T12:10:06.716Z</time>
      </trkpt>
      <trkpt lat="45.75743" lon="6.71089">
        <ele>1710</ele>
        <time>2026-07-29T12:10:07.716Z</time>
      </trkpt>
      <trkpt lat="45.75743" lon="6.71089">
        <ele>1710</ele>
        <time>2026-07-29T12:10:08.716Z</time>
      </trkpt>
      <trkpt lat="45.75743" lon="6.71089">
        <ele>1710</ele>
        <time>2026-07-29T12:10:09.716Z</time>
      </trkpt>
      <trkpt lat="45.75743" lon="6.71089">
        <ele>1710</ele>
        <time>2026-07-29T12:10:10.716Z</time>
      </trkpt>
      <trkpt lat="45.75743" lon="6.71089">
        <ele>1710</ele>
        <time>2026-07-29T12:10:11.716Z</time>
      </trkpt>
      <trkpt lat="45.75743" lon="6.71089">
        <ele>1710</ele>
        <time>2026-07-29T12:10:12.716Z</time>
      </trkpt>
      <trkpt lat="45.75743" lon="6.71089">
        <ele>1710</ele>
        <time>2026-07-29T12:10:13.716Z</time>
      </trkpt>
      <trkpt lat="45.75743" lon="6.71089">
        <ele>1710</ele>
        <time>2026-07-29T12:10:14.716Z</time>
      </trkpt>
      <trkpt lat="45.75743" lon="6.71089">
        <ele>1710</ele>
        <time>2026-07-29T12:10:15.716Z</time>
      </trkpt>
      <trkpt lat="45.75743" lon="6.71089">
        <ele>1710</ele>
        <time>2026-07-29T12:10:16.716Z</time>
      </trkpt>
      <trkpt lat="45.75744" lon="6.71089">
        <ele>1710</ele>
        <time>2026-07-29T12:10:17.716Z</time>
      </trkpt>
      <trkpt lat="45.75744" lon="6.71089">
        <ele>1710</ele>
        <time>2026-07-29T12:10:18.716Z</time>
      </trkpt>
      <trkpt lat="45.75744" lon="6.71089">
        <ele>1710</ele>
        <time>2026-07-29T12:10:19.716Z</time>
      </trkpt>
      <trkpt lat="45.75744" lon="6.71089">
        <ele>1710</ele>
        <time>2026-07-29T12:10:20.716Z</time>
      </trkpt>
      <trkpt lat="45.75744" lon="6.71089">
        <ele>1710</ele>
        <time>2026-07-29T12:10:21.716Z</time>
      </trkpt>
      <trkpt lat="45.75744" lon="6.71089">
        <ele>1710</ele>
        <time>2026-07-29T12:10:22.716Z</time>
      </trkpt>
      <trkpt lat="45.75744" lon="6.71089">
        <ele>1710</ele>
        <time>2026-07-29T12:10:23.716Z</time>
      </trkpt>
      <trkpt lat="45.75744" lon="6.71089">
        <ele>1710</ele>
        <time>2026-07-29T12:10:24.716Z</time>
      </trkpt>
      <trkpt lat="45.75744" lon="6.71089">
        <ele>1710</ele>
        <time>2026-07-29T12:10:25.716Z</time>
      </trkpt>
      <trkpt lat="45.75744" lon="6.71089">
        <ele>1710</ele>
        <time>2026-07-29T12:10:26.716Z</time>
      </trkpt>
      <trkpt lat="45.75744" lon="6.71089">
        <ele>1710</ele>
        <time>2026-07-29T12:10:27.716Z</time>
      </trkpt>
      <trkpt lat="45.75744" lon="6.71089">
        <ele>1710</ele>
        <time>2026-07-29T12:10:28.716Z</time>
      </trkpt>
      <trkpt lat="45.75744" lon="6.71089">
        <ele>1710</ele>
        <time>2026-07-29T12:10:29.716Z</time>
      </trkpt>
      <trkpt lat="45.75744" lon="6.71089">
        <ele>1710</ele>
        <time>2026-07-29T12:10:30.716Z</time>
      </trkpt>
      <trkpt lat="45.75744" lon="6.71089">
        <ele>1710</ele>
        <time>2026-07-29T12:10:31.716Z</time>
      </trkpt>
      <trkpt lat="45.75744" lon="6.71089">
        <ele>1710</ele>
        <time>2026-07-29T12:10:32.716Z</time>
      </trkpt>
      <trkpt lat="45.75744" lon="6.71089">
        <ele>1710</ele>
        <time>2026-07-29T12:10:33.716Z</time>
      </trkpt>
      <trkpt lat="45.75744" lon="6.71089">
        <ele>1710</ele>
        <time>2026-07-29T12:10:34.716Z</time>
      </trkpt>
      <trkpt lat="45.75744" lon="6.71089">
        <ele>1710</ele>
        <time>2026-07-29T12:10:35.716Z</time>
      </trkpt>
      <trkpt lat="45.75744" lon="6.71089">
        <ele>1710</ele>
        <time>2026-07-29T12:10:36.716Z</time>
      </trkpt>
      <trkpt lat="45.75744" lon="6.71089">
        <ele>1710</ele>
        <time>2026-07-29T12:10:37.716Z</time>
      </trkpt>
      <trkpt lat="45.75744" lon="6.71089">
        <ele>1710</ele>
        <time>2026-07-29T12:10:38.716Z</time>
      </trkpt>
      <trkpt lat="45.75744" lon="6.71089">
        <ele>1710</ele>
        <time>2026-07-29T12:10:39.716Z</time>
      </trkpt>
      <trkpt lat="45.75744" lon="6.71089">
        <ele>1710</ele>
        <time>2026-07-29T12:10:40.716Z</time>
      </trkpt>
      <trkpt lat="45.75744" lon="6.71089">
        <ele>1710</ele>
        <time>2026-07-29T12:10:41.716Z</time>
      </trkpt>
      <trkpt lat="45.75744" lon="6.71089">
        <ele>1710</ele>
        <time>2026-07-29T12:10:42.716Z</time>
      </trkpt>
      <trkpt lat="45.75744" lon="6.71089">
        <ele>1710</ele>
        <time>2026-07-29T12:10:43.716Z</time>
      </trkpt>
      <trkpt lat="45.75744" lon="6.71088">
        <ele>1710</ele>
        <time>2026-07-29T12:10:44.716Z</time>
      </trkpt>
      <trkpt lat="45.75744" lon="6.71088">
        <ele>1710</ele>
        <time>2026-07-29T12:10:45.716Z</time>
      </trkpt>
      <trkpt lat="45.75745" lon="6.71087">
        <ele>1710</ele>
        <time>2026-07-29T12:10:46.716Z</time>
      </trkpt>
      <trkpt lat="45.75747" lon="6.71087">
        <ele>1710</ele>
        <time>2026-07-29T12:10:47.716Z</time>
      </trkpt>
      <trkpt lat="45.75749" lon="6.71087">
        <ele>1710</ele>
        <time>2026-07-29T12:10:48.716Z</time>
      </trkpt>
      <trkpt lat="45.75751" lon="6.71088">
        <ele>1710</ele>
        <time>2026-07-29T12:10:49.716Z</time>
      </trkpt>
      <trkpt lat="45.75752" lon="6.71089">
        <ele>1710</ele>
        <time>2026-07-29T12:10:50.716Z</time>
      </trkpt>
      <trkpt lat="45.75754" lon="6.7109">
        <ele>1710</ele>
        <time>2026-07-29T12:10:51.716Z</time>
      </trkpt>
      <trkpt lat="45.75756" lon="6.71091">
        <ele>1710</ele>
        <time>2026-07-29T12:10:52.716Z</time>
      </trkpt>
      <trkpt lat="45.75758" lon="6.71093">
        <ele>1710</ele>
        <time>2026-07-29T12:10:53.716Z</time>
      </trkpt>
      <trkpt lat="45.75761" lon="6.71094">
        <ele>1710</ele>
        <time>2026-07-29T12:10:54.716Z</time>
      </trkpt>
      <trkpt lat="45.75763" lon="6.71096">
        <ele>1711</ele>
        <time>2026-07-29T12:10:55.716Z</time>
      </trkpt>
      <trkpt lat="45.75765" lon="6.71098">
        <ele>1711</ele>
        <time>2026-07-29T12:10:56.716Z</time>
      </trkpt>
      <trkpt lat="45.75767" lon="6.711">
        <ele>1711</ele>
        <time>2026-07-29T12:10:57.716Z</time>
      </trkpt>
      <trkpt lat="45.75769" lon="6.71102">
        <ele>1711</ele>
        <time>2026-07-29T12:10:58.716Z</time>
      </trkpt>
      <trkpt lat="45.75771" lon="6.71103">
        <ele>1711</ele>
        <time>2026-07-29T12:10:59.716Z</time>
      </trkpt>
      <trkpt lat="45.75773" lon="6.71104">
        <ele>1711</ele>
        <time>2026-07-29T12:11:00.716Z</time>
      </trkpt>
      <trkpt lat="45.75775" lon="6.71106">
        <ele>1710</ele>
        <time>2026-07-29T12:11:01.716Z</time>
      </trkpt>
      <trkpt lat="45.75776" lon="6.71108">
        <ele>1710</ele>
        <time>2026-07-29T12:11:02.716Z</time>
      </trkpt>
      <trkpt lat="45.75778" lon="6.71109">
        <ele>1709</ele>
        <time>2026-07-29T12:11:03.716Z</time>
      </trkpt>
      <trkpt lat="45.7578" lon="6.7111">
        <ele>1709</ele>
        <time>2026-07-29T12:11:04.716Z</time>
      </trkpt>
      <trkpt lat="45.75782" lon="6.71111">
        <ele>1709</ele>
        <time>2026-07-29T12:11:05.716Z</time>
      </trkpt>
      <trkpt lat="45.75785" lon="6.71111">
        <ele>1708</ele>
        <time>2026-07-29T12:11:06.716Z</time>
      </trkpt>
      <trkpt lat="45.75787" lon="6.71111">
        <ele>1708</ele>
        <time>2026-07-29T12:11:07.716Z</time>
      </trkpt>
      <trkpt lat="45.75789" lon="6.7111">
        <ele>1708</ele>
        <time>2026-07-29T12:11:08.716Z</time>
      </trkpt>
      <trkpt lat="45.75792" lon="6.7111">
        <ele>1707</ele>
        <time>2026-07-29T12:11:09.716Z</time>
      </trkpt>
      <trkpt lat="45.75794" lon="6.71108">
        <ele>1707</ele>
        <time>2026-07-29T12:11:10.716Z</time>
      </trkpt>
      <trkpt lat="45.75796" lon="6.71106">
        <ele>1706</ele>
        <time>2026-07-29T12:11:11.716Z</time>
      </trkpt>
      <trkpt lat="45.75798" lon="6.71105">
        <ele>1706</ele>
        <time>2026-07-29T12:11:12.716Z</time>
      </trkpt>
      <trkpt lat="45.758" lon="6.71102">
        <ele>1706</ele>
        <time>2026-07-29T12:11:13.716Z</time>
      </trkpt>
      <trkpt lat="45.75801" lon="6.71099">
        <ele>1705</ele>
        <time>2026-07-29T12:11:14.716Z</time>
      </trkpt>
      <trkpt lat="45.75802" lon="6.71096">
        <ele>1705</ele>
        <time>2026-07-29T12:11:15.716Z</time>
      </trkpt>
      <trkpt lat="45.75802" lon="6.71093">
        <ele>1705</ele>
        <time>2026-07-29T12:11:16.716Z</time>
      </trkpt>
      <trkpt lat="45.75802" lon="6.7109">
        <ele>1704</ele>
        <time>2026-07-29T12:11:17.716Z</time>
      </trkpt>
      <trkpt lat="45.75803" lon="6.71087">
        <ele>1704</ele>
        <time>2026-07-29T12:11:18.716Z</time>
      </trkpt>
      <trkpt lat="45.75803" lon="6.71084">
        <ele>1704</ele>
        <time>2026-07-29T12:11:19.716Z</time>
      </trkpt>
      <trkpt lat="45.75804" lon="6.71082">
        <ele>1703</ele>
        <time>2026-07-29T12:11:20.716Z</time>
      </trkpt>
      <trkpt lat="45.75804" lon="6.71079">
        <ele>1703</ele>
        <time>2026-07-29T12:11:21.716Z</time>
      </trkpt>
      <trkpt lat="45.75805" lon="6.71076">
        <ele>1703</ele>
        <time>2026-07-29T12:11:22.716Z</time>
      </trkpt>
      <trkpt lat="45.75807" lon="6.71074">
        <ele>1702</ele>
        <time>2026-07-29T12:11:23.716Z</time>
      </trkpt>
      <trkpt lat="45.75808" lon="6.71073">
        <ele>1702</ele>
        <time>2026-07-29T12:11:24.716Z</time>
      </trkpt>
      <trkpt lat="45.7581" lon="6.71072">
        <ele>1702</ele>
        <time>2026-07-29T12:11:25.716Z</time>
      </trkpt>
      <trkpt lat="45.75812" lon="6.71071">
        <ele>1701</ele>
        <time>2026-07-29T12:11:26.716Z</time>
      </trkpt>
      <trkpt lat="45.75814" lon="6.71071">
        <ele>1701</ele>
        <time>2026-07-29T12:11:27.716Z</time>
      </trkpt>
      <trkpt lat="45.75815" lon="6.7107">
        <ele>1701</ele>
        <time>2026-07-29T12:11:28.716Z</time>
      </trkpt>
      <trkpt lat="45.75817" lon="6.71069">
        <ele>1701</ele>
        <time>2026-07-29T12:11:29.716Z</time>
      </trkpt>
      <trkpt lat="45.75819" lon="6.71069">
        <ele>1701</ele>
        <time>2026-07-29T12:11:30.716Z</time>
      </trkpt>
      <trkpt lat="45.75821" lon="6.71069">
        <ele>1701</ele>
        <time>2026-07-29T12:11:31.716Z</time>
      </trkpt>
      <trkpt lat="45.75823" lon="6.71069">
        <ele>1700</ele>
        <time>2026-07-29T12:11:32.716Z</time>
      </trkpt>
      <trkpt lat="45.75825" lon="6.71069">
        <ele>1701</ele>
        <time>2026-07-29T12:11:33.716Z</time>
      </trkpt>
      <trkpt lat="45.75827" lon="6.71069">
        <ele>1701</ele>
        <time>2026-07-29T12:11:34.716Z</time>
      </trkpt>
      <trkpt lat="45.75828" lon="6.71069">
        <ele>1701</ele>
        <time>2026-07-29T12:11:35.716Z</time>
      </trkpt>
      <trkpt lat="45.7583" lon="6.7107">
        <ele>1701</ele>
        <time>2026-07-29T12:11:36.716Z</time>
      </trkpt>
      <trkpt lat="45.75832" lon="6.71071">
        <ele>1700</ele>
        <time>2026-07-29T12:11:37.716Z</time>
      </trkpt>
      <trkpt lat="45.75834" lon="6.71071">
        <ele>1700</ele>
        <time>2026-07-29T12:11:38.716Z</time>
      </trkpt>
      <trkpt lat="45.75835" lon="6.71072">
        <ele>1700</ele>
        <time>2026-07-29T12:11:39.716Z</time>
      </trkpt>
      <trkpt lat="45.75837" lon="6.71072">
        <ele>1699</ele>
        <time>2026-07-29T12:11:40.716Z</time>
      </trkpt>
      <trkpt lat="45.75839" lon="6.71072">
        <ele>1699</ele>
        <time>2026-07-29T12:11:41.716Z</time>
      </trkpt>
      <trkpt lat="45.75841" lon="6.71073">
        <ele>1699</ele>
        <time>2026-07-29T12:11:42.716Z</time>
      </trkpt>
      <trkpt lat="45.75843" lon="6.71074">
        <ele>1699</ele>
        <time>2026-07-29T12:11:43.716Z</time>
      </trkpt>
      <trkpt lat="45.75845" lon="6.71075">
        <ele>1698</ele>
        <time>2026-07-29T12:11:44.716Z</time>
      </trkpt>
      <trkpt lat="45.75847" lon="6.71075">
        <ele>1698</ele>
        <time>2026-07-29T12:11:45.716Z</time>
      </trkpt>
      <trkpt lat="45.75849" lon="6.71076">
        <ele>1697</ele>
        <time>2026-07-29T12:11:46.716Z</time>
      </trkpt>
      <trkpt lat="45.75852" lon="6.71076">
        <ele>1697</ele>
        <time>2026-07-29T12:11:47.716Z</time>
      </trkpt>
      <trkpt lat="45.75854" lon="6.71075">
        <ele>1697</ele>
        <time>2026-07-29T12:11:48.716Z</time>
      </trkpt>
      <trkpt lat="45.75856" lon="6.71074">
        <ele>1696</ele>
        <time>2026-07-29T12:11:49.716Z</time>
      </trkpt>
      <trkpt lat="45.75858" lon="6.71073">
        <ele>1696</ele>
        <time>2026-07-29T12:11:50.716Z</time>
      </trkpt>
      <trkpt lat="45.7586" lon="6.71072">
        <ele>1695</ele>
        <time>2026-07-29T12:11:51.716Z</time>
      </trkpt>
      <trkpt lat="45.75863" lon="6.71071">
        <ele>1695</ele>
        <time>2026-07-29T12:11:52.716Z</time>
      </trkpt>
      <trkpt lat="45.75865" lon="6.7107">
        <ele>1694</ele>
        <time>2026-07-29T12:11:53.716Z</time>
      </trkpt>
      <trkpt lat="45.75867" lon="6.71069">
        <ele>1694</ele>
        <time>2026-07-29T12:11:54.716Z</time>
      </trkpt>
      <trkpt lat="45.75869" lon="6.71069">
        <ele>1693</ele>
        <time>2026-07-29T12:11:55.716Z</time>
      </trkpt>
      <trkpt lat="45.75872" lon="6.71068">
        <ele>1693</ele>
        <time>2026-07-29T12:11:56.716Z</time>
      </trkpt>
      <trkpt lat="45.75874" lon="6.71067">
        <ele>1693</ele>
        <time>2026-07-29T12:11:57.716Z</time>
      </trkpt>
      <trkpt lat="45.75877" lon="6.71065">
        <ele>1693</ele>
        <time>2026-07-29T12:11:58.716Z</time>
      </trkpt>
      <trkpt lat="45.75878" lon="6.71064">
        <ele>1692</ele>
        <time>2026-07-29T12:11:59.716Z</time>
      </trkpt>
      <trkpt lat="45.7588" lon="6.71062">
        <ele>1692</ele>
        <time>2026-07-29T12:12:00.716Z</time>
      </trkpt>
      <trkpt lat="45.75882" lon="6.71059">
        <ele>1692</ele>
        <time>2026-07-29T12:12:01.716Z</time>
      </trkpt>
      <trkpt lat="45.75884" lon="6.71057">
        <ele>1691</ele>
        <time>2026-07-29T12:12:02.716Z</time>
      </trkpt>
      <trkpt lat="45.75885" lon="6.71054">
        <ele>1691</ele>
        <time>2026-07-29T12:12:03.716Z</time>
      </trkpt>
      <trkpt lat="45.75886" lon="6.71051">
        <ele>1690</ele>
        <time>2026-07-29T12:12:04.716Z</time>
      </trkpt>
      <trkpt lat="45.75888" lon="6.71049">
        <ele>1690</ele>
        <time>2026-07-29T12:12:05.716Z</time>
      </trkpt>
      <trkpt lat="45.75889" lon="6.71047">
        <ele>1689</ele>
        <time>2026-07-29T12:12:06.716Z</time>
      </trkpt>
      <trkpt lat="45.7589" lon="6.71045">
        <ele>1689</ele>
        <time>2026-07-29T12:12:07.716Z</time>
      </trkpt>
      <trkpt lat="45.75892" lon="6.71043">
        <ele>1689</ele>
        <time>2026-07-29T12:12:08.716Z</time>
      </trkpt>
      <trkpt lat="45.75893" lon="6.71042">
        <ele>1689</ele>
        <time>2026-07-29T12:12:09.716Z</time>
      </trkpt>
      <trkpt lat="45.75895" lon="6.71041">
        <ele>1688</ele>
        <time>2026-07-29T12:12:10.716Z</time>
      </trkpt>
      <trkpt lat="45.75896" lon="6.71041">
        <ele>1688</ele>
        <time>2026-07-29T12:12:11.716Z</time>
      </trkpt>
      <trkpt lat="45.75898" lon="6.71042">
        <ele>1688</ele>
        <time>2026-07-29T12:12:12.716Z</time>
      </trkpt>
      <trkpt lat="45.75899" lon="6.71042">
        <ele>1687</ele>
        <time>2026-07-29T12:12:13.716Z</time>
      </trkpt>
      <trkpt lat="45.75901" lon="6.71043">
        <ele>1687</ele>
        <time>2026-07-29T12:12:14.716Z</time>
      </trkpt>
      <trkpt lat="45.75903" lon="6.71043">
        <ele>1687</ele>
        <time>2026-07-29T12:12:15.716Z</time>
      </trkpt>
      <trkpt lat="45.75905" lon="6.71044">
        <ele>1687</ele>
        <time>2026-07-29T12:12:16.716Z</time>
      </trkpt>
      <trkpt lat="45.75907" lon="6.71044">
        <ele>1687</ele>
        <time>2026-07-29T12:12:17.716Z</time>
      </trkpt>
      <trkpt lat="45.75909" lon="6.71045">
        <ele>1686</ele>
        <time>2026-07-29T12:12:18.716Z</time>
      </trkpt>
      <trkpt lat="45.75911" lon="6.71046">
        <ele>1686</ele>
        <time>2026-07-29T12:12:19.716Z</time>
      </trkpt>
      <trkpt lat="45.75913" lon="6.71047">
        <ele>1686</ele>
        <time>2026-07-29T12:12:20.716Z</time>
      </trkpt>
      <trkpt lat="45.75915" lon="6.71048">
        <ele>1685</ele>
        <time>2026-07-29T12:12:21.716Z</time>
      </trkpt>
      <trkpt lat="45.75917" lon="6.71049">
        <ele>1685</ele>
        <time>2026-07-29T12:12:22.716Z</time>
      </trkpt>
      <trkpt lat="45.75919" lon="6.7105">
        <ele>1685</ele>
        <time>2026-07-29T12:12:23.716Z</time>
      </trkpt>
      <trkpt lat="45.75921" lon="6.71052">
        <ele>1684</ele>
        <time>2026-07-29T12:12:24.716Z</time>
      </trkpt>
      <trkpt lat="45.75923" lon="6.71053">
        <ele>1684</ele>
        <time>2026-07-29T12:12:25.716Z</time>
      </trkpt>
      <trkpt lat="45.75925" lon="6.71054">
        <ele>1684</ele>
        <time>2026-07-29T12:12:26.716Z</time>
      </trkpt>
      <trkpt lat="45.75927" lon="6.71056">
        <ele>1683</ele>
        <time>2026-07-29T12:12:27.716Z</time>
      </trkpt>
      <trkpt lat="45.75929" lon="6.71057">
        <ele>1683</ele>
        <time>2026-07-29T12:12:28.716Z</time>
      </trkpt>
      <trkpt lat="45.7593" lon="6.71059">
        <ele>1682</ele>
        <time>2026-07-29T12:12:29.716Z</time>
      </trkpt>
      <trkpt lat="45.75932" lon="6.7106">
        <ele>1682</ele>
        <time>2026-07-29T12:12:30.716Z</time>
      </trkpt>
      <trkpt lat="45.75933" lon="6.71062">
        <ele>1681</ele>
        <time>2026-07-29T12:12:31.716Z</time>
      </trkpt>
      <trkpt lat="45.75935" lon="6.71063">
        <ele>1681</ele>
        <time>2026-07-29T12:12:32.716Z</time>
      </trkpt>
      <trkpt lat="45.75937" lon="6.71065">
        <ele>1681</ele>
        <time>2026-07-29T12:12:33.716Z</time>
      </trkpt>
      <trkpt lat="45.75939" lon="6.71066">
        <ele>1680</ele>
        <time>2026-07-29T12:12:34.716Z</time>
      </trkpt>
      <trkpt lat="45.7594" lon="6.71068">
        <ele>1680</ele>
        <time>2026-07-29T12:12:35.716Z</time>
      </trkpt>
      <trkpt lat="45.75942" lon="6.7107">
        <ele>1679</ele>
        <time>2026-07-29T12:12:36.716Z</time>
      </trkpt>
      <trkpt lat="45.75943" lon="6.71072">
        <ele>1678</ele>
        <time>2026-07-29T12:12:37.716Z</time>
      </trkpt>
      <trkpt lat="45.75945" lon="6.71073">
        <ele>1678</ele>
        <time>2026-07-29T12:12:38.716Z</time>
      </trkpt>
      <trkpt lat="45.75946" lon="6.71075">
        <ele>1677</ele>
        <time>2026-07-29T12:12:39.716Z</time>
      </trkpt>
      <trkpt lat="45.75947" lon="6.71077">
        <ele>1677</ele>
        <time>2026-07-29T12:12:40.716Z</time>
      </trkpt>
      <trkpt lat="45.75948" lon="6.71078">
        <ele>1677</ele>
        <time>2026-07-29T12:12:41.716Z</time>
      </trkpt>
      <trkpt lat="45.75949" lon="6.7108">
        <ele>1676</ele>
        <time>2026-07-29T12:12:42.716Z</time>
      </trkpt>
      <trkpt lat="45.75951" lon="6.71081">
        <ele>1676</ele>
        <time>2026-07-29T12:12:43.716Z</time>
      </trkpt>
      <trkpt lat="45.75952" lon="6.71083">
        <ele>1676</ele>
        <time>2026-07-29T12:12:44.716Z</time>
      </trkpt>
      <trkpt lat="45.75954" lon="6.71084">
        <ele>1676</ele>
        <time>2026-07-29T12:12:45.716Z</time>
      </trkpt>
      <trkpt lat="45.75956" lon="6.71085">
        <ele>1676</ele>
        <time>2026-07-29T12:12:46.716Z</time>
      </trkpt>
      <trkpt lat="45.75958" lon="6.71087">
        <ele>1676</ele>
        <time>2026-07-29T12:12:47.716Z</time>
      </trkpt>
      <trkpt lat="45.7596" lon="6.71088">
        <ele>1676</ele>
        <time>2026-07-29T12:12:48.716Z</time>
      </trkpt>
      <trkpt lat="45.75962" lon="6.71088">
        <ele>1675</ele>
        <time>2026-07-29T12:12:49.716Z</time>
      </trkpt>
      <trkpt lat="45.75964" lon="6.71088">
        <ele>1675</ele>
        <time>2026-07-29T12:12:50.716Z</time>
      </trkpt>
      <trkpt lat="45.75966" lon="6.71089">
        <ele>1674</ele>
        <time>2026-07-29T12:12:51.716Z</time>
      </trkpt>
      <trkpt lat="45.75967" lon="6.71089">
        <ele>1674</ele>
        <time>2026-07-29T12:12:52.716Z</time>
      </trkpt>
      <trkpt lat="45.75968" lon="6.71089">
        <ele>1674</ele>
        <time>2026-07-29T12:12:53.716Z</time>
      </trkpt>
      <trkpt lat="45.75969" lon="6.7109">
        <ele>1674</ele>
        <time>2026-07-29T12:12:54.716Z</time>
      </trkpt>
      <trkpt lat="45.7597" lon="6.71091">
        <ele>1674</ele>
        <time>2026-07-29T12:12:55.716Z</time>
      </trkpt>
      <trkpt lat="45.75971" lon="6.71092">
        <ele>1673</ele>
        <time>2026-07-29T12:12:56.716Z</time>
      </trkpt>
      <trkpt lat="45.75972" lon="6.71093">
        <ele>1673</ele>
        <time>2026-07-29T12:12:57.716Z</time>
      </trkpt>
      <trkpt lat="45.75973" lon="6.71094">
        <ele>1673</ele>
        <time>2026-07-29T12:12:58.716Z</time>
      </trkpt>
      <trkpt lat="45.75973" lon="6.71094">
        <ele>1673</ele>
        <time>2026-07-29T12:12:59.716Z</time>
      </trkpt>
      <trkpt lat="45.75974" lon="6.71095">
        <ele>1673</ele>
        <time>2026-07-29T12:13:00.716Z</time>
      </trkpt>
      <trkpt lat="45.75975" lon="6.71096">
        <ele>1673</ele>
        <time>2026-07-29T12:13:01.716Z</time>
      </trkpt>
      <trkpt lat="45.75976" lon="6.71097">
        <ele>1672</ele>
        <time>2026-07-29T12:13:02.716Z</time>
      </trkpt>
      <trkpt lat="45.75977" lon="6.71098">
        <ele>1672</ele>
        <time>2026-07-29T12:13:03.716Z</time>
      </trkpt>
      <trkpt lat="45.75978" lon="6.71098">
        <ele>1672</ele>
        <time>2026-07-29T12:13:04.716Z</time>
      </trkpt>
      <trkpt lat="45.75979" lon="6.71099">
        <ele>1672</ele>
        <time>2026-07-29T12:13:05.716Z</time>
      </trkpt>
      <trkpt lat="45.7598" lon="6.711">
        <ele>1672</ele>
        <time>2026-07-29T12:13:06.716Z</time>
      </trkpt>
      <trkpt lat="45.75981" lon="6.711">
        <ele>1671</ele>
        <time>2026-07-29T12:13:07.716Z</time>
      </trkpt>
      <trkpt lat="45.75981" lon="6.711">
        <ele>1671</ele>
        <time>2026-07-29T12:13:08.716Z</time>
      </trkpt>
      <trkpt lat="45.75983" lon="6.71101">
        <ele>1672</ele>
        <time>2026-07-29T12:13:09.716Z</time>
      </trkpt>
      <trkpt lat="45.75984" lon="6.71101">
        <ele>1672</ele>
        <time>2026-07-29T12:13:10.716Z</time>
      </trkpt>
      <trkpt lat="45.75984" lon="6.71103">
        <ele>1672</ele>
        <time>2026-07-29T12:13:11.716Z</time>
      </trkpt>
      <trkpt lat="45.75985" lon="6.71104">
        <ele>1671</ele>
        <time>2026-07-29T12:13:12.716Z</time>
      </trkpt>
      <trkpt lat="45.75986" lon="6.71104">
        <ele>1671</ele>
        <time>2026-07-29T12:13:13.716Z</time>
      </trkpt>
      <trkpt lat="45.75987" lon="6.71105">
        <ele>1671</ele>
        <time>2026-07-29T12:13:14.716Z</time>
      </trkpt>
      <trkpt lat="45.75988" lon="6.71106">
        <ele>1671</ele>
        <time>2026-07-29T12:13:15.716Z</time>
      </trkpt>
      <trkpt lat="45.75989" lon="6.71108">
        <ele>1671</ele>
        <time>2026-07-29T12:13:16.716Z</time>
      </trkpt>
      <trkpt lat="45.7599" lon="6.71109">
        <ele>1671</ele>
        <time>2026-07-29T12:13:17.716Z</time>
      </trkpt>
      <trkpt lat="45.75991" lon="6.7111">
        <ele>1671</ele>
        <time>2026-07-29T12:13:18.716Z</time>
      </trkpt>
      <trkpt lat="45.75993" lon="6.7111">
        <ele>1671</ele>
        <time>2026-07-29T12:13:19.716Z</time>
      </trkpt>
      <trkpt lat="45.75994" lon="6.71111">
        <ele>1670</ele>
        <time>2026-07-29T12:13:20.716Z</time>
      </trkpt>
      <trkpt lat="45.75995" lon="6.71111">
        <ele>1670</ele>
        <time>2026-07-29T12:13:21.716Z</time>
      </trkpt>
      <trkpt lat="45.75996" lon="6.71112">
        <ele>1670</ele>
        <time>2026-07-29T12:13:22.716Z</time>
      </trkpt>
      <trkpt lat="45.75998" lon="6.71113">
        <ele>1670</ele>
        <time>2026-07-29T12:13:23.716Z</time>
      </trkpt>
      <trkpt lat="45.75999" lon="6.71114">
        <ele>1670</ele>
        <time>2026-07-29T12:13:24.716Z</time>
      </trkpt>
      <trkpt lat="45.76" lon="6.71115">
        <ele>1671</ele>
        <time>2026-07-29T12:13:25.716Z</time>
      </trkpt>
      <trkpt lat="45.76002" lon="6.71115">
        <ele>1671</ele>
        <time>2026-07-29T12:13:26.716Z</time>
      </trkpt>
      <trkpt lat="45.76003" lon="6.71114">
        <ele>1670</ele>
        <time>2026-07-29T12:13:27.716Z</time>
      </trkpt>
      <trkpt lat="45.76004" lon="6.71114">
        <ele>1670</ele>
        <time>2026-07-29T12:13:28.716Z</time>
      </trkpt>
      <trkpt lat="45.76006" lon="6.71114">
        <ele>1669</ele>
        <time>2026-07-29T12:13:29.716Z</time>
      </trkpt>
      <trkpt lat="45.76008" lon="6.71114">
        <ele>1669</ele>
        <time>2026-07-29T12:13:30.716Z</time>
      </trkpt>
      <trkpt lat="45.76009" lon="6.71114">
        <ele>1668</ele>
        <time>2026-07-29T12:13:31.716Z</time>
      </trkpt>
      <trkpt lat="45.76011" lon="6.71115">
        <ele>1667</ele>
        <time>2026-07-29T12:13:32.716Z</time>
      </trkpt>
      <trkpt lat="45.76014" lon="6.71116">
        <ele>1667</ele>
        <time>2026-07-29T12:13:33.716Z</time>
      </trkpt>
      <trkpt lat="45.76015" lon="6.71117">
        <ele>1666</ele>
        <time>2026-07-29T12:13:34.716Z</time>
      </trkpt>
      <trkpt lat="45.76017" lon="6.71117">
        <ele>1665</ele>
        <time>2026-07-29T12:13:35.716Z</time>
      </trkpt>
      <trkpt lat="45.76019" lon="6.71117">
        <ele>1665</ele>
        <time>2026-07-29T12:13:36.716Z</time>
      </trkpt>
      <trkpt lat="45.7602" lon="6.71117">
        <ele>1664</ele>
        <time>2026-07-29T12:13:37.716Z</time>
      </trkpt>
      <trkpt lat="45.76021" lon="6.71116">
        <ele>1664</ele>
        <time>2026-07-29T12:13:38.716Z</time>
      </trkpt>
      <trkpt lat="45.76022" lon="6.71116">
        <ele>1664</ele>
        <time>2026-07-29T12:13:39.716Z</time>
      </trkpt>
      <trkpt lat="45.76023" lon="6.71116">
        <ele>1664</ele>
        <time>2026-07-29T12:13:40.716Z</time>
      </trkpt>
      <trkpt lat="45.76024" lon="6.71116">
        <ele>1664</ele>
        <time>2026-07-29T12:13:41.716Z</time>
      </trkpt>
      <trkpt lat="45.76026" lon="6.71116">
        <ele>1664</ele>
        <time>2026-07-29T12:13:42.716Z</time>
      </trkpt>
      <trkpt lat="45.76028" lon="6.71116">
        <ele>1663</ele>
        <time>2026-07-29T12:13:43.716Z</time>
      </trkpt>
      <trkpt lat="45.76029" lon="6.71115">
        <ele>1663</ele>
        <time>2026-07-29T12:13:44.716Z</time>
      </trkpt>
      <trkpt lat="45.76031" lon="6.71113">
        <ele>1662</ele>
        <time>2026-07-29T12:13:45.716Z</time>
      </trkpt>
      <trkpt lat="45.76033" lon="6.71112">
        <ele>1661</ele>
        <time>2026-07-29T12:13:46.716Z</time>
      </trkpt>
      <trkpt lat="45.76036" lon="6.71111">
        <ele>1661</ele>
        <time>2026-07-29T12:13:47.716Z</time>
      </trkpt>
      <trkpt lat="45.76038" lon="6.7111">
        <ele>1660</ele>
        <time>2026-07-29T12:13:48.716Z</time>
      </trkpt>
      <trkpt lat="45.7604" lon="6.71108">
        <ele>1659</ele>
        <time>2026-07-29T12:13:49.716Z</time>
      </trkpt>
      <trkpt lat="45.76041" lon="6.71107">
        <ele>1659</ele>
        <time>2026-07-29T12:13:50.716Z</time>
      </trkpt>
      <trkpt lat="45.76042" lon="6.71105">
        <ele>1658</ele>
        <time>2026-07-29T12:13:51.716Z</time>
      </trkpt>
      <trkpt lat="45.76044" lon="6.71104">
        <ele>1658</ele>
        <time>2026-07-29T12:13:52.716Z</time>
      </trkpt>
      <trkpt lat="45.76046" lon="6.71103">
        <ele>1658</ele>
        <time>2026-07-29T12:13:53.716Z</time>
      </trkpt>
      <trkpt lat="45.76047" lon="6.71103">
        <ele>1657</ele>
        <time>2026-07-29T12:13:54.716Z</time>
      </trkpt>
      <trkpt lat="45.76049" lon="6.71102">
        <ele>1657</ele>
        <time>2026-07-29T12:13:55.716Z</time>
      </trkpt>
      <trkpt lat="45.76051" lon="6.71102">
        <ele>1656</ele>
        <time>2026-07-29T12:13:56.716Z</time>
      </trkpt>
      <trkpt lat="45.76053" lon="6.71101">
        <ele>1656</ele>
        <time>2026-07-29T12:13:57.716Z</time>
      </trkpt>
      <trkpt lat="45.76054" lon="6.71101">
        <ele>1656</ele>
        <time>2026-07-29T12:13:58.716Z</time>
      </trkpt>
      <trkpt lat="45.76056" lon="6.71101">
        <ele>1655</ele>
        <time>2026-07-29T12:13:59.716Z</time>
      </trkpt>
      <trkpt lat="45.76058" lon="6.711">
        <ele>1655</ele>
        <time>2026-07-29T12:14:00.716Z</time>
      </trkpt>
      <trkpt lat="45.7606" lon="6.711">
        <ele>1654</ele>
        <time>2026-07-29T12:14:01.716Z</time>
      </trkpt>
      <trkpt lat="45.76062" lon="6.711">
        <ele>1654</ele>
        <time>2026-07-29T12:14:02.716Z</time>
      </trkpt>
      <trkpt lat="45.76064" lon="6.71099">
        <ele>1653</ele>
        <time>2026-07-29T12:14:03.716Z</time>
      </trkpt>
      <trkpt lat="45.76067" lon="6.71099">
        <ele>1652</ele>
        <time>2026-07-29T12:14:04.716Z</time>
      </trkpt>
      <trkpt lat="45.76069" lon="6.71098">
        <ele>1651</ele>
        <time>2026-07-29T12:14:05.716Z</time>
      </trkpt>
      <trkpt lat="45.76071" lon="6.71097">
        <ele>1650</ele>
        <time>2026-07-29T12:14:06.716Z</time>
      </trkpt>
      <trkpt lat="45.76073" lon="6.71097">
        <ele>1649</ele>
        <time>2026-07-29T12:14:07.716Z</time>
      </trkpt>
      <trkpt lat="45.76075" lon="6.71096">
        <ele>1648</ele>
        <time>2026-07-29T12:14:08.716Z</time>
      </trkpt>
      <trkpt lat="45.76078" lon="6.71095">
        <ele>1648</ele>
        <time>2026-07-29T12:14:09.716Z</time>
      </trkpt>
      <trkpt lat="45.7608" lon="6.71095">
        <ele>1647</ele>
        <time>2026-07-29T12:14:10.716Z</time>
      </trkpt>
      <trkpt lat="45.76082" lon="6.71094">
        <ele>1647</ele>
        <time>2026-07-29T12:14:11.716Z</time>
      </trkpt>
      <trkpt lat="45.76084" lon="6.71093">
        <ele>1646</ele>
        <time>2026-07-29T12:14:12.716Z</time>
      </trkpt>
      <trkpt lat="45.76086" lon="6.71092">
        <ele>1645</ele>
        <time>2026-07-29T12:14:13.716Z</time>
      </trkpt>
      <trkpt lat="45.76088" lon="6.71092">
        <ele>1645</ele>
        <time>2026-07-29T12:14:14.716Z</time>
      </trkpt>
      <trkpt lat="45.76091" lon="6.71092">
        <ele>1644</ele>
        <time>2026-07-29T12:14:15.716Z</time>
      </trkpt>
      <trkpt lat="45.76093" lon="6.71091">
        <ele>1644</ele>
        <time>2026-07-29T12:14:16.716Z</time>
      </trkpt>
      <trkpt lat="45.76095" lon="6.71091">
        <ele>1643</ele>
        <time>2026-07-29T12:14:17.716Z</time>
      </trkpt>
      <trkpt lat="45.76097" lon="6.71092">
        <ele>1643</ele>
        <time>2026-07-29T12:14:18.716Z</time>
      </trkpt>
      <trkpt lat="45.76099" lon="6.71093">
        <ele>1642</ele>
        <time>2026-07-29T12:14:19.716Z</time>
      </trkpt>
      <trkpt lat="45.76101" lon="6.71093">
        <ele>1641</ele>
        <time>2026-07-29T12:14:20.716Z</time>
      </trkpt>
      <trkpt lat="45.76103" lon="6.71095">
        <ele>1641</ele>
        <time>2026-07-29T12:14:21.716Z</time>
      </trkpt>
      <trkpt lat="45.76105" lon="6.71096">
        <ele>1640</ele>
        <time>2026-07-29T12:14:22.716Z</time>
      </trkpt>
      <trkpt lat="45.76106" lon="6.71097">
        <ele>1640</ele>
        <time>2026-07-29T12:14:23.716Z</time>
      </trkpt>
      <trkpt lat="45.76108" lon="6.71098">
        <ele>1639</ele>
        <time>2026-07-29T12:14:24.716Z</time>
      </trkpt>
      <trkpt lat="45.7611" lon="6.711">
        <ele>1639</ele>
        <time>2026-07-29T12:14:25.716Z</time>
      </trkpt>
      <trkpt lat="45.76112" lon="6.711">
        <ele>1639</ele>
        <time>2026-07-29T12:14:26.716Z</time>
      </trkpt>
      <trkpt lat="45.76114" lon="6.71101">
        <ele>1638</ele>
        <time>2026-07-29T12:14:27.716Z</time>
      </trkpt>
      <trkpt lat="45.76115" lon="6.71102">
        <ele>1638</ele>
        <time>2026-07-29T12:14:28.716Z</time>
      </trkpt>
      <trkpt lat="45.76117" lon="6.71103">
        <ele>1637</ele>
        <time>2026-07-29T12:14:29.716Z</time>
      </trkpt>
      <trkpt lat="45.76119" lon="6.71105">
        <ele>1637</ele>
        <time>2026-07-29T12:14:30.716Z</time>
      </trkpt>
      <trkpt lat="45.76121" lon="6.71106">
        <ele>1637</ele>
        <time>2026-07-29T12:14:31.716Z</time>
      </trkpt>
      <trkpt lat="45.76122" lon="6.71108">
        <ele>1637</ele>
        <time>2026-07-29T12:14:32.716Z</time>
      </trkpt>
      <trkpt lat="45.76124" lon="6.71109">
        <ele>1636</ele>
        <time>2026-07-29T12:14:33.716Z</time>
      </trkpt>
      <trkpt lat="45.76126" lon="6.71111">
        <ele>1636</ele>
        <time>2026-07-29T12:14:34.716Z</time>
      </trkpt>
      <trkpt lat="45.76128" lon="6.71113">
        <ele>1635</ele>
        <time>2026-07-29T12:14:35.716Z</time>
      </trkpt>
      <trkpt lat="45.76129" lon="6.71114">
        <ele>1635</ele>
        <time>2026-07-29T12:14:36.716Z</time>
      </trkpt>
      <trkpt lat="45.76131" lon="6.71115">
        <ele>1634</ele>
        <time>2026-07-29T12:14:37.716Z</time>
      </trkpt>
      <trkpt lat="45.76133" lon="6.71117">
        <ele>1633</ele>
        <time>2026-07-29T12:14:38.716Z</time>
      </trkpt>
      <trkpt lat="45.76135" lon="6.71118">
        <ele>1633</ele>
        <time>2026-07-29T12:14:39.716Z</time>
      </trkpt>
      <trkpt lat="45.76137" lon="6.71119">
        <ele>1633</ele>
        <time>2026-07-29T12:14:40.716Z</time>
      </trkpt>
      <trkpt lat="45.76139" lon="6.71121">
        <ele>1633</ele>
        <time>2026-07-29T12:14:41.716Z</time>
      </trkpt>
      <trkpt lat="45.7614" lon="6.71122">
        <ele>1632</ele>
        <time>2026-07-29T12:14:42.716Z</time>
      </trkpt>
      <trkpt lat="45.76142" lon="6.71123">
        <ele>1632</ele>
        <time>2026-07-29T12:14:43.716Z</time>
      </trkpt>
      <trkpt lat="45.76144" lon="6.71125">
        <ele>1632</ele>
        <time>2026-07-29T12:14:44.716Z</time>
      </trkpt>
      <trkpt lat="45.76146" lon="6.71126">
        <ele>1631</ele>
        <time>2026-07-29T12:14:45.716Z</time>
      </trkpt>
      <trkpt lat="45.76148" lon="6.71127">
        <ele>1631</ele>
        <time>2026-07-29T12:14:46.716Z</time>
      </trkpt>
      <trkpt lat="45.7615" lon="6.71127">
        <ele>1630</ele>
        <time>2026-07-29T12:14:47.716Z</time>
      </trkpt>
      <trkpt lat="45.76152" lon="6.71127">
        <ele>1630</ele>
        <time>2026-07-29T12:14:48.716Z</time>
      </trkpt>
      <trkpt lat="45.76154" lon="6.71126">
        <ele>1630</ele>
        <time>2026-07-29T12:14:49.716Z</time>
      </trkpt>
      <trkpt lat="45.76156" lon="6.71127">
        <ele>1629</ele>
        <time>2026-07-29T12:14:50.716Z</time>
      </trkpt>
      <trkpt lat="45.76158" lon="6.71127">
        <ele>1629</ele>
        <time>2026-07-29T12:14:51.716Z</time>
      </trkpt>
      <trkpt lat="45.7616" lon="6.71127">
        <ele>1629</ele>
        <time>2026-07-29T12:14:52.716Z</time>
      </trkpt>
      <trkpt lat="45.76162" lon="6.71127">
        <ele>1629</ele>
        <time>2026-07-29T12:14:53.716Z</time>
      </trkpt>
      <trkpt lat="45.76164" lon="6.71127">
        <ele>1628</ele>
        <time>2026-07-29T12:14:54.716Z</time>
      </trkpt>
      <trkpt lat="45.76166" lon="6.71127">
        <ele>1628</ele>
        <time>2026-07-29T12:14:55.716Z</time>
      </trkpt>
      <trkpt lat="45.76168" lon="6.71127">
        <ele>1628</ele>
        <time>2026-07-29T12:14:56.716Z</time>
      </trkpt>
      <trkpt lat="45.7617" lon="6.71128">
        <ele>1628</ele>
        <time>2026-07-29T12:14:57.716Z</time>
      </trkpt>
      <trkpt lat="45.76172" lon="6.71128">
        <ele>1628</ele>
        <time>2026-07-29T12:14:58.716Z</time>
      </trkpt>
      <trkpt lat="45.76174" lon="6.71129">
        <ele>1627</ele>
        <time>2026-07-29T12:14:59.716Z</time>
      </trkpt>
      <trkpt lat="45.76176" lon="6.7113">
        <ele>1627</ele>
        <time>2026-07-29T12:15:00.716Z</time>
      </trkpt>
      <trkpt lat="45.76177" lon="6.71131">
        <ele>1627</ele>
        <time>2026-07-29T12:15:01.716Z</time>
      </trkpt>
      <trkpt lat="45.76179" lon="6.71131">
        <ele>1626</ele>
        <time>2026-07-29T12:15:02.716Z</time>
      </trkpt>
      <trkpt lat="45.76181" lon="6.71131">
        <ele>1626</ele>
        <time>2026-07-29T12:15:03.716Z</time>
      </trkpt>
      <trkpt lat="45.76183" lon="6.71131">
        <ele>1626</ele>
        <time>2026-07-29T12:15:04.716Z</time>
      </trkpt>
      <trkpt lat="45.76185" lon="6.71132">
        <ele>1625</ele>
        <time>2026-07-29T12:15:05.716Z</time>
      </trkpt>
      <trkpt lat="45.76187" lon="6.71132">
        <ele>1624</ele>
        <time>2026-07-29T12:15:06.716Z</time>
      </trkpt>
      <trkpt lat="45.76189" lon="6.71132">
        <ele>1624</ele>
        <time>2026-07-29T12:15:07.716Z</time>
      </trkpt>
      <trkpt lat="45.76191" lon="6.71132">
        <ele>1624</ele>
        <time>2026-07-29T12:15:08.716Z</time>
      </trkpt>
      <trkpt lat="45.76192" lon="6.71132">
        <ele>1623</ele>
        <time>2026-07-29T12:15:09.716Z</time>
      </trkpt>
      <trkpt lat="45.76194" lon="6.71131">
        <ele>1623</ele>
        <time>2026-07-29T12:15:10.716Z</time>
      </trkpt>
      <trkpt lat="45.76195" lon="6.71131">
        <ele>1622</ele>
        <time>2026-07-29T12:15:11.716Z</time>
      </trkpt>
      <trkpt lat="45.76196" lon="6.71131">
        <ele>1622</ele>
        <time>2026-07-29T12:15:12.716Z</time>
      </trkpt>
      <trkpt lat="45.76197" lon="6.7113">
        <ele>1621</ele>
        <time>2026-07-29T12:15:13.716Z</time>
      </trkpt>
      <trkpt lat="45.76198" lon="6.71131">
        <ele>1621</ele>
        <time>2026-07-29T12:15:14.716Z</time>
      </trkpt>
      <trkpt lat="45.76199" lon="6.71131">
        <ele>1621</ele>
        <time>2026-07-29T12:15:15.716Z</time>
      </trkpt>
      <trkpt lat="45.762" lon="6.71131">
        <ele>1621</ele>
        <time>2026-07-29T12:15:16.716Z</time>
      </trkpt>
      <trkpt lat="45.76201" lon="6.71131">
        <ele>1621</ele>
        <time>2026-07-29T12:15:17.716Z</time>
      </trkpt>
      <trkpt lat="45.76202" lon="6.71132">
        <ele>1621</ele>
        <time>2026-07-29T12:15:18.716Z</time>
      </trkpt>
      <trkpt lat="45.76203" lon="6.71132">
        <ele>1621</ele>
        <time>2026-07-29T12:15:19.716Z</time>
      </trkpt>
      <trkpt lat="45.76204" lon="6.71131">
        <ele>1621</ele>
        <time>2026-07-29T12:15:20.716Z</time>
      </trkpt>
      <trkpt lat="45.76204" lon="6.71131">
        <ele>1620</ele>
        <time>2026-07-29T12:15:21.716Z</time>
      </trkpt>
      <trkpt lat="45.76204" lon="6.71131">
        <ele>1620</ele>
        <time>2026-07-29T12:15:22.716Z</time>
      </trkpt>
      <trkpt lat="45.76204" lon="6.71131">
        <ele>1619</ele>
        <time>2026-07-29T12:15:23.716Z</time>
      </trkpt>
      <trkpt lat="45.76204" lon="6.71131">
        <ele>1619</ele>
        <time>2026-07-29T12:15:24.716Z</time>
      </trkpt>
      <trkpt lat="45.76205" lon="6.71131">
        <ele>1620</ele>
        <time>2026-07-29T12:15:25.716Z</time>
      </trkpt>
      <trkpt lat="45.76205" lon="6.71131">
        <ele>1620</ele>
        <time>2026-07-29T12:15:26.716Z</time>
      </trkpt>
      <trkpt lat="45.76205" lon="6.7113">
        <ele>1621</ele>
        <time>2026-07-29T12:15:27.716Z</time>
      </trkpt>
      <trkpt lat="45.76204" lon="6.7113">
        <ele>1621</ele>
        <time>2026-07-29T12:15:28.716Z</time>
      </trkpt>
      <trkpt lat="45.76204" lon="6.7113">
        <ele>1621</ele>
        <time>2026-07-29T12:15:29.716Z</time>
      </trkpt>
      <trkpt lat="45.76204" lon="6.71129">
        <ele>1621</ele>
        <time>2026-07-29T12:15:30.716Z</time>
      </trkpt>
      <trkpt lat="45.76204" lon="6.71129">
        <ele>1620</ele>
        <time>2026-07-29T12:15:31.716Z</time>
      </trkpt>
      <trkpt lat="45.76204" lon="6.71129">
        <ele>1620</ele>
        <time>2026-07-29T12:15:32.716Z</time>
      </trkpt>
      <trkpt lat="45.76204" lon="6.71129">
        <ele>1619</ele>
        <time>2026-07-29T12:15:33.716Z</time>
      </trkpt>
      <trkpt lat="45.76204" lon="6.71128">
        <ele>1618</ele>
        <time>2026-07-29T12:15:34.716Z</time>
      </trkpt>
      <trkpt lat="45.76204" lon="6.71128">
        <ele>1618</ele>
        <time>2026-07-29T12:15:35.716Z</time>
      </trkpt>
      <trkpt lat="45.76204" lon="6.71128">
        <ele>1618</ele>
        <time>2026-07-29T12:15:36.716Z</time>
      </trkpt>
      <trkpt lat="45.76204" lon="6.71128">
        <ele>1617</ele>
        <time>2026-07-29T12:15:37.716Z</time>
      </trkpt>
      <trkpt lat="45.76204" lon="6.71128">
        <ele>1617</ele>
        <time>2026-07-29T12:15:38.716Z</time>
      </trkpt>
      <trkpt lat="45.76204" lon="6.71128">
        <ele>1617</ele>
        <time>2026-07-29T12:15:39.716Z</time>
      </trkpt>
      <trkpt lat="45.76204" lon="6.71128">
        <ele>1616</ele>
        <time>2026-07-29T12:15:40.716Z</time>
      </trkpt>
      <trkpt lat="45.76204" lon="6.71128">
        <ele>1616</ele>
        <time>2026-07-29T12:15:41.716Z</time>
      </trkpt>
      <trkpt lat="45.76204" lon="6.71128">
        <ele>1616</ele>
        <time>2026-07-29T12:15:42.716Z</time>
      </trkpt>
      <trkpt lat="45.76204" lon="6.71128">
        <ele>1616</ele>
        <time>2026-07-29T12:15:43.716Z</time>
      </trkpt>
      <trkpt lat="45.76204" lon="6.71128">
        <ele>1616</ele>
        <time>2026-07-29T12:15:44.716Z</time>
      </trkpt>
      <trkpt lat="45.76204" lon="6.71128">
        <ele>1616</ele>
        <time>2026-07-29T12:15:45.716Z</time>
      </trkpt>
      <trkpt lat="45.76205" lon="6.71128">
        <ele>1616</ele>
        <time>2026-07-29T12:15:46.716Z</time>
      </trkpt>
      <trkpt lat="45.76206" lon="6.71129">
        <ele>1616</ele>
        <time>2026-07-29T12:15:47.716Z</time>
      </trkpt>
      <trkpt lat="45.76208" lon="6.71129">
        <ele>1616</ele>
        <time>2026-07-29T12:15:48.716Z</time>
      </trkpt>
      <trkpt lat="45.7621" lon="6.71129">
        <ele>1616</ele>
        <time>2026-07-29T12:15:49.716Z</time>
      </trkpt>
      <trkpt lat="45.76211" lon="6.7113">
        <ele>1616</ele>
        <time>2026-07-29T12:15:50.716Z</time>
      </trkpt>
      <trkpt lat="45.76213" lon="6.71131">
        <ele>1617</ele>
        <time>2026-07-29T12:15:51.716Z</time>
      </trkpt>
      <trkpt lat="45.76215" lon="6.71133">
        <ele>1617</ele>
        <time>2026-07-29T12:15:52.716Z</time>
      </trkpt>
      <trkpt lat="45.76217" lon="6.71134">
        <ele>1617</ele>
        <time>2026-07-29T12:15:53.716Z</time>
      </trkpt>
      <trkpt lat="45.76219" lon="6.71135">
        <ele>1617</ele>
        <time>2026-07-29T12:15:54.716Z</time>
      </trkpt>
      <trkpt lat="45.76221" lon="6.71136">
        <ele>1617</ele>
        <time>2026-07-29T12:15:55.716Z</time>
      </trkpt>
      <trkpt lat="45.76223" lon="6.71137">
        <ele>1617</ele>
        <time>2026-07-29T12:15:56.716Z</time>
      </trkpt>
      <trkpt lat="45.76225" lon="6.71138">
        <ele>1617</ele>
        <time>2026-07-29T12:15:57.716Z</time>
      </trkpt>
      <trkpt lat="45.76227" lon="6.71139">
        <ele>1618</ele>
        <time>2026-07-29T12:15:58.716Z</time>
      </trkpt>
      <trkpt lat="45.76228" lon="6.7114">
        <ele>1618</ele>
        <time>2026-07-29T12:15:59.716Z</time>
      </trkpt>
      <trkpt lat="45.7623" lon="6.71141">
        <ele>1618</ele>
        <time>2026-07-29T12:16:00.716Z</time>
      </trkpt>
      <trkpt lat="45.76231" lon="6.71142">
        <ele>1618</ele>
        <time>2026-07-29T12:16:01.716Z</time>
      </trkpt>
      <trkpt lat="45.76233" lon="6.71143">
        <ele>1618</ele>
        <time>2026-07-29T12:16:02.716Z</time>
      </trkpt>
      <trkpt lat="45.76235" lon="6.71144">
        <ele>1618</ele>
        <time>2026-07-29T12:16:03.716Z</time>
      </trkpt>
      <trkpt lat="45.76237" lon="6.71145">
        <ele>1617</ele>
        <time>2026-07-29T12:16:04.716Z</time>
      </trkpt>
      <trkpt lat="45.76239" lon="6.71146">
        <ele>1617</ele>
        <time>2026-07-29T12:16:05.716Z</time>
      </trkpt>
      <trkpt lat="45.76241" lon="6.71147">
        <ele>1616</ele>
        <time>2026-07-29T12:16:06.716Z</time>
      </trkpt>
      <trkpt lat="45.76243" lon="6.71147">
        <ele>1615</ele>
        <time>2026-07-29T12:16:07.716Z</time>
      </trkpt>
      <trkpt lat="45.76246" lon="6.71148">
        <ele>1615</ele>
        <time>2026-07-29T12:16:08.716Z</time>
      </trkpt>
      <trkpt lat="45.76248" lon="6.71149">
        <ele>1614</ele>
        <time>2026-07-29T12:16:09.716Z</time>
      </trkpt>
      <trkpt lat="45.7625" lon="6.7115">
        <ele>1613</ele>
        <time>2026-07-29T12:16:10.716Z</time>
      </trkpt>
      <trkpt lat="45.76253" lon="6.71152">
        <ele>1613</ele>
        <time>2026-07-29T12:16:11.716Z</time>
      </trkpt>
      <trkpt lat="45.76255" lon="6.71153">
        <ele>1612</ele>
        <time>2026-07-29T12:16:12.716Z</time>
      </trkpt>
      <trkpt lat="45.76257" lon="6.71154">
        <ele>1611</ele>
        <time>2026-07-29T12:16:13.716Z</time>
      </trkpt>
      <trkpt lat="45.7626" lon="6.71155">
        <ele>1611</ele>
        <time>2026-07-29T12:16:14.716Z</time>
      </trkpt>
      <trkpt lat="45.76262" lon="6.71155">
        <ele>1611</ele>
        <time>2026-07-29T12:16:15.716Z</time>
      </trkpt>
      <trkpt lat="45.76264" lon="6.71157">
        <ele>1610</ele>
        <time>2026-07-29T12:16:16.716Z</time>
      </trkpt>
      <trkpt lat="45.76266" lon="6.71158">
        <ele>1610</ele>
        <time>2026-07-29T12:16:17.716Z</time>
      </trkpt>
      <trkpt lat="45.76268" lon="6.71159">
        <ele>1610</ele>
        <time>2026-07-29T12:16:18.716Z</time>
      </trkpt>
      <trkpt lat="45.76271" lon="6.71161">
        <ele>1609</ele>
        <time>2026-07-29T12:16:19.716Z</time>
      </trkpt>
      <trkpt lat="45.76273" lon="6.71162">
        <ele>1609</ele>
        <time>2026-07-29T12:16:20.716Z</time>
      </trkpt>
      <trkpt lat="45.76275" lon="6.71163">
        <ele>1609</ele>
        <time>2026-07-29T12:16:21.716Z</time>
      </trkpt>
      <trkpt lat="45.76278" lon="6.71165">
        <ele>1609</ele>
        <time>2026-07-29T12:16:22.716Z</time>
      </trkpt>
      <trkpt lat="45.7628" lon="6.71166">
        <ele>1608</ele>
        <time>2026-07-29T12:16:23.716Z</time>
      </trkpt>
      <trkpt lat="45.76282" lon="6.71167">
        <ele>1608</ele>
        <time>2026-07-29T12:16:24.716Z</time>
      </trkpt>
      <trkpt lat="45.76284" lon="6.71168">
        <ele>1608</ele>
        <time>2026-07-29T12:16:25.716Z</time>
      </trkpt>
      <trkpt lat="45.76286" lon="6.71169">
        <ele>1608</ele>
        <time>2026-07-29T12:16:26.716Z</time>
      </trkpt>
      <trkpt lat="45.76288" lon="6.7117">
        <ele>1607</ele>
        <time>2026-07-29T12:16:27.716Z</time>
      </trkpt>
      <trkpt lat="45.7629" lon="6.71171">
        <ele>1607</ele>
        <time>2026-07-29T12:16:28.716Z</time>
      </trkpt>
      <trkpt lat="45.76292" lon="6.71173">
        <ele>1606</ele>
        <time>2026-07-29T12:16:29.716Z</time>
      </trkpt>
      <trkpt lat="45.76294" lon="6.71174">
        <ele>1606</ele>
        <time>2026-07-29T12:16:30.716Z</time>
      </trkpt>
      <trkpt lat="45.76296" lon="6.71175">
        <ele>1605</ele>
        <time>2026-07-29T12:16:31.716Z</time>
      </trkpt>
      <trkpt lat="45.76298" lon="6.71176">
        <ele>1605</ele>
        <time>2026-07-29T12:16:32.716Z</time>
      </trkpt>
      <trkpt lat="45.763" lon="6.71177">
        <ele>1605</ele>
        <time>2026-07-29T12:16:33.716Z</time>
      </trkpt>
      <trkpt lat="45.76302" lon="6.71178">
        <ele>1605</ele>
        <time>2026-07-29T12:16:34.716Z</time>
      </trkpt>
      <trkpt lat="45.76305" lon="6.71179">
        <ele>1605</ele>
        <time>2026-07-29T12:16:35.716Z</time>
      </trkpt>
      <trkpt lat="45.76307" lon="6.7118">
        <ele>1604</ele>
        <time>2026-07-29T12:16:36.716Z</time>
      </trkpt>
      <trkpt lat="45.76309" lon="6.7118">
        <ele>1604</ele>
        <time>2026-07-29T12:16:37.716Z</time>
      </trkpt>
      <trkpt lat="45.76311" lon="6.71181">
        <ele>1604</ele>
        <time>2026-07-29T12:16:38.716Z</time>
      </trkpt>
      <trkpt lat="45.76314" lon="6.71183">
        <ele>1604</ele>
        <time>2026-07-29T12:16:39.716Z</time>
      </trkpt>
      <trkpt lat="45.76316" lon="6.71184">
        <ele>1603</ele>
        <time>2026-07-29T12:16:40.716Z</time>
      </trkpt>
      <trkpt lat="45.76318" lon="6.71185">
        <ele>1603</ele>
        <time>2026-07-29T12:16:41.716Z</time>
      </trkpt>
      <trkpt lat="45.76321" lon="6.71186">
        <ele>1603</ele>
        <time>2026-07-29T12:16:42.716Z</time>
      </trkpt>
      <trkpt lat="45.76323" lon="6.71186">
        <ele>1602</ele>
        <time>2026-07-29T12:16:43.716Z</time>
      </trkpt>
      <trkpt lat="45.76325" lon="6.71187">
        <ele>1602</ele>
        <time>2026-07-29T12:16:44.716Z</time>
      </trkpt>
      <trkpt lat="45.76327" lon="6.71188">
        <ele>1602</ele>
        <time>2026-07-29T12:16:45.716Z</time>
      </trkpt>
      <trkpt lat="45.7633" lon="6.7119">
        <ele>1601</ele>
        <time>2026-07-29T12:16:46.716Z</time>
      </trkpt>
      <trkpt lat="45.76332" lon="6.71191">
        <ele>1601</ele>
        <time>2026-07-29T12:16:47.716Z</time>
      </trkpt>
      <trkpt lat="45.76334" lon="6.71191">
        <ele>1601</ele>
        <time>2026-07-29T12:16:48.716Z</time>
      </trkpt>
      <trkpt lat="45.76337" lon="6.71192">
        <ele>1600</ele>
        <time>2026-07-29T12:16:49.716Z</time>
      </trkpt>
      <trkpt lat="45.76339" lon="6.71193">
        <ele>1600</ele>
        <time>2026-07-29T12:16:50.716Z</time>
      </trkpt>
      <trkpt lat="45.76341" lon="6.71193">
        <ele>1600</ele>
        <time>2026-07-29T12:16:51.716Z</time>
      </trkpt>
      <trkpt lat="45.76343" lon="6.71194">
        <ele>1600</ele>
        <time>2026-07-29T12:16:52.716Z</time>
      </trkpt>
      <trkpt lat="45.76345" lon="6.71194">
        <ele>1599</ele>
        <time>2026-07-29T12:16:53.716Z</time>
      </trkpt>
      <trkpt lat="45.76347" lon="6.71195">
        <ele>1599</ele>
        <time>2026-07-29T12:16:54.716Z</time>
      </trkpt>
      <trkpt lat="45.76349" lon="6.71196">
        <ele>1599</ele>
        <time>2026-07-29T12:16:55.716Z</time>
      </trkpt>
      <trkpt lat="45.76351" lon="6.71197">
        <ele>1598</ele>
        <time>2026-07-29T12:16:56.716Z</time>
      </trkpt>
      <trkpt lat="45.76353" lon="6.71198">
        <ele>1598</ele>
        <time>2026-07-29T12:16:57.716Z</time>
      </trkpt>
      <trkpt lat="45.76355" lon="6.71199">
        <ele>1598</ele>
        <time>2026-07-29T12:16:58.716Z</time>
      </trkpt>
      <trkpt lat="45.76357" lon="6.71199">
        <ele>1598</ele>
        <time>2026-07-29T12:16:59.716Z</time>
      </trkpt>
      <trkpt lat="45.7636" lon="6.712">
        <ele>1597</ele>
        <time>2026-07-29T12:17:00.716Z</time>
      </trkpt>
      <trkpt lat="45.76362" lon="6.71201">
        <ele>1597</ele>
        <time>2026-07-29T12:17:01.716Z</time>
      </trkpt>
      <trkpt lat="45.76364" lon="6.71202">
        <ele>1597</ele>
        <time>2026-07-29T12:17:02.716Z</time>
      </trkpt>
      <trkpt lat="45.76366" lon="6.71203">
        <ele>1597</ele>
        <time>2026-07-29T12:17:03.716Z</time>
      </trkpt>
      <trkpt lat="45.76368" lon="6.71204">
        <ele>1596</ele>
        <time>2026-07-29T12:17:04.716Z</time>
      </trkpt>
      <trkpt lat="45.7637" lon="6.71204">
        <ele>1596</ele>
        <time>2026-07-29T12:17:05.716Z</time>
      </trkpt>
      <trkpt lat="45.76372" lon="6.71205">
        <ele>1596</ele>
        <time>2026-07-29T12:17:06.716Z</time>
      </trkpt>
      <trkpt lat="45.76375" lon="6.71207">
        <ele>1596</ele>
        <time>2026-07-29T12:17:07.716Z</time>
      </trkpt>
      <trkpt lat="45.76377" lon="6.71209">
        <ele>1595</ele>
        <time>2026-07-29T12:17:08.716Z</time>
      </trkpt>
      <trkpt lat="45.76379" lon="6.7121">
        <ele>1595</ele>
        <time>2026-07-29T12:17:09.716Z</time>
      </trkpt>
      <trkpt lat="45.76381" lon="6.71212">
        <ele>1595</ele>
        <time>2026-07-29T12:17:10.716Z</time>
      </trkpt>
      <trkpt lat="45.76382" lon="6.71213">
        <ele>1595</ele>
        <time>2026-07-29T12:17:11.716Z</time>
      </trkpt>
      <trkpt lat="45.76384" lon="6.71213">
        <ele>1595</ele>
        <time>2026-07-29T12:17:12.716Z</time>
      </trkpt>
      <trkpt lat="45.76386" lon="6.71214">
        <ele>1595</ele>
        <time>2026-07-29T12:17:13.716Z</time>
      </trkpt>
      <trkpt lat="45.76388" lon="6.71215">
        <ele>1595</ele>
        <time>2026-07-29T12:17:14.716Z</time>
      </trkpt>
      <trkpt lat="45.76391" lon="6.71216">
        <ele>1594</ele>
        <time>2026-07-29T12:17:15.716Z</time>
      </trkpt>
      <trkpt lat="45.76393" lon="6.71217">
        <ele>1594</ele>
        <time>2026-07-29T12:17:16.716Z</time>
      </trkpt>
      <trkpt lat="45.76395" lon="6.71218">
        <ele>1594</ele>
        <time>2026-07-29T12:17:17.716Z</time>
      </trkpt>
      <trkpt lat="45.76398" lon="6.71218">
        <ele>1594</ele>
        <time>2026-07-29T12:17:18.716Z</time>
      </trkpt>
      <trkpt lat="45.764" lon="6.71219">
        <ele>1594</ele>
        <time>2026-07-29T12:17:19.716Z</time>
      </trkpt>
      <trkpt lat="45.76402" lon="6.71219">
        <ele>1593</ele>
        <time>2026-07-29T12:17:20.716Z</time>
      </trkpt>
      <trkpt lat="45.76404" lon="6.71221">
        <ele>1593</ele>
        <time>2026-07-29T12:17:21.716Z</time>
      </trkpt>
      <trkpt lat="45.76406" lon="6.71222">
        <ele>1593</ele>
        <time>2026-07-29T12:17:22.716Z</time>
      </trkpt>
      <trkpt lat="45.76409" lon="6.71223">
        <ele>1592</ele>
        <time>2026-07-29T12:17:23.716Z</time>
      </trkpt>
      <trkpt lat="45.76411" lon="6.71224">
        <ele>1592</ele>
        <time>2026-07-29T12:17:24.716Z</time>
      </trkpt>
      <trkpt lat="45.76413" lon="6.71225">
        <ele>1592</ele>
        <time>2026-07-29T12:17:25.716Z</time>
      </trkpt>
      <trkpt lat="45.76415" lon="6.71225">
        <ele>1592</ele>
        <time>2026-07-29T12:17:26.716Z</time>
      </trkpt>
      <trkpt lat="45.76417" lon="6.71227">
        <ele>1592</ele>
        <time>2026-07-29T12:17:27.716Z</time>
      </trkpt>
      <trkpt lat="45.76419" lon="6.71228">
        <ele>1592</ele>
        <time>2026-07-29T12:17:28.716Z</time>
      </trkpt>
      <trkpt lat="45.76422" lon="6.71229">
        <ele>1592</ele>
        <time>2026-07-29T12:17:29.716Z</time>
      </trkpt>
      <trkpt lat="45.76424" lon="6.7123">
        <ele>1592</ele>
        <time>2026-07-29T12:17:30.716Z</time>
      </trkpt>
      <trkpt lat="45.76426" lon="6.71231">
        <ele>1592</ele>
        <time>2026-07-29T12:17:31.716Z</time>
      </trkpt>
      <trkpt lat="45.76428" lon="6.71232">
        <ele>1592</ele>
        <time>2026-07-29T12:17:32.716Z</time>
      </trkpt>
      <trkpt lat="45.7643" lon="6.71233">
        <ele>1592</ele>
        <time>2026-07-29T12:17:33.716Z</time>
      </trkpt>
      <trkpt lat="45.76433" lon="6.71234">
        <ele>1592</ele>
        <time>2026-07-29T12:17:34.716Z</time>
      </trkpt>
      <trkpt lat="45.76435" lon="6.71235">
        <ele>1592</ele>
        <time>2026-07-29T12:17:35.716Z</time>
      </trkpt>
      <trkpt lat="45.76437" lon="6.71235">
        <ele>1592</ele>
        <time>2026-07-29T12:17:36.716Z</time>
      </trkpt>
      <trkpt lat="45.7644" lon="6.71236">
        <ele>1592</ele>
        <time>2026-07-29T12:17:37.716Z</time>
      </trkpt>
      <trkpt lat="45.76442" lon="6.71237">
        <ele>1592</ele>
        <time>2026-07-29T12:17:38.716Z</time>
      </trkpt>
      <trkpt lat="45.76444" lon="6.71237">
        <ele>1592</ele>
        <time>2026-07-29T12:17:39.716Z</time>
      </trkpt>
      <trkpt lat="45.76446" lon="6.71236">
        <ele>1592</ele>
        <time>2026-07-29T12:17:40.716Z</time>
      </trkpt>
      <trkpt lat="45.76448" lon="6.71237">
        <ele>1592</ele>
        <time>2026-07-29T12:17:41.716Z</time>
      </trkpt>
      <trkpt lat="45.76449" lon="6.71237">
        <ele>1592</ele>
        <time>2026-07-29T12:17:42.716Z</time>
      </trkpt>
      <trkpt lat="45.76451" lon="6.71237">
        <ele>1591</ele>
        <time>2026-07-29T12:17:43.716Z</time>
      </trkpt>
      <trkpt lat="45.76454" lon="6.71237">
        <ele>1590</ele>
        <time>2026-07-29T12:17:44.716Z</time>
      </trkpt>
      <trkpt lat="45.76456" lon="6.71237">
        <ele>1589</ele>
        <time>2026-07-29T12:17:45.716Z</time>
      </trkpt>
      <trkpt lat="45.76458" lon="6.71237">
        <ele>1589</ele>
        <time>2026-07-29T12:17:46.716Z</time>
      </trkpt>
      <trkpt lat="45.7646" lon="6.71237">
        <ele>1588</ele>
        <time>2026-07-29T12:17:47.716Z</time>
      </trkpt>
      <trkpt lat="45.76463" lon="6.71237">
        <ele>1588</ele>
        <time>2026-07-29T12:17:48.716Z</time>
      </trkpt>
      <trkpt lat="45.76466" lon="6.71238">
        <ele>1587</ele>
        <time>2026-07-29T12:17:49.716Z</time>
      </trkpt>
      <trkpt lat="45.76468" lon="6.71239">
        <ele>1587</ele>
        <time>2026-07-29T12:17:50.716Z</time>
      </trkpt>
      <trkpt lat="45.7647" lon="6.7124">
        <ele>1587</ele>
        <time>2026-07-29T12:17:51.716Z</time>
      </trkpt>
      <trkpt lat="45.76472" lon="6.71242">
        <ele>1587</ele>
        <time>2026-07-29T12:17:52.716Z</time>
      </trkpt>
      <trkpt lat="45.76475" lon="6.71243">
        <ele>1588</ele>
        <time>2026-07-29T12:17:53.716Z</time>
      </trkpt>
      <trkpt lat="45.76477" lon="6.71244">
        <ele>1588</ele>
        <time>2026-07-29T12:17:54.716Z</time>
      </trkpt>
      <trkpt lat="45.76479" lon="6.71246">
        <ele>1588</ele>
        <time>2026-07-29T12:17:55.716Z</time>
      </trkpt>
      <trkpt lat="45.76481" lon="6.71247">
        <ele>1588</ele>
        <time>2026-07-29T12:17:56.716Z</time>
      </trkpt>
      <trkpt lat="45.76483" lon="6.71249">
        <ele>1588</ele>
        <time>2026-07-29T12:17:57.716Z</time>
      </trkpt>
      <trkpt lat="45.76486" lon="6.7125">
        <ele>1587</ele>
        <time>2026-07-29T12:17:58.716Z</time>
      </trkpt>
      <trkpt lat="45.76488" lon="6.71251">
        <ele>1587</ele>
        <time>2026-07-29T12:17:59.716Z</time>
      </trkpt>
      <trkpt lat="45.7649" lon="6.71253">
        <ele>1587</ele>
        <time>2026-07-29T12:18:00.716Z</time>
      </trkpt>
      <trkpt lat="45.76493" lon="6.71254">
        <ele>1587</ele>
        <time>2026-07-29T12:18:01.716Z</time>
      </trkpt>
      <trkpt lat="45.76495" lon="6.71254">
        <ele>1587</ele>
        <time>2026-07-29T12:18:02.716Z</time>
      </trkpt>
      <trkpt lat="45.76497" lon="6.71255">
        <ele>1587</ele>
        <time>2026-07-29T12:18:03.716Z</time>
      </trkpt>
      <trkpt lat="45.765" lon="6.71256">
        <ele>1587</ele>
        <time>2026-07-29T12:18:04.716Z</time>
      </trkpt>
      <trkpt lat="45.76502" lon="6.71256">
        <ele>1586</ele>
        <time>2026-07-29T12:18:05.716Z</time>
      </trkpt>
      <trkpt lat="45.76504" lon="6.71256">
        <ele>1586</ele>
        <time>2026-07-29T12:18:06.716Z</time>
      </trkpt>
      <trkpt lat="45.76507" lon="6.71257">
        <ele>1586</ele>
        <time>2026-07-29T12:18:07.716Z</time>
      </trkpt>
      <trkpt lat="45.76509" lon="6.71257">
        <ele>1586</ele>
        <time>2026-07-29T12:18:08.716Z</time>
      </trkpt>
      <trkpt lat="45.76512" lon="6.71257">
        <ele>1586</ele>
        <time>2026-07-29T12:18:09.716Z</time>
      </trkpt>
      <trkpt lat="45.76514" lon="6.71258">
        <ele>1586</ele>
        <time>2026-07-29T12:18:10.716Z</time>
      </trkpt>
      <trkpt lat="45.76516" lon="6.71259">
        <ele>1586</ele>
        <time>2026-07-29T12:18:11.716Z</time>
      </trkpt>
      <trkpt lat="45.76518" lon="6.71259">
        <ele>1586</ele>
        <time>2026-07-29T12:18:12.716Z</time>
      </trkpt>
      <trkpt lat="45.76521" lon="6.7126">
        <ele>1587</ele>
        <time>2026-07-29T12:18:13.716Z</time>
      </trkpt>
      <trkpt lat="45.76523" lon="6.7126">
        <ele>1587</ele>
        <time>2026-07-29T12:18:14.716Z</time>
      </trkpt>
      <trkpt lat="45.76525" lon="6.71261">
        <ele>1586</ele>
        <time>2026-07-29T12:18:15.716Z</time>
      </trkpt>
      <trkpt lat="45.76528" lon="6.71262">
        <ele>1586</ele>
        <time>2026-07-29T12:18:16.716Z</time>
      </trkpt>
      <trkpt lat="45.7653" lon="6.71263">
        <ele>1586</ele>
        <time>2026-07-29T12:18:17.716Z</time>
      </trkpt>
      <trkpt lat="45.76532" lon="6.71264">
        <ele>1585</ele>
        <time>2026-07-29T12:18:18.716Z</time>
      </trkpt>
      <trkpt lat="45.76534" lon="6.71265">
        <ele>1585</ele>
        <time>2026-07-29T12:18:19.716Z</time>
      </trkpt>
      <trkpt lat="45.76536" lon="6.71266">
        <ele>1584</ele>
        <time>2026-07-29T12:18:20.716Z</time>
      </trkpt>
      <trkpt lat="45.76538" lon="6.71267">
        <ele>1584</ele>
        <time>2026-07-29T12:18:21.716Z</time>
      </trkpt>
      <trkpt lat="45.7654" lon="6.71268">
        <ele>1584</ele>
        <time>2026-07-29T12:18:22.716Z</time>
      </trkpt>
      <trkpt lat="45.76543" lon="6.71269">
        <ele>1584</ele>
        <time>2026-07-29T12:18:23.716Z</time>
      </trkpt>
      <trkpt lat="45.76545" lon="6.7127">
        <ele>1583</ele>
        <time>2026-07-29T12:18:24.716Z</time>
      </trkpt>
      <trkpt lat="45.76548" lon="6.71271">
        <ele>1583</ele>
        <time>2026-07-29T12:18:25.716Z</time>
      </trkpt>
      <trkpt lat="45.7655" lon="6.71272">
        <ele>1583</ele>
        <time>2026-07-29T12:18:26.716Z</time>
      </trkpt>
      <trkpt lat="45.76552" lon="6.71272">
        <ele>1582</ele>
        <time>2026-07-29T12:18:27.716Z</time>
      </trkpt>
      <trkpt lat="45.76554" lon="6.71273">
        <ele>1582</ele>
        <time>2026-07-29T12:18:28.716Z</time>
      </trkpt>
      <trkpt lat="45.76557" lon="6.71274">
        <ele>1582</ele>
        <time>2026-07-29T12:18:29.716Z</time>
      </trkpt>
      <trkpt lat="45.76559" lon="6.71275">
        <ele>1581</ele>
        <time>2026-07-29T12:18:30.716Z</time>
      </trkpt>
      <trkpt lat="45.76562" lon="6.71275">
        <ele>1581</ele>
        <time>2026-07-29T12:18:31.716Z</time>
      </trkpt>
      <trkpt lat="45.76564" lon="6.71276">
        <ele>1581</ele>
        <time>2026-07-29T12:18:32.716Z</time>
      </trkpt>
      <trkpt lat="45.76567" lon="6.71277">
        <ele>1581</ele>
        <time>2026-07-29T12:18:33.716Z</time>
      </trkpt>
      <trkpt lat="45.76569" lon="6.71278">
        <ele>1581</ele>
        <time>2026-07-29T12:18:34.716Z</time>
      </trkpt>
      <trkpt lat="45.76571" lon="6.71279">
        <ele>1580</ele>
        <time>2026-07-29T12:18:35.716Z</time>
      </trkpt>
      <trkpt lat="45.76574" lon="6.7128">
        <ele>1580</ele>
        <time>2026-07-29T12:18:36.716Z</time>
      </trkpt>
      <trkpt lat="45.76576" lon="6.71281">
        <ele>1580</ele>
        <time>2026-07-29T12:18:37.716Z</time>
      </trkpt>
      <trkpt lat="45.76579" lon="6.71281">
        <ele>1580</ele>
        <time>2026-07-29T12:18:38.716Z</time>
      </trkpt>
      <trkpt lat="45.76581" lon="6.71282">
        <ele>1580</ele>
        <time>2026-07-29T12:18:39.716Z</time>
      </trkpt>
      <trkpt lat="45.76583" lon="6.71283">
        <ele>1580</ele>
        <time>2026-07-29T12:18:40.716Z</time>
      </trkpt>
      <trkpt lat="45.76585" lon="6.71284">
        <ele>1580</ele>
        <time>2026-07-29T12:18:41.716Z</time>
      </trkpt>
      <trkpt lat="45.76587" lon="6.71285">
        <ele>1579</ele>
        <time>2026-07-29T12:18:42.716Z</time>
      </trkpt>
      <trkpt lat="45.76589" lon="6.71285">
        <ele>1579</ele>
        <time>2026-07-29T12:18:43.716Z</time>
      </trkpt>
      <trkpt lat="45.76591" lon="6.71286">
        <ele>1579</ele>
        <time>2026-07-29T12:18:44.716Z</time>
      </trkpt>
      <trkpt lat="45.76594" lon="6.71286">
        <ele>1578</ele>
        <time>2026-07-29T12:18:45.716Z</time>
      </trkpt>
      <trkpt lat="45.76596" lon="6.71287">
        <ele>1578</ele>
        <time>2026-07-29T12:18:46.716Z</time>
      </trkpt>
      <trkpt lat="45.76598" lon="6.71287">
        <ele>1578</ele>
        <time>2026-07-29T12:18:47.716Z</time>
      </trkpt>
      <trkpt lat="45.766" lon="6.71288">
        <ele>1577</ele>
        <time>2026-07-29T12:18:48.716Z</time>
      </trkpt>
      <trkpt lat="45.76602" lon="6.71289">
        <ele>1577</ele>
        <time>2026-07-29T12:18:49.716Z</time>
      </trkpt>
      <trkpt lat="45.76604" lon="6.7129">
        <ele>1577</ele>
        <time>2026-07-29T12:18:50.716Z</time>
      </trkpt>
      <trkpt lat="45.76607" lon="6.7129">
        <ele>1576</ele>
        <time>2026-07-29T12:18:51.716Z</time>
      </trkpt>
      <trkpt lat="45.76609" lon="6.71291">
        <ele>1576</ele>
        <time>2026-07-29T12:18:52.716Z</time>
      </trkpt>
      <trkpt lat="45.76611" lon="6.71292">
        <ele>1576</ele>
        <time>2026-07-29T12:18:53.716Z</time>
      </trkpt>
      <trkpt lat="45.76613" lon="6.71292">
        <ele>1576</ele>
        <time>2026-07-29T12:18:54.716Z</time>
      </trkpt>
      <trkpt lat="45.76616" lon="6.71293">
        <ele>1576</ele>
        <time>2026-07-29T12:18:55.716Z</time>
      </trkpt>
      <trkpt lat="45.76618" lon="6.71294">
        <ele>1576</ele>
        <time>2026-07-29T12:18:56.716Z</time>
      </trkpt>
      <trkpt lat="45.7662" lon="6.71295">
        <ele>1576</ele>
        <time>2026-07-29T12:18:57.716Z</time>
      </trkpt>
      <trkpt lat="45.76623" lon="6.71295">
        <ele>1575</ele>
        <time>2026-07-29T12:18:58.716Z</time>
      </trkpt>
      <trkpt lat="45.76625" lon="6.71296">
        <ele>1575</ele>
        <time>2026-07-29T12:18:59.716Z</time>
      </trkpt>
      <trkpt lat="45.76627" lon="6.71297">
        <ele>1574</ele>
        <time>2026-07-29T12:19:00.716Z</time>
      </trkpt>
      <trkpt lat="45.76629" lon="6.71298">
        <ele>1574</ele>
        <time>2026-07-29T12:19:01.716Z</time>
      </trkpt>
      <trkpt lat="45.76631" lon="6.71298">
        <ele>1574</ele>
        <time>2026-07-29T12:19:02.716Z</time>
      </trkpt>
      <trkpt lat="45.76634" lon="6.71299">
        <ele>1573</ele>
        <time>2026-07-29T12:19:03.716Z</time>
      </trkpt>
      <trkpt lat="45.76636" lon="6.71299">
        <ele>1573</ele>
        <time>2026-07-29T12:19:04.716Z</time>
      </trkpt>
      <trkpt lat="45.76639" lon="6.71301">
        <ele>1573</ele>
        <time>2026-07-29T12:19:05.716Z</time>
      </trkpt>
      <trkpt lat="45.76641" lon="6.71301">
        <ele>1572</ele>
        <time>2026-07-29T12:19:06.716Z</time>
      </trkpt>
      <trkpt lat="45.76643" lon="6.71301">
        <ele>1572</ele>
        <time>2026-07-29T12:19:07.716Z</time>
      </trkpt>
      <trkpt lat="45.76645" lon="6.71302">
        <ele>1572</ele>
        <time>2026-07-29T12:19:08.716Z</time>
      </trkpt>
      <trkpt lat="45.76648" lon="6.71303">
        <ele>1572</ele>
        <time>2026-07-29T12:19:09.716Z</time>
      </trkpt>
      <trkpt lat="45.7665" lon="6.71304">
        <ele>1572</ele>
        <time>2026-07-29T12:19:10.716Z</time>
      </trkpt>
      <trkpt lat="45.76653" lon="6.71304">
        <ele>1571</ele>
        <time>2026-07-29T12:19:11.716Z</time>
      </trkpt>
      <trkpt lat="45.76655" lon="6.71305">
        <ele>1571</ele>
        <time>2026-07-29T12:19:12.716Z</time>
      </trkpt>
      <trkpt lat="45.76658" lon="6.71305">
        <ele>1571</ele>
        <time>2026-07-29T12:19:13.716Z</time>
      </trkpt>
      <trkpt lat="45.7666" lon="6.71306">
        <ele>1571</ele>
        <time>2026-07-29T12:19:14.716Z</time>
      </trkpt>
      <trkpt lat="45.76663" lon="6.71307">
        <ele>1571</ele>
        <time>2026-07-29T12:19:15.716Z</time>
      </trkpt>
      <trkpt lat="45.76665" lon="6.71308">
        <ele>1571</ele>
        <time>2026-07-29T12:19:16.716Z</time>
      </trkpt>
      <trkpt lat="45.76667" lon="6.71308">
        <ele>1570</ele>
        <time>2026-07-29T12:19:17.716Z</time>
      </trkpt>
      <trkpt lat="45.76669" lon="6.71309">
        <ele>1570</ele>
        <time>2026-07-29T12:19:18.716Z</time>
      </trkpt>
      <trkpt lat="45.76671" lon="6.7131">
        <ele>1570</ele>
        <time>2026-07-29T12:19:19.716Z</time>
      </trkpt>
      <trkpt lat="45.76674" lon="6.71311">
        <ele>1570</ele>
        <time>2026-07-29T12:19:20.716Z</time>
      </trkpt>
      <trkpt lat="45.76676" lon="6.71312">
        <ele>1570</ele>
        <time>2026-07-29T12:19:21.716Z</time>
      </trkpt>
      <trkpt lat="45.76678" lon="6.71313">
        <ele>1570</ele>
        <time>2026-07-29T12:19:22.716Z</time>
      </trkpt>
      <trkpt lat="45.76681" lon="6.71314">
        <ele>1570</ele>
        <time>2026-07-29T12:19:23.716Z</time>
      </trkpt>
      <trkpt lat="45.76683" lon="6.71316">
        <ele>1570</ele>
        <time>2026-07-29T12:19:24.716Z</time>
      </trkpt>
      <trkpt lat="45.76685" lon="6.71316">
        <ele>1570</ele>
        <time>2026-07-29T12:19:25.716Z</time>
      </trkpt>
      <trkpt lat="45.76687" lon="6.71318">
        <ele>1570</ele>
        <time>2026-07-29T12:19:26.716Z</time>
      </trkpt>
      <trkpt lat="45.7669" lon="6.7132">
        <ele>1571</ele>
        <time>2026-07-29T12:19:27.716Z</time>
      </trkpt>
      <trkpt lat="45.76692" lon="6.71322">
        <ele>1571</ele>
        <time>2026-07-29T12:19:28.716Z</time>
      </trkpt>
      <trkpt lat="45.76694" lon="6.71324">
        <ele>1571</ele>
        <time>2026-07-29T12:19:29.716Z</time>
      </trkpt>
      <trkpt lat="45.76696" lon="6.71326">
        <ele>1572</ele>
        <time>2026-07-29T12:19:30.716Z</time>
      </trkpt>
      <trkpt lat="45.76698" lon="6.71328">
        <ele>1572</ele>
        <time>2026-07-29T12:19:31.716Z</time>
      </trkpt>
      <trkpt lat="45.767" lon="6.7133">
        <ele>1572</ele>
        <time>2026-07-29T12:19:32.716Z</time>
      </trkpt>
      <trkpt lat="45.76701" lon="6.71332">
        <ele>1572</ele>
        <time>2026-07-29T12:19:33.716Z</time>
      </trkpt>
      <trkpt lat="45.76703" lon="6.71334">
        <ele>1572</ele>
        <time>2026-07-29T12:19:34.716Z</time>
      </trkpt>
      <trkpt lat="45.76705" lon="6.71336">
        <ele>1572</ele>
        <time>2026-07-29T12:19:35.716Z</time>
      </trkpt>
      <trkpt lat="45.76707" lon="6.71337">
        <ele>1572</ele>
        <time>2026-07-29T12:19:36.716Z</time>
      </trkpt>
      <trkpt lat="45.76709" lon="6.71338">
        <ele>1572</ele>
        <time>2026-07-29T12:19:37.716Z</time>
      </trkpt>
      <trkpt lat="45.7671" lon="6.7134">
        <ele>1572</ele>
        <time>2026-07-29T12:19:38.716Z</time>
      </trkpt>
      <trkpt lat="45.76712" lon="6.71341">
        <ele>1571</ele>
        <time>2026-07-29T12:19:39.716Z</time>
      </trkpt>
      <trkpt lat="45.76714" lon="6.71343">
        <ele>1571</ele>
        <time>2026-07-29T12:19:40.716Z</time>
      </trkpt>
      <trkpt lat="45.76716" lon="6.71345">
        <ele>1571</ele>
        <time>2026-07-29T12:19:41.716Z</time>
      </trkpt>
      <trkpt lat="45.76718" lon="6.71347">
        <ele>1570</ele>
        <time>2026-07-29T12:19:42.716Z</time>
      </trkpt>
      <trkpt lat="45.7672" lon="6.7135">
        <ele>1570</ele>
        <time>2026-07-29T12:19:43.716Z</time>
      </trkpt>
      <trkpt lat="45.76722" lon="6.71352">
        <ele>1570</ele>
        <time>2026-07-29T12:19:44.716Z</time>
      </trkpt>
      <trkpt lat="45.76724" lon="6.71353">
        <ele>1570</ele>
        <time>2026-07-29T12:19:45.716Z</time>
      </trkpt>
      <trkpt lat="45.76726" lon="6.71355">
        <ele>1570</ele>
        <time>2026-07-29T12:19:46.716Z</time>
      </trkpt>
      <trkpt lat="45.76728" lon="6.71356">
        <ele>1570</ele>
        <time>2026-07-29T12:19:47.716Z</time>
      </trkpt>
      <trkpt lat="45.7673" lon="6.71358">
        <ele>1570</ele>
        <time>2026-07-29T12:19:48.716Z</time>
      </trkpt>
      <trkpt lat="45.76732" lon="6.71359">
        <ele>1570</ele>
        <time>2026-07-29T12:19:49.716Z</time>
      </trkpt>
      <trkpt lat="45.76734" lon="6.71361">
        <ele>1570</ele>
        <time>2026-07-29T12:19:50.716Z</time>
      </trkpt>
      <trkpt lat="45.76736" lon="6.71363">
        <ele>1569</ele>
        <time>2026-07-29T12:19:51.716Z</time>
      </trkpt>
      <trkpt lat="45.76738" lon="6.71365">
        <ele>1569</ele>
        <time>2026-07-29T12:19:52.716Z</time>
      </trkpt>
      <trkpt lat="45.7674" lon="6.71367">
        <ele>1569</ele>
        <time>2026-07-29T12:19:53.716Z</time>
      </trkpt>
      <trkpt lat="45.76743" lon="6.71369">
        <ele>1569</ele>
        <time>2026-07-29T12:19:54.716Z</time>
      </trkpt>
      <trkpt lat="45.76745" lon="6.71371">
        <ele>1569</ele>
        <time>2026-07-29T12:19:55.716Z</time>
      </trkpt>
      <trkpt lat="45.76747" lon="6.71372">
        <ele>1569</ele>
        <time>2026-07-29T12:19:56.716Z</time>
      </trkpt>
      <trkpt lat="45.76749" lon="6.71374">
        <ele>1569</ele>
        <time>2026-07-29T12:19:57.716Z</time>
      </trkpt>
      <trkpt lat="45.76751" lon="6.71375">
        <ele>1569</ele>
        <time>2026-07-29T12:19:58.716Z</time>
      </trkpt>
      <trkpt lat="45.76753" lon="6.71377">
        <ele>1569</ele>
        <time>2026-07-29T12:19:59.716Z</time>
      </trkpt>
      <trkpt lat="45.76755" lon="6.71379">
        <ele>1569</ele>
        <time>2026-07-29T12:20:00.716Z</time>
      </trkpt>
      <trkpt lat="45.76757" lon="6.7138">
        <ele>1569</ele>
        <time>2026-07-29T12:20:01.716Z</time>
      </trkpt>
      <trkpt lat="45.76759" lon="6.71381">
        <ele>1569</ele>
        <time>2026-07-29T12:20:02.716Z</time>
      </trkpt>
      <trkpt lat="45.7676" lon="6.71381">
        <ele>1569</ele>
        <time>2026-07-29T12:20:03.716Z</time>
      </trkpt>
      <trkpt lat="45.76762" lon="6.71382">
        <ele>1569</ele>
        <time>2026-07-29T12:20:04.716Z</time>
      </trkpt>
      <trkpt lat="45.76764" lon="6.71384">
        <ele>1569</ele>
        <time>2026-07-29T12:20:05.716Z</time>
      </trkpt>
      <trkpt lat="45.76766" lon="6.71385">
        <ele>1569</ele>
        <time>2026-07-29T12:20:06.716Z</time>
      </trkpt>
      <trkpt lat="45.76768" lon="6.71386">
        <ele>1569</ele>
        <time>2026-07-29T12:20:07.716Z</time>
      </trkpt>
      <trkpt lat="45.76769" lon="6.71387">
        <ele>1569</ele>
        <time>2026-07-29T12:20:08.716Z</time>
      </trkpt>
      <trkpt lat="45.7677" lon="6.71388">
        <ele>1569</ele>
        <time>2026-07-29T12:20:09.716Z</time>
      </trkpt>
      <trkpt lat="45.76771" lon="6.71389">
        <ele>1568</ele>
        <time>2026-07-29T12:20:10.716Z</time>
      </trkpt>
      <trkpt lat="45.76773" lon="6.71391">
        <ele>1568</ele>
        <time>2026-07-29T12:20:11.716Z</time>
      </trkpt>
      <trkpt lat="45.76775" lon="6.71393">
        <ele>1568</ele>
        <time>2026-07-29T12:20:12.716Z</time>
      </trkpt>
      <trkpt lat="45.76777" lon="6.71395">
        <ele>1568</ele>
        <time>2026-07-29T12:20:13.716Z</time>
      </trkpt>
      <trkpt lat="45.76779" lon="6.71397">
        <ele>1568</ele>
        <time>2026-07-29T12:20:14.716Z</time>
      </trkpt>
      <trkpt lat="45.76781" lon="6.71399">
        <ele>1568</ele>
        <time>2026-07-29T12:20:15.716Z</time>
      </trkpt>
      <trkpt lat="45.76783" lon="6.71401">
        <ele>1568</ele>
        <time>2026-07-29T12:20:16.716Z</time>
      </trkpt>
      <trkpt lat="45.76785" lon="6.71402">
        <ele>1568</ele>
        <time>2026-07-29T12:20:17.716Z</time>
      </trkpt>
      <trkpt lat="45.76787" lon="6.71403">
        <ele>1568</ele>
        <time>2026-07-29T12:20:18.716Z</time>
      </trkpt>
      <trkpt lat="45.76789" lon="6.71404">
        <ele>1568</ele>
        <time>2026-07-29T12:20:19.716Z</time>
      </trkpt>
      <trkpt lat="45.76791" lon="6.71405">
        <ele>1568</ele>
        <time>2026-07-29T12:20:20.716Z</time>
      </trkpt>
      <trkpt lat="45.76793" lon="6.71406">
        <ele>1567</ele>
        <time>2026-07-29T12:20:21.716Z</time>
      </trkpt>
      <trkpt lat="45.76795" lon="6.71407">
        <ele>1567</ele>
        <time>2026-07-29T12:20:22.716Z</time>
      </trkpt>
      <trkpt lat="45.76798" lon="6.71408">
        <ele>1567</ele>
        <time>2026-07-29T12:20:23.716Z</time>
      </trkpt>
      <trkpt lat="45.768" lon="6.71409">
        <ele>1566</ele>
        <time>2026-07-29T12:20:24.716Z</time>
      </trkpt>
      <trkpt lat="45.76802" lon="6.7141">
        <ele>1566</ele>
        <time>2026-07-29T12:20:25.716Z</time>
      </trkpt>
      <trkpt lat="45.76804" lon="6.71411">
        <ele>1566</ele>
        <time>2026-07-29T12:20:26.716Z</time>
      </trkpt>
      <trkpt lat="45.76807" lon="6.71412">
        <ele>1566</ele>
        <time>2026-07-29T12:20:27.716Z</time>
      </trkpt>
      <trkpt lat="45.76809" lon="6.71413">
        <ele>1566</ele>
        <time>2026-07-29T12:20:28.716Z</time>
      </trkpt>
      <trkpt lat="45.76812" lon="6.71415">
        <ele>1565</ele>
        <time>2026-07-29T12:20:29.716Z</time>
      </trkpt>
      <trkpt lat="45.76814" lon="6.71416">
        <ele>1566</ele>
        <time>2026-07-29T12:20:30.716Z</time>
      </trkpt>
      <trkpt lat="45.76816" lon="6.71416">
        <ele>1565</ele>
        <time>2026-07-29T12:20:31.716Z</time>
      </trkpt>
      <trkpt lat="45.76819" lon="6.71416">
        <ele>1565</ele>
        <time>2026-07-29T12:20:32.716Z</time>
      </trkpt>
      <trkpt lat="45.76821" lon="6.71417">
        <ele>1565</ele>
        <time>2026-07-29T12:20:33.716Z</time>
      </trkpt>
      <trkpt lat="45.76824" lon="6.71417">
        <ele>1565</ele>
        <time>2026-07-29T12:20:34.716Z</time>
      </trkpt>
      <trkpt lat="45.76826" lon="6.71418">
        <ele>1565</ele>
        <time>2026-07-29T12:20:35.716Z</time>
      </trkpt>
      <trkpt lat="45.76828" lon="6.71419">
        <ele>1565</ele>
        <time>2026-07-29T12:20:36.716Z</time>
      </trkpt>
      <trkpt lat="45.76831" lon="6.71421">
        <ele>1565</ele>
        <time>2026-07-29T12:20:37.716Z</time>
      </trkpt>
      <trkpt lat="45.76833" lon="6.71422">
        <ele>1565</ele>
        <time>2026-07-29T12:20:38.716Z</time>
      </trkpt>
      <trkpt lat="45.76835" lon="6.71423">
        <ele>1565</ele>
        <time>2026-07-29T12:20:39.716Z</time>
      </trkpt>
      <trkpt lat="45.76838" lon="6.71425">
        <ele>1565</ele>
        <time>2026-07-29T12:20:40.716Z</time>
      </trkpt>
      <trkpt lat="45.7684" lon="6.71427">
        <ele>1565</ele>
        <time>2026-07-29T12:20:41.716Z</time>
      </trkpt>
      <trkpt lat="45.76843" lon="6.71429">
        <ele>1564</ele>
        <time>2026-07-29T12:20:42.716Z</time>
      </trkpt>
      <trkpt lat="45.76845" lon="6.7143">
        <ele>1564</ele>
        <time>2026-07-29T12:20:43.716Z</time>
      </trkpt>
      <trkpt lat="45.76847" lon="6.71432">
        <ele>1564</ele>
        <time>2026-07-29T12:20:44.716Z</time>
      </trkpt>
      <trkpt lat="45.76849" lon="6.71433">
        <ele>1564</ele>
        <time>2026-07-29T12:20:45.716Z</time>
      </trkpt>
      <trkpt lat="45.76852" lon="6.71435">
        <ele>1564</ele>
        <time>2026-07-29T12:20:46.716Z</time>
      </trkpt>
      <trkpt lat="45.76854" lon="6.71436">
        <ele>1564</ele>
        <time>2026-07-29T12:20:47.716Z</time>
      </trkpt>
      <trkpt lat="45.76856" lon="6.71437">
        <ele>1564</ele>
        <time>2026-07-29T12:20:48.716Z</time>
      </trkpt>
      <trkpt lat="45.76858" lon="6.71439">
        <ele>1564</ele>
        <time>2026-07-29T12:20:49.716Z</time>
      </trkpt>
      <trkpt lat="45.76861" lon="6.7144">
        <ele>1564</ele>
        <time>2026-07-29T12:20:50.716Z</time>
      </trkpt>
      <trkpt lat="45.76863" lon="6.71441">
        <ele>1564</ele>
        <time>2026-07-29T12:20:51.716Z</time>
      </trkpt>
      <trkpt lat="45.76865" lon="6.71442">
        <ele>1563</ele>
        <time>2026-07-29T12:20:52.716Z</time>
      </trkpt>
      <trkpt lat="45.76867" lon="6.71443">
        <ele>1564</ele>
        <time>2026-07-29T12:20:53.716Z</time>
      </trkpt>
      <trkpt lat="45.76869" lon="6.71444">
        <ele>1564</ele>
        <time>2026-07-29T12:20:54.716Z</time>
      </trkpt>
      <trkpt lat="45.76872" lon="6.71445">
        <ele>1564</ele>
        <time>2026-07-29T12:20:55.716Z</time>
      </trkpt>
      <trkpt lat="45.76874" lon="6.71446">
        <ele>1564</ele>
        <time>2026-07-29T12:20:56.716Z</time>
      </trkpt>
      <trkpt lat="45.76876" lon="6.71447">
        <ele>1564</ele>
        <time>2026-07-29T12:20:57.716Z</time>
      </trkpt>
      <trkpt lat="45.76879" lon="6.71447">
        <ele>1564</ele>
        <time>2026-07-29T12:20:58.716Z</time>
      </trkpt>
      <trkpt lat="45.76881" lon="6.71448">
        <ele>1564</ele>
        <time>2026-07-29T12:20:59.716Z</time>
      </trkpt>
      <trkpt lat="45.76883" lon="6.71449">
        <ele>1564</ele>
        <time>2026-07-29T12:21:00.716Z</time>
      </trkpt>
      <trkpt lat="45.76886" lon="6.7145">
        <ele>1564</ele>
        <time>2026-07-29T12:21:01.716Z</time>
      </trkpt>
      <trkpt lat="45.76888" lon="6.71451">
        <ele>1564</ele>
        <time>2026-07-29T12:21:02.716Z</time>
      </trkpt>
      <trkpt lat="45.7689" lon="6.71452">
        <ele>1564</ele>
        <time>2026-07-29T12:21:03.716Z</time>
      </trkpt>
      <trkpt lat="45.76893" lon="6.71453">
        <ele>1564</ele>
        <time>2026-07-29T12:21:04.716Z</time>
      </trkpt>
      <trkpt lat="45.76895" lon="6.71453">
        <ele>1564</ele>
        <time>2026-07-29T12:21:05.716Z</time>
      </trkpt>
      <trkpt lat="45.76897" lon="6.71454">
        <ele>1564</ele>
        <time>2026-07-29T12:21:06.716Z</time>
      </trkpt>
      <trkpt lat="45.769" lon="6.71455">
        <ele>1563</ele>
        <time>2026-07-29T12:21:07.716Z</time>
      </trkpt>
      <trkpt lat="45.76902" lon="6.71456">
        <ele>1563</ele>
        <time>2026-07-29T12:21:08.716Z</time>
      </trkpt>
      <trkpt lat="45.76904" lon="6.71457">
        <ele>1563</ele>
        <time>2026-07-29T12:21:09.716Z</time>
      </trkpt>
      <trkpt lat="45.76906" lon="6.71457">
        <ele>1563</ele>
        <time>2026-07-29T12:21:10.716Z</time>
      </trkpt>
      <trkpt lat="45.76909" lon="6.71458">
        <ele>1562</ele>
        <time>2026-07-29T12:21:11.716Z</time>
      </trkpt>
      <trkpt lat="45.76911" lon="6.71459">
        <ele>1562</ele>
        <time>2026-07-29T12:21:12.716Z</time>
      </trkpt>
      <trkpt lat="45.76913" lon="6.71459">
        <ele>1562</ele>
        <time>2026-07-29T12:21:13.716Z</time>
      </trkpt>
      <trkpt lat="45.76915" lon="6.7146">
        <ele>1562</ele>
        <time>2026-07-29T12:21:14.716Z</time>
      </trkpt>
      <trkpt lat="45.76918" lon="6.71462">
        <ele>1561</ele>
        <time>2026-07-29T12:21:15.716Z</time>
      </trkpt>
      <trkpt lat="45.7692" lon="6.71463">
        <ele>1561</ele>
        <time>2026-07-29T12:21:16.716Z</time>
      </trkpt>
      <trkpt lat="45.76922" lon="6.71464">
        <ele>1561</ele>
        <time>2026-07-29T12:21:17.716Z</time>
      </trkpt>
      <trkpt lat="45.76924" lon="6.71465">
        <ele>1561</ele>
        <time>2026-07-29T12:21:18.716Z</time>
      </trkpt>
      <trkpt lat="45.76926" lon="6.71467">
        <ele>1561</ele>
        <time>2026-07-29T12:21:19.716Z</time>
      </trkpt>
      <trkpt lat="45.76928" lon="6.71468">
        <ele>1561</ele>
        <time>2026-07-29T12:21:20.716Z</time>
      </trkpt>
      <trkpt lat="45.76931" lon="6.71468">
        <ele>1561</ele>
        <time>2026-07-29T12:21:21.716Z</time>
      </trkpt>
      <trkpt lat="45.76933" lon="6.71469">
        <ele>1561</ele>
        <time>2026-07-29T12:21:22.716Z</time>
      </trkpt>
      <trkpt lat="45.76935" lon="6.71469">
        <ele>1561</ele>
        <time>2026-07-29T12:21:23.716Z</time>
      </trkpt>
      <trkpt lat="45.76937" lon="6.71469">
        <ele>1560</ele>
        <time>2026-07-29T12:21:24.716Z</time>
      </trkpt>
      <trkpt lat="45.7694" lon="6.71469">
        <ele>1561</ele>
        <time>2026-07-29T12:21:25.716Z</time>
      </trkpt>
      <trkpt lat="45.76942" lon="6.7147">
        <ele>1560</ele>
        <time>2026-07-29T12:21:26.716Z</time>
      </trkpt>
      <trkpt lat="45.76944" lon="6.71471">
        <ele>1560</ele>
        <time>2026-07-29T12:21:27.716Z</time>
      </trkpt>
      <trkpt lat="45.76947" lon="6.71471">
        <ele>1560</ele>
        <time>2026-07-29T12:21:28.716Z</time>
      </trkpt>
      <trkpt lat="45.76949" lon="6.71471">
        <ele>1560</ele>
        <time>2026-07-29T12:21:29.716Z</time>
      </trkpt>
      <trkpt lat="45.76952" lon="6.71472">
        <ele>1560</ele>
        <time>2026-07-29T12:21:30.716Z</time>
      </trkpt>
      <trkpt lat="45.76954" lon="6.71473">
        <ele>1560</ele>
        <time>2026-07-29T12:21:31.716Z</time>
      </trkpt>
      <trkpt lat="45.76957" lon="6.71473">
        <ele>1560</ele>
        <time>2026-07-29T12:21:32.716Z</time>
      </trkpt>
      <trkpt lat="45.7696" lon="6.71474">
        <ele>1560</ele>
        <time>2026-07-29T12:21:33.716Z</time>
      </trkpt>
      <trkpt lat="45.76962" lon="6.71474">
        <ele>1560</ele>
        <time>2026-07-29T12:21:34.716Z</time>
      </trkpt>
      <trkpt lat="45.76964" lon="6.71475">
        <ele>1560</ele>
        <time>2026-07-29T12:21:35.716Z</time>
      </trkpt>
      <trkpt lat="45.76966" lon="6.71475">
        <ele>1560</ele>
        <time>2026-07-29T12:21:36.716Z</time>
      </trkpt>
      <trkpt lat="45.76969" lon="6.71476">
        <ele>1560</ele>
        <time>2026-07-29T12:21:37.716Z</time>
      </trkpt>
      <trkpt lat="45.76971" lon="6.71476">
        <ele>1560</ele>
        <time>2026-07-29T12:21:38.716Z</time>
      </trkpt>
      <trkpt lat="45.76974" lon="6.71477">
        <ele>1559</ele>
        <time>2026-07-29T12:21:39.716Z</time>
      </trkpt>
      <trkpt lat="45.76976" lon="6.71477">
        <ele>1559</ele>
        <time>2026-07-29T12:21:40.716Z</time>
      </trkpt>
      <trkpt lat="45.76979" lon="6.71478">
        <ele>1558</ele>
        <time>2026-07-29T12:21:41.716Z</time>
      </trkpt>
      <trkpt lat="45.76981" lon="6.71478">
        <ele>1558</ele>
        <time>2026-07-29T12:21:42.716Z</time>
      </trkpt>
      <trkpt lat="45.76984" lon="6.71478">
        <ele>1558</ele>
        <time>2026-07-29T12:21:43.716Z</time>
      </trkpt>
      <trkpt lat="45.76986" lon="6.71478">
        <ele>1558</ele>
        <time>2026-07-29T12:21:44.716Z</time>
      </trkpt>
      <trkpt lat="45.76989" lon="6.71479">
        <ele>1558</ele>
        <time>2026-07-29T12:21:45.716Z</time>
      </trkpt>
      <trkpt lat="45.76991" lon="6.71479">
        <ele>1557</ele>
        <time>2026-07-29T12:21:46.716Z</time>
      </trkpt>
      <trkpt lat="45.76993" lon="6.71479">
        <ele>1557</ele>
        <time>2026-07-29T12:21:47.716Z</time>
      </trkpt>
      <trkpt lat="45.76995" lon="6.71479">
        <ele>1557</ele>
        <time>2026-07-29T12:21:48.716Z</time>
      </trkpt>
      <trkpt lat="45.76998" lon="6.71479">
        <ele>1557</ele>
        <time>2026-07-29T12:21:49.716Z</time>
      </trkpt>
      <trkpt lat="45.77" lon="6.71479">
        <ele>1557</ele>
        <time>2026-07-29T12:21:50.716Z</time>
      </trkpt>
      <trkpt lat="45.77002" lon="6.71479">
        <ele>1557</ele>
        <time>2026-07-29T12:21:51.716Z</time>
      </trkpt>
      <trkpt lat="45.77004" lon="6.7148">
        <ele>1557</ele>
        <time>2026-07-29T12:21:52.716Z</time>
      </trkpt>
      <trkpt lat="45.77007" lon="6.7148">
        <ele>1557</ele>
        <time>2026-07-29T12:21:53.716Z</time>
      </trkpt>
      <trkpt lat="45.77009" lon="6.71482">
        <ele>1557</ele>
        <time>2026-07-29T12:21:54.716Z</time>
      </trkpt>
      <trkpt lat="45.77011" lon="6.71483">
        <ele>1557</ele>
        <time>2026-07-29T12:21:55.716Z</time>
      </trkpt>
      <trkpt lat="45.77013" lon="6.71484">
        <ele>1557</ele>
        <time>2026-07-29T12:21:56.716Z</time>
      </trkpt>
      <trkpt lat="45.77015" lon="6.71485">
        <ele>1556</ele>
        <time>2026-07-29T12:21:57.716Z</time>
      </trkpt>
      <trkpt lat="45.77017" lon="6.71487">
        <ele>1556</ele>
        <time>2026-07-29T12:21:58.716Z</time>
      </trkpt>
      <trkpt lat="45.77019" lon="6.71488">
        <ele>1557</ele>
        <time>2026-07-29T12:21:59.716Z</time>
      </trkpt>
      <trkpt lat="45.77021" lon="6.7149">
        <ele>1557</ele>
        <time>2026-07-29T12:22:00.716Z</time>
      </trkpt>
      <trkpt lat="45.77023" lon="6.71492">
        <ele>1557</ele>
        <time>2026-07-29T12:22:01.716Z</time>
      </trkpt>
      <trkpt lat="45.77024" lon="6.71493">
        <ele>1556</ele>
        <time>2026-07-29T12:22:02.716Z</time>
      </trkpt>
      <trkpt lat="45.77026" lon="6.71495">
        <ele>1556</ele>
        <time>2026-07-29T12:22:03.716Z</time>
      </trkpt>
      <trkpt lat="45.77028" lon="6.71497">
        <ele>1555</ele>
        <time>2026-07-29T12:22:04.716Z</time>
      </trkpt>
      <trkpt lat="45.7703" lon="6.71499">
        <ele>1555</ele>
        <time>2026-07-29T12:22:05.716Z</time>
      </trkpt>
      <trkpt lat="45.77032" lon="6.715">
        <ele>1555</ele>
        <time>2026-07-29T12:22:06.716Z</time>
      </trkpt>
      <trkpt lat="45.77034" lon="6.71502">
        <ele>1555</ele>
        <time>2026-07-29T12:22:07.716Z</time>
      </trkpt>
      <trkpt lat="45.77035" lon="6.71504">
        <ele>1555</ele>
        <time>2026-07-29T12:22:08.716Z</time>
      </trkpt>
      <trkpt lat="45.77037" lon="6.71505">
        <ele>1555</ele>
        <time>2026-07-29T12:22:09.716Z</time>
      </trkpt>
      <trkpt lat="45.77038" lon="6.71507">
        <ele>1555</ele>
        <time>2026-07-29T12:22:10.716Z</time>
      </trkpt>
      <trkpt lat="45.7704" lon="6.71508">
        <ele>1555</ele>
        <time>2026-07-29T12:22:11.716Z</time>
      </trkpt>
      <trkpt lat="45.77041" lon="6.7151">
        <ele>1555</ele>
        <time>2026-07-29T12:22:12.716Z</time>
      </trkpt>
      <trkpt lat="45.77043" lon="6.71511">
        <ele>1555</ele>
        <time>2026-07-29T12:22:13.716Z</time>
      </trkpt>
      <trkpt lat="45.77044" lon="6.71512">
        <ele>1555</ele>
        <time>2026-07-29T12:22:14.716Z</time>
      </trkpt>
      <trkpt lat="45.77046" lon="6.71513">
        <ele>1555</ele>
        <time>2026-07-29T12:22:15.716Z</time>
      </trkpt>
      <trkpt lat="45.77048" lon="6.71515">
        <ele>1555</ele>
        <time>2026-07-29T12:22:16.716Z</time>
      </trkpt>
      <trkpt lat="45.7705" lon="6.71516">
        <ele>1555</ele>
        <time>2026-07-29T12:22:17.716Z</time>
      </trkpt>
      <trkpt lat="45.77052" lon="6.71517">
        <ele>1556</ele>
        <time>2026-07-29T12:22:18.716Z</time>
      </trkpt>
      <trkpt lat="45.77054" lon="6.71517">
        <ele>1556</ele>
        <time>2026-07-29T12:22:19.716Z</time>
      </trkpt>
      <trkpt lat="45.77056" lon="6.71519">
        <ele>1557</ele>
        <time>2026-07-29T12:22:20.716Z</time>
      </trkpt>
      <trkpt lat="45.77058" lon="6.7152">
        <ele>1557</ele>
        <time>2026-07-29T12:22:21.716Z</time>
      </trkpt>
      <trkpt lat="45.7706" lon="6.71521">
        <ele>1557</ele>
        <time>2026-07-29T12:22:22.716Z</time>
      </trkpt>
      <trkpt lat="45.77062" lon="6.71523">
        <ele>1558</ele>
        <time>2026-07-29T12:22:23.716Z</time>
      </trkpt>
      <trkpt lat="45.77064" lon="6.71524">
        <ele>1558</ele>
        <time>2026-07-29T12:22:24.716Z</time>
      </trkpt>
      <trkpt lat="45.77066" lon="6.71526">
        <ele>1558</ele>
        <time>2026-07-29T12:22:25.716Z</time>
      </trkpt>
      <trkpt lat="45.77068" lon="6.71528">
        <ele>1558</ele>
        <time>2026-07-29T12:22:26.716Z</time>
      </trkpt>
      <trkpt lat="45.7707" lon="6.71529">
        <ele>1558</ele>
        <time>2026-07-29T12:22:27.716Z</time>
      </trkpt>
      <trkpt lat="45.77072" lon="6.7153">
        <ele>1558</ele>
        <time>2026-07-29T12:22:28.716Z</time>
      </trkpt>
      <trkpt lat="45.77075" lon="6.71531">
        <ele>1558</ele>
        <time>2026-07-29T12:22:29.716Z</time>
      </trkpt>
      <trkpt lat="45.77077" lon="6.71531">
        <ele>1558</ele>
        <time>2026-07-29T12:22:30.716Z</time>
      </trkpt>
      <trkpt lat="45.77079" lon="6.71532">
        <ele>1558</ele>
        <time>2026-07-29T12:22:31.716Z</time>
      </trkpt>
      <trkpt lat="45.77081" lon="6.71533">
        <ele>1558</ele>
        <time>2026-07-29T12:22:32.716Z</time>
      </trkpt>
      <trkpt lat="45.77083" lon="6.71534">
        <ele>1558</ele>
        <time>2026-07-29T12:22:33.716Z</time>
      </trkpt>
      <trkpt lat="45.77085" lon="6.71535">
        <ele>1558</ele>
        <time>2026-07-29T12:22:34.716Z</time>
      </trkpt>
      <trkpt lat="45.77087" lon="6.71535">
        <ele>1558</ele>
        <time>2026-07-29T12:22:35.716Z</time>
      </trkpt>
      <trkpt lat="45.77089" lon="6.71536">
        <ele>1558</ele>
        <time>2026-07-29T12:22:36.716Z</time>
      </trkpt>
      <trkpt lat="45.77091" lon="6.71537">
        <ele>1558</ele>
        <time>2026-07-29T12:22:37.716Z</time>
      </trkpt>
      <trkpt lat="45.77094" lon="6.71537">
        <ele>1558</ele>
        <time>2026-07-29T12:22:38.716Z</time>
      </trkpt>
      <trkpt lat="45.77096" lon="6.71538">
        <ele>1558</ele>
        <time>2026-07-29T12:22:39.717Z</time>
      </trkpt>
      <trkpt lat="45.77098" lon="6.71538">
        <ele>1558</ele>
        <time>2026-07-29T12:22:40.716Z</time>
      </trkpt>
      <trkpt lat="45.771" lon="6.71539">
        <ele>1558</ele>
        <time>2026-07-29T12:22:41.716Z</time>
      </trkpt>
      <trkpt lat="45.77102" lon="6.71539">
        <ele>1558</ele>
        <time>2026-07-29T12:22:42.716Z</time>
      </trkpt>
      <trkpt lat="45.77104" lon="6.7154">
        <ele>1558</ele>
        <time>2026-07-29T12:22:43.716Z</time>
      </trkpt>
      <trkpt lat="45.77106" lon="6.7154">
        <ele>1558</ele>
        <time>2026-07-29T12:22:44.716Z</time>
      </trkpt>
      <trkpt lat="45.77108" lon="6.71541">
        <ele>1557</ele>
        <time>2026-07-29T12:22:45.716Z</time>
      </trkpt>
      <trkpt lat="45.7711" lon="6.71541">
        <ele>1557</ele>
        <time>2026-07-29T12:22:46.716Z</time>
      </trkpt>
      <trkpt lat="45.77112" lon="6.71541">
        <ele>1557</ele>
        <time>2026-07-29T12:22:47.716Z</time>
      </trkpt>
      <trkpt lat="45.77114" lon="6.71541">
        <ele>1557</ele>
        <time>2026-07-29T12:22:48.716Z</time>
      </trkpt>
      <trkpt lat="45.77116" lon="6.71541">
        <ele>1558</ele>
        <time>2026-07-29T12:22:49.716Z</time>
      </trkpt>
      <trkpt lat="45.77118" lon="6.71542">
        <ele>1558</ele>
        <time>2026-07-29T12:22:50.716Z</time>
      </trkpt>
      <trkpt lat="45.7712" lon="6.71542">
        <ele>1558</ele>
        <time>2026-07-29T12:22:51.716Z</time>
      </trkpt>
      <trkpt lat="45.77123" lon="6.71542">
        <ele>1558</ele>
        <time>2026-07-29T12:22:52.716Z</time>
      </trkpt>
      <trkpt lat="45.77125" lon="6.71542">
        <ele>1558</ele>
        <time>2026-07-29T12:22:53.716Z</time>
      </trkpt>
      <trkpt lat="45.77127" lon="6.71543">
        <ele>1559</ele>
        <time>2026-07-29T12:22:54.716Z</time>
      </trkpt>
      <trkpt lat="45.77129" lon="6.71544">
        <ele>1559</ele>
        <time>2026-07-29T12:22:55.716Z</time>
      </trkpt>
      <trkpt lat="45.77131" lon="6.71544">
        <ele>1559</ele>
        <time>2026-07-29T12:22:56.716Z</time>
      </trkpt>
      <trkpt lat="45.77133" lon="6.71544">
        <ele>1559</ele>
        <time>2026-07-29T12:22:57.716Z</time>
      </trkpt>
      <trkpt lat="45.77135" lon="6.71544">
        <ele>1559</ele>
        <time>2026-07-29T12:22:58.716Z</time>
      </trkpt>
      <trkpt lat="45.77138" lon="6.71545">
        <ele>1559</ele>
        <time>2026-07-29T12:22:59.716Z</time>
      </trkpt>
      <trkpt lat="45.7714" lon="6.71546">
        <ele>1559</ele>
        <time>2026-07-29T12:23:00.716Z</time>
      </trkpt>
      <trkpt lat="45.77142" lon="6.71547">
        <ele>1559</ele>
        <time>2026-07-29T12:23:01.716Z</time>
      </trkpt>
      <trkpt lat="45.77143" lon="6.71549">
        <ele>1559</ele>
        <time>2026-07-29T12:23:02.716Z</time>
      </trkpt>
      <trkpt lat="45.77145" lon="6.71551">
        <ele>1559</ele>
        <time>2026-07-29T12:23:03.716Z</time>
      </trkpt>
      <trkpt lat="45.77147" lon="6.71553">
        <ele>1559</ele>
        <time>2026-07-29T12:23:04.716Z</time>
      </trkpt>
      <trkpt lat="45.77149" lon="6.71556">
        <ele>1558</ele>
        <time>2026-07-29T12:23:05.716Z</time>
      </trkpt>
      <trkpt lat="45.7715" lon="6.71559">
        <ele>1558</ele>
        <time>2026-07-29T12:23:06.716Z</time>
      </trkpt>
      <trkpt lat="45.77152" lon="6.71561">
        <ele>1558</ele>
        <time>2026-07-29T12:23:07.716Z</time>
      </trkpt>
      <trkpt lat="45.77154" lon="6.71563">
        <ele>1558</ele>
        <time>2026-07-29T12:23:08.716Z</time>
      </trkpt>
      <trkpt lat="45.77155" lon="6.71566">
        <ele>1557</ele>
        <time>2026-07-29T12:23:09.716Z</time>
      </trkpt>
      <trkpt lat="45.77157" lon="6.71568">
        <ele>1557</ele>
        <time>2026-07-29T12:23:10.716Z</time>
      </trkpt>
      <trkpt lat="45.77159" lon="6.71569">
        <ele>1557</ele>
        <time>2026-07-29T12:23:11.716Z</time>
      </trkpt>
      <trkpt lat="45.77162" lon="6.71571">
        <ele>1556</ele>
        <time>2026-07-29T12:23:12.716Z</time>
      </trkpt>
      <trkpt lat="45.77164" lon="6.71572">
        <ele>1556</ele>
        <time>2026-07-29T12:23:13.716Z</time>
      </trkpt>
      <trkpt lat="45.77166" lon="6.71573">
        <ele>1556</ele>
        <time>2026-07-29T12:23:14.716Z</time>
      </trkpt>
      <trkpt lat="45.77168" lon="6.71574">
        <ele>1556</ele>
        <time>2026-07-29T12:23:15.716Z</time>
      </trkpt>
      <trkpt lat="45.77171" lon="6.71575">
        <ele>1556</ele>
        <time>2026-07-29T12:23:16.716Z</time>
      </trkpt>
      <trkpt lat="45.77173" lon="6.71576">
        <ele>1556</ele>
        <time>2026-07-29T12:23:17.716Z</time>
      </trkpt>
      <trkpt lat="45.77175" lon="6.71576">
        <ele>1556</ele>
        <time>2026-07-29T12:23:18.716Z</time>
      </trkpt>
      <trkpt lat="45.77178" lon="6.71577">
        <ele>1556</ele>
        <time>2026-07-29T12:23:19.716Z</time>
      </trkpt>
      <trkpt lat="45.7718" lon="6.71578">
        <ele>1556</ele>
        <time>2026-07-29T12:23:20.716Z</time>
      </trkpt>
      <trkpt lat="45.77182" lon="6.71578">
        <ele>1555</ele>
        <time>2026-07-29T12:23:21.716Z</time>
      </trkpt>
      <trkpt lat="45.77184" lon="6.71578">
        <ele>1555</ele>
        <time>2026-07-29T12:23:22.716Z</time>
      </trkpt>
      <trkpt lat="45.77187" lon="6.71578">
        <ele>1555</ele>
        <time>2026-07-29T12:23:23.716Z</time>
      </trkpt>
      <trkpt lat="45.77189" lon="6.71579">
        <ele>1555</ele>
        <time>2026-07-29T12:23:24.716Z</time>
      </trkpt>
      <trkpt lat="45.77192" lon="6.71579">
        <ele>1555</ele>
        <time>2026-07-29T12:23:25.716Z</time>
      </trkpt>
      <trkpt lat="45.77194" lon="6.71579">
        <ele>1555</ele>
        <time>2026-07-29T12:23:26.716Z</time>
      </trkpt>
      <trkpt lat="45.77196" lon="6.71579">
        <ele>1555</ele>
        <time>2026-07-29T12:23:27.716Z</time>
      </trkpt>
      <trkpt lat="45.77199" lon="6.71579">
        <ele>1555</ele>
        <time>2026-07-29T12:23:28.716Z</time>
      </trkpt>
      <trkpt lat="45.77201" lon="6.71579">
        <ele>1555</ele>
        <time>2026-07-29T12:23:29.716Z</time>
      </trkpt>
      <trkpt lat="45.77203" lon="6.71579">
        <ele>1555</ele>
        <time>2026-07-29T12:23:30.716Z</time>
      </trkpt>
      <trkpt lat="45.77206" lon="6.71579">
        <ele>1554</ele>
        <time>2026-07-29T12:23:31.716Z</time>
      </trkpt>
      <trkpt lat="45.77208" lon="6.71579">
        <ele>1555</ele>
        <time>2026-07-29T12:23:32.716Z</time>
      </trkpt>
      <trkpt lat="45.7721" lon="6.71579">
        <ele>1555</ele>
        <time>2026-07-29T12:23:33.716Z</time>
      </trkpt>
      <trkpt lat="45.77213" lon="6.71579">
        <ele>1555</ele>
        <time>2026-07-29T12:23:34.716Z</time>
      </trkpt>
      <trkpt lat="45.77215" lon="6.71578">
        <ele>1555</ele>
        <time>2026-07-29T12:23:35.716Z</time>
      </trkpt>
      <trkpt lat="45.77218" lon="6.71577">
        <ele>1555</ele>
        <time>2026-07-29T12:23:36.716Z</time>
      </trkpt>
      <trkpt lat="45.7722" lon="6.71577">
        <ele>1555</ele>
        <time>2026-07-29T12:23:37.716Z</time>
      </trkpt>
      <trkpt lat="45.77222" lon="6.71577">
        <ele>1554</ele>
        <time>2026-07-29T12:23:38.716Z</time>
      </trkpt>
      <trkpt lat="45.77225" lon="6.71576">
        <ele>1554</ele>
        <time>2026-07-29T12:23:39.716Z</time>
      </trkpt>
      <trkpt lat="45.77227" lon="6.71576">
        <ele>1554</ele>
        <time>2026-07-29T12:23:40.716Z</time>
      </trkpt>
      <trkpt lat="45.77229" lon="6.71576">
        <ele>1554</ele>
        <time>2026-07-29T12:23:41.716Z</time>
      </trkpt>
      <trkpt lat="45.77231" lon="6.71575">
        <ele>1554</ele>
        <time>2026-07-29T12:23:42.716Z</time>
      </trkpt>
      <trkpt lat="45.77234" lon="6.71575">
        <ele>1554</ele>
        <time>2026-07-29T12:23:43.716Z</time>
      </trkpt>
      <trkpt lat="45.77236" lon="6.71575">
        <ele>1554</ele>
        <time>2026-07-29T12:23:44.716Z</time>
      </trkpt>
      <trkpt lat="45.77238" lon="6.71574">
        <ele>1554</ele>
        <time>2026-07-29T12:23:45.716Z</time>
      </trkpt>
      <trkpt lat="45.7724" lon="6.71574">
        <ele>1554</ele>
        <time>2026-07-29T12:23:46.716Z</time>
      </trkpt>
      <trkpt lat="45.77243" lon="6.71573">
        <ele>1554</ele>
        <time>2026-07-29T12:23:47.716Z</time>
      </trkpt>
      <trkpt lat="45.77245" lon="6.71573">
        <ele>1554</ele>
        <time>2026-07-29T12:23:48.716Z</time>
      </trkpt>
      <trkpt lat="45.77247" lon="6.71572">
        <ele>1554</ele>
        <time>2026-07-29T12:23:49.716Z</time>
      </trkpt>
      <trkpt lat="45.77249" lon="6.71571">
        <ele>1554</ele>
        <time>2026-07-29T12:23:50.716Z</time>
      </trkpt>
      <trkpt lat="45.77251" lon="6.71571">
        <ele>1554</ele>
        <time>2026-07-29T12:23:51.716Z</time>
      </trkpt>
      <trkpt lat="45.77253" lon="6.7157">
        <ele>1554</ele>
        <time>2026-07-29T12:23:52.716Z</time>
      </trkpt>
      <trkpt lat="45.77255" lon="6.7157">
        <ele>1554</ele>
        <time>2026-07-29T12:23:53.716Z</time>
      </trkpt>
      <trkpt lat="45.77257" lon="6.71569">
        <ele>1554</ele>
        <time>2026-07-29T12:23:54.716Z</time>
      </trkpt>
      <trkpt lat="45.77259" lon="6.71569">
        <ele>1554</ele>
        <time>2026-07-29T12:23:55.716Z</time>
      </trkpt>
      <trkpt lat="45.77262" lon="6.71569">
        <ele>1554</ele>
        <time>2026-07-29T12:23:56.716Z</time>
      </trkpt>
      <trkpt lat="45.77264" lon="6.71569">
        <ele>1553</ele>
        <time>2026-07-29T12:23:57.716Z</time>
      </trkpt>
      <trkpt lat="45.77265" lon="6.71568">
        <ele>1553</ele>
        <time>2026-07-29T12:23:58.716Z</time>
      </trkpt>
      <trkpt lat="45.77267" lon="6.71567">
        <ele>1552</ele>
        <time>2026-07-29T12:23:59.716Z</time>
      </trkpt>
      <trkpt lat="45.77269" lon="6.71566">
        <ele>1552</ele>
        <time>2026-07-29T12:24:00.716Z</time>
      </trkpt>
      <trkpt lat="45.7727" lon="6.71566">
        <ele>1552</ele>
        <time>2026-07-29T12:24:01.716Z</time>
      </trkpt>
      <trkpt lat="45.77272" lon="6.71565">
        <ele>1552</ele>
        <time>2026-07-29T12:24:02.716Z</time>
      </trkpt>
      <trkpt lat="45.77274" lon="6.71566">
        <ele>1552</ele>
        <time>2026-07-29T12:24:03.716Z</time>
      </trkpt>
      <trkpt lat="45.77276" lon="6.71567">
        <ele>1551</ele>
        <time>2026-07-29T12:24:04.716Z</time>
      </trkpt>
      <trkpt lat="45.77279" lon="6.71569">
        <ele>1551</ele>
        <time>2026-07-29T12:24:05.716Z</time>
      </trkpt>
      <trkpt lat="45.7728" lon="6.7157">
        <ele>1551</ele>
        <time>2026-07-29T12:24:06.716Z</time>
      </trkpt>
      <trkpt lat="45.77281" lon="6.71571">
        <ele>1550</ele>
        <time>2026-07-29T12:24:07.716Z</time>
      </trkpt>
      <trkpt lat="45.77283" lon="6.71572">
        <ele>1550</ele>
        <time>2026-07-29T12:24:08.716Z</time>
      </trkpt>
      <trkpt lat="45.77284" lon="6.71573">
        <ele>1550</ele>
        <time>2026-07-29T12:24:09.716Z</time>
      </trkpt>
      <trkpt lat="45.77286" lon="6.71574">
        <ele>1551</ele>
        <time>2026-07-29T12:24:10.716Z</time>
      </trkpt>
      <trkpt lat="45.77288" lon="6.71574">
        <ele>1551</ele>
        <time>2026-07-29T12:24:11.716Z</time>
      </trkpt>
      <trkpt lat="45.7729" lon="6.71575">
        <ele>1551</ele>
        <time>2026-07-29T12:24:12.716Z</time>
      </trkpt>
      <trkpt lat="45.77293" lon="6.71576">
        <ele>1552</ele>
        <time>2026-07-29T12:24:13.716Z</time>
      </trkpt>
      <trkpt lat="45.77295" lon="6.71576">
        <ele>1552</ele>
        <time>2026-07-29T12:24:14.716Z</time>
      </trkpt>
      <trkpt lat="45.77297" lon="6.71577">
        <ele>1552</ele>
        <time>2026-07-29T12:24:15.716Z</time>
      </trkpt>
      <trkpt lat="45.77299" lon="6.71577">
        <ele>1552</ele>
        <time>2026-07-29T12:24:16.716Z</time>
      </trkpt>
      <trkpt lat="45.77301" lon="6.71578">
        <ele>1552</ele>
        <time>2026-07-29T12:24:17.716Z</time>
      </trkpt>
      <trkpt lat="45.77304" lon="6.71578">
        <ele>1552</ele>
        <time>2026-07-29T12:24:18.716Z</time>
      </trkpt>
      <trkpt lat="45.77306" lon="6.71579">
        <ele>1552</ele>
        <time>2026-07-29T12:24:19.716Z</time>
      </trkpt>
      <trkpt lat="45.77308" lon="6.7158">
        <ele>1552</ele>
        <time>2026-07-29T12:24:20.716Z</time>
      </trkpt>
      <trkpt lat="45.7731" lon="6.7158">
        <ele>1552</ele>
        <time>2026-07-29T12:24:21.716Z</time>
      </trkpt>
      <trkpt lat="45.77312" lon="6.71581">
        <ele>1552</ele>
        <time>2026-07-29T12:24:22.716Z</time>
      </trkpt>
      <trkpt lat="45.77314" lon="6.71582">
        <ele>1552</ele>
        <time>2026-07-29T12:24:23.716Z</time>
      </trkpt>
      <trkpt lat="45.77316" lon="6.71582">
        <ele>1552</ele>
        <time>2026-07-29T12:24:24.716Z</time>
      </trkpt>
      <trkpt lat="45.77318" lon="6.71583">
        <ele>1552</ele>
        <time>2026-07-29T12:24:25.716Z</time>
      </trkpt>
      <trkpt lat="45.7732" lon="6.71584">
        <ele>1551</ele>
        <time>2026-07-29T12:24:26.716Z</time>
      </trkpt>
      <trkpt lat="45.77322" lon="6.71584">
        <ele>1551</ele>
        <time>2026-07-29T12:24:27.716Z</time>
      </trkpt>
      <trkpt lat="45.77325" lon="6.71585">
        <ele>1551</ele>
        <time>2026-07-29T12:24:28.716Z</time>
      </trkpt>
      <trkpt lat="45.77327" lon="6.71586">
        <ele>1551</ele>
        <time>2026-07-29T12:24:29.716Z</time>
      </trkpt>
      <trkpt lat="45.77329" lon="6.71587">
        <ele>1551</ele>
        <time>2026-07-29T12:24:30.716Z</time>
      </trkpt>
      <trkpt lat="45.77331" lon="6.71588">
        <ele>1550</ele>
        <time>2026-07-29T12:24:31.716Z</time>
      </trkpt>
      <trkpt lat="45.77333" lon="6.71588">
        <ele>1550</ele>
        <time>2026-07-29T12:24:32.716Z</time>
      </trkpt>
      <trkpt lat="45.77335" lon="6.71589">
        <ele>1550</ele>
        <time>2026-07-29T12:24:33.716Z</time>
      </trkpt>
      <trkpt lat="45.77337" lon="6.71589">
        <ele>1549</ele>
        <time>2026-07-29T12:24:34.716Z</time>
      </trkpt>
      <trkpt lat="45.77338" lon="6.7159">
        <ele>1549</ele>
        <time>2026-07-29T12:24:35.716Z</time>
      </trkpt>
      <trkpt lat="45.77339" lon="6.7159">
        <ele>1548</ele>
        <time>2026-07-29T12:24:36.716Z</time>
      </trkpt>
      <trkpt lat="45.7734" lon="6.71589">
        <ele>1548</ele>
        <time>2026-07-29T12:24:37.716Z</time>
      </trkpt>
      <trkpt lat="45.77341" lon="6.71589">
        <ele>1548</ele>
        <time>2026-07-29T12:24:38.716Z</time>
      </trkpt>
      <trkpt lat="45.77342" lon="6.7159">
        <ele>1547</ele>
        <time>2026-07-29T12:24:39.716Z</time>
      </trkpt>
      <trkpt lat="45.77343" lon="6.71591">
        <ele>1547</ele>
        <time>2026-07-29T12:24:40.716Z</time>
      </trkpt>
      <trkpt lat="45.77344" lon="6.71593">
        <ele>1548</ele>
        <time>2026-07-29T12:24:41.716Z</time>
      </trkpt>
      <trkpt lat="45.77345" lon="6.71594">
        <ele>1548</ele>
        <time>2026-07-29T12:24:42.716Z</time>
      </trkpt>
      <trkpt lat="45.77347" lon="6.71595">
        <ele>1548</ele>
        <time>2026-07-29T12:24:43.716Z</time>
      </trkpt>
      <trkpt lat="45.77349" lon="6.71595">
        <ele>1548</ele>
        <time>2026-07-29T12:24:44.716Z</time>
      </trkpt>
      <trkpt lat="45.77351" lon="6.71596">
        <ele>1548</ele>
        <time>2026-07-29T12:24:45.716Z</time>
      </trkpt>
      <trkpt lat="45.77354" lon="6.71596">
        <ele>1548</ele>
        <time>2026-07-29T12:24:46.716Z</time>
      </trkpt>
      <trkpt lat="45.77356" lon="6.71597">
        <ele>1548</ele>
        <time>2026-07-29T12:24:47.716Z</time>
      </trkpt>
      <trkpt lat="45.77358" lon="6.71597">
        <ele>1548</ele>
        <time>2026-07-29T12:24:48.716Z</time>
      </trkpt>
      <trkpt lat="45.7736" lon="6.71597">
        <ele>1548</ele>
        <time>2026-07-29T12:24:49.716Z</time>
      </trkpt>
      <trkpt lat="45.77363" lon="6.71596">
        <ele>1548</ele>
        <time>2026-07-29T12:24:50.716Z</time>
      </trkpt>
      <trkpt lat="45.77365" lon="6.71595">
        <ele>1548</ele>
        <time>2026-07-29T12:24:51.716Z</time>
      </trkpt>
      <trkpt lat="45.77367" lon="6.71595">
        <ele>1548</ele>
        <time>2026-07-29T12:24:52.716Z</time>
      </trkpt>
      <trkpt lat="45.7737" lon="6.71594">
        <ele>1547</ele>
        <time>2026-07-29T12:24:53.716Z</time>
      </trkpt>
      <trkpt lat="45.77372" lon="6.71593">
        <ele>1547</ele>
        <time>2026-07-29T12:24:54.716Z</time>
      </trkpt>
      <trkpt lat="45.77375" lon="6.71593">
        <ele>1547</ele>
        <time>2026-07-29T12:24:55.716Z</time>
      </trkpt>
      <trkpt lat="45.77378" lon="6.71593">
        <ele>1547</ele>
        <time>2026-07-29T12:24:56.716Z</time>
      </trkpt>
      <trkpt lat="45.77381" lon="6.71593">
        <ele>1546</ele>
        <time>2026-07-29T12:24:57.716Z</time>
      </trkpt>
      <trkpt lat="45.77383" lon="6.71593">
        <ele>1546</ele>
        <time>2026-07-29T12:24:58.716Z</time>
      </trkpt>
      <trkpt lat="45.77386" lon="6.71594">
        <ele>1546</ele>
        <time>2026-07-29T12:24:59.716Z</time>
      </trkpt>
      <trkpt lat="45.77389" lon="6.71594">
        <ele>1546</ele>
        <time>2026-07-29T12:25:00.716Z</time>
      </trkpt>
      <trkpt lat="45.77391" lon="6.71594">
        <ele>1546</ele>
        <time>2026-07-29T12:25:01.716Z</time>
      </trkpt>
      <trkpt lat="45.77394" lon="6.71594">
        <ele>1545</ele>
        <time>2026-07-29T12:25:02.716Z</time>
      </trkpt>
      <trkpt lat="45.77396" lon="6.71595">
        <ele>1545</ele>
        <time>2026-07-29T12:25:03.716Z</time>
      </trkpt>
      <trkpt lat="45.77397" lon="6.71595">
        <ele>1545</ele>
        <time>2026-07-29T12:25:04.716Z</time>
      </trkpt>
      <trkpt lat="45.77399" lon="6.71595">
        <ele>1545</ele>
        <time>2026-07-29T12:25:05.716Z</time>
      </trkpt>
      <trkpt lat="45.77399" lon="6.71596">
        <ele>1546</ele>
        <time>2026-07-29T12:25:06.717Z</time>
      </trkpt>
      <trkpt lat="45.774" lon="6.71595">
        <ele>1546</ele>
        <time>2026-07-29T12:25:07.716Z</time>
      </trkpt>
      <trkpt lat="45.77401" lon="6.71595">
        <ele>1547</ele>
        <time>2026-07-29T12:25:08.716Z</time>
      </trkpt>
      <trkpt lat="45.77401" lon="6.71595">
        <ele>1547</ele>
        <time>2026-07-29T12:25:09.716Z</time>
      </trkpt>
      <trkpt lat="45.77402" lon="6.71594">
        <ele>1548</ele>
        <time>2026-07-29T12:25:10.716Z</time>
      </trkpt>
      <trkpt lat="45.77403" lon="6.71593">
        <ele>1548</ele>
        <time>2026-07-29T12:25:11.716Z</time>
      </trkpt>
      <trkpt lat="45.77405" lon="6.71593">
        <ele>1548</ele>
        <time>2026-07-29T12:25:12.716Z</time>
      </trkpt>
      <trkpt lat="45.77407" lon="6.71593">
        <ele>1548</ele>
        <time>2026-07-29T12:25:13.716Z</time>
      </trkpt>
      <trkpt lat="45.77409" lon="6.71593">
        <ele>1548</ele>
        <time>2026-07-29T12:25:14.716Z</time>
      </trkpt>
      <trkpt lat="45.77411" lon="6.71592">
        <ele>1548</ele>
        <time>2026-07-29T12:25:15.716Z</time>
      </trkpt>
      <trkpt lat="45.77414" lon="6.71592">
        <ele>1548</ele>
        <time>2026-07-29T12:25:16.716Z</time>
      </trkpt>
      <trkpt lat="45.77416" lon="6.71591">
        <ele>1548</ele>
        <time>2026-07-29T12:25:17.716Z</time>
      </trkpt>
      <trkpt lat="45.77418" lon="6.71591">
        <ele>1548</ele>
        <time>2026-07-29T12:25:18.716Z</time>
      </trkpt>
      <trkpt lat="45.77421" lon="6.7159">
        <ele>1548</ele>
        <time>2026-07-29T12:25:19.716Z</time>
      </trkpt>
      <trkpt lat="45.77423" lon="6.71588">
        <ele>1547</ele>
        <time>2026-07-29T12:25:20.716Z</time>
      </trkpt>
      <trkpt lat="45.77425" lon="6.71587">
        <ele>1547</ele>
        <time>2026-07-29T12:25:21.716Z</time>
      </trkpt>
      <trkpt lat="45.77428" lon="6.71585">
        <ele>1546</ele>
        <time>2026-07-29T12:25:22.716Z</time>
      </trkpt>
      <trkpt lat="45.7743" lon="6.71584">
        <ele>1546</ele>
        <time>2026-07-29T12:25:23.716Z</time>
      </trkpt>
      <trkpt lat="45.77432" lon="6.71582">
        <ele>1545</ele>
        <time>2026-07-29T12:25:24.716Z</time>
      </trkpt>
      <trkpt lat="45.77434" lon="6.71582">
        <ele>1545</ele>
        <time>2026-07-29T12:25:25.716Z</time>
      </trkpt>
      <trkpt lat="45.77437" lon="6.71581">
        <ele>1544</ele>
        <time>2026-07-29T12:25:26.716Z</time>
      </trkpt>
      <trkpt lat="45.77438" lon="6.71579">
        <ele>1544</ele>
        <time>2026-07-29T12:25:27.716Z</time>
      </trkpt>
      <trkpt lat="45.77441" lon="6.71578">
        <ele>1544</ele>
        <time>2026-07-29T12:25:28.716Z</time>
      </trkpt>
      <trkpt lat="45.77443" lon="6.71577">
        <ele>1544</ele>
        <time>2026-07-29T12:25:29.716Z</time>
      </trkpt>
      <trkpt lat="45.77445" lon="6.71576">
        <ele>1544</ele>
        <time>2026-07-29T12:25:30.716Z</time>
      </trkpt>
      <trkpt lat="45.77447" lon="6.71575">
        <ele>1544</ele>
        <time>2026-07-29T12:25:31.716Z</time>
      </trkpt>
      <trkpt lat="45.7745" lon="6.71575">
        <ele>1544</ele>
        <time>2026-07-29T12:25:32.716Z</time>
      </trkpt>
      <trkpt lat="45.77452" lon="6.71575">
        <ele>1544</ele>
        <time>2026-07-29T12:25:33.716Z</time>
      </trkpt>
      <trkpt lat="45.77454" lon="6.71574">
        <ele>1544</ele>
        <time>2026-07-29T12:25:34.716Z</time>
      </trkpt>
      <trkpt lat="45.77456" lon="6.71574">
        <ele>1544</ele>
        <time>2026-07-29T12:25:35.716Z</time>
      </trkpt>
      <trkpt lat="45.77459" lon="6.71575">
        <ele>1544</ele>
        <time>2026-07-29T12:25:36.716Z</time>
      </trkpt>
      <trkpt lat="45.77461" lon="6.71576">
        <ele>1544</ele>
        <time>2026-07-29T12:25:37.716Z</time>
      </trkpt>
      <trkpt lat="45.77464" lon="6.71576">
        <ele>1544</ele>
        <time>2026-07-29T12:25:38.716Z</time>
      </trkpt>
      <trkpt lat="45.77466" lon="6.71577">
        <ele>1544</ele>
        <time>2026-07-29T12:25:39.716Z</time>
      </trkpt>
      <trkpt lat="45.77468" lon="6.71577">
        <ele>1544</ele>
        <time>2026-07-29T12:25:40.716Z</time>
      </trkpt>
      <trkpt lat="45.7747" lon="6.71578">
        <ele>1544</ele>
        <time>2026-07-29T12:25:41.716Z</time>
      </trkpt>
      <trkpt lat="45.77472" lon="6.71577">
        <ele>1544</ele>
        <time>2026-07-29T12:25:42.716Z</time>
      </trkpt>
      <trkpt lat="45.77474" lon="6.71576">
        <ele>1544</ele>
        <time>2026-07-29T12:25:43.716Z</time>
      </trkpt>
      <trkpt lat="45.77477" lon="6.71576">
        <ele>1544</ele>
        <time>2026-07-29T12:25:44.716Z</time>
      </trkpt>
      <trkpt lat="45.77479" lon="6.71577">
        <ele>1543</ele>
        <time>2026-07-29T12:25:45.716Z</time>
      </trkpt>
      <trkpt lat="45.77482" lon="6.71577">
        <ele>1542</ele>
        <time>2026-07-29T12:25:46.716Z</time>
      </trkpt>
      <trkpt lat="45.77483" lon="6.71577">
        <ele>1542</ele>
        <time>2026-07-29T12:25:47.716Z</time>
      </trkpt>
      <trkpt lat="45.77485" lon="6.71577">
        <ele>1541</ele>
        <time>2026-07-29T12:25:48.716Z</time>
      </trkpt>
      <trkpt lat="45.77487" lon="6.71577">
        <ele>1541</ele>
        <time>2026-07-29T12:25:49.716Z</time>
      </trkpt>
      <trkpt lat="45.77488" lon="6.71577">
        <ele>1540</ele>
        <time>2026-07-29T12:25:50.716Z</time>
      </trkpt>
      <trkpt lat="45.7749" lon="6.71577">
        <ele>1540</ele>
        <time>2026-07-29T12:25:51.716Z</time>
      </trkpt>
      <trkpt lat="45.77492" lon="6.71577">
        <ele>1539</ele>
        <time>2026-07-29T12:25:52.716Z</time>
      </trkpt>
      <trkpt lat="45.77494" lon="6.71578">
        <ele>1539</ele>
        <time>2026-07-29T12:25:53.716Z</time>
      </trkpt>
      <trkpt lat="45.77496" lon="6.71578">
        <ele>1539</ele>
        <time>2026-07-29T12:25:54.716Z</time>
      </trkpt>
      <trkpt lat="45.77498" lon="6.71578">
        <ele>1539</ele>
        <time>2026-07-29T12:25:55.716Z</time>
      </trkpt>
      <trkpt lat="45.775" lon="6.71578">
        <ele>1539</ele>
        <time>2026-07-29T12:25:56.716Z</time>
      </trkpt>
      <trkpt lat="45.77502" lon="6.71578">
        <ele>1538</ele>
        <time>2026-07-29T12:25:57.716Z</time>
      </trkpt>
      <trkpt lat="45.77504" lon="6.71578">
        <ele>1538</ele>
        <time>2026-07-29T12:25:58.716Z</time>
      </trkpt>
      <trkpt lat="45.77506" lon="6.71579">
        <ele>1538</ele>
        <time>2026-07-29T12:25:59.716Z</time>
      </trkpt>
      <trkpt lat="45.77508" lon="6.71579">
        <ele>1538</ele>
        <time>2026-07-29T12:26:00.716Z</time>
      </trkpt>
      <trkpt lat="45.7751" lon="6.71578">
        <ele>1538</ele>
        <time>2026-07-29T12:26:01.716Z</time>
      </trkpt>
      <trkpt lat="45.77512" lon="6.71579">
        <ele>1538</ele>
        <time>2026-07-29T12:26:02.716Z</time>
      </trkpt>
      <trkpt lat="45.77514" lon="6.7158">
        <ele>1537</ele>
        <time>2026-07-29T12:26:03.716Z</time>
      </trkpt>
      <trkpt lat="45.77516" lon="6.71578">
        <ele>1537</ele>
        <time>2026-07-29T12:26:04.716Z</time>
      </trkpt>
      <trkpt lat="45.77518" lon="6.71577">
        <ele>1536</ele>
        <time>2026-07-29T12:26:05.716Z</time>
      </trkpt>
      <trkpt lat="45.77521" lon="6.71576">
        <ele>1536</ele>
        <time>2026-07-29T12:26:06.716Z</time>
      </trkpt>
      <trkpt lat="45.77523" lon="6.71575">
        <ele>1535</ele>
        <time>2026-07-29T12:26:07.716Z</time>
      </trkpt>
      <trkpt lat="45.77526" lon="6.71573">
        <ele>1534</ele>
        <time>2026-07-29T12:26:08.716Z</time>
      </trkpt>
      <trkpt lat="45.77528" lon="6.71572">
        <ele>1534</ele>
        <time>2026-07-29T12:26:09.716Z</time>
      </trkpt>
      <trkpt lat="45.77531" lon="6.71569">
        <ele>1533</ele>
        <time>2026-07-29T12:26:10.716Z</time>
      </trkpt>
      <trkpt lat="45.77533" lon="6.71567">
        <ele>1532</ele>
        <time>2026-07-29T12:26:11.716Z</time>
      </trkpt>
      <trkpt lat="45.77535" lon="6.71565">
        <ele>1532</ele>
        <time>2026-07-29T12:26:12.716Z</time>
      </trkpt>
      <trkpt lat="45.77537" lon="6.71563">
        <ele>1532</ele>
        <time>2026-07-29T12:26:13.716Z</time>
      </trkpt>
      <trkpt lat="45.77539" lon="6.71561">
        <ele>1531</ele>
        <time>2026-07-29T12:26:14.716Z</time>
      </trkpt>
      <trkpt lat="45.77541" lon="6.7156">
        <ele>1531</ele>
        <time>2026-07-29T12:26:15.716Z</time>
      </trkpt>
      <trkpt lat="45.77543" lon="6.7156">
        <ele>1531</ele>
        <time>2026-07-29T12:26:16.716Z</time>
      </trkpt>
      <trkpt lat="45.77544" lon="6.71559">
        <ele>1531</ele>
        <time>2026-07-29T12:26:17.716Z</time>
      </trkpt>
      <trkpt lat="45.77546" lon="6.71558">
        <ele>1531</ele>
        <time>2026-07-29T12:26:18.716Z</time>
      </trkpt>
      <trkpt lat="45.77548" lon="6.71557">
        <ele>1531</ele>
        <time>2026-07-29T12:26:19.716Z</time>
      </trkpt>
      <trkpt lat="45.7755" lon="6.71556">
        <ele>1531</ele>
        <time>2026-07-29T12:26:20.716Z</time>
      </trkpt>
      <trkpt lat="45.77551" lon="6.71555">
        <ele>1530</ele>
        <time>2026-07-29T12:26:21.716Z</time>
      </trkpt>
      <trkpt lat="45.77553" lon="6.71553">
        <ele>1529</ele>
        <time>2026-07-29T12:26:22.716Z</time>
      </trkpt>
      <trkpt lat="45.77555" lon="6.71551">
        <ele>1528</ele>
        <time>2026-07-29T12:26:23.716Z</time>
      </trkpt>
      <trkpt lat="45.77557" lon="6.71549">
        <ele>1527</ele>
        <time>2026-07-29T12:26:24.716Z</time>
      </trkpt>
      <trkpt lat="45.77559" lon="6.71547">
        <ele>1526</ele>
        <time>2026-07-29T12:26:25.716Z</time>
      </trkpt>
      <trkpt lat="45.7756" lon="6.71544">
        <ele>1526</ele>
        <time>2026-07-29T12:26:26.716Z</time>
      </trkpt>
      <trkpt lat="45.77562" lon="6.71542">
        <ele>1525</ele>
        <time>2026-07-29T12:26:27.716Z</time>
      </trkpt>
      <trkpt lat="45.77563" lon="6.71538">
        <ele>1524</ele>
        <time>2026-07-29T12:26:28.716Z</time>
      </trkpt>
      <trkpt lat="45.77563" lon="6.71535">
        <ele>1524</ele>
        <time>2026-07-29T12:26:29.716Z</time>
      </trkpt>
      <trkpt lat="45.77564" lon="6.71531">
        <ele>1523</ele>
        <time>2026-07-29T12:26:30.716Z</time>
      </trkpt>
      <trkpt lat="45.77566" lon="6.71528">
        <ele>1523</ele>
        <time>2026-07-29T12:26:31.716Z</time>
      </trkpt>
      <trkpt lat="45.77568" lon="6.71525">
        <ele>1523</ele>
        <time>2026-07-29T12:26:32.716Z</time>
      </trkpt>
      <trkpt lat="45.77569" lon="6.71522">
        <ele>1523</ele>
        <time>2026-07-29T12:26:33.716Z</time>
      </trkpt>
      <trkpt lat="45.77571" lon="6.7152">
        <ele>1523</ele>
        <time>2026-07-29T12:26:34.716Z</time>
      </trkpt>
      <trkpt lat="45.77573" lon="6.71518">
        <ele>1523</ele>
        <time>2026-07-29T12:26:35.716Z</time>
      </trkpt>
      <trkpt lat="45.77575" lon="6.71515">
        <ele>1522</ele>
        <time>2026-07-29T12:26:36.716Z</time>
      </trkpt>
      <trkpt lat="45.77578" lon="6.71513">
        <ele>1522</ele>
        <time>2026-07-29T12:26:37.716Z</time>
      </trkpt>
      <trkpt lat="45.7758" lon="6.71512">
        <ele>1522</ele>
        <time>2026-07-29T12:26:38.716Z</time>
      </trkpt>
      <trkpt lat="45.77582" lon="6.7151">
        <ele>1522</ele>
        <time>2026-07-29T12:26:39.716Z</time>
      </trkpt>
      <trkpt lat="45.77584" lon="6.71509">
        <ele>1521</ele>
        <time>2026-07-29T12:26:40.716Z</time>
      </trkpt>
      <trkpt lat="45.77587" lon="6.71508">
        <ele>1521</ele>
        <time>2026-07-29T12:26:41.716Z</time>
      </trkpt>
      <trkpt lat="45.77589" lon="6.71507">
        <ele>1521</ele>
        <time>2026-07-29T12:26:42.716Z</time>
      </trkpt>
      <trkpt lat="45.77592" lon="6.71507">
        <ele>1521</ele>
        <time>2026-07-29T12:26:43.716Z</time>
      </trkpt>
      <trkpt lat="45.77594" lon="6.71506">
        <ele>1521</ele>
        <time>2026-07-29T12:26:44.716Z</time>
      </trkpt>
      <trkpt lat="45.77597" lon="6.71506">
        <ele>1520</ele>
        <time>2026-07-29T12:26:45.716Z</time>
      </trkpt>
      <trkpt lat="45.77599" lon="6.71505">
        <ele>1520</ele>
        <time>2026-07-29T12:26:46.716Z</time>
      </trkpt>
      <trkpt lat="45.77602" lon="6.71505">
        <ele>1519</ele>
        <time>2026-07-29T12:26:47.716Z</time>
      </trkpt>
      <trkpt lat="45.77604" lon="6.71504">
        <ele>1518</ele>
        <time>2026-07-29T12:26:48.716Z</time>
      </trkpt>
      <trkpt lat="45.77606" lon="6.71503">
        <ele>1517</ele>
        <time>2026-07-29T12:26:49.716Z</time>
      </trkpt>
      <trkpt lat="45.77609" lon="6.71502">
        <ele>1516</ele>
        <time>2026-07-29T12:26:50.716Z</time>
      </trkpt>
      <trkpt lat="45.77611" lon="6.715">
        <ele>1515</ele>
        <time>2026-07-29T12:26:51.716Z</time>
      </trkpt>
      <trkpt lat="45.77613" lon="6.71499">
        <ele>1514</ele>
        <time>2026-07-29T12:26:52.716Z</time>
      </trkpt>
      <trkpt lat="45.77616" lon="6.71497">
        <ele>1513</ele>
        <time>2026-07-29T12:26:53.716Z</time>
      </trkpt>
      <trkpt lat="45.77618" lon="6.71495">
        <ele>1512</ele>
        <time>2026-07-29T12:26:54.716Z</time>
      </trkpt>
      <trkpt lat="45.77621" lon="6.71494">
        <ele>1511</ele>
        <time>2026-07-29T12:26:55.716Z</time>
      </trkpt>
      <trkpt lat="45.77623" lon="6.71493">
        <ele>1511</ele>
        <time>2026-07-29T12:26:56.716Z</time>
      </trkpt>
      <trkpt lat="45.77626" lon="6.71491">
        <ele>1510</ele>
        <time>2026-07-29T12:26:57.716Z</time>
      </trkpt>
      <trkpt lat="45.77629" lon="6.7149">
        <ele>1509</ele>
        <time>2026-07-29T12:26:58.716Z</time>
      </trkpt>
      <trkpt lat="45.77632" lon="6.71489">
        <ele>1508</ele>
        <time>2026-07-29T12:26:59.716Z</time>
      </trkpt>
      <trkpt lat="45.77634" lon="6.71488">
        <ele>1508</ele>
        <time>2026-07-29T12:27:00.716Z</time>
      </trkpt>
      <trkpt lat="45.77637" lon="6.71487">
        <ele>1507</ele>
        <time>2026-07-29T12:27:01.716Z</time>
      </trkpt>
      <trkpt lat="45.7764" lon="6.71487">
        <ele>1507</ele>
        <time>2026-07-29T12:27:02.716Z</time>
      </trkpt>
      <trkpt lat="45.77643" lon="6.71487">
        <ele>1507</ele>
        <time>2026-07-29T12:27:03.716Z</time>
      </trkpt>
      <trkpt lat="45.77646" lon="6.71487">
        <ele>1507</ele>
        <time>2026-07-29T12:27:04.716Z</time>
      </trkpt>
      <trkpt lat="45.77648" lon="6.71487">
        <ele>1507</ele>
        <time>2026-07-29T12:27:05.716Z</time>
      </trkpt>
      <trkpt lat="45.77651" lon="6.71488">
        <ele>1507</ele>
        <time>2026-07-29T12:27:06.716Z</time>
      </trkpt>
      <trkpt lat="45.77653" lon="6.71488">
        <ele>1506</ele>
        <time>2026-07-29T12:27:07.716Z</time>
      </trkpt>
      <trkpt lat="45.77655" lon="6.71488">
        <ele>1506</ele>
        <time>2026-07-29T12:27:08.716Z</time>
      </trkpt>
      <trkpt lat="45.77658" lon="6.71487">
        <ele>1506</ele>
        <time>2026-07-29T12:27:09.716Z</time>
      </trkpt>
      <trkpt lat="45.7766" lon="6.71487">
        <ele>1506</ele>
        <time>2026-07-29T12:27:10.716Z</time>
      </trkpt>
      <trkpt lat="45.77662" lon="6.71487">
        <ele>1506</ele>
        <time>2026-07-29T12:27:11.716Z</time>
      </trkpt>
      <trkpt lat="45.77664" lon="6.71487">
        <ele>1506</ele>
        <time>2026-07-29T12:27:12.716Z</time>
      </trkpt>
      <trkpt lat="45.77666" lon="6.71486">
        <ele>1506</ele>
        <time>2026-07-29T12:27:13.716Z</time>
      </trkpt>
      <trkpt lat="45.77668" lon="6.71486">
        <ele>1506</ele>
        <time>2026-07-29T12:27:14.716Z</time>
      </trkpt>
      <trkpt lat="45.7767" lon="6.71486">
        <ele>1506</ele>
        <time>2026-07-29T12:27:15.716Z</time>
      </trkpt>
      <trkpt lat="45.77672" lon="6.71487">
        <ele>1506</ele>
        <time>2026-07-29T12:27:16.716Z</time>
      </trkpt>
      <trkpt lat="45.77674" lon="6.71487">
        <ele>1505</ele>
        <time>2026-07-29T12:27:17.716Z</time>
      </trkpt>
      <trkpt lat="45.77676" lon="6.71488">
        <ele>1504</ele>
        <time>2026-07-29T12:27:18.716Z</time>
      </trkpt>
      <trkpt lat="45.77678" lon="6.71488">
        <ele>1504</ele>
        <time>2026-07-29T12:27:19.716Z</time>
      </trkpt>
      <trkpt lat="45.7768" lon="6.71488">
        <ele>1503</ele>
        <time>2026-07-29T12:27:20.716Z</time>
      </trkpt>
      <trkpt lat="45.77683" lon="6.71488">
        <ele>1503</ele>
        <time>2026-07-29T12:27:21.716Z</time>
      </trkpt>
      <trkpt lat="45.77685" lon="6.71487">
        <ele>1502</ele>
        <time>2026-07-29T12:27:22.716Z</time>
      </trkpt>
      <trkpt lat="45.77687" lon="6.71486">
        <ele>1501</ele>
        <time>2026-07-29T12:27:23.716Z</time>
      </trkpt>
      <trkpt lat="45.77689" lon="6.71484">
        <ele>1500</ele>
        <time>2026-07-29T12:27:24.716Z</time>
      </trkpt>
      <trkpt lat="45.77691" lon="6.71482">
        <ele>1499</ele>
        <time>2026-07-29T12:27:25.716Z</time>
      </trkpt>
      <trkpt lat="45.77693" lon="6.7148">
        <ele>1499</ele>
        <time>2026-07-29T12:27:26.716Z</time>
      </trkpt>
      <trkpt lat="45.77695" lon="6.71478">
        <ele>1498</ele>
        <time>2026-07-29T12:27:27.716Z</time>
      </trkpt>
      <trkpt lat="45.77696" lon="6.71476">
        <ele>1497</ele>
        <time>2026-07-29T12:27:28.716Z</time>
      </trkpt>
      <trkpt lat="45.77698" lon="6.71474">
        <ele>1497</ele>
        <time>2026-07-29T12:27:29.716Z</time>
      </trkpt>
      <trkpt lat="45.777" lon="6.71471">
        <ele>1497</ele>
        <time>2026-07-29T12:27:30.716Z</time>
      </trkpt>
      <trkpt lat="45.77701" lon="6.71468">
        <ele>1496</ele>
        <time>2026-07-29T12:27:31.716Z</time>
      </trkpt>
      <trkpt lat="45.77703" lon="6.71466">
        <ele>1496</ele>
        <time>2026-07-29T12:27:32.716Z</time>
      </trkpt>
      <trkpt lat="45.77705" lon="6.71464">
        <ele>1495</ele>
        <time>2026-07-29T12:27:33.716Z</time>
      </trkpt>
      <trkpt lat="45.77706" lon="6.71462">
        <ele>1495</ele>
        <time>2026-07-29T12:27:34.716Z</time>
      </trkpt>
      <trkpt lat="45.77708" lon="6.7146">
        <ele>1494</ele>
        <time>2026-07-29T12:27:35.716Z</time>
      </trkpt>
      <trkpt lat="45.7771" lon="6.71458">
        <ele>1494</ele>
        <time>2026-07-29T12:27:36.716Z</time>
      </trkpt>
      <trkpt lat="45.77713" lon="6.71457">
        <ele>1494</ele>
        <time>2026-07-29T12:27:37.716Z</time>
      </trkpt>
      <trkpt lat="45.77715" lon="6.71455">
        <ele>1494</ele>
        <time>2026-07-29T12:27:38.716Z</time>
      </trkpt>
      <trkpt lat="45.77717" lon="6.71453">
        <ele>1494</ele>
        <time>2026-07-29T12:27:39.716Z</time>
      </trkpt>
      <trkpt lat="45.77718" lon="6.71452">
        <ele>1494</ele>
        <time>2026-07-29T12:27:40.716Z</time>
      </trkpt>
      <trkpt lat="45.7772" lon="6.71449">
        <ele>1494</ele>
        <time>2026-07-29T12:27:41.716Z</time>
      </trkpt>
      <trkpt lat="45.77723" lon="6.71448">
        <ele>1494</ele>
        <time>2026-07-29T12:27:42.716Z</time>
      </trkpt>
      <trkpt lat="45.77725" lon="6.71447">
        <ele>1493</ele>
        <time>2026-07-29T12:27:43.716Z</time>
      </trkpt>
      <trkpt lat="45.77727" lon="6.71446">
        <ele>1493</ele>
        <time>2026-07-29T12:27:44.716Z</time>
      </trkpt>
      <trkpt lat="45.77728" lon="6.71445">
        <ele>1492</ele>
        <time>2026-07-29T12:27:45.716Z</time>
      </trkpt>
      <trkpt lat="45.77729" lon="6.71445">
        <ele>1492</ele>
        <time>2026-07-29T12:27:46.716Z</time>
      </trkpt>
      <trkpt lat="45.7773" lon="6.71445">
        <ele>1493</ele>
        <time>2026-07-29T12:27:47.716Z</time>
      </trkpt>
      <trkpt lat="45.77732" lon="6.71443">
        <ele>1493</ele>
        <time>2026-07-29T12:27:48.716Z</time>
      </trkpt>
      <trkpt lat="45.77733" lon="6.71442">
        <ele>1493</ele>
        <time>2026-07-29T12:27:49.716Z</time>
      </trkpt>
      <trkpt lat="45.77735" lon="6.71441">
        <ele>1493</ele>
        <time>2026-07-29T12:27:50.716Z</time>
      </trkpt>
      <trkpt lat="45.77736" lon="6.7144">
        <ele>1494</ele>
        <time>2026-07-29T12:27:51.716Z</time>
      </trkpt>
      <trkpt lat="45.77737" lon="6.71439">
        <ele>1494</ele>
        <time>2026-07-29T12:27:52.716Z</time>
      </trkpt>
      <trkpt lat="45.77739" lon="6.71435">
        <ele>1495</ele>
        <time>2026-07-29T12:27:53.716Z</time>
      </trkpt>
      <trkpt lat="45.7774" lon="6.71432">
        <ele>1495</ele>
        <time>2026-07-29T12:27:54.716Z</time>
      </trkpt>
      <trkpt lat="45.77742" lon="6.71431">
        <ele>1495</ele>
        <time>2026-07-29T12:27:55.716Z</time>
      </trkpt>
      <trkpt lat="45.77744" lon="6.71431">
        <ele>1494</ele>
        <time>2026-07-29T12:27:56.716Z</time>
      </trkpt>
      <trkpt lat="45.77746" lon="6.71432">
        <ele>1493</ele>
        <time>2026-07-29T12:27:57.716Z</time>
      </trkpt>
      <trkpt lat="45.77748" lon="6.71431">
        <ele>1492</ele>
        <time>2026-07-29T12:27:58.716Z</time>
      </trkpt>
      <trkpt lat="45.77749" lon="6.71431">
        <ele>1491</ele>
        <time>2026-07-29T12:27:59.716Z</time>
      </trkpt>
      <trkpt lat="45.77751" lon="6.7143">
        <ele>1490</ele>
        <time>2026-07-29T12:28:00.716Z</time>
      </trkpt>
      <trkpt lat="45.77752" lon="6.7143">
        <ele>1490</ele>
        <time>2026-07-29T12:28:01.716Z</time>
      </trkpt>
      <trkpt lat="45.77754" lon="6.7143">
        <ele>1489</ele>
        <time>2026-07-29T12:28:02.716Z</time>
      </trkpt>
      <trkpt lat="45.77755" lon="6.71429">
        <ele>1489</ele>
        <time>2026-07-29T12:28:03.716Z</time>
      </trkpt>
      <trkpt lat="45.77757" lon="6.71428">
        <ele>1488</ele>
        <time>2026-07-29T12:28:04.716Z</time>
      </trkpt>
      <trkpt lat="45.77759" lon="6.71426">
        <ele>1488</ele>
        <time>2026-07-29T12:28:05.716Z</time>
      </trkpt>
      <trkpt lat="45.7776" lon="6.71425">
        <ele>1488</ele>
        <time>2026-07-29T12:28:06.716Z</time>
      </trkpt>
      <trkpt lat="45.77762" lon="6.71425">
        <ele>1487</ele>
        <time>2026-07-29T12:28:07.716Z</time>
      </trkpt>
      <trkpt lat="45.77764" lon="6.71425">
        <ele>1487</ele>
        <time>2026-07-29T12:28:08.716Z</time>
      </trkpt>
      <trkpt lat="45.77766" lon="6.71424">
        <ele>1487</ele>
        <time>2026-07-29T12:28:09.716Z</time>
      </trkpt>
      <trkpt lat="45.77768" lon="6.71423">
        <ele>1486</ele>
        <time>2026-07-29T12:28:10.716Z</time>
      </trkpt>
      <trkpt lat="45.7777" lon="6.71422">
        <ele>1485</ele>
        <time>2026-07-29T12:28:11.716Z</time>
      </trkpt>
      <trkpt lat="45.77772" lon="6.71422">
        <ele>1485</ele>
        <time>2026-07-29T12:28:12.716Z</time>
      </trkpt>
      <trkpt lat="45.77775" lon="6.71422">
        <ele>1485</ele>
        <time>2026-07-29T12:28:13.716Z</time>
      </trkpt>
      <trkpt lat="45.77778" lon="6.71422">
        <ele>1485</ele>
        <time>2026-07-29T12:28:14.716Z</time>
      </trkpt>
      <trkpt lat="45.7778" lon="6.71424">
        <ele>1484</ele>
        <time>2026-07-29T12:28:15.716Z</time>
      </trkpt>
      <trkpt lat="45.77783" lon="6.71424">
        <ele>1483</ele>
        <time>2026-07-29T12:28:16.716Z</time>
      </trkpt>
      <trkpt lat="45.77785" lon="6.71425">
        <ele>1483</ele>
        <time>2026-07-29T12:28:17.716Z</time>
      </trkpt>
      <trkpt lat="45.77787" lon="6.71426">
        <ele>1482</ele>
        <time>2026-07-29T12:28:18.716Z</time>
      </trkpt>
      <trkpt lat="45.77789" lon="6.71427">
        <ele>1482</ele>
        <time>2026-07-29T12:28:19.716Z</time>
      </trkpt>
      <trkpt lat="45.77792" lon="6.71428">
        <ele>1481</ele>
        <time>2026-07-29T12:28:20.716Z</time>
      </trkpt>
      <trkpt lat="45.77794" lon="6.71427">
        <ele>1481</ele>
        <time>2026-07-29T12:28:21.716Z</time>
      </trkpt>
      <trkpt lat="45.77795" lon="6.71427">
        <ele>1481</ele>
        <time>2026-07-29T12:28:22.716Z</time>
      </trkpt>
      <trkpt lat="45.77797" lon="6.71427">
        <ele>1480</ele>
        <time>2026-07-29T12:28:23.716Z</time>
      </trkpt>
      <trkpt lat="45.778" lon="6.71428">
        <ele>1480</ele>
        <time>2026-07-29T12:28:24.716Z</time>
      </trkpt>
      <trkpt lat="45.77802" lon="6.71428">
        <ele>1479</ele>
        <time>2026-07-29T12:28:25.716Z</time>
      </trkpt>
      <trkpt lat="45.77804" lon="6.71427">
        <ele>1479</ele>
        <time>2026-07-29T12:28:26.716Z</time>
      </trkpt>
      <trkpt lat="45.77806" lon="6.71427">
        <ele>1478</ele>
        <time>2026-07-29T12:28:27.716Z</time>
      </trkpt>
      <trkpt lat="45.77807" lon="6.71427">
        <ele>1478</ele>
        <time>2026-07-29T12:28:28.716Z</time>
      </trkpt>
      <trkpt lat="45.77809" lon="6.71427">
        <ele>1477</ele>
        <time>2026-07-29T12:28:29.716Z</time>
      </trkpt>
      <trkpt lat="45.7781" lon="6.71427">
        <ele>1477</ele>
        <time>2026-07-29T12:28:30.716Z</time>
      </trkpt>
      <trkpt lat="45.77811" lon="6.71427">
        <ele>1477</ele>
        <time>2026-07-29T12:28:31.716Z</time>
      </trkpt>
      <trkpt lat="45.77812" lon="6.71427">
        <ele>1476</ele>
        <time>2026-07-29T12:28:32.716Z</time>
      </trkpt>
      <trkpt lat="45.77813" lon="6.71427">
        <ele>1475</ele>
        <time>2026-07-29T12:28:33.716Z</time>
      </trkpt>
      <trkpt lat="45.77814" lon="6.71427">
        <ele>1475</ele>
        <time>2026-07-29T12:28:34.716Z</time>
      </trkpt>
      <trkpt lat="45.77814" lon="6.71427">
        <ele>1474</ele>
        <time>2026-07-29T12:28:35.716Z</time>
      </trkpt>
      <trkpt lat="45.77814" lon="6.71427">
        <ele>1473</ele>
        <time>2026-07-29T12:28:36.716Z</time>
      </trkpt>
      <trkpt lat="45.77815" lon="6.71427">
        <ele>1473</ele>
        <time>2026-07-29T12:28:37.716Z</time>
      </trkpt>
      <trkpt lat="45.77815" lon="6.71428">
        <ele>1473</ele>
        <time>2026-07-29T12:28:38.716Z</time>
      </trkpt>
      <trkpt lat="45.77815" lon="6.71428">
        <ele>1473</ele>
        <time>2026-07-29T12:28:39.716Z</time>
      </trkpt>
      <trkpt lat="45.77815" lon="6.71428">
        <ele>1473</ele>
        <time>2026-07-29T12:28:40.716Z</time>
      </trkpt>
      <trkpt lat="45.77815" lon="6.71428">
        <ele>1473</ele>
        <time>2026-07-29T12:28:41.716Z</time>
      </trkpt>
      <trkpt lat="45.77816" lon="6.71429">
        <ele>1472</ele>
        <time>2026-07-29T12:28:42.716Z</time>
      </trkpt>
      <trkpt lat="45.77816" lon="6.71431">
        <ele>1472</ele>
        <time>2026-07-29T12:28:43.716Z</time>
      </trkpt>
      <trkpt lat="45.77815" lon="6.71432">
        <ele>1472</ele>
        <time>2026-07-29T12:28:44.716Z</time>
      </trkpt>
      <trkpt lat="45.77815" lon="6.71434">
        <ele>1472</ele>
        <time>2026-07-29T12:28:45.716Z</time>
      </trkpt>
      <trkpt lat="45.77815" lon="6.71436">
        <ele>1471</ele>
        <time>2026-07-29T12:28:46.716Z</time>
      </trkpt>
      <trkpt lat="45.77815" lon="6.71438">
        <ele>1470</ele>
        <time>2026-07-29T12:28:47.716Z</time>
      </trkpt>
      <trkpt lat="45.77815" lon="6.7144">
        <ele>1470</ele>
        <time>2026-07-29T12:28:48.716Z</time>
      </trkpt>
      <trkpt lat="45.77815" lon="6.71442">
        <ele>1470</ele>
        <time>2026-07-29T12:28:49.716Z</time>
      </trkpt>
      <trkpt lat="45.77816" lon="6.71445">
        <ele>1470</ele>
        <time>2026-07-29T12:28:50.716Z</time>
      </trkpt>
      <trkpt lat="45.77817" lon="6.71447">
        <ele>1470</ele>
        <time>2026-07-29T12:28:51.716Z</time>
      </trkpt>
      <trkpt lat="45.77817" lon="6.71449">
        <ele>1471</ele>
        <time>2026-07-29T12:28:52.716Z</time>
      </trkpt>
      <trkpt lat="45.77819" lon="6.71451">
        <ele>1472</ele>
        <time>2026-07-29T12:28:53.716Z</time>
      </trkpt>
      <trkpt lat="45.7782" lon="6.71453">
        <ele>1472</ele>
        <time>2026-07-29T12:28:54.716Z</time>
      </trkpt>
      <trkpt lat="45.7782" lon="6.71455">
        <ele>1472</ele>
        <time>2026-07-29T12:28:55.716Z</time>
      </trkpt>
      <trkpt lat="45.7782" lon="6.71457">
        <ele>1472</ele>
        <time>2026-07-29T12:28:56.716Z</time>
      </trkpt>
      <trkpt lat="45.77821" lon="6.71458">
        <ele>1472</ele>
        <time>2026-07-29T12:28:57.716Z</time>
      </trkpt>
      <trkpt lat="45.77821" lon="6.71459">
        <ele>1471</ele>
        <time>2026-07-29T12:28:58.716Z</time>
      </trkpt>
      <trkpt lat="45.77823" lon="6.7146">
        <ele>1471</ele>
        <time>2026-07-29T12:28:59.716Z</time>
      </trkpt>
      <trkpt lat="45.77824" lon="6.71461">
        <ele>1470</ele>
        <time>2026-07-29T12:29:00.716Z</time>
      </trkpt>
      <trkpt lat="45.77825" lon="6.71461">
        <ele>1470</ele>
        <time>2026-07-29T12:29:01.716Z</time>
      </trkpt>
      <trkpt lat="45.77826" lon="6.71462">
        <ele>1469</ele>
        <time>2026-07-29T12:29:02.716Z</time>
      </trkpt>
      <trkpt lat="45.77827" lon="6.71464">
        <ele>1469</ele>
        <time>2026-07-29T12:29:03.716Z</time>
      </trkpt>
      <trkpt lat="45.77828" lon="6.71466">
        <ele>1469</ele>
        <time>2026-07-29T12:29:04.716Z</time>
      </trkpt>
      <trkpt lat="45.77829" lon="6.71467">
        <ele>1468</ele>
        <time>2026-07-29T12:29:05.716Z</time>
      </trkpt>
      <trkpt lat="45.77829" lon="6.71469">
        <ele>1468</ele>
        <time>2026-07-29T12:29:06.716Z</time>
      </trkpt>
      <trkpt lat="45.7783" lon="6.7147">
        <ele>1468</ele>
        <time>2026-07-29T12:29:07.716Z</time>
      </trkpt>
      <trkpt lat="45.7783" lon="6.71472">
        <ele>1468</ele>
        <time>2026-07-29T12:29:08.716Z</time>
      </trkpt>
      <trkpt lat="45.7783" lon="6.71473">
        <ele>1468</ele>
        <time>2026-07-29T12:29:09.716Z</time>
      </trkpt>
      <trkpt lat="45.7783" lon="6.71474">
        <ele>1468</ele>
        <time>2026-07-29T12:29:10.716Z</time>
      </trkpt>
      <trkpt lat="45.7783" lon="6.71475">
        <ele>1468</ele>
        <time>2026-07-29T12:29:11.716Z</time>
      </trkpt>
      <trkpt lat="45.7783" lon="6.71475">
        <ele>1468</ele>
        <time>2026-07-29T12:29:12.716Z</time>
      </trkpt>
      <trkpt lat="45.7783" lon="6.71475">
        <ele>1468</ele>
        <time>2026-07-29T12:29:13.716Z</time>
      </trkpt>
      <trkpt lat="45.7783" lon="6.71475">
        <ele>1468</ele>
        <time>2026-07-29T12:29:14.716Z</time>
      </trkpt>
      <trkpt lat="45.7783" lon="6.71475">
        <ele>1468</ele>
        <time>2026-07-29T12:29:15.716Z</time>
      </trkpt>
      <trkpt lat="45.77831" lon="6.71474">
        <ele>1468</ele>
        <time>2026-07-29T12:29:16.716Z</time>
      </trkpt>
      <trkpt lat="45.77831" lon="6.71475">
        <ele>1468</ele>
        <time>2026-07-29T12:29:17.716Z</time>
      </trkpt>
      <trkpt lat="45.77831" lon="6.71475">
        <ele>1468</ele>
        <time>2026-07-29T12:29:18.716Z</time>
      </trkpt>
      <trkpt lat="45.77832" lon="6.71476">
        <ele>1468</ele>
        <time>2026-07-29T12:29:19.716Z</time>
      </trkpt>
      <trkpt lat="45.77834" lon="6.71477">
        <ele>1468</ele>
        <time>2026-07-29T12:29:20.716Z</time>
      </trkpt>
      <trkpt lat="45.77835" lon="6.71478">
        <ele>1468</ele>
        <time>2026-07-29T12:29:21.716Z</time>
      </trkpt>
      <trkpt lat="45.77836" lon="6.7148">
        <ele>1467</ele>
        <time>2026-07-29T12:29:22.716Z</time>
      </trkpt>
      <trkpt lat="45.77837" lon="6.71481">
        <ele>1467</ele>
        <time>2026-07-29T12:29:23.716Z</time>
      </trkpt>
      <trkpt lat="45.77838" lon="6.71482">
        <ele>1467</ele>
        <time>2026-07-29T12:29:24.716Z</time>
      </trkpt>
      <trkpt lat="45.77839" lon="6.71482">
        <ele>1467</ele>
        <time>2026-07-29T12:29:25.716Z</time>
      </trkpt>
      <trkpt lat="45.7784" lon="6.71482">
        <ele>1467</ele>
        <time>2026-07-29T12:29:26.716Z</time>
      </trkpt>
      <trkpt lat="45.77841" lon="6.71483">
        <ele>1467</ele>
        <time>2026-07-29T12:29:27.716Z</time>
      </trkpt>
      <trkpt lat="45.77841" lon="6.71483">
        <ele>1466</ele>
        <time>2026-07-29T12:29:28.716Z</time>
      </trkpt>
      <trkpt lat="45.77842" lon="6.71483">
        <ele>1466</ele>
        <time>2026-07-29T12:29:29.716Z</time>
      </trkpt>
      <trkpt lat="45.77842" lon="6.71483">
        <ele>1467</ele>
        <time>2026-07-29T12:29:30.716Z</time>
      </trkpt>
      <trkpt lat="45.77842" lon="6.71482">
        <ele>1467</ele>
        <time>2026-07-29T12:29:31.716Z</time>
      </trkpt>
      <trkpt lat="45.77842" lon="6.71482">
        <ele>1467</ele>
        <time>2026-07-29T12:29:32.716Z</time>
      </trkpt>
      <trkpt lat="45.77842" lon="6.71482">
        <ele>1466</ele>
        <time>2026-07-29T12:29:33.716Z</time>
      </trkpt>
      <trkpt lat="45.77843" lon="6.71482">
        <ele>1466</ele>
        <time>2026-07-29T12:29:34.716Z</time>
      </trkpt>
      <trkpt lat="45.77844" lon="6.71482">
        <ele>1466</ele>
        <time>2026-07-29T12:29:35.716Z</time>
      </trkpt>
      <trkpt lat="45.77844" lon="6.71482">
        <ele>1467</ele>
        <time>2026-07-29T12:29:36.716Z</time>
      </trkpt>
      <trkpt lat="45.77844" lon="6.71481">
        <ele>1467</ele>
        <time>2026-07-29T12:29:37.716Z</time>
      </trkpt>
      <trkpt lat="45.77844" lon="6.71481">
        <ele>1467</ele>
        <time>2026-07-29T12:29:38.716Z</time>
      </trkpt>
      <trkpt lat="45.77844" lon="6.7148">
        <ele>1467</ele>
        <time>2026-07-29T12:29:39.716Z</time>
      </trkpt>
      <trkpt lat="45.77843" lon="6.7148">
        <ele>1466</ele>
        <time>2026-07-29T12:29:40.716Z</time>
      </trkpt>
      <trkpt lat="45.77842" lon="6.71479">
        <ele>1466</ele>
        <time>2026-07-29T12:29:41.716Z</time>
      </trkpt>
      <trkpt lat="45.77841" lon="6.71478">
        <ele>1466</ele>
        <time>2026-07-29T12:29:42.716Z</time>
      </trkpt>
      <trkpt lat="45.7784" lon="6.71478">
        <ele>1465</ele>
        <time>2026-07-29T12:29:43.716Z</time>
      </trkpt>
      <trkpt lat="45.77839" lon="6.71476">
        <ele>1465</ele>
        <time>2026-07-29T12:29:44.716Z</time>
      </trkpt>
      <trkpt lat="45.77838" lon="6.71475">
        <ele>1464</ele>
        <time>2026-07-29T12:29:45.716Z</time>
      </trkpt>
      <trkpt lat="45.77837" lon="6.71474">
        <ele>1464</ele>
        <time>2026-07-29T12:29:46.716Z</time>
      </trkpt>
      <trkpt lat="45.77837" lon="6.71473">
        <ele>1464</ele>
        <time>2026-07-29T12:29:47.716Z</time>
      </trkpt>
      <trkpt lat="45.77837" lon="6.71472">
        <ele>1463</ele>
        <time>2026-07-29T12:29:48.716Z</time>
      </trkpt>
      <trkpt lat="45.77836" lon="6.71472">
        <ele>1463</ele>
        <time>2026-07-29T12:29:49.716Z</time>
      </trkpt>
      <trkpt lat="45.77836" lon="6.71472">
        <ele>1463</ele>
        <time>2026-07-29T12:29:50.716Z</time>
      </trkpt>
      <trkpt lat="45.77837" lon="6.71473">
        <ele>1463</ele>
        <time>2026-07-29T12:29:51.716Z</time>
      </trkpt>
      <trkpt lat="45.77837" lon="6.71473">
        <ele>1463</ele>
        <time>2026-07-29T12:29:52.716Z</time>
      </trkpt>
      <trkpt lat="45.77838" lon="6.71474">
        <ele>1463</ele>
        <time>2026-07-29T12:29:53.716Z</time>
      </trkpt>
      <trkpt lat="45.77838" lon="6.71476">
        <ele>1463</ele>
        <time>2026-07-29T12:29:54.716Z</time>
      </trkpt>
      <trkpt lat="45.77839" lon="6.71477">
        <ele>1463</ele>
        <time>2026-07-29T12:29:55.716Z</time>
      </trkpt>
      <trkpt lat="45.7784" lon="6.71479">
        <ele>1463</ele>
        <time>2026-07-29T12:29:56.716Z</time>
      </trkpt>
      <trkpt lat="45.77841" lon="6.71481">
        <ele>1463</ele>
        <time>2026-07-29T12:29:57.716Z</time>
      </trkpt>
      <trkpt lat="45.77842" lon="6.71483">
        <ele>1463</ele>
        <time>2026-07-29T12:29:58.716Z</time>
      </trkpt>
      <trkpt lat="45.77843" lon="6.71484">
        <ele>1463</ele>
        <time>2026-07-29T12:29:59.716Z</time>
      </trkpt>
      <trkpt lat="45.77845" lon="6.71485">
        <ele>1463</ele>
        <time>2026-07-29T12:30:00.716Z</time>
      </trkpt>
      <trkpt lat="45.77846" lon="6.71485">
        <ele>1464</ele>
        <time>2026-07-29T12:30:01.716Z</time>
      </trkpt>
      <trkpt lat="45.77848" lon="6.71486">
        <ele>1464</ele>
        <time>2026-07-29T12:30:02.716Z</time>
      </trkpt>
      <trkpt lat="45.77849" lon="6.71487">
        <ele>1464</ele>
        <time>2026-07-29T12:30:03.716Z</time>
      </trkpt>
      <trkpt lat="45.77851" lon="6.71488">
        <ele>1464</ele>
        <time>2026-07-29T12:30:04.716Z</time>
      </trkpt>
      <trkpt lat="45.77852" lon="6.71488">
        <ele>1464</ele>
        <time>2026-07-29T12:30:05.716Z</time>
      </trkpt>
      <trkpt lat="45.77854" lon="6.71489">
        <ele>1464</ele>
        <time>2026-07-29T12:30:06.716Z</time>
      </trkpt>
      <trkpt lat="45.77855" lon="6.71489">
        <ele>1463</ele>
        <time>2026-07-29T12:30:07.716Z</time>
      </trkpt>
      <trkpt lat="45.77857" lon="6.7149">
        <ele>1462</ele>
        <time>2026-07-29T12:30:08.716Z</time>
      </trkpt>
      <trkpt lat="45.77859" lon="6.71491">
        <ele>1461</ele>
        <time>2026-07-29T12:30:09.716Z</time>
      </trkpt>
      <trkpt lat="45.77861" lon="6.71491">
        <ele>1460</ele>
        <time>2026-07-29T12:30:10.716Z</time>
      </trkpt>
      <trkpt lat="45.77863" lon="6.71491">
        <ele>1460</ele>
        <time>2026-07-29T12:30:11.716Z</time>
      </trkpt>
      <trkpt lat="45.77865" lon="6.71491">
        <ele>1460</ele>
        <time>2026-07-29T12:30:12.716Z</time>
      </trkpt>
      <trkpt lat="45.77867" lon="6.71491">
        <ele>1460</ele>
        <time>2026-07-29T12:30:13.716Z</time>
      </trkpt>
      <trkpt lat="45.77869" lon="6.71491">
        <ele>1460</ele>
        <time>2026-07-29T12:30:14.716Z</time>
      </trkpt>
      <trkpt lat="45.77871" lon="6.7149">
        <ele>1460</ele>
        <time>2026-07-29T12:30:15.716Z</time>
      </trkpt>
      <trkpt lat="45.77873" lon="6.7149">
        <ele>1460</ele>
        <time>2026-07-29T12:30:16.716Z</time>
      </trkpt>
      <trkpt lat="45.77875" lon="6.7149">
        <ele>1459</ele>
        <time>2026-07-29T12:30:17.716Z</time>
      </trkpt>
      <trkpt lat="45.77877" lon="6.71489">
        <ele>1459</ele>
        <time>2026-07-29T12:30:18.716Z</time>
      </trkpt>
      <trkpt lat="45.77879" lon="6.71489">
        <ele>1458</ele>
        <time>2026-07-29T12:30:19.716Z</time>
      </trkpt>
      <trkpt lat="45.77881" lon="6.71489">
        <ele>1457</ele>
        <time>2026-07-29T12:30:20.716Z</time>
      </trkpt>
      <trkpt lat="45.77884" lon="6.71489">
        <ele>1456</ele>
        <time>2026-07-29T12:30:21.716Z</time>
      </trkpt>
      <trkpt lat="45.77886" lon="6.71489">
        <ele>1456</ele>
        <time>2026-07-29T12:30:22.716Z</time>
      </trkpt>
      <trkpt lat="45.77887" lon="6.7149">
        <ele>1455</ele>
        <time>2026-07-29T12:30:23.716Z</time>
      </trkpt>
      <trkpt lat="45.77889" lon="6.7149">
        <ele>1454</ele>
        <time>2026-07-29T12:30:24.716Z</time>
      </trkpt>
      <trkpt lat="45.77892" lon="6.71491">
        <ele>1453</ele>
        <time>2026-07-29T12:30:25.716Z</time>
      </trkpt>
      <trkpt lat="45.77894" lon="6.71492">
        <ele>1453</ele>
        <time>2026-07-29T12:30:26.716Z</time>
      </trkpt>
      <trkpt lat="45.77896" lon="6.71492">
        <ele>1452</ele>
        <time>2026-07-29T12:30:27.716Z</time>
      </trkpt>
      <trkpt lat="45.77898" lon="6.71492">
        <ele>1452</ele>
        <time>2026-07-29T12:30:28.716Z</time>
      </trkpt>
      <trkpt lat="45.77901" lon="6.71492">
        <ele>1451</ele>
        <time>2026-07-29T12:30:29.716Z</time>
      </trkpt>
      <trkpt lat="45.77903" lon="6.71492">
        <ele>1451</ele>
        <time>2026-07-29T12:30:30.716Z</time>
      </trkpt>
      <trkpt lat="45.77905" lon="6.71491">
        <ele>1451</ele>
        <time>2026-07-29T12:30:31.716Z</time>
      </trkpt>
      <trkpt lat="45.77907" lon="6.71491">
        <ele>1451</ele>
        <time>2026-07-29T12:30:32.716Z</time>
      </trkpt>
      <trkpt lat="45.77909" lon="6.71491">
        <ele>1451</ele>
        <time>2026-07-29T12:30:33.716Z</time>
      </trkpt>
      <trkpt lat="45.77912" lon="6.71491">
        <ele>1450</ele>
        <time>2026-07-29T12:30:34.716Z</time>
      </trkpt>
      <trkpt lat="45.77914" lon="6.71491">
        <ele>1450</ele>
        <time>2026-07-29T12:30:35.716Z</time>
      </trkpt>
      <trkpt lat="45.77916" lon="6.71493">
        <ele>1449</ele>
        <time>2026-07-29T12:30:36.716Z</time>
      </trkpt>
      <trkpt lat="45.77919" lon="6.71494">
        <ele>1449</ele>
        <time>2026-07-29T12:30:37.716Z</time>
      </trkpt>
      <trkpt lat="45.77921" lon="6.71495">
        <ele>1448</ele>
        <time>2026-07-29T12:30:38.716Z</time>
      </trkpt>
      <trkpt lat="45.77923" lon="6.71495">
        <ele>1448</ele>
        <time>2026-07-29T12:30:39.716Z</time>
      </trkpt>
      <trkpt lat="45.77925" lon="6.71495">
        <ele>1447</ele>
        <time>2026-07-29T12:30:40.716Z</time>
      </trkpt>
      <trkpt lat="45.77927" lon="6.71494">
        <ele>1447</ele>
        <time>2026-07-29T12:30:41.716Z</time>
      </trkpt>
      <trkpt lat="45.77929" lon="6.71493">
        <ele>1446</ele>
        <time>2026-07-29T12:30:42.716Z</time>
      </trkpt>
      <trkpt lat="45.77931" lon="6.71492">
        <ele>1446</ele>
        <time>2026-07-29T12:30:43.716Z</time>
      </trkpt>
      <trkpt lat="45.77933" lon="6.7149">
        <ele>1446</ele>
        <time>2026-07-29T12:30:44.716Z</time>
      </trkpt>
      <trkpt lat="45.77935" lon="6.71488">
        <ele>1446</ele>
        <time>2026-07-29T12:30:45.716Z</time>
      </trkpt>
      <trkpt lat="45.77937" lon="6.71487">
        <ele>1446</ele>
        <time>2026-07-29T12:30:46.716Z</time>
      </trkpt>
      <trkpt lat="45.77939" lon="6.71485">
        <ele>1446</ele>
        <time>2026-07-29T12:30:47.716Z</time>
      </trkpt>
      <trkpt lat="45.77941" lon="6.71483">
        <ele>1446</ele>
        <time>2026-07-29T12:30:48.716Z</time>
      </trkpt>
      <trkpt lat="45.77943" lon="6.71482">
        <ele>1445</ele>
        <time>2026-07-29T12:30:49.716Z</time>
      </trkpt>
      <trkpt lat="45.77945" lon="6.7148">
        <ele>1445</ele>
        <time>2026-07-29T12:30:50.716Z</time>
      </trkpt>
      <trkpt lat="45.77947" lon="6.71478">
        <ele>1444</ele>
        <time>2026-07-29T12:30:51.716Z</time>
      </trkpt>
      <trkpt lat="45.77949" lon="6.71476">
        <ele>1444</ele>
        <time>2026-07-29T12:30:52.716Z</time>
      </trkpt>
      <trkpt lat="45.7795" lon="6.71474">
        <ele>1443</ele>
        <time>2026-07-29T12:30:53.716Z</time>
      </trkpt>
      <trkpt lat="45.77951" lon="6.71472">
        <ele>1443</ele>
        <time>2026-07-29T12:30:54.716Z</time>
      </trkpt>
      <trkpt lat="45.77953" lon="6.7147">
        <ele>1443</ele>
        <time>2026-07-29T12:30:55.716Z</time>
      </trkpt>
      <trkpt lat="45.77955" lon="6.71468">
        <ele>1443</ele>
        <time>2026-07-29T12:30:56.716Z</time>
      </trkpt>
      <trkpt lat="45.77956" lon="6.71467">
        <ele>1442</ele>
        <time>2026-07-29T12:30:57.716Z</time>
      </trkpt>
      <trkpt lat="45.77958" lon="6.71466">
        <ele>1442</ele>
        <time>2026-07-29T12:30:58.716Z</time>
      </trkpt>
      <trkpt lat="45.7796" lon="6.71465">
        <ele>1442</ele>
        <time>2026-07-29T12:30:59.716Z</time>
      </trkpt>
      <trkpt lat="45.77961" lon="6.71465">
        <ele>1441</ele>
        <time>2026-07-29T12:31:00.716Z</time>
      </trkpt>
      <trkpt lat="45.77963" lon="6.71464">
        <ele>1441</ele>
        <time>2026-07-29T12:31:01.716Z</time>
      </trkpt>
      <trkpt lat="45.77965" lon="6.71464">
        <ele>1440</ele>
        <time>2026-07-29T12:31:02.716Z</time>
      </trkpt>
      <trkpt lat="45.77966" lon="6.71464">
        <ele>1439</ele>
        <time>2026-07-29T12:31:03.716Z</time>
      </trkpt>
      <trkpt lat="45.77968" lon="6.71464">
        <ele>1439</ele>
        <time>2026-07-29T12:31:04.716Z</time>
      </trkpt>
      <trkpt lat="45.7797" lon="6.71464">
        <ele>1438</ele>
        <time>2026-07-29T12:31:05.716Z</time>
      </trkpt>
      <trkpt lat="45.77972" lon="6.71465">
        <ele>1437</ele>
        <time>2026-07-29T12:31:06.716Z</time>
      </trkpt>
      <trkpt lat="45.77973" lon="6.71466">
        <ele>1436</ele>
        <time>2026-07-29T12:31:07.716Z</time>
      </trkpt>
      <trkpt lat="45.77974" lon="6.71466">
        <ele>1436</ele>
        <time>2026-07-29T12:31:08.716Z</time>
      </trkpt>
      <trkpt lat="45.77975" lon="6.71467">
        <ele>1436</ele>
        <time>2026-07-29T12:31:09.716Z</time>
      </trkpt>
      <trkpt lat="45.77976" lon="6.71468">
        <ele>1435</ele>
        <time>2026-07-29T12:31:10.716Z</time>
      </trkpt>
      <trkpt lat="45.77976" lon="6.71468">
        <ele>1435</ele>
        <time>2026-07-29T12:31:11.716Z</time>
      </trkpt>
      <trkpt lat="45.77977" lon="6.71468">
        <ele>1435</ele>
        <time>2026-07-29T12:31:12.716Z</time>
      </trkpt>
      <trkpt lat="45.77977" lon="6.71468">
        <ele>1435</ele>
        <time>2026-07-29T12:31:13.716Z</time>
      </trkpt>
      <trkpt lat="45.77977" lon="6.71467">
        <ele>1434</ele>
        <time>2026-07-29T12:31:14.716Z</time>
      </trkpt>
      <trkpt lat="45.77977" lon="6.71467">
        <ele>1434</ele>
        <time>2026-07-29T12:31:15.716Z</time>
      </trkpt>
      <trkpt lat="45.77977" lon="6.71467">
        <ele>1434</ele>
        <time>2026-07-29T12:31:16.716Z</time>
      </trkpt>
      <trkpt lat="45.77977" lon="6.71467">
        <ele>1433</ele>
        <time>2026-07-29T12:31:17.716Z</time>
      </trkpt>
      <trkpt lat="45.77977" lon="6.71467">
        <ele>1433</ele>
        <time>2026-07-29T12:31:18.716Z</time>
      </trkpt>
      <trkpt lat="45.77977" lon="6.71467">
        <ele>1433</ele>
        <time>2026-07-29T12:31:19.716Z</time>
      </trkpt>
      <trkpt lat="45.77977" lon="6.71467">
        <ele>1432</ele>
        <time>2026-07-29T12:31:20.716Z</time>
      </trkpt>
      <trkpt lat="45.77977" lon="6.71467">
        <ele>1432</ele>
        <time>2026-07-29T12:31:21.716Z</time>
      </trkpt>
      <trkpt lat="45.77977" lon="6.71467">
        <ele>1431</ele>
        <time>2026-07-29T12:31:22.716Z</time>
      </trkpt>
      <trkpt lat="45.77977" lon="6.71467">
        <ele>1431</ele>
        <time>2026-07-29T12:31:23.716Z</time>
      </trkpt>
      <trkpt lat="45.77977" lon="6.71467">
        <ele>1431</ele>
        <time>2026-07-29T12:31:24.716Z</time>
      </trkpt>
      <trkpt lat="45.77977" lon="6.71467">
        <ele>1431</ele>
        <time>2026-07-29T12:31:25.716Z</time>
      </trkpt>
      <trkpt lat="45.77977" lon="6.71467">
        <ele>1431</ele>
        <time>2026-07-29T12:31:26.716Z</time>
      </trkpt>
      <trkpt lat="45.77977" lon="6.71467">
        <ele>1432</ele>
        <time>2026-07-29T12:31:27.716Z</time>
      </trkpt>
      <trkpt lat="45.77977" lon="6.71467">
        <ele>1432</ele>
        <time>2026-07-29T12:31:28.716Z</time>
      </trkpt>
      <trkpt lat="45.77977" lon="6.71467">
        <ele>1432</ele>
        <time>2026-07-29T12:31:29.716Z</time>
      </trkpt>
      <trkpt lat="45.77977" lon="6.71467">
        <ele>1432</ele>
        <time>2026-07-29T12:31:30.716Z</time>
      </trkpt>
      <trkpt lat="45.77977" lon="6.71467">
        <ele>1432</ele>
        <time>2026-07-29T12:31:31.716Z</time>
      </trkpt>
      <trkpt lat="45.77977" lon="6.71467">
        <ele>1432</ele>
        <time>2026-07-29T12:31:32.716Z</time>
      </trkpt>
      <trkpt lat="45.77977" lon="6.71467">
        <ele>1432</ele>
        <time>2026-07-29T12:31:33.716Z</time>
      </trkpt>
      <trkpt lat="45.77976" lon="6.71467">
        <ele>1432</ele>
        <time>2026-07-29T12:31:34.716Z</time>
      </trkpt>
      <trkpt lat="45.77977" lon="6.71469">
        <ele>1432</ele>
        <time>2026-07-29T12:31:35.716Z</time>
      </trkpt>
      <trkpt lat="45.77979" lon="6.71471">
        <ele>1432</ele>
        <time>2026-07-29T12:31:36.716Z</time>
      </trkpt>
      <trkpt lat="45.7798" lon="6.71473">
        <ele>1432</ele>
        <time>2026-07-29T12:31:37.716Z</time>
      </trkpt>
      <trkpt lat="45.77982" lon="6.71475">
        <ele>1432</ele>
        <time>2026-07-29T12:31:38.716Z</time>
      </trkpt>
      <trkpt lat="45.77984" lon="6.71477">
        <ele>1432</ele>
        <time>2026-07-29T12:31:39.716Z</time>
      </trkpt>
      <trkpt lat="45.77985" lon="6.71479">
        <ele>1432</ele>
        <time>2026-07-29T12:31:40.716Z</time>
      </trkpt>
      <trkpt lat="45.77986" lon="6.71481">
        <ele>1433</ele>
        <time>2026-07-29T12:31:41.716Z</time>
      </trkpt>
      <trkpt lat="45.77988" lon="6.71483">
        <ele>1433</ele>
        <time>2026-07-29T12:31:42.716Z</time>
      </trkpt>
      <trkpt lat="45.77989" lon="6.71485">
        <ele>1433</ele>
        <time>2026-07-29T12:31:43.716Z</time>
      </trkpt>
      <trkpt lat="45.77991" lon="6.71487">
        <ele>1433</ele>
        <time>2026-07-29T12:31:44.716Z</time>
      </trkpt>
      <trkpt lat="45.77993" lon="6.71488">
        <ele>1432</ele>
        <time>2026-07-29T12:31:45.716Z</time>
      </trkpt>
      <trkpt lat="45.77995" lon="6.71489">
        <ele>1432</ele>
        <time>2026-07-29T12:31:46.716Z</time>
      </trkpt>
      <trkpt lat="45.77996" lon="6.71489">
        <ele>1432</ele>
        <time>2026-07-29T12:31:47.716Z</time>
      </trkpt>
      <trkpt lat="45.77998" lon="6.7149">
        <ele>1432</ele>
        <time>2026-07-29T12:31:48.716Z</time>
      </trkpt>
      <trkpt lat="45.77999" lon="6.71491">
        <ele>1432</ele>
        <time>2026-07-29T12:31:49.716Z</time>
      </trkpt>
      <trkpt lat="45.78001" lon="6.71491">
        <ele>1432</ele>
        <time>2026-07-29T12:31:50.716Z</time>
      </trkpt>
      <trkpt lat="45.78003" lon="6.71491">
        <ele>1432</ele>
        <time>2026-07-29T12:31:51.716Z</time>
      </trkpt>
      <trkpt lat="45.78004" lon="6.71492">
        <ele>1432</ele>
        <time>2026-07-29T12:31:52.716Z</time>
      </trkpt>
      <trkpt lat="45.78006" lon="6.71492">
        <ele>1432</ele>
        <time>2026-07-29T12:31:53.716Z</time>
      </trkpt>
      <trkpt lat="45.78008" lon="6.71493">
        <ele>1433</ele>
        <time>2026-07-29T12:31:54.716Z</time>
      </trkpt>
      <trkpt lat="45.78009" lon="6.71494">
        <ele>1432</ele>
        <time>2026-07-29T12:31:55.716Z</time>
      </trkpt>
      <trkpt lat="45.78011" lon="6.71494">
        <ele>1432</ele>
        <time>2026-07-29T12:31:56.716Z</time>
      </trkpt>
      <trkpt lat="45.78013" lon="6.71494">
        <ele>1431</ele>
        <time>2026-07-29T12:31:57.716Z</time>
      </trkpt>
      <trkpt lat="45.78014" lon="6.71494">
        <ele>1431</ele>
        <time>2026-07-29T12:31:58.716Z</time>
      </trkpt>
      <trkpt lat="45.78016" lon="6.71493">
        <ele>1431</ele>
        <time>2026-07-29T12:31:59.716Z</time>
      </trkpt>
      <trkpt lat="45.78018" lon="6.71494">
        <ele>1430</ele>
        <time>2026-07-29T12:32:00.716Z</time>
      </trkpt>
      <trkpt lat="45.7802" lon="6.71494">
        <ele>1430</ele>
        <time>2026-07-29T12:32:01.716Z</time>
      </trkpt>
      <trkpt lat="45.78022" lon="6.71495">
        <ele>1429</ele>
        <time>2026-07-29T12:32:02.716Z</time>
      </trkpt>
      <trkpt lat="45.78024" lon="6.71495">
        <ele>1429</ele>
        <time>2026-07-29T12:32:03.716Z</time>
      </trkpt>
      <trkpt lat="45.78027" lon="6.71496">
        <ele>1428</ele>
        <time>2026-07-29T12:32:04.716Z</time>
      </trkpt>
      <trkpt lat="45.78028" lon="6.71496">
        <ele>1427</ele>
        <time>2026-07-29T12:32:05.716Z</time>
      </trkpt>
      <trkpt lat="45.7803" lon="6.71496">
        <ele>1427</ele>
        <time>2026-07-29T12:32:06.716Z</time>
      </trkpt>
      <trkpt lat="45.78032" lon="6.71496">
        <ele>1426</ele>
        <time>2026-07-29T12:32:07.716Z</time>
      </trkpt>
      <trkpt lat="45.78034" lon="6.71496">
        <ele>1426</ele>
        <time>2026-07-29T12:32:08.716Z</time>
      </trkpt>
      <trkpt lat="45.78036" lon="6.71496">
        <ele>1425</ele>
        <time>2026-07-29T12:32:09.716Z</time>
      </trkpt>
      <trkpt lat="45.78038" lon="6.71496">
        <ele>1425</ele>
        <time>2026-07-29T12:32:10.716Z</time>
      </trkpt>
      <trkpt lat="45.7804" lon="6.71497">
        <ele>1425</ele>
        <time>2026-07-29T12:32:11.716Z</time>
      </trkpt>
      <trkpt lat="45.78042" lon="6.71498">
        <ele>1424</ele>
        <time>2026-07-29T12:32:12.716Z</time>
      </trkpt>
      <trkpt lat="45.78044" lon="6.71499">
        <ele>1424</ele>
        <time>2026-07-29T12:32:13.716Z</time>
      </trkpt>
      <trkpt lat="45.78046" lon="6.71499">
        <ele>1423</ele>
        <time>2026-07-29T12:32:14.716Z</time>
      </trkpt>
      <trkpt lat="45.78048" lon="6.71499">
        <ele>1423</ele>
        <time>2026-07-29T12:32:15.716Z</time>
      </trkpt>
      <trkpt lat="45.78049" lon="6.71499">
        <ele>1422</ele>
        <time>2026-07-29T12:32:16.716Z</time>
      </trkpt>
      <trkpt lat="45.7805" lon="6.715">
        <ele>1422</ele>
        <time>2026-07-29T12:32:17.716Z</time>
      </trkpt>
      <trkpt lat="45.78051" lon="6.71501">
        <ele>1422</ele>
        <time>2026-07-29T12:32:18.716Z</time>
      </trkpt>
      <trkpt lat="45.78052" lon="6.71502">
        <ele>1422</ele>
        <time>2026-07-29T12:32:19.716Z</time>
      </trkpt>
      <trkpt lat="45.78052" lon="6.71502">
        <ele>1422</ele>
        <time>2026-07-29T12:32:20.716Z</time>
      </trkpt>
      <trkpt lat="45.78053" lon="6.71503">
        <ele>1422</ele>
        <time>2026-07-29T12:32:21.716Z</time>
      </trkpt>
      <trkpt lat="45.78053" lon="6.71503">
        <ele>1422</ele>
        <time>2026-07-29T12:32:22.716Z</time>
      </trkpt>
      <trkpt lat="45.78054" lon="6.71503">
        <ele>1423</ele>
        <time>2026-07-29T12:32:23.716Z</time>
      </trkpt>
      <trkpt lat="45.78055" lon="6.71503">
        <ele>1423</ele>
        <time>2026-07-29T12:32:24.716Z</time>
      </trkpt>
      <trkpt lat="45.78056" lon="6.71503">
        <ele>1424</ele>
        <time>2026-07-29T12:32:25.716Z</time>
      </trkpt>
      <trkpt lat="45.78057" lon="6.71502">
        <ele>1425</ele>
        <time>2026-07-29T12:32:26.716Z</time>
      </trkpt>
      <trkpt lat="45.78058" lon="6.71502">
        <ele>1425</ele>
        <time>2026-07-29T12:32:27.716Z</time>
      </trkpt>
      <trkpt lat="45.78059" lon="6.71502">
        <ele>1425</ele>
        <time>2026-07-29T12:32:28.716Z</time>
      </trkpt>
      <trkpt lat="45.7806" lon="6.71502">
        <ele>1426</ele>
        <time>2026-07-29T12:32:29.716Z</time>
      </trkpt>
      <trkpt lat="45.78061" lon="6.71502">
        <ele>1426</ele>
        <time>2026-07-29T12:32:30.716Z</time>
      </trkpt>
      <trkpt lat="45.78062" lon="6.71502">
        <ele>1426</ele>
        <time>2026-07-29T12:32:31.716Z</time>
      </trkpt>
      <trkpt lat="45.78064" lon="6.71502">
        <ele>1425</ele>
        <time>2026-07-29T12:32:32.716Z</time>
      </trkpt>
      <trkpt lat="45.78066" lon="6.71503">
        <ele>1425</ele>
        <time>2026-07-29T12:32:33.716Z</time>
      </trkpt>
      <trkpt lat="45.78067" lon="6.71503">
        <ele>1425</ele>
        <time>2026-07-29T12:32:34.716Z</time>
      </trkpt>
      <trkpt lat="45.78069" lon="6.71504">
        <ele>1425</ele>
        <time>2026-07-29T12:32:35.716Z</time>
      </trkpt>
      <trkpt lat="45.78071" lon="6.71505">
        <ele>1424</ele>
        <time>2026-07-29T12:32:36.716Z</time>
      </trkpt>
      <trkpt lat="45.78074" lon="6.71505">
        <ele>1424</ele>
        <time>2026-07-29T12:32:37.716Z</time>
      </trkpt>
      <trkpt lat="45.78075" lon="6.71506">
        <ele>1425</ele>
        <time>2026-07-29T12:32:38.716Z</time>
      </trkpt>
      <trkpt lat="45.78077" lon="6.71507">
        <ele>1424</ele>
        <time>2026-07-29T12:32:39.716Z</time>
      </trkpt>
      <trkpt lat="45.78079" lon="6.71507">
        <ele>1424</ele>
        <time>2026-07-29T12:32:40.716Z</time>
      </trkpt>
      <trkpt lat="45.78081" lon="6.71508">
        <ele>1423</ele>
        <time>2026-07-29T12:32:41.716Z</time>
      </trkpt>
      <trkpt lat="45.78083" lon="6.71508">
        <ele>1422</ele>
        <time>2026-07-29T12:32:42.716Z</time>
      </trkpt>
      <trkpt lat="45.78085" lon="6.71509">
        <ele>1421</ele>
        <time>2026-07-29T12:32:43.716Z</time>
      </trkpt>
      <trkpt lat="45.78087" lon="6.71509">
        <ele>1420</ele>
        <time>2026-07-29T12:32:44.716Z</time>
      </trkpt>
      <trkpt lat="45.78088" lon="6.71509">
        <ele>1419</ele>
        <time>2026-07-29T12:32:45.716Z</time>
      </trkpt>
      <trkpt lat="45.7809" lon="6.71509">
        <ele>1418</ele>
        <time>2026-07-29T12:32:46.716Z</time>
      </trkpt>
      <trkpt lat="45.78092" lon="6.71509">
        <ele>1417</ele>
        <time>2026-07-29T12:32:47.716Z</time>
      </trkpt>
      <trkpt lat="45.78095" lon="6.7151">
        <ele>1416</ele>
        <time>2026-07-29T12:32:48.716Z</time>
      </trkpt>
      <trkpt lat="45.78097" lon="6.71511">
        <ele>1415</ele>
        <time>2026-07-29T12:32:49.716Z</time>
      </trkpt>
      <trkpt lat="45.78099" lon="6.71511">
        <ele>1414</ele>
        <time>2026-07-29T12:32:50.716Z</time>
      </trkpt>
      <trkpt lat="45.781" lon="6.71512">
        <ele>1414</ele>
        <time>2026-07-29T12:32:51.716Z</time>
      </trkpt>
      <trkpt lat="45.78102" lon="6.71512">
        <ele>1413</ele>
        <time>2026-07-29T12:32:52.716Z</time>
      </trkpt>
      <trkpt lat="45.78104" lon="6.71512">
        <ele>1413</ele>
        <time>2026-07-29T12:32:53.716Z</time>
      </trkpt>
      <trkpt lat="45.78106" lon="6.71513">
        <ele>1412</ele>
        <time>2026-07-29T12:32:54.716Z</time>
      </trkpt>
      <trkpt lat="45.78107" lon="6.71514">
        <ele>1412</ele>
        <time>2026-07-29T12:32:55.716Z</time>
      </trkpt>
      <trkpt lat="45.78108" lon="6.71514">
        <ele>1412</ele>
        <time>2026-07-29T12:32:56.716Z</time>
      </trkpt>
      <trkpt lat="45.78109" lon="6.71514">
        <ele>1412</ele>
        <time>2026-07-29T12:32:57.716Z</time>
      </trkpt>
      <trkpt lat="45.7811" lon="6.71515">
        <ele>1412</ele>
        <time>2026-07-29T12:32:58.716Z</time>
      </trkpt>
      <trkpt lat="45.78111" lon="6.71516">
        <ele>1412</ele>
        <time>2026-07-29T12:32:59.716Z</time>
      </trkpt>
      <trkpt lat="45.78112" lon="6.71515">
        <ele>1412</ele>
        <time>2026-07-29T12:33:00.716Z</time>
      </trkpt>
      <trkpt lat="45.78113" lon="6.71515">
        <ele>1412</ele>
        <time>2026-07-29T12:33:01.716Z</time>
      </trkpt>
      <trkpt lat="45.78114" lon="6.71515">
        <ele>1412</ele>
        <time>2026-07-29T12:33:02.716Z</time>
      </trkpt>
      <trkpt lat="45.78116" lon="6.71518">
        <ele>1412</ele>
        <time>2026-07-29T12:33:03.716Z</time>
      </trkpt>
      <trkpt lat="45.78117" lon="6.7152">
        <ele>1412</ele>
        <time>2026-07-29T12:33:04.716Z</time>
      </trkpt>
      <trkpt lat="45.78119" lon="6.71522">
        <ele>1412</ele>
        <time>2026-07-29T12:33:05.716Z</time>
      </trkpt>
      <trkpt lat="45.78121" lon="6.71524">
        <ele>1412</ele>
        <time>2026-07-29T12:33:06.716Z</time>
      </trkpt>
      <trkpt lat="45.78122" lon="6.71525">
        <ele>1412</ele>
        <time>2026-07-29T12:33:07.716Z</time>
      </trkpt>
      <trkpt lat="45.78124" lon="6.71527">
        <ele>1412</ele>
        <time>2026-07-29T12:33:08.716Z</time>
      </trkpt>
      <trkpt lat="45.78126" lon="6.71528">
        <ele>1412</ele>
        <time>2026-07-29T12:33:09.716Z</time>
      </trkpt>
      <trkpt lat="45.78128" lon="6.7153">
        <ele>1412</ele>
        <time>2026-07-29T12:33:10.716Z</time>
      </trkpt>
      <trkpt lat="45.7813" lon="6.71531">
        <ele>1412</ele>
        <time>2026-07-29T12:33:11.716Z</time>
      </trkpt>
      <trkpt lat="45.78132" lon="6.71532">
        <ele>1412</ele>
        <time>2026-07-29T12:33:12.716Z</time>
      </trkpt>
      <trkpt lat="45.78135" lon="6.71533">
        <ele>1412</ele>
        <time>2026-07-29T12:33:13.716Z</time>
      </trkpt>
      <trkpt lat="45.78137" lon="6.71534">
        <ele>1413</ele>
        <time>2026-07-29T12:33:14.716Z</time>
      </trkpt>
      <trkpt lat="45.78139" lon="6.71535">
        <ele>1413</ele>
        <time>2026-07-29T12:33:15.716Z</time>
      </trkpt>
      <trkpt lat="45.78141" lon="6.71536">
        <ele>1413</ele>
        <time>2026-07-29T12:33:16.716Z</time>
      </trkpt>
      <trkpt lat="45.78143" lon="6.71536">
        <ele>1413</ele>
        <time>2026-07-29T12:33:17.716Z</time>
      </trkpt>
      <trkpt lat="45.78145" lon="6.71537">
        <ele>1413</ele>
        <time>2026-07-29T12:33:18.716Z</time>
      </trkpt>
      <trkpt lat="45.78147" lon="6.71538">
        <ele>1413</ele>
        <time>2026-07-29T12:33:19.716Z</time>
      </trkpt>
      <trkpt lat="45.78149" lon="6.71539">
        <ele>1413</ele>
        <time>2026-07-29T12:33:20.716Z</time>
      </trkpt>
      <trkpt lat="45.78151" lon="6.7154">
        <ele>1413</ele>
        <time>2026-07-29T12:33:21.716Z</time>
      </trkpt>
      <trkpt lat="45.78153" lon="6.71541">
        <ele>1413</ele>
        <time>2026-07-29T12:33:22.716Z</time>
      </trkpt>
      <trkpt lat="45.78155" lon="6.71541">
        <ele>1413</ele>
        <time>2026-07-29T12:33:23.716Z</time>
      </trkpt>
      <trkpt lat="45.78157" lon="6.7154">
        <ele>1413</ele>
        <time>2026-07-29T12:33:24.716Z</time>
      </trkpt>
      <trkpt lat="45.78159" lon="6.71539">
        <ele>1413</ele>
        <time>2026-07-29T12:33:25.716Z</time>
      </trkpt>
      <trkpt lat="45.78161" lon="6.71538">
        <ele>1413</ele>
        <time>2026-07-29T12:33:26.716Z</time>
      </trkpt>
      <trkpt lat="45.78163" lon="6.71536">
        <ele>1412</ele>
        <time>2026-07-29T12:33:27.716Z</time>
      </trkpt>
      <trkpt lat="45.78165" lon="6.71535">
        <ele>1412</ele>
        <time>2026-07-29T12:33:28.716Z</time>
      </trkpt>
      <trkpt lat="45.78167" lon="6.71533">
        <ele>1412</ele>
        <time>2026-07-29T12:33:29.716Z</time>
      </trkpt>
      <trkpt lat="45.78169" lon="6.71531">
        <ele>1411</ele>
        <time>2026-07-29T12:33:30.716Z</time>
      </trkpt>
      <trkpt lat="45.78171" lon="6.7153">
        <ele>1411</ele>
        <time>2026-07-29T12:33:31.716Z</time>
      </trkpt>
      <trkpt lat="45.78173" lon="6.71528">
        <ele>1410</ele>
        <time>2026-07-29T12:33:32.716Z</time>
      </trkpt>
      <trkpt lat="45.78175" lon="6.71527">
        <ele>1409</ele>
        <time>2026-07-29T12:33:33.716Z</time>
      </trkpt>
      <trkpt lat="45.78177" lon="6.71526">
        <ele>1409</ele>
        <time>2026-07-29T12:33:34.716Z</time>
      </trkpt>
      <trkpt lat="45.78178" lon="6.71526">
        <ele>1408</ele>
        <time>2026-07-29T12:33:35.716Z</time>
      </trkpt>
      <trkpt lat="45.7818" lon="6.71525">
        <ele>1408</ele>
        <time>2026-07-29T12:33:36.716Z</time>
      </trkpt>
      <trkpt lat="45.78181" lon="6.71524">
        <ele>1407</ele>
        <time>2026-07-29T12:33:37.716Z</time>
      </trkpt>
      <trkpt lat="45.78182" lon="6.71522">
        <ele>1407</ele>
        <time>2026-07-29T12:33:38.716Z</time>
      </trkpt>
      <trkpt lat="45.78183" lon="6.7152">
        <ele>1406</ele>
        <time>2026-07-29T12:33:39.716Z</time>
      </trkpt>
      <trkpt lat="45.78185" lon="6.71518">
        <ele>1406</ele>
        <time>2026-07-29T12:33:40.716Z</time>
      </trkpt>
      <trkpt lat="45.78186" lon="6.71518">
        <ele>1405</ele>
        <time>2026-07-29T12:33:41.716Z</time>
      </trkpt>
      <trkpt lat="45.78188" lon="6.71517">
        <ele>1404</ele>
        <time>2026-07-29T12:33:42.716Z</time>
      </trkpt>
      <trkpt lat="45.78189" lon="6.71516">
        <ele>1403</ele>
        <time>2026-07-29T12:33:43.716Z</time>
      </trkpt>
      <trkpt lat="45.7819" lon="6.71515">
        <ele>1402</ele>
        <time>2026-07-29T12:33:44.716Z</time>
      </trkpt>
      <trkpt lat="45.78192" lon="6.71514">
        <ele>1401</ele>
        <time>2026-07-29T12:33:45.716Z</time>
      </trkpt>
      <trkpt lat="45.78193" lon="6.71513">
        <ele>1400</ele>
        <time>2026-07-29T12:33:46.716Z</time>
      </trkpt>
      <trkpt lat="45.78194" lon="6.71512">
        <ele>1400</ele>
        <time>2026-07-29T12:33:47.716Z</time>
      </trkpt>
      <trkpt lat="45.78196" lon="6.7151">
        <ele>1400</ele>
        <time>2026-07-29T12:33:48.716Z</time>
      </trkpt>
      <trkpt lat="45.78198" lon="6.71509">
        <ele>1400</ele>
        <time>2026-07-29T12:33:49.716Z</time>
      </trkpt>
      <trkpt lat="45.782" lon="6.71508">
        <ele>1400</ele>
        <time>2026-07-29T12:33:50.716Z</time>
      </trkpt>
      <trkpt lat="45.78202" lon="6.71507">
        <ele>1401</ele>
        <time>2026-07-29T12:33:51.716Z</time>
      </trkpt>
      <trkpt lat="45.78204" lon="6.71506">
        <ele>1401</ele>
        <time>2026-07-29T12:33:52.716Z</time>
      </trkpt>
      <trkpt lat="45.78205" lon="6.71506">
        <ele>1401</ele>
        <time>2026-07-29T12:33:53.716Z</time>
      </trkpt>
      <trkpt lat="45.78207" lon="6.71506">
        <ele>1401</ele>
        <time>2026-07-29T12:33:54.716Z</time>
      </trkpt>
      <trkpt lat="45.78208" lon="6.71506">
        <ele>1401</ele>
        <time>2026-07-29T12:33:55.716Z</time>
      </trkpt>
      <trkpt lat="45.7821" lon="6.71506">
        <ele>1401</ele>
        <time>2026-07-29T12:33:56.716Z</time>
      </trkpt>
      <trkpt lat="45.78212" lon="6.71506">
        <ele>1400</ele>
        <time>2026-07-29T12:33:57.716Z</time>
      </trkpt>
      <trkpt lat="45.78214" lon="6.71506">
        <ele>1400</ele>
        <time>2026-07-29T12:33:58.716Z</time>
      </trkpt>
      <trkpt lat="45.78216" lon="6.71506">
        <ele>1399</ele>
        <time>2026-07-29T12:33:59.716Z</time>
      </trkpt>
      <trkpt lat="45.78218" lon="6.71505">
        <ele>1399</ele>
        <time>2026-07-29T12:34:00.716Z</time>
      </trkpt>
      <trkpt lat="45.7822" lon="6.71505">
        <ele>1398</ele>
        <time>2026-07-29T12:34:01.716Z</time>
      </trkpt>
      <trkpt lat="45.78222" lon="6.71504">
        <ele>1397</ele>
        <time>2026-07-29T12:34:02.716Z</time>
      </trkpt>
      <trkpt lat="45.78224" lon="6.71503">
        <ele>1397</ele>
        <time>2026-07-29T12:34:03.716Z</time>
      </trkpt>
      <trkpt lat="45.78226" lon="6.71501">
        <ele>1396</ele>
        <time>2026-07-29T12:34:04.716Z</time>
      </trkpt>
      <trkpt lat="45.78229" lon="6.715">
        <ele>1396</ele>
        <time>2026-07-29T12:34:05.716Z</time>
      </trkpt>
      <trkpt lat="45.78231" lon="6.71499">
        <ele>1395</ele>
        <time>2026-07-29T12:34:06.716Z</time>
      </trkpt>
      <trkpt lat="45.78233" lon="6.71498">
        <ele>1395</ele>
        <time>2026-07-29T12:34:07.716Z</time>
      </trkpt>
      <trkpt lat="45.78236" lon="6.71496">
        <ele>1394</ele>
        <time>2026-07-29T12:34:08.716Z</time>
      </trkpt>
      <trkpt lat="45.78239" lon="6.71497">
        <ele>1393</ele>
        <time>2026-07-29T12:34:09.716Z</time>
      </trkpt>
      <trkpt lat="45.78241" lon="6.71496">
        <ele>1393</ele>
        <time>2026-07-29T12:34:10.716Z</time>
      </trkpt>
      <trkpt lat="45.78243" lon="6.71496">
        <ele>1392</ele>
        <time>2026-07-29T12:34:11.716Z</time>
      </trkpt>
      <trkpt lat="45.78246" lon="6.71497">
        <ele>1392</ele>
        <time>2026-07-29T12:34:12.716Z</time>
      </trkpt>
      <trkpt lat="45.78248" lon="6.71497">
        <ele>1392</ele>
        <time>2026-07-29T12:34:13.716Z</time>
      </trkpt>
      <trkpt lat="45.7825" lon="6.71496">
        <ele>1391</ele>
        <time>2026-07-29T12:34:14.716Z</time>
      </trkpt>
      <trkpt lat="45.78252" lon="6.71496">
        <ele>1391</ele>
        <time>2026-07-29T12:34:15.716Z</time>
      </trkpt>
      <trkpt lat="45.78255" lon="6.71496">
        <ele>1391</ele>
        <time>2026-07-29T12:34:16.716Z</time>
      </trkpt>
      <trkpt lat="45.78257" lon="6.71495">
        <ele>1391</ele>
        <time>2026-07-29T12:34:17.716Z</time>
      </trkpt>
      <trkpt lat="45.78259" lon="6.71494">
        <ele>1391</ele>
        <time>2026-07-29T12:34:18.716Z</time>
      </trkpt>
      <trkpt lat="45.78261" lon="6.71492">
        <ele>1391</ele>
        <time>2026-07-29T12:34:19.716Z</time>
      </trkpt>
      <trkpt lat="45.78264" lon="6.7149">
        <ele>1391</ele>
        <time>2026-07-29T12:34:20.716Z</time>
      </trkpt>
      <trkpt lat="45.78266" lon="6.71489">
        <ele>1390</ele>
        <time>2026-07-29T12:34:21.716Z</time>
      </trkpt>
      <trkpt lat="45.78268" lon="6.71487">
        <ele>1390</ele>
        <time>2026-07-29T12:34:22.716Z</time>
      </trkpt>
      <trkpt lat="45.78269" lon="6.71484">
        <ele>1390</ele>
        <time>2026-07-29T12:34:23.716Z</time>
      </trkpt>
      <trkpt lat="45.78271" lon="6.71482">
        <ele>1390</ele>
        <time>2026-07-29T12:34:24.716Z</time>
      </trkpt>
      <trkpt lat="45.78272" lon="6.71479">
        <ele>1390</ele>
        <time>2026-07-29T12:34:25.716Z</time>
      </trkpt>
      <trkpt lat="45.78273" lon="6.71476">
        <ele>1390</ele>
        <time>2026-07-29T12:34:26.716Z</time>
      </trkpt>
      <trkpt lat="45.78274" lon="6.71472">
        <ele>1390</ele>
        <time>2026-07-29T12:34:27.716Z</time>
      </trkpt>
      <trkpt lat="45.78275" lon="6.71469">
        <ele>1390</ele>
        <time>2026-07-29T12:34:28.716Z</time>
      </trkpt>
      <trkpt lat="45.78277" lon="6.71465">
        <ele>1390</ele>
        <time>2026-07-29T12:34:29.716Z</time>
      </trkpt>
      <trkpt lat="45.78279" lon="6.71462">
        <ele>1389</ele>
        <time>2026-07-29T12:34:30.716Z</time>
      </trkpt>
      <trkpt lat="45.78282" lon="6.7146">
        <ele>1389</ele>
        <time>2026-07-29T12:34:31.716Z</time>
      </trkpt>
      <trkpt lat="45.78284" lon="6.71457">
        <ele>1389</ele>
        <time>2026-07-29T12:34:32.716Z</time>
      </trkpt>
      <trkpt lat="45.78286" lon="6.71455">
        <ele>1389</ele>
        <time>2026-07-29T12:34:33.716Z</time>
      </trkpt>
      <trkpt lat="45.78288" lon="6.71453">
        <ele>1389</ele>
        <time>2026-07-29T12:34:34.716Z</time>
      </trkpt>
      <trkpt lat="45.7829" lon="6.7145">
        <ele>1388</ele>
        <time>2026-07-29T12:34:35.716Z</time>
      </trkpt>
      <trkpt lat="45.78292" lon="6.71448">
        <ele>1388</ele>
        <time>2026-07-29T12:34:36.716Z</time>
      </trkpt>
      <trkpt lat="45.78294" lon="6.71444">
        <ele>1388</ele>
        <time>2026-07-29T12:34:37.716Z</time>
      </trkpt>
      <trkpt lat="45.78296" lon="6.71442">
        <ele>1388</ele>
        <time>2026-07-29T12:34:38.716Z</time>
      </trkpt>
      <trkpt lat="45.78299" lon="6.71441">
        <ele>1387</ele>
        <time>2026-07-29T12:34:39.716Z</time>
      </trkpt>
      <trkpt lat="45.78301" lon="6.71439">
        <ele>1387</ele>
        <time>2026-07-29T12:34:40.716Z</time>
      </trkpt>
      <trkpt lat="45.78303" lon="6.71437">
        <ele>1386</ele>
        <time>2026-07-29T12:34:41.716Z</time>
      </trkpt>
      <trkpt lat="45.78305" lon="6.71436">
        <ele>1386</ele>
        <time>2026-07-29T12:34:42.716Z</time>
      </trkpt>
      <trkpt lat="45.78306" lon="6.71434">
        <ele>1385</ele>
        <time>2026-07-29T12:34:43.716Z</time>
      </trkpt>
      <trkpt lat="45.78307" lon="6.71431">
        <ele>1385</ele>
        <time>2026-07-29T12:34:44.716Z</time>
      </trkpt>
      <trkpt lat="45.78308" lon="6.71429">
        <ele>1385</ele>
        <time>2026-07-29T12:34:45.716Z</time>
      </trkpt>
      <trkpt lat="45.78309" lon="6.71426">
        <ele>1385</ele>
        <time>2026-07-29T12:34:46.716Z</time>
      </trkpt>
      <trkpt lat="45.7831" lon="6.71423">
        <ele>1385</ele>
        <time>2026-07-29T12:34:47.716Z</time>
      </trkpt>
      <trkpt lat="45.78311" lon="6.71421">
        <ele>1385</ele>
        <time>2026-07-29T12:34:48.716Z</time>
      </trkpt>
      <trkpt lat="45.78313" lon="6.71419">
        <ele>1384</ele>
        <time>2026-07-29T12:34:49.716Z</time>
      </trkpt>
      <trkpt lat="45.78313" lon="6.71417">
        <ele>1384</ele>
        <time>2026-07-29T12:34:50.716Z</time>
      </trkpt>
      <trkpt lat="45.78314" lon="6.71415">
        <ele>1384</ele>
        <time>2026-07-29T12:34:51.716Z</time>
      </trkpt>
      <trkpt lat="45.78315" lon="6.71412">
        <ele>1383</ele>
        <time>2026-07-29T12:34:52.716Z</time>
      </trkpt>
      <trkpt lat="45.78315" lon="6.71408">
        <ele>1383</ele>
        <time>2026-07-29T12:34:53.716Z</time>
      </trkpt>
      <trkpt lat="45.78317" lon="6.71406">
        <ele>1383</ele>
        <time>2026-07-29T12:34:54.716Z</time>
      </trkpt>
      <trkpt lat="45.78318" lon="6.71403">
        <ele>1383</ele>
        <time>2026-07-29T12:34:55.716Z</time>
      </trkpt>
      <trkpt lat="45.7832" lon="6.71401">
        <ele>1383</ele>
        <time>2026-07-29T12:34:56.716Z</time>
      </trkpt>
      <trkpt lat="45.78322" lon="6.714">
        <ele>1382</ele>
        <time>2026-07-29T12:34:57.716Z</time>
      </trkpt>
      <trkpt lat="45.78324" lon="6.71398">
        <ele>1382</ele>
        <time>2026-07-29T12:34:58.716Z</time>
      </trkpt>
      <trkpt lat="45.78325" lon="6.71396">
        <ele>1382</ele>
        <time>2026-07-29T12:34:59.716Z</time>
      </trkpt>
      <trkpt lat="45.78327" lon="6.71394">
        <ele>1382</ele>
        <time>2026-07-29T12:35:00.716Z</time>
      </trkpt>
      <trkpt lat="45.78328" lon="6.71392">
        <ele>1382</ele>
        <time>2026-07-29T12:35:01.716Z</time>
      </trkpt>
      <trkpt lat="45.7833" lon="6.7139">
        <ele>1382</ele>
        <time>2026-07-29T12:35:02.716Z</time>
      </trkpt>
      <trkpt lat="45.78331" lon="6.71388">
        <ele>1382</ele>
        <time>2026-07-29T12:35:03.716Z</time>
      </trkpt>
      <trkpt lat="45.78332" lon="6.71386">
        <ele>1382</ele>
        <time>2026-07-29T12:35:04.716Z</time>
      </trkpt>
      <trkpt lat="45.78334" lon="6.71383">
        <ele>1382</ele>
        <time>2026-07-29T12:35:05.716Z</time>
      </trkpt>
      <trkpt lat="45.78335" lon="6.71381">
        <ele>1382</ele>
        <time>2026-07-29T12:35:06.716Z</time>
      </trkpt>
      <trkpt lat="45.78337" lon="6.71379">
        <ele>1382</ele>
        <time>2026-07-29T12:35:07.716Z</time>
      </trkpt>
      <trkpt lat="45.78338" lon="6.71376">
        <ele>1381</ele>
        <time>2026-07-29T12:35:08.716Z</time>
      </trkpt>
      <trkpt lat="45.78341" lon="6.71375">
        <ele>1381</ele>
        <time>2026-07-29T12:35:09.716Z</time>
      </trkpt>
      <trkpt lat="45.78342" lon="6.71373">
        <ele>1381</ele>
        <time>2026-07-29T12:35:10.716Z</time>
      </trkpt>
      <trkpt lat="45.78343" lon="6.71371">
        <ele>1380</ele>
        <time>2026-07-29T12:35:11.716Z</time>
      </trkpt>
      <trkpt lat="45.78344" lon="6.71368">
        <ele>1380</ele>
        <time>2026-07-29T12:35:12.716Z</time>
      </trkpt>
      <trkpt lat="45.78346" lon="6.71364">
        <ele>1380</ele>
        <time>2026-07-29T12:35:13.716Z</time>
      </trkpt>
      <trkpt lat="45.78347" lon="6.71362">
        <ele>1379</ele>
        <time>2026-07-29T12:35:14.716Z</time>
      </trkpt>
      <trkpt lat="45.78349" lon="6.71359">
        <ele>1379</ele>
        <time>2026-07-29T12:35:15.716Z</time>
      </trkpt>
      <trkpt lat="45.78351" lon="6.71356">
        <ele>1378</ele>
        <time>2026-07-29T12:35:16.716Z</time>
      </trkpt>
      <trkpt lat="45.78353" lon="6.71354">
        <ele>1378</ele>
        <time>2026-07-29T12:35:17.716Z</time>
      </trkpt>
      <trkpt lat="45.78356" lon="6.71352">
        <ele>1377</ele>
        <time>2026-07-29T12:35:18.716Z</time>
      </trkpt>
      <trkpt lat="45.78358" lon="6.7135">
        <ele>1377</ele>
        <time>2026-07-29T12:35:19.716Z</time>
      </trkpt>
      <trkpt lat="45.78359" lon="6.71348">
        <ele>1376</ele>
        <time>2026-07-29T12:35:20.716Z</time>
      </trkpt>
      <trkpt lat="45.7836" lon="6.71346">
        <ele>1376</ele>
        <time>2026-07-29T12:35:21.716Z</time>
      </trkpt>
      <trkpt lat="45.78361" lon="6.71345">
        <ele>1376</ele>
        <time>2026-07-29T12:35:22.716Z</time>
      </trkpt>
      <trkpt lat="45.78362" lon="6.71344">
        <ele>1376</ele>
        <time>2026-07-29T12:35:23.716Z</time>
      </trkpt>
      <trkpt lat="45.78363" lon="6.71343">
        <ele>1375</ele>
        <time>2026-07-29T12:35:24.716Z</time>
      </trkpt>
      <trkpt lat="45.78364" lon="6.71342">
        <ele>1375</ele>
        <time>2026-07-29T12:35:25.716Z</time>
      </trkpt>
      <trkpt lat="45.78365" lon="6.7134">
        <ele>1376</ele>
        <time>2026-07-29T12:35:26.716Z</time>
      </trkpt>
      <trkpt lat="45.78367" lon="6.71338">
        <ele>1376</ele>
        <time>2026-07-29T12:35:27.716Z</time>
      </trkpt>
      <trkpt lat="45.78368" lon="6.71336">
        <ele>1376</ele>
        <time>2026-07-29T12:35:28.716Z</time>
      </trkpt>
      <trkpt lat="45.78369" lon="6.71334">
        <ele>1377</ele>
        <time>2026-07-29T12:35:29.716Z</time>
      </trkpt>
      <trkpt lat="45.7837" lon="6.71331">
        <ele>1377</ele>
        <time>2026-07-29T12:35:30.716Z</time>
      </trkpt>
      <trkpt lat="45.78371" lon="6.71329">
        <ele>1377</ele>
        <time>2026-07-29T12:35:31.716Z</time>
      </trkpt>
      <trkpt lat="45.78372" lon="6.71326">
        <ele>1378</ele>
        <time>2026-07-29T12:35:32.716Z</time>
      </trkpt>
      <trkpt lat="45.78373" lon="6.71324">
        <ele>1378</ele>
        <time>2026-07-29T12:35:33.716Z</time>
      </trkpt>
      <trkpt lat="45.78375" lon="6.71322">
        <ele>1378</ele>
        <time>2026-07-29T12:35:34.716Z</time>
      </trkpt>
      <trkpt lat="45.78376" lon="6.7132">
        <ele>1378</ele>
        <time>2026-07-29T12:35:35.716Z</time>
      </trkpt>
      <trkpt lat="45.78378" lon="6.71319">
        <ele>1378</ele>
        <time>2026-07-29T12:35:36.716Z</time>
      </trkpt>
      <trkpt lat="45.7838" lon="6.71318">
        <ele>1378</ele>
        <time>2026-07-29T12:35:37.716Z</time>
      </trkpt>
      <trkpt lat="45.78382" lon="6.71316">
        <ele>1378</ele>
        <time>2026-07-29T12:35:38.716Z</time>
      </trkpt>
      <trkpt lat="45.78384" lon="6.71315">
        <ele>1378</ele>
        <time>2026-07-29T12:35:39.716Z</time>
      </trkpt>
      <trkpt lat="45.78386" lon="6.71314">
        <ele>1378</ele>
        <time>2026-07-29T12:35:40.716Z</time>
      </trkpt>
      <trkpt lat="45.78388" lon="6.71313">
        <ele>1378</ele>
        <time>2026-07-29T12:35:41.716Z</time>
      </trkpt>
      <trkpt lat="45.78391" lon="6.71312">
        <ele>1378</ele>
        <time>2026-07-29T12:35:42.716Z</time>
      </trkpt>
      <trkpt lat="45.78393" lon="6.71312">
        <ele>1378</ele>
        <time>2026-07-29T12:35:43.716Z</time>
      </trkpt>
      <trkpt lat="45.78396" lon="6.7131">
        <ele>1377</ele>
        <time>2026-07-29T12:35:44.716Z</time>
      </trkpt>
      <trkpt lat="45.78398" lon="6.71309">
        <ele>1377</ele>
        <time>2026-07-29T12:35:45.716Z</time>
      </trkpt>
      <trkpt lat="45.78401" lon="6.71307">
        <ele>1376</ele>
        <time>2026-07-29T12:35:46.716Z</time>
      </trkpt>
      <trkpt lat="45.78403" lon="6.71306">
        <ele>1376</ele>
        <time>2026-07-29T12:35:47.716Z</time>
      </trkpt>
      <trkpt lat="45.78406" lon="6.71306">
        <ele>1375</ele>
        <time>2026-07-29T12:35:48.716Z</time>
      </trkpt>
      <trkpt lat="45.78408" lon="6.71304">
        <ele>1375</ele>
        <time>2026-07-29T12:35:49.716Z</time>
      </trkpt>
      <trkpt lat="45.78411" lon="6.71304">
        <ele>1375</ele>
        <time>2026-07-29T12:35:50.716Z</time>
      </trkpt>
      <trkpt lat="45.78413" lon="6.71303">
        <ele>1375</ele>
        <time>2026-07-29T12:35:51.716Z</time>
      </trkpt>
      <trkpt lat="45.78416" lon="6.71304">
        <ele>1375</ele>
        <time>2026-07-29T12:35:52.716Z</time>
      </trkpt>
      <trkpt lat="45.78418" lon="6.71303">
        <ele>1376</ele>
        <time>2026-07-29T12:35:53.716Z</time>
      </trkpt>
      <trkpt lat="45.7842" lon="6.71303">
        <ele>1376</ele>
        <time>2026-07-29T12:35:54.716Z</time>
      </trkpt>
      <trkpt lat="45.78421" lon="6.71302">
        <ele>1377</ele>
        <time>2026-07-29T12:35:55.716Z</time>
      </trkpt>
      <trkpt lat="45.78423" lon="6.71301">
        <ele>1377</ele>
        <time>2026-07-29T12:35:56.716Z</time>
      </trkpt>
      <trkpt lat="45.78425" lon="6.713">
        <ele>1377</ele>
        <time>2026-07-29T12:35:57.716Z</time>
      </trkpt>
      <trkpt lat="45.78426" lon="6.71298">
        <ele>1378</ele>
        <time>2026-07-29T12:35:58.716Z</time>
      </trkpt>
      <trkpt lat="45.78428" lon="6.71296">
        <ele>1378</ele>
        <time>2026-07-29T12:35:59.716Z</time>
      </trkpt>
      <trkpt lat="45.78428" lon="6.71294">
        <ele>1377</ele>
        <time>2026-07-29T12:36:00.716Z</time>
      </trkpt>
      <trkpt lat="45.7843" lon="6.71292">
        <ele>1377</ele>
        <time>2026-07-29T12:36:01.716Z</time>
      </trkpt>
      <trkpt lat="45.78431" lon="6.7129">
        <ele>1376</ele>
        <time>2026-07-29T12:36:02.716Z</time>
      </trkpt>
      <trkpt lat="45.78432" lon="6.71288">
        <ele>1375</ele>
        <time>2026-07-29T12:36:03.716Z</time>
      </trkpt>
      <trkpt lat="45.78432" lon="6.71286">
        <ele>1375</ele>
        <time>2026-07-29T12:36:04.716Z</time>
      </trkpt>
      <trkpt lat="45.78433" lon="6.71284">
        <ele>1375</ele>
        <time>2026-07-29T12:36:05.716Z</time>
      </trkpt>
      <trkpt lat="45.78434" lon="6.71282">
        <ele>1374</ele>
        <time>2026-07-29T12:36:06.716Z</time>
      </trkpt>
      <trkpt lat="45.78436" lon="6.71281">
        <ele>1374</ele>
        <time>2026-07-29T12:36:07.716Z</time>
      </trkpt>
      <trkpt lat="45.78437" lon="6.71279">
        <ele>1374</ele>
        <time>2026-07-29T12:36:08.716Z</time>
      </trkpt>
      <trkpt lat="45.78439" lon="6.71277">
        <ele>1373</ele>
        <time>2026-07-29T12:36:09.716Z</time>
      </trkpt>
      <trkpt lat="45.78441" lon="6.71275">
        <ele>1373</ele>
        <time>2026-07-29T12:36:10.716Z</time>
      </trkpt>
      <trkpt lat="45.78443" lon="6.71273">
        <ele>1372</ele>
        <time>2026-07-29T12:36:11.716Z</time>
      </trkpt>
      <trkpt lat="45.78445" lon="6.71272">
        <ele>1372</ele>
        <time>2026-07-29T12:36:12.716Z</time>
      </trkpt>
      <trkpt lat="45.78447" lon="6.71271">
        <ele>1371</ele>
        <time>2026-07-29T12:36:13.716Z</time>
      </trkpt>
      <trkpt lat="45.78448" lon="6.71271">
        <ele>1371</ele>
        <time>2026-07-29T12:36:14.716Z</time>
      </trkpt>
      <trkpt lat="45.7845" lon="6.71271">
        <ele>1371</ele>
        <time>2026-07-29T12:36:15.716Z</time>
      </trkpt>
      <trkpt lat="45.78451" lon="6.7127">
        <ele>1370</ele>
        <time>2026-07-29T12:36:16.716Z</time>
      </trkpt>
      <trkpt lat="45.78453" lon="6.71269">
        <ele>1369</ele>
        <time>2026-07-29T12:36:17.716Z</time>
      </trkpt>
      <trkpt lat="45.78455" lon="6.71269">
        <ele>1368</ele>
        <time>2026-07-29T12:36:18.716Z</time>
      </trkpt>
      <trkpt lat="45.78456" lon="6.71269">
        <ele>1367</ele>
        <time>2026-07-29T12:36:19.716Z</time>
      </trkpt>
      <trkpt lat="45.78458" lon="6.71269">
        <ele>1366</ele>
        <time>2026-07-29T12:36:20.716Z</time>
      </trkpt>
      <trkpt lat="45.78459" lon="6.71269">
        <ele>1365</ele>
        <time>2026-07-29T12:36:21.716Z</time>
      </trkpt>
      <trkpt lat="45.78461" lon="6.71268">
        <ele>1364</ele>
        <time>2026-07-29T12:36:22.716Z</time>
      </trkpt>
      <trkpt lat="45.78462" lon="6.71267">
        <ele>1363</ele>
        <time>2026-07-29T12:36:23.716Z</time>
      </trkpt>
      <trkpt lat="45.78463" lon="6.71266">
        <ele>1363</ele>
        <time>2026-07-29T12:36:24.716Z</time>
      </trkpt>
      <trkpt lat="45.78465" lon="6.71266">
        <ele>1362</ele>
        <time>2026-07-29T12:36:25.716Z</time>
      </trkpt>
      <trkpt lat="45.78466" lon="6.71265">
        <ele>1362</ele>
        <time>2026-07-29T12:36:26.716Z</time>
      </trkpt>
      <trkpt lat="45.78467" lon="6.71264">
        <ele>1362</ele>
        <time>2026-07-29T12:36:27.716Z</time>
      </trkpt>
      <trkpt lat="45.78469" lon="6.71264">
        <ele>1361</ele>
        <time>2026-07-29T12:36:28.716Z</time>
      </trkpt>
      <trkpt lat="45.78471" lon="6.71263">
        <ele>1360</ele>
        <time>2026-07-29T12:36:29.716Z</time>
      </trkpt>
      <trkpt lat="45.78472" lon="6.71262">
        <ele>1360</ele>
        <time>2026-07-29T12:36:30.716Z</time>
      </trkpt>
      <trkpt lat="45.78474" lon="6.71262">
        <ele>1359</ele>
        <time>2026-07-29T12:36:31.716Z</time>
      </trkpt>
      <trkpt lat="45.78476" lon="6.71261">
        <ele>1358</ele>
        <time>2026-07-29T12:36:32.716Z</time>
      </trkpt>
      <trkpt lat="45.78478" lon="6.71261">
        <ele>1357</ele>
        <time>2026-07-29T12:36:33.716Z</time>
      </trkpt>
      <trkpt lat="45.7848" lon="6.7126">
        <ele>1356</ele>
        <time>2026-07-29T12:36:34.716Z</time>
      </trkpt>
      <trkpt lat="45.78483" lon="6.7126">
        <ele>1355</ele>
        <time>2026-07-29T12:36:35.716Z</time>
      </trkpt>
      <trkpt lat="45.78485" lon="6.71259">
        <ele>1355</ele>
        <time>2026-07-29T12:36:36.716Z</time>
      </trkpt>
      <trkpt lat="45.78487" lon="6.71258">
        <ele>1354</ele>
        <time>2026-07-29T12:36:37.716Z</time>
      </trkpt>
      <trkpt lat="45.78489" lon="6.71257">
        <ele>1354</ele>
        <time>2026-07-29T12:36:38.716Z</time>
      </trkpt>
      <trkpt lat="45.78491" lon="6.71257">
        <ele>1353</ele>
        <time>2026-07-29T12:36:39.716Z</time>
      </trkpt>
      <trkpt lat="45.78493" lon="6.71257">
        <ele>1353</ele>
        <time>2026-07-29T12:36:40.716Z</time>
      </trkpt>
      <trkpt lat="45.78495" lon="6.71257">
        <ele>1353</ele>
        <time>2026-07-29T12:36:41.716Z</time>
      </trkpt>
      <trkpt lat="45.78497" lon="6.71257">
        <ele>1352</ele>
        <time>2026-07-29T12:36:42.716Z</time>
      </trkpt>
      <trkpt lat="45.785" lon="6.71257">
        <ele>1352</ele>
        <time>2026-07-29T12:36:43.716Z</time>
      </trkpt>
      <trkpt lat="45.78502" lon="6.71258">
        <ele>1352</ele>
        <time>2026-07-29T12:36:44.716Z</time>
      </trkpt>
      <trkpt lat="45.78505" lon="6.71258">
        <ele>1351</ele>
        <time>2026-07-29T12:36:45.716Z</time>
      </trkpt>
      <trkpt lat="45.78507" lon="6.71259">
        <ele>1351</ele>
        <time>2026-07-29T12:36:46.716Z</time>
      </trkpt>
      <trkpt lat="45.7851" lon="6.71259">
        <ele>1351</ele>
        <time>2026-07-29T12:36:47.716Z</time>
      </trkpt>
      <trkpt lat="45.78512" lon="6.71259">
        <ele>1350</ele>
        <time>2026-07-29T12:36:48.716Z</time>
      </trkpt>
      <trkpt lat="45.78515" lon="6.71259">
        <ele>1351</ele>
        <time>2026-07-29T12:36:49.716Z</time>
      </trkpt>
      <trkpt lat="45.78518" lon="6.71259">
        <ele>1351</ele>
        <time>2026-07-29T12:36:50.716Z</time>
      </trkpt>
      <trkpt lat="45.78522" lon="6.71259">
        <ele>1351</ele>
        <time>2026-07-29T12:36:51.716Z</time>
      </trkpt>
      <trkpt lat="45.78524" lon="6.7126">
        <ele>1351</ele>
        <time>2026-07-29T12:36:52.716Z</time>
      </trkpt>
      <trkpt lat="45.78527" lon="6.7126">
        <ele>1351</ele>
        <time>2026-07-29T12:36:53.716Z</time>
      </trkpt>
      <trkpt lat="45.78529" lon="6.71261">
        <ele>1351</ele>
        <time>2026-07-29T12:36:54.717Z</time>
      </trkpt>
      <trkpt lat="45.78532" lon="6.71262">
        <ele>1351</ele>
        <time>2026-07-29T12:36:55.716Z</time>
      </trkpt>
      <trkpt lat="45.78534" lon="6.71262">
        <ele>1351</ele>
        <time>2026-07-29T12:36:56.716Z</time>
      </trkpt>
      <trkpt lat="45.78536" lon="6.71262">
        <ele>1352</ele>
        <time>2026-07-29T12:36:57.716Z</time>
      </trkpt>
      <trkpt lat="45.78538" lon="6.71261">
        <ele>1352</ele>
        <time>2026-07-29T12:36:58.716Z</time>
      </trkpt>
      <trkpt lat="45.7854" lon="6.71261">
        <ele>1352</ele>
        <time>2026-07-29T12:36:59.716Z</time>
      </trkpt>
      <trkpt lat="45.78543" lon="6.7126">
        <ele>1353</ele>
        <time>2026-07-29T12:37:00.716Z</time>
      </trkpt>
      <trkpt lat="45.78545" lon="6.7126">
        <ele>1353</ele>
        <time>2026-07-29T12:37:01.716Z</time>
      </trkpt>
      <trkpt lat="45.78548" lon="6.71261">
        <ele>1353</ele>
        <time>2026-07-29T12:37:02.716Z</time>
      </trkpt>
      <trkpt lat="45.7855" lon="6.71262">
        <ele>1353</ele>
        <time>2026-07-29T12:37:03.716Z</time>
      </trkpt>
      <trkpt lat="45.78554" lon="6.71262">
        <ele>1353</ele>
        <time>2026-07-29T12:37:04.716Z</time>
      </trkpt>
      <trkpt lat="45.78556" lon="6.71262">
        <ele>1353</ele>
        <time>2026-07-29T12:37:05.716Z</time>
      </trkpt>
      <trkpt lat="45.78559" lon="6.71263">
        <ele>1353</ele>
        <time>2026-07-29T12:37:06.716Z</time>
      </trkpt>
      <trkpt lat="45.78562" lon="6.71263">
        <ele>1353</ele>
        <time>2026-07-29T12:37:07.716Z</time>
      </trkpt>
      <trkpt lat="45.78564" lon="6.71264">
        <ele>1353</ele>
        <time>2026-07-29T12:37:08.716Z</time>
      </trkpt>
      <trkpt lat="45.78565" lon="6.71264">
        <ele>1352</ele>
        <time>2026-07-29T12:37:09.716Z</time>
      </trkpt>
      <trkpt lat="45.78568" lon="6.71264">
        <ele>1352</ele>
        <time>2026-07-29T12:37:10.716Z</time>
      </trkpt>
      <trkpt lat="45.7857" lon="6.71264">
        <ele>1351</ele>
        <time>2026-07-29T12:37:11.716Z</time>
      </trkpt>
      <trkpt lat="45.78572" lon="6.71264">
        <ele>1351</ele>
        <time>2026-07-29T12:37:12.716Z</time>
      </trkpt>
      <trkpt lat="45.78575" lon="6.71264">
        <ele>1351</ele>
        <time>2026-07-29T12:37:13.716Z</time>
      </trkpt>
      <trkpt lat="45.78577" lon="6.71265">
        <ele>1350</ele>
        <time>2026-07-29T12:37:14.716Z</time>
      </trkpt>
      <trkpt lat="45.78579" lon="6.71265">
        <ele>1350</ele>
        <time>2026-07-29T12:37:15.716Z</time>
      </trkpt>
      <trkpt lat="45.78581" lon="6.71266">
        <ele>1349</ele>
        <time>2026-07-29T12:37:16.716Z</time>
      </trkpt>
      <trkpt lat="45.78584" lon="6.71267">
        <ele>1349</ele>
        <time>2026-07-29T12:37:17.716Z</time>
      </trkpt>
      <trkpt lat="45.78586" lon="6.71268">
        <ele>1348</ele>
        <time>2026-07-29T12:37:18.716Z</time>
      </trkpt>
      <trkpt lat="45.78589" lon="6.71269">
        <ele>1348</ele>
        <time>2026-07-29T12:37:19.716Z</time>
      </trkpt>
      <trkpt lat="45.78591" lon="6.7127">
        <ele>1348</ele>
        <time>2026-07-29T12:37:20.716Z</time>
      </trkpt>
      <trkpt lat="45.78593" lon="6.71272">
        <ele>1347</ele>
        <time>2026-07-29T12:37:21.716Z</time>
      </trkpt>
      <trkpt lat="45.78594" lon="6.71274">
        <ele>1347</ele>
        <time>2026-07-29T12:37:22.716Z</time>
      </trkpt>
      <trkpt lat="45.78596" lon="6.71276">
        <ele>1347</ele>
        <time>2026-07-29T12:37:23.716Z</time>
      </trkpt>
      <trkpt lat="45.78597" lon="6.71277">
        <ele>1347</ele>
        <time>2026-07-29T12:37:24.716Z</time>
      </trkpt>
      <trkpt lat="45.78599" lon="6.71278">
        <ele>1347</ele>
        <time>2026-07-29T12:37:25.716Z</time>
      </trkpt>
      <trkpt lat="45.786" lon="6.71279">
        <ele>1348</ele>
        <time>2026-07-29T12:37:26.716Z</time>
      </trkpt>
      <trkpt lat="45.78602" lon="6.7128">
        <ele>1348</ele>
        <time>2026-07-29T12:37:27.716Z</time>
      </trkpt>
      <trkpt lat="45.78604" lon="6.7128">
        <ele>1348</ele>
        <time>2026-07-29T12:37:28.716Z</time>
      </trkpt>
      <trkpt lat="45.78606" lon="6.71279">
        <ele>1348</ele>
        <time>2026-07-29T12:37:29.716Z</time>
      </trkpt>
      <trkpt lat="45.78607" lon="6.71278">
        <ele>1348</ele>
        <time>2026-07-29T12:37:30.716Z</time>
      </trkpt>
      <trkpt lat="45.78609" lon="6.71278">
        <ele>1349</ele>
        <time>2026-07-29T12:37:31.716Z</time>
      </trkpt>
      <trkpt lat="45.7861" lon="6.71277">
        <ele>1349</ele>
        <time>2026-07-29T12:37:32.717Z</time>
      </trkpt>
      <trkpt lat="45.78613" lon="6.71277">
        <ele>1349</ele>
        <time>2026-07-29T12:37:33.716Z</time>
      </trkpt>
      <trkpt lat="45.78615" lon="6.71276">
        <ele>1349</ele>
        <time>2026-07-29T12:37:34.716Z</time>
      </trkpt>
      <trkpt lat="45.78617" lon="6.71275">
        <ele>1348</ele>
        <time>2026-07-29T12:37:35.716Z</time>
      </trkpt>
      <trkpt lat="45.78619" lon="6.71275">
        <ele>1347</ele>
        <time>2026-07-29T12:37:36.716Z</time>
      </trkpt>
      <trkpt lat="45.78621" lon="6.71274">
        <ele>1347</ele>
        <time>2026-07-29T12:37:37.716Z</time>
      </trkpt>
      <trkpt lat="45.78623" lon="6.71273">
        <ele>1346</ele>
        <time>2026-07-29T12:37:38.716Z</time>
      </trkpt>
      <trkpt lat="45.78625" lon="6.71274">
        <ele>1345</ele>
        <time>2026-07-29T12:37:39.716Z</time>
      </trkpt>
      <trkpt lat="45.78627" lon="6.71274">
        <ele>1344</ele>
        <time>2026-07-29T12:37:40.716Z</time>
      </trkpt>
      <trkpt lat="45.7863" lon="6.71275">
        <ele>1343</ele>
        <time>2026-07-29T12:37:41.716Z</time>
      </trkpt>
      <trkpt lat="45.78632" lon="6.71275">
        <ele>1342</ele>
        <time>2026-07-29T12:37:42.716Z</time>
      </trkpt>
      <trkpt lat="45.78634" lon="6.71276">
        <ele>1341</ele>
        <time>2026-07-29T12:37:43.716Z</time>
      </trkpt>
      <trkpt lat="45.78637" lon="6.71276">
        <ele>1340</ele>
        <time>2026-07-29T12:37:44.716Z</time>
      </trkpt>
      <trkpt lat="45.78639" lon="6.71277">
        <ele>1339</ele>
        <time>2026-07-29T12:37:45.716Z</time>
      </trkpt>
      <trkpt lat="45.78642" lon="6.71278">
        <ele>1339</ele>
        <time>2026-07-29T12:37:46.716Z</time>
      </trkpt>
      <trkpt lat="45.78644" lon="6.71278">
        <ele>1338</ele>
        <time>2026-07-29T12:37:47.716Z</time>
      </trkpt>
      <trkpt lat="45.78647" lon="6.71279">
        <ele>1338</ele>
        <time>2026-07-29T12:37:48.716Z</time>
      </trkpt>
      <trkpt lat="45.78649" lon="6.7128">
        <ele>1337</ele>
        <time>2026-07-29T12:37:49.716Z</time>
      </trkpt>
      <trkpt lat="45.78651" lon="6.71281">
        <ele>1337</ele>
        <time>2026-07-29T12:37:50.716Z</time>
      </trkpt>
      <trkpt lat="45.78654" lon="6.71282">
        <ele>1337</ele>
        <time>2026-07-29T12:37:51.716Z</time>
      </trkpt>
      <trkpt lat="45.78656" lon="6.71283">
        <ele>1337</ele>
        <time>2026-07-29T12:37:52.716Z</time>
      </trkpt>
      <trkpt lat="45.78658" lon="6.71284">
        <ele>1336</ele>
        <time>2026-07-29T12:37:53.716Z</time>
      </trkpt>
      <trkpt lat="45.78659" lon="6.71286">
        <ele>1336</ele>
        <time>2026-07-29T12:37:54.716Z</time>
      </trkpt>
      <trkpt lat="45.78661" lon="6.71286">
        <ele>1336</ele>
        <time>2026-07-29T12:37:55.716Z</time>
      </trkpt>
      <trkpt lat="45.78663" lon="6.71287">
        <ele>1335</ele>
        <time>2026-07-29T12:37:56.716Z</time>
      </trkpt>
      <trkpt lat="45.78665" lon="6.71287">
        <ele>1335</ele>
        <time>2026-07-29T12:37:57.716Z</time>
      </trkpt>
      <trkpt lat="45.78667" lon="6.71287">
        <ele>1335</ele>
        <time>2026-07-29T12:37:58.716Z</time>
      </trkpt>
      <trkpt lat="45.78669" lon="6.71288">
        <ele>1335</ele>
        <time>2026-07-29T12:37:59.716Z</time>
      </trkpt>
      <trkpt lat="45.78671" lon="6.71288">
        <ele>1335</ele>
        <time>2026-07-29T12:38:00.716Z</time>
      </trkpt>
      <trkpt lat="45.78673" lon="6.71288">
        <ele>1335</ele>
        <time>2026-07-29T12:38:01.716Z</time>
      </trkpt>
      <trkpt lat="45.78675" lon="6.71289">
        <ele>1334</ele>
        <time>2026-07-29T12:38:02.716Z</time>
      </trkpt>
      <trkpt lat="45.78677" lon="6.71291">
        <ele>1334</ele>
        <time>2026-07-29T12:38:03.716Z</time>
      </trkpt>
      <trkpt lat="45.78679" lon="6.71292">
        <ele>1334</ele>
        <time>2026-07-29T12:38:04.716Z</time>
      </trkpt>
      <trkpt lat="45.78681" lon="6.71293">
        <ele>1334</ele>
        <time>2026-07-29T12:38:05.716Z</time>
      </trkpt>
      <trkpt lat="45.78683" lon="6.71294">
        <ele>1334</ele>
        <time>2026-07-29T12:38:06.716Z</time>
      </trkpt>
      <trkpt lat="45.78685" lon="6.71296">
        <ele>1334</ele>
        <time>2026-07-29T12:38:07.716Z</time>
      </trkpt>
      <trkpt lat="45.78686" lon="6.71298">
        <ele>1333</ele>
        <time>2026-07-29T12:38:08.716Z</time>
      </trkpt>
      <trkpt lat="45.78687" lon="6.71299">
        <ele>1332</ele>
        <time>2026-07-29T12:38:09.716Z</time>
      </trkpt>
      <trkpt lat="45.78688" lon="6.71303">
        <ele>1331</ele>
        <time>2026-07-29T12:38:10.716Z</time>
      </trkpt>
      <trkpt lat="45.78689" lon="6.71304">
        <ele>1330</ele>
        <time>2026-07-29T12:38:11.716Z</time>
      </trkpt>
      <trkpt lat="45.7869" lon="6.71306">
        <ele>1329</ele>
        <time>2026-07-29T12:38:12.716Z</time>
      </trkpt>
      <trkpt lat="45.78692" lon="6.71306">
        <ele>1329</ele>
        <time>2026-07-29T12:38:13.716Z</time>
      </trkpt>
      <trkpt lat="45.78693" lon="6.71307">
        <ele>1328</ele>
        <time>2026-07-29T12:38:14.716Z</time>
      </trkpt>
      <trkpt lat="45.78695" lon="6.71309">
        <ele>1327</ele>
        <time>2026-07-29T12:38:15.716Z</time>
      </trkpt>
      <trkpt lat="45.78697" lon="6.7131">
        <ele>1327</ele>
        <time>2026-07-29T12:38:16.716Z</time>
      </trkpt>
      <trkpt lat="45.78699" lon="6.7131">
        <ele>1327</ele>
        <time>2026-07-29T12:38:17.716Z</time>
      </trkpt>
      <trkpt lat="45.78701" lon="6.7131">
        <ele>1327</ele>
        <time>2026-07-29T12:38:18.716Z</time>
      </trkpt>
      <trkpt lat="45.78704" lon="6.7131">
        <ele>1327</ele>
        <time>2026-07-29T12:38:19.716Z</time>
      </trkpt>
      <trkpt lat="45.78706" lon="6.71311">
        <ele>1328</ele>
        <time>2026-07-29T12:38:20.716Z</time>
      </trkpt>
      <trkpt lat="45.78708" lon="6.71311">
        <ele>1328</ele>
        <time>2026-07-29T12:38:21.716Z</time>
      </trkpt>
      <trkpt lat="45.7871" lon="6.71312">
        <ele>1328</ele>
        <time>2026-07-29T12:38:22.716Z</time>
      </trkpt>
      <trkpt lat="45.78713" lon="6.71312">
        <ele>1327</ele>
        <time>2026-07-29T12:38:23.716Z</time>
      </trkpt>
      <trkpt lat="45.78715" lon="6.71312">
        <ele>1327</ele>
        <time>2026-07-29T12:38:24.716Z</time>
      </trkpt>
      <trkpt lat="45.78718" lon="6.71313">
        <ele>1327</ele>
        <time>2026-07-29T12:38:25.716Z</time>
      </trkpt>
      <trkpt lat="45.78721" lon="6.71313">
        <ele>1327</ele>
        <time>2026-07-29T12:38:26.716Z</time>
      </trkpt>
      <trkpt lat="45.78723" lon="6.71314">
        <ele>1326</ele>
        <time>2026-07-29T12:38:27.716Z</time>
      </trkpt>
      <trkpt lat="45.78725" lon="6.71315">
        <ele>1326</ele>
        <time>2026-07-29T12:38:28.716Z</time>
      </trkpt>
      <trkpt lat="45.78727" lon="6.71316">
        <ele>1325</ele>
        <time>2026-07-29T12:38:29.716Z</time>
      </trkpt>
      <trkpt lat="45.78729" lon="6.71317">
        <ele>1324</ele>
        <time>2026-07-29T12:38:30.716Z</time>
      </trkpt>
      <trkpt lat="45.78731" lon="6.71318">
        <ele>1323</ele>
        <time>2026-07-29T12:38:31.716Z</time>
      </trkpt>
      <trkpt lat="45.78733" lon="6.71319">
        <ele>1323</ele>
        <time>2026-07-29T12:38:32.716Z</time>
      </trkpt>
      <trkpt lat="45.78735" lon="6.7132">
        <ele>1322</ele>
        <time>2026-07-29T12:38:33.716Z</time>
      </trkpt>
      <trkpt lat="45.78737" lon="6.71322">
        <ele>1321</ele>
        <time>2026-07-29T12:38:34.716Z</time>
      </trkpt>
      <trkpt lat="45.78739" lon="6.71323">
        <ele>1320</ele>
        <time>2026-07-29T12:38:35.716Z</time>
      </trkpt>
      <trkpt lat="45.78741" lon="6.71324">
        <ele>1319</ele>
        <time>2026-07-29T12:38:36.716Z</time>
      </trkpt>
      <trkpt lat="45.78743" lon="6.71325">
        <ele>1318</ele>
        <time>2026-07-29T12:38:37.716Z</time>
      </trkpt>
      <trkpt lat="45.78745" lon="6.71326">
        <ele>1317</ele>
        <time>2026-07-29T12:38:38.716Z</time>
      </trkpt>
      <trkpt lat="45.78747" lon="6.71327">
        <ele>1317</ele>
        <time>2026-07-29T12:38:39.716Z</time>
      </trkpt>
      <trkpt lat="45.78749" lon="6.71329">
        <ele>1316</ele>
        <time>2026-07-29T12:38:40.716Z</time>
      </trkpt>
      <trkpt lat="45.78751" lon="6.71331">
        <ele>1316</ele>
        <time>2026-07-29T12:38:41.716Z</time>
      </trkpt>
      <trkpt lat="45.78753" lon="6.71332">
        <ele>1315</ele>
        <time>2026-07-29T12:38:42.716Z</time>
      </trkpt>
      <trkpt lat="45.78755" lon="6.71334">
        <ele>1315</ele>
        <time>2026-07-29T12:38:43.716Z</time>
      </trkpt>
      <trkpt lat="45.78757" lon="6.71336">
        <ele>1314</ele>
        <time>2026-07-29T12:38:44.716Z</time>
      </trkpt>
      <trkpt lat="45.78759" lon="6.71338">
        <ele>1314</ele>
        <time>2026-07-29T12:38:45.716Z</time>
      </trkpt>
      <trkpt lat="45.78761" lon="6.7134">
        <ele>1314</ele>
        <time>2026-07-29T12:38:46.716Z</time>
      </trkpt>
      <trkpt lat="45.78762" lon="6.71341">
        <ele>1313</ele>
        <time>2026-07-29T12:38:47.716Z</time>
      </trkpt>
      <trkpt lat="45.78764" lon="6.71343">
        <ele>1313</ele>
        <time>2026-07-29T12:38:48.716Z</time>
      </trkpt>
      <trkpt lat="45.78766" lon="6.71344">
        <ele>1313</ele>
        <time>2026-07-29T12:38:49.716Z</time>
      </trkpt>
      <trkpt lat="45.78768" lon="6.71345">
        <ele>1314</ele>
        <time>2026-07-29T12:38:50.716Z</time>
      </trkpt>
      <trkpt lat="45.7877" lon="6.71346">
        <ele>1314</ele>
        <time>2026-07-29T12:38:51.716Z</time>
      </trkpt>
      <trkpt lat="45.78772" lon="6.71347">
        <ele>1314</ele>
        <time>2026-07-29T12:38:52.716Z</time>
      </trkpt>
      <trkpt lat="45.78774" lon="6.71348">
        <ele>1315</ele>
        <time>2026-07-29T12:38:53.716Z</time>
      </trkpt>
      <trkpt lat="45.78776" lon="6.71349">
        <ele>1315</ele>
        <time>2026-07-29T12:38:54.716Z</time>
      </trkpt>
      <trkpt lat="45.78778" lon="6.71349">
        <ele>1315</ele>
        <time>2026-07-29T12:38:55.716Z</time>
      </trkpt>
      <trkpt lat="45.78781" lon="6.71349">
        <ele>1314</ele>
        <time>2026-07-29T12:38:56.716Z</time>
      </trkpt>
      <trkpt lat="45.78783" lon="6.71349">
        <ele>1315</ele>
        <time>2026-07-29T12:38:57.716Z</time>
      </trkpt>
      <trkpt lat="45.78785" lon="6.7135">
        <ele>1315</ele>
        <time>2026-07-29T12:38:58.716Z</time>
      </trkpt>
      <trkpt lat="45.78788" lon="6.71351">
        <ele>1314</ele>
        <time>2026-07-29T12:38:59.716Z</time>
      </trkpt>
      <trkpt lat="45.7879" lon="6.71352">
        <ele>1315</ele>
        <time>2026-07-29T12:39:00.716Z</time>
      </trkpt>
      <trkpt lat="45.78792" lon="6.71354">
        <ele>1314</ele>
        <time>2026-07-29T12:39:01.716Z</time>
      </trkpt>
      <trkpt lat="45.78794" lon="6.71355">
        <ele>1313</ele>
        <time>2026-07-29T12:39:02.716Z</time>
      </trkpt>
      <trkpt lat="45.78796" lon="6.71357">
        <ele>1313</ele>
        <time>2026-07-29T12:39:03.716Z</time>
      </trkpt>
      <trkpt lat="45.78799" lon="6.71358">
        <ele>1312</ele>
        <time>2026-07-29T12:39:04.716Z</time>
      </trkpt>
      <trkpt lat="45.78801" lon="6.71359">
        <ele>1311</ele>
        <time>2026-07-29T12:39:05.716Z</time>
      </trkpt>
      <trkpt lat="45.78803" lon="6.71361">
        <ele>1310</ele>
        <time>2026-07-29T12:39:06.716Z</time>
      </trkpt>
      <trkpt lat="45.78806" lon="6.71363">
        <ele>1310</ele>
        <time>2026-07-29T12:39:07.716Z</time>
      </trkpt>
      <trkpt lat="45.78807" lon="6.71366">
        <ele>1309</ele>
        <time>2026-07-29T12:39:08.716Z</time>
      </trkpt>
      <trkpt lat="45.78809" lon="6.71368">
        <ele>1308</ele>
        <time>2026-07-29T12:39:09.716Z</time>
      </trkpt>
      <trkpt lat="45.78811" lon="6.7137">
        <ele>1308</ele>
        <time>2026-07-29T12:39:10.716Z</time>
      </trkpt>
      <trkpt lat="45.78813" lon="6.71372">
        <ele>1307</ele>
        <time>2026-07-29T12:39:11.716Z</time>
      </trkpt>
      <trkpt lat="45.78815" lon="6.71374">
        <ele>1306</ele>
        <time>2026-07-29T12:39:12.716Z</time>
      </trkpt>
      <trkpt lat="45.78817" lon="6.71377">
        <ele>1305</ele>
        <time>2026-07-29T12:39:13.716Z</time>
      </trkpt>
      <trkpt lat="45.78819" lon="6.71378">
        <ele>1305</ele>
        <time>2026-07-29T12:39:14.716Z</time>
      </trkpt>
      <trkpt lat="45.78821" lon="6.7138">
        <ele>1305</ele>
        <time>2026-07-29T12:39:15.716Z</time>
      </trkpt>
      <trkpt lat="45.78822" lon="6.71382">
        <ele>1305</ele>
        <time>2026-07-29T12:39:16.716Z</time>
      </trkpt>
      <trkpt lat="45.78823" lon="6.71384">
        <ele>1304</ele>
        <time>2026-07-29T12:39:17.716Z</time>
      </trkpt>
      <trkpt lat="45.78825" lon="6.71385">
        <ele>1304</ele>
        <time>2026-07-29T12:39:18.716Z</time>
      </trkpt>
      <trkpt lat="45.78827" lon="6.71386">
        <ele>1304</ele>
        <time>2026-07-29T12:39:19.716Z</time>
      </trkpt>
      <trkpt lat="45.78828" lon="6.71387">
        <ele>1303</ele>
        <time>2026-07-29T12:39:20.716Z</time>
      </trkpt>
      <trkpt lat="45.7883" lon="6.71388">
        <ele>1303</ele>
        <time>2026-07-29T12:39:21.716Z</time>
      </trkpt>
      <trkpt lat="45.78832" lon="6.71389">
        <ele>1302</ele>
        <time>2026-07-29T12:39:22.716Z</time>
      </trkpt>
      <trkpt lat="45.78834" lon="6.7139">
        <ele>1302</ele>
        <time>2026-07-29T12:39:23.716Z</time>
      </trkpt>
      <trkpt lat="45.78836" lon="6.71391">
        <ele>1302</ele>
        <time>2026-07-29T12:39:24.716Z</time>
      </trkpt>
      <trkpt lat="45.78838" lon="6.71392">
        <ele>1301</ele>
        <time>2026-07-29T12:39:25.716Z</time>
      </trkpt>
      <trkpt lat="45.78839" lon="6.71394">
        <ele>1301</ele>
        <time>2026-07-29T12:39:26.716Z</time>
      </trkpt>
      <trkpt lat="45.78841" lon="6.71395">
        <ele>1301</ele>
        <time>2026-07-29T12:39:27.716Z</time>
      </trkpt>
      <trkpt lat="45.78843" lon="6.71397">
        <ele>1301</ele>
        <time>2026-07-29T12:39:28.716Z</time>
      </trkpt>
      <trkpt lat="45.78844" lon="6.71398">
        <ele>1301</ele>
        <time>2026-07-29T12:39:29.716Z</time>
      </trkpt>
      <trkpt lat="45.78846" lon="6.71398">
        <ele>1301</ele>
        <time>2026-07-29T12:39:30.716Z</time>
      </trkpt>
      <trkpt lat="45.78848" lon="6.71399">
        <ele>1301</ele>
        <time>2026-07-29T12:39:31.716Z</time>
      </trkpt>
      <trkpt lat="45.78849" lon="6.714">
        <ele>1301</ele>
        <time>2026-07-29T12:39:32.716Z</time>
      </trkpt>
      <trkpt lat="45.7885" lon="6.71401">
        <ele>1301</ele>
        <time>2026-07-29T12:39:33.716Z</time>
      </trkpt>
      <trkpt lat="45.78851" lon="6.71401">
        <ele>1300</ele>
        <time>2026-07-29T12:39:34.716Z</time>
      </trkpt>
      <trkpt lat="45.78852" lon="6.71402">
        <ele>1300</ele>
        <time>2026-07-29T12:39:35.716Z</time>
      </trkpt>
      <trkpt lat="45.78854" lon="6.71402">
        <ele>1299</ele>
        <time>2026-07-29T12:39:36.716Z</time>
      </trkpt>
      <trkpt lat="45.78856" lon="6.71402">
        <ele>1299</ele>
        <time>2026-07-29T12:39:37.716Z</time>
      </trkpt>
      <trkpt lat="45.78857" lon="6.71403">
        <ele>1299</ele>
        <time>2026-07-29T12:39:38.716Z</time>
      </trkpt>
      <trkpt lat="45.78859" lon="6.71404">
        <ele>1298</ele>
        <time>2026-07-29T12:39:39.716Z</time>
      </trkpt>
      <trkpt lat="45.78861" lon="6.71405">
        <ele>1298</ele>
        <time>2026-07-29T12:39:40.716Z</time>
      </trkpt>
      <trkpt lat="45.78863" lon="6.71406">
        <ele>1297</ele>
        <time>2026-07-29T12:39:41.716Z</time>
      </trkpt>
      <trkpt lat="45.78865" lon="6.71407">
        <ele>1297</ele>
        <time>2026-07-29T12:39:42.716Z</time>
      </trkpt>
      <trkpt lat="45.78867" lon="6.71408">
        <ele>1297</ele>
        <time>2026-07-29T12:39:43.716Z</time>
      </trkpt>
      <trkpt lat="45.78869" lon="6.71409">
        <ele>1297</ele>
        <time>2026-07-29T12:39:44.716Z</time>
      </trkpt>
      <trkpt lat="45.78872" lon="6.7141">
        <ele>1297</ele>
        <time>2026-07-29T12:39:45.716Z</time>
      </trkpt>
      <trkpt lat="45.78874" lon="6.71411">
        <ele>1298</ele>
        <time>2026-07-29T12:39:46.716Z</time>
      </trkpt>
      <trkpt lat="45.78877" lon="6.71412">
        <ele>1298</ele>
        <time>2026-07-29T12:39:47.716Z</time>
      </trkpt>
      <trkpt lat="45.78879" lon="6.71412">
        <ele>1297</ele>
        <time>2026-07-29T12:39:48.716Z</time>
      </trkpt>
      <trkpt lat="45.78881" lon="6.71413">
        <ele>1297</ele>
        <time>2026-07-29T12:39:49.716Z</time>
      </trkpt>
      <trkpt lat="45.78883" lon="6.71413">
        <ele>1297</ele>
        <time>2026-07-29T12:39:50.716Z</time>
      </trkpt>
      <trkpt lat="45.78886" lon="6.71413">
        <ele>1297</ele>
        <time>2026-07-29T12:39:51.716Z</time>
      </trkpt>
      <trkpt lat="45.78888" lon="6.71414">
        <ele>1297</ele>
        <time>2026-07-29T12:39:52.716Z</time>
      </trkpt>
      <trkpt lat="45.7889" lon="6.71415">
        <ele>1297</ele>
        <time>2026-07-29T12:39:53.716Z</time>
      </trkpt>
      <trkpt lat="45.78892" lon="6.71416">
        <ele>1297</ele>
        <time>2026-07-29T12:39:54.716Z</time>
      </trkpt>
      <trkpt lat="45.78894" lon="6.71418">
        <ele>1296</ele>
        <time>2026-07-29T12:39:55.716Z</time>
      </trkpt>
      <trkpt lat="45.78896" lon="6.71419">
        <ele>1296</ele>
        <time>2026-07-29T12:39:56.716Z</time>
      </trkpt>
      <trkpt lat="45.78899" lon="6.71419">
        <ele>1296</ele>
        <time>2026-07-29T12:39:57.716Z</time>
      </trkpt>
      <trkpt lat="45.789" lon="6.7142">
        <ele>1296</ele>
        <time>2026-07-29T12:39:58.716Z</time>
      </trkpt>
      <trkpt lat="45.78902" lon="6.71421">
        <ele>1296</ele>
        <time>2026-07-29T12:39:59.716Z</time>
      </trkpt>
      <trkpt lat="45.78903" lon="6.71423">
        <ele>1295</ele>
        <time>2026-07-29T12:40:00.716Z</time>
      </trkpt>
      <trkpt lat="45.78905" lon="6.71423">
        <ele>1295</ele>
        <time>2026-07-29T12:40:01.716Z</time>
      </trkpt>
      <trkpt lat="45.78907" lon="6.71424">
        <ele>1294</ele>
        <time>2026-07-29T12:40:02.716Z</time>
      </trkpt>
      <trkpt lat="45.78909" lon="6.71424">
        <ele>1294</ele>
        <time>2026-07-29T12:40:03.716Z</time>
      </trkpt>
      <trkpt lat="45.78911" lon="6.71425">
        <ele>1293</ele>
        <time>2026-07-29T12:40:04.716Z</time>
      </trkpt>
      <trkpt lat="45.78913" lon="6.71426">
        <ele>1293</ele>
        <time>2026-07-29T12:40:05.716Z</time>
      </trkpt>
      <trkpt lat="45.78916" lon="6.71427">
        <ele>1293</ele>
        <time>2026-07-29T12:40:06.716Z</time>
      </trkpt>
      <trkpt lat="45.78919" lon="6.71429">
        <ele>1293</ele>
        <time>2026-07-29T12:40:07.716Z</time>
      </trkpt>
      <trkpt lat="45.78921" lon="6.7143">
        <ele>1293</ele>
        <time>2026-07-29T12:40:08.716Z</time>
      </trkpt>
      <trkpt lat="45.78923" lon="6.71432">
        <ele>1292</ele>
        <time>2026-07-29T12:40:09.716Z</time>
      </trkpt>
      <trkpt lat="45.78925" lon="6.71433">
        <ele>1292</ele>
        <time>2026-07-29T12:40:10.716Z</time>
      </trkpt>
      <trkpt lat="45.78927" lon="6.71435">
        <ele>1291</ele>
        <time>2026-07-29T12:40:11.716Z</time>
      </trkpt>
      <trkpt lat="45.78929" lon="6.71436">
        <ele>1291</ele>
        <time>2026-07-29T12:40:12.716Z</time>
      </trkpt>
      <trkpt lat="45.78931" lon="6.71438">
        <ele>1291</ele>
        <time>2026-07-29T12:40:13.716Z</time>
      </trkpt>
      <trkpt lat="45.78933" lon="6.71439">
        <ele>1290</ele>
        <time>2026-07-29T12:40:14.716Z</time>
      </trkpt>
      <trkpt lat="45.78935" lon="6.71441">
        <ele>1290</ele>
        <time>2026-07-29T12:40:15.716Z</time>
      </trkpt>
      <trkpt lat="45.78937" lon="6.71442">
        <ele>1290</ele>
        <time>2026-07-29T12:40:16.716Z</time>
      </trkpt>
      <trkpt lat="45.78939" lon="6.71444">
        <ele>1289</ele>
        <time>2026-07-29T12:40:17.716Z</time>
      </trkpt>
      <trkpt lat="45.78941" lon="6.71445">
        <ele>1289</ele>
        <time>2026-07-29T12:40:18.716Z</time>
      </trkpt>
      <trkpt lat="45.78943" lon="6.71447">
        <ele>1289</ele>
        <time>2026-07-29T12:40:19.716Z</time>
      </trkpt>
      <trkpt lat="45.78945" lon="6.71448">
        <ele>1289</ele>
        <time>2026-07-29T12:40:20.716Z</time>
      </trkpt>
      <trkpt lat="45.78947" lon="6.71449">
        <ele>1289</ele>
        <time>2026-07-29T12:40:21.716Z</time>
      </trkpt>
      <trkpt lat="45.78948" lon="6.7145">
        <ele>1289</ele>
        <time>2026-07-29T12:40:22.716Z</time>
      </trkpt>
      <trkpt lat="45.7895" lon="6.71452">
        <ele>1289</ele>
        <time>2026-07-29T12:40:23.716Z</time>
      </trkpt>
      <trkpt lat="45.78951" lon="6.71453">
        <ele>1289</ele>
        <time>2026-07-29T12:40:24.716Z</time>
      </trkpt>
      <trkpt lat="45.78953" lon="6.71454">
        <ele>1289</ele>
        <time>2026-07-29T12:40:25.716Z</time>
      </trkpt>
      <trkpt lat="45.78955" lon="6.71455">
        <ele>1289</ele>
        <time>2026-07-29T12:40:26.716Z</time>
      </trkpt>
      <trkpt lat="45.78956" lon="6.71456">
        <ele>1289</ele>
        <time>2026-07-29T12:40:27.716Z</time>
      </trkpt>
      <trkpt lat="45.78958" lon="6.71457">
        <ele>1290</ele>
        <time>2026-07-29T12:40:28.716Z</time>
      </trkpt>
      <trkpt lat="45.78959" lon="6.71457">
        <ele>1290</ele>
        <time>2026-07-29T12:40:29.716Z</time>
      </trkpt>
      <trkpt lat="45.7896" lon="6.71458">
        <ele>1290</ele>
        <time>2026-07-29T12:40:30.716Z</time>
      </trkpt>
      <trkpt lat="45.78961" lon="6.71458">
        <ele>1290</ele>
        <time>2026-07-29T12:40:31.716Z</time>
      </trkpt>
      <trkpt lat="45.78962" lon="6.71458">
        <ele>1290</ele>
        <time>2026-07-29T12:40:32.716Z</time>
      </trkpt>
      <trkpt lat="45.78964" lon="6.71458">
        <ele>1290</ele>
        <time>2026-07-29T12:40:33.716Z</time>
      </trkpt>
      <trkpt lat="45.78966" lon="6.71457">
        <ele>1290</ele>
        <time>2026-07-29T12:40:34.716Z</time>
      </trkpt>
      <trkpt lat="45.78968" lon="6.71456">
        <ele>1290</ele>
        <time>2026-07-29T12:40:35.716Z</time>
      </trkpt>
      <trkpt lat="45.7897" lon="6.71456">
        <ele>1291</ele>
        <time>2026-07-29T12:40:36.716Z</time>
      </trkpt>
      <trkpt lat="45.78972" lon="6.71455">
        <ele>1291</ele>
        <time>2026-07-29T12:40:37.716Z</time>
      </trkpt>
      <trkpt lat="45.78973" lon="6.71455">
        <ele>1291</ele>
        <time>2026-07-29T12:40:38.716Z</time>
      </trkpt>
      <trkpt lat="45.78975" lon="6.71455">
        <ele>1291</ele>
        <time>2026-07-29T12:40:39.716Z</time>
      </trkpt>
      <trkpt lat="45.78976" lon="6.71455">
        <ele>1290</ele>
        <time>2026-07-29T12:40:40.716Z</time>
      </trkpt>
      <trkpt lat="45.78978" lon="6.71457">
        <ele>1289</ele>
        <time>2026-07-29T12:40:41.716Z</time>
      </trkpt>
      <trkpt lat="45.7898" lon="6.71459">
        <ele>1288</ele>
        <time>2026-07-29T12:40:42.716Z</time>
      </trkpt>
      <trkpt lat="45.78981" lon="6.7146">
        <ele>1287</ele>
        <time>2026-07-29T12:40:43.716Z</time>
      </trkpt>
      <trkpt lat="45.78982" lon="6.71461">
        <ele>1286</ele>
        <time>2026-07-29T12:40:44.716Z</time>
      </trkpt>
      <trkpt lat="45.78984" lon="6.71463">
        <ele>1286</ele>
        <time>2026-07-29T12:40:45.716Z</time>
      </trkpt>
      <trkpt lat="45.78985" lon="6.71464">
        <ele>1285</ele>
        <time>2026-07-29T12:40:46.716Z</time>
      </trkpt>
      <trkpt lat="45.78986" lon="6.71465">
        <ele>1285</ele>
        <time>2026-07-29T12:40:47.716Z</time>
      </trkpt>
      <trkpt lat="45.78988" lon="6.71466">
        <ele>1284</ele>
        <time>2026-07-29T12:40:48.716Z</time>
      </trkpt>
      <trkpt lat="45.7899" lon="6.71468">
        <ele>1284</ele>
        <time>2026-07-29T12:40:49.716Z</time>
      </trkpt>
      <trkpt lat="45.78991" lon="6.71469">
        <ele>1284</ele>
        <time>2026-07-29T12:40:50.716Z</time>
      </trkpt>
      <trkpt lat="45.78992" lon="6.7147">
        <ele>1284</ele>
        <time>2026-07-29T12:40:51.716Z</time>
      </trkpt>
      <trkpt lat="45.78993" lon="6.71471">
        <ele>1283</ele>
        <time>2026-07-29T12:40:52.716Z</time>
      </trkpt>
      <trkpt lat="45.78995" lon="6.71473">
        <ele>1283</ele>
        <time>2026-07-29T12:40:53.716Z</time>
      </trkpt>
      <trkpt lat="45.78996" lon="6.71474">
        <ele>1283</ele>
        <time>2026-07-29T12:40:54.716Z</time>
      </trkpt>
      <trkpt lat="45.78997" lon="6.71475">
        <ele>1283</ele>
        <time>2026-07-29T12:40:55.716Z</time>
      </trkpt>
      <trkpt lat="45.78999" lon="6.71476">
        <ele>1283</ele>
        <time>2026-07-29T12:40:56.716Z</time>
      </trkpt>
      <trkpt lat="45.79" lon="6.71478">
        <ele>1283</ele>
        <time>2026-07-29T12:40:57.716Z</time>
      </trkpt>
      <trkpt lat="45.79001" lon="6.71479">
        <ele>1283</ele>
        <time>2026-07-29T12:40:58.716Z</time>
      </trkpt>
      <trkpt lat="45.79002" lon="6.7148">
        <ele>1284</ele>
        <time>2026-07-29T12:40:59.716Z</time>
      </trkpt>
      <trkpt lat="45.79004" lon="6.71481">
        <ele>1285</ele>
        <time>2026-07-29T12:41:00.716Z</time>
      </trkpt>
      <trkpt lat="45.79005" lon="6.71482">
        <ele>1285</ele>
        <time>2026-07-29T12:41:01.716Z</time>
      </trkpt>
      <trkpt lat="45.79006" lon="6.71483">
        <ele>1285</ele>
        <time>2026-07-29T12:41:02.716Z</time>
      </trkpt>
      <trkpt lat="45.79008" lon="6.71484">
        <ele>1284</ele>
        <time>2026-07-29T12:41:03.716Z</time>
      </trkpt>
      <trkpt lat="45.7901" lon="6.71485">
        <ele>1284</ele>
        <time>2026-07-29T12:41:04.716Z</time>
      </trkpt>
      <trkpt lat="45.79012" lon="6.71485">
        <ele>1283</ele>
        <time>2026-07-29T12:41:05.716Z</time>
      </trkpt>
      <trkpt lat="45.79014" lon="6.71485">
        <ele>1283</ele>
        <time>2026-07-29T12:41:06.716Z</time>
      </trkpt>
      <trkpt lat="45.79015" lon="6.71485">
        <ele>1283</ele>
        <time>2026-07-29T12:41:07.716Z</time>
      </trkpt>
      <trkpt lat="45.79017" lon="6.71485">
        <ele>1283</ele>
        <time>2026-07-29T12:41:08.716Z</time>
      </trkpt>
      <trkpt lat="45.79019" lon="6.71486">
        <ele>1284</ele>
        <time>2026-07-29T12:41:09.716Z</time>
      </trkpt>
      <trkpt lat="45.79021" lon="6.71486">
        <ele>1284</ele>
        <time>2026-07-29T12:41:10.716Z</time>
      </trkpt>
      <trkpt lat="45.79024" lon="6.71486">
        <ele>1285</ele>
        <time>2026-07-29T12:41:11.716Z</time>
      </trkpt>
      <trkpt lat="45.79026" lon="6.71487">
        <ele>1285</ele>
        <time>2026-07-29T12:41:12.716Z</time>
      </trkpt>
      <trkpt lat="45.79028" lon="6.71488">
        <ele>1285</ele>
        <time>2026-07-29T12:41:13.716Z</time>
      </trkpt>
      <trkpt lat="45.7903" lon="6.71489">
        <ele>1285</ele>
        <time>2026-07-29T12:41:14.716Z</time>
      </trkpt>
      <trkpt lat="45.79033" lon="6.7149">
        <ele>1285</ele>
        <time>2026-07-29T12:41:15.716Z</time>
      </trkpt>
      <trkpt lat="45.79035" lon="6.71491">
        <ele>1284</ele>
        <time>2026-07-29T12:41:16.716Z</time>
      </trkpt>
      <trkpt lat="45.79037" lon="6.71492">
        <ele>1284</ele>
        <time>2026-07-29T12:41:17.716Z</time>
      </trkpt>
      <trkpt lat="45.7904" lon="6.71493">
        <ele>1283</ele>
        <time>2026-07-29T12:41:18.716Z</time>
      </trkpt>
      <trkpt lat="45.79042" lon="6.71495">
        <ele>1282</ele>
        <time>2026-07-29T12:41:19.716Z</time>
      </trkpt>
      <trkpt lat="45.79045" lon="6.71497">
        <ele>1281</ele>
        <time>2026-07-29T12:41:20.716Z</time>
      </trkpt>
      <trkpt lat="45.79047" lon="6.71499">
        <ele>1279</ele>
        <time>2026-07-29T12:41:21.716Z</time>
      </trkpt>
      <trkpt lat="45.79048" lon="6.71503">
        <ele>1278</ele>
        <time>2026-07-29T12:41:22.716Z</time>
      </trkpt>
      <trkpt lat="45.7905" lon="6.71507">
        <ele>1276</ele>
        <time>2026-07-29T12:41:23.716Z</time>
      </trkpt>
      <trkpt lat="45.79051" lon="6.71509">
        <ele>1275</ele>
        <time>2026-07-29T12:41:24.716Z</time>
      </trkpt>
      <trkpt lat="45.79052" lon="6.71512">
        <ele>1273</ele>
        <time>2026-07-29T12:41:25.716Z</time>
      </trkpt>
      <trkpt lat="45.79053" lon="6.71512">
        <ele>1272</ele>
        <time>2026-07-29T12:41:26.716Z</time>
      </trkpt>
      <trkpt lat="45.79055" lon="6.71513">
        <ele>1272</ele>
        <time>2026-07-29T12:41:27.716Z</time>
      </trkpt>
      <trkpt lat="45.79057" lon="6.71514">
        <ele>1271</ele>
        <time>2026-07-29T12:41:28.716Z</time>
      </trkpt>
      <trkpt lat="45.79059" lon="6.71514">
        <ele>1271</ele>
        <time>2026-07-29T12:41:29.716Z</time>
      </trkpt>
      <trkpt lat="45.7906" lon="6.71516">
        <ele>1270</ele>
        <time>2026-07-29T12:41:30.716Z</time>
      </trkpt>
      <trkpt lat="45.79062" lon="6.71517">
        <ele>1269</ele>
        <time>2026-07-29T12:41:31.716Z</time>
      </trkpt>
      <trkpt lat="45.79063" lon="6.71518">
        <ele>1269</ele>
        <time>2026-07-29T12:41:32.716Z</time>
      </trkpt>
      <trkpt lat="45.79065" lon="6.7152">
        <ele>1268</ele>
        <time>2026-07-29T12:41:33.716Z</time>
      </trkpt>
      <trkpt lat="45.79067" lon="6.71521">
        <ele>1267</ele>
        <time>2026-07-29T12:41:34.716Z</time>
      </trkpt>
      <trkpt lat="45.79069" lon="6.71522">
        <ele>1266</ele>
        <time>2026-07-29T12:41:35.716Z</time>
      </trkpt>
      <trkpt lat="45.79071" lon="6.71523">
        <ele>1265</ele>
        <time>2026-07-29T12:41:36.716Z</time>
      </trkpt>
      <trkpt lat="45.79073" lon="6.71524">
        <ele>1264</ele>
        <time>2026-07-29T12:41:37.716Z</time>
      </trkpt>
      <trkpt lat="45.79075" lon="6.71525">
        <ele>1263</ele>
        <time>2026-07-29T12:41:38.716Z</time>
      </trkpt>
      <trkpt lat="45.79077" lon="6.71527">
        <ele>1262</ele>
        <time>2026-07-29T12:41:39.717Z</time>
      </trkpt>
      <trkpt lat="45.79078" lon="6.71528">
        <ele>1261</ele>
        <time>2026-07-29T12:41:40.716Z</time>
      </trkpt>
      <trkpt lat="45.7908" lon="6.7153">
        <ele>1261</ele>
        <time>2026-07-29T12:41:41.716Z</time>
      </trkpt>
      <trkpt lat="45.79082" lon="6.71531">
        <ele>1260</ele>
        <time>2026-07-29T12:41:42.716Z</time>
      </trkpt>
      <trkpt lat="45.79083" lon="6.71532">
        <ele>1260</ele>
        <time>2026-07-29T12:41:43.716Z</time>
      </trkpt>
      <trkpt lat="45.79085" lon="6.71534">
        <ele>1259</ele>
        <time>2026-07-29T12:41:44.716Z</time>
      </trkpt>
      <trkpt lat="45.79086" lon="6.71535">
        <ele>1259</ele>
        <time>2026-07-29T12:41:45.716Z</time>
      </trkpt>
      <trkpt lat="45.79087" lon="6.71537">
        <ele>1258</ele>
        <time>2026-07-29T12:41:46.716Z</time>
      </trkpt>
      <trkpt lat="45.79089" lon="6.71538">
        <ele>1257</ele>
        <time>2026-07-29T12:41:47.716Z</time>
      </trkpt>
      <trkpt lat="45.79091" lon="6.71539">
        <ele>1257</ele>
        <time>2026-07-29T12:41:48.716Z</time>
      </trkpt>
      <trkpt lat="45.79092" lon="6.71541">
        <ele>1256</ele>
        <time>2026-07-29T12:41:49.716Z</time>
      </trkpt>
      <trkpt lat="45.79094" lon="6.71542">
        <ele>1256</ele>
        <time>2026-07-29T12:41:50.716Z</time>
      </trkpt>
      <trkpt lat="45.79095" lon="6.71542">
        <ele>1255</ele>
        <time>2026-07-29T12:41:51.716Z</time>
      </trkpt>
      <trkpt lat="45.79097" lon="6.71543">
        <ele>1255</ele>
        <time>2026-07-29T12:41:52.716Z</time>
      </trkpt>
      <trkpt lat="45.79099" lon="6.71544">
        <ele>1254</ele>
        <time>2026-07-29T12:41:53.716Z</time>
      </trkpt>
      <trkpt lat="45.791" lon="6.71545">
        <ele>1254</ele>
        <time>2026-07-29T12:41:54.716Z</time>
      </trkpt>
      <trkpt lat="45.79102" lon="6.71546">
        <ele>1253</ele>
        <time>2026-07-29T12:41:55.716Z</time>
      </trkpt>
      <trkpt lat="45.79104" lon="6.71547">
        <ele>1252</ele>
        <time>2026-07-29T12:41:56.716Z</time>
      </trkpt>
      <trkpt lat="45.79105" lon="6.71548">
        <ele>1251</ele>
        <time>2026-07-29T12:41:57.716Z</time>
      </trkpt>
      <trkpt lat="45.79107" lon="6.71549">
        <ele>1250</ele>
        <time>2026-07-29T12:41:58.716Z</time>
      </trkpt>
      <trkpt lat="45.79109" lon="6.7155">
        <ele>1250</ele>
        <time>2026-07-29T12:41:59.716Z</time>
      </trkpt>
      <trkpt lat="45.7911" lon="6.7155">
        <ele>1250</ele>
        <time>2026-07-29T12:42:00.716Z</time>
      </trkpt>
      <trkpt lat="45.79112" lon="6.71551">
        <ele>1249</ele>
        <time>2026-07-29T12:42:01.716Z</time>
      </trkpt>
      <trkpt lat="45.79114" lon="6.71551">
        <ele>1249</ele>
        <time>2026-07-29T12:42:02.716Z</time>
      </trkpt>
      <trkpt lat="45.79116" lon="6.71552">
        <ele>1248</ele>
        <time>2026-07-29T12:42:03.716Z</time>
      </trkpt>
      <trkpt lat="45.79119" lon="6.71553">
        <ele>1247</ele>
        <time>2026-07-29T12:42:04.716Z</time>
      </trkpt>
      <trkpt lat="45.79122" lon="6.71555">
        <ele>1247</ele>
        <time>2026-07-29T12:42:05.716Z</time>
      </trkpt>
      <trkpt lat="45.79124" lon="6.71556">
        <ele>1246</ele>
        <time>2026-07-29T12:42:06.716Z</time>
      </trkpt>
      <trkpt lat="45.79127" lon="6.71559">
        <ele>1245</ele>
        <time>2026-07-29T12:42:07.716Z</time>
      </trkpt>
      <trkpt lat="45.79129" lon="6.71561">
        <ele>1244</ele>
        <time>2026-07-29T12:42:08.716Z</time>
      </trkpt>
      <trkpt lat="45.7913" lon="6.71563">
        <ele>1243</ele>
        <time>2026-07-29T12:42:09.716Z</time>
      </trkpt>
      <trkpt lat="45.79132" lon="6.71565">
        <ele>1243</ele>
        <time>2026-07-29T12:42:10.716Z</time>
      </trkpt>
      <trkpt lat="45.79134" lon="6.71566">
        <ele>1242</ele>
        <time>2026-07-29T12:42:11.716Z</time>
      </trkpt>
      <trkpt lat="45.79135" lon="6.71567">
        <ele>1242</ele>
        <time>2026-07-29T12:42:12.716Z</time>
      </trkpt>
      <trkpt lat="45.79137" lon="6.71569">
        <ele>1241</ele>
        <time>2026-07-29T12:42:13.716Z</time>
      </trkpt>
      <trkpt lat="45.79139" lon="6.7157">
        <ele>1241</ele>
        <time>2026-07-29T12:42:14.716Z</time>
      </trkpt>
      <trkpt lat="45.79141" lon="6.71572">
        <ele>1240</ele>
        <time>2026-07-29T12:42:15.716Z</time>
      </trkpt>
      <trkpt lat="45.79142" lon="6.71574">
        <ele>1239</ele>
        <time>2026-07-29T12:42:16.716Z</time>
      </trkpt>
      <trkpt lat="45.79144" lon="6.71576">
        <ele>1238</ele>
        <time>2026-07-29T12:42:17.716Z</time>
      </trkpt>
      <trkpt lat="45.79146" lon="6.71578">
        <ele>1238</ele>
        <time>2026-07-29T12:42:18.716Z</time>
      </trkpt>
      <trkpt lat="45.79147" lon="6.7158">
        <ele>1237</ele>
        <time>2026-07-29T12:42:19.716Z</time>
      </trkpt>
      <trkpt lat="45.79149" lon="6.71582">
        <ele>1236</ele>
        <time>2026-07-29T12:42:20.716Z</time>
      </trkpt>
      <trkpt lat="45.7915" lon="6.71585">
        <ele>1236</ele>
        <time>2026-07-29T12:42:21.716Z</time>
      </trkpt>
      <trkpt lat="45.79151" lon="6.71588">
        <ele>1235</ele>
        <time>2026-07-29T12:42:22.716Z</time>
      </trkpt>
      <trkpt lat="45.79153" lon="6.71591">
        <ele>1234</ele>
        <time>2026-07-29T12:42:23.716Z</time>
      </trkpt>
      <trkpt lat="45.79154" lon="6.71593">
        <ele>1233</ele>
        <time>2026-07-29T12:42:24.716Z</time>
      </trkpt>
      <trkpt lat="45.79156" lon="6.71596">
        <ele>1232</ele>
        <time>2026-07-29T12:42:25.716Z</time>
      </trkpt>
      <trkpt lat="45.79157" lon="6.71598">
        <ele>1231</ele>
        <time>2026-07-29T12:42:26.716Z</time>
      </trkpt>
      <trkpt lat="45.79159" lon="6.716">
        <ele>1230</ele>
        <time>2026-07-29T12:42:27.716Z</time>
      </trkpt>
      <trkpt lat="45.79161" lon="6.71602">
        <ele>1229</ele>
        <time>2026-07-29T12:42:28.716Z</time>
      </trkpt>
      <trkpt lat="45.79164" lon="6.71603">
        <ele>1229</ele>
        <time>2026-07-29T12:42:29.716Z</time>
      </trkpt>
      <trkpt lat="45.79166" lon="6.71605">
        <ele>1228</ele>
        <time>2026-07-29T12:42:30.716Z</time>
      </trkpt>
      <trkpt lat="45.79168" lon="6.71606">
        <ele>1228</ele>
        <time>2026-07-29T12:42:31.716Z</time>
      </trkpt>
      <trkpt lat="45.79171" lon="6.71608">
        <ele>1227</ele>
        <time>2026-07-29T12:42:32.716Z</time>
      </trkpt>
      <trkpt lat="45.79173" lon="6.7161">
        <ele>1227</ele>
        <time>2026-07-29T12:42:33.716Z</time>
      </trkpt>
      <trkpt lat="45.79175" lon="6.71612">
        <ele>1226</ele>
        <time>2026-07-29T12:42:34.716Z</time>
      </trkpt>
      <trkpt lat="45.79177" lon="6.71616">
        <ele>1225</ele>
        <time>2026-07-29T12:42:35.716Z</time>
      </trkpt>
      <trkpt lat="45.79179" lon="6.71619">
        <ele>1224</ele>
        <time>2026-07-29T12:42:36.716Z</time>
      </trkpt>
      <trkpt lat="45.79181" lon="6.71622">
        <ele>1223</ele>
        <time>2026-07-29T12:42:37.716Z</time>
      </trkpt>
      <trkpt lat="45.79183" lon="6.71626">
        <ele>1223</ele>
        <time>2026-07-29T12:42:38.716Z</time>
      </trkpt>
      <trkpt lat="45.79184" lon="6.71629">
        <ele>1223</ele>
        <time>2026-07-29T12:42:39.716Z</time>
      </trkpt>
      <trkpt lat="45.79186" lon="6.71632">
        <ele>1222</ele>
        <time>2026-07-29T12:42:40.716Z</time>
      </trkpt>
      <trkpt lat="45.79187" lon="6.71636">
        <ele>1222</ele>
        <time>2026-07-29T12:42:41.716Z</time>
      </trkpt>
      <trkpt lat="45.79189" lon="6.71639">
        <ele>1222</ele>
        <time>2026-07-29T12:42:42.716Z</time>
      </trkpt>
      <trkpt lat="45.79191" lon="6.71642">
        <ele>1222</ele>
        <time>2026-07-29T12:42:43.716Z</time>
      </trkpt>
      <trkpt lat="45.79193" lon="6.71644">
        <ele>1222</ele>
        <time>2026-07-29T12:42:44.716Z</time>
      </trkpt>
      <trkpt lat="45.79195" lon="6.71647">
        <ele>1222</ele>
        <time>2026-07-29T12:42:45.716Z</time>
      </trkpt>
      <trkpt lat="45.79197" lon="6.7165">
        <ele>1221</ele>
        <time>2026-07-29T12:42:46.716Z</time>
      </trkpt>
      <trkpt lat="45.79199" lon="6.71652">
        <ele>1221</ele>
        <time>2026-07-29T12:42:47.716Z</time>
      </trkpt>
      <trkpt lat="45.79201" lon="6.71654">
        <ele>1221</ele>
        <time>2026-07-29T12:42:48.716Z</time>
      </trkpt>
      <trkpt lat="45.79203" lon="6.71655">
        <ele>1222</ele>
        <time>2026-07-29T12:42:49.716Z</time>
      </trkpt>
      <trkpt lat="45.79205" lon="6.71657">
        <ele>1222</ele>
        <time>2026-07-29T12:42:50.716Z</time>
      </trkpt>
      <trkpt lat="45.79207" lon="6.71659">
        <ele>1223</ele>
        <time>2026-07-29T12:42:51.716Z</time>
      </trkpt>
      <trkpt lat="45.7921" lon="6.71661">
        <ele>1223</ele>
        <time>2026-07-29T12:42:52.716Z</time>
      </trkpt>
      <trkpt lat="45.79212" lon="6.71663">
        <ele>1224</ele>
        <time>2026-07-29T12:42:53.716Z</time>
      </trkpt>
      <trkpt lat="45.79214" lon="6.71664">
        <ele>1225</ele>
        <time>2026-07-29T12:42:54.716Z</time>
      </trkpt>
      <trkpt lat="45.79216" lon="6.71666">
        <ele>1226</ele>
        <time>2026-07-29T12:42:55.716Z</time>
      </trkpt>
      <trkpt lat="45.79217" lon="6.71668">
        <ele>1227</ele>
        <time>2026-07-29T12:42:56.716Z</time>
      </trkpt>
      <trkpt lat="45.79219" lon="6.7167">
        <ele>1227</ele>
        <time>2026-07-29T12:42:57.716Z</time>
      </trkpt>
      <trkpt lat="45.79221" lon="6.71672">
        <ele>1228</ele>
        <time>2026-07-29T12:42:58.716Z</time>
      </trkpt>
      <trkpt lat="45.79223" lon="6.71673">
        <ele>1229</ele>
        <time>2026-07-29T12:42:59.716Z</time>
      </trkpt>
      <trkpt lat="45.79226" lon="6.71674">
        <ele>1230</ele>
        <time>2026-07-29T12:43:00.716Z</time>
      </trkpt>
      <trkpt lat="45.79228" lon="6.71675">
        <ele>1231</ele>
        <time>2026-07-29T12:43:01.716Z</time>
      </trkpt>
      <trkpt lat="45.7923" lon="6.71676">
        <ele>1233</ele>
        <time>2026-07-29T12:43:02.716Z</time>
      </trkpt>
      <trkpt lat="45.79232" lon="6.71677">
        <ele>1234</ele>
        <time>2026-07-29T12:43:03.716Z</time>
      </trkpt>
      <trkpt lat="45.79234" lon="6.71678">
        <ele>1235</ele>
        <time>2026-07-29T12:43:04.716Z</time>
      </trkpt>
      <trkpt lat="45.79236" lon="6.71679">
        <ele>1236</ele>
        <time>2026-07-29T12:43:05.716Z</time>
      </trkpt>
      <trkpt lat="45.79239" lon="6.7168">
        <ele>1237</ele>
        <time>2026-07-29T12:43:06.716Z</time>
      </trkpt>
      <trkpt lat="45.79241" lon="6.71682">
        <ele>1237</ele>
        <time>2026-07-29T12:43:07.716Z</time>
      </trkpt>
      <trkpt lat="45.79243" lon="6.71684">
        <ele>1238</ele>
        <time>2026-07-29T12:43:08.716Z</time>
      </trkpt>
      <trkpt lat="45.79244" lon="6.71686">
        <ele>1238</ele>
        <time>2026-07-29T12:43:09.716Z</time>
      </trkpt>
      <trkpt lat="45.79246" lon="6.71688">
        <ele>1238</ele>
        <time>2026-07-29T12:43:10.716Z</time>
      </trkpt>
      <trkpt lat="45.79248" lon="6.7169">
        <ele>1237</ele>
        <time>2026-07-29T12:43:11.716Z</time>
      </trkpt>
      <trkpt lat="45.7925" lon="6.71692">
        <ele>1237</ele>
        <time>2026-07-29T12:43:12.716Z</time>
      </trkpt>
      <trkpt lat="45.79252" lon="6.71694">
        <ele>1236</ele>
        <time>2026-07-29T12:43:13.716Z</time>
      </trkpt>
      <trkpt lat="45.79254" lon="6.71695">
        <ele>1235</ele>
        <time>2026-07-29T12:43:14.716Z</time>
      </trkpt>
      <trkpt lat="45.79255" lon="6.71698">
        <ele>1235</ele>
        <time>2026-07-29T12:43:15.716Z</time>
      </trkpt>
      <trkpt lat="45.79257" lon="6.71699">
        <ele>1234</ele>
        <time>2026-07-29T12:43:16.716Z</time>
      </trkpt>
      <trkpt lat="45.79259" lon="6.71702">
        <ele>1233</ele>
        <time>2026-07-29T12:43:17.716Z</time>
      </trkpt>
      <trkpt lat="45.79261" lon="6.71703">
        <ele>1232</ele>
        <time>2026-07-29T12:43:18.716Z</time>
      </trkpt>
      <trkpt lat="45.79263" lon="6.71704">
        <ele>1232</ele>
        <time>2026-07-29T12:43:19.716Z</time>
      </trkpt>
      <trkpt lat="45.79265" lon="6.71705">
        <ele>1232</ele>
        <time>2026-07-29T12:43:20.716Z</time>
      </trkpt>
      <trkpt lat="45.79267" lon="6.71706">
        <ele>1232</ele>
        <time>2026-07-29T12:43:21.716Z</time>
      </trkpt>
      <trkpt lat="45.79269" lon="6.71709">
        <ele>1232</ele>
        <time>2026-07-29T12:43:22.716Z</time>
      </trkpt>
      <trkpt lat="45.79271" lon="6.7171">
        <ele>1233</ele>
        <time>2026-07-29T12:43:23.716Z</time>
      </trkpt>
      <trkpt lat="45.79273" lon="6.71712">
        <ele>1233</ele>
        <time>2026-07-29T12:43:24.716Z</time>
      </trkpt>
      <trkpt lat="45.79275" lon="6.71714">
        <ele>1234</ele>
        <time>2026-07-29T12:43:25.716Z</time>
      </trkpt>
      <trkpt lat="45.79277" lon="6.71716">
        <ele>1234</ele>
        <time>2026-07-29T12:43:26.716Z</time>
      </trkpt>
      <trkpt lat="45.79278" lon="6.71721">
        <ele>1234</ele>
        <time>2026-07-29T12:43:27.716Z</time>
      </trkpt>
      <trkpt lat="45.7928" lon="6.71723">
        <ele>1234</ele>
        <time>2026-07-29T12:43:28.716Z</time>
      </trkpt>
      <trkpt lat="45.79281" lon="6.71728">
        <ele>1233</ele>
        <time>2026-07-29T12:43:29.716Z</time>
      </trkpt>
      <trkpt lat="45.79282" lon="6.71733">
        <ele>1232</ele>
        <time>2026-07-29T12:43:30.716Z</time>
      </trkpt>
      <trkpt lat="45.79283" lon="6.71736">
        <ele>1231</ele>
        <time>2026-07-29T12:43:31.716Z</time>
      </trkpt>
      <trkpt lat="45.79285" lon="6.7174">
        <ele>1229</ele>
        <time>2026-07-29T12:43:32.716Z</time>
      </trkpt>
      <trkpt lat="45.79287" lon="6.71743">
        <ele>1228</ele>
        <time>2026-07-29T12:43:33.716Z</time>
      </trkpt>
      <trkpt lat="45.79288" lon="6.71746">
        <ele>1227</ele>
        <time>2026-07-29T12:43:34.716Z</time>
      </trkpt>
      <trkpt lat="45.79289" lon="6.71749">
        <ele>1227</ele>
        <time>2026-07-29T12:43:35.716Z</time>
      </trkpt>
      <trkpt lat="45.7929" lon="6.71752">
        <ele>1226</ele>
        <time>2026-07-29T12:43:36.716Z</time>
      </trkpt>
      <trkpt lat="45.79291" lon="6.71755">
        <ele>1225</ele>
        <time>2026-07-29T12:43:37.716Z</time>
      </trkpt>
      <trkpt lat="45.79292" lon="6.71758">
        <ele>1224</ele>
        <time>2026-07-29T12:43:38.716Z</time>
      </trkpt>
      <trkpt lat="45.79293" lon="6.7176">
        <ele>1223</ele>
        <time>2026-07-29T12:43:39.716Z</time>
      </trkpt>
      <trkpt lat="45.79294" lon="6.71762">
        <ele>1223</ele>
        <time>2026-07-29T12:43:40.716Z</time>
      </trkpt>
      <trkpt lat="45.79295" lon="6.71764">
        <ele>1222</ele>
        <time>2026-07-29T12:43:41.716Z</time>
      </trkpt>
      <trkpt lat="45.79296" lon="6.71766">
        <ele>1222</ele>
        <time>2026-07-29T12:43:42.716Z</time>
      </trkpt>
      <trkpt lat="45.79297" lon="6.71769">
        <ele>1221</ele>
        <time>2026-07-29T12:43:43.716Z</time>
      </trkpt>
      <trkpt lat="45.79299" lon="6.71771">
        <ele>1220</ele>
        <time>2026-07-29T12:43:44.716Z</time>
      </trkpt>
      <trkpt lat="45.793" lon="6.71773">
        <ele>1220</ele>
        <time>2026-07-29T12:43:45.716Z</time>
      </trkpt>
      <trkpt lat="45.79301" lon="6.71775">
        <ele>1220</ele>
        <time>2026-07-29T12:43:46.716Z</time>
      </trkpt>
      <trkpt lat="45.79302" lon="6.71777">
        <ele>1220</ele>
        <time>2026-07-29T12:43:47.716Z</time>
      </trkpt>
      <trkpt lat="45.79303" lon="6.71778">
        <ele>1220</ele>
        <time>2026-07-29T12:43:48.716Z</time>
      </trkpt>
      <trkpt lat="45.79304" lon="6.7178">
        <ele>1220</ele>
        <time>2026-07-29T12:43:49.716Z</time>
      </trkpt>
      <trkpt lat="45.79306" lon="6.71781">
        <ele>1221</ele>
        <time>2026-07-29T12:43:50.716Z</time>
      </trkpt>
      <trkpt lat="45.79306" lon="6.71782">
        <ele>1221</ele>
        <time>2026-07-29T12:43:51.716Z</time>
      </trkpt>
      <trkpt lat="45.79308" lon="6.71784">
        <ele>1221</ele>
        <time>2026-07-29T12:43:52.716Z</time>
      </trkpt>
      <trkpt lat="45.79309" lon="6.71786">
        <ele>1221</ele>
        <time>2026-07-29T12:43:53.716Z</time>
      </trkpt>
      <trkpt lat="45.79311" lon="6.71788">
        <ele>1221</ele>
        <time>2026-07-29T12:43:54.716Z</time>
      </trkpt>
      <trkpt lat="45.79312" lon="6.7179">
        <ele>1221</ele>
        <time>2026-07-29T12:43:55.716Z</time>
      </trkpt>
      <trkpt lat="45.79315" lon="6.71792">
        <ele>1221</ele>
        <time>2026-07-29T12:43:56.716Z</time>
      </trkpt>
      <trkpt lat="45.79316" lon="6.71794">
        <ele>1221</ele>
        <time>2026-07-29T12:43:57.717Z</time>
      </trkpt>
      <trkpt lat="45.79319" lon="6.71796">
        <ele>1221</ele>
        <time>2026-07-29T12:43:58.716Z</time>
      </trkpt>
      <trkpt lat="45.79321" lon="6.71798">
        <ele>1222</ele>
        <time>2026-07-29T12:43:59.716Z</time>
      </trkpt>
      <trkpt lat="45.79323" lon="6.718">
        <ele>1222</ele>
        <time>2026-07-29T12:44:00.716Z</time>
      </trkpt>
      <trkpt lat="45.79324" lon="6.71801">
        <ele>1222</ele>
        <time>2026-07-29T12:44:01.716Z</time>
      </trkpt>
      <trkpt lat="45.79326" lon="6.71803">
        <ele>1222</ele>
        <time>2026-07-29T12:44:02.716Z</time>
      </trkpt>
      <trkpt lat="45.79328" lon="6.71805">
        <ele>1222</ele>
        <time>2026-07-29T12:44:03.716Z</time>
      </trkpt>
      <trkpt lat="45.79329" lon="6.71807">
        <ele>1222</ele>
        <time>2026-07-29T12:44:04.716Z</time>
      </trkpt>
      <trkpt lat="45.79331" lon="6.71809">
        <ele>1222</ele>
        <time>2026-07-29T12:44:05.716Z</time>
      </trkpt>
      <trkpt lat="45.79333" lon="6.7181">
        <ele>1222</ele>
        <time>2026-07-29T12:44:06.716Z</time>
      </trkpt>
      <trkpt lat="45.79335" lon="6.71812">
        <ele>1222</ele>
        <time>2026-07-29T12:44:07.716Z</time>
      </trkpt>
      <trkpt lat="45.79337" lon="6.71813">
        <ele>1222</ele>
        <time>2026-07-29T12:44:08.716Z</time>
      </trkpt>
      <trkpt lat="45.79339" lon="6.71814">
        <ele>1222</ele>
        <time>2026-07-29T12:44:09.716Z</time>
      </trkpt>
      <trkpt lat="45.79341" lon="6.71815">
        <ele>1222</ele>
        <time>2026-07-29T12:44:10.716Z</time>
      </trkpt>
      <trkpt lat="45.79343" lon="6.71816">
        <ele>1221</ele>
        <time>2026-07-29T12:44:11.716Z</time>
      </trkpt>
      <trkpt lat="45.79345" lon="6.71818">
        <ele>1220</ele>
        <time>2026-07-29T12:44:12.716Z</time>
      </trkpt>
      <trkpt lat="45.79348" lon="6.71819">
        <ele>1220</ele>
        <time>2026-07-29T12:44:13.716Z</time>
      </trkpt>
      <trkpt lat="45.7935" lon="6.7182">
        <ele>1219</ele>
        <time>2026-07-29T12:44:14.716Z</time>
      </trkpt>
      <trkpt lat="45.79352" lon="6.71822">
        <ele>1219</ele>
        <time>2026-07-29T12:44:15.716Z</time>
      </trkpt>
      <trkpt lat="45.79353" lon="6.71823">
        <ele>1219</ele>
        <time>2026-07-29T12:44:16.716Z</time>
      </trkpt>
      <trkpt lat="45.79355" lon="6.71824">
        <ele>1219</ele>
        <time>2026-07-29T12:44:17.716Z</time>
      </trkpt>
      <trkpt lat="45.79357" lon="6.71825">
        <ele>1219</ele>
        <time>2026-07-29T12:44:18.716Z</time>
      </trkpt>
      <trkpt lat="45.79358" lon="6.71826">
        <ele>1219</ele>
        <time>2026-07-29T12:44:19.716Z</time>
      </trkpt>
      <trkpt lat="45.7936" lon="6.71827">
        <ele>1219</ele>
        <time>2026-07-29T12:44:20.716Z</time>
      </trkpt>
      <trkpt lat="45.79362" lon="6.71828">
        <ele>1219</ele>
        <time>2026-07-29T12:44:21.716Z</time>
      </trkpt>
      <trkpt lat="45.79364" lon="6.71829">
        <ele>1219</ele>
        <time>2026-07-29T12:44:22.716Z</time>
      </trkpt>
      <trkpt lat="45.79366" lon="6.7183">
        <ele>1218</ele>
        <time>2026-07-29T12:44:23.716Z</time>
      </trkpt>
      <trkpt lat="45.79368" lon="6.71831">
        <ele>1218</ele>
        <time>2026-07-29T12:44:24.716Z</time>
      </trkpt>
      <trkpt lat="45.7937" lon="6.71832">
        <ele>1217</ele>
        <time>2026-07-29T12:44:25.716Z</time>
      </trkpt>
      <trkpt lat="45.79372" lon="6.71833">
        <ele>1217</ele>
        <time>2026-07-29T12:44:26.716Z</time>
      </trkpt>
      <trkpt lat="45.79373" lon="6.71833">
        <ele>1216</ele>
        <time>2026-07-29T12:44:27.716Z</time>
      </trkpt>
      <trkpt lat="45.79375" lon="6.71833">
        <ele>1216</ele>
        <time>2026-07-29T12:44:28.716Z</time>
      </trkpt>
      <trkpt lat="45.79377" lon="6.71834">
        <ele>1216</ele>
        <time>2026-07-29T12:44:29.716Z</time>
      </trkpt>
      <trkpt lat="45.79378" lon="6.71835">
        <ele>1216</ele>
        <time>2026-07-29T12:44:30.716Z</time>
      </trkpt>
      <trkpt lat="45.79379" lon="6.71836">
        <ele>1216</ele>
        <time>2026-07-29T12:44:31.716Z</time>
      </trkpt>
      <trkpt lat="45.7938" lon="6.71837">
        <ele>1215</ele>
        <time>2026-07-29T12:44:32.716Z</time>
      </trkpt>
      <trkpt lat="45.79381" lon="6.71838">
        <ele>1215</ele>
        <time>2026-07-29T12:44:33.716Z</time>
      </trkpt>
      <trkpt lat="45.79383" lon="6.71838">
        <ele>1215</ele>
        <time>2026-07-29T12:44:34.716Z</time>
      </trkpt>
      <trkpt lat="45.79385" lon="6.71837">
        <ele>1215</ele>
        <time>2026-07-29T12:44:35.716Z</time>
      </trkpt>
      <trkpt lat="45.79386" lon="6.71836">
        <ele>1216</ele>
        <time>2026-07-29T12:44:36.716Z</time>
      </trkpt>
      <trkpt lat="45.79387" lon="6.71834">
        <ele>1216</ele>
        <time>2026-07-29T12:44:37.716Z</time>
      </trkpt>
      <trkpt lat="45.79388" lon="6.71832">
        <ele>1217</ele>
        <time>2026-07-29T12:44:38.716Z</time>
      </trkpt>
      <trkpt lat="45.79389" lon="6.7183">
        <ele>1217</ele>
        <time>2026-07-29T12:44:39.716Z</time>
      </trkpt>
      <trkpt lat="45.7939" lon="6.71827">
        <ele>1218</ele>
        <time>2026-07-29T12:44:40.716Z</time>
      </trkpt>
      <trkpt lat="45.79391" lon="6.71825">
        <ele>1218</ele>
        <time>2026-07-29T12:44:41.716Z</time>
      </trkpt>
      <trkpt lat="45.79392" lon="6.71823">
        <ele>1219</ele>
        <time>2026-07-29T12:44:42.716Z</time>
      </trkpt>
      <trkpt lat="45.79394" lon="6.71822">
        <ele>1219</ele>
        <time>2026-07-29T12:44:43.716Z</time>
      </trkpt>
      <trkpt lat="45.79396" lon="6.7182">
        <ele>1220</ele>
        <time>2026-07-29T12:44:44.716Z</time>
      </trkpt>
      <trkpt lat="45.79399" lon="6.71818">
        <ele>1220</ele>
        <time>2026-07-29T12:44:45.716Z</time>
      </trkpt>
      <trkpt lat="45.794" lon="6.71816">
        <ele>1221</ele>
        <time>2026-07-29T12:44:46.716Z</time>
      </trkpt>
      <trkpt lat="45.79402" lon="6.71814">
        <ele>1222</ele>
        <time>2026-07-29T12:44:47.716Z</time>
      </trkpt>
      <trkpt lat="45.79404" lon="6.71812">
        <ele>1222</ele>
        <time>2026-07-29T12:44:48.716Z</time>
      </trkpt>
      <trkpt lat="45.79407" lon="6.7181">
        <ele>1223</ele>
        <time>2026-07-29T12:44:49.716Z</time>
      </trkpt>
      <trkpt lat="45.79409" lon="6.71808">
        <ele>1223</ele>
        <time>2026-07-29T12:44:50.716Z</time>
      </trkpt>
      <trkpt lat="45.7941" lon="6.71807">
        <ele>1224</ele>
        <time>2026-07-29T12:44:51.716Z</time>
      </trkpt>
      <trkpt lat="45.7941" lon="6.71807">
        <ele>1224</ele>
        <time>2026-07-29T12:44:52.716Z</time>
      </trkpt>
      <trkpt lat="45.79411" lon="6.71806">
        <ele>1224</ele>
        <time>2026-07-29T12:44:53.716Z</time>
      </trkpt>
      <trkpt lat="45.79412" lon="6.71804">
        <ele>1224</ele>
        <time>2026-07-29T12:44:54.716Z</time>
      </trkpt>
      <trkpt lat="45.79413" lon="6.71802">
        <ele>1223</ele>
        <time>2026-07-29T12:44:55.716Z</time>
      </trkpt>
      <trkpt lat="45.79414" lon="6.71801">
        <ele>1223</ele>
        <time>2026-07-29T12:44:56.716Z</time>
      </trkpt>
      <trkpt lat="45.79416" lon="6.718">
        <ele>1222</ele>
        <time>2026-07-29T12:44:57.716Z</time>
      </trkpt>
      <trkpt lat="45.79418" lon="6.71798">
        <ele>1221</ele>
        <time>2026-07-29T12:44:58.716Z</time>
      </trkpt>
      <trkpt lat="45.79419" lon="6.71797">
        <ele>1220</ele>
        <time>2026-07-29T12:44:59.716Z</time>
      </trkpt>
      <trkpt lat="45.7942" lon="6.71795">
        <ele>1219</ele>
        <time>2026-07-29T12:45:00.716Z</time>
      </trkpt>
      <trkpt lat="45.79421" lon="6.71793">
        <ele>1218</ele>
        <time>2026-07-29T12:45:01.716Z</time>
      </trkpt>
      <trkpt lat="45.79422" lon="6.71792">
        <ele>1218</ele>
        <time>2026-07-29T12:45:02.716Z</time>
      </trkpt>
      <trkpt lat="45.79423" lon="6.7179">
        <ele>1217</ele>
        <time>2026-07-29T12:45:03.716Z</time>
      </trkpt>
      <trkpt lat="45.79423" lon="6.71789">
        <ele>1217</ele>
        <time>2026-07-29T12:45:04.716Z</time>
      </trkpt>
      <trkpt lat="45.79424" lon="6.71788">
        <ele>1216</ele>
        <time>2026-07-29T12:45:05.716Z</time>
      </trkpt>
      <trkpt lat="45.79424" lon="6.71787">
        <ele>1216</ele>
        <time>2026-07-29T12:45:06.716Z</time>
      </trkpt>
      <trkpt lat="45.79424" lon="6.71786">
        <ele>1216</ele>
        <time>2026-07-29T12:45:07.716Z</time>
      </trkpt>
      <trkpt lat="45.79425" lon="6.71785">
        <ele>1215</ele>
        <time>2026-07-29T12:45:08.716Z</time>
      </trkpt>
      <trkpt lat="45.79425" lon="6.71784">
        <ele>1215</ele>
        <time>2026-07-29T12:45:09.716Z</time>
      </trkpt>
      <trkpt lat="45.79425" lon="6.71782">
        <ele>1214</ele>
        <time>2026-07-29T12:45:10.716Z</time>
      </trkpt>
      <trkpt lat="45.79426" lon="6.7178">
        <ele>1214</ele>
        <time>2026-07-29T12:45:11.716Z</time>
      </trkpt>
      <trkpt lat="45.79426" lon="6.71778">
        <ele>1213</ele>
        <time>2026-07-29T12:45:12.716Z</time>
      </trkpt>
      <trkpt lat="45.79426" lon="6.71776">
        <ele>1212</ele>
        <time>2026-07-29T12:45:13.716Z</time>
      </trkpt>
      <trkpt lat="45.79427" lon="6.71774">
        <ele>1212</ele>
        <time>2026-07-29T12:45:14.716Z</time>
      </trkpt>
      <trkpt lat="45.79427" lon="6.71772">
        <ele>1211</ele>
        <time>2026-07-29T12:45:15.716Z</time>
      </trkpt>
      <trkpt lat="45.79428" lon="6.7177">
        <ele>1211</ele>
        <time>2026-07-29T12:45:16.716Z</time>
      </trkpt>
      <trkpt lat="45.79428" lon="6.71769">
        <ele>1210</ele>
        <time>2026-07-29T12:45:17.716Z</time>
      </trkpt>
      <trkpt lat="45.79429" lon="6.71767">
        <ele>1209</ele>
        <time>2026-07-29T12:45:18.716Z</time>
      </trkpt>
      <trkpt lat="45.7943" lon="6.71766">
        <ele>1209</ele>
        <time>2026-07-29T12:45:19.716Z</time>
      </trkpt>
      <trkpt lat="45.79431" lon="6.71764">
        <ele>1208</ele>
        <time>2026-07-29T12:45:20.716Z</time>
      </trkpt>
      <trkpt lat="45.79432" lon="6.71763">
        <ele>1208</ele>
        <time>2026-07-29T12:45:21.716Z</time>
      </trkpt>
      <trkpt lat="45.79434" lon="6.71762">
        <ele>1208</ele>
        <time>2026-07-29T12:45:22.716Z</time>
      </trkpt>
      <trkpt lat="45.79435" lon="6.71761">
        <ele>1208</ele>
        <time>2026-07-29T12:45:23.716Z</time>
      </trkpt>
      <trkpt lat="45.79436" lon="6.71761">
        <ele>1208</ele>
        <time>2026-07-29T12:45:24.716Z</time>
      </trkpt>
      <trkpt lat="45.79438" lon="6.7176">
        <ele>1208</ele>
        <time>2026-07-29T12:45:25.716Z</time>
      </trkpt>
      <trkpt lat="45.79439" lon="6.7176">
        <ele>1208</ele>
        <time>2026-07-29T12:45:26.716Z</time>
      </trkpt>
      <trkpt lat="45.7944" lon="6.7176">
        <ele>1208</ele>
        <time>2026-07-29T12:45:27.716Z</time>
      </trkpt>
      <trkpt lat="45.79442" lon="6.71761">
        <ele>1208</ele>
        <time>2026-07-29T12:45:28.716Z</time>
      </trkpt>
      <trkpt lat="45.79443" lon="6.71762">
        <ele>1208</ele>
        <time>2026-07-29T12:45:29.716Z</time>
      </trkpt>
      <trkpt lat="45.79445" lon="6.71763">
        <ele>1208</ele>
        <time>2026-07-29T12:45:30.716Z</time>
      </trkpt>
      <trkpt lat="45.79446" lon="6.71764">
        <ele>1207</ele>
        <time>2026-07-29T12:45:31.716Z</time>
      </trkpt>
      <trkpt lat="45.79447" lon="6.71764">
        <ele>1207</ele>
        <time>2026-07-29T12:45:32.716Z</time>
      </trkpt>
      <trkpt lat="45.79448" lon="6.71765">
        <ele>1207</ele>
        <time>2026-07-29T12:45:33.716Z</time>
      </trkpt>
      <trkpt lat="45.79449" lon="6.71766">
        <ele>1206</ele>
        <time>2026-07-29T12:45:34.716Z</time>
      </trkpt>
      <trkpt lat="45.7945" lon="6.71767">
        <ele>1206</ele>
        <time>2026-07-29T12:45:35.716Z</time>
      </trkpt>
      <trkpt lat="45.79451" lon="6.71768">
        <ele>1206</ele>
        <time>2026-07-29T12:45:36.716Z</time>
      </trkpt>
      <trkpt lat="45.79452" lon="6.71769">
        <ele>1205</ele>
        <time>2026-07-29T12:45:37.716Z</time>
      </trkpt>
      <trkpt lat="45.79453" lon="6.7177">
        <ele>1204</ele>
        <time>2026-07-29T12:45:38.716Z</time>
      </trkpt>
      <trkpt lat="45.79454" lon="6.71771">
        <ele>1204</ele>
        <time>2026-07-29T12:45:39.716Z</time>
      </trkpt>
      <trkpt lat="45.79456" lon="6.71772">
        <ele>1204</ele>
        <time>2026-07-29T12:45:40.716Z</time>
      </trkpt>
      <trkpt lat="45.79457" lon="6.71773">
        <ele>1204</ele>
        <time>2026-07-29T12:45:41.717Z</time>
      </trkpt>
      <trkpt lat="45.79458" lon="6.71774">
        <ele>1204</ele>
        <time>2026-07-29T12:45:42.716Z</time>
      </trkpt>
      <trkpt lat="45.79458" lon="6.71775">
        <ele>1204</ele>
        <time>2026-07-29T12:45:43.716Z</time>
      </trkpt>
    </trkseg>
  </trk>
</gpx>